<?xml version="1.0" encoding="UTF-8" standalone="no" ?>
<gpx xmlns="http://www.topografix.com/GPX/1/1" xmlns:xsi="http://www.w3.org/2001/XMLSchema-instance" xsi:schemaLocation="http://www.topografix.com/GPX/1/1 http://www.topografix.com/GPX/1/1/gpx.xsd" version="1.1" creator="VisuGPX - https://www.visugpx.com">
  <metadata>
    <name>83 - D+ la Roque Esclapon</name>
    <desc><![CDATA[83 - D+ la Roque Esclapon : la Bastide - les châteaux - le Lachens 
2024-05-26]]></desc>
  </metadata>
  <trk>
    <name><![CDATA[la Roque Esclapon la Bastide Lachens 2024-05-26-01]]></name>
    <trkseg>
      <trkpt lat="43.73102" lon="6.62091">
        <ele>966.8</ele>
        <time>2024-05-26T07:06:29Z</time>
      </trkpt>
      <trkpt lat="43.73102" lon="6.62091">
        <ele>966.8</ele>
        <time>2024-05-26T07:06:30Z</time>
      </trkpt>
      <trkpt lat="43.73102" lon="6.62091">
        <ele>966.8</ele>
        <time>2024-05-26T07:06:31Z</time>
      </trkpt>
      <trkpt lat="43.73102" lon="6.62091">
        <ele>966.8</ele>
        <time>2024-05-26T07:06:32Z</time>
      </trkpt>
      <trkpt lat="43.73102" lon="6.62092">
        <ele>966.9</ele>
        <time>2024-05-26T07:06:33Z</time>
      </trkpt>
      <trkpt lat="43.73102" lon="6.62093">
        <ele>966.9</ele>
        <time>2024-05-26T07:06:34Z</time>
      </trkpt>
      <trkpt lat="43.73101" lon="6.62093">
        <ele>966.9</ele>
        <time>2024-05-26T07:06:35Z</time>
      </trkpt>
      <trkpt lat="43.73101" lon="6.62092">
        <ele>966.9</ele>
        <time>2024-05-26T07:06:36Z</time>
      </trkpt>
      <trkpt lat="43.73101" lon="6.62092">
        <ele>966.9</ele>
        <time>2024-05-26T07:06:37Z</time>
      </trkpt>
      <trkpt lat="43.73101" lon="6.62092">
        <ele>967</ele>
        <time>2024-05-26T07:06:38Z</time>
      </trkpt>
      <trkpt lat="43.73101" lon="6.62092">
        <ele>967</ele>
        <time>2024-05-26T07:06:39Z</time>
      </trkpt>
      <trkpt lat="43.73101" lon="6.62092">
        <ele>967</ele>
        <time>2024-05-26T07:06:40Z</time>
      </trkpt>
      <trkpt lat="43.73101" lon="6.62092">
        <ele>967.1</ele>
        <time>2024-05-26T07:06:41Z</time>
      </trkpt>
      <trkpt lat="43.73101" lon="6.62092">
        <ele>967.2</ele>
        <time>2024-05-26T07:06:42Z</time>
      </trkpt>
      <trkpt lat="43.73101" lon="6.62092">
        <ele>967.2</ele>
        <time>2024-05-26T07:06:43Z</time>
      </trkpt>
      <trkpt lat="43.73101" lon="6.62093">
        <ele>967.2</ele>
        <time>2024-05-26T07:06:44Z</time>
      </trkpt>
      <trkpt lat="43.73102" lon="6.62093">
        <ele>967.2</ele>
        <time>2024-05-26T07:06:45Z</time>
      </trkpt>
      <trkpt lat="43.73102" lon="6.62093">
        <ele>967.2</ele>
        <time>2024-05-26T07:06:46Z</time>
      </trkpt>
      <trkpt lat="43.73102" lon="6.62093">
        <ele>967.3</ele>
        <time>2024-05-26T07:06:47Z</time>
      </trkpt>
      <trkpt lat="43.73102" lon="6.62093">
        <ele>967.3</ele>
        <time>2024-05-26T07:06:48Z</time>
      </trkpt>
      <trkpt lat="43.73102" lon="6.62092">
        <ele>967.2</ele>
        <time>2024-05-26T07:06:49Z</time>
      </trkpt>
      <trkpt lat="43.73102" lon="6.62092">
        <ele>967.2</ele>
        <time>2024-05-26T07:06:50Z</time>
      </trkpt>
      <trkpt lat="43.73102" lon="6.62092">
        <ele>967.2</ele>
        <time>2024-05-26T07:06:51Z</time>
      </trkpt>
      <trkpt lat="43.73102" lon="6.62092">
        <ele>967.2</ele>
        <time>2024-05-26T07:06:52Z</time>
      </trkpt>
      <trkpt lat="43.73102" lon="6.62093">
        <ele>967.1</ele>
        <time>2024-05-26T07:06:53Z</time>
      </trkpt>
      <trkpt lat="43.73101" lon="6.62093">
        <ele>967.1</ele>
        <time>2024-05-26T07:06:54Z</time>
      </trkpt>
      <trkpt lat="43.73101" lon="6.62093">
        <ele>967.2</ele>
        <time>2024-05-26T07:06:55Z</time>
      </trkpt>
      <trkpt lat="43.73101" lon="6.62093">
        <ele>967.2</ele>
        <time>2024-05-26T07:06:56Z</time>
      </trkpt>
      <trkpt lat="43.73101" lon="6.62093">
        <ele>967.2</ele>
        <time>2024-05-26T07:06:57Z</time>
      </trkpt>
      <trkpt lat="43.73101" lon="6.62093">
        <ele>967.2</ele>
        <time>2024-05-26T07:06:58Z</time>
      </trkpt>
      <trkpt lat="43.73101" lon="6.62093">
        <ele>967.2</ele>
        <time>2024-05-26T07:06:59Z</time>
      </trkpt>
      <trkpt lat="43.73101" lon="6.62093">
        <ele>967.2</ele>
        <time>2024-05-26T07:07:00Z</time>
      </trkpt>
      <trkpt lat="43.73101" lon="6.62093">
        <ele>967.2</ele>
        <time>2024-05-26T07:07:01Z</time>
      </trkpt>
      <trkpt lat="43.73101" lon="6.62093">
        <ele>967.2</ele>
        <time>2024-05-26T07:07:02Z</time>
      </trkpt>
      <trkpt lat="43.73101" lon="6.62092">
        <ele>967.3</ele>
        <time>2024-05-26T07:07:03Z</time>
      </trkpt>
      <trkpt lat="43.73101" lon="6.62092">
        <ele>967.4</ele>
        <time>2024-05-26T07:07:04Z</time>
      </trkpt>
      <trkpt lat="43.73101" lon="6.62092">
        <ele>967.5</ele>
        <time>2024-05-26T07:07:05Z</time>
      </trkpt>
      <trkpt lat="43.73101" lon="6.62092">
        <ele>967.5</ele>
        <time>2024-05-26T07:07:06Z</time>
      </trkpt>
      <trkpt lat="43.73101" lon="6.62092">
        <ele>967.5</ele>
        <time>2024-05-26T07:07:07Z</time>
      </trkpt>
      <trkpt lat="43.73102" lon="6.62091">
        <ele>967.5</ele>
        <time>2024-05-26T07:07:08Z</time>
      </trkpt>
      <trkpt lat="43.73102" lon="6.62091">
        <ele>967.5</ele>
        <time>2024-05-26T07:07:09Z</time>
      </trkpt>
      <trkpt lat="43.73102" lon="6.62091">
        <ele>967.5</ele>
        <time>2024-05-26T07:07:10Z</time>
      </trkpt>
      <trkpt lat="43.73102" lon="6.62091">
        <ele>967.5</ele>
        <time>2024-05-26T07:07:11Z</time>
      </trkpt>
      <trkpt lat="43.73102" lon="6.62091">
        <ele>967.5</ele>
        <time>2024-05-26T07:07:12Z</time>
      </trkpt>
      <trkpt lat="43.73102" lon="6.62091">
        <ele>967.5</ele>
        <time>2024-05-26T07:07:13Z</time>
      </trkpt>
      <trkpt lat="43.73103" lon="6.6209">
        <ele>967.5</ele>
        <time>2024-05-26T07:07:14Z</time>
      </trkpt>
      <trkpt lat="43.73103" lon="6.6209">
        <ele>967.4</ele>
        <time>2024-05-26T07:07:15Z</time>
      </trkpt>
      <trkpt lat="43.73102" lon="6.6209">
        <ele>967.4</ele>
        <time>2024-05-26T07:07:16Z</time>
      </trkpt>
      <trkpt lat="43.73102" lon="6.6209">
        <ele>967.4</ele>
        <time>2024-05-26T07:07:17Z</time>
      </trkpt>
      <trkpt lat="43.73102" lon="6.62091">
        <ele>967.4</ele>
        <time>2024-05-26T07:07:18Z</time>
      </trkpt>
      <trkpt lat="43.73102" lon="6.62091">
        <ele>967.3</ele>
        <time>2024-05-26T07:07:19Z</time>
      </trkpt>
      <trkpt lat="43.73102" lon="6.62091">
        <ele>967.3</ele>
        <time>2024-05-26T07:07:20Z</time>
      </trkpt>
      <trkpt lat="43.73103" lon="6.62091">
        <ele>967.3</ele>
        <time>2024-05-26T07:07:21Z</time>
      </trkpt>
      <trkpt lat="43.73102" lon="6.62091">
        <ele>967.4</ele>
        <time>2024-05-26T07:07:22Z</time>
      </trkpt>
      <trkpt lat="43.73102" lon="6.62091">
        <ele>967.5</ele>
        <time>2024-05-26T07:07:23Z</time>
      </trkpt>
      <trkpt lat="43.73103" lon="6.62091">
        <ele>967.5</ele>
        <time>2024-05-26T07:07:24Z</time>
      </trkpt>
      <trkpt lat="43.73102" lon="6.6209">
        <ele>967.5</ele>
        <time>2024-05-26T07:07:25Z</time>
      </trkpt>
      <trkpt lat="43.73103" lon="6.6209">
        <ele>967.6</ele>
        <time>2024-05-26T07:07:26Z</time>
      </trkpt>
      <trkpt lat="43.73103" lon="6.6209">
        <ele>967.5</ele>
        <time>2024-05-26T07:07:27Z</time>
      </trkpt>
      <trkpt lat="43.73103" lon="6.6209">
        <ele>967.5</ele>
        <time>2024-05-26T07:07:28Z</time>
      </trkpt>
      <trkpt lat="43.73103" lon="6.62089">
        <ele>967.5</ele>
        <time>2024-05-26T07:07:29Z</time>
      </trkpt>
      <trkpt lat="43.73103" lon="6.62088">
        <ele>967.5</ele>
        <time>2024-05-26T07:07:30Z</time>
      </trkpt>
      <trkpt lat="43.73103" lon="6.62088">
        <ele>967.5</ele>
        <time>2024-05-26T07:07:31Z</time>
      </trkpt>
      <trkpt lat="43.73103" lon="6.62088">
        <ele>967.4</ele>
        <time>2024-05-26T07:07:32Z</time>
      </trkpt>
      <trkpt lat="43.73104" lon="6.62087">
        <ele>967.4</ele>
        <time>2024-05-26T07:07:33Z</time>
      </trkpt>
      <trkpt lat="43.73103" lon="6.62088">
        <ele>967.4</ele>
        <time>2024-05-26T07:07:34Z</time>
      </trkpt>
      <trkpt lat="43.73103" lon="6.62087">
        <ele>967.4</ele>
        <time>2024-05-26T07:07:35Z</time>
      </trkpt>
      <trkpt lat="43.73102" lon="6.62088">
        <ele>967.4</ele>
        <time>2024-05-26T07:07:36Z</time>
      </trkpt>
      <trkpt lat="43.73102" lon="6.62088">
        <ele>967.3</ele>
        <time>2024-05-26T07:07:37Z</time>
      </trkpt>
      <trkpt lat="43.73103" lon="6.62088">
        <ele>967.3</ele>
        <time>2024-05-26T07:07:38Z</time>
      </trkpt>
      <trkpt lat="43.73102" lon="6.62088">
        <ele>967.2</ele>
        <time>2024-05-26T07:07:39Z</time>
      </trkpt>
      <trkpt lat="43.73102" lon="6.62088">
        <ele>967.2</ele>
        <time>2024-05-26T07:07:40Z</time>
      </trkpt>
      <trkpt lat="43.73102" lon="6.62089">
        <ele>967.1</ele>
        <time>2024-05-26T07:07:41Z</time>
      </trkpt>
      <trkpt lat="43.73102" lon="6.62089">
        <ele>967.1</ele>
        <time>2024-05-26T07:07:42Z</time>
      </trkpt>
      <trkpt lat="43.73102" lon="6.62089">
        <ele>967.1</ele>
        <time>2024-05-26T07:07:43Z</time>
      </trkpt>
      <trkpt lat="43.73102" lon="6.62088">
        <ele>967</ele>
        <time>2024-05-26T07:07:44Z</time>
      </trkpt>
      <trkpt lat="43.73103" lon="6.62088">
        <ele>967.2</ele>
        <time>2024-05-26T07:07:45Z</time>
      </trkpt>
      <trkpt lat="43.73104" lon="6.62088">
        <ele>967.2</ele>
        <time>2024-05-26T07:07:46Z</time>
      </trkpt>
      <trkpt lat="43.73105" lon="6.62087">
        <ele>967.3</ele>
        <time>2024-05-26T07:07:47Z</time>
      </trkpt>
      <trkpt lat="43.73105" lon="6.62087">
        <ele>967.4</ele>
        <time>2024-05-26T07:07:48Z</time>
      </trkpt>
      <trkpt lat="43.73104" lon="6.62086">
        <ele>965.3</ele>
        <time>2024-05-26T07:07:49Z</time>
      </trkpt>
      <trkpt lat="43.73105" lon="6.62086">
        <ele>965.6</ele>
        <time>2024-05-26T07:07:50Z</time>
      </trkpt>
      <trkpt lat="43.73103" lon="6.62087">
        <ele>965.8</ele>
        <time>2024-05-26T07:07:51Z</time>
      </trkpt>
      <trkpt lat="43.73104" lon="6.62087">
        <ele>966.1</ele>
        <time>2024-05-26T07:07:52Z</time>
      </trkpt>
      <trkpt lat="43.73104" lon="6.62088">
        <ele>966.3</ele>
        <time>2024-05-26T07:07:53Z</time>
      </trkpt>
      <trkpt lat="43.73104" lon="6.62089">
        <ele>966.5</ele>
        <time>2024-05-26T07:07:54Z</time>
      </trkpt>
      <trkpt lat="43.73103" lon="6.6209">
        <ele>966.7</ele>
        <time>2024-05-26T07:07:55Z</time>
      </trkpt>
      <trkpt lat="43.73103" lon="6.62091">
        <ele>966.8</ele>
        <time>2024-05-26T07:07:56Z</time>
      </trkpt>
      <trkpt lat="43.73104" lon="6.62092">
        <ele>967</ele>
        <time>2024-05-26T07:07:57Z</time>
      </trkpt>
      <trkpt lat="43.73104" lon="6.62092">
        <ele>967</ele>
        <time>2024-05-26T07:07:58Z</time>
      </trkpt>
      <trkpt lat="43.73105" lon="6.62093">
        <ele>967.1</ele>
        <time>2024-05-26T07:07:59Z</time>
      </trkpt>
      <trkpt lat="43.73105" lon="6.62093">
        <ele>967.1</ele>
        <time>2024-05-26T07:08:00Z</time>
      </trkpt>
      <trkpt lat="43.73105" lon="6.62092">
        <ele>967.2</ele>
        <time>2024-05-26T07:08:01Z</time>
      </trkpt>
      <trkpt lat="43.73106" lon="6.62091">
        <ele>967.3</ele>
        <time>2024-05-26T07:08:02Z</time>
      </trkpt>
      <trkpt lat="43.73106" lon="6.62091">
        <ele>967.3</ele>
        <time>2024-05-26T07:08:03Z</time>
      </trkpt>
      <trkpt lat="43.73106" lon="6.6209">
        <ele>967.3</ele>
        <time>2024-05-26T07:08:04Z</time>
      </trkpt>
      <trkpt lat="43.73107" lon="6.6209">
        <ele>967.3</ele>
        <time>2024-05-26T07:08:05Z</time>
      </trkpt>
      <trkpt lat="43.73107" lon="6.6209">
        <ele>967.3</ele>
        <time>2024-05-26T07:08:06Z</time>
      </trkpt>
      <trkpt lat="43.73107" lon="6.62089">
        <ele>967.3</ele>
        <time>2024-05-26T07:08:07Z</time>
      </trkpt>
      <trkpt lat="43.73106" lon="6.62089">
        <ele>967.3</ele>
        <time>2024-05-26T07:08:08Z</time>
      </trkpt>
      <trkpt lat="43.73106" lon="6.62089">
        <ele>967.2</ele>
        <time>2024-05-26T07:08:09Z</time>
      </trkpt>
      <trkpt lat="43.73106" lon="6.62088">
        <ele>967.2</ele>
        <time>2024-05-26T07:08:10Z</time>
      </trkpt>
      <trkpt lat="43.73106" lon="6.62088">
        <ele>967.2</ele>
        <time>2024-05-26T07:08:11Z</time>
      </trkpt>
      <trkpt lat="43.73106" lon="6.62087">
        <ele>967.2</ele>
        <time>2024-05-26T07:08:12Z</time>
      </trkpt>
      <trkpt lat="43.73106" lon="6.62087">
        <ele>967.2</ele>
        <time>2024-05-26T07:08:13Z</time>
      </trkpt>
      <trkpt lat="43.73106" lon="6.62087">
        <ele>967.2</ele>
        <time>2024-05-26T07:08:14Z</time>
      </trkpt>
      <trkpt lat="43.73106" lon="6.62087">
        <ele>967.3</ele>
        <time>2024-05-26T07:08:15Z</time>
      </trkpt>
      <trkpt lat="43.73106" lon="6.62087">
        <ele>967.3</ele>
        <time>2024-05-26T07:08:16Z</time>
      </trkpt>
      <trkpt lat="43.73106" lon="6.62087">
        <ele>967.3</ele>
        <time>2024-05-26T07:08:17Z</time>
      </trkpt>
      <trkpt lat="43.73106" lon="6.62086">
        <ele>967.3</ele>
        <time>2024-05-26T07:08:18Z</time>
      </trkpt>
      <trkpt lat="43.73106" lon="6.62086">
        <ele>967.4</ele>
        <time>2024-05-26T07:08:19Z</time>
      </trkpt>
      <trkpt lat="43.73106" lon="6.62086">
        <ele>967.5</ele>
        <time>2024-05-26T07:08:20Z</time>
      </trkpt>
      <trkpt lat="43.73106" lon="6.62086">
        <ele>967.6</ele>
        <time>2024-05-26T07:08:21Z</time>
      </trkpt>
      <trkpt lat="43.73106" lon="6.62086">
        <ele>967.6</ele>
        <time>2024-05-26T07:08:22Z</time>
      </trkpt>
      <trkpt lat="43.73106" lon="6.62086">
        <ele>967.5</ele>
        <time>2024-05-26T07:08:23Z</time>
      </trkpt>
      <trkpt lat="43.73107" lon="6.62087">
        <ele>967.5</ele>
        <time>2024-05-26T07:08:24Z</time>
      </trkpt>
      <trkpt lat="43.73107" lon="6.62086">
        <ele>967.5</ele>
        <time>2024-05-26T07:08:25Z</time>
      </trkpt>
      <trkpt lat="43.73107" lon="6.62086">
        <ele>967.5</ele>
        <time>2024-05-26T07:08:26Z</time>
      </trkpt>
      <trkpt lat="43.73106" lon="6.62086">
        <ele>967.5</ele>
        <time>2024-05-26T07:08:27Z</time>
      </trkpt>
      <trkpt lat="43.73106" lon="6.62086">
        <ele>967.4</ele>
        <time>2024-05-26T07:08:28Z</time>
      </trkpt>
      <trkpt lat="43.73106" lon="6.62086">
        <ele>967.4</ele>
        <time>2024-05-26T07:08:29Z</time>
      </trkpt>
      <trkpt lat="43.73106" lon="6.62086">
        <ele>967.4</ele>
        <time>2024-05-26T07:08:30Z</time>
      </trkpt>
      <trkpt lat="43.73106" lon="6.62086">
        <ele>967.4</ele>
        <time>2024-05-26T07:08:31Z</time>
      </trkpt>
      <trkpt lat="43.73106" lon="6.62086">
        <ele>967.4</ele>
        <time>2024-05-26T07:08:32Z</time>
      </trkpt>
      <trkpt lat="43.73106" lon="6.62086">
        <ele>967.4</ele>
        <time>2024-05-26T07:08:33Z</time>
      </trkpt>
      <trkpt lat="43.73106" lon="6.62086">
        <ele>967.3</ele>
        <time>2024-05-26T07:08:34Z</time>
      </trkpt>
      <trkpt lat="43.73107" lon="6.62086">
        <ele>967.3</ele>
        <time>2024-05-26T07:08:35Z</time>
      </trkpt>
      <trkpt lat="43.73107" lon="6.62086">
        <ele>967.4</ele>
        <time>2024-05-26T07:08:36Z</time>
      </trkpt>
      <trkpt lat="43.73107" lon="6.62086">
        <ele>967.3</ele>
        <time>2024-05-26T07:08:37Z</time>
      </trkpt>
      <trkpt lat="43.73107" lon="6.62086">
        <ele>967.3</ele>
        <time>2024-05-26T07:08:38Z</time>
      </trkpt>
      <trkpt lat="43.73107" lon="6.62086">
        <ele>967.3</ele>
        <time>2024-05-26T07:08:39Z</time>
      </trkpt>
      <trkpt lat="43.73107" lon="6.62086">
        <ele>967.4</ele>
        <time>2024-05-26T07:08:40Z</time>
      </trkpt>
      <trkpt lat="43.73107" lon="6.62086">
        <ele>967.4</ele>
        <time>2024-05-26T07:08:41Z</time>
      </trkpt>
      <trkpt lat="43.73106" lon="6.62086">
        <ele>967.4</ele>
        <time>2024-05-26T07:08:42Z</time>
      </trkpt>
      <trkpt lat="43.73106" lon="6.62086">
        <ele>967.4</ele>
        <time>2024-05-26T07:08:43Z</time>
      </trkpt>
      <trkpt lat="43.73106" lon="6.62086">
        <ele>967.4</ele>
        <time>2024-05-26T07:08:44Z</time>
      </trkpt>
      <trkpt lat="43.73105" lon="6.62087">
        <ele>967.3</ele>
        <time>2024-05-26T07:08:45Z</time>
      </trkpt>
      <trkpt lat="43.73104" lon="6.62087">
        <ele>967.2</ele>
        <time>2024-05-26T07:08:46Z</time>
      </trkpt>
      <trkpt lat="43.73103" lon="6.62087">
        <ele>967.2</ele>
        <time>2024-05-26T07:08:47Z</time>
      </trkpt>
      <trkpt lat="43.73103" lon="6.62087">
        <ele>967.2</ele>
        <time>2024-05-26T07:08:48Z</time>
      </trkpt>
      <trkpt lat="43.73103" lon="6.62087">
        <ele>967.3</ele>
        <time>2024-05-26T07:08:49Z</time>
      </trkpt>
      <trkpt lat="43.73104" lon="6.62087">
        <ele>967.3</ele>
        <time>2024-05-26T07:08:50Z</time>
      </trkpt>
      <trkpt lat="43.73104" lon="6.62087">
        <ele>967.3</ele>
        <time>2024-05-26T07:08:51Z</time>
      </trkpt>
      <trkpt lat="43.73104" lon="6.62087">
        <ele>967.3</ele>
        <time>2024-05-26T07:08:52Z</time>
      </trkpt>
      <trkpt lat="43.73104" lon="6.62087">
        <ele>967.3</ele>
        <time>2024-05-26T07:08:53Z</time>
      </trkpt>
      <trkpt lat="43.73105" lon="6.62088">
        <ele>967.3</ele>
        <time>2024-05-26T07:08:54Z</time>
      </trkpt>
      <trkpt lat="43.73105" lon="6.62088">
        <ele>967.3</ele>
        <time>2024-05-26T07:08:55Z</time>
      </trkpt>
      <trkpt lat="43.73105" lon="6.62087">
        <ele>967.3</ele>
        <time>2024-05-26T07:08:56Z</time>
      </trkpt>
      <trkpt lat="43.73104" lon="6.62088">
        <ele>967.3</ele>
        <time>2024-05-26T07:08:57Z</time>
      </trkpt>
      <trkpt lat="43.73104" lon="6.62087">
        <ele>967.3</ele>
        <time>2024-05-26T07:08:58Z</time>
      </trkpt>
      <trkpt lat="43.73103" lon="6.62088">
        <ele>967.2</ele>
        <time>2024-05-26T07:08:59Z</time>
      </trkpt>
      <trkpt lat="43.73102" lon="6.62088">
        <ele>967.2</ele>
        <time>2024-05-26T07:09:00Z</time>
      </trkpt>
      <trkpt lat="43.73102" lon="6.62088">
        <ele>967.2</ele>
        <time>2024-05-26T07:09:01Z</time>
      </trkpt>
      <trkpt lat="43.73101" lon="6.62088">
        <ele>967.2</ele>
        <time>2024-05-26T07:09:02Z</time>
      </trkpt>
      <trkpt lat="43.73101" lon="6.62088">
        <ele>967.2</ele>
        <time>2024-05-26T07:09:03Z</time>
      </trkpt>
      <trkpt lat="43.73101" lon="6.62089">
        <ele>967.2</ele>
        <time>2024-05-26T07:09:04Z</time>
      </trkpt>
      <trkpt lat="43.73101" lon="6.6209">
        <ele>967.1</ele>
        <time>2024-05-26T07:09:05Z</time>
      </trkpt>
      <trkpt lat="43.73101" lon="6.6209">
        <ele>967.1</ele>
        <time>2024-05-26T07:09:06Z</time>
      </trkpt>
      <trkpt lat="43.73102" lon="6.6209">
        <ele>967.1</ele>
        <time>2024-05-26T07:09:07Z</time>
      </trkpt>
      <trkpt lat="43.73102" lon="6.6209">
        <ele>967.2</ele>
        <time>2024-05-26T07:09:08Z</time>
      </trkpt>
      <trkpt lat="43.73102" lon="6.6209">
        <ele>967.2</ele>
        <time>2024-05-26T07:09:09Z</time>
      </trkpt>
      <trkpt lat="43.73102" lon="6.62091">
        <ele>967.2</ele>
        <time>2024-05-26T07:09:10Z</time>
      </trkpt>
      <trkpt lat="43.73101" lon="6.62091">
        <ele>967.3</ele>
        <time>2024-05-26T07:09:11Z</time>
      </trkpt>
      <trkpt lat="43.73101" lon="6.62091">
        <ele>967.3</ele>
        <time>2024-05-26T07:09:12Z</time>
      </trkpt>
      <trkpt lat="43.73101" lon="6.62091">
        <ele>967</ele>
        <time>2024-05-26T07:09:13Z</time>
      </trkpt>
      <trkpt lat="43.73101" lon="6.62092">
        <ele>967</ele>
        <time>2024-05-26T07:09:14Z</time>
      </trkpt>
      <trkpt lat="43.73101" lon="6.62092">
        <ele>967</ele>
        <time>2024-05-26T07:09:15Z</time>
      </trkpt>
      <trkpt lat="43.731" lon="6.62092">
        <ele>967</ele>
        <time>2024-05-26T07:09:16Z</time>
      </trkpt>
      <trkpt lat="43.731" lon="6.62092">
        <ele>967</ele>
        <time>2024-05-26T07:09:17Z</time>
      </trkpt>
      <trkpt lat="43.731" lon="6.62092">
        <ele>967.1</ele>
        <time>2024-05-26T07:09:18Z</time>
      </trkpt>
      <trkpt lat="43.731" lon="6.62091">
        <ele>967.1</ele>
        <time>2024-05-26T07:09:19Z</time>
      </trkpt>
      <trkpt lat="43.731" lon="6.62091">
        <ele>967.2</ele>
        <time>2024-05-26T07:09:20Z</time>
      </trkpt>
      <trkpt lat="43.731" lon="6.6209">
        <ele>967.2</ele>
        <time>2024-05-26T07:09:21Z</time>
      </trkpt>
      <trkpt lat="43.731" lon="6.62089">
        <ele>967.3</ele>
        <time>2024-05-26T07:09:22Z</time>
      </trkpt>
      <trkpt lat="43.731" lon="6.6209">
        <ele>967.3</ele>
        <time>2024-05-26T07:09:23Z</time>
      </trkpt>
      <trkpt lat="43.731" lon="6.6209">
        <ele>967.3</ele>
        <time>2024-05-26T07:09:24Z</time>
      </trkpt>
      <trkpt lat="43.73099" lon="6.6209">
        <ele>967.2</ele>
        <time>2024-05-26T07:09:25Z</time>
      </trkpt>
      <trkpt lat="43.73099" lon="6.6209">
        <ele>967.3</ele>
        <time>2024-05-26T07:09:26Z</time>
      </trkpt>
      <trkpt lat="43.73099" lon="6.62092">
        <ele>967.3</ele>
        <time>2024-05-26T07:09:27Z</time>
      </trkpt>
      <trkpt lat="43.73099" lon="6.62092">
        <ele>967.3</ele>
        <time>2024-05-26T07:09:28Z</time>
      </trkpt>
      <trkpt lat="43.73099" lon="6.62092">
        <ele>967.3</ele>
        <time>2024-05-26T07:09:29Z</time>
      </trkpt>
      <trkpt lat="43.73099" lon="6.62092">
        <ele>967.2</ele>
        <time>2024-05-26T07:09:30Z</time>
      </trkpt>
      <trkpt lat="43.73099" lon="6.62092">
        <ele>967.1</ele>
        <time>2024-05-26T07:09:31Z</time>
      </trkpt>
      <trkpt lat="43.73099" lon="6.62092">
        <ele>967.1</ele>
        <time>2024-05-26T07:09:32Z</time>
      </trkpt>
      <trkpt lat="43.73098" lon="6.62092">
        <ele>967.1</ele>
        <time>2024-05-26T07:09:33Z</time>
      </trkpt>
      <trkpt lat="43.73098" lon="6.62092">
        <ele>967.1</ele>
        <time>2024-05-26T07:09:34Z</time>
      </trkpt>
      <trkpt lat="43.73098" lon="6.62092">
        <ele>967.1</ele>
        <time>2024-05-26T07:09:35Z</time>
      </trkpt>
      <trkpt lat="43.73098" lon="6.62092">
        <ele>967.1</ele>
        <time>2024-05-26T07:09:36Z</time>
      </trkpt>
      <trkpt lat="43.73098" lon="6.62092">
        <ele>967.1</ele>
        <time>2024-05-26T07:09:37Z</time>
      </trkpt>
      <trkpt lat="43.73098" lon="6.62093">
        <ele>967.1</ele>
        <time>2024-05-26T07:09:38Z</time>
      </trkpt>
      <trkpt lat="43.73098" lon="6.62093">
        <ele>967.2</ele>
        <time>2024-05-26T07:09:39Z</time>
      </trkpt>
      <trkpt lat="43.73099" lon="6.62094">
        <ele>967.3</ele>
        <time>2024-05-26T07:09:40Z</time>
      </trkpt>
      <trkpt lat="43.73099" lon="6.62094">
        <ele>967.3</ele>
        <time>2024-05-26T07:09:41Z</time>
      </trkpt>
      <trkpt lat="43.73099" lon="6.62094">
        <ele>967.3</ele>
        <time>2024-05-26T07:09:42Z</time>
      </trkpt>
      <trkpt lat="43.73099" lon="6.62094">
        <ele>967.3</ele>
        <time>2024-05-26T07:09:43Z</time>
      </trkpt>
      <trkpt lat="43.73098" lon="6.62095">
        <ele>967.3</ele>
        <time>2024-05-26T07:09:44Z</time>
      </trkpt>
      <trkpt lat="43.73098" lon="6.62095">
        <ele>967.3</ele>
        <time>2024-05-26T07:09:45Z</time>
      </trkpt>
      <trkpt lat="43.73098" lon="6.62095">
        <ele>967.4</ele>
        <time>2024-05-26T07:09:46Z</time>
      </trkpt>
      <trkpt lat="43.73098" lon="6.62094">
        <ele>967.4</ele>
        <time>2024-05-26T07:09:47Z</time>
      </trkpt>
      <trkpt lat="43.73098" lon="6.62095">
        <ele>967.4</ele>
        <time>2024-05-26T07:09:48Z</time>
      </trkpt>
      <trkpt lat="43.73098" lon="6.62095">
        <ele>967.3</ele>
        <time>2024-05-26T07:09:49Z</time>
      </trkpt>
      <trkpt lat="43.73097" lon="6.62095">
        <ele>967.3</ele>
        <time>2024-05-26T07:09:50Z</time>
      </trkpt>
      <trkpt lat="43.73097" lon="6.62095">
        <ele>967.2</ele>
        <time>2024-05-26T07:09:51Z</time>
      </trkpt>
      <trkpt lat="43.73097" lon="6.62095">
        <ele>967.3</ele>
        <time>2024-05-26T07:09:52Z</time>
      </trkpt>
      <trkpt lat="43.73097" lon="6.62095">
        <ele>967.3</ele>
        <time>2024-05-26T07:09:53Z</time>
      </trkpt>
      <trkpt lat="43.73097" lon="6.62095">
        <ele>967.4</ele>
        <time>2024-05-26T07:09:54Z</time>
      </trkpt>
      <trkpt lat="43.73097" lon="6.62094">
        <ele>967.3</ele>
        <time>2024-05-26T07:09:55Z</time>
      </trkpt>
      <trkpt lat="43.73097" lon="6.62095">
        <ele>967.3</ele>
        <time>2024-05-26T07:09:56Z</time>
      </trkpt>
      <trkpt lat="43.73097" lon="6.62095">
        <ele>967.4</ele>
        <time>2024-05-26T07:09:57Z</time>
      </trkpt>
      <trkpt lat="43.73097" lon="6.62094">
        <ele>967.4</ele>
        <time>2024-05-26T07:09:58Z</time>
      </trkpt>
      <trkpt lat="43.73097" lon="6.62094">
        <ele>967.4</ele>
        <time>2024-05-26T07:09:59Z</time>
      </trkpt>
      <trkpt lat="43.73097" lon="6.62094">
        <ele>967.4</ele>
        <time>2024-05-26T07:10:00Z</time>
      </trkpt>
      <trkpt lat="43.73097" lon="6.62094">
        <ele>967.4</ele>
        <time>2024-05-26T07:10:01Z</time>
      </trkpt>
      <trkpt lat="43.73097" lon="6.62094">
        <ele>967.4</ele>
        <time>2024-05-26T07:10:02Z</time>
      </trkpt>
      <trkpt lat="43.73097" lon="6.62094">
        <ele>967.5</ele>
        <time>2024-05-26T07:10:03Z</time>
      </trkpt>
      <trkpt lat="43.73097" lon="6.62094">
        <ele>967.5</ele>
        <time>2024-05-26T07:10:04Z</time>
      </trkpt>
      <trkpt lat="43.73097" lon="6.62094">
        <ele>967.5</ele>
        <time>2024-05-26T07:10:05Z</time>
      </trkpt>
      <trkpt lat="43.73097" lon="6.62093">
        <ele>967.5</ele>
        <time>2024-05-26T07:10:06Z</time>
      </trkpt>
      <trkpt lat="43.73097" lon="6.62093">
        <ele>967.5</ele>
        <time>2024-05-26T07:10:07Z</time>
      </trkpt>
      <trkpt lat="43.73097" lon="6.62093">
        <ele>967.6</ele>
        <time>2024-05-26T07:10:08Z</time>
      </trkpt>
      <trkpt lat="43.73097" lon="6.62093">
        <ele>967.6</ele>
        <time>2024-05-26T07:10:09Z</time>
      </trkpt>
      <trkpt lat="43.73097" lon="6.62093">
        <ele>967.6</ele>
        <time>2024-05-26T07:10:10Z</time>
      </trkpt>
      <trkpt lat="43.73097" lon="6.62093">
        <ele>967.6</ele>
        <time>2024-05-26T07:10:11Z</time>
      </trkpt>
      <trkpt lat="43.73097" lon="6.62093">
        <ele>967.6</ele>
        <time>2024-05-26T07:10:12Z</time>
      </trkpt>
      <trkpt lat="43.73097" lon="6.62093">
        <ele>967.6</ele>
        <time>2024-05-26T07:10:13Z</time>
      </trkpt>
      <trkpt lat="43.73097" lon="6.62093">
        <ele>967.6</ele>
        <time>2024-05-26T07:10:14Z</time>
      </trkpt>
      <trkpt lat="43.73097" lon="6.62093">
        <ele>967.6</ele>
        <time>2024-05-26T07:10:15Z</time>
      </trkpt>
      <trkpt lat="43.73097" lon="6.62093">
        <ele>967.6</ele>
        <time>2024-05-26T07:10:16Z</time>
      </trkpt>
      <trkpt lat="43.73097" lon="6.62093">
        <ele>967.6</ele>
        <time>2024-05-26T07:10:17Z</time>
      </trkpt>
      <trkpt lat="43.73097" lon="6.62093">
        <ele>967.6</ele>
        <time>2024-05-26T07:10:18Z</time>
      </trkpt>
      <trkpt lat="43.73096" lon="6.62094">
        <ele>967.6</ele>
        <time>2024-05-26T07:10:19Z</time>
      </trkpt>
      <trkpt lat="43.73097" lon="6.62094">
        <ele>967.5</ele>
        <time>2024-05-26T07:10:20Z</time>
      </trkpt>
      <trkpt lat="43.73097" lon="6.62094">
        <ele>967.5</ele>
        <time>2024-05-26T07:10:21Z</time>
      </trkpt>
      <trkpt lat="43.73097" lon="6.62094">
        <ele>967.4</ele>
        <time>2024-05-26T07:10:22Z</time>
      </trkpt>
      <trkpt lat="43.73097" lon="6.62094">
        <ele>967.4</ele>
        <time>2024-05-26T07:10:23Z</time>
      </trkpt>
      <trkpt lat="43.73097" lon="6.62094">
        <ele>967.4</ele>
        <time>2024-05-26T07:10:24Z</time>
      </trkpt>
      <trkpt lat="43.73097" lon="6.62094">
        <ele>967.5</ele>
        <time>2024-05-26T07:10:25Z</time>
      </trkpt>
      <trkpt lat="43.73097" lon="6.62093">
        <ele>967.5</ele>
        <time>2024-05-26T07:10:26Z</time>
      </trkpt>
      <trkpt lat="43.73096" lon="6.62093">
        <ele>967.5</ele>
        <time>2024-05-26T07:10:27Z</time>
      </trkpt>
      <trkpt lat="43.73096" lon="6.62093">
        <ele>967.5</ele>
        <time>2024-05-26T07:10:28Z</time>
      </trkpt>
      <trkpt lat="43.73096" lon="6.62093">
        <ele>967.5</ele>
        <time>2024-05-26T07:10:29Z</time>
      </trkpt>
      <trkpt lat="43.73096" lon="6.62093">
        <ele>967.4</ele>
        <time>2024-05-26T07:10:30Z</time>
      </trkpt>
      <trkpt lat="43.73096" lon="6.62093">
        <ele>967.4</ele>
        <time>2024-05-26T07:10:31Z</time>
      </trkpt>
      <trkpt lat="43.73096" lon="6.62093">
        <ele>967.3</ele>
        <time>2024-05-26T07:10:32Z</time>
      </trkpt>
      <trkpt lat="43.73096" lon="6.62092">
        <ele>967.3</ele>
        <time>2024-05-26T07:10:33Z</time>
      </trkpt>
      <trkpt lat="43.73096" lon="6.62092">
        <ele>967.2</ele>
        <time>2024-05-26T07:10:34Z</time>
      </trkpt>
      <trkpt lat="43.73095" lon="6.62092">
        <ele>967.3</ele>
        <time>2024-05-26T07:10:35Z</time>
      </trkpt>
      <trkpt lat="43.73095" lon="6.62092">
        <ele>967.2</ele>
        <time>2024-05-26T07:10:36Z</time>
      </trkpt>
      <trkpt lat="43.73095" lon="6.62092">
        <ele>967.2</ele>
        <time>2024-05-26T07:10:37Z</time>
      </trkpt>
      <trkpt lat="43.73095" lon="6.62091">
        <ele>967.3</ele>
        <time>2024-05-26T07:10:38Z</time>
      </trkpt>
      <trkpt lat="43.73095" lon="6.62091">
        <ele>967.4</ele>
        <time>2024-05-26T07:10:39Z</time>
      </trkpt>
      <trkpt lat="43.73095" lon="6.62091">
        <ele>967.4</ele>
        <time>2024-05-26T07:10:40Z</time>
      </trkpt>
      <trkpt lat="43.73095" lon="6.62091">
        <ele>967.4</ele>
        <time>2024-05-26T07:10:41Z</time>
      </trkpt>
      <trkpt lat="43.73095" lon="6.62091">
        <ele>967.4</ele>
        <time>2024-05-26T07:10:42Z</time>
      </trkpt>
      <trkpt lat="43.73095" lon="6.62091">
        <ele>967.4</ele>
        <time>2024-05-26T07:10:43Z</time>
      </trkpt>
      <trkpt lat="43.73095" lon="6.62091">
        <ele>967.4</ele>
        <time>2024-05-26T07:10:44Z</time>
      </trkpt>
      <trkpt lat="43.73095" lon="6.62091">
        <ele>967.4</ele>
        <time>2024-05-26T07:10:45Z</time>
      </trkpt>
      <trkpt lat="43.73095" lon="6.6209">
        <ele>967.4</ele>
        <time>2024-05-26T07:10:46Z</time>
      </trkpt>
      <trkpt lat="43.73095" lon="6.6209">
        <ele>967.3</ele>
        <time>2024-05-26T07:10:47Z</time>
      </trkpt>
      <trkpt lat="43.73095" lon="6.6209">
        <ele>967.3</ele>
        <time>2024-05-26T07:10:48Z</time>
      </trkpt>
      <trkpt lat="43.73095" lon="6.62089">
        <ele>967.3</ele>
        <time>2024-05-26T07:10:49Z</time>
      </trkpt>
      <trkpt lat="43.73095" lon="6.62088">
        <ele>967.4</ele>
        <time>2024-05-26T07:10:50Z</time>
      </trkpt>
      <trkpt lat="43.73095" lon="6.62088">
        <ele>967.3</ele>
        <time>2024-05-26T07:10:51Z</time>
      </trkpt>
      <trkpt lat="43.73095" lon="6.62088">
        <ele>967.4</ele>
        <time>2024-05-26T07:10:52Z</time>
      </trkpt>
      <trkpt lat="43.73096" lon="6.62088">
        <ele>967.4</ele>
        <time>2024-05-26T07:10:53Z</time>
      </trkpt>
      <trkpt lat="43.73096" lon="6.62088">
        <ele>967.4</ele>
        <time>2024-05-26T07:10:54Z</time>
      </trkpt>
      <trkpt lat="43.73096" lon="6.62088">
        <ele>967.5</ele>
        <time>2024-05-26T07:10:55Z</time>
      </trkpt>
      <trkpt lat="43.73095" lon="6.62088">
        <ele>967.5</ele>
        <time>2024-05-26T07:10:56Z</time>
      </trkpt>
      <trkpt lat="43.73095" lon="6.62088">
        <ele>967.5</ele>
        <time>2024-05-26T07:10:57Z</time>
      </trkpt>
      <trkpt lat="43.73094" lon="6.62088">
        <ele>967.5</ele>
        <time>2024-05-26T07:10:58Z</time>
      </trkpt>
      <trkpt lat="43.73094" lon="6.62088">
        <ele>967.5</ele>
        <time>2024-05-26T07:10:59Z</time>
      </trkpt>
      <trkpt lat="43.73094" lon="6.62088">
        <ele>967.5</ele>
        <time>2024-05-26T07:11:00Z</time>
      </trkpt>
      <trkpt lat="43.73093" lon="6.62088">
        <ele>967.4</ele>
        <time>2024-05-26T07:11:01Z</time>
      </trkpt>
      <trkpt lat="43.73093" lon="6.62087">
        <ele>967.4</ele>
        <time>2024-05-26T07:11:02Z</time>
      </trkpt>
      <trkpt lat="43.73093" lon="6.62086">
        <ele>967.4</ele>
        <time>2024-05-26T07:11:03Z</time>
      </trkpt>
      <trkpt lat="43.73093" lon="6.62086">
        <ele>967.3</ele>
        <time>2024-05-26T07:11:04Z</time>
      </trkpt>
      <trkpt lat="43.73093" lon="6.62086">
        <ele>967.2</ele>
        <time>2024-05-26T07:11:05Z</time>
      </trkpt>
      <trkpt lat="43.73092" lon="6.62085">
        <ele>967.2</ele>
        <time>2024-05-26T07:11:06Z</time>
      </trkpt>
      <trkpt lat="43.73092" lon="6.62085">
        <ele>967.1</ele>
        <time>2024-05-26T07:11:07Z</time>
      </trkpt>
      <trkpt lat="43.73092" lon="6.62086">
        <ele>967</ele>
        <time>2024-05-26T07:11:08Z</time>
      </trkpt>
      <trkpt lat="43.73092" lon="6.62086">
        <ele>967</ele>
        <time>2024-05-26T07:11:09Z</time>
      </trkpt>
      <trkpt lat="43.73092" lon="6.62086">
        <ele>967</ele>
        <time>2024-05-26T07:11:10Z</time>
      </trkpt>
      <trkpt lat="43.73092" lon="6.62086">
        <ele>967</ele>
        <time>2024-05-26T07:11:11Z</time>
      </trkpt>
      <trkpt lat="43.73092" lon="6.62086">
        <ele>967</ele>
        <time>2024-05-26T07:11:12Z</time>
      </trkpt>
      <trkpt lat="43.73092" lon="6.62086">
        <ele>967</ele>
        <time>2024-05-26T07:11:13Z</time>
      </trkpt>
      <trkpt lat="43.73092" lon="6.62085">
        <ele>967</ele>
        <time>2024-05-26T07:11:14Z</time>
      </trkpt>
      <trkpt lat="43.73092" lon="6.62085">
        <ele>967.1</ele>
        <time>2024-05-26T07:11:15Z</time>
      </trkpt>
      <trkpt lat="43.73092" lon="6.62085">
        <ele>967.1</ele>
        <time>2024-05-26T07:11:16Z</time>
      </trkpt>
      <trkpt lat="43.73092" lon="6.62085">
        <ele>967.1</ele>
        <time>2024-05-26T07:11:17Z</time>
      </trkpt>
      <trkpt lat="43.73092" lon="6.62084">
        <ele>967.1</ele>
        <time>2024-05-26T07:11:18Z</time>
      </trkpt>
      <trkpt lat="43.73092" lon="6.62084">
        <ele>967.1</ele>
        <time>2024-05-26T07:11:19Z</time>
      </trkpt>
      <trkpt lat="43.73092" lon="6.62084">
        <ele>967.2</ele>
        <time>2024-05-26T07:11:20Z</time>
      </trkpt>
      <trkpt lat="43.73092" lon="6.62083">
        <ele>967.1</ele>
        <time>2024-05-26T07:11:21Z</time>
      </trkpt>
      <trkpt lat="43.73092" lon="6.62084">
        <ele>967.2</ele>
        <time>2024-05-26T07:11:22Z</time>
      </trkpt>
      <trkpt lat="43.73092" lon="6.62084">
        <ele>967.2</ele>
        <time>2024-05-26T07:11:23Z</time>
      </trkpt>
      <trkpt lat="43.73092" lon="6.62084">
        <ele>967.3</ele>
        <time>2024-05-26T07:11:24Z</time>
      </trkpt>
      <trkpt lat="43.73092" lon="6.62084">
        <ele>967.2</ele>
        <time>2024-05-26T07:11:25Z</time>
      </trkpt>
      <trkpt lat="43.73093" lon="6.62085">
        <ele>967.2</ele>
        <time>2024-05-26T07:11:26Z</time>
      </trkpt>
      <trkpt lat="43.73094" lon="6.62086">
        <ele>967.2</ele>
        <time>2024-05-26T07:11:27Z</time>
      </trkpt>
      <trkpt lat="43.73094" lon="6.62087">
        <ele>967.2</ele>
        <time>2024-05-26T07:11:28Z</time>
      </trkpt>
      <trkpt lat="43.73094" lon="6.62087">
        <ele>967.2</ele>
        <time>2024-05-26T07:11:29Z</time>
      </trkpt>
      <trkpt lat="43.73095" lon="6.62088">
        <ele>967.1</ele>
        <time>2024-05-26T07:11:30Z</time>
      </trkpt>
      <trkpt lat="43.73095" lon="6.62088">
        <ele>967.1</ele>
        <time>2024-05-26T07:11:31Z</time>
      </trkpt>
      <trkpt lat="43.73096" lon="6.62088">
        <ele>967.1</ele>
        <time>2024-05-26T07:11:32Z</time>
      </trkpt>
      <trkpt lat="43.73096" lon="6.62089">
        <ele>967.1</ele>
        <time>2024-05-26T07:11:33Z</time>
      </trkpt>
      <trkpt lat="43.73097" lon="6.62089">
        <ele>967.1</ele>
        <time>2024-05-26T07:11:34Z</time>
      </trkpt>
      <trkpt lat="43.73097" lon="6.62089">
        <ele>967.1</ele>
        <time>2024-05-26T07:11:35Z</time>
      </trkpt>
      <trkpt lat="43.73097" lon="6.62089">
        <ele>967.1</ele>
        <time>2024-05-26T07:11:36Z</time>
      </trkpt>
      <trkpt lat="43.73097" lon="6.62089">
        <ele>967.1</ele>
        <time>2024-05-26T07:11:37Z</time>
      </trkpt>
      <trkpt lat="43.73097" lon="6.62088">
        <ele>967.1</ele>
        <time>2024-05-26T07:11:38Z</time>
      </trkpt>
      <trkpt lat="43.73097" lon="6.62088">
        <ele>967.1</ele>
        <time>2024-05-26T07:11:39Z</time>
      </trkpt>
      <trkpt lat="43.73096" lon="6.62087">
        <ele>967.1</ele>
        <time>2024-05-26T07:11:40Z</time>
      </trkpt>
      <trkpt lat="43.73096" lon="6.62087">
        <ele>967.1</ele>
        <time>2024-05-26T07:11:41Z</time>
      </trkpt>
      <trkpt lat="43.73096" lon="6.62086">
        <ele>967.1</ele>
        <time>2024-05-26T07:11:42Z</time>
      </trkpt>
      <trkpt lat="43.73096" lon="6.62086">
        <ele>967.1</ele>
        <time>2024-05-26T07:11:43Z</time>
      </trkpt>
      <trkpt lat="43.73096" lon="6.62086">
        <ele>967.1</ele>
        <time>2024-05-26T07:11:44Z</time>
      </trkpt>
      <trkpt lat="43.73096" lon="6.62086">
        <ele>967.1</ele>
        <time>2024-05-26T07:11:45Z</time>
      </trkpt>
      <trkpt lat="43.73096" lon="6.62085">
        <ele>967</ele>
        <time>2024-05-26T07:11:46Z</time>
      </trkpt>
      <trkpt lat="43.73096" lon="6.62085">
        <ele>966.9</ele>
        <time>2024-05-26T07:11:47Z</time>
      </trkpt>
      <trkpt lat="43.73096" lon="6.62085">
        <ele>966.9</ele>
        <time>2024-05-26T07:11:48Z</time>
      </trkpt>
      <trkpt lat="43.73096" lon="6.62085">
        <ele>966.8</ele>
        <time>2024-05-26T07:11:49Z</time>
      </trkpt>
      <trkpt lat="43.73096" lon="6.62085">
        <ele>966.8</ele>
        <time>2024-05-26T07:11:50Z</time>
      </trkpt>
      <trkpt lat="43.73096" lon="6.62085">
        <ele>966.8</ele>
        <time>2024-05-26T07:11:51Z</time>
      </trkpt>
      <trkpt lat="43.73096" lon="6.62085">
        <ele>966.8</ele>
        <time>2024-05-26T07:11:52Z</time>
      </trkpt>
      <trkpt lat="43.73096" lon="6.62084">
        <ele>966.8</ele>
        <time>2024-05-26T07:11:53Z</time>
      </trkpt>
      <trkpt lat="43.73096" lon="6.62085">
        <ele>966.8</ele>
        <time>2024-05-26T07:11:54Z</time>
      </trkpt>
      <trkpt lat="43.73096" lon="6.62085">
        <ele>966.9</ele>
        <time>2024-05-26T07:11:55Z</time>
      </trkpt>
      <trkpt lat="43.73096" lon="6.62085">
        <ele>966.9</ele>
        <time>2024-05-26T07:11:56Z</time>
      </trkpt>
      <trkpt lat="43.73096" lon="6.62085">
        <ele>966.9</ele>
        <time>2024-05-26T07:11:57Z</time>
      </trkpt>
      <trkpt lat="43.73096" lon="6.62085">
        <ele>966.9</ele>
        <time>2024-05-26T07:11:58Z</time>
      </trkpt>
      <trkpt lat="43.73096" lon="6.62085">
        <ele>966.8</ele>
        <time>2024-05-26T07:11:59Z</time>
      </trkpt>
      <trkpt lat="43.73096" lon="6.62085">
        <ele>966.8</ele>
        <time>2024-05-26T07:12:00Z</time>
      </trkpt>
      <trkpt lat="43.73095" lon="6.62085">
        <ele>966.7</ele>
        <time>2024-05-26T07:12:01Z</time>
      </trkpt>
      <trkpt lat="43.73095" lon="6.62085">
        <ele>966.7</ele>
        <time>2024-05-26T07:12:02Z</time>
      </trkpt>
      <trkpt lat="43.73095" lon="6.62086">
        <ele>966.7</ele>
        <time>2024-05-26T07:12:03Z</time>
      </trkpt>
      <trkpt lat="43.73096" lon="6.62086">
        <ele>966.7</ele>
        <time>2024-05-26T07:12:04Z</time>
      </trkpt>
      <trkpt lat="43.73096" lon="6.62086">
        <ele>966.7</ele>
        <time>2024-05-26T07:12:05Z</time>
      </trkpt>
      <trkpt lat="43.73096" lon="6.62086">
        <ele>966.7</ele>
        <time>2024-05-26T07:12:06Z</time>
      </trkpt>
      <trkpt lat="43.73095" lon="6.62086">
        <ele>966.7</ele>
        <time>2024-05-26T07:12:07Z</time>
      </trkpt>
      <trkpt lat="43.73095" lon="6.62087">
        <ele>966.7</ele>
        <time>2024-05-26T07:12:08Z</time>
      </trkpt>
      <trkpt lat="43.73095" lon="6.62087">
        <ele>966.7</ele>
        <time>2024-05-26T07:12:09Z</time>
      </trkpt>
      <trkpt lat="43.73096" lon="6.62087">
        <ele>966.8</ele>
        <time>2024-05-26T07:12:10Z</time>
      </trkpt>
      <trkpt lat="43.73096" lon="6.62088">
        <ele>966.8</ele>
        <time>2024-05-26T07:12:11Z</time>
      </trkpt>
      <trkpt lat="43.73097" lon="6.62088">
        <ele>966.8</ele>
        <time>2024-05-26T07:12:12Z</time>
      </trkpt>
      <trkpt lat="43.73097" lon="6.62088">
        <ele>966.8</ele>
        <time>2024-05-26T07:12:13Z</time>
      </trkpt>
      <trkpt lat="43.73097" lon="6.62088">
        <ele>966.8</ele>
        <time>2024-05-26T07:12:14Z</time>
      </trkpt>
      <trkpt lat="43.73097" lon="6.62088">
        <ele>966.8</ele>
        <time>2024-05-26T07:12:15Z</time>
      </trkpt>
      <trkpt lat="43.73098" lon="6.62089">
        <ele>966.8</ele>
        <time>2024-05-26T07:12:16Z</time>
      </trkpt>
      <trkpt lat="43.73098" lon="6.62089">
        <ele>966.9</ele>
        <time>2024-05-26T07:12:17Z</time>
      </trkpt>
      <trkpt lat="43.73098" lon="6.6209">
        <ele>967</ele>
        <time>2024-05-26T07:12:18Z</time>
      </trkpt>
      <trkpt lat="43.73098" lon="6.6209">
        <ele>967</ele>
        <time>2024-05-26T07:12:19Z</time>
      </trkpt>
      <trkpt lat="43.73098" lon="6.6209">
        <ele>967</ele>
        <time>2024-05-26T07:12:20Z</time>
      </trkpt>
      <trkpt lat="43.73098" lon="6.62091">
        <ele>967</ele>
        <time>2024-05-26T07:12:21Z</time>
      </trkpt>
      <trkpt lat="43.73098" lon="6.62091">
        <ele>967.1</ele>
        <time>2024-05-26T07:12:22Z</time>
      </trkpt>
      <trkpt lat="43.73098" lon="6.62091">
        <ele>967.1</ele>
        <time>2024-05-26T07:12:23Z</time>
      </trkpt>
      <trkpt lat="43.73098" lon="6.62091">
        <ele>967.1</ele>
        <time>2024-05-26T07:12:24Z</time>
      </trkpt>
      <trkpt lat="43.73098" lon="6.62092">
        <ele>967.1</ele>
        <time>2024-05-26T07:12:25Z</time>
      </trkpt>
      <trkpt lat="43.73098" lon="6.62092">
        <ele>967.1</ele>
        <time>2024-05-26T07:12:26Z</time>
      </trkpt>
      <trkpt lat="43.73098" lon="6.62092">
        <ele>967.1</ele>
        <time>2024-05-26T07:12:27Z</time>
      </trkpt>
      <trkpt lat="43.73098" lon="6.62092">
        <ele>967.1</ele>
        <time>2024-05-26T07:12:28Z</time>
      </trkpt>
      <trkpt lat="43.73097" lon="6.62092">
        <ele>967.1</ele>
        <time>2024-05-26T07:12:29Z</time>
      </trkpt>
      <trkpt lat="43.73097" lon="6.62093">
        <ele>967.2</ele>
        <time>2024-05-26T07:12:30Z</time>
      </trkpt>
      <trkpt lat="43.73097" lon="6.62093">
        <ele>967.2</ele>
        <time>2024-05-26T07:12:31Z</time>
      </trkpt>
      <trkpt lat="43.73097" lon="6.62093">
        <ele>967.2</ele>
        <time>2024-05-26T07:12:32Z</time>
      </trkpt>
      <trkpt lat="43.73097" lon="6.62093">
        <ele>967.2</ele>
        <time>2024-05-26T07:12:33Z</time>
      </trkpt>
      <trkpt lat="43.73097" lon="6.62093">
        <ele>967.2</ele>
        <time>2024-05-26T07:12:34Z</time>
      </trkpt>
      <trkpt lat="43.73097" lon="6.62094">
        <ele>967.1</ele>
        <time>2024-05-26T07:12:35Z</time>
      </trkpt>
      <trkpt lat="43.73097" lon="6.62094">
        <ele>967.1</ele>
        <time>2024-05-26T07:12:36Z</time>
      </trkpt>
      <trkpt lat="43.73096" lon="6.62094">
        <ele>966.9</ele>
        <time>2024-05-26T07:12:37Z</time>
      </trkpt>
      <trkpt lat="43.73096" lon="6.62094">
        <ele>966.9</ele>
        <time>2024-05-26T07:12:38Z</time>
      </trkpt>
      <trkpt lat="43.73096" lon="6.62094">
        <ele>966.9</ele>
        <time>2024-05-26T07:12:39Z</time>
      </trkpt>
      <trkpt lat="43.73096" lon="6.62094">
        <ele>966.9</ele>
        <time>2024-05-26T07:12:40Z</time>
      </trkpt>
      <trkpt lat="43.73096" lon="6.62094">
        <ele>966.9</ele>
        <time>2024-05-26T07:12:41Z</time>
      </trkpt>
      <trkpt lat="43.73096" lon="6.62094">
        <ele>966.9</ele>
        <time>2024-05-26T07:12:42Z</time>
      </trkpt>
      <trkpt lat="43.73096" lon="6.62094">
        <ele>966.9</ele>
        <time>2024-05-26T07:12:43Z</time>
      </trkpt>
      <trkpt lat="43.73096" lon="6.62094">
        <ele>967</ele>
        <time>2024-05-26T07:12:44Z</time>
      </trkpt>
      <trkpt lat="43.73095" lon="6.62095">
        <ele>967</ele>
        <time>2024-05-26T07:12:45Z</time>
      </trkpt>
      <trkpt lat="43.73095" lon="6.62095">
        <ele>967</ele>
        <time>2024-05-26T07:12:46Z</time>
      </trkpt>
      <trkpt lat="43.73095" lon="6.62095">
        <ele>967</ele>
        <time>2024-05-26T07:12:47Z</time>
      </trkpt>
      <trkpt lat="43.73095" lon="6.62095">
        <ele>966.9</ele>
        <time>2024-05-26T07:12:48Z</time>
      </trkpt>
      <trkpt lat="43.73095" lon="6.62095">
        <ele>966.9</ele>
        <time>2024-05-26T07:12:49Z</time>
      </trkpt>
      <trkpt lat="43.73095" lon="6.62095">
        <ele>966.9</ele>
        <time>2024-05-26T07:12:50Z</time>
      </trkpt>
      <trkpt lat="43.73095" lon="6.62095">
        <ele>966.9</ele>
        <time>2024-05-26T07:12:51Z</time>
      </trkpt>
      <trkpt lat="43.73094" lon="6.62095">
        <ele>967</ele>
        <time>2024-05-26T07:12:52Z</time>
      </trkpt>
      <trkpt lat="43.73094" lon="6.62096">
        <ele>967</ele>
        <time>2024-05-26T07:12:53Z</time>
      </trkpt>
      <trkpt lat="43.73094" lon="6.62096">
        <ele>967</ele>
        <time>2024-05-26T07:12:54Z</time>
      </trkpt>
      <trkpt lat="43.73094" lon="6.62096">
        <ele>966.9</ele>
        <time>2024-05-26T07:12:55Z</time>
      </trkpt>
      <trkpt lat="43.73094" lon="6.62096">
        <ele>967</ele>
        <time>2024-05-26T07:12:56Z</time>
      </trkpt>
      <trkpt lat="43.73094" lon="6.62096">
        <ele>967.1</ele>
        <time>2024-05-26T07:12:57Z</time>
      </trkpt>
      <trkpt lat="43.73094" lon="6.62096">
        <ele>967.2</ele>
        <time>2024-05-26T07:12:58Z</time>
      </trkpt>
      <trkpt lat="43.73094" lon="6.62096">
        <ele>967.1</ele>
        <time>2024-05-26T07:12:59Z</time>
      </trkpt>
      <trkpt lat="43.73094" lon="6.62096">
        <ele>967</ele>
        <time>2024-05-26T07:13:00Z</time>
      </trkpt>
      <trkpt lat="43.73094" lon="6.62096">
        <ele>967</ele>
        <time>2024-05-26T07:13:01Z</time>
      </trkpt>
      <trkpt lat="43.73094" lon="6.62096">
        <ele>967</ele>
        <time>2024-05-26T07:13:02Z</time>
      </trkpt>
      <trkpt lat="43.73094" lon="6.62096">
        <ele>967.1</ele>
        <time>2024-05-26T07:13:03Z</time>
      </trkpt>
      <trkpt lat="43.73094" lon="6.62096">
        <ele>967.1</ele>
        <time>2024-05-26T07:13:04Z</time>
      </trkpt>
      <trkpt lat="43.73094" lon="6.62096">
        <ele>967.1</ele>
        <time>2024-05-26T07:13:05Z</time>
      </trkpt>
      <trkpt lat="43.73094" lon="6.62097">
        <ele>967.1</ele>
        <time>2024-05-26T07:13:06Z</time>
      </trkpt>
      <trkpt lat="43.73094" lon="6.62097">
        <ele>967</ele>
        <time>2024-05-26T07:13:07Z</time>
      </trkpt>
      <trkpt lat="43.73094" lon="6.62097">
        <ele>967</ele>
        <time>2024-05-26T07:13:08Z</time>
      </trkpt>
      <trkpt lat="43.73094" lon="6.62097">
        <ele>967</ele>
        <time>2024-05-26T07:13:09Z</time>
      </trkpt>
      <trkpt lat="43.73094" lon="6.62097">
        <ele>967</ele>
        <time>2024-05-26T07:13:10Z</time>
      </trkpt>
      <trkpt lat="43.73095" lon="6.62097">
        <ele>966.9</ele>
        <time>2024-05-26T07:13:11Z</time>
      </trkpt>
      <trkpt lat="43.73095" lon="6.62097">
        <ele>966.9</ele>
        <time>2024-05-26T07:13:12Z</time>
      </trkpt>
      <trkpt lat="43.73095" lon="6.62097">
        <ele>966.9</ele>
        <time>2024-05-26T07:13:13Z</time>
      </trkpt>
      <trkpt lat="43.73096" lon="6.62097">
        <ele>966.9</ele>
        <time>2024-05-26T07:13:14Z</time>
      </trkpt>
      <trkpt lat="43.73096" lon="6.62097">
        <ele>966.8</ele>
        <time>2024-05-26T07:13:15Z</time>
      </trkpt>
      <trkpt lat="43.73096" lon="6.62097">
        <ele>966.8</ele>
        <time>2024-05-26T07:13:16Z</time>
      </trkpt>
      <trkpt lat="43.73096" lon="6.62097">
        <ele>966.8</ele>
        <time>2024-05-26T07:13:17Z</time>
      </trkpt>
      <trkpt lat="43.73097" lon="6.62097">
        <ele>966.8</ele>
        <time>2024-05-26T07:13:18Z</time>
      </trkpt>
      <trkpt lat="43.73097" lon="6.62097">
        <ele>966.9</ele>
        <time>2024-05-26T07:13:19Z</time>
      </trkpt>
      <trkpt lat="43.73097" lon="6.62097">
        <ele>966.9</ele>
        <time>2024-05-26T07:13:20Z</time>
      </trkpt>
      <trkpt lat="43.73097" lon="6.62097">
        <ele>966.9</ele>
        <time>2024-05-26T07:13:21Z</time>
      </trkpt>
      <trkpt lat="43.73097" lon="6.62097">
        <ele>966.8</ele>
        <time>2024-05-26T07:13:22Z</time>
      </trkpt>
      <trkpt lat="43.73097" lon="6.62097">
        <ele>966.8</ele>
        <time>2024-05-26T07:13:23Z</time>
      </trkpt>
      <trkpt lat="43.73097" lon="6.62097">
        <ele>966.8</ele>
        <time>2024-05-26T07:13:24Z</time>
      </trkpt>
      <trkpt lat="43.73097" lon="6.62097">
        <ele>966.9</ele>
        <time>2024-05-26T07:13:25Z</time>
      </trkpt>
      <trkpt lat="43.73098" lon="6.62096">
        <ele>966.9</ele>
        <time>2024-05-26T07:13:26Z</time>
      </trkpt>
      <trkpt lat="43.73098" lon="6.62096">
        <ele>966.9</ele>
        <time>2024-05-26T07:13:27Z</time>
      </trkpt>
      <trkpt lat="43.73098" lon="6.62095">
        <ele>966.9</ele>
        <time>2024-05-26T07:13:28Z</time>
      </trkpt>
      <trkpt lat="43.73099" lon="6.62095">
        <ele>966.9</ele>
        <time>2024-05-26T07:13:29Z</time>
      </trkpt>
      <trkpt lat="43.73099" lon="6.62095">
        <ele>966.8</ele>
        <time>2024-05-26T07:13:30Z</time>
      </trkpt>
      <trkpt lat="43.73099" lon="6.62095">
        <ele>966.7</ele>
        <time>2024-05-26T07:13:31Z</time>
      </trkpt>
      <trkpt lat="43.73099" lon="6.62096">
        <ele>966.7</ele>
        <time>2024-05-26T07:13:32Z</time>
      </trkpt>
      <trkpt lat="43.73099" lon="6.62096">
        <ele>966.6</ele>
        <time>2024-05-26T07:13:33Z</time>
      </trkpt>
      <trkpt lat="43.73099" lon="6.62096">
        <ele>966.6</ele>
        <time>2024-05-26T07:13:34Z</time>
      </trkpt>
      <trkpt lat="43.731" lon="6.62096">
        <ele>966.6</ele>
        <time>2024-05-26T07:13:35Z</time>
      </trkpt>
      <trkpt lat="43.731" lon="6.62096">
        <ele>966.6</ele>
        <time>2024-05-26T07:13:36Z</time>
      </trkpt>
      <trkpt lat="43.731" lon="6.62096">
        <ele>966.6</ele>
        <time>2024-05-26T07:13:37Z</time>
      </trkpt>
      <trkpt lat="43.731" lon="6.62096">
        <ele>966.5</ele>
        <time>2024-05-26T07:13:38Z</time>
      </trkpt>
      <trkpt lat="43.73101" lon="6.62096">
        <ele>966.5</ele>
        <time>2024-05-26T07:13:39Z</time>
      </trkpt>
      <trkpt lat="43.73101" lon="6.62097">
        <ele>966.6</ele>
        <time>2024-05-26T07:13:40Z</time>
      </trkpt>
      <trkpt lat="43.73101" lon="6.62097">
        <ele>966.6</ele>
        <time>2024-05-26T07:13:41Z</time>
      </trkpt>
      <trkpt lat="43.73101" lon="6.62097">
        <ele>966.6</ele>
        <time>2024-05-26T07:13:42Z</time>
      </trkpt>
      <trkpt lat="43.73101" lon="6.62097">
        <ele>966.6</ele>
        <time>2024-05-26T07:13:43Z</time>
      </trkpt>
      <trkpt lat="43.73102" lon="6.62097">
        <ele>966.6</ele>
        <time>2024-05-26T07:13:44Z</time>
      </trkpt>
      <trkpt lat="43.73102" lon="6.62097">
        <ele>966.7</ele>
        <time>2024-05-26T07:13:45Z</time>
      </trkpt>
      <trkpt lat="43.73102" lon="6.62097">
        <ele>966.7</ele>
        <time>2024-05-26T07:13:46Z</time>
      </trkpt>
      <trkpt lat="43.73102" lon="6.62098">
        <ele>966.7</ele>
        <time>2024-05-26T07:13:47Z</time>
      </trkpt>
      <trkpt lat="43.73101" lon="6.62098">
        <ele>966.7</ele>
        <time>2024-05-26T07:13:48Z</time>
      </trkpt>
      <trkpt lat="43.73101" lon="6.62098">
        <ele>966.7</ele>
        <time>2024-05-26T07:13:49Z</time>
      </trkpt>
      <trkpt lat="43.73101" lon="6.62098">
        <ele>966.7</ele>
        <time>2024-05-26T07:13:50Z</time>
      </trkpt>
      <trkpt lat="43.73101" lon="6.62098">
        <ele>966.8</ele>
        <time>2024-05-26T07:13:51Z</time>
      </trkpt>
      <trkpt lat="43.73101" lon="6.62098">
        <ele>966.8</ele>
        <time>2024-05-26T07:13:52Z</time>
      </trkpt>
      <trkpt lat="43.73102" lon="6.62098">
        <ele>966.8</ele>
        <time>2024-05-26T07:13:53Z</time>
      </trkpt>
      <trkpt lat="43.73102" lon="6.62098">
        <ele>966.9</ele>
        <time>2024-05-26T07:13:54Z</time>
      </trkpt>
      <trkpt lat="43.73102" lon="6.62098">
        <ele>966.9</ele>
        <time>2024-05-26T07:13:55Z</time>
      </trkpt>
      <trkpt lat="43.73102" lon="6.62098">
        <ele>966.9</ele>
        <time>2024-05-26T07:13:56Z</time>
      </trkpt>
      <trkpt lat="43.73102" lon="6.62098">
        <ele>967</ele>
        <time>2024-05-26T07:13:57Z</time>
      </trkpt>
      <trkpt lat="43.73103" lon="6.62098">
        <ele>967</ele>
        <time>2024-05-26T07:13:58Z</time>
      </trkpt>
      <trkpt lat="43.73103" lon="6.62099">
        <ele>967</ele>
        <time>2024-05-26T07:13:59Z</time>
      </trkpt>
      <trkpt lat="43.73103" lon="6.62099">
        <ele>967</ele>
        <time>2024-05-26T07:14:00Z</time>
      </trkpt>
      <trkpt lat="43.73103" lon="6.62099">
        <ele>967</ele>
        <time>2024-05-26T07:14:01Z</time>
      </trkpt>
      <trkpt lat="43.73103" lon="6.62099">
        <ele>967.1</ele>
        <time>2024-05-26T07:14:02Z</time>
      </trkpt>
      <trkpt lat="43.73103" lon="6.62099">
        <ele>967.1</ele>
        <time>2024-05-26T07:14:03Z</time>
      </trkpt>
      <trkpt lat="43.73103" lon="6.62098">
        <ele>967.2</ele>
        <time>2024-05-26T07:14:04Z</time>
      </trkpt>
      <trkpt lat="43.73103" lon="6.62099">
        <ele>967.2</ele>
        <time>2024-05-26T07:14:05Z</time>
      </trkpt>
      <trkpt lat="43.73103" lon="6.62099">
        <ele>967.2</ele>
        <time>2024-05-26T07:14:06Z</time>
      </trkpt>
      <trkpt lat="43.73103" lon="6.62099">
        <ele>967.3</ele>
        <time>2024-05-26T07:14:07Z</time>
      </trkpt>
      <trkpt lat="43.73103" lon="6.62099">
        <ele>967.3</ele>
        <time>2024-05-26T07:14:08Z</time>
      </trkpt>
      <trkpt lat="43.73102" lon="6.62099">
        <ele>967.3</ele>
        <time>2024-05-26T07:14:09Z</time>
      </trkpt>
      <trkpt lat="43.73102" lon="6.62099">
        <ele>967.2</ele>
        <time>2024-05-26T07:14:10Z</time>
      </trkpt>
      <trkpt lat="43.73101" lon="6.62099">
        <ele>967.2</ele>
        <time>2024-05-26T07:14:11Z</time>
      </trkpt>
      <trkpt lat="43.73101" lon="6.62099">
        <ele>967.2</ele>
        <time>2024-05-26T07:14:12Z</time>
      </trkpt>
      <trkpt lat="43.73101" lon="6.62099">
        <ele>967.2</ele>
        <time>2024-05-26T07:14:13Z</time>
      </trkpt>
      <trkpt lat="43.731" lon="6.62099">
        <ele>967.2</ele>
        <time>2024-05-26T07:14:14Z</time>
      </trkpt>
      <trkpt lat="43.731" lon="6.62099">
        <ele>967.2</ele>
        <time>2024-05-26T07:14:15Z</time>
      </trkpt>
      <trkpt lat="43.731" lon="6.62099">
        <ele>967.2</ele>
        <time>2024-05-26T07:14:16Z</time>
      </trkpt>
      <trkpt lat="43.73101" lon="6.62099">
        <ele>967.2</ele>
        <time>2024-05-26T07:14:17Z</time>
      </trkpt>
      <trkpt lat="43.73101" lon="6.621">
        <ele>967.2</ele>
        <time>2024-05-26T07:14:18Z</time>
      </trkpt>
      <trkpt lat="43.73102" lon="6.62102">
        <ele>967.2</ele>
        <time>2024-05-26T07:14:19Z</time>
      </trkpt>
      <trkpt lat="43.73102" lon="6.62103">
        <ele>967.2</ele>
        <time>2024-05-26T07:14:20Z</time>
      </trkpt>
      <trkpt lat="43.73103" lon="6.62104">
        <ele>967.2</ele>
        <time>2024-05-26T07:14:21Z</time>
      </trkpt>
      <trkpt lat="43.73105" lon="6.62106">
        <ele>967.1</ele>
        <time>2024-05-26T07:14:22Z</time>
      </trkpt>
      <trkpt lat="43.73106" lon="6.62107">
        <ele>967.1</ele>
        <time>2024-05-26T07:14:23Z</time>
      </trkpt>
      <trkpt lat="43.73108" lon="6.62108">
        <ele>967.1</ele>
        <time>2024-05-26T07:14:24Z</time>
      </trkpt>
      <trkpt lat="43.73109" lon="6.62109">
        <ele>967</ele>
        <time>2024-05-26T07:14:25Z</time>
      </trkpt>
      <trkpt lat="43.7311" lon="6.6211">
        <ele>967</ele>
        <time>2024-05-26T07:14:26Z</time>
      </trkpt>
      <trkpt lat="43.73111" lon="6.62111">
        <ele>966.9</ele>
        <time>2024-05-26T07:14:27Z</time>
      </trkpt>
      <trkpt lat="43.73112" lon="6.62113">
        <ele>966.8</ele>
        <time>2024-05-26T07:14:28Z</time>
      </trkpt>
      <trkpt lat="43.73113" lon="6.62112">
        <ele>966.7</ele>
        <time>2024-05-26T07:14:29Z</time>
      </trkpt>
      <trkpt lat="43.73112" lon="6.62111">
        <ele>966.6</ele>
        <time>2024-05-26T07:14:30Z</time>
      </trkpt>
      <trkpt lat="43.73112" lon="6.62111">
        <ele>966.6</ele>
        <time>2024-05-26T07:14:31Z</time>
      </trkpt>
      <trkpt lat="43.73112" lon="6.62111">
        <ele>966.5</ele>
        <time>2024-05-26T07:14:32Z</time>
      </trkpt>
      <trkpt lat="43.73111" lon="6.62111">
        <ele>966.5</ele>
        <time>2024-05-26T07:14:33Z</time>
      </trkpt>
      <trkpt lat="43.73111" lon="6.6211">
        <ele>966.5</ele>
        <time>2024-05-26T07:14:34Z</time>
      </trkpt>
      <trkpt lat="43.73111" lon="6.6211">
        <ele>966.5</ele>
        <time>2024-05-26T07:14:35Z</time>
      </trkpt>
      <trkpt lat="43.73111" lon="6.62111">
        <ele>966.6</ele>
        <time>2024-05-26T07:14:36Z</time>
      </trkpt>
      <trkpt lat="43.73111" lon="6.62111">
        <ele>966.6</ele>
        <time>2024-05-26T07:14:37Z</time>
      </trkpt>
      <trkpt lat="43.7311" lon="6.62111">
        <ele>966.7</ele>
        <time>2024-05-26T07:14:38Z</time>
      </trkpt>
      <trkpt lat="43.7311" lon="6.62111">
        <ele>966.7</ele>
        <time>2024-05-26T07:14:39Z</time>
      </trkpt>
      <trkpt lat="43.7311" lon="6.62113">
        <ele>966.7</ele>
        <time>2024-05-26T07:14:40Z</time>
      </trkpt>
      <trkpt lat="43.7311" lon="6.62113">
        <ele>966.6</ele>
        <time>2024-05-26T07:14:41Z</time>
      </trkpt>
      <trkpt lat="43.73109" lon="6.62114">
        <ele>966.6</ele>
        <time>2024-05-26T07:14:42Z</time>
      </trkpt>
      <trkpt lat="43.73109" lon="6.62115">
        <ele>966.6</ele>
        <time>2024-05-26T07:14:43Z</time>
      </trkpt>
      <trkpt lat="43.73109" lon="6.62115">
        <ele>966.6</ele>
        <time>2024-05-26T07:14:44Z</time>
      </trkpt>
      <trkpt lat="43.73108" lon="6.62114">
        <ele>966.5</ele>
        <time>2024-05-26T07:14:45Z</time>
      </trkpt>
      <trkpt lat="43.73108" lon="6.62115">
        <ele>966.5</ele>
        <time>2024-05-26T07:14:46Z</time>
      </trkpt>
      <trkpt lat="43.73108" lon="6.62115">
        <ele>966.4</ele>
        <time>2024-05-26T07:14:47Z</time>
      </trkpt>
      <trkpt lat="43.73107" lon="6.62115">
        <ele>966.3</ele>
        <time>2024-05-26T07:14:48Z</time>
      </trkpt>
      <trkpt lat="43.73107" lon="6.62115">
        <ele>966.2</ele>
        <time>2024-05-26T07:14:49Z</time>
      </trkpt>
      <trkpt lat="43.73106" lon="6.62115">
        <ele>966.1</ele>
        <time>2024-05-26T07:14:50Z</time>
      </trkpt>
      <trkpt lat="43.73106" lon="6.62116">
        <ele>966</ele>
        <time>2024-05-26T07:14:51Z</time>
      </trkpt>
      <trkpt lat="43.73106" lon="6.62116">
        <ele>965.9</ele>
        <time>2024-05-26T07:14:52Z</time>
      </trkpt>
      <trkpt lat="43.73105" lon="6.62118">
        <ele>965.8</ele>
        <time>2024-05-26T07:14:53Z</time>
      </trkpt>
      <trkpt lat="43.73105" lon="6.62119">
        <ele>965.7</ele>
        <time>2024-05-26T07:14:54Z</time>
      </trkpt>
      <trkpt lat="43.73105" lon="6.6212">
        <ele>965.6</ele>
        <time>2024-05-26T07:14:55Z</time>
      </trkpt>
      <trkpt lat="43.73104" lon="6.62121">
        <ele>965.6</ele>
        <time>2024-05-26T07:14:56Z</time>
      </trkpt>
      <trkpt lat="43.73104" lon="6.62123">
        <ele>965.6</ele>
        <time>2024-05-26T07:14:57Z</time>
      </trkpt>
      <trkpt lat="43.73104" lon="6.62124">
        <ele>965.6</ele>
        <time>2024-05-26T07:14:58Z</time>
      </trkpt>
      <trkpt lat="43.73104" lon="6.62126">
        <ele>965.6</ele>
        <time>2024-05-26T07:14:59Z</time>
      </trkpt>
      <trkpt lat="43.73105" lon="6.62127">
        <ele>965.6</ele>
        <time>2024-05-26T07:15:00Z</time>
      </trkpt>
      <trkpt lat="43.73106" lon="6.62128">
        <ele>965.6</ele>
        <time>2024-05-26T07:15:01Z</time>
      </trkpt>
      <trkpt lat="43.73106" lon="6.62129">
        <ele>965.5</ele>
        <time>2024-05-26T07:15:02Z</time>
      </trkpt>
      <trkpt lat="43.73107" lon="6.6213">
        <ele>965.5</ele>
        <time>2024-05-26T07:15:03Z</time>
      </trkpt>
      <trkpt lat="43.73107" lon="6.6213">
        <ele>965.4</ele>
        <time>2024-05-26T07:15:04Z</time>
      </trkpt>
      <trkpt lat="43.73108" lon="6.62131">
        <ele>965.4</ele>
        <time>2024-05-26T07:15:05Z</time>
      </trkpt>
      <trkpt lat="43.73109" lon="6.62132">
        <ele>965.4</ele>
        <time>2024-05-26T07:15:06Z</time>
      </trkpt>
      <trkpt lat="43.73109" lon="6.62134">
        <ele>965.4</ele>
        <time>2024-05-26T07:15:07Z</time>
      </trkpt>
      <trkpt lat="43.7311" lon="6.62134">
        <ele>965.4</ele>
        <time>2024-05-26T07:15:08Z</time>
      </trkpt>
      <trkpt lat="43.73111" lon="6.62136">
        <ele>965.4</ele>
        <time>2024-05-26T07:15:09Z</time>
      </trkpt>
      <trkpt lat="43.73111" lon="6.62137">
        <ele>965.4</ele>
        <time>2024-05-26T07:15:10Z</time>
      </trkpt>
      <trkpt lat="43.73112" lon="6.62139">
        <ele>965.4</ele>
        <time>2024-05-26T07:15:11Z</time>
      </trkpt>
      <trkpt lat="43.73113" lon="6.6214">
        <ele>965.4</ele>
        <time>2024-05-26T07:15:12Z</time>
      </trkpt>
      <trkpt lat="43.73113" lon="6.6214">
        <ele>965.4</ele>
        <time>2024-05-26T07:15:13Z</time>
      </trkpt>
      <trkpt lat="43.73114" lon="6.62141">
        <ele>965.3</ele>
        <time>2024-05-26T07:15:14Z</time>
      </trkpt>
      <trkpt lat="43.73115" lon="6.62141">
        <ele>965.3</ele>
        <time>2024-05-26T07:15:15Z</time>
      </trkpt>
      <trkpt lat="43.73116" lon="6.62143">
        <ele>965.3</ele>
        <time>2024-05-26T07:15:16Z</time>
      </trkpt>
      <trkpt lat="43.73117" lon="6.62144">
        <ele>965.2</ele>
        <time>2024-05-26T07:15:17Z</time>
      </trkpt>
      <trkpt lat="43.73118" lon="6.62146">
        <ele>965.2</ele>
        <time>2024-05-26T07:15:18Z</time>
      </trkpt>
      <trkpt lat="43.73119" lon="6.62147">
        <ele>965.1</ele>
        <time>2024-05-26T07:15:19Z</time>
      </trkpt>
      <trkpt lat="43.7312" lon="6.62148">
        <ele>965.1</ele>
        <time>2024-05-26T07:15:20Z</time>
      </trkpt>
      <trkpt lat="43.73121" lon="6.6215">
        <ele>965</ele>
        <time>2024-05-26T07:15:21Z</time>
      </trkpt>
      <trkpt lat="43.73122" lon="6.62151">
        <ele>965</ele>
        <time>2024-05-26T07:15:22Z</time>
      </trkpt>
      <trkpt lat="43.73123" lon="6.62152">
        <ele>965</ele>
        <time>2024-05-26T07:15:23Z</time>
      </trkpt>
      <trkpt lat="43.73124" lon="6.62153">
        <ele>964.9</ele>
        <time>2024-05-26T07:15:24Z</time>
      </trkpt>
      <trkpt lat="43.73124" lon="6.62153">
        <ele>964.9</ele>
        <time>2024-05-26T07:15:25Z</time>
      </trkpt>
      <trkpt lat="43.73125" lon="6.62154">
        <ele>965</ele>
        <time>2024-05-26T07:15:26Z</time>
      </trkpt>
      <trkpt lat="43.73126" lon="6.62155">
        <ele>964.9</ele>
        <time>2024-05-26T07:15:27Z</time>
      </trkpt>
      <trkpt lat="43.73127" lon="6.62156">
        <ele>964.9</ele>
        <time>2024-05-26T07:15:28Z</time>
      </trkpt>
      <trkpt lat="43.73128" lon="6.62156">
        <ele>964.8</ele>
        <time>2024-05-26T07:15:29Z</time>
      </trkpt>
      <trkpt lat="43.73129" lon="6.62157">
        <ele>964.8</ele>
        <time>2024-05-26T07:15:30Z</time>
      </trkpt>
      <trkpt lat="43.73129" lon="6.62159">
        <ele>964.8</ele>
        <time>2024-05-26T07:15:31Z</time>
      </trkpt>
      <trkpt lat="43.7313" lon="6.6216">
        <ele>964.8</ele>
        <time>2024-05-26T07:15:32Z</time>
      </trkpt>
      <trkpt lat="43.73131" lon="6.62161">
        <ele>964.9</ele>
        <time>2024-05-26T07:15:33Z</time>
      </trkpt>
      <trkpt lat="43.73132" lon="6.62162">
        <ele>964.9</ele>
        <time>2024-05-26T07:15:34Z</time>
      </trkpt>
      <trkpt lat="43.73132" lon="6.62163">
        <ele>965</ele>
        <time>2024-05-26T07:15:35Z</time>
      </trkpt>
      <trkpt lat="43.73133" lon="6.62164">
        <ele>965</ele>
        <time>2024-05-26T07:15:36Z</time>
      </trkpt>
      <trkpt lat="43.73134" lon="6.62165">
        <ele>965</ele>
        <time>2024-05-26T07:15:37Z</time>
      </trkpt>
      <trkpt lat="43.73136" lon="6.62166">
        <ele>965</ele>
        <time>2024-05-26T07:15:38Z</time>
      </trkpt>
      <trkpt lat="43.73137" lon="6.62167">
        <ele>964.9</ele>
        <time>2024-05-26T07:15:39Z</time>
      </trkpt>
      <trkpt lat="43.73137" lon="6.62168">
        <ele>964.9</ele>
        <time>2024-05-26T07:15:40Z</time>
      </trkpt>
      <trkpt lat="43.73138" lon="6.62169">
        <ele>964.9</ele>
        <time>2024-05-26T07:15:41Z</time>
      </trkpt>
      <trkpt lat="43.73138" lon="6.6217">
        <ele>964.9</ele>
        <time>2024-05-26T07:15:42Z</time>
      </trkpt>
      <trkpt lat="43.7314" lon="6.62171">
        <ele>964.9</ele>
        <time>2024-05-26T07:15:43Z</time>
      </trkpt>
      <trkpt lat="43.73141" lon="6.62172">
        <ele>964.9</ele>
        <time>2024-05-26T07:15:44Z</time>
      </trkpt>
      <trkpt lat="43.73142" lon="6.62173">
        <ele>964.9</ele>
        <time>2024-05-26T07:15:45Z</time>
      </trkpt>
      <trkpt lat="43.73143" lon="6.62174">
        <ele>964.9</ele>
        <time>2024-05-26T07:15:46Z</time>
      </trkpt>
      <trkpt lat="43.73144" lon="6.62175">
        <ele>965</ele>
        <time>2024-05-26T07:15:47Z</time>
      </trkpt>
      <trkpt lat="43.73145" lon="6.62176">
        <ele>965</ele>
        <time>2024-05-26T07:15:48Z</time>
      </trkpt>
      <trkpt lat="43.73146" lon="6.62176">
        <ele>965</ele>
        <time>2024-05-26T07:15:49Z</time>
      </trkpt>
      <trkpt lat="43.73147" lon="6.62176">
        <ele>965</ele>
        <time>2024-05-26T07:15:50Z</time>
      </trkpt>
      <trkpt lat="43.73147" lon="6.62178">
        <ele>965.1</ele>
        <time>2024-05-26T07:15:51Z</time>
      </trkpt>
      <trkpt lat="43.73148" lon="6.6218">
        <ele>965.1</ele>
        <time>2024-05-26T07:15:52Z</time>
      </trkpt>
      <trkpt lat="43.7315" lon="6.62181">
        <ele>965.1</ele>
        <time>2024-05-26T07:15:53Z</time>
      </trkpt>
      <trkpt lat="43.7315" lon="6.62182">
        <ele>965</ele>
        <time>2024-05-26T07:15:54Z</time>
      </trkpt>
      <trkpt lat="43.73151" lon="6.62183">
        <ele>965</ele>
        <time>2024-05-26T07:15:55Z</time>
      </trkpt>
      <trkpt lat="43.73151" lon="6.62184">
        <ele>965</ele>
        <time>2024-05-26T07:15:56Z</time>
      </trkpt>
      <trkpt lat="43.73152" lon="6.62185">
        <ele>965</ele>
        <time>2024-05-26T07:15:57Z</time>
      </trkpt>
      <trkpt lat="43.73153" lon="6.62186">
        <ele>965.1</ele>
        <time>2024-05-26T07:15:58Z</time>
      </trkpt>
      <trkpt lat="43.73153" lon="6.62187">
        <ele>965</ele>
        <time>2024-05-26T07:15:59Z</time>
      </trkpt>
      <trkpt lat="43.73155" lon="6.62187">
        <ele>964.9</ele>
        <time>2024-05-26T07:16:00Z</time>
      </trkpt>
      <trkpt lat="43.73155" lon="6.62187">
        <ele>964.9</ele>
        <time>2024-05-26T07:16:01Z</time>
      </trkpt>
      <trkpt lat="43.73156" lon="6.62188">
        <ele>964.8</ele>
        <time>2024-05-26T07:16:02Z</time>
      </trkpt>
      <trkpt lat="43.73156" lon="6.62188">
        <ele>964.8</ele>
        <time>2024-05-26T07:16:03Z</time>
      </trkpt>
      <trkpt lat="43.73157" lon="6.62189">
        <ele>964.7</ele>
        <time>2024-05-26T07:16:04Z</time>
      </trkpt>
      <trkpt lat="43.73158" lon="6.6219">
        <ele>964.8</ele>
        <time>2024-05-26T07:16:05Z</time>
      </trkpt>
      <trkpt lat="43.73159" lon="6.6219">
        <ele>964.7</ele>
        <time>2024-05-26T07:16:06Z</time>
      </trkpt>
      <trkpt lat="43.7316" lon="6.62191">
        <ele>964.7</ele>
        <time>2024-05-26T07:16:07Z</time>
      </trkpt>
      <trkpt lat="43.73161" lon="6.62193">
        <ele>964.6</ele>
        <time>2024-05-26T07:16:08Z</time>
      </trkpt>
      <trkpt lat="43.73162" lon="6.62194">
        <ele>964.5</ele>
        <time>2024-05-26T07:16:09Z</time>
      </trkpt>
      <trkpt lat="43.73162" lon="6.62195">
        <ele>964.5</ele>
        <time>2024-05-26T07:16:10Z</time>
      </trkpt>
      <trkpt lat="43.73163" lon="6.62195">
        <ele>964.5</ele>
        <time>2024-05-26T07:16:11Z</time>
      </trkpt>
      <trkpt lat="43.73164" lon="6.62197">
        <ele>964.4</ele>
        <time>2024-05-26T07:16:12Z</time>
      </trkpt>
      <trkpt lat="43.73164" lon="6.62198">
        <ele>964.4</ele>
        <time>2024-05-26T07:16:13Z</time>
      </trkpt>
      <trkpt lat="43.73165" lon="6.62198">
        <ele>964.4</ele>
        <time>2024-05-26T07:16:14Z</time>
      </trkpt>
      <trkpt lat="43.73165" lon="6.62199">
        <ele>964.4</ele>
        <time>2024-05-26T07:16:15Z</time>
      </trkpt>
      <trkpt lat="43.73166" lon="6.622">
        <ele>964.3</ele>
        <time>2024-05-26T07:16:16Z</time>
      </trkpt>
      <trkpt lat="43.73167" lon="6.622">
        <ele>964.2</ele>
        <time>2024-05-26T07:16:17Z</time>
      </trkpt>
      <trkpt lat="43.73166" lon="6.62201">
        <ele>964.1</ele>
        <time>2024-05-26T07:16:18Z</time>
      </trkpt>
      <trkpt lat="43.73168" lon="6.62202">
        <ele>964</ele>
        <time>2024-05-26T07:16:19Z</time>
      </trkpt>
      <trkpt lat="43.73169" lon="6.62203">
        <ele>964</ele>
        <time>2024-05-26T07:16:20Z</time>
      </trkpt>
      <trkpt lat="43.7317" lon="6.62204">
        <ele>964</ele>
        <time>2024-05-26T07:16:21Z</time>
      </trkpt>
      <trkpt lat="43.73171" lon="6.62206">
        <ele>963.9</ele>
        <time>2024-05-26T07:16:22Z</time>
      </trkpt>
      <trkpt lat="43.73171" lon="6.62207">
        <ele>963.8</ele>
        <time>2024-05-26T07:16:23Z</time>
      </trkpt>
      <trkpt lat="43.73172" lon="6.62208">
        <ele>963.6</ele>
        <time>2024-05-26T07:16:24Z</time>
      </trkpt>
      <trkpt lat="43.73173" lon="6.62209">
        <ele>963.6</ele>
        <time>2024-05-26T07:16:25Z</time>
      </trkpt>
      <trkpt lat="43.73174" lon="6.62212">
        <ele>963.6</ele>
        <time>2024-05-26T07:16:26Z</time>
      </trkpt>
      <trkpt lat="43.73175" lon="6.62212">
        <ele>963.6</ele>
        <time>2024-05-26T07:16:27Z</time>
      </trkpt>
      <trkpt lat="43.73175" lon="6.62213">
        <ele>963.5</ele>
        <time>2024-05-26T07:16:28Z</time>
      </trkpt>
      <trkpt lat="43.73176" lon="6.62214">
        <ele>963.4</ele>
        <time>2024-05-26T07:16:29Z</time>
      </trkpt>
      <trkpt lat="43.73177" lon="6.62215">
        <ele>963.3</ele>
        <time>2024-05-26T07:16:30Z</time>
      </trkpt>
      <trkpt lat="43.73178" lon="6.62217">
        <ele>963.2</ele>
        <time>2024-05-26T07:16:31Z</time>
      </trkpt>
      <trkpt lat="43.73179" lon="6.62218">
        <ele>963.2</ele>
        <time>2024-05-26T07:16:32Z</time>
      </trkpt>
      <trkpt lat="43.73179" lon="6.62219">
        <ele>963.1</ele>
        <time>2024-05-26T07:16:33Z</time>
      </trkpt>
      <trkpt lat="43.73179" lon="6.62222">
        <ele>963</ele>
        <time>2024-05-26T07:16:34Z</time>
      </trkpt>
      <trkpt lat="43.73178" lon="6.62223">
        <ele>963</ele>
        <time>2024-05-26T07:16:35Z</time>
      </trkpt>
      <trkpt lat="43.73179" lon="6.62225">
        <ele>962.9</ele>
        <time>2024-05-26T07:16:36Z</time>
      </trkpt>
      <trkpt lat="43.73179" lon="6.62227">
        <ele>962.9</ele>
        <time>2024-05-26T07:16:37Z</time>
      </trkpt>
      <trkpt lat="43.7318" lon="6.62228">
        <ele>962.9</ele>
        <time>2024-05-26T07:16:38Z</time>
      </trkpt>
      <trkpt lat="43.73181" lon="6.62229">
        <ele>962.9</ele>
        <time>2024-05-26T07:16:39Z</time>
      </trkpt>
      <trkpt lat="43.73182" lon="6.62229">
        <ele>962.7</ele>
        <time>2024-05-26T07:16:40Z</time>
      </trkpt>
      <trkpt lat="43.73183" lon="6.6223">
        <ele>962.7</ele>
        <time>2024-05-26T07:16:41Z</time>
      </trkpt>
      <trkpt lat="43.73184" lon="6.6223">
        <ele>962.6</ele>
        <time>2024-05-26T07:16:42Z</time>
      </trkpt>
      <trkpt lat="43.73186" lon="6.62231">
        <ele>962.5</ele>
        <time>2024-05-26T07:16:43Z</time>
      </trkpt>
      <trkpt lat="43.73187" lon="6.62233">
        <ele>962.5</ele>
        <time>2024-05-26T07:16:44Z</time>
      </trkpt>
      <trkpt lat="43.73189" lon="6.62234">
        <ele>962.4</ele>
        <time>2024-05-26T07:16:45Z</time>
      </trkpt>
      <trkpt lat="43.73191" lon="6.62235">
        <ele>962.3</ele>
        <time>2024-05-26T07:16:46Z</time>
      </trkpt>
      <trkpt lat="43.73192" lon="6.62235">
        <ele>962.3</ele>
        <time>2024-05-26T07:16:47Z</time>
      </trkpt>
      <trkpt lat="43.73193" lon="6.62236">
        <ele>962.3</ele>
        <time>2024-05-26T07:16:48Z</time>
      </trkpt>
      <trkpt lat="43.73194" lon="6.62236">
        <ele>962.2</ele>
        <time>2024-05-26T07:16:49Z</time>
      </trkpt>
      <trkpt lat="43.73194" lon="6.62237">
        <ele>962.2</ele>
        <time>2024-05-26T07:16:50Z</time>
      </trkpt>
      <trkpt lat="43.73196" lon="6.62237">
        <ele>962.2</ele>
        <time>2024-05-26T07:16:51Z</time>
      </trkpt>
      <trkpt lat="43.73198" lon="6.62237">
        <ele>962.3</ele>
        <time>2024-05-26T07:16:52Z</time>
      </trkpt>
      <trkpt lat="43.73199" lon="6.62237">
        <ele>962.3</ele>
        <time>2024-05-26T07:16:53Z</time>
      </trkpt>
      <trkpt lat="43.732" lon="6.62238">
        <ele>962.3</ele>
        <time>2024-05-26T07:16:54Z</time>
      </trkpt>
      <trkpt lat="43.73201" lon="6.62238">
        <ele>962.1</ele>
        <time>2024-05-26T07:16:55Z</time>
      </trkpt>
      <trkpt lat="43.73202" lon="6.62239">
        <ele>962</ele>
        <time>2024-05-26T07:16:56Z</time>
      </trkpt>
      <trkpt lat="43.73202" lon="6.62239">
        <ele>962</ele>
        <time>2024-05-26T07:16:57Z</time>
      </trkpt>
      <trkpt lat="43.73203" lon="6.62239">
        <ele>962</ele>
        <time>2024-05-26T07:16:58Z</time>
      </trkpt>
      <trkpt lat="43.73204" lon="6.6224">
        <ele>962.1</ele>
        <time>2024-05-26T07:16:59Z</time>
      </trkpt>
      <trkpt lat="43.73205" lon="6.6224">
        <ele>962.2</ele>
        <time>2024-05-26T07:17:00Z</time>
      </trkpt>
      <trkpt lat="43.73205" lon="6.62241">
        <ele>962.1</ele>
        <time>2024-05-26T07:17:01Z</time>
      </trkpt>
      <trkpt lat="43.73205" lon="6.62243">
        <ele>962.1</ele>
        <time>2024-05-26T07:17:02Z</time>
      </trkpt>
      <trkpt lat="43.73206" lon="6.62244">
        <ele>962</ele>
        <time>2024-05-26T07:17:03Z</time>
      </trkpt>
      <trkpt lat="43.73206" lon="6.62244">
        <ele>962</ele>
        <time>2024-05-26T07:17:04Z</time>
      </trkpt>
      <trkpt lat="43.73208" lon="6.62244">
        <ele>961.8</ele>
        <time>2024-05-26T07:17:05Z</time>
      </trkpt>
      <trkpt lat="43.73208" lon="6.62245">
        <ele>961.7</ele>
        <time>2024-05-26T07:17:06Z</time>
      </trkpt>
      <trkpt lat="43.73208" lon="6.62246">
        <ele>961.6</ele>
        <time>2024-05-26T07:17:07Z</time>
      </trkpt>
      <trkpt lat="43.73208" lon="6.62247">
        <ele>961.5</ele>
        <time>2024-05-26T07:17:08Z</time>
      </trkpt>
      <trkpt lat="43.7321" lon="6.62248">
        <ele>961.4</ele>
        <time>2024-05-26T07:17:09Z</time>
      </trkpt>
      <trkpt lat="43.73211" lon="6.62249">
        <ele>961.2</ele>
        <time>2024-05-26T07:17:10Z</time>
      </trkpt>
      <trkpt lat="43.73211" lon="6.62251">
        <ele>961</ele>
        <time>2024-05-26T07:17:11Z</time>
      </trkpt>
      <trkpt lat="43.73211" lon="6.62253">
        <ele>960.8</ele>
        <time>2024-05-26T07:17:12Z</time>
      </trkpt>
      <trkpt lat="43.73212" lon="6.62253">
        <ele>960.6</ele>
        <time>2024-05-26T07:17:13Z</time>
      </trkpt>
      <trkpt lat="43.73214" lon="6.62254">
        <ele>960.4</ele>
        <time>2024-05-26T07:17:14Z</time>
      </trkpt>
      <trkpt lat="43.73215" lon="6.62255">
        <ele>960.3</ele>
        <time>2024-05-26T07:17:15Z</time>
      </trkpt>
      <trkpt lat="43.73215" lon="6.62256">
        <ele>960.1</ele>
        <time>2024-05-26T07:17:16Z</time>
      </trkpt>
      <trkpt lat="43.73216" lon="6.62258">
        <ele>959.9</ele>
        <time>2024-05-26T07:17:17Z</time>
      </trkpt>
      <trkpt lat="43.73218" lon="6.62259">
        <ele>959.7</ele>
        <time>2024-05-26T07:17:18Z</time>
      </trkpt>
      <trkpt lat="43.73218" lon="6.6226">
        <ele>959.5</ele>
        <time>2024-05-26T07:17:19Z</time>
      </trkpt>
      <trkpt lat="43.73219" lon="6.62261">
        <ele>959.3</ele>
        <time>2024-05-26T07:17:20Z</time>
      </trkpt>
      <trkpt lat="43.7322" lon="6.62262">
        <ele>959.2</ele>
        <time>2024-05-26T07:17:21Z</time>
      </trkpt>
      <trkpt lat="43.73221" lon="6.62263">
        <ele>959.1</ele>
        <time>2024-05-26T07:17:22Z</time>
      </trkpt>
      <trkpt lat="43.73221" lon="6.62263">
        <ele>958.9</ele>
        <time>2024-05-26T07:17:23Z</time>
      </trkpt>
      <trkpt lat="43.73221" lon="6.62263">
        <ele>958.7</ele>
        <time>2024-05-26T07:17:24Z</time>
      </trkpt>
      <trkpt lat="43.73221" lon="6.62263">
        <ele>958.4</ele>
        <time>2024-05-26T07:17:25Z</time>
      </trkpt>
      <trkpt lat="43.73221" lon="6.62264">
        <ele>958.2</ele>
        <time>2024-05-26T07:17:26Z</time>
      </trkpt>
      <trkpt lat="43.73221" lon="6.62265">
        <ele>958.1</ele>
        <time>2024-05-26T07:17:27Z</time>
      </trkpt>
      <trkpt lat="43.73221" lon="6.62267">
        <ele>957.9</ele>
        <time>2024-05-26T07:17:28Z</time>
      </trkpt>
      <trkpt lat="43.73221" lon="6.62268">
        <ele>957.8</ele>
        <time>2024-05-26T07:17:29Z</time>
      </trkpt>
      <trkpt lat="43.73222" lon="6.62269">
        <ele>957.7</ele>
        <time>2024-05-26T07:17:30Z</time>
      </trkpt>
      <trkpt lat="43.73222" lon="6.6227">
        <ele>957.7</ele>
        <time>2024-05-26T07:17:31Z</time>
      </trkpt>
      <trkpt lat="43.73223" lon="6.6227">
        <ele>957.7</ele>
        <time>2024-05-26T07:17:32Z</time>
      </trkpt>
      <trkpt lat="43.73223" lon="6.62272">
        <ele>957.7</ele>
        <time>2024-05-26T07:17:33Z</time>
      </trkpt>
      <trkpt lat="43.73223" lon="6.62273">
        <ele>957.6</ele>
        <time>2024-05-26T07:17:34Z</time>
      </trkpt>
      <trkpt lat="43.73224" lon="6.62274">
        <ele>957.5</ele>
        <time>2024-05-26T07:17:35Z</time>
      </trkpt>
      <trkpt lat="43.73224" lon="6.62275">
        <ele>957.5</ele>
        <time>2024-05-26T07:17:36Z</time>
      </trkpt>
      <trkpt lat="43.73224" lon="6.62276">
        <ele>957.5</ele>
        <time>2024-05-26T07:17:37Z</time>
      </trkpt>
      <trkpt lat="43.73225" lon="6.62277">
        <ele>957.5</ele>
        <time>2024-05-26T07:17:38Z</time>
      </trkpt>
      <trkpt lat="43.73224" lon="6.62278">
        <ele>957.5</ele>
        <time>2024-05-26T07:17:39Z</time>
      </trkpt>
      <trkpt lat="43.73225" lon="6.62279">
        <ele>957.6</ele>
        <time>2024-05-26T07:17:40Z</time>
      </trkpt>
      <trkpt lat="43.73227" lon="6.62281">
        <ele>957.7</ele>
        <time>2024-05-26T07:17:41Z</time>
      </trkpt>
      <trkpt lat="43.73227" lon="6.62282">
        <ele>957.8</ele>
        <time>2024-05-26T07:17:42Z</time>
      </trkpt>
      <trkpt lat="43.73228" lon="6.62284">
        <ele>957.9</ele>
        <time>2024-05-26T07:17:43Z</time>
      </trkpt>
      <trkpt lat="43.73229" lon="6.62286">
        <ele>957.9</ele>
        <time>2024-05-26T07:17:44Z</time>
      </trkpt>
      <trkpt lat="43.73229" lon="6.62286">
        <ele>957.9</ele>
        <time>2024-05-26T07:17:45Z</time>
      </trkpt>
      <trkpt lat="43.7323" lon="6.62287">
        <ele>958</ele>
        <time>2024-05-26T07:17:46Z</time>
      </trkpt>
      <trkpt lat="43.73231" lon="6.62288">
        <ele>958</ele>
        <time>2024-05-26T07:17:47Z</time>
      </trkpt>
      <trkpt lat="43.73232" lon="6.62289">
        <ele>958.1</ele>
        <time>2024-05-26T07:17:48Z</time>
      </trkpt>
      <trkpt lat="43.73233" lon="6.6229">
        <ele>958.2</ele>
        <time>2024-05-26T07:17:49Z</time>
      </trkpt>
      <trkpt lat="43.73233" lon="6.62291">
        <ele>958.2</ele>
        <time>2024-05-26T07:17:50Z</time>
      </trkpt>
      <trkpt lat="43.73234" lon="6.62292">
        <ele>958.2</ele>
        <time>2024-05-26T07:17:51Z</time>
      </trkpt>
      <trkpt lat="43.73235" lon="6.62293">
        <ele>958.2</ele>
        <time>2024-05-26T07:17:52Z</time>
      </trkpt>
      <trkpt lat="43.73236" lon="6.62294">
        <ele>958.3</ele>
        <time>2024-05-26T07:17:53Z</time>
      </trkpt>
      <trkpt lat="43.73237" lon="6.62295">
        <ele>958.3</ele>
        <time>2024-05-26T07:17:54Z</time>
      </trkpt>
      <trkpt lat="43.73238" lon="6.62296">
        <ele>958.4</ele>
        <time>2024-05-26T07:17:55Z</time>
      </trkpt>
      <trkpt lat="43.73239" lon="6.62297">
        <ele>958.4</ele>
        <time>2024-05-26T07:17:56Z</time>
      </trkpt>
      <trkpt lat="43.73239" lon="6.62297">
        <ele>958.4</ele>
        <time>2024-05-26T07:17:57Z</time>
      </trkpt>
      <trkpt lat="43.7324" lon="6.62299">
        <ele>958.5</ele>
        <time>2024-05-26T07:17:58Z</time>
      </trkpt>
      <trkpt lat="43.73241" lon="6.623">
        <ele>958.5</ele>
        <time>2024-05-26T07:17:59Z</time>
      </trkpt>
      <trkpt lat="43.73242" lon="6.62301">
        <ele>958.6</ele>
        <time>2024-05-26T07:18:00Z</time>
      </trkpt>
      <trkpt lat="43.73243" lon="6.62302">
        <ele>958.7</ele>
        <time>2024-05-26T07:18:01Z</time>
      </trkpt>
      <trkpt lat="43.73244" lon="6.62303">
        <ele>958.7</ele>
        <time>2024-05-26T07:18:02Z</time>
      </trkpt>
      <trkpt lat="43.73245" lon="6.62304">
        <ele>958.7</ele>
        <time>2024-05-26T07:18:03Z</time>
      </trkpt>
      <trkpt lat="43.73245" lon="6.62305">
        <ele>958.8</ele>
        <time>2024-05-26T07:18:04Z</time>
      </trkpt>
      <trkpt lat="43.73246" lon="6.62306">
        <ele>958.8</ele>
        <time>2024-05-26T07:18:05Z</time>
      </trkpt>
      <trkpt lat="43.73247" lon="6.62307">
        <ele>958.9</ele>
        <time>2024-05-26T07:18:06Z</time>
      </trkpt>
      <trkpt lat="43.73248" lon="6.62308">
        <ele>959</ele>
        <time>2024-05-26T07:18:07Z</time>
      </trkpt>
      <trkpt lat="43.73249" lon="6.62309">
        <ele>959.1</ele>
        <time>2024-05-26T07:18:08Z</time>
      </trkpt>
      <trkpt lat="43.7325" lon="6.6231">
        <ele>959.2</ele>
        <time>2024-05-26T07:18:09Z</time>
      </trkpt>
      <trkpt lat="43.7325" lon="6.62311">
        <ele>959.3</ele>
        <time>2024-05-26T07:18:10Z</time>
      </trkpt>
      <trkpt lat="43.7325" lon="6.62311">
        <ele>959.3</ele>
        <time>2024-05-26T07:18:11Z</time>
      </trkpt>
      <trkpt lat="43.73251" lon="6.62312">
        <ele>959.4</ele>
        <time>2024-05-26T07:18:12Z</time>
      </trkpt>
      <trkpt lat="43.73251" lon="6.62313">
        <ele>959.4</ele>
        <time>2024-05-26T07:18:13Z</time>
      </trkpt>
      <trkpt lat="43.73252" lon="6.62314">
        <ele>959.4</ele>
        <time>2024-05-26T07:18:14Z</time>
      </trkpt>
      <trkpt lat="43.73253" lon="6.62315">
        <ele>959.6</ele>
        <time>2024-05-26T07:18:15Z</time>
      </trkpt>
      <trkpt lat="43.73254" lon="6.62316">
        <ele>959.6</ele>
        <time>2024-05-26T07:18:16Z</time>
      </trkpt>
      <trkpt lat="43.73254" lon="6.62317">
        <ele>959.7</ele>
        <time>2024-05-26T07:18:17Z</time>
      </trkpt>
      <trkpt lat="43.73255" lon="6.62318">
        <ele>959.7</ele>
        <time>2024-05-26T07:18:18Z</time>
      </trkpt>
      <trkpt lat="43.73255" lon="6.62318">
        <ele>959.7</ele>
        <time>2024-05-26T07:18:19Z</time>
      </trkpt>
      <trkpt lat="43.73256" lon="6.62319">
        <ele>959.8</ele>
        <time>2024-05-26T07:18:20Z</time>
      </trkpt>
      <trkpt lat="43.73256" lon="6.6232">
        <ele>959.9</ele>
        <time>2024-05-26T07:18:21Z</time>
      </trkpt>
      <trkpt lat="43.73257" lon="6.62321">
        <ele>959.9</ele>
        <time>2024-05-26T07:18:22Z</time>
      </trkpt>
      <trkpt lat="43.73257" lon="6.62323">
        <ele>960</ele>
        <time>2024-05-26T07:18:23Z</time>
      </trkpt>
      <trkpt lat="43.73258" lon="6.62324">
        <ele>960.1</ele>
        <time>2024-05-26T07:18:24Z</time>
      </trkpt>
      <trkpt lat="43.73259" lon="6.62325">
        <ele>960.3</ele>
        <time>2024-05-26T07:18:25Z</time>
      </trkpt>
      <trkpt lat="43.73259" lon="6.62327">
        <ele>960.5</ele>
        <time>2024-05-26T07:18:26Z</time>
      </trkpt>
      <trkpt lat="43.7326" lon="6.62328">
        <ele>960.7</ele>
        <time>2024-05-26T07:18:27Z</time>
      </trkpt>
      <trkpt lat="43.73261" lon="6.62329">
        <ele>960.8</ele>
        <time>2024-05-26T07:18:28Z</time>
      </trkpt>
      <trkpt lat="43.73262" lon="6.6233">
        <ele>961</ele>
        <time>2024-05-26T07:18:29Z</time>
      </trkpt>
      <trkpt lat="43.73262" lon="6.62331">
        <ele>961.1</ele>
        <time>2024-05-26T07:18:30Z</time>
      </trkpt>
      <trkpt lat="43.73263" lon="6.62333">
        <ele>961.2</ele>
        <time>2024-05-26T07:18:31Z</time>
      </trkpt>
      <trkpt lat="43.73263" lon="6.62334">
        <ele>961.4</ele>
        <time>2024-05-26T07:18:32Z</time>
      </trkpt>
      <trkpt lat="43.73263" lon="6.62334">
        <ele>961.7</ele>
        <time>2024-05-26T07:18:33Z</time>
      </trkpt>
      <trkpt lat="43.73264" lon="6.62336">
        <ele>961.9</ele>
        <time>2024-05-26T07:18:34Z</time>
      </trkpt>
      <trkpt lat="43.73265" lon="6.62337">
        <ele>962.2</ele>
        <time>2024-05-26T07:18:35Z</time>
      </trkpt>
      <trkpt lat="43.73266" lon="6.62338">
        <ele>962.3</ele>
        <time>2024-05-26T07:18:36Z</time>
      </trkpt>
      <trkpt lat="43.73266" lon="6.6234">
        <ele>962.5</ele>
        <time>2024-05-26T07:18:37Z</time>
      </trkpt>
      <trkpt lat="43.73267" lon="6.62341">
        <ele>962.6</ele>
        <time>2024-05-26T07:18:38Z</time>
      </trkpt>
      <trkpt lat="43.73267" lon="6.62342">
        <ele>962.6</ele>
        <time>2024-05-26T07:18:39Z</time>
      </trkpt>
      <trkpt lat="43.73268" lon="6.62343">
        <ele>962.8</ele>
        <time>2024-05-26T07:18:40Z</time>
      </trkpt>
      <trkpt lat="43.73269" lon="6.62345">
        <ele>963</ele>
        <time>2024-05-26T07:18:41Z</time>
      </trkpt>
      <trkpt lat="43.73269" lon="6.62346">
        <ele>963.3</ele>
        <time>2024-05-26T07:18:42Z</time>
      </trkpt>
      <trkpt lat="43.7327" lon="6.62348">
        <ele>963.4</ele>
        <time>2024-05-26T07:18:43Z</time>
      </trkpt>
      <trkpt lat="43.7327" lon="6.62349">
        <ele>963.5</ele>
        <time>2024-05-26T07:18:44Z</time>
      </trkpt>
      <trkpt lat="43.7327" lon="6.6235">
        <ele>963.7</ele>
        <time>2024-05-26T07:18:45Z</time>
      </trkpt>
      <trkpt lat="43.73271" lon="6.62351">
        <ele>963.9</ele>
        <time>2024-05-26T07:18:46Z</time>
      </trkpt>
      <trkpt lat="43.73271" lon="6.62352">
        <ele>964</ele>
        <time>2024-05-26T07:18:47Z</time>
      </trkpt>
      <trkpt lat="43.73271" lon="6.62353">
        <ele>964.3</ele>
        <time>2024-05-26T07:18:48Z</time>
      </trkpt>
      <trkpt lat="43.73271" lon="6.62355">
        <ele>964.4</ele>
        <time>2024-05-26T07:18:49Z</time>
      </trkpt>
      <trkpt lat="43.73271" lon="6.62357">
        <ele>964.6</ele>
        <time>2024-05-26T07:18:50Z</time>
      </trkpt>
      <trkpt lat="43.73272" lon="6.62358">
        <ele>964.8</ele>
        <time>2024-05-26T07:18:51Z</time>
      </trkpt>
      <trkpt lat="43.73272" lon="6.62359">
        <ele>964.9</ele>
        <time>2024-05-26T07:18:52Z</time>
      </trkpt>
      <trkpt lat="43.73273" lon="6.6236">
        <ele>965</ele>
        <time>2024-05-26T07:18:53Z</time>
      </trkpt>
      <trkpt lat="43.73273" lon="6.62361">
        <ele>965.2</ele>
        <time>2024-05-26T07:18:54Z</time>
      </trkpt>
      <trkpt lat="43.73273" lon="6.62362">
        <ele>965.5</ele>
        <time>2024-05-26T07:18:55Z</time>
      </trkpt>
      <trkpt lat="43.73274" lon="6.62363">
        <ele>965.7</ele>
        <time>2024-05-26T07:18:56Z</time>
      </trkpt>
      <trkpt lat="43.73274" lon="6.62364">
        <ele>965.9</ele>
        <time>2024-05-26T07:18:57Z</time>
      </trkpt>
      <trkpt lat="43.73274" lon="6.62365">
        <ele>966.1</ele>
        <time>2024-05-26T07:18:58Z</time>
      </trkpt>
      <trkpt lat="43.73275" lon="6.62366">
        <ele>966.3</ele>
        <time>2024-05-26T07:18:59Z</time>
      </trkpt>
      <trkpt lat="43.73275" lon="6.62367">
        <ele>966.5</ele>
        <time>2024-05-26T07:19:00Z</time>
      </trkpt>
      <trkpt lat="43.73276" lon="6.62368">
        <ele>966.6</ele>
        <time>2024-05-26T07:19:01Z</time>
      </trkpt>
      <trkpt lat="43.73276" lon="6.62369">
        <ele>966.8</ele>
        <time>2024-05-26T07:19:02Z</time>
      </trkpt>
      <trkpt lat="43.73277" lon="6.62371">
        <ele>966.9</ele>
        <time>2024-05-26T07:19:03Z</time>
      </trkpt>
      <trkpt lat="43.73277" lon="6.62371">
        <ele>967</ele>
        <time>2024-05-26T07:19:04Z</time>
      </trkpt>
      <trkpt lat="43.73278" lon="6.62372">
        <ele>967.3</ele>
        <time>2024-05-26T07:19:05Z</time>
      </trkpt>
      <trkpt lat="43.73278" lon="6.62373">
        <ele>967.5</ele>
        <time>2024-05-26T07:19:06Z</time>
      </trkpt>
      <trkpt lat="43.73279" lon="6.62374">
        <ele>967.7</ele>
        <time>2024-05-26T07:19:07Z</time>
      </trkpt>
      <trkpt lat="43.73279" lon="6.62375">
        <ele>967.8</ele>
        <time>2024-05-26T07:19:08Z</time>
      </trkpt>
      <trkpt lat="43.73279" lon="6.62376">
        <ele>968</ele>
        <time>2024-05-26T07:19:09Z</time>
      </trkpt>
      <trkpt lat="43.7328" lon="6.62377">
        <ele>968.2</ele>
        <time>2024-05-26T07:19:10Z</time>
      </trkpt>
      <trkpt lat="43.7328" lon="6.62378">
        <ele>968.4</ele>
        <time>2024-05-26T07:19:11Z</time>
      </trkpt>
      <trkpt lat="43.7328" lon="6.6238">
        <ele>968.6</ele>
        <time>2024-05-26T07:19:12Z</time>
      </trkpt>
      <trkpt lat="43.73281" lon="6.6238">
        <ele>968.8</ele>
        <time>2024-05-26T07:19:13Z</time>
      </trkpt>
      <trkpt lat="43.73281" lon="6.62381">
        <ele>969</ele>
        <time>2024-05-26T07:19:14Z</time>
      </trkpt>
      <trkpt lat="43.73282" lon="6.62382">
        <ele>969.1</ele>
        <time>2024-05-26T07:19:15Z</time>
      </trkpt>
      <trkpt lat="43.73282" lon="6.62383">
        <ele>969.3</ele>
        <time>2024-05-26T07:19:16Z</time>
      </trkpt>
      <trkpt lat="43.73282" lon="6.62384">
        <ele>969.5</ele>
        <time>2024-05-26T07:19:17Z</time>
      </trkpt>
      <trkpt lat="43.73282" lon="6.62384">
        <ele>969.7</ele>
        <time>2024-05-26T07:19:18Z</time>
      </trkpt>
      <trkpt lat="43.73283" lon="6.62385">
        <ele>969.9</ele>
        <time>2024-05-26T07:19:19Z</time>
      </trkpt>
      <trkpt lat="43.73283" lon="6.62386">
        <ele>970.1</ele>
        <time>2024-05-26T07:19:20Z</time>
      </trkpt>
      <trkpt lat="43.73283" lon="6.62387">
        <ele>970.3</ele>
        <time>2024-05-26T07:19:21Z</time>
      </trkpt>
      <trkpt lat="43.73284" lon="6.62387">
        <ele>970.5</ele>
        <time>2024-05-26T07:19:22Z</time>
      </trkpt>
      <trkpt lat="43.73284" lon="6.62388">
        <ele>970.7</ele>
        <time>2024-05-26T07:19:23Z</time>
      </trkpt>
      <trkpt lat="43.73285" lon="6.62389">
        <ele>970.8</ele>
        <time>2024-05-26T07:19:24Z</time>
      </trkpt>
      <trkpt lat="43.73286" lon="6.62389">
        <ele>970.9</ele>
        <time>2024-05-26T07:19:25Z</time>
      </trkpt>
      <trkpt lat="43.73286" lon="6.6239">
        <ele>971.1</ele>
        <time>2024-05-26T07:19:26Z</time>
      </trkpt>
      <trkpt lat="43.73286" lon="6.62391">
        <ele>971.3</ele>
        <time>2024-05-26T07:19:27Z</time>
      </trkpt>
      <trkpt lat="43.73286" lon="6.62392">
        <ele>971.5</ele>
        <time>2024-05-26T07:19:28Z</time>
      </trkpt>
      <trkpt lat="43.73287" lon="6.62393">
        <ele>971.8</ele>
        <time>2024-05-26T07:19:29Z</time>
      </trkpt>
      <trkpt lat="43.73287" lon="6.62394">
        <ele>972</ele>
        <time>2024-05-26T07:19:30Z</time>
      </trkpt>
      <trkpt lat="43.73288" lon="6.62395">
        <ele>972.1</ele>
        <time>2024-05-26T07:19:31Z</time>
      </trkpt>
      <trkpt lat="43.73289" lon="6.62396">
        <ele>972.4</ele>
        <time>2024-05-26T07:19:32Z</time>
      </trkpt>
      <trkpt lat="43.73289" lon="6.62397">
        <ele>972.5</ele>
        <time>2024-05-26T07:19:33Z</time>
      </trkpt>
      <trkpt lat="43.7329" lon="6.62398">
        <ele>972.8</ele>
        <time>2024-05-26T07:19:34Z</time>
      </trkpt>
      <trkpt lat="43.7329" lon="6.62398">
        <ele>972.9</ele>
        <time>2024-05-26T07:19:35Z</time>
      </trkpt>
      <trkpt lat="43.7329" lon="6.62399">
        <ele>973</ele>
        <time>2024-05-26T07:19:36Z</time>
      </trkpt>
      <trkpt lat="43.7329" lon="6.62399">
        <ele>973.2</ele>
        <time>2024-05-26T07:19:37Z</time>
      </trkpt>
      <trkpt lat="43.7329" lon="6.624">
        <ele>973.4</ele>
        <time>2024-05-26T07:19:38Z</time>
      </trkpt>
      <trkpt lat="43.7329" lon="6.62401">
        <ele>973.5</ele>
        <time>2024-05-26T07:19:39Z</time>
      </trkpt>
      <trkpt lat="43.7329" lon="6.62401">
        <ele>973.8</ele>
        <time>2024-05-26T07:19:40Z</time>
      </trkpt>
      <trkpt lat="43.7329" lon="6.62403">
        <ele>974.1</ele>
        <time>2024-05-26T07:19:41Z</time>
      </trkpt>
      <trkpt lat="43.73291" lon="6.62404">
        <ele>974.4</ele>
        <time>2024-05-26T07:19:42Z</time>
      </trkpt>
      <trkpt lat="43.73291" lon="6.62405">
        <ele>974.5</ele>
        <time>2024-05-26T07:19:43Z</time>
      </trkpt>
      <trkpt lat="43.73292" lon="6.62406">
        <ele>974.7</ele>
        <time>2024-05-26T07:19:44Z</time>
      </trkpt>
      <trkpt lat="43.73292" lon="6.62407">
        <ele>974.8</ele>
        <time>2024-05-26T07:19:45Z</time>
      </trkpt>
      <trkpt lat="43.73292" lon="6.62408">
        <ele>974.9</ele>
        <time>2024-05-26T07:19:46Z</time>
      </trkpt>
      <trkpt lat="43.73292" lon="6.62408">
        <ele>975.2</ele>
        <time>2024-05-26T07:19:47Z</time>
      </trkpt>
      <trkpt lat="43.73292" lon="6.62409">
        <ele>975.4</ele>
        <time>2024-05-26T07:19:48Z</time>
      </trkpt>
      <trkpt lat="43.73293" lon="6.6241">
        <ele>975.6</ele>
        <time>2024-05-26T07:19:49Z</time>
      </trkpt>
      <trkpt lat="43.73293" lon="6.62412">
        <ele>975.7</ele>
        <time>2024-05-26T07:19:50Z</time>
      </trkpt>
      <trkpt lat="43.73294" lon="6.62413">
        <ele>975.8</ele>
        <time>2024-05-26T07:19:51Z</time>
      </trkpt>
      <trkpt lat="43.73294" lon="6.62414">
        <ele>976</ele>
        <time>2024-05-26T07:19:52Z</time>
      </trkpt>
      <trkpt lat="43.73294" lon="6.62416">
        <ele>976.2</ele>
        <time>2024-05-26T07:19:53Z</time>
      </trkpt>
      <trkpt lat="43.73294" lon="6.62417">
        <ele>976.3</ele>
        <time>2024-05-26T07:19:54Z</time>
      </trkpt>
      <trkpt lat="43.73295" lon="6.62417">
        <ele>976.5</ele>
        <time>2024-05-26T07:19:55Z</time>
      </trkpt>
      <trkpt lat="43.73296" lon="6.62418">
        <ele>976.6</ele>
        <time>2024-05-26T07:19:56Z</time>
      </trkpt>
      <trkpt lat="43.73297" lon="6.62419">
        <ele>976.7</ele>
        <time>2024-05-26T07:19:57Z</time>
      </trkpt>
      <trkpt lat="43.73296" lon="6.62421">
        <ele>976.8</ele>
        <time>2024-05-26T07:19:58Z</time>
      </trkpt>
      <trkpt lat="43.73297" lon="6.62422">
        <ele>976.9</ele>
        <time>2024-05-26T07:19:59Z</time>
      </trkpt>
      <trkpt lat="43.73297" lon="6.62423">
        <ele>977</ele>
        <time>2024-05-26T07:20:00Z</time>
      </trkpt>
      <trkpt lat="43.73297" lon="6.62424">
        <ele>977.1</ele>
        <time>2024-05-26T07:20:01Z</time>
      </trkpt>
      <trkpt lat="43.73297" lon="6.62425">
        <ele>977.3</ele>
        <time>2024-05-26T07:20:02Z</time>
      </trkpt>
      <trkpt lat="43.73297" lon="6.62426">
        <ele>977.5</ele>
        <time>2024-05-26T07:20:03Z</time>
      </trkpt>
      <trkpt lat="43.73298" lon="6.62428">
        <ele>977.7</ele>
        <time>2024-05-26T07:20:04Z</time>
      </trkpt>
      <trkpt lat="43.73299" lon="6.62428">
        <ele>977.8</ele>
        <time>2024-05-26T07:20:05Z</time>
      </trkpt>
      <trkpt lat="43.73299" lon="6.62429">
        <ele>978</ele>
        <time>2024-05-26T07:20:06Z</time>
      </trkpt>
      <trkpt lat="43.73299" lon="6.6243">
        <ele>978.1</ele>
        <time>2024-05-26T07:20:07Z</time>
      </trkpt>
      <trkpt lat="43.73299" lon="6.62431">
        <ele>978.4</ele>
        <time>2024-05-26T07:20:08Z</time>
      </trkpt>
      <trkpt lat="43.73299" lon="6.62432">
        <ele>978.7</ele>
        <time>2024-05-26T07:20:09Z</time>
      </trkpt>
      <trkpt lat="43.733" lon="6.62434">
        <ele>978.9</ele>
        <time>2024-05-26T07:20:10Z</time>
      </trkpt>
      <trkpt lat="43.733" lon="6.62434">
        <ele>979.1</ele>
        <time>2024-05-26T07:20:11Z</time>
      </trkpt>
      <trkpt lat="43.733" lon="6.62436">
        <ele>979.2</ele>
        <time>2024-05-26T07:20:12Z</time>
      </trkpt>
      <trkpt lat="43.733" lon="6.62437">
        <ele>979.3</ele>
        <time>2024-05-26T07:20:13Z</time>
      </trkpt>
      <trkpt lat="43.733" lon="6.62438">
        <ele>979.5</ele>
        <time>2024-05-26T07:20:14Z</time>
      </trkpt>
      <trkpt lat="43.73301" lon="6.6244">
        <ele>979.6</ele>
        <time>2024-05-26T07:20:15Z</time>
      </trkpt>
      <trkpt lat="43.73302" lon="6.62441">
        <ele>979.7</ele>
        <time>2024-05-26T07:20:16Z</time>
      </trkpt>
      <trkpt lat="43.73303" lon="6.62442">
        <ele>979.8</ele>
        <time>2024-05-26T07:20:17Z</time>
      </trkpt>
      <trkpt lat="43.73303" lon="6.62442">
        <ele>980</ele>
        <time>2024-05-26T07:20:18Z</time>
      </trkpt>
      <trkpt lat="43.73304" lon="6.62443">
        <ele>980.1</ele>
        <time>2024-05-26T07:20:19Z</time>
      </trkpt>
      <trkpt lat="43.73304" lon="6.62444">
        <ele>980.3</ele>
        <time>2024-05-26T07:20:20Z</time>
      </trkpt>
      <trkpt lat="43.73305" lon="6.62445">
        <ele>980.4</ele>
        <time>2024-05-26T07:20:21Z</time>
      </trkpt>
      <trkpt lat="43.73306" lon="6.62446">
        <ele>980.6</ele>
        <time>2024-05-26T07:20:22Z</time>
      </trkpt>
      <trkpt lat="43.73307" lon="6.62446">
        <ele>980.7</ele>
        <time>2024-05-26T07:20:23Z</time>
      </trkpt>
      <trkpt lat="43.73307" lon="6.62446">
        <ele>980.8</ele>
        <time>2024-05-26T07:20:24Z</time>
      </trkpt>
      <trkpt lat="43.73308" lon="6.62446">
        <ele>980.9</ele>
        <time>2024-05-26T07:20:25Z</time>
      </trkpt>
      <trkpt lat="43.73309" lon="6.62446">
        <ele>981</ele>
        <time>2024-05-26T07:20:26Z</time>
      </trkpt>
      <trkpt lat="43.73309" lon="6.62445">
        <ele>981.1</ele>
        <time>2024-05-26T07:20:27Z</time>
      </trkpt>
      <trkpt lat="43.7331" lon="6.62444">
        <ele>981.2</ele>
        <time>2024-05-26T07:20:28Z</time>
      </trkpt>
      <trkpt lat="43.7331" lon="6.62444">
        <ele>981.2</ele>
        <time>2024-05-26T07:20:29Z</time>
      </trkpt>
      <trkpt lat="43.7331" lon="6.62444">
        <ele>981.2</ele>
        <time>2024-05-26T07:20:30Z</time>
      </trkpt>
      <trkpt lat="43.7331" lon="6.62443">
        <ele>981.2</ele>
        <time>2024-05-26T07:20:31Z</time>
      </trkpt>
      <trkpt lat="43.7331" lon="6.62443">
        <ele>981.2</ele>
        <time>2024-05-26T07:20:32Z</time>
      </trkpt>
      <trkpt lat="43.7331" lon="6.62443">
        <ele>981.2</ele>
        <time>2024-05-26T07:20:33Z</time>
      </trkpt>
      <trkpt lat="43.7331" lon="6.62443">
        <ele>981.2</ele>
        <time>2024-05-26T07:20:34Z</time>
      </trkpt>
      <trkpt lat="43.7331" lon="6.62443">
        <ele>981.2</ele>
        <time>2024-05-26T07:20:35Z</time>
      </trkpt>
      <trkpt lat="43.7331" lon="6.62443">
        <ele>981.3</ele>
        <time>2024-05-26T07:20:36Z</time>
      </trkpt>
      <trkpt lat="43.7331" lon="6.62443">
        <ele>981.3</ele>
        <time>2024-05-26T07:20:37Z</time>
      </trkpt>
      <trkpt lat="43.7331" lon="6.62443">
        <ele>981.4</ele>
        <time>2024-05-26T07:20:38Z</time>
      </trkpt>
      <trkpt lat="43.7331" lon="6.62443">
        <ele>981.4</ele>
        <time>2024-05-26T07:20:39Z</time>
      </trkpt>
      <trkpt lat="43.7331" lon="6.62443">
        <ele>981.4</ele>
        <time>2024-05-26T07:20:40Z</time>
      </trkpt>
      <trkpt lat="43.7331" lon="6.62443">
        <ele>981.3</ele>
        <time>2024-05-26T07:20:41Z</time>
      </trkpt>
      <trkpt lat="43.7331" lon="6.62443">
        <ele>981.3</ele>
        <time>2024-05-26T07:20:42Z</time>
      </trkpt>
      <trkpt lat="43.7331" lon="6.62443">
        <ele>981.2</ele>
        <time>2024-05-26T07:20:43Z</time>
      </trkpt>
      <trkpt lat="43.7331" lon="6.62443">
        <ele>981.3</ele>
        <time>2024-05-26T07:20:44Z</time>
      </trkpt>
      <trkpt lat="43.7331" lon="6.62443">
        <ele>981.3</ele>
        <time>2024-05-26T07:20:45Z</time>
      </trkpt>
      <trkpt lat="43.7331" lon="6.62443">
        <ele>981.4</ele>
        <time>2024-05-26T07:20:46Z</time>
      </trkpt>
      <trkpt lat="43.7331" lon="6.62443">
        <ele>981.4</ele>
        <time>2024-05-26T07:20:47Z</time>
      </trkpt>
      <trkpt lat="43.7331" lon="6.62443">
        <ele>981.5</ele>
        <time>2024-05-26T07:20:48Z</time>
      </trkpt>
      <trkpt lat="43.7331" lon="6.62443">
        <ele>981.5</ele>
        <time>2024-05-26T07:20:49Z</time>
      </trkpt>
      <trkpt lat="43.7331" lon="6.62443">
        <ele>981.5</ele>
        <time>2024-05-26T07:20:50Z</time>
      </trkpt>
      <trkpt lat="43.7331" lon="6.62443">
        <ele>981.6</ele>
        <time>2024-05-26T07:20:51Z</time>
      </trkpt>
      <trkpt lat="43.7331" lon="6.62443">
        <ele>981.6</ele>
        <time>2024-05-26T07:20:52Z</time>
      </trkpt>
      <trkpt lat="43.7331" lon="6.62442">
        <ele>981.6</ele>
        <time>2024-05-26T07:20:53Z</time>
      </trkpt>
      <trkpt lat="43.7331" lon="6.62442">
        <ele>981.6</ele>
        <time>2024-05-26T07:20:54Z</time>
      </trkpt>
      <trkpt lat="43.7331" lon="6.62442">
        <ele>981.6</ele>
        <time>2024-05-26T07:20:55Z</time>
      </trkpt>
      <trkpt lat="43.7331" lon="6.62442">
        <ele>981.6</ele>
        <time>2024-05-26T07:20:56Z</time>
      </trkpt>
      <trkpt lat="43.7331" lon="6.62442">
        <ele>981.6</ele>
        <time>2024-05-26T07:20:57Z</time>
      </trkpt>
      <trkpt lat="43.73311" lon="6.62443">
        <ele>981.6</ele>
        <time>2024-05-26T07:20:58Z</time>
      </trkpt>
      <trkpt lat="43.7331" lon="6.62443">
        <ele>981.6</ele>
        <time>2024-05-26T07:20:59Z</time>
      </trkpt>
      <trkpt lat="43.7331" lon="6.62443">
        <ele>981.6</ele>
        <time>2024-05-26T07:21:00Z</time>
      </trkpt>
      <trkpt lat="43.7331" lon="6.62443">
        <ele>981.6</ele>
        <time>2024-05-26T07:21:01Z</time>
      </trkpt>
      <trkpt lat="43.7331" lon="6.62443">
        <ele>981.5</ele>
        <time>2024-05-26T07:21:02Z</time>
      </trkpt>
      <trkpt lat="43.7331" lon="6.62443">
        <ele>981.5</ele>
        <time>2024-05-26T07:21:03Z</time>
      </trkpt>
      <trkpt lat="43.73309" lon="6.62444">
        <ele>981.4</ele>
        <time>2024-05-26T07:21:04Z</time>
      </trkpt>
      <trkpt lat="43.73309" lon="6.62445">
        <ele>981.5</ele>
        <time>2024-05-26T07:21:05Z</time>
      </trkpt>
      <trkpt lat="43.73309" lon="6.62445">
        <ele>981.6</ele>
        <time>2024-05-26T07:21:06Z</time>
      </trkpt>
      <trkpt lat="43.73309" lon="6.62445">
        <ele>981.6</ele>
        <time>2024-05-26T07:21:07Z</time>
      </trkpt>
      <trkpt lat="43.73309" lon="6.62447">
        <ele>981.6</ele>
        <time>2024-05-26T07:21:08Z</time>
      </trkpt>
      <trkpt lat="43.7331" lon="6.62448">
        <ele>981.5</ele>
        <time>2024-05-26T07:21:09Z</time>
      </trkpt>
      <trkpt lat="43.7331" lon="6.62448">
        <ele>981.5</ele>
        <time>2024-05-26T07:21:10Z</time>
      </trkpt>
      <trkpt lat="43.7331" lon="6.62448">
        <ele>981.5</ele>
        <time>2024-05-26T07:21:11Z</time>
      </trkpt>
      <trkpt lat="43.7331" lon="6.62448">
        <ele>981.6</ele>
        <time>2024-05-26T07:21:12Z</time>
      </trkpt>
      <trkpt lat="43.73309" lon="6.62447">
        <ele>981.6</ele>
        <time>2024-05-26T07:21:13Z</time>
      </trkpt>
      <trkpt lat="43.73309" lon="6.62447">
        <ele>981.7</ele>
        <time>2024-05-26T07:21:14Z</time>
      </trkpt>
      <trkpt lat="43.73309" lon="6.62447">
        <ele>981.7</ele>
        <time>2024-05-26T07:21:15Z</time>
      </trkpt>
      <trkpt lat="43.73309" lon="6.62447">
        <ele>981.7</ele>
        <time>2024-05-26T07:21:16Z</time>
      </trkpt>
      <trkpt lat="43.73309" lon="6.62446">
        <ele>981.8</ele>
        <time>2024-05-26T07:21:17Z</time>
      </trkpt>
      <trkpt lat="43.73309" lon="6.62446">
        <ele>981.7</ele>
        <time>2024-05-26T07:21:18Z</time>
      </trkpt>
      <trkpt lat="43.73309" lon="6.62445">
        <ele>981.7</ele>
        <time>2024-05-26T07:21:19Z</time>
      </trkpt>
      <trkpt lat="43.7331" lon="6.62445">
        <ele>981.6</ele>
        <time>2024-05-26T07:21:20Z</time>
      </trkpt>
      <trkpt lat="43.73311" lon="6.62445">
        <ele>981.6</ele>
        <time>2024-05-26T07:21:21Z</time>
      </trkpt>
      <trkpt lat="43.73312" lon="6.62444">
        <ele>981.5</ele>
        <time>2024-05-26T07:21:22Z</time>
      </trkpt>
      <trkpt lat="43.73312" lon="6.62444">
        <ele>981.5</ele>
        <time>2024-05-26T07:21:23Z</time>
      </trkpt>
      <trkpt lat="43.73312" lon="6.62444">
        <ele>981.5</ele>
        <time>2024-05-26T07:21:24Z</time>
      </trkpt>
      <trkpt lat="43.73312" lon="6.62444">
        <ele>981.5</ele>
        <time>2024-05-26T07:21:25Z</time>
      </trkpt>
      <trkpt lat="43.73312" lon="6.62444">
        <ele>981.5</ele>
        <time>2024-05-26T07:21:26Z</time>
      </trkpt>
      <trkpt lat="43.73313" lon="6.62443">
        <ele>981.4</ele>
        <time>2024-05-26T07:21:27Z</time>
      </trkpt>
      <trkpt lat="43.73313" lon="6.62443">
        <ele>981.4</ele>
        <time>2024-05-26T07:21:28Z</time>
      </trkpt>
      <trkpt lat="43.73314" lon="6.62441">
        <ele>981.4</ele>
        <time>2024-05-26T07:21:29Z</time>
      </trkpt>
      <trkpt lat="43.73315" lon="6.62441">
        <ele>981.4</ele>
        <time>2024-05-26T07:21:30Z</time>
      </trkpt>
      <trkpt lat="43.73315" lon="6.6244">
        <ele>981.5</ele>
        <time>2024-05-26T07:21:31Z</time>
      </trkpt>
      <trkpt lat="43.73315" lon="6.6244">
        <ele>981.5</ele>
        <time>2024-05-26T07:21:32Z</time>
      </trkpt>
      <trkpt lat="43.73315" lon="6.62439">
        <ele>981.5</ele>
        <time>2024-05-26T07:21:33Z</time>
      </trkpt>
      <trkpt lat="43.73316" lon="6.62438">
        <ele>981.6</ele>
        <time>2024-05-26T07:21:34Z</time>
      </trkpt>
      <trkpt lat="43.73316" lon="6.62438">
        <ele>981.6</ele>
        <time>2024-05-26T07:21:35Z</time>
      </trkpt>
      <trkpt lat="43.73317" lon="6.62437">
        <ele>981.5</ele>
        <time>2024-05-26T07:21:36Z</time>
      </trkpt>
      <trkpt lat="43.73317" lon="6.62438">
        <ele>981.5</ele>
        <time>2024-05-26T07:21:37Z</time>
      </trkpt>
      <trkpt lat="43.73317" lon="6.62438">
        <ele>981.6</ele>
        <time>2024-05-26T07:21:38Z</time>
      </trkpt>
      <trkpt lat="43.73317" lon="6.62437">
        <ele>981.6</ele>
        <time>2024-05-26T07:21:39Z</time>
      </trkpt>
      <trkpt lat="43.73316" lon="6.62436">
        <ele>981.6</ele>
        <time>2024-05-26T07:21:40Z</time>
      </trkpt>
      <trkpt lat="43.73315" lon="6.62437">
        <ele>981.5</ele>
        <time>2024-05-26T07:21:41Z</time>
      </trkpt>
      <trkpt lat="43.73314" lon="6.62437">
        <ele>981.4</ele>
        <time>2024-05-26T07:21:42Z</time>
      </trkpt>
      <trkpt lat="43.73314" lon="6.62437">
        <ele>981.4</ele>
        <time>2024-05-26T07:21:43Z</time>
      </trkpt>
      <trkpt lat="43.73314" lon="6.62438">
        <ele>981.4</ele>
        <time>2024-05-26T07:21:44Z</time>
      </trkpt>
      <trkpt lat="43.73314" lon="6.62438">
        <ele>981.4</ele>
        <time>2024-05-26T07:21:45Z</time>
      </trkpt>
      <trkpt lat="43.73314" lon="6.62438">
        <ele>981.4</ele>
        <time>2024-05-26T07:21:46Z</time>
      </trkpt>
      <trkpt lat="43.73313" lon="6.62436">
        <ele>981.5</ele>
        <time>2024-05-26T07:21:47Z</time>
      </trkpt>
      <trkpt lat="43.73313" lon="6.62436">
        <ele>981.5</ele>
        <time>2024-05-26T07:21:48Z</time>
      </trkpt>
      <trkpt lat="43.73313" lon="6.62436">
        <ele>981.6</ele>
        <time>2024-05-26T07:21:49Z</time>
      </trkpt>
      <trkpt lat="43.73313" lon="6.62436">
        <ele>981.6</ele>
        <time>2024-05-26T07:21:50Z</time>
      </trkpt>
      <trkpt lat="43.73313" lon="6.62436">
        <ele>981.5</ele>
        <time>2024-05-26T07:21:51Z</time>
      </trkpt>
      <trkpt lat="43.73313" lon="6.62436">
        <ele>981.5</ele>
        <time>2024-05-26T07:21:52Z</time>
      </trkpt>
      <trkpt lat="43.73313" lon="6.62436">
        <ele>981.5</ele>
        <time>2024-05-26T07:21:53Z</time>
      </trkpt>
      <trkpt lat="43.73313" lon="6.62436">
        <ele>981.4</ele>
        <time>2024-05-26T07:21:54Z</time>
      </trkpt>
      <trkpt lat="43.73313" lon="6.62435">
        <ele>981.4</ele>
        <time>2024-05-26T07:21:55Z</time>
      </trkpt>
      <trkpt lat="43.73313" lon="6.62435">
        <ele>981.4</ele>
        <time>2024-05-26T07:21:56Z</time>
      </trkpt>
      <trkpt lat="43.73313" lon="6.62435">
        <ele>981.4</ele>
        <time>2024-05-26T07:21:57Z</time>
      </trkpt>
      <trkpt lat="43.73313" lon="6.62435">
        <ele>981.4</ele>
        <time>2024-05-26T07:21:58Z</time>
      </trkpt>
      <trkpt lat="43.73313" lon="6.62435">
        <ele>981.4</ele>
        <time>2024-05-26T07:21:59Z</time>
      </trkpt>
      <trkpt lat="43.73313" lon="6.62434">
        <ele>981.4</ele>
        <time>2024-05-26T07:22:00Z</time>
      </trkpt>
      <trkpt lat="43.73313" lon="6.62435">
        <ele>981.4</ele>
        <time>2024-05-26T07:22:01Z</time>
      </trkpt>
      <trkpt lat="43.73312" lon="6.62434">
        <ele>981.4</ele>
        <time>2024-05-26T07:22:02Z</time>
      </trkpt>
      <trkpt lat="43.73313" lon="6.62434">
        <ele>981.5</ele>
        <time>2024-05-26T07:22:03Z</time>
      </trkpt>
      <trkpt lat="43.73313" lon="6.62435">
        <ele>981.5</ele>
        <time>2024-05-26T07:22:04Z</time>
      </trkpt>
      <trkpt lat="43.73313" lon="6.62435">
        <ele>981.5</ele>
        <time>2024-05-26T07:22:05Z</time>
      </trkpt>
      <trkpt lat="43.73312" lon="6.62435">
        <ele>981.5</ele>
        <time>2024-05-26T07:22:06Z</time>
      </trkpt>
      <trkpt lat="43.73312" lon="6.62436">
        <ele>981.5</ele>
        <time>2024-05-26T07:22:07Z</time>
      </trkpt>
      <trkpt lat="43.73311" lon="6.62436">
        <ele>981.5</ele>
        <time>2024-05-26T07:22:08Z</time>
      </trkpt>
      <trkpt lat="43.73311" lon="6.62437">
        <ele>981.5</ele>
        <time>2024-05-26T07:22:09Z</time>
      </trkpt>
      <trkpt lat="43.73311" lon="6.62437">
        <ele>981.4</ele>
        <time>2024-05-26T07:22:10Z</time>
      </trkpt>
      <trkpt lat="43.7331" lon="6.62438">
        <ele>981.4</ele>
        <time>2024-05-26T07:22:11Z</time>
      </trkpt>
      <trkpt lat="43.7331" lon="6.62438">
        <ele>981.5</ele>
        <time>2024-05-26T07:22:12Z</time>
      </trkpt>
      <trkpt lat="43.73309" lon="6.62438">
        <ele>981.5</ele>
        <time>2024-05-26T07:22:13Z</time>
      </trkpt>
      <trkpt lat="43.73308" lon="6.62438">
        <ele>981.5</ele>
        <time>2024-05-26T07:22:14Z</time>
      </trkpt>
      <trkpt lat="43.73308" lon="6.62439">
        <ele>981.5</ele>
        <time>2024-05-26T07:22:15Z</time>
      </trkpt>
      <trkpt lat="43.73307" lon="6.62439">
        <ele>981.5</ele>
        <time>2024-05-26T07:22:16Z</time>
      </trkpt>
      <trkpt lat="43.73308" lon="6.62441">
        <ele>981.5</ele>
        <time>2024-05-26T07:22:17Z</time>
      </trkpt>
      <trkpt lat="43.73308" lon="6.62441">
        <ele>981.6</ele>
        <time>2024-05-26T07:22:18Z</time>
      </trkpt>
      <trkpt lat="43.73309" lon="6.62442">
        <ele>981.6</ele>
        <time>2024-05-26T07:22:19Z</time>
      </trkpt>
      <trkpt lat="43.73309" lon="6.62442">
        <ele>981.6</ele>
        <time>2024-05-26T07:22:20Z</time>
      </trkpt>
      <trkpt lat="43.73308" lon="6.62442">
        <ele>981.7</ele>
        <time>2024-05-26T07:22:21Z</time>
      </trkpt>
      <trkpt lat="43.73308" lon="6.62443">
        <ele>981.7</ele>
        <time>2024-05-26T07:22:22Z</time>
      </trkpt>
      <trkpt lat="43.73308" lon="6.62443">
        <ele>981.5</ele>
        <time>2024-05-26T07:22:23Z</time>
      </trkpt>
      <trkpt lat="43.73309" lon="6.62443">
        <ele>981.4</ele>
        <time>2024-05-26T07:22:24Z</time>
      </trkpt>
      <trkpt lat="43.73309" lon="6.62443">
        <ele>981.5</ele>
        <time>2024-05-26T07:22:25Z</time>
      </trkpt>
      <trkpt lat="43.73309" lon="6.62444">
        <ele>981.5</ele>
        <time>2024-05-26T07:22:26Z</time>
      </trkpt>
      <trkpt lat="43.73309" lon="6.62444">
        <ele>981.6</ele>
        <time>2024-05-26T07:22:27Z</time>
      </trkpt>
      <trkpt lat="43.73309" lon="6.62444">
        <ele>981.5</ele>
        <time>2024-05-26T07:22:28Z</time>
      </trkpt>
      <trkpt lat="43.73309" lon="6.62445">
        <ele>981.5</ele>
        <time>2024-05-26T07:22:29Z</time>
      </trkpt>
      <trkpt lat="43.73309" lon="6.62445">
        <ele>981.5</ele>
        <time>2024-05-26T07:22:30Z</time>
      </trkpt>
      <trkpt lat="43.73309" lon="6.62445">
        <ele>981.5</ele>
        <time>2024-05-26T07:22:31Z</time>
      </trkpt>
      <trkpt lat="43.73309" lon="6.62445">
        <ele>981.4</ele>
        <time>2024-05-26T07:22:32Z</time>
      </trkpt>
      <trkpt lat="43.73309" lon="6.62446">
        <ele>981.5</ele>
        <time>2024-05-26T07:22:33Z</time>
      </trkpt>
      <trkpt lat="43.73309" lon="6.62446">
        <ele>981.4</ele>
        <time>2024-05-26T07:22:34Z</time>
      </trkpt>
      <trkpt lat="43.73309" lon="6.62446">
        <ele>981.4</ele>
        <time>2024-05-26T07:22:35Z</time>
      </trkpt>
      <trkpt lat="43.73309" lon="6.62446">
        <ele>981.4</ele>
        <time>2024-05-26T07:22:36Z</time>
      </trkpt>
      <trkpt lat="43.73309" lon="6.62447">
        <ele>981.3</ele>
        <time>2024-05-26T07:22:37Z</time>
      </trkpt>
      <trkpt lat="43.73308" lon="6.62447">
        <ele>981.3</ele>
        <time>2024-05-26T07:22:38Z</time>
      </trkpt>
      <trkpt lat="43.73308" lon="6.62447">
        <ele>981.4</ele>
        <time>2024-05-26T07:22:39Z</time>
      </trkpt>
      <trkpt lat="43.73308" lon="6.62448">
        <ele>981.4</ele>
        <time>2024-05-26T07:22:40Z</time>
      </trkpt>
      <trkpt lat="43.73308" lon="6.62449">
        <ele>981.5</ele>
        <time>2024-05-26T07:22:41Z</time>
      </trkpt>
      <trkpt lat="43.73308" lon="6.62449">
        <ele>981.5</ele>
        <time>2024-05-26T07:22:42Z</time>
      </trkpt>
      <trkpt lat="43.73308" lon="6.62449">
        <ele>981.6</ele>
        <time>2024-05-26T07:22:43Z</time>
      </trkpt>
      <trkpt lat="43.73308" lon="6.62449">
        <ele>981.6</ele>
        <time>2024-05-26T07:22:44Z</time>
      </trkpt>
      <trkpt lat="43.73308" lon="6.62449">
        <ele>981.7</ele>
        <time>2024-05-26T07:22:45Z</time>
      </trkpt>
      <trkpt lat="43.73308" lon="6.62449">
        <ele>981.7</ele>
        <time>2024-05-26T07:22:46Z</time>
      </trkpt>
      <trkpt lat="43.73308" lon="6.62449">
        <ele>981.7</ele>
        <time>2024-05-26T07:22:47Z</time>
      </trkpt>
      <trkpt lat="43.73308" lon="6.62449">
        <ele>981.7</ele>
        <time>2024-05-26T07:22:48Z</time>
      </trkpt>
      <trkpt lat="43.73308" lon="6.6245">
        <ele>981.7</ele>
        <time>2024-05-26T07:22:49Z</time>
      </trkpt>
      <trkpt lat="43.73308" lon="6.62449">
        <ele>981.7</ele>
        <time>2024-05-26T07:22:50Z</time>
      </trkpt>
      <trkpt lat="43.73308" lon="6.62449">
        <ele>981.7</ele>
        <time>2024-05-26T07:22:51Z</time>
      </trkpt>
      <trkpt lat="43.73308" lon="6.62449">
        <ele>981.8</ele>
        <time>2024-05-26T07:22:52Z</time>
      </trkpt>
      <trkpt lat="43.73308" lon="6.62449">
        <ele>981.8</ele>
        <time>2024-05-26T07:22:53Z</time>
      </trkpt>
      <trkpt lat="43.73308" lon="6.62448">
        <ele>981.8</ele>
        <time>2024-05-26T07:22:54Z</time>
      </trkpt>
      <trkpt lat="43.73308" lon="6.62448">
        <ele>981.8</ele>
        <time>2024-05-26T07:22:55Z</time>
      </trkpt>
      <trkpt lat="43.73308" lon="6.62448">
        <ele>981.8</ele>
        <time>2024-05-26T07:22:56Z</time>
      </trkpt>
      <trkpt lat="43.73308" lon="6.62448">
        <ele>981.7</ele>
        <time>2024-05-26T07:22:57Z</time>
      </trkpt>
      <trkpt lat="43.73308" lon="6.62448">
        <ele>981.7</ele>
        <time>2024-05-26T07:22:58Z</time>
      </trkpt>
      <trkpt lat="43.73308" lon="6.62449">
        <ele>981.8</ele>
        <time>2024-05-26T07:22:59Z</time>
      </trkpt>
      <trkpt lat="43.73308" lon="6.62449">
        <ele>981.8</ele>
        <time>2024-05-26T07:23:00Z</time>
      </trkpt>
      <trkpt lat="43.73308" lon="6.62449">
        <ele>981.8</ele>
        <time>2024-05-26T07:23:01Z</time>
      </trkpt>
      <trkpt lat="43.73308" lon="6.62449">
        <ele>981.9</ele>
        <time>2024-05-26T07:23:02Z</time>
      </trkpt>
      <trkpt lat="43.73308" lon="6.62449">
        <ele>982</ele>
        <time>2024-05-26T07:23:03Z</time>
      </trkpt>
      <trkpt lat="43.73308" lon="6.62449">
        <ele>982.1</ele>
        <time>2024-05-26T07:23:04Z</time>
      </trkpt>
      <trkpt lat="43.73308" lon="6.6245">
        <ele>982.1</ele>
        <time>2024-05-26T07:23:05Z</time>
      </trkpt>
      <trkpt lat="43.73309" lon="6.62451">
        <ele>982</ele>
        <time>2024-05-26T07:23:06Z</time>
      </trkpt>
      <trkpt lat="43.73309" lon="6.62451">
        <ele>982.1</ele>
        <time>2024-05-26T07:23:07Z</time>
      </trkpt>
      <trkpt lat="43.73309" lon="6.62452">
        <ele>982.2</ele>
        <time>2024-05-26T07:23:08Z</time>
      </trkpt>
      <trkpt lat="43.73309" lon="6.62452">
        <ele>982.3</ele>
        <time>2024-05-26T07:23:09Z</time>
      </trkpt>
      <trkpt lat="43.73309" lon="6.62451">
        <ele>982.4</ele>
        <time>2024-05-26T07:23:10Z</time>
      </trkpt>
      <trkpt lat="43.73309" lon="6.62452">
        <ele>982.4</ele>
        <time>2024-05-26T07:23:11Z</time>
      </trkpt>
      <trkpt lat="43.73309" lon="6.62451">
        <ele>982.5</ele>
        <time>2024-05-26T07:23:12Z</time>
      </trkpt>
      <trkpt lat="43.7331" lon="6.6245">
        <ele>982.5</ele>
        <time>2024-05-26T07:23:13Z</time>
      </trkpt>
      <trkpt lat="43.7331" lon="6.62451">
        <ele>982.5</ele>
        <time>2024-05-26T07:23:14Z</time>
      </trkpt>
      <trkpt lat="43.73311" lon="6.62452">
        <ele>982.6</ele>
        <time>2024-05-26T07:23:15Z</time>
      </trkpt>
      <trkpt lat="43.73311" lon="6.62452">
        <ele>982.5</ele>
        <time>2024-05-26T07:23:16Z</time>
      </trkpt>
      <trkpt lat="43.73311" lon="6.62452">
        <ele>982.5</ele>
        <time>2024-05-26T07:23:17Z</time>
      </trkpt>
      <trkpt lat="43.73311" lon="6.62452">
        <ele>982.6</ele>
        <time>2024-05-26T07:23:18Z</time>
      </trkpt>
      <trkpt lat="43.73311" lon="6.62452">
        <ele>982.5</ele>
        <time>2024-05-26T07:23:19Z</time>
      </trkpt>
      <trkpt lat="43.73311" lon="6.62451">
        <ele>982.5</ele>
        <time>2024-05-26T07:23:20Z</time>
      </trkpt>
      <trkpt lat="43.73311" lon="6.62451">
        <ele>982.5</ele>
        <time>2024-05-26T07:23:21Z</time>
      </trkpt>
      <trkpt lat="43.7331" lon="6.6245">
        <ele>982.4</ele>
        <time>2024-05-26T07:23:22Z</time>
      </trkpt>
      <trkpt lat="43.73311" lon="6.62451">
        <ele>982.4</ele>
        <time>2024-05-26T07:23:23Z</time>
      </trkpt>
      <trkpt lat="43.73311" lon="6.6245">
        <ele>982.4</ele>
        <time>2024-05-26T07:23:24Z</time>
      </trkpt>
      <trkpt lat="43.73311" lon="6.6245">
        <ele>982.3</ele>
        <time>2024-05-26T07:23:25Z</time>
      </trkpt>
      <trkpt lat="43.73311" lon="6.6245">
        <ele>982.3</ele>
        <time>2024-05-26T07:23:26Z</time>
      </trkpt>
      <trkpt lat="43.73311" lon="6.6245">
        <ele>982.3</ele>
        <time>2024-05-26T07:23:27Z</time>
      </trkpt>
      <trkpt lat="43.73311" lon="6.62449">
        <ele>982.3</ele>
        <time>2024-05-26T07:23:28Z</time>
      </trkpt>
      <trkpt lat="43.7331" lon="6.62449">
        <ele>982.3</ele>
        <time>2024-05-26T07:23:29Z</time>
      </trkpt>
      <trkpt lat="43.73311" lon="6.62449">
        <ele>982.3</ele>
        <time>2024-05-26T07:23:30Z</time>
      </trkpt>
      <trkpt lat="43.73311" lon="6.62449">
        <ele>982.3</ele>
        <time>2024-05-26T07:23:31Z</time>
      </trkpt>
      <trkpt lat="43.73311" lon="6.62448">
        <ele>982.4</ele>
        <time>2024-05-26T07:23:32Z</time>
      </trkpt>
      <trkpt lat="43.73311" lon="6.62448">
        <ele>982.3</ele>
        <time>2024-05-26T07:23:33Z</time>
      </trkpt>
      <trkpt lat="43.7331" lon="6.62448">
        <ele>982.3</ele>
        <time>2024-05-26T07:23:34Z</time>
      </trkpt>
      <trkpt lat="43.7331" lon="6.62448">
        <ele>982.3</ele>
        <time>2024-05-26T07:23:35Z</time>
      </trkpt>
      <trkpt lat="43.73311" lon="6.62448">
        <ele>982.3</ele>
        <time>2024-05-26T07:23:36Z</time>
      </trkpt>
      <trkpt lat="43.73311" lon="6.62448">
        <ele>982.3</ele>
        <time>2024-05-26T07:23:37Z</time>
      </trkpt>
      <trkpt lat="43.73311" lon="6.62448">
        <ele>982.3</ele>
        <time>2024-05-26T07:23:38Z</time>
      </trkpt>
      <trkpt lat="43.73311" lon="6.62448">
        <ele>982.3</ele>
        <time>2024-05-26T07:23:39Z</time>
      </trkpt>
      <trkpt lat="43.73311" lon="6.62448">
        <ele>982.3</ele>
        <time>2024-05-26T07:23:40Z</time>
      </trkpt>
      <trkpt lat="43.73311" lon="6.62447">
        <ele>982.3</ele>
        <time>2024-05-26T07:23:41Z</time>
      </trkpt>
      <trkpt lat="43.7331" lon="6.62447">
        <ele>982.3</ele>
        <time>2024-05-26T07:23:42Z</time>
      </trkpt>
      <trkpt lat="43.7331" lon="6.62448">
        <ele>982.3</ele>
        <time>2024-05-26T07:23:43Z</time>
      </trkpt>
      <trkpt lat="43.7331" lon="6.62449">
        <ele>982.3</ele>
        <time>2024-05-26T07:23:44Z</time>
      </trkpt>
      <trkpt lat="43.7331" lon="6.6245">
        <ele>982.3</ele>
        <time>2024-05-26T07:23:45Z</time>
      </trkpt>
      <trkpt lat="43.73311" lon="6.62452">
        <ele>982.3</ele>
        <time>2024-05-26T07:23:46Z</time>
      </trkpt>
      <trkpt lat="43.73312" lon="6.62453">
        <ele>982.3</ele>
        <time>2024-05-26T07:23:47Z</time>
      </trkpt>
      <trkpt lat="43.73312" lon="6.62453">
        <ele>982.4</ele>
        <time>2024-05-26T07:23:48Z</time>
      </trkpt>
      <trkpt lat="43.73312" lon="6.62454">
        <ele>982.5</ele>
        <time>2024-05-26T07:23:49Z</time>
      </trkpt>
      <trkpt lat="43.73312" lon="6.62454">
        <ele>982.7</ele>
        <time>2024-05-26T07:23:50Z</time>
      </trkpt>
      <trkpt lat="43.73312" lon="6.62455">
        <ele>982.9</ele>
        <time>2024-05-26T07:23:51Z</time>
      </trkpt>
      <trkpt lat="43.73312" lon="6.62455">
        <ele>982.9</ele>
        <time>2024-05-26T07:23:52Z</time>
      </trkpt>
      <trkpt lat="43.73312" lon="6.62456">
        <ele>983</ele>
        <time>2024-05-26T07:23:53Z</time>
      </trkpt>
      <trkpt lat="43.73312" lon="6.62457">
        <ele>983.1</ele>
        <time>2024-05-26T07:23:54Z</time>
      </trkpt>
      <trkpt lat="43.73312" lon="6.62458">
        <ele>983.2</ele>
        <time>2024-05-26T07:23:55Z</time>
      </trkpt>
      <trkpt lat="43.73312" lon="6.6246">
        <ele>983.3</ele>
        <time>2024-05-26T07:23:56Z</time>
      </trkpt>
      <trkpt lat="43.73313" lon="6.6246">
        <ele>983.5</ele>
        <time>2024-05-26T07:23:57Z</time>
      </trkpt>
      <trkpt lat="43.73313" lon="6.62461">
        <ele>983.6</ele>
        <time>2024-05-26T07:23:58Z</time>
      </trkpt>
      <trkpt lat="43.73314" lon="6.62462">
        <ele>983.6</ele>
        <time>2024-05-26T07:23:59Z</time>
      </trkpt>
      <trkpt lat="43.73315" lon="6.62464">
        <ele>983.6</ele>
        <time>2024-05-26T07:24:00Z</time>
      </trkpt>
      <trkpt lat="43.73316" lon="6.62465">
        <ele>983.7</ele>
        <time>2024-05-26T07:24:01Z</time>
      </trkpt>
      <trkpt lat="43.73316" lon="6.62466">
        <ele>983.7</ele>
        <time>2024-05-26T07:24:02Z</time>
      </trkpt>
      <trkpt lat="43.73317" lon="6.62466">
        <ele>984</ele>
        <time>2024-05-26T07:24:03Z</time>
      </trkpt>
      <trkpt lat="43.73317" lon="6.62467">
        <ele>984.2</ele>
        <time>2024-05-26T07:24:04Z</time>
      </trkpt>
      <trkpt lat="43.73317" lon="6.62468">
        <ele>984.4</ele>
        <time>2024-05-26T07:24:05Z</time>
      </trkpt>
      <trkpt lat="43.73317" lon="6.62468">
        <ele>984.5</ele>
        <time>2024-05-26T07:24:06Z</time>
      </trkpt>
      <trkpt lat="43.73318" lon="6.62469">
        <ele>984.6</ele>
        <time>2024-05-26T07:24:07Z</time>
      </trkpt>
      <trkpt lat="43.73317" lon="6.6247">
        <ele>984.7</ele>
        <time>2024-05-26T07:24:08Z</time>
      </trkpt>
      <trkpt lat="43.73318" lon="6.62472">
        <ele>984.9</ele>
        <time>2024-05-26T07:24:09Z</time>
      </trkpt>
      <trkpt lat="43.73318" lon="6.62473">
        <ele>985</ele>
        <time>2024-05-26T07:24:10Z</time>
      </trkpt>
      <trkpt lat="43.73318" lon="6.62474">
        <ele>985.1</ele>
        <time>2024-05-26T07:24:11Z</time>
      </trkpt>
      <trkpt lat="43.73318" lon="6.62474">
        <ele>985.3</ele>
        <time>2024-05-26T07:24:12Z</time>
      </trkpt>
      <trkpt lat="43.73319" lon="6.62475">
        <ele>985.5</ele>
        <time>2024-05-26T07:24:13Z</time>
      </trkpt>
      <trkpt lat="43.73319" lon="6.62476">
        <ele>985.8</ele>
        <time>2024-05-26T07:24:14Z</time>
      </trkpt>
      <trkpt lat="43.73321" lon="6.62477">
        <ele>986.1</ele>
        <time>2024-05-26T07:24:15Z</time>
      </trkpt>
      <trkpt lat="43.73322" lon="6.62478">
        <ele>986.2</ele>
        <time>2024-05-26T07:24:16Z</time>
      </trkpt>
      <trkpt lat="43.73322" lon="6.62479">
        <ele>986.4</ele>
        <time>2024-05-26T07:24:17Z</time>
      </trkpt>
      <trkpt lat="43.73323" lon="6.6248">
        <ele>986.5</ele>
        <time>2024-05-26T07:24:18Z</time>
      </trkpt>
      <trkpt lat="43.73323" lon="6.62481">
        <ele>986.7</ele>
        <time>2024-05-26T07:24:19Z</time>
      </trkpt>
      <trkpt lat="43.73323" lon="6.62482">
        <ele>986.9</ele>
        <time>2024-05-26T07:24:20Z</time>
      </trkpt>
      <trkpt lat="43.73323" lon="6.62482">
        <ele>987</ele>
        <time>2024-05-26T07:24:21Z</time>
      </trkpt>
      <trkpt lat="43.73324" lon="6.62483">
        <ele>987.2</ele>
        <time>2024-05-26T07:24:22Z</time>
      </trkpt>
      <trkpt lat="43.73324" lon="6.62483">
        <ele>987.5</ele>
        <time>2024-05-26T07:24:23Z</time>
      </trkpt>
      <trkpt lat="43.73325" lon="6.62485">
        <ele>987.7</ele>
        <time>2024-05-26T07:24:24Z</time>
      </trkpt>
      <trkpt lat="43.73325" lon="6.62487">
        <ele>987.9</ele>
        <time>2024-05-26T07:24:25Z</time>
      </trkpt>
      <trkpt lat="43.73326" lon="6.62488">
        <ele>988.1</ele>
        <time>2024-05-26T07:24:26Z</time>
      </trkpt>
      <trkpt lat="43.73327" lon="6.6249">
        <ele>988.2</ele>
        <time>2024-05-26T07:24:27Z</time>
      </trkpt>
      <trkpt lat="43.73328" lon="6.62491">
        <ele>988.5</ele>
        <time>2024-05-26T07:24:28Z</time>
      </trkpt>
      <trkpt lat="43.73329" lon="6.62492">
        <ele>988.6</ele>
        <time>2024-05-26T07:24:29Z</time>
      </trkpt>
      <trkpt lat="43.73329" lon="6.62492">
        <ele>988.9</ele>
        <time>2024-05-26T07:24:30Z</time>
      </trkpt>
      <trkpt lat="43.7333" lon="6.62493">
        <ele>989.1</ele>
        <time>2024-05-26T07:24:31Z</time>
      </trkpt>
      <trkpt lat="43.73332" lon="6.62494">
        <ele>989.3</ele>
        <time>2024-05-26T07:24:32Z</time>
      </trkpt>
      <trkpt lat="43.73333" lon="6.62495">
        <ele>989.5</ele>
        <time>2024-05-26T07:24:33Z</time>
      </trkpt>
      <trkpt lat="43.73334" lon="6.62495">
        <ele>989.6</ele>
        <time>2024-05-26T07:24:34Z</time>
      </trkpt>
      <trkpt lat="43.73335" lon="6.62495">
        <ele>989.7</ele>
        <time>2024-05-26T07:24:35Z</time>
      </trkpt>
      <trkpt lat="43.73335" lon="6.62495">
        <ele>989.8</ele>
        <time>2024-05-26T07:24:36Z</time>
      </trkpt>
      <trkpt lat="43.73336" lon="6.62496">
        <ele>989.9</ele>
        <time>2024-05-26T07:24:37Z</time>
      </trkpt>
      <trkpt lat="43.73336" lon="6.62496">
        <ele>990</ele>
        <time>2024-05-26T07:24:38Z</time>
      </trkpt>
      <trkpt lat="43.73337" lon="6.62497">
        <ele>990.1</ele>
        <time>2024-05-26T07:24:39Z</time>
      </trkpt>
      <trkpt lat="43.73337" lon="6.62497">
        <ele>990.3</ele>
        <time>2024-05-26T07:24:40Z</time>
      </trkpt>
      <trkpt lat="43.73338" lon="6.62499">
        <ele>990.3</ele>
        <time>2024-05-26T07:24:41Z</time>
      </trkpt>
      <trkpt lat="43.73338" lon="6.625">
        <ele>990.5</ele>
        <time>2024-05-26T07:24:42Z</time>
      </trkpt>
      <trkpt lat="43.73338" lon="6.62501">
        <ele>990.7</ele>
        <time>2024-05-26T07:24:43Z</time>
      </trkpt>
      <trkpt lat="43.73338" lon="6.62503">
        <ele>990.8</ele>
        <time>2024-05-26T07:24:44Z</time>
      </trkpt>
      <trkpt lat="43.73337" lon="6.62503">
        <ele>990.9</ele>
        <time>2024-05-26T07:24:45Z</time>
      </trkpt>
      <trkpt lat="43.73337" lon="6.62504">
        <ele>990.9</ele>
        <time>2024-05-26T07:24:46Z</time>
      </trkpt>
      <trkpt lat="43.73338" lon="6.62505">
        <ele>991.1</ele>
        <time>2024-05-26T07:24:47Z</time>
      </trkpt>
      <trkpt lat="43.73338" lon="6.62507">
        <ele>991.3</ele>
        <time>2024-05-26T07:24:48Z</time>
      </trkpt>
      <trkpt lat="43.73339" lon="6.62508">
        <ele>991.4</ele>
        <time>2024-05-26T07:24:49Z</time>
      </trkpt>
      <trkpt lat="43.7334" lon="6.62509">
        <ele>991.5</ele>
        <time>2024-05-26T07:24:50Z</time>
      </trkpt>
      <trkpt lat="43.7334" lon="6.6251">
        <ele>991.6</ele>
        <time>2024-05-26T07:24:51Z</time>
      </trkpt>
      <trkpt lat="43.7334" lon="6.6251">
        <ele>991.8</ele>
        <time>2024-05-26T07:24:52Z</time>
      </trkpt>
      <trkpt lat="43.73341" lon="6.62511">
        <ele>991.8</ele>
        <time>2024-05-26T07:24:53Z</time>
      </trkpt>
      <trkpt lat="43.73342" lon="6.62513">
        <ele>991.9</ele>
        <time>2024-05-26T07:24:54Z</time>
      </trkpt>
      <trkpt lat="43.73343" lon="6.62514">
        <ele>991.9</ele>
        <time>2024-05-26T07:24:55Z</time>
      </trkpt>
      <trkpt lat="43.73344" lon="6.62515">
        <ele>992</ele>
        <time>2024-05-26T07:24:56Z</time>
      </trkpt>
      <trkpt lat="43.73344" lon="6.62516">
        <ele>992.1</ele>
        <time>2024-05-26T07:24:57Z</time>
      </trkpt>
      <trkpt lat="43.73343" lon="6.62516">
        <ele>992.3</ele>
        <time>2024-05-26T07:24:58Z</time>
      </trkpt>
      <trkpt lat="43.73343" lon="6.62517">
        <ele>992.4</ele>
        <time>2024-05-26T07:24:59Z</time>
      </trkpt>
      <trkpt lat="43.73343" lon="6.62518">
        <ele>992.6</ele>
        <time>2024-05-26T07:25:00Z</time>
      </trkpt>
      <trkpt lat="43.73342" lon="6.62519">
        <ele>992.7</ele>
        <time>2024-05-26T07:25:01Z</time>
      </trkpt>
      <trkpt lat="43.73342" lon="6.6252">
        <ele>992.9</ele>
        <time>2024-05-26T07:25:02Z</time>
      </trkpt>
      <trkpt lat="43.73343" lon="6.62521">
        <ele>993.1</ele>
        <time>2024-05-26T07:25:03Z</time>
      </trkpt>
      <trkpt lat="43.73343" lon="6.62522">
        <ele>993.3</ele>
        <time>2024-05-26T07:25:04Z</time>
      </trkpt>
      <trkpt lat="43.73343" lon="6.62523">
        <ele>993.5</ele>
        <time>2024-05-26T07:25:05Z</time>
      </trkpt>
      <trkpt lat="43.73344" lon="6.62524">
        <ele>993.6</ele>
        <time>2024-05-26T07:25:06Z</time>
      </trkpt>
      <trkpt lat="43.73344" lon="6.62524">
        <ele>993.8</ele>
        <time>2024-05-26T07:25:07Z</time>
      </trkpt>
      <trkpt lat="43.73345" lon="6.62525">
        <ele>994</ele>
        <time>2024-05-26T07:25:08Z</time>
      </trkpt>
      <trkpt lat="43.73346" lon="6.62527">
        <ele>994.3</ele>
        <time>2024-05-26T07:25:09Z</time>
      </trkpt>
      <trkpt lat="43.73347" lon="6.62528">
        <ele>994.6</ele>
        <time>2024-05-26T07:25:10Z</time>
      </trkpt>
      <trkpt lat="43.73347" lon="6.62528">
        <ele>994.8</ele>
        <time>2024-05-26T07:25:11Z</time>
      </trkpt>
      <trkpt lat="43.73348" lon="6.62529">
        <ele>995</ele>
        <time>2024-05-26T07:25:12Z</time>
      </trkpt>
      <trkpt lat="43.73349" lon="6.62529">
        <ele>995.2</ele>
        <time>2024-05-26T07:25:13Z</time>
      </trkpt>
      <trkpt lat="43.7335" lon="6.6253">
        <ele>995.5</ele>
        <time>2024-05-26T07:25:14Z</time>
      </trkpt>
      <trkpt lat="43.7335" lon="6.62529">
        <ele>995.7</ele>
        <time>2024-05-26T07:25:15Z</time>
      </trkpt>
      <trkpt lat="43.73351" lon="6.62529">
        <ele>996</ele>
        <time>2024-05-26T07:25:16Z</time>
      </trkpt>
      <trkpt lat="43.73353" lon="6.62528">
        <ele>996.2</ele>
        <time>2024-05-26T07:25:17Z</time>
      </trkpt>
      <trkpt lat="43.73354" lon="6.62528">
        <ele>996.5</ele>
        <time>2024-05-26T07:25:18Z</time>
      </trkpt>
      <trkpt lat="43.73354" lon="6.62528">
        <ele>996.7</ele>
        <time>2024-05-26T07:25:19Z</time>
      </trkpt>
      <trkpt lat="43.73355" lon="6.62527">
        <ele>996.9</ele>
        <time>2024-05-26T07:25:20Z</time>
      </trkpt>
      <trkpt lat="43.73356" lon="6.62526">
        <ele>997.1</ele>
        <time>2024-05-26T07:25:21Z</time>
      </trkpt>
      <trkpt lat="43.73356" lon="6.62527">
        <ele>997.3</ele>
        <time>2024-05-26T07:25:22Z</time>
      </trkpt>
      <trkpt lat="43.73356" lon="6.62528">
        <ele>997.5</ele>
        <time>2024-05-26T07:25:23Z</time>
      </trkpt>
      <trkpt lat="43.73356" lon="6.62529">
        <ele>997.7</ele>
        <time>2024-05-26T07:25:24Z</time>
      </trkpt>
      <trkpt lat="43.73356" lon="6.62531">
        <ele>997.9</ele>
        <time>2024-05-26T07:25:25Z</time>
      </trkpt>
      <trkpt lat="43.73356" lon="6.62532">
        <ele>998</ele>
        <time>2024-05-26T07:25:26Z</time>
      </trkpt>
      <trkpt lat="43.73356" lon="6.62534">
        <ele>998.1</ele>
        <time>2024-05-26T07:25:27Z</time>
      </trkpt>
      <trkpt lat="43.73356" lon="6.62534">
        <ele>998.3</ele>
        <time>2024-05-26T07:25:28Z</time>
      </trkpt>
      <trkpt lat="43.73355" lon="6.62535">
        <ele>998.5</ele>
        <time>2024-05-26T07:25:29Z</time>
      </trkpt>
      <trkpt lat="43.73355" lon="6.62536">
        <ele>998.8</ele>
        <time>2024-05-26T07:25:30Z</time>
      </trkpt>
      <trkpt lat="43.73356" lon="6.62537">
        <ele>999</ele>
        <time>2024-05-26T07:25:31Z</time>
      </trkpt>
      <trkpt lat="43.73356" lon="6.62538">
        <ele>999.1</ele>
        <time>2024-05-26T07:25:32Z</time>
      </trkpt>
      <trkpt lat="43.73355" lon="6.62539">
        <ele>999.3</ele>
        <time>2024-05-26T07:25:33Z</time>
      </trkpt>
      <trkpt lat="43.73355" lon="6.6254">
        <ele>999.3</ele>
        <time>2024-05-26T07:25:34Z</time>
      </trkpt>
      <trkpt lat="43.73355" lon="6.62541">
        <ele>999.5</ele>
        <time>2024-05-26T07:25:35Z</time>
      </trkpt>
      <trkpt lat="43.73355" lon="6.62542">
        <ele>999.7</ele>
        <time>2024-05-26T07:25:36Z</time>
      </trkpt>
      <trkpt lat="43.73354" lon="6.62543">
        <ele>999.8</ele>
        <time>2024-05-26T07:25:37Z</time>
      </trkpt>
      <trkpt lat="43.73354" lon="6.62543">
        <ele>999.9</ele>
        <time>2024-05-26T07:25:38Z</time>
      </trkpt>
      <trkpt lat="43.73354" lon="6.62544">
        <ele>1000</ele>
        <time>2024-05-26T07:25:39Z</time>
      </trkpt>
      <trkpt lat="43.73354" lon="6.62545">
        <ele>1000.3</ele>
        <time>2024-05-26T07:25:40Z</time>
      </trkpt>
      <trkpt lat="43.73355" lon="6.62546">
        <ele>1000.4</ele>
        <time>2024-05-26T07:25:41Z</time>
      </trkpt>
      <trkpt lat="43.73355" lon="6.62547">
        <ele>1000.5</ele>
        <time>2024-05-26T07:25:42Z</time>
      </trkpt>
      <trkpt lat="43.73355" lon="6.62548">
        <ele>1000.6</ele>
        <time>2024-05-26T07:25:43Z</time>
      </trkpt>
      <trkpt lat="43.73355" lon="6.62549">
        <ele>1000.7</ele>
        <time>2024-05-26T07:25:44Z</time>
      </trkpt>
      <trkpt lat="43.73356" lon="6.6255">
        <ele>1000.8</ele>
        <time>2024-05-26T07:25:45Z</time>
      </trkpt>
      <trkpt lat="43.73356" lon="6.62551">
        <ele>1001</ele>
        <time>2024-05-26T07:25:46Z</time>
      </trkpt>
      <trkpt lat="43.73357" lon="6.62552">
        <ele>1001.1</ele>
        <time>2024-05-26T07:25:47Z</time>
      </trkpt>
      <trkpt lat="43.73357" lon="6.62553">
        <ele>1001.3</ele>
        <time>2024-05-26T07:25:48Z</time>
      </trkpt>
      <trkpt lat="43.73357" lon="6.62553">
        <ele>1001.5</ele>
        <time>2024-05-26T07:25:49Z</time>
      </trkpt>
      <trkpt lat="43.73358" lon="6.62554">
        <ele>1001.6</ele>
        <time>2024-05-26T07:25:50Z</time>
      </trkpt>
      <trkpt lat="43.73358" lon="6.62555">
        <ele>1001.7</ele>
        <time>2024-05-26T07:25:51Z</time>
      </trkpt>
      <trkpt lat="43.73359" lon="6.62556">
        <ele>1001.9</ele>
        <time>2024-05-26T07:25:52Z</time>
      </trkpt>
      <trkpt lat="43.73359" lon="6.62557">
        <ele>1002</ele>
        <time>2024-05-26T07:25:53Z</time>
      </trkpt>
      <trkpt lat="43.73359" lon="6.62557">
        <ele>1002.2</ele>
        <time>2024-05-26T07:25:54Z</time>
      </trkpt>
      <trkpt lat="43.73359" lon="6.62557">
        <ele>1002.3</ele>
        <time>2024-05-26T07:25:55Z</time>
      </trkpt>
      <trkpt lat="43.73359" lon="6.62557">
        <ele>1002.5</ele>
        <time>2024-05-26T07:25:56Z</time>
      </trkpt>
      <trkpt lat="43.7336" lon="6.62558">
        <ele>1002.6</ele>
        <time>2024-05-26T07:25:57Z</time>
      </trkpt>
      <trkpt lat="43.7336" lon="6.62558">
        <ele>1002.8</ele>
        <time>2024-05-26T07:25:58Z</time>
      </trkpt>
      <trkpt lat="43.73361" lon="6.62559">
        <ele>1002.9</ele>
        <time>2024-05-26T07:25:59Z</time>
      </trkpt>
      <trkpt lat="43.73362" lon="6.62559">
        <ele>1003.1</ele>
        <time>2024-05-26T07:26:00Z</time>
      </trkpt>
      <trkpt lat="43.73363" lon="6.6256">
        <ele>1003.3</ele>
        <time>2024-05-26T07:26:01Z</time>
      </trkpt>
      <trkpt lat="43.73363" lon="6.62561">
        <ele>1003.5</ele>
        <time>2024-05-26T07:26:02Z</time>
      </trkpt>
      <trkpt lat="43.73364" lon="6.62561">
        <ele>1003.6</ele>
        <time>2024-05-26T07:26:03Z</time>
      </trkpt>
      <trkpt lat="43.73364" lon="6.62561">
        <ele>1003.7</ele>
        <time>2024-05-26T07:26:04Z</time>
      </trkpt>
      <trkpt lat="43.73364" lon="6.62561">
        <ele>1003.7</ele>
        <time>2024-05-26T07:26:05Z</time>
      </trkpt>
      <trkpt lat="43.73363" lon="6.62561">
        <ele>1003.8</ele>
        <time>2024-05-26T07:26:06Z</time>
      </trkpt>
      <trkpt lat="43.73364" lon="6.62561">
        <ele>1003.8</ele>
        <time>2024-05-26T07:26:07Z</time>
      </trkpt>
      <trkpt lat="43.73364" lon="6.62561">
        <ele>1003.8</ele>
        <time>2024-05-26T07:26:08Z</time>
      </trkpt>
      <trkpt lat="43.73365" lon="6.62562">
        <ele>1003.8</ele>
        <time>2024-05-26T07:26:09Z</time>
      </trkpt>
      <trkpt lat="43.73365" lon="6.62563">
        <ele>1003.9</ele>
        <time>2024-05-26T07:26:10Z</time>
      </trkpt>
      <trkpt lat="43.73365" lon="6.62564">
        <ele>1004</ele>
        <time>2024-05-26T07:26:11Z</time>
      </trkpt>
      <trkpt lat="43.73366" lon="6.62565">
        <ele>1004.1</ele>
        <time>2024-05-26T07:26:12Z</time>
      </trkpt>
      <trkpt lat="43.73366" lon="6.62565">
        <ele>1004.3</ele>
        <time>2024-05-26T07:26:13Z</time>
      </trkpt>
      <trkpt lat="43.73366" lon="6.62565">
        <ele>1004.4</ele>
        <time>2024-05-26T07:26:14Z</time>
      </trkpt>
      <trkpt lat="43.73366" lon="6.62565">
        <ele>1004.5</ele>
        <time>2024-05-26T07:26:15Z</time>
      </trkpt>
      <trkpt lat="43.73366" lon="6.62565">
        <ele>1004.5</ele>
        <time>2024-05-26T07:26:16Z</time>
      </trkpt>
      <trkpt lat="43.73366" lon="6.62566">
        <ele>1004.6</ele>
        <time>2024-05-26T07:26:17Z</time>
      </trkpt>
      <trkpt lat="43.73366" lon="6.62566">
        <ele>1004.6</ele>
        <time>2024-05-26T07:26:18Z</time>
      </trkpt>
      <trkpt lat="43.73367" lon="6.62567">
        <ele>1004.7</ele>
        <time>2024-05-26T07:26:19Z</time>
      </trkpt>
      <trkpt lat="43.73367" lon="6.62566">
        <ele>1004.7</ele>
        <time>2024-05-26T07:26:20Z</time>
      </trkpt>
      <trkpt lat="43.73367" lon="6.62567">
        <ele>1004.8</ele>
        <time>2024-05-26T07:26:21Z</time>
      </trkpt>
      <trkpt lat="43.73367" lon="6.62568">
        <ele>1004.8</ele>
        <time>2024-05-26T07:26:22Z</time>
      </trkpt>
      <trkpt lat="43.73367" lon="6.62569">
        <ele>1004.9</ele>
        <time>2024-05-26T07:26:23Z</time>
      </trkpt>
      <trkpt lat="43.73367" lon="6.6257">
        <ele>1004.9</ele>
        <time>2024-05-26T07:26:24Z</time>
      </trkpt>
      <trkpt lat="43.73367" lon="6.62571">
        <ele>1005</ele>
        <time>2024-05-26T07:26:25Z</time>
      </trkpt>
      <trkpt lat="43.73367" lon="6.62572">
        <ele>1005.1</ele>
        <time>2024-05-26T07:26:26Z</time>
      </trkpt>
      <trkpt lat="43.73368" lon="6.62573">
        <ele>1005.2</ele>
        <time>2024-05-26T07:26:27Z</time>
      </trkpt>
      <trkpt lat="43.73368" lon="6.62574">
        <ele>1005.3</ele>
        <time>2024-05-26T07:26:28Z</time>
      </trkpt>
      <trkpt lat="43.73368" lon="6.62575">
        <ele>1005.4</ele>
        <time>2024-05-26T07:26:29Z</time>
      </trkpt>
      <trkpt lat="43.73368" lon="6.62576">
        <ele>1005.6</ele>
        <time>2024-05-26T07:26:30Z</time>
      </trkpt>
      <trkpt lat="43.73369" lon="6.62577">
        <ele>1005.7</ele>
        <time>2024-05-26T07:26:31Z</time>
      </trkpt>
      <trkpt lat="43.73369" lon="6.62579">
        <ele>1005.8</ele>
        <time>2024-05-26T07:26:32Z</time>
      </trkpt>
      <trkpt lat="43.73369" lon="6.6258">
        <ele>1005.9</ele>
        <time>2024-05-26T07:26:33Z</time>
      </trkpt>
      <trkpt lat="43.7337" lon="6.62581">
        <ele>1006.1</ele>
        <time>2024-05-26T07:26:34Z</time>
      </trkpt>
      <trkpt lat="43.7337" lon="6.62583">
        <ele>1006.3</ele>
        <time>2024-05-26T07:26:35Z</time>
      </trkpt>
      <trkpt lat="43.73371" lon="6.62584">
        <ele>1006.5</ele>
        <time>2024-05-26T07:26:36Z</time>
      </trkpt>
      <trkpt lat="43.73371" lon="6.62585">
        <ele>1006.7</ele>
        <time>2024-05-26T07:26:37Z</time>
      </trkpt>
      <trkpt lat="43.73371" lon="6.62586">
        <ele>1006.8</ele>
        <time>2024-05-26T07:26:38Z</time>
      </trkpt>
      <trkpt lat="43.73372" lon="6.62588">
        <ele>1007</ele>
        <time>2024-05-26T07:26:39Z</time>
      </trkpt>
      <trkpt lat="43.73373" lon="6.6259">
        <ele>1007.1</ele>
        <time>2024-05-26T07:26:40Z</time>
      </trkpt>
      <trkpt lat="43.73373" lon="6.62591">
        <ele>1007.3</ele>
        <time>2024-05-26T07:26:41Z</time>
      </trkpt>
      <trkpt lat="43.73373" lon="6.62592">
        <ele>1007.4</ele>
        <time>2024-05-26T07:26:42Z</time>
      </trkpt>
      <trkpt lat="43.73374" lon="6.62594">
        <ele>1007.4</ele>
        <time>2024-05-26T07:26:43Z</time>
      </trkpt>
      <trkpt lat="43.73374" lon="6.62595">
        <ele>1007.7</ele>
        <time>2024-05-26T07:26:44Z</time>
      </trkpt>
      <trkpt lat="43.73375" lon="6.62596">
        <ele>1007.8</ele>
        <time>2024-05-26T07:26:45Z</time>
      </trkpt>
      <trkpt lat="43.73374" lon="6.62597">
        <ele>1008</ele>
        <time>2024-05-26T07:26:46Z</time>
      </trkpt>
      <trkpt lat="43.73375" lon="6.62598">
        <ele>1008.1</ele>
        <time>2024-05-26T07:26:47Z</time>
      </trkpt>
      <trkpt lat="43.73375" lon="6.62599">
        <ele>1008.1</ele>
        <time>2024-05-26T07:26:48Z</time>
      </trkpt>
      <trkpt lat="43.73375" lon="6.62601">
        <ele>1008.2</ele>
        <time>2024-05-26T07:26:49Z</time>
      </trkpt>
      <trkpt lat="43.73376" lon="6.62602">
        <ele>1008.2</ele>
        <time>2024-05-26T07:26:50Z</time>
      </trkpt>
      <trkpt lat="43.73376" lon="6.62603">
        <ele>1008.3</ele>
        <time>2024-05-26T07:26:51Z</time>
      </trkpt>
      <trkpt lat="43.73377" lon="6.62604">
        <ele>1008.4</ele>
        <time>2024-05-26T07:26:52Z</time>
      </trkpt>
      <trkpt lat="43.73377" lon="6.62606">
        <ele>1008.5</ele>
        <time>2024-05-26T07:26:53Z</time>
      </trkpt>
      <trkpt lat="43.73378" lon="6.62607">
        <ele>1008.6</ele>
        <time>2024-05-26T07:26:54Z</time>
      </trkpt>
      <trkpt lat="43.73379" lon="6.62608">
        <ele>1008.7</ele>
        <time>2024-05-26T07:26:55Z</time>
      </trkpt>
      <trkpt lat="43.73379" lon="6.6261">
        <ele>1008.8</ele>
        <time>2024-05-26T07:26:56Z</time>
      </trkpt>
      <trkpt lat="43.7338" lon="6.6261">
        <ele>1009</ele>
        <time>2024-05-26T07:26:57Z</time>
      </trkpt>
      <trkpt lat="43.73381" lon="6.62611">
        <ele>1009.2</ele>
        <time>2024-05-26T07:26:58Z</time>
      </trkpt>
      <trkpt lat="43.73381" lon="6.62612">
        <ele>1009.3</ele>
        <time>2024-05-26T07:26:59Z</time>
      </trkpt>
      <trkpt lat="43.73382" lon="6.62613">
        <ele>1009.4</ele>
        <time>2024-05-26T07:27:00Z</time>
      </trkpt>
      <trkpt lat="43.73383" lon="6.62613">
        <ele>1009.5</ele>
        <time>2024-05-26T07:27:01Z</time>
      </trkpt>
      <trkpt lat="43.73384" lon="6.62613">
        <ele>1009.6</ele>
        <time>2024-05-26T07:27:02Z</time>
      </trkpt>
      <trkpt lat="43.73385" lon="6.62614">
        <ele>1009.7</ele>
        <time>2024-05-26T07:27:03Z</time>
      </trkpt>
      <trkpt lat="43.73386" lon="6.62614">
        <ele>1009.9</ele>
        <time>2024-05-26T07:27:04Z</time>
      </trkpt>
      <trkpt lat="43.73387" lon="6.62614">
        <ele>1010.1</ele>
        <time>2024-05-26T07:27:05Z</time>
      </trkpt>
      <trkpt lat="43.73388" lon="6.62614">
        <ele>1010.3</ele>
        <time>2024-05-26T07:27:06Z</time>
      </trkpt>
      <trkpt lat="43.73389" lon="6.62614">
        <ele>1010.4</ele>
        <time>2024-05-26T07:27:07Z</time>
      </trkpt>
      <trkpt lat="43.73389" lon="6.62615">
        <ele>1010.5</ele>
        <time>2024-05-26T07:27:08Z</time>
      </trkpt>
      <trkpt lat="43.7339" lon="6.62615">
        <ele>1010.6</ele>
        <time>2024-05-26T07:27:09Z</time>
      </trkpt>
      <trkpt lat="43.73391" lon="6.62616">
        <ele>1010.7</ele>
        <time>2024-05-26T07:27:10Z</time>
      </trkpt>
      <trkpt lat="43.73391" lon="6.62616">
        <ele>1010.8</ele>
        <time>2024-05-26T07:27:11Z</time>
      </trkpt>
      <trkpt lat="43.73391" lon="6.62617">
        <ele>1010.9</ele>
        <time>2024-05-26T07:27:12Z</time>
      </trkpt>
      <trkpt lat="43.73391" lon="6.62617">
        <ele>1011.1</ele>
        <time>2024-05-26T07:27:13Z</time>
      </trkpt>
      <trkpt lat="43.73391" lon="6.62618">
        <ele>1011.1</ele>
        <time>2024-05-26T07:27:14Z</time>
      </trkpt>
      <trkpt lat="43.7339" lon="6.62619">
        <ele>1011.1</ele>
        <time>2024-05-26T07:27:15Z</time>
      </trkpt>
      <trkpt lat="43.7339" lon="6.6262">
        <ele>1011.2</ele>
        <time>2024-05-26T07:27:16Z</time>
      </trkpt>
      <trkpt lat="43.7339" lon="6.62621">
        <ele>1011.2</ele>
        <time>2024-05-26T07:27:17Z</time>
      </trkpt>
      <trkpt lat="43.73389" lon="6.62622">
        <ele>1011.3</ele>
        <time>2024-05-26T07:27:18Z</time>
      </trkpt>
      <trkpt lat="43.73389" lon="6.62623">
        <ele>1011.3</ele>
        <time>2024-05-26T07:27:19Z</time>
      </trkpt>
      <trkpt lat="43.73388" lon="6.62624">
        <ele>1011.4</ele>
        <time>2024-05-26T07:27:20Z</time>
      </trkpt>
      <trkpt lat="43.73388" lon="6.62625">
        <ele>1011.4</ele>
        <time>2024-05-26T07:27:21Z</time>
      </trkpt>
      <trkpt lat="43.73387" lon="6.62626">
        <ele>1011.6</ele>
        <time>2024-05-26T07:27:22Z</time>
      </trkpt>
      <trkpt lat="43.73387" lon="6.62627">
        <ele>1011.7</ele>
        <time>2024-05-26T07:27:23Z</time>
      </trkpt>
      <trkpt lat="43.73386" lon="6.62628">
        <ele>1011.8</ele>
        <time>2024-05-26T07:27:24Z</time>
      </trkpt>
      <trkpt lat="43.73385" lon="6.62629">
        <ele>1011.9</ele>
        <time>2024-05-26T07:27:25Z</time>
      </trkpt>
      <trkpt lat="43.73385" lon="6.6263">
        <ele>1012.1</ele>
        <time>2024-05-26T07:27:26Z</time>
      </trkpt>
      <trkpt lat="43.73385" lon="6.62631">
        <ele>1012.2</ele>
        <time>2024-05-26T07:27:27Z</time>
      </trkpt>
      <trkpt lat="43.73384" lon="6.62632">
        <ele>1012.3</ele>
        <time>2024-05-26T07:27:28Z</time>
      </trkpt>
      <trkpt lat="43.73384" lon="6.62632">
        <ele>1012.4</ele>
        <time>2024-05-26T07:27:29Z</time>
      </trkpt>
      <trkpt lat="43.73383" lon="6.62633">
        <ele>1012.5</ele>
        <time>2024-05-26T07:27:30Z</time>
      </trkpt>
      <trkpt lat="43.73383" lon="6.62634">
        <ele>1012.7</ele>
        <time>2024-05-26T07:27:31Z</time>
      </trkpt>
      <trkpt lat="43.73382" lon="6.62635">
        <ele>1012.7</ele>
        <time>2024-05-26T07:27:32Z</time>
      </trkpt>
      <trkpt lat="43.73382" lon="6.62635">
        <ele>1012.8</ele>
        <time>2024-05-26T07:27:33Z</time>
      </trkpt>
      <trkpt lat="43.73381" lon="6.62636">
        <ele>1012.9</ele>
        <time>2024-05-26T07:27:34Z</time>
      </trkpt>
      <trkpt lat="43.7338" lon="6.62637">
        <ele>1013</ele>
        <time>2024-05-26T07:27:35Z</time>
      </trkpt>
      <trkpt lat="43.7338" lon="6.62637">
        <ele>1013.2</ele>
        <time>2024-05-26T07:27:36Z</time>
      </trkpt>
      <trkpt lat="43.7338" lon="6.62638">
        <ele>1013.3</ele>
        <time>2024-05-26T07:27:37Z</time>
      </trkpt>
      <trkpt lat="43.73379" lon="6.62639">
        <ele>1013.3</ele>
        <time>2024-05-26T07:27:38Z</time>
      </trkpt>
      <trkpt lat="43.73379" lon="6.62639">
        <ele>1013.4</ele>
        <time>2024-05-26T07:27:39Z</time>
      </trkpt>
      <trkpt lat="43.73378" lon="6.6264">
        <ele>1013.5</ele>
        <time>2024-05-26T07:27:40Z</time>
      </trkpt>
      <trkpt lat="43.73378" lon="6.62641">
        <ele>1013.6</ele>
        <time>2024-05-26T07:27:41Z</time>
      </trkpt>
      <trkpt lat="43.73377" lon="6.62642">
        <ele>1013.8</ele>
        <time>2024-05-26T07:27:42Z</time>
      </trkpt>
      <trkpt lat="43.73377" lon="6.62643">
        <ele>1014</ele>
        <time>2024-05-26T07:27:43Z</time>
      </trkpt>
      <trkpt lat="43.73376" lon="6.62643">
        <ele>1014.1</ele>
        <time>2024-05-26T07:27:44Z</time>
      </trkpt>
      <trkpt lat="43.73376" lon="6.62645">
        <ele>1014.2</ele>
        <time>2024-05-26T07:27:45Z</time>
      </trkpt>
      <trkpt lat="43.73376" lon="6.62645">
        <ele>1014.2</ele>
        <time>2024-05-26T07:27:46Z</time>
      </trkpt>
      <trkpt lat="43.73375" lon="6.62647">
        <ele>1014.3</ele>
        <time>2024-05-26T07:27:47Z</time>
      </trkpt>
      <trkpt lat="43.73375" lon="6.62648">
        <ele>1014.4</ele>
        <time>2024-05-26T07:27:48Z</time>
      </trkpt>
      <trkpt lat="43.73375" lon="6.62649">
        <ele>1014.4</ele>
        <time>2024-05-26T07:27:49Z</time>
      </trkpt>
      <trkpt lat="43.73375" lon="6.6265">
        <ele>1014.4</ele>
        <time>2024-05-26T07:27:50Z</time>
      </trkpt>
      <trkpt lat="43.73375" lon="6.62651">
        <ele>1014.5</ele>
        <time>2024-05-26T07:27:51Z</time>
      </trkpt>
      <trkpt lat="43.73375" lon="6.62651">
        <ele>1014.6</ele>
        <time>2024-05-26T07:27:52Z</time>
      </trkpt>
      <trkpt lat="43.73375" lon="6.62652">
        <ele>1014.6</ele>
        <time>2024-05-26T07:27:53Z</time>
      </trkpt>
      <trkpt lat="43.73375" lon="6.62653">
        <ele>1014.6</ele>
        <time>2024-05-26T07:27:54Z</time>
      </trkpt>
      <trkpt lat="43.73375" lon="6.62654">
        <ele>1014.6</ele>
        <time>2024-05-26T07:27:55Z</time>
      </trkpt>
      <trkpt lat="43.73375" lon="6.62654">
        <ele>1014.6</ele>
        <time>2024-05-26T07:27:56Z</time>
      </trkpt>
      <trkpt lat="43.73375" lon="6.62655">
        <ele>1014.6</ele>
        <time>2024-05-26T07:27:57Z</time>
      </trkpt>
      <trkpt lat="43.73375" lon="6.62656">
        <ele>1014.6</ele>
        <time>2024-05-26T07:27:58Z</time>
      </trkpt>
      <trkpt lat="43.73375" lon="6.62657">
        <ele>1014.6</ele>
        <time>2024-05-26T07:27:59Z</time>
      </trkpt>
      <trkpt lat="43.73374" lon="6.62658">
        <ele>1014.6</ele>
        <time>2024-05-26T07:28:00Z</time>
      </trkpt>
      <trkpt lat="43.73374" lon="6.62659">
        <ele>1014.6</ele>
        <time>2024-05-26T07:28:01Z</time>
      </trkpt>
      <trkpt lat="43.73374" lon="6.6266">
        <ele>1014.5</ele>
        <time>2024-05-26T07:28:02Z</time>
      </trkpt>
      <trkpt lat="43.73373" lon="6.6266">
        <ele>1014.5</ele>
        <time>2024-05-26T07:28:03Z</time>
      </trkpt>
      <trkpt lat="43.73373" lon="6.6266">
        <ele>1014.4</ele>
        <time>2024-05-26T07:28:04Z</time>
      </trkpt>
      <trkpt lat="43.73373" lon="6.62661">
        <ele>1014.4</ele>
        <time>2024-05-26T07:28:05Z</time>
      </trkpt>
      <trkpt lat="43.73373" lon="6.6266">
        <ele>1014.5</ele>
        <time>2024-05-26T07:28:06Z</time>
      </trkpt>
      <trkpt lat="43.73373" lon="6.62661">
        <ele>1014.4</ele>
        <time>2024-05-26T07:28:07Z</time>
      </trkpt>
      <trkpt lat="43.73373" lon="6.62661">
        <ele>1014.4</ele>
        <time>2024-05-26T07:28:08Z</time>
      </trkpt>
      <trkpt lat="43.73373" lon="6.62661">
        <ele>1014.4</ele>
        <time>2024-05-26T07:28:09Z</time>
      </trkpt>
      <trkpt lat="43.73373" lon="6.62661">
        <ele>1014.4</ele>
        <time>2024-05-26T07:28:10Z</time>
      </trkpt>
      <trkpt lat="43.73373" lon="6.62661">
        <ele>1014.3</ele>
        <time>2024-05-26T07:28:11Z</time>
      </trkpt>
      <trkpt lat="43.73373" lon="6.62661">
        <ele>1014.3</ele>
        <time>2024-05-26T07:28:12Z</time>
      </trkpt>
      <trkpt lat="43.73373" lon="6.62661">
        <ele>1014.3</ele>
        <time>2024-05-26T07:28:13Z</time>
      </trkpt>
      <trkpt lat="43.73373" lon="6.62661">
        <ele>1014.2</ele>
        <time>2024-05-26T07:28:14Z</time>
      </trkpt>
      <trkpt lat="43.73373" lon="6.62661">
        <ele>1014.1</ele>
        <time>2024-05-26T07:28:15Z</time>
      </trkpt>
      <trkpt lat="43.73373" lon="6.62661">
        <ele>1014.1</ele>
        <time>2024-05-26T07:28:16Z</time>
      </trkpt>
      <trkpt lat="43.73373" lon="6.6266">
        <ele>1014.1</ele>
        <time>2024-05-26T07:28:17Z</time>
      </trkpt>
      <trkpt lat="43.73373" lon="6.62661">
        <ele>1014.1</ele>
        <time>2024-05-26T07:28:18Z</time>
      </trkpt>
      <trkpt lat="43.73373" lon="6.62662">
        <ele>1014.1</ele>
        <time>2024-05-26T07:28:19Z</time>
      </trkpt>
      <trkpt lat="43.73372" lon="6.62663">
        <ele>1014</ele>
        <time>2024-05-26T07:28:20Z</time>
      </trkpt>
      <trkpt lat="43.73371" lon="6.62665">
        <ele>1014.1</ele>
        <time>2024-05-26T07:28:21Z</time>
      </trkpt>
      <trkpt lat="43.73371" lon="6.62666">
        <ele>1014.1</ele>
        <time>2024-05-26T07:28:22Z</time>
      </trkpt>
      <trkpt lat="43.73371" lon="6.62668">
        <ele>1014</ele>
        <time>2024-05-26T07:28:23Z</time>
      </trkpt>
      <trkpt lat="43.7337" lon="6.62668">
        <ele>1014</ele>
        <time>2024-05-26T07:28:24Z</time>
      </trkpt>
      <trkpt lat="43.7337" lon="6.6267">
        <ele>1013.8</ele>
        <time>2024-05-26T07:28:25Z</time>
      </trkpt>
      <trkpt lat="43.73369" lon="6.62671">
        <ele>1013.7</ele>
        <time>2024-05-26T07:28:26Z</time>
      </trkpt>
      <trkpt lat="43.73369" lon="6.62673">
        <ele>1013.5</ele>
        <time>2024-05-26T07:28:27Z</time>
      </trkpt>
      <trkpt lat="43.73368" lon="6.62674">
        <ele>1013.5</ele>
        <time>2024-05-26T07:28:28Z</time>
      </trkpt>
      <trkpt lat="43.73368" lon="6.62676">
        <ele>1013.4</ele>
        <time>2024-05-26T07:28:29Z</time>
      </trkpt>
      <trkpt lat="43.73367" lon="6.62677">
        <ele>1013.3</ele>
        <time>2024-05-26T07:28:30Z</time>
      </trkpt>
      <trkpt lat="43.73366" lon="6.62679">
        <ele>1013.2</ele>
        <time>2024-05-26T07:28:31Z</time>
      </trkpt>
      <trkpt lat="43.73365" lon="6.6268">
        <ele>1013.1</ele>
        <time>2024-05-26T07:28:32Z</time>
      </trkpt>
      <trkpt lat="43.73365" lon="6.62682">
        <ele>1013</ele>
        <time>2024-05-26T07:28:33Z</time>
      </trkpt>
      <trkpt lat="43.73364" lon="6.62684">
        <ele>1012.9</ele>
        <time>2024-05-26T07:28:34Z</time>
      </trkpt>
      <trkpt lat="43.73363" lon="6.62686">
        <ele>1012.9</ele>
        <time>2024-05-26T07:28:35Z</time>
      </trkpt>
      <trkpt lat="43.73363" lon="6.62687">
        <ele>1012.8</ele>
        <time>2024-05-26T07:28:36Z</time>
      </trkpt>
      <trkpt lat="43.73363" lon="6.62689">
        <ele>1012.8</ele>
        <time>2024-05-26T07:28:37Z</time>
      </trkpt>
      <trkpt lat="43.73363" lon="6.6269">
        <ele>1012.7</ele>
        <time>2024-05-26T07:28:38Z</time>
      </trkpt>
      <trkpt lat="43.73362" lon="6.62692">
        <ele>1012.7</ele>
        <time>2024-05-26T07:28:39Z</time>
      </trkpt>
      <trkpt lat="43.73361" lon="6.62694">
        <ele>1012.5</ele>
        <time>2024-05-26T07:28:40Z</time>
      </trkpt>
      <trkpt lat="43.73361" lon="6.62695">
        <ele>1012.4</ele>
        <time>2024-05-26T07:28:41Z</time>
      </trkpt>
      <trkpt lat="43.73361" lon="6.62697">
        <ele>1012.2</ele>
        <time>2024-05-26T07:28:42Z</time>
      </trkpt>
      <trkpt lat="43.73361" lon="6.62699">
        <ele>1012</ele>
        <time>2024-05-26T07:28:43Z</time>
      </trkpt>
      <trkpt lat="43.73361" lon="6.62701">
        <ele>1011.9</ele>
        <time>2024-05-26T07:28:44Z</time>
      </trkpt>
      <trkpt lat="43.73362" lon="6.62703">
        <ele>1011.8</ele>
        <time>2024-05-26T07:28:45Z</time>
      </trkpt>
      <trkpt lat="43.73362" lon="6.62705">
        <ele>1011.7</ele>
        <time>2024-05-26T07:28:46Z</time>
      </trkpt>
      <trkpt lat="43.73363" lon="6.62707">
        <ele>1011.6</ele>
        <time>2024-05-26T07:28:47Z</time>
      </trkpt>
      <trkpt lat="43.73362" lon="6.62709">
        <ele>1011.5</ele>
        <time>2024-05-26T07:28:48Z</time>
      </trkpt>
      <trkpt lat="43.73363" lon="6.62711">
        <ele>1011.4</ele>
        <time>2024-05-26T07:28:49Z</time>
      </trkpt>
      <trkpt lat="43.73363" lon="6.62712">
        <ele>1011.4</ele>
        <time>2024-05-26T07:28:50Z</time>
      </trkpt>
      <trkpt lat="43.73363" lon="6.62714">
        <ele>1011.3</ele>
        <time>2024-05-26T07:28:51Z</time>
      </trkpt>
      <trkpt lat="43.73363" lon="6.62716">
        <ele>1011.1</ele>
        <time>2024-05-26T07:28:52Z</time>
      </trkpt>
      <trkpt lat="43.73362" lon="6.62717">
        <ele>1011.1</ele>
        <time>2024-05-26T07:28:53Z</time>
      </trkpt>
      <trkpt lat="43.73362" lon="6.62719">
        <ele>1010.9</ele>
        <time>2024-05-26T07:28:54Z</time>
      </trkpt>
      <trkpt lat="43.73362" lon="6.6272">
        <ele>1010.8</ele>
        <time>2024-05-26T07:28:55Z</time>
      </trkpt>
      <trkpt lat="43.73362" lon="6.62721">
        <ele>1010.7</ele>
        <time>2024-05-26T07:28:56Z</time>
      </trkpt>
      <trkpt lat="43.73362" lon="6.62722">
        <ele>1010.7</ele>
        <time>2024-05-26T07:28:57Z</time>
      </trkpt>
      <trkpt lat="43.73362" lon="6.62723">
        <ele>1010.6</ele>
        <time>2024-05-26T07:28:58Z</time>
      </trkpt>
      <trkpt lat="43.73363" lon="6.62724">
        <ele>1010.6</ele>
        <time>2024-05-26T07:28:59Z</time>
      </trkpt>
      <trkpt lat="43.73363" lon="6.62724">
        <ele>1010.5</ele>
        <time>2024-05-26T07:29:00Z</time>
      </trkpt>
      <trkpt lat="43.73363" lon="6.62725">
        <ele>1010.5</ele>
        <time>2024-05-26T07:29:01Z</time>
      </trkpt>
      <trkpt lat="43.73363" lon="6.62726">
        <ele>1010.4</ele>
        <time>2024-05-26T07:29:02Z</time>
      </trkpt>
      <trkpt lat="43.73363" lon="6.62728">
        <ele>1010.3</ele>
        <time>2024-05-26T07:29:03Z</time>
      </trkpt>
      <trkpt lat="43.73363" lon="6.62729">
        <ele>1010.2</ele>
        <time>2024-05-26T07:29:04Z</time>
      </trkpt>
      <trkpt lat="43.73365" lon="6.62732">
        <ele>1010.2</ele>
        <time>2024-05-26T07:29:05Z</time>
      </trkpt>
      <trkpt lat="43.73365" lon="6.62734">
        <ele>1010.1</ele>
        <time>2024-05-26T07:29:06Z</time>
      </trkpt>
      <trkpt lat="43.73365" lon="6.62736">
        <ele>1010.2</ele>
        <time>2024-05-26T07:29:07Z</time>
      </trkpt>
      <trkpt lat="43.73366" lon="6.62737">
        <ele>1010.2</ele>
        <time>2024-05-26T07:29:08Z</time>
      </trkpt>
      <trkpt lat="43.73366" lon="6.62739">
        <ele>1010.2</ele>
        <time>2024-05-26T07:29:09Z</time>
      </trkpt>
      <trkpt lat="43.73367" lon="6.6274">
        <ele>1010.2</ele>
        <time>2024-05-26T07:29:10Z</time>
      </trkpt>
      <trkpt lat="43.73368" lon="6.62742">
        <ele>1010.3</ele>
        <time>2024-05-26T07:29:11Z</time>
      </trkpt>
      <trkpt lat="43.73369" lon="6.62744">
        <ele>1010.2</ele>
        <time>2024-05-26T07:29:12Z</time>
      </trkpt>
      <trkpt lat="43.7337" lon="6.62745">
        <ele>1010.3</ele>
        <time>2024-05-26T07:29:13Z</time>
      </trkpt>
      <trkpt lat="43.73371" lon="6.62747">
        <ele>1010.5</ele>
        <time>2024-05-26T07:29:14Z</time>
      </trkpt>
      <trkpt lat="43.73371" lon="6.62749">
        <ele>1010.6</ele>
        <time>2024-05-26T07:29:15Z</time>
      </trkpt>
      <trkpt lat="43.73371" lon="6.6275">
        <ele>1010.6</ele>
        <time>2024-05-26T07:29:16Z</time>
      </trkpt>
      <trkpt lat="43.73372" lon="6.62751">
        <ele>1010.7</ele>
        <time>2024-05-26T07:29:17Z</time>
      </trkpt>
      <trkpt lat="43.73373" lon="6.62753">
        <ele>1010.7</ele>
        <time>2024-05-26T07:29:18Z</time>
      </trkpt>
      <trkpt lat="43.73373" lon="6.62754">
        <ele>1010.8</ele>
        <time>2024-05-26T07:29:19Z</time>
      </trkpt>
      <trkpt lat="43.73373" lon="6.62755">
        <ele>1010.8</ele>
        <time>2024-05-26T07:29:20Z</time>
      </trkpt>
      <trkpt lat="43.73373" lon="6.62756">
        <ele>1010.9</ele>
        <time>2024-05-26T07:29:21Z</time>
      </trkpt>
      <trkpt lat="43.73374" lon="6.62757">
        <ele>1011</ele>
        <time>2024-05-26T07:29:22Z</time>
      </trkpt>
      <trkpt lat="43.73374" lon="6.62759">
        <ele>1011.2</ele>
        <time>2024-05-26T07:29:23Z</time>
      </trkpt>
      <trkpt lat="43.73373" lon="6.6276">
        <ele>1011.4</ele>
        <time>2024-05-26T07:29:24Z</time>
      </trkpt>
      <trkpt lat="43.73374" lon="6.62762">
        <ele>1011.5</ele>
        <time>2024-05-26T07:29:25Z</time>
      </trkpt>
      <trkpt lat="43.73374" lon="6.62764">
        <ele>1011.6</ele>
        <time>2024-05-26T07:29:26Z</time>
      </trkpt>
      <trkpt lat="43.73373" lon="6.62765">
        <ele>1011.7</ele>
        <time>2024-05-26T07:29:27Z</time>
      </trkpt>
      <trkpt lat="43.73373" lon="6.62767">
        <ele>1011.8</ele>
        <time>2024-05-26T07:29:28Z</time>
      </trkpt>
      <trkpt lat="43.73373" lon="6.62769">
        <ele>1012</ele>
        <time>2024-05-26T07:29:29Z</time>
      </trkpt>
      <trkpt lat="43.73373" lon="6.62771">
        <ele>1012.1</ele>
        <time>2024-05-26T07:29:30Z</time>
      </trkpt>
      <trkpt lat="43.73373" lon="6.62772">
        <ele>1012.2</ele>
        <time>2024-05-26T07:29:31Z</time>
      </trkpt>
      <trkpt lat="43.73372" lon="6.62773">
        <ele>1012.4</ele>
        <time>2024-05-26T07:29:32Z</time>
      </trkpt>
      <trkpt lat="43.73372" lon="6.62775">
        <ele>1012.4</ele>
        <time>2024-05-26T07:29:33Z</time>
      </trkpt>
      <trkpt lat="43.73371" lon="6.62776">
        <ele>1012.5</ele>
        <time>2024-05-26T07:29:34Z</time>
      </trkpt>
      <trkpt lat="43.7337" lon="6.62777">
        <ele>1012.6</ele>
        <time>2024-05-26T07:29:35Z</time>
      </trkpt>
      <trkpt lat="43.7337" lon="6.62778">
        <ele>1012.8</ele>
        <time>2024-05-26T07:29:36Z</time>
      </trkpt>
      <trkpt lat="43.7337" lon="6.62779">
        <ele>1013</ele>
        <time>2024-05-26T07:29:37Z</time>
      </trkpt>
      <trkpt lat="43.7337" lon="6.6278">
        <ele>1013.2</ele>
        <time>2024-05-26T07:29:38Z</time>
      </trkpt>
      <trkpt lat="43.73369" lon="6.62781">
        <ele>1013.4</ele>
        <time>2024-05-26T07:29:39Z</time>
      </trkpt>
      <trkpt lat="43.73369" lon="6.62782">
        <ele>1013.5</ele>
        <time>2024-05-26T07:29:40Z</time>
      </trkpt>
      <trkpt lat="43.73369" lon="6.62783">
        <ele>1013.6</ele>
        <time>2024-05-26T07:29:41Z</time>
      </trkpt>
      <trkpt lat="43.73369" lon="6.62785">
        <ele>1013.8</ele>
        <time>2024-05-26T07:29:42Z</time>
      </trkpt>
      <trkpt lat="43.73369" lon="6.62786">
        <ele>1013.9</ele>
        <time>2024-05-26T07:29:43Z</time>
      </trkpt>
      <trkpt lat="43.73369" lon="6.62788">
        <ele>1014.2</ele>
        <time>2024-05-26T07:29:44Z</time>
      </trkpt>
      <trkpt lat="43.73369" lon="6.6279">
        <ele>1014.4</ele>
        <time>2024-05-26T07:29:45Z</time>
      </trkpt>
      <trkpt lat="43.73369" lon="6.62791">
        <ele>1014.6</ele>
        <time>2024-05-26T07:29:46Z</time>
      </trkpt>
      <trkpt lat="43.7337" lon="6.62793">
        <ele>1014.7</ele>
        <time>2024-05-26T07:29:47Z</time>
      </trkpt>
      <trkpt lat="43.7337" lon="6.62794">
        <ele>1014.7</ele>
        <time>2024-05-26T07:29:48Z</time>
      </trkpt>
      <trkpt lat="43.7337" lon="6.62796">
        <ele>1014.7</ele>
        <time>2024-05-26T07:29:49Z</time>
      </trkpt>
      <trkpt lat="43.73371" lon="6.62798">
        <ele>1014.7</ele>
        <time>2024-05-26T07:29:50Z</time>
      </trkpt>
      <trkpt lat="43.73371" lon="6.62799">
        <ele>1014.7</ele>
        <time>2024-05-26T07:29:51Z</time>
      </trkpt>
      <trkpt lat="43.73372" lon="6.628">
        <ele>1014.7</ele>
        <time>2024-05-26T07:29:52Z</time>
      </trkpt>
      <trkpt lat="43.73372" lon="6.62801">
        <ele>1014.8</ele>
        <time>2024-05-26T07:29:53Z</time>
      </trkpt>
      <trkpt lat="43.73373" lon="6.62802">
        <ele>1014.8</ele>
        <time>2024-05-26T07:29:54Z</time>
      </trkpt>
      <trkpt lat="43.73373" lon="6.62804">
        <ele>1014.9</ele>
        <time>2024-05-26T07:29:55Z</time>
      </trkpt>
      <trkpt lat="43.73373" lon="6.62805">
        <ele>1014.9</ele>
        <time>2024-05-26T07:29:56Z</time>
      </trkpt>
      <trkpt lat="43.73374" lon="6.62806">
        <ele>1015</ele>
        <time>2024-05-26T07:29:57Z</time>
      </trkpt>
      <trkpt lat="43.73374" lon="6.62808">
        <ele>1015.2</ele>
        <time>2024-05-26T07:29:58Z</time>
      </trkpt>
      <trkpt lat="43.73375" lon="6.62809">
        <ele>1015.3</ele>
        <time>2024-05-26T07:29:59Z</time>
      </trkpt>
      <trkpt lat="43.73374" lon="6.6281">
        <ele>1015.4</ele>
        <time>2024-05-26T07:30:00Z</time>
      </trkpt>
      <trkpt lat="43.73374" lon="6.62811">
        <ele>1015.4</ele>
        <time>2024-05-26T07:30:01Z</time>
      </trkpt>
      <trkpt lat="43.73374" lon="6.62812">
        <ele>1015.4</ele>
        <time>2024-05-26T07:30:02Z</time>
      </trkpt>
      <trkpt lat="43.73374" lon="6.62813">
        <ele>1015.5</ele>
        <time>2024-05-26T07:30:03Z</time>
      </trkpt>
      <trkpt lat="43.73374" lon="6.62814">
        <ele>1015.6</ele>
        <time>2024-05-26T07:30:04Z</time>
      </trkpt>
      <trkpt lat="43.73375" lon="6.62815">
        <ele>1015.7</ele>
        <time>2024-05-26T07:30:05Z</time>
      </trkpt>
      <trkpt lat="43.73375" lon="6.62816">
        <ele>1015.9</ele>
        <time>2024-05-26T07:30:06Z</time>
      </trkpt>
      <trkpt lat="43.73376" lon="6.62817">
        <ele>1015.9</ele>
        <time>2024-05-26T07:30:07Z</time>
      </trkpt>
      <trkpt lat="43.73377" lon="6.62818">
        <ele>1015.9</ele>
        <time>2024-05-26T07:30:08Z</time>
      </trkpt>
      <trkpt lat="43.73377" lon="6.6282">
        <ele>1016.1</ele>
        <time>2024-05-26T07:30:09Z</time>
      </trkpt>
      <trkpt lat="43.73378" lon="6.62821">
        <ele>1016.1</ele>
        <time>2024-05-26T07:30:10Z</time>
      </trkpt>
      <trkpt lat="43.73378" lon="6.62823">
        <ele>1016.2</ele>
        <time>2024-05-26T07:30:11Z</time>
      </trkpt>
      <trkpt lat="43.73379" lon="6.62824">
        <ele>1016.3</ele>
        <time>2024-05-26T07:30:12Z</time>
      </trkpt>
      <trkpt lat="43.73379" lon="6.62826">
        <ele>1016.3</ele>
        <time>2024-05-26T07:30:13Z</time>
      </trkpt>
      <trkpt lat="43.7338" lon="6.62826">
        <ele>1016.3</ele>
        <time>2024-05-26T07:30:14Z</time>
      </trkpt>
      <trkpt lat="43.7338" lon="6.62827">
        <ele>1016.4</ele>
        <time>2024-05-26T07:30:15Z</time>
      </trkpt>
      <trkpt lat="43.73381" lon="6.62829">
        <ele>1016.5</ele>
        <time>2024-05-26T07:30:16Z</time>
      </trkpt>
      <trkpt lat="43.73381" lon="6.6283">
        <ele>1016.6</ele>
        <time>2024-05-26T07:30:17Z</time>
      </trkpt>
      <trkpt lat="43.73381" lon="6.62831">
        <ele>1016.7</ele>
        <time>2024-05-26T07:30:18Z</time>
      </trkpt>
      <trkpt lat="43.73381" lon="6.62831">
        <ele>1016.8</ele>
        <time>2024-05-26T07:30:19Z</time>
      </trkpt>
      <trkpt lat="43.73381" lon="6.62833">
        <ele>1016.9</ele>
        <time>2024-05-26T07:30:20Z</time>
      </trkpt>
      <trkpt lat="43.73382" lon="6.62834">
        <ele>1017</ele>
        <time>2024-05-26T07:30:21Z</time>
      </trkpt>
      <trkpt lat="43.73382" lon="6.62835">
        <ele>1017.2</ele>
        <time>2024-05-26T07:30:22Z</time>
      </trkpt>
      <trkpt lat="43.73382" lon="6.62836">
        <ele>1017.4</ele>
        <time>2024-05-26T07:30:23Z</time>
      </trkpt>
      <trkpt lat="43.73382" lon="6.62837">
        <ele>1017.4</ele>
        <time>2024-05-26T07:30:24Z</time>
      </trkpt>
      <trkpt lat="43.73382" lon="6.62838">
        <ele>1017.5</ele>
        <time>2024-05-26T07:30:25Z</time>
      </trkpt>
      <trkpt lat="43.73382" lon="6.6284">
        <ele>1017.5</ele>
        <time>2024-05-26T07:30:26Z</time>
      </trkpt>
      <trkpt lat="43.73382" lon="6.62841">
        <ele>1017.6</ele>
        <time>2024-05-26T07:30:27Z</time>
      </trkpt>
      <trkpt lat="43.73382" lon="6.62842">
        <ele>1017.6</ele>
        <time>2024-05-26T07:30:28Z</time>
      </trkpt>
      <trkpt lat="43.73382" lon="6.62843">
        <ele>1017.7</ele>
        <time>2024-05-26T07:30:29Z</time>
      </trkpt>
      <trkpt lat="43.73382" lon="6.62844">
        <ele>1017.8</ele>
        <time>2024-05-26T07:30:30Z</time>
      </trkpt>
      <trkpt lat="43.73382" lon="6.62845">
        <ele>1017.8</ele>
        <time>2024-05-26T07:30:31Z</time>
      </trkpt>
      <trkpt lat="43.73382" lon="6.62847">
        <ele>1017.9</ele>
        <time>2024-05-26T07:30:32Z</time>
      </trkpt>
      <trkpt lat="43.73382" lon="6.62848">
        <ele>1017.9</ele>
        <time>2024-05-26T07:30:33Z</time>
      </trkpt>
      <trkpt lat="43.73382" lon="6.62849">
        <ele>1017.9</ele>
        <time>2024-05-26T07:30:34Z</time>
      </trkpt>
      <trkpt lat="43.73383" lon="6.6285">
        <ele>1018</ele>
        <time>2024-05-26T07:30:35Z</time>
      </trkpt>
      <trkpt lat="43.73383" lon="6.62852">
        <ele>1018</ele>
        <time>2024-05-26T07:30:36Z</time>
      </trkpt>
      <trkpt lat="43.73383" lon="6.62854">
        <ele>1018.1</ele>
        <time>2024-05-26T07:30:37Z</time>
      </trkpt>
      <trkpt lat="43.73383" lon="6.62855">
        <ele>1018.1</ele>
        <time>2024-05-26T07:30:38Z</time>
      </trkpt>
      <trkpt lat="43.73383" lon="6.62857">
        <ele>1018</ele>
        <time>2024-05-26T07:30:39Z</time>
      </trkpt>
      <trkpt lat="43.73384" lon="6.62859">
        <ele>1018</ele>
        <time>2024-05-26T07:30:40Z</time>
      </trkpt>
      <trkpt lat="43.73384" lon="6.62861">
        <ele>1018</ele>
        <time>2024-05-26T07:30:41Z</time>
      </trkpt>
      <trkpt lat="43.73383" lon="6.62862">
        <ele>1018</ele>
        <time>2024-05-26T07:30:42Z</time>
      </trkpt>
      <trkpt lat="43.73383" lon="6.62864">
        <ele>1018</ele>
        <time>2024-05-26T07:30:43Z</time>
      </trkpt>
      <trkpt lat="43.73384" lon="6.62865">
        <ele>1018</ele>
        <time>2024-05-26T07:30:44Z</time>
      </trkpt>
      <trkpt lat="43.73384" lon="6.62867">
        <ele>1018</ele>
        <time>2024-05-26T07:30:45Z</time>
      </trkpt>
      <trkpt lat="43.73384" lon="6.62868">
        <ele>1018</ele>
        <time>2024-05-26T07:30:46Z</time>
      </trkpt>
      <trkpt lat="43.73384" lon="6.6287">
        <ele>1018</ele>
        <time>2024-05-26T07:30:47Z</time>
      </trkpt>
      <trkpt lat="43.73384" lon="6.62871">
        <ele>1018.1</ele>
        <time>2024-05-26T07:30:48Z</time>
      </trkpt>
      <trkpt lat="43.73385" lon="6.62873">
        <ele>1018.2</ele>
        <time>2024-05-26T07:30:49Z</time>
      </trkpt>
      <trkpt lat="43.73384" lon="6.62874">
        <ele>1018.3</ele>
        <time>2024-05-26T07:30:50Z</time>
      </trkpt>
      <trkpt lat="43.73384" lon="6.62875">
        <ele>1018.4</ele>
        <time>2024-05-26T07:30:51Z</time>
      </trkpt>
      <trkpt lat="43.73384" lon="6.62876">
        <ele>1018.4</ele>
        <time>2024-05-26T07:30:52Z</time>
      </trkpt>
      <trkpt lat="43.73384" lon="6.62877">
        <ele>1018.4</ele>
        <time>2024-05-26T07:30:53Z</time>
      </trkpt>
      <trkpt lat="43.73384" lon="6.62879">
        <ele>1018.4</ele>
        <time>2024-05-26T07:30:54Z</time>
      </trkpt>
      <trkpt lat="43.73384" lon="6.6288">
        <ele>1018.5</ele>
        <time>2024-05-26T07:30:55Z</time>
      </trkpt>
      <trkpt lat="43.73384" lon="6.62881">
        <ele>1018.6</ele>
        <time>2024-05-26T07:30:56Z</time>
      </trkpt>
      <trkpt lat="43.73384" lon="6.62883">
        <ele>1018.6</ele>
        <time>2024-05-26T07:30:57Z</time>
      </trkpt>
      <trkpt lat="43.73384" lon="6.62885">
        <ele>1018.7</ele>
        <time>2024-05-26T07:30:58Z</time>
      </trkpt>
      <trkpt lat="43.73385" lon="6.62886">
        <ele>1018.8</ele>
        <time>2024-05-26T07:30:59Z</time>
      </trkpt>
      <trkpt lat="43.73384" lon="6.62888">
        <ele>1018.9</ele>
        <time>2024-05-26T07:31:00Z</time>
      </trkpt>
      <trkpt lat="43.73384" lon="6.62889">
        <ele>1018.9</ele>
        <time>2024-05-26T07:31:01Z</time>
      </trkpt>
      <trkpt lat="43.73385" lon="6.6289">
        <ele>1019</ele>
        <time>2024-05-26T07:31:02Z</time>
      </trkpt>
      <trkpt lat="43.73385" lon="6.62892">
        <ele>1019.2</ele>
        <time>2024-05-26T07:31:03Z</time>
      </trkpt>
      <trkpt lat="43.73385" lon="6.62893">
        <ele>1019.3</ele>
        <time>2024-05-26T07:31:04Z</time>
      </trkpt>
      <trkpt lat="43.73384" lon="6.62894">
        <ele>1019.4</ele>
        <time>2024-05-26T07:31:05Z</time>
      </trkpt>
      <trkpt lat="43.73384" lon="6.62896">
        <ele>1019.4</ele>
        <time>2024-05-26T07:31:06Z</time>
      </trkpt>
      <trkpt lat="43.73384" lon="6.62898">
        <ele>1019.4</ele>
        <time>2024-05-26T07:31:07Z</time>
      </trkpt>
      <trkpt lat="43.73384" lon="6.62899">
        <ele>1019.4</ele>
        <time>2024-05-26T07:31:08Z</time>
      </trkpt>
      <trkpt lat="43.73384" lon="6.62901">
        <ele>1019.4</ele>
        <time>2024-05-26T07:31:09Z</time>
      </trkpt>
      <trkpt lat="43.73383" lon="6.62902">
        <ele>1019.4</ele>
        <time>2024-05-26T07:31:10Z</time>
      </trkpt>
      <trkpt lat="43.73383" lon="6.62903">
        <ele>1019.4</ele>
        <time>2024-05-26T07:31:11Z</time>
      </trkpt>
      <trkpt lat="43.73382" lon="6.62905">
        <ele>1019.5</ele>
        <time>2024-05-26T07:31:12Z</time>
      </trkpt>
      <trkpt lat="43.73382" lon="6.62907">
        <ele>1019.5</ele>
        <time>2024-05-26T07:31:13Z</time>
      </trkpt>
      <trkpt lat="43.73382" lon="6.62908">
        <ele>1019.7</ele>
        <time>2024-05-26T07:31:14Z</time>
      </trkpt>
      <trkpt lat="43.73382" lon="6.62909">
        <ele>1019.7</ele>
        <time>2024-05-26T07:31:15Z</time>
      </trkpt>
      <trkpt lat="43.73381" lon="6.6291">
        <ele>1019.7</ele>
        <time>2024-05-26T07:31:16Z</time>
      </trkpt>
      <trkpt lat="43.7338" lon="6.62912">
        <ele>1019.6</ele>
        <time>2024-05-26T07:31:17Z</time>
      </trkpt>
      <trkpt lat="43.7338" lon="6.62913">
        <ele>1019.5</ele>
        <time>2024-05-26T07:31:18Z</time>
      </trkpt>
      <trkpt lat="43.73379" lon="6.62914">
        <ele>1019.5</ele>
        <time>2024-05-26T07:31:19Z</time>
      </trkpt>
      <trkpt lat="43.73378" lon="6.62914">
        <ele>1019.6</ele>
        <time>2024-05-26T07:31:20Z</time>
      </trkpt>
      <trkpt lat="43.73378" lon="6.62915">
        <ele>1019.7</ele>
        <time>2024-05-26T07:31:21Z</time>
      </trkpt>
      <trkpt lat="43.73378" lon="6.62917">
        <ele>1019.7</ele>
        <time>2024-05-26T07:31:22Z</time>
      </trkpt>
      <trkpt lat="43.73378" lon="6.62918">
        <ele>1019.8</ele>
        <time>2024-05-26T07:31:23Z</time>
      </trkpt>
      <trkpt lat="43.73378" lon="6.62919">
        <ele>1019.8</ele>
        <time>2024-05-26T07:31:24Z</time>
      </trkpt>
      <trkpt lat="43.73378" lon="6.6292">
        <ele>1019.8</ele>
        <time>2024-05-26T07:31:25Z</time>
      </trkpt>
      <trkpt lat="43.73378" lon="6.62921">
        <ele>1019.8</ele>
        <time>2024-05-26T07:31:26Z</time>
      </trkpt>
      <trkpt lat="43.73378" lon="6.62923">
        <ele>1019.8</ele>
        <time>2024-05-26T07:31:27Z</time>
      </trkpt>
      <trkpt lat="43.73378" lon="6.62925">
        <ele>1019.8</ele>
        <time>2024-05-26T07:31:28Z</time>
      </trkpt>
      <trkpt lat="43.73378" lon="6.62927">
        <ele>1019.8</ele>
        <time>2024-05-26T07:31:29Z</time>
      </trkpt>
      <trkpt lat="43.73378" lon="6.62928">
        <ele>1019.8</ele>
        <time>2024-05-26T07:31:30Z</time>
      </trkpt>
      <trkpt lat="43.73377" lon="6.6293">
        <ele>1019.9</ele>
        <time>2024-05-26T07:31:31Z</time>
      </trkpt>
      <trkpt lat="43.73376" lon="6.62931">
        <ele>1019.9</ele>
        <time>2024-05-26T07:31:32Z</time>
      </trkpt>
      <trkpt lat="43.73376" lon="6.62933">
        <ele>1019.9</ele>
        <time>2024-05-26T07:31:33Z</time>
      </trkpt>
      <trkpt lat="43.73376" lon="6.62934">
        <ele>1019.9</ele>
        <time>2024-05-26T07:31:34Z</time>
      </trkpt>
      <trkpt lat="43.73375" lon="6.62936">
        <ele>1020</ele>
        <time>2024-05-26T07:31:35Z</time>
      </trkpt>
      <trkpt lat="43.73375" lon="6.62937">
        <ele>1020</ele>
        <time>2024-05-26T07:31:36Z</time>
      </trkpt>
      <trkpt lat="43.73375" lon="6.62938">
        <ele>1020.1</ele>
        <time>2024-05-26T07:31:37Z</time>
      </trkpt>
      <trkpt lat="43.73374" lon="6.62939">
        <ele>1020.1</ele>
        <time>2024-05-26T07:31:38Z</time>
      </trkpt>
      <trkpt lat="43.73374" lon="6.62942">
        <ele>1020.1</ele>
        <time>2024-05-26T07:31:39Z</time>
      </trkpt>
      <trkpt lat="43.73374" lon="6.62943">
        <ele>1020.2</ele>
        <time>2024-05-26T07:31:40Z</time>
      </trkpt>
      <trkpt lat="43.73374" lon="6.62944">
        <ele>1020.3</ele>
        <time>2024-05-26T07:31:41Z</time>
      </trkpt>
      <trkpt lat="43.73373" lon="6.62946">
        <ele>1020.3</ele>
        <time>2024-05-26T07:31:42Z</time>
      </trkpt>
      <trkpt lat="43.73373" lon="6.62947">
        <ele>1020.3</ele>
        <time>2024-05-26T07:31:43Z</time>
      </trkpt>
      <trkpt lat="43.73373" lon="6.62949">
        <ele>1020.3</ele>
        <time>2024-05-26T07:31:44Z</time>
      </trkpt>
      <trkpt lat="43.73373" lon="6.6295">
        <ele>1020.4</ele>
        <time>2024-05-26T07:31:45Z</time>
      </trkpt>
      <trkpt lat="43.73373" lon="6.62952">
        <ele>1020.5</ele>
        <time>2024-05-26T07:31:46Z</time>
      </trkpt>
      <trkpt lat="43.73373" lon="6.62954">
        <ele>1020.5</ele>
        <time>2024-05-26T07:31:47Z</time>
      </trkpt>
      <trkpt lat="43.73373" lon="6.62956">
        <ele>1020.5</ele>
        <time>2024-05-26T07:31:48Z</time>
      </trkpt>
      <trkpt lat="43.73374" lon="6.62957">
        <ele>1020.5</ele>
        <time>2024-05-26T07:31:49Z</time>
      </trkpt>
      <trkpt lat="43.73374" lon="6.62958">
        <ele>1020.6</ele>
        <time>2024-05-26T07:31:50Z</time>
      </trkpt>
      <trkpt lat="43.73375" lon="6.62959">
        <ele>1020.6</ele>
        <time>2024-05-26T07:31:51Z</time>
      </trkpt>
      <trkpt lat="43.73376" lon="6.62961">
        <ele>1020.5</ele>
        <time>2024-05-26T07:31:52Z</time>
      </trkpt>
      <trkpt lat="43.73377" lon="6.62962">
        <ele>1020.5</ele>
        <time>2024-05-26T07:31:53Z</time>
      </trkpt>
      <trkpt lat="43.73377" lon="6.62963">
        <ele>1020.5</ele>
        <time>2024-05-26T07:31:54Z</time>
      </trkpt>
      <trkpt lat="43.73378" lon="6.62964">
        <ele>1020.4</ele>
        <time>2024-05-26T07:31:55Z</time>
      </trkpt>
      <trkpt lat="43.73379" lon="6.62965">
        <ele>1020.4</ele>
        <time>2024-05-26T07:31:56Z</time>
      </trkpt>
      <trkpt lat="43.7338" lon="6.62967">
        <ele>1020.3</ele>
        <time>2024-05-26T07:31:57Z</time>
      </trkpt>
      <trkpt lat="43.7338" lon="6.62968">
        <ele>1020.3</ele>
        <time>2024-05-26T07:31:58Z</time>
      </trkpt>
      <trkpt lat="43.73381" lon="6.62969">
        <ele>1020.2</ele>
        <time>2024-05-26T07:31:59Z</time>
      </trkpt>
      <trkpt lat="43.73382" lon="6.62971">
        <ele>1020.1</ele>
        <time>2024-05-26T07:32:00Z</time>
      </trkpt>
      <trkpt lat="43.73382" lon="6.62972">
        <ele>1020.1</ele>
        <time>2024-05-26T07:32:01Z</time>
      </trkpt>
      <trkpt lat="43.73383" lon="6.62974">
        <ele>1020</ele>
        <time>2024-05-26T07:32:02Z</time>
      </trkpt>
      <trkpt lat="43.73384" lon="6.62975">
        <ele>1020</ele>
        <time>2024-05-26T07:32:03Z</time>
      </trkpt>
      <trkpt lat="43.73385" lon="6.62976">
        <ele>1020</ele>
        <time>2024-05-26T07:32:04Z</time>
      </trkpt>
      <trkpt lat="43.73385" lon="6.62977">
        <ele>1019.8</ele>
        <time>2024-05-26T07:32:05Z</time>
      </trkpt>
      <trkpt lat="43.73386" lon="6.62978">
        <ele>1019.7</ele>
        <time>2024-05-26T07:32:06Z</time>
      </trkpt>
      <trkpt lat="43.73387" lon="6.62979">
        <ele>1019.7</ele>
        <time>2024-05-26T07:32:07Z</time>
      </trkpt>
      <trkpt lat="43.73387" lon="6.6298">
        <ele>1019.6</ele>
        <time>2024-05-26T07:32:08Z</time>
      </trkpt>
      <trkpt lat="43.73388" lon="6.62981">
        <ele>1019.6</ele>
        <time>2024-05-26T07:32:09Z</time>
      </trkpt>
      <trkpt lat="43.73389" lon="6.62982">
        <ele>1020</ele>
        <time>2024-05-26T07:32:10Z</time>
      </trkpt>
      <trkpt lat="43.73389" lon="6.62984">
        <ele>1020.1</ele>
        <time>2024-05-26T07:32:11Z</time>
      </trkpt>
      <trkpt lat="43.73391" lon="6.62985">
        <ele>1020</ele>
        <time>2024-05-26T07:32:12Z</time>
      </trkpt>
      <trkpt lat="43.73391" lon="6.62986">
        <ele>1020</ele>
        <time>2024-05-26T07:32:13Z</time>
      </trkpt>
      <trkpt lat="43.73391" lon="6.62987">
        <ele>1020</ele>
        <time>2024-05-26T07:32:14Z</time>
      </trkpt>
      <trkpt lat="43.73392" lon="6.62989">
        <ele>1020</ele>
        <time>2024-05-26T07:32:15Z</time>
      </trkpt>
      <trkpt lat="43.73393" lon="6.6299">
        <ele>1020</ele>
        <time>2024-05-26T07:32:16Z</time>
      </trkpt>
      <trkpt lat="43.73395" lon="6.62991">
        <ele>1020</ele>
        <time>2024-05-26T07:32:17Z</time>
      </trkpt>
      <trkpt lat="43.73396" lon="6.62992">
        <ele>1020</ele>
        <time>2024-05-26T07:32:18Z</time>
      </trkpt>
      <trkpt lat="43.73397" lon="6.62994">
        <ele>1020</ele>
        <time>2024-05-26T07:32:19Z</time>
      </trkpt>
      <trkpt lat="43.73398" lon="6.62994">
        <ele>1020.1</ele>
        <time>2024-05-26T07:32:20Z</time>
      </trkpt>
      <trkpt lat="43.73399" lon="6.62995">
        <ele>1020.1</ele>
        <time>2024-05-26T07:32:21Z</time>
      </trkpt>
      <trkpt lat="43.734" lon="6.62996">
        <ele>1020</ele>
        <time>2024-05-26T07:32:22Z</time>
      </trkpt>
      <trkpt lat="43.734" lon="6.62997">
        <ele>1020</ele>
        <time>2024-05-26T07:32:23Z</time>
      </trkpt>
      <trkpt lat="43.73402" lon="6.62998">
        <ele>1019.9</ele>
        <time>2024-05-26T07:32:24Z</time>
      </trkpt>
      <trkpt lat="43.73403" lon="6.62999">
        <ele>1019.9</ele>
        <time>2024-05-26T07:32:25Z</time>
      </trkpt>
      <trkpt lat="43.73404" lon="6.63">
        <ele>1019.9</ele>
        <time>2024-05-26T07:32:26Z</time>
      </trkpt>
      <trkpt lat="43.73405" lon="6.63001">
        <ele>1019.9</ele>
        <time>2024-05-26T07:32:27Z</time>
      </trkpt>
      <trkpt lat="43.73406" lon="6.63001">
        <ele>1019.9</ele>
        <time>2024-05-26T07:32:28Z</time>
      </trkpt>
      <trkpt lat="43.73406" lon="6.63002">
        <ele>1019.8</ele>
        <time>2024-05-26T07:32:29Z</time>
      </trkpt>
      <trkpt lat="43.73407" lon="6.63003">
        <ele>1019.8</ele>
        <time>2024-05-26T07:32:30Z</time>
      </trkpt>
      <trkpt lat="43.73408" lon="6.63003">
        <ele>1019.7</ele>
        <time>2024-05-26T07:32:31Z</time>
      </trkpt>
      <trkpt lat="43.73409" lon="6.63004">
        <ele>1019.7</ele>
        <time>2024-05-26T07:32:32Z</time>
      </trkpt>
      <trkpt lat="43.7341" lon="6.63005">
        <ele>1019.7</ele>
        <time>2024-05-26T07:32:33Z</time>
      </trkpt>
      <trkpt lat="43.73411" lon="6.63006">
        <ele>1019.7</ele>
        <time>2024-05-26T07:32:34Z</time>
      </trkpt>
      <trkpt lat="43.73412" lon="6.63007">
        <ele>1019.8</ele>
        <time>2024-05-26T07:32:35Z</time>
      </trkpt>
      <trkpt lat="43.73413" lon="6.63007">
        <ele>1019.8</ele>
        <time>2024-05-26T07:32:36Z</time>
      </trkpt>
      <trkpt lat="43.73414" lon="6.63008">
        <ele>1019.8</ele>
        <time>2024-05-26T07:32:37Z</time>
      </trkpt>
      <trkpt lat="43.73415" lon="6.63009">
        <ele>1019.8</ele>
        <time>2024-05-26T07:32:38Z</time>
      </trkpt>
      <trkpt lat="43.73416" lon="6.63009">
        <ele>1019.8</ele>
        <time>2024-05-26T07:32:39Z</time>
      </trkpt>
      <trkpt lat="43.73417" lon="6.63009">
        <ele>1019.8</ele>
        <time>2024-05-26T07:32:40Z</time>
      </trkpt>
      <trkpt lat="43.73418" lon="6.6301">
        <ele>1019.8</ele>
        <time>2024-05-26T07:32:41Z</time>
      </trkpt>
      <trkpt lat="43.73419" lon="6.6301">
        <ele>1019.9</ele>
        <time>2024-05-26T07:32:42Z</time>
      </trkpt>
      <trkpt lat="43.7342" lon="6.6301">
        <ele>1020.1</ele>
        <time>2024-05-26T07:32:43Z</time>
      </trkpt>
      <trkpt lat="43.73421" lon="6.63011">
        <ele>1020.1</ele>
        <time>2024-05-26T07:32:44Z</time>
      </trkpt>
      <trkpt lat="43.73422" lon="6.63011">
        <ele>1020.2</ele>
        <time>2024-05-26T07:32:45Z</time>
      </trkpt>
      <trkpt lat="43.73422" lon="6.63012">
        <ele>1020.3</ele>
        <time>2024-05-26T07:32:46Z</time>
      </trkpt>
      <trkpt lat="43.73423" lon="6.63013">
        <ele>1020.5</ele>
        <time>2024-05-26T07:32:47Z</time>
      </trkpt>
      <trkpt lat="43.73423" lon="6.63013">
        <ele>1020.6</ele>
        <time>2024-05-26T07:32:48Z</time>
      </trkpt>
      <trkpt lat="43.73424" lon="6.63014">
        <ele>1020.7</ele>
        <time>2024-05-26T07:32:49Z</time>
      </trkpt>
      <trkpt lat="43.73424" lon="6.63015">
        <ele>1020.9</ele>
        <time>2024-05-26T07:32:50Z</time>
      </trkpt>
      <trkpt lat="43.73424" lon="6.63016">
        <ele>1021.1</ele>
        <time>2024-05-26T07:32:51Z</time>
      </trkpt>
      <trkpt lat="43.73424" lon="6.63017">
        <ele>1021.3</ele>
        <time>2024-05-26T07:32:52Z</time>
      </trkpt>
      <trkpt lat="43.73424" lon="6.63018">
        <ele>1021.4</ele>
        <time>2024-05-26T07:32:53Z</time>
      </trkpt>
      <trkpt lat="43.73424" lon="6.63019">
        <ele>1021.5</ele>
        <time>2024-05-26T07:32:54Z</time>
      </trkpt>
      <trkpt lat="43.73425" lon="6.6302">
        <ele>1021.6</ele>
        <time>2024-05-26T07:32:55Z</time>
      </trkpt>
      <trkpt lat="43.73425" lon="6.63021">
        <ele>1021.7</ele>
        <time>2024-05-26T07:32:56Z</time>
      </trkpt>
      <trkpt lat="43.73425" lon="6.63022">
        <ele>1022</ele>
        <time>2024-05-26T07:32:57Z</time>
      </trkpt>
      <trkpt lat="43.73425" lon="6.63023">
        <ele>1022.1</ele>
        <time>2024-05-26T07:32:58Z</time>
      </trkpt>
      <trkpt lat="43.73426" lon="6.63023">
        <ele>1022.2</ele>
        <time>2024-05-26T07:32:59Z</time>
      </trkpt>
      <trkpt lat="43.73426" lon="6.63024">
        <ele>1022.4</ele>
        <time>2024-05-26T07:33:00Z</time>
      </trkpt>
      <trkpt lat="43.73426" lon="6.63024">
        <ele>1022.6</ele>
        <time>2024-05-26T07:33:01Z</time>
      </trkpt>
      <trkpt lat="43.73427" lon="6.63025">
        <ele>1022.6</ele>
        <time>2024-05-26T07:33:02Z</time>
      </trkpt>
      <trkpt lat="43.73427" lon="6.63026">
        <ele>1022.7</ele>
        <time>2024-05-26T07:33:03Z</time>
      </trkpt>
      <trkpt lat="43.73428" lon="6.63026">
        <ele>1022.8</ele>
        <time>2024-05-26T07:33:04Z</time>
      </trkpt>
      <trkpt lat="43.73429" lon="6.63026">
        <ele>1022.9</ele>
        <time>2024-05-26T07:33:05Z</time>
      </trkpt>
      <trkpt lat="43.73429" lon="6.63026">
        <ele>1023.1</ele>
        <time>2024-05-26T07:33:06Z</time>
      </trkpt>
      <trkpt lat="43.7343" lon="6.63026">
        <ele>1023</ele>
        <time>2024-05-26T07:33:07Z</time>
      </trkpt>
      <trkpt lat="43.73431" lon="6.63024">
        <ele>1023.1</ele>
        <time>2024-05-26T07:33:08Z</time>
      </trkpt>
      <trkpt lat="43.73431" lon="6.63024">
        <ele>1023.2</ele>
        <time>2024-05-26T07:33:09Z</time>
      </trkpt>
      <trkpt lat="43.73433" lon="6.63024">
        <ele>1023.2</ele>
        <time>2024-05-26T07:33:10Z</time>
      </trkpt>
      <trkpt lat="43.73434" lon="6.63023">
        <ele>1023.3</ele>
        <time>2024-05-26T07:33:11Z</time>
      </trkpt>
      <trkpt lat="43.73434" lon="6.63023">
        <ele>1023.3</ele>
        <time>2024-05-26T07:33:12Z</time>
      </trkpt>
      <trkpt lat="43.73436" lon="6.63022">
        <ele>1023.4</ele>
        <time>2024-05-26T07:33:13Z</time>
      </trkpt>
      <trkpt lat="43.73437" lon="6.63022">
        <ele>1023.4</ele>
        <time>2024-05-26T07:33:14Z</time>
      </trkpt>
      <trkpt lat="43.73438" lon="6.63022">
        <ele>1023.5</ele>
        <time>2024-05-26T07:33:15Z</time>
      </trkpt>
      <trkpt lat="43.73439" lon="6.63022">
        <ele>1023.6</ele>
        <time>2024-05-26T07:33:16Z</time>
      </trkpt>
      <trkpt lat="43.7344" lon="6.63021">
        <ele>1023.7</ele>
        <time>2024-05-26T07:33:17Z</time>
      </trkpt>
      <trkpt lat="43.7344" lon="6.63022">
        <ele>1023.8</ele>
        <time>2024-05-26T07:33:18Z</time>
      </trkpt>
      <trkpt lat="43.73441" lon="6.63021">
        <ele>1023.9</ele>
        <time>2024-05-26T07:33:19Z</time>
      </trkpt>
      <trkpt lat="43.73442" lon="6.63021">
        <ele>1024</ele>
        <time>2024-05-26T07:33:20Z</time>
      </trkpt>
      <trkpt lat="43.73443" lon="6.6302">
        <ele>1024.1</ele>
        <time>2024-05-26T07:33:21Z</time>
      </trkpt>
      <trkpt lat="43.73444" lon="6.6302">
        <ele>1024.1</ele>
        <time>2024-05-26T07:33:22Z</time>
      </trkpt>
      <trkpt lat="43.73445" lon="6.6302">
        <ele>1024.2</ele>
        <time>2024-05-26T07:33:23Z</time>
      </trkpt>
      <trkpt lat="43.73446" lon="6.6302">
        <ele>1024.3</ele>
        <time>2024-05-26T07:33:24Z</time>
      </trkpt>
      <trkpt lat="43.73447" lon="6.63019">
        <ele>1024.4</ele>
        <time>2024-05-26T07:33:25Z</time>
      </trkpt>
      <trkpt lat="43.73448" lon="6.63019">
        <ele>1024.4</ele>
        <time>2024-05-26T07:33:26Z</time>
      </trkpt>
      <trkpt lat="43.73449" lon="6.63019">
        <ele>1024.5</ele>
        <time>2024-05-26T07:33:27Z</time>
      </trkpt>
      <trkpt lat="43.7345" lon="6.6302">
        <ele>1024.5</ele>
        <time>2024-05-26T07:33:28Z</time>
      </trkpt>
      <trkpt lat="43.73451" lon="6.6302">
        <ele>1024.7</ele>
        <time>2024-05-26T07:33:29Z</time>
      </trkpt>
      <trkpt lat="43.73451" lon="6.6302">
        <ele>1024.8</ele>
        <time>2024-05-26T07:33:30Z</time>
      </trkpt>
      <trkpt lat="43.73452" lon="6.63021">
        <ele>1024.9</ele>
        <time>2024-05-26T07:33:31Z</time>
      </trkpt>
      <trkpt lat="43.73453" lon="6.63021">
        <ele>1025</ele>
        <time>2024-05-26T07:33:32Z</time>
      </trkpt>
      <trkpt lat="43.73454" lon="6.63022">
        <ele>1025.2</ele>
        <time>2024-05-26T07:33:33Z</time>
      </trkpt>
      <trkpt lat="43.73455" lon="6.63022">
        <ele>1025.2</ele>
        <time>2024-05-26T07:33:34Z</time>
      </trkpt>
      <trkpt lat="43.73456" lon="6.63023">
        <ele>1025.3</ele>
        <time>2024-05-26T07:33:35Z</time>
      </trkpt>
      <trkpt lat="43.73457" lon="6.63023">
        <ele>1025.4</ele>
        <time>2024-05-26T07:33:36Z</time>
      </trkpt>
      <trkpt lat="43.73457" lon="6.63024">
        <ele>1025.5</ele>
        <time>2024-05-26T07:33:37Z</time>
      </trkpt>
      <trkpt lat="43.73458" lon="6.63024">
        <ele>1025.8</ele>
        <time>2024-05-26T07:33:38Z</time>
      </trkpt>
      <trkpt lat="43.73459" lon="6.63025">
        <ele>1026</ele>
        <time>2024-05-26T07:33:39Z</time>
      </trkpt>
      <trkpt lat="43.7346" lon="6.63025">
        <ele>1026.1</ele>
        <time>2024-05-26T07:33:40Z</time>
      </trkpt>
      <trkpt lat="43.73461" lon="6.63026">
        <ele>1026.2</ele>
        <time>2024-05-26T07:33:41Z</time>
      </trkpt>
      <trkpt lat="43.73462" lon="6.63026">
        <ele>1026.4</ele>
        <time>2024-05-26T07:33:42Z</time>
      </trkpt>
      <trkpt lat="43.73462" lon="6.63027">
        <ele>1026.6</ele>
        <time>2024-05-26T07:33:43Z</time>
      </trkpt>
      <trkpt lat="43.73463" lon="6.63027">
        <ele>1026.8</ele>
        <time>2024-05-26T07:33:44Z</time>
      </trkpt>
      <trkpt lat="43.73464" lon="6.63028">
        <ele>1026.9</ele>
        <time>2024-05-26T07:33:45Z</time>
      </trkpt>
      <trkpt lat="43.73465" lon="6.63029">
        <ele>1027</ele>
        <time>2024-05-26T07:33:46Z</time>
      </trkpt>
      <trkpt lat="43.73466" lon="6.63029">
        <ele>1027.2</ele>
        <time>2024-05-26T07:33:47Z</time>
      </trkpt>
      <trkpt lat="43.73466" lon="6.6303">
        <ele>1027.3</ele>
        <time>2024-05-26T07:33:48Z</time>
      </trkpt>
      <trkpt lat="43.73467" lon="6.6303">
        <ele>1027.4</ele>
        <time>2024-05-26T07:33:49Z</time>
      </trkpt>
      <trkpt lat="43.73468" lon="6.6303">
        <ele>1027.5</ele>
        <time>2024-05-26T07:33:50Z</time>
      </trkpt>
      <trkpt lat="43.73469" lon="6.63031">
        <ele>1027.7</ele>
        <time>2024-05-26T07:33:51Z</time>
      </trkpt>
      <trkpt lat="43.73469" lon="6.63032">
        <ele>1027.8</ele>
        <time>2024-05-26T07:33:52Z</time>
      </trkpt>
      <trkpt lat="43.7347" lon="6.63032">
        <ele>1027.8</ele>
        <time>2024-05-26T07:33:53Z</time>
      </trkpt>
      <trkpt lat="43.7347" lon="6.63033">
        <ele>1027.8</ele>
        <time>2024-05-26T07:33:54Z</time>
      </trkpt>
      <trkpt lat="43.73471" lon="6.63034">
        <ele>1027.9</ele>
        <time>2024-05-26T07:33:55Z</time>
      </trkpt>
      <trkpt lat="43.73472" lon="6.63034">
        <ele>1028.1</ele>
        <time>2024-05-26T07:33:56Z</time>
      </trkpt>
      <trkpt lat="43.73473" lon="6.63035">
        <ele>1028.2</ele>
        <time>2024-05-26T07:33:57Z</time>
      </trkpt>
      <trkpt lat="43.73473" lon="6.63035">
        <ele>1028.3</ele>
        <time>2024-05-26T07:33:58Z</time>
      </trkpt>
      <trkpt lat="43.73474" lon="6.63036">
        <ele>1028.4</ele>
        <time>2024-05-26T07:33:59Z</time>
      </trkpt>
      <trkpt lat="43.73475" lon="6.63037">
        <ele>1028.5</ele>
        <time>2024-05-26T07:34:00Z</time>
      </trkpt>
      <trkpt lat="43.73475" lon="6.63038">
        <ele>1028.5</ele>
        <time>2024-05-26T07:34:01Z</time>
      </trkpt>
      <trkpt lat="43.73475" lon="6.63039">
        <ele>1028.6</ele>
        <time>2024-05-26T07:34:02Z</time>
      </trkpt>
      <trkpt lat="43.73476" lon="6.6304">
        <ele>1028.7</ele>
        <time>2024-05-26T07:34:03Z</time>
      </trkpt>
      <trkpt lat="43.73476" lon="6.63041">
        <ele>1028.8</ele>
        <time>2024-05-26T07:34:04Z</time>
      </trkpt>
      <trkpt lat="43.73477" lon="6.63042">
        <ele>1029.1</ele>
        <time>2024-05-26T07:34:05Z</time>
      </trkpt>
      <trkpt lat="43.73477" lon="6.63042">
        <ele>1029.3</ele>
        <time>2024-05-26T07:34:06Z</time>
      </trkpt>
      <trkpt lat="43.73478" lon="6.63043">
        <ele>1029.5</ele>
        <time>2024-05-26T07:34:07Z</time>
      </trkpt>
      <trkpt lat="43.73478" lon="6.63044">
        <ele>1029.6</ele>
        <time>2024-05-26T07:34:08Z</time>
      </trkpt>
      <trkpt lat="43.73479" lon="6.63045">
        <ele>1029.8</ele>
        <time>2024-05-26T07:34:09Z</time>
      </trkpt>
      <trkpt lat="43.73479" lon="6.63046">
        <ele>1030</ele>
        <time>2024-05-26T07:34:10Z</time>
      </trkpt>
      <trkpt lat="43.73479" lon="6.63047">
        <ele>1030.2</ele>
        <time>2024-05-26T07:34:11Z</time>
      </trkpt>
      <trkpt lat="43.7348" lon="6.63049">
        <ele>1030.4</ele>
        <time>2024-05-26T07:34:12Z</time>
      </trkpt>
      <trkpt lat="43.7348" lon="6.63049">
        <ele>1030.5</ele>
        <time>2024-05-26T07:34:13Z</time>
      </trkpt>
      <trkpt lat="43.7348" lon="6.63051">
        <ele>1030.5</ele>
        <time>2024-05-26T07:34:14Z</time>
      </trkpt>
      <trkpt lat="43.7348" lon="6.63052">
        <ele>1030.6</ele>
        <time>2024-05-26T07:34:15Z</time>
      </trkpt>
      <trkpt lat="43.73481" lon="6.63053">
        <ele>1030.8</ele>
        <time>2024-05-26T07:34:16Z</time>
      </trkpt>
      <trkpt lat="43.73481" lon="6.63053">
        <ele>1031</ele>
        <time>2024-05-26T07:34:17Z</time>
      </trkpt>
      <trkpt lat="43.73481" lon="6.63055">
        <ele>1031.2</ele>
        <time>2024-05-26T07:34:18Z</time>
      </trkpt>
      <trkpt lat="43.73481" lon="6.63056">
        <ele>1031.5</ele>
        <time>2024-05-26T07:34:19Z</time>
      </trkpt>
      <trkpt lat="43.73482" lon="6.63056">
        <ele>1031.7</ele>
        <time>2024-05-26T07:34:20Z</time>
      </trkpt>
      <trkpt lat="43.73482" lon="6.63057">
        <ele>1031.9</ele>
        <time>2024-05-26T07:34:21Z</time>
      </trkpt>
      <trkpt lat="43.73482" lon="6.63057">
        <ele>1032</ele>
        <time>2024-05-26T07:34:22Z</time>
      </trkpt>
      <trkpt lat="43.73482" lon="6.63057">
        <ele>1032.2</ele>
        <time>2024-05-26T07:34:23Z</time>
      </trkpt>
      <trkpt lat="43.73482" lon="6.63057">
        <ele>1032.3</ele>
        <time>2024-05-26T07:34:24Z</time>
      </trkpt>
      <trkpt lat="43.73482" lon="6.63058">
        <ele>1032.5</ele>
        <time>2024-05-26T07:34:25Z</time>
      </trkpt>
      <trkpt lat="43.73482" lon="6.63058">
        <ele>1032.7</ele>
        <time>2024-05-26T07:34:26Z</time>
      </trkpt>
      <trkpt lat="43.73482" lon="6.63058">
        <ele>1032.8</ele>
        <time>2024-05-26T07:34:27Z</time>
      </trkpt>
      <trkpt lat="43.73483" lon="6.63058">
        <ele>1032.8</ele>
        <time>2024-05-26T07:34:28Z</time>
      </trkpt>
      <trkpt lat="43.73483" lon="6.63059">
        <ele>1032.8</ele>
        <time>2024-05-26T07:34:29Z</time>
      </trkpt>
      <trkpt lat="43.73484" lon="6.6306">
        <ele>1032.8</ele>
        <time>2024-05-26T07:34:30Z</time>
      </trkpt>
      <trkpt lat="43.73485" lon="6.6306">
        <ele>1032.8</ele>
        <time>2024-05-26T07:34:31Z</time>
      </trkpt>
      <trkpt lat="43.73485" lon="6.63061">
        <ele>1032.8</ele>
        <time>2024-05-26T07:34:32Z</time>
      </trkpt>
      <trkpt lat="43.73486" lon="6.63062">
        <ele>1032.9</ele>
        <time>2024-05-26T07:34:33Z</time>
      </trkpt>
      <trkpt lat="43.73486" lon="6.63063">
        <ele>1032.8</ele>
        <time>2024-05-26T07:34:34Z</time>
      </trkpt>
      <trkpt lat="43.73487" lon="6.63063">
        <ele>1032.9</ele>
        <time>2024-05-26T07:34:35Z</time>
      </trkpt>
      <trkpt lat="43.73488" lon="6.63064">
        <ele>1033.1</ele>
        <time>2024-05-26T07:34:36Z</time>
      </trkpt>
      <trkpt lat="43.73488" lon="6.63065">
        <ele>1033.2</ele>
        <time>2024-05-26T07:34:37Z</time>
      </trkpt>
      <trkpt lat="43.73489" lon="6.63066">
        <ele>1033.2</ele>
        <time>2024-05-26T07:34:38Z</time>
      </trkpt>
      <trkpt lat="43.73489" lon="6.63067">
        <ele>1033.2</ele>
        <time>2024-05-26T07:34:39Z</time>
      </trkpt>
      <trkpt lat="43.7349" lon="6.63067">
        <ele>1033.3</ele>
        <time>2024-05-26T07:34:40Z</time>
      </trkpt>
      <trkpt lat="43.7349" lon="6.63068">
        <ele>1033.5</ele>
        <time>2024-05-26T07:34:41Z</time>
      </trkpt>
      <trkpt lat="43.7349" lon="6.63068">
        <ele>1033.7</ele>
        <time>2024-05-26T07:34:42Z</time>
      </trkpt>
      <trkpt lat="43.73491" lon="6.63069">
        <ele>1033.9</ele>
        <time>2024-05-26T07:34:43Z</time>
      </trkpt>
      <trkpt lat="43.73492" lon="6.6307">
        <ele>1034.1</ele>
        <time>2024-05-26T07:34:44Z</time>
      </trkpt>
      <trkpt lat="43.73492" lon="6.63071">
        <ele>1034.1</ele>
        <time>2024-05-26T07:34:45Z</time>
      </trkpt>
      <trkpt lat="43.73493" lon="6.63072">
        <ele>1034.3</ele>
        <time>2024-05-26T07:34:46Z</time>
      </trkpt>
      <trkpt lat="43.73493" lon="6.63073">
        <ele>1034.4</ele>
        <time>2024-05-26T07:34:47Z</time>
      </trkpt>
      <trkpt lat="43.73493" lon="6.63074">
        <ele>1034.6</ele>
        <time>2024-05-26T07:34:48Z</time>
      </trkpt>
      <trkpt lat="43.73494" lon="6.63075">
        <ele>1034.7</ele>
        <time>2024-05-26T07:34:49Z</time>
      </trkpt>
      <trkpt lat="43.73494" lon="6.63076">
        <ele>1034.8</ele>
        <time>2024-05-26T07:34:50Z</time>
      </trkpt>
      <trkpt lat="43.73495" lon="6.63077">
        <ele>1035</ele>
        <time>2024-05-26T07:34:51Z</time>
      </trkpt>
      <trkpt lat="43.73495" lon="6.63078">
        <ele>1035.1</ele>
        <time>2024-05-26T07:34:52Z</time>
      </trkpt>
      <trkpt lat="43.73496" lon="6.63078">
        <ele>1035.2</ele>
        <time>2024-05-26T07:34:53Z</time>
      </trkpt>
      <trkpt lat="43.73496" lon="6.63079">
        <ele>1035.4</ele>
        <time>2024-05-26T07:34:54Z</time>
      </trkpt>
      <trkpt lat="43.73497" lon="6.6308">
        <ele>1035.5</ele>
        <time>2024-05-26T07:34:55Z</time>
      </trkpt>
      <trkpt lat="43.73497" lon="6.6308">
        <ele>1035.7</ele>
        <time>2024-05-26T07:34:56Z</time>
      </trkpt>
      <trkpt lat="43.73498" lon="6.63081">
        <ele>1035.9</ele>
        <time>2024-05-26T07:34:57Z</time>
      </trkpt>
      <trkpt lat="43.73498" lon="6.63082">
        <ele>1036.1</ele>
        <time>2024-05-26T07:34:58Z</time>
      </trkpt>
      <trkpt lat="43.73499" lon="6.63083">
        <ele>1036.3</ele>
        <time>2024-05-26T07:34:59Z</time>
      </trkpt>
      <trkpt lat="43.735" lon="6.63083">
        <ele>1036.4</ele>
        <time>2024-05-26T07:35:00Z</time>
      </trkpt>
      <trkpt lat="43.73501" lon="6.63084">
        <ele>1036.5</ele>
        <time>2024-05-26T07:35:01Z</time>
      </trkpt>
      <trkpt lat="43.73501" lon="6.63085">
        <ele>1036.8</ele>
        <time>2024-05-26T07:35:02Z</time>
      </trkpt>
      <trkpt lat="43.73501" lon="6.63086">
        <ele>1036.9</ele>
        <time>2024-05-26T07:35:03Z</time>
      </trkpt>
      <trkpt lat="43.73502" lon="6.63088">
        <ele>1037</ele>
        <time>2024-05-26T07:35:04Z</time>
      </trkpt>
      <trkpt lat="43.73503" lon="6.63088">
        <ele>1037.1</ele>
        <time>2024-05-26T07:35:05Z</time>
      </trkpt>
      <trkpt lat="43.73503" lon="6.63089">
        <ele>1037.2</ele>
        <time>2024-05-26T07:35:06Z</time>
      </trkpt>
      <trkpt lat="43.73503" lon="6.6309">
        <ele>1037.4</ele>
        <time>2024-05-26T07:35:07Z</time>
      </trkpt>
      <trkpt lat="43.73503" lon="6.63091">
        <ele>1037.4</ele>
        <time>2024-05-26T07:35:08Z</time>
      </trkpt>
      <trkpt lat="43.73503" lon="6.63092">
        <ele>1037.6</ele>
        <time>2024-05-26T07:35:09Z</time>
      </trkpt>
      <trkpt lat="43.73504" lon="6.63093">
        <ele>1037.8</ele>
        <time>2024-05-26T07:35:10Z</time>
      </trkpt>
      <trkpt lat="43.73504" lon="6.63093">
        <ele>1037.9</ele>
        <time>2024-05-26T07:35:11Z</time>
      </trkpt>
      <trkpt lat="43.73505" lon="6.63094">
        <ele>1038.1</ele>
        <time>2024-05-26T07:35:12Z</time>
      </trkpt>
      <trkpt lat="43.73505" lon="6.63097">
        <ele>1038.2</ele>
        <time>2024-05-26T07:35:13Z</time>
      </trkpt>
      <trkpt lat="43.73506" lon="6.63098">
        <ele>1038.4</ele>
        <time>2024-05-26T07:35:14Z</time>
      </trkpt>
      <trkpt lat="43.73506" lon="6.63099">
        <ele>1038.5</ele>
        <time>2024-05-26T07:35:15Z</time>
      </trkpt>
      <trkpt lat="43.73507" lon="6.63101">
        <ele>1038.7</ele>
        <time>2024-05-26T07:35:16Z</time>
      </trkpt>
      <trkpt lat="43.73508" lon="6.63102">
        <ele>1038.8</ele>
        <time>2024-05-26T07:35:17Z</time>
      </trkpt>
      <trkpt lat="43.73508" lon="6.63103">
        <ele>1038.9</ele>
        <time>2024-05-26T07:35:18Z</time>
      </trkpt>
      <trkpt lat="43.73509" lon="6.63104">
        <ele>1039</ele>
        <time>2024-05-26T07:35:19Z</time>
      </trkpt>
      <trkpt lat="43.73509" lon="6.63104">
        <ele>1039.1</ele>
        <time>2024-05-26T07:35:20Z</time>
      </trkpt>
      <trkpt lat="43.73509" lon="6.63105">
        <ele>1039.3</ele>
        <time>2024-05-26T07:35:21Z</time>
      </trkpt>
      <trkpt lat="43.7351" lon="6.63105">
        <ele>1039.4</ele>
        <time>2024-05-26T07:35:22Z</time>
      </trkpt>
      <trkpt lat="43.73511" lon="6.63106">
        <ele>1039.5</ele>
        <time>2024-05-26T07:35:23Z</time>
      </trkpt>
      <trkpt lat="43.73512" lon="6.63107">
        <ele>1039.6</ele>
        <time>2024-05-26T07:35:24Z</time>
      </trkpt>
      <trkpt lat="43.73513" lon="6.63108">
        <ele>1039.7</ele>
        <time>2024-05-26T07:35:25Z</time>
      </trkpt>
      <trkpt lat="43.73512" lon="6.63109">
        <ele>1039.8</ele>
        <time>2024-05-26T07:35:26Z</time>
      </trkpt>
      <trkpt lat="43.73513" lon="6.63109">
        <ele>1040</ele>
        <time>2024-05-26T07:35:27Z</time>
      </trkpt>
      <trkpt lat="43.73513" lon="6.6311">
        <ele>1040.1</ele>
        <time>2024-05-26T07:35:28Z</time>
      </trkpt>
      <trkpt lat="43.73514" lon="6.63111">
        <ele>1040.2</ele>
        <time>2024-05-26T07:35:29Z</time>
      </trkpt>
      <trkpt lat="43.73515" lon="6.63111">
        <ele>1040.4</ele>
        <time>2024-05-26T07:35:30Z</time>
      </trkpt>
      <trkpt lat="43.73515" lon="6.63112">
        <ele>1040.6</ele>
        <time>2024-05-26T07:35:31Z</time>
      </trkpt>
      <trkpt lat="43.73516" lon="6.63113">
        <ele>1040.7</ele>
        <time>2024-05-26T07:35:32Z</time>
      </trkpt>
      <trkpt lat="43.73516" lon="6.63113">
        <ele>1040.9</ele>
        <time>2024-05-26T07:35:33Z</time>
      </trkpt>
      <trkpt lat="43.73517" lon="6.63114">
        <ele>1041</ele>
        <time>2024-05-26T07:35:34Z</time>
      </trkpt>
      <trkpt lat="43.73517" lon="6.63115">
        <ele>1041.1</ele>
        <time>2024-05-26T07:35:35Z</time>
      </trkpt>
      <trkpt lat="43.73517" lon="6.63116">
        <ele>1041.4</ele>
        <time>2024-05-26T07:35:36Z</time>
      </trkpt>
      <trkpt lat="43.73518" lon="6.63116">
        <ele>1041.6</ele>
        <time>2024-05-26T07:35:37Z</time>
      </trkpt>
      <trkpt lat="43.73518" lon="6.63118">
        <ele>1041.8</ele>
        <time>2024-05-26T07:35:38Z</time>
      </trkpt>
      <trkpt lat="43.73518" lon="6.63119">
        <ele>1042.1</ele>
        <time>2024-05-26T07:35:39Z</time>
      </trkpt>
      <trkpt lat="43.73519" lon="6.6312">
        <ele>1042.2</ele>
        <time>2024-05-26T07:35:40Z</time>
      </trkpt>
      <trkpt lat="43.73519" lon="6.63121">
        <ele>1042.4</ele>
        <time>2024-05-26T07:35:41Z</time>
      </trkpt>
      <trkpt lat="43.73519" lon="6.63122">
        <ele>1042.5</ele>
        <time>2024-05-26T07:35:42Z</time>
      </trkpt>
      <trkpt lat="43.7352" lon="6.63123">
        <ele>1042.6</ele>
        <time>2024-05-26T07:35:43Z</time>
      </trkpt>
      <trkpt lat="43.73519" lon="6.63124">
        <ele>1042.8</ele>
        <time>2024-05-26T07:35:44Z</time>
      </trkpt>
      <trkpt lat="43.73519" lon="6.63125">
        <ele>1042.9</ele>
        <time>2024-05-26T07:35:45Z</time>
      </trkpt>
      <trkpt lat="43.73519" lon="6.63126">
        <ele>1043</ele>
        <time>2024-05-26T07:35:46Z</time>
      </trkpt>
      <trkpt lat="43.73519" lon="6.63126">
        <ele>1043.2</ele>
        <time>2024-05-26T07:35:47Z</time>
      </trkpt>
      <trkpt lat="43.73519" lon="6.63127">
        <ele>1043.4</ele>
        <time>2024-05-26T07:35:48Z</time>
      </trkpt>
      <trkpt lat="43.73519" lon="6.63128">
        <ele>1043.5</ele>
        <time>2024-05-26T07:35:49Z</time>
      </trkpt>
      <trkpt lat="43.7352" lon="6.63128">
        <ele>1043.6</ele>
        <time>2024-05-26T07:35:50Z</time>
      </trkpt>
      <trkpt lat="43.7352" lon="6.6313">
        <ele>1043.7</ele>
        <time>2024-05-26T07:35:51Z</time>
      </trkpt>
      <trkpt lat="43.7352" lon="6.63131">
        <ele>1043.9</ele>
        <time>2024-05-26T07:35:52Z</time>
      </trkpt>
      <trkpt lat="43.7352" lon="6.63132">
        <ele>1044.1</ele>
        <time>2024-05-26T07:35:53Z</time>
      </trkpt>
      <trkpt lat="43.7352" lon="6.63133">
        <ele>1044.3</ele>
        <time>2024-05-26T07:35:54Z</time>
      </trkpt>
      <trkpt lat="43.7352" lon="6.63134">
        <ele>1044.4</ele>
        <time>2024-05-26T07:35:55Z</time>
      </trkpt>
      <trkpt lat="43.7352" lon="6.63135">
        <ele>1044.6</ele>
        <time>2024-05-26T07:35:56Z</time>
      </trkpt>
      <trkpt lat="43.7352" lon="6.63137">
        <ele>1044.7</ele>
        <time>2024-05-26T07:35:57Z</time>
      </trkpt>
      <trkpt lat="43.7352" lon="6.63138">
        <ele>1044.9</ele>
        <time>2024-05-26T07:35:58Z</time>
      </trkpt>
      <trkpt lat="43.7352" lon="6.6314">
        <ele>1045.1</ele>
        <time>2024-05-26T07:35:59Z</time>
      </trkpt>
      <trkpt lat="43.7352" lon="6.63141">
        <ele>1045.3</ele>
        <time>2024-05-26T07:36:00Z</time>
      </trkpt>
      <trkpt lat="43.73521" lon="6.63142">
        <ele>1045.4</ele>
        <time>2024-05-26T07:36:01Z</time>
      </trkpt>
      <trkpt lat="43.73521" lon="6.63143">
        <ele>1045.5</ele>
        <time>2024-05-26T07:36:02Z</time>
      </trkpt>
      <trkpt lat="43.73522" lon="6.63144">
        <ele>1045.6</ele>
        <time>2024-05-26T07:36:03Z</time>
      </trkpt>
      <trkpt lat="43.73522" lon="6.63144">
        <ele>1045.7</ele>
        <time>2024-05-26T07:36:04Z</time>
      </trkpt>
      <trkpt lat="43.73522" lon="6.63145">
        <ele>1045.9</ele>
        <time>2024-05-26T07:36:05Z</time>
      </trkpt>
      <trkpt lat="43.73523" lon="6.63146">
        <ele>1046</ele>
        <time>2024-05-26T07:36:06Z</time>
      </trkpt>
      <trkpt lat="43.73523" lon="6.63147">
        <ele>1046.1</ele>
        <time>2024-05-26T07:36:07Z</time>
      </trkpt>
      <trkpt lat="43.73524" lon="6.63148">
        <ele>1046.2</ele>
        <time>2024-05-26T07:36:08Z</time>
      </trkpt>
      <trkpt lat="43.73525" lon="6.63149">
        <ele>1046.3</ele>
        <time>2024-05-26T07:36:09Z</time>
      </trkpt>
      <trkpt lat="43.73525" lon="6.6315">
        <ele>1046.4</ele>
        <time>2024-05-26T07:36:10Z</time>
      </trkpt>
      <trkpt lat="43.73525" lon="6.6315">
        <ele>1046.6</ele>
        <time>2024-05-26T07:36:11Z</time>
      </trkpt>
      <trkpt lat="43.73525" lon="6.63151">
        <ele>1046.8</ele>
        <time>2024-05-26T07:36:12Z</time>
      </trkpt>
      <trkpt lat="43.73526" lon="6.63152">
        <ele>1047</ele>
        <time>2024-05-26T07:36:13Z</time>
      </trkpt>
      <trkpt lat="43.73527" lon="6.63152">
        <ele>1047.1</ele>
        <time>2024-05-26T07:36:14Z</time>
      </trkpt>
      <trkpt lat="43.73527" lon="6.63152">
        <ele>1047.3</ele>
        <time>2024-05-26T07:36:15Z</time>
      </trkpt>
      <trkpt lat="43.73526" lon="6.63152">
        <ele>1047.5</ele>
        <time>2024-05-26T07:36:16Z</time>
      </trkpt>
      <trkpt lat="43.73526" lon="6.63152">
        <ele>1047.6</ele>
        <time>2024-05-26T07:36:17Z</time>
      </trkpt>
      <trkpt lat="43.73527" lon="6.63153">
        <ele>1047.8</ele>
        <time>2024-05-26T07:36:18Z</time>
      </trkpt>
      <trkpt lat="43.73527" lon="6.63153">
        <ele>1047.9</ele>
        <time>2024-05-26T07:36:19Z</time>
      </trkpt>
      <trkpt lat="43.73527" lon="6.63154">
        <ele>1048</ele>
        <time>2024-05-26T07:36:20Z</time>
      </trkpt>
      <trkpt lat="43.73527" lon="6.63155">
        <ele>1048.2</ele>
        <time>2024-05-26T07:36:21Z</time>
      </trkpt>
      <trkpt lat="43.73527" lon="6.63156">
        <ele>1048.4</ele>
        <time>2024-05-26T07:36:22Z</time>
      </trkpt>
      <trkpt lat="43.73527" lon="6.63157">
        <ele>1048.6</ele>
        <time>2024-05-26T07:36:23Z</time>
      </trkpt>
      <trkpt lat="43.73527" lon="6.63158">
        <ele>1048.8</ele>
        <time>2024-05-26T07:36:24Z</time>
      </trkpt>
      <trkpt lat="43.73528" lon="6.6316">
        <ele>1048.9</ele>
        <time>2024-05-26T07:36:25Z</time>
      </trkpt>
      <trkpt lat="43.73528" lon="6.6316">
        <ele>1049.1</ele>
        <time>2024-05-26T07:36:26Z</time>
      </trkpt>
      <trkpt lat="43.73528" lon="6.63161">
        <ele>1049.2</ele>
        <time>2024-05-26T07:36:27Z</time>
      </trkpt>
      <trkpt lat="43.73529" lon="6.63162">
        <ele>1049.4</ele>
        <time>2024-05-26T07:36:28Z</time>
      </trkpt>
      <trkpt lat="43.7353" lon="6.63163">
        <ele>1049.5</ele>
        <time>2024-05-26T07:36:29Z</time>
      </trkpt>
      <trkpt lat="43.7353" lon="6.63164">
        <ele>1049.7</ele>
        <time>2024-05-26T07:36:30Z</time>
      </trkpt>
      <trkpt lat="43.7353" lon="6.63165">
        <ele>1049.7</ele>
        <time>2024-05-26T07:36:31Z</time>
      </trkpt>
      <trkpt lat="43.7353" lon="6.63166">
        <ele>1049.8</ele>
        <time>2024-05-26T07:36:32Z</time>
      </trkpt>
      <trkpt lat="43.7353" lon="6.63167">
        <ele>1049.9</ele>
        <time>2024-05-26T07:36:33Z</time>
      </trkpt>
      <trkpt lat="43.7353" lon="6.63168">
        <ele>1050.1</ele>
        <time>2024-05-26T07:36:34Z</time>
      </trkpt>
      <trkpt lat="43.73531" lon="6.63169">
        <ele>1050.2</ele>
        <time>2024-05-26T07:36:35Z</time>
      </trkpt>
      <trkpt lat="43.73531" lon="6.6317">
        <ele>1050.2</ele>
        <time>2024-05-26T07:36:36Z</time>
      </trkpt>
      <trkpt lat="43.73531" lon="6.63171">
        <ele>1050.4</ele>
        <time>2024-05-26T07:36:37Z</time>
      </trkpt>
      <trkpt lat="43.73531" lon="6.63172">
        <ele>1050.6</ele>
        <time>2024-05-26T07:36:38Z</time>
      </trkpt>
      <trkpt lat="43.73531" lon="6.63172">
        <ele>1050.7</ele>
        <time>2024-05-26T07:36:39Z</time>
      </trkpt>
      <trkpt lat="43.73531" lon="6.63174">
        <ele>1050.8</ele>
        <time>2024-05-26T07:36:40Z</time>
      </trkpt>
      <trkpt lat="43.73532" lon="6.63174">
        <ele>1051</ele>
        <time>2024-05-26T07:36:41Z</time>
      </trkpt>
      <trkpt lat="43.73532" lon="6.63175">
        <ele>1051.1</ele>
        <time>2024-05-26T07:36:42Z</time>
      </trkpt>
      <trkpt lat="43.73532" lon="6.63176">
        <ele>1051.2</ele>
        <time>2024-05-26T07:36:43Z</time>
      </trkpt>
      <trkpt lat="43.73531" lon="6.63176">
        <ele>1051.3</ele>
        <time>2024-05-26T07:36:44Z</time>
      </trkpt>
      <trkpt lat="43.73531" lon="6.63177">
        <ele>1051.5</ele>
        <time>2024-05-26T07:36:45Z</time>
      </trkpt>
      <trkpt lat="43.73532" lon="6.63177">
        <ele>1051.7</ele>
        <time>2024-05-26T07:36:46Z</time>
      </trkpt>
      <trkpt lat="43.73531" lon="6.63177">
        <ele>1051.8</ele>
        <time>2024-05-26T07:36:47Z</time>
      </trkpt>
      <trkpt lat="43.73532" lon="6.63178">
        <ele>1051.9</ele>
        <time>2024-05-26T07:36:48Z</time>
      </trkpt>
      <trkpt lat="43.73532" lon="6.63179">
        <ele>1052.1</ele>
        <time>2024-05-26T07:36:49Z</time>
      </trkpt>
      <trkpt lat="43.73533" lon="6.63181">
        <ele>1052.3</ele>
        <time>2024-05-26T07:36:50Z</time>
      </trkpt>
      <trkpt lat="43.73533" lon="6.63182">
        <ele>1052.5</ele>
        <time>2024-05-26T07:36:51Z</time>
      </trkpt>
      <trkpt lat="43.73534" lon="6.63184">
        <ele>1052.7</ele>
        <time>2024-05-26T07:36:52Z</time>
      </trkpt>
      <trkpt lat="43.73534" lon="6.63185">
        <ele>1052.9</ele>
        <time>2024-05-26T07:36:53Z</time>
      </trkpt>
      <trkpt lat="43.73535" lon="6.63186">
        <ele>1053</ele>
        <time>2024-05-26T07:36:54Z</time>
      </trkpt>
      <trkpt lat="43.73536" lon="6.63188">
        <ele>1053.1</ele>
        <time>2024-05-26T07:36:55Z</time>
      </trkpt>
      <trkpt lat="43.73537" lon="6.63189">
        <ele>1053.2</ele>
        <time>2024-05-26T07:36:56Z</time>
      </trkpt>
      <trkpt lat="43.73538" lon="6.6319">
        <ele>1053.4</ele>
        <time>2024-05-26T07:36:57Z</time>
      </trkpt>
      <trkpt lat="43.7354" lon="6.63191">
        <ele>1053.6</ele>
        <time>2024-05-26T07:36:58Z</time>
      </trkpt>
      <trkpt lat="43.73541" lon="6.63192">
        <ele>1053.7</ele>
        <time>2024-05-26T07:36:59Z</time>
      </trkpt>
      <trkpt lat="43.73541" lon="6.63193">
        <ele>1053.9</ele>
        <time>2024-05-26T07:37:00Z</time>
      </trkpt>
      <trkpt lat="43.73541" lon="6.63193">
        <ele>1054.1</ele>
        <time>2024-05-26T07:37:01Z</time>
      </trkpt>
      <trkpt lat="43.73542" lon="6.63194">
        <ele>1054.4</ele>
        <time>2024-05-26T07:37:02Z</time>
      </trkpt>
      <trkpt lat="43.73542" lon="6.63195">
        <ele>1054.6</ele>
        <time>2024-05-26T07:37:03Z</time>
      </trkpt>
      <trkpt lat="43.73542" lon="6.63196">
        <ele>1054.8</ele>
        <time>2024-05-26T07:37:04Z</time>
      </trkpt>
      <trkpt lat="43.73543" lon="6.63197">
        <ele>1055.1</ele>
        <time>2024-05-26T07:37:05Z</time>
      </trkpt>
      <trkpt lat="43.73543" lon="6.63197">
        <ele>1055.3</ele>
        <time>2024-05-26T07:37:06Z</time>
      </trkpt>
      <trkpt lat="43.73544" lon="6.63198">
        <ele>1055.4</ele>
        <time>2024-05-26T07:37:07Z</time>
      </trkpt>
      <trkpt lat="43.73543" lon="6.63198">
        <ele>1055.6</ele>
        <time>2024-05-26T07:37:08Z</time>
      </trkpt>
      <trkpt lat="43.73543" lon="6.63199">
        <ele>1055.8</ele>
        <time>2024-05-26T07:37:09Z</time>
      </trkpt>
      <trkpt lat="43.73543" lon="6.63199">
        <ele>1056</ele>
        <time>2024-05-26T07:37:10Z</time>
      </trkpt>
      <trkpt lat="43.73544" lon="6.632">
        <ele>1056.2</ele>
        <time>2024-05-26T07:37:11Z</time>
      </trkpt>
      <trkpt lat="43.73544" lon="6.63201">
        <ele>1056.3</ele>
        <time>2024-05-26T07:37:12Z</time>
      </trkpt>
      <trkpt lat="43.73544" lon="6.63202">
        <ele>1056.5</ele>
        <time>2024-05-26T07:37:13Z</time>
      </trkpt>
      <trkpt lat="43.73545" lon="6.63203">
        <ele>1056.7</ele>
        <time>2024-05-26T07:37:14Z</time>
      </trkpt>
      <trkpt lat="43.73545" lon="6.63204">
        <ele>1056.9</ele>
        <time>2024-05-26T07:37:15Z</time>
      </trkpt>
      <trkpt lat="43.73545" lon="6.63204">
        <ele>1057.1</ele>
        <time>2024-05-26T07:37:16Z</time>
      </trkpt>
      <trkpt lat="43.73546" lon="6.63205">
        <ele>1057.3</ele>
        <time>2024-05-26T07:37:17Z</time>
      </trkpt>
      <trkpt lat="43.73546" lon="6.63206">
        <ele>1057.4</ele>
        <time>2024-05-26T07:37:18Z</time>
      </trkpt>
      <trkpt lat="43.73546" lon="6.63207">
        <ele>1057.5</ele>
        <time>2024-05-26T07:37:19Z</time>
      </trkpt>
      <trkpt lat="43.73546" lon="6.63208">
        <ele>1057.7</ele>
        <time>2024-05-26T07:37:20Z</time>
      </trkpt>
      <trkpt lat="43.73546" lon="6.63208">
        <ele>1057.9</ele>
        <time>2024-05-26T07:37:21Z</time>
      </trkpt>
      <trkpt lat="43.73546" lon="6.63209">
        <ele>1058</ele>
        <time>2024-05-26T07:37:22Z</time>
      </trkpt>
      <trkpt lat="43.73546" lon="6.63209">
        <ele>1058.1</ele>
        <time>2024-05-26T07:37:23Z</time>
      </trkpt>
      <trkpt lat="43.73546" lon="6.6321">
        <ele>1058.3</ele>
        <time>2024-05-26T07:37:24Z</time>
      </trkpt>
      <trkpt lat="43.73546" lon="6.63211">
        <ele>1058.5</ele>
        <time>2024-05-26T07:37:25Z</time>
      </trkpt>
      <trkpt lat="43.73546" lon="6.63212">
        <ele>1058.7</ele>
        <time>2024-05-26T07:37:26Z</time>
      </trkpt>
      <trkpt lat="43.73547" lon="6.63213">
        <ele>1058.8</ele>
        <time>2024-05-26T07:37:27Z</time>
      </trkpt>
      <trkpt lat="43.73547" lon="6.63213">
        <ele>1058.9</ele>
        <time>2024-05-26T07:37:28Z</time>
      </trkpt>
      <trkpt lat="43.73547" lon="6.63214">
        <ele>1059</ele>
        <time>2024-05-26T07:37:29Z</time>
      </trkpt>
      <trkpt lat="43.73548" lon="6.63215">
        <ele>1059.1</ele>
        <time>2024-05-26T07:37:30Z</time>
      </trkpt>
      <trkpt lat="43.73548" lon="6.63215">
        <ele>1059.2</ele>
        <time>2024-05-26T07:37:31Z</time>
      </trkpt>
      <trkpt lat="43.73549" lon="6.63217">
        <ele>1059.4</ele>
        <time>2024-05-26T07:37:32Z</time>
      </trkpt>
      <trkpt lat="43.73549" lon="6.63218">
        <ele>1059.6</ele>
        <time>2024-05-26T07:37:33Z</time>
      </trkpt>
      <trkpt lat="43.7355" lon="6.6322">
        <ele>1059.7</ele>
        <time>2024-05-26T07:37:34Z</time>
      </trkpt>
      <trkpt lat="43.73551" lon="6.6322">
        <ele>1059.9</ele>
        <time>2024-05-26T07:37:35Z</time>
      </trkpt>
      <trkpt lat="43.73552" lon="6.63221">
        <ele>1060.1</ele>
        <time>2024-05-26T07:37:36Z</time>
      </trkpt>
      <trkpt lat="43.73552" lon="6.63221">
        <ele>1060.2</ele>
        <time>2024-05-26T07:37:37Z</time>
      </trkpt>
      <trkpt lat="43.73552" lon="6.63222">
        <ele>1060.3</ele>
        <time>2024-05-26T07:37:38Z</time>
      </trkpt>
      <trkpt lat="43.73552" lon="6.63222">
        <ele>1060.4</ele>
        <time>2024-05-26T07:37:39Z</time>
      </trkpt>
      <trkpt lat="43.73552" lon="6.63222">
        <ele>1060.5</ele>
        <time>2024-05-26T07:37:40Z</time>
      </trkpt>
      <trkpt lat="43.73552" lon="6.63222">
        <ele>1060.6</ele>
        <time>2024-05-26T07:37:41Z</time>
      </trkpt>
      <trkpt lat="43.73552" lon="6.63222">
        <ele>1060.7</ele>
        <time>2024-05-26T07:37:42Z</time>
      </trkpt>
      <trkpt lat="43.73552" lon="6.63222">
        <ele>1060.8</ele>
        <time>2024-05-26T07:37:43Z</time>
      </trkpt>
      <trkpt lat="43.73552" lon="6.63222">
        <ele>1060.8</ele>
        <time>2024-05-26T07:37:44Z</time>
      </trkpt>
      <trkpt lat="43.73552" lon="6.63223">
        <ele>1060.9</ele>
        <time>2024-05-26T07:37:45Z</time>
      </trkpt>
      <trkpt lat="43.73553" lon="6.63223">
        <ele>1060.9</ele>
        <time>2024-05-26T07:37:46Z</time>
      </trkpt>
      <trkpt lat="43.73553" lon="6.63223">
        <ele>1060.9</ele>
        <time>2024-05-26T07:37:47Z</time>
      </trkpt>
      <trkpt lat="43.73552" lon="6.63223">
        <ele>1060.8</ele>
        <time>2024-05-26T07:37:48Z</time>
      </trkpt>
      <trkpt lat="43.73552" lon="6.63223">
        <ele>1060.8</ele>
        <time>2024-05-26T07:37:49Z</time>
      </trkpt>
      <trkpt lat="43.73552" lon="6.63223">
        <ele>1060.9</ele>
        <time>2024-05-26T07:37:50Z</time>
      </trkpt>
      <trkpt lat="43.73552" lon="6.63223">
        <ele>1060.9</ele>
        <time>2024-05-26T07:37:51Z</time>
      </trkpt>
      <trkpt lat="43.73552" lon="6.63223">
        <ele>1061</ele>
        <time>2024-05-26T07:37:52Z</time>
      </trkpt>
      <trkpt lat="43.73552" lon="6.63223">
        <ele>1061</ele>
        <time>2024-05-26T07:37:53Z</time>
      </trkpt>
      <trkpt lat="43.73553" lon="6.63223">
        <ele>1061</ele>
        <time>2024-05-26T07:37:54Z</time>
      </trkpt>
      <trkpt lat="43.73553" lon="6.63224">
        <ele>1061</ele>
        <time>2024-05-26T07:37:55Z</time>
      </trkpt>
      <trkpt lat="43.73553" lon="6.63224">
        <ele>1061</ele>
        <time>2024-05-26T07:37:56Z</time>
      </trkpt>
      <trkpt lat="43.73553" lon="6.63224">
        <ele>1061</ele>
        <time>2024-05-26T07:37:57Z</time>
      </trkpt>
      <trkpt lat="43.73553" lon="6.63225">
        <ele>1060.9</ele>
        <time>2024-05-26T07:37:58Z</time>
      </trkpt>
      <trkpt lat="43.73553" lon="6.63224">
        <ele>1060.9</ele>
        <time>2024-05-26T07:37:59Z</time>
      </trkpt>
      <trkpt lat="43.73552" lon="6.63225">
        <ele>1060.9</ele>
        <time>2024-05-26T07:38:00Z</time>
      </trkpt>
      <trkpt lat="43.73553" lon="6.63225">
        <ele>1060.8</ele>
        <time>2024-05-26T07:38:01Z</time>
      </trkpt>
      <trkpt lat="43.73553" lon="6.63225">
        <ele>1060.8</ele>
        <time>2024-05-26T07:38:02Z</time>
      </trkpt>
      <trkpt lat="43.73553" lon="6.63225">
        <ele>1060.8</ele>
        <time>2024-05-26T07:38:03Z</time>
      </trkpt>
      <trkpt lat="43.73553" lon="6.63225">
        <ele>1060.8</ele>
        <time>2024-05-26T07:38:04Z</time>
      </trkpt>
      <trkpt lat="43.73553" lon="6.63225">
        <ele>1060.8</ele>
        <time>2024-05-26T07:38:05Z</time>
      </trkpt>
      <trkpt lat="43.73553" lon="6.63225">
        <ele>1060.8</ele>
        <time>2024-05-26T07:38:06Z</time>
      </trkpt>
      <trkpt lat="43.73553" lon="6.63225">
        <ele>1060.8</ele>
        <time>2024-05-26T07:38:07Z</time>
      </trkpt>
      <trkpt lat="43.73553" lon="6.63226">
        <ele>1060.9</ele>
        <time>2024-05-26T07:38:08Z</time>
      </trkpt>
      <trkpt lat="43.73553" lon="6.63226">
        <ele>1060.9</ele>
        <time>2024-05-26T07:38:09Z</time>
      </trkpt>
      <trkpt lat="43.73553" lon="6.63226">
        <ele>1060.9</ele>
        <time>2024-05-26T07:38:10Z</time>
      </trkpt>
      <trkpt lat="43.73553" lon="6.63226">
        <ele>1060.9</ele>
        <time>2024-05-26T07:38:11Z</time>
      </trkpt>
      <trkpt lat="43.73553" lon="6.63226">
        <ele>1060.9</ele>
        <time>2024-05-26T07:38:12Z</time>
      </trkpt>
      <trkpt lat="43.73553" lon="6.63226">
        <ele>1061</ele>
        <time>2024-05-26T07:38:13Z</time>
      </trkpt>
      <trkpt lat="43.73553" lon="6.63227">
        <ele>1061</ele>
        <time>2024-05-26T07:38:14Z</time>
      </trkpt>
      <trkpt lat="43.73553" lon="6.63227">
        <ele>1061</ele>
        <time>2024-05-26T07:38:15Z</time>
      </trkpt>
      <trkpt lat="43.73553" lon="6.63227">
        <ele>1061</ele>
        <time>2024-05-26T07:38:16Z</time>
      </trkpt>
      <trkpt lat="43.73553" lon="6.63227">
        <ele>1061</ele>
        <time>2024-05-26T07:38:17Z</time>
      </trkpt>
      <trkpt lat="43.73553" lon="6.63227">
        <ele>1061</ele>
        <time>2024-05-26T07:38:18Z</time>
      </trkpt>
      <trkpt lat="43.73553" lon="6.63227">
        <ele>1060.9</ele>
        <time>2024-05-26T07:38:19Z</time>
      </trkpt>
      <trkpt lat="43.73553" lon="6.63227">
        <ele>1060.9</ele>
        <time>2024-05-26T07:38:20Z</time>
      </trkpt>
      <trkpt lat="43.73553" lon="6.63227">
        <ele>1061</ele>
        <time>2024-05-26T07:38:21Z</time>
      </trkpt>
      <trkpt lat="43.73553" lon="6.63227">
        <ele>1061</ele>
        <time>2024-05-26T07:38:22Z</time>
      </trkpt>
      <trkpt lat="43.73553" lon="6.63227">
        <ele>1061.1</ele>
        <time>2024-05-26T07:38:23Z</time>
      </trkpt>
      <trkpt lat="43.73553" lon="6.63227">
        <ele>1061.1</ele>
        <time>2024-05-26T07:38:24Z</time>
      </trkpt>
      <trkpt lat="43.73553" lon="6.63227">
        <ele>1061.1</ele>
        <time>2024-05-26T07:38:25Z</time>
      </trkpt>
      <trkpt lat="43.73553" lon="6.63227">
        <ele>1061.1</ele>
        <time>2024-05-26T07:38:26Z</time>
      </trkpt>
      <trkpt lat="43.73553" lon="6.63227">
        <ele>1061.1</ele>
        <time>2024-05-26T07:38:27Z</time>
      </trkpt>
      <trkpt lat="43.73553" lon="6.63227">
        <ele>1061.1</ele>
        <time>2024-05-26T07:38:28Z</time>
      </trkpt>
      <trkpt lat="43.73553" lon="6.63227">
        <ele>1061.2</ele>
        <time>2024-05-26T07:38:29Z</time>
      </trkpt>
      <trkpt lat="43.73552" lon="6.63227">
        <ele>1061.1</ele>
        <time>2024-05-26T07:38:30Z</time>
      </trkpt>
      <trkpt lat="43.73552" lon="6.63227">
        <ele>1061.1</ele>
        <time>2024-05-26T07:38:31Z</time>
      </trkpt>
      <trkpt lat="43.73552" lon="6.63227">
        <ele>1061.2</ele>
        <time>2024-05-26T07:38:32Z</time>
      </trkpt>
      <trkpt lat="43.73552" lon="6.63227">
        <ele>1061.2</ele>
        <time>2024-05-26T07:38:33Z</time>
      </trkpt>
      <trkpt lat="43.73552" lon="6.63227">
        <ele>1061.2</ele>
        <time>2024-05-26T07:38:34Z</time>
      </trkpt>
      <trkpt lat="43.73552" lon="6.63227">
        <ele>1061.2</ele>
        <time>2024-05-26T07:38:35Z</time>
      </trkpt>
      <trkpt lat="43.73552" lon="6.63227">
        <ele>1061.2</ele>
        <time>2024-05-26T07:38:36Z</time>
      </trkpt>
      <trkpt lat="43.73552" lon="6.63227">
        <ele>1061.2</ele>
        <time>2024-05-26T07:38:37Z</time>
      </trkpt>
      <trkpt lat="43.73552" lon="6.63227">
        <ele>1061.1</ele>
        <time>2024-05-26T07:38:38Z</time>
      </trkpt>
      <trkpt lat="43.73552" lon="6.63227">
        <ele>1061</ele>
        <time>2024-05-26T07:38:39Z</time>
      </trkpt>
      <trkpt lat="43.73551" lon="6.63228">
        <ele>1060.9</ele>
        <time>2024-05-26T07:38:40Z</time>
      </trkpt>
      <trkpt lat="43.73551" lon="6.63228">
        <ele>1060.9</ele>
        <time>2024-05-26T07:38:41Z</time>
      </trkpt>
      <trkpt lat="43.73551" lon="6.63228">
        <ele>1060.8</ele>
        <time>2024-05-26T07:38:42Z</time>
      </trkpt>
      <trkpt lat="43.73551" lon="6.63228">
        <ele>1060.8</ele>
        <time>2024-05-26T07:38:43Z</time>
      </trkpt>
      <trkpt lat="43.73551" lon="6.63228">
        <ele>1060.7</ele>
        <time>2024-05-26T07:38:44Z</time>
      </trkpt>
      <trkpt lat="43.73551" lon="6.63228">
        <ele>1060.7</ele>
        <time>2024-05-26T07:38:45Z</time>
      </trkpt>
      <trkpt lat="43.73551" lon="6.63228">
        <ele>1060.7</ele>
        <time>2024-05-26T07:38:46Z</time>
      </trkpt>
      <trkpt lat="43.73551" lon="6.63229">
        <ele>1060.7</ele>
        <time>2024-05-26T07:38:47Z</time>
      </trkpt>
      <trkpt lat="43.73551" lon="6.63229">
        <ele>1060.6</ele>
        <time>2024-05-26T07:38:48Z</time>
      </trkpt>
      <trkpt lat="43.73551" lon="6.63229">
        <ele>1060.7</ele>
        <time>2024-05-26T07:38:49Z</time>
      </trkpt>
      <trkpt lat="43.73551" lon="6.63229">
        <ele>1060.7</ele>
        <time>2024-05-26T07:38:50Z</time>
      </trkpt>
      <trkpt lat="43.73551" lon="6.63229">
        <ele>1060.8</ele>
        <time>2024-05-26T07:38:51Z</time>
      </trkpt>
      <trkpt lat="43.73551" lon="6.63229">
        <ele>1060.8</ele>
        <time>2024-05-26T07:38:52Z</time>
      </trkpt>
      <trkpt lat="43.73551" lon="6.6323">
        <ele>1060.8</ele>
        <time>2024-05-26T07:38:53Z</time>
      </trkpt>
      <trkpt lat="43.73551" lon="6.6323">
        <ele>1060.9</ele>
        <time>2024-05-26T07:38:54Z</time>
      </trkpt>
      <trkpt lat="43.7355" lon="6.6323">
        <ele>1060.9</ele>
        <time>2024-05-26T07:38:55Z</time>
      </trkpt>
      <trkpt lat="43.7355" lon="6.6323">
        <ele>1060.9</ele>
        <time>2024-05-26T07:38:56Z</time>
      </trkpt>
      <trkpt lat="43.7355" lon="6.6323">
        <ele>1061</ele>
        <time>2024-05-26T07:38:57Z</time>
      </trkpt>
      <trkpt lat="43.7355" lon="6.6323">
        <ele>1060.9</ele>
        <time>2024-05-26T07:38:58Z</time>
      </trkpt>
      <trkpt lat="43.7355" lon="6.6323">
        <ele>1060.9</ele>
        <time>2024-05-26T07:38:59Z</time>
      </trkpt>
      <trkpt lat="43.7355" lon="6.6323">
        <ele>1060.8</ele>
        <time>2024-05-26T07:39:00Z</time>
      </trkpt>
      <trkpt lat="43.7355" lon="6.6323">
        <ele>1060.8</ele>
        <time>2024-05-26T07:39:01Z</time>
      </trkpt>
      <trkpt lat="43.7355" lon="6.6323">
        <ele>1060.8</ele>
        <time>2024-05-26T07:39:02Z</time>
      </trkpt>
      <trkpt lat="43.7355" lon="6.6323">
        <ele>1060.8</ele>
        <time>2024-05-26T07:39:03Z</time>
      </trkpt>
      <trkpt lat="43.7355" lon="6.63231">
        <ele>1060.8</ele>
        <time>2024-05-26T07:39:04Z</time>
      </trkpt>
      <trkpt lat="43.7355" lon="6.63231">
        <ele>1060.8</ele>
        <time>2024-05-26T07:39:05Z</time>
      </trkpt>
      <trkpt lat="43.7355" lon="6.63231">
        <ele>1060.8</ele>
        <time>2024-05-26T07:39:06Z</time>
      </trkpt>
      <trkpt lat="43.7355" lon="6.63231">
        <ele>1060.8</ele>
        <time>2024-05-26T07:39:07Z</time>
      </trkpt>
      <trkpt lat="43.73549" lon="6.63231">
        <ele>1060.8</ele>
        <time>2024-05-26T07:39:08Z</time>
      </trkpt>
      <trkpt lat="43.73549" lon="6.63232">
        <ele>1060.9</ele>
        <time>2024-05-26T07:39:09Z</time>
      </trkpt>
      <trkpt lat="43.73549" lon="6.63232">
        <ele>1060.8</ele>
        <time>2024-05-26T07:39:10Z</time>
      </trkpt>
      <trkpt lat="43.73549" lon="6.63232">
        <ele>1060.7</ele>
        <time>2024-05-26T07:39:11Z</time>
      </trkpt>
      <trkpt lat="43.73549" lon="6.63232">
        <ele>1060.7</ele>
        <time>2024-05-26T07:39:12Z</time>
      </trkpt>
      <trkpt lat="43.73549" lon="6.63232">
        <ele>1060.7</ele>
        <time>2024-05-26T07:39:13Z</time>
      </trkpt>
      <trkpt lat="43.73549" lon="6.63232">
        <ele>1060.6</ele>
        <time>2024-05-26T07:39:14Z</time>
      </trkpt>
      <trkpt lat="43.73549" lon="6.63232">
        <ele>1060.6</ele>
        <time>2024-05-26T07:39:15Z</time>
      </trkpt>
      <trkpt lat="43.73549" lon="6.63232">
        <ele>1060.6</ele>
        <time>2024-05-26T07:39:16Z</time>
      </trkpt>
      <trkpt lat="43.73549" lon="6.63232">
        <ele>1060.7</ele>
        <time>2024-05-26T07:39:17Z</time>
      </trkpt>
      <trkpt lat="43.73549" lon="6.63233">
        <ele>1060.7</ele>
        <time>2024-05-26T07:39:18Z</time>
      </trkpt>
      <trkpt lat="43.7355" lon="6.63233">
        <ele>1060.7</ele>
        <time>2024-05-26T07:39:19Z</time>
      </trkpt>
      <trkpt lat="43.7355" lon="6.63232">
        <ele>1060.7</ele>
        <time>2024-05-26T07:39:20Z</time>
      </trkpt>
      <trkpt lat="43.7355" lon="6.63233">
        <ele>1060.7</ele>
        <time>2024-05-26T07:39:21Z</time>
      </trkpt>
      <trkpt lat="43.7355" lon="6.63233">
        <ele>1060.7</ele>
        <time>2024-05-26T07:39:22Z</time>
      </trkpt>
      <trkpt lat="43.7355" lon="6.63232">
        <ele>1060.7</ele>
        <time>2024-05-26T07:39:23Z</time>
      </trkpt>
      <trkpt lat="43.7355" lon="6.63232">
        <ele>1060.7</ele>
        <time>2024-05-26T07:39:24Z</time>
      </trkpt>
      <trkpt lat="43.7355" lon="6.63232">
        <ele>1060.6</ele>
        <time>2024-05-26T07:39:25Z</time>
      </trkpt>
      <trkpt lat="43.73551" lon="6.63233">
        <ele>1060.7</ele>
        <time>2024-05-26T07:39:26Z</time>
      </trkpt>
      <trkpt lat="43.73551" lon="6.63233">
        <ele>1060.6</ele>
        <time>2024-05-26T07:39:27Z</time>
      </trkpt>
      <trkpt lat="43.73552" lon="6.63234">
        <ele>1060.6</ele>
        <time>2024-05-26T07:39:28Z</time>
      </trkpt>
      <trkpt lat="43.73552" lon="6.63233">
        <ele>1060.7</ele>
        <time>2024-05-26T07:39:29Z</time>
      </trkpt>
      <trkpt lat="43.73552" lon="6.63234">
        <ele>1060.7</ele>
        <time>2024-05-26T07:39:30Z</time>
      </trkpt>
      <trkpt lat="43.73552" lon="6.63233">
        <ele>1060.8</ele>
        <time>2024-05-26T07:39:31Z</time>
      </trkpt>
      <trkpt lat="43.73553" lon="6.63233">
        <ele>1060.8</ele>
        <time>2024-05-26T07:39:32Z</time>
      </trkpt>
      <trkpt lat="43.73553" lon="6.63233">
        <ele>1060.9</ele>
        <time>2024-05-26T07:39:33Z</time>
      </trkpt>
      <trkpt lat="43.73553" lon="6.63233">
        <ele>1061</ele>
        <time>2024-05-26T07:39:34Z</time>
      </trkpt>
      <trkpt lat="43.73554" lon="6.63233">
        <ele>1061.1</ele>
        <time>2024-05-26T07:39:35Z</time>
      </trkpt>
      <trkpt lat="43.73554" lon="6.63233">
        <ele>1061.1</ele>
        <time>2024-05-26T07:39:36Z</time>
      </trkpt>
      <trkpt lat="43.73554" lon="6.63233">
        <ele>1061.1</ele>
        <time>2024-05-26T07:39:37Z</time>
      </trkpt>
      <trkpt lat="43.73554" lon="6.63234">
        <ele>1061.2</ele>
        <time>2024-05-26T07:39:38Z</time>
      </trkpt>
      <trkpt lat="43.73555" lon="6.63233">
        <ele>1061.2</ele>
        <time>2024-05-26T07:39:39Z</time>
      </trkpt>
      <trkpt lat="43.73555" lon="6.63234">
        <ele>1061.4</ele>
        <time>2024-05-26T07:39:40Z</time>
      </trkpt>
      <trkpt lat="43.73556" lon="6.63234">
        <ele>1061.6</ele>
        <time>2024-05-26T07:39:41Z</time>
      </trkpt>
      <trkpt lat="43.73556" lon="6.63235">
        <ele>1061.7</ele>
        <time>2024-05-26T07:39:42Z</time>
      </trkpt>
      <trkpt lat="43.73557" lon="6.63235">
        <ele>1061.8</ele>
        <time>2024-05-26T07:39:43Z</time>
      </trkpt>
      <trkpt lat="43.73557" lon="6.63236">
        <ele>1061.9</ele>
        <time>2024-05-26T07:39:44Z</time>
      </trkpt>
      <trkpt lat="43.73558" lon="6.63236">
        <ele>1062</ele>
        <time>2024-05-26T07:39:45Z</time>
      </trkpt>
      <trkpt lat="43.73558" lon="6.63237">
        <ele>1062.1</ele>
        <time>2024-05-26T07:39:46Z</time>
      </trkpt>
      <trkpt lat="43.73559" lon="6.63238">
        <ele>1062.2</ele>
        <time>2024-05-26T07:39:47Z</time>
      </trkpt>
      <trkpt lat="43.7356" lon="6.63238">
        <ele>1062.3</ele>
        <time>2024-05-26T07:39:48Z</time>
      </trkpt>
      <trkpt lat="43.73561" lon="6.63239">
        <ele>1062.4</ele>
        <time>2024-05-26T07:39:49Z</time>
      </trkpt>
      <trkpt lat="43.73562" lon="6.6324">
        <ele>1062.6</ele>
        <time>2024-05-26T07:39:50Z</time>
      </trkpt>
      <trkpt lat="43.73563" lon="6.63241">
        <ele>1062.7</ele>
        <time>2024-05-26T07:39:51Z</time>
      </trkpt>
      <trkpt lat="43.73563" lon="6.63241">
        <ele>1062.8</ele>
        <time>2024-05-26T07:39:52Z</time>
      </trkpt>
      <trkpt lat="43.73564" lon="6.63242">
        <ele>1063</ele>
        <time>2024-05-26T07:39:53Z</time>
      </trkpt>
      <trkpt lat="43.73565" lon="6.63242">
        <ele>1063.2</ele>
        <time>2024-05-26T07:39:54Z</time>
      </trkpt>
      <trkpt lat="43.73565" lon="6.63242">
        <ele>1063.3</ele>
        <time>2024-05-26T07:39:55Z</time>
      </trkpt>
      <trkpt lat="43.73566" lon="6.63243">
        <ele>1063.3</ele>
        <time>2024-05-26T07:39:56Z</time>
      </trkpt>
      <trkpt lat="43.73567" lon="6.63244">
        <ele>1063.4</ele>
        <time>2024-05-26T07:39:57Z</time>
      </trkpt>
      <trkpt lat="43.73568" lon="6.63245">
        <ele>1063.5</ele>
        <time>2024-05-26T07:39:58Z</time>
      </trkpt>
      <trkpt lat="43.73568" lon="6.63245">
        <ele>1063.7</ele>
        <time>2024-05-26T07:39:59Z</time>
      </trkpt>
      <trkpt lat="43.73569" lon="6.63245">
        <ele>1063.8</ele>
        <time>2024-05-26T07:40:00Z</time>
      </trkpt>
      <trkpt lat="43.7357" lon="6.63245">
        <ele>1063.9</ele>
        <time>2024-05-26T07:40:01Z</time>
      </trkpt>
      <trkpt lat="43.73571" lon="6.63244">
        <ele>1064.1</ele>
        <time>2024-05-26T07:40:02Z</time>
      </trkpt>
      <trkpt lat="43.73572" lon="6.63244">
        <ele>1064.2</ele>
        <time>2024-05-26T07:40:03Z</time>
      </trkpt>
      <trkpt lat="43.73573" lon="6.63245">
        <ele>1064.3</ele>
        <time>2024-05-26T07:40:04Z</time>
      </trkpt>
      <trkpt lat="43.73574" lon="6.63244">
        <ele>1064.4</ele>
        <time>2024-05-26T07:40:05Z</time>
      </trkpt>
      <trkpt lat="43.73575" lon="6.63245">
        <ele>1064.6</ele>
        <time>2024-05-26T07:40:06Z</time>
      </trkpt>
      <trkpt lat="43.73575" lon="6.63245">
        <ele>1064.8</ele>
        <time>2024-05-26T07:40:07Z</time>
      </trkpt>
      <trkpt lat="43.73576" lon="6.63246">
        <ele>1064.9</ele>
        <time>2024-05-26T07:40:08Z</time>
      </trkpt>
      <trkpt lat="43.73577" lon="6.63246">
        <ele>1065</ele>
        <time>2024-05-26T07:40:09Z</time>
      </trkpt>
      <trkpt lat="43.73578" lon="6.63247">
        <ele>1065.2</ele>
        <time>2024-05-26T07:40:10Z</time>
      </trkpt>
      <trkpt lat="43.73578" lon="6.63247">
        <ele>1065.5</ele>
        <time>2024-05-26T07:40:11Z</time>
      </trkpt>
      <trkpt lat="43.73579" lon="6.63247">
        <ele>1065.7</ele>
        <time>2024-05-26T07:40:12Z</time>
      </trkpt>
      <trkpt lat="43.7358" lon="6.63248">
        <ele>1065.8</ele>
        <time>2024-05-26T07:40:13Z</time>
      </trkpt>
      <trkpt lat="43.73581" lon="6.63249">
        <ele>1066</ele>
        <time>2024-05-26T07:40:14Z</time>
      </trkpt>
      <trkpt lat="43.73581" lon="6.6325">
        <ele>1066.2</ele>
        <time>2024-05-26T07:40:15Z</time>
      </trkpt>
      <trkpt lat="43.73582" lon="6.63249">
        <ele>1066.3</ele>
        <time>2024-05-26T07:40:16Z</time>
      </trkpt>
      <trkpt lat="43.73584" lon="6.63248">
        <ele>1066.5</ele>
        <time>2024-05-26T07:40:17Z</time>
      </trkpt>
      <trkpt lat="43.73586" lon="6.63248">
        <ele>1066.5</ele>
        <time>2024-05-26T07:40:18Z</time>
      </trkpt>
      <trkpt lat="43.73588" lon="6.63249">
        <ele>1066.6</ele>
        <time>2024-05-26T07:40:19Z</time>
      </trkpt>
      <trkpt lat="43.73588" lon="6.63249">
        <ele>1066.7</ele>
        <time>2024-05-26T07:40:20Z</time>
      </trkpt>
      <trkpt lat="43.7359" lon="6.63249">
        <ele>1066.8</ele>
        <time>2024-05-26T07:40:21Z</time>
      </trkpt>
      <trkpt lat="43.73591" lon="6.63249">
        <ele>1066.8</ele>
        <time>2024-05-26T07:40:22Z</time>
      </trkpt>
      <trkpt lat="43.73592" lon="6.63249">
        <ele>1066.9</ele>
        <time>2024-05-26T07:40:23Z</time>
      </trkpt>
      <trkpt lat="43.73593" lon="6.63249">
        <ele>1066.9</ele>
        <time>2024-05-26T07:40:24Z</time>
      </trkpt>
      <trkpt lat="43.73594" lon="6.63249">
        <ele>1067</ele>
        <time>2024-05-26T07:40:25Z</time>
      </trkpt>
      <trkpt lat="43.73595" lon="6.63249">
        <ele>1067.1</ele>
        <time>2024-05-26T07:40:26Z</time>
      </trkpt>
      <trkpt lat="43.73596" lon="6.63249">
        <ele>1067.2</ele>
        <time>2024-05-26T07:40:27Z</time>
      </trkpt>
      <trkpt lat="43.73598" lon="6.63249">
        <ele>1067.4</ele>
        <time>2024-05-26T07:40:28Z</time>
      </trkpt>
      <trkpt lat="43.73599" lon="6.6325">
        <ele>1067.4</ele>
        <time>2024-05-26T07:40:29Z</time>
      </trkpt>
      <trkpt lat="43.736" lon="6.63249">
        <ele>1067.5</ele>
        <time>2024-05-26T07:40:30Z</time>
      </trkpt>
      <trkpt lat="43.73601" lon="6.63249">
        <ele>1067.5</ele>
        <time>2024-05-26T07:40:31Z</time>
      </trkpt>
      <trkpt lat="43.73602" lon="6.6325">
        <ele>1067.6</ele>
        <time>2024-05-26T07:40:32Z</time>
      </trkpt>
      <trkpt lat="43.73604" lon="6.63249">
        <ele>1067.7</ele>
        <time>2024-05-26T07:40:33Z</time>
      </trkpt>
      <trkpt lat="43.73604" lon="6.6325">
        <ele>1067.8</ele>
        <time>2024-05-26T07:40:34Z</time>
      </trkpt>
      <trkpt lat="43.73605" lon="6.63249">
        <ele>1067.9</ele>
        <time>2024-05-26T07:40:35Z</time>
      </trkpt>
      <trkpt lat="43.73606" lon="6.6325">
        <ele>1068</ele>
        <time>2024-05-26T07:40:36Z</time>
      </trkpt>
      <trkpt lat="43.73607" lon="6.6325">
        <ele>1068.2</ele>
        <time>2024-05-26T07:40:37Z</time>
      </trkpt>
      <trkpt lat="43.73608" lon="6.6325">
        <ele>1068.3</ele>
        <time>2024-05-26T07:40:38Z</time>
      </trkpt>
      <trkpt lat="43.73609" lon="6.63249">
        <ele>1068.4</ele>
        <time>2024-05-26T07:40:39Z</time>
      </trkpt>
      <trkpt lat="43.7361" lon="6.63249">
        <ele>1068.5</ele>
        <time>2024-05-26T07:40:40Z</time>
      </trkpt>
      <trkpt lat="43.73611" lon="6.63249">
        <ele>1068.7</ele>
        <time>2024-05-26T07:40:41Z</time>
      </trkpt>
      <trkpt lat="43.73611" lon="6.63248">
        <ele>1068.9</ele>
        <time>2024-05-26T07:40:42Z</time>
      </trkpt>
      <trkpt lat="43.73612" lon="6.63248">
        <ele>1069</ele>
        <time>2024-05-26T07:40:43Z</time>
      </trkpt>
      <trkpt lat="43.73613" lon="6.63248">
        <ele>1069.1</ele>
        <time>2024-05-26T07:40:44Z</time>
      </trkpt>
      <trkpt lat="43.73614" lon="6.63248">
        <ele>1069.3</ele>
        <time>2024-05-26T07:40:45Z</time>
      </trkpt>
      <trkpt lat="43.73614" lon="6.63248">
        <ele>1069.3</ele>
        <time>2024-05-26T07:40:46Z</time>
      </trkpt>
      <trkpt lat="43.73615" lon="6.63248">
        <ele>1069.4</ele>
        <time>2024-05-26T07:40:47Z</time>
      </trkpt>
      <trkpt lat="43.73615" lon="6.63248">
        <ele>1069.6</ele>
        <time>2024-05-26T07:40:48Z</time>
      </trkpt>
      <trkpt lat="43.73616" lon="6.63247">
        <ele>1069.7</ele>
        <time>2024-05-26T07:40:49Z</time>
      </trkpt>
      <trkpt lat="43.73616" lon="6.63246">
        <ele>1069.8</ele>
        <time>2024-05-26T07:40:50Z</time>
      </trkpt>
      <trkpt lat="43.73617" lon="6.63245">
        <ele>1069.9</ele>
        <time>2024-05-26T07:40:51Z</time>
      </trkpt>
      <trkpt lat="43.73618" lon="6.63245">
        <ele>1070</ele>
        <time>2024-05-26T07:40:52Z</time>
      </trkpt>
      <trkpt lat="43.73619" lon="6.63245">
        <ele>1070.1</ele>
        <time>2024-05-26T07:40:53Z</time>
      </trkpt>
      <trkpt lat="43.7362" lon="6.63245">
        <ele>1070.2</ele>
        <time>2024-05-26T07:40:54Z</time>
      </trkpt>
      <trkpt lat="43.73621" lon="6.63245">
        <ele>1070.4</ele>
        <time>2024-05-26T07:40:55Z</time>
      </trkpt>
      <trkpt lat="43.73622" lon="6.63245">
        <ele>1070.5</ele>
        <time>2024-05-26T07:40:56Z</time>
      </trkpt>
      <trkpt lat="43.73623" lon="6.63245">
        <ele>1070.6</ele>
        <time>2024-05-26T07:40:57Z</time>
      </trkpt>
      <trkpt lat="43.73623" lon="6.63245">
        <ele>1070.7</ele>
        <time>2024-05-26T07:40:58Z</time>
      </trkpt>
      <trkpt lat="43.73624" lon="6.63246">
        <ele>1070.8</ele>
        <time>2024-05-26T07:40:59Z</time>
      </trkpt>
      <trkpt lat="43.73624" lon="6.63246">
        <ele>1070.9</ele>
        <time>2024-05-26T07:41:00Z</time>
      </trkpt>
      <trkpt lat="43.73625" lon="6.63246">
        <ele>1071</ele>
        <time>2024-05-26T07:41:01Z</time>
      </trkpt>
      <trkpt lat="43.73626" lon="6.63246">
        <ele>1071</ele>
        <time>2024-05-26T07:41:02Z</time>
      </trkpt>
      <trkpt lat="43.73627" lon="6.63246">
        <ele>1071.1</ele>
        <time>2024-05-26T07:41:03Z</time>
      </trkpt>
      <trkpt lat="43.73628" lon="6.63245">
        <ele>1071.3</ele>
        <time>2024-05-26T07:41:04Z</time>
      </trkpt>
      <trkpt lat="43.73628" lon="6.63244">
        <ele>1071.4</ele>
        <time>2024-05-26T07:41:05Z</time>
      </trkpt>
      <trkpt lat="43.73629" lon="6.63244">
        <ele>1071.5</ele>
        <time>2024-05-26T07:41:06Z</time>
      </trkpt>
      <trkpt lat="43.7363" lon="6.63244">
        <ele>1071.6</ele>
        <time>2024-05-26T07:41:07Z</time>
      </trkpt>
      <trkpt lat="43.73631" lon="6.63243">
        <ele>1071.7</ele>
        <time>2024-05-26T07:41:08Z</time>
      </trkpt>
      <trkpt lat="43.73633" lon="6.63243">
        <ele>1071.9</ele>
        <time>2024-05-26T07:41:09Z</time>
      </trkpt>
      <trkpt lat="43.73634" lon="6.63243">
        <ele>1071.9</ele>
        <time>2024-05-26T07:41:10Z</time>
      </trkpt>
      <trkpt lat="43.73634" lon="6.63244">
        <ele>1071.9</ele>
        <time>2024-05-26T07:41:11Z</time>
      </trkpt>
      <trkpt lat="43.73635" lon="6.63244">
        <ele>1072.1</ele>
        <time>2024-05-26T07:41:12Z</time>
      </trkpt>
      <trkpt lat="43.73636" lon="6.63244">
        <ele>1072.2</ele>
        <time>2024-05-26T07:41:13Z</time>
      </trkpt>
      <trkpt lat="43.73637" lon="6.63244">
        <ele>1072.3</ele>
        <time>2024-05-26T07:41:14Z</time>
      </trkpt>
      <trkpt lat="43.73639" lon="6.63245">
        <ele>1072.3</ele>
        <time>2024-05-26T07:41:15Z</time>
      </trkpt>
      <trkpt lat="43.7364" lon="6.63246">
        <ele>1072.4</ele>
        <time>2024-05-26T07:41:16Z</time>
      </trkpt>
      <trkpt lat="43.73641" lon="6.63247">
        <ele>1072.5</ele>
        <time>2024-05-26T07:41:17Z</time>
      </trkpt>
      <trkpt lat="43.73642" lon="6.63247">
        <ele>1072.6</ele>
        <time>2024-05-26T07:41:18Z</time>
      </trkpt>
      <trkpt lat="43.73643" lon="6.63246">
        <ele>1072.7</ele>
        <time>2024-05-26T07:41:19Z</time>
      </trkpt>
      <trkpt lat="43.73643" lon="6.63246">
        <ele>1072.8</ele>
        <time>2024-05-26T07:41:20Z</time>
      </trkpt>
      <trkpt lat="43.73644" lon="6.63246">
        <ele>1072.9</ele>
        <time>2024-05-26T07:41:21Z</time>
      </trkpt>
      <trkpt lat="43.73644" lon="6.63245">
        <ele>1073.1</ele>
        <time>2024-05-26T07:41:22Z</time>
      </trkpt>
      <trkpt lat="43.73645" lon="6.63245">
        <ele>1073.2</ele>
        <time>2024-05-26T07:41:23Z</time>
      </trkpt>
      <trkpt lat="43.73646" lon="6.63245">
        <ele>1073.3</ele>
        <time>2024-05-26T07:41:24Z</time>
      </trkpt>
      <trkpt lat="43.73647" lon="6.63245">
        <ele>1073.5</ele>
        <time>2024-05-26T07:41:25Z</time>
      </trkpt>
      <trkpt lat="43.73647" lon="6.63244">
        <ele>1073.7</ele>
        <time>2024-05-26T07:41:26Z</time>
      </trkpt>
      <trkpt lat="43.73648" lon="6.63245">
        <ele>1073.9</ele>
        <time>2024-05-26T07:41:27Z</time>
      </trkpt>
      <trkpt lat="43.73649" lon="6.63245">
        <ele>1074.1</ele>
        <time>2024-05-26T07:41:28Z</time>
      </trkpt>
      <trkpt lat="43.73649" lon="6.63245">
        <ele>1074.4</ele>
        <time>2024-05-26T07:41:29Z</time>
      </trkpt>
      <trkpt lat="43.7365" lon="6.63246">
        <ele>1074.6</ele>
        <time>2024-05-26T07:41:30Z</time>
      </trkpt>
      <trkpt lat="43.73651" lon="6.63246">
        <ele>1074.9</ele>
        <time>2024-05-26T07:41:31Z</time>
      </trkpt>
      <trkpt lat="43.73652" lon="6.63245">
        <ele>1075.2</ele>
        <time>2024-05-26T07:41:32Z</time>
      </trkpt>
      <trkpt lat="43.73653" lon="6.63245">
        <ele>1075.4</ele>
        <time>2024-05-26T07:41:33Z</time>
      </trkpt>
      <trkpt lat="43.73654" lon="6.63244">
        <ele>1075.5</ele>
        <time>2024-05-26T07:41:34Z</time>
      </trkpt>
      <trkpt lat="43.73654" lon="6.63243">
        <ele>1075.6</ele>
        <time>2024-05-26T07:41:35Z</time>
      </trkpt>
      <trkpt lat="43.73655" lon="6.63243">
        <ele>1075.7</ele>
        <time>2024-05-26T07:41:36Z</time>
      </trkpt>
      <trkpt lat="43.73656" lon="6.63243">
        <ele>1075.8</ele>
        <time>2024-05-26T07:41:37Z</time>
      </trkpt>
      <trkpt lat="43.73656" lon="6.63242">
        <ele>1076</ele>
        <time>2024-05-26T07:41:38Z</time>
      </trkpt>
      <trkpt lat="43.73656" lon="6.63242">
        <ele>1076.1</ele>
        <time>2024-05-26T07:41:39Z</time>
      </trkpt>
      <trkpt lat="43.73656" lon="6.63242">
        <ele>1076.2</ele>
        <time>2024-05-26T07:41:40Z</time>
      </trkpt>
      <trkpt lat="43.73656" lon="6.63241">
        <ele>1076.5</ele>
        <time>2024-05-26T07:41:41Z</time>
      </trkpt>
      <trkpt lat="43.73657" lon="6.63242">
        <ele>1076.6</ele>
        <time>2024-05-26T07:41:42Z</time>
      </trkpt>
      <trkpt lat="43.73658" lon="6.63242">
        <ele>1076.7</ele>
        <time>2024-05-26T07:41:43Z</time>
      </trkpt>
      <trkpt lat="43.73658" lon="6.63242">
        <ele>1076.9</ele>
        <time>2024-05-26T07:41:44Z</time>
      </trkpt>
      <trkpt lat="43.73658" lon="6.63242">
        <ele>1077.1</ele>
        <time>2024-05-26T07:41:45Z</time>
      </trkpt>
      <trkpt lat="43.73659" lon="6.63243">
        <ele>1077.3</ele>
        <time>2024-05-26T07:41:46Z</time>
      </trkpt>
      <trkpt lat="43.73659" lon="6.63243">
        <ele>1077.4</ele>
        <time>2024-05-26T07:41:47Z</time>
      </trkpt>
      <trkpt lat="43.7366" lon="6.63242">
        <ele>1077.6</ele>
        <time>2024-05-26T07:41:48Z</time>
      </trkpt>
      <trkpt lat="43.7366" lon="6.63239">
        <ele>1077.7</ele>
        <time>2024-05-26T07:41:49Z</time>
      </trkpt>
      <trkpt lat="43.7366" lon="6.6324">
        <ele>1077.9</ele>
        <time>2024-05-26T07:41:50Z</time>
      </trkpt>
      <trkpt lat="43.7366" lon="6.6324">
        <ele>1078.1</ele>
        <time>2024-05-26T07:41:51Z</time>
      </trkpt>
      <trkpt lat="43.7366" lon="6.6324">
        <ele>1078.2</ele>
        <time>2024-05-26T07:41:52Z</time>
      </trkpt>
      <trkpt lat="43.73661" lon="6.6324">
        <ele>1078.4</ele>
        <time>2024-05-26T07:41:53Z</time>
      </trkpt>
      <trkpt lat="43.73661" lon="6.6324">
        <ele>1078.6</ele>
        <time>2024-05-26T07:41:54Z</time>
      </trkpt>
      <trkpt lat="43.73662" lon="6.63241">
        <ele>1078.7</ele>
        <time>2024-05-26T07:41:55Z</time>
      </trkpt>
      <trkpt lat="43.73662" lon="6.63241">
        <ele>1078.9</ele>
        <time>2024-05-26T07:41:56Z</time>
      </trkpt>
      <trkpt lat="43.73663" lon="6.63241">
        <ele>1079.1</ele>
        <time>2024-05-26T07:41:57Z</time>
      </trkpt>
      <trkpt lat="43.73663" lon="6.63242">
        <ele>1079.3</ele>
        <time>2024-05-26T07:41:58Z</time>
      </trkpt>
      <trkpt lat="43.73663" lon="6.63241">
        <ele>1079.5</ele>
        <time>2024-05-26T07:41:59Z</time>
      </trkpt>
      <trkpt lat="43.73663" lon="6.63242">
        <ele>1079.6</ele>
        <time>2024-05-26T07:42:00Z</time>
      </trkpt>
      <trkpt lat="43.73664" lon="6.63243">
        <ele>1079.8</ele>
        <time>2024-05-26T07:42:01Z</time>
      </trkpt>
      <trkpt lat="43.73664" lon="6.63243">
        <ele>1080.1</ele>
        <time>2024-05-26T07:42:02Z</time>
      </trkpt>
      <trkpt lat="43.73665" lon="6.63243">
        <ele>1080.3</ele>
        <time>2024-05-26T07:42:03Z</time>
      </trkpt>
      <trkpt lat="43.73666" lon="6.63243">
        <ele>1080.7</ele>
        <time>2024-05-26T07:42:04Z</time>
      </trkpt>
      <trkpt lat="43.73666" lon="6.63243">
        <ele>1080.9</ele>
        <time>2024-05-26T07:42:05Z</time>
      </trkpt>
      <trkpt lat="43.73667" lon="6.63243">
        <ele>1081</ele>
        <time>2024-05-26T07:42:06Z</time>
      </trkpt>
      <trkpt lat="43.73667" lon="6.63244">
        <ele>1081.2</ele>
        <time>2024-05-26T07:42:07Z</time>
      </trkpt>
      <trkpt lat="43.73668" lon="6.63244">
        <ele>1081.4</ele>
        <time>2024-05-26T07:42:08Z</time>
      </trkpt>
      <trkpt lat="43.73668" lon="6.63244">
        <ele>1081.7</ele>
        <time>2024-05-26T07:42:09Z</time>
      </trkpt>
      <trkpt lat="43.73669" lon="6.63244">
        <ele>1081.9</ele>
        <time>2024-05-26T07:42:10Z</time>
      </trkpt>
      <trkpt lat="43.73669" lon="6.63244">
        <ele>1082.1</ele>
        <time>2024-05-26T07:42:11Z</time>
      </trkpt>
      <trkpt lat="43.7367" lon="6.63244">
        <ele>1082.3</ele>
        <time>2024-05-26T07:42:12Z</time>
      </trkpt>
      <trkpt lat="43.7367" lon="6.63244">
        <ele>1082.4</ele>
        <time>2024-05-26T07:42:13Z</time>
      </trkpt>
      <trkpt lat="43.73672" lon="6.63244">
        <ele>1082.6</ele>
        <time>2024-05-26T07:42:14Z</time>
      </trkpt>
      <trkpt lat="43.73673" lon="6.63244">
        <ele>1082.8</ele>
        <time>2024-05-26T07:42:15Z</time>
      </trkpt>
      <trkpt lat="43.73673" lon="6.63244">
        <ele>1082.9</ele>
        <time>2024-05-26T07:42:16Z</time>
      </trkpt>
      <trkpt lat="43.73673" lon="6.63245">
        <ele>1083.1</ele>
        <time>2024-05-26T07:42:17Z</time>
      </trkpt>
      <trkpt lat="43.73674" lon="6.63245">
        <ele>1083.3</ele>
        <time>2024-05-26T07:42:18Z</time>
      </trkpt>
      <trkpt lat="43.73674" lon="6.63246">
        <ele>1083.4</ele>
        <time>2024-05-26T07:42:19Z</time>
      </trkpt>
      <trkpt lat="43.73675" lon="6.63246">
        <ele>1083.5</ele>
        <time>2024-05-26T07:42:20Z</time>
      </trkpt>
      <trkpt lat="43.73675" lon="6.63246">
        <ele>1083.9</ele>
        <time>2024-05-26T07:42:21Z</time>
      </trkpt>
      <trkpt lat="43.73676" lon="6.63246">
        <ele>1084.1</ele>
        <time>2024-05-26T07:42:22Z</time>
      </trkpt>
      <trkpt lat="43.73676" lon="6.63246">
        <ele>1084.4</ele>
        <time>2024-05-26T07:42:23Z</time>
      </trkpt>
      <trkpt lat="43.73677" lon="6.63246">
        <ele>1084.5</ele>
        <time>2024-05-26T07:42:24Z</time>
      </trkpt>
      <trkpt lat="43.73677" lon="6.63246">
        <ele>1084.7</ele>
        <time>2024-05-26T07:42:25Z</time>
      </trkpt>
      <trkpt lat="43.73678" lon="6.63246">
        <ele>1084.8</ele>
        <time>2024-05-26T07:42:26Z</time>
      </trkpt>
      <trkpt lat="43.73679" lon="6.63247">
        <ele>1085</ele>
        <time>2024-05-26T07:42:27Z</time>
      </trkpt>
      <trkpt lat="43.73679" lon="6.63246">
        <ele>1085.2</ele>
        <time>2024-05-26T07:42:28Z</time>
      </trkpt>
      <trkpt lat="43.7368" lon="6.63246">
        <ele>1085.4</ele>
        <time>2024-05-26T07:42:29Z</time>
      </trkpt>
      <trkpt lat="43.7368" lon="6.63246">
        <ele>1085.6</ele>
        <time>2024-05-26T07:42:30Z</time>
      </trkpt>
      <trkpt lat="43.73681" lon="6.63245">
        <ele>1085.7</ele>
        <time>2024-05-26T07:42:31Z</time>
      </trkpt>
      <trkpt lat="43.73681" lon="6.63245">
        <ele>1085.8</ele>
        <time>2024-05-26T07:42:32Z</time>
      </trkpt>
      <trkpt lat="43.73681" lon="6.63246">
        <ele>1086</ele>
        <time>2024-05-26T07:42:33Z</time>
      </trkpt>
      <trkpt lat="43.73681" lon="6.63246">
        <ele>1086.1</ele>
        <time>2024-05-26T07:42:34Z</time>
      </trkpt>
      <trkpt lat="43.73682" lon="6.63246">
        <ele>1086.2</ele>
        <time>2024-05-26T07:42:35Z</time>
      </trkpt>
      <trkpt lat="43.73682" lon="6.63246">
        <ele>1086.3</ele>
        <time>2024-05-26T07:42:36Z</time>
      </trkpt>
      <trkpt lat="43.73682" lon="6.63247">
        <ele>1086.4</ele>
        <time>2024-05-26T07:42:37Z</time>
      </trkpt>
      <trkpt lat="43.73682" lon="6.63247">
        <ele>1086.6</ele>
        <time>2024-05-26T07:42:38Z</time>
      </trkpt>
      <trkpt lat="43.73682" lon="6.63247">
        <ele>1086.7</ele>
        <time>2024-05-26T07:42:39Z</time>
      </trkpt>
      <trkpt lat="43.73683" lon="6.63247">
        <ele>1086.8</ele>
        <time>2024-05-26T07:42:40Z</time>
      </trkpt>
      <trkpt lat="43.73684" lon="6.63247">
        <ele>1087</ele>
        <time>2024-05-26T07:42:41Z</time>
      </trkpt>
      <trkpt lat="43.73685" lon="6.63247">
        <ele>1087.2</ele>
        <time>2024-05-26T07:42:42Z</time>
      </trkpt>
      <trkpt lat="43.73685" lon="6.63248">
        <ele>1087.3</ele>
        <time>2024-05-26T07:42:43Z</time>
      </trkpt>
      <trkpt lat="43.73686" lon="6.63247">
        <ele>1087.4</ele>
        <time>2024-05-26T07:42:44Z</time>
      </trkpt>
      <trkpt lat="43.73686" lon="6.63248">
        <ele>1087.5</ele>
        <time>2024-05-26T07:42:45Z</time>
      </trkpt>
      <trkpt lat="43.73687" lon="6.63248">
        <ele>1087.7</ele>
        <time>2024-05-26T07:42:46Z</time>
      </trkpt>
      <trkpt lat="43.73688" lon="6.63248">
        <ele>1087.8</ele>
        <time>2024-05-26T07:42:47Z</time>
      </trkpt>
      <trkpt lat="43.73688" lon="6.63248">
        <ele>1088</ele>
        <time>2024-05-26T07:42:48Z</time>
      </trkpt>
      <trkpt lat="43.7369" lon="6.63249">
        <ele>1088.1</ele>
        <time>2024-05-26T07:42:49Z</time>
      </trkpt>
      <trkpt lat="43.73692" lon="6.63248">
        <ele>1088.3</ele>
        <time>2024-05-26T07:42:50Z</time>
      </trkpt>
      <trkpt lat="43.73693" lon="6.63248">
        <ele>1088.6</ele>
        <time>2024-05-26T07:42:51Z</time>
      </trkpt>
      <trkpt lat="43.73694" lon="6.63248">
        <ele>1088.8</ele>
        <time>2024-05-26T07:42:52Z</time>
      </trkpt>
      <trkpt lat="43.73696" lon="6.63247">
        <ele>1088.9</ele>
        <time>2024-05-26T07:42:53Z</time>
      </trkpt>
      <trkpt lat="43.73696" lon="6.63247">
        <ele>1089.1</ele>
        <time>2024-05-26T07:42:54Z</time>
      </trkpt>
      <trkpt lat="43.73696" lon="6.63247">
        <ele>1089.3</ele>
        <time>2024-05-26T07:42:55Z</time>
      </trkpt>
      <trkpt lat="43.73697" lon="6.63248">
        <ele>1089.6</ele>
        <time>2024-05-26T07:42:56Z</time>
      </trkpt>
      <trkpt lat="43.73698" lon="6.63249">
        <ele>1089.8</ele>
        <time>2024-05-26T07:42:57Z</time>
      </trkpt>
      <trkpt lat="43.73698" lon="6.63248">
        <ele>1089.9</ele>
        <time>2024-05-26T07:42:58Z</time>
      </trkpt>
      <trkpt lat="43.73699" lon="6.63248">
        <ele>1090.1</ele>
        <time>2024-05-26T07:42:59Z</time>
      </trkpt>
      <trkpt lat="43.73699" lon="6.63248">
        <ele>1090.2</ele>
        <time>2024-05-26T07:43:00Z</time>
      </trkpt>
      <trkpt lat="43.73699" lon="6.63248">
        <ele>1090.3</ele>
        <time>2024-05-26T07:43:01Z</time>
      </trkpt>
      <trkpt lat="43.73699" lon="6.63248">
        <ele>1090.5</ele>
        <time>2024-05-26T07:43:02Z</time>
      </trkpt>
      <trkpt lat="43.737" lon="6.63248">
        <ele>1090.7</ele>
        <time>2024-05-26T07:43:03Z</time>
      </trkpt>
      <trkpt lat="43.737" lon="6.63248">
        <ele>1090.9</ele>
        <time>2024-05-26T07:43:04Z</time>
      </trkpt>
      <trkpt lat="43.73701" lon="6.63248">
        <ele>1091</ele>
        <time>2024-05-26T07:43:05Z</time>
      </trkpt>
      <trkpt lat="43.73702" lon="6.63248">
        <ele>1091.2</ele>
        <time>2024-05-26T07:43:06Z</time>
      </trkpt>
      <trkpt lat="43.73702" lon="6.63248">
        <ele>1091.3</ele>
        <time>2024-05-26T07:43:07Z</time>
      </trkpt>
      <trkpt lat="43.73702" lon="6.63248">
        <ele>1091.4</ele>
        <time>2024-05-26T07:43:08Z</time>
      </trkpt>
      <trkpt lat="43.73701" lon="6.63248">
        <ele>1091.5</ele>
        <time>2024-05-26T07:43:09Z</time>
      </trkpt>
      <trkpt lat="43.73701" lon="6.63249">
        <ele>1091.6</ele>
        <time>2024-05-26T07:43:10Z</time>
      </trkpt>
      <trkpt lat="43.73701" lon="6.63249">
        <ele>1091.7</ele>
        <time>2024-05-26T07:43:11Z</time>
      </trkpt>
      <trkpt lat="43.73701" lon="6.63249">
        <ele>1091.8</ele>
        <time>2024-05-26T07:43:12Z</time>
      </trkpt>
      <trkpt lat="43.73702" lon="6.63249">
        <ele>1091.9</ele>
        <time>2024-05-26T07:43:13Z</time>
      </trkpt>
      <trkpt lat="43.73702" lon="6.63249">
        <ele>1092</ele>
        <time>2024-05-26T07:43:14Z</time>
      </trkpt>
      <trkpt lat="43.73703" lon="6.63249">
        <ele>1092.1</ele>
        <time>2024-05-26T07:43:15Z</time>
      </trkpt>
      <trkpt lat="43.73703" lon="6.6325">
        <ele>1092.2</ele>
        <time>2024-05-26T07:43:16Z</time>
      </trkpt>
      <trkpt lat="43.73704" lon="6.63249">
        <ele>1092.3</ele>
        <time>2024-05-26T07:43:17Z</time>
      </trkpt>
      <trkpt lat="43.73705" lon="6.63249">
        <ele>1092.4</ele>
        <time>2024-05-26T07:43:18Z</time>
      </trkpt>
      <trkpt lat="43.73706" lon="6.63248">
        <ele>1092.6</ele>
        <time>2024-05-26T07:43:19Z</time>
      </trkpt>
      <trkpt lat="43.73706" lon="6.63249">
        <ele>1092.7</ele>
        <time>2024-05-26T07:43:20Z</time>
      </trkpt>
      <trkpt lat="43.73707" lon="6.63248">
        <ele>1092.9</ele>
        <time>2024-05-26T07:43:21Z</time>
      </trkpt>
      <trkpt lat="43.73708" lon="6.63248">
        <ele>1093.1</ele>
        <time>2024-05-26T07:43:22Z</time>
      </trkpt>
      <trkpt lat="43.73708" lon="6.63249">
        <ele>1093.4</ele>
        <time>2024-05-26T07:43:23Z</time>
      </trkpt>
      <trkpt lat="43.73709" lon="6.63249">
        <ele>1093.7</ele>
        <time>2024-05-26T07:43:24Z</time>
      </trkpt>
      <trkpt lat="43.7371" lon="6.63249">
        <ele>1093.9</ele>
        <time>2024-05-26T07:43:25Z</time>
      </trkpt>
      <trkpt lat="43.73711" lon="6.63249">
        <ele>1094</ele>
        <time>2024-05-26T07:43:26Z</time>
      </trkpt>
      <trkpt lat="43.73711" lon="6.6325">
        <ele>1094.3</ele>
        <time>2024-05-26T07:43:27Z</time>
      </trkpt>
      <trkpt lat="43.73711" lon="6.6325">
        <ele>1094.5</ele>
        <time>2024-05-26T07:43:28Z</time>
      </trkpt>
      <trkpt lat="43.73711" lon="6.6325">
        <ele>1094.7</ele>
        <time>2024-05-26T07:43:29Z</time>
      </trkpt>
      <trkpt lat="43.73712" lon="6.6325">
        <ele>1094.8</ele>
        <time>2024-05-26T07:43:30Z</time>
      </trkpt>
      <trkpt lat="43.73712" lon="6.63251">
        <ele>1095</ele>
        <time>2024-05-26T07:43:31Z</time>
      </trkpt>
      <trkpt lat="43.73713" lon="6.63251">
        <ele>1095.1</ele>
        <time>2024-05-26T07:43:32Z</time>
      </trkpt>
      <trkpt lat="43.73714" lon="6.63251">
        <ele>1095.2</ele>
        <time>2024-05-26T07:43:33Z</time>
      </trkpt>
      <trkpt lat="43.73714" lon="6.63251">
        <ele>1095.3</ele>
        <time>2024-05-26T07:43:34Z</time>
      </trkpt>
      <trkpt lat="43.73714" lon="6.63251">
        <ele>1095.4</ele>
        <time>2024-05-26T07:43:35Z</time>
      </trkpt>
      <trkpt lat="43.73714" lon="6.63251">
        <ele>1095.4</ele>
        <time>2024-05-26T07:43:36Z</time>
      </trkpt>
      <trkpt lat="43.73714" lon="6.63252">
        <ele>1095.6</ele>
        <time>2024-05-26T07:43:37Z</time>
      </trkpt>
      <trkpt lat="43.73715" lon="6.63252">
        <ele>1095.7</ele>
        <time>2024-05-26T07:43:38Z</time>
      </trkpt>
      <trkpt lat="43.73716" lon="6.63252">
        <ele>1095.8</ele>
        <time>2024-05-26T07:43:39Z</time>
      </trkpt>
      <trkpt lat="43.73716" lon="6.63252">
        <ele>1095.9</ele>
        <time>2024-05-26T07:43:40Z</time>
      </trkpt>
      <trkpt lat="43.73717" lon="6.63251">
        <ele>1096.1</ele>
        <time>2024-05-26T07:43:41Z</time>
      </trkpt>
      <trkpt lat="43.73718" lon="6.6325">
        <ele>1096.3</ele>
        <time>2024-05-26T07:43:42Z</time>
      </trkpt>
      <trkpt lat="43.73718" lon="6.63249">
        <ele>1096.5</ele>
        <time>2024-05-26T07:43:43Z</time>
      </trkpt>
      <trkpt lat="43.73719" lon="6.63249">
        <ele>1096.7</ele>
        <time>2024-05-26T07:43:44Z</time>
      </trkpt>
      <trkpt lat="43.7372" lon="6.63248">
        <ele>1096.8</ele>
        <time>2024-05-26T07:43:45Z</time>
      </trkpt>
      <trkpt lat="43.73721" lon="6.63248">
        <ele>1096.9</ele>
        <time>2024-05-26T07:43:46Z</time>
      </trkpt>
      <trkpt lat="43.73722" lon="6.63247">
        <ele>1097</ele>
        <time>2024-05-26T07:43:47Z</time>
      </trkpt>
      <trkpt lat="43.73722" lon="6.63247">
        <ele>1097.1</ele>
        <time>2024-05-26T07:43:48Z</time>
      </trkpt>
      <trkpt lat="43.73723" lon="6.63247">
        <ele>1097.3</ele>
        <time>2024-05-26T07:43:49Z</time>
      </trkpt>
      <trkpt lat="43.73724" lon="6.63247">
        <ele>1097.4</ele>
        <time>2024-05-26T07:43:50Z</time>
      </trkpt>
      <trkpt lat="43.73723" lon="6.63247">
        <ele>1097.5</ele>
        <time>2024-05-26T07:43:51Z</time>
      </trkpt>
      <trkpt lat="43.73724" lon="6.63247">
        <ele>1097.7</ele>
        <time>2024-05-26T07:43:52Z</time>
      </trkpt>
      <trkpt lat="43.73725" lon="6.63246">
        <ele>1097.9</ele>
        <time>2024-05-26T07:43:53Z</time>
      </trkpt>
      <trkpt lat="43.73725" lon="6.63246">
        <ele>1098</ele>
        <time>2024-05-26T07:43:54Z</time>
      </trkpt>
      <trkpt lat="43.73725" lon="6.63246">
        <ele>1098.2</ele>
        <time>2024-05-26T07:43:55Z</time>
      </trkpt>
      <trkpt lat="43.73725" lon="6.63246">
        <ele>1098.3</ele>
        <time>2024-05-26T07:43:56Z</time>
      </trkpt>
      <trkpt lat="43.73726" lon="6.63246">
        <ele>1098.4</ele>
        <time>2024-05-26T07:43:57Z</time>
      </trkpt>
      <trkpt lat="43.73726" lon="6.63246">
        <ele>1098.5</ele>
        <time>2024-05-26T07:43:58Z</time>
      </trkpt>
      <trkpt lat="43.73728" lon="6.63245">
        <ele>1098.6</ele>
        <time>2024-05-26T07:43:59Z</time>
      </trkpt>
      <trkpt lat="43.73728" lon="6.63245">
        <ele>1098.7</ele>
        <time>2024-05-26T07:44:00Z</time>
      </trkpt>
      <trkpt lat="43.73728" lon="6.63244">
        <ele>1098.9</ele>
        <time>2024-05-26T07:44:01Z</time>
      </trkpt>
      <trkpt lat="43.73729" lon="6.63244">
        <ele>1099.1</ele>
        <time>2024-05-26T07:44:02Z</time>
      </trkpt>
      <trkpt lat="43.73729" lon="6.63244">
        <ele>1099.3</ele>
        <time>2024-05-26T07:44:03Z</time>
      </trkpt>
      <trkpt lat="43.73729" lon="6.63244">
        <ele>1099.4</ele>
        <time>2024-05-26T07:44:04Z</time>
      </trkpt>
      <trkpt lat="43.7373" lon="6.63244">
        <ele>1099.6</ele>
        <time>2024-05-26T07:44:05Z</time>
      </trkpt>
      <trkpt lat="43.73731" lon="6.63243">
        <ele>1099.7</ele>
        <time>2024-05-26T07:44:06Z</time>
      </trkpt>
      <trkpt lat="43.73731" lon="6.63243">
        <ele>1099.9</ele>
        <time>2024-05-26T07:44:07Z</time>
      </trkpt>
      <trkpt lat="43.73731" lon="6.63243">
        <ele>1100.1</ele>
        <time>2024-05-26T07:44:08Z</time>
      </trkpt>
      <trkpt lat="43.73731" lon="6.63242">
        <ele>1100.3</ele>
        <time>2024-05-26T07:44:09Z</time>
      </trkpt>
      <trkpt lat="43.73732" lon="6.63243">
        <ele>1100.4</ele>
        <time>2024-05-26T07:44:10Z</time>
      </trkpt>
      <trkpt lat="43.73733" lon="6.63243">
        <ele>1100.5</ele>
        <time>2024-05-26T07:44:11Z</time>
      </trkpt>
      <trkpt lat="43.73733" lon="6.63243">
        <ele>1100.7</ele>
        <time>2024-05-26T07:44:12Z</time>
      </trkpt>
      <trkpt lat="43.73734" lon="6.63244">
        <ele>1100.8</ele>
        <time>2024-05-26T07:44:13Z</time>
      </trkpt>
      <trkpt lat="43.73734" lon="6.63243">
        <ele>1100.9</ele>
        <time>2024-05-26T07:44:14Z</time>
      </trkpt>
      <trkpt lat="43.73734" lon="6.63243">
        <ele>1101</ele>
        <time>2024-05-26T07:44:15Z</time>
      </trkpt>
      <trkpt lat="43.73734" lon="6.63243">
        <ele>1101.2</ele>
        <time>2024-05-26T07:44:16Z</time>
      </trkpt>
      <trkpt lat="43.73734" lon="6.63244">
        <ele>1101.5</ele>
        <time>2024-05-26T07:44:17Z</time>
      </trkpt>
      <trkpt lat="43.73734" lon="6.63243">
        <ele>1101.7</ele>
        <time>2024-05-26T07:44:18Z</time>
      </trkpt>
      <trkpt lat="43.73734" lon="6.63243">
        <ele>1101.8</ele>
        <time>2024-05-26T07:44:19Z</time>
      </trkpt>
      <trkpt lat="43.73734" lon="6.63243">
        <ele>1102</ele>
        <time>2024-05-26T07:44:20Z</time>
      </trkpt>
      <trkpt lat="43.73734" lon="6.63243">
        <ele>1102.1</ele>
        <time>2024-05-26T07:44:21Z</time>
      </trkpt>
      <trkpt lat="43.73734" lon="6.63241">
        <ele>1102.3</ele>
        <time>2024-05-26T07:44:22Z</time>
      </trkpt>
      <trkpt lat="43.73734" lon="6.6324">
        <ele>1102.4</ele>
        <time>2024-05-26T07:44:23Z</time>
      </trkpt>
      <trkpt lat="43.73735" lon="6.63239">
        <ele>1102.5</ele>
        <time>2024-05-26T07:44:24Z</time>
      </trkpt>
      <trkpt lat="43.73735" lon="6.63238">
        <ele>1102.6</ele>
        <time>2024-05-26T07:44:25Z</time>
      </trkpt>
      <trkpt lat="43.73735" lon="6.63237">
        <ele>1102.7</ele>
        <time>2024-05-26T07:44:26Z</time>
      </trkpt>
      <trkpt lat="43.73736" lon="6.63237">
        <ele>1102.8</ele>
        <time>2024-05-26T07:44:27Z</time>
      </trkpt>
      <trkpt lat="43.73736" lon="6.63236">
        <ele>1102.7</ele>
        <time>2024-05-26T07:44:28Z</time>
      </trkpt>
      <trkpt lat="43.73736" lon="6.63236">
        <ele>1102.6</ele>
        <time>2024-05-26T07:44:29Z</time>
      </trkpt>
      <trkpt lat="43.73736" lon="6.63236">
        <ele>1102.7</ele>
        <time>2024-05-26T07:44:30Z</time>
      </trkpt>
      <trkpt lat="43.73736" lon="6.63236">
        <ele>1102.8</ele>
        <time>2024-05-26T07:44:31Z</time>
      </trkpt>
      <trkpt lat="43.73737" lon="6.63237">
        <ele>1103</ele>
        <time>2024-05-26T07:44:32Z</time>
      </trkpt>
      <trkpt lat="43.73736" lon="6.63237">
        <ele>1103.1</ele>
        <time>2024-05-26T07:44:33Z</time>
      </trkpt>
      <trkpt lat="43.73737" lon="6.63237">
        <ele>1103.2</ele>
        <time>2024-05-26T07:44:34Z</time>
      </trkpt>
      <trkpt lat="43.73736" lon="6.63238">
        <ele>1103.3</ele>
        <time>2024-05-26T07:44:35Z</time>
      </trkpt>
      <trkpt lat="43.73737" lon="6.63238">
        <ele>1103.3</ele>
        <time>2024-05-26T07:44:36Z</time>
      </trkpt>
      <trkpt lat="43.73737" lon="6.63239">
        <ele>1103.5</ele>
        <time>2024-05-26T07:44:37Z</time>
      </trkpt>
      <trkpt lat="43.73737" lon="6.6324">
        <ele>1103.5</ele>
        <time>2024-05-26T07:44:38Z</time>
      </trkpt>
      <trkpt lat="43.73737" lon="6.6324">
        <ele>1103.7</ele>
        <time>2024-05-26T07:44:39Z</time>
      </trkpt>
      <trkpt lat="43.73737" lon="6.6324">
        <ele>1103.9</ele>
        <time>2024-05-26T07:44:40Z</time>
      </trkpt>
      <trkpt lat="43.73737" lon="6.6324">
        <ele>1104.1</ele>
        <time>2024-05-26T07:44:41Z</time>
      </trkpt>
      <trkpt lat="43.73738" lon="6.63241">
        <ele>1104.3</ele>
        <time>2024-05-26T07:44:42Z</time>
      </trkpt>
      <trkpt lat="43.73739" lon="6.63242">
        <ele>1104.5</ele>
        <time>2024-05-26T07:44:43Z</time>
      </trkpt>
      <trkpt lat="43.7374" lon="6.63242">
        <ele>1104.6</ele>
        <time>2024-05-26T07:44:44Z</time>
      </trkpt>
      <trkpt lat="43.7374" lon="6.63243">
        <ele>1104.8</ele>
        <time>2024-05-26T07:44:45Z</time>
      </trkpt>
      <trkpt lat="43.7374" lon="6.63243">
        <ele>1105</ele>
        <time>2024-05-26T07:44:46Z</time>
      </trkpt>
      <trkpt lat="43.7374" lon="6.63244">
        <ele>1105.2</ele>
        <time>2024-05-26T07:44:47Z</time>
      </trkpt>
      <trkpt lat="43.7374" lon="6.63244">
        <ele>1105.4</ele>
        <time>2024-05-26T07:44:48Z</time>
      </trkpt>
      <trkpt lat="43.73741" lon="6.63244">
        <ele>1105.6</ele>
        <time>2024-05-26T07:44:49Z</time>
      </trkpt>
      <trkpt lat="43.73741" lon="6.63245">
        <ele>1105.8</ele>
        <time>2024-05-26T07:44:50Z</time>
      </trkpt>
      <trkpt lat="43.73742" lon="6.63246">
        <ele>1105.9</ele>
        <time>2024-05-26T07:44:51Z</time>
      </trkpt>
      <trkpt lat="43.73742" lon="6.63247">
        <ele>1106.2</ele>
        <time>2024-05-26T07:44:52Z</time>
      </trkpt>
      <trkpt lat="43.73742" lon="6.63247">
        <ele>1106.5</ele>
        <time>2024-05-26T07:44:53Z</time>
      </trkpt>
      <trkpt lat="43.73743" lon="6.63247">
        <ele>1106.6</ele>
        <time>2024-05-26T07:44:54Z</time>
      </trkpt>
      <trkpt lat="43.73743" lon="6.63247">
        <ele>1106.8</ele>
        <time>2024-05-26T07:44:55Z</time>
      </trkpt>
      <trkpt lat="43.73743" lon="6.63247">
        <ele>1106.9</ele>
        <time>2024-05-26T07:44:56Z</time>
      </trkpt>
      <trkpt lat="43.73743" lon="6.63248">
        <ele>1107</ele>
        <time>2024-05-26T07:44:57Z</time>
      </trkpt>
      <trkpt lat="43.73743" lon="6.63247">
        <ele>1107.2</ele>
        <time>2024-05-26T07:44:58Z</time>
      </trkpt>
      <trkpt lat="43.73743" lon="6.63248">
        <ele>1107.3</ele>
        <time>2024-05-26T07:44:59Z</time>
      </trkpt>
      <trkpt lat="43.73743" lon="6.63248">
        <ele>1107.5</ele>
        <time>2024-05-26T07:45:00Z</time>
      </trkpt>
      <trkpt lat="43.73743" lon="6.63249">
        <ele>1107.6</ele>
        <time>2024-05-26T07:45:01Z</time>
      </trkpt>
      <trkpt lat="43.73743" lon="6.63248">
        <ele>1107.7</ele>
        <time>2024-05-26T07:45:02Z</time>
      </trkpt>
      <trkpt lat="43.73743" lon="6.63249">
        <ele>1107.8</ele>
        <time>2024-05-26T07:45:03Z</time>
      </trkpt>
      <trkpt lat="43.73743" lon="6.63248">
        <ele>1107.9</ele>
        <time>2024-05-26T07:45:04Z</time>
      </trkpt>
      <trkpt lat="43.73744" lon="6.63249">
        <ele>1108.1</ele>
        <time>2024-05-26T07:45:05Z</time>
      </trkpt>
      <trkpt lat="43.73744" lon="6.6325">
        <ele>1108.3</ele>
        <time>2024-05-26T07:45:06Z</time>
      </trkpt>
      <trkpt lat="43.73745" lon="6.63251">
        <ele>1108.5</ele>
        <time>2024-05-26T07:45:07Z</time>
      </trkpt>
      <trkpt lat="43.73746" lon="6.63251">
        <ele>1108.7</ele>
        <time>2024-05-26T07:45:08Z</time>
      </trkpt>
      <trkpt lat="43.73747" lon="6.63252">
        <ele>1108.9</ele>
        <time>2024-05-26T07:45:09Z</time>
      </trkpt>
      <trkpt lat="43.73748" lon="6.63253">
        <ele>1109.2</ele>
        <time>2024-05-26T07:45:10Z</time>
      </trkpt>
      <trkpt lat="43.73749" lon="6.63254">
        <ele>1109.5</ele>
        <time>2024-05-26T07:45:11Z</time>
      </trkpt>
      <trkpt lat="43.7375" lon="6.63255">
        <ele>1109.7</ele>
        <time>2024-05-26T07:45:12Z</time>
      </trkpt>
      <trkpt lat="43.73751" lon="6.63256">
        <ele>1110.1</ele>
        <time>2024-05-26T07:45:13Z</time>
      </trkpt>
      <trkpt lat="43.73751" lon="6.63256">
        <ele>1110.4</ele>
        <time>2024-05-26T07:45:14Z</time>
      </trkpt>
      <trkpt lat="43.73752" lon="6.63256">
        <ele>1110.6</ele>
        <time>2024-05-26T07:45:15Z</time>
      </trkpt>
      <trkpt lat="43.73752" lon="6.63256">
        <ele>1110.8</ele>
        <time>2024-05-26T07:45:16Z</time>
      </trkpt>
      <trkpt lat="43.73752" lon="6.63256">
        <ele>1111.1</ele>
        <time>2024-05-26T07:45:17Z</time>
      </trkpt>
      <trkpt lat="43.73752" lon="6.63257">
        <ele>1111.2</ele>
        <time>2024-05-26T07:45:18Z</time>
      </trkpt>
      <trkpt lat="43.73752" lon="6.63256">
        <ele>1111.4</ele>
        <time>2024-05-26T07:45:19Z</time>
      </trkpt>
      <trkpt lat="43.73752" lon="6.63257">
        <ele>1111.5</ele>
        <time>2024-05-26T07:45:20Z</time>
      </trkpt>
      <trkpt lat="43.73752" lon="6.63258">
        <ele>1111.7</ele>
        <time>2024-05-26T07:45:21Z</time>
      </trkpt>
      <trkpt lat="43.73752" lon="6.63258">
        <ele>1111.9</ele>
        <time>2024-05-26T07:45:22Z</time>
      </trkpt>
      <trkpt lat="43.73752" lon="6.63258">
        <ele>1112.2</ele>
        <time>2024-05-26T07:45:23Z</time>
      </trkpt>
      <trkpt lat="43.73752" lon="6.63257">
        <ele>1112.4</ele>
        <time>2024-05-26T07:45:24Z</time>
      </trkpt>
      <trkpt lat="43.73753" lon="6.63258">
        <ele>1112.5</ele>
        <time>2024-05-26T07:45:25Z</time>
      </trkpt>
      <trkpt lat="43.73753" lon="6.63259">
        <ele>1112.7</ele>
        <time>2024-05-26T07:45:26Z</time>
      </trkpt>
      <trkpt lat="43.73752" lon="6.6326">
        <ele>1112.8</ele>
        <time>2024-05-26T07:45:27Z</time>
      </trkpt>
      <trkpt lat="43.73752" lon="6.6326">
        <ele>1113</ele>
        <time>2024-05-26T07:45:28Z</time>
      </trkpt>
      <trkpt lat="43.73752" lon="6.63259">
        <ele>1113.1</ele>
        <time>2024-05-26T07:45:29Z</time>
      </trkpt>
      <trkpt lat="43.73752" lon="6.63259">
        <ele>1113.2</ele>
        <time>2024-05-26T07:45:30Z</time>
      </trkpt>
      <trkpt lat="43.73752" lon="6.6326">
        <ele>1113.3</ele>
        <time>2024-05-26T07:45:31Z</time>
      </trkpt>
      <trkpt lat="43.73752" lon="6.6326">
        <ele>1113.4</ele>
        <time>2024-05-26T07:45:32Z</time>
      </trkpt>
      <trkpt lat="43.73753" lon="6.6326">
        <ele>1113.5</ele>
        <time>2024-05-26T07:45:33Z</time>
      </trkpt>
      <trkpt lat="43.73754" lon="6.63261">
        <ele>1113.6</ele>
        <time>2024-05-26T07:45:34Z</time>
      </trkpt>
      <trkpt lat="43.73754" lon="6.63261">
        <ele>1113.7</ele>
        <time>2024-05-26T07:45:35Z</time>
      </trkpt>
      <trkpt lat="43.73754" lon="6.63261">
        <ele>1113.8</ele>
        <time>2024-05-26T07:45:36Z</time>
      </trkpt>
      <trkpt lat="43.73754" lon="6.63261">
        <ele>1113.9</ele>
        <time>2024-05-26T07:45:37Z</time>
      </trkpt>
      <trkpt lat="43.73754" lon="6.63261">
        <ele>1114.1</ele>
        <time>2024-05-26T07:45:38Z</time>
      </trkpt>
      <trkpt lat="43.73753" lon="6.63262">
        <ele>1114.2</ele>
        <time>2024-05-26T07:45:39Z</time>
      </trkpt>
      <trkpt lat="43.73754" lon="6.63262">
        <ele>1114.4</ele>
        <time>2024-05-26T07:45:40Z</time>
      </trkpt>
      <trkpt lat="43.73753" lon="6.63263">
        <ele>1114.5</ele>
        <time>2024-05-26T07:45:41Z</time>
      </trkpt>
      <trkpt lat="43.73753" lon="6.63263">
        <ele>1114.6</ele>
        <time>2024-05-26T07:45:42Z</time>
      </trkpt>
      <trkpt lat="43.73753" lon="6.63263">
        <ele>1114.7</ele>
        <time>2024-05-26T07:45:43Z</time>
      </trkpt>
      <trkpt lat="43.73753" lon="6.63263">
        <ele>1114.8</ele>
        <time>2024-05-26T07:45:44Z</time>
      </trkpt>
      <trkpt lat="43.73752" lon="6.63264">
        <ele>1115</ele>
        <time>2024-05-26T07:45:45Z</time>
      </trkpt>
      <trkpt lat="43.73751" lon="6.63264">
        <ele>1115.1</ele>
        <time>2024-05-26T07:45:46Z</time>
      </trkpt>
      <trkpt lat="43.73751" lon="6.63265">
        <ele>1115.4</ele>
        <time>2024-05-26T07:45:47Z</time>
      </trkpt>
      <trkpt lat="43.73751" lon="6.63265">
        <ele>1115.4</ele>
        <time>2024-05-26T07:45:48Z</time>
      </trkpt>
      <trkpt lat="43.7375" lon="6.63265">
        <ele>1115.6</ele>
        <time>2024-05-26T07:45:49Z</time>
      </trkpt>
      <trkpt lat="43.7375" lon="6.63265">
        <ele>1115.8</ele>
        <time>2024-05-26T07:45:50Z</time>
      </trkpt>
      <trkpt lat="43.73749" lon="6.63266">
        <ele>1116</ele>
        <time>2024-05-26T07:45:51Z</time>
      </trkpt>
      <trkpt lat="43.73749" lon="6.63266">
        <ele>1116.1</ele>
        <time>2024-05-26T07:45:52Z</time>
      </trkpt>
      <trkpt lat="43.73748" lon="6.63266">
        <ele>1116.2</ele>
        <time>2024-05-26T07:45:53Z</time>
      </trkpt>
      <trkpt lat="43.73748" lon="6.63266">
        <ele>1116.4</ele>
        <time>2024-05-26T07:45:54Z</time>
      </trkpt>
      <trkpt lat="43.73748" lon="6.63266">
        <ele>1116.6</ele>
        <time>2024-05-26T07:45:55Z</time>
      </trkpt>
      <trkpt lat="43.73748" lon="6.63267">
        <ele>1116.9</ele>
        <time>2024-05-26T07:45:56Z</time>
      </trkpt>
      <trkpt lat="43.73748" lon="6.63268">
        <ele>1117.1</ele>
        <time>2024-05-26T07:45:57Z</time>
      </trkpt>
      <trkpt lat="43.73748" lon="6.63268">
        <ele>1117.2</ele>
        <time>2024-05-26T07:45:58Z</time>
      </trkpt>
      <trkpt lat="43.73748" lon="6.63269">
        <ele>1117.3</ele>
        <time>2024-05-26T07:45:59Z</time>
      </trkpt>
      <trkpt lat="43.73749" lon="6.63271">
        <ele>1117.4</ele>
        <time>2024-05-26T07:46:00Z</time>
      </trkpt>
      <trkpt lat="43.73749" lon="6.63272">
        <ele>1117.4</ele>
        <time>2024-05-26T07:46:01Z</time>
      </trkpt>
      <trkpt lat="43.73749" lon="6.63273">
        <ele>1117.6</ele>
        <time>2024-05-26T07:46:02Z</time>
      </trkpt>
      <trkpt lat="43.7375" lon="6.63274">
        <ele>1117.7</ele>
        <time>2024-05-26T07:46:03Z</time>
      </trkpt>
      <trkpt lat="43.7375" lon="6.63275">
        <ele>1117.8</ele>
        <time>2024-05-26T07:46:04Z</time>
      </trkpt>
      <trkpt lat="43.73751" lon="6.63276">
        <ele>1117.9</ele>
        <time>2024-05-26T07:46:05Z</time>
      </trkpt>
      <trkpt lat="43.73752" lon="6.63277">
        <ele>1118.1</ele>
        <time>2024-05-26T07:46:06Z</time>
      </trkpt>
      <trkpt lat="43.73752" lon="6.63278">
        <ele>1118.2</ele>
        <time>2024-05-26T07:46:07Z</time>
      </trkpt>
      <trkpt lat="43.73753" lon="6.63278">
        <ele>1118.3</ele>
        <time>2024-05-26T07:46:08Z</time>
      </trkpt>
      <trkpt lat="43.73753" lon="6.63279">
        <ele>1118.5</ele>
        <time>2024-05-26T07:46:09Z</time>
      </trkpt>
      <trkpt lat="43.73754" lon="6.63279">
        <ele>1118.6</ele>
        <time>2024-05-26T07:46:10Z</time>
      </trkpt>
      <trkpt lat="43.73755" lon="6.6328">
        <ele>1118.8</ele>
        <time>2024-05-26T07:46:11Z</time>
      </trkpt>
      <trkpt lat="43.73755" lon="6.63281">
        <ele>1119</ele>
        <time>2024-05-26T07:46:12Z</time>
      </trkpt>
      <trkpt lat="43.73756" lon="6.63282">
        <ele>1119</ele>
        <time>2024-05-26T07:46:13Z</time>
      </trkpt>
      <trkpt lat="43.73757" lon="6.63283">
        <ele>1119.2</ele>
        <time>2024-05-26T07:46:14Z</time>
      </trkpt>
      <trkpt lat="43.73758" lon="6.63283">
        <ele>1119.3</ele>
        <time>2024-05-26T07:46:15Z</time>
      </trkpt>
      <trkpt lat="43.73758" lon="6.63285">
        <ele>1119.6</ele>
        <time>2024-05-26T07:46:16Z</time>
      </trkpt>
      <trkpt lat="43.73759" lon="6.63286">
        <ele>1119.9</ele>
        <time>2024-05-26T07:46:17Z</time>
      </trkpt>
      <trkpt lat="43.7376" lon="6.63287">
        <ele>1120</ele>
        <time>2024-05-26T07:46:18Z</time>
      </trkpt>
      <trkpt lat="43.7376" lon="6.63287">
        <ele>1120.3</ele>
        <time>2024-05-26T07:46:19Z</time>
      </trkpt>
      <trkpt lat="43.73761" lon="6.63287">
        <ele>1120.4</ele>
        <time>2024-05-26T07:46:20Z</time>
      </trkpt>
      <trkpt lat="43.73762" lon="6.63287">
        <ele>1120.6</ele>
        <time>2024-05-26T07:46:21Z</time>
      </trkpt>
      <trkpt lat="43.73763" lon="6.63287">
        <ele>1120.8</ele>
        <time>2024-05-26T07:46:22Z</time>
      </trkpt>
      <trkpt lat="43.73763" lon="6.63287">
        <ele>1121</ele>
        <time>2024-05-26T07:46:23Z</time>
      </trkpt>
      <trkpt lat="43.73762" lon="6.63288">
        <ele>1121.2</ele>
        <time>2024-05-26T07:46:24Z</time>
      </trkpt>
      <trkpt lat="43.73762" lon="6.63288">
        <ele>1121.3</ele>
        <time>2024-05-26T07:46:25Z</time>
      </trkpt>
      <trkpt lat="43.73762" lon="6.63288">
        <ele>1121.4</ele>
        <time>2024-05-26T07:46:26Z</time>
      </trkpt>
      <trkpt lat="43.73762" lon="6.63289">
        <ele>1121.5</ele>
        <time>2024-05-26T07:46:27Z</time>
      </trkpt>
      <trkpt lat="43.73762" lon="6.63289">
        <ele>1121.6</ele>
        <time>2024-05-26T07:46:28Z</time>
      </trkpt>
      <trkpt lat="43.73762" lon="6.63288">
        <ele>1121.7</ele>
        <time>2024-05-26T07:46:29Z</time>
      </trkpt>
      <trkpt lat="43.73762" lon="6.63288">
        <ele>1121.8</ele>
        <time>2024-05-26T07:46:30Z</time>
      </trkpt>
      <trkpt lat="43.73762" lon="6.63288">
        <ele>1121.8</ele>
        <time>2024-05-26T07:46:31Z</time>
      </trkpt>
      <trkpt lat="43.73762" lon="6.63288">
        <ele>1121.9</ele>
        <time>2024-05-26T07:46:32Z</time>
      </trkpt>
      <trkpt lat="43.73762" lon="6.63289">
        <ele>1122</ele>
        <time>2024-05-26T07:46:33Z</time>
      </trkpt>
      <trkpt lat="43.73762" lon="6.63289">
        <ele>1122.1</ele>
        <time>2024-05-26T07:46:34Z</time>
      </trkpt>
      <trkpt lat="43.73763" lon="6.63289">
        <ele>1122.2</ele>
        <time>2024-05-26T07:46:35Z</time>
      </trkpt>
      <trkpt lat="43.73762" lon="6.63289">
        <ele>1122.4</ele>
        <time>2024-05-26T07:46:36Z</time>
      </trkpt>
      <trkpt lat="43.73763" lon="6.63289">
        <ele>1122.5</ele>
        <time>2024-05-26T07:46:37Z</time>
      </trkpt>
      <trkpt lat="43.73765" lon="6.6329">
        <ele>1122.6</ele>
        <time>2024-05-26T07:46:38Z</time>
      </trkpt>
      <trkpt lat="43.73765" lon="6.6329">
        <ele>1122.8</ele>
        <time>2024-05-26T07:46:39Z</time>
      </trkpt>
      <trkpt lat="43.73765" lon="6.63291">
        <ele>1122.9</ele>
        <time>2024-05-26T07:46:40Z</time>
      </trkpt>
      <trkpt lat="43.73766" lon="6.63291">
        <ele>1123</ele>
        <time>2024-05-26T07:46:41Z</time>
      </trkpt>
      <trkpt lat="43.73766" lon="6.63292">
        <ele>1123.1</ele>
        <time>2024-05-26T07:46:42Z</time>
      </trkpt>
      <trkpt lat="43.73767" lon="6.63292">
        <ele>1123.2</ele>
        <time>2024-05-26T07:46:43Z</time>
      </trkpt>
      <trkpt lat="43.73768" lon="6.63292">
        <ele>1123.3</ele>
        <time>2024-05-26T07:46:44Z</time>
      </trkpt>
      <trkpt lat="43.73768" lon="6.63292">
        <ele>1123.3</ele>
        <time>2024-05-26T07:46:45Z</time>
      </trkpt>
      <trkpt lat="43.73769" lon="6.63293">
        <ele>1123.4</ele>
        <time>2024-05-26T07:46:46Z</time>
      </trkpt>
      <trkpt lat="43.7377" lon="6.63294">
        <ele>1123.5</ele>
        <time>2024-05-26T07:46:47Z</time>
      </trkpt>
      <trkpt lat="43.7377" lon="6.63294">
        <ele>1123.7</ele>
        <time>2024-05-26T07:46:48Z</time>
      </trkpt>
      <trkpt lat="43.73771" lon="6.63294">
        <ele>1123.8</ele>
        <time>2024-05-26T07:46:49Z</time>
      </trkpt>
      <trkpt lat="43.73771" lon="6.63293">
        <ele>1123.9</ele>
        <time>2024-05-26T07:46:50Z</time>
      </trkpt>
      <trkpt lat="43.73772" lon="6.63293">
        <ele>1124</ele>
        <time>2024-05-26T07:46:51Z</time>
      </trkpt>
      <trkpt lat="43.73772" lon="6.63294">
        <ele>1124.2</ele>
        <time>2024-05-26T07:46:52Z</time>
      </trkpt>
      <trkpt lat="43.73773" lon="6.63294">
        <ele>1124.3</ele>
        <time>2024-05-26T07:46:53Z</time>
      </trkpt>
      <trkpt lat="43.73773" lon="6.63295">
        <ele>1124.5</ele>
        <time>2024-05-26T07:46:54Z</time>
      </trkpt>
      <trkpt lat="43.73773" lon="6.63296">
        <ele>1124.7</ele>
        <time>2024-05-26T07:46:55Z</time>
      </trkpt>
      <trkpt lat="43.73774" lon="6.63296">
        <ele>1124.8</ele>
        <time>2024-05-26T07:46:56Z</time>
      </trkpt>
      <trkpt lat="43.73774" lon="6.63297">
        <ele>1125</ele>
        <time>2024-05-26T07:46:57Z</time>
      </trkpt>
      <trkpt lat="43.73774" lon="6.63298">
        <ele>1125.2</ele>
        <time>2024-05-26T07:46:58Z</time>
      </trkpt>
      <trkpt lat="43.73775" lon="6.63298">
        <ele>1125.4</ele>
        <time>2024-05-26T07:46:59Z</time>
      </trkpt>
      <trkpt lat="43.73775" lon="6.633">
        <ele>1125.5</ele>
        <time>2024-05-26T07:47:00Z</time>
      </trkpt>
      <trkpt lat="43.73776" lon="6.633">
        <ele>1125.7</ele>
        <time>2024-05-26T07:47:01Z</time>
      </trkpt>
      <trkpt lat="43.73776" lon="6.63301">
        <ele>1125.9</ele>
        <time>2024-05-26T07:47:02Z</time>
      </trkpt>
      <trkpt lat="43.73777" lon="6.63301">
        <ele>1126.1</ele>
        <time>2024-05-26T07:47:03Z</time>
      </trkpt>
      <trkpt lat="43.73777" lon="6.63301">
        <ele>1126.3</ele>
        <time>2024-05-26T07:47:04Z</time>
      </trkpt>
      <trkpt lat="43.73777" lon="6.63302">
        <ele>1126.5</ele>
        <time>2024-05-26T07:47:05Z</time>
      </trkpt>
      <trkpt lat="43.73777" lon="6.63303">
        <ele>1126.7</ele>
        <time>2024-05-26T07:47:06Z</time>
      </trkpt>
      <trkpt lat="43.73778" lon="6.63304">
        <ele>1126.8</ele>
        <time>2024-05-26T07:47:07Z</time>
      </trkpt>
      <trkpt lat="43.73779" lon="6.63304">
        <ele>1126.9</ele>
        <time>2024-05-26T07:47:08Z</time>
      </trkpt>
      <trkpt lat="43.73779" lon="6.63305">
        <ele>1127</ele>
        <time>2024-05-26T07:47:09Z</time>
      </trkpt>
      <trkpt lat="43.73779" lon="6.63305">
        <ele>1127.2</ele>
        <time>2024-05-26T07:47:10Z</time>
      </trkpt>
      <trkpt lat="43.7378" lon="6.63306">
        <ele>1127.4</ele>
        <time>2024-05-26T07:47:11Z</time>
      </trkpt>
      <trkpt lat="43.7378" lon="6.63306">
        <ele>1127.5</ele>
        <time>2024-05-26T07:47:12Z</time>
      </trkpt>
      <trkpt lat="43.7378" lon="6.63307">
        <ele>1127.6</ele>
        <time>2024-05-26T07:47:13Z</time>
      </trkpt>
      <trkpt lat="43.7378" lon="6.63307">
        <ele>1127.8</ele>
        <time>2024-05-26T07:47:14Z</time>
      </trkpt>
      <trkpt lat="43.73781" lon="6.63308">
        <ele>1127.9</ele>
        <time>2024-05-26T07:47:15Z</time>
      </trkpt>
      <trkpt lat="43.73781" lon="6.63309">
        <ele>1128.2</ele>
        <time>2024-05-26T07:47:16Z</time>
      </trkpt>
      <trkpt lat="43.73781" lon="6.6331">
        <ele>1128.3</ele>
        <time>2024-05-26T07:47:17Z</time>
      </trkpt>
      <trkpt lat="43.73782" lon="6.6331">
        <ele>1128.5</ele>
        <time>2024-05-26T07:47:18Z</time>
      </trkpt>
      <trkpt lat="43.73782" lon="6.6331">
        <ele>1128.7</ele>
        <time>2024-05-26T07:47:19Z</time>
      </trkpt>
      <trkpt lat="43.73782" lon="6.63311">
        <ele>1128.9</ele>
        <time>2024-05-26T07:47:20Z</time>
      </trkpt>
      <trkpt lat="43.73782" lon="6.63311">
        <ele>1129</ele>
        <time>2024-05-26T07:47:21Z</time>
      </trkpt>
      <trkpt lat="43.73782" lon="6.63312">
        <ele>1129.1</ele>
        <time>2024-05-26T07:47:22Z</time>
      </trkpt>
      <trkpt lat="43.73783" lon="6.63312">
        <ele>1129.3</ele>
        <time>2024-05-26T07:47:23Z</time>
      </trkpt>
      <trkpt lat="43.73782" lon="6.63313">
        <ele>1129.4</ele>
        <time>2024-05-26T07:47:24Z</time>
      </trkpt>
      <trkpt lat="43.73783" lon="6.63313">
        <ele>1129.5</ele>
        <time>2024-05-26T07:47:25Z</time>
      </trkpt>
      <trkpt lat="43.73782" lon="6.63314">
        <ele>1129.8</ele>
        <time>2024-05-26T07:47:26Z</time>
      </trkpt>
      <trkpt lat="43.73782" lon="6.63315">
        <ele>1130</ele>
        <time>2024-05-26T07:47:27Z</time>
      </trkpt>
      <trkpt lat="43.73783" lon="6.63315">
        <ele>1130.1</ele>
        <time>2024-05-26T07:47:28Z</time>
      </trkpt>
      <trkpt lat="43.73783" lon="6.63315">
        <ele>1130.2</ele>
        <time>2024-05-26T07:47:29Z</time>
      </trkpt>
      <trkpt lat="43.73784" lon="6.63315">
        <ele>1130.4</ele>
        <time>2024-05-26T07:47:30Z</time>
      </trkpt>
      <trkpt lat="43.73784" lon="6.63315">
        <ele>1130.7</ele>
        <time>2024-05-26T07:47:31Z</time>
      </trkpt>
      <trkpt lat="43.73785" lon="6.63315">
        <ele>1131.1</ele>
        <time>2024-05-26T07:47:32Z</time>
      </trkpt>
      <trkpt lat="43.73785" lon="6.63315">
        <ele>1131.3</ele>
        <time>2024-05-26T07:47:33Z</time>
      </trkpt>
      <trkpt lat="43.73784" lon="6.63315">
        <ele>1131.6</ele>
        <time>2024-05-26T07:47:34Z</time>
      </trkpt>
      <trkpt lat="43.73785" lon="6.63315">
        <ele>1131.8</ele>
        <time>2024-05-26T07:47:35Z</time>
      </trkpt>
      <trkpt lat="43.73784" lon="6.63315">
        <ele>1132</ele>
        <time>2024-05-26T07:47:36Z</time>
      </trkpt>
      <trkpt lat="43.73784" lon="6.63315">
        <ele>1132.2</ele>
        <time>2024-05-26T07:47:37Z</time>
      </trkpt>
      <trkpt lat="43.73784" lon="6.63315">
        <ele>1132.4</ele>
        <time>2024-05-26T07:47:38Z</time>
      </trkpt>
      <trkpt lat="43.73784" lon="6.63315">
        <ele>1132.5</ele>
        <time>2024-05-26T07:47:39Z</time>
      </trkpt>
      <trkpt lat="43.73784" lon="6.63315">
        <ele>1132.6</ele>
        <time>2024-05-26T07:47:40Z</time>
      </trkpt>
      <trkpt lat="43.73783" lon="6.63314">
        <ele>1132.7</ele>
        <time>2024-05-26T07:47:41Z</time>
      </trkpt>
      <trkpt lat="43.73783" lon="6.63315">
        <ele>1132.8</ele>
        <time>2024-05-26T07:47:42Z</time>
      </trkpt>
      <trkpt lat="43.73783" lon="6.63315">
        <ele>1132.9</ele>
        <time>2024-05-26T07:47:43Z</time>
      </trkpt>
      <trkpt lat="43.73783" lon="6.63315">
        <ele>1133.1</ele>
        <time>2024-05-26T07:47:44Z</time>
      </trkpt>
      <trkpt lat="43.73783" lon="6.63316">
        <ele>1133.2</ele>
        <time>2024-05-26T07:47:45Z</time>
      </trkpt>
      <trkpt lat="43.73783" lon="6.63316">
        <ele>1133.3</ele>
        <time>2024-05-26T07:47:46Z</time>
      </trkpt>
      <trkpt lat="43.73783" lon="6.63316">
        <ele>1133.4</ele>
        <time>2024-05-26T07:47:47Z</time>
      </trkpt>
      <trkpt lat="43.73783" lon="6.63316">
        <ele>1133.6</ele>
        <time>2024-05-26T07:47:48Z</time>
      </trkpt>
      <trkpt lat="43.73782" lon="6.63316">
        <ele>1133.7</ele>
        <time>2024-05-26T07:47:49Z</time>
      </trkpt>
      <trkpt lat="43.73783" lon="6.63317">
        <ele>1133.8</ele>
        <time>2024-05-26T07:47:50Z</time>
      </trkpt>
      <trkpt lat="43.73783" lon="6.63317">
        <ele>1133.9</ele>
        <time>2024-05-26T07:47:51Z</time>
      </trkpt>
      <trkpt lat="43.73783" lon="6.63317">
        <ele>1134</ele>
        <time>2024-05-26T07:47:52Z</time>
      </trkpt>
      <trkpt lat="43.73783" lon="6.63317">
        <ele>1134.2</ele>
        <time>2024-05-26T07:47:53Z</time>
      </trkpt>
      <trkpt lat="43.73783" lon="6.63318">
        <ele>1134.3</ele>
        <time>2024-05-26T07:47:54Z</time>
      </trkpt>
      <trkpt lat="43.73784" lon="6.63319">
        <ele>1134.5</ele>
        <time>2024-05-26T07:47:55Z</time>
      </trkpt>
      <trkpt lat="43.73784" lon="6.63319">
        <ele>1134.6</ele>
        <time>2024-05-26T07:47:56Z</time>
      </trkpt>
      <trkpt lat="43.73783" lon="6.6332">
        <ele>1134.8</ele>
        <time>2024-05-26T07:47:57Z</time>
      </trkpt>
      <trkpt lat="43.73783" lon="6.6332">
        <ele>1134.9</ele>
        <time>2024-05-26T07:47:58Z</time>
      </trkpt>
      <trkpt lat="43.73784" lon="6.6332">
        <ele>1134.9</ele>
        <time>2024-05-26T07:47:59Z</time>
      </trkpt>
      <trkpt lat="43.73783" lon="6.6332">
        <ele>1135.1</ele>
        <time>2024-05-26T07:48:00Z</time>
      </trkpt>
      <trkpt lat="43.73783" lon="6.63321">
        <ele>1135.3</ele>
        <time>2024-05-26T07:48:01Z</time>
      </trkpt>
      <trkpt lat="43.73783" lon="6.63321">
        <ele>1135.6</ele>
        <time>2024-05-26T07:48:02Z</time>
      </trkpt>
      <trkpt lat="43.73783" lon="6.63321">
        <ele>1135.8</ele>
        <time>2024-05-26T07:48:03Z</time>
      </trkpt>
      <trkpt lat="43.73783" lon="6.63321">
        <ele>1136</ele>
        <time>2024-05-26T07:48:04Z</time>
      </trkpt>
      <trkpt lat="43.73783" lon="6.63322">
        <ele>1136.1</ele>
        <time>2024-05-26T07:48:05Z</time>
      </trkpt>
      <trkpt lat="43.73783" lon="6.63322">
        <ele>1136.2</ele>
        <time>2024-05-26T07:48:06Z</time>
      </trkpt>
      <trkpt lat="43.73783" lon="6.63322">
        <ele>1136.3</ele>
        <time>2024-05-26T07:48:07Z</time>
      </trkpt>
      <trkpt lat="43.73783" lon="6.63322">
        <ele>1136.3</ele>
        <time>2024-05-26T07:48:08Z</time>
      </trkpt>
      <trkpt lat="43.73783" lon="6.63323">
        <ele>1136.4</ele>
        <time>2024-05-26T07:48:09Z</time>
      </trkpt>
      <trkpt lat="43.73783" lon="6.63323">
        <ele>1136.5</ele>
        <time>2024-05-26T07:48:10Z</time>
      </trkpt>
      <trkpt lat="43.73783" lon="6.63324">
        <ele>1136.7</ele>
        <time>2024-05-26T07:48:11Z</time>
      </trkpt>
      <trkpt lat="43.73783" lon="6.63324">
        <ele>1136.8</ele>
        <time>2024-05-26T07:48:12Z</time>
      </trkpt>
      <trkpt lat="43.73783" lon="6.63324">
        <ele>1137</ele>
        <time>2024-05-26T07:48:13Z</time>
      </trkpt>
      <trkpt lat="43.73783" lon="6.63325">
        <ele>1137</ele>
        <time>2024-05-26T07:48:14Z</time>
      </trkpt>
      <trkpt lat="43.73783" lon="6.63325">
        <ele>1137.2</ele>
        <time>2024-05-26T07:48:15Z</time>
      </trkpt>
      <trkpt lat="43.73783" lon="6.63325">
        <ele>1137.2</ele>
        <time>2024-05-26T07:48:16Z</time>
      </trkpt>
      <trkpt lat="43.73784" lon="6.63326">
        <ele>1137.3</ele>
        <time>2024-05-26T07:48:17Z</time>
      </trkpt>
      <trkpt lat="43.73784" lon="6.63326">
        <ele>1137.4</ele>
        <time>2024-05-26T07:48:18Z</time>
      </trkpt>
      <trkpt lat="43.73784" lon="6.63327">
        <ele>1137.4</ele>
        <time>2024-05-26T07:48:19Z</time>
      </trkpt>
      <trkpt lat="43.73784" lon="6.63327">
        <ele>1137.5</ele>
        <time>2024-05-26T07:48:20Z</time>
      </trkpt>
      <trkpt lat="43.73784" lon="6.63327">
        <ele>1137.6</ele>
        <time>2024-05-26T07:48:21Z</time>
      </trkpt>
      <trkpt lat="43.73784" lon="6.63327">
        <ele>1137.6</ele>
        <time>2024-05-26T07:48:22Z</time>
      </trkpt>
      <trkpt lat="43.73784" lon="6.63326">
        <ele>1137.7</ele>
        <time>2024-05-26T07:48:23Z</time>
      </trkpt>
      <trkpt lat="43.73784" lon="6.63327">
        <ele>1137.8</ele>
        <time>2024-05-26T07:48:24Z</time>
      </trkpt>
      <trkpt lat="43.73784" lon="6.63327">
        <ele>1137.9</ele>
        <time>2024-05-26T07:48:25Z</time>
      </trkpt>
      <trkpt lat="43.73784" lon="6.63326">
        <ele>1137.9</ele>
        <time>2024-05-26T07:48:26Z</time>
      </trkpt>
      <trkpt lat="43.73783" lon="6.63327">
        <ele>1138.1</ele>
        <time>2024-05-26T07:48:27Z</time>
      </trkpt>
      <trkpt lat="43.73783" lon="6.63327">
        <ele>1138.2</ele>
        <time>2024-05-26T07:48:28Z</time>
      </trkpt>
      <trkpt lat="43.73783" lon="6.63328">
        <ele>1138.3</ele>
        <time>2024-05-26T07:48:29Z</time>
      </trkpt>
      <trkpt lat="43.73783" lon="6.63329">
        <ele>1138.4</ele>
        <time>2024-05-26T07:48:30Z</time>
      </trkpt>
      <trkpt lat="43.73783" lon="6.63329">
        <ele>1138.6</ele>
        <time>2024-05-26T07:48:31Z</time>
      </trkpt>
      <trkpt lat="43.73783" lon="6.63329">
        <ele>1138.8</ele>
        <time>2024-05-26T07:48:32Z</time>
      </trkpt>
      <trkpt lat="43.73783" lon="6.6333">
        <ele>1138.9</ele>
        <time>2024-05-26T07:48:33Z</time>
      </trkpt>
      <trkpt lat="43.73784" lon="6.63331">
        <ele>1139.2</ele>
        <time>2024-05-26T07:48:34Z</time>
      </trkpt>
      <trkpt lat="43.73783" lon="6.63331">
        <ele>1139.4</ele>
        <time>2024-05-26T07:48:35Z</time>
      </trkpt>
      <trkpt lat="43.73783" lon="6.63331">
        <ele>1139.5</ele>
        <time>2024-05-26T07:48:36Z</time>
      </trkpt>
      <trkpt lat="43.73782" lon="6.63332">
        <ele>1139.7</ele>
        <time>2024-05-26T07:48:37Z</time>
      </trkpt>
      <trkpt lat="43.73783" lon="6.63333">
        <ele>1139.8</ele>
        <time>2024-05-26T07:48:38Z</time>
      </trkpt>
      <trkpt lat="43.73783" lon="6.63334">
        <ele>1140</ele>
        <time>2024-05-26T07:48:39Z</time>
      </trkpt>
      <trkpt lat="43.73783" lon="6.63334">
        <ele>1140.2</ele>
        <time>2024-05-26T07:48:40Z</time>
      </trkpt>
      <trkpt lat="43.73783" lon="6.63335">
        <ele>1140.4</ele>
        <time>2024-05-26T07:48:41Z</time>
      </trkpt>
      <trkpt lat="43.73784" lon="6.63336">
        <ele>1140.5</ele>
        <time>2024-05-26T07:48:42Z</time>
      </trkpt>
      <trkpt lat="43.73784" lon="6.63336">
        <ele>1140.7</ele>
        <time>2024-05-26T07:48:43Z</time>
      </trkpt>
      <trkpt lat="43.73784" lon="6.63336">
        <ele>1140.9</ele>
        <time>2024-05-26T07:48:44Z</time>
      </trkpt>
      <trkpt lat="43.73784" lon="6.63336">
        <ele>1141</ele>
        <time>2024-05-26T07:48:45Z</time>
      </trkpt>
      <trkpt lat="43.73784" lon="6.63336">
        <ele>1141.1</ele>
        <time>2024-05-26T07:48:46Z</time>
      </trkpt>
      <trkpt lat="43.73784" lon="6.63337">
        <ele>1141.2</ele>
        <time>2024-05-26T07:48:47Z</time>
      </trkpt>
      <trkpt lat="43.73785" lon="6.63337">
        <ele>1141.3</ele>
        <time>2024-05-26T07:48:48Z</time>
      </trkpt>
      <trkpt lat="43.73785" lon="6.63337">
        <ele>1141.5</ele>
        <time>2024-05-26T07:48:49Z</time>
      </trkpt>
      <trkpt lat="43.73785" lon="6.63338">
        <ele>1141.6</ele>
        <time>2024-05-26T07:48:50Z</time>
      </trkpt>
      <trkpt lat="43.73785" lon="6.63338">
        <ele>1141.8</ele>
        <time>2024-05-26T07:48:51Z</time>
      </trkpt>
      <trkpt lat="43.73785" lon="6.63339">
        <ele>1142.1</ele>
        <time>2024-05-26T07:48:52Z</time>
      </trkpt>
      <trkpt lat="43.73785" lon="6.63339">
        <ele>1142.3</ele>
        <time>2024-05-26T07:48:53Z</time>
      </trkpt>
      <trkpt lat="43.73785" lon="6.6334">
        <ele>1142.5</ele>
        <time>2024-05-26T07:48:54Z</time>
      </trkpt>
      <trkpt lat="43.73785" lon="6.6334">
        <ele>1142.6</ele>
        <time>2024-05-26T07:48:55Z</time>
      </trkpt>
      <trkpt lat="43.73785" lon="6.6334">
        <ele>1142.6</ele>
        <time>2024-05-26T07:48:56Z</time>
      </trkpt>
      <trkpt lat="43.73786" lon="6.6334">
        <ele>1142.6</ele>
        <time>2024-05-26T07:48:57Z</time>
      </trkpt>
      <trkpt lat="43.73785" lon="6.6334">
        <ele>1142.6</ele>
        <time>2024-05-26T07:48:58Z</time>
      </trkpt>
      <trkpt lat="43.73786" lon="6.6334">
        <ele>1142.6</ele>
        <time>2024-05-26T07:48:59Z</time>
      </trkpt>
      <trkpt lat="43.73786" lon="6.63341">
        <ele>1142.7</ele>
        <time>2024-05-26T07:49:00Z</time>
      </trkpt>
      <trkpt lat="43.73786" lon="6.63341">
        <ele>1142.8</ele>
        <time>2024-05-26T07:49:01Z</time>
      </trkpt>
      <trkpt lat="43.73786" lon="6.63342">
        <ele>1143</ele>
        <time>2024-05-26T07:49:02Z</time>
      </trkpt>
      <trkpt lat="43.73786" lon="6.63342">
        <ele>1143.1</ele>
        <time>2024-05-26T07:49:03Z</time>
      </trkpt>
      <trkpt lat="43.73786" lon="6.63342">
        <ele>1143.3</ele>
        <time>2024-05-26T07:49:04Z</time>
      </trkpt>
      <trkpt lat="43.73785" lon="6.63342">
        <ele>1143.4</ele>
        <time>2024-05-26T07:49:05Z</time>
      </trkpt>
      <trkpt lat="43.73785" lon="6.63341">
        <ele>1143.6</ele>
        <time>2024-05-26T07:49:06Z</time>
      </trkpt>
      <trkpt lat="43.73785" lon="6.63342">
        <ele>1143.7</ele>
        <time>2024-05-26T07:49:07Z</time>
      </trkpt>
      <trkpt lat="43.73785" lon="6.63342">
        <ele>1143.9</ele>
        <time>2024-05-26T07:49:08Z</time>
      </trkpt>
      <trkpt lat="43.73785" lon="6.63343">
        <ele>1144</ele>
        <time>2024-05-26T07:49:09Z</time>
      </trkpt>
      <trkpt lat="43.73785" lon="6.63343">
        <ele>1144.2</ele>
        <time>2024-05-26T07:49:10Z</time>
      </trkpt>
      <trkpt lat="43.73785" lon="6.63343">
        <ele>1144.3</ele>
        <time>2024-05-26T07:49:11Z</time>
      </trkpt>
      <trkpt lat="43.73786" lon="6.63344">
        <ele>1144.5</ele>
        <time>2024-05-26T07:49:12Z</time>
      </trkpt>
      <trkpt lat="43.73786" lon="6.63344">
        <ele>1144.7</ele>
        <time>2024-05-26T07:49:13Z</time>
      </trkpt>
      <trkpt lat="43.73786" lon="6.63344">
        <ele>1144.8</ele>
        <time>2024-05-26T07:49:14Z</time>
      </trkpt>
      <trkpt lat="43.73786" lon="6.63344">
        <ele>1145</ele>
        <time>2024-05-26T07:49:15Z</time>
      </trkpt>
      <trkpt lat="43.73786" lon="6.63345">
        <ele>1145.1</ele>
        <time>2024-05-26T07:49:16Z</time>
      </trkpt>
      <trkpt lat="43.73786" lon="6.63345">
        <ele>1145.4</ele>
        <time>2024-05-26T07:49:17Z</time>
      </trkpt>
      <trkpt lat="43.73787" lon="6.63346">
        <ele>1145.6</ele>
        <time>2024-05-26T07:49:18Z</time>
      </trkpt>
      <trkpt lat="43.73787" lon="6.63346">
        <ele>1145.8</ele>
        <time>2024-05-26T07:49:19Z</time>
      </trkpt>
      <trkpt lat="43.73787" lon="6.63346">
        <ele>1146</ele>
        <time>2024-05-26T07:49:20Z</time>
      </trkpt>
      <trkpt lat="43.73788" lon="6.63348">
        <ele>1146.2</ele>
        <time>2024-05-26T07:49:21Z</time>
      </trkpt>
      <trkpt lat="43.73789" lon="6.63349">
        <ele>1146.3</ele>
        <time>2024-05-26T07:49:22Z</time>
      </trkpt>
      <trkpt lat="43.73789" lon="6.6335">
        <ele>1146.6</ele>
        <time>2024-05-26T07:49:23Z</time>
      </trkpt>
      <trkpt lat="43.7379" lon="6.6335">
        <ele>1146.8</ele>
        <time>2024-05-26T07:49:24Z</time>
      </trkpt>
      <trkpt lat="43.73791" lon="6.6335">
        <ele>1147</ele>
        <time>2024-05-26T07:49:25Z</time>
      </trkpt>
      <trkpt lat="43.73791" lon="6.63351">
        <ele>1147.2</ele>
        <time>2024-05-26T07:49:26Z</time>
      </trkpt>
      <trkpt lat="43.73792" lon="6.63352">
        <ele>1147.4</ele>
        <time>2024-05-26T07:49:27Z</time>
      </trkpt>
      <trkpt lat="43.73792" lon="6.63352">
        <ele>1147.6</ele>
        <time>2024-05-26T07:49:28Z</time>
      </trkpt>
      <trkpt lat="43.73792" lon="6.63353">
        <ele>1147.9</ele>
        <time>2024-05-26T07:49:29Z</time>
      </trkpt>
      <trkpt lat="43.73792" lon="6.63353">
        <ele>1148.1</ele>
        <time>2024-05-26T07:49:30Z</time>
      </trkpt>
      <trkpt lat="43.73793" lon="6.63353">
        <ele>1148.2</ele>
        <time>2024-05-26T07:49:31Z</time>
      </trkpt>
      <trkpt lat="43.73793" lon="6.63354">
        <ele>1148.4</ele>
        <time>2024-05-26T07:49:32Z</time>
      </trkpt>
      <trkpt lat="43.73793" lon="6.63354">
        <ele>1148.5</ele>
        <time>2024-05-26T07:49:33Z</time>
      </trkpt>
      <trkpt lat="43.73794" lon="6.63354">
        <ele>1148.6</ele>
        <time>2024-05-26T07:49:34Z</time>
      </trkpt>
      <trkpt lat="43.73794" lon="6.63355">
        <ele>1148.7</ele>
        <time>2024-05-26T07:49:35Z</time>
      </trkpt>
      <trkpt lat="43.73795" lon="6.63356">
        <ele>1148.7</ele>
        <time>2024-05-26T07:49:36Z</time>
      </trkpt>
      <trkpt lat="43.73795" lon="6.63356">
        <ele>1148.9</ele>
        <time>2024-05-26T07:49:37Z</time>
      </trkpt>
      <trkpt lat="43.73795" lon="6.63356">
        <ele>1149</ele>
        <time>2024-05-26T07:49:38Z</time>
      </trkpt>
      <trkpt lat="43.73795" lon="6.63357">
        <ele>1149.1</ele>
        <time>2024-05-26T07:49:39Z</time>
      </trkpt>
      <trkpt lat="43.73795" lon="6.63357">
        <ele>1149.2</ele>
        <time>2024-05-26T07:49:40Z</time>
      </trkpt>
      <trkpt lat="43.73795" lon="6.63358">
        <ele>1149.3</ele>
        <time>2024-05-26T07:49:41Z</time>
      </trkpt>
      <trkpt lat="43.73796" lon="6.63358">
        <ele>1149.4</ele>
        <time>2024-05-26T07:49:42Z</time>
      </trkpt>
      <trkpt lat="43.73796" lon="6.63359">
        <ele>1149.5</ele>
        <time>2024-05-26T07:49:43Z</time>
      </trkpt>
      <trkpt lat="43.73797" lon="6.63359">
        <ele>1149.6</ele>
        <time>2024-05-26T07:49:44Z</time>
      </trkpt>
      <trkpt lat="43.73798" lon="6.63359">
        <ele>1149.7</ele>
        <time>2024-05-26T07:49:45Z</time>
      </trkpt>
      <trkpt lat="43.73798" lon="6.63359">
        <ele>1149.8</ele>
        <time>2024-05-26T07:49:46Z</time>
      </trkpt>
      <trkpt lat="43.73799" lon="6.63359">
        <ele>1150</ele>
        <time>2024-05-26T07:49:47Z</time>
      </trkpt>
      <trkpt lat="43.738" lon="6.6336">
        <ele>1150.1</ele>
        <time>2024-05-26T07:49:48Z</time>
      </trkpt>
      <trkpt lat="43.738" lon="6.63359">
        <ele>1150.2</ele>
        <time>2024-05-26T07:49:49Z</time>
      </trkpt>
      <trkpt lat="43.73801" lon="6.63359">
        <ele>1150.3</ele>
        <time>2024-05-26T07:49:50Z</time>
      </trkpt>
      <trkpt lat="43.73801" lon="6.63359">
        <ele>1150.4</ele>
        <time>2024-05-26T07:49:51Z</time>
      </trkpt>
      <trkpt lat="43.73802" lon="6.63359">
        <ele>1150.5</ele>
        <time>2024-05-26T07:49:52Z</time>
      </trkpt>
      <trkpt lat="43.73802" lon="6.63359">
        <ele>1150.6</ele>
        <time>2024-05-26T07:49:53Z</time>
      </trkpt>
      <trkpt lat="43.73802" lon="6.63359">
        <ele>1150.7</ele>
        <time>2024-05-26T07:49:54Z</time>
      </trkpt>
      <trkpt lat="43.73802" lon="6.63359">
        <ele>1150.8</ele>
        <time>2024-05-26T07:49:55Z</time>
      </trkpt>
      <trkpt lat="43.73802" lon="6.63359">
        <ele>1150.9</ele>
        <time>2024-05-26T07:49:56Z</time>
      </trkpt>
      <trkpt lat="43.73802" lon="6.6336">
        <ele>1151</ele>
        <time>2024-05-26T07:49:57Z</time>
      </trkpt>
      <trkpt lat="43.73802" lon="6.6336">
        <ele>1151.1</ele>
        <time>2024-05-26T07:49:58Z</time>
      </trkpt>
      <trkpt lat="43.73803" lon="6.6336">
        <ele>1151.2</ele>
        <time>2024-05-26T07:49:59Z</time>
      </trkpt>
      <trkpt lat="43.73803" lon="6.6336">
        <ele>1151.3</ele>
        <time>2024-05-26T07:50:00Z</time>
      </trkpt>
      <trkpt lat="43.73803" lon="6.6336">
        <ele>1151.4</ele>
        <time>2024-05-26T07:50:01Z</time>
      </trkpt>
      <trkpt lat="43.73803" lon="6.6336">
        <ele>1151.4</ele>
        <time>2024-05-26T07:50:02Z</time>
      </trkpt>
      <trkpt lat="43.73803" lon="6.6336">
        <ele>1151.4</ele>
        <time>2024-05-26T07:50:03Z</time>
      </trkpt>
      <trkpt lat="43.73803" lon="6.6336">
        <ele>1151.3</ele>
        <time>2024-05-26T07:50:04Z</time>
      </trkpt>
      <trkpt lat="43.73803" lon="6.63361">
        <ele>1151.3</ele>
        <time>2024-05-26T07:50:05Z</time>
      </trkpt>
      <trkpt lat="43.73804" lon="6.63361">
        <ele>1151.3</ele>
        <time>2024-05-26T07:50:06Z</time>
      </trkpt>
      <trkpt lat="43.73804" lon="6.63361">
        <ele>1151.2</ele>
        <time>2024-05-26T07:50:07Z</time>
      </trkpt>
      <trkpt lat="43.73805" lon="6.63361">
        <ele>1151.3</ele>
        <time>2024-05-26T07:50:08Z</time>
      </trkpt>
      <trkpt lat="43.73805" lon="6.63361">
        <ele>1151.3</ele>
        <time>2024-05-26T07:50:09Z</time>
      </trkpt>
      <trkpt lat="43.73805" lon="6.63361">
        <ele>1151.3</ele>
        <time>2024-05-26T07:50:10Z</time>
      </trkpt>
      <trkpt lat="43.73805" lon="6.63361">
        <ele>1151.3</ele>
        <time>2024-05-26T07:50:11Z</time>
      </trkpt>
      <trkpt lat="43.73805" lon="6.63361">
        <ele>1151.4</ele>
        <time>2024-05-26T07:50:12Z</time>
      </trkpt>
      <trkpt lat="43.73805" lon="6.63361">
        <ele>1151.5</ele>
        <time>2024-05-26T07:50:13Z</time>
      </trkpt>
      <trkpt lat="43.73806" lon="6.63361">
        <ele>1151.6</ele>
        <time>2024-05-26T07:50:14Z</time>
      </trkpt>
      <trkpt lat="43.73806" lon="6.63361">
        <ele>1151.7</ele>
        <time>2024-05-26T07:50:15Z</time>
      </trkpt>
      <trkpt lat="43.73806" lon="6.63361">
        <ele>1151.7</ele>
        <time>2024-05-26T07:50:16Z</time>
      </trkpt>
      <trkpt lat="43.73807" lon="6.63362">
        <ele>1151.9</ele>
        <time>2024-05-26T07:50:17Z</time>
      </trkpt>
      <trkpt lat="43.73807" lon="6.63362">
        <ele>1152.1</ele>
        <time>2024-05-26T07:50:18Z</time>
      </trkpt>
      <trkpt lat="43.73808" lon="6.63362">
        <ele>1152.2</ele>
        <time>2024-05-26T07:50:19Z</time>
      </trkpt>
      <trkpt lat="43.73808" lon="6.63362">
        <ele>1152.4</ele>
        <time>2024-05-26T07:50:20Z</time>
      </trkpt>
      <trkpt lat="43.73809" lon="6.63363">
        <ele>1152.5</ele>
        <time>2024-05-26T07:50:21Z</time>
      </trkpt>
      <trkpt lat="43.73809" lon="6.63363">
        <ele>1152.7</ele>
        <time>2024-05-26T07:50:22Z</time>
      </trkpt>
      <trkpt lat="43.7381" lon="6.63363">
        <ele>1152.8</ele>
        <time>2024-05-26T07:50:23Z</time>
      </trkpt>
      <trkpt lat="43.7381" lon="6.63364">
        <ele>1152.9</ele>
        <time>2024-05-26T07:50:24Z</time>
      </trkpt>
      <trkpt lat="43.7381" lon="6.63364">
        <ele>1153</ele>
        <time>2024-05-26T07:50:25Z</time>
      </trkpt>
      <trkpt lat="43.73811" lon="6.63365">
        <ele>1153</ele>
        <time>2024-05-26T07:50:26Z</time>
      </trkpt>
      <trkpt lat="43.73811" lon="6.63365">
        <ele>1153.1</ele>
        <time>2024-05-26T07:50:27Z</time>
      </trkpt>
      <trkpt lat="43.73811" lon="6.63365">
        <ele>1153.2</ele>
        <time>2024-05-26T07:50:28Z</time>
      </trkpt>
      <trkpt lat="43.73811" lon="6.63365">
        <ele>1153.3</ele>
        <time>2024-05-26T07:50:29Z</time>
      </trkpt>
      <trkpt lat="43.73811" lon="6.63366">
        <ele>1153.5</ele>
        <time>2024-05-26T07:50:30Z</time>
      </trkpt>
      <trkpt lat="43.73812" lon="6.63366">
        <ele>1153.6</ele>
        <time>2024-05-26T07:50:31Z</time>
      </trkpt>
      <trkpt lat="43.73812" lon="6.63366">
        <ele>1153.7</ele>
        <time>2024-05-26T07:50:32Z</time>
      </trkpt>
      <trkpt lat="43.73812" lon="6.63366">
        <ele>1153.9</ele>
        <time>2024-05-26T07:50:33Z</time>
      </trkpt>
      <trkpt lat="43.73812" lon="6.63366">
        <ele>1154</ele>
        <time>2024-05-26T07:50:34Z</time>
      </trkpt>
      <trkpt lat="43.73812" lon="6.63367">
        <ele>1154.2</ele>
        <time>2024-05-26T07:50:35Z</time>
      </trkpt>
      <trkpt lat="43.73813" lon="6.63367">
        <ele>1154.4</ele>
        <time>2024-05-26T07:50:36Z</time>
      </trkpt>
      <trkpt lat="43.73813" lon="6.63368">
        <ele>1154.6</ele>
        <time>2024-05-26T07:50:37Z</time>
      </trkpt>
      <trkpt lat="43.73813" lon="6.63368">
        <ele>1154.7</ele>
        <time>2024-05-26T07:50:38Z</time>
      </trkpt>
      <trkpt lat="43.73814" lon="6.63368">
        <ele>1154.8</ele>
        <time>2024-05-26T07:50:39Z</time>
      </trkpt>
      <trkpt lat="43.73814" lon="6.63368">
        <ele>1154.9</ele>
        <time>2024-05-26T07:50:40Z</time>
      </trkpt>
      <trkpt lat="43.73815" lon="6.63368">
        <ele>1155.1</ele>
        <time>2024-05-26T07:50:41Z</time>
      </trkpt>
      <trkpt lat="43.73815" lon="6.63369">
        <ele>1155.3</ele>
        <time>2024-05-26T07:50:42Z</time>
      </trkpt>
      <trkpt lat="43.73815" lon="6.63369">
        <ele>1155.4</ele>
        <time>2024-05-26T07:50:43Z</time>
      </trkpt>
      <trkpt lat="43.73815" lon="6.63368">
        <ele>1155.5</ele>
        <time>2024-05-26T07:50:44Z</time>
      </trkpt>
      <trkpt lat="43.73815" lon="6.63368">
        <ele>1155.6</ele>
        <time>2024-05-26T07:50:45Z</time>
      </trkpt>
      <trkpt lat="43.73815" lon="6.63368">
        <ele>1155.7</ele>
        <time>2024-05-26T07:50:46Z</time>
      </trkpt>
      <trkpt lat="43.73815" lon="6.63368">
        <ele>1155.8</ele>
        <time>2024-05-26T07:50:47Z</time>
      </trkpt>
      <trkpt lat="43.73816" lon="6.63369">
        <ele>1155.9</ele>
        <time>2024-05-26T07:50:48Z</time>
      </trkpt>
      <trkpt lat="43.73816" lon="6.63369">
        <ele>1156</ele>
        <time>2024-05-26T07:50:49Z</time>
      </trkpt>
      <trkpt lat="43.73816" lon="6.6337">
        <ele>1156.1</ele>
        <time>2024-05-26T07:50:50Z</time>
      </trkpt>
      <trkpt lat="43.73817" lon="6.63371">
        <ele>1156.1</ele>
        <time>2024-05-26T07:50:51Z</time>
      </trkpt>
      <trkpt lat="43.73817" lon="6.63371">
        <ele>1156.2</ele>
        <time>2024-05-26T07:50:52Z</time>
      </trkpt>
      <trkpt lat="43.73817" lon="6.63372">
        <ele>1156.3</ele>
        <time>2024-05-26T07:50:53Z</time>
      </trkpt>
      <trkpt lat="43.73817" lon="6.63372">
        <ele>1156.5</ele>
        <time>2024-05-26T07:50:54Z</time>
      </trkpt>
      <trkpt lat="43.73817" lon="6.63372">
        <ele>1156.6</ele>
        <time>2024-05-26T07:50:55Z</time>
      </trkpt>
      <trkpt lat="43.73817" lon="6.63373">
        <ele>1156.8</ele>
        <time>2024-05-26T07:50:56Z</time>
      </trkpt>
      <trkpt lat="43.73817" lon="6.63374">
        <ele>1157</ele>
        <time>2024-05-26T07:50:57Z</time>
      </trkpt>
      <trkpt lat="43.73817" lon="6.63374">
        <ele>1157.2</ele>
        <time>2024-05-26T07:50:58Z</time>
      </trkpt>
      <trkpt lat="43.73818" lon="6.63375">
        <ele>1157.4</ele>
        <time>2024-05-26T07:50:59Z</time>
      </trkpt>
      <trkpt lat="43.73818" lon="6.63375">
        <ele>1157.6</ele>
        <time>2024-05-26T07:51:00Z</time>
      </trkpt>
      <trkpt lat="43.73819" lon="6.63376">
        <ele>1157.8</ele>
        <time>2024-05-26T07:51:01Z</time>
      </trkpt>
      <trkpt lat="43.73819" lon="6.63376">
        <ele>1158</ele>
        <time>2024-05-26T07:51:02Z</time>
      </trkpt>
      <trkpt lat="43.7382" lon="6.63377">
        <ele>1158.1</ele>
        <time>2024-05-26T07:51:03Z</time>
      </trkpt>
      <trkpt lat="43.7382" lon="6.63377">
        <ele>1158.3</ele>
        <time>2024-05-26T07:51:04Z</time>
      </trkpt>
      <trkpt lat="43.7382" lon="6.63377">
        <ele>1158.5</ele>
        <time>2024-05-26T07:51:05Z</time>
      </trkpt>
      <trkpt lat="43.7382" lon="6.63378">
        <ele>1158.7</ele>
        <time>2024-05-26T07:51:06Z</time>
      </trkpt>
      <trkpt lat="43.73821" lon="6.63378">
        <ele>1158.8</ele>
        <time>2024-05-26T07:51:07Z</time>
      </trkpt>
      <trkpt lat="43.73821" lon="6.63378">
        <ele>1158.9</ele>
        <time>2024-05-26T07:51:08Z</time>
      </trkpt>
      <trkpt lat="43.73821" lon="6.63379">
        <ele>1159.1</ele>
        <time>2024-05-26T07:51:09Z</time>
      </trkpt>
      <trkpt lat="43.73822" lon="6.63379">
        <ele>1159.2</ele>
        <time>2024-05-26T07:51:10Z</time>
      </trkpt>
      <trkpt lat="43.73822" lon="6.6338">
        <ele>1159.3</ele>
        <time>2024-05-26T07:51:11Z</time>
      </trkpt>
      <trkpt lat="43.73823" lon="6.6338">
        <ele>1159.5</ele>
        <time>2024-05-26T07:51:12Z</time>
      </trkpt>
      <trkpt lat="43.73823" lon="6.6338">
        <ele>1159.7</ele>
        <time>2024-05-26T07:51:13Z</time>
      </trkpt>
      <trkpt lat="43.73824" lon="6.6338">
        <ele>1159.9</ele>
        <time>2024-05-26T07:51:14Z</time>
      </trkpt>
      <trkpt lat="43.73824" lon="6.63381">
        <ele>1160.1</ele>
        <time>2024-05-26T07:51:15Z</time>
      </trkpt>
      <trkpt lat="43.73825" lon="6.63381">
        <ele>1160.2</ele>
        <time>2024-05-26T07:51:16Z</time>
      </trkpt>
      <trkpt lat="43.73825" lon="6.63382">
        <ele>1160.4</ele>
        <time>2024-05-26T07:51:17Z</time>
      </trkpt>
      <trkpt lat="43.73825" lon="6.63382">
        <ele>1160.6</ele>
        <time>2024-05-26T07:51:18Z</time>
      </trkpt>
      <trkpt lat="43.73826" lon="6.63383">
        <ele>1160.7</ele>
        <time>2024-05-26T07:51:19Z</time>
      </trkpt>
      <trkpt lat="43.73826" lon="6.63383">
        <ele>1160.8</ele>
        <time>2024-05-26T07:51:20Z</time>
      </trkpt>
      <trkpt lat="43.73827" lon="6.63383">
        <ele>1161</ele>
        <time>2024-05-26T07:51:21Z</time>
      </trkpt>
      <trkpt lat="43.73827" lon="6.63384">
        <ele>1161.1</ele>
        <time>2024-05-26T07:51:22Z</time>
      </trkpt>
      <trkpt lat="43.73827" lon="6.63384">
        <ele>1161.3</ele>
        <time>2024-05-26T07:51:23Z</time>
      </trkpt>
      <trkpt lat="43.73828" lon="6.63385">
        <ele>1161.5</ele>
        <time>2024-05-26T07:51:24Z</time>
      </trkpt>
      <trkpt lat="43.73828" lon="6.63385">
        <ele>1161.8</ele>
        <time>2024-05-26T07:51:25Z</time>
      </trkpt>
      <trkpt lat="43.73828" lon="6.63386">
        <ele>1162</ele>
        <time>2024-05-26T07:51:26Z</time>
      </trkpt>
      <trkpt lat="43.73829" lon="6.63386">
        <ele>1162.2</ele>
        <time>2024-05-26T07:51:27Z</time>
      </trkpt>
      <trkpt lat="43.73829" lon="6.63386">
        <ele>1162.4</ele>
        <time>2024-05-26T07:51:28Z</time>
      </trkpt>
      <trkpt lat="43.7383" lon="6.63387">
        <ele>1162.6</ele>
        <time>2024-05-26T07:51:29Z</time>
      </trkpt>
      <trkpt lat="43.7383" lon="6.63387">
        <ele>1162.8</ele>
        <time>2024-05-26T07:51:30Z</time>
      </trkpt>
      <trkpt lat="43.73831" lon="6.63388">
        <ele>1162.9</ele>
        <time>2024-05-26T07:51:31Z</time>
      </trkpt>
      <trkpt lat="43.73831" lon="6.63388">
        <ele>1163.1</ele>
        <time>2024-05-26T07:51:32Z</time>
      </trkpt>
      <trkpt lat="43.73832" lon="6.63388">
        <ele>1163.4</ele>
        <time>2024-05-26T07:51:33Z</time>
      </trkpt>
      <trkpt lat="43.73832" lon="6.63389">
        <ele>1163.5</ele>
        <time>2024-05-26T07:51:34Z</time>
      </trkpt>
      <trkpt lat="43.73833" lon="6.63389">
        <ele>1163.6</ele>
        <time>2024-05-26T07:51:35Z</time>
      </trkpt>
      <trkpt lat="43.73833" lon="6.63389">
        <ele>1163.6</ele>
        <time>2024-05-26T07:51:36Z</time>
      </trkpt>
      <trkpt lat="43.73834" lon="6.63389">
        <ele>1163.8</ele>
        <time>2024-05-26T07:51:37Z</time>
      </trkpt>
      <trkpt lat="43.73834" lon="6.63389">
        <ele>1164</ele>
        <time>2024-05-26T07:51:38Z</time>
      </trkpt>
      <trkpt lat="43.73835" lon="6.6339">
        <ele>1164.1</ele>
        <time>2024-05-26T07:51:39Z</time>
      </trkpt>
      <trkpt lat="43.73835" lon="6.63391">
        <ele>1164.2</ele>
        <time>2024-05-26T07:51:40Z</time>
      </trkpt>
      <trkpt lat="43.73836" lon="6.63391">
        <ele>1164.3</ele>
        <time>2024-05-26T07:51:41Z</time>
      </trkpt>
      <trkpt lat="43.73836" lon="6.63392">
        <ele>1164.6</ele>
        <time>2024-05-26T07:51:42Z</time>
      </trkpt>
      <trkpt lat="43.73836" lon="6.63392">
        <ele>1164.9</ele>
        <time>2024-05-26T07:51:43Z</time>
      </trkpt>
      <trkpt lat="43.73837" lon="6.63392">
        <ele>1165</ele>
        <time>2024-05-26T07:51:44Z</time>
      </trkpt>
      <trkpt lat="43.73837" lon="6.63393">
        <ele>1165.2</ele>
        <time>2024-05-26T07:51:45Z</time>
      </trkpt>
      <trkpt lat="43.73838" lon="6.63393">
        <ele>1165.3</ele>
        <time>2024-05-26T07:51:46Z</time>
      </trkpt>
      <trkpt lat="43.73839" lon="6.63393">
        <ele>1165.5</ele>
        <time>2024-05-26T07:51:47Z</time>
      </trkpt>
      <trkpt lat="43.73839" lon="6.63393">
        <ele>1165.7</ele>
        <time>2024-05-26T07:51:48Z</time>
      </trkpt>
      <trkpt lat="43.73839" lon="6.63394">
        <ele>1165.9</ele>
        <time>2024-05-26T07:51:49Z</time>
      </trkpt>
      <trkpt lat="43.7384" lon="6.63394">
        <ele>1166.1</ele>
        <time>2024-05-26T07:51:50Z</time>
      </trkpt>
      <trkpt lat="43.7384" lon="6.63395">
        <ele>1166.2</ele>
        <time>2024-05-26T07:51:51Z</time>
      </trkpt>
      <trkpt lat="43.73841" lon="6.63395">
        <ele>1166.3</ele>
        <time>2024-05-26T07:51:52Z</time>
      </trkpt>
      <trkpt lat="43.73841" lon="6.63396">
        <ele>1166.5</ele>
        <time>2024-05-26T07:51:53Z</time>
      </trkpt>
      <trkpt lat="43.73842" lon="6.63396">
        <ele>1166.6</ele>
        <time>2024-05-26T07:51:54Z</time>
      </trkpt>
      <trkpt lat="43.73842" lon="6.63397">
        <ele>1166.7</ele>
        <time>2024-05-26T07:51:55Z</time>
      </trkpt>
      <trkpt lat="43.73843" lon="6.63398">
        <ele>1166.9</ele>
        <time>2024-05-26T07:51:56Z</time>
      </trkpt>
      <trkpt lat="43.73843" lon="6.63398">
        <ele>1167.1</ele>
        <time>2024-05-26T07:51:57Z</time>
      </trkpt>
      <trkpt lat="43.73844" lon="6.63399">
        <ele>1167.2</ele>
        <time>2024-05-26T07:51:58Z</time>
      </trkpt>
      <trkpt lat="43.73844" lon="6.63399">
        <ele>1167.4</ele>
        <time>2024-05-26T07:51:59Z</time>
      </trkpt>
      <trkpt lat="43.73845" lon="6.634">
        <ele>1167.5</ele>
        <time>2024-05-26T07:52:00Z</time>
      </trkpt>
      <trkpt lat="43.73846" lon="6.634">
        <ele>1167.7</ele>
        <time>2024-05-26T07:52:01Z</time>
      </trkpt>
      <trkpt lat="43.73846" lon="6.634">
        <ele>1167.9</ele>
        <time>2024-05-26T07:52:02Z</time>
      </trkpt>
      <trkpt lat="43.73847" lon="6.63401">
        <ele>1168</ele>
        <time>2024-05-26T07:52:03Z</time>
      </trkpt>
      <trkpt lat="43.73847" lon="6.63401">
        <ele>1168.2</ele>
        <time>2024-05-26T07:52:04Z</time>
      </trkpt>
      <trkpt lat="43.73848" lon="6.63401">
        <ele>1168.3</ele>
        <time>2024-05-26T07:52:05Z</time>
      </trkpt>
      <trkpt lat="43.73848" lon="6.63402">
        <ele>1168.5</ele>
        <time>2024-05-26T07:52:06Z</time>
      </trkpt>
      <trkpt lat="43.73849" lon="6.63402">
        <ele>1168.7</ele>
        <time>2024-05-26T07:52:07Z</time>
      </trkpt>
      <trkpt lat="43.73849" lon="6.63402">
        <ele>1168.9</ele>
        <time>2024-05-26T07:52:08Z</time>
      </trkpt>
      <trkpt lat="43.7385" lon="6.63403">
        <ele>1169</ele>
        <time>2024-05-26T07:52:09Z</time>
      </trkpt>
      <trkpt lat="43.7385" lon="6.63403">
        <ele>1169.2</ele>
        <time>2024-05-26T07:52:10Z</time>
      </trkpt>
      <trkpt lat="43.7385" lon="6.63403">
        <ele>1169.3</ele>
        <time>2024-05-26T07:52:11Z</time>
      </trkpt>
      <trkpt lat="43.73851" lon="6.63402">
        <ele>1169.5</ele>
        <time>2024-05-26T07:52:12Z</time>
      </trkpt>
      <trkpt lat="43.73851" lon="6.63402">
        <ele>1169.6</ele>
        <time>2024-05-26T07:52:13Z</time>
      </trkpt>
      <trkpt lat="43.73852" lon="6.63402">
        <ele>1169.8</ele>
        <time>2024-05-26T07:52:14Z</time>
      </trkpt>
      <trkpt lat="43.73852" lon="6.63403">
        <ele>1170</ele>
        <time>2024-05-26T07:52:15Z</time>
      </trkpt>
      <trkpt lat="43.73853" lon="6.63403">
        <ele>1170.1</ele>
        <time>2024-05-26T07:52:16Z</time>
      </trkpt>
      <trkpt lat="43.73853" lon="6.63403">
        <ele>1170.2</ele>
        <time>2024-05-26T07:52:17Z</time>
      </trkpt>
      <trkpt lat="43.73854" lon="6.63404">
        <ele>1170.4</ele>
        <time>2024-05-26T07:52:18Z</time>
      </trkpt>
      <trkpt lat="43.73854" lon="6.63404">
        <ele>1170.5</ele>
        <time>2024-05-26T07:52:19Z</time>
      </trkpt>
      <trkpt lat="43.73855" lon="6.63405">
        <ele>1170.6</ele>
        <time>2024-05-26T07:52:20Z</time>
      </trkpt>
      <trkpt lat="43.73855" lon="6.63406">
        <ele>1170.7</ele>
        <time>2024-05-26T07:52:21Z</time>
      </trkpt>
      <trkpt lat="43.73856" lon="6.63406">
        <ele>1170.8</ele>
        <time>2024-05-26T07:52:22Z</time>
      </trkpt>
      <trkpt lat="43.73856" lon="6.63406">
        <ele>1170.9</ele>
        <time>2024-05-26T07:52:23Z</time>
      </trkpt>
      <trkpt lat="43.73856" lon="6.63406">
        <ele>1171.1</ele>
        <time>2024-05-26T07:52:24Z</time>
      </trkpt>
      <trkpt lat="43.73857" lon="6.63406">
        <ele>1171.2</ele>
        <time>2024-05-26T07:52:25Z</time>
      </trkpt>
      <trkpt lat="43.73858" lon="6.63406">
        <ele>1171.3</ele>
        <time>2024-05-26T07:52:26Z</time>
      </trkpt>
      <trkpt lat="43.73858" lon="6.63407">
        <ele>1171.5</ele>
        <time>2024-05-26T07:52:27Z</time>
      </trkpt>
      <trkpt lat="43.73859" lon="6.63407">
        <ele>1171.7</ele>
        <time>2024-05-26T07:52:28Z</time>
      </trkpt>
      <trkpt lat="43.73859" lon="6.63408">
        <ele>1171.8</ele>
        <time>2024-05-26T07:52:29Z</time>
      </trkpt>
      <trkpt lat="43.73859" lon="6.63408">
        <ele>1171.9</ele>
        <time>2024-05-26T07:52:30Z</time>
      </trkpt>
      <trkpt lat="43.7386" lon="6.63409">
        <ele>1172</ele>
        <time>2024-05-26T07:52:31Z</time>
      </trkpt>
      <trkpt lat="43.7386" lon="6.63409">
        <ele>1172.2</ele>
        <time>2024-05-26T07:52:32Z</time>
      </trkpt>
      <trkpt lat="43.73861" lon="6.63409">
        <ele>1172.3</ele>
        <time>2024-05-26T07:52:33Z</time>
      </trkpt>
      <trkpt lat="43.73862" lon="6.63409">
        <ele>1172.4</ele>
        <time>2024-05-26T07:52:34Z</time>
      </trkpt>
      <trkpt lat="43.73862" lon="6.63409">
        <ele>1172.6</ele>
        <time>2024-05-26T07:52:35Z</time>
      </trkpt>
      <trkpt lat="43.73863" lon="6.6341">
        <ele>1172.8</ele>
        <time>2024-05-26T07:52:36Z</time>
      </trkpt>
      <trkpt lat="43.73863" lon="6.6341">
        <ele>1173</ele>
        <time>2024-05-26T07:52:37Z</time>
      </trkpt>
      <trkpt lat="43.73864" lon="6.63411">
        <ele>1173.1</ele>
        <time>2024-05-26T07:52:38Z</time>
      </trkpt>
      <trkpt lat="43.73864" lon="6.63411">
        <ele>1173.3</ele>
        <time>2024-05-26T07:52:39Z</time>
      </trkpt>
      <trkpt lat="43.73865" lon="6.63411">
        <ele>1173.5</ele>
        <time>2024-05-26T07:52:40Z</time>
      </trkpt>
      <trkpt lat="43.73865" lon="6.63412">
        <ele>1173.7</ele>
        <time>2024-05-26T07:52:41Z</time>
      </trkpt>
      <trkpt lat="43.73865" lon="6.63412">
        <ele>1173.9</ele>
        <time>2024-05-26T07:52:42Z</time>
      </trkpt>
      <trkpt lat="43.73866" lon="6.63412">
        <ele>1174</ele>
        <time>2024-05-26T07:52:43Z</time>
      </trkpt>
      <trkpt lat="43.73866" lon="6.63413">
        <ele>1174.2</ele>
        <time>2024-05-26T07:52:44Z</time>
      </trkpt>
      <trkpt lat="43.73867" lon="6.63413">
        <ele>1174.4</ele>
        <time>2024-05-26T07:52:45Z</time>
      </trkpt>
      <trkpt lat="43.73867" lon="6.63414">
        <ele>1174.6</ele>
        <time>2024-05-26T07:52:46Z</time>
      </trkpt>
      <trkpt lat="43.73867" lon="6.63414">
        <ele>1174.8</ele>
        <time>2024-05-26T07:52:47Z</time>
      </trkpt>
      <trkpt lat="43.73868" lon="6.63415">
        <ele>1175</ele>
        <time>2024-05-26T07:52:48Z</time>
      </trkpt>
      <trkpt lat="43.73868" lon="6.63415">
        <ele>1175.1</ele>
        <time>2024-05-26T07:52:49Z</time>
      </trkpt>
      <trkpt lat="43.73869" lon="6.63415">
        <ele>1175.2</ele>
        <time>2024-05-26T07:52:50Z</time>
      </trkpt>
      <trkpt lat="43.73869" lon="6.63416">
        <ele>1175.4</ele>
        <time>2024-05-26T07:52:51Z</time>
      </trkpt>
      <trkpt lat="43.7387" lon="6.63416">
        <ele>1175.7</ele>
        <time>2024-05-26T07:52:52Z</time>
      </trkpt>
      <trkpt lat="43.7387" lon="6.63417">
        <ele>1175.9</ele>
        <time>2024-05-26T07:52:53Z</time>
      </trkpt>
      <trkpt lat="43.73871" lon="6.63417">
        <ele>1176.1</ele>
        <time>2024-05-26T07:52:54Z</time>
      </trkpt>
      <trkpt lat="43.73871" lon="6.63417">
        <ele>1176.3</ele>
        <time>2024-05-26T07:52:55Z</time>
      </trkpt>
      <trkpt lat="43.73872" lon="6.63417">
        <ele>1176.5</ele>
        <time>2024-05-26T07:52:56Z</time>
      </trkpt>
      <trkpt lat="43.73872" lon="6.63418">
        <ele>1176.6</ele>
        <time>2024-05-26T07:52:57Z</time>
      </trkpt>
      <trkpt lat="43.73873" lon="6.63418">
        <ele>1176.8</ele>
        <time>2024-05-26T07:52:58Z</time>
      </trkpt>
      <trkpt lat="43.73873" lon="6.63418">
        <ele>1176.9</ele>
        <time>2024-05-26T07:52:59Z</time>
      </trkpt>
      <trkpt lat="43.73873" lon="6.63419">
        <ele>1177</ele>
        <time>2024-05-26T07:53:00Z</time>
      </trkpt>
      <trkpt lat="43.73874" lon="6.63419">
        <ele>1177.1</ele>
        <time>2024-05-26T07:53:01Z</time>
      </trkpt>
      <trkpt lat="43.73874" lon="6.6342">
        <ele>1177.2</ele>
        <time>2024-05-26T07:53:02Z</time>
      </trkpt>
      <trkpt lat="43.73875" lon="6.6342">
        <ele>1177.5</ele>
        <time>2024-05-26T07:53:03Z</time>
      </trkpt>
      <trkpt lat="43.73875" lon="6.63421">
        <ele>1177.6</ele>
        <time>2024-05-26T07:53:04Z</time>
      </trkpt>
      <trkpt lat="43.73875" lon="6.63422">
        <ele>1177.8</ele>
        <time>2024-05-26T07:53:05Z</time>
      </trkpt>
      <trkpt lat="43.73876" lon="6.63423">
        <ele>1177.9</ele>
        <time>2024-05-26T07:53:06Z</time>
      </trkpt>
      <trkpt lat="43.73876" lon="6.63423">
        <ele>1178.1</ele>
        <time>2024-05-26T07:53:07Z</time>
      </trkpt>
      <trkpt lat="43.73877" lon="6.63423">
        <ele>1178.2</ele>
        <time>2024-05-26T07:53:08Z</time>
      </trkpt>
      <trkpt lat="43.73877" lon="6.63424">
        <ele>1178.3</ele>
        <time>2024-05-26T07:53:09Z</time>
      </trkpt>
      <trkpt lat="43.73878" lon="6.63424">
        <ele>1178.4</ele>
        <time>2024-05-26T07:53:10Z</time>
      </trkpt>
      <trkpt lat="43.73878" lon="6.63424">
        <ele>1178.7</ele>
        <time>2024-05-26T07:53:11Z</time>
      </trkpt>
      <trkpt lat="43.73879" lon="6.63425">
        <ele>1178.8</ele>
        <time>2024-05-26T07:53:12Z</time>
      </trkpt>
      <trkpt lat="43.73879" lon="6.63425">
        <ele>1179</ele>
        <time>2024-05-26T07:53:13Z</time>
      </trkpt>
      <trkpt lat="43.7388" lon="6.63426">
        <ele>1179.1</ele>
        <time>2024-05-26T07:53:14Z</time>
      </trkpt>
      <trkpt lat="43.7388" lon="6.63426">
        <ele>1179.3</ele>
        <time>2024-05-26T07:53:15Z</time>
      </trkpt>
      <trkpt lat="43.73881" lon="6.63426">
        <ele>1179.4</ele>
        <time>2024-05-26T07:53:16Z</time>
      </trkpt>
      <trkpt lat="43.73881" lon="6.63427">
        <ele>1179.6</ele>
        <time>2024-05-26T07:53:17Z</time>
      </trkpt>
      <trkpt lat="43.73882" lon="6.63427">
        <ele>1179.7</ele>
        <time>2024-05-26T07:53:18Z</time>
      </trkpt>
      <trkpt lat="43.73883" lon="6.63426">
        <ele>1179.9</ele>
        <time>2024-05-26T07:53:19Z</time>
      </trkpt>
      <trkpt lat="43.73884" lon="6.63427">
        <ele>1180</ele>
        <time>2024-05-26T07:53:20Z</time>
      </trkpt>
      <trkpt lat="43.73884" lon="6.63427">
        <ele>1180</ele>
        <time>2024-05-26T07:53:21Z</time>
      </trkpt>
      <trkpt lat="43.73885" lon="6.63428">
        <ele>1180.1</ele>
        <time>2024-05-26T07:53:22Z</time>
      </trkpt>
      <trkpt lat="43.73885" lon="6.63428">
        <ele>1180.2</ele>
        <time>2024-05-26T07:53:23Z</time>
      </trkpt>
      <trkpt lat="43.73886" lon="6.63428">
        <ele>1180.4</ele>
        <time>2024-05-26T07:53:24Z</time>
      </trkpt>
      <trkpt lat="43.73886" lon="6.63428">
        <ele>1180.6</ele>
        <time>2024-05-26T07:53:25Z</time>
      </trkpt>
      <trkpt lat="43.73886" lon="6.63428">
        <ele>1180.8</ele>
        <time>2024-05-26T07:53:26Z</time>
      </trkpt>
      <trkpt lat="43.73887" lon="6.63428">
        <ele>1181</ele>
        <time>2024-05-26T07:53:27Z</time>
      </trkpt>
      <trkpt lat="43.73887" lon="6.63429">
        <ele>1181.2</ele>
        <time>2024-05-26T07:53:28Z</time>
      </trkpt>
      <trkpt lat="43.73887" lon="6.63429">
        <ele>1181.3</ele>
        <time>2024-05-26T07:53:29Z</time>
      </trkpt>
      <trkpt lat="43.73888" lon="6.63429">
        <ele>1181.4</ele>
        <time>2024-05-26T07:53:30Z</time>
      </trkpt>
      <trkpt lat="43.73888" lon="6.6343">
        <ele>1181.6</ele>
        <time>2024-05-26T07:53:31Z</time>
      </trkpt>
      <trkpt lat="43.73888" lon="6.63431">
        <ele>1181.7</ele>
        <time>2024-05-26T07:53:32Z</time>
      </trkpt>
      <trkpt lat="43.73889" lon="6.63431">
        <ele>1181.9</ele>
        <time>2024-05-26T07:53:33Z</time>
      </trkpt>
      <trkpt lat="43.73889" lon="6.63432">
        <ele>1182</ele>
        <time>2024-05-26T07:53:34Z</time>
      </trkpt>
      <trkpt lat="43.7389" lon="6.63432">
        <ele>1182.2</ele>
        <time>2024-05-26T07:53:35Z</time>
      </trkpt>
      <trkpt lat="43.7389" lon="6.63432">
        <ele>1182.4</ele>
        <time>2024-05-26T07:53:36Z</time>
      </trkpt>
      <trkpt lat="43.7389" lon="6.63433">
        <ele>1182.6</ele>
        <time>2024-05-26T07:53:37Z</time>
      </trkpt>
      <trkpt lat="43.73891" lon="6.63433">
        <ele>1182.8</ele>
        <time>2024-05-26T07:53:38Z</time>
      </trkpt>
      <trkpt lat="43.73891" lon="6.63433">
        <ele>1182.9</ele>
        <time>2024-05-26T07:53:39Z</time>
      </trkpt>
      <trkpt lat="43.73892" lon="6.63433">
        <ele>1183.1</ele>
        <time>2024-05-26T07:53:40Z</time>
      </trkpt>
      <trkpt lat="43.73892" lon="6.63434">
        <ele>1183.2</ele>
        <time>2024-05-26T07:53:41Z</time>
      </trkpt>
      <trkpt lat="43.73893" lon="6.63434">
        <ele>1183.3</ele>
        <time>2024-05-26T07:53:42Z</time>
      </trkpt>
      <trkpt lat="43.73893" lon="6.63435">
        <ele>1183.5</ele>
        <time>2024-05-26T07:53:43Z</time>
      </trkpt>
      <trkpt lat="43.73893" lon="6.63435">
        <ele>1183.6</ele>
        <time>2024-05-26T07:53:44Z</time>
      </trkpt>
      <trkpt lat="43.73893" lon="6.63436">
        <ele>1183.8</ele>
        <time>2024-05-26T07:53:45Z</time>
      </trkpt>
      <trkpt lat="43.73893" lon="6.63436">
        <ele>1183.9</ele>
        <time>2024-05-26T07:53:46Z</time>
      </trkpt>
      <trkpt lat="43.73893" lon="6.63437">
        <ele>1184</ele>
        <time>2024-05-26T07:53:47Z</time>
      </trkpt>
      <trkpt lat="43.73893" lon="6.63437">
        <ele>1184.2</ele>
        <time>2024-05-26T07:53:48Z</time>
      </trkpt>
      <trkpt lat="43.73893" lon="6.63437">
        <ele>1184.3</ele>
        <time>2024-05-26T07:53:49Z</time>
      </trkpt>
      <trkpt lat="43.73894" lon="6.63437">
        <ele>1184.5</ele>
        <time>2024-05-26T07:53:50Z</time>
      </trkpt>
      <trkpt lat="43.73894" lon="6.63437">
        <ele>1184.8</ele>
        <time>2024-05-26T07:53:51Z</time>
      </trkpt>
      <trkpt lat="43.73894" lon="6.63438">
        <ele>1185</ele>
        <time>2024-05-26T07:53:52Z</time>
      </trkpt>
      <trkpt lat="43.73894" lon="6.63438">
        <ele>1185.2</ele>
        <time>2024-05-26T07:53:53Z</time>
      </trkpt>
      <trkpt lat="43.73895" lon="6.63438">
        <ele>1185.3</ele>
        <time>2024-05-26T07:53:54Z</time>
      </trkpt>
      <trkpt lat="43.73895" lon="6.63438">
        <ele>1185.5</ele>
        <time>2024-05-26T07:53:55Z</time>
      </trkpt>
      <trkpt lat="43.73895" lon="6.63438">
        <ele>1185.6</ele>
        <time>2024-05-26T07:53:56Z</time>
      </trkpt>
      <trkpt lat="43.73896" lon="6.63439">
        <ele>1185.7</ele>
        <time>2024-05-26T07:53:57Z</time>
      </trkpt>
      <trkpt lat="43.73896" lon="6.63439">
        <ele>1185.8</ele>
        <time>2024-05-26T07:53:58Z</time>
      </trkpt>
      <trkpt lat="43.73896" lon="6.6344">
        <ele>1186</ele>
        <time>2024-05-26T07:53:59Z</time>
      </trkpt>
      <trkpt lat="43.73896" lon="6.6344">
        <ele>1186</ele>
        <time>2024-05-26T07:54:00Z</time>
      </trkpt>
      <trkpt lat="43.73897" lon="6.6344">
        <ele>1186.1</ele>
        <time>2024-05-26T07:54:01Z</time>
      </trkpt>
      <trkpt lat="43.73898" lon="6.6344">
        <ele>1186.2</ele>
        <time>2024-05-26T07:54:02Z</time>
      </trkpt>
      <trkpt lat="43.73898" lon="6.6344">
        <ele>1186.4</ele>
        <time>2024-05-26T07:54:03Z</time>
      </trkpt>
      <trkpt lat="43.73898" lon="6.6344">
        <ele>1186.5</ele>
        <time>2024-05-26T07:54:04Z</time>
      </trkpt>
      <trkpt lat="43.73898" lon="6.6344">
        <ele>1186.7</ele>
        <time>2024-05-26T07:54:05Z</time>
      </trkpt>
      <trkpt lat="43.73898" lon="6.6344">
        <ele>1186.9</ele>
        <time>2024-05-26T07:54:06Z</time>
      </trkpt>
      <trkpt lat="43.73899" lon="6.63441">
        <ele>1187</ele>
        <time>2024-05-26T07:54:07Z</time>
      </trkpt>
      <trkpt lat="43.73899" lon="6.63441">
        <ele>1187.1</ele>
        <time>2024-05-26T07:54:08Z</time>
      </trkpt>
      <trkpt lat="43.73899" lon="6.63441">
        <ele>1187.2</ele>
        <time>2024-05-26T07:54:09Z</time>
      </trkpt>
      <trkpt lat="43.739" lon="6.63441">
        <ele>1187.3</ele>
        <time>2024-05-26T07:54:10Z</time>
      </trkpt>
      <trkpt lat="43.739" lon="6.63441">
        <ele>1187.5</ele>
        <time>2024-05-26T07:54:11Z</time>
      </trkpt>
      <trkpt lat="43.73901" lon="6.63442">
        <ele>1187.7</ele>
        <time>2024-05-26T07:54:12Z</time>
      </trkpt>
      <trkpt lat="43.73901" lon="6.63442">
        <ele>1187.8</ele>
        <time>2024-05-26T07:54:13Z</time>
      </trkpt>
      <trkpt lat="43.73901" lon="6.63443">
        <ele>1188</ele>
        <time>2024-05-26T07:54:14Z</time>
      </trkpt>
      <trkpt lat="43.73902" lon="6.63443">
        <ele>1188.2</ele>
        <time>2024-05-26T07:54:15Z</time>
      </trkpt>
      <trkpt lat="43.73902" lon="6.63443">
        <ele>1188.3</ele>
        <time>2024-05-26T07:54:16Z</time>
      </trkpt>
      <trkpt lat="43.73903" lon="6.63443">
        <ele>1188.4</ele>
        <time>2024-05-26T07:54:17Z</time>
      </trkpt>
      <trkpt lat="43.73903" lon="6.63443">
        <ele>1188.5</ele>
        <time>2024-05-26T07:54:18Z</time>
      </trkpt>
      <trkpt lat="43.73903" lon="6.63443">
        <ele>1188.5</ele>
        <time>2024-05-26T07:54:19Z</time>
      </trkpt>
      <trkpt lat="43.73903" lon="6.63443">
        <ele>1188.7</ele>
        <time>2024-05-26T07:54:20Z</time>
      </trkpt>
      <trkpt lat="43.73904" lon="6.63443">
        <ele>1188.8</ele>
        <time>2024-05-26T07:54:21Z</time>
      </trkpt>
      <trkpt lat="43.73904" lon="6.63444">
        <ele>1188.9</ele>
        <time>2024-05-26T07:54:22Z</time>
      </trkpt>
      <trkpt lat="43.73905" lon="6.63444">
        <ele>1189.1</ele>
        <time>2024-05-26T07:54:23Z</time>
      </trkpt>
      <trkpt lat="43.73906" lon="6.63444">
        <ele>1189.2</ele>
        <time>2024-05-26T07:54:24Z</time>
      </trkpt>
      <trkpt lat="43.73906" lon="6.63445">
        <ele>1189.5</ele>
        <time>2024-05-26T07:54:25Z</time>
      </trkpt>
      <trkpt lat="43.73907" lon="6.63445">
        <ele>1189.6</ele>
        <time>2024-05-26T07:54:26Z</time>
      </trkpt>
      <trkpt lat="43.73908" lon="6.63446">
        <ele>1189.9</ele>
        <time>2024-05-26T07:54:27Z</time>
      </trkpt>
      <trkpt lat="43.73909" lon="6.63447">
        <ele>1190</ele>
        <time>2024-05-26T07:54:28Z</time>
      </trkpt>
      <trkpt lat="43.7391" lon="6.63447">
        <ele>1190.2</ele>
        <time>2024-05-26T07:54:29Z</time>
      </trkpt>
      <trkpt lat="43.7391" lon="6.63448">
        <ele>1190.3</ele>
        <time>2024-05-26T07:54:30Z</time>
      </trkpt>
      <trkpt lat="43.73911" lon="6.63449">
        <ele>1190.4</ele>
        <time>2024-05-26T07:54:31Z</time>
      </trkpt>
      <trkpt lat="43.73911" lon="6.6345">
        <ele>1190.5</ele>
        <time>2024-05-26T07:54:32Z</time>
      </trkpt>
      <trkpt lat="43.73912" lon="6.6345">
        <ele>1190.6</ele>
        <time>2024-05-26T07:54:33Z</time>
      </trkpt>
      <trkpt lat="43.73913" lon="6.6345">
        <ele>1190.8</ele>
        <time>2024-05-26T07:54:34Z</time>
      </trkpt>
      <trkpt lat="43.73913" lon="6.63449">
        <ele>1190.9</ele>
        <time>2024-05-26T07:54:35Z</time>
      </trkpt>
      <trkpt lat="43.73913" lon="6.6345">
        <ele>1191.1</ele>
        <time>2024-05-26T07:54:36Z</time>
      </trkpt>
      <trkpt lat="43.73914" lon="6.6345">
        <ele>1191.2</ele>
        <time>2024-05-26T07:54:37Z</time>
      </trkpt>
      <trkpt lat="43.73914" lon="6.63451">
        <ele>1191.3</ele>
        <time>2024-05-26T07:54:38Z</time>
      </trkpt>
      <trkpt lat="43.73914" lon="6.63451">
        <ele>1191.4</ele>
        <time>2024-05-26T07:54:39Z</time>
      </trkpt>
      <trkpt lat="43.73915" lon="6.63452">
        <ele>1191.5</ele>
        <time>2024-05-26T07:54:40Z</time>
      </trkpt>
      <trkpt lat="43.73915" lon="6.63452">
        <ele>1191.7</ele>
        <time>2024-05-26T07:54:41Z</time>
      </trkpt>
      <trkpt lat="43.73915" lon="6.63452">
        <ele>1191.8</ele>
        <time>2024-05-26T07:54:42Z</time>
      </trkpt>
      <trkpt lat="43.73915" lon="6.63452">
        <ele>1191.9</ele>
        <time>2024-05-26T07:54:43Z</time>
      </trkpt>
      <trkpt lat="43.73915" lon="6.63452">
        <ele>1192.1</ele>
        <time>2024-05-26T07:54:44Z</time>
      </trkpt>
      <trkpt lat="43.73916" lon="6.63452">
        <ele>1192.2</ele>
        <time>2024-05-26T07:54:45Z</time>
      </trkpt>
      <trkpt lat="43.73916" lon="6.63453">
        <ele>1192.3</ele>
        <time>2024-05-26T07:54:46Z</time>
      </trkpt>
      <trkpt lat="43.73916" lon="6.63453">
        <ele>1192.4</ele>
        <time>2024-05-26T07:54:47Z</time>
      </trkpt>
      <trkpt lat="43.73916" lon="6.63454">
        <ele>1192.6</ele>
        <time>2024-05-26T07:54:48Z</time>
      </trkpt>
      <trkpt lat="43.73916" lon="6.63454">
        <ele>1192.7</ele>
        <time>2024-05-26T07:54:49Z</time>
      </trkpt>
      <trkpt lat="43.73916" lon="6.63454">
        <ele>1192.9</ele>
        <time>2024-05-26T07:54:50Z</time>
      </trkpt>
      <trkpt lat="43.73916" lon="6.63454">
        <ele>1193</ele>
        <time>2024-05-26T07:54:51Z</time>
      </trkpt>
      <trkpt lat="43.73916" lon="6.63455">
        <ele>1193.1</ele>
        <time>2024-05-26T07:54:52Z</time>
      </trkpt>
      <trkpt lat="43.73916" lon="6.63455">
        <ele>1193.2</ele>
        <time>2024-05-26T07:54:53Z</time>
      </trkpt>
      <trkpt lat="43.73916" lon="6.63455">
        <ele>1193.2</ele>
        <time>2024-05-26T07:54:54Z</time>
      </trkpt>
      <trkpt lat="43.73916" lon="6.63455">
        <ele>1193.3</ele>
        <time>2024-05-26T07:54:55Z</time>
      </trkpt>
      <trkpt lat="43.73917" lon="6.63455">
        <ele>1193.3</ele>
        <time>2024-05-26T07:54:56Z</time>
      </trkpt>
      <trkpt lat="43.73918" lon="6.63455">
        <ele>1193.3</ele>
        <time>2024-05-26T07:54:57Z</time>
      </trkpt>
      <trkpt lat="43.73918" lon="6.63456">
        <ele>1193.3</ele>
        <time>2024-05-26T07:54:58Z</time>
      </trkpt>
      <trkpt lat="43.73918" lon="6.63456">
        <ele>1193.3</ele>
        <time>2024-05-26T07:54:59Z</time>
      </trkpt>
      <trkpt lat="43.73919" lon="6.63456">
        <ele>1193.4</ele>
        <time>2024-05-26T07:55:00Z</time>
      </trkpt>
      <trkpt lat="43.73919" lon="6.63456">
        <ele>1193.6</ele>
        <time>2024-05-26T07:55:01Z</time>
      </trkpt>
      <trkpt lat="43.7392" lon="6.63457">
        <ele>1193.7</ele>
        <time>2024-05-26T07:55:02Z</time>
      </trkpt>
      <trkpt lat="43.73921" lon="6.63457">
        <ele>1193.8</ele>
        <time>2024-05-26T07:55:03Z</time>
      </trkpt>
      <trkpt lat="43.73921" lon="6.63458">
        <ele>1194</ele>
        <time>2024-05-26T07:55:04Z</time>
      </trkpt>
      <trkpt lat="43.73921" lon="6.63459">
        <ele>1194.1</ele>
        <time>2024-05-26T07:55:05Z</time>
      </trkpt>
      <trkpt lat="43.73922" lon="6.63459">
        <ele>1194.3</ele>
        <time>2024-05-26T07:55:06Z</time>
      </trkpt>
      <trkpt lat="43.73923" lon="6.6346">
        <ele>1194.4</ele>
        <time>2024-05-26T07:55:07Z</time>
      </trkpt>
      <trkpt lat="43.73923" lon="6.63461">
        <ele>1194.5</ele>
        <time>2024-05-26T07:55:08Z</time>
      </trkpt>
      <trkpt lat="43.73924" lon="6.63462">
        <ele>1194.6</ele>
        <time>2024-05-26T07:55:09Z</time>
      </trkpt>
      <trkpt lat="43.73924" lon="6.63462">
        <ele>1194.7</ele>
        <time>2024-05-26T07:55:10Z</time>
      </trkpt>
      <trkpt lat="43.73924" lon="6.63463">
        <ele>1194.7</ele>
        <time>2024-05-26T07:55:11Z</time>
      </trkpt>
      <trkpt lat="43.73925" lon="6.63463">
        <ele>1194.8</ele>
        <time>2024-05-26T07:55:12Z</time>
      </trkpt>
      <trkpt lat="43.73925" lon="6.63463">
        <ele>1194.9</ele>
        <time>2024-05-26T07:55:13Z</time>
      </trkpt>
      <trkpt lat="43.73925" lon="6.63464">
        <ele>1194.9</ele>
        <time>2024-05-26T07:55:14Z</time>
      </trkpt>
      <trkpt lat="43.73925" lon="6.63464">
        <ele>1195</ele>
        <time>2024-05-26T07:55:15Z</time>
      </trkpt>
      <trkpt lat="43.73925" lon="6.63464">
        <ele>1195</ele>
        <time>2024-05-26T07:55:16Z</time>
      </trkpt>
      <trkpt lat="43.73925" lon="6.63464">
        <ele>1195</ele>
        <time>2024-05-26T07:55:17Z</time>
      </trkpt>
      <trkpt lat="43.73925" lon="6.63465">
        <ele>1195.1</ele>
        <time>2024-05-26T07:55:18Z</time>
      </trkpt>
      <trkpt lat="43.73925" lon="6.63465">
        <ele>1195.1</ele>
        <time>2024-05-26T07:55:19Z</time>
      </trkpt>
      <trkpt lat="43.73926" lon="6.63465">
        <ele>1195.2</ele>
        <time>2024-05-26T07:55:20Z</time>
      </trkpt>
      <trkpt lat="43.73926" lon="6.63465">
        <ele>1195.3</ele>
        <time>2024-05-26T07:55:21Z</time>
      </trkpt>
      <trkpt lat="43.73927" lon="6.63466">
        <ele>1195.3</ele>
        <time>2024-05-26T07:55:22Z</time>
      </trkpt>
      <trkpt lat="43.73927" lon="6.63466">
        <ele>1195.4</ele>
        <time>2024-05-26T07:55:23Z</time>
      </trkpt>
      <trkpt lat="43.73928" lon="6.63466">
        <ele>1195.6</ele>
        <time>2024-05-26T07:55:24Z</time>
      </trkpt>
      <trkpt lat="43.73929" lon="6.63467">
        <ele>1195.7</ele>
        <time>2024-05-26T07:55:25Z</time>
      </trkpt>
      <trkpt lat="43.73929" lon="6.63468">
        <ele>1195.9</ele>
        <time>2024-05-26T07:55:26Z</time>
      </trkpt>
      <trkpt lat="43.7393" lon="6.63468">
        <ele>1196</ele>
        <time>2024-05-26T07:55:27Z</time>
      </trkpt>
      <trkpt lat="43.7393" lon="6.63469">
        <ele>1196.1</ele>
        <time>2024-05-26T07:55:28Z</time>
      </trkpt>
      <trkpt lat="43.7393" lon="6.63469">
        <ele>1196.1</ele>
        <time>2024-05-26T07:55:29Z</time>
      </trkpt>
      <trkpt lat="43.73931" lon="6.63469">
        <ele>1196.1</ele>
        <time>2024-05-26T07:55:30Z</time>
      </trkpt>
      <trkpt lat="43.73931" lon="6.63469">
        <ele>1196.2</ele>
        <time>2024-05-26T07:55:31Z</time>
      </trkpt>
      <trkpt lat="43.73932" lon="6.6347">
        <ele>1196.3</ele>
        <time>2024-05-26T07:55:32Z</time>
      </trkpt>
      <trkpt lat="43.73932" lon="6.63471">
        <ele>1196.4</ele>
        <time>2024-05-26T07:55:33Z</time>
      </trkpt>
      <trkpt lat="43.73932" lon="6.63471">
        <ele>1196.5</ele>
        <time>2024-05-26T07:55:34Z</time>
      </trkpt>
      <trkpt lat="43.73933" lon="6.63472">
        <ele>1196.6</ele>
        <time>2024-05-26T07:55:35Z</time>
      </trkpt>
      <trkpt lat="43.73933" lon="6.63472">
        <ele>1196.7</ele>
        <time>2024-05-26T07:55:36Z</time>
      </trkpt>
      <trkpt lat="43.73934" lon="6.63472">
        <ele>1196.9</ele>
        <time>2024-05-26T07:55:37Z</time>
      </trkpt>
      <trkpt lat="43.73934" lon="6.63472">
        <ele>1197.1</ele>
        <time>2024-05-26T07:55:38Z</time>
      </trkpt>
      <trkpt lat="43.73934" lon="6.63472">
        <ele>1197.3</ele>
        <time>2024-05-26T07:55:39Z</time>
      </trkpt>
      <trkpt lat="43.73935" lon="6.63472">
        <ele>1197.4</ele>
        <time>2024-05-26T07:55:40Z</time>
      </trkpt>
      <trkpt lat="43.73935" lon="6.63472">
        <ele>1197.6</ele>
        <time>2024-05-26T07:55:41Z</time>
      </trkpt>
      <trkpt lat="43.73936" lon="6.63473">
        <ele>1197.7</ele>
        <time>2024-05-26T07:55:42Z</time>
      </trkpt>
      <trkpt lat="43.73936" lon="6.63474">
        <ele>1197.8</ele>
        <time>2024-05-26T07:55:43Z</time>
      </trkpt>
      <trkpt lat="43.73937" lon="6.63474">
        <ele>1198</ele>
        <time>2024-05-26T07:55:44Z</time>
      </trkpt>
      <trkpt lat="43.73937" lon="6.63474">
        <ele>1198.1</ele>
        <time>2024-05-26T07:55:45Z</time>
      </trkpt>
      <trkpt lat="43.73938" lon="6.63474">
        <ele>1198.2</ele>
        <time>2024-05-26T07:55:46Z</time>
      </trkpt>
      <trkpt lat="43.73939" lon="6.63475">
        <ele>1198.4</ele>
        <time>2024-05-26T07:55:47Z</time>
      </trkpt>
      <trkpt lat="43.73939" lon="6.63476">
        <ele>1198.6</ele>
        <time>2024-05-26T07:55:48Z</time>
      </trkpt>
      <trkpt lat="43.7394" lon="6.63475">
        <ele>1198.8</ele>
        <time>2024-05-26T07:55:49Z</time>
      </trkpt>
      <trkpt lat="43.7394" lon="6.63476">
        <ele>1199</ele>
        <time>2024-05-26T07:55:50Z</time>
      </trkpt>
      <trkpt lat="43.73941" lon="6.63476">
        <ele>1199.1</ele>
        <time>2024-05-26T07:55:51Z</time>
      </trkpt>
      <trkpt lat="43.73941" lon="6.63476">
        <ele>1199.2</ele>
        <time>2024-05-26T07:55:52Z</time>
      </trkpt>
      <trkpt lat="43.73942" lon="6.63476">
        <ele>1199.4</ele>
        <time>2024-05-26T07:55:53Z</time>
      </trkpt>
      <trkpt lat="43.73943" lon="6.63476">
        <ele>1199.6</ele>
        <time>2024-05-26T07:55:54Z</time>
      </trkpt>
      <trkpt lat="43.73943" lon="6.63477">
        <ele>1199.7</ele>
        <time>2024-05-26T07:55:55Z</time>
      </trkpt>
      <trkpt lat="43.73943" lon="6.63477">
        <ele>1199.9</ele>
        <time>2024-05-26T07:55:56Z</time>
      </trkpt>
      <trkpt lat="43.73944" lon="6.63477">
        <ele>1200.1</ele>
        <time>2024-05-26T07:55:57Z</time>
      </trkpt>
      <trkpt lat="43.73944" lon="6.63477">
        <ele>1200.2</ele>
        <time>2024-05-26T07:55:58Z</time>
      </trkpt>
      <trkpt lat="43.73945" lon="6.63478">
        <ele>1200.5</ele>
        <time>2024-05-26T07:55:59Z</time>
      </trkpt>
      <trkpt lat="43.73945" lon="6.63478">
        <ele>1200.7</ele>
        <time>2024-05-26T07:56:00Z</time>
      </trkpt>
      <trkpt lat="43.73946" lon="6.63478">
        <ele>1200.9</ele>
        <time>2024-05-26T07:56:01Z</time>
      </trkpt>
      <trkpt lat="43.73946" lon="6.63479">
        <ele>1201.1</ele>
        <time>2024-05-26T07:56:02Z</time>
      </trkpt>
      <trkpt lat="43.73946" lon="6.63479">
        <ele>1201.4</ele>
        <time>2024-05-26T07:56:03Z</time>
      </trkpt>
      <trkpt lat="43.73947" lon="6.63479">
        <ele>1201.7</ele>
        <time>2024-05-26T07:56:04Z</time>
      </trkpt>
      <trkpt lat="43.73947" lon="6.6348">
        <ele>1201.7</ele>
        <time>2024-05-26T07:56:05Z</time>
      </trkpt>
      <trkpt lat="43.73948" lon="6.6348">
        <ele>1201.8</ele>
        <time>2024-05-26T07:56:06Z</time>
      </trkpt>
      <trkpt lat="43.73948" lon="6.6348">
        <ele>1202</ele>
        <time>2024-05-26T07:56:07Z</time>
      </trkpt>
      <trkpt lat="43.73948" lon="6.6348">
        <ele>1202.1</ele>
        <time>2024-05-26T07:56:08Z</time>
      </trkpt>
      <trkpt lat="43.73948" lon="6.6348">
        <ele>1202.1</ele>
        <time>2024-05-26T07:56:09Z</time>
      </trkpt>
      <trkpt lat="43.73948" lon="6.6348">
        <ele>1202.2</ele>
        <time>2024-05-26T07:56:10Z</time>
      </trkpt>
      <trkpt lat="43.73948" lon="6.6348">
        <ele>1202.3</ele>
        <time>2024-05-26T07:56:11Z</time>
      </trkpt>
      <trkpt lat="43.73948" lon="6.6348">
        <ele>1202.4</ele>
        <time>2024-05-26T07:56:12Z</time>
      </trkpt>
      <trkpt lat="43.73948" lon="6.6348">
        <ele>1202.4</ele>
        <time>2024-05-26T07:56:13Z</time>
      </trkpt>
      <trkpt lat="43.73948" lon="6.6348">
        <ele>1202.4</ele>
        <time>2024-05-26T07:56:14Z</time>
      </trkpt>
      <trkpt lat="43.73948" lon="6.6348">
        <ele>1202.4</ele>
        <time>2024-05-26T07:56:15Z</time>
      </trkpt>
      <trkpt lat="43.73948" lon="6.6348">
        <ele>1202.5</ele>
        <time>2024-05-26T07:56:16Z</time>
      </trkpt>
      <trkpt lat="43.73948" lon="6.63481">
        <ele>1202.6</ele>
        <time>2024-05-26T07:56:17Z</time>
      </trkpt>
      <trkpt lat="43.73948" lon="6.63481">
        <ele>1202.6</ele>
        <time>2024-05-26T07:56:18Z</time>
      </trkpt>
      <trkpt lat="43.73948" lon="6.63481">
        <ele>1202.5</ele>
        <time>2024-05-26T07:56:19Z</time>
      </trkpt>
      <trkpt lat="43.73948" lon="6.63481">
        <ele>1202.5</ele>
        <time>2024-05-26T07:56:20Z</time>
      </trkpt>
      <trkpt lat="43.73948" lon="6.63481">
        <ele>1202.5</ele>
        <time>2024-05-26T07:56:21Z</time>
      </trkpt>
      <trkpt lat="43.73948" lon="6.63481">
        <ele>1202.5</ele>
        <time>2024-05-26T07:56:22Z</time>
      </trkpt>
      <trkpt lat="43.73948" lon="6.63481">
        <ele>1202.4</ele>
        <time>2024-05-26T07:56:23Z</time>
      </trkpt>
      <trkpt lat="43.73948" lon="6.63481">
        <ele>1202.5</ele>
        <time>2024-05-26T07:56:24Z</time>
      </trkpt>
      <trkpt lat="43.73949" lon="6.6348">
        <ele>1202.5</ele>
        <time>2024-05-26T07:56:25Z</time>
      </trkpt>
      <trkpt lat="43.73949" lon="6.6348">
        <ele>1202.6</ele>
        <time>2024-05-26T07:56:26Z</time>
      </trkpt>
      <trkpt lat="43.73949" lon="6.6348">
        <ele>1202.5</ele>
        <time>2024-05-26T07:56:27Z</time>
      </trkpt>
      <trkpt lat="43.73949" lon="6.6348">
        <ele>1202.5</ele>
        <time>2024-05-26T07:56:28Z</time>
      </trkpt>
      <trkpt lat="43.73949" lon="6.6348">
        <ele>1202.5</ele>
        <time>2024-05-26T07:56:29Z</time>
      </trkpt>
      <trkpt lat="43.73949" lon="6.6348">
        <ele>1202.5</ele>
        <time>2024-05-26T07:56:30Z</time>
      </trkpt>
      <trkpt lat="43.73949" lon="6.6348">
        <ele>1202.4</ele>
        <time>2024-05-26T07:56:31Z</time>
      </trkpt>
      <trkpt lat="43.73949" lon="6.6348">
        <ele>1202.4</ele>
        <time>2024-05-26T07:56:32Z</time>
      </trkpt>
      <trkpt lat="43.73949" lon="6.6348">
        <ele>1202.4</ele>
        <time>2024-05-26T07:56:33Z</time>
      </trkpt>
      <trkpt lat="43.73949" lon="6.6348">
        <ele>1202.4</ele>
        <time>2024-05-26T07:56:34Z</time>
      </trkpt>
      <trkpt lat="43.73949" lon="6.6348">
        <ele>1202.4</ele>
        <time>2024-05-26T07:56:35Z</time>
      </trkpt>
      <trkpt lat="43.73949" lon="6.6348">
        <ele>1202.4</ele>
        <time>2024-05-26T07:56:36Z</time>
      </trkpt>
      <trkpt lat="43.73949" lon="6.6348">
        <ele>1202.4</ele>
        <time>2024-05-26T07:56:37Z</time>
      </trkpt>
      <trkpt lat="43.73949" lon="6.6348">
        <ele>1202.4</ele>
        <time>2024-05-26T07:56:38Z</time>
      </trkpt>
      <trkpt lat="43.73949" lon="6.6348">
        <ele>1202.4</ele>
        <time>2024-05-26T07:56:39Z</time>
      </trkpt>
      <trkpt lat="43.73949" lon="6.6348">
        <ele>1202.5</ele>
        <time>2024-05-26T07:56:40Z</time>
      </trkpt>
      <trkpt lat="43.73949" lon="6.63481">
        <ele>1202.5</ele>
        <time>2024-05-26T07:56:41Z</time>
      </trkpt>
      <trkpt lat="43.73949" lon="6.63481">
        <ele>1202.6</ele>
        <time>2024-05-26T07:56:42Z</time>
      </trkpt>
      <trkpt lat="43.73949" lon="6.63482">
        <ele>1202.5</ele>
        <time>2024-05-26T07:56:43Z</time>
      </trkpt>
      <trkpt lat="43.73949" lon="6.63482">
        <ele>1202.6</ele>
        <time>2024-05-26T07:56:44Z</time>
      </trkpt>
      <trkpt lat="43.73949" lon="6.63482">
        <ele>1202.7</ele>
        <time>2024-05-26T07:56:45Z</time>
      </trkpt>
      <trkpt lat="43.7395" lon="6.63482">
        <ele>1202.8</ele>
        <time>2024-05-26T07:56:46Z</time>
      </trkpt>
      <trkpt lat="43.7395" lon="6.63482">
        <ele>1202.9</ele>
        <time>2024-05-26T07:56:47Z</time>
      </trkpt>
      <trkpt lat="43.7395" lon="6.63482">
        <ele>1202.9</ele>
        <time>2024-05-26T07:56:48Z</time>
      </trkpt>
      <trkpt lat="43.7395" lon="6.63482">
        <ele>1202.8</ele>
        <time>2024-05-26T07:56:49Z</time>
      </trkpt>
      <trkpt lat="43.7395" lon="6.63482">
        <ele>1202.8</ele>
        <time>2024-05-26T07:56:50Z</time>
      </trkpt>
      <trkpt lat="43.7395" lon="6.63482">
        <ele>1202.8</ele>
        <time>2024-05-26T07:56:51Z</time>
      </trkpt>
      <trkpt lat="43.7395" lon="6.63482">
        <ele>1202.8</ele>
        <time>2024-05-26T07:56:52Z</time>
      </trkpt>
      <trkpt lat="43.7395" lon="6.63482">
        <ele>1202.9</ele>
        <time>2024-05-26T07:56:53Z</time>
      </trkpt>
      <trkpt lat="43.7395" lon="6.63482">
        <ele>1203</ele>
        <time>2024-05-26T07:56:54Z</time>
      </trkpt>
      <trkpt lat="43.7395" lon="6.63482">
        <ele>1203</ele>
        <time>2024-05-26T07:56:55Z</time>
      </trkpt>
      <trkpt lat="43.73951" lon="6.63482">
        <ele>1203.1</ele>
        <time>2024-05-26T07:56:56Z</time>
      </trkpt>
      <trkpt lat="43.73951" lon="6.63482">
        <ele>1203.1</ele>
        <time>2024-05-26T07:56:57Z</time>
      </trkpt>
      <trkpt lat="43.73951" lon="6.63482">
        <ele>1203.3</ele>
        <time>2024-05-26T07:56:58Z</time>
      </trkpt>
      <trkpt lat="43.73951" lon="6.63482">
        <ele>1203.4</ele>
        <time>2024-05-26T07:56:59Z</time>
      </trkpt>
      <trkpt lat="43.73951" lon="6.63482">
        <ele>1203.4</ele>
        <time>2024-05-26T07:57:00Z</time>
      </trkpt>
      <trkpt lat="43.73951" lon="6.63482">
        <ele>1203.4</ele>
        <time>2024-05-26T07:57:01Z</time>
      </trkpt>
      <trkpt lat="43.73951" lon="6.63482">
        <ele>1203.4</ele>
        <time>2024-05-26T07:57:02Z</time>
      </trkpt>
      <trkpt lat="43.73951" lon="6.63482">
        <ele>1203.3</ele>
        <time>2024-05-26T07:57:03Z</time>
      </trkpt>
      <trkpt lat="43.73951" lon="6.63482">
        <ele>1203.3</ele>
        <time>2024-05-26T07:57:04Z</time>
      </trkpt>
      <trkpt lat="43.73951" lon="6.63482">
        <ele>1203.2</ele>
        <time>2024-05-26T07:57:05Z</time>
      </trkpt>
      <trkpt lat="43.73951" lon="6.63482">
        <ele>1203.2</ele>
        <time>2024-05-26T07:57:06Z</time>
      </trkpt>
      <trkpt lat="43.73951" lon="6.63482">
        <ele>1203.2</ele>
        <time>2024-05-26T07:57:07Z</time>
      </trkpt>
      <trkpt lat="43.73951" lon="6.63482">
        <ele>1203.2</ele>
        <time>2024-05-26T07:57:08Z</time>
      </trkpt>
      <trkpt lat="43.73952" lon="6.63482">
        <ele>1203.2</ele>
        <time>2024-05-26T07:57:09Z</time>
      </trkpt>
      <trkpt lat="43.73952" lon="6.63482">
        <ele>1203.1</ele>
        <time>2024-05-26T07:57:10Z</time>
      </trkpt>
      <trkpt lat="43.73952" lon="6.63482">
        <ele>1203.1</ele>
        <time>2024-05-26T07:57:11Z</time>
      </trkpt>
      <trkpt lat="43.73952" lon="6.63482">
        <ele>1203.2</ele>
        <time>2024-05-26T07:57:12Z</time>
      </trkpt>
      <trkpt lat="43.73952" lon="6.63482">
        <ele>1203.3</ele>
        <time>2024-05-26T07:57:13Z</time>
      </trkpt>
      <trkpt lat="43.73952" lon="6.63481">
        <ele>1203.3</ele>
        <time>2024-05-26T07:57:14Z</time>
      </trkpt>
      <trkpt lat="43.73952" lon="6.63481">
        <ele>1203.3</ele>
        <time>2024-05-26T07:57:15Z</time>
      </trkpt>
      <trkpt lat="43.73952" lon="6.63481">
        <ele>1203.2</ele>
        <time>2024-05-26T07:57:16Z</time>
      </trkpt>
      <trkpt lat="43.73952" lon="6.63481">
        <ele>1203.2</ele>
        <time>2024-05-26T07:57:17Z</time>
      </trkpt>
      <trkpt lat="43.73952" lon="6.63481">
        <ele>1203.2</ele>
        <time>2024-05-26T07:57:18Z</time>
      </trkpt>
      <trkpt lat="43.73952" lon="6.63481">
        <ele>1203.1</ele>
        <time>2024-05-26T07:57:19Z</time>
      </trkpt>
      <trkpt lat="43.73952" lon="6.63481">
        <ele>1203</ele>
        <time>2024-05-26T07:57:20Z</time>
      </trkpt>
      <trkpt lat="43.73952" lon="6.63481">
        <ele>1203</ele>
        <time>2024-05-26T07:57:21Z</time>
      </trkpt>
      <trkpt lat="43.73952" lon="6.63481">
        <ele>1202.9</ele>
        <time>2024-05-26T07:57:22Z</time>
      </trkpt>
      <trkpt lat="43.73952" lon="6.63481">
        <ele>1203</ele>
        <time>2024-05-26T07:57:23Z</time>
      </trkpt>
      <trkpt lat="43.73952" lon="6.63481">
        <ele>1203</ele>
        <time>2024-05-26T07:57:24Z</time>
      </trkpt>
      <trkpt lat="43.73953" lon="6.63481">
        <ele>1203</ele>
        <time>2024-05-26T07:57:25Z</time>
      </trkpt>
      <trkpt lat="43.73953" lon="6.63481">
        <ele>1203</ele>
        <time>2024-05-26T07:57:26Z</time>
      </trkpt>
      <trkpt lat="43.73954" lon="6.6348">
        <ele>1203</ele>
        <time>2024-05-26T07:57:27Z</time>
      </trkpt>
      <trkpt lat="43.73954" lon="6.6348">
        <ele>1203</ele>
        <time>2024-05-26T07:57:28Z</time>
      </trkpt>
      <trkpt lat="43.73955" lon="6.6348">
        <ele>1202.9</ele>
        <time>2024-05-26T07:57:29Z</time>
      </trkpt>
      <trkpt lat="43.73956" lon="6.63481">
        <ele>1202.9</ele>
        <time>2024-05-26T07:57:30Z</time>
      </trkpt>
      <trkpt lat="43.73956" lon="6.63481">
        <ele>1202.8</ele>
        <time>2024-05-26T07:57:31Z</time>
      </trkpt>
      <trkpt lat="43.73957" lon="6.63481">
        <ele>1202.9</ele>
        <time>2024-05-26T07:57:32Z</time>
      </trkpt>
      <trkpt lat="43.73957" lon="6.63481">
        <ele>1203</ele>
        <time>2024-05-26T07:57:33Z</time>
      </trkpt>
      <trkpt lat="43.73958" lon="6.63481">
        <ele>1203</ele>
        <time>2024-05-26T07:57:34Z</time>
      </trkpt>
      <trkpt lat="43.73959" lon="6.63481">
        <ele>1203.1</ele>
        <time>2024-05-26T07:57:35Z</time>
      </trkpt>
      <trkpt lat="43.7396" lon="6.63482">
        <ele>1203.1</ele>
        <time>2024-05-26T07:57:36Z</time>
      </trkpt>
      <trkpt lat="43.73961" lon="6.63482">
        <ele>1203.2</ele>
        <time>2024-05-26T07:57:37Z</time>
      </trkpt>
      <trkpt lat="43.73962" lon="6.63482">
        <ele>1203.4</ele>
        <time>2024-05-26T07:57:38Z</time>
      </trkpt>
      <trkpt lat="43.73962" lon="6.63483">
        <ele>1203.5</ele>
        <time>2024-05-26T07:57:39Z</time>
      </trkpt>
      <trkpt lat="43.73962" lon="6.63484">
        <ele>1203.7</ele>
        <time>2024-05-26T07:57:40Z</time>
      </trkpt>
      <trkpt lat="43.73963" lon="6.63485">
        <ele>1203.9</ele>
        <time>2024-05-26T07:57:41Z</time>
      </trkpt>
      <trkpt lat="43.73964" lon="6.63485">
        <ele>1204</ele>
        <time>2024-05-26T07:57:42Z</time>
      </trkpt>
      <trkpt lat="43.73965" lon="6.63484">
        <ele>1204</ele>
        <time>2024-05-26T07:57:43Z</time>
      </trkpt>
      <trkpt lat="43.73966" lon="6.63484">
        <ele>1204.1</ele>
        <time>2024-05-26T07:57:44Z</time>
      </trkpt>
      <trkpt lat="43.73966" lon="6.63484">
        <ele>1204.3</ele>
        <time>2024-05-26T07:57:45Z</time>
      </trkpt>
      <trkpt lat="43.73967" lon="6.63485">
        <ele>1204.5</ele>
        <time>2024-05-26T07:57:46Z</time>
      </trkpt>
      <trkpt lat="43.73968" lon="6.63485">
        <ele>1204.6</ele>
        <time>2024-05-26T07:57:47Z</time>
      </trkpt>
      <trkpt lat="43.73969" lon="6.63484">
        <ele>1204.7</ele>
        <time>2024-05-26T07:57:48Z</time>
      </trkpt>
      <trkpt lat="43.7397" lon="6.63483">
        <ele>1204.8</ele>
        <time>2024-05-26T07:57:49Z</time>
      </trkpt>
      <trkpt lat="43.73971" lon="6.63483">
        <ele>1204.8</ele>
        <time>2024-05-26T07:57:50Z</time>
      </trkpt>
      <trkpt lat="43.73972" lon="6.63483">
        <ele>1204.9</ele>
        <time>2024-05-26T07:57:51Z</time>
      </trkpt>
      <trkpt lat="43.73973" lon="6.63483">
        <ele>1204.9</ele>
        <time>2024-05-26T07:57:52Z</time>
      </trkpt>
      <trkpt lat="43.73973" lon="6.63483">
        <ele>1205</ele>
        <time>2024-05-26T07:57:53Z</time>
      </trkpt>
      <trkpt lat="43.73974" lon="6.63483">
        <ele>1205</ele>
        <time>2024-05-26T07:57:54Z</time>
      </trkpt>
      <trkpt lat="43.73974" lon="6.63483">
        <ele>1205.1</ele>
        <time>2024-05-26T07:57:55Z</time>
      </trkpt>
      <trkpt lat="43.73974" lon="6.63483">
        <ele>1205.3</ele>
        <time>2024-05-26T07:57:56Z</time>
      </trkpt>
      <trkpt lat="43.73974" lon="6.63483">
        <ele>1205.4</ele>
        <time>2024-05-26T07:57:57Z</time>
      </trkpt>
      <trkpt lat="43.73974" lon="6.63483">
        <ele>1205.5</ele>
        <time>2024-05-26T07:57:58Z</time>
      </trkpt>
      <trkpt lat="43.73974" lon="6.63483">
        <ele>1205.7</ele>
        <time>2024-05-26T07:57:59Z</time>
      </trkpt>
      <trkpt lat="43.73974" lon="6.63483">
        <ele>1205.7</ele>
        <time>2024-05-26T07:58:00Z</time>
      </trkpt>
      <trkpt lat="43.73974" lon="6.63483">
        <ele>1205.8</ele>
        <time>2024-05-26T07:58:01Z</time>
      </trkpt>
      <trkpt lat="43.73974" lon="6.63483">
        <ele>1205.8</ele>
        <time>2024-05-26T07:58:02Z</time>
      </trkpt>
      <trkpt lat="43.73974" lon="6.63483">
        <ele>1205.8</ele>
        <time>2024-05-26T07:58:03Z</time>
      </trkpt>
      <trkpt lat="43.73974" lon="6.63483">
        <ele>1205.9</ele>
        <time>2024-05-26T07:58:04Z</time>
      </trkpt>
      <trkpt lat="43.73974" lon="6.63483">
        <ele>1205.8</ele>
        <time>2024-05-26T07:58:05Z</time>
      </trkpt>
      <trkpt lat="43.73974" lon="6.63483">
        <ele>1205.9</ele>
        <time>2024-05-26T07:58:06Z</time>
      </trkpt>
      <trkpt lat="43.73974" lon="6.63483">
        <ele>1205.9</ele>
        <time>2024-05-26T07:58:07Z</time>
      </trkpt>
      <trkpt lat="43.73974" lon="6.63483">
        <ele>1205.9</ele>
        <time>2024-05-26T07:58:08Z</time>
      </trkpt>
      <trkpt lat="43.73974" lon="6.63483">
        <ele>1206</ele>
        <time>2024-05-26T07:58:09Z</time>
      </trkpt>
      <trkpt lat="43.73975" lon="6.63483">
        <ele>1206.1</ele>
        <time>2024-05-26T07:58:10Z</time>
      </trkpt>
      <trkpt lat="43.73975" lon="6.63483">
        <ele>1206</ele>
        <time>2024-05-26T07:58:11Z</time>
      </trkpt>
      <trkpt lat="43.73975" lon="6.63483">
        <ele>1206.1</ele>
        <time>2024-05-26T07:58:12Z</time>
      </trkpt>
      <trkpt lat="43.73975" lon="6.63483">
        <ele>1206.1</ele>
        <time>2024-05-26T07:58:13Z</time>
      </trkpt>
      <trkpt lat="43.73974" lon="6.63483">
        <ele>1206</ele>
        <time>2024-05-26T07:58:14Z</time>
      </trkpt>
      <trkpt lat="43.73974" lon="6.63483">
        <ele>1206</ele>
        <time>2024-05-26T07:58:15Z</time>
      </trkpt>
      <trkpt lat="43.73975" lon="6.63483">
        <ele>1206</ele>
        <time>2024-05-26T07:58:16Z</time>
      </trkpt>
      <trkpt lat="43.73975" lon="6.63483">
        <ele>1206</ele>
        <time>2024-05-26T07:58:17Z</time>
      </trkpt>
      <trkpt lat="43.73975" lon="6.63483">
        <ele>1206.1</ele>
        <time>2024-05-26T07:58:18Z</time>
      </trkpt>
      <trkpt lat="43.73975" lon="6.63483">
        <ele>1206.1</ele>
        <time>2024-05-26T07:58:19Z</time>
      </trkpt>
      <trkpt lat="43.73975" lon="6.63483">
        <ele>1206.2</ele>
        <time>2024-05-26T07:58:20Z</time>
      </trkpt>
      <trkpt lat="43.73975" lon="6.63483">
        <ele>1206.2</ele>
        <time>2024-05-26T07:58:21Z</time>
      </trkpt>
      <trkpt lat="43.73975" lon="6.63482">
        <ele>1206.2</ele>
        <time>2024-05-26T07:58:22Z</time>
      </trkpt>
      <trkpt lat="43.73975" lon="6.63482">
        <ele>1206.2</ele>
        <time>2024-05-26T07:58:23Z</time>
      </trkpt>
      <trkpt lat="43.73975" lon="6.63482">
        <ele>1206.2</ele>
        <time>2024-05-26T07:58:24Z</time>
      </trkpt>
      <trkpt lat="43.73975" lon="6.63482">
        <ele>1206.3</ele>
        <time>2024-05-26T07:58:25Z</time>
      </trkpt>
      <trkpt lat="43.73975" lon="6.63482">
        <ele>1206.3</ele>
        <time>2024-05-26T07:58:26Z</time>
      </trkpt>
      <trkpt lat="43.73975" lon="6.63482">
        <ele>1206.3</ele>
        <time>2024-05-26T07:58:27Z</time>
      </trkpt>
      <trkpt lat="43.73976" lon="6.63482">
        <ele>1206.3</ele>
        <time>2024-05-26T07:58:28Z</time>
      </trkpt>
      <trkpt lat="43.73976" lon="6.63482">
        <ele>1206.3</ele>
        <time>2024-05-26T07:58:29Z</time>
      </trkpt>
      <trkpt lat="43.73977" lon="6.63482">
        <ele>1206.3</ele>
        <time>2024-05-26T07:58:30Z</time>
      </trkpt>
      <trkpt lat="43.73978" lon="6.63483">
        <ele>1206.5</ele>
        <time>2024-05-26T07:58:31Z</time>
      </trkpt>
      <trkpt lat="43.73979" lon="6.63482">
        <ele>1206.6</ele>
        <time>2024-05-26T07:58:32Z</time>
      </trkpt>
      <trkpt lat="43.73979" lon="6.63482">
        <ele>1206.7</ele>
        <time>2024-05-26T07:58:33Z</time>
      </trkpt>
      <trkpt lat="43.7398" lon="6.63482">
        <ele>1206.8</ele>
        <time>2024-05-26T07:58:34Z</time>
      </trkpt>
      <trkpt lat="43.73981" lon="6.63482">
        <ele>1207</ele>
        <time>2024-05-26T07:58:35Z</time>
      </trkpt>
      <trkpt lat="43.73982" lon="6.63482">
        <ele>1207.2</ele>
        <time>2024-05-26T07:58:36Z</time>
      </trkpt>
      <trkpt lat="43.73983" lon="6.63482">
        <ele>1207.3</ele>
        <time>2024-05-26T07:58:37Z</time>
      </trkpt>
      <trkpt lat="43.73984" lon="6.63482">
        <ele>1207.5</ele>
        <time>2024-05-26T07:58:38Z</time>
      </trkpt>
      <trkpt lat="43.73985" lon="6.63482">
        <ele>1207.6</ele>
        <time>2024-05-26T07:58:39Z</time>
      </trkpt>
      <trkpt lat="43.73985" lon="6.63483">
        <ele>1207.7</ele>
        <time>2024-05-26T07:58:40Z</time>
      </trkpt>
      <trkpt lat="43.73986" lon="6.63482">
        <ele>1207.9</ele>
        <time>2024-05-26T07:58:41Z</time>
      </trkpt>
      <trkpt lat="43.73987" lon="6.63483">
        <ele>1208</ele>
        <time>2024-05-26T07:58:42Z</time>
      </trkpt>
      <trkpt lat="43.73987" lon="6.63483">
        <ele>1208.1</ele>
        <time>2024-05-26T07:58:43Z</time>
      </trkpt>
      <trkpt lat="43.73988" lon="6.63482">
        <ele>1208.2</ele>
        <time>2024-05-26T07:58:44Z</time>
      </trkpt>
      <trkpt lat="43.73989" lon="6.63481">
        <ele>1208.3</ele>
        <time>2024-05-26T07:58:45Z</time>
      </trkpt>
      <trkpt lat="43.7399" lon="6.6348">
        <ele>1208.4</ele>
        <time>2024-05-26T07:58:46Z</time>
      </trkpt>
      <trkpt lat="43.73991" lon="6.63478">
        <ele>1208.5</ele>
        <time>2024-05-26T07:58:47Z</time>
      </trkpt>
      <trkpt lat="43.73991" lon="6.63477">
        <ele>1208.6</ele>
        <time>2024-05-26T07:58:48Z</time>
      </trkpt>
      <trkpt lat="43.73992" lon="6.63476">
        <ele>1208.8</ele>
        <time>2024-05-26T07:58:49Z</time>
      </trkpt>
      <trkpt lat="43.73992" lon="6.63476">
        <ele>1208.9</ele>
        <time>2024-05-26T07:58:50Z</time>
      </trkpt>
      <trkpt lat="43.73993" lon="6.63476">
        <ele>1209</ele>
        <time>2024-05-26T07:58:51Z</time>
      </trkpt>
      <trkpt lat="43.73994" lon="6.63475">
        <ele>1209.1</ele>
        <time>2024-05-26T07:58:52Z</time>
      </trkpt>
      <trkpt lat="43.73994" lon="6.63474">
        <ele>1209.2</ele>
        <time>2024-05-26T07:58:53Z</time>
      </trkpt>
      <trkpt lat="43.73994" lon="6.63474">
        <ele>1209.2</ele>
        <time>2024-05-26T07:58:54Z</time>
      </trkpt>
      <trkpt lat="43.73993" lon="6.63475">
        <ele>1209.3</ele>
        <time>2024-05-26T07:58:55Z</time>
      </trkpt>
      <trkpt lat="43.73993" lon="6.63475">
        <ele>1209.3</ele>
        <time>2024-05-26T07:58:56Z</time>
      </trkpt>
      <trkpt lat="43.73993" lon="6.63475">
        <ele>1209.3</ele>
        <time>2024-05-26T07:58:57Z</time>
      </trkpt>
      <trkpt lat="43.73992" lon="6.63475">
        <ele>1209.3</ele>
        <time>2024-05-26T07:58:58Z</time>
      </trkpt>
      <trkpt lat="43.73992" lon="6.63476">
        <ele>1209.4</ele>
        <time>2024-05-26T07:58:59Z</time>
      </trkpt>
      <trkpt lat="43.73992" lon="6.63476">
        <ele>1209.4</ele>
        <time>2024-05-26T07:59:00Z</time>
      </trkpt>
      <trkpt lat="43.73992" lon="6.63476">
        <ele>1209.5</ele>
        <time>2024-05-26T07:59:01Z</time>
      </trkpt>
      <trkpt lat="43.73992" lon="6.63476">
        <ele>1209.4</ele>
        <time>2024-05-26T07:59:02Z</time>
      </trkpt>
      <trkpt lat="43.73991" lon="6.63477">
        <ele>1209.4</ele>
        <time>2024-05-26T07:59:03Z</time>
      </trkpt>
      <trkpt lat="43.73991" lon="6.63477">
        <ele>1209.4</ele>
        <time>2024-05-26T07:59:04Z</time>
      </trkpt>
      <trkpt lat="43.73991" lon="6.63477">
        <ele>1209.3</ele>
        <time>2024-05-26T07:59:05Z</time>
      </trkpt>
      <trkpt lat="43.73991" lon="6.63477">
        <ele>1209.4</ele>
        <time>2024-05-26T07:59:06Z</time>
      </trkpt>
      <trkpt lat="43.73991" lon="6.63477">
        <ele>1209.4</ele>
        <time>2024-05-26T07:59:07Z</time>
      </trkpt>
      <trkpt lat="43.73991" lon="6.63477">
        <ele>1209.4</ele>
        <time>2024-05-26T07:59:08Z</time>
      </trkpt>
      <trkpt lat="43.73991" lon="6.63477">
        <ele>1209.4</ele>
        <time>2024-05-26T07:59:09Z</time>
      </trkpt>
      <trkpt lat="43.73991" lon="6.63477">
        <ele>1209.4</ele>
        <time>2024-05-26T07:59:10Z</time>
      </trkpt>
      <trkpt lat="43.73991" lon="6.63477">
        <ele>1209.4</ele>
        <time>2024-05-26T07:59:11Z</time>
      </trkpt>
      <trkpt lat="43.73991" lon="6.63477">
        <ele>1209.4</ele>
        <time>2024-05-26T07:59:12Z</time>
      </trkpt>
      <trkpt lat="43.73991" lon="6.63476">
        <ele>1209.4</ele>
        <time>2024-05-26T07:59:13Z</time>
      </trkpt>
      <trkpt lat="43.73991" lon="6.63476">
        <ele>1209.4</ele>
        <time>2024-05-26T07:59:14Z</time>
      </trkpt>
      <trkpt lat="43.73991" lon="6.63476">
        <ele>1209.4</ele>
        <time>2024-05-26T07:59:15Z</time>
      </trkpt>
      <trkpt lat="43.73991" lon="6.63476">
        <ele>1209.3</ele>
        <time>2024-05-26T07:59:16Z</time>
      </trkpt>
      <trkpt lat="43.73991" lon="6.63476">
        <ele>1209.3</ele>
        <time>2024-05-26T07:59:17Z</time>
      </trkpt>
      <trkpt lat="43.73991" lon="6.63476">
        <ele>1209.3</ele>
        <time>2024-05-26T07:59:18Z</time>
      </trkpt>
      <trkpt lat="43.73991" lon="6.63476">
        <ele>1209.2</ele>
        <time>2024-05-26T07:59:19Z</time>
      </trkpt>
      <trkpt lat="43.73991" lon="6.63476">
        <ele>1209.3</ele>
        <time>2024-05-26T07:59:20Z</time>
      </trkpt>
      <trkpt lat="43.73991" lon="6.63476">
        <ele>1209.2</ele>
        <time>2024-05-26T07:59:21Z</time>
      </trkpt>
      <trkpt lat="43.73991" lon="6.63476">
        <ele>1209.1</ele>
        <time>2024-05-26T07:59:22Z</time>
      </trkpt>
      <trkpt lat="43.73991" lon="6.63476">
        <ele>1209.1</ele>
        <time>2024-05-26T07:59:23Z</time>
      </trkpt>
      <trkpt lat="43.73992" lon="6.63475">
        <ele>1209.1</ele>
        <time>2024-05-26T07:59:24Z</time>
      </trkpt>
      <trkpt lat="43.73992" lon="6.63474">
        <ele>1209.2</ele>
        <time>2024-05-26T07:59:25Z</time>
      </trkpt>
      <trkpt lat="43.73993" lon="6.63473">
        <ele>1209.3</ele>
        <time>2024-05-26T07:59:26Z</time>
      </trkpt>
      <trkpt lat="43.73994" lon="6.63473">
        <ele>1209.4</ele>
        <time>2024-05-26T07:59:27Z</time>
      </trkpt>
      <trkpt lat="43.73994" lon="6.63472">
        <ele>1209.4</ele>
        <time>2024-05-26T07:59:28Z</time>
      </trkpt>
      <trkpt lat="43.73994" lon="6.63472">
        <ele>1209.5</ele>
        <time>2024-05-26T07:59:29Z</time>
      </trkpt>
      <trkpt lat="43.73994" lon="6.63472">
        <ele>1209.5</ele>
        <time>2024-05-26T07:59:30Z</time>
      </trkpt>
      <trkpt lat="43.73995" lon="6.63471">
        <ele>1209.5</ele>
        <time>2024-05-26T07:59:31Z</time>
      </trkpt>
      <trkpt lat="43.73995" lon="6.63471">
        <ele>1209.5</ele>
        <time>2024-05-26T07:59:32Z</time>
      </trkpt>
      <trkpt lat="43.73995" lon="6.6347">
        <ele>1209.5</ele>
        <time>2024-05-26T07:59:33Z</time>
      </trkpt>
      <trkpt lat="43.73995" lon="6.6347">
        <ele>1209.5</ele>
        <time>2024-05-26T07:59:34Z</time>
      </trkpt>
      <trkpt lat="43.73995" lon="6.6347">
        <ele>1209.5</ele>
        <time>2024-05-26T07:59:35Z</time>
      </trkpt>
      <trkpt lat="43.73995" lon="6.6347">
        <ele>1209.5</ele>
        <time>2024-05-26T07:59:36Z</time>
      </trkpt>
      <trkpt lat="43.73995" lon="6.6347">
        <ele>1209.4</ele>
        <time>2024-05-26T07:59:37Z</time>
      </trkpt>
      <trkpt lat="43.73995" lon="6.6347">
        <ele>1209.6</ele>
        <time>2024-05-26T07:59:38Z</time>
      </trkpt>
      <trkpt lat="43.73996" lon="6.6347">
        <ele>1209.7</ele>
        <time>2024-05-26T07:59:39Z</time>
      </trkpt>
      <trkpt lat="43.73996" lon="6.63469">
        <ele>1209.9</ele>
        <time>2024-05-26T07:59:40Z</time>
      </trkpt>
      <trkpt lat="43.73997" lon="6.63469">
        <ele>1210.1</ele>
        <time>2024-05-26T07:59:41Z</time>
      </trkpt>
      <trkpt lat="43.73997" lon="6.63469">
        <ele>1210.1</ele>
        <time>2024-05-26T07:59:42Z</time>
      </trkpt>
      <trkpt lat="43.73997" lon="6.63469">
        <ele>1210.2</ele>
        <time>2024-05-26T07:59:43Z</time>
      </trkpt>
      <trkpt lat="43.73997" lon="6.63469">
        <ele>1210.4</ele>
        <time>2024-05-26T07:59:44Z</time>
      </trkpt>
      <trkpt lat="43.73997" lon="6.6347">
        <ele>1210.5</ele>
        <time>2024-05-26T07:59:45Z</time>
      </trkpt>
      <trkpt lat="43.73997" lon="6.63469">
        <ele>1210.6</ele>
        <time>2024-05-26T07:59:46Z</time>
      </trkpt>
      <trkpt lat="43.73998" lon="6.63469">
        <ele>1210.8</ele>
        <time>2024-05-26T07:59:47Z</time>
      </trkpt>
      <trkpt lat="43.73998" lon="6.63468">
        <ele>1211</ele>
        <time>2024-05-26T07:59:48Z</time>
      </trkpt>
      <trkpt lat="43.73999" lon="6.63468">
        <ele>1211.2</ele>
        <time>2024-05-26T07:59:49Z</time>
      </trkpt>
      <trkpt lat="43.74" lon="6.63466">
        <ele>1211.3</ele>
        <time>2024-05-26T07:59:50Z</time>
      </trkpt>
      <trkpt lat="43.74001" lon="6.63465">
        <ele>1211.5</ele>
        <time>2024-05-26T07:59:51Z</time>
      </trkpt>
      <trkpt lat="43.74001" lon="6.63464">
        <ele>1211.7</ele>
        <time>2024-05-26T07:59:52Z</time>
      </trkpt>
      <trkpt lat="43.74002" lon="6.63463">
        <ele>1211.9</ele>
        <time>2024-05-26T07:59:53Z</time>
      </trkpt>
      <trkpt lat="43.74002" lon="6.63462">
        <ele>1212.1</ele>
        <time>2024-05-26T07:59:54Z</time>
      </trkpt>
      <trkpt lat="43.74002" lon="6.63461">
        <ele>1212.3</ele>
        <time>2024-05-26T07:59:55Z</time>
      </trkpt>
      <trkpt lat="43.74003" lon="6.6346">
        <ele>1212.5</ele>
        <time>2024-05-26T07:59:56Z</time>
      </trkpt>
      <trkpt lat="43.74004" lon="6.63459">
        <ele>1212.6</ele>
        <time>2024-05-26T07:59:57Z</time>
      </trkpt>
      <trkpt lat="43.74005" lon="6.63458">
        <ele>1212.9</ele>
        <time>2024-05-26T07:59:58Z</time>
      </trkpt>
      <trkpt lat="43.74005" lon="6.63458">
        <ele>1213.1</ele>
        <time>2024-05-26T07:59:59Z</time>
      </trkpt>
      <trkpt lat="43.74005" lon="6.63457">
        <ele>1213.2</ele>
        <time>2024-05-26T08:00:00Z</time>
      </trkpt>
      <trkpt lat="43.74005" lon="6.63456">
        <ele>1213.4</ele>
        <time>2024-05-26T08:00:01Z</time>
      </trkpt>
      <trkpt lat="43.74005" lon="6.63455">
        <ele>1213.6</ele>
        <time>2024-05-26T08:00:02Z</time>
      </trkpt>
      <trkpt lat="43.74006" lon="6.63455">
        <ele>1213.8</ele>
        <time>2024-05-26T08:00:03Z</time>
      </trkpt>
      <trkpt lat="43.74006" lon="6.63454">
        <ele>1214</ele>
        <time>2024-05-26T08:00:04Z</time>
      </trkpt>
      <trkpt lat="43.74007" lon="6.63453">
        <ele>1214</ele>
        <time>2024-05-26T08:00:05Z</time>
      </trkpt>
      <trkpt lat="43.74007" lon="6.63452">
        <ele>1214.2</ele>
        <time>2024-05-26T08:00:06Z</time>
      </trkpt>
      <trkpt lat="43.74008" lon="6.63451">
        <ele>1214.4</ele>
        <time>2024-05-26T08:00:07Z</time>
      </trkpt>
      <trkpt lat="43.74008" lon="6.6345">
        <ele>1214.6</ele>
        <time>2024-05-26T08:00:08Z</time>
      </trkpt>
      <trkpt lat="43.74008" lon="6.63449">
        <ele>1214.7</ele>
        <time>2024-05-26T08:00:09Z</time>
      </trkpt>
      <trkpt lat="43.74008" lon="6.63449">
        <ele>1214.6</ele>
        <time>2024-05-26T08:00:10Z</time>
      </trkpt>
      <trkpt lat="43.74008" lon="6.63449">
        <ele>1214.7</ele>
        <time>2024-05-26T08:00:11Z</time>
      </trkpt>
      <trkpt lat="43.74008" lon="6.63449">
        <ele>1214.8</ele>
        <time>2024-05-26T08:00:12Z</time>
      </trkpt>
      <trkpt lat="43.74008" lon="6.63449">
        <ele>1214.8</ele>
        <time>2024-05-26T08:00:13Z</time>
      </trkpt>
      <trkpt lat="43.74008" lon="6.63448">
        <ele>1214.8</ele>
        <time>2024-05-26T08:00:14Z</time>
      </trkpt>
      <trkpt lat="43.74008" lon="6.63448">
        <ele>1214.8</ele>
        <time>2024-05-26T08:00:15Z</time>
      </trkpt>
      <trkpt lat="43.74009" lon="6.63447">
        <ele>1214.8</ele>
        <time>2024-05-26T08:00:16Z</time>
      </trkpt>
      <trkpt lat="43.74009" lon="6.63447">
        <ele>1215</ele>
        <time>2024-05-26T08:00:17Z</time>
      </trkpt>
      <trkpt lat="43.7401" lon="6.63446">
        <ele>1215</ele>
        <time>2024-05-26T08:00:18Z</time>
      </trkpt>
      <trkpt lat="43.7401" lon="6.63446">
        <ele>1215.1</ele>
        <time>2024-05-26T08:00:19Z</time>
      </trkpt>
      <trkpt lat="43.7401" lon="6.63446">
        <ele>1215.2</ele>
        <time>2024-05-26T08:00:20Z</time>
      </trkpt>
      <trkpt lat="43.7401" lon="6.63446">
        <ele>1215.3</ele>
        <time>2024-05-26T08:00:21Z</time>
      </trkpt>
      <trkpt lat="43.7401" lon="6.63446">
        <ele>1215.4</ele>
        <time>2024-05-26T08:00:22Z</time>
      </trkpt>
      <trkpt lat="43.7401" lon="6.63446">
        <ele>1215.4</ele>
        <time>2024-05-26T08:00:23Z</time>
      </trkpt>
      <trkpt lat="43.7401" lon="6.63445">
        <ele>1215.4</ele>
        <time>2024-05-26T08:00:24Z</time>
      </trkpt>
      <trkpt lat="43.74011" lon="6.63444">
        <ele>1215.4</ele>
        <time>2024-05-26T08:00:25Z</time>
      </trkpt>
      <trkpt lat="43.7401" lon="6.63444">
        <ele>1215.4</ele>
        <time>2024-05-26T08:00:26Z</time>
      </trkpt>
      <trkpt lat="43.74011" lon="6.63443">
        <ele>1215.5</ele>
        <time>2024-05-26T08:00:27Z</time>
      </trkpt>
      <trkpt lat="43.74011" lon="6.63442">
        <ele>1215.7</ele>
        <time>2024-05-26T08:00:28Z</time>
      </trkpt>
      <trkpt lat="43.74011" lon="6.63441">
        <ele>1215.9</ele>
        <time>2024-05-26T08:00:29Z</time>
      </trkpt>
      <trkpt lat="43.74011" lon="6.63441">
        <ele>1216</ele>
        <time>2024-05-26T08:00:30Z</time>
      </trkpt>
      <trkpt lat="43.74011" lon="6.63441">
        <ele>1216.1</ele>
        <time>2024-05-26T08:00:31Z</time>
      </trkpt>
      <trkpt lat="43.74011" lon="6.63441">
        <ele>1216.2</ele>
        <time>2024-05-26T08:00:32Z</time>
      </trkpt>
      <trkpt lat="43.74011" lon="6.63441">
        <ele>1216.3</ele>
        <time>2024-05-26T08:00:33Z</time>
      </trkpt>
      <trkpt lat="43.74011" lon="6.63441">
        <ele>1216.3</ele>
        <time>2024-05-26T08:00:34Z</time>
      </trkpt>
      <trkpt lat="43.74011" lon="6.63441">
        <ele>1216.3</ele>
        <time>2024-05-26T08:00:35Z</time>
      </trkpt>
      <trkpt lat="43.74011" lon="6.63441">
        <ele>1216.2</ele>
        <time>2024-05-26T08:00:36Z</time>
      </trkpt>
      <trkpt lat="43.74011" lon="6.63442">
        <ele>1216.3</ele>
        <time>2024-05-26T08:00:37Z</time>
      </trkpt>
      <trkpt lat="43.74011" lon="6.63441">
        <ele>1216.3</ele>
        <time>2024-05-26T08:00:38Z</time>
      </trkpt>
      <trkpt lat="43.74011" lon="6.63441">
        <ele>1216.3</ele>
        <time>2024-05-26T08:00:39Z</time>
      </trkpt>
      <trkpt lat="43.74011" lon="6.63441">
        <ele>1216.4</ele>
        <time>2024-05-26T08:00:40Z</time>
      </trkpt>
      <trkpt lat="43.74011" lon="6.63441">
        <ele>1216.4</ele>
        <time>2024-05-26T08:00:41Z</time>
      </trkpt>
      <trkpt lat="43.74011" lon="6.63441">
        <ele>1216.4</ele>
        <time>2024-05-26T08:00:42Z</time>
      </trkpt>
      <trkpt lat="43.74011" lon="6.63441">
        <ele>1216.4</ele>
        <time>2024-05-26T08:00:43Z</time>
      </trkpt>
      <trkpt lat="43.74011" lon="6.6344">
        <ele>1216.3</ele>
        <time>2024-05-26T08:00:44Z</time>
      </trkpt>
      <trkpt lat="43.74011" lon="6.6344">
        <ele>1216.3</ele>
        <time>2024-05-26T08:00:45Z</time>
      </trkpt>
      <trkpt lat="43.74012" lon="6.6344">
        <ele>1216.3</ele>
        <time>2024-05-26T08:00:46Z</time>
      </trkpt>
      <trkpt lat="43.74012" lon="6.6344">
        <ele>1216.3</ele>
        <time>2024-05-26T08:00:47Z</time>
      </trkpt>
      <trkpt lat="43.74012" lon="6.6344">
        <ele>1216.3</ele>
        <time>2024-05-26T08:00:48Z</time>
      </trkpt>
      <trkpt lat="43.74012" lon="6.6344">
        <ele>1216.3</ele>
        <time>2024-05-26T08:00:49Z</time>
      </trkpt>
      <trkpt lat="43.74012" lon="6.63439">
        <ele>1216.2</ele>
        <time>2024-05-26T08:00:50Z</time>
      </trkpt>
      <trkpt lat="43.74012" lon="6.63438">
        <ele>1216.2</ele>
        <time>2024-05-26T08:00:51Z</time>
      </trkpt>
      <trkpt lat="43.74012" lon="6.63437">
        <ele>1216.2</ele>
        <time>2024-05-26T08:00:52Z</time>
      </trkpt>
      <trkpt lat="43.74012" lon="6.63437">
        <ele>1216.3</ele>
        <time>2024-05-26T08:00:53Z</time>
      </trkpt>
      <trkpt lat="43.74012" lon="6.63436">
        <ele>1216.5</ele>
        <time>2024-05-26T08:00:54Z</time>
      </trkpt>
      <trkpt lat="43.74012" lon="6.63435">
        <ele>1216.6</ele>
        <time>2024-05-26T08:00:55Z</time>
      </trkpt>
      <trkpt lat="43.74013" lon="6.63434">
        <ele>1216.7</ele>
        <time>2024-05-26T08:00:56Z</time>
      </trkpt>
      <trkpt lat="43.74013" lon="6.63434">
        <ele>1216.9</ele>
        <time>2024-05-26T08:00:57Z</time>
      </trkpt>
      <trkpt lat="43.74013" lon="6.63433">
        <ele>1217.1</ele>
        <time>2024-05-26T08:00:58Z</time>
      </trkpt>
      <trkpt lat="43.74013" lon="6.63433">
        <ele>1217.3</ele>
        <time>2024-05-26T08:00:59Z</time>
      </trkpt>
      <trkpt lat="43.74013" lon="6.63433">
        <ele>1217.4</ele>
        <time>2024-05-26T08:01:00Z</time>
      </trkpt>
      <trkpt lat="43.74013" lon="6.63433">
        <ele>1217.4</ele>
        <time>2024-05-26T08:01:01Z</time>
      </trkpt>
      <trkpt lat="43.74013" lon="6.63433">
        <ele>1217.6</ele>
        <time>2024-05-26T08:01:02Z</time>
      </trkpt>
      <trkpt lat="43.74013" lon="6.63433">
        <ele>1217.7</ele>
        <time>2024-05-26T08:01:03Z</time>
      </trkpt>
      <trkpt lat="43.74013" lon="6.63433">
        <ele>1217.8</ele>
        <time>2024-05-26T08:01:04Z</time>
      </trkpt>
      <trkpt lat="43.74013" lon="6.63433">
        <ele>1217.8</ele>
        <time>2024-05-26T08:01:05Z</time>
      </trkpt>
      <trkpt lat="43.74013" lon="6.63433">
        <ele>1217.9</ele>
        <time>2024-05-26T08:01:06Z</time>
      </trkpt>
      <trkpt lat="43.74013" lon="6.63433">
        <ele>1217.9</ele>
        <time>2024-05-26T08:01:07Z</time>
      </trkpt>
      <trkpt lat="43.74013" lon="6.63433">
        <ele>1218</ele>
        <time>2024-05-26T08:01:08Z</time>
      </trkpt>
      <trkpt lat="43.74013" lon="6.63433">
        <ele>1218</ele>
        <time>2024-05-26T08:01:09Z</time>
      </trkpt>
      <trkpt lat="43.74013" lon="6.63433">
        <ele>1218</ele>
        <time>2024-05-26T08:01:10Z</time>
      </trkpt>
      <trkpt lat="43.74013" lon="6.63433">
        <ele>1218.1</ele>
        <time>2024-05-26T08:01:11Z</time>
      </trkpt>
      <trkpt lat="43.74013" lon="6.63433">
        <ele>1218.1</ele>
        <time>2024-05-26T08:01:12Z</time>
      </trkpt>
      <trkpt lat="43.74013" lon="6.63432">
        <ele>1218.1</ele>
        <time>2024-05-26T08:01:13Z</time>
      </trkpt>
      <trkpt lat="43.74013" lon="6.63432">
        <ele>1218.1</ele>
        <time>2024-05-26T08:01:14Z</time>
      </trkpt>
      <trkpt lat="43.74013" lon="6.63433">
        <ele>1218.2</ele>
        <time>2024-05-26T08:01:15Z</time>
      </trkpt>
      <trkpt lat="43.74013" lon="6.63432">
        <ele>1218.2</ele>
        <time>2024-05-26T08:01:16Z</time>
      </trkpt>
      <trkpt lat="43.74013" lon="6.63432">
        <ele>1218.2</ele>
        <time>2024-05-26T08:01:17Z</time>
      </trkpt>
      <trkpt lat="43.74013" lon="6.63432">
        <ele>1218.2</ele>
        <time>2024-05-26T08:01:18Z</time>
      </trkpt>
      <trkpt lat="43.74013" lon="6.63433">
        <ele>1218.3</ele>
        <time>2024-05-26T08:01:19Z</time>
      </trkpt>
      <trkpt lat="43.74013" lon="6.63433">
        <ele>1218.3</ele>
        <time>2024-05-26T08:01:20Z</time>
      </trkpt>
      <trkpt lat="43.74013" lon="6.63432">
        <ele>1218.3</ele>
        <time>2024-05-26T08:01:21Z</time>
      </trkpt>
      <trkpt lat="43.74013" lon="6.63432">
        <ele>1218.3</ele>
        <time>2024-05-26T08:01:22Z</time>
      </trkpt>
      <trkpt lat="43.74013" lon="6.63432">
        <ele>1218.3</ele>
        <time>2024-05-26T08:01:23Z</time>
      </trkpt>
      <trkpt lat="43.74013" lon="6.63433">
        <ele>1218.3</ele>
        <time>2024-05-26T08:01:24Z</time>
      </trkpt>
      <trkpt lat="43.74013" lon="6.63433">
        <ele>1218.3</ele>
        <time>2024-05-26T08:01:25Z</time>
      </trkpt>
      <trkpt lat="43.74013" lon="6.63433">
        <ele>1218.4</ele>
        <time>2024-05-26T08:01:26Z</time>
      </trkpt>
      <trkpt lat="43.74013" lon="6.63433">
        <ele>1218.4</ele>
        <time>2024-05-26T08:01:27Z</time>
      </trkpt>
      <trkpt lat="43.74013" lon="6.63433">
        <ele>1218.4</ele>
        <time>2024-05-26T08:01:28Z</time>
      </trkpt>
      <trkpt lat="43.74014" lon="6.63433">
        <ele>1218.5</ele>
        <time>2024-05-26T08:01:29Z</time>
      </trkpt>
      <trkpt lat="43.74013" lon="6.63433">
        <ele>1218.6</ele>
        <time>2024-05-26T08:01:30Z</time>
      </trkpt>
      <trkpt lat="43.74013" lon="6.63434">
        <ele>1218.7</ele>
        <time>2024-05-26T08:01:31Z</time>
      </trkpt>
      <trkpt lat="43.74013" lon="6.63433">
        <ele>1218.8</ele>
        <time>2024-05-26T08:01:32Z</time>
      </trkpt>
      <trkpt lat="43.74013" lon="6.63433">
        <ele>1218.9</ele>
        <time>2024-05-26T08:01:33Z</time>
      </trkpt>
      <trkpt lat="43.74013" lon="6.63433">
        <ele>1218.9</ele>
        <time>2024-05-26T08:01:34Z</time>
      </trkpt>
      <trkpt lat="43.74014" lon="6.63433">
        <ele>1219</ele>
        <time>2024-05-26T08:01:35Z</time>
      </trkpt>
      <trkpt lat="43.74014" lon="6.63433">
        <ele>1219.1</ele>
        <time>2024-05-26T08:01:36Z</time>
      </trkpt>
      <trkpt lat="43.74014" lon="6.63432">
        <ele>1219.1</ele>
        <time>2024-05-26T08:01:37Z</time>
      </trkpt>
      <trkpt lat="43.74014" lon="6.63432">
        <ele>1219.1</ele>
        <time>2024-05-26T08:01:38Z</time>
      </trkpt>
      <trkpt lat="43.74014" lon="6.63432">
        <ele>1219.2</ele>
        <time>2024-05-26T08:01:39Z</time>
      </trkpt>
      <trkpt lat="43.74014" lon="6.63432">
        <ele>1219.2</ele>
        <time>2024-05-26T08:01:40Z</time>
      </trkpt>
      <trkpt lat="43.74014" lon="6.63432">
        <ele>1219.3</ele>
        <time>2024-05-26T08:01:41Z</time>
      </trkpt>
      <trkpt lat="43.74014" lon="6.63432">
        <ele>1219.3</ele>
        <time>2024-05-26T08:01:42Z</time>
      </trkpt>
      <trkpt lat="43.74014" lon="6.63432">
        <ele>1219.2</ele>
        <time>2024-05-26T08:01:43Z</time>
      </trkpt>
      <trkpt lat="43.74014" lon="6.63432">
        <ele>1219.3</ele>
        <time>2024-05-26T08:01:44Z</time>
      </trkpt>
      <trkpt lat="43.74014" lon="6.63431">
        <ele>1219.3</ele>
        <time>2024-05-26T08:01:45Z</time>
      </trkpt>
      <trkpt lat="43.74014" lon="6.63431">
        <ele>1219.4</ele>
        <time>2024-05-26T08:01:46Z</time>
      </trkpt>
      <trkpt lat="43.74014" lon="6.6343">
        <ele>1219.4</ele>
        <time>2024-05-26T08:01:47Z</time>
      </trkpt>
      <trkpt lat="43.74014" lon="6.6343">
        <ele>1219.5</ele>
        <time>2024-05-26T08:01:48Z</time>
      </trkpt>
      <trkpt lat="43.74014" lon="6.63429">
        <ele>1219.6</ele>
        <time>2024-05-26T08:01:49Z</time>
      </trkpt>
      <trkpt lat="43.74013" lon="6.6343">
        <ele>1219.6</ele>
        <time>2024-05-26T08:01:50Z</time>
      </trkpt>
      <trkpt lat="43.74013" lon="6.63429">
        <ele>1219.7</ele>
        <time>2024-05-26T08:01:51Z</time>
      </trkpt>
      <trkpt lat="43.74014" lon="6.63429">
        <ele>1219.7</ele>
        <time>2024-05-26T08:01:52Z</time>
      </trkpt>
      <trkpt lat="43.74013" lon="6.63429">
        <ele>1219.7</ele>
        <time>2024-05-26T08:01:53Z</time>
      </trkpt>
      <trkpt lat="43.74013" lon="6.63429">
        <ele>1219.7</ele>
        <time>2024-05-26T08:01:54Z</time>
      </trkpt>
      <trkpt lat="43.74012" lon="6.63428">
        <ele>1219.6</ele>
        <time>2024-05-26T08:01:55Z</time>
      </trkpt>
      <trkpt lat="43.74012" lon="6.63428">
        <ele>1219.5</ele>
        <time>2024-05-26T08:01:56Z</time>
      </trkpt>
      <trkpt lat="43.74013" lon="6.63427">
        <ele>1219.4</ele>
        <time>2024-05-26T08:01:57Z</time>
      </trkpt>
      <trkpt lat="43.74013" lon="6.63427">
        <ele>1219.5</ele>
        <time>2024-05-26T08:01:58Z</time>
      </trkpt>
      <trkpt lat="43.74012" lon="6.63427">
        <ele>1219.5</ele>
        <time>2024-05-26T08:01:59Z</time>
      </trkpt>
      <trkpt lat="43.74012" lon="6.63427">
        <ele>1219.6</ele>
        <time>2024-05-26T08:02:00Z</time>
      </trkpt>
      <trkpt lat="43.74012" lon="6.63427">
        <ele>1219.6</ele>
        <time>2024-05-26T08:02:01Z</time>
      </trkpt>
      <trkpt lat="43.74011" lon="6.63428">
        <ele>1219.7</ele>
        <time>2024-05-26T08:02:02Z</time>
      </trkpt>
      <trkpt lat="43.7401" lon="6.63427">
        <ele>1219.6</ele>
        <time>2024-05-26T08:02:03Z</time>
      </trkpt>
      <trkpt lat="43.74009" lon="6.63427">
        <ele>1219.5</ele>
        <time>2024-05-26T08:02:04Z</time>
      </trkpt>
      <trkpt lat="43.74009" lon="6.63426">
        <ele>1219.5</ele>
        <time>2024-05-26T08:02:05Z</time>
      </trkpt>
      <trkpt lat="43.74009" lon="6.63426">
        <ele>1219.5</ele>
        <time>2024-05-26T08:02:06Z</time>
      </trkpt>
      <trkpt lat="43.74009" lon="6.63426">
        <ele>1219.5</ele>
        <time>2024-05-26T08:02:07Z</time>
      </trkpt>
      <trkpt lat="43.74009" lon="6.63426">
        <ele>1219.6</ele>
        <time>2024-05-26T08:02:08Z</time>
      </trkpt>
      <trkpt lat="43.74009" lon="6.63427">
        <ele>1219.8</ele>
        <time>2024-05-26T08:02:09Z</time>
      </trkpt>
      <trkpt lat="43.74009" lon="6.63427">
        <ele>1219.8</ele>
        <time>2024-05-26T08:02:10Z</time>
      </trkpt>
      <trkpt lat="43.7401" lon="6.63428">
        <ele>1219.8</ele>
        <time>2024-05-26T08:02:11Z</time>
      </trkpt>
      <trkpt lat="43.74009" lon="6.63428">
        <ele>1219.8</ele>
        <time>2024-05-26T08:02:12Z</time>
      </trkpt>
      <trkpt lat="43.7401" lon="6.63429">
        <ele>1219.8</ele>
        <time>2024-05-26T08:02:13Z</time>
      </trkpt>
      <trkpt lat="43.74009" lon="6.63429">
        <ele>1219.8</ele>
        <time>2024-05-26T08:02:14Z</time>
      </trkpt>
      <trkpt lat="43.74009" lon="6.63429">
        <ele>1219.9</ele>
        <time>2024-05-26T08:02:15Z</time>
      </trkpt>
      <trkpt lat="43.74009" lon="6.63429">
        <ele>1219.9</ele>
        <time>2024-05-26T08:02:16Z</time>
      </trkpt>
      <trkpt lat="43.7401" lon="6.63429">
        <ele>1219.9</ele>
        <time>2024-05-26T08:02:17Z</time>
      </trkpt>
      <trkpt lat="43.74011" lon="6.63429">
        <ele>1220</ele>
        <time>2024-05-26T08:02:18Z</time>
      </trkpt>
      <trkpt lat="43.74011" lon="6.63429">
        <ele>1220.2</ele>
        <time>2024-05-26T08:02:19Z</time>
      </trkpt>
      <trkpt lat="43.74011" lon="6.63428">
        <ele>1220.4</ele>
        <time>2024-05-26T08:02:20Z</time>
      </trkpt>
      <trkpt lat="43.74011" lon="6.63427">
        <ele>1220.6</ele>
        <time>2024-05-26T08:02:21Z</time>
      </trkpt>
      <trkpt lat="43.74011" lon="6.63427">
        <ele>1220.8</ele>
        <time>2024-05-26T08:02:22Z</time>
      </trkpt>
      <trkpt lat="43.74011" lon="6.63427">
        <ele>1221</ele>
        <time>2024-05-26T08:02:23Z</time>
      </trkpt>
      <trkpt lat="43.7401" lon="6.63426">
        <ele>1221.4</ele>
        <time>2024-05-26T08:02:24Z</time>
      </trkpt>
      <trkpt lat="43.7401" lon="6.63426">
        <ele>1221.7</ele>
        <time>2024-05-26T08:02:25Z</time>
      </trkpt>
      <trkpt lat="43.74009" lon="6.63426">
        <ele>1221.9</ele>
        <time>2024-05-26T08:02:26Z</time>
      </trkpt>
      <trkpt lat="43.74008" lon="6.63426">
        <ele>1222</ele>
        <time>2024-05-26T08:02:27Z</time>
      </trkpt>
      <trkpt lat="43.74007" lon="6.63426">
        <ele>1222</ele>
        <time>2024-05-26T08:02:28Z</time>
      </trkpt>
      <trkpt lat="43.74007" lon="6.63427">
        <ele>1222</ele>
        <time>2024-05-26T08:02:29Z</time>
      </trkpt>
      <trkpt lat="43.74007" lon="6.63427">
        <ele>1222</ele>
        <time>2024-05-26T08:02:30Z</time>
      </trkpt>
      <trkpt lat="43.74007" lon="6.63427">
        <ele>1221.9</ele>
        <time>2024-05-26T08:02:31Z</time>
      </trkpt>
      <trkpt lat="43.74006" lon="6.63427">
        <ele>1221.8</ele>
        <time>2024-05-26T08:02:32Z</time>
      </trkpt>
      <trkpt lat="43.74006" lon="6.63427">
        <ele>1221.7</ele>
        <time>2024-05-26T08:02:33Z</time>
      </trkpt>
      <trkpt lat="43.74006" lon="6.63427">
        <ele>1221.7</ele>
        <time>2024-05-26T08:02:34Z</time>
      </trkpt>
      <trkpt lat="43.74006" lon="6.63428">
        <ele>1221.7</ele>
        <time>2024-05-26T08:02:35Z</time>
      </trkpt>
      <trkpt lat="43.74006" lon="6.63427">
        <ele>1221.7</ele>
        <time>2024-05-26T08:02:36Z</time>
      </trkpt>
      <trkpt lat="43.74006" lon="6.63427">
        <ele>1221.7</ele>
        <time>2024-05-26T08:02:37Z</time>
      </trkpt>
      <trkpt lat="43.74005" lon="6.63428">
        <ele>1221.6</ele>
        <time>2024-05-26T08:02:38Z</time>
      </trkpt>
      <trkpt lat="43.74005" lon="6.63428">
        <ele>1221.5</ele>
        <time>2024-05-26T08:02:39Z</time>
      </trkpt>
      <trkpt lat="43.74005" lon="6.63428">
        <ele>1221.5</ele>
        <time>2024-05-26T08:02:40Z</time>
      </trkpt>
      <trkpt lat="43.74004" lon="6.63427">
        <ele>1221.7</ele>
        <time>2024-05-26T08:02:41Z</time>
      </trkpt>
      <trkpt lat="43.74004" lon="6.63426">
        <ele>1221.8</ele>
        <time>2024-05-26T08:02:42Z</time>
      </trkpt>
      <trkpt lat="43.74004" lon="6.63426">
        <ele>1221.9</ele>
        <time>2024-05-26T08:02:43Z</time>
      </trkpt>
      <trkpt lat="43.74004" lon="6.63427">
        <ele>1222</ele>
        <time>2024-05-26T08:02:44Z</time>
      </trkpt>
      <trkpt lat="43.74003" lon="6.63427">
        <ele>1222</ele>
        <time>2024-05-26T08:02:45Z</time>
      </trkpt>
      <trkpt lat="43.74003" lon="6.63428">
        <ele>1222</ele>
        <time>2024-05-26T08:02:46Z</time>
      </trkpt>
      <trkpt lat="43.74003" lon="6.63429">
        <ele>1222</ele>
        <time>2024-05-26T08:02:47Z</time>
      </trkpt>
      <trkpt lat="43.74003" lon="6.63429">
        <ele>1222.1</ele>
        <time>2024-05-26T08:02:48Z</time>
      </trkpt>
      <trkpt lat="43.74002" lon="6.63429">
        <ele>1222.1</ele>
        <time>2024-05-26T08:02:49Z</time>
      </trkpt>
      <trkpt lat="43.74003" lon="6.63428">
        <ele>1222.2</ele>
        <time>2024-05-26T08:02:50Z</time>
      </trkpt>
      <trkpt lat="43.74002" lon="6.63428">
        <ele>1222.2</ele>
        <time>2024-05-26T08:02:51Z</time>
      </trkpt>
      <trkpt lat="43.74001" lon="6.63429">
        <ele>1222.3</ele>
        <time>2024-05-26T08:02:52Z</time>
      </trkpt>
      <trkpt lat="43.74" lon="6.63429">
        <ele>1222.5</ele>
        <time>2024-05-26T08:02:53Z</time>
      </trkpt>
      <trkpt lat="43.73999" lon="6.63429">
        <ele>1222.5</ele>
        <time>2024-05-26T08:02:54Z</time>
      </trkpt>
      <trkpt lat="43.73998" lon="6.6343">
        <ele>1222.4</ele>
        <time>2024-05-26T08:02:55Z</time>
      </trkpt>
      <trkpt lat="43.73997" lon="6.6343">
        <ele>1222.5</ele>
        <time>2024-05-26T08:02:56Z</time>
      </trkpt>
      <trkpt lat="43.73996" lon="6.6343">
        <ele>1222.6</ele>
        <time>2024-05-26T08:02:57Z</time>
      </trkpt>
      <trkpt lat="43.73995" lon="6.63431">
        <ele>1222.8</ele>
        <time>2024-05-26T08:02:58Z</time>
      </trkpt>
      <trkpt lat="43.73995" lon="6.63432">
        <ele>1222.9</ele>
        <time>2024-05-26T08:02:59Z</time>
      </trkpt>
      <trkpt lat="43.73995" lon="6.63432">
        <ele>1223</ele>
        <time>2024-05-26T08:03:00Z</time>
      </trkpt>
      <trkpt lat="43.73995" lon="6.63433">
        <ele>1223.1</ele>
        <time>2024-05-26T08:03:01Z</time>
      </trkpt>
      <trkpt lat="43.73995" lon="6.63433">
        <ele>1223.3</ele>
        <time>2024-05-26T08:03:02Z</time>
      </trkpt>
      <trkpt lat="43.73994" lon="6.63434">
        <ele>1223.5</ele>
        <time>2024-05-26T08:03:03Z</time>
      </trkpt>
      <trkpt lat="43.73994" lon="6.63435">
        <ele>1223.7</ele>
        <time>2024-05-26T08:03:04Z</time>
      </trkpt>
      <trkpt lat="43.73994" lon="6.63435">
        <ele>1223.8</ele>
        <time>2024-05-26T08:03:05Z</time>
      </trkpt>
      <trkpt lat="43.73994" lon="6.63436">
        <ele>1223.9</ele>
        <time>2024-05-26T08:03:06Z</time>
      </trkpt>
      <trkpt lat="43.73993" lon="6.63437">
        <ele>1224</ele>
        <time>2024-05-26T08:03:07Z</time>
      </trkpt>
      <trkpt lat="43.73993" lon="6.63438">
        <ele>1224.1</ele>
        <time>2024-05-26T08:03:08Z</time>
      </trkpt>
      <trkpt lat="43.73993" lon="6.63439">
        <ele>1224.2</ele>
        <time>2024-05-26T08:03:09Z</time>
      </trkpt>
      <trkpt lat="43.73993" lon="6.6344">
        <ele>1224.3</ele>
        <time>2024-05-26T08:03:10Z</time>
      </trkpt>
      <trkpt lat="43.73993" lon="6.6344">
        <ele>1224.3</ele>
        <time>2024-05-26T08:03:11Z</time>
      </trkpt>
      <trkpt lat="43.73993" lon="6.6344">
        <ele>1224.4</ele>
        <time>2024-05-26T08:03:12Z</time>
      </trkpt>
      <trkpt lat="43.73993" lon="6.63441">
        <ele>1224.4</ele>
        <time>2024-05-26T08:03:13Z</time>
      </trkpt>
      <trkpt lat="43.73992" lon="6.63442">
        <ele>1224.5</ele>
        <time>2024-05-26T08:03:14Z</time>
      </trkpt>
      <trkpt lat="43.73993" lon="6.63442">
        <ele>1224.6</ele>
        <time>2024-05-26T08:03:15Z</time>
      </trkpt>
      <trkpt lat="43.73992" lon="6.63443">
        <ele>1224.7</ele>
        <time>2024-05-26T08:03:16Z</time>
      </trkpt>
      <trkpt lat="43.73992" lon="6.63444">
        <ele>1224.9</ele>
        <time>2024-05-26T08:03:17Z</time>
      </trkpt>
      <trkpt lat="43.73992" lon="6.63444">
        <ele>1225</ele>
        <time>2024-05-26T08:03:18Z</time>
      </trkpt>
      <trkpt lat="43.73992" lon="6.63446">
        <ele>1225</ele>
        <time>2024-05-26T08:03:19Z</time>
      </trkpt>
      <trkpt lat="43.73991" lon="6.63447">
        <ele>1225.1</ele>
        <time>2024-05-26T08:03:20Z</time>
      </trkpt>
      <trkpt lat="43.73991" lon="6.63449">
        <ele>1225.2</ele>
        <time>2024-05-26T08:03:21Z</time>
      </trkpt>
      <trkpt lat="43.7399" lon="6.63449">
        <ele>1225.3</ele>
        <time>2024-05-26T08:03:22Z</time>
      </trkpt>
      <trkpt lat="43.73991" lon="6.63446">
        <ele>1225.5</ele>
        <time>2024-05-26T08:03:23Z</time>
      </trkpt>
      <trkpt lat="43.73992" lon="6.63445">
        <ele>1225.6</ele>
        <time>2024-05-26T08:03:24Z</time>
      </trkpt>
      <trkpt lat="43.73993" lon="6.63443">
        <ele>1225.7</ele>
        <time>2024-05-26T08:03:25Z</time>
      </trkpt>
      <trkpt lat="43.73993" lon="6.63442">
        <ele>1225.8</ele>
        <time>2024-05-26T08:03:26Z</time>
      </trkpt>
      <trkpt lat="43.73994" lon="6.63442">
        <ele>1225.9</ele>
        <time>2024-05-26T08:03:27Z</time>
      </trkpt>
      <trkpt lat="43.73995" lon="6.63442">
        <ele>1226</ele>
        <time>2024-05-26T08:03:28Z</time>
      </trkpt>
      <trkpt lat="43.73995" lon="6.63441">
        <ele>1226.1</ele>
        <time>2024-05-26T08:03:29Z</time>
      </trkpt>
      <trkpt lat="43.73995" lon="6.6344">
        <ele>1226.2</ele>
        <time>2024-05-26T08:03:30Z</time>
      </trkpt>
      <trkpt lat="43.73996" lon="6.63439">
        <ele>1226.4</ele>
        <time>2024-05-26T08:03:31Z</time>
      </trkpt>
      <trkpt lat="43.73996" lon="6.63438">
        <ele>1226.6</ele>
        <time>2024-05-26T08:03:32Z</time>
      </trkpt>
      <trkpt lat="43.73996" lon="6.63437">
        <ele>1226.7</ele>
        <time>2024-05-26T08:03:33Z</time>
      </trkpt>
      <trkpt lat="43.73996" lon="6.63437">
        <ele>1227.1</ele>
        <time>2024-05-26T08:03:34Z</time>
      </trkpt>
      <trkpt lat="43.73996" lon="6.63437">
        <ele>1227.2</ele>
        <time>2024-05-26T08:03:35Z</time>
      </trkpt>
      <trkpt lat="43.73997" lon="6.63437">
        <ele>1227.4</ele>
        <time>2024-05-26T08:03:36Z</time>
      </trkpt>
      <trkpt lat="43.73997" lon="6.63437">
        <ele>1227.6</ele>
        <time>2024-05-26T08:03:37Z</time>
      </trkpt>
      <trkpt lat="43.73997" lon="6.63437">
        <ele>1227.7</ele>
        <time>2024-05-26T08:03:38Z</time>
      </trkpt>
      <trkpt lat="43.73997" lon="6.63437">
        <ele>1227.8</ele>
        <time>2024-05-26T08:03:39Z</time>
      </trkpt>
      <trkpt lat="43.73997" lon="6.63438">
        <ele>1228.1</ele>
        <time>2024-05-26T08:03:40Z</time>
      </trkpt>
      <trkpt lat="43.73997" lon="6.63437">
        <ele>1228.3</ele>
        <time>2024-05-26T08:03:41Z</time>
      </trkpt>
      <trkpt lat="43.73997" lon="6.63438">
        <ele>1228.5</ele>
        <time>2024-05-26T08:03:42Z</time>
      </trkpt>
      <trkpt lat="43.73997" lon="6.63438">
        <ele>1228.7</ele>
        <time>2024-05-26T08:03:43Z</time>
      </trkpt>
      <trkpt lat="43.73997" lon="6.63438">
        <ele>1229</ele>
        <time>2024-05-26T08:03:44Z</time>
      </trkpt>
      <trkpt lat="43.73997" lon="6.63439">
        <ele>1229.2</ele>
        <time>2024-05-26T08:03:45Z</time>
      </trkpt>
      <trkpt lat="43.73997" lon="6.63438">
        <ele>1229.4</ele>
        <time>2024-05-26T08:03:46Z</time>
      </trkpt>
      <trkpt lat="43.73997" lon="6.63437">
        <ele>1229.5</ele>
        <time>2024-05-26T08:03:47Z</time>
      </trkpt>
      <trkpt lat="43.73997" lon="6.63437">
        <ele>1229.7</ele>
        <time>2024-05-26T08:03:48Z</time>
      </trkpt>
      <trkpt lat="43.73997" lon="6.63437">
        <ele>1229.8</ele>
        <time>2024-05-26T08:03:49Z</time>
      </trkpt>
      <trkpt lat="43.73998" lon="6.63437">
        <ele>1230</ele>
        <time>2024-05-26T08:03:50Z</time>
      </trkpt>
      <trkpt lat="43.73998" lon="6.63435">
        <ele>1230.1</ele>
        <time>2024-05-26T08:03:51Z</time>
      </trkpt>
      <trkpt lat="43.73997" lon="6.63434">
        <ele>1230.2</ele>
        <time>2024-05-26T08:03:52Z</time>
      </trkpt>
      <trkpt lat="43.73997" lon="6.63432">
        <ele>1230.4</ele>
        <time>2024-05-26T08:03:53Z</time>
      </trkpt>
      <trkpt lat="43.73997" lon="6.63431">
        <ele>1230.7</ele>
        <time>2024-05-26T08:03:54Z</time>
      </trkpt>
      <trkpt lat="43.73997" lon="6.63429">
        <ele>1230.9</ele>
        <time>2024-05-26T08:03:55Z</time>
      </trkpt>
      <trkpt lat="43.73997" lon="6.63427">
        <ele>1231.2</ele>
        <time>2024-05-26T08:03:56Z</time>
      </trkpt>
      <trkpt lat="43.73997" lon="6.63426">
        <ele>1231.5</ele>
        <time>2024-05-26T08:03:57Z</time>
      </trkpt>
      <trkpt lat="43.73997" lon="6.63425">
        <ele>1231.7</ele>
        <time>2024-05-26T08:03:58Z</time>
      </trkpt>
      <trkpt lat="43.73997" lon="6.63425">
        <ele>1231.8</ele>
        <time>2024-05-26T08:03:59Z</time>
      </trkpt>
      <trkpt lat="43.73998" lon="6.63424">
        <ele>1232.1</ele>
        <time>2024-05-26T08:04:00Z</time>
      </trkpt>
      <trkpt lat="43.73998" lon="6.63424">
        <ele>1232.3</ele>
        <time>2024-05-26T08:04:01Z</time>
      </trkpt>
      <trkpt lat="43.73998" lon="6.63423">
        <ele>1232.5</ele>
        <time>2024-05-26T08:04:02Z</time>
      </trkpt>
      <trkpt lat="43.73999" lon="6.63423">
        <ele>1232.7</ele>
        <time>2024-05-26T08:04:03Z</time>
      </trkpt>
      <trkpt lat="43.73999" lon="6.63423">
        <ele>1232.9</ele>
        <time>2024-05-26T08:04:04Z</time>
      </trkpt>
      <trkpt lat="43.74" lon="6.63422">
        <ele>1233.1</ele>
        <time>2024-05-26T08:04:05Z</time>
      </trkpt>
      <trkpt lat="43.74001" lon="6.63421">
        <ele>1233.2</ele>
        <time>2024-05-26T08:04:06Z</time>
      </trkpt>
      <trkpt lat="43.74001" lon="6.6342">
        <ele>1233.4</ele>
        <time>2024-05-26T08:04:07Z</time>
      </trkpt>
      <trkpt lat="43.74002" lon="6.6342">
        <ele>1233.5</ele>
        <time>2024-05-26T08:04:08Z</time>
      </trkpt>
      <trkpt lat="43.74003" lon="6.63419">
        <ele>1233.6</ele>
        <time>2024-05-26T08:04:09Z</time>
      </trkpt>
      <trkpt lat="43.74003" lon="6.63419">
        <ele>1233.8</ele>
        <time>2024-05-26T08:04:10Z</time>
      </trkpt>
      <trkpt lat="43.74004" lon="6.63418">
        <ele>1233.8</ele>
        <time>2024-05-26T08:04:11Z</time>
      </trkpt>
      <trkpt lat="43.74004" lon="6.63418">
        <ele>1233.9</ele>
        <time>2024-05-26T08:04:12Z</time>
      </trkpt>
      <trkpt lat="43.74005" lon="6.63417">
        <ele>1233.9</ele>
        <time>2024-05-26T08:04:13Z</time>
      </trkpt>
      <trkpt lat="43.74005" lon="6.63417">
        <ele>1233.9</ele>
        <time>2024-05-26T08:04:14Z</time>
      </trkpt>
      <trkpt lat="43.74006" lon="6.63416">
        <ele>1233.8</ele>
        <time>2024-05-26T08:04:15Z</time>
      </trkpt>
      <trkpt lat="43.74006" lon="6.63415">
        <ele>1233.8</ele>
        <time>2024-05-26T08:04:16Z</time>
      </trkpt>
      <trkpt lat="43.74007" lon="6.63414">
        <ele>1233.9</ele>
        <time>2024-05-26T08:04:17Z</time>
      </trkpt>
      <trkpt lat="43.74007" lon="6.63414">
        <ele>1234.1</ele>
        <time>2024-05-26T08:04:18Z</time>
      </trkpt>
      <trkpt lat="43.74007" lon="6.63413">
        <ele>1234.2</ele>
        <time>2024-05-26T08:04:19Z</time>
      </trkpt>
      <trkpt lat="43.74007" lon="6.63413">
        <ele>1234.4</ele>
        <time>2024-05-26T08:04:20Z</time>
      </trkpt>
      <trkpt lat="43.74007" lon="6.63413">
        <ele>1234.5</ele>
        <time>2024-05-26T08:04:21Z</time>
      </trkpt>
      <trkpt lat="43.74006" lon="6.63412">
        <ele>1234.6</ele>
        <time>2024-05-26T08:04:22Z</time>
      </trkpt>
      <trkpt lat="43.74006" lon="6.63412">
        <ele>1234.6</ele>
        <time>2024-05-26T08:04:23Z</time>
      </trkpt>
      <trkpt lat="43.74006" lon="6.63412">
        <ele>1234.7</ele>
        <time>2024-05-26T08:04:24Z</time>
      </trkpt>
      <trkpt lat="43.74005" lon="6.63413">
        <ele>1234.8</ele>
        <time>2024-05-26T08:04:25Z</time>
      </trkpt>
      <trkpt lat="43.74004" lon="6.63413">
        <ele>1234.7</ele>
        <time>2024-05-26T08:04:26Z</time>
      </trkpt>
      <trkpt lat="43.74004" lon="6.63413">
        <ele>1234.6</ele>
        <time>2024-05-26T08:04:27Z</time>
      </trkpt>
      <trkpt lat="43.74004" lon="6.63413">
        <ele>1234.6</ele>
        <time>2024-05-26T08:04:28Z</time>
      </trkpt>
      <trkpt lat="43.74004" lon="6.63413">
        <ele>1234.5</ele>
        <time>2024-05-26T08:04:29Z</time>
      </trkpt>
      <trkpt lat="43.74004" lon="6.63412">
        <ele>1234.4</ele>
        <time>2024-05-26T08:04:30Z</time>
      </trkpt>
      <trkpt lat="43.74004" lon="6.63412">
        <ele>1234.4</ele>
        <time>2024-05-26T08:04:31Z</time>
      </trkpt>
      <trkpt lat="43.74003" lon="6.63412">
        <ele>1234.3</ele>
        <time>2024-05-26T08:04:32Z</time>
      </trkpt>
      <trkpt lat="43.74003" lon="6.63412">
        <ele>1234.2</ele>
        <time>2024-05-26T08:04:33Z</time>
      </trkpt>
      <trkpt lat="43.74002" lon="6.63412">
        <ele>1234.2</ele>
        <time>2024-05-26T08:04:34Z</time>
      </trkpt>
      <trkpt lat="43.74002" lon="6.63413">
        <ele>1234.2</ele>
        <time>2024-05-26T08:04:35Z</time>
      </trkpt>
      <trkpt lat="43.74001" lon="6.63413">
        <ele>1234.2</ele>
        <time>2024-05-26T08:04:36Z</time>
      </trkpt>
      <trkpt lat="43.74001" lon="6.63414">
        <ele>1234.2</ele>
        <time>2024-05-26T08:04:37Z</time>
      </trkpt>
      <trkpt lat="43.74" lon="6.63414">
        <ele>1234.2</ele>
        <time>2024-05-26T08:04:38Z</time>
      </trkpt>
      <trkpt lat="43.74" lon="6.63415">
        <ele>1234.2</ele>
        <time>2024-05-26T08:04:39Z</time>
      </trkpt>
      <trkpt lat="43.74" lon="6.63416">
        <ele>1234.3</ele>
        <time>2024-05-26T08:04:40Z</time>
      </trkpt>
      <trkpt lat="43.74" lon="6.63417">
        <ele>1234.3</ele>
        <time>2024-05-26T08:04:41Z</time>
      </trkpt>
      <trkpt lat="43.74" lon="6.63417">
        <ele>1234.3</ele>
        <time>2024-05-26T08:04:42Z</time>
      </trkpt>
      <trkpt lat="43.74" lon="6.63418">
        <ele>1234.3</ele>
        <time>2024-05-26T08:04:43Z</time>
      </trkpt>
      <trkpt lat="43.74" lon="6.63418">
        <ele>1234.3</ele>
        <time>2024-05-26T08:04:44Z</time>
      </trkpt>
      <trkpt lat="43.74" lon="6.63418">
        <ele>1234.4</ele>
        <time>2024-05-26T08:04:45Z</time>
      </trkpt>
      <trkpt lat="43.74" lon="6.63418">
        <ele>1234.4</ele>
        <time>2024-05-26T08:04:46Z</time>
      </trkpt>
      <trkpt lat="43.74" lon="6.63418">
        <ele>1234.5</ele>
        <time>2024-05-26T08:04:47Z</time>
      </trkpt>
      <trkpt lat="43.74" lon="6.63418">
        <ele>1234.5</ele>
        <time>2024-05-26T08:04:48Z</time>
      </trkpt>
      <trkpt lat="43.74" lon="6.63418">
        <ele>1234.5</ele>
        <time>2024-05-26T08:04:49Z</time>
      </trkpt>
      <trkpt lat="43.73999" lon="6.63417">
        <ele>1234.5</ele>
        <time>2024-05-26T08:04:50Z</time>
      </trkpt>
      <trkpt lat="43.73999" lon="6.63418">
        <ele>1234.5</ele>
        <time>2024-05-26T08:04:51Z</time>
      </trkpt>
      <trkpt lat="43.73999" lon="6.63418">
        <ele>1234.6</ele>
        <time>2024-05-26T08:04:52Z</time>
      </trkpt>
      <trkpt lat="43.73999" lon="6.63418">
        <ele>1234.7</ele>
        <time>2024-05-26T08:04:53Z</time>
      </trkpt>
      <trkpt lat="43.73999" lon="6.63418">
        <ele>1234.7</ele>
        <time>2024-05-26T08:04:54Z</time>
      </trkpt>
      <trkpt lat="43.73998" lon="6.63418">
        <ele>1234.8</ele>
        <time>2024-05-26T08:04:55Z</time>
      </trkpt>
      <trkpt lat="43.73998" lon="6.63418">
        <ele>1234.8</ele>
        <time>2024-05-26T08:04:56Z</time>
      </trkpt>
      <trkpt lat="43.73998" lon="6.63418">
        <ele>1234.8</ele>
        <time>2024-05-26T08:04:57Z</time>
      </trkpt>
      <trkpt lat="43.73999" lon="6.63417">
        <ele>1236.6</ele>
        <time>2024-05-26T08:04:58Z</time>
      </trkpt>
      <trkpt lat="43.73999" lon="6.63417">
        <ele>1236.3</ele>
        <time>2024-05-26T08:04:59Z</time>
      </trkpt>
      <trkpt lat="43.73999" lon="6.63417">
        <ele>1236</ele>
        <time>2024-05-26T08:05:00Z</time>
      </trkpt>
      <trkpt lat="43.73999" lon="6.63417">
        <ele>1235.8</ele>
        <time>2024-05-26T08:05:01Z</time>
      </trkpt>
      <trkpt lat="43.73999" lon="6.63416">
        <ele>1235.6</ele>
        <time>2024-05-26T08:05:02Z</time>
      </trkpt>
      <trkpt lat="43.74" lon="6.63416">
        <ele>1235.3</ele>
        <time>2024-05-26T08:05:03Z</time>
      </trkpt>
      <trkpt lat="43.74" lon="6.63416">
        <ele>1235.1</ele>
        <time>2024-05-26T08:05:04Z</time>
      </trkpt>
      <trkpt lat="43.74" lon="6.63416">
        <ele>1235</ele>
        <time>2024-05-26T08:05:05Z</time>
      </trkpt>
      <trkpt lat="43.74" lon="6.63416">
        <ele>1234.9</ele>
        <time>2024-05-26T08:05:06Z</time>
      </trkpt>
      <trkpt lat="43.74" lon="6.63415">
        <ele>1234.7</ele>
        <time>2024-05-26T08:05:07Z</time>
      </trkpt>
      <trkpt lat="43.74" lon="6.63415">
        <ele>1234.6</ele>
        <time>2024-05-26T08:05:08Z</time>
      </trkpt>
      <trkpt lat="43.74" lon="6.63415">
        <ele>1234.4</ele>
        <time>2024-05-26T08:05:09Z</time>
      </trkpt>
      <trkpt lat="43.74" lon="6.63415">
        <ele>1234.5</ele>
        <time>2024-05-26T08:05:10Z</time>
      </trkpt>
      <trkpt lat="43.74" lon="6.63415">
        <ele>1234.4</ele>
        <time>2024-05-26T08:05:11Z</time>
      </trkpt>
      <trkpt lat="43.74" lon="6.63415">
        <ele>1234.4</ele>
        <time>2024-05-26T08:05:12Z</time>
      </trkpt>
      <trkpt lat="43.74" lon="6.63415">
        <ele>1234.4</ele>
        <time>2024-05-26T08:05:13Z</time>
      </trkpt>
      <trkpt lat="43.74" lon="6.63415">
        <ele>1234.4</ele>
        <time>2024-05-26T08:05:14Z</time>
      </trkpt>
      <trkpt lat="43.74" lon="6.63415">
        <ele>1234.4</ele>
        <time>2024-05-26T08:05:15Z</time>
      </trkpt>
      <trkpt lat="43.74001" lon="6.63415">
        <ele>1234.4</ele>
        <time>2024-05-26T08:05:16Z</time>
      </trkpt>
      <trkpt lat="43.74001" lon="6.63414">
        <ele>1234.3</ele>
        <time>2024-05-26T08:05:17Z</time>
      </trkpt>
      <trkpt lat="43.74001" lon="6.63414">
        <ele>1234.4</ele>
        <time>2024-05-26T08:05:18Z</time>
      </trkpt>
      <trkpt lat="43.74001" lon="6.63414">
        <ele>1234.3</ele>
        <time>2024-05-26T08:05:19Z</time>
      </trkpt>
      <trkpt lat="43.74001" lon="6.63414">
        <ele>1234.3</ele>
        <time>2024-05-26T08:05:20Z</time>
      </trkpt>
      <trkpt lat="43.74001" lon="6.63414">
        <ele>1234.3</ele>
        <time>2024-05-26T08:05:21Z</time>
      </trkpt>
      <trkpt lat="43.74001" lon="6.63414">
        <ele>1234.3</ele>
        <time>2024-05-26T08:05:22Z</time>
      </trkpt>
      <trkpt lat="43.74001" lon="6.63413">
        <ele>1234.3</ele>
        <time>2024-05-26T08:05:23Z</time>
      </trkpt>
      <trkpt lat="43.74001" lon="6.63413">
        <ele>1234.2</ele>
        <time>2024-05-26T08:05:24Z</time>
      </trkpt>
      <trkpt lat="43.74001" lon="6.63413">
        <ele>1234.2</ele>
        <time>2024-05-26T08:05:25Z</time>
      </trkpt>
      <trkpt lat="43.74001" lon="6.63413">
        <ele>1234.3</ele>
        <time>2024-05-26T08:05:26Z</time>
      </trkpt>
      <trkpt lat="43.74001" lon="6.63413">
        <ele>1234.3</ele>
        <time>2024-05-26T08:05:27Z</time>
      </trkpt>
      <trkpt lat="43.74001" lon="6.63413">
        <ele>1234.3</ele>
        <time>2024-05-26T08:05:28Z</time>
      </trkpt>
      <trkpt lat="43.74001" lon="6.63413">
        <ele>1234.3</ele>
        <time>2024-05-26T08:05:29Z</time>
      </trkpt>
      <trkpt lat="43.74001" lon="6.63413">
        <ele>1234.3</ele>
        <time>2024-05-26T08:05:30Z</time>
      </trkpt>
      <trkpt lat="43.74001" lon="6.63413">
        <ele>1234.3</ele>
        <time>2024-05-26T08:05:31Z</time>
      </trkpt>
      <trkpt lat="43.74" lon="6.63413">
        <ele>1234.3</ele>
        <time>2024-05-26T08:05:32Z</time>
      </trkpt>
      <trkpt lat="43.74" lon="6.63413">
        <ele>1234.3</ele>
        <time>2024-05-26T08:05:33Z</time>
      </trkpt>
      <trkpt lat="43.74" lon="6.63412">
        <ele>1234.4</ele>
        <time>2024-05-26T08:05:34Z</time>
      </trkpt>
      <trkpt lat="43.74" lon="6.63412">
        <ele>1234.5</ele>
        <time>2024-05-26T08:05:35Z</time>
      </trkpt>
      <trkpt lat="43.74" lon="6.63413">
        <ele>1234.7</ele>
        <time>2024-05-26T08:05:36Z</time>
      </trkpt>
      <trkpt lat="43.74" lon="6.63413">
        <ele>1234.8</ele>
        <time>2024-05-26T08:05:37Z</time>
      </trkpt>
      <trkpt lat="43.74" lon="6.63413">
        <ele>1234.8</ele>
        <time>2024-05-26T08:05:38Z</time>
      </trkpt>
      <trkpt lat="43.74" lon="6.63413">
        <ele>1234.9</ele>
        <time>2024-05-26T08:05:39Z</time>
      </trkpt>
      <trkpt lat="43.74" lon="6.63413">
        <ele>1234.9</ele>
        <time>2024-05-26T08:05:40Z</time>
      </trkpt>
      <trkpt lat="43.74" lon="6.63413">
        <ele>1234.9</ele>
        <time>2024-05-26T08:05:41Z</time>
      </trkpt>
      <trkpt lat="43.74" lon="6.63413">
        <ele>1234.9</ele>
        <time>2024-05-26T08:05:42Z</time>
      </trkpt>
      <trkpt lat="43.74" lon="6.63413">
        <ele>1234.9</ele>
        <time>2024-05-26T08:05:43Z</time>
      </trkpt>
      <trkpt lat="43.74" lon="6.63413">
        <ele>1234.9</ele>
        <time>2024-05-26T08:05:44Z</time>
      </trkpt>
      <trkpt lat="43.74" lon="6.63413">
        <ele>1234.9</ele>
        <time>2024-05-26T08:05:45Z</time>
      </trkpt>
      <trkpt lat="43.74" lon="6.63413">
        <ele>1234.9</ele>
        <time>2024-05-26T08:05:46Z</time>
      </trkpt>
      <trkpt lat="43.74" lon="6.63413">
        <ele>1234.9</ele>
        <time>2024-05-26T08:05:47Z</time>
      </trkpt>
      <trkpt lat="43.74" lon="6.63412">
        <ele>1234.1</ele>
        <time>2024-05-26T08:05:48Z</time>
      </trkpt>
      <trkpt lat="43.74001" lon="6.63412">
        <ele>1234</ele>
        <time>2024-05-26T08:05:49Z</time>
      </trkpt>
      <trkpt lat="43.74002" lon="6.6341">
        <ele>1233.3</ele>
        <time>2024-05-26T08:05:50Z</time>
      </trkpt>
      <trkpt lat="43.74003" lon="6.63409">
        <ele>1230.6</ele>
        <time>2024-05-26T08:05:51Z</time>
      </trkpt>
      <trkpt lat="43.74004" lon="6.63406">
        <ele>1230.7</ele>
        <time>2024-05-26T08:05:57Z</time>
      </trkpt>
      <trkpt lat="43.74003" lon="6.63406">
        <ele>1231.4</ele>
        <time>2024-05-26T08:05:58Z</time>
      </trkpt>
      <trkpt lat="43.74003" lon="6.63406">
        <ele>1232</ele>
        <time>2024-05-26T08:05:59Z</time>
      </trkpt>
      <trkpt lat="43.74003" lon="6.63406">
        <ele>1232.5</ele>
        <time>2024-05-26T08:06:00Z</time>
      </trkpt>
      <trkpt lat="43.74003" lon="6.63406">
        <ele>1233</ele>
        <time>2024-05-26T08:06:01Z</time>
      </trkpt>
      <trkpt lat="43.74003" lon="6.63406">
        <ele>1233.3</ele>
        <time>2024-05-26T08:06:02Z</time>
      </trkpt>
      <trkpt lat="43.74003" lon="6.63407">
        <ele>1233.7</ele>
        <time>2024-05-26T08:06:03Z</time>
      </trkpt>
      <trkpt lat="43.74002" lon="6.63408">
        <ele>1234</ele>
        <time>2024-05-26T08:06:04Z</time>
      </trkpt>
      <trkpt lat="43.74002" lon="6.63407">
        <ele>1234.3</ele>
        <time>2024-05-26T08:06:05Z</time>
      </trkpt>
      <trkpt lat="43.74002" lon="6.63407">
        <ele>1234.5</ele>
        <time>2024-05-26T08:06:06Z</time>
      </trkpt>
      <trkpt lat="43.74002" lon="6.63407">
        <ele>1234.7</ele>
        <time>2024-05-26T08:06:07Z</time>
      </trkpt>
      <trkpt lat="43.74002" lon="6.63407">
        <ele>1234.8</ele>
        <time>2024-05-26T08:06:08Z</time>
      </trkpt>
      <trkpt lat="43.74002" lon="6.63407">
        <ele>1234.9</ele>
        <time>2024-05-26T08:06:09Z</time>
      </trkpt>
      <trkpt lat="43.74002" lon="6.63407">
        <ele>1234.9</ele>
        <time>2024-05-26T08:06:10Z</time>
      </trkpt>
      <trkpt lat="43.74002" lon="6.63407">
        <ele>1234.9</ele>
        <time>2024-05-26T08:06:11Z</time>
      </trkpt>
      <trkpt lat="43.74002" lon="6.63407">
        <ele>1235</ele>
        <time>2024-05-26T08:06:12Z</time>
      </trkpt>
      <trkpt lat="43.74002" lon="6.63407">
        <ele>1235</ele>
        <time>2024-05-26T08:06:13Z</time>
      </trkpt>
      <trkpt lat="43.74001" lon="6.63407">
        <ele>1235</ele>
        <time>2024-05-26T08:06:14Z</time>
      </trkpt>
      <trkpt lat="43.74001" lon="6.63408">
        <ele>1235</ele>
        <time>2024-05-26T08:06:15Z</time>
      </trkpt>
      <trkpt lat="43.74001" lon="6.63407">
        <ele>1235</ele>
        <time>2024-05-26T08:06:16Z</time>
      </trkpt>
      <trkpt lat="43.74001" lon="6.63407">
        <ele>1234.9</ele>
        <time>2024-05-26T08:06:17Z</time>
      </trkpt>
      <trkpt lat="43.74001" lon="6.63407">
        <ele>1234.9</ele>
        <time>2024-05-26T08:06:18Z</time>
      </trkpt>
      <trkpt lat="43.74002" lon="6.63407">
        <ele>1234.8</ele>
        <time>2024-05-26T08:06:19Z</time>
      </trkpt>
      <trkpt lat="43.74002" lon="6.63406">
        <ele>1234.7</ele>
        <time>2024-05-26T08:06:20Z</time>
      </trkpt>
      <trkpt lat="43.74002" lon="6.63406">
        <ele>1234.8</ele>
        <time>2024-05-26T08:06:21Z</time>
      </trkpt>
      <trkpt lat="43.74003" lon="6.63405">
        <ele>1234.8</ele>
        <time>2024-05-26T08:06:22Z</time>
      </trkpt>
      <trkpt lat="43.74003" lon="6.63405">
        <ele>1234.9</ele>
        <time>2024-05-26T08:06:23Z</time>
      </trkpt>
      <trkpt lat="43.74004" lon="6.63404">
        <ele>1234.9</ele>
        <time>2024-05-26T08:06:24Z</time>
      </trkpt>
      <trkpt lat="43.74003" lon="6.63404">
        <ele>1234.8</ele>
        <time>2024-05-26T08:06:25Z</time>
      </trkpt>
      <trkpt lat="43.74002" lon="6.63404">
        <ele>1234.8</ele>
        <time>2024-05-26T08:06:26Z</time>
      </trkpt>
      <trkpt lat="43.74003" lon="6.63404">
        <ele>1234.8</ele>
        <time>2024-05-26T08:06:27Z</time>
      </trkpt>
      <trkpt lat="43.74003" lon="6.63404">
        <ele>1234.7</ele>
        <time>2024-05-26T08:06:28Z</time>
      </trkpt>
      <trkpt lat="43.74003" lon="6.63404">
        <ele>1234.6</ele>
        <time>2024-05-26T08:06:29Z</time>
      </trkpt>
      <trkpt lat="43.74002" lon="6.63404">
        <ele>1234.4</ele>
        <time>2024-05-26T08:06:30Z</time>
      </trkpt>
      <trkpt lat="43.74002" lon="6.63404">
        <ele>1234.3</ele>
        <time>2024-05-26T08:06:31Z</time>
      </trkpt>
      <trkpt lat="43.74002" lon="6.63404">
        <ele>1234.2</ele>
        <time>2024-05-26T08:06:32Z</time>
      </trkpt>
      <trkpt lat="43.74002" lon="6.63403">
        <ele>1234.2</ele>
        <time>2024-05-26T08:06:33Z</time>
      </trkpt>
      <trkpt lat="43.74002" lon="6.63404">
        <ele>1234.1</ele>
        <time>2024-05-26T08:06:34Z</time>
      </trkpt>
      <trkpt lat="43.74002" lon="6.63404">
        <ele>1234.1</ele>
        <time>2024-05-26T08:06:35Z</time>
      </trkpt>
      <trkpt lat="43.74002" lon="6.63404">
        <ele>1234</ele>
        <time>2024-05-26T08:06:36Z</time>
      </trkpt>
      <trkpt lat="43.74002" lon="6.63404">
        <ele>1233.9</ele>
        <time>2024-05-26T08:06:37Z</time>
      </trkpt>
      <trkpt lat="43.74002" lon="6.63404">
        <ele>1234</ele>
        <time>2024-05-26T08:06:38Z</time>
      </trkpt>
      <trkpt lat="43.74002" lon="6.63405">
        <ele>1233.9</ele>
        <time>2024-05-26T08:06:39Z</time>
      </trkpt>
      <trkpt lat="43.74002" lon="6.63405">
        <ele>1233.8</ele>
        <time>2024-05-26T08:06:40Z</time>
      </trkpt>
      <trkpt lat="43.74002" lon="6.63405">
        <ele>1233.8</ele>
        <time>2024-05-26T08:06:41Z</time>
      </trkpt>
      <trkpt lat="43.74002" lon="6.63405">
        <ele>1233.8</ele>
        <time>2024-05-26T08:06:42Z</time>
      </trkpt>
      <trkpt lat="43.74002" lon="6.63405">
        <ele>1233.9</ele>
        <time>2024-05-26T08:06:43Z</time>
      </trkpt>
      <trkpt lat="43.74002" lon="6.63405">
        <ele>1233.9</ele>
        <time>2024-05-26T08:06:44Z</time>
      </trkpt>
      <trkpt lat="43.74002" lon="6.63405">
        <ele>1233.8</ele>
        <time>2024-05-26T08:06:45Z</time>
      </trkpt>
      <trkpt lat="43.74002" lon="6.63405">
        <ele>1233.9</ele>
        <time>2024-05-26T08:06:46Z</time>
      </trkpt>
      <trkpt lat="43.74002" lon="6.63405">
        <ele>1233.9</ele>
        <time>2024-05-26T08:06:47Z</time>
      </trkpt>
      <trkpt lat="43.74002" lon="6.63405">
        <ele>1233.9</ele>
        <time>2024-05-26T08:06:48Z</time>
      </trkpt>
      <trkpt lat="43.74003" lon="6.63406">
        <ele>1233.9</ele>
        <time>2024-05-26T08:06:49Z</time>
      </trkpt>
      <trkpt lat="43.74002" lon="6.63405">
        <ele>1233.8</ele>
        <time>2024-05-26T08:06:50Z</time>
      </trkpt>
      <trkpt lat="43.74002" lon="6.63406">
        <ele>1233.8</ele>
        <time>2024-05-26T08:06:51Z</time>
      </trkpt>
      <trkpt lat="43.74002" lon="6.63406">
        <ele>1233.8</ele>
        <time>2024-05-26T08:06:52Z</time>
      </trkpt>
      <trkpt lat="43.74002" lon="6.63406">
        <ele>1233.7</ele>
        <time>2024-05-26T08:06:53Z</time>
      </trkpt>
      <trkpt lat="43.74002" lon="6.63406">
        <ele>1233.7</ele>
        <time>2024-05-26T08:06:54Z</time>
      </trkpt>
      <trkpt lat="43.74002" lon="6.63406">
        <ele>1233.6</ele>
        <time>2024-05-26T08:06:55Z</time>
      </trkpt>
      <trkpt lat="43.74001" lon="6.63407">
        <ele>1233.6</ele>
        <time>2024-05-26T08:06:56Z</time>
      </trkpt>
      <trkpt lat="43.74001" lon="6.63407">
        <ele>1233.6</ele>
        <time>2024-05-26T08:06:57Z</time>
      </trkpt>
      <trkpt lat="43.74001" lon="6.63407">
        <ele>1233.5</ele>
        <time>2024-05-26T08:06:58Z</time>
      </trkpt>
      <trkpt lat="43.74002" lon="6.63407">
        <ele>1233.5</ele>
        <time>2024-05-26T08:06:59Z</time>
      </trkpt>
      <trkpt lat="43.74002" lon="6.63407">
        <ele>1233.6</ele>
        <time>2024-05-26T08:07:00Z</time>
      </trkpt>
      <trkpt lat="43.74002" lon="6.63408">
        <ele>1233.6</ele>
        <time>2024-05-26T08:07:01Z</time>
      </trkpt>
      <trkpt lat="43.74002" lon="6.63408">
        <ele>1233.5</ele>
        <time>2024-05-26T08:07:02Z</time>
      </trkpt>
      <trkpt lat="43.74002" lon="6.63409">
        <ele>1233.5</ele>
        <time>2024-05-26T08:07:03Z</time>
      </trkpt>
      <trkpt lat="43.74002" lon="6.63408">
        <ele>1233.4</ele>
        <time>2024-05-26T08:07:04Z</time>
      </trkpt>
      <trkpt lat="43.74002" lon="6.63408">
        <ele>1233.5</ele>
        <time>2024-05-26T08:07:05Z</time>
      </trkpt>
      <trkpt lat="43.74001" lon="6.63408">
        <ele>1233.4</ele>
        <time>2024-05-26T08:07:06Z</time>
      </trkpt>
      <trkpt lat="43.74001" lon="6.63408">
        <ele>1233.4</ele>
        <time>2024-05-26T08:07:07Z</time>
      </trkpt>
      <trkpt lat="43.74001" lon="6.63408">
        <ele>1233.4</ele>
        <time>2024-05-26T08:07:08Z</time>
      </trkpt>
      <trkpt lat="43.74" lon="6.63408">
        <ele>1233.4</ele>
        <time>2024-05-26T08:07:09Z</time>
      </trkpt>
      <trkpt lat="43.74" lon="6.63408">
        <ele>1233.4</ele>
        <time>2024-05-26T08:07:10Z</time>
      </trkpt>
      <trkpt lat="43.73999" lon="6.63408">
        <ele>1233.4</ele>
        <time>2024-05-26T08:07:11Z</time>
      </trkpt>
      <trkpt lat="43.73998" lon="6.63408">
        <ele>1233.5</ele>
        <time>2024-05-26T08:07:12Z</time>
      </trkpt>
      <trkpt lat="43.73998" lon="6.63408">
        <ele>1233.5</ele>
        <time>2024-05-26T08:07:13Z</time>
      </trkpt>
      <trkpt lat="43.73998" lon="6.63408">
        <ele>1233.6</ele>
        <time>2024-05-26T08:07:14Z</time>
      </trkpt>
      <trkpt lat="43.73998" lon="6.63409">
        <ele>1233.7</ele>
        <time>2024-05-26T08:07:15Z</time>
      </trkpt>
      <trkpt lat="43.73998" lon="6.63409">
        <ele>1233.8</ele>
        <time>2024-05-26T08:07:16Z</time>
      </trkpt>
      <trkpt lat="43.73997" lon="6.63408">
        <ele>1233.8</ele>
        <time>2024-05-26T08:07:17Z</time>
      </trkpt>
      <trkpt lat="43.73997" lon="6.63409">
        <ele>1233.9</ele>
        <time>2024-05-26T08:07:18Z</time>
      </trkpt>
      <trkpt lat="43.73997" lon="6.63409">
        <ele>1233.8</ele>
        <time>2024-05-26T08:07:19Z</time>
      </trkpt>
      <trkpt lat="43.73997" lon="6.63409">
        <ele>1233.8</ele>
        <time>2024-05-26T08:07:20Z</time>
      </trkpt>
      <trkpt lat="43.73997" lon="6.63409">
        <ele>1233.7</ele>
        <time>2024-05-26T08:07:21Z</time>
      </trkpt>
      <trkpt lat="43.73997" lon="6.6341">
        <ele>1233.7</ele>
        <time>2024-05-26T08:07:22Z</time>
      </trkpt>
      <trkpt lat="43.73997" lon="6.6341">
        <ele>1233.7</ele>
        <time>2024-05-26T08:07:23Z</time>
      </trkpt>
      <trkpt lat="43.73997" lon="6.6341">
        <ele>1233.7</ele>
        <time>2024-05-26T08:07:24Z</time>
      </trkpt>
      <trkpt lat="43.73997" lon="6.6341">
        <ele>1233.6</ele>
        <time>2024-05-26T08:07:25Z</time>
      </trkpt>
      <trkpt lat="43.73996" lon="6.6341">
        <ele>1233.6</ele>
        <time>2024-05-26T08:07:26Z</time>
      </trkpt>
      <trkpt lat="43.73996" lon="6.6341">
        <ele>1233.6</ele>
        <time>2024-05-26T08:07:27Z</time>
      </trkpt>
      <trkpt lat="43.73996" lon="6.6341">
        <ele>1233.6</ele>
        <time>2024-05-26T08:07:28Z</time>
      </trkpt>
      <trkpt lat="43.73996" lon="6.6341">
        <ele>1233.7</ele>
        <time>2024-05-26T08:07:29Z</time>
      </trkpt>
      <trkpt lat="43.73996" lon="6.6341">
        <ele>1233.8</ele>
        <time>2024-05-26T08:07:30Z</time>
      </trkpt>
      <trkpt lat="43.73996" lon="6.6341">
        <ele>1233.7</ele>
        <time>2024-05-26T08:07:31Z</time>
      </trkpt>
      <trkpt lat="43.73996" lon="6.6341">
        <ele>1233.7</ele>
        <time>2024-05-26T08:07:32Z</time>
      </trkpt>
      <trkpt lat="43.73996" lon="6.6341">
        <ele>1233.7</ele>
        <time>2024-05-26T08:07:33Z</time>
      </trkpt>
      <trkpt lat="43.73996" lon="6.6341">
        <ele>1233.7</ele>
        <time>2024-05-26T08:07:34Z</time>
      </trkpt>
      <trkpt lat="43.73996" lon="6.6341">
        <ele>1233.7</ele>
        <time>2024-05-26T08:07:35Z</time>
      </trkpt>
      <trkpt lat="43.73996" lon="6.6341">
        <ele>1233.7</ele>
        <time>2024-05-26T08:07:36Z</time>
      </trkpt>
      <trkpt lat="43.73996" lon="6.6341">
        <ele>1233.7</ele>
        <time>2024-05-26T08:07:37Z</time>
      </trkpt>
      <trkpt lat="43.73996" lon="6.6341">
        <ele>1233.6</ele>
        <time>2024-05-26T08:07:38Z</time>
      </trkpt>
      <trkpt lat="43.73996" lon="6.6341">
        <ele>1233.6</ele>
        <time>2024-05-26T08:07:39Z</time>
      </trkpt>
      <trkpt lat="43.73996" lon="6.6341">
        <ele>1233.5</ele>
        <time>2024-05-26T08:07:40Z</time>
      </trkpt>
      <trkpt lat="43.73996" lon="6.6341">
        <ele>1233.5</ele>
        <time>2024-05-26T08:07:41Z</time>
      </trkpt>
      <trkpt lat="43.73996" lon="6.6341">
        <ele>1233.4</ele>
        <time>2024-05-26T08:07:42Z</time>
      </trkpt>
      <trkpt lat="43.73996" lon="6.6341">
        <ele>1233.4</ele>
        <time>2024-05-26T08:07:43Z</time>
      </trkpt>
      <trkpt lat="43.73996" lon="6.6341">
        <ele>1233.4</ele>
        <time>2024-05-26T08:07:44Z</time>
      </trkpt>
      <trkpt lat="43.73996" lon="6.6341">
        <ele>1233.4</ele>
        <time>2024-05-26T08:07:45Z</time>
      </trkpt>
      <trkpt lat="43.73996" lon="6.6341">
        <ele>1233.4</ele>
        <time>2024-05-26T08:07:46Z</time>
      </trkpt>
      <trkpt lat="43.73996" lon="6.6341">
        <ele>1233.4</ele>
        <time>2024-05-26T08:07:47Z</time>
      </trkpt>
      <trkpt lat="43.73995" lon="6.6341">
        <ele>1233.4</ele>
        <time>2024-05-26T08:07:48Z</time>
      </trkpt>
      <trkpt lat="43.73994" lon="6.6341">
        <ele>1233.2</ele>
        <time>2024-05-26T08:07:49Z</time>
      </trkpt>
      <trkpt lat="43.73993" lon="6.6341">
        <ele>1232.9</ele>
        <time>2024-05-26T08:07:50Z</time>
      </trkpt>
      <trkpt lat="43.73992" lon="6.63411">
        <ele>1232.9</ele>
        <time>2024-05-26T08:07:51Z</time>
      </trkpt>
      <trkpt lat="43.73992" lon="6.63412">
        <ele>1232.8</ele>
        <time>2024-05-26T08:07:52Z</time>
      </trkpt>
      <trkpt lat="43.73992" lon="6.63412">
        <ele>1232.8</ele>
        <time>2024-05-26T08:07:53Z</time>
      </trkpt>
      <trkpt lat="43.73992" lon="6.63412">
        <ele>1232.8</ele>
        <time>2024-05-26T08:07:54Z</time>
      </trkpt>
      <trkpt lat="43.73993" lon="6.63412">
        <ele>1232.8</ele>
        <time>2024-05-26T08:07:55Z</time>
      </trkpt>
      <trkpt lat="43.73993" lon="6.63412">
        <ele>1232.9</ele>
        <time>2024-05-26T08:07:56Z</time>
      </trkpt>
      <trkpt lat="43.73993" lon="6.63412">
        <ele>1232.9</ele>
        <time>2024-05-26T08:07:57Z</time>
      </trkpt>
      <trkpt lat="43.73994" lon="6.63411">
        <ele>1232.8</ele>
        <time>2024-05-26T08:07:58Z</time>
      </trkpt>
      <trkpt lat="43.73995" lon="6.63412">
        <ele>1232.8</ele>
        <time>2024-05-26T08:07:59Z</time>
      </trkpt>
      <trkpt lat="43.73995" lon="6.63412">
        <ele>1232.8</ele>
        <time>2024-05-26T08:08:00Z</time>
      </trkpt>
      <trkpt lat="43.73995" lon="6.63413">
        <ele>1232.7</ele>
        <time>2024-05-26T08:08:01Z</time>
      </trkpt>
      <trkpt lat="43.73995" lon="6.63413">
        <ele>1232.6</ele>
        <time>2024-05-26T08:08:02Z</time>
      </trkpt>
      <trkpt lat="43.73995" lon="6.63413">
        <ele>1232.6</ele>
        <time>2024-05-26T08:08:03Z</time>
      </trkpt>
      <trkpt lat="43.73995" lon="6.63414">
        <ele>1232.6</ele>
        <time>2024-05-26T08:08:04Z</time>
      </trkpt>
      <trkpt lat="43.73995" lon="6.63414">
        <ele>1232.6</ele>
        <time>2024-05-26T08:08:05Z</time>
      </trkpt>
      <trkpt lat="43.73995" lon="6.63414">
        <ele>1232.4</ele>
        <time>2024-05-26T08:08:06Z</time>
      </trkpt>
      <trkpt lat="43.73995" lon="6.63415">
        <ele>1232.2</ele>
        <time>2024-05-26T08:08:07Z</time>
      </trkpt>
      <trkpt lat="43.73995" lon="6.63415">
        <ele>1232.1</ele>
        <time>2024-05-26T08:08:08Z</time>
      </trkpt>
      <trkpt lat="43.73995" lon="6.63415">
        <ele>1232</ele>
        <time>2024-05-26T08:08:09Z</time>
      </trkpt>
      <trkpt lat="43.73995" lon="6.63415">
        <ele>1231.7</ele>
        <time>2024-05-26T08:08:10Z</time>
      </trkpt>
      <trkpt lat="43.73995" lon="6.63416">
        <ele>1231.5</ele>
        <time>2024-05-26T08:08:11Z</time>
      </trkpt>
      <trkpt lat="43.73995" lon="6.63416">
        <ele>1231.3</ele>
        <time>2024-05-26T08:08:12Z</time>
      </trkpt>
      <trkpt lat="43.73995" lon="6.63417">
        <ele>1231.3</ele>
        <time>2024-05-26T08:08:13Z</time>
      </trkpt>
      <trkpt lat="43.73995" lon="6.63417">
        <ele>1231.2</ele>
        <time>2024-05-26T08:08:14Z</time>
      </trkpt>
      <trkpt lat="43.73995" lon="6.63417">
        <ele>1231.2</ele>
        <time>2024-05-26T08:08:15Z</time>
      </trkpt>
      <trkpt lat="43.73995" lon="6.63417">
        <ele>1231.2</ele>
        <time>2024-05-26T08:08:16Z</time>
      </trkpt>
      <trkpt lat="43.73994" lon="6.63418">
        <ele>1231.1</ele>
        <time>2024-05-26T08:08:17Z</time>
      </trkpt>
      <trkpt lat="43.73994" lon="6.63418">
        <ele>1231.1</ele>
        <time>2024-05-26T08:08:18Z</time>
      </trkpt>
      <trkpt lat="43.73994" lon="6.63418">
        <ele>1231.1</ele>
        <time>2024-05-26T08:08:19Z</time>
      </trkpt>
      <trkpt lat="43.73994" lon="6.63418">
        <ele>1231.1</ele>
        <time>2024-05-26T08:08:20Z</time>
      </trkpt>
      <trkpt lat="43.73994" lon="6.63419">
        <ele>1231.1</ele>
        <time>2024-05-26T08:08:21Z</time>
      </trkpt>
      <trkpt lat="43.73994" lon="6.63419">
        <ele>1231.1</ele>
        <time>2024-05-26T08:08:22Z</time>
      </trkpt>
      <trkpt lat="43.73994" lon="6.63418">
        <ele>1231.1</ele>
        <time>2024-05-26T08:08:23Z</time>
      </trkpt>
      <trkpt lat="43.73994" lon="6.63418">
        <ele>1231.1</ele>
        <time>2024-05-26T08:08:24Z</time>
      </trkpt>
      <trkpt lat="43.73995" lon="6.63417">
        <ele>1231.1</ele>
        <time>2024-05-26T08:08:25Z</time>
      </trkpt>
      <trkpt lat="43.73994" lon="6.63417">
        <ele>1231</ele>
        <time>2024-05-26T08:08:26Z</time>
      </trkpt>
      <trkpt lat="43.73995" lon="6.63417">
        <ele>1230.9</ele>
        <time>2024-05-26T08:08:27Z</time>
      </trkpt>
      <trkpt lat="43.73994" lon="6.63417">
        <ele>1230.8</ele>
        <time>2024-05-26T08:08:28Z</time>
      </trkpt>
      <trkpt lat="43.73994" lon="6.63417">
        <ele>1230.7</ele>
        <time>2024-05-26T08:08:29Z</time>
      </trkpt>
      <trkpt lat="43.73994" lon="6.63416">
        <ele>1230.6</ele>
        <time>2024-05-26T08:08:30Z</time>
      </trkpt>
      <trkpt lat="43.73994" lon="6.63416">
        <ele>1230.4</ele>
        <time>2024-05-26T08:08:31Z</time>
      </trkpt>
      <trkpt lat="43.73994" lon="6.63416">
        <ele>1230.2</ele>
        <time>2024-05-26T08:08:32Z</time>
      </trkpt>
      <trkpt lat="43.73995" lon="6.63417">
        <ele>1230</ele>
        <time>2024-05-26T08:08:33Z</time>
      </trkpt>
      <trkpt lat="43.73995" lon="6.63417">
        <ele>1229.8</ele>
        <time>2024-05-26T08:08:34Z</time>
      </trkpt>
      <trkpt lat="43.73994" lon="6.63417">
        <ele>1229.6</ele>
        <time>2024-05-26T08:08:35Z</time>
      </trkpt>
      <trkpt lat="43.73994" lon="6.63417">
        <ele>1229.4</ele>
        <time>2024-05-26T08:08:36Z</time>
      </trkpt>
      <trkpt lat="43.73994" lon="6.63418">
        <ele>1229.2</ele>
        <time>2024-05-26T08:08:37Z</time>
      </trkpt>
      <trkpt lat="43.73994" lon="6.63418">
        <ele>1229.1</ele>
        <time>2024-05-26T08:08:38Z</time>
      </trkpt>
      <trkpt lat="43.73995" lon="6.63418">
        <ele>1228.9</ele>
        <time>2024-05-26T08:08:39Z</time>
      </trkpt>
      <trkpt lat="43.73995" lon="6.63418">
        <ele>1228.7</ele>
        <time>2024-05-26T08:08:40Z</time>
      </trkpt>
      <trkpt lat="43.73994" lon="6.63418">
        <ele>1228.6</ele>
        <time>2024-05-26T08:08:41Z</time>
      </trkpt>
      <trkpt lat="43.73995" lon="6.63418">
        <ele>1228.5</ele>
        <time>2024-05-26T08:08:42Z</time>
      </trkpt>
      <trkpt lat="43.73995" lon="6.63418">
        <ele>1228.4</ele>
        <time>2024-05-26T08:08:43Z</time>
      </trkpt>
      <trkpt lat="43.73995" lon="6.63418">
        <ele>1228.4</ele>
        <time>2024-05-26T08:08:44Z</time>
      </trkpt>
      <trkpt lat="43.73995" lon="6.63418">
        <ele>1228.3</ele>
        <time>2024-05-26T08:08:45Z</time>
      </trkpt>
      <trkpt lat="43.73995" lon="6.63418">
        <ele>1228.3</ele>
        <time>2024-05-26T08:08:46Z</time>
      </trkpt>
      <trkpt lat="43.73995" lon="6.63419">
        <ele>1228.2</ele>
        <time>2024-05-26T08:08:47Z</time>
      </trkpt>
      <trkpt lat="43.73995" lon="6.63419">
        <ele>1228.1</ele>
        <time>2024-05-26T08:08:48Z</time>
      </trkpt>
      <trkpt lat="43.73995" lon="6.6342">
        <ele>1228</ele>
        <time>2024-05-26T08:08:49Z</time>
      </trkpt>
      <trkpt lat="43.73995" lon="6.63421">
        <ele>1227.9</ele>
        <time>2024-05-26T08:08:50Z</time>
      </trkpt>
      <trkpt lat="43.73994" lon="6.63422">
        <ele>1227.8</ele>
        <time>2024-05-26T08:08:51Z</time>
      </trkpt>
      <trkpt lat="43.73994" lon="6.63421">
        <ele>1227.7</ele>
        <time>2024-05-26T08:08:52Z</time>
      </trkpt>
      <trkpt lat="43.73994" lon="6.63421">
        <ele>1227.7</ele>
        <time>2024-05-26T08:08:53Z</time>
      </trkpt>
      <trkpt lat="43.73994" lon="6.6342">
        <ele>1227.5</ele>
        <time>2024-05-26T08:08:54Z</time>
      </trkpt>
      <trkpt lat="43.73994" lon="6.6342">
        <ele>1227.4</ele>
        <time>2024-05-26T08:08:55Z</time>
      </trkpt>
      <trkpt lat="43.73994" lon="6.6342">
        <ele>1227.3</ele>
        <time>2024-05-26T08:08:56Z</time>
      </trkpt>
      <trkpt lat="43.73994" lon="6.63421">
        <ele>1227.2</ele>
        <time>2024-05-26T08:08:57Z</time>
      </trkpt>
      <trkpt lat="43.73994" lon="6.63421">
        <ele>1227.1</ele>
        <time>2024-05-26T08:08:58Z</time>
      </trkpt>
      <trkpt lat="43.73994" lon="6.63422">
        <ele>1227</ele>
        <time>2024-05-26T08:08:59Z</time>
      </trkpt>
      <trkpt lat="43.73994" lon="6.63422">
        <ele>1226.9</ele>
        <time>2024-05-26T08:09:00Z</time>
      </trkpt>
      <trkpt lat="43.73994" lon="6.63423">
        <ele>1226.8</ele>
        <time>2024-05-26T08:09:01Z</time>
      </trkpt>
      <trkpt lat="43.73993" lon="6.63423">
        <ele>1226.8</ele>
        <time>2024-05-26T08:09:02Z</time>
      </trkpt>
      <trkpt lat="43.73993" lon="6.63423">
        <ele>1226.7</ele>
        <time>2024-05-26T08:09:03Z</time>
      </trkpt>
      <trkpt lat="43.73993" lon="6.63424">
        <ele>1226.6</ele>
        <time>2024-05-26T08:09:04Z</time>
      </trkpt>
      <trkpt lat="43.73994" lon="6.63424">
        <ele>1226.5</ele>
        <time>2024-05-26T08:09:05Z</time>
      </trkpt>
      <trkpt lat="43.73994" lon="6.63424">
        <ele>1226.4</ele>
        <time>2024-05-26T08:09:06Z</time>
      </trkpt>
      <trkpt lat="43.73994" lon="6.63424">
        <ele>1226.3</ele>
        <time>2024-05-26T08:09:07Z</time>
      </trkpt>
      <trkpt lat="43.73994" lon="6.63424">
        <ele>1226.2</ele>
        <time>2024-05-26T08:09:08Z</time>
      </trkpt>
      <trkpt lat="43.73994" lon="6.63424">
        <ele>1226.1</ele>
        <time>2024-05-26T08:09:09Z</time>
      </trkpt>
      <trkpt lat="43.73994" lon="6.63424">
        <ele>1226</ele>
        <time>2024-05-26T08:09:10Z</time>
      </trkpt>
      <trkpt lat="43.73994" lon="6.63424">
        <ele>1225.9</ele>
        <time>2024-05-26T08:09:11Z</time>
      </trkpt>
      <trkpt lat="43.73994" lon="6.63424">
        <ele>1225.9</ele>
        <time>2024-05-26T08:09:12Z</time>
      </trkpt>
      <trkpt lat="43.73994" lon="6.63424">
        <ele>1225.9</ele>
        <time>2024-05-26T08:09:13Z</time>
      </trkpt>
      <trkpt lat="43.73994" lon="6.63425">
        <ele>1225.9</ele>
        <time>2024-05-26T08:09:14Z</time>
      </trkpt>
      <trkpt lat="43.73994" lon="6.63425">
        <ele>1225.9</ele>
        <time>2024-05-26T08:09:15Z</time>
      </trkpt>
      <trkpt lat="43.73994" lon="6.63426">
        <ele>1225.8</ele>
        <time>2024-05-26T08:09:16Z</time>
      </trkpt>
      <trkpt lat="43.73994" lon="6.63426">
        <ele>1225.8</ele>
        <time>2024-05-26T08:09:17Z</time>
      </trkpt>
      <trkpt lat="43.73994" lon="6.63427">
        <ele>1225.8</ele>
        <time>2024-05-26T08:09:18Z</time>
      </trkpt>
      <trkpt lat="43.73994" lon="6.63427">
        <ele>1225.8</ele>
        <time>2024-05-26T08:09:19Z</time>
      </trkpt>
      <trkpt lat="43.73994" lon="6.63428">
        <ele>1225.8</ele>
        <time>2024-05-26T08:09:20Z</time>
      </trkpt>
      <trkpt lat="43.73994" lon="6.63428">
        <ele>1225.7</ele>
        <time>2024-05-26T08:09:21Z</time>
      </trkpt>
      <trkpt lat="43.73994" lon="6.63428">
        <ele>1225.7</ele>
        <time>2024-05-26T08:09:22Z</time>
      </trkpt>
      <trkpt lat="43.73994" lon="6.63428">
        <ele>1225.6</ele>
        <time>2024-05-26T08:09:23Z</time>
      </trkpt>
      <trkpt lat="43.73994" lon="6.63429">
        <ele>1225.6</ele>
        <time>2024-05-26T08:09:24Z</time>
      </trkpt>
      <trkpt lat="43.73994" lon="6.63429">
        <ele>1225.4</ele>
        <time>2024-05-26T08:09:25Z</time>
      </trkpt>
      <trkpt lat="43.73993" lon="6.6343">
        <ele>1225.3</ele>
        <time>2024-05-26T08:09:26Z</time>
      </trkpt>
      <trkpt lat="43.73993" lon="6.6343">
        <ele>1225.1</ele>
        <time>2024-05-26T08:09:27Z</time>
      </trkpt>
      <trkpt lat="43.73993" lon="6.63432">
        <ele>1224.9</ele>
        <time>2024-05-26T08:09:28Z</time>
      </trkpt>
      <trkpt lat="43.73992" lon="6.63433">
        <ele>1224.6</ele>
        <time>2024-05-26T08:09:29Z</time>
      </trkpt>
      <trkpt lat="43.73992" lon="6.63434">
        <ele>1224.4</ele>
        <time>2024-05-26T08:09:30Z</time>
      </trkpt>
      <trkpt lat="43.73991" lon="6.63434">
        <ele>1224.2</ele>
        <time>2024-05-26T08:09:31Z</time>
      </trkpt>
      <trkpt lat="43.73992" lon="6.63434">
        <ele>1224.1</ele>
        <time>2024-05-26T08:09:32Z</time>
      </trkpt>
      <trkpt lat="43.73992" lon="6.63435">
        <ele>1224</ele>
        <time>2024-05-26T08:09:33Z</time>
      </trkpt>
      <trkpt lat="43.73992" lon="6.63436">
        <ele>1223.7</ele>
        <time>2024-05-26T08:09:34Z</time>
      </trkpt>
      <trkpt lat="43.73992" lon="6.63437">
        <ele>1223.6</ele>
        <time>2024-05-26T08:09:35Z</time>
      </trkpt>
      <trkpt lat="43.73992" lon="6.63437">
        <ele>1223.5</ele>
        <time>2024-05-26T08:09:36Z</time>
      </trkpt>
      <trkpt lat="43.73992" lon="6.63437">
        <ele>1223.4</ele>
        <time>2024-05-26T08:09:37Z</time>
      </trkpt>
      <trkpt lat="43.73992" lon="6.63437">
        <ele>1223.2</ele>
        <time>2024-05-26T08:09:38Z</time>
      </trkpt>
      <trkpt lat="43.73992" lon="6.63438">
        <ele>1223</ele>
        <time>2024-05-26T08:09:39Z</time>
      </trkpt>
      <trkpt lat="43.73992" lon="6.63439">
        <ele>1222.9</ele>
        <time>2024-05-26T08:09:40Z</time>
      </trkpt>
      <trkpt lat="43.73992" lon="6.6344">
        <ele>1222.5</ele>
        <time>2024-05-26T08:09:41Z</time>
      </trkpt>
      <trkpt lat="43.73992" lon="6.63441">
        <ele>1222.3</ele>
        <time>2024-05-26T08:09:42Z</time>
      </trkpt>
      <trkpt lat="43.73992" lon="6.6344">
        <ele>1222.1</ele>
        <time>2024-05-26T08:09:43Z</time>
      </trkpt>
      <trkpt lat="43.73992" lon="6.6344">
        <ele>1222</ele>
        <time>2024-05-26T08:09:44Z</time>
      </trkpt>
      <trkpt lat="43.73992" lon="6.63439">
        <ele>1221.8</ele>
        <time>2024-05-26T08:09:45Z</time>
      </trkpt>
      <trkpt lat="43.73992" lon="6.6344">
        <ele>1221.6</ele>
        <time>2024-05-26T08:09:46Z</time>
      </trkpt>
      <trkpt lat="43.73992" lon="6.63439">
        <ele>1221.5</ele>
        <time>2024-05-26T08:09:47Z</time>
      </trkpt>
      <trkpt lat="43.73992" lon="6.63439">
        <ele>1221.4</ele>
        <time>2024-05-26T08:09:48Z</time>
      </trkpt>
      <trkpt lat="43.73993" lon="6.63438">
        <ele>1221.4</ele>
        <time>2024-05-26T08:09:49Z</time>
      </trkpt>
      <trkpt lat="43.73993" lon="6.63439">
        <ele>1221.3</ele>
        <time>2024-05-26T08:09:50Z</time>
      </trkpt>
      <trkpt lat="43.73993" lon="6.63439">
        <ele>1221.1</ele>
        <time>2024-05-26T08:09:51Z</time>
      </trkpt>
      <trkpt lat="43.73993" lon="6.6344">
        <ele>1221.1</ele>
        <time>2024-05-26T08:09:52Z</time>
      </trkpt>
      <trkpt lat="43.73993" lon="6.63441">
        <ele>1220.9</ele>
        <time>2024-05-26T08:09:53Z</time>
      </trkpt>
      <trkpt lat="43.73993" lon="6.63442">
        <ele>1220.7</ele>
        <time>2024-05-26T08:09:54Z</time>
      </trkpt>
      <trkpt lat="43.73993" lon="6.63442">
        <ele>1220.7</ele>
        <time>2024-05-26T08:09:55Z</time>
      </trkpt>
      <trkpt lat="43.73993" lon="6.63442">
        <ele>1220.6</ele>
        <time>2024-05-26T08:09:56Z</time>
      </trkpt>
      <trkpt lat="43.73993" lon="6.63441">
        <ele>1220.7</ele>
        <time>2024-05-26T08:09:57Z</time>
      </trkpt>
      <trkpt lat="43.73994" lon="6.63441">
        <ele>1220.9</ele>
        <time>2024-05-26T08:09:58Z</time>
      </trkpt>
      <trkpt lat="43.73994" lon="6.6344">
        <ele>1221</ele>
        <time>2024-05-26T08:09:59Z</time>
      </trkpt>
      <trkpt lat="43.73994" lon="6.63441">
        <ele>1221.2</ele>
        <time>2024-05-26T08:10:00Z</time>
      </trkpt>
      <trkpt lat="43.73994" lon="6.6344">
        <ele>1221.3</ele>
        <time>2024-05-26T08:10:01Z</time>
      </trkpt>
      <trkpt lat="43.73994" lon="6.63439">
        <ele>1221.4</ele>
        <time>2024-05-26T08:10:02Z</time>
      </trkpt>
      <trkpt lat="43.73995" lon="6.63439">
        <ele>1221.4</ele>
        <time>2024-05-26T08:10:03Z</time>
      </trkpt>
      <trkpt lat="43.73995" lon="6.63438">
        <ele>1221.4</ele>
        <time>2024-05-26T08:10:04Z</time>
      </trkpt>
      <trkpt lat="43.73995" lon="6.63439">
        <ele>1221.4</ele>
        <time>2024-05-26T08:10:05Z</time>
      </trkpt>
      <trkpt lat="43.73994" lon="6.63439">
        <ele>1221.3</ele>
        <time>2024-05-26T08:10:06Z</time>
      </trkpt>
      <trkpt lat="43.73994" lon="6.63439">
        <ele>1221.2</ele>
        <time>2024-05-26T08:10:07Z</time>
      </trkpt>
      <trkpt lat="43.73994" lon="6.63438">
        <ele>1221</ele>
        <time>2024-05-26T08:10:08Z</time>
      </trkpt>
      <trkpt lat="43.73995" lon="6.63437">
        <ele>1221</ele>
        <time>2024-05-26T08:10:09Z</time>
      </trkpt>
      <trkpt lat="43.73995" lon="6.63437">
        <ele>1220.8</ele>
        <time>2024-05-26T08:10:10Z</time>
      </trkpt>
      <trkpt lat="43.73995" lon="6.63437">
        <ele>1221.5</ele>
        <time>2024-05-26T08:10:11Z</time>
      </trkpt>
      <trkpt lat="43.73995" lon="6.63437">
        <ele>1221.3</ele>
        <time>2024-05-26T08:10:12Z</time>
      </trkpt>
      <trkpt lat="43.73995" lon="6.63436">
        <ele>1221</ele>
        <time>2024-05-26T08:10:13Z</time>
      </trkpt>
      <trkpt lat="43.73995" lon="6.63436">
        <ele>1220.7</ele>
        <time>2024-05-26T08:10:14Z</time>
      </trkpt>
      <trkpt lat="43.73995" lon="6.63435">
        <ele>1220.5</ele>
        <time>2024-05-26T08:10:15Z</time>
      </trkpt>
      <trkpt lat="43.73995" lon="6.63435">
        <ele>1220.2</ele>
        <time>2024-05-26T08:10:16Z</time>
      </trkpt>
      <trkpt lat="43.73995" lon="6.63434">
        <ele>1220</ele>
        <time>2024-05-26T08:10:17Z</time>
      </trkpt>
      <trkpt lat="43.73995" lon="6.63434">
        <ele>1219.8</ele>
        <time>2024-05-26T08:10:18Z</time>
      </trkpt>
      <trkpt lat="43.73996" lon="6.63434">
        <ele>1219.7</ele>
        <time>2024-05-26T08:10:19Z</time>
      </trkpt>
      <trkpt lat="43.73996" lon="6.63434">
        <ele>1219.5</ele>
        <time>2024-05-26T08:10:20Z</time>
      </trkpt>
      <trkpt lat="43.73996" lon="6.63435">
        <ele>1219.2</ele>
        <time>2024-05-26T08:10:21Z</time>
      </trkpt>
      <trkpt lat="43.73997" lon="6.63435">
        <ele>1219</ele>
        <time>2024-05-26T08:10:22Z</time>
      </trkpt>
      <trkpt lat="43.73997" lon="6.63436">
        <ele>1218.8</ele>
        <time>2024-05-26T08:10:23Z</time>
      </trkpt>
      <trkpt lat="43.73997" lon="6.63436">
        <ele>1218.6</ele>
        <time>2024-05-26T08:10:24Z</time>
      </trkpt>
      <trkpt lat="43.73997" lon="6.63436">
        <ele>1218.4</ele>
        <time>2024-05-26T08:10:25Z</time>
      </trkpt>
      <trkpt lat="43.73998" lon="6.63436">
        <ele>1218.1</ele>
        <time>2024-05-26T08:10:26Z</time>
      </trkpt>
      <trkpt lat="43.73998" lon="6.63436">
        <ele>1218</ele>
        <time>2024-05-26T08:10:27Z</time>
      </trkpt>
      <trkpt lat="43.73998" lon="6.63436">
        <ele>1217.9</ele>
        <time>2024-05-26T08:10:28Z</time>
      </trkpt>
      <trkpt lat="43.73998" lon="6.63436">
        <ele>1217.7</ele>
        <time>2024-05-26T08:10:29Z</time>
      </trkpt>
      <trkpt lat="43.73998" lon="6.63437">
        <ele>1217.4</ele>
        <time>2024-05-26T08:10:30Z</time>
      </trkpt>
      <trkpt lat="43.73998" lon="6.63437">
        <ele>1217.3</ele>
        <time>2024-05-26T08:10:31Z</time>
      </trkpt>
      <trkpt lat="43.73998" lon="6.63437">
        <ele>1217.2</ele>
        <time>2024-05-26T08:10:32Z</time>
      </trkpt>
      <trkpt lat="43.73998" lon="6.63437">
        <ele>1217.1</ele>
        <time>2024-05-26T08:10:33Z</time>
      </trkpt>
      <trkpt lat="43.73999" lon="6.63438">
        <ele>1217</ele>
        <time>2024-05-26T08:10:34Z</time>
      </trkpt>
      <trkpt lat="43.74" lon="6.63438">
        <ele>1216.9</ele>
        <time>2024-05-26T08:10:35Z</time>
      </trkpt>
      <trkpt lat="43.74" lon="6.63439">
        <ele>1216.6</ele>
        <time>2024-05-26T08:10:36Z</time>
      </trkpt>
      <trkpt lat="43.74" lon="6.6344">
        <ele>1216.4</ele>
        <time>2024-05-26T08:10:37Z</time>
      </trkpt>
      <trkpt lat="43.74001" lon="6.63439">
        <ele>1216.3</ele>
        <time>2024-05-26T08:10:38Z</time>
      </trkpt>
      <trkpt lat="43.74001" lon="6.63441">
        <ele>1216.2</ele>
        <time>2024-05-26T08:10:39Z</time>
      </trkpt>
      <trkpt lat="43.74001" lon="6.63441">
        <ele>1216.3</ele>
        <time>2024-05-26T08:10:40Z</time>
      </trkpt>
      <trkpt lat="43.74001" lon="6.63441">
        <ele>1216.3</ele>
        <time>2024-05-26T08:10:41Z</time>
      </trkpt>
      <trkpt lat="43.74002" lon="6.63442">
        <ele>1216.5</ele>
        <time>2024-05-26T08:10:42Z</time>
      </trkpt>
      <trkpt lat="43.74002" lon="6.63442">
        <ele>1216.7</ele>
        <time>2024-05-26T08:10:43Z</time>
      </trkpt>
      <trkpt lat="43.74003" lon="6.63442">
        <ele>1216.8</ele>
        <time>2024-05-26T08:10:44Z</time>
      </trkpt>
      <trkpt lat="43.74003" lon="6.63441">
        <ele>1216.9</ele>
        <time>2024-05-26T08:10:45Z</time>
      </trkpt>
      <trkpt lat="43.74004" lon="6.63441">
        <ele>1217.1</ele>
        <time>2024-05-26T08:10:46Z</time>
      </trkpt>
      <trkpt lat="43.74004" lon="6.6344">
        <ele>1217.3</ele>
        <time>2024-05-26T08:10:47Z</time>
      </trkpt>
      <trkpt lat="43.74004" lon="6.6344">
        <ele>1217.4</ele>
        <time>2024-05-26T08:10:48Z</time>
      </trkpt>
      <trkpt lat="43.74004" lon="6.6344">
        <ele>1217.6</ele>
        <time>2024-05-26T08:10:49Z</time>
      </trkpt>
      <trkpt lat="43.74005" lon="6.6344">
        <ele>1217.8</ele>
        <time>2024-05-26T08:10:50Z</time>
      </trkpt>
      <trkpt lat="43.74005" lon="6.63439">
        <ele>1218</ele>
        <time>2024-05-26T08:10:51Z</time>
      </trkpt>
      <trkpt lat="43.74005" lon="6.63439">
        <ele>1218</ele>
        <time>2024-05-26T08:10:52Z</time>
      </trkpt>
      <trkpt lat="43.74005" lon="6.63439">
        <ele>1218.1</ele>
        <time>2024-05-26T08:10:53Z</time>
      </trkpt>
      <trkpt lat="43.74006" lon="6.63439">
        <ele>1218.1</ele>
        <time>2024-05-26T08:10:54Z</time>
      </trkpt>
      <trkpt lat="43.74006" lon="6.63439">
        <ele>1218.2</ele>
        <time>2024-05-26T08:10:55Z</time>
      </trkpt>
      <trkpt lat="43.74006" lon="6.63439">
        <ele>1218.3</ele>
        <time>2024-05-26T08:10:56Z</time>
      </trkpt>
      <trkpt lat="43.74007" lon="6.63439">
        <ele>1217.1</ele>
        <time>2024-05-26T08:10:57Z</time>
      </trkpt>
      <trkpt lat="43.74007" lon="6.63439">
        <ele>1217.4</ele>
        <time>2024-05-26T08:10:58Z</time>
      </trkpt>
      <trkpt lat="43.74007" lon="6.63438">
        <ele>1217.8</ele>
        <time>2024-05-26T08:10:59Z</time>
      </trkpt>
      <trkpt lat="43.74008" lon="6.63437">
        <ele>1218</ele>
        <time>2024-05-26T08:11:00Z</time>
      </trkpt>
      <trkpt lat="43.74008" lon="6.63437">
        <ele>1218.3</ele>
        <time>2024-05-26T08:11:01Z</time>
      </trkpt>
      <trkpt lat="43.74009" lon="6.63436">
        <ele>1218.5</ele>
        <time>2024-05-26T08:11:02Z</time>
      </trkpt>
      <trkpt lat="43.74009" lon="6.63436">
        <ele>1218.6</ele>
        <time>2024-05-26T08:11:03Z</time>
      </trkpt>
      <trkpt lat="43.74009" lon="6.63435">
        <ele>1218.7</ele>
        <time>2024-05-26T08:11:04Z</time>
      </trkpt>
      <trkpt lat="43.74009" lon="6.63436">
        <ele>1218.7</ele>
        <time>2024-05-26T08:11:05Z</time>
      </trkpt>
      <trkpt lat="43.74009" lon="6.63436">
        <ele>1218.9</ele>
        <time>2024-05-26T08:11:06Z</time>
      </trkpt>
      <trkpt lat="43.7401" lon="6.63435">
        <ele>1219</ele>
        <time>2024-05-26T08:11:07Z</time>
      </trkpt>
      <trkpt lat="43.7401" lon="6.63435">
        <ele>1219.4</ele>
        <time>2024-05-26T08:11:08Z</time>
      </trkpt>
      <trkpt lat="43.74009" lon="6.63435">
        <ele>1219.3</ele>
        <time>2024-05-26T08:11:09Z</time>
      </trkpt>
      <trkpt lat="43.74009" lon="6.63435">
        <ele>1219.3</ele>
        <time>2024-05-26T08:11:10Z</time>
      </trkpt>
      <trkpt lat="43.74009" lon="6.63436">
        <ele>1219.4</ele>
        <time>2024-05-26T08:11:11Z</time>
      </trkpt>
      <trkpt lat="43.74009" lon="6.63436">
        <ele>1219.4</ele>
        <time>2024-05-26T08:11:12Z</time>
      </trkpt>
      <trkpt lat="43.74009" lon="6.63435">
        <ele>1219.4</ele>
        <time>2024-05-26T08:11:13Z</time>
      </trkpt>
      <trkpt lat="43.74009" lon="6.63436">
        <ele>1219.4</ele>
        <time>2024-05-26T08:11:14Z</time>
      </trkpt>
      <trkpt lat="43.74008" lon="6.63436">
        <ele>1219.4</ele>
        <time>2024-05-26T08:11:15Z</time>
      </trkpt>
      <trkpt lat="43.74008" lon="6.63437">
        <ele>1219.3</ele>
        <time>2024-05-26T08:11:16Z</time>
      </trkpt>
      <trkpt lat="43.74009" lon="6.63437">
        <ele>1219.3</ele>
        <time>2024-05-26T08:11:17Z</time>
      </trkpt>
      <trkpt lat="43.74009" lon="6.63437">
        <ele>1219.2</ele>
        <time>2024-05-26T08:11:18Z</time>
      </trkpt>
      <trkpt lat="43.74009" lon="6.63436">
        <ele>1219.2</ele>
        <time>2024-05-26T08:11:19Z</time>
      </trkpt>
      <trkpt lat="43.74009" lon="6.63436">
        <ele>1219.1</ele>
        <time>2024-05-26T08:11:20Z</time>
      </trkpt>
      <trkpt lat="43.74009" lon="6.63437">
        <ele>1219.1</ele>
        <time>2024-05-26T08:11:21Z</time>
      </trkpt>
      <trkpt lat="43.74008" lon="6.63437">
        <ele>1219</ele>
        <time>2024-05-26T08:11:22Z</time>
      </trkpt>
      <trkpt lat="43.74008" lon="6.63437">
        <ele>1219</ele>
        <time>2024-05-26T08:11:23Z</time>
      </trkpt>
      <trkpt lat="43.74008" lon="6.63437">
        <ele>1218.9</ele>
        <time>2024-05-26T08:11:24Z</time>
      </trkpt>
      <trkpt lat="43.74008" lon="6.63437">
        <ele>1218.8</ele>
        <time>2024-05-26T08:11:25Z</time>
      </trkpt>
      <trkpt lat="43.74007" lon="6.63437">
        <ele>1218.6</ele>
        <time>2024-05-26T08:11:26Z</time>
      </trkpt>
      <trkpt lat="43.74007" lon="6.63437">
        <ele>1218.3</ele>
        <time>2024-05-26T08:11:27Z</time>
      </trkpt>
      <trkpt lat="43.74007" lon="6.63437">
        <ele>1218.1</ele>
        <time>2024-05-26T08:11:28Z</time>
      </trkpt>
      <trkpt lat="43.74006" lon="6.63437">
        <ele>1217.9</ele>
        <time>2024-05-26T08:11:29Z</time>
      </trkpt>
      <trkpt lat="43.74007" lon="6.63438">
        <ele>1217.8</ele>
        <time>2024-05-26T08:11:30Z</time>
      </trkpt>
      <trkpt lat="43.74006" lon="6.63437">
        <ele>1217.5</ele>
        <time>2024-05-26T08:11:31Z</time>
      </trkpt>
      <trkpt lat="43.74006" lon="6.63437">
        <ele>1217.3</ele>
        <time>2024-05-26T08:11:32Z</time>
      </trkpt>
      <trkpt lat="43.74006" lon="6.63437">
        <ele>1217.3</ele>
        <time>2024-05-26T08:11:33Z</time>
      </trkpt>
      <trkpt lat="43.74006" lon="6.63438">
        <ele>1217.1</ele>
        <time>2024-05-26T08:11:34Z</time>
      </trkpt>
      <trkpt lat="43.74005" lon="6.63438">
        <ele>1217</ele>
        <time>2024-05-26T08:11:35Z</time>
      </trkpt>
      <trkpt lat="43.74005" lon="6.63439">
        <ele>1216.8</ele>
        <time>2024-05-26T08:11:36Z</time>
      </trkpt>
      <trkpt lat="43.74005" lon="6.6344">
        <ele>1216.7</ele>
        <time>2024-05-26T08:11:37Z</time>
      </trkpt>
      <trkpt lat="43.74005" lon="6.6344">
        <ele>1216.4</ele>
        <time>2024-05-26T08:11:38Z</time>
      </trkpt>
      <trkpt lat="43.74005" lon="6.63441">
        <ele>1216.2</ele>
        <time>2024-05-26T08:11:39Z</time>
      </trkpt>
      <trkpt lat="43.74005" lon="6.63441">
        <ele>1216</ele>
        <time>2024-05-26T08:11:40Z</time>
      </trkpt>
      <trkpt lat="43.74005" lon="6.63441">
        <ele>1215.9</ele>
        <time>2024-05-26T08:11:41Z</time>
      </trkpt>
      <trkpt lat="43.74005" lon="6.63441">
        <ele>1215.8</ele>
        <time>2024-05-26T08:11:42Z</time>
      </trkpt>
      <trkpt lat="43.74004" lon="6.63442">
        <ele>1215.6</ele>
        <time>2024-05-26T08:11:43Z</time>
      </trkpt>
      <trkpt lat="43.74004" lon="6.63443">
        <ele>1215.3</ele>
        <time>2024-05-26T08:11:44Z</time>
      </trkpt>
      <trkpt lat="43.74004" lon="6.63443">
        <ele>1215.1</ele>
        <time>2024-05-26T08:11:45Z</time>
      </trkpt>
      <trkpt lat="43.74004" lon="6.63443">
        <ele>1215</ele>
        <time>2024-05-26T08:11:46Z</time>
      </trkpt>
      <trkpt lat="43.74004" lon="6.63444">
        <ele>1214.8</ele>
        <time>2024-05-26T08:11:47Z</time>
      </trkpt>
      <trkpt lat="43.74004" lon="6.63444">
        <ele>1214.8</ele>
        <time>2024-05-26T08:11:48Z</time>
      </trkpt>
      <trkpt lat="43.74004" lon="6.63444">
        <ele>1214.7</ele>
        <time>2024-05-26T08:11:49Z</time>
      </trkpt>
      <trkpt lat="43.74004" lon="6.63444">
        <ele>1214.6</ele>
        <time>2024-05-26T08:11:50Z</time>
      </trkpt>
      <trkpt lat="43.74004" lon="6.63444">
        <ele>1214.5</ele>
        <time>2024-05-26T08:11:51Z</time>
      </trkpt>
      <trkpt lat="43.74004" lon="6.63445">
        <ele>1214.5</ele>
        <time>2024-05-26T08:11:52Z</time>
      </trkpt>
      <trkpt lat="43.74004" lon="6.63446">
        <ele>1214.5</ele>
        <time>2024-05-26T08:11:53Z</time>
      </trkpt>
      <trkpt lat="43.74003" lon="6.63447">
        <ele>1214.6</ele>
        <time>2024-05-26T08:11:54Z</time>
      </trkpt>
      <trkpt lat="43.74003" lon="6.63447">
        <ele>1214.5</ele>
        <time>2024-05-26T08:11:55Z</time>
      </trkpt>
      <trkpt lat="43.74003" lon="6.63448">
        <ele>1214.3</ele>
        <time>2024-05-26T08:11:56Z</time>
      </trkpt>
      <trkpt lat="43.74003" lon="6.63448">
        <ele>1214.3</ele>
        <time>2024-05-26T08:11:57Z</time>
      </trkpt>
      <trkpt lat="43.74003" lon="6.63448">
        <ele>1214.2</ele>
        <time>2024-05-26T08:11:58Z</time>
      </trkpt>
      <trkpt lat="43.74004" lon="6.63449">
        <ele>1214.1</ele>
        <time>2024-05-26T08:11:59Z</time>
      </trkpt>
      <trkpt lat="43.74004" lon="6.63449">
        <ele>1214.2</ele>
        <time>2024-05-26T08:12:00Z</time>
      </trkpt>
      <trkpt lat="43.74004" lon="6.63449">
        <ele>1214.2</ele>
        <time>2024-05-26T08:12:01Z</time>
      </trkpt>
      <trkpt lat="43.74004" lon="6.63449">
        <ele>1214.1</ele>
        <time>2024-05-26T08:12:02Z</time>
      </trkpt>
      <trkpt lat="43.74003" lon="6.6345">
        <ele>1213.9</ele>
        <time>2024-05-26T08:12:03Z</time>
      </trkpt>
      <trkpt lat="43.74003" lon="6.63451">
        <ele>1213.9</ele>
        <time>2024-05-26T08:12:04Z</time>
      </trkpt>
      <trkpt lat="43.74003" lon="6.63452">
        <ele>1213.8</ele>
        <time>2024-05-26T08:12:05Z</time>
      </trkpt>
      <trkpt lat="43.74002" lon="6.63453">
        <ele>1213.6</ele>
        <time>2024-05-26T08:12:06Z</time>
      </trkpt>
      <trkpt lat="43.74002" lon="6.63454">
        <ele>1213.5</ele>
        <time>2024-05-26T08:12:07Z</time>
      </trkpt>
      <trkpt lat="43.74002" lon="6.63455">
        <ele>1213.3</ele>
        <time>2024-05-26T08:12:08Z</time>
      </trkpt>
      <trkpt lat="43.74002" lon="6.63456">
        <ele>1213.1</ele>
        <time>2024-05-26T08:12:09Z</time>
      </trkpt>
      <trkpt lat="43.74001" lon="6.63456">
        <ele>1213</ele>
        <time>2024-05-26T08:12:10Z</time>
      </trkpt>
      <trkpt lat="43.74" lon="6.63457">
        <ele>1212.7</ele>
        <time>2024-05-26T08:12:11Z</time>
      </trkpt>
      <trkpt lat="43.74" lon="6.63457">
        <ele>1212.5</ele>
        <time>2024-05-26T08:12:12Z</time>
      </trkpt>
      <trkpt lat="43.74" lon="6.63457">
        <ele>1212.3</ele>
        <time>2024-05-26T08:12:13Z</time>
      </trkpt>
      <trkpt lat="43.74" lon="6.63457">
        <ele>1212.1</ele>
        <time>2024-05-26T08:12:14Z</time>
      </trkpt>
      <trkpt lat="43.74" lon="6.63458">
        <ele>1212</ele>
        <time>2024-05-26T08:12:15Z</time>
      </trkpt>
      <trkpt lat="43.74" lon="6.63459">
        <ele>1211.9</ele>
        <time>2024-05-26T08:12:16Z</time>
      </trkpt>
      <trkpt lat="43.74" lon="6.6346">
        <ele>1211.8</ele>
        <time>2024-05-26T08:12:17Z</time>
      </trkpt>
      <trkpt lat="43.74" lon="6.63461">
        <ele>1211.7</ele>
        <time>2024-05-26T08:12:18Z</time>
      </trkpt>
      <trkpt lat="43.74" lon="6.63461">
        <ele>1211.7</ele>
        <time>2024-05-26T08:12:19Z</time>
      </trkpt>
      <trkpt lat="43.74" lon="6.63461">
        <ele>1211.6</ele>
        <time>2024-05-26T08:12:20Z</time>
      </trkpt>
      <trkpt lat="43.73999" lon="6.63461">
        <ele>1211.7</ele>
        <time>2024-05-26T08:12:21Z</time>
      </trkpt>
      <trkpt lat="43.73998" lon="6.63462">
        <ele>1211.5</ele>
        <time>2024-05-26T08:12:22Z</time>
      </trkpt>
      <trkpt lat="43.73997" lon="6.63462">
        <ele>1211.4</ele>
        <time>2024-05-26T08:12:23Z</time>
      </trkpt>
      <trkpt lat="43.73997" lon="6.63464">
        <ele>1211.2</ele>
        <time>2024-05-26T08:12:24Z</time>
      </trkpt>
      <trkpt lat="43.73996" lon="6.63465">
        <ele>1211</ele>
        <time>2024-05-26T08:12:25Z</time>
      </trkpt>
      <trkpt lat="43.73995" lon="6.63467">
        <ele>1210.8</ele>
        <time>2024-05-26T08:12:26Z</time>
      </trkpt>
      <trkpt lat="43.73994" lon="6.63468">
        <ele>1210.7</ele>
        <time>2024-05-26T08:12:27Z</time>
      </trkpt>
      <trkpt lat="43.73993" lon="6.63468">
        <ele>1210.5</ele>
        <time>2024-05-26T08:12:28Z</time>
      </trkpt>
      <trkpt lat="43.73992" lon="6.63469">
        <ele>1210.4</ele>
        <time>2024-05-26T08:12:29Z</time>
      </trkpt>
      <trkpt lat="43.73991" lon="6.6347">
        <ele>1210.2</ele>
        <time>2024-05-26T08:12:30Z</time>
      </trkpt>
      <trkpt lat="43.73991" lon="6.63472">
        <ele>1209.8</ele>
        <time>2024-05-26T08:12:31Z</time>
      </trkpt>
      <trkpt lat="43.7399" lon="6.63474">
        <ele>1209.6</ele>
        <time>2024-05-26T08:12:32Z</time>
      </trkpt>
      <trkpt lat="43.7399" lon="6.63475">
        <ele>1209.4</ele>
        <time>2024-05-26T08:12:33Z</time>
      </trkpt>
      <trkpt lat="43.7399" lon="6.63475">
        <ele>1209.3</ele>
        <time>2024-05-26T08:12:34Z</time>
      </trkpt>
      <trkpt lat="43.7399" lon="6.63475">
        <ele>1209.1</ele>
        <time>2024-05-26T08:12:35Z</time>
      </trkpt>
      <trkpt lat="43.73991" lon="6.63475">
        <ele>1209.1</ele>
        <time>2024-05-26T08:12:36Z</time>
      </trkpt>
      <trkpt lat="43.73991" lon="6.63475">
        <ele>1209</ele>
        <time>2024-05-26T08:12:37Z</time>
      </trkpt>
      <trkpt lat="43.73991" lon="6.63475">
        <ele>1209</ele>
        <time>2024-05-26T08:12:38Z</time>
      </trkpt>
      <trkpt lat="43.73991" lon="6.63475">
        <ele>1209</ele>
        <time>2024-05-26T08:12:39Z</time>
      </trkpt>
      <trkpt lat="43.73991" lon="6.63476">
        <ele>1209</ele>
        <time>2024-05-26T08:12:40Z</time>
      </trkpt>
      <trkpt lat="43.73991" lon="6.63475">
        <ele>1209</ele>
        <time>2024-05-26T08:12:41Z</time>
      </trkpt>
      <trkpt lat="43.73991" lon="6.63475">
        <ele>1208.9</ele>
        <time>2024-05-26T08:12:42Z</time>
      </trkpt>
      <trkpt lat="43.73991" lon="6.63475">
        <ele>1208.9</ele>
        <time>2024-05-26T08:12:43Z</time>
      </trkpt>
      <trkpt lat="43.73991" lon="6.63475">
        <ele>1208.8</ele>
        <time>2024-05-26T08:12:44Z</time>
      </trkpt>
      <trkpt lat="43.73991" lon="6.63475">
        <ele>1208.8</ele>
        <time>2024-05-26T08:12:45Z</time>
      </trkpt>
      <trkpt lat="43.73991" lon="6.63475">
        <ele>1208.8</ele>
        <time>2024-05-26T08:12:46Z</time>
      </trkpt>
      <trkpt lat="43.73991" lon="6.63475">
        <ele>1208.8</ele>
        <time>2024-05-26T08:12:47Z</time>
      </trkpt>
      <trkpt lat="43.73991" lon="6.63474">
        <ele>1208.8</ele>
        <time>2024-05-26T08:12:48Z</time>
      </trkpt>
      <trkpt lat="43.73991" lon="6.63474">
        <ele>1208.8</ele>
        <time>2024-05-26T08:12:49Z</time>
      </trkpt>
      <trkpt lat="43.73991" lon="6.63475">
        <ele>1208.8</ele>
        <time>2024-05-26T08:12:50Z</time>
      </trkpt>
      <trkpt lat="43.73991" lon="6.63475">
        <ele>1208.8</ele>
        <time>2024-05-26T08:12:51Z</time>
      </trkpt>
      <trkpt lat="43.7399" lon="6.63475">
        <ele>1208.8</ele>
        <time>2024-05-26T08:12:52Z</time>
      </trkpt>
      <trkpt lat="43.73991" lon="6.63475">
        <ele>1208.8</ele>
        <time>2024-05-26T08:12:53Z</time>
      </trkpt>
      <trkpt lat="43.73991" lon="6.63475">
        <ele>1208.9</ele>
        <time>2024-05-26T08:12:54Z</time>
      </trkpt>
      <trkpt lat="43.73991" lon="6.63475">
        <ele>1208.9</ele>
        <time>2024-05-26T08:12:55Z</time>
      </trkpt>
      <trkpt lat="43.73991" lon="6.63475">
        <ele>1208.9</ele>
        <time>2024-05-26T08:12:56Z</time>
      </trkpt>
      <trkpt lat="43.7399" lon="6.63475">
        <ele>1208.9</ele>
        <time>2024-05-26T08:12:57Z</time>
      </trkpt>
      <trkpt lat="43.73991" lon="6.63475">
        <ele>1208.8</ele>
        <time>2024-05-26T08:12:58Z</time>
      </trkpt>
      <trkpt lat="43.73991" lon="6.63475">
        <ele>1208.8</ele>
        <time>2024-05-26T08:12:59Z</time>
      </trkpt>
      <trkpt lat="43.73991" lon="6.63475">
        <ele>1208.8</ele>
        <time>2024-05-26T08:13:00Z</time>
      </trkpt>
      <trkpt lat="43.73991" lon="6.63475">
        <ele>1208.7</ele>
        <time>2024-05-26T08:13:01Z</time>
      </trkpt>
      <trkpt lat="43.73991" lon="6.63475">
        <ele>1208.6</ele>
        <time>2024-05-26T08:13:02Z</time>
      </trkpt>
      <trkpt lat="43.7399" lon="6.63475">
        <ele>1208.5</ele>
        <time>2024-05-26T08:13:03Z</time>
      </trkpt>
      <trkpt lat="43.7399" lon="6.63475">
        <ele>1208.5</ele>
        <time>2024-05-26T08:13:04Z</time>
      </trkpt>
      <trkpt lat="43.7399" lon="6.63476">
        <ele>1208.5</ele>
        <time>2024-05-26T08:13:05Z</time>
      </trkpt>
      <trkpt lat="43.7399" lon="6.63476">
        <ele>1208.5</ele>
        <time>2024-05-26T08:13:06Z</time>
      </trkpt>
      <trkpt lat="43.73989" lon="6.63476">
        <ele>1208.4</ele>
        <time>2024-05-26T08:13:07Z</time>
      </trkpt>
      <trkpt lat="43.73988" lon="6.63476">
        <ele>1208.4</ele>
        <time>2024-05-26T08:13:08Z</time>
      </trkpt>
      <trkpt lat="43.73988" lon="6.63475">
        <ele>1208.4</ele>
        <time>2024-05-26T08:13:09Z</time>
      </trkpt>
      <trkpt lat="43.73987" lon="6.63475">
        <ele>1208.4</ele>
        <time>2024-05-26T08:13:10Z</time>
      </trkpt>
      <trkpt lat="43.73987" lon="6.63475">
        <ele>1208.4</ele>
        <time>2024-05-26T08:13:11Z</time>
      </trkpt>
      <trkpt lat="43.73986" lon="6.63475">
        <ele>1208.5</ele>
        <time>2024-05-26T08:13:12Z</time>
      </trkpt>
      <trkpt lat="43.73985" lon="6.63475">
        <ele>1208.5</ele>
        <time>2024-05-26T08:13:13Z</time>
      </trkpt>
      <trkpt lat="43.73984" lon="6.63476">
        <ele>1208.4</ele>
        <time>2024-05-26T08:13:14Z</time>
      </trkpt>
      <trkpt lat="43.73984" lon="6.63476">
        <ele>1208.4</ele>
        <time>2024-05-26T08:13:15Z</time>
      </trkpt>
      <trkpt lat="43.73983" lon="6.63476">
        <ele>1208.4</ele>
        <time>2024-05-26T08:13:16Z</time>
      </trkpt>
      <trkpt lat="43.73982" lon="6.63476">
        <ele>1208.3</ele>
        <time>2024-05-26T08:13:17Z</time>
      </trkpt>
      <trkpt lat="43.73981" lon="6.63475">
        <ele>1208.1</ele>
        <time>2024-05-26T08:13:18Z</time>
      </trkpt>
      <trkpt lat="43.73981" lon="6.63475">
        <ele>1207.9</ele>
        <time>2024-05-26T08:13:19Z</time>
      </trkpt>
      <trkpt lat="43.73981" lon="6.63475">
        <ele>1207.8</ele>
        <time>2024-05-26T08:13:20Z</time>
      </trkpt>
      <trkpt lat="43.7398" lon="6.63475">
        <ele>1207.7</ele>
        <time>2024-05-26T08:13:21Z</time>
      </trkpt>
      <trkpt lat="43.73979" lon="6.63475">
        <ele>1207.6</ele>
        <time>2024-05-26T08:13:22Z</time>
      </trkpt>
      <trkpt lat="43.73979" lon="6.63474">
        <ele>1207.5</ele>
        <time>2024-05-26T08:13:23Z</time>
      </trkpt>
      <trkpt lat="43.73978" lon="6.63475">
        <ele>1207.4</ele>
        <time>2024-05-26T08:13:24Z</time>
      </trkpt>
      <trkpt lat="43.73978" lon="6.63475">
        <ele>1207.3</ele>
        <time>2024-05-26T08:13:25Z</time>
      </trkpt>
      <trkpt lat="43.73977" lon="6.63476">
        <ele>1207.2</ele>
        <time>2024-05-26T08:13:26Z</time>
      </trkpt>
      <trkpt lat="43.73977" lon="6.63476">
        <ele>1207</ele>
        <time>2024-05-26T08:13:27Z</time>
      </trkpt>
      <trkpt lat="43.73977" lon="6.63476">
        <ele>1206.9</ele>
        <time>2024-05-26T08:13:28Z</time>
      </trkpt>
      <trkpt lat="43.73977" lon="6.63475">
        <ele>1206.8</ele>
        <time>2024-05-26T08:13:29Z</time>
      </trkpt>
      <trkpt lat="43.73976" lon="6.63475">
        <ele>1206.7</ele>
        <time>2024-05-26T08:13:30Z</time>
      </trkpt>
      <trkpt lat="43.73976" lon="6.63475">
        <ele>1206.6</ele>
        <time>2024-05-26T08:13:31Z</time>
      </trkpt>
      <trkpt lat="43.73976" lon="6.63475">
        <ele>1206.5</ele>
        <time>2024-05-26T08:13:32Z</time>
      </trkpt>
      <trkpt lat="43.73976" lon="6.63475">
        <ele>1206.4</ele>
        <time>2024-05-26T08:13:33Z</time>
      </trkpt>
      <trkpt lat="43.73976" lon="6.63476">
        <ele>1206.4</ele>
        <time>2024-05-26T08:13:34Z</time>
      </trkpt>
      <trkpt lat="43.73976" lon="6.63476">
        <ele>1206.3</ele>
        <time>2024-05-26T08:13:35Z</time>
      </trkpt>
      <trkpt lat="43.73976" lon="6.63476">
        <ele>1206.3</ele>
        <time>2024-05-26T08:13:36Z</time>
      </trkpt>
      <trkpt lat="43.73976" lon="6.63476">
        <ele>1206.2</ele>
        <time>2024-05-26T08:13:37Z</time>
      </trkpt>
      <trkpt lat="43.73976" lon="6.63476">
        <ele>1206.1</ele>
        <time>2024-05-26T08:13:38Z</time>
      </trkpt>
      <trkpt lat="43.73976" lon="6.63476">
        <ele>1206.1</ele>
        <time>2024-05-26T08:13:39Z</time>
      </trkpt>
      <trkpt lat="43.73976" lon="6.63476">
        <ele>1206</ele>
        <time>2024-05-26T08:13:40Z</time>
      </trkpt>
      <trkpt lat="43.73976" lon="6.63476">
        <ele>1206</ele>
        <time>2024-05-26T08:13:41Z</time>
      </trkpt>
      <trkpt lat="43.73976" lon="6.63475">
        <ele>1206</ele>
        <time>2024-05-26T08:13:42Z</time>
      </trkpt>
      <trkpt lat="43.73976" lon="6.63475">
        <ele>1206</ele>
        <time>2024-05-26T08:13:43Z</time>
      </trkpt>
      <trkpt lat="43.73976" lon="6.63475">
        <ele>1206.1</ele>
        <time>2024-05-26T08:13:44Z</time>
      </trkpt>
      <trkpt lat="43.73976" lon="6.63475">
        <ele>1206.2</ele>
        <time>2024-05-26T08:13:45Z</time>
      </trkpt>
      <trkpt lat="43.73976" lon="6.63475">
        <ele>1206.2</ele>
        <time>2024-05-26T08:13:46Z</time>
      </trkpt>
      <trkpt lat="43.73976" lon="6.63475">
        <ele>1206.1</ele>
        <time>2024-05-26T08:13:47Z</time>
      </trkpt>
      <trkpt lat="43.73976" lon="6.63475">
        <ele>1206.1</ele>
        <time>2024-05-26T08:13:48Z</time>
      </trkpt>
      <trkpt lat="43.73976" lon="6.63475">
        <ele>1206.1</ele>
        <time>2024-05-26T08:13:49Z</time>
      </trkpt>
      <trkpt lat="43.73976" lon="6.63474">
        <ele>1206.2</ele>
        <time>2024-05-26T08:13:50Z</time>
      </trkpt>
      <trkpt lat="43.73976" lon="6.63474">
        <ele>1206.2</ele>
        <time>2024-05-26T08:13:51Z</time>
      </trkpt>
      <trkpt lat="43.73977" lon="6.63474">
        <ele>1206.2</ele>
        <time>2024-05-26T08:13:52Z</time>
      </trkpt>
      <trkpt lat="43.73976" lon="6.63475">
        <ele>1206.2</ele>
        <time>2024-05-26T08:13:53Z</time>
      </trkpt>
      <trkpt lat="43.73976" lon="6.63475">
        <ele>1206.2</ele>
        <time>2024-05-26T08:13:54Z</time>
      </trkpt>
      <trkpt lat="43.73976" lon="6.63475">
        <ele>1206.2</ele>
        <time>2024-05-26T08:13:55Z</time>
      </trkpt>
      <trkpt lat="43.73977" lon="6.63475">
        <ele>1206.2</ele>
        <time>2024-05-26T08:13:56Z</time>
      </trkpt>
      <trkpt lat="43.73977" lon="6.63475">
        <ele>1206.1</ele>
        <time>2024-05-26T08:13:57Z</time>
      </trkpt>
      <trkpt lat="43.73977" lon="6.63475">
        <ele>1206.1</ele>
        <time>2024-05-26T08:13:58Z</time>
      </trkpt>
      <trkpt lat="43.73977" lon="6.63476">
        <ele>1206.1</ele>
        <time>2024-05-26T08:13:59Z</time>
      </trkpt>
      <trkpt lat="43.73977" lon="6.63476">
        <ele>1206.1</ele>
        <time>2024-05-26T08:14:00Z</time>
      </trkpt>
      <trkpt lat="43.73977" lon="6.63476">
        <ele>1206.1</ele>
        <time>2024-05-26T08:14:01Z</time>
      </trkpt>
      <trkpt lat="43.73977" lon="6.63476">
        <ele>1206</ele>
        <time>2024-05-26T08:14:02Z</time>
      </trkpt>
      <trkpt lat="43.73977" lon="6.63476">
        <ele>1206.1</ele>
        <time>2024-05-26T08:14:03Z</time>
      </trkpt>
      <trkpt lat="43.73977" lon="6.63476">
        <ele>1206.1</ele>
        <time>2024-05-26T08:14:04Z</time>
      </trkpt>
      <trkpt lat="43.73976" lon="6.63476">
        <ele>1206.1</ele>
        <time>2024-05-26T08:14:05Z</time>
      </trkpt>
      <trkpt lat="43.73976" lon="6.63477">
        <ele>1206.1</ele>
        <time>2024-05-26T08:14:06Z</time>
      </trkpt>
      <trkpt lat="43.73975" lon="6.63477">
        <ele>1206</ele>
        <time>2024-05-26T08:14:07Z</time>
      </trkpt>
      <trkpt lat="43.73975" lon="6.63477">
        <ele>1206</ele>
        <time>2024-05-26T08:14:08Z</time>
      </trkpt>
      <trkpt lat="43.73974" lon="6.63476">
        <ele>1205.9</ele>
        <time>2024-05-26T08:14:09Z</time>
      </trkpt>
      <trkpt lat="43.73973" lon="6.63477">
        <ele>1205.9</ele>
        <time>2024-05-26T08:14:10Z</time>
      </trkpt>
      <trkpt lat="43.73972" lon="6.63477">
        <ele>1205.9</ele>
        <time>2024-05-26T08:14:11Z</time>
      </trkpt>
      <trkpt lat="43.73972" lon="6.63478">
        <ele>1205.9</ele>
        <time>2024-05-26T08:14:12Z</time>
      </trkpt>
      <trkpt lat="43.73971" lon="6.63478">
        <ele>1205.9</ele>
        <time>2024-05-26T08:14:13Z</time>
      </trkpt>
      <trkpt lat="43.73971" lon="6.63478">
        <ele>1205.9</ele>
        <time>2024-05-26T08:14:14Z</time>
      </trkpt>
      <trkpt lat="43.73971" lon="6.63478">
        <ele>1205.8</ele>
        <time>2024-05-26T08:14:15Z</time>
      </trkpt>
      <trkpt lat="43.73971" lon="6.63478">
        <ele>1205.8</ele>
        <time>2024-05-26T08:14:16Z</time>
      </trkpt>
      <trkpt lat="43.73971" lon="6.63479">
        <ele>1205.7</ele>
        <time>2024-05-26T08:14:17Z</time>
      </trkpt>
      <trkpt lat="43.73971" lon="6.63478">
        <ele>1205.7</ele>
        <time>2024-05-26T08:14:18Z</time>
      </trkpt>
      <trkpt lat="43.73971" lon="6.63478">
        <ele>1205.6</ele>
        <time>2024-05-26T08:14:19Z</time>
      </trkpt>
      <trkpt lat="43.7397" lon="6.63478">
        <ele>1205.6</ele>
        <time>2024-05-26T08:14:20Z</time>
      </trkpt>
      <trkpt lat="43.73969" lon="6.63479">
        <ele>1205.6</ele>
        <time>2024-05-26T08:14:21Z</time>
      </trkpt>
      <trkpt lat="43.73969" lon="6.63479">
        <ele>1205.6</ele>
        <time>2024-05-26T08:14:22Z</time>
      </trkpt>
      <trkpt lat="43.73968" lon="6.63478">
        <ele>1205.6</ele>
        <time>2024-05-26T08:14:23Z</time>
      </trkpt>
      <trkpt lat="43.73967" lon="6.63479">
        <ele>1205.5</ele>
        <time>2024-05-26T08:14:24Z</time>
      </trkpt>
      <trkpt lat="43.73967" lon="6.63479">
        <ele>1205.5</ele>
        <time>2024-05-26T08:14:25Z</time>
      </trkpt>
      <trkpt lat="43.73966" lon="6.63479">
        <ele>1205.5</ele>
        <time>2024-05-26T08:14:26Z</time>
      </trkpt>
      <trkpt lat="43.73966" lon="6.63479">
        <ele>1205.4</ele>
        <time>2024-05-26T08:14:27Z</time>
      </trkpt>
      <trkpt lat="43.73965" lon="6.63478">
        <ele>1205.3</ele>
        <time>2024-05-26T08:14:28Z</time>
      </trkpt>
      <trkpt lat="43.73965" lon="6.63478">
        <ele>1205.2</ele>
        <time>2024-05-26T08:14:29Z</time>
      </trkpt>
      <trkpt lat="43.73964" lon="6.63477">
        <ele>1205.1</ele>
        <time>2024-05-26T08:14:30Z</time>
      </trkpt>
      <trkpt lat="43.73964" lon="6.63477">
        <ele>1204.8</ele>
        <time>2024-05-26T08:14:31Z</time>
      </trkpt>
      <trkpt lat="43.73963" lon="6.63477">
        <ele>1204.6</ele>
        <time>2024-05-26T08:14:32Z</time>
      </trkpt>
      <trkpt lat="43.73962" lon="6.63477">
        <ele>1204.5</ele>
        <time>2024-05-26T08:14:33Z</time>
      </trkpt>
      <trkpt lat="43.73962" lon="6.63477">
        <ele>1204.5</ele>
        <time>2024-05-26T08:14:34Z</time>
      </trkpt>
      <trkpt lat="43.73961" lon="6.63477">
        <ele>1204.4</ele>
        <time>2024-05-26T08:14:35Z</time>
      </trkpt>
      <trkpt lat="43.7396" lon="6.63477">
        <ele>1204.3</ele>
        <time>2024-05-26T08:14:36Z</time>
      </trkpt>
      <trkpt lat="43.73959" lon="6.63477">
        <ele>1204.2</ele>
        <time>2024-05-26T08:14:37Z</time>
      </trkpt>
      <trkpt lat="43.73959" lon="6.63477">
        <ele>1204</ele>
        <time>2024-05-26T08:14:38Z</time>
      </trkpt>
      <trkpt lat="43.73958" lon="6.63477">
        <ele>1203.9</ele>
        <time>2024-05-26T08:14:39Z</time>
      </trkpt>
      <trkpt lat="43.73958" lon="6.63477">
        <ele>1203.9</ele>
        <time>2024-05-26T08:14:40Z</time>
      </trkpt>
      <trkpt lat="43.73957" lon="6.63476">
        <ele>1203.8</ele>
        <time>2024-05-26T08:14:41Z</time>
      </trkpt>
      <trkpt lat="43.73956" lon="6.63476">
        <ele>1203.6</ele>
        <time>2024-05-26T08:14:42Z</time>
      </trkpt>
      <trkpt lat="43.73955" lon="6.63476">
        <ele>1203.5</ele>
        <time>2024-05-26T08:14:43Z</time>
      </trkpt>
      <trkpt lat="43.73955" lon="6.63477">
        <ele>1203.5</ele>
        <time>2024-05-26T08:14:44Z</time>
      </trkpt>
      <trkpt lat="43.73954" lon="6.63477">
        <ele>1203.4</ele>
        <time>2024-05-26T08:14:45Z</time>
      </trkpt>
      <trkpt lat="43.73954" lon="6.63477">
        <ele>1203.3</ele>
        <time>2024-05-26T08:14:46Z</time>
      </trkpt>
      <trkpt lat="43.73953" lon="6.63476">
        <ele>1203.2</ele>
        <time>2024-05-26T08:14:47Z</time>
      </trkpt>
      <trkpt lat="43.73953" lon="6.63476">
        <ele>1203</ele>
        <time>2024-05-26T08:14:48Z</time>
      </trkpt>
      <trkpt lat="43.73952" lon="6.63475">
        <ele>1202.9</ele>
        <time>2024-05-26T08:14:49Z</time>
      </trkpt>
      <trkpt lat="43.73951" lon="6.63475">
        <ele>1202.8</ele>
        <time>2024-05-26T08:14:50Z</time>
      </trkpt>
      <trkpt lat="43.73951" lon="6.63475">
        <ele>1202.6</ele>
        <time>2024-05-26T08:14:51Z</time>
      </trkpt>
      <trkpt lat="43.7395" lon="6.63475">
        <ele>1202.3</ele>
        <time>2024-05-26T08:14:52Z</time>
      </trkpt>
      <trkpt lat="43.7395" lon="6.63475">
        <ele>1202.2</ele>
        <time>2024-05-26T08:14:53Z</time>
      </trkpt>
      <trkpt lat="43.73949" lon="6.63474">
        <ele>1201.9</ele>
        <time>2024-05-26T08:14:54Z</time>
      </trkpt>
      <trkpt lat="43.73948" lon="6.63474">
        <ele>1201.7</ele>
        <time>2024-05-26T08:14:55Z</time>
      </trkpt>
      <trkpt lat="43.73948" lon="6.63475">
        <ele>1201.5</ele>
        <time>2024-05-26T08:14:56Z</time>
      </trkpt>
      <trkpt lat="43.73947" lon="6.63474">
        <ele>1201.4</ele>
        <time>2024-05-26T08:14:57Z</time>
      </trkpt>
      <trkpt lat="43.73947" lon="6.63474">
        <ele>1201.2</ele>
        <time>2024-05-26T08:14:58Z</time>
      </trkpt>
      <trkpt lat="43.73947" lon="6.63474">
        <ele>1201</ele>
        <time>2024-05-26T08:14:59Z</time>
      </trkpt>
      <trkpt lat="43.73946" lon="6.63473">
        <ele>1200.8</ele>
        <time>2024-05-26T08:15:00Z</time>
      </trkpt>
      <trkpt lat="43.73946" lon="6.63472">
        <ele>1200.7</ele>
        <time>2024-05-26T08:15:01Z</time>
      </trkpt>
      <trkpt lat="43.73946" lon="6.63473">
        <ele>1200.5</ele>
        <time>2024-05-26T08:15:02Z</time>
      </trkpt>
      <trkpt lat="43.73946" lon="6.63472">
        <ele>1200.2</ele>
        <time>2024-05-26T08:15:03Z</time>
      </trkpt>
      <trkpt lat="43.73946" lon="6.63472">
        <ele>1200</ele>
        <time>2024-05-26T08:15:04Z</time>
      </trkpt>
      <trkpt lat="43.73945" lon="6.63472">
        <ele>1199.8</ele>
        <time>2024-05-26T08:15:05Z</time>
      </trkpt>
      <trkpt lat="43.73945" lon="6.63471">
        <ele>1199.7</ele>
        <time>2024-05-26T08:15:06Z</time>
      </trkpt>
      <trkpt lat="43.73944" lon="6.63471">
        <ele>1199.5</ele>
        <time>2024-05-26T08:15:07Z</time>
      </trkpt>
      <trkpt lat="43.73943" lon="6.6347">
        <ele>1199.4</ele>
        <time>2024-05-26T08:15:08Z</time>
      </trkpt>
      <trkpt lat="43.73943" lon="6.6347">
        <ele>1199.1</ele>
        <time>2024-05-26T08:15:09Z</time>
      </trkpt>
      <trkpt lat="43.73942" lon="6.6347">
        <ele>1198.7</ele>
        <time>2024-05-26T08:15:10Z</time>
      </trkpt>
      <trkpt lat="43.73941" lon="6.6347">
        <ele>1198.5</ele>
        <time>2024-05-26T08:15:11Z</time>
      </trkpt>
      <trkpt lat="43.7394" lon="6.6347">
        <ele>1198.2</ele>
        <time>2024-05-26T08:15:12Z</time>
      </trkpt>
      <trkpt lat="43.7394" lon="6.6347">
        <ele>1198</ele>
        <time>2024-05-26T08:15:13Z</time>
      </trkpt>
      <trkpt lat="43.73939" lon="6.6347">
        <ele>1197.8</ele>
        <time>2024-05-26T08:15:14Z</time>
      </trkpt>
      <trkpt lat="43.73939" lon="6.63469">
        <ele>1197.7</ele>
        <time>2024-05-26T08:15:15Z</time>
      </trkpt>
      <trkpt lat="43.73938" lon="6.63468">
        <ele>1197.5</ele>
        <time>2024-05-26T08:15:16Z</time>
      </trkpt>
      <trkpt lat="43.73938" lon="6.63468">
        <ele>1197.4</ele>
        <time>2024-05-26T08:15:17Z</time>
      </trkpt>
      <trkpt lat="43.73937" lon="6.63467">
        <ele>1197.2</ele>
        <time>2024-05-26T08:15:18Z</time>
      </trkpt>
      <trkpt lat="43.73936" lon="6.63467">
        <ele>1197.1</ele>
        <time>2024-05-26T08:15:19Z</time>
      </trkpt>
      <trkpt lat="43.73935" lon="6.63467">
        <ele>1197</ele>
        <time>2024-05-26T08:15:20Z</time>
      </trkpt>
      <trkpt lat="43.73935" lon="6.63466">
        <ele>1196.8</ele>
        <time>2024-05-26T08:15:21Z</time>
      </trkpt>
      <trkpt lat="43.73934" lon="6.63466">
        <ele>1196.6</ele>
        <time>2024-05-26T08:15:22Z</time>
      </trkpt>
      <trkpt lat="43.73934" lon="6.63466">
        <ele>1196.5</ele>
        <time>2024-05-26T08:15:23Z</time>
      </trkpt>
      <trkpt lat="43.73934" lon="6.63465">
        <ele>1196.4</ele>
        <time>2024-05-26T08:15:24Z</time>
      </trkpt>
      <trkpt lat="43.73933" lon="6.63465">
        <ele>1196.3</ele>
        <time>2024-05-26T08:15:25Z</time>
      </trkpt>
      <trkpt lat="43.73933" lon="6.63465">
        <ele>1196.1</ele>
        <time>2024-05-26T08:15:26Z</time>
      </trkpt>
      <trkpt lat="43.73932" lon="6.63464">
        <ele>1196</ele>
        <time>2024-05-26T08:15:27Z</time>
      </trkpt>
      <trkpt lat="43.73932" lon="6.63464">
        <ele>1195.9</ele>
        <time>2024-05-26T08:15:28Z</time>
      </trkpt>
      <trkpt lat="43.73932" lon="6.63464">
        <ele>1195.7</ele>
        <time>2024-05-26T08:15:29Z</time>
      </trkpt>
      <trkpt lat="43.73932" lon="6.63463">
        <ele>1195.5</ele>
        <time>2024-05-26T08:15:30Z</time>
      </trkpt>
      <trkpt lat="43.73931" lon="6.63463">
        <ele>1195.4</ele>
        <time>2024-05-26T08:15:31Z</time>
      </trkpt>
      <trkpt lat="43.73931" lon="6.63462">
        <ele>1195.3</ele>
        <time>2024-05-26T08:15:32Z</time>
      </trkpt>
      <trkpt lat="43.7393" lon="6.63461">
        <ele>1195.3</ele>
        <time>2024-05-26T08:15:33Z</time>
      </trkpt>
      <trkpt lat="43.7393" lon="6.6346">
        <ele>1195.2</ele>
        <time>2024-05-26T08:15:34Z</time>
      </trkpt>
      <trkpt lat="43.7393" lon="6.6346">
        <ele>1195.1</ele>
        <time>2024-05-26T08:15:35Z</time>
      </trkpt>
      <trkpt lat="43.73929" lon="6.63459">
        <ele>1194.9</ele>
        <time>2024-05-26T08:15:36Z</time>
      </trkpt>
      <trkpt lat="43.73927" lon="6.63459">
        <ele>1194.7</ele>
        <time>2024-05-26T08:15:37Z</time>
      </trkpt>
      <trkpt lat="43.73926" lon="6.63459">
        <ele>1194.6</ele>
        <time>2024-05-26T08:15:38Z</time>
      </trkpt>
      <trkpt lat="43.73926" lon="6.63459">
        <ele>1194.6</ele>
        <time>2024-05-26T08:15:39Z</time>
      </trkpt>
      <trkpt lat="43.73925" lon="6.63459">
        <ele>1194.6</ele>
        <time>2024-05-26T08:15:40Z</time>
      </trkpt>
      <trkpt lat="43.73925" lon="6.63459">
        <ele>1194.5</ele>
        <time>2024-05-26T08:15:41Z</time>
      </trkpt>
      <trkpt lat="43.73924" lon="6.63459">
        <ele>1194.6</ele>
        <time>2024-05-26T08:15:42Z</time>
      </trkpt>
      <trkpt lat="43.73923" lon="6.63459">
        <ele>1194.8</ele>
        <time>2024-05-26T08:15:43Z</time>
      </trkpt>
      <trkpt lat="43.73923" lon="6.6346">
        <ele>1195</ele>
        <time>2024-05-26T08:15:44Z</time>
      </trkpt>
      <trkpt lat="43.73922" lon="6.6346">
        <ele>1195.2</ele>
        <time>2024-05-26T08:15:45Z</time>
      </trkpt>
      <trkpt lat="43.73922" lon="6.63461">
        <ele>1195.3</ele>
        <time>2024-05-26T08:15:46Z</time>
      </trkpt>
      <trkpt lat="43.73921" lon="6.6346">
        <ele>1195.5</ele>
        <time>2024-05-26T08:15:47Z</time>
      </trkpt>
      <trkpt lat="43.73921" lon="6.63461">
        <ele>1195.6</ele>
        <time>2024-05-26T08:15:48Z</time>
      </trkpt>
      <trkpt lat="43.7392" lon="6.6346">
        <ele>1195.8</ele>
        <time>2024-05-26T08:15:49Z</time>
      </trkpt>
      <trkpt lat="43.73919" lon="6.6346">
        <ele>1196.1</ele>
        <time>2024-05-26T08:15:50Z</time>
      </trkpt>
      <trkpt lat="43.73919" lon="6.6346">
        <ele>1196.3</ele>
        <time>2024-05-26T08:15:51Z</time>
      </trkpt>
      <trkpt lat="43.73918" lon="6.6346">
        <ele>1196.6</ele>
        <time>2024-05-26T08:15:52Z</time>
      </trkpt>
      <trkpt lat="43.73916" lon="6.6346">
        <ele>1196.8</ele>
        <time>2024-05-26T08:15:53Z</time>
      </trkpt>
      <trkpt lat="43.73915" lon="6.6346">
        <ele>1196.8</ele>
        <time>2024-05-26T08:15:54Z</time>
      </trkpt>
      <trkpt lat="43.73915" lon="6.6346">
        <ele>1196.9</ele>
        <time>2024-05-26T08:15:55Z</time>
      </trkpt>
      <trkpt lat="43.73914" lon="6.6346">
        <ele>1197</ele>
        <time>2024-05-26T08:15:56Z</time>
      </trkpt>
      <trkpt lat="43.73913" lon="6.63461">
        <ele>1197.1</ele>
        <time>2024-05-26T08:15:57Z</time>
      </trkpt>
      <trkpt lat="43.73913" lon="6.6346">
        <ele>1197.2</ele>
        <time>2024-05-26T08:15:58Z</time>
      </trkpt>
      <trkpt lat="43.73912" lon="6.6346">
        <ele>1197.2</ele>
        <time>2024-05-26T08:15:59Z</time>
      </trkpt>
      <trkpt lat="43.73911" lon="6.63461">
        <ele>1197.3</ele>
        <time>2024-05-26T08:16:00Z</time>
      </trkpt>
      <trkpt lat="43.73911" lon="6.63462">
        <ele>1197.4</ele>
        <time>2024-05-26T08:16:01Z</time>
      </trkpt>
      <trkpt lat="43.7391" lon="6.63461">
        <ele>1197.6</ele>
        <time>2024-05-26T08:16:02Z</time>
      </trkpt>
      <trkpt lat="43.73909" lon="6.63461">
        <ele>1197.8</ele>
        <time>2024-05-26T08:16:03Z</time>
      </trkpt>
      <trkpt lat="43.73909" lon="6.63462">
        <ele>1197.9</ele>
        <time>2024-05-26T08:16:04Z</time>
      </trkpt>
      <trkpt lat="43.73908" lon="6.63463">
        <ele>1198</ele>
        <time>2024-05-26T08:16:05Z</time>
      </trkpt>
      <trkpt lat="43.73907" lon="6.63463">
        <ele>1198.2</ele>
        <time>2024-05-26T08:16:06Z</time>
      </trkpt>
      <trkpt lat="43.73906" lon="6.63464">
        <ele>1198.3</ele>
        <time>2024-05-26T08:16:07Z</time>
      </trkpt>
      <trkpt lat="43.73906" lon="6.63464">
        <ele>1198.4</ele>
        <time>2024-05-26T08:16:08Z</time>
      </trkpt>
      <trkpt lat="43.73904" lon="6.63464">
        <ele>1198.6</ele>
        <time>2024-05-26T08:16:09Z</time>
      </trkpt>
      <trkpt lat="43.73903" lon="6.63464">
        <ele>1198.8</ele>
        <time>2024-05-26T08:16:10Z</time>
      </trkpt>
      <trkpt lat="43.73903" lon="6.63463">
        <ele>1198.9</ele>
        <time>2024-05-26T08:16:11Z</time>
      </trkpt>
      <trkpt lat="43.73902" lon="6.63464">
        <ele>1199</ele>
        <time>2024-05-26T08:16:12Z</time>
      </trkpt>
      <trkpt lat="43.73901" lon="6.63464">
        <ele>1199.1</ele>
        <time>2024-05-26T08:16:13Z</time>
      </trkpt>
      <trkpt lat="43.73899" lon="6.63464">
        <ele>1199.1</ele>
        <time>2024-05-26T08:16:14Z</time>
      </trkpt>
      <trkpt lat="43.73898" lon="6.63464">
        <ele>1199.2</ele>
        <time>2024-05-26T08:16:15Z</time>
      </trkpt>
      <trkpt lat="43.73898" lon="6.63464">
        <ele>1199.2</ele>
        <time>2024-05-26T08:16:16Z</time>
      </trkpt>
      <trkpt lat="43.73897" lon="6.63465">
        <ele>1199.3</ele>
        <time>2024-05-26T08:16:17Z</time>
      </trkpt>
      <trkpt lat="43.73896" lon="6.63466">
        <ele>1199.5</ele>
        <time>2024-05-26T08:16:18Z</time>
      </trkpt>
      <trkpt lat="43.73895" lon="6.63466">
        <ele>1199.6</ele>
        <time>2024-05-26T08:16:19Z</time>
      </trkpt>
      <trkpt lat="43.73895" lon="6.63467">
        <ele>1199.7</ele>
        <time>2024-05-26T08:16:20Z</time>
      </trkpt>
      <trkpt lat="43.73894" lon="6.63468">
        <ele>1199.7</ele>
        <time>2024-05-26T08:16:21Z</time>
      </trkpt>
      <trkpt lat="43.73893" lon="6.63468">
        <ele>1199.9</ele>
        <time>2024-05-26T08:16:22Z</time>
      </trkpt>
      <trkpt lat="43.73892" lon="6.63468">
        <ele>1199.9</ele>
        <time>2024-05-26T08:16:23Z</time>
      </trkpt>
      <trkpt lat="43.73891" lon="6.63469">
        <ele>1200</ele>
        <time>2024-05-26T08:16:24Z</time>
      </trkpt>
      <trkpt lat="43.7389" lon="6.63468">
        <ele>1200.1</ele>
        <time>2024-05-26T08:16:25Z</time>
      </trkpt>
      <trkpt lat="43.73889" lon="6.63469">
        <ele>1200</ele>
        <time>2024-05-26T08:16:26Z</time>
      </trkpt>
      <trkpt lat="43.73888" lon="6.63469">
        <ele>1200</ele>
        <time>2024-05-26T08:16:27Z</time>
      </trkpt>
      <trkpt lat="43.73887" lon="6.6347">
        <ele>1200.1</ele>
        <time>2024-05-26T08:16:28Z</time>
      </trkpt>
      <trkpt lat="43.73887" lon="6.63471">
        <ele>1200.2</ele>
        <time>2024-05-26T08:16:29Z</time>
      </trkpt>
      <trkpt lat="43.73886" lon="6.63471">
        <ele>1200.2</ele>
        <time>2024-05-26T08:16:30Z</time>
      </trkpt>
      <trkpt lat="43.73885" lon="6.63472">
        <ele>1200.3</ele>
        <time>2024-05-26T08:16:31Z</time>
      </trkpt>
      <trkpt lat="43.73884" lon="6.63472">
        <ele>1200.4</ele>
        <time>2024-05-26T08:16:32Z</time>
      </trkpt>
      <trkpt lat="43.73883" lon="6.63472">
        <ele>1200.5</ele>
        <time>2024-05-26T08:16:33Z</time>
      </trkpt>
      <trkpt lat="43.73882" lon="6.63472">
        <ele>1200.6</ele>
        <time>2024-05-26T08:16:34Z</time>
      </trkpt>
      <trkpt lat="43.73881" lon="6.63472">
        <ele>1200.7</ele>
        <time>2024-05-26T08:16:35Z</time>
      </trkpt>
      <trkpt lat="43.7388" lon="6.63472">
        <ele>1200.8</ele>
        <time>2024-05-26T08:16:36Z</time>
      </trkpt>
      <trkpt lat="43.73879" lon="6.63472">
        <ele>1200.9</ele>
        <time>2024-05-26T08:16:37Z</time>
      </trkpt>
      <trkpt lat="43.73878" lon="6.63473">
        <ele>1201</ele>
        <time>2024-05-26T08:16:38Z</time>
      </trkpt>
      <trkpt lat="43.73878" lon="6.63473">
        <ele>1201.1</ele>
        <time>2024-05-26T08:16:39Z</time>
      </trkpt>
      <trkpt lat="43.73877" lon="6.63473">
        <ele>1201.2</ele>
        <time>2024-05-26T08:16:40Z</time>
      </trkpt>
      <trkpt lat="43.73877" lon="6.63474">
        <ele>1201.3</ele>
        <time>2024-05-26T08:16:41Z</time>
      </trkpt>
      <trkpt lat="43.73876" lon="6.63474">
        <ele>1201.4</ele>
        <time>2024-05-26T08:16:42Z</time>
      </trkpt>
      <trkpt lat="43.73875" lon="6.63474">
        <ele>1201.5</ele>
        <time>2024-05-26T08:16:43Z</time>
      </trkpt>
      <trkpt lat="43.73874" lon="6.63474">
        <ele>1201.6</ele>
        <time>2024-05-26T08:16:44Z</time>
      </trkpt>
      <trkpt lat="43.73873" lon="6.63474">
        <ele>1201.8</ele>
        <time>2024-05-26T08:16:45Z</time>
      </trkpt>
      <trkpt lat="43.73872" lon="6.63474">
        <ele>1202</ele>
        <time>2024-05-26T08:16:46Z</time>
      </trkpt>
      <trkpt lat="43.73872" lon="6.63474">
        <ele>1202.1</ele>
        <time>2024-05-26T08:16:47Z</time>
      </trkpt>
      <trkpt lat="43.73871" lon="6.63475">
        <ele>1202.2</ele>
        <time>2024-05-26T08:16:48Z</time>
      </trkpt>
      <trkpt lat="43.7387" lon="6.63475">
        <ele>1202.2</ele>
        <time>2024-05-26T08:16:49Z</time>
      </trkpt>
      <trkpt lat="43.73869" lon="6.63476">
        <ele>1202.4</ele>
        <time>2024-05-26T08:16:50Z</time>
      </trkpt>
      <trkpt lat="43.73869" lon="6.63476">
        <ele>1202.6</ele>
        <time>2024-05-26T08:16:51Z</time>
      </trkpt>
      <trkpt lat="43.73868" lon="6.63477">
        <ele>1202.7</ele>
        <time>2024-05-26T08:16:52Z</time>
      </trkpt>
      <trkpt lat="43.73867" lon="6.63477">
        <ele>1202.9</ele>
        <time>2024-05-26T08:16:53Z</time>
      </trkpt>
      <trkpt lat="43.73867" lon="6.63477">
        <ele>1203</ele>
        <time>2024-05-26T08:16:54Z</time>
      </trkpt>
      <trkpt lat="43.73866" lon="6.63477">
        <ele>1203.2</ele>
        <time>2024-05-26T08:16:55Z</time>
      </trkpt>
      <trkpt lat="43.73865" lon="6.63477">
        <ele>1203.3</ele>
        <time>2024-05-26T08:16:56Z</time>
      </trkpt>
      <trkpt lat="43.73864" lon="6.63478">
        <ele>1203.5</ele>
        <time>2024-05-26T08:16:57Z</time>
      </trkpt>
      <trkpt lat="43.73863" lon="6.63478">
        <ele>1203.7</ele>
        <time>2024-05-26T08:16:58Z</time>
      </trkpt>
      <trkpt lat="43.73863" lon="6.63478">
        <ele>1203.9</ele>
        <time>2024-05-26T08:16:59Z</time>
      </trkpt>
      <trkpt lat="43.73863" lon="6.63479">
        <ele>1204</ele>
        <time>2024-05-26T08:17:00Z</time>
      </trkpt>
      <trkpt lat="43.73862" lon="6.63479">
        <ele>1204.1</ele>
        <time>2024-05-26T08:17:01Z</time>
      </trkpt>
      <trkpt lat="43.7386" lon="6.6348">
        <ele>1204.2</ele>
        <time>2024-05-26T08:17:02Z</time>
      </trkpt>
      <trkpt lat="43.73859" lon="6.63479">
        <ele>1204.3</ele>
        <time>2024-05-26T08:17:03Z</time>
      </trkpt>
      <trkpt lat="43.73858" lon="6.63479">
        <ele>1204.4</ele>
        <time>2024-05-26T08:17:04Z</time>
      </trkpt>
      <trkpt lat="43.73857" lon="6.6348">
        <ele>1204.4</ele>
        <time>2024-05-26T08:17:05Z</time>
      </trkpt>
      <trkpt lat="43.73856" lon="6.6348">
        <ele>1204.5</ele>
        <time>2024-05-26T08:17:06Z</time>
      </trkpt>
      <trkpt lat="43.73855" lon="6.6348">
        <ele>1204.6</ele>
        <time>2024-05-26T08:17:07Z</time>
      </trkpt>
      <trkpt lat="43.73854" lon="6.63481">
        <ele>1204.8</ele>
        <time>2024-05-26T08:17:08Z</time>
      </trkpt>
      <trkpt lat="43.73853" lon="6.63481">
        <ele>1204.9</ele>
        <time>2024-05-26T08:17:09Z</time>
      </trkpt>
      <trkpt lat="43.73852" lon="6.63482">
        <ele>1205</ele>
        <time>2024-05-26T08:17:10Z</time>
      </trkpt>
      <trkpt lat="43.73851" lon="6.63482">
        <ele>1205</ele>
        <time>2024-05-26T08:17:11Z</time>
      </trkpt>
      <trkpt lat="43.73851" lon="6.63482">
        <ele>1205</ele>
        <time>2024-05-26T08:17:12Z</time>
      </trkpt>
      <trkpt lat="43.7385" lon="6.63482">
        <ele>1205</ele>
        <time>2024-05-26T08:17:13Z</time>
      </trkpt>
      <trkpt lat="43.7385" lon="6.63483">
        <ele>1205.1</ele>
        <time>2024-05-26T08:17:14Z</time>
      </trkpt>
      <trkpt lat="43.73849" lon="6.63483">
        <ele>1205.1</ele>
        <time>2024-05-26T08:17:15Z</time>
      </trkpt>
      <trkpt lat="43.73848" lon="6.63483">
        <ele>1205.1</ele>
        <time>2024-05-26T08:17:16Z</time>
      </trkpt>
      <trkpt lat="43.73847" lon="6.63483">
        <ele>1205.2</ele>
        <time>2024-05-26T08:17:17Z</time>
      </trkpt>
      <trkpt lat="43.73846" lon="6.63484">
        <ele>1205.2</ele>
        <time>2024-05-26T08:17:18Z</time>
      </trkpt>
      <trkpt lat="43.73845" lon="6.63485">
        <ele>1205.2</ele>
        <time>2024-05-26T08:17:19Z</time>
      </trkpt>
      <trkpt lat="43.73843" lon="6.63485">
        <ele>1205.3</ele>
        <time>2024-05-26T08:17:20Z</time>
      </trkpt>
      <trkpt lat="43.73842" lon="6.63485">
        <ele>1205.4</ele>
        <time>2024-05-26T08:17:21Z</time>
      </trkpt>
      <trkpt lat="43.73841" lon="6.63486">
        <ele>1205.4</ele>
        <time>2024-05-26T08:17:22Z</time>
      </trkpt>
      <trkpt lat="43.7384" lon="6.63486">
        <ele>1205.4</ele>
        <time>2024-05-26T08:17:23Z</time>
      </trkpt>
      <trkpt lat="43.73839" lon="6.63487">
        <ele>1205.4</ele>
        <time>2024-05-26T08:17:24Z</time>
      </trkpt>
      <trkpt lat="43.73838" lon="6.63487">
        <ele>1205.5</ele>
        <time>2024-05-26T08:17:25Z</time>
      </trkpt>
      <trkpt lat="43.73838" lon="6.63487">
        <ele>1205.6</ele>
        <time>2024-05-26T08:17:26Z</time>
      </trkpt>
      <trkpt lat="43.73837" lon="6.63488">
        <ele>1205.6</ele>
        <time>2024-05-26T08:17:27Z</time>
      </trkpt>
      <trkpt lat="43.73836" lon="6.63488">
        <ele>1205.6</ele>
        <time>2024-05-26T08:17:28Z</time>
      </trkpt>
      <trkpt lat="43.73835" lon="6.63488">
        <ele>1205.7</ele>
        <time>2024-05-26T08:17:29Z</time>
      </trkpt>
      <trkpt lat="43.73834" lon="6.63488">
        <ele>1205.7</ele>
        <time>2024-05-26T08:17:30Z</time>
      </trkpt>
      <trkpt lat="43.73833" lon="6.63488">
        <ele>1205.8</ele>
        <time>2024-05-26T08:17:31Z</time>
      </trkpt>
      <trkpt lat="43.73831" lon="6.63488">
        <ele>1205.9</ele>
        <time>2024-05-26T08:17:32Z</time>
      </trkpt>
      <trkpt lat="43.73831" lon="6.63489">
        <ele>1205.9</ele>
        <time>2024-05-26T08:17:33Z</time>
      </trkpt>
      <trkpt lat="43.7383" lon="6.63489">
        <ele>1206</ele>
        <time>2024-05-26T08:17:34Z</time>
      </trkpt>
      <trkpt lat="43.73829" lon="6.63489">
        <ele>1206.1</ele>
        <time>2024-05-26T08:17:35Z</time>
      </trkpt>
      <trkpt lat="43.73828" lon="6.63489">
        <ele>1206.1</ele>
        <time>2024-05-26T08:17:36Z</time>
      </trkpt>
      <trkpt lat="43.73827" lon="6.63489">
        <ele>1206.2</ele>
        <time>2024-05-26T08:17:37Z</time>
      </trkpt>
      <trkpt lat="43.73826" lon="6.6349">
        <ele>1206.4</ele>
        <time>2024-05-26T08:17:38Z</time>
      </trkpt>
      <trkpt lat="43.73824" lon="6.6349">
        <ele>1206.7</ele>
        <time>2024-05-26T08:17:39Z</time>
      </trkpt>
      <trkpt lat="43.73823" lon="6.63491">
        <ele>1206.8</ele>
        <time>2024-05-26T08:17:40Z</time>
      </trkpt>
      <trkpt lat="43.73822" lon="6.63492">
        <ele>1206.9</ele>
        <time>2024-05-26T08:17:41Z</time>
      </trkpt>
      <trkpt lat="43.73822" lon="6.63492">
        <ele>1207</ele>
        <time>2024-05-26T08:17:42Z</time>
      </trkpt>
      <trkpt lat="43.73821" lon="6.63493">
        <ele>1207.1</ele>
        <time>2024-05-26T08:17:43Z</time>
      </trkpt>
      <trkpt lat="43.73821" lon="6.63493">
        <ele>1207.2</ele>
        <time>2024-05-26T08:17:44Z</time>
      </trkpt>
      <trkpt lat="43.7382" lon="6.63493">
        <ele>1207.4</ele>
        <time>2024-05-26T08:17:45Z</time>
      </trkpt>
      <trkpt lat="43.73819" lon="6.63494">
        <ele>1207.5</ele>
        <time>2024-05-26T08:17:46Z</time>
      </trkpt>
      <trkpt lat="43.73818" lon="6.63494">
        <ele>1207.6</ele>
        <time>2024-05-26T08:17:47Z</time>
      </trkpt>
      <trkpt lat="43.73817" lon="6.63495">
        <ele>1207.8</ele>
        <time>2024-05-26T08:17:48Z</time>
      </trkpt>
      <trkpt lat="43.73817" lon="6.63495">
        <ele>1207.9</ele>
        <time>2024-05-26T08:17:49Z</time>
      </trkpt>
      <trkpt lat="43.73817" lon="6.63494">
        <ele>1208</ele>
        <time>2024-05-26T08:17:50Z</time>
      </trkpt>
      <trkpt lat="43.73817" lon="6.63494">
        <ele>1208</ele>
        <time>2024-05-26T08:17:51Z</time>
      </trkpt>
      <trkpt lat="43.73818" lon="6.63494">
        <ele>1208.1</ele>
        <time>2024-05-26T08:17:52Z</time>
      </trkpt>
      <trkpt lat="43.73818" lon="6.63494">
        <ele>1208.1</ele>
        <time>2024-05-26T08:17:53Z</time>
      </trkpt>
      <trkpt lat="43.73818" lon="6.63494">
        <ele>1208.1</ele>
        <time>2024-05-26T08:17:54Z</time>
      </trkpt>
      <trkpt lat="43.73818" lon="6.63494">
        <ele>1208.2</ele>
        <time>2024-05-26T08:17:55Z</time>
      </trkpt>
      <trkpt lat="43.73818" lon="6.63494">
        <ele>1208.3</ele>
        <time>2024-05-26T08:17:56Z</time>
      </trkpt>
      <trkpt lat="43.73818" lon="6.63494">
        <ele>1208.3</ele>
        <time>2024-05-26T08:17:57Z</time>
      </trkpt>
      <trkpt lat="43.73818" lon="6.63493">
        <ele>1208.2</ele>
        <time>2024-05-26T08:17:58Z</time>
      </trkpt>
      <trkpt lat="43.73818" lon="6.63493">
        <ele>1208.1</ele>
        <time>2024-05-26T08:17:59Z</time>
      </trkpt>
      <trkpt lat="43.73818" lon="6.63493">
        <ele>1208.1</ele>
        <time>2024-05-26T08:18:00Z</time>
      </trkpt>
      <trkpt lat="43.73818" lon="6.63493">
        <ele>1208</ele>
        <time>2024-05-26T08:18:01Z</time>
      </trkpt>
      <trkpt lat="43.73817" lon="6.63494">
        <ele>1208</ele>
        <time>2024-05-26T08:18:02Z</time>
      </trkpt>
      <trkpt lat="43.73816" lon="6.63494">
        <ele>1208.1</ele>
        <time>2024-05-26T08:18:03Z</time>
      </trkpt>
      <trkpt lat="43.73815" lon="6.63495">
        <ele>1208.2</ele>
        <time>2024-05-26T08:18:04Z</time>
      </trkpt>
      <trkpt lat="43.73815" lon="6.63495">
        <ele>1208.4</ele>
        <time>2024-05-26T08:18:05Z</time>
      </trkpt>
      <trkpt lat="43.73814" lon="6.63496">
        <ele>1208.5</ele>
        <time>2024-05-26T08:18:06Z</time>
      </trkpt>
      <trkpt lat="43.73813" lon="6.63496">
        <ele>1208.7</ele>
        <time>2024-05-26T08:18:07Z</time>
      </trkpt>
      <trkpt lat="43.73812" lon="6.63496">
        <ele>1208.7</ele>
        <time>2024-05-26T08:18:08Z</time>
      </trkpt>
      <trkpt lat="43.73811" lon="6.63497">
        <ele>1208.7</ele>
        <time>2024-05-26T08:18:09Z</time>
      </trkpt>
      <trkpt lat="43.7381" lon="6.63497">
        <ele>1208.9</ele>
        <time>2024-05-26T08:18:10Z</time>
      </trkpt>
      <trkpt lat="43.7381" lon="6.63497">
        <ele>1209</ele>
        <time>2024-05-26T08:18:11Z</time>
      </trkpt>
      <trkpt lat="43.73809" lon="6.63498">
        <ele>1209.1</ele>
        <time>2024-05-26T08:18:12Z</time>
      </trkpt>
      <trkpt lat="43.73808" lon="6.63498">
        <ele>1209.1</ele>
        <time>2024-05-26T08:18:13Z</time>
      </trkpt>
      <trkpt lat="43.73807" lon="6.63498">
        <ele>1209.2</ele>
        <time>2024-05-26T08:18:14Z</time>
      </trkpt>
      <trkpt lat="43.73807" lon="6.63499">
        <ele>1209.3</ele>
        <time>2024-05-26T08:18:15Z</time>
      </trkpt>
      <trkpt lat="43.73806" lon="6.63499">
        <ele>1209.4</ele>
        <time>2024-05-26T08:18:16Z</time>
      </trkpt>
      <trkpt lat="43.73805" lon="6.635">
        <ele>1209.7</ele>
        <time>2024-05-26T08:18:17Z</time>
      </trkpt>
      <trkpt lat="43.73805" lon="6.635">
        <ele>1209.8</ele>
        <time>2024-05-26T08:18:18Z</time>
      </trkpt>
      <trkpt lat="43.73804" lon="6.635">
        <ele>1210</ele>
        <time>2024-05-26T08:18:19Z</time>
      </trkpt>
      <trkpt lat="43.73803" lon="6.635">
        <ele>1210.2</ele>
        <time>2024-05-26T08:18:20Z</time>
      </trkpt>
      <trkpt lat="43.73803" lon="6.63501">
        <ele>1210.4</ele>
        <time>2024-05-26T08:18:21Z</time>
      </trkpt>
      <trkpt lat="43.73803" lon="6.63501">
        <ele>1210.5</ele>
        <time>2024-05-26T08:18:22Z</time>
      </trkpt>
      <trkpt lat="43.73802" lon="6.63501">
        <ele>1210.6</ele>
        <time>2024-05-26T08:18:23Z</time>
      </trkpt>
      <trkpt lat="43.73802" lon="6.63501">
        <ele>1210.8</ele>
        <time>2024-05-26T08:18:24Z</time>
      </trkpt>
      <trkpt lat="43.73801" lon="6.63502">
        <ele>1210.9</ele>
        <time>2024-05-26T08:18:25Z</time>
      </trkpt>
      <trkpt lat="43.738" lon="6.63502">
        <ele>1211</ele>
        <time>2024-05-26T08:18:26Z</time>
      </trkpt>
      <trkpt lat="43.738" lon="6.63502">
        <ele>1211.2</ele>
        <time>2024-05-26T08:18:27Z</time>
      </trkpt>
      <trkpt lat="43.73799" lon="6.63503">
        <ele>1211.3</ele>
        <time>2024-05-26T08:18:28Z</time>
      </trkpt>
      <trkpt lat="43.73799" lon="6.63504">
        <ele>1211.4</ele>
        <time>2024-05-26T08:18:29Z</time>
      </trkpt>
      <trkpt lat="43.73799" lon="6.63504">
        <ele>1211.6</ele>
        <time>2024-05-26T08:18:30Z</time>
      </trkpt>
      <trkpt lat="43.73798" lon="6.63505">
        <ele>1211.8</ele>
        <time>2024-05-26T08:18:31Z</time>
      </trkpt>
      <trkpt lat="43.73797" lon="6.63505">
        <ele>1211.9</ele>
        <time>2024-05-26T08:18:32Z</time>
      </trkpt>
      <trkpt lat="43.73797" lon="6.63505">
        <ele>1212</ele>
        <time>2024-05-26T08:18:33Z</time>
      </trkpt>
      <trkpt lat="43.73796" lon="6.63505">
        <ele>1212.1</ele>
        <time>2024-05-26T08:18:34Z</time>
      </trkpt>
      <trkpt lat="43.73796" lon="6.63505">
        <ele>1212.3</ele>
        <time>2024-05-26T08:18:35Z</time>
      </trkpt>
      <trkpt lat="43.73795" lon="6.63506">
        <ele>1212.4</ele>
        <time>2024-05-26T08:18:36Z</time>
      </trkpt>
      <trkpt lat="43.73795" lon="6.63506">
        <ele>1212.5</ele>
        <time>2024-05-26T08:18:37Z</time>
      </trkpt>
      <trkpt lat="43.73794" lon="6.63506">
        <ele>1212.6</ele>
        <time>2024-05-26T08:18:38Z</time>
      </trkpt>
      <trkpt lat="43.73794" lon="6.63507">
        <ele>1212.6</ele>
        <time>2024-05-26T08:18:39Z</time>
      </trkpt>
      <trkpt lat="43.73793" lon="6.63506">
        <ele>1212.7</ele>
        <time>2024-05-26T08:18:40Z</time>
      </trkpt>
      <trkpt lat="43.73792" lon="6.63507">
        <ele>1212.9</ele>
        <time>2024-05-26T08:18:41Z</time>
      </trkpt>
      <trkpt lat="43.73791" lon="6.63506">
        <ele>1213.1</ele>
        <time>2024-05-26T08:18:42Z</time>
      </trkpt>
      <trkpt lat="43.73791" lon="6.63506">
        <ele>1213.2</ele>
        <time>2024-05-26T08:18:43Z</time>
      </trkpt>
      <trkpt lat="43.7379" lon="6.63507">
        <ele>1213.4</ele>
        <time>2024-05-26T08:18:44Z</time>
      </trkpt>
      <trkpt lat="43.73789" lon="6.63507">
        <ele>1213.6</ele>
        <time>2024-05-26T08:18:45Z</time>
      </trkpt>
      <trkpt lat="43.73789" lon="6.63507">
        <ele>1213.8</ele>
        <time>2024-05-26T08:18:46Z</time>
      </trkpt>
      <trkpt lat="43.73789" lon="6.63508">
        <ele>1213.9</ele>
        <time>2024-05-26T08:18:47Z</time>
      </trkpt>
      <trkpt lat="43.73788" lon="6.63508">
        <ele>1214.1</ele>
        <time>2024-05-26T08:18:48Z</time>
      </trkpt>
      <trkpt lat="43.73787" lon="6.63508">
        <ele>1214.3</ele>
        <time>2024-05-26T08:18:49Z</time>
      </trkpt>
      <trkpt lat="43.73787" lon="6.63509">
        <ele>1214.6</ele>
        <time>2024-05-26T08:18:50Z</time>
      </trkpt>
      <trkpt lat="43.73786" lon="6.6351">
        <ele>1214.8</ele>
        <time>2024-05-26T08:18:51Z</time>
      </trkpt>
      <trkpt lat="43.73786" lon="6.6351">
        <ele>1214.9</ele>
        <time>2024-05-26T08:18:52Z</time>
      </trkpt>
      <trkpt lat="43.73785" lon="6.63511">
        <ele>1215.1</ele>
        <time>2024-05-26T08:18:53Z</time>
      </trkpt>
      <trkpt lat="43.73784" lon="6.63511">
        <ele>1215.3</ele>
        <time>2024-05-26T08:18:54Z</time>
      </trkpt>
      <trkpt lat="43.73784" lon="6.63511">
        <ele>1215.5</ele>
        <time>2024-05-26T08:18:55Z</time>
      </trkpt>
      <trkpt lat="43.73783" lon="6.63511">
        <ele>1215.7</ele>
        <time>2024-05-26T08:18:56Z</time>
      </trkpt>
      <trkpt lat="43.73783" lon="6.63511">
        <ele>1215.9</ele>
        <time>2024-05-26T08:18:57Z</time>
      </trkpt>
      <trkpt lat="43.73782" lon="6.63512">
        <ele>1216.2</ele>
        <time>2024-05-26T08:18:58Z</time>
      </trkpt>
      <trkpt lat="43.73782" lon="6.63512">
        <ele>1216.3</ele>
        <time>2024-05-26T08:18:59Z</time>
      </trkpt>
      <trkpt lat="43.73781" lon="6.63513">
        <ele>1216.4</ele>
        <time>2024-05-26T08:19:00Z</time>
      </trkpt>
      <trkpt lat="43.7378" lon="6.63513">
        <ele>1216.5</ele>
        <time>2024-05-26T08:19:01Z</time>
      </trkpt>
      <trkpt lat="43.73779" lon="6.63513">
        <ele>1216.8</ele>
        <time>2024-05-26T08:19:02Z</time>
      </trkpt>
      <trkpt lat="43.73778" lon="6.63514">
        <ele>1217.1</ele>
        <time>2024-05-26T08:19:03Z</time>
      </trkpt>
      <trkpt lat="43.73778" lon="6.63515">
        <ele>1217.2</ele>
        <time>2024-05-26T08:19:04Z</time>
      </trkpt>
      <trkpt lat="43.73777" lon="6.63515">
        <ele>1217.4</ele>
        <time>2024-05-26T08:19:05Z</time>
      </trkpt>
      <trkpt lat="43.73777" lon="6.63516">
        <ele>1217.6</ele>
        <time>2024-05-26T08:19:06Z</time>
      </trkpt>
      <trkpt lat="43.73776" lon="6.63516">
        <ele>1217.8</ele>
        <time>2024-05-26T08:19:07Z</time>
      </trkpt>
      <trkpt lat="43.73776" lon="6.63516">
        <ele>1218</ele>
        <time>2024-05-26T08:19:08Z</time>
      </trkpt>
      <trkpt lat="43.73775" lon="6.63517">
        <ele>1218.2</ele>
        <time>2024-05-26T08:19:09Z</time>
      </trkpt>
      <trkpt lat="43.73774" lon="6.63517">
        <ele>1218.4</ele>
        <time>2024-05-26T08:19:10Z</time>
      </trkpt>
      <trkpt lat="43.73774" lon="6.63518">
        <ele>1218.6</ele>
        <time>2024-05-26T08:19:11Z</time>
      </trkpt>
      <trkpt lat="43.73773" lon="6.63518">
        <ele>1218.8</ele>
        <time>2024-05-26T08:19:12Z</time>
      </trkpt>
      <trkpt lat="43.73772" lon="6.63519">
        <ele>1219</ele>
        <time>2024-05-26T08:19:13Z</time>
      </trkpt>
      <trkpt lat="43.73772" lon="6.63519">
        <ele>1219.2</ele>
        <time>2024-05-26T08:19:14Z</time>
      </trkpt>
      <trkpt lat="43.73771" lon="6.63519">
        <ele>1219.4</ele>
        <time>2024-05-26T08:19:15Z</time>
      </trkpt>
      <trkpt lat="43.7377" lon="6.63519">
        <ele>1219.6</ele>
        <time>2024-05-26T08:19:16Z</time>
      </trkpt>
      <trkpt lat="43.7377" lon="6.6352">
        <ele>1219.7</ele>
        <time>2024-05-26T08:19:17Z</time>
      </trkpt>
      <trkpt lat="43.73769" lon="6.63521">
        <ele>1219.9</ele>
        <time>2024-05-26T08:19:18Z</time>
      </trkpt>
      <trkpt lat="43.73769" lon="6.63522">
        <ele>1220.1</ele>
        <time>2024-05-26T08:19:19Z</time>
      </trkpt>
      <trkpt lat="43.73768" lon="6.63522">
        <ele>1220.3</ele>
        <time>2024-05-26T08:19:20Z</time>
      </trkpt>
      <trkpt lat="43.73768" lon="6.63524">
        <ele>1220.5</ele>
        <time>2024-05-26T08:19:21Z</time>
      </trkpt>
      <trkpt lat="43.73767" lon="6.63524">
        <ele>1220.7</ele>
        <time>2024-05-26T08:19:22Z</time>
      </trkpt>
      <trkpt lat="43.73767" lon="6.63524">
        <ele>1220.8</ele>
        <time>2024-05-26T08:19:23Z</time>
      </trkpt>
      <trkpt lat="43.73766" lon="6.63525">
        <ele>1220.8</ele>
        <time>2024-05-26T08:19:24Z</time>
      </trkpt>
      <trkpt lat="43.73766" lon="6.63526">
        <ele>1220.9</ele>
        <time>2024-05-26T08:19:25Z</time>
      </trkpt>
      <trkpt lat="43.73766" lon="6.63526">
        <ele>1221.1</ele>
        <time>2024-05-26T08:19:26Z</time>
      </trkpt>
      <trkpt lat="43.73765" lon="6.63527">
        <ele>1221.2</ele>
        <time>2024-05-26T08:19:27Z</time>
      </trkpt>
      <trkpt lat="43.73765" lon="6.63527">
        <ele>1221.4</ele>
        <time>2024-05-26T08:19:28Z</time>
      </trkpt>
      <trkpt lat="43.73765" lon="6.63527">
        <ele>1221.5</ele>
        <time>2024-05-26T08:19:29Z</time>
      </trkpt>
      <trkpt lat="43.73765" lon="6.63528">
        <ele>1221.7</ele>
        <time>2024-05-26T08:19:30Z</time>
      </trkpt>
      <trkpt lat="43.73765" lon="6.63528">
        <ele>1221.8</ele>
        <time>2024-05-26T08:19:31Z</time>
      </trkpt>
      <trkpt lat="43.73765" lon="6.63528">
        <ele>1222</ele>
        <time>2024-05-26T08:19:32Z</time>
      </trkpt>
      <trkpt lat="43.73765" lon="6.63529">
        <ele>1222</ele>
        <time>2024-05-26T08:19:33Z</time>
      </trkpt>
      <trkpt lat="43.73765" lon="6.63529">
        <ele>1222.1</ele>
        <time>2024-05-26T08:19:34Z</time>
      </trkpt>
      <trkpt lat="43.73765" lon="6.63529">
        <ele>1222.1</ele>
        <time>2024-05-26T08:19:35Z</time>
      </trkpt>
      <trkpt lat="43.73765" lon="6.6353">
        <ele>1222.2</ele>
        <time>2024-05-26T08:19:36Z</time>
      </trkpt>
      <trkpt lat="43.73764" lon="6.6353">
        <ele>1222.3</ele>
        <time>2024-05-26T08:19:37Z</time>
      </trkpt>
      <trkpt lat="43.73764" lon="6.6353">
        <ele>1222.4</ele>
        <time>2024-05-26T08:19:38Z</time>
      </trkpt>
      <trkpt lat="43.73764" lon="6.6353">
        <ele>1222.4</ele>
        <time>2024-05-26T08:19:39Z</time>
      </trkpt>
      <trkpt lat="43.73764" lon="6.6353">
        <ele>1222.4</ele>
        <time>2024-05-26T08:19:40Z</time>
      </trkpt>
      <trkpt lat="43.73764" lon="6.6353">
        <ele>1222.3</ele>
        <time>2024-05-26T08:19:41Z</time>
      </trkpt>
      <trkpt lat="43.73764" lon="6.6353">
        <ele>1222.3</ele>
        <time>2024-05-26T08:19:42Z</time>
      </trkpt>
      <trkpt lat="43.73764" lon="6.6353">
        <ele>1222.3</ele>
        <time>2024-05-26T08:19:43Z</time>
      </trkpt>
      <trkpt lat="43.73764" lon="6.6353">
        <ele>1222.2</ele>
        <time>2024-05-26T08:19:44Z</time>
      </trkpt>
      <trkpt lat="43.73764" lon="6.63531">
        <ele>1222.2</ele>
        <time>2024-05-26T08:19:45Z</time>
      </trkpt>
      <trkpt lat="43.73764" lon="6.63531">
        <ele>1222.2</ele>
        <time>2024-05-26T08:19:46Z</time>
      </trkpt>
      <trkpt lat="43.73764" lon="6.63531">
        <ele>1222.2</ele>
        <time>2024-05-26T08:19:47Z</time>
      </trkpt>
      <trkpt lat="43.73764" lon="6.63531">
        <ele>1222.2</ele>
        <time>2024-05-26T08:19:48Z</time>
      </trkpt>
      <trkpt lat="43.73764" lon="6.63531">
        <ele>1222.2</ele>
        <time>2024-05-26T08:19:49Z</time>
      </trkpt>
      <trkpt lat="43.73764" lon="6.63531">
        <ele>1222.2</ele>
        <time>2024-05-26T08:19:50Z</time>
      </trkpt>
      <trkpt lat="43.73764" lon="6.63531">
        <ele>1222.3</ele>
        <time>2024-05-26T08:19:51Z</time>
      </trkpt>
      <trkpt lat="43.73764" lon="6.63531">
        <ele>1222.3</ele>
        <time>2024-05-26T08:19:52Z</time>
      </trkpt>
      <trkpt lat="43.73765" lon="6.63531">
        <ele>1222.3</ele>
        <time>2024-05-26T08:19:53Z</time>
      </trkpt>
      <trkpt lat="43.73765" lon="6.63531">
        <ele>1222.3</ele>
        <time>2024-05-26T08:19:54Z</time>
      </trkpt>
      <trkpt lat="43.73765" lon="6.63531">
        <ele>1222.4</ele>
        <time>2024-05-26T08:19:55Z</time>
      </trkpt>
      <trkpt lat="43.73765" lon="6.63531">
        <ele>1222.4</ele>
        <time>2024-05-26T08:19:56Z</time>
      </trkpt>
      <trkpt lat="43.73765" lon="6.63531">
        <ele>1222.4</ele>
        <time>2024-05-26T08:19:57Z</time>
      </trkpt>
      <trkpt lat="43.73765" lon="6.6353">
        <ele>1222.4</ele>
        <time>2024-05-26T08:19:58Z</time>
      </trkpt>
      <trkpt lat="43.73765" lon="6.6353">
        <ele>1222.4</ele>
        <time>2024-05-26T08:19:59Z</time>
      </trkpt>
      <trkpt lat="43.73765" lon="6.6353">
        <ele>1222.4</ele>
        <time>2024-05-26T08:20:00Z</time>
      </trkpt>
      <trkpt lat="43.73765" lon="6.6353">
        <ele>1222.4</ele>
        <time>2024-05-26T08:20:01Z</time>
      </trkpt>
      <trkpt lat="43.73765" lon="6.6353">
        <ele>1222.3</ele>
        <time>2024-05-26T08:20:02Z</time>
      </trkpt>
      <trkpt lat="43.73765" lon="6.6353">
        <ele>1222.3</ele>
        <time>2024-05-26T08:20:03Z</time>
      </trkpt>
      <trkpt lat="43.73765" lon="6.63529">
        <ele>1222.3</ele>
        <time>2024-05-26T08:20:04Z</time>
      </trkpt>
      <trkpt lat="43.73765" lon="6.63529">
        <ele>1222.3</ele>
        <time>2024-05-26T08:20:05Z</time>
      </trkpt>
      <trkpt lat="43.73765" lon="6.63529">
        <ele>1222.3</ele>
        <time>2024-05-26T08:20:06Z</time>
      </trkpt>
      <trkpt lat="43.73765" lon="6.63528">
        <ele>1222.3</ele>
        <time>2024-05-26T08:20:07Z</time>
      </trkpt>
      <trkpt lat="43.73765" lon="6.63529">
        <ele>1222.4</ele>
        <time>2024-05-26T08:20:08Z</time>
      </trkpt>
      <trkpt lat="43.73765" lon="6.63529">
        <ele>1222.4</ele>
        <time>2024-05-26T08:20:09Z</time>
      </trkpt>
      <trkpt lat="43.73765" lon="6.63528">
        <ele>1222.4</ele>
        <time>2024-05-26T08:20:10Z</time>
      </trkpt>
      <trkpt lat="43.73765" lon="6.63529">
        <ele>1222.4</ele>
        <time>2024-05-26T08:20:11Z</time>
      </trkpt>
      <trkpt lat="43.73764" lon="6.6353">
        <ele>1222.4</ele>
        <time>2024-05-26T08:20:12Z</time>
      </trkpt>
      <trkpt lat="43.73764" lon="6.63531">
        <ele>1222.4</ele>
        <time>2024-05-26T08:20:13Z</time>
      </trkpt>
      <trkpt lat="43.73763" lon="6.63532">
        <ele>1222.6</ele>
        <time>2024-05-26T08:20:14Z</time>
      </trkpt>
      <trkpt lat="43.73763" lon="6.63534">
        <ele>1222.7</ele>
        <time>2024-05-26T08:20:15Z</time>
      </trkpt>
      <trkpt lat="43.73763" lon="6.63535">
        <ele>1222.8</ele>
        <time>2024-05-26T08:20:16Z</time>
      </trkpt>
      <trkpt lat="43.73764" lon="6.63535">
        <ele>1222.9</ele>
        <time>2024-05-26T08:20:17Z</time>
      </trkpt>
      <trkpt lat="43.73764" lon="6.63535">
        <ele>1222.9</ele>
        <time>2024-05-26T08:20:18Z</time>
      </trkpt>
      <trkpt lat="43.73764" lon="6.63535">
        <ele>1223</ele>
        <time>2024-05-26T08:20:19Z</time>
      </trkpt>
      <trkpt lat="43.73764" lon="6.63536">
        <ele>1223</ele>
        <time>2024-05-26T08:20:20Z</time>
      </trkpt>
      <trkpt lat="43.73765" lon="6.63535">
        <ele>1223.1</ele>
        <time>2024-05-26T08:20:21Z</time>
      </trkpt>
      <trkpt lat="43.73765" lon="6.63536">
        <ele>1223.1</ele>
        <time>2024-05-26T08:20:22Z</time>
      </trkpt>
      <trkpt lat="43.73766" lon="6.63535">
        <ele>1223.2</ele>
        <time>2024-05-26T08:20:23Z</time>
      </trkpt>
      <trkpt lat="43.73766" lon="6.63536">
        <ele>1223.3</ele>
        <time>2024-05-26T08:20:24Z</time>
      </trkpt>
      <trkpt lat="43.73767" lon="6.63537">
        <ele>1223.4</ele>
        <time>2024-05-26T08:20:25Z</time>
      </trkpt>
      <trkpt lat="43.73768" lon="6.63537">
        <ele>1223.6</ele>
        <time>2024-05-26T08:20:26Z</time>
      </trkpt>
      <trkpt lat="43.73768" lon="6.63537">
        <ele>1223.7</ele>
        <time>2024-05-26T08:20:27Z</time>
      </trkpt>
      <trkpt lat="43.73769" lon="6.63538">
        <ele>1223.9</ele>
        <time>2024-05-26T08:20:28Z</time>
      </trkpt>
      <trkpt lat="43.73769" lon="6.63539">
        <ele>1224</ele>
        <time>2024-05-26T08:20:29Z</time>
      </trkpt>
      <trkpt lat="43.7377" lon="6.6354">
        <ele>1224.2</ele>
        <time>2024-05-26T08:20:30Z</time>
      </trkpt>
      <trkpt lat="43.7377" lon="6.63541">
        <ele>1224.3</ele>
        <time>2024-05-26T08:20:31Z</time>
      </trkpt>
      <trkpt lat="43.73771" lon="6.63541">
        <ele>1224.5</ele>
        <time>2024-05-26T08:20:32Z</time>
      </trkpt>
      <trkpt lat="43.73772" lon="6.63542">
        <ele>1224.8</ele>
        <time>2024-05-26T08:20:33Z</time>
      </trkpt>
      <trkpt lat="43.73772" lon="6.63543">
        <ele>1225</ele>
        <time>2024-05-26T08:20:34Z</time>
      </trkpt>
      <trkpt lat="43.73773" lon="6.63544">
        <ele>1225.1</ele>
        <time>2024-05-26T08:20:35Z</time>
      </trkpt>
      <trkpt lat="43.73773" lon="6.63545">
        <ele>1225.3</ele>
        <time>2024-05-26T08:20:36Z</time>
      </trkpt>
      <trkpt lat="43.73773" lon="6.63545">
        <ele>1225.4</ele>
        <time>2024-05-26T08:20:37Z</time>
      </trkpt>
      <trkpt lat="43.73774" lon="6.63546">
        <ele>1225.6</ele>
        <time>2024-05-26T08:20:38Z</time>
      </trkpt>
      <trkpt lat="43.73775" lon="6.63548">
        <ele>1225.8</ele>
        <time>2024-05-26T08:20:39Z</time>
      </trkpt>
      <trkpt lat="43.73776" lon="6.63548">
        <ele>1226.1</ele>
        <time>2024-05-26T08:20:40Z</time>
      </trkpt>
      <trkpt lat="43.73777" lon="6.63549">
        <ele>1226.3</ele>
        <time>2024-05-26T08:20:41Z</time>
      </trkpt>
      <trkpt lat="43.73778" lon="6.63549">
        <ele>1226.6</ele>
        <time>2024-05-26T08:20:42Z</time>
      </trkpt>
      <trkpt lat="43.73778" lon="6.6355">
        <ele>1226.8</ele>
        <time>2024-05-26T08:20:43Z</time>
      </trkpt>
      <trkpt lat="43.73779" lon="6.63551">
        <ele>1227</ele>
        <time>2024-05-26T08:20:44Z</time>
      </trkpt>
      <trkpt lat="43.7378" lon="6.63551">
        <ele>1227.2</ele>
        <time>2024-05-26T08:20:45Z</time>
      </trkpt>
      <trkpt lat="43.7378" lon="6.63552">
        <ele>1227.5</ele>
        <time>2024-05-26T08:20:46Z</time>
      </trkpt>
      <trkpt lat="43.7378" lon="6.63552">
        <ele>1227.7</ele>
        <time>2024-05-26T08:20:47Z</time>
      </trkpt>
      <trkpt lat="43.7378" lon="6.63553">
        <ele>1227.8</ele>
        <time>2024-05-26T08:20:48Z</time>
      </trkpt>
      <trkpt lat="43.73779" lon="6.63553">
        <ele>1228</ele>
        <time>2024-05-26T08:20:49Z</time>
      </trkpt>
      <trkpt lat="43.73778" lon="6.63554">
        <ele>1228.2</ele>
        <time>2024-05-26T08:20:50Z</time>
      </trkpt>
      <trkpt lat="43.73777" lon="6.63554">
        <ele>1228.4</ele>
        <time>2024-05-26T08:20:51Z</time>
      </trkpt>
      <trkpt lat="43.73777" lon="6.63553">
        <ele>1228.5</ele>
        <time>2024-05-26T08:20:52Z</time>
      </trkpt>
      <trkpt lat="43.73776" lon="6.63553">
        <ele>1228.7</ele>
        <time>2024-05-26T08:20:53Z</time>
      </trkpt>
      <trkpt lat="43.73776" lon="6.63554">
        <ele>1228.9</ele>
        <time>2024-05-26T08:20:54Z</time>
      </trkpt>
      <trkpt lat="43.73776" lon="6.63554">
        <ele>1229.1</ele>
        <time>2024-05-26T08:20:55Z</time>
      </trkpt>
      <trkpt lat="43.73775" lon="6.63554">
        <ele>1229.2</ele>
        <time>2024-05-26T08:20:56Z</time>
      </trkpt>
      <trkpt lat="43.73775" lon="6.63556">
        <ele>1229.3</ele>
        <time>2024-05-26T08:20:57Z</time>
      </trkpt>
      <trkpt lat="43.73774" lon="6.63556">
        <ele>1229.5</ele>
        <time>2024-05-26T08:20:58Z</time>
      </trkpt>
      <trkpt lat="43.73774" lon="6.63557">
        <ele>1229.7</ele>
        <time>2024-05-26T08:20:59Z</time>
      </trkpt>
      <trkpt lat="43.73774" lon="6.63557">
        <ele>1229.9</ele>
        <time>2024-05-26T08:21:00Z</time>
      </trkpt>
      <trkpt lat="43.73773" lon="6.63558">
        <ele>1230</ele>
        <time>2024-05-26T08:21:01Z</time>
      </trkpt>
      <trkpt lat="43.73772" lon="6.63558">
        <ele>1230.1</ele>
        <time>2024-05-26T08:21:02Z</time>
      </trkpt>
      <trkpt lat="43.73772" lon="6.63559">
        <ele>1230.2</ele>
        <time>2024-05-26T08:21:03Z</time>
      </trkpt>
      <trkpt lat="43.73771" lon="6.63559">
        <ele>1230.4</ele>
        <time>2024-05-26T08:21:04Z</time>
      </trkpt>
      <trkpt lat="43.73771" lon="6.6356">
        <ele>1230.6</ele>
        <time>2024-05-26T08:21:05Z</time>
      </trkpt>
      <trkpt lat="43.73771" lon="6.63561">
        <ele>1230.8</ele>
        <time>2024-05-26T08:21:06Z</time>
      </trkpt>
      <trkpt lat="43.7377" lon="6.63561">
        <ele>1231</ele>
        <time>2024-05-26T08:21:07Z</time>
      </trkpt>
      <trkpt lat="43.7377" lon="6.63562">
        <ele>1231.1</ele>
        <time>2024-05-26T08:21:08Z</time>
      </trkpt>
      <trkpt lat="43.73769" lon="6.63562">
        <ele>1231.3</ele>
        <time>2024-05-26T08:21:09Z</time>
      </trkpt>
      <trkpt lat="43.73768" lon="6.63562">
        <ele>1231.5</ele>
        <time>2024-05-26T08:21:10Z</time>
      </trkpt>
      <trkpt lat="43.73768" lon="6.63563">
        <ele>1231.7</ele>
        <time>2024-05-26T08:21:11Z</time>
      </trkpt>
      <trkpt lat="43.73767" lon="6.63563">
        <ele>1231.9</ele>
        <time>2024-05-26T08:21:12Z</time>
      </trkpt>
      <trkpt lat="43.73766" lon="6.63563">
        <ele>1232.1</ele>
        <time>2024-05-26T08:21:13Z</time>
      </trkpt>
      <trkpt lat="43.73766" lon="6.63564">
        <ele>1232.3</ele>
        <time>2024-05-26T08:21:14Z</time>
      </trkpt>
      <trkpt lat="43.73765" lon="6.63565">
        <ele>1232.5</ele>
        <time>2024-05-26T08:21:15Z</time>
      </trkpt>
      <trkpt lat="43.73764" lon="6.63565">
        <ele>1232.6</ele>
        <time>2024-05-26T08:21:16Z</time>
      </trkpt>
      <trkpt lat="43.73764" lon="6.63565">
        <ele>1232.8</ele>
        <time>2024-05-26T08:21:17Z</time>
      </trkpt>
      <trkpt lat="43.73763" lon="6.63565">
        <ele>1233</ele>
        <time>2024-05-26T08:21:18Z</time>
      </trkpt>
      <trkpt lat="43.73763" lon="6.63566">
        <ele>1233.1</ele>
        <time>2024-05-26T08:21:19Z</time>
      </trkpt>
      <trkpt lat="43.73762" lon="6.63566">
        <ele>1233.2</ele>
        <time>2024-05-26T08:21:20Z</time>
      </trkpt>
      <trkpt lat="43.73761" lon="6.63566">
        <ele>1233.4</ele>
        <time>2024-05-26T08:21:21Z</time>
      </trkpt>
      <trkpt lat="43.73761" lon="6.63566">
        <ele>1233.5</ele>
        <time>2024-05-26T08:21:22Z</time>
      </trkpt>
      <trkpt lat="43.7376" lon="6.63567">
        <ele>1233.7</ele>
        <time>2024-05-26T08:21:23Z</time>
      </trkpt>
      <trkpt lat="43.73759" lon="6.63567">
        <ele>1233.8</ele>
        <time>2024-05-26T08:21:24Z</time>
      </trkpt>
      <trkpt lat="43.73758" lon="6.63568">
        <ele>1233.9</ele>
        <time>2024-05-26T08:21:25Z</time>
      </trkpt>
      <trkpt lat="43.73757" lon="6.63568">
        <ele>1234.1</ele>
        <time>2024-05-26T08:21:26Z</time>
      </trkpt>
      <trkpt lat="43.73756" lon="6.63569">
        <ele>1234.2</ele>
        <time>2024-05-26T08:21:27Z</time>
      </trkpt>
      <trkpt lat="43.73756" lon="6.6357">
        <ele>1234.4</ele>
        <time>2024-05-26T08:21:28Z</time>
      </trkpt>
      <trkpt lat="43.73755" lon="6.63571">
        <ele>1234.5</ele>
        <time>2024-05-26T08:21:29Z</time>
      </trkpt>
      <trkpt lat="43.73754" lon="6.63571">
        <ele>1234.7</ele>
        <time>2024-05-26T08:21:30Z</time>
      </trkpt>
      <trkpt lat="43.73754" lon="6.63572">
        <ele>1234.9</ele>
        <time>2024-05-26T08:21:31Z</time>
      </trkpt>
      <trkpt lat="43.73753" lon="6.63573">
        <ele>1235</ele>
        <time>2024-05-26T08:21:32Z</time>
      </trkpt>
      <trkpt lat="43.73752" lon="6.63574">
        <ele>1235.3</ele>
        <time>2024-05-26T08:21:33Z</time>
      </trkpt>
      <trkpt lat="43.73752" lon="6.63575">
        <ele>1235.5</ele>
        <time>2024-05-26T08:21:34Z</time>
      </trkpt>
      <trkpt lat="43.73751" lon="6.63576">
        <ele>1235.7</ele>
        <time>2024-05-26T08:21:35Z</time>
      </trkpt>
      <trkpt lat="43.7375" lon="6.63576">
        <ele>1235.9</ele>
        <time>2024-05-26T08:21:36Z</time>
      </trkpt>
      <trkpt lat="43.7375" lon="6.63577">
        <ele>1236.1</ele>
        <time>2024-05-26T08:21:37Z</time>
      </trkpt>
      <trkpt lat="43.73749" lon="6.63578">
        <ele>1236.3</ele>
        <time>2024-05-26T08:21:38Z</time>
      </trkpt>
      <trkpt lat="43.73748" lon="6.63578">
        <ele>1236.5</ele>
        <time>2024-05-26T08:21:39Z</time>
      </trkpt>
      <trkpt lat="43.73748" lon="6.63579">
        <ele>1236.7</ele>
        <time>2024-05-26T08:21:40Z</time>
      </trkpt>
      <trkpt lat="43.73747" lon="6.6358">
        <ele>1236.8</ele>
        <time>2024-05-26T08:21:41Z</time>
      </trkpt>
      <trkpt lat="43.73747" lon="6.63581">
        <ele>1236.9</ele>
        <time>2024-05-26T08:21:42Z</time>
      </trkpt>
      <trkpt lat="43.73747" lon="6.63582">
        <ele>1237</ele>
        <time>2024-05-26T08:21:43Z</time>
      </trkpt>
      <trkpt lat="43.73746" lon="6.63582">
        <ele>1237.2</ele>
        <time>2024-05-26T08:21:44Z</time>
      </trkpt>
      <trkpt lat="43.73746" lon="6.63583">
        <ele>1237.3</ele>
        <time>2024-05-26T08:21:45Z</time>
      </trkpt>
      <trkpt lat="43.73745" lon="6.63584">
        <ele>1237.5</ele>
        <time>2024-05-26T08:21:46Z</time>
      </trkpt>
      <trkpt lat="43.73745" lon="6.63585">
        <ele>1237.6</ele>
        <time>2024-05-26T08:21:47Z</time>
      </trkpt>
      <trkpt lat="43.73744" lon="6.63586">
        <ele>1237.8</ele>
        <time>2024-05-26T08:21:48Z</time>
      </trkpt>
      <trkpt lat="43.73744" lon="6.63588">
        <ele>1238</ele>
        <time>2024-05-26T08:21:49Z</time>
      </trkpt>
      <trkpt lat="43.73743" lon="6.63589">
        <ele>1238.2</ele>
        <time>2024-05-26T08:21:50Z</time>
      </trkpt>
      <trkpt lat="43.73743" lon="6.6359">
        <ele>1238.3</ele>
        <time>2024-05-26T08:21:51Z</time>
      </trkpt>
      <trkpt lat="43.73742" lon="6.6359">
        <ele>1238.4</ele>
        <time>2024-05-26T08:21:52Z</time>
      </trkpt>
      <trkpt lat="43.73742" lon="6.63591">
        <ele>1238.6</ele>
        <time>2024-05-26T08:21:53Z</time>
      </trkpt>
      <trkpt lat="43.73741" lon="6.63592">
        <ele>1238.7</ele>
        <time>2024-05-26T08:21:54Z</time>
      </trkpt>
      <trkpt lat="43.73741" lon="6.63593">
        <ele>1238.8</ele>
        <time>2024-05-26T08:21:55Z</time>
      </trkpt>
      <trkpt lat="43.7374" lon="6.63594">
        <ele>1238.9</ele>
        <time>2024-05-26T08:21:56Z</time>
      </trkpt>
      <trkpt lat="43.7374" lon="6.63595">
        <ele>1239.1</ele>
        <time>2024-05-26T08:21:57Z</time>
      </trkpt>
      <trkpt lat="43.7374" lon="6.63596">
        <ele>1239.2</ele>
        <time>2024-05-26T08:21:58Z</time>
      </trkpt>
      <trkpt lat="43.73739" lon="6.63597">
        <ele>1239.3</ele>
        <time>2024-05-26T08:21:59Z</time>
      </trkpt>
      <trkpt lat="43.73739" lon="6.63598">
        <ele>1239.4</ele>
        <time>2024-05-26T08:22:00Z</time>
      </trkpt>
      <trkpt lat="43.73738" lon="6.63599">
        <ele>1239.5</ele>
        <time>2024-05-26T08:22:01Z</time>
      </trkpt>
      <trkpt lat="43.73738" lon="6.636">
        <ele>1239.6</ele>
        <time>2024-05-26T08:22:02Z</time>
      </trkpt>
      <trkpt lat="43.73737" lon="6.63601">
        <ele>1239.7</ele>
        <time>2024-05-26T08:22:03Z</time>
      </trkpt>
      <trkpt lat="43.73737" lon="6.63602">
        <ele>1239.8</ele>
        <time>2024-05-26T08:22:04Z</time>
      </trkpt>
      <trkpt lat="43.73737" lon="6.63603">
        <ele>1239.9</ele>
        <time>2024-05-26T08:22:05Z</time>
      </trkpt>
      <trkpt lat="43.73737" lon="6.63604">
        <ele>1240</ele>
        <time>2024-05-26T08:22:06Z</time>
      </trkpt>
      <trkpt lat="43.73738" lon="6.63605">
        <ele>1240.2</ele>
        <time>2024-05-26T08:22:07Z</time>
      </trkpt>
      <trkpt lat="43.73738" lon="6.63605">
        <ele>1240.3</ele>
        <time>2024-05-26T08:22:08Z</time>
      </trkpt>
      <trkpt lat="43.73739" lon="6.63606">
        <ele>1240.5</ele>
        <time>2024-05-26T08:22:09Z</time>
      </trkpt>
      <trkpt lat="43.7374" lon="6.63608">
        <ele>1240.7</ele>
        <time>2024-05-26T08:22:10Z</time>
      </trkpt>
      <trkpt lat="43.73741" lon="6.63609">
        <ele>1241.1</ele>
        <time>2024-05-26T08:22:11Z</time>
      </trkpt>
      <trkpt lat="43.73742" lon="6.6361">
        <ele>1241.4</ele>
        <time>2024-05-26T08:22:12Z</time>
      </trkpt>
      <trkpt lat="43.73743" lon="6.63611">
        <ele>1241.7</ele>
        <time>2024-05-26T08:22:13Z</time>
      </trkpt>
      <trkpt lat="43.73743" lon="6.63611">
        <ele>1242</ele>
        <time>2024-05-26T08:22:14Z</time>
      </trkpt>
      <trkpt lat="43.73744" lon="6.63611">
        <ele>1242.2</ele>
        <time>2024-05-26T08:22:15Z</time>
      </trkpt>
      <trkpt lat="43.73745" lon="6.63612">
        <ele>1242.4</ele>
        <time>2024-05-26T08:22:16Z</time>
      </trkpt>
      <trkpt lat="43.73745" lon="6.63612">
        <ele>1242.7</ele>
        <time>2024-05-26T08:22:17Z</time>
      </trkpt>
      <trkpt lat="43.73746" lon="6.63613">
        <ele>1243</ele>
        <time>2024-05-26T08:22:18Z</time>
      </trkpt>
      <trkpt lat="43.73746" lon="6.63613">
        <ele>1243.2</ele>
        <time>2024-05-26T08:22:19Z</time>
      </trkpt>
      <trkpt lat="43.73747" lon="6.63614">
        <ele>1243.3</ele>
        <time>2024-05-26T08:22:20Z</time>
      </trkpt>
      <trkpt lat="43.73748" lon="6.63614">
        <ele>1243.5</ele>
        <time>2024-05-26T08:22:21Z</time>
      </trkpt>
      <trkpt lat="43.73748" lon="6.63615">
        <ele>1243.8</ele>
        <time>2024-05-26T08:22:22Z</time>
      </trkpt>
      <trkpt lat="43.73749" lon="6.63615">
        <ele>1243.9</ele>
        <time>2024-05-26T08:22:23Z</time>
      </trkpt>
      <trkpt lat="43.73749" lon="6.63615">
        <ele>1244.1</ele>
        <time>2024-05-26T08:22:24Z</time>
      </trkpt>
      <trkpt lat="43.7375" lon="6.63615">
        <ele>1244.3</ele>
        <time>2024-05-26T08:22:25Z</time>
      </trkpt>
      <trkpt lat="43.7375" lon="6.63615">
        <ele>1244.6</ele>
        <time>2024-05-26T08:22:26Z</time>
      </trkpt>
      <trkpt lat="43.73751" lon="6.63616">
        <ele>1244.8</ele>
        <time>2024-05-26T08:22:27Z</time>
      </trkpt>
      <trkpt lat="43.73751" lon="6.63616">
        <ele>1245</ele>
        <time>2024-05-26T08:22:28Z</time>
      </trkpt>
      <trkpt lat="43.73752" lon="6.63616">
        <ele>1245.1</ele>
        <time>2024-05-26T08:22:29Z</time>
      </trkpt>
      <trkpt lat="43.73752" lon="6.63617">
        <ele>1245.3</ele>
        <time>2024-05-26T08:22:30Z</time>
      </trkpt>
      <trkpt lat="43.73752" lon="6.63618">
        <ele>1245.5</ele>
        <time>2024-05-26T08:22:31Z</time>
      </trkpt>
      <trkpt lat="43.73753" lon="6.63618">
        <ele>1245.6</ele>
        <time>2024-05-26T08:22:32Z</time>
      </trkpt>
      <trkpt lat="43.73753" lon="6.63618">
        <ele>1245.9</ele>
        <time>2024-05-26T08:22:33Z</time>
      </trkpt>
      <trkpt lat="43.73754" lon="6.63619">
        <ele>1246</ele>
        <time>2024-05-26T08:22:34Z</time>
      </trkpt>
      <trkpt lat="43.73754" lon="6.63619">
        <ele>1246.2</ele>
        <time>2024-05-26T08:22:35Z</time>
      </trkpt>
      <trkpt lat="43.73754" lon="6.63619">
        <ele>1246.3</ele>
        <time>2024-05-26T08:22:36Z</time>
      </trkpt>
      <trkpt lat="43.73755" lon="6.6362">
        <ele>1246.4</ele>
        <time>2024-05-26T08:22:37Z</time>
      </trkpt>
      <trkpt lat="43.73755" lon="6.6362">
        <ele>1246.5</ele>
        <time>2024-05-26T08:22:38Z</time>
      </trkpt>
      <trkpt lat="43.73756" lon="6.6362">
        <ele>1246.7</ele>
        <time>2024-05-26T08:22:39Z</time>
      </trkpt>
      <trkpt lat="43.73757" lon="6.6362">
        <ele>1246.9</ele>
        <time>2024-05-26T08:22:40Z</time>
      </trkpt>
      <trkpt lat="43.73758" lon="6.6362">
        <ele>1247.2</ele>
        <time>2024-05-26T08:22:41Z</time>
      </trkpt>
      <trkpt lat="43.73759" lon="6.63621">
        <ele>1247.4</ele>
        <time>2024-05-26T08:22:42Z</time>
      </trkpt>
      <trkpt lat="43.73759" lon="6.63621">
        <ele>1247.7</ele>
        <time>2024-05-26T08:22:43Z</time>
      </trkpt>
      <trkpt lat="43.7376" lon="6.63621">
        <ele>1247.9</ele>
        <time>2024-05-26T08:22:44Z</time>
      </trkpt>
      <trkpt lat="43.73761" lon="6.63622">
        <ele>1248</ele>
        <time>2024-05-26T08:22:45Z</time>
      </trkpt>
      <trkpt lat="43.73761" lon="6.63623">
        <ele>1248.2</ele>
        <time>2024-05-26T08:22:46Z</time>
      </trkpt>
      <trkpt lat="43.73762" lon="6.63623">
        <ele>1248.4</ele>
        <time>2024-05-26T08:22:47Z</time>
      </trkpt>
      <trkpt lat="43.73762" lon="6.63624">
        <ele>1248.6</ele>
        <time>2024-05-26T08:22:48Z</time>
      </trkpt>
      <trkpt lat="43.73762" lon="6.63624">
        <ele>1248.7</ele>
        <time>2024-05-26T08:22:49Z</time>
      </trkpt>
      <trkpt lat="43.73763" lon="6.63624">
        <ele>1248.9</ele>
        <time>2024-05-26T08:22:50Z</time>
      </trkpt>
      <trkpt lat="43.73763" lon="6.63625">
        <ele>1249</ele>
        <time>2024-05-26T08:22:51Z</time>
      </trkpt>
      <trkpt lat="43.73764" lon="6.63625">
        <ele>1249.2</ele>
        <time>2024-05-26T08:22:52Z</time>
      </trkpt>
      <trkpt lat="43.73764" lon="6.63625">
        <ele>1249.3</ele>
        <time>2024-05-26T08:22:53Z</time>
      </trkpt>
      <trkpt lat="43.73765" lon="6.63625">
        <ele>1249.5</ele>
        <time>2024-05-26T08:22:54Z</time>
      </trkpt>
      <trkpt lat="43.73765" lon="6.63625">
        <ele>1249.6</ele>
        <time>2024-05-26T08:22:55Z</time>
      </trkpt>
      <trkpt lat="43.73766" lon="6.63625">
        <ele>1249.8</ele>
        <time>2024-05-26T08:22:56Z</time>
      </trkpt>
      <trkpt lat="43.73767" lon="6.63626">
        <ele>1250</ele>
        <time>2024-05-26T08:22:57Z</time>
      </trkpt>
      <trkpt lat="43.73767" lon="6.63626">
        <ele>1250.1</ele>
        <time>2024-05-26T08:22:58Z</time>
      </trkpt>
      <trkpt lat="43.73767" lon="6.63627">
        <ele>1250.4</ele>
        <time>2024-05-26T08:22:59Z</time>
      </trkpt>
      <trkpt lat="43.73768" lon="6.63628">
        <ele>1250.6</ele>
        <time>2024-05-26T08:23:00Z</time>
      </trkpt>
      <trkpt lat="43.73768" lon="6.63628">
        <ele>1250.8</ele>
        <time>2024-05-26T08:23:01Z</time>
      </trkpt>
      <trkpt lat="43.73769" lon="6.63629">
        <ele>1251.1</ele>
        <time>2024-05-26T08:23:02Z</time>
      </trkpt>
      <trkpt lat="43.73769" lon="6.63629">
        <ele>1251.3</ele>
        <time>2024-05-26T08:23:03Z</time>
      </trkpt>
      <trkpt lat="43.73771" lon="6.63629">
        <ele>1251.6</ele>
        <time>2024-05-26T08:23:04Z</time>
      </trkpt>
      <trkpt lat="43.73772" lon="6.63629">
        <ele>1251.8</ele>
        <time>2024-05-26T08:23:05Z</time>
      </trkpt>
      <trkpt lat="43.73772" lon="6.6363">
        <ele>1252</ele>
        <time>2024-05-26T08:23:06Z</time>
      </trkpt>
      <trkpt lat="43.73773" lon="6.63629">
        <ele>1252.2</ele>
        <time>2024-05-26T08:23:07Z</time>
      </trkpt>
      <trkpt lat="43.73774" lon="6.6363">
        <ele>1252.4</ele>
        <time>2024-05-26T08:23:08Z</time>
      </trkpt>
      <trkpt lat="43.73774" lon="6.6363">
        <ele>1252.6</ele>
        <time>2024-05-26T08:23:09Z</time>
      </trkpt>
      <trkpt lat="43.73775" lon="6.6363">
        <ele>1252.7</ele>
        <time>2024-05-26T08:23:10Z</time>
      </trkpt>
      <trkpt lat="43.73775" lon="6.63631">
        <ele>1252.9</ele>
        <time>2024-05-26T08:23:11Z</time>
      </trkpt>
      <trkpt lat="43.73775" lon="6.63631">
        <ele>1253.1</ele>
        <time>2024-05-26T08:23:12Z</time>
      </trkpt>
      <trkpt lat="43.73775" lon="6.63631">
        <ele>1253.3</ele>
        <time>2024-05-26T08:23:13Z</time>
      </trkpt>
      <trkpt lat="43.73776" lon="6.63631">
        <ele>1253.4</ele>
        <time>2024-05-26T08:23:14Z</time>
      </trkpt>
      <trkpt lat="43.73777" lon="6.6363">
        <ele>1253.6</ele>
        <time>2024-05-26T08:23:15Z</time>
      </trkpt>
      <trkpt lat="43.73777" lon="6.6363">
        <ele>1253.7</ele>
        <time>2024-05-26T08:23:16Z</time>
      </trkpt>
      <trkpt lat="43.73778" lon="6.6363">
        <ele>1253.9</ele>
        <time>2024-05-26T08:23:17Z</time>
      </trkpt>
      <trkpt lat="43.7378" lon="6.6363">
        <ele>1254.1</ele>
        <time>2024-05-26T08:23:18Z</time>
      </trkpt>
      <trkpt lat="43.73781" lon="6.6363">
        <ele>1254.3</ele>
        <time>2024-05-26T08:23:19Z</time>
      </trkpt>
      <trkpt lat="43.73782" lon="6.6363">
        <ele>1254.5</ele>
        <time>2024-05-26T08:23:20Z</time>
      </trkpt>
      <trkpt lat="43.73783" lon="6.6363">
        <ele>1254.6</ele>
        <time>2024-05-26T08:23:21Z</time>
      </trkpt>
      <trkpt lat="43.73783" lon="6.63631">
        <ele>1254.7</ele>
        <time>2024-05-26T08:23:22Z</time>
      </trkpt>
      <trkpt lat="43.73784" lon="6.63631">
        <ele>1254.8</ele>
        <time>2024-05-26T08:23:23Z</time>
      </trkpt>
      <trkpt lat="43.73785" lon="6.63631">
        <ele>1254.8</ele>
        <time>2024-05-26T08:23:24Z</time>
      </trkpt>
      <trkpt lat="43.73787" lon="6.6363">
        <ele>1254.8</ele>
        <time>2024-05-26T08:23:25Z</time>
      </trkpt>
      <trkpt lat="43.73787" lon="6.6363">
        <ele>1254.9</ele>
        <time>2024-05-26T08:23:26Z</time>
      </trkpt>
      <trkpt lat="43.73788" lon="6.6363">
        <ele>1254.9</ele>
        <time>2024-05-26T08:23:27Z</time>
      </trkpt>
      <trkpt lat="43.73789" lon="6.6363">
        <ele>1254.9</ele>
        <time>2024-05-26T08:23:28Z</time>
      </trkpt>
      <trkpt lat="43.7379" lon="6.6363">
        <ele>1254.9</ele>
        <time>2024-05-26T08:23:29Z</time>
      </trkpt>
      <trkpt lat="43.7379" lon="6.6363">
        <ele>1255.1</ele>
        <time>2024-05-26T08:23:30Z</time>
      </trkpt>
      <trkpt lat="43.73791" lon="6.63631">
        <ele>1255.2</ele>
        <time>2024-05-26T08:23:31Z</time>
      </trkpt>
      <trkpt lat="43.73791" lon="6.63631">
        <ele>1255.3</ele>
        <time>2024-05-26T08:23:32Z</time>
      </trkpt>
      <trkpt lat="43.73791" lon="6.63632">
        <ele>1255.4</ele>
        <time>2024-05-26T08:23:33Z</time>
      </trkpt>
      <trkpt lat="43.73792" lon="6.63632">
        <ele>1255.6</ele>
        <time>2024-05-26T08:23:34Z</time>
      </trkpt>
      <trkpt lat="43.73793" lon="6.63632">
        <ele>1255.7</ele>
        <time>2024-05-26T08:23:35Z</time>
      </trkpt>
      <trkpt lat="43.73794" lon="6.63632">
        <ele>1255.8</ele>
        <time>2024-05-26T08:23:36Z</time>
      </trkpt>
      <trkpt lat="43.73795" lon="6.63633">
        <ele>1255.9</ele>
        <time>2024-05-26T08:23:37Z</time>
      </trkpt>
      <trkpt lat="43.73796" lon="6.63634">
        <ele>1256</ele>
        <time>2024-05-26T08:23:38Z</time>
      </trkpt>
      <trkpt lat="43.73797" lon="6.63634">
        <ele>1256.2</ele>
        <time>2024-05-26T08:23:39Z</time>
      </trkpt>
      <trkpt lat="43.73798" lon="6.63635">
        <ele>1256.4</ele>
        <time>2024-05-26T08:23:40Z</time>
      </trkpt>
      <trkpt lat="43.73799" lon="6.63635">
        <ele>1256.5</ele>
        <time>2024-05-26T08:23:41Z</time>
      </trkpt>
      <trkpt lat="43.73799" lon="6.63635">
        <ele>1256.7</ele>
        <time>2024-05-26T08:23:42Z</time>
      </trkpt>
      <trkpt lat="43.738" lon="6.63635">
        <ele>1256.9</ele>
        <time>2024-05-26T08:23:43Z</time>
      </trkpt>
      <trkpt lat="43.738" lon="6.63635">
        <ele>1257</ele>
        <time>2024-05-26T08:23:44Z</time>
      </trkpt>
      <trkpt lat="43.73801" lon="6.63635">
        <ele>1257.1</ele>
        <time>2024-05-26T08:23:45Z</time>
      </trkpt>
      <trkpt lat="43.73802" lon="6.63634">
        <ele>1257.2</ele>
        <time>2024-05-26T08:23:46Z</time>
      </trkpt>
      <trkpt lat="43.73803" lon="6.63634">
        <ele>1257.3</ele>
        <time>2024-05-26T08:23:47Z</time>
      </trkpt>
      <trkpt lat="43.73803" lon="6.63634">
        <ele>1257.4</ele>
        <time>2024-05-26T08:23:48Z</time>
      </trkpt>
      <trkpt lat="43.73804" lon="6.63634">
        <ele>1257.4</ele>
        <time>2024-05-26T08:23:49Z</time>
      </trkpt>
      <trkpt lat="43.73805" lon="6.63633">
        <ele>1257.4</ele>
        <time>2024-05-26T08:23:50Z</time>
      </trkpt>
      <trkpt lat="43.73806" lon="6.63634">
        <ele>1257.6</ele>
        <time>2024-05-26T08:23:51Z</time>
      </trkpt>
      <trkpt lat="43.73807" lon="6.63635">
        <ele>1257.7</ele>
        <time>2024-05-26T08:23:52Z</time>
      </trkpt>
      <trkpt lat="43.73807" lon="6.63635">
        <ele>1257.8</ele>
        <time>2024-05-26T08:23:53Z</time>
      </trkpt>
      <trkpt lat="43.73809" lon="6.63636">
        <ele>1257.9</ele>
        <time>2024-05-26T08:23:54Z</time>
      </trkpt>
      <trkpt lat="43.7381" lon="6.63637">
        <ele>1258</ele>
        <time>2024-05-26T08:23:55Z</time>
      </trkpt>
      <trkpt lat="43.73811" lon="6.63637">
        <ele>1258.1</ele>
        <time>2024-05-26T08:23:56Z</time>
      </trkpt>
      <trkpt lat="43.73811" lon="6.63637">
        <ele>1258.2</ele>
        <time>2024-05-26T08:23:57Z</time>
      </trkpt>
      <trkpt lat="43.73813" lon="6.63637">
        <ele>1258.3</ele>
        <time>2024-05-26T08:23:58Z</time>
      </trkpt>
      <trkpt lat="43.73814" lon="6.63637">
        <ele>1258.4</ele>
        <time>2024-05-26T08:23:59Z</time>
      </trkpt>
      <trkpt lat="43.73815" lon="6.63637">
        <ele>1258.5</ele>
        <time>2024-05-26T08:24:00Z</time>
      </trkpt>
      <trkpt lat="43.73816" lon="6.63638">
        <ele>1258.6</ele>
        <time>2024-05-26T08:24:01Z</time>
      </trkpt>
      <trkpt lat="43.73816" lon="6.63638">
        <ele>1258.7</ele>
        <time>2024-05-26T08:24:02Z</time>
      </trkpt>
      <trkpt lat="43.73816" lon="6.63639">
        <ele>1258.7</ele>
        <time>2024-05-26T08:24:03Z</time>
      </trkpt>
      <trkpt lat="43.73816" lon="6.63639">
        <ele>1258.9</ele>
        <time>2024-05-26T08:24:04Z</time>
      </trkpt>
      <trkpt lat="43.73817" lon="6.6364">
        <ele>1259</ele>
        <time>2024-05-26T08:24:05Z</time>
      </trkpt>
      <trkpt lat="43.73817" lon="6.63639">
        <ele>1259.2</ele>
        <time>2024-05-26T08:24:06Z</time>
      </trkpt>
      <trkpt lat="43.73819" lon="6.63639">
        <ele>1259.3</ele>
        <time>2024-05-26T08:24:07Z</time>
      </trkpt>
      <trkpt lat="43.7382" lon="6.63639">
        <ele>1259.5</ele>
        <time>2024-05-26T08:24:08Z</time>
      </trkpt>
      <trkpt lat="43.73821" lon="6.63638">
        <ele>1259.6</ele>
        <time>2024-05-26T08:24:09Z</time>
      </trkpt>
      <trkpt lat="43.73822" lon="6.63638">
        <ele>1259.8</ele>
        <time>2024-05-26T08:24:10Z</time>
      </trkpt>
      <trkpt lat="43.73824" lon="6.63638">
        <ele>1259.9</ele>
        <time>2024-05-26T08:24:11Z</time>
      </trkpt>
      <trkpt lat="43.73825" lon="6.63638">
        <ele>1260.1</ele>
        <time>2024-05-26T08:24:12Z</time>
      </trkpt>
      <trkpt lat="43.73825" lon="6.63638">
        <ele>1260.3</ele>
        <time>2024-05-26T08:24:13Z</time>
      </trkpt>
      <trkpt lat="43.73827" lon="6.63638">
        <ele>1260.5</ele>
        <time>2024-05-26T08:24:14Z</time>
      </trkpt>
      <trkpt lat="43.73829" lon="6.63638">
        <ele>1260.7</ele>
        <time>2024-05-26T08:24:15Z</time>
      </trkpt>
      <trkpt lat="43.73829" lon="6.63638">
        <ele>1260.8</ele>
        <time>2024-05-26T08:24:16Z</time>
      </trkpt>
      <trkpt lat="43.7383" lon="6.63638">
        <ele>1260.9</ele>
        <time>2024-05-26T08:24:17Z</time>
      </trkpt>
      <trkpt lat="43.7383" lon="6.63638">
        <ele>1261</ele>
        <time>2024-05-26T08:24:18Z</time>
      </trkpt>
      <trkpt lat="43.73831" lon="6.63639">
        <ele>1261.3</ele>
        <time>2024-05-26T08:24:19Z</time>
      </trkpt>
      <trkpt lat="43.73831" lon="6.63639">
        <ele>1261.4</ele>
        <time>2024-05-26T08:24:20Z</time>
      </trkpt>
      <trkpt lat="43.73831" lon="6.6364">
        <ele>1261.6</ele>
        <time>2024-05-26T08:24:21Z</time>
      </trkpt>
      <trkpt lat="43.7383" lon="6.63641">
        <ele>1261.8</ele>
        <time>2024-05-26T08:24:22Z</time>
      </trkpt>
      <trkpt lat="43.73831" lon="6.63641">
        <ele>1261.9</ele>
        <time>2024-05-26T08:24:23Z</time>
      </trkpt>
      <trkpt lat="43.73832" lon="6.63641">
        <ele>1262</ele>
        <time>2024-05-26T08:24:24Z</time>
      </trkpt>
      <trkpt lat="43.73833" lon="6.63641">
        <ele>1262.1</ele>
        <time>2024-05-26T08:24:25Z</time>
      </trkpt>
      <trkpt lat="43.73833" lon="6.6364">
        <ele>1262.3</ele>
        <time>2024-05-26T08:24:26Z</time>
      </trkpt>
      <trkpt lat="43.73835" lon="6.6364">
        <ele>1262.5</ele>
        <time>2024-05-26T08:24:27Z</time>
      </trkpt>
      <trkpt lat="43.73836" lon="6.63639">
        <ele>1262.6</ele>
        <time>2024-05-26T08:24:28Z</time>
      </trkpt>
      <trkpt lat="43.73837" lon="6.63639">
        <ele>1262.7</ele>
        <time>2024-05-26T08:24:29Z</time>
      </trkpt>
      <trkpt lat="43.73838" lon="6.63639">
        <ele>1262.8</ele>
        <time>2024-05-26T08:24:30Z</time>
      </trkpt>
      <trkpt lat="43.7384" lon="6.63637">
        <ele>1262.9</ele>
        <time>2024-05-26T08:24:31Z</time>
      </trkpt>
      <trkpt lat="43.73841" lon="6.63637">
        <ele>1262.9</ele>
        <time>2024-05-26T08:24:32Z</time>
      </trkpt>
      <trkpt lat="43.73842" lon="6.63637">
        <ele>1263</ele>
        <time>2024-05-26T08:24:33Z</time>
      </trkpt>
      <trkpt lat="43.73842" lon="6.63637">
        <ele>1263.1</ele>
        <time>2024-05-26T08:24:34Z</time>
      </trkpt>
      <trkpt lat="43.73843" lon="6.63636">
        <ele>1263.1</ele>
        <time>2024-05-26T08:24:35Z</time>
      </trkpt>
      <trkpt lat="43.73844" lon="6.63636">
        <ele>1263.2</ele>
        <time>2024-05-26T08:24:36Z</time>
      </trkpt>
      <trkpt lat="43.73846" lon="6.63636">
        <ele>1263.2</ele>
        <time>2024-05-26T08:24:37Z</time>
      </trkpt>
      <trkpt lat="43.73847" lon="6.63636">
        <ele>1263.4</ele>
        <time>2024-05-26T08:24:38Z</time>
      </trkpt>
      <trkpt lat="43.73848" lon="6.63636">
        <ele>1263.5</ele>
        <time>2024-05-26T08:24:39Z</time>
      </trkpt>
      <trkpt lat="43.73849" lon="6.63636">
        <ele>1263.6</ele>
        <time>2024-05-26T08:24:40Z</time>
      </trkpt>
      <trkpt lat="43.7385" lon="6.63636">
        <ele>1263.7</ele>
        <time>2024-05-26T08:24:41Z</time>
      </trkpt>
      <trkpt lat="43.73851" lon="6.63636">
        <ele>1263.8</ele>
        <time>2024-05-26T08:24:42Z</time>
      </trkpt>
      <trkpt lat="43.73852" lon="6.63636">
        <ele>1263.9</ele>
        <time>2024-05-26T08:24:43Z</time>
      </trkpt>
      <trkpt lat="43.73853" lon="6.63635">
        <ele>1264</ele>
        <time>2024-05-26T08:24:44Z</time>
      </trkpt>
      <trkpt lat="43.73853" lon="6.63634">
        <ele>1264</ele>
        <time>2024-05-26T08:24:45Z</time>
      </trkpt>
      <trkpt lat="43.73854" lon="6.63633">
        <ele>1264.1</ele>
        <time>2024-05-26T08:24:46Z</time>
      </trkpt>
      <trkpt lat="43.73854" lon="6.63634">
        <ele>1264.2</ele>
        <time>2024-05-26T08:24:47Z</time>
      </trkpt>
      <trkpt lat="43.73855" lon="6.63634">
        <ele>1264.3</ele>
        <time>2024-05-26T08:24:48Z</time>
      </trkpt>
      <trkpt lat="43.73857" lon="6.63634">
        <ele>1264.4</ele>
        <time>2024-05-26T08:24:49Z</time>
      </trkpt>
      <trkpt lat="43.73858" lon="6.63633">
        <ele>1264.4</ele>
        <time>2024-05-26T08:24:50Z</time>
      </trkpt>
      <trkpt lat="43.73858" lon="6.63633">
        <ele>1264.5</ele>
        <time>2024-05-26T08:24:51Z</time>
      </trkpt>
      <trkpt lat="43.73859" lon="6.63635">
        <ele>1264.6</ele>
        <time>2024-05-26T08:24:52Z</time>
      </trkpt>
      <trkpt lat="43.7386" lon="6.63636">
        <ele>1264.7</ele>
        <time>2024-05-26T08:24:53Z</time>
      </trkpt>
      <trkpt lat="43.73861" lon="6.63638">
        <ele>1264.8</ele>
        <time>2024-05-26T08:24:54Z</time>
      </trkpt>
      <trkpt lat="43.73862" lon="6.63638">
        <ele>1264.8</ele>
        <time>2024-05-26T08:24:55Z</time>
      </trkpt>
      <trkpt lat="43.73863" lon="6.63638">
        <ele>1264.9</ele>
        <time>2024-05-26T08:24:56Z</time>
      </trkpt>
      <trkpt lat="43.73864" lon="6.63639">
        <ele>1265</ele>
        <time>2024-05-26T08:24:57Z</time>
      </trkpt>
      <trkpt lat="43.73865" lon="6.63639">
        <ele>1265.1</ele>
        <time>2024-05-26T08:24:58Z</time>
      </trkpt>
      <trkpt lat="43.73865" lon="6.63639">
        <ele>1265.2</ele>
        <time>2024-05-26T08:24:59Z</time>
      </trkpt>
      <trkpt lat="43.73866" lon="6.6364">
        <ele>1265.4</ele>
        <time>2024-05-26T08:25:00Z</time>
      </trkpt>
      <trkpt lat="43.73867" lon="6.6364">
        <ele>1265.7</ele>
        <time>2024-05-26T08:25:01Z</time>
      </trkpt>
      <trkpt lat="43.73868" lon="6.6364">
        <ele>1266</ele>
        <time>2024-05-26T08:25:02Z</time>
      </trkpt>
      <trkpt lat="43.73869" lon="6.6364">
        <ele>1266.1</ele>
        <time>2024-05-26T08:25:03Z</time>
      </trkpt>
      <trkpt lat="43.73869" lon="6.6364">
        <ele>1266.3</ele>
        <time>2024-05-26T08:25:04Z</time>
      </trkpt>
      <trkpt lat="43.7387" lon="6.6364">
        <ele>1266.4</ele>
        <time>2024-05-26T08:25:05Z</time>
      </trkpt>
      <trkpt lat="43.7387" lon="6.63641">
        <ele>1266.6</ele>
        <time>2024-05-26T08:25:06Z</time>
      </trkpt>
      <trkpt lat="43.73871" lon="6.6364">
        <ele>1266.8</ele>
        <time>2024-05-26T08:25:07Z</time>
      </trkpt>
      <trkpt lat="43.73872" lon="6.6364">
        <ele>1267.1</ele>
        <time>2024-05-26T08:25:08Z</time>
      </trkpt>
      <trkpt lat="43.73873" lon="6.6364">
        <ele>1267.1</ele>
        <time>2024-05-26T08:25:09Z</time>
      </trkpt>
      <trkpt lat="43.73873" lon="6.6364">
        <ele>1267.3</ele>
        <time>2024-05-26T08:25:10Z</time>
      </trkpt>
      <trkpt lat="43.73873" lon="6.6364">
        <ele>1267.5</ele>
        <time>2024-05-26T08:25:11Z</time>
      </trkpt>
      <trkpt lat="43.73874" lon="6.6364">
        <ele>1267.6</ele>
        <time>2024-05-26T08:25:12Z</time>
      </trkpt>
      <trkpt lat="43.73875" lon="6.63641">
        <ele>1267.8</ele>
        <time>2024-05-26T08:25:13Z</time>
      </trkpt>
      <trkpt lat="43.73876" lon="6.6364">
        <ele>1268</ele>
        <time>2024-05-26T08:25:14Z</time>
      </trkpt>
      <trkpt lat="43.73877" lon="6.6364">
        <ele>1268.2</ele>
        <time>2024-05-26T08:25:15Z</time>
      </trkpt>
      <trkpt lat="43.73877" lon="6.6364">
        <ele>1268.3</ele>
        <time>2024-05-26T08:25:16Z</time>
      </trkpt>
      <trkpt lat="43.73878" lon="6.63641">
        <ele>1268.6</ele>
        <time>2024-05-26T08:25:17Z</time>
      </trkpt>
      <trkpt lat="43.73879" lon="6.63641">
        <ele>1268.8</ele>
        <time>2024-05-26T08:25:18Z</time>
      </trkpt>
      <trkpt lat="43.73881" lon="6.6364">
        <ele>1268.9</ele>
        <time>2024-05-26T08:25:19Z</time>
      </trkpt>
      <trkpt lat="43.73882" lon="6.6364">
        <ele>1269.1</ele>
        <time>2024-05-26T08:25:20Z</time>
      </trkpt>
      <trkpt lat="43.73883" lon="6.6364">
        <ele>1269.3</ele>
        <time>2024-05-26T08:25:21Z</time>
      </trkpt>
      <trkpt lat="43.73883" lon="6.6364">
        <ele>1269.3</ele>
        <time>2024-05-26T08:25:22Z</time>
      </trkpt>
      <trkpt lat="43.73883" lon="6.6364">
        <ele>1269.5</ele>
        <time>2024-05-26T08:25:23Z</time>
      </trkpt>
      <trkpt lat="43.73884" lon="6.6364">
        <ele>1269.7</ele>
        <time>2024-05-26T08:25:24Z</time>
      </trkpt>
      <trkpt lat="43.73885" lon="6.63639">
        <ele>1269.9</ele>
        <time>2024-05-26T08:25:25Z</time>
      </trkpt>
      <trkpt lat="43.73885" lon="6.63639">
        <ele>1270</ele>
        <time>2024-05-26T08:25:26Z</time>
      </trkpt>
      <trkpt lat="43.73886" lon="6.63639">
        <ele>1270.3</ele>
        <time>2024-05-26T08:25:27Z</time>
      </trkpt>
      <trkpt lat="43.73886" lon="6.63639">
        <ele>1270.5</ele>
        <time>2024-05-26T08:25:28Z</time>
      </trkpt>
      <trkpt lat="43.73887" lon="6.6364">
        <ele>1270.7</ele>
        <time>2024-05-26T08:25:29Z</time>
      </trkpt>
      <trkpt lat="43.73888" lon="6.63639">
        <ele>1270.8</ele>
        <time>2024-05-26T08:25:30Z</time>
      </trkpt>
      <trkpt lat="43.73889" lon="6.63639">
        <ele>1271</ele>
        <time>2024-05-26T08:25:31Z</time>
      </trkpt>
      <trkpt lat="43.7389" lon="6.63639">
        <ele>1271.2</ele>
        <time>2024-05-26T08:25:32Z</time>
      </trkpt>
      <trkpt lat="43.73891" lon="6.63639">
        <ele>1271.3</ele>
        <time>2024-05-26T08:25:33Z</time>
      </trkpt>
      <trkpt lat="43.73892" lon="6.6364">
        <ele>1271.5</ele>
        <time>2024-05-26T08:25:34Z</time>
      </trkpt>
      <trkpt lat="43.73893" lon="6.63641">
        <ele>1271.6</ele>
        <time>2024-05-26T08:25:35Z</time>
      </trkpt>
      <trkpt lat="43.73894" lon="6.6364">
        <ele>1271.8</ele>
        <time>2024-05-26T08:25:36Z</time>
      </trkpt>
      <trkpt lat="43.73894" lon="6.6364">
        <ele>1272</ele>
        <time>2024-05-26T08:25:37Z</time>
      </trkpt>
      <trkpt lat="43.73895" lon="6.6364">
        <ele>1272.2</ele>
        <time>2024-05-26T08:25:38Z</time>
      </trkpt>
      <trkpt lat="43.73896" lon="6.6364">
        <ele>1272.3</ele>
        <time>2024-05-26T08:25:39Z</time>
      </trkpt>
      <trkpt lat="43.73896" lon="6.6364">
        <ele>1272.5</ele>
        <time>2024-05-26T08:25:40Z</time>
      </trkpt>
      <trkpt lat="43.73897" lon="6.63641">
        <ele>1272.7</ele>
        <time>2024-05-26T08:25:41Z</time>
      </trkpt>
      <trkpt lat="43.73898" lon="6.63641">
        <ele>1272.9</ele>
        <time>2024-05-26T08:25:42Z</time>
      </trkpt>
      <trkpt lat="43.73899" lon="6.63641">
        <ele>1273</ele>
        <time>2024-05-26T08:25:43Z</time>
      </trkpt>
      <trkpt lat="43.739" lon="6.63641">
        <ele>1273.2</ele>
        <time>2024-05-26T08:25:44Z</time>
      </trkpt>
      <trkpt lat="43.739" lon="6.63641">
        <ele>1273.4</ele>
        <time>2024-05-26T08:25:45Z</time>
      </trkpt>
      <trkpt lat="43.73902" lon="6.63641">
        <ele>1273.7</ele>
        <time>2024-05-26T08:25:46Z</time>
      </trkpt>
      <trkpt lat="43.73901" lon="6.63641">
        <ele>1273.9</ele>
        <time>2024-05-26T08:25:47Z</time>
      </trkpt>
      <trkpt lat="43.73902" lon="6.63641">
        <ele>1274.1</ele>
        <time>2024-05-26T08:25:48Z</time>
      </trkpt>
      <trkpt lat="43.73901" lon="6.63642">
        <ele>1274.3</ele>
        <time>2024-05-26T08:25:49Z</time>
      </trkpt>
      <trkpt lat="43.73902" lon="6.63642">
        <ele>1274.4</ele>
        <time>2024-05-26T08:25:50Z</time>
      </trkpt>
      <trkpt lat="43.73904" lon="6.63641">
        <ele>1274.6</ele>
        <time>2024-05-26T08:25:51Z</time>
      </trkpt>
      <trkpt lat="43.73905" lon="6.63641">
        <ele>1274.7</ele>
        <time>2024-05-26T08:25:52Z</time>
      </trkpt>
      <trkpt lat="43.73906" lon="6.6364">
        <ele>1274.9</ele>
        <time>2024-05-26T08:25:53Z</time>
      </trkpt>
      <trkpt lat="43.73906" lon="6.6364">
        <ele>1275.1</ele>
        <time>2024-05-26T08:25:54Z</time>
      </trkpt>
      <trkpt lat="43.73906" lon="6.6364">
        <ele>1275.2</ele>
        <time>2024-05-26T08:25:55Z</time>
      </trkpt>
      <trkpt lat="43.73907" lon="6.6364">
        <ele>1275.4</ele>
        <time>2024-05-26T08:25:56Z</time>
      </trkpt>
      <trkpt lat="43.73907" lon="6.63639">
        <ele>1275.5</ele>
        <time>2024-05-26T08:25:57Z</time>
      </trkpt>
      <trkpt lat="43.73907" lon="6.63639">
        <ele>1275.6</ele>
        <time>2024-05-26T08:25:58Z</time>
      </trkpt>
      <trkpt lat="43.73908" lon="6.63639">
        <ele>1275.7</ele>
        <time>2024-05-26T08:25:59Z</time>
      </trkpt>
      <trkpt lat="43.73909" lon="6.6364">
        <ele>1275.8</ele>
        <time>2024-05-26T08:26:00Z</time>
      </trkpt>
      <trkpt lat="43.73909" lon="6.6364">
        <ele>1276</ele>
        <time>2024-05-26T08:26:01Z</time>
      </trkpt>
      <trkpt lat="43.7391" lon="6.6364">
        <ele>1276.1</ele>
        <time>2024-05-26T08:26:02Z</time>
      </trkpt>
      <trkpt lat="43.73911" lon="6.6364">
        <ele>1276.2</ele>
        <time>2024-05-26T08:26:03Z</time>
      </trkpt>
      <trkpt lat="43.73911" lon="6.63641">
        <ele>1276.2</ele>
        <time>2024-05-26T08:26:04Z</time>
      </trkpt>
      <trkpt lat="43.73912" lon="6.63641">
        <ele>1276.2</ele>
        <time>2024-05-26T08:26:05Z</time>
      </trkpt>
      <trkpt lat="43.73913" lon="6.63641">
        <ele>1276.4</ele>
        <time>2024-05-26T08:26:06Z</time>
      </trkpt>
      <trkpt lat="43.73914" lon="6.63641">
        <ele>1276.5</ele>
        <time>2024-05-26T08:26:07Z</time>
      </trkpt>
      <trkpt lat="43.73914" lon="6.63641">
        <ele>1276.7</ele>
        <time>2024-05-26T08:26:08Z</time>
      </trkpt>
      <trkpt lat="43.73915" lon="6.63641">
        <ele>1276.8</ele>
        <time>2024-05-26T08:26:09Z</time>
      </trkpt>
      <trkpt lat="43.73916" lon="6.6364">
        <ele>1276.9</ele>
        <time>2024-05-26T08:26:10Z</time>
      </trkpt>
      <trkpt lat="43.73916" lon="6.6364">
        <ele>1277</ele>
        <time>2024-05-26T08:26:11Z</time>
      </trkpt>
      <trkpt lat="43.73917" lon="6.6364">
        <ele>1277.1</ele>
        <time>2024-05-26T08:26:12Z</time>
      </trkpt>
      <trkpt lat="43.73918" lon="6.63641">
        <ele>1277.2</ele>
        <time>2024-05-26T08:26:13Z</time>
      </trkpt>
      <trkpt lat="43.73918" lon="6.63641">
        <ele>1277.4</ele>
        <time>2024-05-26T08:26:14Z</time>
      </trkpt>
      <trkpt lat="43.73919" lon="6.63641">
        <ele>1277.5</ele>
        <time>2024-05-26T08:26:15Z</time>
      </trkpt>
      <trkpt lat="43.73921" lon="6.63641">
        <ele>1277.5</ele>
        <time>2024-05-26T08:26:16Z</time>
      </trkpt>
      <trkpt lat="43.73922" lon="6.63641">
        <ele>1277.7</ele>
        <time>2024-05-26T08:26:17Z</time>
      </trkpt>
      <trkpt lat="43.73923" lon="6.63642">
        <ele>1277.9</ele>
        <time>2024-05-26T08:26:18Z</time>
      </trkpt>
      <trkpt lat="43.73924" lon="6.63641">
        <ele>1278.1</ele>
        <time>2024-05-26T08:26:19Z</time>
      </trkpt>
      <trkpt lat="43.73925" lon="6.63641">
        <ele>1278.3</ele>
        <time>2024-05-26T08:26:20Z</time>
      </trkpt>
      <trkpt lat="43.73926" lon="6.63641">
        <ele>1278.4</ele>
        <time>2024-05-26T08:26:21Z</time>
      </trkpt>
      <trkpt lat="43.73927" lon="6.63641">
        <ele>1278.5</ele>
        <time>2024-05-26T08:26:22Z</time>
      </trkpt>
      <trkpt lat="43.73928" lon="6.63641">
        <ele>1278.7</ele>
        <time>2024-05-26T08:26:23Z</time>
      </trkpt>
      <trkpt lat="43.73929" lon="6.63642">
        <ele>1278.9</ele>
        <time>2024-05-26T08:26:24Z</time>
      </trkpt>
      <trkpt lat="43.73929" lon="6.63641">
        <ele>1279.1</ele>
        <time>2024-05-26T08:26:25Z</time>
      </trkpt>
      <trkpt lat="43.7393" lon="6.63641">
        <ele>1279.3</ele>
        <time>2024-05-26T08:26:26Z</time>
      </trkpt>
      <trkpt lat="43.73931" lon="6.63642">
        <ele>1279.5</ele>
        <time>2024-05-26T08:26:27Z</time>
      </trkpt>
      <trkpt lat="43.73932" lon="6.63642">
        <ele>1279.6</ele>
        <time>2024-05-26T08:26:28Z</time>
      </trkpt>
      <trkpt lat="43.73933" lon="6.63642">
        <ele>1279.8</ele>
        <time>2024-05-26T08:26:29Z</time>
      </trkpt>
      <trkpt lat="43.73934" lon="6.63642">
        <ele>1279.9</ele>
        <time>2024-05-26T08:26:30Z</time>
      </trkpt>
      <trkpt lat="43.73934" lon="6.63642">
        <ele>1280.1</ele>
        <time>2024-05-26T08:26:31Z</time>
      </trkpt>
      <trkpt lat="43.73935" lon="6.63642">
        <ele>1280.3</ele>
        <time>2024-05-26T08:26:32Z</time>
      </trkpt>
      <trkpt lat="43.73935" lon="6.63641">
        <ele>1280.4</ele>
        <time>2024-05-26T08:26:33Z</time>
      </trkpt>
      <trkpt lat="43.73936" lon="6.63641">
        <ele>1280.6</ele>
        <time>2024-05-26T08:26:34Z</time>
      </trkpt>
      <trkpt lat="43.73937" lon="6.63641">
        <ele>1280.8</ele>
        <time>2024-05-26T08:26:35Z</time>
      </trkpt>
      <trkpt lat="43.73937" lon="6.6364">
        <ele>1281</ele>
        <time>2024-05-26T08:26:36Z</time>
      </trkpt>
      <trkpt lat="43.73936" lon="6.63638">
        <ele>1281.1</ele>
        <time>2024-05-26T08:26:37Z</time>
      </trkpt>
      <trkpt lat="43.73937" lon="6.63637">
        <ele>1281.2</ele>
        <time>2024-05-26T08:26:38Z</time>
      </trkpt>
      <trkpt lat="43.73938" lon="6.63637">
        <ele>1281.2</ele>
        <time>2024-05-26T08:26:39Z</time>
      </trkpt>
      <trkpt lat="43.73938" lon="6.63637">
        <ele>1281.2</ele>
        <time>2024-05-26T08:26:40Z</time>
      </trkpt>
      <trkpt lat="43.73938" lon="6.63637">
        <ele>1281.4</ele>
        <time>2024-05-26T08:26:41Z</time>
      </trkpt>
      <trkpt lat="43.73939" lon="6.63637">
        <ele>1281.6</ele>
        <time>2024-05-26T08:26:42Z</time>
      </trkpt>
      <trkpt lat="43.73939" lon="6.63637">
        <ele>1281.7</ele>
        <time>2024-05-26T08:26:43Z</time>
      </trkpt>
      <trkpt lat="43.7394" lon="6.63639">
        <ele>1281.9</ele>
        <time>2024-05-26T08:26:44Z</time>
      </trkpt>
      <trkpt lat="43.73941" lon="6.63639">
        <ele>1282.1</ele>
        <time>2024-05-26T08:26:45Z</time>
      </trkpt>
      <trkpt lat="43.73942" lon="6.63639">
        <ele>1282.2</ele>
        <time>2024-05-26T08:26:46Z</time>
      </trkpt>
      <trkpt lat="43.73943" lon="6.6364">
        <ele>1282.3</ele>
        <time>2024-05-26T08:26:47Z</time>
      </trkpt>
      <trkpt lat="43.73944" lon="6.6364">
        <ele>1282.5</ele>
        <time>2024-05-26T08:26:48Z</time>
      </trkpt>
      <trkpt lat="43.73944" lon="6.6364">
        <ele>1282.6</ele>
        <time>2024-05-26T08:26:49Z</time>
      </trkpt>
      <trkpt lat="43.73945" lon="6.63639">
        <ele>1282.7</ele>
        <time>2024-05-26T08:26:50Z</time>
      </trkpt>
      <trkpt lat="43.73946" lon="6.63639">
        <ele>1282.8</ele>
        <time>2024-05-26T08:26:51Z</time>
      </trkpt>
      <trkpt lat="43.73946" lon="6.63639">
        <ele>1282.9</ele>
        <time>2024-05-26T08:26:52Z</time>
      </trkpt>
      <trkpt lat="43.73946" lon="6.6364">
        <ele>1283.1</ele>
        <time>2024-05-26T08:26:53Z</time>
      </trkpt>
      <trkpt lat="43.73947" lon="6.6364">
        <ele>1283.2</ele>
        <time>2024-05-26T08:26:54Z</time>
      </trkpt>
      <trkpt lat="43.73948" lon="6.63641">
        <ele>1283.3</ele>
        <time>2024-05-26T08:26:55Z</time>
      </trkpt>
      <trkpt lat="43.73949" lon="6.63642">
        <ele>1283.3</ele>
        <time>2024-05-26T08:26:56Z</time>
      </trkpt>
      <trkpt lat="43.73949" lon="6.63643">
        <ele>1283.4</ele>
        <time>2024-05-26T08:26:57Z</time>
      </trkpt>
      <trkpt lat="43.7395" lon="6.63643">
        <ele>1283.4</ele>
        <time>2024-05-26T08:26:58Z</time>
      </trkpt>
      <trkpt lat="43.73951" lon="6.63645">
        <ele>1283.6</ele>
        <time>2024-05-26T08:26:59Z</time>
      </trkpt>
      <trkpt lat="43.73952" lon="6.63645">
        <ele>1283.6</ele>
        <time>2024-05-26T08:27:00Z</time>
      </trkpt>
      <trkpt lat="43.73952" lon="6.63645">
        <ele>1283.8</ele>
        <time>2024-05-26T08:27:01Z</time>
      </trkpt>
      <trkpt lat="43.73952" lon="6.63646">
        <ele>1284</ele>
        <time>2024-05-26T08:27:02Z</time>
      </trkpt>
      <trkpt lat="43.73953" lon="6.63647">
        <ele>1284.1</ele>
        <time>2024-05-26T08:27:03Z</time>
      </trkpt>
      <trkpt lat="43.73954" lon="6.63647">
        <ele>1284.2</ele>
        <time>2024-05-26T08:27:04Z</time>
      </trkpt>
      <trkpt lat="43.73954" lon="6.63648">
        <ele>1284.3</ele>
        <time>2024-05-26T08:27:05Z</time>
      </trkpt>
      <trkpt lat="43.73955" lon="6.63647">
        <ele>1284.4</ele>
        <time>2024-05-26T08:27:06Z</time>
      </trkpt>
      <trkpt lat="43.73956" lon="6.63648">
        <ele>1284.5</ele>
        <time>2024-05-26T08:27:07Z</time>
      </trkpt>
      <trkpt lat="43.73956" lon="6.63648">
        <ele>1284.7</ele>
        <time>2024-05-26T08:27:08Z</time>
      </trkpt>
      <trkpt lat="43.73957" lon="6.63648">
        <ele>1284.8</ele>
        <time>2024-05-26T08:27:09Z</time>
      </trkpt>
      <trkpt lat="43.73958" lon="6.63649">
        <ele>1284.9</ele>
        <time>2024-05-26T08:27:10Z</time>
      </trkpt>
      <trkpt lat="43.73959" lon="6.63649">
        <ele>1285</ele>
        <time>2024-05-26T08:27:11Z</time>
      </trkpt>
      <trkpt lat="43.73959" lon="6.63649">
        <ele>1285.2</ele>
        <time>2024-05-26T08:27:12Z</time>
      </trkpt>
      <trkpt lat="43.73959" lon="6.6365">
        <ele>1285.3</ele>
        <time>2024-05-26T08:27:13Z</time>
      </trkpt>
      <trkpt lat="43.7396" lon="6.6365">
        <ele>1285.4</ele>
        <time>2024-05-26T08:27:14Z</time>
      </trkpt>
      <trkpt lat="43.7396" lon="6.63651">
        <ele>1285.6</ele>
        <time>2024-05-26T08:27:15Z</time>
      </trkpt>
      <trkpt lat="43.73961" lon="6.63651">
        <ele>1285.7</ele>
        <time>2024-05-26T08:27:16Z</time>
      </trkpt>
      <trkpt lat="43.73962" lon="6.63651">
        <ele>1285.9</ele>
        <time>2024-05-26T08:27:17Z</time>
      </trkpt>
      <trkpt lat="43.73962" lon="6.63651">
        <ele>1286</ele>
        <time>2024-05-26T08:27:18Z</time>
      </trkpt>
      <trkpt lat="43.73963" lon="6.63651">
        <ele>1286.2</ele>
        <time>2024-05-26T08:27:19Z</time>
      </trkpt>
      <trkpt lat="43.73963" lon="6.63651">
        <ele>1286.4</ele>
        <time>2024-05-26T08:27:20Z</time>
      </trkpt>
      <trkpt lat="43.73963" lon="6.63652">
        <ele>1286.6</ele>
        <time>2024-05-26T08:27:21Z</time>
      </trkpt>
      <trkpt lat="43.73964" lon="6.63652">
        <ele>1286.8</ele>
        <time>2024-05-26T08:27:22Z</time>
      </trkpt>
      <trkpt lat="43.73964" lon="6.63653">
        <ele>1287</ele>
        <time>2024-05-26T08:27:23Z</time>
      </trkpt>
      <trkpt lat="43.73965" lon="6.63653">
        <ele>1287.2</ele>
        <time>2024-05-26T08:27:24Z</time>
      </trkpt>
      <trkpt lat="43.73966" lon="6.63654">
        <ele>1287.4</ele>
        <time>2024-05-26T08:27:25Z</time>
      </trkpt>
      <trkpt lat="43.73967" lon="6.63653">
        <ele>1287.6</ele>
        <time>2024-05-26T08:27:26Z</time>
      </trkpt>
      <trkpt lat="43.73967" lon="6.63653">
        <ele>1287.8</ele>
        <time>2024-05-26T08:27:27Z</time>
      </trkpt>
      <trkpt lat="43.73968" lon="6.63654">
        <ele>1287.9</ele>
        <time>2024-05-26T08:27:28Z</time>
      </trkpt>
      <trkpt lat="43.73969" lon="6.63654">
        <ele>1288.1</ele>
        <time>2024-05-26T08:27:29Z</time>
      </trkpt>
      <trkpt lat="43.73969" lon="6.63655">
        <ele>1288.2</ele>
        <time>2024-05-26T08:27:30Z</time>
      </trkpt>
      <trkpt lat="43.7397" lon="6.63655">
        <ele>1288.5</ele>
        <time>2024-05-26T08:27:31Z</time>
      </trkpt>
      <trkpt lat="43.73971" lon="6.63655">
        <ele>1288.7</ele>
        <time>2024-05-26T08:27:32Z</time>
      </trkpt>
      <trkpt lat="43.73971" lon="6.63656">
        <ele>1288.9</ele>
        <time>2024-05-26T08:27:33Z</time>
      </trkpt>
      <trkpt lat="43.73972" lon="6.63656">
        <ele>1289.3</ele>
        <time>2024-05-26T08:27:34Z</time>
      </trkpt>
      <trkpt lat="43.73973" lon="6.63657">
        <ele>1289.5</ele>
        <time>2024-05-26T08:27:35Z</time>
      </trkpt>
      <trkpt lat="43.73973" lon="6.63658">
        <ele>1289.7</ele>
        <time>2024-05-26T08:27:36Z</time>
      </trkpt>
      <trkpt lat="43.73974" lon="6.63658">
        <ele>1289.8</ele>
        <time>2024-05-26T08:27:37Z</time>
      </trkpt>
      <trkpt lat="43.73974" lon="6.63659">
        <ele>1290</ele>
        <time>2024-05-26T08:27:38Z</time>
      </trkpt>
      <trkpt lat="43.73974" lon="6.63659">
        <ele>1290.2</ele>
        <time>2024-05-26T08:27:39Z</time>
      </trkpt>
      <trkpt lat="43.73975" lon="6.6366">
        <ele>1290.4</ele>
        <time>2024-05-26T08:27:40Z</time>
      </trkpt>
      <trkpt lat="43.73976" lon="6.6366">
        <ele>1290.6</ele>
        <time>2024-05-26T08:27:41Z</time>
      </trkpt>
      <trkpt lat="43.73976" lon="6.63659">
        <ele>1290.8</ele>
        <time>2024-05-26T08:27:42Z</time>
      </trkpt>
      <trkpt lat="43.73977" lon="6.6366">
        <ele>1291.2</ele>
        <time>2024-05-26T08:27:43Z</time>
      </trkpt>
      <trkpt lat="43.73977" lon="6.63661">
        <ele>1291.5</ele>
        <time>2024-05-26T08:27:44Z</time>
      </trkpt>
      <trkpt lat="43.73978" lon="6.63661">
        <ele>1291.6</ele>
        <time>2024-05-26T08:27:45Z</time>
      </trkpt>
      <trkpt lat="43.73978" lon="6.63661">
        <ele>1291.9</ele>
        <time>2024-05-26T08:27:46Z</time>
      </trkpt>
      <trkpt lat="43.73979" lon="6.6366">
        <ele>1292.2</ele>
        <time>2024-05-26T08:27:47Z</time>
      </trkpt>
      <trkpt lat="43.73979" lon="6.6366">
        <ele>1292.5</ele>
        <time>2024-05-26T08:27:48Z</time>
      </trkpt>
      <trkpt lat="43.73979" lon="6.6366">
        <ele>1292.5</ele>
        <time>2024-05-26T08:27:49Z</time>
      </trkpt>
      <trkpt lat="43.73979" lon="6.6366">
        <ele>1292.6</ele>
        <time>2024-05-26T08:27:50Z</time>
      </trkpt>
      <trkpt lat="43.73979" lon="6.63661">
        <ele>1292.7</ele>
        <time>2024-05-26T08:27:51Z</time>
      </trkpt>
      <trkpt lat="43.73979" lon="6.63661">
        <ele>1292.8</ele>
        <time>2024-05-26T08:27:52Z</time>
      </trkpt>
      <trkpt lat="43.7398" lon="6.63662">
        <ele>1292.9</ele>
        <time>2024-05-26T08:27:53Z</time>
      </trkpt>
      <trkpt lat="43.7398" lon="6.63663">
        <ele>1292.9</ele>
        <time>2024-05-26T08:27:54Z</time>
      </trkpt>
      <trkpt lat="43.7398" lon="6.63664">
        <ele>1293.1</ele>
        <time>2024-05-26T08:27:55Z</time>
      </trkpt>
      <trkpt lat="43.73981" lon="6.63665">
        <ele>1293.4</ele>
        <time>2024-05-26T08:27:56Z</time>
      </trkpt>
      <trkpt lat="43.73981" lon="6.63665">
        <ele>1293.5</ele>
        <time>2024-05-26T08:27:57Z</time>
      </trkpt>
      <trkpt lat="43.73981" lon="6.63666">
        <ele>1293.8</ele>
        <time>2024-05-26T08:27:58Z</time>
      </trkpt>
      <trkpt lat="43.73982" lon="6.63667">
        <ele>1294.1</ele>
        <time>2024-05-26T08:27:59Z</time>
      </trkpt>
      <trkpt lat="43.73982" lon="6.63667">
        <ele>1294.4</ele>
        <time>2024-05-26T08:28:00Z</time>
      </trkpt>
      <trkpt lat="43.73982" lon="6.63668">
        <ele>1294.6</ele>
        <time>2024-05-26T08:28:01Z</time>
      </trkpt>
      <trkpt lat="43.73983" lon="6.63669">
        <ele>1294.8</ele>
        <time>2024-05-26T08:28:02Z</time>
      </trkpt>
      <trkpt lat="43.73983" lon="6.63669">
        <ele>1295</ele>
        <time>2024-05-26T08:28:03Z</time>
      </trkpt>
      <trkpt lat="43.73983" lon="6.6367">
        <ele>1295.2</ele>
        <time>2024-05-26T08:28:04Z</time>
      </trkpt>
      <trkpt lat="43.73984" lon="6.63671">
        <ele>1295.3</ele>
        <time>2024-05-26T08:28:05Z</time>
      </trkpt>
      <trkpt lat="43.73984" lon="6.63671">
        <ele>1295.6</ele>
        <time>2024-05-26T08:28:06Z</time>
      </trkpt>
      <trkpt lat="43.73984" lon="6.63672">
        <ele>1295.8</ele>
        <time>2024-05-26T08:28:07Z</time>
      </trkpt>
      <trkpt lat="43.73984" lon="6.63673">
        <ele>1295.9</ele>
        <time>2024-05-26T08:28:08Z</time>
      </trkpt>
      <trkpt lat="43.73984" lon="6.63673">
        <ele>1296.2</ele>
        <time>2024-05-26T08:28:09Z</time>
      </trkpt>
      <trkpt lat="43.73985" lon="6.63674">
        <ele>1296.6</ele>
        <time>2024-05-26T08:28:10Z</time>
      </trkpt>
      <trkpt lat="43.73985" lon="6.63674">
        <ele>1296.8</ele>
        <time>2024-05-26T08:28:11Z</time>
      </trkpt>
      <trkpt lat="43.73985" lon="6.63675">
        <ele>1296.9</ele>
        <time>2024-05-26T08:28:12Z</time>
      </trkpt>
      <trkpt lat="43.73985" lon="6.63675">
        <ele>1297</ele>
        <time>2024-05-26T08:28:13Z</time>
      </trkpt>
      <trkpt lat="43.73986" lon="6.63676">
        <ele>1297.1</ele>
        <time>2024-05-26T08:28:14Z</time>
      </trkpt>
      <trkpt lat="43.73986" lon="6.63677">
        <ele>1297.3</ele>
        <time>2024-05-26T08:28:15Z</time>
      </trkpt>
      <trkpt lat="43.73986" lon="6.63677">
        <ele>1297.4</ele>
        <time>2024-05-26T08:28:16Z</time>
      </trkpt>
      <trkpt lat="43.73987" lon="6.63677">
        <ele>1297.5</ele>
        <time>2024-05-26T08:28:17Z</time>
      </trkpt>
      <trkpt lat="43.73987" lon="6.63678">
        <ele>1297.8</ele>
        <time>2024-05-26T08:28:18Z</time>
      </trkpt>
      <trkpt lat="43.73987" lon="6.63679">
        <ele>1298</ele>
        <time>2024-05-26T08:28:19Z</time>
      </trkpt>
      <trkpt lat="43.73987" lon="6.63679">
        <ele>1298.1</ele>
        <time>2024-05-26T08:28:20Z</time>
      </trkpt>
      <trkpt lat="43.73988" lon="6.6368">
        <ele>1298.3</ele>
        <time>2024-05-26T08:28:21Z</time>
      </trkpt>
      <trkpt lat="43.73988" lon="6.6368">
        <ele>1298.4</ele>
        <time>2024-05-26T08:28:22Z</time>
      </trkpt>
      <trkpt lat="43.73989" lon="6.6368">
        <ele>1298.5</ele>
        <time>2024-05-26T08:28:23Z</time>
      </trkpt>
      <trkpt lat="43.73989" lon="6.63681">
        <ele>1298.8</ele>
        <time>2024-05-26T08:28:24Z</time>
      </trkpt>
      <trkpt lat="43.73989" lon="6.63682">
        <ele>1298.9</ele>
        <time>2024-05-26T08:28:25Z</time>
      </trkpt>
      <trkpt lat="43.7399" lon="6.63682">
        <ele>1299.1</ele>
        <time>2024-05-26T08:28:26Z</time>
      </trkpt>
      <trkpt lat="43.7399" lon="6.63683">
        <ele>1299.3</ele>
        <time>2024-05-26T08:28:27Z</time>
      </trkpt>
      <trkpt lat="43.7399" lon="6.63684">
        <ele>1299.5</ele>
        <time>2024-05-26T08:28:28Z</time>
      </trkpt>
      <trkpt lat="43.73991" lon="6.63684">
        <ele>1299.7</ele>
        <time>2024-05-26T08:28:29Z</time>
      </trkpt>
      <trkpt lat="43.73991" lon="6.63685">
        <ele>1299.9</ele>
        <time>2024-05-26T08:28:30Z</time>
      </trkpt>
      <trkpt lat="43.73992" lon="6.63685">
        <ele>1300.1</ele>
        <time>2024-05-26T08:28:31Z</time>
      </trkpt>
      <trkpt lat="43.73992" lon="6.63686">
        <ele>1300.3</ele>
        <time>2024-05-26T08:28:32Z</time>
      </trkpt>
      <trkpt lat="43.73992" lon="6.63686">
        <ele>1300.5</ele>
        <time>2024-05-26T08:28:33Z</time>
      </trkpt>
      <trkpt lat="43.73993" lon="6.63686">
        <ele>1300.7</ele>
        <time>2024-05-26T08:28:34Z</time>
      </trkpt>
      <trkpt lat="43.73994" lon="6.63686">
        <ele>1300.9</ele>
        <time>2024-05-26T08:28:35Z</time>
      </trkpt>
      <trkpt lat="43.73994" lon="6.63686">
        <ele>1301.1</ele>
        <time>2024-05-26T08:28:36Z</time>
      </trkpt>
      <trkpt lat="43.73995" lon="6.63686">
        <ele>1301.2</ele>
        <time>2024-05-26T08:28:37Z</time>
      </trkpt>
      <trkpt lat="43.73995" lon="6.63685">
        <ele>1301.4</ele>
        <time>2024-05-26T08:28:38Z</time>
      </trkpt>
      <trkpt lat="43.73996" lon="6.63685">
        <ele>1301.6</ele>
        <time>2024-05-26T08:28:39Z</time>
      </trkpt>
      <trkpt lat="43.73996" lon="6.63685">
        <ele>1301.7</ele>
        <time>2024-05-26T08:28:40Z</time>
      </trkpt>
      <trkpt lat="43.73997" lon="6.63685">
        <ele>1301.8</ele>
        <time>2024-05-26T08:28:41Z</time>
      </trkpt>
      <trkpt lat="43.73997" lon="6.63685">
        <ele>1301.9</ele>
        <time>2024-05-26T08:28:42Z</time>
      </trkpt>
      <trkpt lat="43.73997" lon="6.63685">
        <ele>1301.9</ele>
        <time>2024-05-26T08:28:43Z</time>
      </trkpt>
      <trkpt lat="43.73998" lon="6.63685">
        <ele>1302</ele>
        <time>2024-05-26T08:28:44Z</time>
      </trkpt>
      <trkpt lat="43.73999" lon="6.63686">
        <ele>1302</ele>
        <time>2024-05-26T08:28:45Z</time>
      </trkpt>
      <trkpt lat="43.74" lon="6.63686">
        <ele>1302.1</ele>
        <time>2024-05-26T08:28:46Z</time>
      </trkpt>
      <trkpt lat="43.74001" lon="6.63686">
        <ele>1302.2</ele>
        <time>2024-05-26T08:28:47Z</time>
      </trkpt>
      <trkpt lat="43.74002" lon="6.63686">
        <ele>1302.3</ele>
        <time>2024-05-26T08:28:48Z</time>
      </trkpt>
      <trkpt lat="43.74002" lon="6.63685">
        <ele>1302.4</ele>
        <time>2024-05-26T08:28:49Z</time>
      </trkpt>
      <trkpt lat="43.74003" lon="6.63685">
        <ele>1302.4</ele>
        <time>2024-05-26T08:28:50Z</time>
      </trkpt>
      <trkpt lat="43.74003" lon="6.63685">
        <ele>1302.4</ele>
        <time>2024-05-26T08:28:51Z</time>
      </trkpt>
      <trkpt lat="43.74003" lon="6.63685">
        <ele>1302.5</ele>
        <time>2024-05-26T08:28:52Z</time>
      </trkpt>
      <trkpt lat="43.74004" lon="6.63685">
        <ele>1302.6</ele>
        <time>2024-05-26T08:28:53Z</time>
      </trkpt>
      <trkpt lat="43.74004" lon="6.63685">
        <ele>1302.7</ele>
        <time>2024-05-26T08:28:54Z</time>
      </trkpt>
      <trkpt lat="43.74004" lon="6.63685">
        <ele>1302.7</ele>
        <time>2024-05-26T08:28:55Z</time>
      </trkpt>
      <trkpt lat="43.74004" lon="6.63684">
        <ele>1302.7</ele>
        <time>2024-05-26T08:28:56Z</time>
      </trkpt>
      <trkpt lat="43.74005" lon="6.63685">
        <ele>1302.7</ele>
        <time>2024-05-26T08:28:57Z</time>
      </trkpt>
      <trkpt lat="43.74005" lon="6.63685">
        <ele>1302.8</ele>
        <time>2024-05-26T08:28:58Z</time>
      </trkpt>
      <trkpt lat="43.74005" lon="6.63685">
        <ele>1302.8</ele>
        <time>2024-05-26T08:28:59Z</time>
      </trkpt>
      <trkpt lat="43.74005" lon="6.63685">
        <ele>1302.8</ele>
        <time>2024-05-26T08:29:00Z</time>
      </trkpt>
      <trkpt lat="43.74005" lon="6.63685">
        <ele>1302.9</ele>
        <time>2024-05-26T08:29:01Z</time>
      </trkpt>
      <trkpt lat="43.74005" lon="6.63685">
        <ele>1303</ele>
        <time>2024-05-26T08:29:02Z</time>
      </trkpt>
      <trkpt lat="43.74005" lon="6.63685">
        <ele>1302.9</ele>
        <time>2024-05-26T08:29:03Z</time>
      </trkpt>
      <trkpt lat="43.74005" lon="6.63685">
        <ele>1302.9</ele>
        <time>2024-05-26T08:29:04Z</time>
      </trkpt>
      <trkpt lat="43.74005" lon="6.63685">
        <ele>1302.8</ele>
        <time>2024-05-26T08:29:05Z</time>
      </trkpt>
      <trkpt lat="43.74005" lon="6.63685">
        <ele>1302.8</ele>
        <time>2024-05-26T08:29:06Z</time>
      </trkpt>
      <trkpt lat="43.74005" lon="6.63685">
        <ele>1302.8</ele>
        <time>2024-05-26T08:29:07Z</time>
      </trkpt>
      <trkpt lat="43.74005" lon="6.63685">
        <ele>1302.9</ele>
        <time>2024-05-26T08:29:08Z</time>
      </trkpt>
      <trkpt lat="43.74005" lon="6.63685">
        <ele>1302.9</ele>
        <time>2024-05-26T08:29:09Z</time>
      </trkpt>
      <trkpt lat="43.74005" lon="6.63685">
        <ele>1303</ele>
        <time>2024-05-26T08:29:10Z</time>
      </trkpt>
      <trkpt lat="43.74005" lon="6.63685">
        <ele>1303</ele>
        <time>2024-05-26T08:29:11Z</time>
      </trkpt>
      <trkpt lat="43.74005" lon="6.63685">
        <ele>1303.1</ele>
        <time>2024-05-26T08:29:12Z</time>
      </trkpt>
      <trkpt lat="43.74005" lon="6.63685">
        <ele>1303.1</ele>
        <time>2024-05-26T08:29:13Z</time>
      </trkpt>
      <trkpt lat="43.74005" lon="6.63685">
        <ele>1303.2</ele>
        <time>2024-05-26T08:29:14Z</time>
      </trkpt>
      <trkpt lat="43.74005" lon="6.63685">
        <ele>1303.2</ele>
        <time>2024-05-26T08:29:15Z</time>
      </trkpt>
      <trkpt lat="43.74005" lon="6.63685">
        <ele>1303.2</ele>
        <time>2024-05-26T08:29:16Z</time>
      </trkpt>
      <trkpt lat="43.74004" lon="6.63685">
        <ele>1303.1</ele>
        <time>2024-05-26T08:29:17Z</time>
      </trkpt>
      <trkpt lat="43.74004" lon="6.63685">
        <ele>1303.1</ele>
        <time>2024-05-26T08:29:18Z</time>
      </trkpt>
      <trkpt lat="43.74004" lon="6.63685">
        <ele>1303.1</ele>
        <time>2024-05-26T08:29:19Z</time>
      </trkpt>
      <trkpt lat="43.74004" lon="6.63685">
        <ele>1303</ele>
        <time>2024-05-26T08:29:20Z</time>
      </trkpt>
      <trkpt lat="43.74004" lon="6.63685">
        <ele>1303</ele>
        <time>2024-05-26T08:29:21Z</time>
      </trkpt>
      <trkpt lat="43.74004" lon="6.63685">
        <ele>1303</ele>
        <time>2024-05-26T08:29:22Z</time>
      </trkpt>
      <trkpt lat="43.74004" lon="6.63685">
        <ele>1303</ele>
        <time>2024-05-26T08:29:23Z</time>
      </trkpt>
      <trkpt lat="43.74004" lon="6.63685">
        <ele>1303</ele>
        <time>2024-05-26T08:29:24Z</time>
      </trkpt>
      <trkpt lat="43.74004" lon="6.63685">
        <ele>1303.1</ele>
        <time>2024-05-26T08:29:25Z</time>
      </trkpt>
      <trkpt lat="43.74004" lon="6.63685">
        <ele>1303.1</ele>
        <time>2024-05-26T08:29:26Z</time>
      </trkpt>
      <trkpt lat="43.74004" lon="6.63685">
        <ele>1303.1</ele>
        <time>2024-05-26T08:29:27Z</time>
      </trkpt>
      <trkpt lat="43.74004" lon="6.63685">
        <ele>1303</ele>
        <time>2024-05-26T08:29:28Z</time>
      </trkpt>
      <trkpt lat="43.74004" lon="6.63685">
        <ele>1302.9</ele>
        <time>2024-05-26T08:29:29Z</time>
      </trkpt>
      <trkpt lat="43.74004" lon="6.63685">
        <ele>1302.9</ele>
        <time>2024-05-26T08:29:30Z</time>
      </trkpt>
      <trkpt lat="43.74004" lon="6.63685">
        <ele>1303</ele>
        <time>2024-05-26T08:29:31Z</time>
      </trkpt>
      <trkpt lat="43.74004" lon="6.63685">
        <ele>1303.1</ele>
        <time>2024-05-26T08:29:32Z</time>
      </trkpt>
      <trkpt lat="43.74004" lon="6.63685">
        <ele>1303.2</ele>
        <time>2024-05-26T08:29:33Z</time>
      </trkpt>
      <trkpt lat="43.74004" lon="6.63685">
        <ele>1303.2</ele>
        <time>2024-05-26T08:29:34Z</time>
      </trkpt>
      <trkpt lat="43.74004" lon="6.63685">
        <ele>1303.2</ele>
        <time>2024-05-26T08:29:35Z</time>
      </trkpt>
      <trkpt lat="43.74004" lon="6.63685">
        <ele>1303.2</ele>
        <time>2024-05-26T08:29:36Z</time>
      </trkpt>
      <trkpt lat="43.74005" lon="6.63685">
        <ele>1303.2</ele>
        <time>2024-05-26T08:29:37Z</time>
      </trkpt>
      <trkpt lat="43.74005" lon="6.63685">
        <ele>1303.2</ele>
        <time>2024-05-26T08:29:38Z</time>
      </trkpt>
      <trkpt lat="43.74005" lon="6.63685">
        <ele>1303.2</ele>
        <time>2024-05-26T08:29:39Z</time>
      </trkpt>
      <trkpt lat="43.74005" lon="6.63685">
        <ele>1303.2</ele>
        <time>2024-05-26T08:29:40Z</time>
      </trkpt>
      <trkpt lat="43.74005" lon="6.63684">
        <ele>1303.1</ele>
        <time>2024-05-26T08:29:41Z</time>
      </trkpt>
      <trkpt lat="43.74006" lon="6.63684">
        <ele>1303.1</ele>
        <time>2024-05-26T08:29:42Z</time>
      </trkpt>
      <trkpt lat="43.74006" lon="6.63684">
        <ele>1303.1</ele>
        <time>2024-05-26T08:29:43Z</time>
      </trkpt>
      <trkpt lat="43.74006" lon="6.63684">
        <ele>1303.1</ele>
        <time>2024-05-26T08:29:44Z</time>
      </trkpt>
      <trkpt lat="43.74006" lon="6.63684">
        <ele>1303.1</ele>
        <time>2024-05-26T08:29:45Z</time>
      </trkpt>
      <trkpt lat="43.74006" lon="6.63684">
        <ele>1303.1</ele>
        <time>2024-05-26T08:29:46Z</time>
      </trkpt>
      <trkpt lat="43.74006" lon="6.63684">
        <ele>1303.1</ele>
        <time>2024-05-26T08:29:47Z</time>
      </trkpt>
      <trkpt lat="43.74006" lon="6.63684">
        <ele>1303.1</ele>
        <time>2024-05-26T08:29:48Z</time>
      </trkpt>
      <trkpt lat="43.74006" lon="6.63684">
        <ele>1303.1</ele>
        <time>2024-05-26T08:29:49Z</time>
      </trkpt>
      <trkpt lat="43.74007" lon="6.63684">
        <ele>1303.1</ele>
        <time>2024-05-26T08:29:50Z</time>
      </trkpt>
      <trkpt lat="43.74006" lon="6.63684">
        <ele>1303.1</ele>
        <time>2024-05-26T08:29:51Z</time>
      </trkpt>
      <trkpt lat="43.74006" lon="6.63684">
        <ele>1303.2</ele>
        <time>2024-05-26T08:29:52Z</time>
      </trkpt>
      <trkpt lat="43.74006" lon="6.63684">
        <ele>1303.2</ele>
        <time>2024-05-26T08:29:53Z</time>
      </trkpt>
      <trkpt lat="43.74006" lon="6.63684">
        <ele>1303.2</ele>
        <time>2024-05-26T08:29:54Z</time>
      </trkpt>
      <trkpt lat="43.74006" lon="6.63683">
        <ele>1303.2</ele>
        <time>2024-05-26T08:29:55Z</time>
      </trkpt>
      <trkpt lat="43.74006" lon="6.63683">
        <ele>1303.2</ele>
        <time>2024-05-26T08:29:56Z</time>
      </trkpt>
      <trkpt lat="43.74006" lon="6.63683">
        <ele>1303.2</ele>
        <time>2024-05-26T08:29:57Z</time>
      </trkpt>
      <trkpt lat="43.74007" lon="6.63683">
        <ele>1303.2</ele>
        <time>2024-05-26T08:29:58Z</time>
      </trkpt>
      <trkpt lat="43.74007" lon="6.63683">
        <ele>1303.2</ele>
        <time>2024-05-26T08:29:59Z</time>
      </trkpt>
      <trkpt lat="43.74007" lon="6.63684">
        <ele>1303.2</ele>
        <time>2024-05-26T08:30:00Z</time>
      </trkpt>
      <trkpt lat="43.74007" lon="6.63684">
        <ele>1303.2</ele>
        <time>2024-05-26T08:30:01Z</time>
      </trkpt>
      <trkpt lat="43.74007" lon="6.63684">
        <ele>1303.3</ele>
        <time>2024-05-26T08:30:02Z</time>
      </trkpt>
      <trkpt lat="43.74007" lon="6.63684">
        <ele>1303.2</ele>
        <time>2024-05-26T08:30:03Z</time>
      </trkpt>
      <trkpt lat="43.74007" lon="6.63684">
        <ele>1303.2</ele>
        <time>2024-05-26T08:30:04Z</time>
      </trkpt>
      <trkpt lat="43.74007" lon="6.63684">
        <ele>1303.2</ele>
        <time>2024-05-26T08:30:05Z</time>
      </trkpt>
      <trkpt lat="43.74007" lon="6.63684">
        <ele>1303.2</ele>
        <time>2024-05-26T08:30:06Z</time>
      </trkpt>
      <trkpt lat="43.74007" lon="6.63684">
        <ele>1303.2</ele>
        <time>2024-05-26T08:30:07Z</time>
      </trkpt>
      <trkpt lat="43.74008" lon="6.63684">
        <ele>1303.2</ele>
        <time>2024-05-26T08:30:08Z</time>
      </trkpt>
      <trkpt lat="43.74008" lon="6.63684">
        <ele>1303.1</ele>
        <time>2024-05-26T08:30:09Z</time>
      </trkpt>
      <trkpt lat="43.74008" lon="6.63684">
        <ele>1303.1</ele>
        <time>2024-05-26T08:30:10Z</time>
      </trkpt>
      <trkpt lat="43.74008" lon="6.63684">
        <ele>1303.1</ele>
        <time>2024-05-26T08:30:11Z</time>
      </trkpt>
      <trkpt lat="43.74008" lon="6.63684">
        <ele>1303</ele>
        <time>2024-05-26T08:30:12Z</time>
      </trkpt>
      <trkpt lat="43.74008" lon="6.63684">
        <ele>1303</ele>
        <time>2024-05-26T08:30:13Z</time>
      </trkpt>
      <trkpt lat="43.74008" lon="6.63684">
        <ele>1303</ele>
        <time>2024-05-26T08:30:14Z</time>
      </trkpt>
      <trkpt lat="43.74008" lon="6.63684">
        <ele>1303</ele>
        <time>2024-05-26T08:30:15Z</time>
      </trkpt>
      <trkpt lat="43.74008" lon="6.63684">
        <ele>1302.9</ele>
        <time>2024-05-26T08:30:16Z</time>
      </trkpt>
      <trkpt lat="43.74008" lon="6.63684">
        <ele>1302.8</ele>
        <time>2024-05-26T08:30:17Z</time>
      </trkpt>
      <trkpt lat="43.74008" lon="6.63684">
        <ele>1302.8</ele>
        <time>2024-05-26T08:30:18Z</time>
      </trkpt>
      <trkpt lat="43.74008" lon="6.63684">
        <ele>1302.8</ele>
        <time>2024-05-26T08:30:19Z</time>
      </trkpt>
      <trkpt lat="43.74008" lon="6.63684">
        <ele>1302.8</ele>
        <time>2024-05-26T08:30:20Z</time>
      </trkpt>
      <trkpt lat="43.74008" lon="6.63684">
        <ele>1302.8</ele>
        <time>2024-05-26T08:30:21Z</time>
      </trkpt>
      <trkpt lat="43.74008" lon="6.63684">
        <ele>1302.8</ele>
        <time>2024-05-26T08:30:22Z</time>
      </trkpt>
      <trkpt lat="43.74008" lon="6.63684">
        <ele>1302.8</ele>
        <time>2024-05-26T08:30:23Z</time>
      </trkpt>
      <trkpt lat="43.74008" lon="6.63685">
        <ele>1302.8</ele>
        <time>2024-05-26T08:30:24Z</time>
      </trkpt>
      <trkpt lat="43.74008" lon="6.63685">
        <ele>1302.8</ele>
        <time>2024-05-26T08:30:25Z</time>
      </trkpt>
      <trkpt lat="43.74008" lon="6.63685">
        <ele>1302.8</ele>
        <time>2024-05-26T08:30:26Z</time>
      </trkpt>
      <trkpt lat="43.74008" lon="6.63685">
        <ele>1302.8</ele>
        <time>2024-05-26T08:30:27Z</time>
      </trkpt>
      <trkpt lat="43.74008" lon="6.63685">
        <ele>1302.8</ele>
        <time>2024-05-26T08:30:28Z</time>
      </trkpt>
      <trkpt lat="43.74008" lon="6.63685">
        <ele>1302.8</ele>
        <time>2024-05-26T08:30:29Z</time>
      </trkpt>
      <trkpt lat="43.74008" lon="6.63685">
        <ele>1302.9</ele>
        <time>2024-05-26T08:30:30Z</time>
      </trkpt>
      <trkpt lat="43.74008" lon="6.63685">
        <ele>1302.9</ele>
        <time>2024-05-26T08:30:31Z</time>
      </trkpt>
      <trkpt lat="43.74008" lon="6.63685">
        <ele>1302.9</ele>
        <time>2024-05-26T08:30:32Z</time>
      </trkpt>
      <trkpt lat="43.74008" lon="6.63685">
        <ele>1303</ele>
        <time>2024-05-26T08:30:33Z</time>
      </trkpt>
      <trkpt lat="43.74008" lon="6.63685">
        <ele>1303</ele>
        <time>2024-05-26T08:30:34Z</time>
      </trkpt>
      <trkpt lat="43.74008" lon="6.63685">
        <ele>1303</ele>
        <time>2024-05-26T08:30:35Z</time>
      </trkpt>
      <trkpt lat="43.74009" lon="6.63684">
        <ele>1303</ele>
        <time>2024-05-26T08:30:36Z</time>
      </trkpt>
      <trkpt lat="43.74008" lon="6.63684">
        <ele>1303.1</ele>
        <time>2024-05-26T08:30:37Z</time>
      </trkpt>
      <trkpt lat="43.74009" lon="6.63684">
        <ele>1303.1</ele>
        <time>2024-05-26T08:30:38Z</time>
      </trkpt>
      <trkpt lat="43.74009" lon="6.63684">
        <ele>1303.1</ele>
        <time>2024-05-26T08:30:39Z</time>
      </trkpt>
      <trkpt lat="43.74009" lon="6.63684">
        <ele>1303.1</ele>
        <time>2024-05-26T08:30:40Z</time>
      </trkpt>
      <trkpt lat="43.74009" lon="6.63684">
        <ele>1303</ele>
        <time>2024-05-26T08:30:41Z</time>
      </trkpt>
      <trkpt lat="43.74009" lon="6.63684">
        <ele>1302.9</ele>
        <time>2024-05-26T08:30:42Z</time>
      </trkpt>
      <trkpt lat="43.74009" lon="6.63684">
        <ele>1302.9</ele>
        <time>2024-05-26T08:30:43Z</time>
      </trkpt>
      <trkpt lat="43.74009" lon="6.63684">
        <ele>1303</ele>
        <time>2024-05-26T08:30:44Z</time>
      </trkpt>
      <trkpt lat="43.74009" lon="6.63684">
        <ele>1303</ele>
        <time>2024-05-26T08:30:45Z</time>
      </trkpt>
      <trkpt lat="43.74009" lon="6.63684">
        <ele>1303</ele>
        <time>2024-05-26T08:30:46Z</time>
      </trkpt>
      <trkpt lat="43.74009" lon="6.63684">
        <ele>1302.9</ele>
        <time>2024-05-26T08:30:47Z</time>
      </trkpt>
      <trkpt lat="43.74009" lon="6.63684">
        <ele>1303</ele>
        <time>2024-05-26T08:30:48Z</time>
      </trkpt>
      <trkpt lat="43.74009" lon="6.63684">
        <ele>1303.1</ele>
        <time>2024-05-26T08:30:49Z</time>
      </trkpt>
      <trkpt lat="43.74009" lon="6.63684">
        <ele>1303</ele>
        <time>2024-05-26T08:30:50Z</time>
      </trkpt>
      <trkpt lat="43.74009" lon="6.63684">
        <ele>1303</ele>
        <time>2024-05-26T08:30:51Z</time>
      </trkpt>
      <trkpt lat="43.74009" lon="6.63684">
        <ele>1303</ele>
        <time>2024-05-26T08:30:52Z</time>
      </trkpt>
      <trkpt lat="43.74009" lon="6.63684">
        <ele>1303</ele>
        <time>2024-05-26T08:30:53Z</time>
      </trkpt>
      <trkpt lat="43.74009" lon="6.63684">
        <ele>1303.1</ele>
        <time>2024-05-26T08:30:54Z</time>
      </trkpt>
      <trkpt lat="43.74009" lon="6.63684">
        <ele>1303.2</ele>
        <time>2024-05-26T08:30:55Z</time>
      </trkpt>
      <trkpt lat="43.74009" lon="6.63684">
        <ele>1303.2</ele>
        <time>2024-05-26T08:30:56Z</time>
      </trkpt>
      <trkpt lat="43.74009" lon="6.63684">
        <ele>1303.2</ele>
        <time>2024-05-26T08:30:57Z</time>
      </trkpt>
      <trkpt lat="43.74009" lon="6.63684">
        <ele>1303.3</ele>
        <time>2024-05-26T08:30:58Z</time>
      </trkpt>
      <trkpt lat="43.74009" lon="6.63684">
        <ele>1303.3</ele>
        <time>2024-05-26T08:30:59Z</time>
      </trkpt>
      <trkpt lat="43.74009" lon="6.63684">
        <ele>1303.3</ele>
        <time>2024-05-26T08:31:00Z</time>
      </trkpt>
      <trkpt lat="43.74009" lon="6.63684">
        <ele>1303.2</ele>
        <time>2024-05-26T08:31:01Z</time>
      </trkpt>
      <trkpt lat="43.74009" lon="6.63684">
        <ele>1303.1</ele>
        <time>2024-05-26T08:31:02Z</time>
      </trkpt>
      <trkpt lat="43.74009" lon="6.63684">
        <ele>1303.1</ele>
        <time>2024-05-26T08:31:03Z</time>
      </trkpt>
      <trkpt lat="43.74009" lon="6.63684">
        <ele>1303</ele>
        <time>2024-05-26T08:31:04Z</time>
      </trkpt>
      <trkpt lat="43.74009" lon="6.63684">
        <ele>1303.1</ele>
        <time>2024-05-26T08:31:05Z</time>
      </trkpt>
      <trkpt lat="43.74009" lon="6.63684">
        <ele>1303.1</ele>
        <time>2024-05-26T08:31:06Z</time>
      </trkpt>
      <trkpt lat="43.74009" lon="6.63684">
        <ele>1303.1</ele>
        <time>2024-05-26T08:31:07Z</time>
      </trkpt>
      <trkpt lat="43.74008" lon="6.63684">
        <ele>1303.1</ele>
        <time>2024-05-26T08:31:08Z</time>
      </trkpt>
      <trkpt lat="43.74008" lon="6.63684">
        <ele>1303</ele>
        <time>2024-05-26T08:31:09Z</time>
      </trkpt>
      <trkpt lat="43.74008" lon="6.63684">
        <ele>1302.9</ele>
        <time>2024-05-26T08:31:10Z</time>
      </trkpt>
      <trkpt lat="43.74008" lon="6.63684">
        <ele>1302.9</ele>
        <time>2024-05-26T08:31:11Z</time>
      </trkpt>
      <trkpt lat="43.74008" lon="6.63684">
        <ele>1302.9</ele>
        <time>2024-05-26T08:31:12Z</time>
      </trkpt>
      <trkpt lat="43.74008" lon="6.63684">
        <ele>1303</ele>
        <time>2024-05-26T08:31:13Z</time>
      </trkpt>
      <trkpt lat="43.74008" lon="6.63684">
        <ele>1303</ele>
        <time>2024-05-26T08:31:14Z</time>
      </trkpt>
      <trkpt lat="43.74008" lon="6.63684">
        <ele>1303</ele>
        <time>2024-05-26T08:31:15Z</time>
      </trkpt>
      <trkpt lat="43.74008" lon="6.63684">
        <ele>1303.1</ele>
        <time>2024-05-26T08:31:16Z</time>
      </trkpt>
      <trkpt lat="43.74008" lon="6.63684">
        <ele>1303.1</ele>
        <time>2024-05-26T08:31:17Z</time>
      </trkpt>
      <trkpt lat="43.74008" lon="6.63684">
        <ele>1303</ele>
        <time>2024-05-26T08:31:18Z</time>
      </trkpt>
      <trkpt lat="43.74007" lon="6.63684">
        <ele>1303</ele>
        <time>2024-05-26T08:31:19Z</time>
      </trkpt>
      <trkpt lat="43.74007" lon="6.63684">
        <ele>1302.9</ele>
        <time>2024-05-26T08:31:20Z</time>
      </trkpt>
      <trkpt lat="43.74007" lon="6.63684">
        <ele>1302.9</ele>
        <time>2024-05-26T08:31:21Z</time>
      </trkpt>
      <trkpt lat="43.74007" lon="6.63684">
        <ele>1302.8</ele>
        <time>2024-05-26T08:31:22Z</time>
      </trkpt>
      <trkpt lat="43.74007" lon="6.63685">
        <ele>1302.8</ele>
        <time>2024-05-26T08:31:23Z</time>
      </trkpt>
      <trkpt lat="43.74008" lon="6.63685">
        <ele>1302.8</ele>
        <time>2024-05-26T08:31:24Z</time>
      </trkpt>
      <trkpt lat="43.74007" lon="6.63685">
        <ele>1302.8</ele>
        <time>2024-05-26T08:31:25Z</time>
      </trkpt>
      <trkpt lat="43.74007" lon="6.63685">
        <ele>1302.7</ele>
        <time>2024-05-26T08:31:26Z</time>
      </trkpt>
      <trkpt lat="43.74007" lon="6.63685">
        <ele>1302.7</ele>
        <time>2024-05-26T08:31:27Z</time>
      </trkpt>
      <trkpt lat="43.74007" lon="6.63685">
        <ele>1302.5</ele>
        <time>2024-05-26T08:31:28Z</time>
      </trkpt>
      <trkpt lat="43.74007" lon="6.63685">
        <ele>1302.5</ele>
        <time>2024-05-26T08:31:29Z</time>
      </trkpt>
      <trkpt lat="43.74007" lon="6.63685">
        <ele>1302.5</ele>
        <time>2024-05-26T08:31:30Z</time>
      </trkpt>
      <trkpt lat="43.74007" lon="6.63685">
        <ele>1302.5</ele>
        <time>2024-05-26T08:31:31Z</time>
      </trkpt>
      <trkpt lat="43.74007" lon="6.63685">
        <ele>1302.5</ele>
        <time>2024-05-26T08:31:32Z</time>
      </trkpt>
      <trkpt lat="43.74007" lon="6.63684">
        <ele>1302.5</ele>
        <time>2024-05-26T08:31:33Z</time>
      </trkpt>
      <trkpt lat="43.74007" lon="6.63684">
        <ele>1302.5</ele>
        <time>2024-05-26T08:31:34Z</time>
      </trkpt>
      <trkpt lat="43.74007" lon="6.63684">
        <ele>1302.5</ele>
        <time>2024-05-26T08:31:35Z</time>
      </trkpt>
      <trkpt lat="43.74007" lon="6.63685">
        <ele>1302.6</ele>
        <time>2024-05-26T08:31:36Z</time>
      </trkpt>
      <trkpt lat="43.74007" lon="6.63685">
        <ele>1302.6</ele>
        <time>2024-05-26T08:31:37Z</time>
      </trkpt>
      <trkpt lat="43.74007" lon="6.63685">
        <ele>1302.6</ele>
        <time>2024-05-26T08:31:38Z</time>
      </trkpt>
      <trkpt lat="43.74007" lon="6.63685">
        <ele>1302.6</ele>
        <time>2024-05-26T08:31:39Z</time>
      </trkpt>
      <trkpt lat="43.74007" lon="6.63685">
        <ele>1302.5</ele>
        <time>2024-05-26T08:31:40Z</time>
      </trkpt>
      <trkpt lat="43.74007" lon="6.63684">
        <ele>1302.5</ele>
        <time>2024-05-26T08:31:41Z</time>
      </trkpt>
      <trkpt lat="43.74007" lon="6.63684">
        <ele>1302.6</ele>
        <time>2024-05-26T08:31:42Z</time>
      </trkpt>
      <trkpt lat="43.74007" lon="6.63684">
        <ele>1302.7</ele>
        <time>2024-05-26T08:31:43Z</time>
      </trkpt>
      <trkpt lat="43.74007" lon="6.63684">
        <ele>1302.7</ele>
        <time>2024-05-26T08:31:44Z</time>
      </trkpt>
      <trkpt lat="43.74007" lon="6.63684">
        <ele>1302.8</ele>
        <time>2024-05-26T08:31:45Z</time>
      </trkpt>
      <trkpt lat="43.74007" lon="6.63684">
        <ele>1302.7</ele>
        <time>2024-05-26T08:31:46Z</time>
      </trkpt>
      <trkpt lat="43.74007" lon="6.63684">
        <ele>1302.9</ele>
        <time>2024-05-26T08:31:47Z</time>
      </trkpt>
      <trkpt lat="43.74007" lon="6.63684">
        <ele>1302.9</ele>
        <time>2024-05-26T08:31:48Z</time>
      </trkpt>
      <trkpt lat="43.74007" lon="6.63684">
        <ele>1302.9</ele>
        <time>2024-05-26T08:31:49Z</time>
      </trkpt>
      <trkpt lat="43.74007" lon="6.63684">
        <ele>1302.9</ele>
        <time>2024-05-26T08:31:50Z</time>
      </trkpt>
      <trkpt lat="43.74007" lon="6.63684">
        <ele>1302.9</ele>
        <time>2024-05-26T08:31:51Z</time>
      </trkpt>
      <trkpt lat="43.74007" lon="6.63684">
        <ele>1302.8</ele>
        <time>2024-05-26T08:31:52Z</time>
      </trkpt>
      <trkpt lat="43.74007" lon="6.63684">
        <ele>1302.8</ele>
        <time>2024-05-26T08:31:53Z</time>
      </trkpt>
      <trkpt lat="43.74007" lon="6.63684">
        <ele>1302.7</ele>
        <time>2024-05-26T08:31:54Z</time>
      </trkpt>
      <trkpt lat="43.74007" lon="6.63685">
        <ele>1302.7</ele>
        <time>2024-05-26T08:31:55Z</time>
      </trkpt>
      <trkpt lat="43.74007" lon="6.63685">
        <ele>1302.7</ele>
        <time>2024-05-26T08:31:56Z</time>
      </trkpt>
      <trkpt lat="43.74008" lon="6.63685">
        <ele>1302.7</ele>
        <time>2024-05-26T08:31:57Z</time>
      </trkpt>
      <trkpt lat="43.74009" lon="6.63685">
        <ele>1302.7</ele>
        <time>2024-05-26T08:31:58Z</time>
      </trkpt>
      <trkpt lat="43.74009" lon="6.63686">
        <ele>1302.8</ele>
        <time>2024-05-26T08:31:59Z</time>
      </trkpt>
      <trkpt lat="43.7401" lon="6.63686">
        <ele>1302.8</ele>
        <time>2024-05-26T08:32:00Z</time>
      </trkpt>
      <trkpt lat="43.74011" lon="6.63687">
        <ele>1302.9</ele>
        <time>2024-05-26T08:32:01Z</time>
      </trkpt>
      <trkpt lat="43.74011" lon="6.63688">
        <ele>1303.1</ele>
        <time>2024-05-26T08:32:02Z</time>
      </trkpt>
      <trkpt lat="43.74012" lon="6.63688">
        <ele>1303.3</ele>
        <time>2024-05-26T08:32:03Z</time>
      </trkpt>
      <trkpt lat="43.74013" lon="6.63688">
        <ele>1303.3</ele>
        <time>2024-05-26T08:32:04Z</time>
      </trkpt>
      <trkpt lat="43.74014" lon="6.63688">
        <ele>1303.4</ele>
        <time>2024-05-26T08:32:05Z</time>
      </trkpt>
      <trkpt lat="43.74014" lon="6.63689">
        <ele>1303.5</ele>
        <time>2024-05-26T08:32:06Z</time>
      </trkpt>
      <trkpt lat="43.74015" lon="6.63689">
        <ele>1303.5</ele>
        <time>2024-05-26T08:32:07Z</time>
      </trkpt>
      <trkpt lat="43.74016" lon="6.63689">
        <ele>1303.6</ele>
        <time>2024-05-26T08:32:08Z</time>
      </trkpt>
      <trkpt lat="43.74017" lon="6.6369">
        <ele>1303.6</ele>
        <time>2024-05-26T08:32:09Z</time>
      </trkpt>
      <trkpt lat="43.74018" lon="6.6369">
        <ele>1303.8</ele>
        <time>2024-05-26T08:32:10Z</time>
      </trkpt>
      <trkpt lat="43.74018" lon="6.63691">
        <ele>1303.9</ele>
        <time>2024-05-26T08:32:11Z</time>
      </trkpt>
      <trkpt lat="43.74019" lon="6.63691">
        <ele>1304</ele>
        <time>2024-05-26T08:32:12Z</time>
      </trkpt>
      <trkpt lat="43.7402" lon="6.63692">
        <ele>1304.1</ele>
        <time>2024-05-26T08:32:13Z</time>
      </trkpt>
      <trkpt lat="43.74021" lon="6.63692">
        <ele>1304.2</ele>
        <time>2024-05-26T08:32:14Z</time>
      </trkpt>
      <trkpt lat="43.74021" lon="6.63693">
        <ele>1304.3</ele>
        <time>2024-05-26T08:32:15Z</time>
      </trkpt>
      <trkpt lat="43.74022" lon="6.63693">
        <ele>1304.5</ele>
        <time>2024-05-26T08:32:16Z</time>
      </trkpt>
      <trkpt lat="43.74022" lon="6.63694">
        <ele>1304.6</ele>
        <time>2024-05-26T08:32:17Z</time>
      </trkpt>
      <trkpt lat="43.74023" lon="6.63694">
        <ele>1304.8</ele>
        <time>2024-05-26T08:32:18Z</time>
      </trkpt>
      <trkpt lat="43.74023" lon="6.63694">
        <ele>1305</ele>
        <time>2024-05-26T08:32:19Z</time>
      </trkpt>
      <trkpt lat="43.74024" lon="6.63694">
        <ele>1305.2</ele>
        <time>2024-05-26T08:32:20Z</time>
      </trkpt>
      <trkpt lat="43.74024" lon="6.63695">
        <ele>1305.3</ele>
        <time>2024-05-26T08:32:21Z</time>
      </trkpt>
      <trkpt lat="43.74024" lon="6.63696">
        <ele>1305.4</ele>
        <time>2024-05-26T08:32:22Z</time>
      </trkpt>
      <trkpt lat="43.74025" lon="6.63696">
        <ele>1305.5</ele>
        <time>2024-05-26T08:32:23Z</time>
      </trkpt>
      <trkpt lat="43.74026" lon="6.63697">
        <ele>1305.8</ele>
        <time>2024-05-26T08:32:24Z</time>
      </trkpt>
      <trkpt lat="43.74027" lon="6.63697">
        <ele>1305.9</ele>
        <time>2024-05-26T08:32:25Z</time>
      </trkpt>
      <trkpt lat="43.74028" lon="6.63697">
        <ele>1306</ele>
        <time>2024-05-26T08:32:26Z</time>
      </trkpt>
      <trkpt lat="43.74029" lon="6.63697">
        <ele>1306</ele>
        <time>2024-05-26T08:32:27Z</time>
      </trkpt>
      <trkpt lat="43.74029" lon="6.63697">
        <ele>1306.1</ele>
        <time>2024-05-26T08:32:28Z</time>
      </trkpt>
      <trkpt lat="43.7403" lon="6.63697">
        <ele>1306.2</ele>
        <time>2024-05-26T08:32:29Z</time>
      </trkpt>
      <trkpt lat="43.74031" lon="6.63697">
        <ele>1306.3</ele>
        <time>2024-05-26T08:32:30Z</time>
      </trkpt>
      <trkpt lat="43.74032" lon="6.63698">
        <ele>1306.4</ele>
        <time>2024-05-26T08:32:31Z</time>
      </trkpt>
      <trkpt lat="43.74033" lon="6.63698">
        <ele>1306.5</ele>
        <time>2024-05-26T08:32:32Z</time>
      </trkpt>
      <trkpt lat="43.74033" lon="6.63698">
        <ele>1306.6</ele>
        <time>2024-05-26T08:32:33Z</time>
      </trkpt>
      <trkpt lat="43.74034" lon="6.63699">
        <ele>1306.7</ele>
        <time>2024-05-26T08:32:34Z</time>
      </trkpt>
      <trkpt lat="43.74034" lon="6.637">
        <ele>1306.7</ele>
        <time>2024-05-26T08:32:35Z</time>
      </trkpt>
      <trkpt lat="43.74035" lon="6.637">
        <ele>1306.9</ele>
        <time>2024-05-26T08:32:36Z</time>
      </trkpt>
      <trkpt lat="43.74036" lon="6.63701">
        <ele>1307.1</ele>
        <time>2024-05-26T08:32:37Z</time>
      </trkpt>
      <trkpt lat="43.74036" lon="6.63701">
        <ele>1307.4</ele>
        <time>2024-05-26T08:32:38Z</time>
      </trkpt>
      <trkpt lat="43.74037" lon="6.63701">
        <ele>1307.6</ele>
        <time>2024-05-26T08:32:39Z</time>
      </trkpt>
      <trkpt lat="43.74038" lon="6.63702">
        <ele>1307.7</ele>
        <time>2024-05-26T08:32:40Z</time>
      </trkpt>
      <trkpt lat="43.74039" lon="6.63703">
        <ele>1307.8</ele>
        <time>2024-05-26T08:32:41Z</time>
      </trkpt>
      <trkpt lat="43.7404" lon="6.63703">
        <ele>1307.9</ele>
        <time>2024-05-26T08:32:42Z</time>
      </trkpt>
      <trkpt lat="43.74042" lon="6.63703">
        <ele>1308</ele>
        <time>2024-05-26T08:32:43Z</time>
      </trkpt>
      <trkpt lat="43.74042" lon="6.63704">
        <ele>1308.1</ele>
        <time>2024-05-26T08:32:44Z</time>
      </trkpt>
      <trkpt lat="43.74043" lon="6.63705">
        <ele>1308.1</ele>
        <time>2024-05-26T08:32:45Z</time>
      </trkpt>
      <trkpt lat="43.74043" lon="6.63705">
        <ele>1308.3</ele>
        <time>2024-05-26T08:32:46Z</time>
      </trkpt>
      <trkpt lat="43.74044" lon="6.63706">
        <ele>1308.4</ele>
        <time>2024-05-26T08:32:47Z</time>
      </trkpt>
      <trkpt lat="43.74044" lon="6.63706">
        <ele>1308.5</ele>
        <time>2024-05-26T08:32:48Z</time>
      </trkpt>
      <trkpt lat="43.74045" lon="6.63707">
        <ele>1308.6</ele>
        <time>2024-05-26T08:32:49Z</time>
      </trkpt>
      <trkpt lat="43.74045" lon="6.63707">
        <ele>1308.7</ele>
        <time>2024-05-26T08:32:50Z</time>
      </trkpt>
      <trkpt lat="43.74046" lon="6.63708">
        <ele>1308.9</ele>
        <time>2024-05-26T08:32:51Z</time>
      </trkpt>
      <trkpt lat="43.74047" lon="6.63708">
        <ele>1309.1</ele>
        <time>2024-05-26T08:32:52Z</time>
      </trkpt>
      <trkpt lat="43.74048" lon="6.63709">
        <ele>1309.2</ele>
        <time>2024-05-26T08:32:53Z</time>
      </trkpt>
      <trkpt lat="43.74049" lon="6.63709">
        <ele>1309.3</ele>
        <time>2024-05-26T08:32:54Z</time>
      </trkpt>
      <trkpt lat="43.74049" lon="6.63709">
        <ele>1309.4</ele>
        <time>2024-05-26T08:32:55Z</time>
      </trkpt>
      <trkpt lat="43.7405" lon="6.63709">
        <ele>1309.7</ele>
        <time>2024-05-26T08:32:56Z</time>
      </trkpt>
      <trkpt lat="43.74051" lon="6.63709">
        <ele>1309.8</ele>
        <time>2024-05-26T08:32:57Z</time>
      </trkpt>
      <trkpt lat="43.74052" lon="6.6371">
        <ele>1309.9</ele>
        <time>2024-05-26T08:32:58Z</time>
      </trkpt>
      <trkpt lat="43.74053" lon="6.6371">
        <ele>1310</ele>
        <time>2024-05-26T08:32:59Z</time>
      </trkpt>
      <trkpt lat="43.74054" lon="6.6371">
        <ele>1310</ele>
        <time>2024-05-26T08:33:00Z</time>
      </trkpt>
      <trkpt lat="43.74055" lon="6.6371">
        <ele>1310.2</ele>
        <time>2024-05-26T08:33:01Z</time>
      </trkpt>
      <trkpt lat="43.74055" lon="6.6371">
        <ele>1310.3</ele>
        <time>2024-05-26T08:33:02Z</time>
      </trkpt>
      <trkpt lat="43.74056" lon="6.6371">
        <ele>1310.3</ele>
        <time>2024-05-26T08:33:03Z</time>
      </trkpt>
      <trkpt lat="43.74057" lon="6.6371">
        <ele>1310.3</ele>
        <time>2024-05-26T08:33:04Z</time>
      </trkpt>
      <trkpt lat="43.74058" lon="6.6371">
        <ele>1310.3</ele>
        <time>2024-05-26T08:33:05Z</time>
      </trkpt>
      <trkpt lat="43.74059" lon="6.6371">
        <ele>1310.5</ele>
        <time>2024-05-26T08:33:06Z</time>
      </trkpt>
      <trkpt lat="43.7406" lon="6.63711">
        <ele>1310.6</ele>
        <time>2024-05-26T08:33:07Z</time>
      </trkpt>
      <trkpt lat="43.74061" lon="6.6371">
        <ele>1310.7</ele>
        <time>2024-05-26T08:33:08Z</time>
      </trkpt>
      <trkpt lat="43.74062" lon="6.6371">
        <ele>1310.8</ele>
        <time>2024-05-26T08:33:09Z</time>
      </trkpt>
      <trkpt lat="43.74064" lon="6.6371">
        <ele>1310.9</ele>
        <time>2024-05-26T08:33:10Z</time>
      </trkpt>
      <trkpt lat="43.74065" lon="6.63709">
        <ele>1311.1</ele>
        <time>2024-05-26T08:33:11Z</time>
      </trkpt>
      <trkpt lat="43.74065" lon="6.63709">
        <ele>1311.2</ele>
        <time>2024-05-26T08:33:12Z</time>
      </trkpt>
      <trkpt lat="43.74065" lon="6.63709">
        <ele>1311.4</ele>
        <time>2024-05-26T08:33:13Z</time>
      </trkpt>
      <trkpt lat="43.74066" lon="6.63709">
        <ele>1311.5</ele>
        <time>2024-05-26T08:33:14Z</time>
      </trkpt>
      <trkpt lat="43.74066" lon="6.63709">
        <ele>1311.6</ele>
        <time>2024-05-26T08:33:15Z</time>
      </trkpt>
      <trkpt lat="43.74067" lon="6.63709">
        <ele>1311.8</ele>
        <time>2024-05-26T08:33:16Z</time>
      </trkpt>
      <trkpt lat="43.74068" lon="6.6371">
        <ele>1311.9</ele>
        <time>2024-05-26T08:33:17Z</time>
      </trkpt>
      <trkpt lat="43.74069" lon="6.63709">
        <ele>1312</ele>
        <time>2024-05-26T08:33:18Z</time>
      </trkpt>
      <trkpt lat="43.7407" lon="6.63708">
        <ele>1312.1</ele>
        <time>2024-05-26T08:33:19Z</time>
      </trkpt>
      <trkpt lat="43.74071" lon="6.63709">
        <ele>1312.2</ele>
        <time>2024-05-26T08:33:20Z</time>
      </trkpt>
      <trkpt lat="43.74071" lon="6.63709">
        <ele>1312.4</ele>
        <time>2024-05-26T08:33:21Z</time>
      </trkpt>
      <trkpt lat="43.74072" lon="6.63709">
        <ele>1312.5</ele>
        <time>2024-05-26T08:33:22Z</time>
      </trkpt>
      <trkpt lat="43.74073" lon="6.6371">
        <ele>1312.6</ele>
        <time>2024-05-26T08:33:23Z</time>
      </trkpt>
      <trkpt lat="43.74074" lon="6.6371">
        <ele>1312.8</ele>
        <time>2024-05-26T08:33:24Z</time>
      </trkpt>
      <trkpt lat="43.74075" lon="6.63711">
        <ele>1313.1</ele>
        <time>2024-05-26T08:33:25Z</time>
      </trkpt>
      <trkpt lat="43.74076" lon="6.63711">
        <ele>1313.3</ele>
        <time>2024-05-26T08:33:26Z</time>
      </trkpt>
      <trkpt lat="43.74077" lon="6.63712">
        <ele>1313.5</ele>
        <time>2024-05-26T08:33:27Z</time>
      </trkpt>
      <trkpt lat="43.74078" lon="6.63713">
        <ele>1313.7</ele>
        <time>2024-05-26T08:33:28Z</time>
      </trkpt>
      <trkpt lat="43.74079" lon="6.63713">
        <ele>1313.9</ele>
        <time>2024-05-26T08:33:29Z</time>
      </trkpt>
      <trkpt lat="43.7408" lon="6.63714">
        <ele>1314</ele>
        <time>2024-05-26T08:33:30Z</time>
      </trkpt>
      <trkpt lat="43.74081" lon="6.63714">
        <ele>1314.3</ele>
        <time>2024-05-26T08:33:31Z</time>
      </trkpt>
      <trkpt lat="43.74082" lon="6.63714">
        <ele>1314.5</ele>
        <time>2024-05-26T08:33:32Z</time>
      </trkpt>
      <trkpt lat="43.74083" lon="6.63714">
        <ele>1314.7</ele>
        <time>2024-05-26T08:33:33Z</time>
      </trkpt>
      <trkpt lat="43.74083" lon="6.63714">
        <ele>1315.1</ele>
        <time>2024-05-26T08:33:34Z</time>
      </trkpt>
      <trkpt lat="43.74084" lon="6.63714">
        <ele>1315.4</ele>
        <time>2024-05-26T08:33:35Z</time>
      </trkpt>
      <trkpt lat="43.74084" lon="6.63713">
        <ele>1315.6</ele>
        <time>2024-05-26T08:33:36Z</time>
      </trkpt>
      <trkpt lat="43.74084" lon="6.63713">
        <ele>1315.9</ele>
        <time>2024-05-26T08:33:37Z</time>
      </trkpt>
      <trkpt lat="43.74085" lon="6.63714">
        <ele>1316</ele>
        <time>2024-05-26T08:33:38Z</time>
      </trkpt>
      <trkpt lat="43.74085" lon="6.63714">
        <ele>1316.1</ele>
        <time>2024-05-26T08:33:39Z</time>
      </trkpt>
      <trkpt lat="43.74086" lon="6.63714">
        <ele>1316.3</ele>
        <time>2024-05-26T08:33:40Z</time>
      </trkpt>
      <trkpt lat="43.74087" lon="6.63714">
        <ele>1316.4</ele>
        <time>2024-05-26T08:33:41Z</time>
      </trkpt>
      <trkpt lat="43.74087" lon="6.63714">
        <ele>1316.5</ele>
        <time>2024-05-26T08:33:42Z</time>
      </trkpt>
      <trkpt lat="43.74088" lon="6.63715">
        <ele>1316.6</ele>
        <time>2024-05-26T08:33:43Z</time>
      </trkpt>
      <trkpt lat="43.74089" lon="6.63716">
        <ele>1316.7</ele>
        <time>2024-05-26T08:33:44Z</time>
      </trkpt>
      <trkpt lat="43.7409" lon="6.63716">
        <ele>1317</ele>
        <time>2024-05-26T08:33:45Z</time>
      </trkpt>
      <trkpt lat="43.74091" lon="6.63717">
        <ele>1317.3</ele>
        <time>2024-05-26T08:33:46Z</time>
      </trkpt>
      <trkpt lat="43.74092" lon="6.63718">
        <ele>1317.6</ele>
        <time>2024-05-26T08:33:47Z</time>
      </trkpt>
      <trkpt lat="43.74093" lon="6.63719">
        <ele>1317.8</ele>
        <time>2024-05-26T08:33:48Z</time>
      </trkpt>
      <trkpt lat="43.74094" lon="6.63719">
        <ele>1318</ele>
        <time>2024-05-26T08:33:49Z</time>
      </trkpt>
      <trkpt lat="43.74095" lon="6.63719">
        <ele>1318.3</ele>
        <time>2024-05-26T08:33:50Z</time>
      </trkpt>
      <trkpt lat="43.74095" lon="6.63719">
        <ele>1318.6</ele>
        <time>2024-05-26T08:33:51Z</time>
      </trkpt>
      <trkpt lat="43.74096" lon="6.6372">
        <ele>1318.8</ele>
        <time>2024-05-26T08:33:52Z</time>
      </trkpt>
      <trkpt lat="43.74096" lon="6.63721">
        <ele>1318.9</ele>
        <time>2024-05-26T08:33:53Z</time>
      </trkpt>
      <trkpt lat="43.74097" lon="6.63722">
        <ele>1319</ele>
        <time>2024-05-26T08:33:54Z</time>
      </trkpt>
      <trkpt lat="43.74097" lon="6.63723">
        <ele>1319.2</ele>
        <time>2024-05-26T08:33:55Z</time>
      </trkpt>
      <trkpt lat="43.74098" lon="6.63723">
        <ele>1319.4</ele>
        <time>2024-05-26T08:33:56Z</time>
      </trkpt>
      <trkpt lat="43.74099" lon="6.63724">
        <ele>1319.5</ele>
        <time>2024-05-26T08:33:57Z</time>
      </trkpt>
      <trkpt lat="43.741" lon="6.63723">
        <ele>1319.6</ele>
        <time>2024-05-26T08:33:58Z</time>
      </trkpt>
      <trkpt lat="43.741" lon="6.63723">
        <ele>1319.8</ele>
        <time>2024-05-26T08:33:59Z</time>
      </trkpt>
      <trkpt lat="43.74101" lon="6.63723">
        <ele>1319.9</ele>
        <time>2024-05-26T08:34:00Z</time>
      </trkpt>
      <trkpt lat="43.74102" lon="6.63722">
        <ele>1320</ele>
        <time>2024-05-26T08:34:01Z</time>
      </trkpt>
      <trkpt lat="43.74103" lon="6.63722">
        <ele>1320.1</ele>
        <time>2024-05-26T08:34:02Z</time>
      </trkpt>
      <trkpt lat="43.74104" lon="6.63722">
        <ele>1320.3</ele>
        <time>2024-05-26T08:34:03Z</time>
      </trkpt>
      <trkpt lat="43.74104" lon="6.63722">
        <ele>1320.5</ele>
        <time>2024-05-26T08:34:04Z</time>
      </trkpt>
      <trkpt lat="43.74105" lon="6.63722">
        <ele>1320.6</ele>
        <time>2024-05-26T08:34:05Z</time>
      </trkpt>
      <trkpt lat="43.74106" lon="6.63722">
        <ele>1320.7</ele>
        <time>2024-05-26T08:34:06Z</time>
      </trkpt>
      <trkpt lat="43.74106" lon="6.63723">
        <ele>1320.9</ele>
        <time>2024-05-26T08:34:07Z</time>
      </trkpt>
      <trkpt lat="43.74107" lon="6.63724">
        <ele>1321.1</ele>
        <time>2024-05-26T08:34:08Z</time>
      </trkpt>
      <trkpt lat="43.74108" lon="6.63725">
        <ele>1321.3</ele>
        <time>2024-05-26T08:34:09Z</time>
      </trkpt>
      <trkpt lat="43.74109" lon="6.63726">
        <ele>1321.4</ele>
        <time>2024-05-26T08:34:10Z</time>
      </trkpt>
      <trkpt lat="43.74109" lon="6.63726">
        <ele>1321.6</ele>
        <time>2024-05-26T08:34:11Z</time>
      </trkpt>
      <trkpt lat="43.7411" lon="6.63727">
        <ele>1321.7</ele>
        <time>2024-05-26T08:34:12Z</time>
      </trkpt>
      <trkpt lat="43.74111" lon="6.63728">
        <ele>1321.9</ele>
        <time>2024-05-26T08:34:13Z</time>
      </trkpt>
      <trkpt lat="43.74111" lon="6.63729">
        <ele>1322.1</ele>
        <time>2024-05-26T08:34:14Z</time>
      </trkpt>
      <trkpt lat="43.74112" lon="6.6373">
        <ele>1322.3</ele>
        <time>2024-05-26T08:34:15Z</time>
      </trkpt>
      <trkpt lat="43.74113" lon="6.6373">
        <ele>1322.5</ele>
        <time>2024-05-26T08:34:16Z</time>
      </trkpt>
      <trkpt lat="43.74113" lon="6.63731">
        <ele>1322.7</ele>
        <time>2024-05-26T08:34:17Z</time>
      </trkpt>
      <trkpt lat="43.74114" lon="6.63731">
        <ele>1322.9</ele>
        <time>2024-05-26T08:34:18Z</time>
      </trkpt>
      <trkpt lat="43.74114" lon="6.63732">
        <ele>1323</ele>
        <time>2024-05-26T08:34:19Z</time>
      </trkpt>
      <trkpt lat="43.74115" lon="6.63732">
        <ele>1323.2</ele>
        <time>2024-05-26T08:34:20Z</time>
      </trkpt>
      <trkpt lat="43.74115" lon="6.63733">
        <ele>1323.3</ele>
        <time>2024-05-26T08:34:21Z</time>
      </trkpt>
      <trkpt lat="43.74115" lon="6.63734">
        <ele>1323.5</ele>
        <time>2024-05-26T08:34:22Z</time>
      </trkpt>
      <trkpt lat="43.74116" lon="6.63735">
        <ele>1323.6</ele>
        <time>2024-05-26T08:34:23Z</time>
      </trkpt>
      <trkpt lat="43.74116" lon="6.63735">
        <ele>1323.7</ele>
        <time>2024-05-26T08:34:24Z</time>
      </trkpt>
      <trkpt lat="43.74117" lon="6.63736">
        <ele>1324</ele>
        <time>2024-05-26T08:34:25Z</time>
      </trkpt>
      <trkpt lat="43.74118" lon="6.63736">
        <ele>1324.3</ele>
        <time>2024-05-26T08:34:26Z</time>
      </trkpt>
      <trkpt lat="43.74118" lon="6.63737">
        <ele>1324.5</ele>
        <time>2024-05-26T08:34:27Z</time>
      </trkpt>
      <trkpt lat="43.74118" lon="6.63738">
        <ele>1324.7</ele>
        <time>2024-05-26T08:34:28Z</time>
      </trkpt>
      <trkpt lat="43.74119" lon="6.63738">
        <ele>1324.8</ele>
        <time>2024-05-26T08:34:29Z</time>
      </trkpt>
      <trkpt lat="43.74119" lon="6.63739">
        <ele>1324.9</ele>
        <time>2024-05-26T08:34:30Z</time>
      </trkpt>
      <trkpt lat="43.7412" lon="6.63739">
        <ele>1325.2</ele>
        <time>2024-05-26T08:34:31Z</time>
      </trkpt>
      <trkpt lat="43.7412" lon="6.6374">
        <ele>1325.4</ele>
        <time>2024-05-26T08:34:32Z</time>
      </trkpt>
      <trkpt lat="43.7412" lon="6.6374">
        <ele>1325.6</ele>
        <time>2024-05-26T08:34:33Z</time>
      </trkpt>
      <trkpt lat="43.74121" lon="6.63741">
        <ele>1325.7</ele>
        <time>2024-05-26T08:34:34Z</time>
      </trkpt>
      <trkpt lat="43.74121" lon="6.63741">
        <ele>1326</ele>
        <time>2024-05-26T08:34:35Z</time>
      </trkpt>
      <trkpt lat="43.74121" lon="6.63742">
        <ele>1326.1</ele>
        <time>2024-05-26T08:34:36Z</time>
      </trkpt>
      <trkpt lat="43.74121" lon="6.63742">
        <ele>1326.3</ele>
        <time>2024-05-26T08:34:37Z</time>
      </trkpt>
      <trkpt lat="43.74122" lon="6.63743">
        <ele>1326.5</ele>
        <time>2024-05-26T08:34:38Z</time>
      </trkpt>
      <trkpt lat="43.74122" lon="6.63743">
        <ele>1326.6</ele>
        <time>2024-05-26T08:34:39Z</time>
      </trkpt>
      <trkpt lat="43.74122" lon="6.63744">
        <ele>1326.8</ele>
        <time>2024-05-26T08:34:40Z</time>
      </trkpt>
      <trkpt lat="43.74122" lon="6.63745">
        <ele>1327</ele>
        <time>2024-05-26T08:34:41Z</time>
      </trkpt>
      <trkpt lat="43.74122" lon="6.63745">
        <ele>1327.2</ele>
        <time>2024-05-26T08:34:42Z</time>
      </trkpt>
      <trkpt lat="43.74123" lon="6.63746">
        <ele>1327.4</ele>
        <time>2024-05-26T08:34:43Z</time>
      </trkpt>
      <trkpt lat="43.74124" lon="6.63745">
        <ele>1327.5</ele>
        <time>2024-05-26T08:34:44Z</time>
      </trkpt>
      <trkpt lat="43.74124" lon="6.63745">
        <ele>1327.7</ele>
        <time>2024-05-26T08:34:45Z</time>
      </trkpt>
      <trkpt lat="43.74125" lon="6.63745">
        <ele>1327.9</ele>
        <time>2024-05-26T08:34:46Z</time>
      </trkpt>
      <trkpt lat="43.74125" lon="6.63746">
        <ele>1328</ele>
        <time>2024-05-26T08:34:47Z</time>
      </trkpt>
      <trkpt lat="43.74126" lon="6.63746">
        <ele>1328.2</ele>
        <time>2024-05-26T08:34:48Z</time>
      </trkpt>
      <trkpt lat="43.74126" lon="6.63746">
        <ele>1328.3</ele>
        <time>2024-05-26T08:34:49Z</time>
      </trkpt>
      <trkpt lat="43.74127" lon="6.63747">
        <ele>1328.4</ele>
        <time>2024-05-26T08:34:50Z</time>
      </trkpt>
      <trkpt lat="43.74127" lon="6.63748">
        <ele>1328.6</ele>
        <time>2024-05-26T08:34:51Z</time>
      </trkpt>
      <trkpt lat="43.74127" lon="6.63748">
        <ele>1328.8</ele>
        <time>2024-05-26T08:34:52Z</time>
      </trkpt>
      <trkpt lat="43.74127" lon="6.63749">
        <ele>1329</ele>
        <time>2024-05-26T08:34:53Z</time>
      </trkpt>
      <trkpt lat="43.74127" lon="6.6375">
        <ele>1329.2</ele>
        <time>2024-05-26T08:34:54Z</time>
      </trkpt>
      <trkpt lat="43.74127" lon="6.6375">
        <ele>1329.4</ele>
        <time>2024-05-26T08:34:55Z</time>
      </trkpt>
      <trkpt lat="43.74128" lon="6.63751">
        <ele>1329.7</ele>
        <time>2024-05-26T08:34:56Z</time>
      </trkpt>
      <trkpt lat="43.74128" lon="6.63752">
        <ele>1329.8</ele>
        <time>2024-05-26T08:34:57Z</time>
      </trkpt>
      <trkpt lat="43.74128" lon="6.63752">
        <ele>1330.1</ele>
        <time>2024-05-26T08:34:58Z</time>
      </trkpt>
      <trkpt lat="43.74128" lon="6.63753">
        <ele>1330.3</ele>
        <time>2024-05-26T08:34:59Z</time>
      </trkpt>
      <trkpt lat="43.74127" lon="6.63753">
        <ele>1330.5</ele>
        <time>2024-05-26T08:35:00Z</time>
      </trkpt>
      <trkpt lat="43.74127" lon="6.63753">
        <ele>1330.7</ele>
        <time>2024-05-26T08:35:01Z</time>
      </trkpt>
      <trkpt lat="43.74127" lon="6.63753">
        <ele>1331</ele>
        <time>2024-05-26T08:35:02Z</time>
      </trkpt>
      <trkpt lat="43.74127" lon="6.63753">
        <ele>1331.2</ele>
        <time>2024-05-26T08:35:03Z</time>
      </trkpt>
      <trkpt lat="43.74127" lon="6.63753">
        <ele>1331.4</ele>
        <time>2024-05-26T08:35:04Z</time>
      </trkpt>
      <trkpt lat="43.74126" lon="6.63754">
        <ele>1331.5</ele>
        <time>2024-05-26T08:35:05Z</time>
      </trkpt>
      <trkpt lat="43.74126" lon="6.63754">
        <ele>1331.8</ele>
        <time>2024-05-26T08:35:06Z</time>
      </trkpt>
      <trkpt lat="43.74126" lon="6.63755">
        <ele>1331.9</ele>
        <time>2024-05-26T08:35:07Z</time>
      </trkpt>
      <trkpt lat="43.74126" lon="6.63755">
        <ele>1332.1</ele>
        <time>2024-05-26T08:35:08Z</time>
      </trkpt>
      <trkpt lat="43.74126" lon="6.63755">
        <ele>1332.3</ele>
        <time>2024-05-26T08:35:09Z</time>
      </trkpt>
      <trkpt lat="43.74125" lon="6.63756">
        <ele>1332.5</ele>
        <time>2024-05-26T08:35:10Z</time>
      </trkpt>
      <trkpt lat="43.74125" lon="6.63756">
        <ele>1332.7</ele>
        <time>2024-05-26T08:35:11Z</time>
      </trkpt>
      <trkpt lat="43.74125" lon="6.63756">
        <ele>1333</ele>
        <time>2024-05-26T08:35:12Z</time>
      </trkpt>
      <trkpt lat="43.74124" lon="6.63756">
        <ele>1333.2</ele>
        <time>2024-05-26T08:35:13Z</time>
      </trkpt>
      <trkpt lat="43.74124" lon="6.63757">
        <ele>1333.5</ele>
        <time>2024-05-26T08:35:14Z</time>
      </trkpt>
      <trkpt lat="43.74124" lon="6.63758">
        <ele>1333.7</ele>
        <time>2024-05-26T08:35:15Z</time>
      </trkpt>
      <trkpt lat="43.74123" lon="6.63758">
        <ele>1333.9</ele>
        <time>2024-05-26T08:35:16Z</time>
      </trkpt>
      <trkpt lat="43.74122" lon="6.63758">
        <ele>1334.1</ele>
        <time>2024-05-26T08:35:17Z</time>
      </trkpt>
      <trkpt lat="43.74122" lon="6.63758">
        <ele>1334.3</ele>
        <time>2024-05-26T08:35:18Z</time>
      </trkpt>
      <trkpt lat="43.74122" lon="6.63759">
        <ele>1334.4</ele>
        <time>2024-05-26T08:35:19Z</time>
      </trkpt>
      <trkpt lat="43.74122" lon="6.6376">
        <ele>1334.6</ele>
        <time>2024-05-26T08:35:20Z</time>
      </trkpt>
      <trkpt lat="43.74121" lon="6.6376">
        <ele>1334.7</ele>
        <time>2024-05-26T08:35:21Z</time>
      </trkpt>
      <trkpt lat="43.74121" lon="6.6376">
        <ele>1334.9</ele>
        <time>2024-05-26T08:35:22Z</time>
      </trkpt>
      <trkpt lat="43.74121" lon="6.6376">
        <ele>1334.9</ele>
        <time>2024-05-26T08:35:23Z</time>
      </trkpt>
      <trkpt lat="43.7412" lon="6.63761">
        <ele>1335</ele>
        <time>2024-05-26T08:35:24Z</time>
      </trkpt>
      <trkpt lat="43.7412" lon="6.63762">
        <ele>1335.3</ele>
        <time>2024-05-26T08:35:25Z</time>
      </trkpt>
      <trkpt lat="43.7412" lon="6.63763">
        <ele>1335.5</ele>
        <time>2024-05-26T08:35:26Z</time>
      </trkpt>
      <trkpt lat="43.7412" lon="6.63764">
        <ele>1335.7</ele>
        <time>2024-05-26T08:35:27Z</time>
      </trkpt>
      <trkpt lat="43.74121" lon="6.63765">
        <ele>1335.9</ele>
        <time>2024-05-26T08:35:28Z</time>
      </trkpt>
      <trkpt lat="43.74122" lon="6.63766">
        <ele>1336.1</ele>
        <time>2024-05-26T08:35:29Z</time>
      </trkpt>
      <trkpt lat="43.74122" lon="6.63767">
        <ele>1336.2</ele>
        <time>2024-05-26T08:35:30Z</time>
      </trkpt>
      <trkpt lat="43.74123" lon="6.63768">
        <ele>1336.4</ele>
        <time>2024-05-26T08:35:31Z</time>
      </trkpt>
      <trkpt lat="43.74124" lon="6.63769">
        <ele>1336.6</ele>
        <time>2024-05-26T08:35:32Z</time>
      </trkpt>
      <trkpt lat="43.74124" lon="6.6377">
        <ele>1336.8</ele>
        <time>2024-05-26T08:35:33Z</time>
      </trkpt>
      <trkpt lat="43.74125" lon="6.63771">
        <ele>1337</ele>
        <time>2024-05-26T08:35:34Z</time>
      </trkpt>
      <trkpt lat="43.74125" lon="6.63771">
        <ele>1337.2</ele>
        <time>2024-05-26T08:35:35Z</time>
      </trkpt>
      <trkpt lat="43.74125" lon="6.63772">
        <ele>1337.4</ele>
        <time>2024-05-26T08:35:36Z</time>
      </trkpt>
      <trkpt lat="43.74126" lon="6.63773">
        <ele>1337.6</ele>
        <time>2024-05-26T08:35:37Z</time>
      </trkpt>
      <trkpt lat="43.74127" lon="6.63773">
        <ele>1337.8</ele>
        <time>2024-05-26T08:35:38Z</time>
      </trkpt>
      <trkpt lat="43.74127" lon="6.63774">
        <ele>1337.9</ele>
        <time>2024-05-26T08:35:39Z</time>
      </trkpt>
      <trkpt lat="43.74128" lon="6.63775">
        <ele>1338.1</ele>
        <time>2024-05-26T08:35:40Z</time>
      </trkpt>
      <trkpt lat="43.74128" lon="6.63776">
        <ele>1338.2</ele>
        <time>2024-05-26T08:35:41Z</time>
      </trkpt>
      <trkpt lat="43.74129" lon="6.63776">
        <ele>1338.4</ele>
        <time>2024-05-26T08:35:42Z</time>
      </trkpt>
      <trkpt lat="43.74129" lon="6.63777">
        <ele>1338.5</ele>
        <time>2024-05-26T08:35:43Z</time>
      </trkpt>
      <trkpt lat="43.7413" lon="6.63778">
        <ele>1338.8</ele>
        <time>2024-05-26T08:35:44Z</time>
      </trkpt>
      <trkpt lat="43.74131" lon="6.63779">
        <ele>1339</ele>
        <time>2024-05-26T08:35:45Z</time>
      </trkpt>
      <trkpt lat="43.74131" lon="6.63779">
        <ele>1339.2</ele>
        <time>2024-05-26T08:35:46Z</time>
      </trkpt>
      <trkpt lat="43.74131" lon="6.6378">
        <ele>1339.3</ele>
        <time>2024-05-26T08:35:47Z</time>
      </trkpt>
      <trkpt lat="43.74132" lon="6.63781">
        <ele>1339.5</ele>
        <time>2024-05-26T08:35:48Z</time>
      </trkpt>
      <trkpt lat="43.74132" lon="6.63782">
        <ele>1339.7</ele>
        <time>2024-05-26T08:35:49Z</time>
      </trkpt>
      <trkpt lat="43.74133" lon="6.63781">
        <ele>1339.9</ele>
        <time>2024-05-26T08:35:50Z</time>
      </trkpt>
      <trkpt lat="43.74135" lon="6.6378">
        <ele>1340</ele>
        <time>2024-05-26T08:35:51Z</time>
      </trkpt>
      <trkpt lat="43.74136" lon="6.63779">
        <ele>1340.2</ele>
        <time>2024-05-26T08:35:52Z</time>
      </trkpt>
      <trkpt lat="43.74136" lon="6.63779">
        <ele>1340.3</ele>
        <time>2024-05-26T08:35:53Z</time>
      </trkpt>
      <trkpt lat="43.74137" lon="6.63778">
        <ele>1340.3</ele>
        <time>2024-05-26T08:35:54Z</time>
      </trkpt>
      <trkpt lat="43.74137" lon="6.63779">
        <ele>1340.4</ele>
        <time>2024-05-26T08:35:55Z</time>
      </trkpt>
      <trkpt lat="43.74137" lon="6.63779">
        <ele>1340.4</ele>
        <time>2024-05-26T08:35:56Z</time>
      </trkpt>
      <trkpt lat="43.74138" lon="6.6378">
        <ele>1340.5</ele>
        <time>2024-05-26T08:35:57Z</time>
      </trkpt>
      <trkpt lat="43.74138" lon="6.63781">
        <ele>1340.6</ele>
        <time>2024-05-26T08:35:58Z</time>
      </trkpt>
      <trkpt lat="43.74138" lon="6.63782">
        <ele>1340.6</ele>
        <time>2024-05-26T08:35:59Z</time>
      </trkpt>
      <trkpt lat="43.74138" lon="6.63783">
        <ele>1340.8</ele>
        <time>2024-05-26T08:36:00Z</time>
      </trkpt>
      <trkpt lat="43.74139" lon="6.63783">
        <ele>1341.1</ele>
        <time>2024-05-26T08:36:01Z</time>
      </trkpt>
      <trkpt lat="43.74138" lon="6.63784">
        <ele>1341.3</ele>
        <time>2024-05-26T08:36:02Z</time>
      </trkpt>
      <trkpt lat="43.74139" lon="6.63785">
        <ele>1341.5</ele>
        <time>2024-05-26T08:36:03Z</time>
      </trkpt>
      <trkpt lat="43.74139" lon="6.63786">
        <ele>1341.7</ele>
        <time>2024-05-26T08:36:04Z</time>
      </trkpt>
      <trkpt lat="43.7414" lon="6.63787">
        <ele>1342</ele>
        <time>2024-05-26T08:36:05Z</time>
      </trkpt>
      <trkpt lat="43.7414" lon="6.63788">
        <ele>1342.2</ele>
        <time>2024-05-26T08:36:06Z</time>
      </trkpt>
      <trkpt lat="43.7414" lon="6.63789">
        <ele>1342.3</ele>
        <time>2024-05-26T08:36:07Z</time>
      </trkpt>
      <trkpt lat="43.7414" lon="6.63789">
        <ele>1342.5</ele>
        <time>2024-05-26T08:36:08Z</time>
      </trkpt>
      <trkpt lat="43.7414" lon="6.6379">
        <ele>1342.9</ele>
        <time>2024-05-26T08:36:09Z</time>
      </trkpt>
      <trkpt lat="43.74141" lon="6.63791">
        <ele>1343.1</ele>
        <time>2024-05-26T08:36:10Z</time>
      </trkpt>
      <trkpt lat="43.74141" lon="6.63792">
        <ele>1343.3</ele>
        <time>2024-05-26T08:36:11Z</time>
      </trkpt>
      <trkpt lat="43.74141" lon="6.63792">
        <ele>1343.6</ele>
        <time>2024-05-26T08:36:12Z</time>
      </trkpt>
      <trkpt lat="43.74142" lon="6.63793">
        <ele>1343.8</ele>
        <time>2024-05-26T08:36:13Z</time>
      </trkpt>
      <trkpt lat="43.74142" lon="6.63794">
        <ele>1344</ele>
        <time>2024-05-26T08:36:14Z</time>
      </trkpt>
      <trkpt lat="43.74143" lon="6.63794">
        <ele>1344.3</ele>
        <time>2024-05-26T08:36:15Z</time>
      </trkpt>
      <trkpt lat="43.74143" lon="6.63795">
        <ele>1344.5</ele>
        <time>2024-05-26T08:36:16Z</time>
      </trkpt>
      <trkpt lat="43.74144" lon="6.63796">
        <ele>1344.7</ele>
        <time>2024-05-26T08:36:17Z</time>
      </trkpt>
      <trkpt lat="43.74144" lon="6.63797">
        <ele>1344.9</ele>
        <time>2024-05-26T08:36:18Z</time>
      </trkpt>
      <trkpt lat="43.74144" lon="6.63797">
        <ele>1345.1</ele>
        <time>2024-05-26T08:36:19Z</time>
      </trkpt>
      <trkpt lat="43.74144" lon="6.63799">
        <ele>1345.3</ele>
        <time>2024-05-26T08:36:20Z</time>
      </trkpt>
      <trkpt lat="43.74145" lon="6.63799">
        <ele>1345.6</ele>
        <time>2024-05-26T08:36:21Z</time>
      </trkpt>
      <trkpt lat="43.74145" lon="6.638">
        <ele>1345.8</ele>
        <time>2024-05-26T08:36:22Z</time>
      </trkpt>
      <trkpt lat="43.74146" lon="6.63801">
        <ele>1346</ele>
        <time>2024-05-26T08:36:23Z</time>
      </trkpt>
      <trkpt lat="43.74146" lon="6.63801">
        <ele>1346.2</ele>
        <time>2024-05-26T08:36:24Z</time>
      </trkpt>
      <trkpt lat="43.74146" lon="6.63801">
        <ele>1346.4</ele>
        <time>2024-05-26T08:36:25Z</time>
      </trkpt>
      <trkpt lat="43.74146" lon="6.63803">
        <ele>1346.7</ele>
        <time>2024-05-26T08:36:26Z</time>
      </trkpt>
      <trkpt lat="43.74146" lon="6.63804">
        <ele>1346.9</ele>
        <time>2024-05-26T08:36:27Z</time>
      </trkpt>
      <trkpt lat="43.74146" lon="6.63804">
        <ele>1347.1</ele>
        <time>2024-05-26T08:36:28Z</time>
      </trkpt>
      <trkpt lat="43.74146" lon="6.63805">
        <ele>1347.4</ele>
        <time>2024-05-26T08:36:29Z</time>
      </trkpt>
      <trkpt lat="43.74147" lon="6.63806">
        <ele>1347.6</ele>
        <time>2024-05-26T08:36:30Z</time>
      </trkpt>
      <trkpt lat="43.74147" lon="6.63807">
        <ele>1347.7</ele>
        <time>2024-05-26T08:36:31Z</time>
      </trkpt>
      <trkpt lat="43.74147" lon="6.63808">
        <ele>1347.8</ele>
        <time>2024-05-26T08:36:32Z</time>
      </trkpt>
      <trkpt lat="43.74147" lon="6.63809">
        <ele>1347.9</ele>
        <time>2024-05-26T08:36:33Z</time>
      </trkpt>
      <trkpt lat="43.74148" lon="6.6381">
        <ele>1348</ele>
        <time>2024-05-26T08:36:34Z</time>
      </trkpt>
      <trkpt lat="43.74148" lon="6.6381">
        <ele>1348.2</ele>
        <time>2024-05-26T08:36:35Z</time>
      </trkpt>
      <trkpt lat="43.74149" lon="6.63811">
        <ele>1348.4</ele>
        <time>2024-05-26T08:36:36Z</time>
      </trkpt>
      <trkpt lat="43.74149" lon="6.63812">
        <ele>1348.5</ele>
        <time>2024-05-26T08:36:37Z</time>
      </trkpt>
      <trkpt lat="43.74149" lon="6.63813">
        <ele>1348.6</ele>
        <time>2024-05-26T08:36:38Z</time>
      </trkpt>
      <trkpt lat="43.7415" lon="6.63814">
        <ele>1348.8</ele>
        <time>2024-05-26T08:36:39Z</time>
      </trkpt>
      <trkpt lat="43.7415" lon="6.63814">
        <ele>1348.9</ele>
        <time>2024-05-26T08:36:40Z</time>
      </trkpt>
      <trkpt lat="43.7415" lon="6.63815">
        <ele>1349.1</ele>
        <time>2024-05-26T08:36:41Z</time>
      </trkpt>
      <trkpt lat="43.7415" lon="6.63816">
        <ele>1349.3</ele>
        <time>2024-05-26T08:36:42Z</time>
      </trkpt>
      <trkpt lat="43.74151" lon="6.63817">
        <ele>1349.5</ele>
        <time>2024-05-26T08:36:43Z</time>
      </trkpt>
      <trkpt lat="43.74151" lon="6.63818">
        <ele>1349.7</ele>
        <time>2024-05-26T08:36:44Z</time>
      </trkpt>
      <trkpt lat="43.74151" lon="6.63818">
        <ele>1350</ele>
        <time>2024-05-26T08:36:45Z</time>
      </trkpt>
      <trkpt lat="43.74151" lon="6.63818">
        <ele>1350.2</ele>
        <time>2024-05-26T08:36:46Z</time>
      </trkpt>
      <trkpt lat="43.74152" lon="6.63819">
        <ele>1350.4</ele>
        <time>2024-05-26T08:36:47Z</time>
      </trkpt>
      <trkpt lat="43.74152" lon="6.6382">
        <ele>1350.5</ele>
        <time>2024-05-26T08:36:48Z</time>
      </trkpt>
      <trkpt lat="43.74152" lon="6.6382">
        <ele>1350.8</ele>
        <time>2024-05-26T08:36:49Z</time>
      </trkpt>
      <trkpt lat="43.74153" lon="6.63821">
        <ele>1351.1</ele>
        <time>2024-05-26T08:36:50Z</time>
      </trkpt>
      <trkpt lat="43.74153" lon="6.63821">
        <ele>1351.3</ele>
        <time>2024-05-26T08:36:51Z</time>
      </trkpt>
      <trkpt lat="43.74153" lon="6.63822">
        <ele>1351.5</ele>
        <time>2024-05-26T08:36:52Z</time>
      </trkpt>
      <trkpt lat="43.74153" lon="6.63823">
        <ele>1351.6</ele>
        <time>2024-05-26T08:36:53Z</time>
      </trkpt>
      <trkpt lat="43.74153" lon="6.63823">
        <ele>1351.8</ele>
        <time>2024-05-26T08:36:54Z</time>
      </trkpt>
      <trkpt lat="43.74153" lon="6.63824">
        <ele>1352</ele>
        <time>2024-05-26T08:36:55Z</time>
      </trkpt>
      <trkpt lat="43.74154" lon="6.63825">
        <ele>1352.2</ele>
        <time>2024-05-26T08:36:56Z</time>
      </trkpt>
      <trkpt lat="43.74154" lon="6.63825">
        <ele>1352.3</ele>
        <time>2024-05-26T08:36:57Z</time>
      </trkpt>
      <trkpt lat="43.74154" lon="6.63826">
        <ele>1352.4</ele>
        <time>2024-05-26T08:36:58Z</time>
      </trkpt>
      <trkpt lat="43.74154" lon="6.63827">
        <ele>1352.5</ele>
        <time>2024-05-26T08:36:59Z</time>
      </trkpt>
      <trkpt lat="43.74154" lon="6.63827">
        <ele>1352.7</ele>
        <time>2024-05-26T08:37:00Z</time>
      </trkpt>
      <trkpt lat="43.74154" lon="6.63827">
        <ele>1352.9</ele>
        <time>2024-05-26T08:37:01Z</time>
      </trkpt>
      <trkpt lat="43.74154" lon="6.63828">
        <ele>1353.1</ele>
        <time>2024-05-26T08:37:02Z</time>
      </trkpt>
      <trkpt lat="43.74154" lon="6.63828">
        <ele>1353.3</ele>
        <time>2024-05-26T08:37:03Z</time>
      </trkpt>
      <trkpt lat="43.74154" lon="6.63828">
        <ele>1353.6</ele>
        <time>2024-05-26T08:37:04Z</time>
      </trkpt>
      <trkpt lat="43.74154" lon="6.63829">
        <ele>1353.8</ele>
        <time>2024-05-26T08:37:05Z</time>
      </trkpt>
      <trkpt lat="43.74154" lon="6.6383">
        <ele>1354</ele>
        <time>2024-05-26T08:37:06Z</time>
      </trkpt>
      <trkpt lat="43.74154" lon="6.63831">
        <ele>1354.2</ele>
        <time>2024-05-26T08:37:07Z</time>
      </trkpt>
      <trkpt lat="43.74154" lon="6.63832">
        <ele>1354.4</ele>
        <time>2024-05-26T08:37:08Z</time>
      </trkpt>
      <trkpt lat="43.74155" lon="6.63832">
        <ele>1354.5</ele>
        <time>2024-05-26T08:37:09Z</time>
      </trkpt>
      <trkpt lat="43.74155" lon="6.63832">
        <ele>1354.7</ele>
        <time>2024-05-26T08:37:10Z</time>
      </trkpt>
      <trkpt lat="43.74155" lon="6.63833">
        <ele>1355</ele>
        <time>2024-05-26T08:37:11Z</time>
      </trkpt>
      <trkpt lat="43.74155" lon="6.63833">
        <ele>1355.2</ele>
        <time>2024-05-26T08:37:12Z</time>
      </trkpt>
      <trkpt lat="43.74155" lon="6.63833">
        <ele>1355.3</ele>
        <time>2024-05-26T08:37:13Z</time>
      </trkpt>
      <trkpt lat="43.74155" lon="6.63834">
        <ele>1355.5</ele>
        <time>2024-05-26T08:37:14Z</time>
      </trkpt>
      <trkpt lat="43.74155" lon="6.63834">
        <ele>1355.6</ele>
        <time>2024-05-26T08:37:15Z</time>
      </trkpt>
      <trkpt lat="43.74155" lon="6.63834">
        <ele>1355.8</ele>
        <time>2024-05-26T08:37:16Z</time>
      </trkpt>
      <trkpt lat="43.74155" lon="6.63834">
        <ele>1355.9</ele>
        <time>2024-05-26T08:37:17Z</time>
      </trkpt>
      <trkpt lat="43.74154" lon="6.63834">
        <ele>1356.1</ele>
        <time>2024-05-26T08:37:18Z</time>
      </trkpt>
      <trkpt lat="43.74154" lon="6.63835">
        <ele>1356.2</ele>
        <time>2024-05-26T08:37:19Z</time>
      </trkpt>
      <trkpt lat="43.74154" lon="6.63835">
        <ele>1356.4</ele>
        <time>2024-05-26T08:37:20Z</time>
      </trkpt>
      <trkpt lat="43.74154" lon="6.63835">
        <ele>1356.6</ele>
        <time>2024-05-26T08:37:21Z</time>
      </trkpt>
      <trkpt lat="43.74153" lon="6.63835">
        <ele>1356.7</ele>
        <time>2024-05-26T08:37:22Z</time>
      </trkpt>
      <trkpt lat="43.74153" lon="6.63835">
        <ele>1356.9</ele>
        <time>2024-05-26T08:37:23Z</time>
      </trkpt>
      <trkpt lat="43.74153" lon="6.63835">
        <ele>1357.1</ele>
        <time>2024-05-26T08:37:24Z</time>
      </trkpt>
      <trkpt lat="43.74152" lon="6.63836">
        <ele>1357.3</ele>
        <time>2024-05-26T08:37:25Z</time>
      </trkpt>
      <trkpt lat="43.74152" lon="6.63836">
        <ele>1357.5</ele>
        <time>2024-05-26T08:37:26Z</time>
      </trkpt>
      <trkpt lat="43.74152" lon="6.63836">
        <ele>1357.6</ele>
        <time>2024-05-26T08:37:27Z</time>
      </trkpt>
      <trkpt lat="43.74152" lon="6.63837">
        <ele>1357.8</ele>
        <time>2024-05-26T08:37:28Z</time>
      </trkpt>
      <trkpt lat="43.74152" lon="6.63837">
        <ele>1357.9</ele>
        <time>2024-05-26T08:37:29Z</time>
      </trkpt>
      <trkpt lat="43.74151" lon="6.63837">
        <ele>1358.1</ele>
        <time>2024-05-26T08:37:30Z</time>
      </trkpt>
      <trkpt lat="43.74151" lon="6.63837">
        <ele>1358.3</ele>
        <time>2024-05-26T08:37:31Z</time>
      </trkpt>
      <trkpt lat="43.7415" lon="6.63838">
        <ele>1358.4</ele>
        <time>2024-05-26T08:37:32Z</time>
      </trkpt>
      <trkpt lat="43.7415" lon="6.63838">
        <ele>1358.6</ele>
        <time>2024-05-26T08:37:33Z</time>
      </trkpt>
      <trkpt lat="43.7415" lon="6.63838">
        <ele>1358.8</ele>
        <time>2024-05-26T08:37:34Z</time>
      </trkpt>
      <trkpt lat="43.7415" lon="6.63838">
        <ele>1359.1</ele>
        <time>2024-05-26T08:37:35Z</time>
      </trkpt>
      <trkpt lat="43.74149" lon="6.63838">
        <ele>1359.3</ele>
        <time>2024-05-26T08:37:36Z</time>
      </trkpt>
      <trkpt lat="43.74149" lon="6.63838">
        <ele>1359.5</ele>
        <time>2024-05-26T08:37:37Z</time>
      </trkpt>
      <trkpt lat="43.74148" lon="6.63838">
        <ele>1359.6</ele>
        <time>2024-05-26T08:37:38Z</time>
      </trkpt>
      <trkpt lat="43.74148" lon="6.63839">
        <ele>1359.7</ele>
        <time>2024-05-26T08:37:39Z</time>
      </trkpt>
      <trkpt lat="43.74148" lon="6.63839">
        <ele>1359.9</ele>
        <time>2024-05-26T08:37:40Z</time>
      </trkpt>
      <trkpt lat="43.74147" lon="6.63839">
        <ele>1360</ele>
        <time>2024-05-26T08:37:41Z</time>
      </trkpt>
      <trkpt lat="43.74147" lon="6.6384">
        <ele>1360.3</ele>
        <time>2024-05-26T08:37:42Z</time>
      </trkpt>
      <trkpt lat="43.74147" lon="6.6384">
        <ele>1360.5</ele>
        <time>2024-05-26T08:37:43Z</time>
      </trkpt>
      <trkpt lat="43.74146" lon="6.6384">
        <ele>1360.7</ele>
        <time>2024-05-26T08:37:44Z</time>
      </trkpt>
      <trkpt lat="43.74145" lon="6.6384">
        <ele>1360.8</ele>
        <time>2024-05-26T08:37:45Z</time>
      </trkpt>
      <trkpt lat="43.74145" lon="6.6384">
        <ele>1361</ele>
        <time>2024-05-26T08:37:46Z</time>
      </trkpt>
      <trkpt lat="43.74144" lon="6.63841">
        <ele>1361.1</ele>
        <time>2024-05-26T08:37:47Z</time>
      </trkpt>
      <trkpt lat="43.74143" lon="6.63841">
        <ele>1361.3</ele>
        <time>2024-05-26T08:37:48Z</time>
      </trkpt>
      <trkpt lat="43.74143" lon="6.63841">
        <ele>1361.4</ele>
        <time>2024-05-26T08:37:49Z</time>
      </trkpt>
      <trkpt lat="43.74142" lon="6.63842">
        <ele>1361.6</ele>
        <time>2024-05-26T08:37:50Z</time>
      </trkpt>
      <trkpt lat="43.74142" lon="6.63842">
        <ele>1361.8</ele>
        <time>2024-05-26T08:37:51Z</time>
      </trkpt>
      <trkpt lat="43.74141" lon="6.63842">
        <ele>1362</ele>
        <time>2024-05-26T08:37:52Z</time>
      </trkpt>
      <trkpt lat="43.7414" lon="6.63843">
        <ele>1362.2</ele>
        <time>2024-05-26T08:37:53Z</time>
      </trkpt>
      <trkpt lat="43.7414" lon="6.63843">
        <ele>1362.4</ele>
        <time>2024-05-26T08:37:54Z</time>
      </trkpt>
      <trkpt lat="43.74141" lon="6.63845">
        <ele>1362.5</ele>
        <time>2024-05-26T08:37:55Z</time>
      </trkpt>
      <trkpt lat="43.74141" lon="6.63844">
        <ele>1362.7</ele>
        <time>2024-05-26T08:37:56Z</time>
      </trkpt>
      <trkpt lat="43.74141" lon="6.63845">
        <ele>1362.9</ele>
        <time>2024-05-26T08:37:57Z</time>
      </trkpt>
      <trkpt lat="43.74141" lon="6.63846">
        <ele>1363</ele>
        <time>2024-05-26T08:37:58Z</time>
      </trkpt>
      <trkpt lat="43.74141" lon="6.63847">
        <ele>1363</ele>
        <time>2024-05-26T08:37:59Z</time>
      </trkpt>
      <trkpt lat="43.74141" lon="6.63847">
        <ele>1363</ele>
        <time>2024-05-26T08:38:00Z</time>
      </trkpt>
      <trkpt lat="43.74141" lon="6.63848">
        <ele>1363</ele>
        <time>2024-05-26T08:38:01Z</time>
      </trkpt>
      <trkpt lat="43.74141" lon="6.63849">
        <ele>1363.1</ele>
        <time>2024-05-26T08:38:02Z</time>
      </trkpt>
      <trkpt lat="43.74141" lon="6.6385">
        <ele>1363.2</ele>
        <time>2024-05-26T08:38:03Z</time>
      </trkpt>
      <trkpt lat="43.74141" lon="6.6385">
        <ele>1363.2</ele>
        <time>2024-05-26T08:38:04Z</time>
      </trkpt>
      <trkpt lat="43.74142" lon="6.63851">
        <ele>1363.3</ele>
        <time>2024-05-26T08:38:05Z</time>
      </trkpt>
      <trkpt lat="43.74142" lon="6.63852">
        <ele>1363.3</ele>
        <time>2024-05-26T08:38:06Z</time>
      </trkpt>
      <trkpt lat="43.74142" lon="6.63852">
        <ele>1363.4</ele>
        <time>2024-05-26T08:38:07Z</time>
      </trkpt>
      <trkpt lat="43.74142" lon="6.63853">
        <ele>1363.5</ele>
        <time>2024-05-26T08:38:08Z</time>
      </trkpt>
      <trkpt lat="43.74141" lon="6.63854">
        <ele>1363.5</ele>
        <time>2024-05-26T08:38:09Z</time>
      </trkpt>
      <trkpt lat="43.74142" lon="6.63854">
        <ele>1363.6</ele>
        <time>2024-05-26T08:38:10Z</time>
      </trkpt>
      <trkpt lat="43.74142" lon="6.63854">
        <ele>1363.6</ele>
        <time>2024-05-26T08:38:11Z</time>
      </trkpt>
      <trkpt lat="43.74142" lon="6.63854">
        <ele>1363.6</ele>
        <time>2024-05-26T08:38:12Z</time>
      </trkpt>
      <trkpt lat="43.74142" lon="6.63854">
        <ele>1363.4</ele>
        <time>2024-05-26T08:38:13Z</time>
      </trkpt>
      <trkpt lat="43.74142" lon="6.63854">
        <ele>1363.4</ele>
        <time>2024-05-26T08:38:14Z</time>
      </trkpt>
      <trkpt lat="43.74142" lon="6.63854">
        <ele>1363.3</ele>
        <time>2024-05-26T08:38:15Z</time>
      </trkpt>
      <trkpt lat="43.74142" lon="6.63854">
        <ele>1363.3</ele>
        <time>2024-05-26T08:38:16Z</time>
      </trkpt>
      <trkpt lat="43.74142" lon="6.63854">
        <ele>1363.3</ele>
        <time>2024-05-26T08:38:17Z</time>
      </trkpt>
      <trkpt lat="43.74142" lon="6.63854">
        <ele>1363.3</ele>
        <time>2024-05-26T08:38:18Z</time>
      </trkpt>
      <trkpt lat="43.74142" lon="6.63855">
        <ele>1363.3</ele>
        <time>2024-05-26T08:38:19Z</time>
      </trkpt>
      <trkpt lat="43.74142" lon="6.63855">
        <ele>1363.2</ele>
        <time>2024-05-26T08:38:20Z</time>
      </trkpt>
      <trkpt lat="43.74142" lon="6.63855">
        <ele>1363.2</ele>
        <time>2024-05-26T08:38:21Z</time>
      </trkpt>
      <trkpt lat="43.74142" lon="6.63855">
        <ele>1363.2</ele>
        <time>2024-05-26T08:38:22Z</time>
      </trkpt>
      <trkpt lat="43.74143" lon="6.63855">
        <ele>1363.3</ele>
        <time>2024-05-26T08:38:23Z</time>
      </trkpt>
      <trkpt lat="43.74143" lon="6.63855">
        <ele>1363.4</ele>
        <time>2024-05-26T08:38:24Z</time>
      </trkpt>
      <trkpt lat="43.74143" lon="6.63855">
        <ele>1363.4</ele>
        <time>2024-05-26T08:38:25Z</time>
      </trkpt>
      <trkpt lat="43.74143" lon="6.63855">
        <ele>1363.4</ele>
        <time>2024-05-26T08:38:26Z</time>
      </trkpt>
      <trkpt lat="43.74143" lon="6.63855">
        <ele>1363.4</ele>
        <time>2024-05-26T08:38:27Z</time>
      </trkpt>
      <trkpt lat="43.74143" lon="6.63855">
        <ele>1363.3</ele>
        <time>2024-05-26T08:38:28Z</time>
      </trkpt>
      <trkpt lat="43.74143" lon="6.63855">
        <ele>1363.3</ele>
        <time>2024-05-26T08:38:29Z</time>
      </trkpt>
      <trkpt lat="43.74143" lon="6.63855">
        <ele>1363.3</ele>
        <time>2024-05-26T08:38:30Z</time>
      </trkpt>
      <trkpt lat="43.74143" lon="6.63855">
        <ele>1363.3</ele>
        <time>2024-05-26T08:38:31Z</time>
      </trkpt>
      <trkpt lat="43.74144" lon="6.63855">
        <ele>1363.3</ele>
        <time>2024-05-26T08:38:32Z</time>
      </trkpt>
      <trkpt lat="43.74144" lon="6.63855">
        <ele>1363.2</ele>
        <time>2024-05-26T08:38:33Z</time>
      </trkpt>
      <trkpt lat="43.74144" lon="6.63855">
        <ele>1363.1</ele>
        <time>2024-05-26T08:38:34Z</time>
      </trkpt>
      <trkpt lat="43.74144" lon="6.63855">
        <ele>1363.1</ele>
        <time>2024-05-26T08:38:35Z</time>
      </trkpt>
      <trkpt lat="43.74144" lon="6.63856">
        <ele>1363.1</ele>
        <time>2024-05-26T08:38:36Z</time>
      </trkpt>
      <trkpt lat="43.74144" lon="6.63856">
        <ele>1363.1</ele>
        <time>2024-05-26T08:38:37Z</time>
      </trkpt>
      <trkpt lat="43.74144" lon="6.63856">
        <ele>1363.1</ele>
        <time>2024-05-26T08:38:38Z</time>
      </trkpt>
      <trkpt lat="43.74144" lon="6.63857">
        <ele>1363.1</ele>
        <time>2024-05-26T08:38:39Z</time>
      </trkpt>
      <trkpt lat="43.74144" lon="6.63857">
        <ele>1363.1</ele>
        <time>2024-05-26T08:38:40Z</time>
      </trkpt>
      <trkpt lat="43.74144" lon="6.63857">
        <ele>1363.1</ele>
        <time>2024-05-26T08:38:41Z</time>
      </trkpt>
      <trkpt lat="43.74144" lon="6.63857">
        <ele>1363.1</ele>
        <time>2024-05-26T08:38:42Z</time>
      </trkpt>
      <trkpt lat="43.74144" lon="6.63857">
        <ele>1363.1</ele>
        <time>2024-05-26T08:38:43Z</time>
      </trkpt>
      <trkpt lat="43.74145" lon="6.63858">
        <ele>1363</ele>
        <time>2024-05-26T08:38:44Z</time>
      </trkpt>
      <trkpt lat="43.74145" lon="6.63858">
        <ele>1363</ele>
        <time>2024-05-26T08:38:45Z</time>
      </trkpt>
      <trkpt lat="43.74145" lon="6.63858">
        <ele>1363</ele>
        <time>2024-05-26T08:38:46Z</time>
      </trkpt>
      <trkpt lat="43.74145" lon="6.63858">
        <ele>1362.9</ele>
        <time>2024-05-26T08:38:47Z</time>
      </trkpt>
      <trkpt lat="43.74145" lon="6.63858">
        <ele>1362.9</ele>
        <time>2024-05-26T08:38:48Z</time>
      </trkpt>
      <trkpt lat="43.74146" lon="6.63858">
        <ele>1362.9</ele>
        <time>2024-05-26T08:38:49Z</time>
      </trkpt>
      <trkpt lat="43.74146" lon="6.63858">
        <ele>1362.9</ele>
        <time>2024-05-26T08:38:50Z</time>
      </trkpt>
      <trkpt lat="43.74146" lon="6.63858">
        <ele>1363</ele>
        <time>2024-05-26T08:38:51Z</time>
      </trkpt>
      <trkpt lat="43.74145" lon="6.63858">
        <ele>1363.1</ele>
        <time>2024-05-26T08:38:52Z</time>
      </trkpt>
      <trkpt lat="43.74145" lon="6.63858">
        <ele>1363.1</ele>
        <time>2024-05-26T08:38:53Z</time>
      </trkpt>
      <trkpt lat="43.74145" lon="6.63858">
        <ele>1363.1</ele>
        <time>2024-05-26T08:38:54Z</time>
      </trkpt>
      <trkpt lat="43.74144" lon="6.63858">
        <ele>1363.1</ele>
        <time>2024-05-26T08:38:55Z</time>
      </trkpt>
      <trkpt lat="43.74144" lon="6.63858">
        <ele>1363.1</ele>
        <time>2024-05-26T08:38:56Z</time>
      </trkpt>
      <trkpt lat="43.74143" lon="6.63858">
        <ele>1363.1</ele>
        <time>2024-05-26T08:38:57Z</time>
      </trkpt>
      <trkpt lat="43.74143" lon="6.63858">
        <ele>1363.1</ele>
        <time>2024-05-26T08:38:58Z</time>
      </trkpt>
      <trkpt lat="43.74143" lon="6.63858">
        <ele>1363.1</ele>
        <time>2024-05-26T08:38:59Z</time>
      </trkpt>
      <trkpt lat="43.74144" lon="6.63857">
        <ele>1363.2</ele>
        <time>2024-05-26T08:39:00Z</time>
      </trkpt>
      <trkpt lat="43.74144" lon="6.63857">
        <ele>1363.2</ele>
        <time>2024-05-26T08:39:01Z</time>
      </trkpt>
      <trkpt lat="43.74144" lon="6.63857">
        <ele>1363.2</ele>
        <time>2024-05-26T08:39:02Z</time>
      </trkpt>
      <trkpt lat="43.74144" lon="6.63857">
        <ele>1363.2</ele>
        <time>2024-05-26T08:39:03Z</time>
      </trkpt>
      <trkpt lat="43.74143" lon="6.63857">
        <ele>1363.2</ele>
        <time>2024-05-26T08:39:04Z</time>
      </trkpt>
      <trkpt lat="43.74143" lon="6.63857">
        <ele>1363.2</ele>
        <time>2024-05-26T08:39:05Z</time>
      </trkpt>
      <trkpt lat="43.74143" lon="6.63857">
        <ele>1363.1</ele>
        <time>2024-05-26T08:39:06Z</time>
      </trkpt>
      <trkpt lat="43.74143" lon="6.63857">
        <ele>1363.2</ele>
        <time>2024-05-26T08:39:07Z</time>
      </trkpt>
      <trkpt lat="43.74143" lon="6.63857">
        <ele>1363.2</ele>
        <time>2024-05-26T08:39:08Z</time>
      </trkpt>
      <trkpt lat="43.74143" lon="6.63857">
        <ele>1363.2</ele>
        <time>2024-05-26T08:39:09Z</time>
      </trkpt>
      <trkpt lat="43.74143" lon="6.63857">
        <ele>1363.2</ele>
        <time>2024-05-26T08:39:10Z</time>
      </trkpt>
      <trkpt lat="43.74143" lon="6.63857">
        <ele>1363.2</ele>
        <time>2024-05-26T08:39:11Z</time>
      </trkpt>
      <trkpt lat="43.74143" lon="6.63858">
        <ele>1363.2</ele>
        <time>2024-05-26T08:39:12Z</time>
      </trkpt>
      <trkpt lat="43.74143" lon="6.63858">
        <ele>1363.2</ele>
        <time>2024-05-26T08:39:13Z</time>
      </trkpt>
      <trkpt lat="43.74143" lon="6.63858">
        <ele>1363.2</ele>
        <time>2024-05-26T08:39:14Z</time>
      </trkpt>
      <trkpt lat="43.74143" lon="6.63858">
        <ele>1363.2</ele>
        <time>2024-05-26T08:39:15Z</time>
      </trkpt>
      <trkpt lat="43.74143" lon="6.63858">
        <ele>1363.1</ele>
        <time>2024-05-26T08:39:16Z</time>
      </trkpt>
      <trkpt lat="43.74143" lon="6.63858">
        <ele>1363.1</ele>
        <time>2024-05-26T08:39:17Z</time>
      </trkpt>
      <trkpt lat="43.74143" lon="6.63858">
        <ele>1363.1</ele>
        <time>2024-05-26T08:39:18Z</time>
      </trkpt>
      <trkpt lat="43.74143" lon="6.63858">
        <ele>1363.1</ele>
        <time>2024-05-26T08:39:19Z</time>
      </trkpt>
      <trkpt lat="43.74143" lon="6.63858">
        <ele>1363.1</ele>
        <time>2024-05-26T08:39:20Z</time>
      </trkpt>
      <trkpt lat="43.74143" lon="6.63859">
        <ele>1363</ele>
        <time>2024-05-26T08:39:21Z</time>
      </trkpt>
      <trkpt lat="43.74143" lon="6.63859">
        <ele>1363</ele>
        <time>2024-05-26T08:39:22Z</time>
      </trkpt>
      <trkpt lat="43.74143" lon="6.63859">
        <ele>1363.1</ele>
        <time>2024-05-26T08:39:23Z</time>
      </trkpt>
      <trkpt lat="43.74143" lon="6.63859">
        <ele>1363.1</ele>
        <time>2024-05-26T08:39:24Z</time>
      </trkpt>
      <trkpt lat="43.74143" lon="6.63859">
        <ele>1363.1</ele>
        <time>2024-05-26T08:39:25Z</time>
      </trkpt>
      <trkpt lat="43.74143" lon="6.63859">
        <ele>1363.1</ele>
        <time>2024-05-26T08:39:26Z</time>
      </trkpt>
      <trkpt lat="43.74143" lon="6.63859">
        <ele>1363.1</ele>
        <time>2024-05-26T08:39:27Z</time>
      </trkpt>
      <trkpt lat="43.74143" lon="6.63859">
        <ele>1363.1</ele>
        <time>2024-05-26T08:39:28Z</time>
      </trkpt>
      <trkpt lat="43.74143" lon="6.6386">
        <ele>1363.2</ele>
        <time>2024-05-26T08:39:29Z</time>
      </trkpt>
      <trkpt lat="43.74143" lon="6.6386">
        <ele>1363.3</ele>
        <time>2024-05-26T08:39:30Z</time>
      </trkpt>
      <trkpt lat="43.74143" lon="6.6386">
        <ele>1363.3</ele>
        <time>2024-05-26T08:39:31Z</time>
      </trkpt>
      <trkpt lat="43.74143" lon="6.6386">
        <ele>1363.3</ele>
        <time>2024-05-26T08:39:32Z</time>
      </trkpt>
      <trkpt lat="43.74143" lon="6.6386">
        <ele>1363.3</ele>
        <time>2024-05-26T08:39:33Z</time>
      </trkpt>
      <trkpt lat="43.74143" lon="6.6386">
        <ele>1363.3</ele>
        <time>2024-05-26T08:39:34Z</time>
      </trkpt>
      <trkpt lat="43.74143" lon="6.6386">
        <ele>1363.3</ele>
        <time>2024-05-26T08:39:35Z</time>
      </trkpt>
      <trkpt lat="43.74143" lon="6.63861">
        <ele>1363.2</ele>
        <time>2024-05-26T08:39:36Z</time>
      </trkpt>
      <trkpt lat="43.74143" lon="6.63861">
        <ele>1363.2</ele>
        <time>2024-05-26T08:39:37Z</time>
      </trkpt>
      <trkpt lat="43.74143" lon="6.63861">
        <ele>1363.2</ele>
        <time>2024-05-26T08:39:38Z</time>
      </trkpt>
      <trkpt lat="43.74143" lon="6.63861">
        <ele>1363.3</ele>
        <time>2024-05-26T08:39:39Z</time>
      </trkpt>
      <trkpt lat="43.74143" lon="6.63861">
        <ele>1363.2</ele>
        <time>2024-05-26T08:39:40Z</time>
      </trkpt>
      <trkpt lat="43.74143" lon="6.63861">
        <ele>1363.2</ele>
        <time>2024-05-26T08:39:41Z</time>
      </trkpt>
      <trkpt lat="43.74143" lon="6.63861">
        <ele>1363.2</ele>
        <time>2024-05-26T08:39:42Z</time>
      </trkpt>
      <trkpt lat="43.74143" lon="6.63861">
        <ele>1363.2</ele>
        <time>2024-05-26T08:39:43Z</time>
      </trkpt>
      <trkpt lat="43.74143" lon="6.63861">
        <ele>1363.2</ele>
        <time>2024-05-26T08:39:44Z</time>
      </trkpt>
      <trkpt lat="43.74143" lon="6.63861">
        <ele>1363.3</ele>
        <time>2024-05-26T08:39:45Z</time>
      </trkpt>
      <trkpt lat="43.74143" lon="6.63861">
        <ele>1363.3</ele>
        <time>2024-05-26T08:39:46Z</time>
      </trkpt>
      <trkpt lat="43.74143" lon="6.63861">
        <ele>1363.3</ele>
        <time>2024-05-26T08:39:47Z</time>
      </trkpt>
      <trkpt lat="43.74143" lon="6.6386">
        <ele>1363.3</ele>
        <time>2024-05-26T08:39:48Z</time>
      </trkpt>
      <trkpt lat="43.74143" lon="6.6386">
        <ele>1363.3</ele>
        <time>2024-05-26T08:39:49Z</time>
      </trkpt>
      <trkpt lat="43.74144" lon="6.6386">
        <ele>1363.3</ele>
        <time>2024-05-26T08:39:50Z</time>
      </trkpt>
      <trkpt lat="43.74144" lon="6.6386">
        <ele>1363.3</ele>
        <time>2024-05-26T08:39:51Z</time>
      </trkpt>
      <trkpt lat="43.74144" lon="6.6386">
        <ele>1363.3</ele>
        <time>2024-05-26T08:39:52Z</time>
      </trkpt>
      <trkpt lat="43.74144" lon="6.6386">
        <ele>1363.3</ele>
        <time>2024-05-26T08:39:53Z</time>
      </trkpt>
      <trkpt lat="43.74144" lon="6.6386">
        <ele>1363.3</ele>
        <time>2024-05-26T08:39:54Z</time>
      </trkpt>
      <trkpt lat="43.74144" lon="6.6386">
        <ele>1363.3</ele>
        <time>2024-05-26T08:39:55Z</time>
      </trkpt>
      <trkpt lat="43.74144" lon="6.6386">
        <ele>1363.3</ele>
        <time>2024-05-26T08:39:56Z</time>
      </trkpt>
      <trkpt lat="43.74144" lon="6.6386">
        <ele>1363.4</ele>
        <time>2024-05-26T08:39:57Z</time>
      </trkpt>
      <trkpt lat="43.74144" lon="6.63859">
        <ele>1363.3</ele>
        <time>2024-05-26T08:39:58Z</time>
      </trkpt>
      <trkpt lat="43.74143" lon="6.63859">
        <ele>1363.3</ele>
        <time>2024-05-26T08:39:59Z</time>
      </trkpt>
      <trkpt lat="43.74143" lon="6.63858">
        <ele>1363.3</ele>
        <time>2024-05-26T08:40:00Z</time>
      </trkpt>
      <trkpt lat="43.74143" lon="6.63858">
        <ele>1363.3</ele>
        <time>2024-05-26T08:40:01Z</time>
      </trkpt>
      <trkpt lat="43.74143" lon="6.63858">
        <ele>1363.3</ele>
        <time>2024-05-26T08:40:02Z</time>
      </trkpt>
      <trkpt lat="43.74143" lon="6.63858">
        <ele>1363.3</ele>
        <time>2024-05-26T08:40:03Z</time>
      </trkpt>
      <trkpt lat="43.74143" lon="6.63858">
        <ele>1363.3</ele>
        <time>2024-05-26T08:40:04Z</time>
      </trkpt>
      <trkpt lat="43.74143" lon="6.63858">
        <ele>1363.3</ele>
        <time>2024-05-26T08:40:05Z</time>
      </trkpt>
      <trkpt lat="43.74143" lon="6.63858">
        <ele>1363.3</ele>
        <time>2024-05-26T08:40:06Z</time>
      </trkpt>
      <trkpt lat="43.74143" lon="6.63858">
        <ele>1363.3</ele>
        <time>2024-05-26T08:40:07Z</time>
      </trkpt>
      <trkpt lat="43.74143" lon="6.63857">
        <ele>1363.3</ele>
        <time>2024-05-26T08:40:08Z</time>
      </trkpt>
      <trkpt lat="43.74143" lon="6.63857">
        <ele>1363.3</ele>
        <time>2024-05-26T08:40:09Z</time>
      </trkpt>
      <trkpt lat="43.74143" lon="6.63857">
        <ele>1363.3</ele>
        <time>2024-05-26T08:40:10Z</time>
      </trkpt>
      <trkpt lat="43.74143" lon="6.63857">
        <ele>1363.3</ele>
        <time>2024-05-26T08:40:11Z</time>
      </trkpt>
      <trkpt lat="43.74143" lon="6.63857">
        <ele>1363.3</ele>
        <time>2024-05-26T08:40:12Z</time>
      </trkpt>
      <trkpt lat="43.74143" lon="6.63856">
        <ele>1363.2</ele>
        <time>2024-05-26T08:40:13Z</time>
      </trkpt>
      <trkpt lat="43.74143" lon="6.63857">
        <ele>1363.2</ele>
        <time>2024-05-26T08:40:14Z</time>
      </trkpt>
      <trkpt lat="43.74143" lon="6.63857">
        <ele>1363.2</ele>
        <time>2024-05-26T08:40:15Z</time>
      </trkpt>
      <trkpt lat="43.74143" lon="6.63856">
        <ele>1363.1</ele>
        <time>2024-05-26T08:40:16Z</time>
      </trkpt>
      <trkpt lat="43.74143" lon="6.63857">
        <ele>1363.2</ele>
        <time>2024-05-26T08:40:17Z</time>
      </trkpt>
      <trkpt lat="43.74144" lon="6.63857">
        <ele>1363.2</ele>
        <time>2024-05-26T08:40:18Z</time>
      </trkpt>
      <trkpt lat="43.74144" lon="6.63857">
        <ele>1363.1</ele>
        <time>2024-05-26T08:40:19Z</time>
      </trkpt>
      <trkpt lat="43.74144" lon="6.63857">
        <ele>1363.1</ele>
        <time>2024-05-26T08:40:20Z</time>
      </trkpt>
      <trkpt lat="43.74144" lon="6.63857">
        <ele>1363</ele>
        <time>2024-05-26T08:40:21Z</time>
      </trkpt>
      <trkpt lat="43.74144" lon="6.63858">
        <ele>1363</ele>
        <time>2024-05-26T08:40:22Z</time>
      </trkpt>
      <trkpt lat="43.74144" lon="6.63858">
        <ele>1363</ele>
        <time>2024-05-26T08:40:23Z</time>
      </trkpt>
      <trkpt lat="43.74144" lon="6.63858">
        <ele>1363</ele>
        <time>2024-05-26T08:40:24Z</time>
      </trkpt>
      <trkpt lat="43.74144" lon="6.63858">
        <ele>1363</ele>
        <time>2024-05-26T08:40:25Z</time>
      </trkpt>
      <trkpt lat="43.74144" lon="6.63858">
        <ele>1363</ele>
        <time>2024-05-26T08:40:26Z</time>
      </trkpt>
      <trkpt lat="43.74144" lon="6.63857">
        <ele>1363.1</ele>
        <time>2024-05-26T08:40:27Z</time>
      </trkpt>
      <trkpt lat="43.74143" lon="6.63856">
        <ele>1363.1</ele>
        <time>2024-05-26T08:40:28Z</time>
      </trkpt>
      <trkpt lat="43.74143" lon="6.63856">
        <ele>1363.1</ele>
        <time>2024-05-26T08:40:29Z</time>
      </trkpt>
      <trkpt lat="43.74143" lon="6.63856">
        <ele>1363.1</ele>
        <time>2024-05-26T08:40:30Z</time>
      </trkpt>
      <trkpt lat="43.74143" lon="6.63856">
        <ele>1363.1</ele>
        <time>2024-05-26T08:40:31Z</time>
      </trkpt>
      <trkpt lat="43.74143" lon="6.63856">
        <ele>1363</ele>
        <time>2024-05-26T08:40:32Z</time>
      </trkpt>
      <trkpt lat="43.74143" lon="6.63856">
        <ele>1363</ele>
        <time>2024-05-26T08:40:33Z</time>
      </trkpt>
      <trkpt lat="43.74143" lon="6.63856">
        <ele>1363</ele>
        <time>2024-05-26T08:40:34Z</time>
      </trkpt>
      <trkpt lat="43.74143" lon="6.63856">
        <ele>1363.1</ele>
        <time>2024-05-26T08:40:35Z</time>
      </trkpt>
      <trkpt lat="43.74144" lon="6.63856">
        <ele>1363.1</ele>
        <time>2024-05-26T08:40:36Z</time>
      </trkpt>
      <trkpt lat="43.74145" lon="6.63856">
        <ele>1363.1</ele>
        <time>2024-05-26T08:40:37Z</time>
      </trkpt>
      <trkpt lat="43.74145" lon="6.63856">
        <ele>1363.1</ele>
        <time>2024-05-26T08:40:38Z</time>
      </trkpt>
      <trkpt lat="43.74145" lon="6.63855">
        <ele>1363.1</ele>
        <time>2024-05-26T08:40:39Z</time>
      </trkpt>
      <trkpt lat="43.74146" lon="6.63855">
        <ele>1363.1</ele>
        <time>2024-05-26T08:40:40Z</time>
      </trkpt>
      <trkpt lat="43.74145" lon="6.63855">
        <ele>1363.1</ele>
        <time>2024-05-26T08:40:41Z</time>
      </trkpt>
      <trkpt lat="43.74146" lon="6.63854">
        <ele>1363.1</ele>
        <time>2024-05-26T08:40:42Z</time>
      </trkpt>
      <trkpt lat="43.74145" lon="6.63854">
        <ele>1363.1</ele>
        <time>2024-05-26T08:40:43Z</time>
      </trkpt>
      <trkpt lat="43.74145" lon="6.63855">
        <ele>1363.1</ele>
        <time>2024-05-26T08:40:44Z</time>
      </trkpt>
      <trkpt lat="43.74145" lon="6.63855">
        <ele>1363</ele>
        <time>2024-05-26T08:40:45Z</time>
      </trkpt>
      <trkpt lat="43.74145" lon="6.63855">
        <ele>1362.9</ele>
        <time>2024-05-26T08:40:46Z</time>
      </trkpt>
      <trkpt lat="43.74145" lon="6.63855">
        <ele>1362.9</ele>
        <time>2024-05-26T08:40:47Z</time>
      </trkpt>
      <trkpt lat="43.74145" lon="6.63856">
        <ele>1363</ele>
        <time>2024-05-26T08:40:48Z</time>
      </trkpt>
      <trkpt lat="43.74145" lon="6.63856">
        <ele>1363.1</ele>
        <time>2024-05-26T08:40:49Z</time>
      </trkpt>
      <trkpt lat="43.74145" lon="6.63856">
        <ele>1363.1</ele>
        <time>2024-05-26T08:40:50Z</time>
      </trkpt>
      <trkpt lat="43.74146" lon="6.63856">
        <ele>1363.2</ele>
        <time>2024-05-26T08:40:51Z</time>
      </trkpt>
      <trkpt lat="43.74146" lon="6.63857">
        <ele>1363.1</ele>
        <time>2024-05-26T08:40:52Z</time>
      </trkpt>
      <trkpt lat="43.74146" lon="6.63857">
        <ele>1363.1</ele>
        <time>2024-05-26T08:40:53Z</time>
      </trkpt>
      <trkpt lat="43.74147" lon="6.63857">
        <ele>1363.1</ele>
        <time>2024-05-26T08:40:54Z</time>
      </trkpt>
      <trkpt lat="43.74147" lon="6.63857">
        <ele>1363.1</ele>
        <time>2024-05-26T08:40:55Z</time>
      </trkpt>
      <trkpt lat="43.74147" lon="6.63856">
        <ele>1363.2</ele>
        <time>2024-05-26T08:40:56Z</time>
      </trkpt>
      <trkpt lat="43.74148" lon="6.63856">
        <ele>1363.2</ele>
        <time>2024-05-26T08:40:57Z</time>
      </trkpt>
      <trkpt lat="43.74148" lon="6.63857">
        <ele>1363.3</ele>
        <time>2024-05-26T08:40:58Z</time>
      </trkpt>
      <trkpt lat="43.74148" lon="6.63857">
        <ele>1363.3</ele>
        <time>2024-05-26T08:40:59Z</time>
      </trkpt>
      <trkpt lat="43.74148" lon="6.63857">
        <ele>1363.3</ele>
        <time>2024-05-26T08:41:00Z</time>
      </trkpt>
      <trkpt lat="43.74148" lon="6.63857">
        <ele>1363.4</ele>
        <time>2024-05-26T08:41:01Z</time>
      </trkpt>
      <trkpt lat="43.74148" lon="6.63858">
        <ele>1363.4</ele>
        <time>2024-05-26T08:41:02Z</time>
      </trkpt>
      <trkpt lat="43.74148" lon="6.63858">
        <ele>1363.4</ele>
        <time>2024-05-26T08:41:03Z</time>
      </trkpt>
      <trkpt lat="43.74148" lon="6.63858">
        <ele>1363.4</ele>
        <time>2024-05-26T08:41:04Z</time>
      </trkpt>
      <trkpt lat="43.74148" lon="6.63858">
        <ele>1363.4</ele>
        <time>2024-05-26T08:41:05Z</time>
      </trkpt>
      <trkpt lat="43.74148" lon="6.63858">
        <ele>1363.5</ele>
        <time>2024-05-26T08:41:06Z</time>
      </trkpt>
      <trkpt lat="43.74148" lon="6.63858">
        <ele>1363.5</ele>
        <time>2024-05-26T08:41:07Z</time>
      </trkpt>
      <trkpt lat="43.74148" lon="6.63858">
        <ele>1363.5</ele>
        <time>2024-05-26T08:41:08Z</time>
      </trkpt>
      <trkpt lat="43.74148" lon="6.63858">
        <ele>1363.5</ele>
        <time>2024-05-26T08:41:09Z</time>
      </trkpt>
      <trkpt lat="43.74148" lon="6.63858">
        <ele>1363.5</ele>
        <time>2024-05-26T08:41:10Z</time>
      </trkpt>
      <trkpt lat="43.74148" lon="6.63858">
        <ele>1363.5</ele>
        <time>2024-05-26T08:41:11Z</time>
      </trkpt>
      <trkpt lat="43.74148" lon="6.63858">
        <ele>1363.4</ele>
        <time>2024-05-26T08:41:12Z</time>
      </trkpt>
      <trkpt lat="43.74148" lon="6.63858">
        <ele>1363.4</ele>
        <time>2024-05-26T08:41:13Z</time>
      </trkpt>
      <trkpt lat="43.74148" lon="6.63858">
        <ele>1363.4</ele>
        <time>2024-05-26T08:41:14Z</time>
      </trkpt>
      <trkpt lat="43.74148" lon="6.63858">
        <ele>1363.4</ele>
        <time>2024-05-26T08:41:15Z</time>
      </trkpt>
      <trkpt lat="43.74148" lon="6.63858">
        <ele>1363.4</ele>
        <time>2024-05-26T08:41:16Z</time>
      </trkpt>
      <trkpt lat="43.74148" lon="6.63858">
        <ele>1363.4</ele>
        <time>2024-05-26T08:41:17Z</time>
      </trkpt>
      <trkpt lat="43.74148" lon="6.63858">
        <ele>1363.2</ele>
        <time>2024-05-26T08:41:18Z</time>
      </trkpt>
      <trkpt lat="43.74148" lon="6.63858">
        <ele>1363.2</ele>
        <time>2024-05-26T08:41:19Z</time>
      </trkpt>
      <trkpt lat="43.74148" lon="6.63858">
        <ele>1363.3</ele>
        <time>2024-05-26T08:41:20Z</time>
      </trkpt>
      <trkpt lat="43.74148" lon="6.63858">
        <ele>1363.3</ele>
        <time>2024-05-26T08:41:21Z</time>
      </trkpt>
      <trkpt lat="43.74148" lon="6.63858">
        <ele>1363.3</ele>
        <time>2024-05-26T08:41:22Z</time>
      </trkpt>
      <trkpt lat="43.74148" lon="6.63858">
        <ele>1363.3</ele>
        <time>2024-05-26T08:41:23Z</time>
      </trkpt>
      <trkpt lat="43.74148" lon="6.63857">
        <ele>1363.3</ele>
        <time>2024-05-26T08:41:24Z</time>
      </trkpt>
      <trkpt lat="43.74148" lon="6.63859">
        <ele>1363.3</ele>
        <time>2024-05-26T08:41:25Z</time>
      </trkpt>
      <trkpt lat="43.74148" lon="6.63858">
        <ele>1363.3</ele>
        <time>2024-05-26T08:41:26Z</time>
      </trkpt>
      <trkpt lat="43.74148" lon="6.63858">
        <ele>1363.4</ele>
        <time>2024-05-26T08:41:27Z</time>
      </trkpt>
      <trkpt lat="43.74148" lon="6.63858">
        <ele>1363.3</ele>
        <time>2024-05-26T08:41:28Z</time>
      </trkpt>
      <trkpt lat="43.74148" lon="6.63857">
        <ele>1363.3</ele>
        <time>2024-05-26T08:41:29Z</time>
      </trkpt>
      <trkpt lat="43.74149" lon="6.63857">
        <ele>1363.3</ele>
        <time>2024-05-26T08:41:30Z</time>
      </trkpt>
      <trkpt lat="43.74148" lon="6.63857">
        <ele>1363.2</ele>
        <time>2024-05-26T08:41:31Z</time>
      </trkpt>
      <trkpt lat="43.74149" lon="6.63857">
        <ele>1363.2</ele>
        <time>2024-05-26T08:41:32Z</time>
      </trkpt>
      <trkpt lat="43.74149" lon="6.63857">
        <ele>1363.2</ele>
        <time>2024-05-26T08:41:33Z</time>
      </trkpt>
      <trkpt lat="43.74149" lon="6.63857">
        <ele>1363.2</ele>
        <time>2024-05-26T08:41:34Z</time>
      </trkpt>
      <trkpt lat="43.74149" lon="6.63857">
        <ele>1363.2</ele>
        <time>2024-05-26T08:41:35Z</time>
      </trkpt>
      <trkpt lat="43.74149" lon="6.63857">
        <ele>1363.1</ele>
        <time>2024-05-26T08:41:36Z</time>
      </trkpt>
      <trkpt lat="43.74149" lon="6.63857">
        <ele>1363.1</ele>
        <time>2024-05-26T08:41:37Z</time>
      </trkpt>
      <trkpt lat="43.74149" lon="6.63857">
        <ele>1363.1</ele>
        <time>2024-05-26T08:41:38Z</time>
      </trkpt>
      <trkpt lat="43.74149" lon="6.63857">
        <ele>1363</ele>
        <time>2024-05-26T08:41:39Z</time>
      </trkpt>
      <trkpt lat="43.74148" lon="6.63857">
        <ele>1363</ele>
        <time>2024-05-26T08:41:40Z</time>
      </trkpt>
      <trkpt lat="43.74148" lon="6.63858">
        <ele>1363</ele>
        <time>2024-05-26T08:41:41Z</time>
      </trkpt>
      <trkpt lat="43.74148" lon="6.63858">
        <ele>1363</ele>
        <time>2024-05-26T08:41:42Z</time>
      </trkpt>
      <trkpt lat="43.74148" lon="6.63858">
        <ele>1363</ele>
        <time>2024-05-26T08:41:43Z</time>
      </trkpt>
      <trkpt lat="43.74148" lon="6.63858">
        <ele>1363.1</ele>
        <time>2024-05-26T08:41:44Z</time>
      </trkpt>
      <trkpt lat="43.74148" lon="6.63858">
        <ele>1363.1</ele>
        <time>2024-05-26T08:41:45Z</time>
      </trkpt>
      <trkpt lat="43.74148" lon="6.63858">
        <ele>1363.1</ele>
        <time>2024-05-26T08:41:46Z</time>
      </trkpt>
      <trkpt lat="43.74148" lon="6.63857">
        <ele>1363.1</ele>
        <time>2024-05-26T08:41:47Z</time>
      </trkpt>
      <trkpt lat="43.74148" lon="6.63858">
        <ele>1363.2</ele>
        <time>2024-05-26T08:41:48Z</time>
      </trkpt>
      <trkpt lat="43.74148" lon="6.63857">
        <ele>1363.1</ele>
        <time>2024-05-26T08:41:49Z</time>
      </trkpt>
      <trkpt lat="43.74148" lon="6.63857">
        <ele>1363.1</ele>
        <time>2024-05-26T08:41:50Z</time>
      </trkpt>
      <trkpt lat="43.74148" lon="6.63857">
        <ele>1363.1</ele>
        <time>2024-05-26T08:41:51Z</time>
      </trkpt>
      <trkpt lat="43.74148" lon="6.63857">
        <ele>1363.1</ele>
        <time>2024-05-26T08:41:52Z</time>
      </trkpt>
      <trkpt lat="43.74148" lon="6.63857">
        <ele>1363.2</ele>
        <time>2024-05-26T08:41:53Z</time>
      </trkpt>
      <trkpt lat="43.74148" lon="6.63857">
        <ele>1363.2</ele>
        <time>2024-05-26T08:41:54Z</time>
      </trkpt>
      <trkpt lat="43.74148" lon="6.63857">
        <ele>1363.3</ele>
        <time>2024-05-26T08:41:55Z</time>
      </trkpt>
      <trkpt lat="43.74148" lon="6.63857">
        <ele>1363.3</ele>
        <time>2024-05-26T08:41:56Z</time>
      </trkpt>
      <trkpt lat="43.74149" lon="6.63857">
        <ele>1363.3</ele>
        <time>2024-05-26T08:41:57Z</time>
      </trkpt>
      <trkpt lat="43.74149" lon="6.63856">
        <ele>1363.3</ele>
        <time>2024-05-26T08:41:58Z</time>
      </trkpt>
      <trkpt lat="43.74149" lon="6.63856">
        <ele>1363.4</ele>
        <time>2024-05-26T08:41:59Z</time>
      </trkpt>
      <trkpt lat="43.74149" lon="6.63856">
        <ele>1363.4</ele>
        <time>2024-05-26T08:42:00Z</time>
      </trkpt>
      <trkpt lat="43.74149" lon="6.63856">
        <ele>1363.4</ele>
        <time>2024-05-26T08:42:01Z</time>
      </trkpt>
      <trkpt lat="43.74149" lon="6.63856">
        <ele>1363.4</ele>
        <time>2024-05-26T08:42:02Z</time>
      </trkpt>
      <trkpt lat="43.7415" lon="6.63856">
        <ele>1363.4</ele>
        <time>2024-05-26T08:42:03Z</time>
      </trkpt>
      <trkpt lat="43.7415" lon="6.63856">
        <ele>1363.3</ele>
        <time>2024-05-26T08:42:04Z</time>
      </trkpt>
      <trkpt lat="43.7415" lon="6.63856">
        <ele>1363.3</ele>
        <time>2024-05-26T08:42:05Z</time>
      </trkpt>
      <trkpt lat="43.7415" lon="6.63856">
        <ele>1363.2</ele>
        <time>2024-05-26T08:42:06Z</time>
      </trkpt>
      <trkpt lat="43.7415" lon="6.63856">
        <ele>1363.3</ele>
        <time>2024-05-26T08:42:07Z</time>
      </trkpt>
      <trkpt lat="43.74151" lon="6.63856">
        <ele>1363.4</ele>
        <time>2024-05-26T08:42:08Z</time>
      </trkpt>
      <trkpt lat="43.74151" lon="6.63856">
        <ele>1363.2</ele>
        <time>2024-05-26T08:42:09Z</time>
      </trkpt>
      <trkpt lat="43.7415" lon="6.63856">
        <ele>1363.1</ele>
        <time>2024-05-26T08:42:10Z</time>
      </trkpt>
      <trkpt lat="43.7415" lon="6.63856">
        <ele>1363.1</ele>
        <time>2024-05-26T08:42:11Z</time>
      </trkpt>
      <trkpt lat="43.7415" lon="6.63856">
        <ele>1363.1</ele>
        <time>2024-05-26T08:42:12Z</time>
      </trkpt>
      <trkpt lat="43.7415" lon="6.63856">
        <ele>1363.1</ele>
        <time>2024-05-26T08:42:13Z</time>
      </trkpt>
      <trkpt lat="43.7415" lon="6.63855">
        <ele>1363</ele>
        <time>2024-05-26T08:42:14Z</time>
      </trkpt>
      <trkpt lat="43.7415" lon="6.63855">
        <ele>1363</ele>
        <time>2024-05-26T08:42:15Z</time>
      </trkpt>
      <trkpt lat="43.7415" lon="6.63856">
        <ele>1363</ele>
        <time>2024-05-26T08:42:16Z</time>
      </trkpt>
      <trkpt lat="43.7415" lon="6.63856">
        <ele>1363</ele>
        <time>2024-05-26T08:42:17Z</time>
      </trkpt>
      <trkpt lat="43.7415" lon="6.63856">
        <ele>1363</ele>
        <time>2024-05-26T08:42:18Z</time>
      </trkpt>
      <trkpt lat="43.74151" lon="6.63856">
        <ele>1363.1</ele>
        <time>2024-05-26T08:42:19Z</time>
      </trkpt>
      <trkpt lat="43.74152" lon="6.63857">
        <ele>1363.1</ele>
        <time>2024-05-26T08:42:20Z</time>
      </trkpt>
      <trkpt lat="43.74152" lon="6.63857">
        <ele>1363.1</ele>
        <time>2024-05-26T08:42:21Z</time>
      </trkpt>
      <trkpt lat="43.74153" lon="6.63857">
        <ele>1363.1</ele>
        <time>2024-05-26T08:42:22Z</time>
      </trkpt>
      <trkpt lat="43.74153" lon="6.63858">
        <ele>1363.2</ele>
        <time>2024-05-26T08:42:23Z</time>
      </trkpt>
      <trkpt lat="43.74154" lon="6.63857">
        <ele>1363.2</ele>
        <time>2024-05-26T08:42:24Z</time>
      </trkpt>
      <trkpt lat="43.74155" lon="6.63857">
        <ele>1363.3</ele>
        <time>2024-05-26T08:42:25Z</time>
      </trkpt>
      <trkpt lat="43.74156" lon="6.63858">
        <ele>1363.3</ele>
        <time>2024-05-26T08:42:26Z</time>
      </trkpt>
      <trkpt lat="43.74157" lon="6.63858">
        <ele>1363.3</ele>
        <time>2024-05-26T08:42:27Z</time>
      </trkpt>
      <trkpt lat="43.74157" lon="6.63859">
        <ele>1363.3</ele>
        <time>2024-05-26T08:42:28Z</time>
      </trkpt>
      <trkpt lat="43.74159" lon="6.63861">
        <ele>1363.3</ele>
        <time>2024-05-26T08:42:29Z</time>
      </trkpt>
      <trkpt lat="43.7416" lon="6.63861">
        <ele>1363.4</ele>
        <time>2024-05-26T08:42:30Z</time>
      </trkpt>
      <trkpt lat="43.74161" lon="6.63861">
        <ele>1363.5</ele>
        <time>2024-05-26T08:42:31Z</time>
      </trkpt>
      <trkpt lat="43.74162" lon="6.63861">
        <ele>1363.5</ele>
        <time>2024-05-26T08:42:32Z</time>
      </trkpt>
      <trkpt lat="43.74162" lon="6.63861">
        <ele>1363.5</ele>
        <time>2024-05-26T08:42:33Z</time>
      </trkpt>
      <trkpt lat="43.74163" lon="6.63861">
        <ele>1363.6</ele>
        <time>2024-05-26T08:42:34Z</time>
      </trkpt>
      <trkpt lat="43.74164" lon="6.63862">
        <ele>1363.6</ele>
        <time>2024-05-26T08:42:35Z</time>
      </trkpt>
      <trkpt lat="43.74164" lon="6.63862">
        <ele>1363.7</ele>
        <time>2024-05-26T08:42:36Z</time>
      </trkpt>
      <trkpt lat="43.74165" lon="6.63863">
        <ele>1363.7</ele>
        <time>2024-05-26T08:42:37Z</time>
      </trkpt>
      <trkpt lat="43.74166" lon="6.63863">
        <ele>1363.7</ele>
        <time>2024-05-26T08:42:38Z</time>
      </trkpt>
      <trkpt lat="43.74167" lon="6.63863">
        <ele>1363.7</ele>
        <time>2024-05-26T08:42:39Z</time>
      </trkpt>
      <trkpt lat="43.74168" lon="6.63863">
        <ele>1363.7</ele>
        <time>2024-05-26T08:42:40Z</time>
      </trkpt>
      <trkpt lat="43.74169" lon="6.63863">
        <ele>1363.7</ele>
        <time>2024-05-26T08:42:41Z</time>
      </trkpt>
      <trkpt lat="43.7417" lon="6.63863">
        <ele>1363.8</ele>
        <time>2024-05-26T08:42:42Z</time>
      </trkpt>
      <trkpt lat="43.7417" lon="6.63862">
        <ele>1363.8</ele>
        <time>2024-05-26T08:42:43Z</time>
      </trkpt>
      <trkpt lat="43.74171" lon="6.63861">
        <ele>1363.9</ele>
        <time>2024-05-26T08:42:44Z</time>
      </trkpt>
      <trkpt lat="43.74172" lon="6.63861">
        <ele>1364</ele>
        <time>2024-05-26T08:42:45Z</time>
      </trkpt>
      <trkpt lat="43.74173" lon="6.63861">
        <ele>1364.1</ele>
        <time>2024-05-26T08:42:46Z</time>
      </trkpt>
      <trkpt lat="43.74174" lon="6.63861">
        <ele>1364.2</ele>
        <time>2024-05-26T08:42:47Z</time>
      </trkpt>
      <trkpt lat="43.74175" lon="6.63861">
        <ele>1364.2</ele>
        <time>2024-05-26T08:42:48Z</time>
      </trkpt>
      <trkpt lat="43.74175" lon="6.63861">
        <ele>1364.3</ele>
        <time>2024-05-26T08:42:49Z</time>
      </trkpt>
      <trkpt lat="43.74176" lon="6.63861">
        <ele>1364.3</ele>
        <time>2024-05-26T08:42:50Z</time>
      </trkpt>
      <trkpt lat="43.74177" lon="6.63861">
        <ele>1364.4</ele>
        <time>2024-05-26T08:42:51Z</time>
      </trkpt>
      <trkpt lat="43.74178" lon="6.63861">
        <ele>1364.5</ele>
        <time>2024-05-26T08:42:52Z</time>
      </trkpt>
      <trkpt lat="43.74179" lon="6.63862">
        <ele>1364.7</ele>
        <time>2024-05-26T08:42:53Z</time>
      </trkpt>
      <trkpt lat="43.74179" lon="6.63861">
        <ele>1364.7</ele>
        <time>2024-05-26T08:42:54Z</time>
      </trkpt>
      <trkpt lat="43.74181" lon="6.6386">
        <ele>1364.7</ele>
        <time>2024-05-26T08:42:55Z</time>
      </trkpt>
      <trkpt lat="43.74181" lon="6.63859">
        <ele>1364.8</ele>
        <time>2024-05-26T08:42:56Z</time>
      </trkpt>
      <trkpt lat="43.74181" lon="6.63858">
        <ele>1364.8</ele>
        <time>2024-05-26T08:42:57Z</time>
      </trkpt>
      <trkpt lat="43.74182" lon="6.63858">
        <ele>1364.9</ele>
        <time>2024-05-26T08:42:58Z</time>
      </trkpt>
      <trkpt lat="43.74183" lon="6.63857">
        <ele>1365</ele>
        <time>2024-05-26T08:42:59Z</time>
      </trkpt>
      <trkpt lat="43.74183" lon="6.63857">
        <ele>1365</ele>
        <time>2024-05-26T08:43:00Z</time>
      </trkpt>
      <trkpt lat="43.74184" lon="6.63856">
        <ele>1365.1</ele>
        <time>2024-05-26T08:43:01Z</time>
      </trkpt>
      <trkpt lat="43.74184" lon="6.63856">
        <ele>1365.3</ele>
        <time>2024-05-26T08:43:02Z</time>
      </trkpt>
      <trkpt lat="43.74185" lon="6.63854">
        <ele>1365.4</ele>
        <time>2024-05-26T08:43:03Z</time>
      </trkpt>
      <trkpt lat="43.74186" lon="6.63854">
        <ele>1365.6</ele>
        <time>2024-05-26T08:43:04Z</time>
      </trkpt>
      <trkpt lat="43.74186" lon="6.63853">
        <ele>1365.7</ele>
        <time>2024-05-26T08:43:05Z</time>
      </trkpt>
      <trkpt lat="43.74187" lon="6.63853">
        <ele>1365.7</ele>
        <time>2024-05-26T08:43:06Z</time>
      </trkpt>
      <trkpt lat="43.74188" lon="6.63854">
        <ele>1365.9</ele>
        <time>2024-05-26T08:43:07Z</time>
      </trkpt>
      <trkpt lat="43.74188" lon="6.63852">
        <ele>1366</ele>
        <time>2024-05-26T08:43:08Z</time>
      </trkpt>
      <trkpt lat="43.74189" lon="6.63852">
        <ele>1366</ele>
        <time>2024-05-26T08:43:09Z</time>
      </trkpt>
      <trkpt lat="43.7419" lon="6.63853">
        <ele>1366.1</ele>
        <time>2024-05-26T08:43:10Z</time>
      </trkpt>
      <trkpt lat="43.74191" lon="6.63851">
        <ele>1366.1</ele>
        <time>2024-05-26T08:43:11Z</time>
      </trkpt>
      <trkpt lat="43.74192" lon="6.63851">
        <ele>1366.1</ele>
        <time>2024-05-26T08:43:12Z</time>
      </trkpt>
      <trkpt lat="43.74193" lon="6.63852">
        <ele>1366.2</ele>
        <time>2024-05-26T08:43:13Z</time>
      </trkpt>
      <trkpt lat="43.74193" lon="6.63852">
        <ele>1366.2</ele>
        <time>2024-05-26T08:43:14Z</time>
      </trkpt>
      <trkpt lat="43.74195" lon="6.63852">
        <ele>1366.2</ele>
        <time>2024-05-26T08:43:15Z</time>
      </trkpt>
      <trkpt lat="43.74197" lon="6.63852">
        <ele>1366.3</ele>
        <time>2024-05-26T08:43:16Z</time>
      </trkpt>
      <trkpt lat="43.74198" lon="6.63852">
        <ele>1366.4</ele>
        <time>2024-05-26T08:43:17Z</time>
      </trkpt>
      <trkpt lat="43.74199" lon="6.63852">
        <ele>1366.6</ele>
        <time>2024-05-26T08:43:18Z</time>
      </trkpt>
      <trkpt lat="43.742" lon="6.63852">
        <ele>1366.6</ele>
        <time>2024-05-26T08:43:19Z</time>
      </trkpt>
      <trkpt lat="43.74201" lon="6.63852">
        <ele>1366.7</ele>
        <time>2024-05-26T08:43:20Z</time>
      </trkpt>
      <trkpt lat="43.74202" lon="6.63852">
        <ele>1366.8</ele>
        <time>2024-05-26T08:43:21Z</time>
      </trkpt>
      <trkpt lat="43.74202" lon="6.63851">
        <ele>1366.7</ele>
        <time>2024-05-26T08:43:22Z</time>
      </trkpt>
      <trkpt lat="43.74204" lon="6.63851">
        <ele>1366.7</ele>
        <time>2024-05-26T08:43:23Z</time>
      </trkpt>
      <trkpt lat="43.74205" lon="6.6385">
        <ele>1366.8</ele>
        <time>2024-05-26T08:43:24Z</time>
      </trkpt>
      <trkpt lat="43.74206" lon="6.63849">
        <ele>1366.8</ele>
        <time>2024-05-26T08:43:25Z</time>
      </trkpt>
      <trkpt lat="43.74207" lon="6.6385">
        <ele>1366.9</ele>
        <time>2024-05-26T08:43:26Z</time>
      </trkpt>
      <trkpt lat="43.74208" lon="6.6385">
        <ele>1367.1</ele>
        <time>2024-05-26T08:43:27Z</time>
      </trkpt>
      <trkpt lat="43.74209" lon="6.6385">
        <ele>1367.2</ele>
        <time>2024-05-26T08:43:28Z</time>
      </trkpt>
      <trkpt lat="43.7421" lon="6.63851">
        <ele>1367.3</ele>
        <time>2024-05-26T08:43:29Z</time>
      </trkpt>
      <trkpt lat="43.74211" lon="6.6385">
        <ele>1367.4</ele>
        <time>2024-05-26T08:43:30Z</time>
      </trkpt>
      <trkpt lat="43.74212" lon="6.63849">
        <ele>1367.5</ele>
        <time>2024-05-26T08:43:31Z</time>
      </trkpt>
      <trkpt lat="43.74213" lon="6.63848">
        <ele>1367.5</ele>
        <time>2024-05-26T08:43:32Z</time>
      </trkpt>
      <trkpt lat="43.74214" lon="6.63848">
        <ele>1367.5</ele>
        <time>2024-05-26T08:43:33Z</time>
      </trkpt>
      <trkpt lat="43.74215" lon="6.63848">
        <ele>1367.5</ele>
        <time>2024-05-26T08:43:34Z</time>
      </trkpt>
      <trkpt lat="43.74215" lon="6.63846">
        <ele>1367.6</ele>
        <time>2024-05-26T08:43:35Z</time>
      </trkpt>
      <trkpt lat="43.74216" lon="6.63845">
        <ele>1367.7</ele>
        <time>2024-05-26T08:43:36Z</time>
      </trkpt>
      <trkpt lat="43.74217" lon="6.63844">
        <ele>1367.7</ele>
        <time>2024-05-26T08:43:37Z</time>
      </trkpt>
      <trkpt lat="43.74218" lon="6.63844">
        <ele>1367.8</ele>
        <time>2024-05-26T08:43:38Z</time>
      </trkpt>
      <trkpt lat="43.74219" lon="6.63843">
        <ele>1367.9</ele>
        <time>2024-05-26T08:43:39Z</time>
      </trkpt>
      <trkpt lat="43.7422" lon="6.63843">
        <ele>1367.9</ele>
        <time>2024-05-26T08:43:40Z</time>
      </trkpt>
      <trkpt lat="43.74221" lon="6.63842">
        <ele>1368</ele>
        <time>2024-05-26T08:43:41Z</time>
      </trkpt>
      <trkpt lat="43.74222" lon="6.63842">
        <ele>1368</ele>
        <time>2024-05-26T08:43:42Z</time>
      </trkpt>
      <trkpt lat="43.74223" lon="6.63842">
        <ele>1368</ele>
        <time>2024-05-26T08:43:43Z</time>
      </trkpt>
      <trkpt lat="43.74224" lon="6.63841">
        <ele>1368.1</ele>
        <time>2024-05-26T08:43:44Z</time>
      </trkpt>
      <trkpt lat="43.74225" lon="6.6384">
        <ele>1368.1</ele>
        <time>2024-05-26T08:43:45Z</time>
      </trkpt>
      <trkpt lat="43.74226" lon="6.6384">
        <ele>1368.1</ele>
        <time>2024-05-26T08:43:46Z</time>
      </trkpt>
      <trkpt lat="43.74228" lon="6.6384">
        <ele>1368.1</ele>
        <time>2024-05-26T08:43:47Z</time>
      </trkpt>
      <trkpt lat="43.74228" lon="6.63839">
        <ele>1368.1</ele>
        <time>2024-05-26T08:43:48Z</time>
      </trkpt>
      <trkpt lat="43.74229" lon="6.63839">
        <ele>1368.2</ele>
        <time>2024-05-26T08:43:49Z</time>
      </trkpt>
      <trkpt lat="43.7423" lon="6.63839">
        <ele>1368.2</ele>
        <time>2024-05-26T08:43:50Z</time>
      </trkpt>
      <trkpt lat="43.74231" lon="6.63838">
        <ele>1368.3</ele>
        <time>2024-05-26T08:43:51Z</time>
      </trkpt>
      <trkpt lat="43.74232" lon="6.63837">
        <ele>1368.3</ele>
        <time>2024-05-26T08:43:52Z</time>
      </trkpt>
      <trkpt lat="43.74233" lon="6.63837">
        <ele>1368.4</ele>
        <time>2024-05-26T08:43:53Z</time>
      </trkpt>
      <trkpt lat="43.74233" lon="6.63836">
        <ele>1368.4</ele>
        <time>2024-05-26T08:43:54Z</time>
      </trkpt>
      <trkpt lat="43.74235" lon="6.63836">
        <ele>1368.5</ele>
        <time>2024-05-26T08:43:55Z</time>
      </trkpt>
      <trkpt lat="43.74236" lon="6.63836">
        <ele>1368.5</ele>
        <time>2024-05-26T08:43:56Z</time>
      </trkpt>
      <trkpt lat="43.74237" lon="6.63836">
        <ele>1368.6</ele>
        <time>2024-05-26T08:43:57Z</time>
      </trkpt>
      <trkpt lat="43.74238" lon="6.63836">
        <ele>1368.6</ele>
        <time>2024-05-26T08:43:58Z</time>
      </trkpt>
      <trkpt lat="43.74239" lon="6.63835">
        <ele>1368.6</ele>
        <time>2024-05-26T08:43:59Z</time>
      </trkpt>
      <trkpt lat="43.7424" lon="6.63834">
        <ele>1368.7</ele>
        <time>2024-05-26T08:44:00Z</time>
      </trkpt>
      <trkpt lat="43.74242" lon="6.63833">
        <ele>1368.7</ele>
        <time>2024-05-26T08:44:01Z</time>
      </trkpt>
      <trkpt lat="43.74243" lon="6.63833">
        <ele>1368.8</ele>
        <time>2024-05-26T08:44:02Z</time>
      </trkpt>
      <trkpt lat="43.74245" lon="6.63833">
        <ele>1368.9</ele>
        <time>2024-05-26T08:44:03Z</time>
      </trkpt>
      <trkpt lat="43.74246" lon="6.63833">
        <ele>1368.9</ele>
        <time>2024-05-26T08:44:04Z</time>
      </trkpt>
      <trkpt lat="43.74246" lon="6.63833">
        <ele>1369</ele>
        <time>2024-05-26T08:44:05Z</time>
      </trkpt>
      <trkpt lat="43.74247" lon="6.63834">
        <ele>1368.9</ele>
        <time>2024-05-26T08:44:06Z</time>
      </trkpt>
      <trkpt lat="43.74248" lon="6.63834">
        <ele>1368.9</ele>
        <time>2024-05-26T08:44:07Z</time>
      </trkpt>
      <trkpt lat="43.74249" lon="6.63834">
        <ele>1368.9</ele>
        <time>2024-05-26T08:44:08Z</time>
      </trkpt>
      <trkpt lat="43.7425" lon="6.63834">
        <ele>1369</ele>
        <time>2024-05-26T08:44:09Z</time>
      </trkpt>
      <trkpt lat="43.74251" lon="6.63834">
        <ele>1369.2</ele>
        <time>2024-05-26T08:44:10Z</time>
      </trkpt>
      <trkpt lat="43.74253" lon="6.63833">
        <ele>1369.3</ele>
        <time>2024-05-26T08:44:11Z</time>
      </trkpt>
      <trkpt lat="43.74253" lon="6.63832">
        <ele>1369.4</ele>
        <time>2024-05-26T08:44:12Z</time>
      </trkpt>
      <trkpt lat="43.74254" lon="6.63832">
        <ele>1369.4</ele>
        <time>2024-05-26T08:44:13Z</time>
      </trkpt>
      <trkpt lat="43.74255" lon="6.63832">
        <ele>1369.5</ele>
        <time>2024-05-26T08:44:14Z</time>
      </trkpt>
      <trkpt lat="43.74255" lon="6.63832">
        <ele>1369.6</ele>
        <time>2024-05-26T08:44:15Z</time>
      </trkpt>
      <trkpt lat="43.74256" lon="6.63833">
        <ele>1369.6</ele>
        <time>2024-05-26T08:44:16Z</time>
      </trkpt>
      <trkpt lat="43.74257" lon="6.63833">
        <ele>1369.6</ele>
        <time>2024-05-26T08:44:17Z</time>
      </trkpt>
      <trkpt lat="43.74258" lon="6.63833">
        <ele>1369.6</ele>
        <time>2024-05-26T08:44:18Z</time>
      </trkpt>
      <trkpt lat="43.74258" lon="6.63833">
        <ele>1369.6</ele>
        <time>2024-05-26T08:44:19Z</time>
      </trkpt>
      <trkpt lat="43.74259" lon="6.63833">
        <ele>1369.6</ele>
        <time>2024-05-26T08:44:20Z</time>
      </trkpt>
      <trkpt lat="43.74259" lon="6.63833">
        <ele>1369.6</ele>
        <time>2024-05-26T08:44:21Z</time>
      </trkpt>
      <trkpt lat="43.7426" lon="6.63833">
        <ele>1369.7</ele>
        <time>2024-05-26T08:44:22Z</time>
      </trkpt>
      <trkpt lat="43.74261" lon="6.63832">
        <ele>1369.7</ele>
        <time>2024-05-26T08:44:23Z</time>
      </trkpt>
      <trkpt lat="43.74262" lon="6.63832">
        <ele>1369.8</ele>
        <time>2024-05-26T08:44:24Z</time>
      </trkpt>
      <trkpt lat="43.74262" lon="6.63832">
        <ele>1370</ele>
        <time>2024-05-26T08:44:25Z</time>
      </trkpt>
      <trkpt lat="43.74263" lon="6.63832">
        <ele>1370.1</ele>
        <time>2024-05-26T08:44:26Z</time>
      </trkpt>
      <trkpt lat="43.74264" lon="6.63832">
        <ele>1370.1</ele>
        <time>2024-05-26T08:44:27Z</time>
      </trkpt>
      <trkpt lat="43.74265" lon="6.63833">
        <ele>1370.3</ele>
        <time>2024-05-26T08:44:28Z</time>
      </trkpt>
      <trkpt lat="43.74266" lon="6.63833">
        <ele>1370.3</ele>
        <time>2024-05-26T08:44:29Z</time>
      </trkpt>
      <trkpt lat="43.74266" lon="6.63833">
        <ele>1370.4</ele>
        <time>2024-05-26T08:44:30Z</time>
      </trkpt>
      <trkpt lat="43.74267" lon="6.63833">
        <ele>1370.3</ele>
        <time>2024-05-26T08:44:31Z</time>
      </trkpt>
      <trkpt lat="43.74268" lon="6.63834">
        <ele>1370.4</ele>
        <time>2024-05-26T08:44:32Z</time>
      </trkpt>
      <trkpt lat="43.74269" lon="6.63834">
        <ele>1370.4</ele>
        <time>2024-05-26T08:44:33Z</time>
      </trkpt>
      <trkpt lat="43.7427" lon="6.63834">
        <ele>1370.4</ele>
        <time>2024-05-26T08:44:34Z</time>
      </trkpt>
      <trkpt lat="43.74271" lon="6.63835">
        <ele>1370.5</ele>
        <time>2024-05-26T08:44:35Z</time>
      </trkpt>
      <trkpt lat="43.74272" lon="6.63835">
        <ele>1370.5</ele>
        <time>2024-05-26T08:44:36Z</time>
      </trkpt>
      <trkpt lat="43.74273" lon="6.63836">
        <ele>1370.6</ele>
        <time>2024-05-26T08:44:37Z</time>
      </trkpt>
      <trkpt lat="43.74274" lon="6.63837">
        <ele>1370.6</ele>
        <time>2024-05-26T08:44:38Z</time>
      </trkpt>
      <trkpt lat="43.74275" lon="6.63837">
        <ele>1370.7</ele>
        <time>2024-05-26T08:44:39Z</time>
      </trkpt>
      <trkpt lat="43.74276" lon="6.63836">
        <ele>1370.9</ele>
        <time>2024-05-26T08:44:40Z</time>
      </trkpt>
      <trkpt lat="43.74276" lon="6.63836">
        <ele>1370.9</ele>
        <time>2024-05-26T08:44:41Z</time>
      </trkpt>
      <trkpt lat="43.74277" lon="6.63837">
        <ele>1371.1</ele>
        <time>2024-05-26T08:44:42Z</time>
      </trkpt>
      <trkpt lat="43.74278" lon="6.63838">
        <ele>1371.3</ele>
        <time>2024-05-26T08:44:43Z</time>
      </trkpt>
      <trkpt lat="43.74279" lon="6.63838">
        <ele>1371.4</ele>
        <time>2024-05-26T08:44:44Z</time>
      </trkpt>
      <trkpt lat="43.7428" lon="6.63839">
        <ele>1371.5</ele>
        <time>2024-05-26T08:44:45Z</time>
      </trkpt>
      <trkpt lat="43.74281" lon="6.63838">
        <ele>1371.5</ele>
        <time>2024-05-26T08:44:46Z</time>
      </trkpt>
      <trkpt lat="43.74282" lon="6.63838">
        <ele>1371.6</ele>
        <time>2024-05-26T08:44:47Z</time>
      </trkpt>
      <trkpt lat="43.74283" lon="6.63838">
        <ele>1371.7</ele>
        <time>2024-05-26T08:44:48Z</time>
      </trkpt>
      <trkpt lat="43.74283" lon="6.63838">
        <ele>1371.8</ele>
        <time>2024-05-26T08:44:49Z</time>
      </trkpt>
      <trkpt lat="43.74284" lon="6.63837">
        <ele>1371.9</ele>
        <time>2024-05-26T08:44:50Z</time>
      </trkpt>
      <trkpt lat="43.74285" lon="6.63837">
        <ele>1372</ele>
        <time>2024-05-26T08:44:51Z</time>
      </trkpt>
      <trkpt lat="43.74285" lon="6.63837">
        <ele>1372</ele>
        <time>2024-05-26T08:44:52Z</time>
      </trkpt>
      <trkpt lat="43.74287" lon="6.63838">
        <ele>1372.2</ele>
        <time>2024-05-26T08:44:53Z</time>
      </trkpt>
      <trkpt lat="43.74288" lon="6.63838">
        <ele>1372.3</ele>
        <time>2024-05-26T08:44:54Z</time>
      </trkpt>
      <trkpt lat="43.74291" lon="6.63839">
        <ele>1372.3</ele>
        <time>2024-05-26T08:44:55Z</time>
      </trkpt>
      <trkpt lat="43.74293" lon="6.63839">
        <ele>1372.4</ele>
        <time>2024-05-26T08:44:56Z</time>
      </trkpt>
      <trkpt lat="43.74294" lon="6.6384">
        <ele>1372.4</ele>
        <time>2024-05-26T08:44:57Z</time>
      </trkpt>
      <trkpt lat="43.74296" lon="6.63838">
        <ele>1372.5</ele>
        <time>2024-05-26T08:44:58Z</time>
      </trkpt>
      <trkpt lat="43.74296" lon="6.63838">
        <ele>1372.6</ele>
        <time>2024-05-26T08:44:59Z</time>
      </trkpt>
      <trkpt lat="43.74298" lon="6.63839">
        <ele>1372.7</ele>
        <time>2024-05-26T08:45:00Z</time>
      </trkpt>
      <trkpt lat="43.74298" lon="6.6384">
        <ele>1372.9</ele>
        <time>2024-05-26T08:45:01Z</time>
      </trkpt>
      <trkpt lat="43.74299" lon="6.63841">
        <ele>1373</ele>
        <time>2024-05-26T08:45:02Z</time>
      </trkpt>
      <trkpt lat="43.74299" lon="6.63841">
        <ele>1373.1</ele>
        <time>2024-05-26T08:45:03Z</time>
      </trkpt>
      <trkpt lat="43.743" lon="6.6384">
        <ele>1373.2</ele>
        <time>2024-05-26T08:45:04Z</time>
      </trkpt>
      <trkpt lat="43.74301" lon="6.63841">
        <ele>1373.2</ele>
        <time>2024-05-26T08:45:05Z</time>
      </trkpt>
      <trkpt lat="43.74302" lon="6.63842">
        <ele>1373.2</ele>
        <time>2024-05-26T08:45:06Z</time>
      </trkpt>
      <trkpt lat="43.74304" lon="6.63843">
        <ele>1373.3</ele>
        <time>2024-05-26T08:45:07Z</time>
      </trkpt>
      <trkpt lat="43.74305" lon="6.63843">
        <ele>1373.4</ele>
        <time>2024-05-26T08:45:08Z</time>
      </trkpt>
      <trkpt lat="43.74307" lon="6.63845">
        <ele>1373.5</ele>
        <time>2024-05-26T08:45:09Z</time>
      </trkpt>
      <trkpt lat="43.74307" lon="6.63845">
        <ele>1373.6</ele>
        <time>2024-05-26T08:45:10Z</time>
      </trkpt>
      <trkpt lat="43.74309" lon="6.63845">
        <ele>1373.7</ele>
        <time>2024-05-26T08:45:11Z</time>
      </trkpt>
      <trkpt lat="43.74311" lon="6.63846">
        <ele>1373.8</ele>
        <time>2024-05-26T08:45:12Z</time>
      </trkpt>
      <trkpt lat="43.74311" lon="6.63846">
        <ele>1373.9</ele>
        <time>2024-05-26T08:45:13Z</time>
      </trkpt>
      <trkpt lat="43.74313" lon="6.63848">
        <ele>1373.9</ele>
        <time>2024-05-26T08:45:14Z</time>
      </trkpt>
      <trkpt lat="43.74315" lon="6.63848">
        <ele>1374</ele>
        <time>2024-05-26T08:45:15Z</time>
      </trkpt>
      <trkpt lat="43.74317" lon="6.63849">
        <ele>1374</ele>
        <time>2024-05-26T08:45:16Z</time>
      </trkpt>
      <trkpt lat="43.74318" lon="6.63849">
        <ele>1374.3</ele>
        <time>2024-05-26T08:45:17Z</time>
      </trkpt>
      <trkpt lat="43.74319" lon="6.63848">
        <ele>1374.5</ele>
        <time>2024-05-26T08:45:18Z</time>
      </trkpt>
      <trkpt lat="43.74321" lon="6.63849">
        <ele>1374.6</ele>
        <time>2024-05-26T08:45:19Z</time>
      </trkpt>
      <trkpt lat="43.74321" lon="6.63848">
        <ele>1374.8</ele>
        <time>2024-05-26T08:45:20Z</time>
      </trkpt>
      <trkpt lat="43.74322" lon="6.63848">
        <ele>1374.9</ele>
        <time>2024-05-26T08:45:21Z</time>
      </trkpt>
      <trkpt lat="43.74323" lon="6.63848">
        <ele>1375</ele>
        <time>2024-05-26T08:45:22Z</time>
      </trkpt>
      <trkpt lat="43.74323" lon="6.63849">
        <ele>1375.1</ele>
        <time>2024-05-26T08:45:23Z</time>
      </trkpt>
      <trkpt lat="43.74324" lon="6.63849">
        <ele>1375.2</ele>
        <time>2024-05-26T08:45:24Z</time>
      </trkpt>
      <trkpt lat="43.74324" lon="6.63849">
        <ele>1375.4</ele>
        <time>2024-05-26T08:45:25Z</time>
      </trkpt>
      <trkpt lat="43.74325" lon="6.6385">
        <ele>1375.5</ele>
        <time>2024-05-26T08:45:26Z</time>
      </trkpt>
      <trkpt lat="43.74327" lon="6.63851">
        <ele>1375.6</ele>
        <time>2024-05-26T08:45:27Z</time>
      </trkpt>
      <trkpt lat="43.74328" lon="6.63852">
        <ele>1375.6</ele>
        <time>2024-05-26T08:45:28Z</time>
      </trkpt>
      <trkpt lat="43.74328" lon="6.63851">
        <ele>1375.8</ele>
        <time>2024-05-26T08:45:29Z</time>
      </trkpt>
      <trkpt lat="43.74331" lon="6.63851">
        <ele>1375.8</ele>
        <time>2024-05-26T08:45:30Z</time>
      </trkpt>
      <trkpt lat="43.74333" lon="6.6385">
        <ele>1375.9</ele>
        <time>2024-05-26T08:45:31Z</time>
      </trkpt>
      <trkpt lat="43.74334" lon="6.6385">
        <ele>1376</ele>
        <time>2024-05-26T08:45:32Z</time>
      </trkpt>
      <trkpt lat="43.74335" lon="6.6385">
        <ele>1376.1</ele>
        <time>2024-05-26T08:45:33Z</time>
      </trkpt>
      <trkpt lat="43.74335" lon="6.6385">
        <ele>1376.3</ele>
        <time>2024-05-26T08:45:34Z</time>
      </trkpt>
      <trkpt lat="43.74336" lon="6.6385">
        <ele>1376.4</ele>
        <time>2024-05-26T08:45:35Z</time>
      </trkpt>
      <trkpt lat="43.74337" lon="6.6385">
        <ele>1376.4</ele>
        <time>2024-05-26T08:45:36Z</time>
      </trkpt>
      <trkpt lat="43.74338" lon="6.63849">
        <ele>1376.4</ele>
        <time>2024-05-26T08:45:37Z</time>
      </trkpt>
      <trkpt lat="43.7434" lon="6.63849">
        <ele>1376.5</ele>
        <time>2024-05-26T08:45:38Z</time>
      </trkpt>
      <trkpt lat="43.74342" lon="6.63848">
        <ele>1376.5</ele>
        <time>2024-05-26T08:45:39Z</time>
      </trkpt>
      <trkpt lat="43.74344" lon="6.63848">
        <ele>1376.7</ele>
        <time>2024-05-26T08:45:40Z</time>
      </trkpt>
      <trkpt lat="43.74345" lon="6.63848">
        <ele>1376.9</ele>
        <time>2024-05-26T08:45:41Z</time>
      </trkpt>
      <trkpt lat="43.74346" lon="6.63849">
        <ele>1377</ele>
        <time>2024-05-26T08:45:42Z</time>
      </trkpt>
      <trkpt lat="43.74348" lon="6.63848">
        <ele>1377.2</ele>
        <time>2024-05-26T08:45:43Z</time>
      </trkpt>
      <trkpt lat="43.74349" lon="6.63848">
        <ele>1377.3</ele>
        <time>2024-05-26T08:45:44Z</time>
      </trkpt>
      <trkpt lat="43.74349" lon="6.63846">
        <ele>1377.5</ele>
        <time>2024-05-26T08:45:45Z</time>
      </trkpt>
      <trkpt lat="43.74351" lon="6.63847">
        <ele>1377.6</ele>
        <time>2024-05-26T08:45:46Z</time>
      </trkpt>
      <trkpt lat="43.74352" lon="6.63846">
        <ele>1377.6</ele>
        <time>2024-05-26T08:45:47Z</time>
      </trkpt>
      <trkpt lat="43.74352" lon="6.63845">
        <ele>1377.9</ele>
        <time>2024-05-26T08:45:48Z</time>
      </trkpt>
      <trkpt lat="43.74353" lon="6.63845">
        <ele>1377.8</ele>
        <time>2024-05-26T08:45:49Z</time>
      </trkpt>
      <trkpt lat="43.74354" lon="6.63844">
        <ele>1378.1</ele>
        <time>2024-05-26T08:45:50Z</time>
      </trkpt>
      <trkpt lat="43.74356" lon="6.63844">
        <ele>1378.2</ele>
        <time>2024-05-26T08:45:51Z</time>
      </trkpt>
      <trkpt lat="43.74357" lon="6.63843">
        <ele>1378.3</ele>
        <time>2024-05-26T08:45:52Z</time>
      </trkpt>
      <trkpt lat="43.74358" lon="6.63842">
        <ele>1378.3</ele>
        <time>2024-05-26T08:45:53Z</time>
      </trkpt>
      <trkpt lat="43.7436" lon="6.63841">
        <ele>1378.4</ele>
        <time>2024-05-26T08:45:54Z</time>
      </trkpt>
      <trkpt lat="43.7436" lon="6.6384">
        <ele>1378.4</ele>
        <time>2024-05-26T08:45:55Z</time>
      </trkpt>
      <trkpt lat="43.74362" lon="6.63839">
        <ele>1378.5</ele>
        <time>2024-05-26T08:45:56Z</time>
      </trkpt>
      <trkpt lat="43.74363" lon="6.63839">
        <ele>1378.5</ele>
        <time>2024-05-26T08:45:57Z</time>
      </trkpt>
      <trkpt lat="43.74364" lon="6.63839">
        <ele>1378.5</ele>
        <time>2024-05-26T08:45:58Z</time>
      </trkpt>
      <trkpt lat="43.74365" lon="6.63837">
        <ele>1378.6</ele>
        <time>2024-05-26T08:45:59Z</time>
      </trkpt>
      <trkpt lat="43.74365" lon="6.63836">
        <ele>1378.8</ele>
        <time>2024-05-26T08:46:00Z</time>
      </trkpt>
      <trkpt lat="43.74366" lon="6.63835">
        <ele>1378.9</ele>
        <time>2024-05-26T08:46:01Z</time>
      </trkpt>
      <trkpt lat="43.74367" lon="6.63834">
        <ele>1379.1</ele>
        <time>2024-05-26T08:46:02Z</time>
      </trkpt>
      <trkpt lat="43.74368" lon="6.63833">
        <ele>1379.2</ele>
        <time>2024-05-26T08:46:03Z</time>
      </trkpt>
      <trkpt lat="43.74368" lon="6.63832">
        <ele>1379.2</ele>
        <time>2024-05-26T08:46:04Z</time>
      </trkpt>
      <trkpt lat="43.74369" lon="6.63832">
        <ele>1379.4</ele>
        <time>2024-05-26T08:46:05Z</time>
      </trkpt>
      <trkpt lat="43.7437" lon="6.63831">
        <ele>1379.5</ele>
        <time>2024-05-26T08:46:06Z</time>
      </trkpt>
      <trkpt lat="43.74371" lon="6.6383">
        <ele>1379.6</ele>
        <time>2024-05-26T08:46:07Z</time>
      </trkpt>
      <trkpt lat="43.74372" lon="6.63829">
        <ele>1379.7</ele>
        <time>2024-05-26T08:46:08Z</time>
      </trkpt>
      <trkpt lat="43.74372" lon="6.63829">
        <ele>1379.8</ele>
        <time>2024-05-26T08:46:09Z</time>
      </trkpt>
      <trkpt lat="43.74374" lon="6.63828">
        <ele>1379.9</ele>
        <time>2024-05-26T08:46:10Z</time>
      </trkpt>
      <trkpt lat="43.74374" lon="6.63827">
        <ele>1379.9</ele>
        <time>2024-05-26T08:46:11Z</time>
      </trkpt>
      <trkpt lat="43.74375" lon="6.63826">
        <ele>1380</ele>
        <time>2024-05-26T08:46:12Z</time>
      </trkpt>
      <trkpt lat="43.74375" lon="6.63825">
        <ele>1380</ele>
        <time>2024-05-26T08:46:13Z</time>
      </trkpt>
      <trkpt lat="43.74376" lon="6.63825">
        <ele>1380.2</ele>
        <time>2024-05-26T08:46:14Z</time>
      </trkpt>
      <trkpt lat="43.74377" lon="6.63824">
        <ele>1380.3</ele>
        <time>2024-05-26T08:46:15Z</time>
      </trkpt>
      <trkpt lat="43.74378" lon="6.63824">
        <ele>1380.3</ele>
        <time>2024-05-26T08:46:16Z</time>
      </trkpt>
      <trkpt lat="43.74378" lon="6.63823">
        <ele>1380.5</ele>
        <time>2024-05-26T08:46:17Z</time>
      </trkpt>
      <trkpt lat="43.7438" lon="6.63822">
        <ele>1380.5</ele>
        <time>2024-05-26T08:46:18Z</time>
      </trkpt>
      <trkpt lat="43.7438" lon="6.63822">
        <ele>1380.6</ele>
        <time>2024-05-26T08:46:19Z</time>
      </trkpt>
      <trkpt lat="43.74381" lon="6.63822">
        <ele>1380.7</ele>
        <time>2024-05-26T08:46:20Z</time>
      </trkpt>
      <trkpt lat="43.74382" lon="6.63822">
        <ele>1380.8</ele>
        <time>2024-05-26T08:46:21Z</time>
      </trkpt>
      <trkpt lat="43.74383" lon="6.63822">
        <ele>1380.9</ele>
        <time>2024-05-26T08:46:22Z</time>
      </trkpt>
      <trkpt lat="43.74384" lon="6.63822">
        <ele>1381</ele>
        <time>2024-05-26T08:46:23Z</time>
      </trkpt>
      <trkpt lat="43.74385" lon="6.63822">
        <ele>1381.1</ele>
        <time>2024-05-26T08:46:24Z</time>
      </trkpt>
      <trkpt lat="43.74386" lon="6.63821">
        <ele>1381.2</ele>
        <time>2024-05-26T08:46:25Z</time>
      </trkpt>
      <trkpt lat="43.74386" lon="6.63821">
        <ele>1381.3</ele>
        <time>2024-05-26T08:46:26Z</time>
      </trkpt>
      <trkpt lat="43.74387" lon="6.63821">
        <ele>1381.4</ele>
        <time>2024-05-26T08:46:27Z</time>
      </trkpt>
      <trkpt lat="43.74387" lon="6.6382">
        <ele>1381.5</ele>
        <time>2024-05-26T08:46:28Z</time>
      </trkpt>
      <trkpt lat="43.74388" lon="6.6382">
        <ele>1381.6</ele>
        <time>2024-05-26T08:46:29Z</time>
      </trkpt>
      <trkpt lat="43.74388" lon="6.6382">
        <ele>1381.8</ele>
        <time>2024-05-26T08:46:30Z</time>
      </trkpt>
      <trkpt lat="43.74389" lon="6.6382">
        <ele>1381.9</ele>
        <time>2024-05-26T08:46:31Z</time>
      </trkpt>
      <trkpt lat="43.7439" lon="6.6382">
        <ele>1382</ele>
        <time>2024-05-26T08:46:32Z</time>
      </trkpt>
      <trkpt lat="43.74391" lon="6.6382">
        <ele>1382.1</ele>
        <time>2024-05-26T08:46:33Z</time>
      </trkpt>
      <trkpt lat="43.74391" lon="6.6382">
        <ele>1382.2</ele>
        <time>2024-05-26T08:46:34Z</time>
      </trkpt>
      <trkpt lat="43.74392" lon="6.63819">
        <ele>1382.3</ele>
        <time>2024-05-26T08:46:35Z</time>
      </trkpt>
      <trkpt lat="43.74394" lon="6.63819">
        <ele>1382.4</ele>
        <time>2024-05-26T08:46:36Z</time>
      </trkpt>
      <trkpt lat="43.74396" lon="6.63818">
        <ele>1382.5</ele>
        <time>2024-05-26T08:46:37Z</time>
      </trkpt>
      <trkpt lat="43.74396" lon="6.63817">
        <ele>1382.6</ele>
        <time>2024-05-26T08:46:38Z</time>
      </trkpt>
      <trkpt lat="43.74397" lon="6.63817">
        <ele>1382.7</ele>
        <time>2024-05-26T08:46:39Z</time>
      </trkpt>
      <trkpt lat="43.74397" lon="6.63817">
        <ele>1382.8</ele>
        <time>2024-05-26T08:46:40Z</time>
      </trkpt>
      <trkpt lat="43.74398" lon="6.63816">
        <ele>1382.9</ele>
        <time>2024-05-26T08:46:41Z</time>
      </trkpt>
      <trkpt lat="43.744" lon="6.63816">
        <ele>1383</ele>
        <time>2024-05-26T08:46:42Z</time>
      </trkpt>
      <trkpt lat="43.74401" lon="6.63816">
        <ele>1383</ele>
        <time>2024-05-26T08:46:43Z</time>
      </trkpt>
      <trkpt lat="43.74402" lon="6.63815">
        <ele>1383.1</ele>
        <time>2024-05-26T08:46:44Z</time>
      </trkpt>
      <trkpt lat="43.74403" lon="6.63815">
        <ele>1383.2</ele>
        <time>2024-05-26T08:46:45Z</time>
      </trkpt>
      <trkpt lat="43.74404" lon="6.63815">
        <ele>1383.3</ele>
        <time>2024-05-26T08:46:46Z</time>
      </trkpt>
      <trkpt lat="43.74404" lon="6.63814">
        <ele>1383.4</ele>
        <time>2024-05-26T08:46:47Z</time>
      </trkpt>
      <trkpt lat="43.74405" lon="6.63813">
        <ele>1383.4</ele>
        <time>2024-05-26T08:46:48Z</time>
      </trkpt>
      <trkpt lat="43.74406" lon="6.63813">
        <ele>1383.6</ele>
        <time>2024-05-26T08:46:49Z</time>
      </trkpt>
      <trkpt lat="43.74407" lon="6.63813">
        <ele>1383.7</ele>
        <time>2024-05-26T08:46:50Z</time>
      </trkpt>
      <trkpt lat="43.74408" lon="6.63813">
        <ele>1383.7</ele>
        <time>2024-05-26T08:46:51Z</time>
      </trkpt>
      <trkpt lat="43.74409" lon="6.63813">
        <ele>1383.8</ele>
        <time>2024-05-26T08:46:52Z</time>
      </trkpt>
      <trkpt lat="43.74409" lon="6.63812">
        <ele>1383.9</ele>
        <time>2024-05-26T08:46:53Z</time>
      </trkpt>
      <trkpt lat="43.7441" lon="6.63812">
        <ele>1383.9</ele>
        <time>2024-05-26T08:46:54Z</time>
      </trkpt>
      <trkpt lat="43.74411" lon="6.63811">
        <ele>1384</ele>
        <time>2024-05-26T08:46:55Z</time>
      </trkpt>
      <trkpt lat="43.74411" lon="6.6381">
        <ele>1384.1</ele>
        <time>2024-05-26T08:46:56Z</time>
      </trkpt>
      <trkpt lat="43.74412" lon="6.6381">
        <ele>1384.2</ele>
        <time>2024-05-26T08:46:57Z</time>
      </trkpt>
      <trkpt lat="43.74412" lon="6.63809">
        <ele>1384.3</ele>
        <time>2024-05-26T08:46:58Z</time>
      </trkpt>
      <trkpt lat="43.74413" lon="6.63808">
        <ele>1384.4</ele>
        <time>2024-05-26T08:46:59Z</time>
      </trkpt>
      <trkpt lat="43.74414" lon="6.63808">
        <ele>1384.5</ele>
        <time>2024-05-26T08:47:00Z</time>
      </trkpt>
      <trkpt lat="43.74416" lon="6.63808">
        <ele>1384.7</ele>
        <time>2024-05-26T08:47:01Z</time>
      </trkpt>
      <trkpt lat="43.74417" lon="6.63808">
        <ele>1384.9</ele>
        <time>2024-05-26T08:47:02Z</time>
      </trkpt>
      <trkpt lat="43.74418" lon="6.63808">
        <ele>1385.1</ele>
        <time>2024-05-26T08:47:03Z</time>
      </trkpt>
      <trkpt lat="43.74419" lon="6.63807">
        <ele>1385.3</ele>
        <time>2024-05-26T08:47:04Z</time>
      </trkpt>
      <trkpt lat="43.7442" lon="6.63807">
        <ele>1385.4</ele>
        <time>2024-05-26T08:47:05Z</time>
      </trkpt>
      <trkpt lat="43.74421" lon="6.63806">
        <ele>1385.6</ele>
        <time>2024-05-26T08:47:06Z</time>
      </trkpt>
      <trkpt lat="43.74421" lon="6.63807">
        <ele>1385.7</ele>
        <time>2024-05-26T08:47:07Z</time>
      </trkpt>
      <trkpt lat="43.74423" lon="6.63807">
        <ele>1385.8</ele>
        <time>2024-05-26T08:47:08Z</time>
      </trkpt>
      <trkpt lat="43.74423" lon="6.63806">
        <ele>1385.9</ele>
        <time>2024-05-26T08:47:09Z</time>
      </trkpt>
      <trkpt lat="43.74424" lon="6.63806">
        <ele>1386.1</ele>
        <time>2024-05-26T08:47:10Z</time>
      </trkpt>
      <trkpt lat="43.74425" lon="6.63806">
        <ele>1386.1</ele>
        <time>2024-05-26T08:47:11Z</time>
      </trkpt>
      <trkpt lat="43.74425" lon="6.63806">
        <ele>1386.2</ele>
        <time>2024-05-26T08:47:12Z</time>
      </trkpt>
      <trkpt lat="43.74426" lon="6.63806">
        <ele>1386.2</ele>
        <time>2024-05-26T08:47:13Z</time>
      </trkpt>
      <trkpt lat="43.74428" lon="6.63805">
        <ele>1386.3</ele>
        <time>2024-05-26T08:47:14Z</time>
      </trkpt>
      <trkpt lat="43.74429" lon="6.63805">
        <ele>1386.3</ele>
        <time>2024-05-26T08:47:15Z</time>
      </trkpt>
      <trkpt lat="43.7443" lon="6.63805">
        <ele>1386.3</ele>
        <time>2024-05-26T08:47:16Z</time>
      </trkpt>
      <trkpt lat="43.74432" lon="6.63805">
        <ele>1386.5</ele>
        <time>2024-05-26T08:47:17Z</time>
      </trkpt>
      <trkpt lat="43.74433" lon="6.63804">
        <ele>1386.6</ele>
        <time>2024-05-26T08:47:18Z</time>
      </trkpt>
      <trkpt lat="43.74434" lon="6.63803">
        <ele>1386.7</ele>
        <time>2024-05-26T08:47:19Z</time>
      </trkpt>
      <trkpt lat="43.74435" lon="6.63803">
        <ele>1386.8</ele>
        <time>2024-05-26T08:47:20Z</time>
      </trkpt>
      <trkpt lat="43.74436" lon="6.63803">
        <ele>1386.9</ele>
        <time>2024-05-26T08:47:21Z</time>
      </trkpt>
      <trkpt lat="43.74437" lon="6.63803">
        <ele>1387.1</ele>
        <time>2024-05-26T08:47:22Z</time>
      </trkpt>
      <trkpt lat="43.74438" lon="6.63803">
        <ele>1387.2</ele>
        <time>2024-05-26T08:47:23Z</time>
      </trkpt>
      <trkpt lat="43.74439" lon="6.63802">
        <ele>1387.4</ele>
        <time>2024-05-26T08:47:24Z</time>
      </trkpt>
      <trkpt lat="43.7444" lon="6.63802">
        <ele>1387.5</ele>
        <time>2024-05-26T08:47:25Z</time>
      </trkpt>
      <trkpt lat="43.74442" lon="6.63802">
        <ele>1387.5</ele>
        <time>2024-05-26T08:47:26Z</time>
      </trkpt>
      <trkpt lat="43.74442" lon="6.63803">
        <ele>1387.6</ele>
        <time>2024-05-26T08:47:27Z</time>
      </trkpt>
      <trkpt lat="43.74443" lon="6.63802">
        <ele>1387.7</ele>
        <time>2024-05-26T08:47:28Z</time>
      </trkpt>
      <trkpt lat="43.74444" lon="6.63802">
        <ele>1387.7</ele>
        <time>2024-05-26T08:47:29Z</time>
      </trkpt>
      <trkpt lat="43.74445" lon="6.63802">
        <ele>1387.7</ele>
        <time>2024-05-26T08:47:30Z</time>
      </trkpt>
      <trkpt lat="43.74445" lon="6.63803">
        <ele>1387.8</ele>
        <time>2024-05-26T08:47:31Z</time>
      </trkpt>
      <trkpt lat="43.74446" lon="6.63803">
        <ele>1387.9</ele>
        <time>2024-05-26T08:47:32Z</time>
      </trkpt>
      <trkpt lat="43.74447" lon="6.63803">
        <ele>1388</ele>
        <time>2024-05-26T08:47:33Z</time>
      </trkpt>
      <trkpt lat="43.74447" lon="6.63802">
        <ele>1388</ele>
        <time>2024-05-26T08:47:34Z</time>
      </trkpt>
      <trkpt lat="43.74448" lon="6.63802">
        <ele>1388.2</ele>
        <time>2024-05-26T08:47:35Z</time>
      </trkpt>
      <trkpt lat="43.74449" lon="6.63802">
        <ele>1388.4</ele>
        <time>2024-05-26T08:47:36Z</time>
      </trkpt>
      <trkpt lat="43.7445" lon="6.63802">
        <ele>1388.5</ele>
        <time>2024-05-26T08:47:37Z</time>
      </trkpt>
      <trkpt lat="43.74451" lon="6.63801">
        <ele>1388.5</ele>
        <time>2024-05-26T08:47:38Z</time>
      </trkpt>
      <trkpt lat="43.74453" lon="6.63801">
        <ele>1388.6</ele>
        <time>2024-05-26T08:47:39Z</time>
      </trkpt>
      <trkpt lat="43.74454" lon="6.638">
        <ele>1388.6</ele>
        <time>2024-05-26T08:47:40Z</time>
      </trkpt>
      <trkpt lat="43.74455" lon="6.63799">
        <ele>1388.6</ele>
        <time>2024-05-26T08:47:41Z</time>
      </trkpt>
      <trkpt lat="43.74456" lon="6.63798">
        <ele>1388.7</ele>
        <time>2024-05-26T08:47:42Z</time>
      </trkpt>
      <trkpt lat="43.74457" lon="6.63797">
        <ele>1388.8</ele>
        <time>2024-05-26T08:47:43Z</time>
      </trkpt>
      <trkpt lat="43.74458" lon="6.63796">
        <ele>1389</ele>
        <time>2024-05-26T08:47:44Z</time>
      </trkpt>
      <trkpt lat="43.74459" lon="6.63796">
        <ele>1389.1</ele>
        <time>2024-05-26T08:47:45Z</time>
      </trkpt>
      <trkpt lat="43.7446" lon="6.63796">
        <ele>1389.2</ele>
        <time>2024-05-26T08:47:46Z</time>
      </trkpt>
      <trkpt lat="43.74461" lon="6.63796">
        <ele>1389.3</ele>
        <time>2024-05-26T08:47:47Z</time>
      </trkpt>
      <trkpt lat="43.74462" lon="6.63796">
        <ele>1389.4</ele>
        <time>2024-05-26T08:47:48Z</time>
      </trkpt>
      <trkpt lat="43.74462" lon="6.63797">
        <ele>1389.4</ele>
        <time>2024-05-26T08:47:49Z</time>
      </trkpt>
      <trkpt lat="43.74464" lon="6.63797">
        <ele>1389.5</ele>
        <time>2024-05-26T08:47:50Z</time>
      </trkpt>
      <trkpt lat="43.74465" lon="6.63797">
        <ele>1389.5</ele>
        <time>2024-05-26T08:47:51Z</time>
      </trkpt>
      <trkpt lat="43.74466" lon="6.63797">
        <ele>1389.6</ele>
        <time>2024-05-26T08:47:52Z</time>
      </trkpt>
      <trkpt lat="43.74467" lon="6.63797">
        <ele>1389.7</ele>
        <time>2024-05-26T08:47:53Z</time>
      </trkpt>
      <trkpt lat="43.74468" lon="6.63798">
        <ele>1389.8</ele>
        <time>2024-05-26T08:47:54Z</time>
      </trkpt>
      <trkpt lat="43.74469" lon="6.63799">
        <ele>1389.8</ele>
        <time>2024-05-26T08:47:55Z</time>
      </trkpt>
      <trkpt lat="43.7447" lon="6.63799">
        <ele>1389.9</ele>
        <time>2024-05-26T08:47:56Z</time>
      </trkpt>
      <trkpt lat="43.74471" lon="6.63799">
        <ele>1390</ele>
        <time>2024-05-26T08:47:57Z</time>
      </trkpt>
      <trkpt lat="43.74472" lon="6.638">
        <ele>1390.2</ele>
        <time>2024-05-26T08:47:58Z</time>
      </trkpt>
      <trkpt lat="43.74473" lon="6.638">
        <ele>1390.3</ele>
        <time>2024-05-26T08:47:59Z</time>
      </trkpt>
      <trkpt lat="43.74475" lon="6.638">
        <ele>1390.5</ele>
        <time>2024-05-26T08:48:00Z</time>
      </trkpt>
      <trkpt lat="43.74476" lon="6.638">
        <ele>1390.6</ele>
        <time>2024-05-26T08:48:01Z</time>
      </trkpt>
      <trkpt lat="43.74478" lon="6.63799">
        <ele>1390.6</ele>
        <time>2024-05-26T08:48:02Z</time>
      </trkpt>
      <trkpt lat="43.74479" lon="6.63799">
        <ele>1390.7</ele>
        <time>2024-05-26T08:48:03Z</time>
      </trkpt>
      <trkpt lat="43.74481" lon="6.638">
        <ele>1390.9</ele>
        <time>2024-05-26T08:48:04Z</time>
      </trkpt>
      <trkpt lat="43.74482" lon="6.638">
        <ele>1391.1</ele>
        <time>2024-05-26T08:48:05Z</time>
      </trkpt>
      <trkpt lat="43.74483" lon="6.638">
        <ele>1391.2</ele>
        <time>2024-05-26T08:48:06Z</time>
      </trkpt>
      <trkpt lat="43.74484" lon="6.638">
        <ele>1391.4</ele>
        <time>2024-05-26T08:48:07Z</time>
      </trkpt>
      <trkpt lat="43.74486" lon="6.638">
        <ele>1391.5</ele>
        <time>2024-05-26T08:48:08Z</time>
      </trkpt>
      <trkpt lat="43.74487" lon="6.638">
        <ele>1391.6</ele>
        <time>2024-05-26T08:48:09Z</time>
      </trkpt>
      <trkpt lat="43.74488" lon="6.63801">
        <ele>1391.7</ele>
        <time>2024-05-26T08:48:10Z</time>
      </trkpt>
      <trkpt lat="43.74489" lon="6.63802">
        <ele>1391.8</ele>
        <time>2024-05-26T08:48:11Z</time>
      </trkpt>
      <trkpt lat="43.7449" lon="6.63803">
        <ele>1391.8</ele>
        <time>2024-05-26T08:48:12Z</time>
      </trkpt>
      <trkpt lat="43.74491" lon="6.63803">
        <ele>1391.9</ele>
        <time>2024-05-26T08:48:13Z</time>
      </trkpt>
      <trkpt lat="43.74491" lon="6.63804">
        <ele>1391.9</ele>
        <time>2024-05-26T08:48:14Z</time>
      </trkpt>
      <trkpt lat="43.74492" lon="6.63805">
        <ele>1392</ele>
        <time>2024-05-26T08:48:15Z</time>
      </trkpt>
      <trkpt lat="43.74493" lon="6.63806">
        <ele>1392.1</ele>
        <time>2024-05-26T08:48:16Z</time>
      </trkpt>
      <trkpt lat="43.74494" lon="6.63806">
        <ele>1392.1</ele>
        <time>2024-05-26T08:48:17Z</time>
      </trkpt>
      <trkpt lat="43.74495" lon="6.63807">
        <ele>1392.1</ele>
        <time>2024-05-26T08:48:18Z</time>
      </trkpt>
      <trkpt lat="43.74495" lon="6.63808">
        <ele>1392.1</ele>
        <time>2024-05-26T08:48:19Z</time>
      </trkpt>
      <trkpt lat="43.74496" lon="6.63809">
        <ele>1392.2</ele>
        <time>2024-05-26T08:48:20Z</time>
      </trkpt>
      <trkpt lat="43.74497" lon="6.6381">
        <ele>1392.4</ele>
        <time>2024-05-26T08:48:21Z</time>
      </trkpt>
      <trkpt lat="43.74497" lon="6.6381">
        <ele>1392.5</ele>
        <time>2024-05-26T08:48:22Z</time>
      </trkpt>
      <trkpt lat="43.74498" lon="6.6381">
        <ele>1392.6</ele>
        <time>2024-05-26T08:48:23Z</time>
      </trkpt>
      <trkpt lat="43.74498" lon="6.63811">
        <ele>1392.7</ele>
        <time>2024-05-26T08:48:24Z</time>
      </trkpt>
      <trkpt lat="43.74499" lon="6.63811">
        <ele>1392.9</ele>
        <time>2024-05-26T08:48:25Z</time>
      </trkpt>
      <trkpt lat="43.745" lon="6.63812">
        <ele>1392.9</ele>
        <time>2024-05-26T08:48:26Z</time>
      </trkpt>
      <trkpt lat="43.74501" lon="6.63813">
        <ele>1393.1</ele>
        <time>2024-05-26T08:48:27Z</time>
      </trkpt>
      <trkpt lat="43.74502" lon="6.63814">
        <ele>1393.2</ele>
        <time>2024-05-26T08:48:28Z</time>
      </trkpt>
      <trkpt lat="43.74503" lon="6.63815">
        <ele>1393.2</ele>
        <time>2024-05-26T08:48:29Z</time>
      </trkpt>
      <trkpt lat="43.74504" lon="6.63816">
        <ele>1393.2</ele>
        <time>2024-05-26T08:48:30Z</time>
      </trkpt>
      <trkpt lat="43.74504" lon="6.63817">
        <ele>1393.2</ele>
        <time>2024-05-26T08:48:31Z</time>
      </trkpt>
      <trkpt lat="43.74505" lon="6.63819">
        <ele>1393.3</ele>
        <time>2024-05-26T08:48:32Z</time>
      </trkpt>
      <trkpt lat="43.74505" lon="6.6382">
        <ele>1393.4</ele>
        <time>2024-05-26T08:48:33Z</time>
      </trkpt>
      <trkpt lat="43.74506" lon="6.63821">
        <ele>1393.6</ele>
        <time>2024-05-26T08:48:34Z</time>
      </trkpt>
      <trkpt lat="43.74506" lon="6.63821">
        <ele>1393.7</ele>
        <time>2024-05-26T08:48:35Z</time>
      </trkpt>
      <trkpt lat="43.74507" lon="6.63822">
        <ele>1393.7</ele>
        <time>2024-05-26T08:48:36Z</time>
      </trkpt>
      <trkpt lat="43.74508" lon="6.63823">
        <ele>1393.7</ele>
        <time>2024-05-26T08:48:37Z</time>
      </trkpt>
      <trkpt lat="43.74508" lon="6.63824">
        <ele>1393.8</ele>
        <time>2024-05-26T08:48:38Z</time>
      </trkpt>
      <trkpt lat="43.74509" lon="6.63825">
        <ele>1394</ele>
        <time>2024-05-26T08:48:39Z</time>
      </trkpt>
      <trkpt lat="43.7451" lon="6.63826">
        <ele>1394.1</ele>
        <time>2024-05-26T08:48:40Z</time>
      </trkpt>
      <trkpt lat="43.7451" lon="6.63827">
        <ele>1394.3</ele>
        <time>2024-05-26T08:48:41Z</time>
      </trkpt>
      <trkpt lat="43.74511" lon="6.63828">
        <ele>1394.5</ele>
        <time>2024-05-26T08:48:42Z</time>
      </trkpt>
      <trkpt lat="43.74513" lon="6.63829">
        <ele>1394.8</ele>
        <time>2024-05-26T08:48:43Z</time>
      </trkpt>
      <trkpt lat="43.74514" lon="6.6383">
        <ele>1394.9</ele>
        <time>2024-05-26T08:48:44Z</time>
      </trkpt>
      <trkpt lat="43.74514" lon="6.63831">
        <ele>1394.9</ele>
        <time>2024-05-26T08:48:45Z</time>
      </trkpt>
      <trkpt lat="43.74515" lon="6.63833">
        <ele>1395.1</ele>
        <time>2024-05-26T08:48:46Z</time>
      </trkpt>
      <trkpt lat="43.74516" lon="6.63834">
        <ele>1395.2</ele>
        <time>2024-05-26T08:48:47Z</time>
      </trkpt>
      <trkpt lat="43.74516" lon="6.63835">
        <ele>1395.3</ele>
        <time>2024-05-26T08:48:48Z</time>
      </trkpt>
      <trkpt lat="43.74517" lon="6.63836">
        <ele>1395.4</ele>
        <time>2024-05-26T08:48:49Z</time>
      </trkpt>
      <trkpt lat="43.74518" lon="6.63838">
        <ele>1395.5</ele>
        <time>2024-05-26T08:48:50Z</time>
      </trkpt>
      <trkpt lat="43.74518" lon="6.63839">
        <ele>1395.6</ele>
        <time>2024-05-26T08:48:51Z</time>
      </trkpt>
      <trkpt lat="43.74518" lon="6.6384">
        <ele>1395.7</ele>
        <time>2024-05-26T08:48:52Z</time>
      </trkpt>
      <trkpt lat="43.74519" lon="6.63841">
        <ele>1395.7</ele>
        <time>2024-05-26T08:48:53Z</time>
      </trkpt>
      <trkpt lat="43.74519" lon="6.63843">
        <ele>1395.8</ele>
        <time>2024-05-26T08:48:54Z</time>
      </trkpt>
      <trkpt lat="43.74519" lon="6.63844">
        <ele>1395.9</ele>
        <time>2024-05-26T08:48:55Z</time>
      </trkpt>
      <trkpt lat="43.7452" lon="6.63845">
        <ele>1396.1</ele>
        <time>2024-05-26T08:48:56Z</time>
      </trkpt>
      <trkpt lat="43.74521" lon="6.63847">
        <ele>1396.3</ele>
        <time>2024-05-26T08:48:57Z</time>
      </trkpt>
      <trkpt lat="43.74521" lon="6.63848">
        <ele>1396.4</ele>
        <time>2024-05-26T08:48:58Z</time>
      </trkpt>
      <trkpt lat="43.74521" lon="6.63849">
        <ele>1396.7</ele>
        <time>2024-05-26T08:48:59Z</time>
      </trkpt>
      <trkpt lat="43.74521" lon="6.6385">
        <ele>1396.9</ele>
        <time>2024-05-26T08:49:00Z</time>
      </trkpt>
      <trkpt lat="43.74521" lon="6.63851">
        <ele>1397</ele>
        <time>2024-05-26T08:49:01Z</time>
      </trkpt>
      <trkpt lat="43.74521" lon="6.63852">
        <ele>1397.2</ele>
        <time>2024-05-26T08:49:02Z</time>
      </trkpt>
      <trkpt lat="43.74522" lon="6.63853">
        <ele>1397.3</ele>
        <time>2024-05-26T08:49:03Z</time>
      </trkpt>
      <trkpt lat="43.74522" lon="6.63855">
        <ele>1397.4</ele>
        <time>2024-05-26T08:49:04Z</time>
      </trkpt>
      <trkpt lat="43.74522" lon="6.63856">
        <ele>1397.5</ele>
        <time>2024-05-26T08:49:05Z</time>
      </trkpt>
      <trkpt lat="43.74523" lon="6.63857">
        <ele>1397.6</ele>
        <time>2024-05-26T08:49:06Z</time>
      </trkpt>
      <trkpt lat="43.74523" lon="6.63858">
        <ele>1397.8</ele>
        <time>2024-05-26T08:49:07Z</time>
      </trkpt>
      <trkpt lat="43.74524" lon="6.63859">
        <ele>1397.9</ele>
        <time>2024-05-26T08:49:08Z</time>
      </trkpt>
      <trkpt lat="43.74523" lon="6.63861">
        <ele>1398</ele>
        <time>2024-05-26T08:49:09Z</time>
      </trkpt>
      <trkpt lat="43.74523" lon="6.63862">
        <ele>1398</ele>
        <time>2024-05-26T08:49:10Z</time>
      </trkpt>
      <trkpt lat="43.74523" lon="6.63863">
        <ele>1398.1</ele>
        <time>2024-05-26T08:49:11Z</time>
      </trkpt>
      <trkpt lat="43.74523" lon="6.63864">
        <ele>1398.1</ele>
        <time>2024-05-26T08:49:12Z</time>
      </trkpt>
      <trkpt lat="43.74523" lon="6.63864">
        <ele>1398.2</ele>
        <time>2024-05-26T08:49:13Z</time>
      </trkpt>
      <trkpt lat="43.74523" lon="6.63865">
        <ele>1398.2</ele>
        <time>2024-05-26T08:49:14Z</time>
      </trkpt>
      <trkpt lat="43.74523" lon="6.63865">
        <ele>1398.3</ele>
        <time>2024-05-26T08:49:15Z</time>
      </trkpt>
      <trkpt lat="43.74523" lon="6.63866">
        <ele>1398.4</ele>
        <time>2024-05-26T08:49:16Z</time>
      </trkpt>
      <trkpt lat="43.74523" lon="6.63867">
        <ele>1398.5</ele>
        <time>2024-05-26T08:49:17Z</time>
      </trkpt>
      <trkpt lat="43.74523" lon="6.63866">
        <ele>1398.6</ele>
        <time>2024-05-26T08:49:18Z</time>
      </trkpt>
      <trkpt lat="43.74523" lon="6.63867">
        <ele>1398.6</ele>
        <time>2024-05-26T08:49:19Z</time>
      </trkpt>
      <trkpt lat="43.74523" lon="6.63867">
        <ele>1398.6</ele>
        <time>2024-05-26T08:49:20Z</time>
      </trkpt>
      <trkpt lat="43.74522" lon="6.63867">
        <ele>1398.7</ele>
        <time>2024-05-26T08:49:21Z</time>
      </trkpt>
      <trkpt lat="43.74521" lon="6.63867">
        <ele>1398.8</ele>
        <time>2024-05-26T08:49:22Z</time>
      </trkpt>
      <trkpt lat="43.74521" lon="6.63867">
        <ele>1399</ele>
        <time>2024-05-26T08:49:23Z</time>
      </trkpt>
      <trkpt lat="43.74521" lon="6.63867">
        <ele>1399.1</ele>
        <time>2024-05-26T08:49:24Z</time>
      </trkpt>
      <trkpt lat="43.7452" lon="6.63867">
        <ele>1399.3</ele>
        <time>2024-05-26T08:49:25Z</time>
      </trkpt>
      <trkpt lat="43.7452" lon="6.63867">
        <ele>1399.5</ele>
        <time>2024-05-26T08:49:26Z</time>
      </trkpt>
      <trkpt lat="43.7452" lon="6.63867">
        <ele>1399.6</ele>
        <time>2024-05-26T08:49:27Z</time>
      </trkpt>
      <trkpt lat="43.74519" lon="6.63867">
        <ele>1399.9</ele>
        <time>2024-05-26T08:49:28Z</time>
      </trkpt>
      <trkpt lat="43.74519" lon="6.63867">
        <ele>1400</ele>
        <time>2024-05-26T08:49:29Z</time>
      </trkpt>
      <trkpt lat="43.74518" lon="6.63867">
        <ele>1400.1</ele>
        <time>2024-05-26T08:49:30Z</time>
      </trkpt>
      <trkpt lat="43.74517" lon="6.63867">
        <ele>1400.2</ele>
        <time>2024-05-26T08:49:31Z</time>
      </trkpt>
      <trkpt lat="43.74516" lon="6.63867">
        <ele>1400.3</ele>
        <time>2024-05-26T08:49:32Z</time>
      </trkpt>
      <trkpt lat="43.74515" lon="6.63867">
        <ele>1400.3</ele>
        <time>2024-05-26T08:49:33Z</time>
      </trkpt>
      <trkpt lat="43.74514" lon="6.63867">
        <ele>1400.6</ele>
        <time>2024-05-26T08:49:34Z</time>
      </trkpt>
      <trkpt lat="43.74513" lon="6.63867">
        <ele>1400.8</ele>
        <time>2024-05-26T08:49:35Z</time>
      </trkpt>
      <trkpt lat="43.74513" lon="6.63867">
        <ele>1400.9</ele>
        <time>2024-05-26T08:49:36Z</time>
      </trkpt>
      <trkpt lat="43.74512" lon="6.63867">
        <ele>1401.1</ele>
        <time>2024-05-26T08:49:37Z</time>
      </trkpt>
      <trkpt lat="43.74512" lon="6.63867">
        <ele>1401.3</ele>
        <time>2024-05-26T08:49:38Z</time>
      </trkpt>
      <trkpt lat="43.74512" lon="6.63866">
        <ele>1401.4</ele>
        <time>2024-05-26T08:49:39Z</time>
      </trkpt>
      <trkpt lat="43.74511" lon="6.63866">
        <ele>1401.5</ele>
        <time>2024-05-26T08:49:40Z</time>
      </trkpt>
      <trkpt lat="43.7451" lon="6.63867">
        <ele>1401.6</ele>
        <time>2024-05-26T08:49:41Z</time>
      </trkpt>
      <trkpt lat="43.74509" lon="6.63867">
        <ele>1401.7</ele>
        <time>2024-05-26T08:49:42Z</time>
      </trkpt>
      <trkpt lat="43.74509" lon="6.63866">
        <ele>1401.8</ele>
        <time>2024-05-26T08:49:43Z</time>
      </trkpt>
      <trkpt lat="43.74509" lon="6.63866">
        <ele>1401.9</ele>
        <time>2024-05-26T08:49:44Z</time>
      </trkpt>
      <trkpt lat="43.74508" lon="6.63865">
        <ele>1402</ele>
        <time>2024-05-26T08:49:45Z</time>
      </trkpt>
      <trkpt lat="43.74508" lon="6.63865">
        <ele>1402</ele>
        <time>2024-05-26T08:49:46Z</time>
      </trkpt>
      <trkpt lat="43.74507" lon="6.63864">
        <ele>1402.1</ele>
        <time>2024-05-26T08:49:47Z</time>
      </trkpt>
      <trkpt lat="43.74506" lon="6.63864">
        <ele>1402.2</ele>
        <time>2024-05-26T08:49:48Z</time>
      </trkpt>
      <trkpt lat="43.74505" lon="6.63864">
        <ele>1402.3</ele>
        <time>2024-05-26T08:49:49Z</time>
      </trkpt>
      <trkpt lat="43.74504" lon="6.63864">
        <ele>1402.3</ele>
        <time>2024-05-26T08:49:50Z</time>
      </trkpt>
      <trkpt lat="43.74503" lon="6.63864">
        <ele>1402.4</ele>
        <time>2024-05-26T08:49:51Z</time>
      </trkpt>
      <trkpt lat="43.74502" lon="6.63864">
        <ele>1402.5</ele>
        <time>2024-05-26T08:49:52Z</time>
      </trkpt>
      <trkpt lat="43.74501" lon="6.63864">
        <ele>1402.6</ele>
        <time>2024-05-26T08:49:53Z</time>
      </trkpt>
      <trkpt lat="43.745" lon="6.63864">
        <ele>1402.6</ele>
        <time>2024-05-26T08:49:54Z</time>
      </trkpt>
      <trkpt lat="43.74499" lon="6.63864">
        <ele>1402.8</ele>
        <time>2024-05-26T08:49:55Z</time>
      </trkpt>
      <trkpt lat="43.74499" lon="6.63864">
        <ele>1402.9</ele>
        <time>2024-05-26T08:49:56Z</time>
      </trkpt>
      <trkpt lat="43.74498" lon="6.63864">
        <ele>1403.1</ele>
        <time>2024-05-26T08:49:57Z</time>
      </trkpt>
      <trkpt lat="43.74497" lon="6.63864">
        <ele>1403.2</ele>
        <time>2024-05-26T08:49:58Z</time>
      </trkpt>
      <trkpt lat="43.74496" lon="6.63865">
        <ele>1403.3</ele>
        <time>2024-05-26T08:49:59Z</time>
      </trkpt>
      <trkpt lat="43.74495" lon="6.63865">
        <ele>1403.4</ele>
        <time>2024-05-26T08:50:00Z</time>
      </trkpt>
      <trkpt lat="43.74494" lon="6.63866">
        <ele>1403.5</ele>
        <time>2024-05-26T08:50:01Z</time>
      </trkpt>
      <trkpt lat="43.74493" lon="6.63866">
        <ele>1403.6</ele>
        <time>2024-05-26T08:50:02Z</time>
      </trkpt>
      <trkpt lat="43.74492" lon="6.63867">
        <ele>1403.7</ele>
        <time>2024-05-26T08:50:03Z</time>
      </trkpt>
      <trkpt lat="43.74491" lon="6.63867">
        <ele>1403.9</ele>
        <time>2024-05-26T08:50:04Z</time>
      </trkpt>
      <trkpt lat="43.7449" lon="6.63867">
        <ele>1404.1</ele>
        <time>2024-05-26T08:50:05Z</time>
      </trkpt>
      <trkpt lat="43.74489" lon="6.63868">
        <ele>1404.2</ele>
        <time>2024-05-26T08:50:06Z</time>
      </trkpt>
      <trkpt lat="43.74489" lon="6.63869">
        <ele>1404.2</ele>
        <time>2024-05-26T08:50:07Z</time>
      </trkpt>
      <trkpt lat="43.74488" lon="6.6387">
        <ele>1404.3</ele>
        <time>2024-05-26T08:50:08Z</time>
      </trkpt>
      <trkpt lat="43.74487" lon="6.63871">
        <ele>1404.5</ele>
        <time>2024-05-26T08:50:09Z</time>
      </trkpt>
      <trkpt lat="43.74486" lon="6.63871">
        <ele>1404.6</ele>
        <time>2024-05-26T08:50:10Z</time>
      </trkpt>
      <trkpt lat="43.74486" lon="6.63872">
        <ele>1404.8</ele>
        <time>2024-05-26T08:50:11Z</time>
      </trkpt>
      <trkpt lat="43.74485" lon="6.63872">
        <ele>1404.9</ele>
        <time>2024-05-26T08:50:12Z</time>
      </trkpt>
      <trkpt lat="43.74484" lon="6.63872">
        <ele>1405.1</ele>
        <time>2024-05-26T08:50:13Z</time>
      </trkpt>
      <trkpt lat="43.74484" lon="6.63872">
        <ele>1405.2</ele>
        <time>2024-05-26T08:50:14Z</time>
      </trkpt>
      <trkpt lat="43.74483" lon="6.63872">
        <ele>1405.4</ele>
        <time>2024-05-26T08:50:15Z</time>
      </trkpt>
      <trkpt lat="43.74483" lon="6.63873">
        <ele>1405.6</ele>
        <time>2024-05-26T08:50:16Z</time>
      </trkpt>
      <trkpt lat="43.74482" lon="6.63873">
        <ele>1405.8</ele>
        <time>2024-05-26T08:50:17Z</time>
      </trkpt>
      <trkpt lat="43.74481" lon="6.63874">
        <ele>1406</ele>
        <time>2024-05-26T08:50:18Z</time>
      </trkpt>
      <trkpt lat="43.74481" lon="6.63875">
        <ele>1406.2</ele>
        <time>2024-05-26T08:50:19Z</time>
      </trkpt>
      <trkpt lat="43.7448" lon="6.63876">
        <ele>1406.3</ele>
        <time>2024-05-26T08:50:20Z</time>
      </trkpt>
      <trkpt lat="43.74479" lon="6.63877">
        <ele>1406.4</ele>
        <time>2024-05-26T08:50:21Z</time>
      </trkpt>
      <trkpt lat="43.74478" lon="6.63878">
        <ele>1406.5</ele>
        <time>2024-05-26T08:50:22Z</time>
      </trkpt>
      <trkpt lat="43.74478" lon="6.63878">
        <ele>1406.6</ele>
        <time>2024-05-26T08:50:23Z</time>
      </trkpt>
      <trkpt lat="43.74477" lon="6.63878">
        <ele>1406.7</ele>
        <time>2024-05-26T08:50:24Z</time>
      </trkpt>
      <trkpt lat="43.74476" lon="6.63878">
        <ele>1406.8</ele>
        <time>2024-05-26T08:50:25Z</time>
      </trkpt>
      <trkpt lat="43.74476" lon="6.63879">
        <ele>1406.9</ele>
        <time>2024-05-26T08:50:26Z</time>
      </trkpt>
      <trkpt lat="43.74475" lon="6.63879">
        <ele>1407</ele>
        <time>2024-05-26T08:50:27Z</time>
      </trkpt>
      <trkpt lat="43.74474" lon="6.63879">
        <ele>1407.1</ele>
        <time>2024-05-26T08:50:28Z</time>
      </trkpt>
      <trkpt lat="43.74473" lon="6.63879">
        <ele>1407.2</ele>
        <time>2024-05-26T08:50:29Z</time>
      </trkpt>
      <trkpt lat="43.74472" lon="6.63879">
        <ele>1407.5</ele>
        <time>2024-05-26T08:50:30Z</time>
      </trkpt>
      <trkpt lat="43.74471" lon="6.63879">
        <ele>1407.7</ele>
        <time>2024-05-26T08:50:31Z</time>
      </trkpt>
      <trkpt lat="43.74471" lon="6.63879">
        <ele>1407.9</ele>
        <time>2024-05-26T08:50:32Z</time>
      </trkpt>
      <trkpt lat="43.7447" lon="6.63879">
        <ele>1408</ele>
        <time>2024-05-26T08:50:33Z</time>
      </trkpt>
      <trkpt lat="43.74469" lon="6.63879">
        <ele>1408.2</ele>
        <time>2024-05-26T08:50:34Z</time>
      </trkpt>
      <trkpt lat="43.74469" lon="6.6388">
        <ele>1408.4</ele>
        <time>2024-05-26T08:50:35Z</time>
      </trkpt>
      <trkpt lat="43.74468" lon="6.63881">
        <ele>1408.6</ele>
        <time>2024-05-26T08:50:36Z</time>
      </trkpt>
      <trkpt lat="43.74468" lon="6.63881">
        <ele>1408.8</ele>
        <time>2024-05-26T08:50:37Z</time>
      </trkpt>
      <trkpt lat="43.74467" lon="6.63881">
        <ele>1408.9</ele>
        <time>2024-05-26T08:50:38Z</time>
      </trkpt>
      <trkpt lat="43.74466" lon="6.63882">
        <ele>1409.1</ele>
        <time>2024-05-26T08:50:39Z</time>
      </trkpt>
      <trkpt lat="43.74466" lon="6.63882">
        <ele>1409.3</ele>
        <time>2024-05-26T08:50:40Z</time>
      </trkpt>
      <trkpt lat="43.74465" lon="6.63882">
        <ele>1409.5</ele>
        <time>2024-05-26T08:50:41Z</time>
      </trkpt>
      <trkpt lat="43.74465" lon="6.63882">
        <ele>1409.6</ele>
        <time>2024-05-26T08:50:42Z</time>
      </trkpt>
      <trkpt lat="43.74465" lon="6.63883">
        <ele>1409.7</ele>
        <time>2024-05-26T08:50:43Z</time>
      </trkpt>
      <trkpt lat="43.74464" lon="6.63883">
        <ele>1409.9</ele>
        <time>2024-05-26T08:50:44Z</time>
      </trkpt>
      <trkpt lat="43.74464" lon="6.63883">
        <ele>1410.1</ele>
        <time>2024-05-26T08:50:45Z</time>
      </trkpt>
      <trkpt lat="43.74463" lon="6.63883">
        <ele>1410.2</ele>
        <time>2024-05-26T08:50:46Z</time>
      </trkpt>
      <trkpt lat="43.74462" lon="6.63884">
        <ele>1410.3</ele>
        <time>2024-05-26T08:50:47Z</time>
      </trkpt>
      <trkpt lat="43.74461" lon="6.63885">
        <ele>1410.3</ele>
        <time>2024-05-26T08:50:48Z</time>
      </trkpt>
      <trkpt lat="43.7446" lon="6.63885">
        <ele>1410.4</ele>
        <time>2024-05-26T08:50:49Z</time>
      </trkpt>
      <trkpt lat="43.7446" lon="6.63886">
        <ele>1410.6</ele>
        <time>2024-05-26T08:50:50Z</time>
      </trkpt>
      <trkpt lat="43.74459" lon="6.63886">
        <ele>1410.8</ele>
        <time>2024-05-26T08:50:51Z</time>
      </trkpt>
      <trkpt lat="43.74459" lon="6.63886">
        <ele>1411</ele>
        <time>2024-05-26T08:50:52Z</time>
      </trkpt>
      <trkpt lat="43.74459" lon="6.63887">
        <ele>1411.1</ele>
        <time>2024-05-26T08:50:53Z</time>
      </trkpt>
      <trkpt lat="43.74458" lon="6.63887">
        <ele>1411.3</ele>
        <time>2024-05-26T08:50:54Z</time>
      </trkpt>
      <trkpt lat="43.74457" lon="6.63887">
        <ele>1411.5</ele>
        <time>2024-05-26T08:50:55Z</time>
      </trkpt>
      <trkpt lat="43.74457" lon="6.63888">
        <ele>1411.6</ele>
        <time>2024-05-26T08:50:56Z</time>
      </trkpt>
      <trkpt lat="43.74456" lon="6.63889">
        <ele>1411.7</ele>
        <time>2024-05-26T08:50:57Z</time>
      </trkpt>
      <trkpt lat="43.74456" lon="6.63889">
        <ele>1411.9</ele>
        <time>2024-05-26T08:50:58Z</time>
      </trkpt>
      <trkpt lat="43.74455" lon="6.63889">
        <ele>1412.2</ele>
        <time>2024-05-26T08:50:59Z</time>
      </trkpt>
      <trkpt lat="43.74454" lon="6.6389">
        <ele>1412.3</ele>
        <time>2024-05-26T08:51:00Z</time>
      </trkpt>
      <trkpt lat="43.74453" lon="6.63891">
        <ele>1412.4</ele>
        <time>2024-05-26T08:51:01Z</time>
      </trkpt>
      <trkpt lat="43.74452" lon="6.63891">
        <ele>1412.6</ele>
        <time>2024-05-26T08:51:02Z</time>
      </trkpt>
      <trkpt lat="43.74452" lon="6.63891">
        <ele>1412.8</ele>
        <time>2024-05-26T08:51:03Z</time>
      </trkpt>
      <trkpt lat="43.74451" lon="6.63891">
        <ele>1413</ele>
        <time>2024-05-26T08:51:04Z</time>
      </trkpt>
      <trkpt lat="43.7445" lon="6.63892">
        <ele>1413.2</ele>
        <time>2024-05-26T08:51:05Z</time>
      </trkpt>
      <trkpt lat="43.7445" lon="6.63893">
        <ele>1413.4</ele>
        <time>2024-05-26T08:51:06Z</time>
      </trkpt>
      <trkpt lat="43.7445" lon="6.63893">
        <ele>1413.5</ele>
        <time>2024-05-26T08:51:07Z</time>
      </trkpt>
      <trkpt lat="43.74449" lon="6.63894">
        <ele>1413.7</ele>
        <time>2024-05-26T08:51:08Z</time>
      </trkpt>
      <trkpt lat="43.7445" lon="6.63894">
        <ele>1413.8</ele>
        <time>2024-05-26T08:51:09Z</time>
      </trkpt>
      <trkpt lat="43.7445" lon="6.63895">
        <ele>1413.9</ele>
        <time>2024-05-26T08:51:10Z</time>
      </trkpt>
      <trkpt lat="43.74449" lon="6.63896">
        <ele>1414</ele>
        <time>2024-05-26T08:51:11Z</time>
      </trkpt>
      <trkpt lat="43.74448" lon="6.63897">
        <ele>1414.2</ele>
        <time>2024-05-26T08:51:12Z</time>
      </trkpt>
      <trkpt lat="43.74448" lon="6.63898">
        <ele>1414.5</ele>
        <time>2024-05-26T08:51:13Z</time>
      </trkpt>
      <trkpt lat="43.74448" lon="6.639">
        <ele>1414.7</ele>
        <time>2024-05-26T08:51:14Z</time>
      </trkpt>
      <trkpt lat="43.74448" lon="6.63901">
        <ele>1414.8</ele>
        <time>2024-05-26T08:51:15Z</time>
      </trkpt>
      <trkpt lat="43.74447" lon="6.63902">
        <ele>1414.9</ele>
        <time>2024-05-26T08:51:16Z</time>
      </trkpt>
      <trkpt lat="43.74446" lon="6.63903">
        <ele>1415</ele>
        <time>2024-05-26T08:51:17Z</time>
      </trkpt>
      <trkpt lat="43.74445" lon="6.63903">
        <ele>1415.1</ele>
        <time>2024-05-26T08:51:18Z</time>
      </trkpt>
      <trkpt lat="43.74445" lon="6.63904">
        <ele>1415.2</ele>
        <time>2024-05-26T08:51:19Z</time>
      </trkpt>
      <trkpt lat="43.74445" lon="6.63905">
        <ele>1415.3</ele>
        <time>2024-05-26T08:51:20Z</time>
      </trkpt>
      <trkpt lat="43.74445" lon="6.63906">
        <ele>1415.4</ele>
        <time>2024-05-26T08:51:21Z</time>
      </trkpt>
      <trkpt lat="43.74445" lon="6.63906">
        <ele>1415.6</ele>
        <time>2024-05-26T08:51:22Z</time>
      </trkpt>
      <trkpt lat="43.74444" lon="6.63907">
        <ele>1415.8</ele>
        <time>2024-05-26T08:51:23Z</time>
      </trkpt>
      <trkpt lat="43.74444" lon="6.63908">
        <ele>1415.9</ele>
        <time>2024-05-26T08:51:24Z</time>
      </trkpt>
      <trkpt lat="43.74443" lon="6.63909">
        <ele>1416</ele>
        <time>2024-05-26T08:51:25Z</time>
      </trkpt>
      <trkpt lat="43.74443" lon="6.63909">
        <ele>1416.1</ele>
        <time>2024-05-26T08:51:26Z</time>
      </trkpt>
      <trkpt lat="43.74442" lon="6.6391">
        <ele>1416.1</ele>
        <time>2024-05-26T08:51:27Z</time>
      </trkpt>
      <trkpt lat="43.74442" lon="6.63911">
        <ele>1416.2</ele>
        <time>2024-05-26T08:51:28Z</time>
      </trkpt>
      <trkpt lat="43.74441" lon="6.63911">
        <ele>1416.3</ele>
        <time>2024-05-26T08:51:29Z</time>
      </trkpt>
      <trkpt lat="43.74441" lon="6.63911">
        <ele>1416.4</ele>
        <time>2024-05-26T08:51:30Z</time>
      </trkpt>
      <trkpt lat="43.74441" lon="6.6391">
        <ele>1416.4</ele>
        <time>2024-05-26T08:51:31Z</time>
      </trkpt>
      <trkpt lat="43.7444" lon="6.6391">
        <ele>1416.6</ele>
        <time>2024-05-26T08:51:32Z</time>
      </trkpt>
      <trkpt lat="43.74439" lon="6.6391">
        <ele>1416.7</ele>
        <time>2024-05-26T08:51:33Z</time>
      </trkpt>
      <trkpt lat="43.74439" lon="6.63911">
        <ele>1416.9</ele>
        <time>2024-05-26T08:51:34Z</time>
      </trkpt>
      <trkpt lat="43.74438" lon="6.63912">
        <ele>1417.1</ele>
        <time>2024-05-26T08:51:35Z</time>
      </trkpt>
      <trkpt lat="43.74438" lon="6.63913">
        <ele>1417.3</ele>
        <time>2024-05-26T08:51:36Z</time>
      </trkpt>
      <trkpt lat="43.74438" lon="6.63914">
        <ele>1417.4</ele>
        <time>2024-05-26T08:51:37Z</time>
      </trkpt>
      <trkpt lat="43.74438" lon="6.63916">
        <ele>1417.4</ele>
        <time>2024-05-26T08:51:38Z</time>
      </trkpt>
      <trkpt lat="43.74438" lon="6.63917">
        <ele>1417.4</ele>
        <time>2024-05-26T08:51:39Z</time>
      </trkpt>
      <trkpt lat="43.74437" lon="6.63918">
        <ele>1417.5</ele>
        <time>2024-05-26T08:51:40Z</time>
      </trkpt>
      <trkpt lat="43.74437" lon="6.63919">
        <ele>1417.5</ele>
        <time>2024-05-26T08:51:41Z</time>
      </trkpt>
      <trkpt lat="43.74436" lon="6.6392">
        <ele>1417.5</ele>
        <time>2024-05-26T08:51:42Z</time>
      </trkpt>
      <trkpt lat="43.74436" lon="6.63921">
        <ele>1417.7</ele>
        <time>2024-05-26T08:51:43Z</time>
      </trkpt>
      <trkpt lat="43.74435" lon="6.63922">
        <ele>1417.7</ele>
        <time>2024-05-26T08:51:44Z</time>
      </trkpt>
      <trkpt lat="43.74434" lon="6.63922">
        <ele>1417.8</ele>
        <time>2024-05-26T08:51:45Z</time>
      </trkpt>
      <trkpt lat="43.74433" lon="6.63923">
        <ele>1418</ele>
        <time>2024-05-26T08:51:46Z</time>
      </trkpt>
      <trkpt lat="43.74432" lon="6.63924">
        <ele>1418.2</ele>
        <time>2024-05-26T08:51:47Z</time>
      </trkpt>
      <trkpt lat="43.74431" lon="6.63924">
        <ele>1418.3</ele>
        <time>2024-05-26T08:51:48Z</time>
      </trkpt>
      <trkpt lat="43.74431" lon="6.63925">
        <ele>1418.4</ele>
        <time>2024-05-26T08:51:49Z</time>
      </trkpt>
      <trkpt lat="43.74431" lon="6.63926">
        <ele>1418.6</ele>
        <time>2024-05-26T08:51:50Z</time>
      </trkpt>
      <trkpt lat="43.7443" lon="6.63926">
        <ele>1418.8</ele>
        <time>2024-05-26T08:51:51Z</time>
      </trkpt>
      <trkpt lat="43.7443" lon="6.63927">
        <ele>1418.9</ele>
        <time>2024-05-26T08:51:52Z</time>
      </trkpt>
      <trkpt lat="43.74429" lon="6.63927">
        <ele>1419.1</ele>
        <time>2024-05-26T08:51:53Z</time>
      </trkpt>
      <trkpt lat="43.74429" lon="6.63927">
        <ele>1419.1</ele>
        <time>2024-05-26T08:51:54Z</time>
      </trkpt>
      <trkpt lat="43.74428" lon="6.63928">
        <ele>1419.2</ele>
        <time>2024-05-26T08:51:55Z</time>
      </trkpt>
      <trkpt lat="43.74428" lon="6.63928">
        <ele>1419.3</ele>
        <time>2024-05-26T08:51:56Z</time>
      </trkpt>
      <trkpt lat="43.74427" lon="6.63928">
        <ele>1419.6</ele>
        <time>2024-05-26T08:51:57Z</time>
      </trkpt>
      <trkpt lat="43.74427" lon="6.63929">
        <ele>1419.7</ele>
        <time>2024-05-26T08:51:58Z</time>
      </trkpt>
      <trkpt lat="43.74426" lon="6.6393">
        <ele>1419.9</ele>
        <time>2024-05-26T08:51:59Z</time>
      </trkpt>
      <trkpt lat="43.74426" lon="6.6393">
        <ele>1420.1</ele>
        <time>2024-05-26T08:52:00Z</time>
      </trkpt>
      <trkpt lat="43.74425" lon="6.63931">
        <ele>1420.2</ele>
        <time>2024-05-26T08:52:01Z</time>
      </trkpt>
      <trkpt lat="43.74425" lon="6.63932">
        <ele>1420.3</ele>
        <time>2024-05-26T08:52:02Z</time>
      </trkpt>
      <trkpt lat="43.74424" lon="6.63933">
        <ele>1420.4</ele>
        <time>2024-05-26T08:52:03Z</time>
      </trkpt>
      <trkpt lat="43.74423" lon="6.63933">
        <ele>1420.6</ele>
        <time>2024-05-26T08:52:04Z</time>
      </trkpt>
      <trkpt lat="43.74422" lon="6.63934">
        <ele>1420.7</ele>
        <time>2024-05-26T08:52:05Z</time>
      </trkpt>
      <trkpt lat="43.74421" lon="6.63934">
        <ele>1421</ele>
        <time>2024-05-26T08:52:06Z</time>
      </trkpt>
      <trkpt lat="43.7442" lon="6.63935">
        <ele>1421.2</ele>
        <time>2024-05-26T08:52:07Z</time>
      </trkpt>
      <trkpt lat="43.7442" lon="6.63936">
        <ele>1421.3</ele>
        <time>2024-05-26T08:52:08Z</time>
      </trkpt>
      <trkpt lat="43.7442" lon="6.63936">
        <ele>1421.4</ele>
        <time>2024-05-26T08:52:09Z</time>
      </trkpt>
      <trkpt lat="43.74419" lon="6.63936">
        <ele>1421.5</ele>
        <time>2024-05-26T08:52:10Z</time>
      </trkpt>
      <trkpt lat="43.74418" lon="6.63937">
        <ele>1421.5</ele>
        <time>2024-05-26T08:52:11Z</time>
      </trkpt>
      <trkpt lat="43.74418" lon="6.63937">
        <ele>1421.6</ele>
        <time>2024-05-26T08:52:12Z</time>
      </trkpt>
      <trkpt lat="43.74417" lon="6.63937">
        <ele>1421.7</ele>
        <time>2024-05-26T08:52:13Z</time>
      </trkpt>
      <trkpt lat="43.74417" lon="6.63937">
        <ele>1421.8</ele>
        <time>2024-05-26T08:52:14Z</time>
      </trkpt>
      <trkpt lat="43.74416" lon="6.63937">
        <ele>1421.9</ele>
        <time>2024-05-26T08:52:15Z</time>
      </trkpt>
      <trkpt lat="43.74416" lon="6.63938">
        <ele>1422</ele>
        <time>2024-05-26T08:52:16Z</time>
      </trkpt>
      <trkpt lat="43.74415" lon="6.63938">
        <ele>1422.2</ele>
        <time>2024-05-26T08:52:17Z</time>
      </trkpt>
      <trkpt lat="43.74415" lon="6.63938">
        <ele>1422.3</ele>
        <time>2024-05-26T08:52:18Z</time>
      </trkpt>
      <trkpt lat="43.74415" lon="6.63938">
        <ele>1422.4</ele>
        <time>2024-05-26T08:52:19Z</time>
      </trkpt>
      <trkpt lat="43.74414" lon="6.63938">
        <ele>1422.5</ele>
        <time>2024-05-26T08:52:20Z</time>
      </trkpt>
      <trkpt lat="43.74414" lon="6.63939">
        <ele>1422.7</ele>
        <time>2024-05-26T08:52:21Z</time>
      </trkpt>
      <trkpt lat="43.74413" lon="6.63939">
        <ele>1422.9</ele>
        <time>2024-05-26T08:52:22Z</time>
      </trkpt>
      <trkpt lat="43.74413" lon="6.6394">
        <ele>1423</ele>
        <time>2024-05-26T08:52:23Z</time>
      </trkpt>
      <trkpt lat="43.74412" lon="6.63941">
        <ele>1423.1</ele>
        <time>2024-05-26T08:52:24Z</time>
      </trkpt>
      <trkpt lat="43.74412" lon="6.63942">
        <ele>1423.2</ele>
        <time>2024-05-26T08:52:25Z</time>
      </trkpt>
      <trkpt lat="43.74411" lon="6.63942">
        <ele>1423.4</ele>
        <time>2024-05-26T08:52:26Z</time>
      </trkpt>
      <trkpt lat="43.7441" lon="6.63943">
        <ele>1423.5</ele>
        <time>2024-05-26T08:52:27Z</time>
      </trkpt>
      <trkpt lat="43.74409" lon="6.63943">
        <ele>1423.7</ele>
        <time>2024-05-26T08:52:28Z</time>
      </trkpt>
      <trkpt lat="43.74408" lon="6.63943">
        <ele>1423.8</ele>
        <time>2024-05-26T08:52:29Z</time>
      </trkpt>
      <trkpt lat="43.74407" lon="6.63943">
        <ele>1424</ele>
        <time>2024-05-26T08:52:30Z</time>
      </trkpt>
      <trkpt lat="43.74406" lon="6.63943">
        <ele>1424.1</ele>
        <time>2024-05-26T08:52:31Z</time>
      </trkpt>
      <trkpt lat="43.74405" lon="6.63943">
        <ele>1424.2</ele>
        <time>2024-05-26T08:52:32Z</time>
      </trkpt>
      <trkpt lat="43.74404" lon="6.63944">
        <ele>1424.3</ele>
        <time>2024-05-26T08:52:33Z</time>
      </trkpt>
      <trkpt lat="43.74404" lon="6.63944">
        <ele>1424.5</ele>
        <time>2024-05-26T08:52:34Z</time>
      </trkpt>
      <trkpt lat="43.74403" lon="6.63945">
        <ele>1424.6</ele>
        <time>2024-05-26T08:52:35Z</time>
      </trkpt>
      <trkpt lat="43.74403" lon="6.63945">
        <ele>1424.7</ele>
        <time>2024-05-26T08:52:36Z</time>
      </trkpt>
      <trkpt lat="43.74402" lon="6.63946">
        <ele>1424.8</ele>
        <time>2024-05-26T08:52:37Z</time>
      </trkpt>
      <trkpt lat="43.74401" lon="6.63947">
        <ele>1424.9</ele>
        <time>2024-05-26T08:52:38Z</time>
      </trkpt>
      <trkpt lat="43.74401" lon="6.63947">
        <ele>1425</ele>
        <time>2024-05-26T08:52:39Z</time>
      </trkpt>
      <trkpt lat="43.74401" lon="6.63948">
        <ele>1425.2</ele>
        <time>2024-05-26T08:52:40Z</time>
      </trkpt>
      <trkpt lat="43.744" lon="6.63949">
        <ele>1425.5</ele>
        <time>2024-05-26T08:52:41Z</time>
      </trkpt>
      <trkpt lat="43.744" lon="6.63951">
        <ele>1425.7</ele>
        <time>2024-05-26T08:52:42Z</time>
      </trkpt>
      <trkpt lat="43.744" lon="6.63952">
        <ele>1425.9</ele>
        <time>2024-05-26T08:52:43Z</time>
      </trkpt>
      <trkpt lat="43.744" lon="6.63953">
        <ele>1426.1</ele>
        <time>2024-05-26T08:52:44Z</time>
      </trkpt>
      <trkpt lat="43.744" lon="6.63954">
        <ele>1426.2</ele>
        <time>2024-05-26T08:52:45Z</time>
      </trkpt>
      <trkpt lat="43.744" lon="6.63954">
        <ele>1426.4</ele>
        <time>2024-05-26T08:52:46Z</time>
      </trkpt>
      <trkpt lat="43.744" lon="6.63955">
        <ele>1426.5</ele>
        <time>2024-05-26T08:52:47Z</time>
      </trkpt>
      <trkpt lat="43.744" lon="6.63956">
        <ele>1426.6</ele>
        <time>2024-05-26T08:52:48Z</time>
      </trkpt>
      <trkpt lat="43.74399" lon="6.63957">
        <ele>1426.6</ele>
        <time>2024-05-26T08:52:49Z</time>
      </trkpt>
      <trkpt lat="43.74399" lon="6.63957">
        <ele>1426.7</ele>
        <time>2024-05-26T08:52:50Z</time>
      </trkpt>
      <trkpt lat="43.74398" lon="6.63958">
        <ele>1426.8</ele>
        <time>2024-05-26T08:52:51Z</time>
      </trkpt>
      <trkpt lat="43.74398" lon="6.63958">
        <ele>1426.9</ele>
        <time>2024-05-26T08:52:52Z</time>
      </trkpt>
      <trkpt lat="43.74397" lon="6.63958">
        <ele>1427</ele>
        <time>2024-05-26T08:52:53Z</time>
      </trkpt>
      <trkpt lat="43.74397" lon="6.63958">
        <ele>1427</ele>
        <time>2024-05-26T08:52:54Z</time>
      </trkpt>
      <trkpt lat="43.74396" lon="6.63957">
        <ele>1427.1</ele>
        <time>2024-05-26T08:52:55Z</time>
      </trkpt>
      <trkpt lat="43.74395" lon="6.63957">
        <ele>1427.2</ele>
        <time>2024-05-26T08:52:56Z</time>
      </trkpt>
      <trkpt lat="43.74395" lon="6.63957">
        <ele>1427.3</ele>
        <time>2024-05-26T08:52:57Z</time>
      </trkpt>
      <trkpt lat="43.74395" lon="6.63957">
        <ele>1427.3</ele>
        <time>2024-05-26T08:52:58Z</time>
      </trkpt>
      <trkpt lat="43.74394" lon="6.63957">
        <ele>1427.3</ele>
        <time>2024-05-26T08:52:59Z</time>
      </trkpt>
      <trkpt lat="43.74393" lon="6.63957">
        <ele>1427.4</ele>
        <time>2024-05-26T08:53:00Z</time>
      </trkpt>
      <trkpt lat="43.74393" lon="6.63956">
        <ele>1427.4</ele>
        <time>2024-05-26T08:53:01Z</time>
      </trkpt>
      <trkpt lat="43.74391" lon="6.63957">
        <ele>1427.3</ele>
        <time>2024-05-26T08:53:02Z</time>
      </trkpt>
      <trkpt lat="43.7439" lon="6.63957">
        <ele>1427.3</ele>
        <time>2024-05-26T08:53:03Z</time>
      </trkpt>
      <trkpt lat="43.74389" lon="6.63958">
        <ele>1427.3</ele>
        <time>2024-05-26T08:53:04Z</time>
      </trkpt>
      <trkpt lat="43.74389" lon="6.63958">
        <ele>1427.4</ele>
        <time>2024-05-26T08:53:05Z</time>
      </trkpt>
      <trkpt lat="43.74389" lon="6.63958">
        <ele>1427.4</ele>
        <time>2024-05-26T08:53:06Z</time>
      </trkpt>
      <trkpt lat="43.74388" lon="6.63958">
        <ele>1427.4</ele>
        <time>2024-05-26T08:53:07Z</time>
      </trkpt>
      <trkpt lat="43.74387" lon="6.63958">
        <ele>1427.5</ele>
        <time>2024-05-26T08:53:08Z</time>
      </trkpt>
      <trkpt lat="43.74386" lon="6.63958">
        <ele>1427.6</ele>
        <time>2024-05-26T08:53:09Z</time>
      </trkpt>
      <trkpt lat="43.74386" lon="6.63957">
        <ele>1427.6</ele>
        <time>2024-05-26T08:53:10Z</time>
      </trkpt>
      <trkpt lat="43.74385" lon="6.63957">
        <ele>1427.7</ele>
        <time>2024-05-26T08:53:11Z</time>
      </trkpt>
      <trkpt lat="43.74384" lon="6.63958">
        <ele>1427.7</ele>
        <time>2024-05-26T08:53:12Z</time>
      </trkpt>
      <trkpt lat="43.74384" lon="6.63958">
        <ele>1427.9</ele>
        <time>2024-05-26T08:53:13Z</time>
      </trkpt>
      <trkpt lat="43.74383" lon="6.63958">
        <ele>1427.9</ele>
        <time>2024-05-26T08:53:14Z</time>
      </trkpt>
      <trkpt lat="43.74383" lon="6.63958">
        <ele>1427.9</ele>
        <time>2024-05-26T08:53:15Z</time>
      </trkpt>
      <trkpt lat="43.74382" lon="6.63959">
        <ele>1427.9</ele>
        <time>2024-05-26T08:53:16Z</time>
      </trkpt>
      <trkpt lat="43.74381" lon="6.63958">
        <ele>1427.8</ele>
        <time>2024-05-26T08:53:17Z</time>
      </trkpt>
      <trkpt lat="43.7438" lon="6.63959">
        <ele>1427.8</ele>
        <time>2024-05-26T08:53:18Z</time>
      </trkpt>
      <trkpt lat="43.74379" lon="6.63959">
        <ele>1427.8</ele>
        <time>2024-05-26T08:53:19Z</time>
      </trkpt>
      <trkpt lat="43.74378" lon="6.63959">
        <ele>1427.7</ele>
        <time>2024-05-26T08:53:20Z</time>
      </trkpt>
      <trkpt lat="43.74377" lon="6.6396">
        <ele>1427.6</ele>
        <time>2024-05-26T08:53:21Z</time>
      </trkpt>
      <trkpt lat="43.74376" lon="6.6396">
        <ele>1427.6</ele>
        <time>2024-05-26T08:53:22Z</time>
      </trkpt>
      <trkpt lat="43.74375" lon="6.63961">
        <ele>1427.5</ele>
        <time>2024-05-26T08:53:23Z</time>
      </trkpt>
      <trkpt lat="43.74374" lon="6.63962">
        <ele>1427.5</ele>
        <time>2024-05-26T08:53:24Z</time>
      </trkpt>
      <trkpt lat="43.74373" lon="6.63963">
        <ele>1427.4</ele>
        <time>2024-05-26T08:53:25Z</time>
      </trkpt>
      <trkpt lat="43.74372" lon="6.63964">
        <ele>1427.4</ele>
        <time>2024-05-26T08:53:26Z</time>
      </trkpt>
      <trkpt lat="43.74371" lon="6.63965">
        <ele>1427.4</ele>
        <time>2024-05-26T08:53:27Z</time>
      </trkpt>
      <trkpt lat="43.7437" lon="6.63965">
        <ele>1427.4</ele>
        <time>2024-05-26T08:53:28Z</time>
      </trkpt>
      <trkpt lat="43.7437" lon="6.63965">
        <ele>1427.4</ele>
        <time>2024-05-26T08:53:29Z</time>
      </trkpt>
      <trkpt lat="43.74369" lon="6.63965">
        <ele>1427.3</ele>
        <time>2024-05-26T08:53:30Z</time>
      </trkpt>
      <trkpt lat="43.74368" lon="6.63966">
        <ele>1427.3</ele>
        <time>2024-05-26T08:53:31Z</time>
      </trkpt>
      <trkpt lat="43.74367" lon="6.63967">
        <ele>1427.4</ele>
        <time>2024-05-26T08:53:32Z</time>
      </trkpt>
      <trkpt lat="43.74366" lon="6.63967">
        <ele>1427.5</ele>
        <time>2024-05-26T08:53:33Z</time>
      </trkpt>
      <trkpt lat="43.74365" lon="6.63968">
        <ele>1427.4</ele>
        <time>2024-05-26T08:53:34Z</time>
      </trkpt>
      <trkpt lat="43.74364" lon="6.63968">
        <ele>1427.3</ele>
        <time>2024-05-26T08:53:35Z</time>
      </trkpt>
      <trkpt lat="43.74363" lon="6.63968">
        <ele>1427.3</ele>
        <time>2024-05-26T08:53:36Z</time>
      </trkpt>
      <trkpt lat="43.74361" lon="6.63968">
        <ele>1427.2</ele>
        <time>2024-05-26T08:53:37Z</time>
      </trkpt>
      <trkpt lat="43.7436" lon="6.63969">
        <ele>1427.2</ele>
        <time>2024-05-26T08:53:38Z</time>
      </trkpt>
      <trkpt lat="43.74359" lon="6.63969">
        <ele>1427.2</ele>
        <time>2024-05-26T08:53:39Z</time>
      </trkpt>
      <trkpt lat="43.74358" lon="6.63969">
        <ele>1427.2</ele>
        <time>2024-05-26T08:53:40Z</time>
      </trkpt>
      <trkpt lat="43.74358" lon="6.63968">
        <ele>1427.2</ele>
        <time>2024-05-26T08:53:41Z</time>
      </trkpt>
      <trkpt lat="43.74356" lon="6.63968">
        <ele>1427.2</ele>
        <time>2024-05-26T08:53:42Z</time>
      </trkpt>
      <trkpt lat="43.74355" lon="6.63967">
        <ele>1427.2</ele>
        <time>2024-05-26T08:53:43Z</time>
      </trkpt>
      <trkpt lat="43.74354" lon="6.63967">
        <ele>1427.3</ele>
        <time>2024-05-26T08:53:44Z</time>
      </trkpt>
      <trkpt lat="43.74354" lon="6.63967">
        <ele>1427.4</ele>
        <time>2024-05-26T08:53:45Z</time>
      </trkpt>
      <trkpt lat="43.74353" lon="6.63966">
        <ele>1427.4</ele>
        <time>2024-05-26T08:53:46Z</time>
      </trkpt>
      <trkpt lat="43.74352" lon="6.63966">
        <ele>1427.4</ele>
        <time>2024-05-26T08:53:47Z</time>
      </trkpt>
      <trkpt lat="43.74351" lon="6.63965">
        <ele>1427.4</ele>
        <time>2024-05-26T08:53:48Z</time>
      </trkpt>
      <trkpt lat="43.7435" lon="6.63964">
        <ele>1427.4</ele>
        <time>2024-05-26T08:53:49Z</time>
      </trkpt>
      <trkpt lat="43.74349" lon="6.63963">
        <ele>1427.4</ele>
        <time>2024-05-26T08:53:50Z</time>
      </trkpt>
      <trkpt lat="43.74348" lon="6.63962">
        <ele>1427.4</ele>
        <time>2024-05-26T08:53:51Z</time>
      </trkpt>
      <trkpt lat="43.74347" lon="6.63962">
        <ele>1427.5</ele>
        <time>2024-05-26T08:53:52Z</time>
      </trkpt>
      <trkpt lat="43.74347" lon="6.63961">
        <ele>1427.5</ele>
        <time>2024-05-26T08:53:53Z</time>
      </trkpt>
      <trkpt lat="43.74346" lon="6.6396">
        <ele>1427.5</ele>
        <time>2024-05-26T08:53:54Z</time>
      </trkpt>
      <trkpt lat="43.74345" lon="6.6396">
        <ele>1427.5</ele>
        <time>2024-05-26T08:53:55Z</time>
      </trkpt>
      <trkpt lat="43.74344" lon="6.63959">
        <ele>1427.5</ele>
        <time>2024-05-26T08:53:56Z</time>
      </trkpt>
      <trkpt lat="43.74344" lon="6.63958">
        <ele>1427.5</ele>
        <time>2024-05-26T08:53:57Z</time>
      </trkpt>
      <trkpt lat="43.74343" lon="6.63957">
        <ele>1427.5</ele>
        <time>2024-05-26T08:53:58Z</time>
      </trkpt>
      <trkpt lat="43.74342" lon="6.63957">
        <ele>1427.5</ele>
        <time>2024-05-26T08:53:59Z</time>
      </trkpt>
      <trkpt lat="43.74341" lon="6.63957">
        <ele>1427.6</ele>
        <time>2024-05-26T08:54:00Z</time>
      </trkpt>
      <trkpt lat="43.74341" lon="6.63956">
        <ele>1427.6</ele>
        <time>2024-05-26T08:54:01Z</time>
      </trkpt>
      <trkpt lat="43.7434" lon="6.63956">
        <ele>1427.7</ele>
        <time>2024-05-26T08:54:02Z</time>
      </trkpt>
      <trkpt lat="43.74339" lon="6.63955">
        <ele>1427.7</ele>
        <time>2024-05-26T08:54:03Z</time>
      </trkpt>
      <trkpt lat="43.74339" lon="6.63955">
        <ele>1427.8</ele>
        <time>2024-05-26T08:54:04Z</time>
      </trkpt>
      <trkpt lat="43.74338" lon="6.63954">
        <ele>1427.8</ele>
        <time>2024-05-26T08:54:05Z</time>
      </trkpt>
      <trkpt lat="43.74338" lon="6.63954">
        <ele>1427.9</ele>
        <time>2024-05-26T08:54:06Z</time>
      </trkpt>
      <trkpt lat="43.74338" lon="6.63954">
        <ele>1427.9</ele>
        <time>2024-05-26T08:54:07Z</time>
      </trkpt>
      <trkpt lat="43.74338" lon="6.63953">
        <ele>1427.9</ele>
        <time>2024-05-26T08:54:08Z</time>
      </trkpt>
      <trkpt lat="43.74338" lon="6.63953">
        <ele>1427.9</ele>
        <time>2024-05-26T08:54:09Z</time>
      </trkpt>
      <trkpt lat="43.74338" lon="6.63953">
        <ele>1427.9</ele>
        <time>2024-05-26T08:54:10Z</time>
      </trkpt>
      <trkpt lat="43.74338" lon="6.63953">
        <ele>1427.9</ele>
        <time>2024-05-26T08:54:11Z</time>
      </trkpt>
      <trkpt lat="43.74338" lon="6.63953">
        <ele>1428</ele>
        <time>2024-05-26T08:54:12Z</time>
      </trkpt>
      <trkpt lat="43.74338" lon="6.63953">
        <ele>1428.1</ele>
        <time>2024-05-26T08:54:13Z</time>
      </trkpt>
      <trkpt lat="43.74338" lon="6.63953">
        <ele>1428.2</ele>
        <time>2024-05-26T08:54:14Z</time>
      </trkpt>
      <trkpt lat="43.74338" lon="6.63953">
        <ele>1428.2</ele>
        <time>2024-05-26T08:54:15Z</time>
      </trkpt>
      <trkpt lat="43.74337" lon="6.63953">
        <ele>1428.3</ele>
        <time>2024-05-26T08:54:16Z</time>
      </trkpt>
      <trkpt lat="43.74337" lon="6.63953">
        <ele>1428.4</ele>
        <time>2024-05-26T08:54:17Z</time>
      </trkpt>
      <trkpt lat="43.74337" lon="6.63953">
        <ele>1428.4</ele>
        <time>2024-05-26T08:54:18Z</time>
      </trkpt>
      <trkpt lat="43.74337" lon="6.63953">
        <ele>1428.4</ele>
        <time>2024-05-26T08:54:19Z</time>
      </trkpt>
      <trkpt lat="43.74337" lon="6.63953">
        <ele>1428.4</ele>
        <time>2024-05-26T08:54:20Z</time>
      </trkpt>
      <trkpt lat="43.74338" lon="6.63953">
        <ele>1428.4</ele>
        <time>2024-05-26T08:54:21Z</time>
      </trkpt>
      <trkpt lat="43.74338" lon="6.63953">
        <ele>1428.4</ele>
        <time>2024-05-26T08:54:22Z</time>
      </trkpt>
      <trkpt lat="43.74338" lon="6.63953">
        <ele>1428.3</ele>
        <time>2024-05-26T08:54:23Z</time>
      </trkpt>
      <trkpt lat="43.74337" lon="6.63953">
        <ele>1428.4</ele>
        <time>2024-05-26T08:54:24Z</time>
      </trkpt>
      <trkpt lat="43.74337" lon="6.63953">
        <ele>1428.4</ele>
        <time>2024-05-26T08:54:25Z</time>
      </trkpt>
      <trkpt lat="43.74337" lon="6.63952">
        <ele>1428.4</ele>
        <time>2024-05-26T08:54:26Z</time>
      </trkpt>
      <trkpt lat="43.74336" lon="6.63951">
        <ele>1428.5</ele>
        <time>2024-05-26T08:54:27Z</time>
      </trkpt>
      <trkpt lat="43.74336" lon="6.63951">
        <ele>1428.5</ele>
        <time>2024-05-26T08:54:28Z</time>
      </trkpt>
      <trkpt lat="43.74335" lon="6.6395">
        <ele>1428.5</ele>
        <time>2024-05-26T08:54:29Z</time>
      </trkpt>
      <trkpt lat="43.74335" lon="6.6395">
        <ele>1428.5</ele>
        <time>2024-05-26T08:54:30Z</time>
      </trkpt>
      <trkpt lat="43.74334" lon="6.6395">
        <ele>1428.6</ele>
        <time>2024-05-26T08:54:31Z</time>
      </trkpt>
      <trkpt lat="43.74334" lon="6.6395">
        <ele>1428.6</ele>
        <time>2024-05-26T08:54:32Z</time>
      </trkpt>
      <trkpt lat="43.74334" lon="6.63949">
        <ele>1428.6</ele>
        <time>2024-05-26T08:54:33Z</time>
      </trkpt>
      <trkpt lat="43.74333" lon="6.63949">
        <ele>1428.6</ele>
        <time>2024-05-26T08:54:34Z</time>
      </trkpt>
      <trkpt lat="43.74333" lon="6.63949">
        <ele>1428.7</ele>
        <time>2024-05-26T08:54:35Z</time>
      </trkpt>
      <trkpt lat="43.74333" lon="6.63949">
        <ele>1428.7</ele>
        <time>2024-05-26T08:54:36Z</time>
      </trkpt>
      <trkpt lat="43.74332" lon="6.63949">
        <ele>1428.7</ele>
        <time>2024-05-26T08:54:37Z</time>
      </trkpt>
      <trkpt lat="43.74332" lon="6.63949">
        <ele>1428.7</ele>
        <time>2024-05-26T08:54:38Z</time>
      </trkpt>
      <trkpt lat="43.74331" lon="6.63948">
        <ele>1428.6</ele>
        <time>2024-05-26T08:54:39Z</time>
      </trkpt>
      <trkpt lat="43.74331" lon="6.63948">
        <ele>1428.4</ele>
        <time>2024-05-26T08:54:40Z</time>
      </trkpt>
      <trkpt lat="43.74331" lon="6.63947">
        <ele>1428.2</ele>
        <time>2024-05-26T08:54:41Z</time>
      </trkpt>
      <trkpt lat="43.74331" lon="6.63947">
        <ele>1428.1</ele>
        <time>2024-05-26T08:54:42Z</time>
      </trkpt>
      <trkpt lat="43.74331" lon="6.63946">
        <ele>1428</ele>
        <time>2024-05-26T08:54:43Z</time>
      </trkpt>
      <trkpt lat="43.74331" lon="6.63946">
        <ele>1427.9</ele>
        <time>2024-05-26T08:54:44Z</time>
      </trkpt>
      <trkpt lat="43.74332" lon="6.63945">
        <ele>1427.8</ele>
        <time>2024-05-26T08:54:45Z</time>
      </trkpt>
      <trkpt lat="43.74332" lon="6.63944">
        <ele>1427.5</ele>
        <time>2024-05-26T08:54:46Z</time>
      </trkpt>
      <trkpt lat="43.74331" lon="6.63944">
        <ele>1427.3</ele>
        <time>2024-05-26T08:54:47Z</time>
      </trkpt>
      <trkpt lat="43.74332" lon="6.63943">
        <ele>1427.3</ele>
        <time>2024-05-26T08:54:48Z</time>
      </trkpt>
      <trkpt lat="43.74332" lon="6.63942">
        <ele>1427.2</ele>
        <time>2024-05-26T08:54:49Z</time>
      </trkpt>
      <trkpt lat="43.74332" lon="6.63941">
        <ele>1427.1</ele>
        <time>2024-05-26T08:54:50Z</time>
      </trkpt>
      <trkpt lat="43.74332" lon="6.63941">
        <ele>1426.9</ele>
        <time>2024-05-26T08:54:51Z</time>
      </trkpt>
      <trkpt lat="43.74333" lon="6.6394">
        <ele>1426.7</ele>
        <time>2024-05-26T08:54:52Z</time>
      </trkpt>
      <trkpt lat="43.74333" lon="6.6394">
        <ele>1426.6</ele>
        <time>2024-05-26T08:54:53Z</time>
      </trkpt>
      <trkpt lat="43.74333" lon="6.6394">
        <ele>1426.5</ele>
        <time>2024-05-26T08:54:54Z</time>
      </trkpt>
      <trkpt lat="43.74333" lon="6.6394">
        <ele>1426.4</ele>
        <time>2024-05-26T08:54:55Z</time>
      </trkpt>
      <trkpt lat="43.74333" lon="6.6394">
        <ele>1426.5</ele>
        <time>2024-05-26T08:54:56Z</time>
      </trkpt>
      <trkpt lat="43.74333" lon="6.6394">
        <ele>1426.5</ele>
        <time>2024-05-26T08:54:57Z</time>
      </trkpt>
      <trkpt lat="43.74333" lon="6.6394">
        <ele>1426.5</ele>
        <time>2024-05-26T08:54:58Z</time>
      </trkpt>
      <trkpt lat="43.74333" lon="6.6394">
        <ele>1426.5</ele>
        <time>2024-05-26T08:54:59Z</time>
      </trkpt>
      <trkpt lat="43.74332" lon="6.63939">
        <ele>1426.5</ele>
        <time>2024-05-26T08:55:00Z</time>
      </trkpt>
      <trkpt lat="43.74332" lon="6.63939">
        <ele>1426.5</ele>
        <time>2024-05-26T08:55:01Z</time>
      </trkpt>
      <trkpt lat="43.74331" lon="6.63939">
        <ele>1426.6</ele>
        <time>2024-05-26T08:55:02Z</time>
      </trkpt>
      <trkpt lat="43.74331" lon="6.63939">
        <ele>1426.6</ele>
        <time>2024-05-26T08:55:03Z</time>
      </trkpt>
      <trkpt lat="43.74331" lon="6.63939">
        <ele>1426.6</ele>
        <time>2024-05-26T08:55:04Z</time>
      </trkpt>
      <trkpt lat="43.74331" lon="6.63939">
        <ele>1426.7</ele>
        <time>2024-05-26T08:55:05Z</time>
      </trkpt>
      <trkpt lat="43.74331" lon="6.63939">
        <ele>1426.7</ele>
        <time>2024-05-26T08:55:06Z</time>
      </trkpt>
      <trkpt lat="43.74331" lon="6.63939">
        <ele>1426.8</ele>
        <time>2024-05-26T08:55:07Z</time>
      </trkpt>
      <trkpt lat="43.74331" lon="6.63939">
        <ele>1426.9</ele>
        <time>2024-05-26T08:55:08Z</time>
      </trkpt>
      <trkpt lat="43.74331" lon="6.6394">
        <ele>1426.9</ele>
        <time>2024-05-26T08:55:09Z</time>
      </trkpt>
      <trkpt lat="43.74331" lon="6.6394">
        <ele>1426.9</ele>
        <time>2024-05-26T08:55:10Z</time>
      </trkpt>
      <trkpt lat="43.74331" lon="6.6394">
        <ele>1426.9</ele>
        <time>2024-05-26T08:55:11Z</time>
      </trkpt>
      <trkpt lat="43.7433" lon="6.6394">
        <ele>1426.8</ele>
        <time>2024-05-26T08:55:12Z</time>
      </trkpt>
      <trkpt lat="43.7433" lon="6.6394">
        <ele>1426.8</ele>
        <time>2024-05-26T08:55:13Z</time>
      </trkpt>
      <trkpt lat="43.7433" lon="6.6394">
        <ele>1426.7</ele>
        <time>2024-05-26T08:55:14Z</time>
      </trkpt>
      <trkpt lat="43.7433" lon="6.6394">
        <ele>1426.7</ele>
        <time>2024-05-26T08:55:15Z</time>
      </trkpt>
      <trkpt lat="43.7433" lon="6.6394">
        <ele>1426.7</ele>
        <time>2024-05-26T08:55:16Z</time>
      </trkpt>
      <trkpt lat="43.7433" lon="6.6394">
        <ele>1426.7</ele>
        <time>2024-05-26T08:55:17Z</time>
      </trkpt>
      <trkpt lat="43.7433" lon="6.6394">
        <ele>1426.7</ele>
        <time>2024-05-26T08:55:18Z</time>
      </trkpt>
      <trkpt lat="43.7433" lon="6.6394">
        <ele>1426.6</ele>
        <time>2024-05-26T08:55:19Z</time>
      </trkpt>
      <trkpt lat="43.7433" lon="6.6394">
        <ele>1426.6</ele>
        <time>2024-05-26T08:55:20Z</time>
      </trkpt>
      <trkpt lat="43.7433" lon="6.6394">
        <ele>1426.6</ele>
        <time>2024-05-26T08:55:21Z</time>
      </trkpt>
      <trkpt lat="43.7433" lon="6.6394">
        <ele>1426.6</ele>
        <time>2024-05-26T08:55:22Z</time>
      </trkpt>
      <trkpt lat="43.7433" lon="6.63941">
        <ele>1426.7</ele>
        <time>2024-05-26T08:55:23Z</time>
      </trkpt>
      <trkpt lat="43.7433" lon="6.63941">
        <ele>1426.7</ele>
        <time>2024-05-26T08:55:24Z</time>
      </trkpt>
      <trkpt lat="43.7433" lon="6.6394">
        <ele>1426.8</ele>
        <time>2024-05-26T08:55:25Z</time>
      </trkpt>
      <trkpt lat="43.7433" lon="6.6394">
        <ele>1426.8</ele>
        <time>2024-05-26T08:55:26Z</time>
      </trkpt>
      <trkpt lat="43.7433" lon="6.6394">
        <ele>1426.8</ele>
        <time>2024-05-26T08:55:27Z</time>
      </trkpt>
      <trkpt lat="43.7433" lon="6.6394">
        <ele>1426.7</ele>
        <time>2024-05-26T08:55:28Z</time>
      </trkpt>
      <trkpt lat="43.7433" lon="6.6394">
        <ele>1426.7</ele>
        <time>2024-05-26T08:55:29Z</time>
      </trkpt>
      <trkpt lat="43.7433" lon="6.6394">
        <ele>1426.7</ele>
        <time>2024-05-26T08:55:30Z</time>
      </trkpt>
      <trkpt lat="43.7433" lon="6.6394">
        <ele>1426.7</ele>
        <time>2024-05-26T08:55:31Z</time>
      </trkpt>
      <trkpt lat="43.7433" lon="6.6394">
        <ele>1426.7</ele>
        <time>2024-05-26T08:55:32Z</time>
      </trkpt>
      <trkpt lat="43.7433" lon="6.63941">
        <ele>1426.7</ele>
        <time>2024-05-26T08:55:33Z</time>
      </trkpt>
      <trkpt lat="43.7433" lon="6.63941">
        <ele>1426.7</ele>
        <time>2024-05-26T08:55:34Z</time>
      </trkpt>
      <trkpt lat="43.7433" lon="6.63941">
        <ele>1426.7</ele>
        <time>2024-05-26T08:55:35Z</time>
      </trkpt>
      <trkpt lat="43.7433" lon="6.63941">
        <ele>1426.7</ele>
        <time>2024-05-26T08:55:36Z</time>
      </trkpt>
      <trkpt lat="43.7433" lon="6.63941">
        <ele>1426.6</ele>
        <time>2024-05-26T08:55:37Z</time>
      </trkpt>
      <trkpt lat="43.7433" lon="6.63941">
        <ele>1426.6</ele>
        <time>2024-05-26T08:55:38Z</time>
      </trkpt>
      <trkpt lat="43.7433" lon="6.63941">
        <ele>1426.6</ele>
        <time>2024-05-26T08:55:39Z</time>
      </trkpt>
      <trkpt lat="43.7433" lon="6.63941">
        <ele>1426.6</ele>
        <time>2024-05-26T08:55:40Z</time>
      </trkpt>
      <trkpt lat="43.7433" lon="6.63941">
        <ele>1426.5</ele>
        <time>2024-05-26T08:55:41Z</time>
      </trkpt>
      <trkpt lat="43.7433" lon="6.63941">
        <ele>1426.5</ele>
        <time>2024-05-26T08:55:42Z</time>
      </trkpt>
      <trkpt lat="43.7433" lon="6.63941">
        <ele>1426.5</ele>
        <time>2024-05-26T08:55:43Z</time>
      </trkpt>
      <trkpt lat="43.7433" lon="6.63941">
        <ele>1426.5</ele>
        <time>2024-05-26T08:55:44Z</time>
      </trkpt>
      <trkpt lat="43.7433" lon="6.63941">
        <ele>1426.4</ele>
        <time>2024-05-26T08:55:45Z</time>
      </trkpt>
      <trkpt lat="43.7433" lon="6.63941">
        <ele>1426.4</ele>
        <time>2024-05-26T08:55:46Z</time>
      </trkpt>
      <trkpt lat="43.7433" lon="6.63941">
        <ele>1426.5</ele>
        <time>2024-05-26T08:55:47Z</time>
      </trkpt>
      <trkpt lat="43.7433" lon="6.63941">
        <ele>1426.6</ele>
        <time>2024-05-26T08:55:48Z</time>
      </trkpt>
      <trkpt lat="43.7433" lon="6.63941">
        <ele>1426.6</ele>
        <time>2024-05-26T08:55:49Z</time>
      </trkpt>
      <trkpt lat="43.7433" lon="6.63941">
        <ele>1426.6</ele>
        <time>2024-05-26T08:55:50Z</time>
      </trkpt>
      <trkpt lat="43.7433" lon="6.63941">
        <ele>1426.6</ele>
        <time>2024-05-26T08:55:51Z</time>
      </trkpt>
      <trkpt lat="43.7433" lon="6.63941">
        <ele>1426.6</ele>
        <time>2024-05-26T08:55:52Z</time>
      </trkpt>
      <trkpt lat="43.7433" lon="6.63941">
        <ele>1426.6</ele>
        <time>2024-05-26T08:55:53Z</time>
      </trkpt>
      <trkpt lat="43.7433" lon="6.63941">
        <ele>1426.6</ele>
        <time>2024-05-26T08:55:54Z</time>
      </trkpt>
      <trkpt lat="43.7433" lon="6.63941">
        <ele>1426.6</ele>
        <time>2024-05-26T08:55:55Z</time>
      </trkpt>
      <trkpt lat="43.7433" lon="6.63941">
        <ele>1426.7</ele>
        <time>2024-05-26T08:55:56Z</time>
      </trkpt>
      <trkpt lat="43.7433" lon="6.63941">
        <ele>1426.7</ele>
        <time>2024-05-26T08:55:57Z</time>
      </trkpt>
      <trkpt lat="43.7433" lon="6.63941">
        <ele>1426.8</ele>
        <time>2024-05-26T08:55:58Z</time>
      </trkpt>
      <trkpt lat="43.7433" lon="6.63941">
        <ele>1426.9</ele>
        <time>2024-05-26T08:55:59Z</time>
      </trkpt>
      <trkpt lat="43.7433" lon="6.63941">
        <ele>1426.9</ele>
        <time>2024-05-26T08:56:00Z</time>
      </trkpt>
      <trkpt lat="43.7433" lon="6.63941">
        <ele>1427</ele>
        <time>2024-05-26T08:56:01Z</time>
      </trkpt>
      <trkpt lat="43.7433" lon="6.63941">
        <ele>1427</ele>
        <time>2024-05-26T08:56:02Z</time>
      </trkpt>
      <trkpt lat="43.7433" lon="6.63941">
        <ele>1427.1</ele>
        <time>2024-05-26T08:56:03Z</time>
      </trkpt>
      <trkpt lat="43.7433" lon="6.63941">
        <ele>1427.1</ele>
        <time>2024-05-26T08:56:04Z</time>
      </trkpt>
      <trkpt lat="43.7433" lon="6.63941">
        <ele>1426.9</ele>
        <time>2024-05-26T08:56:05Z</time>
      </trkpt>
      <trkpt lat="43.7433" lon="6.63941">
        <ele>1426.9</ele>
        <time>2024-05-26T08:56:06Z</time>
      </trkpt>
      <trkpt lat="43.74331" lon="6.63941">
        <ele>1426.9</ele>
        <time>2024-05-26T08:56:07Z</time>
      </trkpt>
      <trkpt lat="43.74331" lon="6.63941">
        <ele>1426.9</ele>
        <time>2024-05-26T08:56:08Z</time>
      </trkpt>
      <trkpt lat="43.74331" lon="6.63941">
        <ele>1426.9</ele>
        <time>2024-05-26T08:56:09Z</time>
      </trkpt>
      <trkpt lat="43.74331" lon="6.63941">
        <ele>1426.9</ele>
        <time>2024-05-26T08:56:10Z</time>
      </trkpt>
      <trkpt lat="43.74331" lon="6.63941">
        <ele>1426.9</ele>
        <time>2024-05-26T08:56:11Z</time>
      </trkpt>
      <trkpt lat="43.74331" lon="6.63941">
        <ele>1426.8</ele>
        <time>2024-05-26T08:56:12Z</time>
      </trkpt>
      <trkpt lat="43.74331" lon="6.63941">
        <ele>1426.8</ele>
        <time>2024-05-26T08:56:13Z</time>
      </trkpt>
      <trkpt lat="43.74331" lon="6.63941">
        <ele>1426.7</ele>
        <time>2024-05-26T08:56:14Z</time>
      </trkpt>
      <trkpt lat="43.74331" lon="6.63941">
        <ele>1426.7</ele>
        <time>2024-05-26T08:56:15Z</time>
      </trkpt>
      <trkpt lat="43.74331" lon="6.63941">
        <ele>1426.7</ele>
        <time>2024-05-26T08:56:16Z</time>
      </trkpt>
      <trkpt lat="43.74331" lon="6.63941">
        <ele>1426.7</ele>
        <time>2024-05-26T08:56:17Z</time>
      </trkpt>
      <trkpt lat="43.74331" lon="6.63941">
        <ele>1426.7</ele>
        <time>2024-05-26T08:56:18Z</time>
      </trkpt>
      <trkpt lat="43.74331" lon="6.63941">
        <ele>1426.8</ele>
        <time>2024-05-26T08:56:19Z</time>
      </trkpt>
      <trkpt lat="43.74331" lon="6.63941">
        <ele>1426.8</ele>
        <time>2024-05-26T08:56:20Z</time>
      </trkpt>
      <trkpt lat="43.74331" lon="6.63941">
        <ele>1426.8</ele>
        <time>2024-05-26T08:56:21Z</time>
      </trkpt>
      <trkpt lat="43.74331" lon="6.6394">
        <ele>1426.8</ele>
        <time>2024-05-26T08:56:22Z</time>
      </trkpt>
      <trkpt lat="43.74331" lon="6.63939">
        <ele>1426.6</ele>
        <time>2024-05-26T08:56:23Z</time>
      </trkpt>
      <trkpt lat="43.7433" lon="6.63938">
        <ele>1426.5</ele>
        <time>2024-05-26T08:56:24Z</time>
      </trkpt>
      <trkpt lat="43.7433" lon="6.63938">
        <ele>1426.4</ele>
        <time>2024-05-26T08:56:25Z</time>
      </trkpt>
      <trkpt lat="43.7433" lon="6.63937">
        <ele>1426.2</ele>
        <time>2024-05-26T08:56:26Z</time>
      </trkpt>
      <trkpt lat="43.74329" lon="6.63936">
        <ele>1426</ele>
        <time>2024-05-26T08:56:27Z</time>
      </trkpt>
      <trkpt lat="43.74328" lon="6.63936">
        <ele>1425.8</ele>
        <time>2024-05-26T08:56:28Z</time>
      </trkpt>
      <trkpt lat="43.74328" lon="6.63935">
        <ele>1425.7</ele>
        <time>2024-05-26T08:56:29Z</time>
      </trkpt>
      <trkpt lat="43.74327" lon="6.63935">
        <ele>1425.6</ele>
        <time>2024-05-26T08:56:30Z</time>
      </trkpt>
      <trkpt lat="43.74327" lon="6.63935">
        <ele>1425.5</ele>
        <time>2024-05-26T08:56:31Z</time>
      </trkpt>
      <trkpt lat="43.74327" lon="6.63935">
        <ele>1425.4</ele>
        <time>2024-05-26T08:56:32Z</time>
      </trkpt>
      <trkpt lat="43.74326" lon="6.63934">
        <ele>1425.4</ele>
        <time>2024-05-26T08:56:33Z</time>
      </trkpt>
      <trkpt lat="43.74326" lon="6.63934">
        <ele>1425.3</ele>
        <time>2024-05-26T08:56:34Z</time>
      </trkpt>
      <trkpt lat="43.74326" lon="6.63934">
        <ele>1425.3</ele>
        <time>2024-05-26T08:56:35Z</time>
      </trkpt>
      <trkpt lat="43.74326" lon="6.63934">
        <ele>1425.2</ele>
        <time>2024-05-26T08:56:36Z</time>
      </trkpt>
      <trkpt lat="43.74326" lon="6.63934">
        <ele>1425.2</ele>
        <time>2024-05-26T08:56:37Z</time>
      </trkpt>
      <trkpt lat="43.74326" lon="6.63934">
        <ele>1425</ele>
        <time>2024-05-26T08:56:38Z</time>
      </trkpt>
      <trkpt lat="43.74326" lon="6.63934">
        <ele>1424.9</ele>
        <time>2024-05-26T08:56:39Z</time>
      </trkpt>
      <trkpt lat="43.74326" lon="6.63934">
        <ele>1424.8</ele>
        <time>2024-05-26T08:56:40Z</time>
      </trkpt>
      <trkpt lat="43.74326" lon="6.63934">
        <ele>1424.8</ele>
        <time>2024-05-26T08:56:41Z</time>
      </trkpt>
      <trkpt lat="43.74326" lon="6.63934">
        <ele>1424.8</ele>
        <time>2024-05-26T08:56:42Z</time>
      </trkpt>
      <trkpt lat="43.74326" lon="6.63934">
        <ele>1424.9</ele>
        <time>2024-05-26T08:56:43Z</time>
      </trkpt>
      <trkpt lat="43.74326" lon="6.63934">
        <ele>1424.9</ele>
        <time>2024-05-26T08:56:44Z</time>
      </trkpt>
      <trkpt lat="43.74326" lon="6.63934">
        <ele>1424.9</ele>
        <time>2024-05-26T08:56:45Z</time>
      </trkpt>
      <trkpt lat="43.74326" lon="6.63934">
        <ele>1424.9</ele>
        <time>2024-05-26T08:56:46Z</time>
      </trkpt>
      <trkpt lat="43.74326" lon="6.63934">
        <ele>1424.9</ele>
        <time>2024-05-26T08:56:47Z</time>
      </trkpt>
      <trkpt lat="43.74326" lon="6.63934">
        <ele>1424.9</ele>
        <time>2024-05-26T08:56:48Z</time>
      </trkpt>
      <trkpt lat="43.74326" lon="6.63934">
        <ele>1424.9</ele>
        <time>2024-05-26T08:56:49Z</time>
      </trkpt>
      <trkpt lat="43.74326" lon="6.63934">
        <ele>1424.9</ele>
        <time>2024-05-26T08:56:50Z</time>
      </trkpt>
      <trkpt lat="43.74326" lon="6.63934">
        <ele>1424.9</ele>
        <time>2024-05-26T08:56:51Z</time>
      </trkpt>
      <trkpt lat="43.74326" lon="6.63934">
        <ele>1424.9</ele>
        <time>2024-05-26T08:56:52Z</time>
      </trkpt>
      <trkpt lat="43.74326" lon="6.63934">
        <ele>1425</ele>
        <time>2024-05-26T08:56:53Z</time>
      </trkpt>
      <trkpt lat="43.74326" lon="6.63934">
        <ele>1425</ele>
        <time>2024-05-26T08:56:54Z</time>
      </trkpt>
      <trkpt lat="43.74326" lon="6.63934">
        <ele>1425</ele>
        <time>2024-05-26T08:56:55Z</time>
      </trkpt>
      <trkpt lat="43.74326" lon="6.63934">
        <ele>1425</ele>
        <time>2024-05-26T08:56:56Z</time>
      </trkpt>
      <trkpt lat="43.74326" lon="6.63934">
        <ele>1425</ele>
        <time>2024-05-26T08:56:57Z</time>
      </trkpt>
      <trkpt lat="43.74326" lon="6.63934">
        <ele>1425</ele>
        <time>2024-05-26T08:56:58Z</time>
      </trkpt>
      <trkpt lat="43.74326" lon="6.63934">
        <ele>1425.1</ele>
        <time>2024-05-26T08:56:59Z</time>
      </trkpt>
      <trkpt lat="43.74326" lon="6.63934">
        <ele>1425.1</ele>
        <time>2024-05-26T08:57:00Z</time>
      </trkpt>
      <trkpt lat="43.74326" lon="6.63934">
        <ele>1425.1</ele>
        <time>2024-05-26T08:57:01Z</time>
      </trkpt>
      <trkpt lat="43.74326" lon="6.63934">
        <ele>1425.1</ele>
        <time>2024-05-26T08:57:02Z</time>
      </trkpt>
      <trkpt lat="43.74326" lon="6.63934">
        <ele>1425.2</ele>
        <time>2024-05-26T08:57:03Z</time>
      </trkpt>
      <trkpt lat="43.74326" lon="6.63934">
        <ele>1425.2</ele>
        <time>2024-05-26T08:57:04Z</time>
      </trkpt>
      <trkpt lat="43.74326" lon="6.63934">
        <ele>1425.2</ele>
        <time>2024-05-26T08:57:05Z</time>
      </trkpt>
      <trkpt lat="43.74326" lon="6.63934">
        <ele>1425.2</ele>
        <time>2024-05-26T08:57:06Z</time>
      </trkpt>
      <trkpt lat="43.74326" lon="6.63934">
        <ele>1425.2</ele>
        <time>2024-05-26T08:57:07Z</time>
      </trkpt>
      <trkpt lat="43.74326" lon="6.63934">
        <ele>1425.1</ele>
        <time>2024-05-26T08:57:08Z</time>
      </trkpt>
      <trkpt lat="43.74326" lon="6.63934">
        <ele>1425.1</ele>
        <time>2024-05-26T08:57:09Z</time>
      </trkpt>
      <trkpt lat="43.74326" lon="6.63934">
        <ele>1425</ele>
        <time>2024-05-26T08:57:10Z</time>
      </trkpt>
      <trkpt lat="43.74326" lon="6.63934">
        <ele>1425</ele>
        <time>2024-05-26T08:57:11Z</time>
      </trkpt>
      <trkpt lat="43.74326" lon="6.63934">
        <ele>1424.9</ele>
        <time>2024-05-26T08:57:12Z</time>
      </trkpt>
      <trkpt lat="43.74326" lon="6.63934">
        <ele>1424.9</ele>
        <time>2024-05-26T08:57:13Z</time>
      </trkpt>
      <trkpt lat="43.74326" lon="6.63934">
        <ele>1424.9</ele>
        <time>2024-05-26T08:57:14Z</time>
      </trkpt>
      <trkpt lat="43.74326" lon="6.63934">
        <ele>1424.9</ele>
        <time>2024-05-26T08:57:15Z</time>
      </trkpt>
      <trkpt lat="43.74326" lon="6.63934">
        <ele>1424.9</ele>
        <time>2024-05-26T08:57:16Z</time>
      </trkpt>
      <trkpt lat="43.74326" lon="6.63934">
        <ele>1424.8</ele>
        <time>2024-05-26T08:57:17Z</time>
      </trkpt>
      <trkpt lat="43.74326" lon="6.63934">
        <ele>1424.9</ele>
        <time>2024-05-26T08:57:18Z</time>
      </trkpt>
      <trkpt lat="43.74326" lon="6.63934">
        <ele>1424.9</ele>
        <time>2024-05-26T08:57:19Z</time>
      </trkpt>
      <trkpt lat="43.74326" lon="6.63934">
        <ele>1425</ele>
        <time>2024-05-26T08:57:20Z</time>
      </trkpt>
      <trkpt lat="43.74326" lon="6.63934">
        <ele>1424.9</ele>
        <time>2024-05-26T08:57:21Z</time>
      </trkpt>
      <trkpt lat="43.74326" lon="6.63934">
        <ele>1424.8</ele>
        <time>2024-05-26T08:57:22Z</time>
      </trkpt>
      <trkpt lat="43.74326" lon="6.63934">
        <ele>1424.7</ele>
        <time>2024-05-26T08:57:23Z</time>
      </trkpt>
      <trkpt lat="43.74326" lon="6.63934">
        <ele>1424.7</ele>
        <time>2024-05-26T08:57:24Z</time>
      </trkpt>
      <trkpt lat="43.74326" lon="6.63934">
        <ele>1424.6</ele>
        <time>2024-05-26T08:57:25Z</time>
      </trkpt>
      <trkpt lat="43.74326" lon="6.63934">
        <ele>1424.5</ele>
        <time>2024-05-26T08:57:26Z</time>
      </trkpt>
      <trkpt lat="43.74326" lon="6.63934">
        <ele>1424.5</ele>
        <time>2024-05-26T08:57:27Z</time>
      </trkpt>
      <trkpt lat="43.74326" lon="6.63934">
        <ele>1424.5</ele>
        <time>2024-05-26T08:57:28Z</time>
      </trkpt>
      <trkpt lat="43.74326" lon="6.63934">
        <ele>1424.4</ele>
        <time>2024-05-26T08:57:29Z</time>
      </trkpt>
      <trkpt lat="43.74326" lon="6.63934">
        <ele>1424.4</ele>
        <time>2024-05-26T08:57:30Z</time>
      </trkpt>
      <trkpt lat="43.74326" lon="6.63934">
        <ele>1424.5</ele>
        <time>2024-05-26T08:57:31Z</time>
      </trkpt>
      <trkpt lat="43.74326" lon="6.63934">
        <ele>1424.6</ele>
        <time>2024-05-26T08:57:32Z</time>
      </trkpt>
      <trkpt lat="43.74326" lon="6.63934">
        <ele>1424.6</ele>
        <time>2024-05-26T08:57:33Z</time>
      </trkpt>
      <trkpt lat="43.74326" lon="6.63934">
        <ele>1424.6</ele>
        <time>2024-05-26T08:57:34Z</time>
      </trkpt>
      <trkpt lat="43.74326" lon="6.63933">
        <ele>1424.6</ele>
        <time>2024-05-26T08:57:35Z</time>
      </trkpt>
      <trkpt lat="43.74326" lon="6.63933">
        <ele>1424.6</ele>
        <time>2024-05-26T08:57:36Z</time>
      </trkpt>
      <trkpt lat="43.74326" lon="6.63933">
        <ele>1424.6</ele>
        <time>2024-05-26T08:57:37Z</time>
      </trkpt>
      <trkpt lat="43.74326" lon="6.63933">
        <ele>1424.6</ele>
        <time>2024-05-26T08:57:38Z</time>
      </trkpt>
      <trkpt lat="43.74326" lon="6.63933">
        <ele>1424.6</ele>
        <time>2024-05-26T08:57:39Z</time>
      </trkpt>
      <trkpt lat="43.74326" lon="6.63933">
        <ele>1424.4</ele>
        <time>2024-05-26T08:57:40Z</time>
      </trkpt>
      <trkpt lat="43.74326" lon="6.63933">
        <ele>1424.5</ele>
        <time>2024-05-26T08:57:41Z</time>
      </trkpt>
      <trkpt lat="43.74326" lon="6.63933">
        <ele>1424.6</ele>
        <time>2024-05-26T08:57:42Z</time>
      </trkpt>
      <trkpt lat="43.74326" lon="6.63933">
        <ele>1424.7</ele>
        <time>2024-05-26T08:57:43Z</time>
      </trkpt>
      <trkpt lat="43.74326" lon="6.63933">
        <ele>1424.6</ele>
        <time>2024-05-26T08:57:44Z</time>
      </trkpt>
      <trkpt lat="43.74326" lon="6.63933">
        <ele>1424.7</ele>
        <time>2024-05-26T08:57:45Z</time>
      </trkpt>
      <trkpt lat="43.74326" lon="6.63933">
        <ele>1424.7</ele>
        <time>2024-05-26T08:57:46Z</time>
      </trkpt>
      <trkpt lat="43.74326" lon="6.63933">
        <ele>1424.7</ele>
        <time>2024-05-26T08:57:47Z</time>
      </trkpt>
      <trkpt lat="43.74326" lon="6.63933">
        <ele>1424.7</ele>
        <time>2024-05-26T08:57:48Z</time>
      </trkpt>
      <trkpt lat="43.74326" lon="6.63933">
        <ele>1424.8</ele>
        <time>2024-05-26T08:57:49Z</time>
      </trkpt>
      <trkpt lat="43.74326" lon="6.63933">
        <ele>1424.9</ele>
        <time>2024-05-26T08:57:50Z</time>
      </trkpt>
      <trkpt lat="43.74326" lon="6.63933">
        <ele>1424.9</ele>
        <time>2024-05-26T08:57:51Z</time>
      </trkpt>
      <trkpt lat="43.74326" lon="6.63932">
        <ele>1424.9</ele>
        <time>2024-05-26T08:57:52Z</time>
      </trkpt>
      <trkpt lat="43.74326" lon="6.63932">
        <ele>1424.9</ele>
        <time>2024-05-26T08:57:53Z</time>
      </trkpt>
      <trkpt lat="43.74326" lon="6.63932">
        <ele>1424.8</ele>
        <time>2024-05-26T08:57:54Z</time>
      </trkpt>
      <trkpt lat="43.74326" lon="6.63932">
        <ele>1424.8</ele>
        <time>2024-05-26T08:57:55Z</time>
      </trkpt>
      <trkpt lat="43.74326" lon="6.63932">
        <ele>1424.7</ele>
        <time>2024-05-26T08:57:56Z</time>
      </trkpt>
      <trkpt lat="43.74326" lon="6.63932">
        <ele>1424.7</ele>
        <time>2024-05-26T08:57:57Z</time>
      </trkpt>
      <trkpt lat="43.74326" lon="6.63932">
        <ele>1424.7</ele>
        <time>2024-05-26T08:57:58Z</time>
      </trkpt>
      <trkpt lat="43.74326" lon="6.63932">
        <ele>1424.7</ele>
        <time>2024-05-26T08:57:59Z</time>
      </trkpt>
      <trkpt lat="43.74326" lon="6.63932">
        <ele>1424.6</ele>
        <time>2024-05-26T08:58:00Z</time>
      </trkpt>
      <trkpt lat="43.74326" lon="6.63932">
        <ele>1424.6</ele>
        <time>2024-05-26T08:58:01Z</time>
      </trkpt>
      <trkpt lat="43.74326" lon="6.63932">
        <ele>1424.6</ele>
        <time>2024-05-26T08:58:02Z</time>
      </trkpt>
      <trkpt lat="43.74326" lon="6.63932">
        <ele>1424.7</ele>
        <time>2024-05-26T08:58:03Z</time>
      </trkpt>
      <trkpt lat="43.74326" lon="6.63932">
        <ele>1424.7</ele>
        <time>2024-05-26T08:58:04Z</time>
      </trkpt>
      <trkpt lat="43.74326" lon="6.63932">
        <ele>1424.6</ele>
        <time>2024-05-26T08:58:05Z</time>
      </trkpt>
      <trkpt lat="43.74326" lon="6.63932">
        <ele>1424.6</ele>
        <time>2024-05-26T08:58:06Z</time>
      </trkpt>
      <trkpt lat="43.74326" lon="6.63932">
        <ele>1424.6</ele>
        <time>2024-05-26T08:58:07Z</time>
      </trkpt>
      <trkpt lat="43.74326" lon="6.63932">
        <ele>1424.6</ele>
        <time>2024-05-26T08:58:08Z</time>
      </trkpt>
      <trkpt lat="43.74326" lon="6.63932">
        <ele>1424.6</ele>
        <time>2024-05-26T08:58:09Z</time>
      </trkpt>
      <trkpt lat="43.74326" lon="6.63931">
        <ele>1424.5</ele>
        <time>2024-05-26T08:58:10Z</time>
      </trkpt>
      <trkpt lat="43.74326" lon="6.63931">
        <ele>1424.5</ele>
        <time>2024-05-26T08:58:11Z</time>
      </trkpt>
      <trkpt lat="43.74326" lon="6.63931">
        <ele>1424.5</ele>
        <time>2024-05-26T08:58:12Z</time>
      </trkpt>
      <trkpt lat="43.74326" lon="6.63931">
        <ele>1424.5</ele>
        <time>2024-05-26T08:58:13Z</time>
      </trkpt>
      <trkpt lat="43.74326" lon="6.63931">
        <ele>1424.5</ele>
        <time>2024-05-26T08:58:14Z</time>
      </trkpt>
      <trkpt lat="43.74326" lon="6.63931">
        <ele>1424.6</ele>
        <time>2024-05-26T08:58:15Z</time>
      </trkpt>
      <trkpt lat="43.74326" lon="6.63931">
        <ele>1424.6</ele>
        <time>2024-05-26T08:58:16Z</time>
      </trkpt>
      <trkpt lat="43.74326" lon="6.63931">
        <ele>1424.6</ele>
        <time>2024-05-26T08:58:17Z</time>
      </trkpt>
      <trkpt lat="43.74326" lon="6.63931">
        <ele>1424.6</ele>
        <time>2024-05-26T08:58:18Z</time>
      </trkpt>
      <trkpt lat="43.74327" lon="6.63931">
        <ele>1424.7</ele>
        <time>2024-05-26T08:58:19Z</time>
      </trkpt>
      <trkpt lat="43.74327" lon="6.63931">
        <ele>1424.7</ele>
        <time>2024-05-26T08:58:20Z</time>
      </trkpt>
      <trkpt lat="43.74327" lon="6.63931">
        <ele>1424.8</ele>
        <time>2024-05-26T08:58:21Z</time>
      </trkpt>
      <trkpt lat="43.74327" lon="6.63931">
        <ele>1424.8</ele>
        <time>2024-05-26T08:58:22Z</time>
      </trkpt>
      <trkpt lat="43.74327" lon="6.63931">
        <ele>1424.8</ele>
        <time>2024-05-26T08:58:23Z</time>
      </trkpt>
      <trkpt lat="43.74327" lon="6.63931">
        <ele>1424.8</ele>
        <time>2024-05-26T08:58:24Z</time>
      </trkpt>
      <trkpt lat="43.74327" lon="6.63931">
        <ele>1424.6</ele>
        <time>2024-05-26T08:58:25Z</time>
      </trkpt>
      <trkpt lat="43.74327" lon="6.63931">
        <ele>1424.6</ele>
        <time>2024-05-26T08:58:26Z</time>
      </trkpt>
      <trkpt lat="43.74327" lon="6.63931">
        <ele>1424.6</ele>
        <time>2024-05-26T08:58:27Z</time>
      </trkpt>
      <trkpt lat="43.74327" lon="6.63931">
        <ele>1424.5</ele>
        <time>2024-05-26T08:58:28Z</time>
      </trkpt>
      <trkpt lat="43.74327" lon="6.63932">
        <ele>1424.4</ele>
        <time>2024-05-26T08:58:29Z</time>
      </trkpt>
      <trkpt lat="43.74327" lon="6.63932">
        <ele>1424.3</ele>
        <time>2024-05-26T08:58:30Z</time>
      </trkpt>
      <trkpt lat="43.74327" lon="6.63932">
        <ele>1424.3</ele>
        <time>2024-05-26T08:58:31Z</time>
      </trkpt>
      <trkpt lat="43.74327" lon="6.63932">
        <ele>1424.3</ele>
        <time>2024-05-26T08:58:32Z</time>
      </trkpt>
      <trkpt lat="43.74327" lon="6.63932">
        <ele>1424.3</ele>
        <time>2024-05-26T08:58:33Z</time>
      </trkpt>
      <trkpt lat="43.74327" lon="6.63932">
        <ele>1424.4</ele>
        <time>2024-05-26T08:58:34Z</time>
      </trkpt>
      <trkpt lat="43.74327" lon="6.63932">
        <ele>1424.5</ele>
        <time>2024-05-26T08:58:35Z</time>
      </trkpt>
      <trkpt lat="43.74327" lon="6.63932">
        <ele>1424.5</ele>
        <time>2024-05-26T08:58:36Z</time>
      </trkpt>
      <trkpt lat="43.74327" lon="6.63931">
        <ele>1424.5</ele>
        <time>2024-05-26T08:58:37Z</time>
      </trkpt>
      <trkpt lat="43.74327" lon="6.63931">
        <ele>1424.5</ele>
        <time>2024-05-26T08:58:38Z</time>
      </trkpt>
      <trkpt lat="43.74327" lon="6.63931">
        <ele>1424.5</ele>
        <time>2024-05-26T08:58:39Z</time>
      </trkpt>
      <trkpt lat="43.74327" lon="6.63931">
        <ele>1424.5</ele>
        <time>2024-05-26T08:58:40Z</time>
      </trkpt>
      <trkpt lat="43.74327" lon="6.63931">
        <ele>1424.5</ele>
        <time>2024-05-26T08:58:41Z</time>
      </trkpt>
      <trkpt lat="43.74328" lon="6.63931">
        <ele>1424.5</ele>
        <time>2024-05-26T08:58:42Z</time>
      </trkpt>
      <trkpt lat="43.74328" lon="6.63931">
        <ele>1424.5</ele>
        <time>2024-05-26T08:58:43Z</time>
      </trkpt>
      <trkpt lat="43.74328" lon="6.63931">
        <ele>1424.5</ele>
        <time>2024-05-26T08:58:44Z</time>
      </trkpt>
      <trkpt lat="43.74328" lon="6.63931">
        <ele>1424.5</ele>
        <time>2024-05-26T08:58:45Z</time>
      </trkpt>
      <trkpt lat="43.74328" lon="6.6393">
        <ele>1424.4</ele>
        <time>2024-05-26T08:58:46Z</time>
      </trkpt>
      <trkpt lat="43.74327" lon="6.6393">
        <ele>1424.4</ele>
        <time>2024-05-26T08:58:47Z</time>
      </trkpt>
      <trkpt lat="43.74327" lon="6.63929">
        <ele>1424.3</ele>
        <time>2024-05-26T08:58:48Z</time>
      </trkpt>
      <trkpt lat="43.74327" lon="6.63929">
        <ele>1424.3</ele>
        <time>2024-05-26T08:58:49Z</time>
      </trkpt>
      <trkpt lat="43.74326" lon="6.63929">
        <ele>1424.3</ele>
        <time>2024-05-26T08:58:50Z</time>
      </trkpt>
      <trkpt lat="43.74326" lon="6.63928">
        <ele>1424.2</ele>
        <time>2024-05-26T08:58:51Z</time>
      </trkpt>
      <trkpt lat="43.74326" lon="6.63928">
        <ele>1424</ele>
        <time>2024-05-26T08:58:52Z</time>
      </trkpt>
      <trkpt lat="43.74326" lon="6.63927">
        <ele>1423.9</ele>
        <time>2024-05-26T08:58:53Z</time>
      </trkpt>
      <trkpt lat="43.74325" lon="6.63926">
        <ele>1423.8</ele>
        <time>2024-05-26T08:58:54Z</time>
      </trkpt>
      <trkpt lat="43.74325" lon="6.63926">
        <ele>1423.7</ele>
        <time>2024-05-26T08:58:55Z</time>
      </trkpt>
      <trkpt lat="43.74325" lon="6.63926">
        <ele>1423.5</ele>
        <time>2024-05-26T08:58:56Z</time>
      </trkpt>
      <trkpt lat="43.74325" lon="6.63926">
        <ele>1423.5</ele>
        <time>2024-05-26T08:58:57Z</time>
      </trkpt>
      <trkpt lat="43.74325" lon="6.63926">
        <ele>1423.4</ele>
        <time>2024-05-26T08:58:58Z</time>
      </trkpt>
      <trkpt lat="43.74325" lon="6.63926">
        <ele>1423.4</ele>
        <time>2024-05-26T08:58:59Z</time>
      </trkpt>
      <trkpt lat="43.74325" lon="6.63927">
        <ele>1423.4</ele>
        <time>2024-05-26T08:59:00Z</time>
      </trkpt>
      <trkpt lat="43.74325" lon="6.63927">
        <ele>1423.4</ele>
        <time>2024-05-26T08:59:01Z</time>
      </trkpt>
      <trkpt lat="43.74325" lon="6.63927">
        <ele>1423.3</ele>
        <time>2024-05-26T08:59:02Z</time>
      </trkpt>
      <trkpt lat="43.74325" lon="6.63927">
        <ele>1423.3</ele>
        <time>2024-05-26T08:59:03Z</time>
      </trkpt>
      <trkpt lat="43.74325" lon="6.63927">
        <ele>1423.3</ele>
        <time>2024-05-26T08:59:04Z</time>
      </trkpt>
      <trkpt lat="43.74325" lon="6.63927">
        <ele>1423.3</ele>
        <time>2024-05-26T08:59:05Z</time>
      </trkpt>
      <trkpt lat="43.74325" lon="6.63927">
        <ele>1423.3</ele>
        <time>2024-05-26T08:59:06Z</time>
      </trkpt>
      <trkpt lat="43.74325" lon="6.63927">
        <ele>1423.2</ele>
        <time>2024-05-26T08:59:07Z</time>
      </trkpt>
      <trkpt lat="43.74325" lon="6.63928">
        <ele>1423.2</ele>
        <time>2024-05-26T08:59:08Z</time>
      </trkpt>
      <trkpt lat="43.74325" lon="6.63928">
        <ele>1423.2</ele>
        <time>2024-05-26T08:59:09Z</time>
      </trkpt>
      <trkpt lat="43.74325" lon="6.63928">
        <ele>1423.3</ele>
        <time>2024-05-26T08:59:10Z</time>
      </trkpt>
      <trkpt lat="43.74325" lon="6.63928">
        <ele>1423.3</ele>
        <time>2024-05-26T08:59:11Z</time>
      </trkpt>
      <trkpt lat="43.74325" lon="6.63928">
        <ele>1423.3</ele>
        <time>2024-05-26T08:59:12Z</time>
      </trkpt>
      <trkpt lat="43.74325" lon="6.63928">
        <ele>1423.3</ele>
        <time>2024-05-26T08:59:13Z</time>
      </trkpt>
      <trkpt lat="43.74325" lon="6.63927">
        <ele>1423.3</ele>
        <time>2024-05-26T08:59:14Z</time>
      </trkpt>
      <trkpt lat="43.74325" lon="6.63925">
        <ele>1423.1</ele>
        <time>2024-05-26T08:59:15Z</time>
      </trkpt>
      <trkpt lat="43.74325" lon="6.63924">
        <ele>1423</ele>
        <time>2024-05-26T08:59:16Z</time>
      </trkpt>
      <trkpt lat="43.74325" lon="6.63923">
        <ele>1422.9</ele>
        <time>2024-05-26T08:59:17Z</time>
      </trkpt>
      <trkpt lat="43.74325" lon="6.63922">
        <ele>1422.9</ele>
        <time>2024-05-26T08:59:18Z</time>
      </trkpt>
      <trkpt lat="43.74325" lon="6.63921">
        <ele>1422.7</ele>
        <time>2024-05-26T08:59:19Z</time>
      </trkpt>
      <trkpt lat="43.74325" lon="6.63921">
        <ele>1422.6</ele>
        <time>2024-05-26T08:59:20Z</time>
      </trkpt>
      <trkpt lat="43.74325" lon="6.63921">
        <ele>1422.5</ele>
        <time>2024-05-26T08:59:21Z</time>
      </trkpt>
      <trkpt lat="43.74325" lon="6.63921">
        <ele>1422.4</ele>
        <time>2024-05-26T08:59:22Z</time>
      </trkpt>
      <trkpt lat="43.74325" lon="6.63921">
        <ele>1422.4</ele>
        <time>2024-05-26T08:59:23Z</time>
      </trkpt>
      <trkpt lat="43.74325" lon="6.63921">
        <ele>1422.3</ele>
        <time>2024-05-26T08:59:24Z</time>
      </trkpt>
      <trkpt lat="43.74325" lon="6.63921">
        <ele>1422.3</ele>
        <time>2024-05-26T08:59:25Z</time>
      </trkpt>
      <trkpt lat="43.74325" lon="6.63921">
        <ele>1422.3</ele>
        <time>2024-05-26T08:59:26Z</time>
      </trkpt>
      <trkpt lat="43.74325" lon="6.63921">
        <ele>1422.2</ele>
        <time>2024-05-26T08:59:27Z</time>
      </trkpt>
      <trkpt lat="43.74325" lon="6.63921">
        <ele>1422.2</ele>
        <time>2024-05-26T08:59:28Z</time>
      </trkpt>
      <trkpt lat="43.74325" lon="6.63921">
        <ele>1422.2</ele>
        <time>2024-05-26T08:59:29Z</time>
      </trkpt>
      <trkpt lat="43.74325" lon="6.63921">
        <ele>1422.2</ele>
        <time>2024-05-26T08:59:30Z</time>
      </trkpt>
      <trkpt lat="43.74325" lon="6.63921">
        <ele>1422.2</ele>
        <time>2024-05-26T08:59:31Z</time>
      </trkpt>
      <trkpt lat="43.74325" lon="6.63921">
        <ele>1422.2</ele>
        <time>2024-05-26T08:59:32Z</time>
      </trkpt>
      <trkpt lat="43.74325" lon="6.63921">
        <ele>1422.2</ele>
        <time>2024-05-26T08:59:33Z</time>
      </trkpt>
      <trkpt lat="43.74324" lon="6.63921">
        <ele>1422.2</ele>
        <time>2024-05-26T08:59:34Z</time>
      </trkpt>
      <trkpt lat="43.74324" lon="6.63922">
        <ele>1422.2</ele>
        <time>2024-05-26T08:59:35Z</time>
      </trkpt>
      <trkpt lat="43.74324" lon="6.63922">
        <ele>1422.2</ele>
        <time>2024-05-26T08:59:36Z</time>
      </trkpt>
      <trkpt lat="43.74324" lon="6.63921">
        <ele>1422.3</ele>
        <time>2024-05-26T08:59:37Z</time>
      </trkpt>
      <trkpt lat="43.74324" lon="6.63921">
        <ele>1422.3</ele>
        <time>2024-05-26T08:59:38Z</time>
      </trkpt>
      <trkpt lat="43.74324" lon="6.63921">
        <ele>1422.4</ele>
        <time>2024-05-26T08:59:39Z</time>
      </trkpt>
      <trkpt lat="43.74324" lon="6.63921">
        <ele>1422.3</ele>
        <time>2024-05-26T08:59:40Z</time>
      </trkpt>
      <trkpt lat="43.74323" lon="6.63921">
        <ele>1422.3</ele>
        <time>2024-05-26T08:59:41Z</time>
      </trkpt>
      <trkpt lat="43.74324" lon="6.63921">
        <ele>1422.3</ele>
        <time>2024-05-26T08:59:42Z</time>
      </trkpt>
      <trkpt lat="43.74323" lon="6.63921">
        <ele>1422.3</ele>
        <time>2024-05-26T08:59:43Z</time>
      </trkpt>
      <trkpt lat="43.74323" lon="6.63921">
        <ele>1422.4</ele>
        <time>2024-05-26T08:59:44Z</time>
      </trkpt>
      <trkpt lat="43.74323" lon="6.63921">
        <ele>1422.5</ele>
        <time>2024-05-26T08:59:45Z</time>
      </trkpt>
      <trkpt lat="43.74323" lon="6.63921">
        <ele>1422.5</ele>
        <time>2024-05-26T08:59:46Z</time>
      </trkpt>
      <trkpt lat="43.74323" lon="6.63921">
        <ele>1422.5</ele>
        <time>2024-05-26T08:59:47Z</time>
      </trkpt>
      <trkpt lat="43.74324" lon="6.63921">
        <ele>1422.5</ele>
        <time>2024-05-26T08:59:48Z</time>
      </trkpt>
      <trkpt lat="43.74324" lon="6.63921">
        <ele>1422.5</ele>
        <time>2024-05-26T08:59:49Z</time>
      </trkpt>
      <trkpt lat="43.74324" lon="6.63921">
        <ele>1422.5</ele>
        <time>2024-05-26T08:59:50Z</time>
      </trkpt>
      <trkpt lat="43.74324" lon="6.63921">
        <ele>1422.5</ele>
        <time>2024-05-26T08:59:51Z</time>
      </trkpt>
      <trkpt lat="43.74324" lon="6.63921">
        <ele>1422.5</ele>
        <time>2024-05-26T08:59:52Z</time>
      </trkpt>
      <trkpt lat="43.74324" lon="6.63921">
        <ele>1422.5</ele>
        <time>2024-05-26T08:59:53Z</time>
      </trkpt>
      <trkpt lat="43.74323" lon="6.63921">
        <ele>1422.5</ele>
        <time>2024-05-26T08:59:54Z</time>
      </trkpt>
      <trkpt lat="43.74323" lon="6.63921">
        <ele>1422.5</ele>
        <time>2024-05-26T08:59:55Z</time>
      </trkpt>
      <trkpt lat="43.74323" lon="6.63921">
        <ele>1422.5</ele>
        <time>2024-05-26T08:59:56Z</time>
      </trkpt>
      <trkpt lat="43.74323" lon="6.63921">
        <ele>1422.5</ele>
        <time>2024-05-26T08:59:57Z</time>
      </trkpt>
      <trkpt lat="43.74323" lon="6.63921">
        <ele>1422.5</ele>
        <time>2024-05-26T08:59:58Z</time>
      </trkpt>
      <trkpt lat="43.74323" lon="6.63921">
        <ele>1422.5</ele>
        <time>2024-05-26T08:59:59Z</time>
      </trkpt>
      <trkpt lat="43.74323" lon="6.63921">
        <ele>1422.5</ele>
        <time>2024-05-26T09:00:00Z</time>
      </trkpt>
      <trkpt lat="43.74323" lon="6.63921">
        <ele>1422.5</ele>
        <time>2024-05-26T09:00:01Z</time>
      </trkpt>
      <trkpt lat="43.74323" lon="6.63921">
        <ele>1422.5</ele>
        <time>2024-05-26T09:00:02Z</time>
      </trkpt>
      <trkpt lat="43.74323" lon="6.63921">
        <ele>1422.5</ele>
        <time>2024-05-26T09:00:03Z</time>
      </trkpt>
      <trkpt lat="43.74323" lon="6.6392">
        <ele>1422.5</ele>
        <time>2024-05-26T09:00:04Z</time>
      </trkpt>
      <trkpt lat="43.74323" lon="6.63921">
        <ele>1422.4</ele>
        <time>2024-05-26T09:00:05Z</time>
      </trkpt>
      <trkpt lat="43.74323" lon="6.63921">
        <ele>1422.4</ele>
        <time>2024-05-26T09:00:06Z</time>
      </trkpt>
      <trkpt lat="43.74323" lon="6.63921">
        <ele>1422.3</ele>
        <time>2024-05-26T09:00:07Z</time>
      </trkpt>
      <trkpt lat="43.74323" lon="6.63921">
        <ele>1422.3</ele>
        <time>2024-05-26T09:00:08Z</time>
      </trkpt>
      <trkpt lat="43.74323" lon="6.63921">
        <ele>1422.3</ele>
        <time>2024-05-26T09:00:09Z</time>
      </trkpt>
      <trkpt lat="43.74323" lon="6.63921">
        <ele>1422.3</ele>
        <time>2024-05-26T09:00:10Z</time>
      </trkpt>
      <trkpt lat="43.74323" lon="6.63921">
        <ele>1422.3</ele>
        <time>2024-05-26T09:00:11Z</time>
      </trkpt>
      <trkpt lat="43.74323" lon="6.63921">
        <ele>1422.2</ele>
        <time>2024-05-26T09:00:12Z</time>
      </trkpt>
      <trkpt lat="43.74323" lon="6.63921">
        <ele>1422.1</ele>
        <time>2024-05-26T09:00:13Z</time>
      </trkpt>
      <trkpt lat="43.74324" lon="6.63921">
        <ele>1422.1</ele>
        <time>2024-05-26T09:00:14Z</time>
      </trkpt>
      <trkpt lat="43.74324" lon="6.63921">
        <ele>1422.2</ele>
        <time>2024-05-26T09:00:15Z</time>
      </trkpt>
      <trkpt lat="43.74324" lon="6.63921">
        <ele>1422.2</ele>
        <time>2024-05-26T09:00:16Z</time>
      </trkpt>
      <trkpt lat="43.74324" lon="6.63921">
        <ele>1422.2</ele>
        <time>2024-05-26T09:00:17Z</time>
      </trkpt>
      <trkpt lat="43.74324" lon="6.63921">
        <ele>1422.2</ele>
        <time>2024-05-26T09:00:18Z</time>
      </trkpt>
      <trkpt lat="43.74324" lon="6.63921">
        <ele>1422.1</ele>
        <time>2024-05-26T09:00:19Z</time>
      </trkpt>
      <trkpt lat="43.74324" lon="6.63921">
        <ele>1422.1</ele>
        <time>2024-05-26T09:00:20Z</time>
      </trkpt>
      <trkpt lat="43.74324" lon="6.63921">
        <ele>1422.1</ele>
        <time>2024-05-26T09:00:21Z</time>
      </trkpt>
      <trkpt lat="43.74324" lon="6.63921">
        <ele>1422</ele>
        <time>2024-05-26T09:00:22Z</time>
      </trkpt>
      <trkpt lat="43.74324" lon="6.63921">
        <ele>1422</ele>
        <time>2024-05-26T09:00:23Z</time>
      </trkpt>
      <trkpt lat="43.74324" lon="6.63921">
        <ele>1422</ele>
        <time>2024-05-26T09:00:24Z</time>
      </trkpt>
      <trkpt lat="43.74325" lon="6.63921">
        <ele>1422</ele>
        <time>2024-05-26T09:00:25Z</time>
      </trkpt>
      <trkpt lat="43.74325" lon="6.63921">
        <ele>1422</ele>
        <time>2024-05-26T09:00:26Z</time>
      </trkpt>
      <trkpt lat="43.74324" lon="6.63921">
        <ele>1422</ele>
        <time>2024-05-26T09:00:27Z</time>
      </trkpt>
      <trkpt lat="43.74324" lon="6.6392">
        <ele>1422</ele>
        <time>2024-05-26T09:00:28Z</time>
      </trkpt>
      <trkpt lat="43.74324" lon="6.6392">
        <ele>1422</ele>
        <time>2024-05-26T09:00:29Z</time>
      </trkpt>
      <trkpt lat="43.74324" lon="6.63921">
        <ele>1422</ele>
        <time>2024-05-26T09:00:30Z</time>
      </trkpt>
      <trkpt lat="43.74324" lon="6.63921">
        <ele>1422</ele>
        <time>2024-05-26T09:00:31Z</time>
      </trkpt>
      <trkpt lat="43.74324" lon="6.63921">
        <ele>1422</ele>
        <time>2024-05-26T09:00:32Z</time>
      </trkpt>
      <trkpt lat="43.74324" lon="6.63921">
        <ele>1422.1</ele>
        <time>2024-05-26T09:00:33Z</time>
      </trkpt>
      <trkpt lat="43.74324" lon="6.63921">
        <ele>1422</ele>
        <time>2024-05-26T09:00:34Z</time>
      </trkpt>
      <trkpt lat="43.74324" lon="6.63921">
        <ele>1422</ele>
        <time>2024-05-26T09:00:35Z</time>
      </trkpt>
      <trkpt lat="43.74324" lon="6.63921">
        <ele>1422</ele>
        <time>2024-05-26T09:00:36Z</time>
      </trkpt>
      <trkpt lat="43.74324" lon="6.6392">
        <ele>1422</ele>
        <time>2024-05-26T09:00:37Z</time>
      </trkpt>
      <trkpt lat="43.74324" lon="6.6392">
        <ele>1422</ele>
        <time>2024-05-26T09:00:38Z</time>
      </trkpt>
      <trkpt lat="43.74324" lon="6.6392">
        <ele>1422</ele>
        <time>2024-05-26T09:00:39Z</time>
      </trkpt>
      <trkpt lat="43.74324" lon="6.6392">
        <ele>1422</ele>
        <time>2024-05-26T09:00:40Z</time>
      </trkpt>
      <trkpt lat="43.74324" lon="6.6392">
        <ele>1422.1</ele>
        <time>2024-05-26T09:00:41Z</time>
      </trkpt>
      <trkpt lat="43.74324" lon="6.6392">
        <ele>1422.1</ele>
        <time>2024-05-26T09:00:42Z</time>
      </trkpt>
      <trkpt lat="43.74324" lon="6.6392">
        <ele>1422.1</ele>
        <time>2024-05-26T09:00:43Z</time>
      </trkpt>
      <trkpt lat="43.74324" lon="6.6392">
        <ele>1422.2</ele>
        <time>2024-05-26T09:00:44Z</time>
      </trkpt>
      <trkpt lat="43.74324" lon="6.6392">
        <ele>1422.2</ele>
        <time>2024-05-26T09:00:45Z</time>
      </trkpt>
      <trkpt lat="43.74324" lon="6.6392">
        <ele>1422.3</ele>
        <time>2024-05-26T09:00:46Z</time>
      </trkpt>
      <trkpt lat="43.74324" lon="6.6392">
        <ele>1422.3</ele>
        <time>2024-05-26T09:00:47Z</time>
      </trkpt>
      <trkpt lat="43.74324" lon="6.6392">
        <ele>1422.4</ele>
        <time>2024-05-26T09:00:48Z</time>
      </trkpt>
      <trkpt lat="43.74324" lon="6.63921">
        <ele>1422.4</ele>
        <time>2024-05-26T09:00:49Z</time>
      </trkpt>
      <trkpt lat="43.74324" lon="6.63921">
        <ele>1422.4</ele>
        <time>2024-05-26T09:00:50Z</time>
      </trkpt>
      <trkpt lat="43.74324" lon="6.63922">
        <ele>1422.3</ele>
        <time>2024-05-26T09:00:51Z</time>
      </trkpt>
      <trkpt lat="43.74324" lon="6.63922">
        <ele>1422.4</ele>
        <time>2024-05-26T09:00:52Z</time>
      </trkpt>
      <trkpt lat="43.74323" lon="6.63922">
        <ele>1422.4</ele>
        <time>2024-05-26T09:00:53Z</time>
      </trkpt>
      <trkpt lat="43.74323" lon="6.63923">
        <ele>1422.5</ele>
        <time>2024-05-26T09:00:54Z</time>
      </trkpt>
      <trkpt lat="43.74323" lon="6.63923">
        <ele>1422.4</ele>
        <time>2024-05-26T09:00:55Z</time>
      </trkpt>
      <trkpt lat="43.74323" lon="6.63923">
        <ele>1422.4</ele>
        <time>2024-05-26T09:00:56Z</time>
      </trkpt>
      <trkpt lat="43.74323" lon="6.63923">
        <ele>1422.4</ele>
        <time>2024-05-26T09:00:57Z</time>
      </trkpt>
      <trkpt lat="43.74323" lon="6.63923">
        <ele>1422.4</ele>
        <time>2024-05-26T09:00:58Z</time>
      </trkpt>
      <trkpt lat="43.74323" lon="6.63923">
        <ele>1422.5</ele>
        <time>2024-05-26T09:00:59Z</time>
      </trkpt>
      <trkpt lat="43.74323" lon="6.63923">
        <ele>1422.5</ele>
        <time>2024-05-26T09:01:00Z</time>
      </trkpt>
      <trkpt lat="43.74323" lon="6.63923">
        <ele>1422.6</ele>
        <time>2024-05-26T09:01:01Z</time>
      </trkpt>
      <trkpt lat="43.74323" lon="6.63923">
        <ele>1422.6</ele>
        <time>2024-05-26T09:01:02Z</time>
      </trkpt>
      <trkpt lat="43.74323" lon="6.63923">
        <ele>1422.5</ele>
        <time>2024-05-26T09:01:03Z</time>
      </trkpt>
      <trkpt lat="43.74323" lon="6.63923">
        <ele>1422.4</ele>
        <time>2024-05-26T09:01:04Z</time>
      </trkpt>
      <trkpt lat="43.74323" lon="6.63923">
        <ele>1422.4</ele>
        <time>2024-05-26T09:01:05Z</time>
      </trkpt>
      <trkpt lat="43.74323" lon="6.63923">
        <ele>1422.3</ele>
        <time>2024-05-26T09:01:06Z</time>
      </trkpt>
      <trkpt lat="43.74323" lon="6.63923">
        <ele>1422.4</ele>
        <time>2024-05-26T09:01:07Z</time>
      </trkpt>
      <trkpt lat="43.74323" lon="6.63923">
        <ele>1422.4</ele>
        <time>2024-05-26T09:01:08Z</time>
      </trkpt>
      <trkpt lat="43.74323" lon="6.63923">
        <ele>1422.5</ele>
        <time>2024-05-26T09:01:09Z</time>
      </trkpt>
      <trkpt lat="43.74323" lon="6.63923">
        <ele>1422.6</ele>
        <time>2024-05-26T09:01:10Z</time>
      </trkpt>
      <trkpt lat="43.74322" lon="6.63923">
        <ele>1422.5</ele>
        <time>2024-05-26T09:01:11Z</time>
      </trkpt>
      <trkpt lat="43.74322" lon="6.63924">
        <ele>1422.5</ele>
        <time>2024-05-26T09:01:12Z</time>
      </trkpt>
      <trkpt lat="43.74322" lon="6.63924">
        <ele>1422.4</ele>
        <time>2024-05-26T09:01:13Z</time>
      </trkpt>
      <trkpt lat="43.74322" lon="6.63924">
        <ele>1422.3</ele>
        <time>2024-05-26T09:01:14Z</time>
      </trkpt>
      <trkpt lat="43.74322" lon="6.63924">
        <ele>1422.3</ele>
        <time>2024-05-26T09:01:15Z</time>
      </trkpt>
      <trkpt lat="43.74322" lon="6.63924">
        <ele>1422.4</ele>
        <time>2024-05-26T09:01:16Z</time>
      </trkpt>
      <trkpt lat="43.74322" lon="6.63924">
        <ele>1422.4</ele>
        <time>2024-05-26T09:01:17Z</time>
      </trkpt>
      <trkpt lat="43.74322" lon="6.63924">
        <ele>1422.4</ele>
        <time>2024-05-26T09:01:18Z</time>
      </trkpt>
      <trkpt lat="43.74322" lon="6.63924">
        <ele>1422.3</ele>
        <time>2024-05-26T09:01:19Z</time>
      </trkpt>
      <trkpt lat="43.74322" lon="6.63924">
        <ele>1422.2</ele>
        <time>2024-05-26T09:01:20Z</time>
      </trkpt>
      <trkpt lat="43.74322" lon="6.63924">
        <ele>1422.3</ele>
        <time>2024-05-26T09:01:21Z</time>
      </trkpt>
      <trkpt lat="43.74322" lon="6.63924">
        <ele>1422.3</ele>
        <time>2024-05-26T09:01:22Z</time>
      </trkpt>
      <trkpt lat="43.74322" lon="6.63924">
        <ele>1422.4</ele>
        <time>2024-05-26T09:01:23Z</time>
      </trkpt>
      <trkpt lat="43.74322" lon="6.63924">
        <ele>1422.4</ele>
        <time>2024-05-26T09:01:24Z</time>
      </trkpt>
      <trkpt lat="43.74322" lon="6.63924">
        <ele>1422.4</ele>
        <time>2024-05-26T09:01:25Z</time>
      </trkpt>
      <trkpt lat="43.74322" lon="6.63924">
        <ele>1422.5</ele>
        <time>2024-05-26T09:01:26Z</time>
      </trkpt>
      <trkpt lat="43.74322" lon="6.63924">
        <ele>1422.5</ele>
        <time>2024-05-26T09:01:27Z</time>
      </trkpt>
      <trkpt lat="43.74322" lon="6.63924">
        <ele>1422.5</ele>
        <time>2024-05-26T09:01:28Z</time>
      </trkpt>
      <trkpt lat="43.74322" lon="6.63924">
        <ele>1422.5</ele>
        <time>2024-05-26T09:01:29Z</time>
      </trkpt>
      <trkpt lat="43.74322" lon="6.63924">
        <ele>1422.6</ele>
        <time>2024-05-26T09:01:30Z</time>
      </trkpt>
      <trkpt lat="43.74322" lon="6.63924">
        <ele>1422.6</ele>
        <time>2024-05-26T09:01:31Z</time>
      </trkpt>
      <trkpt lat="43.74321" lon="6.63925">
        <ele>1422.6</ele>
        <time>2024-05-26T09:01:32Z</time>
      </trkpt>
      <trkpt lat="43.74321" lon="6.63925">
        <ele>1422.6</ele>
        <time>2024-05-26T09:01:33Z</time>
      </trkpt>
      <trkpt lat="43.74321" lon="6.63925">
        <ele>1422.7</ele>
        <time>2024-05-26T09:01:34Z</time>
      </trkpt>
      <trkpt lat="43.74321" lon="6.63925">
        <ele>1422.8</ele>
        <time>2024-05-26T09:01:35Z</time>
      </trkpt>
      <trkpt lat="43.74321" lon="6.63925">
        <ele>1422.9</ele>
        <time>2024-05-26T09:01:36Z</time>
      </trkpt>
      <trkpt lat="43.74321" lon="6.63925">
        <ele>1422.9</ele>
        <time>2024-05-26T09:01:37Z</time>
      </trkpt>
      <trkpt lat="43.74321" lon="6.63925">
        <ele>1422.9</ele>
        <time>2024-05-26T09:01:38Z</time>
      </trkpt>
      <trkpt lat="43.74321" lon="6.63925">
        <ele>1423</ele>
        <time>2024-05-26T09:01:39Z</time>
      </trkpt>
      <trkpt lat="43.74321" lon="6.63925">
        <ele>1423</ele>
        <time>2024-05-26T09:01:40Z</time>
      </trkpt>
      <trkpt lat="43.74321" lon="6.63925">
        <ele>1422.9</ele>
        <time>2024-05-26T09:01:41Z</time>
      </trkpt>
      <trkpt lat="43.74321" lon="6.63925">
        <ele>1422.9</ele>
        <time>2024-05-26T09:01:42Z</time>
      </trkpt>
      <trkpt lat="43.74321" lon="6.63925">
        <ele>1423</ele>
        <time>2024-05-26T09:01:43Z</time>
      </trkpt>
      <trkpt lat="43.74321" lon="6.63925">
        <ele>1423</ele>
        <time>2024-05-26T09:01:44Z</time>
      </trkpt>
      <trkpt lat="43.74321" lon="6.63925">
        <ele>1423</ele>
        <time>2024-05-26T09:01:45Z</time>
      </trkpt>
      <trkpt lat="43.74321" lon="6.63925">
        <ele>1423.1</ele>
        <time>2024-05-26T09:01:46Z</time>
      </trkpt>
      <trkpt lat="43.74321" lon="6.63925">
        <ele>1423.2</ele>
        <time>2024-05-26T09:01:47Z</time>
      </trkpt>
      <trkpt lat="43.74321" lon="6.63925">
        <ele>1423.2</ele>
        <time>2024-05-26T09:01:48Z</time>
      </trkpt>
      <trkpt lat="43.74321" lon="6.63925">
        <ele>1423.2</ele>
        <time>2024-05-26T09:01:49Z</time>
      </trkpt>
      <trkpt lat="43.74321" lon="6.63925">
        <ele>1423.1</ele>
        <time>2024-05-26T09:01:50Z</time>
      </trkpt>
      <trkpt lat="43.74321" lon="6.63925">
        <ele>1423</ele>
        <time>2024-05-26T09:01:51Z</time>
      </trkpt>
      <trkpt lat="43.74321" lon="6.63925">
        <ele>1423</ele>
        <time>2024-05-26T09:01:52Z</time>
      </trkpt>
      <trkpt lat="43.7432" lon="6.63925">
        <ele>1423.1</ele>
        <time>2024-05-26T09:01:53Z</time>
      </trkpt>
      <trkpt lat="43.7432" lon="6.63925">
        <ele>1423.1</ele>
        <time>2024-05-26T09:01:54Z</time>
      </trkpt>
      <trkpt lat="43.7432" lon="6.63925">
        <ele>1423.1</ele>
        <time>2024-05-26T09:01:55Z</time>
      </trkpt>
      <trkpt lat="43.7432" lon="6.63925">
        <ele>1422.9</ele>
        <time>2024-05-26T09:01:56Z</time>
      </trkpt>
      <trkpt lat="43.7432" lon="6.63925">
        <ele>1423</ele>
        <time>2024-05-26T09:01:57Z</time>
      </trkpt>
      <trkpt lat="43.7432" lon="6.63925">
        <ele>1423</ele>
        <time>2024-05-26T09:01:58Z</time>
      </trkpt>
      <trkpt lat="43.7432" lon="6.63925">
        <ele>1422.9</ele>
        <time>2024-05-26T09:01:59Z</time>
      </trkpt>
      <trkpt lat="43.74321" lon="6.63925">
        <ele>1423</ele>
        <time>2024-05-26T09:02:00Z</time>
      </trkpt>
      <trkpt lat="43.74321" lon="6.63925">
        <ele>1423</ele>
        <time>2024-05-26T09:02:01Z</time>
      </trkpt>
      <trkpt lat="43.74321" lon="6.63925">
        <ele>1423</ele>
        <time>2024-05-26T09:02:02Z</time>
      </trkpt>
      <trkpt lat="43.74321" lon="6.63925">
        <ele>1423</ele>
        <time>2024-05-26T09:02:03Z</time>
      </trkpt>
      <trkpt lat="43.74321" lon="6.63925">
        <ele>1422.9</ele>
        <time>2024-05-26T09:02:04Z</time>
      </trkpt>
      <trkpt lat="43.74321" lon="6.63925">
        <ele>1422.9</ele>
        <time>2024-05-26T09:02:05Z</time>
      </trkpt>
      <trkpt lat="43.74321" lon="6.63925">
        <ele>1422.8</ele>
        <time>2024-05-26T09:02:06Z</time>
      </trkpt>
      <trkpt lat="43.7432" lon="6.63925">
        <ele>1422.9</ele>
        <time>2024-05-26T09:02:07Z</time>
      </trkpt>
      <trkpt lat="43.74321" lon="6.63925">
        <ele>1422.9</ele>
        <time>2024-05-26T09:02:08Z</time>
      </trkpt>
      <trkpt lat="43.74321" lon="6.63925">
        <ele>1422.9</ele>
        <time>2024-05-26T09:02:09Z</time>
      </trkpt>
      <trkpt lat="43.74321" lon="6.63925">
        <ele>1422.9</ele>
        <time>2024-05-26T09:02:10Z</time>
      </trkpt>
      <trkpt lat="43.74321" lon="6.63925">
        <ele>1422.8</ele>
        <time>2024-05-26T09:02:11Z</time>
      </trkpt>
      <trkpt lat="43.74321" lon="6.63925">
        <ele>1422.8</ele>
        <time>2024-05-26T09:02:12Z</time>
      </trkpt>
      <trkpt lat="43.74321" lon="6.63925">
        <ele>1422.8</ele>
        <time>2024-05-26T09:02:13Z</time>
      </trkpt>
      <trkpt lat="43.74321" lon="6.63925">
        <ele>1422.8</ele>
        <time>2024-05-26T09:02:14Z</time>
      </trkpt>
      <trkpt lat="43.74321" lon="6.63925">
        <ele>1422.8</ele>
        <time>2024-05-26T09:02:15Z</time>
      </trkpt>
      <trkpt lat="43.7432" lon="6.63925">
        <ele>1422.9</ele>
        <time>2024-05-26T09:02:16Z</time>
      </trkpt>
      <trkpt lat="43.7432" lon="6.63925">
        <ele>1422.9</ele>
        <time>2024-05-26T09:02:17Z</time>
      </trkpt>
      <trkpt lat="43.7432" lon="6.63925">
        <ele>1422.8</ele>
        <time>2024-05-26T09:02:18Z</time>
      </trkpt>
      <trkpt lat="43.7432" lon="6.63925">
        <ele>1422.8</ele>
        <time>2024-05-26T09:02:19Z</time>
      </trkpt>
      <trkpt lat="43.7432" lon="6.63925">
        <ele>1422.8</ele>
        <time>2024-05-26T09:02:20Z</time>
      </trkpt>
      <trkpt lat="43.7432" lon="6.63925">
        <ele>1422.8</ele>
        <time>2024-05-26T09:02:21Z</time>
      </trkpt>
      <trkpt lat="43.7432" lon="6.63925">
        <ele>1422.8</ele>
        <time>2024-05-26T09:02:22Z</time>
      </trkpt>
      <trkpt lat="43.7432" lon="6.63925">
        <ele>1422.9</ele>
        <time>2024-05-26T09:02:23Z</time>
      </trkpt>
      <trkpt lat="43.7432" lon="6.63925">
        <ele>1422.9</ele>
        <time>2024-05-26T09:02:24Z</time>
      </trkpt>
      <trkpt lat="43.7432" lon="6.63925">
        <ele>1422.9</ele>
        <time>2024-05-26T09:02:25Z</time>
      </trkpt>
      <trkpt lat="43.7432" lon="6.63925">
        <ele>1422.9</ele>
        <time>2024-05-26T09:02:26Z</time>
      </trkpt>
      <trkpt lat="43.7432" lon="6.63925">
        <ele>1422.9</ele>
        <time>2024-05-26T09:02:27Z</time>
      </trkpt>
      <trkpt lat="43.7432" lon="6.63925">
        <ele>1422.9</ele>
        <time>2024-05-26T09:02:28Z</time>
      </trkpt>
      <trkpt lat="43.7432" lon="6.63925">
        <ele>1422.8</ele>
        <time>2024-05-26T09:02:29Z</time>
      </trkpt>
      <trkpt lat="43.74319" lon="6.63925">
        <ele>1422.8</ele>
        <time>2024-05-26T09:02:30Z</time>
      </trkpt>
      <trkpt lat="43.7432" lon="6.63925">
        <ele>1422.8</ele>
        <time>2024-05-26T09:02:31Z</time>
      </trkpt>
      <trkpt lat="43.7432" lon="6.63925">
        <ele>1422.8</ele>
        <time>2024-05-26T09:02:32Z</time>
      </trkpt>
      <trkpt lat="43.7432" lon="6.63925">
        <ele>1422.9</ele>
        <time>2024-05-26T09:02:33Z</time>
      </trkpt>
      <trkpt lat="43.7432" lon="6.63925">
        <ele>1422.9</ele>
        <time>2024-05-26T09:02:34Z</time>
      </trkpt>
      <trkpt lat="43.7432" lon="6.63925">
        <ele>1422.9</ele>
        <time>2024-05-26T09:02:35Z</time>
      </trkpt>
      <trkpt lat="43.7432" lon="6.63925">
        <ele>1422.9</ele>
        <time>2024-05-26T09:02:36Z</time>
      </trkpt>
      <trkpt lat="43.74321" lon="6.63925">
        <ele>1422.9</ele>
        <time>2024-05-26T09:02:37Z</time>
      </trkpt>
      <trkpt lat="43.74321" lon="6.63926">
        <ele>1423</ele>
        <time>2024-05-26T09:02:38Z</time>
      </trkpt>
      <trkpt lat="43.74321" lon="6.63926">
        <ele>1423</ele>
        <time>2024-05-26T09:02:39Z</time>
      </trkpt>
      <trkpt lat="43.74321" lon="6.63926">
        <ele>1423.1</ele>
        <time>2024-05-26T09:02:40Z</time>
      </trkpt>
      <trkpt lat="43.74321" lon="6.63926">
        <ele>1423.2</ele>
        <time>2024-05-26T09:02:41Z</time>
      </trkpt>
      <trkpt lat="43.74321" lon="6.63926">
        <ele>1423.2</ele>
        <time>2024-05-26T09:02:42Z</time>
      </trkpt>
      <trkpt lat="43.74322" lon="6.63926">
        <ele>1423.2</ele>
        <time>2024-05-26T09:02:43Z</time>
      </trkpt>
      <trkpt lat="43.74322" lon="6.63926">
        <ele>1423.1</ele>
        <time>2024-05-26T09:02:44Z</time>
      </trkpt>
      <trkpt lat="43.74322" lon="6.63926">
        <ele>1423</ele>
        <time>2024-05-26T09:02:45Z</time>
      </trkpt>
      <trkpt lat="43.74322" lon="6.63926">
        <ele>1423</ele>
        <time>2024-05-26T09:02:46Z</time>
      </trkpt>
      <trkpt lat="43.74322" lon="6.63926">
        <ele>1422.9</ele>
        <time>2024-05-26T09:02:47Z</time>
      </trkpt>
      <trkpt lat="43.74322" lon="6.63926">
        <ele>1422.9</ele>
        <time>2024-05-26T09:02:48Z</time>
      </trkpt>
      <trkpt lat="43.74322" lon="6.63926">
        <ele>1422.9</ele>
        <time>2024-05-26T09:02:49Z</time>
      </trkpt>
      <trkpt lat="43.74323" lon="6.63926">
        <ele>1422.8</ele>
        <time>2024-05-26T09:02:50Z</time>
      </trkpt>
      <trkpt lat="43.74323" lon="6.63926">
        <ele>1422.8</ele>
        <time>2024-05-26T09:02:51Z</time>
      </trkpt>
      <trkpt lat="43.74323" lon="6.63926">
        <ele>1422.8</ele>
        <time>2024-05-26T09:02:52Z</time>
      </trkpt>
      <trkpt lat="43.74323" lon="6.63926">
        <ele>1422.8</ele>
        <time>2024-05-26T09:02:53Z</time>
      </trkpt>
      <trkpt lat="43.74323" lon="6.63926">
        <ele>1422.8</ele>
        <time>2024-05-26T09:02:54Z</time>
      </trkpt>
      <trkpt lat="43.74323" lon="6.63926">
        <ele>1422.8</ele>
        <time>2024-05-26T09:02:55Z</time>
      </trkpt>
      <trkpt lat="43.74323" lon="6.63926">
        <ele>1422.8</ele>
        <time>2024-05-26T09:02:56Z</time>
      </trkpt>
      <trkpt lat="43.74323" lon="6.63926">
        <ele>1422.9</ele>
        <time>2024-05-26T09:02:57Z</time>
      </trkpt>
      <trkpt lat="43.74323" lon="6.63926">
        <ele>1422.9</ele>
        <time>2024-05-26T09:02:58Z</time>
      </trkpt>
      <trkpt lat="43.74323" lon="6.63926">
        <ele>1422.9</ele>
        <time>2024-05-26T09:02:59Z</time>
      </trkpt>
      <trkpt lat="43.74323" lon="6.63926">
        <ele>1423</ele>
        <time>2024-05-26T09:03:00Z</time>
      </trkpt>
      <trkpt lat="43.74323" lon="6.63926">
        <ele>1423</ele>
        <time>2024-05-26T09:03:01Z</time>
      </trkpt>
      <trkpt lat="43.74323" lon="6.63926">
        <ele>1423</ele>
        <time>2024-05-26T09:03:02Z</time>
      </trkpt>
      <trkpt lat="43.74323" lon="6.63926">
        <ele>1423</ele>
        <time>2024-05-26T09:03:03Z</time>
      </trkpt>
      <trkpt lat="43.74324" lon="6.63926">
        <ele>1423</ele>
        <time>2024-05-26T09:03:04Z</time>
      </trkpt>
      <trkpt lat="43.74324" lon="6.63926">
        <ele>1423</ele>
        <time>2024-05-26T09:03:05Z</time>
      </trkpt>
      <trkpt lat="43.74324" lon="6.63927">
        <ele>1423</ele>
        <time>2024-05-26T09:03:06Z</time>
      </trkpt>
      <trkpt lat="43.74324" lon="6.63927">
        <ele>1423</ele>
        <time>2024-05-26T09:03:07Z</time>
      </trkpt>
      <trkpt lat="43.74324" lon="6.63927">
        <ele>1423.1</ele>
        <time>2024-05-26T09:03:08Z</time>
      </trkpt>
      <trkpt lat="43.74324" lon="6.63926">
        <ele>1423.1</ele>
        <time>2024-05-26T09:03:09Z</time>
      </trkpt>
      <trkpt lat="43.74323" lon="6.63926">
        <ele>1423.1</ele>
        <time>2024-05-26T09:03:10Z</time>
      </trkpt>
      <trkpt lat="43.74324" lon="6.63927">
        <ele>1423.2</ele>
        <time>2024-05-26T09:03:11Z</time>
      </trkpt>
      <trkpt lat="43.74324" lon="6.63928">
        <ele>1423.2</ele>
        <time>2024-05-26T09:03:12Z</time>
      </trkpt>
      <trkpt lat="43.74324" lon="6.63928">
        <ele>1423.2</ele>
        <time>2024-05-26T09:03:13Z</time>
      </trkpt>
      <trkpt lat="43.74324" lon="6.63928">
        <ele>1423.3</ele>
        <time>2024-05-26T09:03:14Z</time>
      </trkpt>
      <trkpt lat="43.74324" lon="6.6393">
        <ele>1423.5</ele>
        <time>2024-05-26T09:03:15Z</time>
      </trkpt>
      <trkpt lat="43.74324" lon="6.6393">
        <ele>1423.6</ele>
        <time>2024-05-26T09:03:16Z</time>
      </trkpt>
      <trkpt lat="43.74324" lon="6.63931">
        <ele>1423.8</ele>
        <time>2024-05-26T09:03:17Z</time>
      </trkpt>
      <trkpt lat="43.74325" lon="6.63931">
        <ele>1423.9</ele>
        <time>2024-05-26T09:03:18Z</time>
      </trkpt>
      <trkpt lat="43.74325" lon="6.63931">
        <ele>1424</ele>
        <time>2024-05-26T09:03:19Z</time>
      </trkpt>
      <trkpt lat="43.74325" lon="6.63931">
        <ele>1424.1</ele>
        <time>2024-05-26T09:03:20Z</time>
      </trkpt>
      <trkpt lat="43.74325" lon="6.6393">
        <ele>1424.2</ele>
        <time>2024-05-26T09:03:21Z</time>
      </trkpt>
      <trkpt lat="43.74326" lon="6.6393">
        <ele>1424.3</ele>
        <time>2024-05-26T09:03:22Z</time>
      </trkpt>
      <trkpt lat="43.74326" lon="6.6393">
        <ele>1424.4</ele>
        <time>2024-05-26T09:03:23Z</time>
      </trkpt>
      <trkpt lat="43.74326" lon="6.6393">
        <ele>1424.4</ele>
        <time>2024-05-26T09:03:24Z</time>
      </trkpt>
      <trkpt lat="43.74326" lon="6.6393">
        <ele>1424.3</ele>
        <time>2024-05-26T09:03:25Z</time>
      </trkpt>
      <trkpt lat="43.74326" lon="6.6393">
        <ele>1424.3</ele>
        <time>2024-05-26T09:03:26Z</time>
      </trkpt>
      <trkpt lat="43.74326" lon="6.6393">
        <ele>1424.3</ele>
        <time>2024-05-26T09:03:27Z</time>
      </trkpt>
      <trkpt lat="43.74326" lon="6.63929">
        <ele>1424.2</ele>
        <time>2024-05-26T09:03:28Z</time>
      </trkpt>
      <trkpt lat="43.74327" lon="6.6393">
        <ele>1424.2</ele>
        <time>2024-05-26T09:03:29Z</time>
      </trkpt>
      <trkpt lat="43.74326" lon="6.6393">
        <ele>1424.2</ele>
        <time>2024-05-26T09:03:30Z</time>
      </trkpt>
      <trkpt lat="43.74326" lon="6.6393">
        <ele>1424.2</ele>
        <time>2024-05-26T09:03:31Z</time>
      </trkpt>
      <trkpt lat="43.74326" lon="6.63931">
        <ele>1424.4</ele>
        <time>2024-05-26T09:03:32Z</time>
      </trkpt>
      <trkpt lat="43.74327" lon="6.63931">
        <ele>1424.6</ele>
        <time>2024-05-26T09:03:33Z</time>
      </trkpt>
      <trkpt lat="43.74327" lon="6.6393">
        <ele>1424.8</ele>
        <time>2024-05-26T09:03:34Z</time>
      </trkpt>
      <trkpt lat="43.74327" lon="6.6393">
        <ele>1424.8</ele>
        <time>2024-05-26T09:03:35Z</time>
      </trkpt>
      <trkpt lat="43.74327" lon="6.6393">
        <ele>1424.9</ele>
        <time>2024-05-26T09:03:36Z</time>
      </trkpt>
      <trkpt lat="43.74327" lon="6.6393">
        <ele>1424.9</ele>
        <time>2024-05-26T09:03:37Z</time>
      </trkpt>
      <trkpt lat="43.74327" lon="6.6393">
        <ele>1425</ele>
        <time>2024-05-26T09:03:38Z</time>
      </trkpt>
      <trkpt lat="43.74327" lon="6.63931">
        <ele>1425</ele>
        <time>2024-05-26T09:03:39Z</time>
      </trkpt>
      <trkpt lat="43.74328" lon="6.63932">
        <ele>1425.1</ele>
        <time>2024-05-26T09:03:40Z</time>
      </trkpt>
      <trkpt lat="43.74328" lon="6.63932">
        <ele>1425.1</ele>
        <time>2024-05-26T09:03:41Z</time>
      </trkpt>
      <trkpt lat="43.74328" lon="6.63933">
        <ele>1425.2</ele>
        <time>2024-05-26T09:03:42Z</time>
      </trkpt>
      <trkpt lat="43.74328" lon="6.63934">
        <ele>1425.2</ele>
        <time>2024-05-26T09:03:43Z</time>
      </trkpt>
      <trkpt lat="43.74329" lon="6.63935">
        <ele>1425.4</ele>
        <time>2024-05-26T09:03:44Z</time>
      </trkpt>
      <trkpt lat="43.74329" lon="6.63936">
        <ele>1425.6</ele>
        <time>2024-05-26T09:03:45Z</time>
      </trkpt>
      <trkpt lat="43.74329" lon="6.63936">
        <ele>1425.8</ele>
        <time>2024-05-26T09:03:46Z</time>
      </trkpt>
      <trkpt lat="43.7433" lon="6.63937">
        <ele>1426</ele>
        <time>2024-05-26T09:03:47Z</time>
      </trkpt>
      <trkpt lat="43.7433" lon="6.63938">
        <ele>1426.1</ele>
        <time>2024-05-26T09:03:48Z</time>
      </trkpt>
      <trkpt lat="43.7433" lon="6.63939">
        <ele>1426.1</ele>
        <time>2024-05-26T09:03:49Z</time>
      </trkpt>
      <trkpt lat="43.7433" lon="6.63939">
        <ele>1426.2</ele>
        <time>2024-05-26T09:03:50Z</time>
      </trkpt>
      <trkpt lat="43.7433" lon="6.6394">
        <ele>1426.4</ele>
        <time>2024-05-26T09:03:51Z</time>
      </trkpt>
      <trkpt lat="43.7433" lon="6.63941">
        <ele>1426.5</ele>
        <time>2024-05-26T09:03:52Z</time>
      </trkpt>
      <trkpt lat="43.74329" lon="6.63942">
        <ele>1426.7</ele>
        <time>2024-05-26T09:03:53Z</time>
      </trkpt>
      <trkpt lat="43.74329" lon="6.63943">
        <ele>1426.8</ele>
        <time>2024-05-26T09:03:54Z</time>
      </trkpt>
      <trkpt lat="43.74329" lon="6.63944">
        <ele>1426.9</ele>
        <time>2024-05-26T09:03:55Z</time>
      </trkpt>
      <trkpt lat="43.74329" lon="6.63945">
        <ele>1427.1</ele>
        <time>2024-05-26T09:03:56Z</time>
      </trkpt>
      <trkpt lat="43.74328" lon="6.63946">
        <ele>1427.2</ele>
        <time>2024-05-26T09:03:57Z</time>
      </trkpt>
      <trkpt lat="43.74329" lon="6.63947">
        <ele>1427.3</ele>
        <time>2024-05-26T09:03:58Z</time>
      </trkpt>
      <trkpt lat="43.74329" lon="6.63948">
        <ele>1427.4</ele>
        <time>2024-05-26T09:03:59Z</time>
      </trkpt>
      <trkpt lat="43.7433" lon="6.63948">
        <ele>1427.5</ele>
        <time>2024-05-26T09:04:00Z</time>
      </trkpt>
      <trkpt lat="43.7433" lon="6.63949">
        <ele>1427.7</ele>
        <time>2024-05-26T09:04:01Z</time>
      </trkpt>
      <trkpt lat="43.74331" lon="6.6395">
        <ele>1427.9</ele>
        <time>2024-05-26T09:04:02Z</time>
      </trkpt>
      <trkpt lat="43.74331" lon="6.63951">
        <ele>1428.1</ele>
        <time>2024-05-26T09:04:03Z</time>
      </trkpt>
      <trkpt lat="43.74331" lon="6.63952">
        <ele>1428.2</ele>
        <time>2024-05-26T09:04:04Z</time>
      </trkpt>
      <trkpt lat="43.74331" lon="6.63952">
        <ele>1428.3</ele>
        <time>2024-05-26T09:04:05Z</time>
      </trkpt>
      <trkpt lat="43.74331" lon="6.63952">
        <ele>1428.5</ele>
        <time>2024-05-26T09:04:06Z</time>
      </trkpt>
      <trkpt lat="43.74331" lon="6.63952">
        <ele>1428.6</ele>
        <time>2024-05-26T09:04:07Z</time>
      </trkpt>
      <trkpt lat="43.74331" lon="6.63952">
        <ele>1428.7</ele>
        <time>2024-05-26T09:04:08Z</time>
      </trkpt>
      <trkpt lat="43.74331" lon="6.63952">
        <ele>1428.7</ele>
        <time>2024-05-26T09:04:09Z</time>
      </trkpt>
      <trkpt lat="43.74331" lon="6.63953">
        <ele>1428.8</ele>
        <time>2024-05-26T09:04:10Z</time>
      </trkpt>
      <trkpt lat="43.7433" lon="6.63954">
        <ele>1429</ele>
        <time>2024-05-26T09:04:11Z</time>
      </trkpt>
      <trkpt lat="43.7433" lon="6.63955">
        <ele>1429</ele>
        <time>2024-05-26T09:04:12Z</time>
      </trkpt>
      <trkpt lat="43.7433" lon="6.63956">
        <ele>1428.9</ele>
        <time>2024-05-26T09:04:13Z</time>
      </trkpt>
      <trkpt lat="43.7433" lon="6.63957">
        <ele>1428.9</ele>
        <time>2024-05-26T09:04:14Z</time>
      </trkpt>
      <trkpt lat="43.7433" lon="6.63958">
        <ele>1429</ele>
        <time>2024-05-26T09:04:15Z</time>
      </trkpt>
      <trkpt lat="43.74329" lon="6.63958">
        <ele>1428.9</ele>
        <time>2024-05-26T09:04:16Z</time>
      </trkpt>
      <trkpt lat="43.74329" lon="6.63959">
        <ele>1428.8</ele>
        <time>2024-05-26T09:04:17Z</time>
      </trkpt>
      <trkpt lat="43.74328" lon="6.63959">
        <ele>1428.8</ele>
        <time>2024-05-26T09:04:18Z</time>
      </trkpt>
      <trkpt lat="43.74328" lon="6.63959">
        <ele>1428.9</ele>
        <time>2024-05-26T09:04:19Z</time>
      </trkpt>
      <trkpt lat="43.74327" lon="6.6396">
        <ele>1429</ele>
        <time>2024-05-26T09:04:20Z</time>
      </trkpt>
      <trkpt lat="43.74327" lon="6.63961">
        <ele>1429</ele>
        <time>2024-05-26T09:04:21Z</time>
      </trkpt>
      <trkpt lat="43.74326" lon="6.63962">
        <ele>1429.1</ele>
        <time>2024-05-26T09:04:22Z</time>
      </trkpt>
      <trkpt lat="43.74325" lon="6.63962">
        <ele>1429.1</ele>
        <time>2024-05-26T09:04:23Z</time>
      </trkpt>
      <trkpt lat="43.74325" lon="6.63963">
        <ele>1429.2</ele>
        <time>2024-05-26T09:04:24Z</time>
      </trkpt>
      <trkpt lat="43.74324" lon="6.63963">
        <ele>1429.2</ele>
        <time>2024-05-26T09:04:25Z</time>
      </trkpt>
      <trkpt lat="43.74323" lon="6.63964">
        <ele>1429.2</ele>
        <time>2024-05-26T09:04:26Z</time>
      </trkpt>
      <trkpt lat="43.74323" lon="6.63964">
        <ele>1429.2</ele>
        <time>2024-05-26T09:04:27Z</time>
      </trkpt>
      <trkpt lat="43.74322" lon="6.63965">
        <ele>1429.2</ele>
        <time>2024-05-26T09:04:28Z</time>
      </trkpt>
      <trkpt lat="43.74321" lon="6.63965">
        <ele>1429.1</ele>
        <time>2024-05-26T09:04:29Z</time>
      </trkpt>
      <trkpt lat="43.7432" lon="6.63966">
        <ele>1429.1</ele>
        <time>2024-05-26T09:04:30Z</time>
      </trkpt>
      <trkpt lat="43.74319" lon="6.63966">
        <ele>1429.2</ele>
        <time>2024-05-26T09:04:31Z</time>
      </trkpt>
      <trkpt lat="43.74319" lon="6.63967">
        <ele>1429.2</ele>
        <time>2024-05-26T09:04:32Z</time>
      </trkpt>
      <trkpt lat="43.74318" lon="6.63967">
        <ele>1429.2</ele>
        <time>2024-05-26T09:04:33Z</time>
      </trkpt>
      <trkpt lat="43.74318" lon="6.63968">
        <ele>1429.2</ele>
        <time>2024-05-26T09:04:34Z</time>
      </trkpt>
      <trkpt lat="43.74317" lon="6.63968">
        <ele>1429.3</ele>
        <time>2024-05-26T09:04:35Z</time>
      </trkpt>
      <trkpt lat="43.74316" lon="6.63968">
        <ele>1429.3</ele>
        <time>2024-05-26T09:04:36Z</time>
      </trkpt>
      <trkpt lat="43.74315" lon="6.63969">
        <ele>1429.3</ele>
        <time>2024-05-26T09:04:37Z</time>
      </trkpt>
      <trkpt lat="43.74315" lon="6.6397">
        <ele>1429.4</ele>
        <time>2024-05-26T09:04:38Z</time>
      </trkpt>
      <trkpt lat="43.74314" lon="6.6397">
        <ele>1429.5</ele>
        <time>2024-05-26T09:04:39Z</time>
      </trkpt>
      <trkpt lat="43.74313" lon="6.63971">
        <ele>1429.5</ele>
        <time>2024-05-26T09:04:40Z</time>
      </trkpt>
      <trkpt lat="43.74312" lon="6.63971">
        <ele>1429.6</ele>
        <time>2024-05-26T09:04:41Z</time>
      </trkpt>
      <trkpt lat="43.74311" lon="6.63972">
        <ele>1429.7</ele>
        <time>2024-05-26T09:04:42Z</time>
      </trkpt>
      <trkpt lat="43.7431" lon="6.63972">
        <ele>1429.7</ele>
        <time>2024-05-26T09:04:43Z</time>
      </trkpt>
      <trkpt lat="43.7431" lon="6.63973">
        <ele>1429.7</ele>
        <time>2024-05-26T09:04:44Z</time>
      </trkpt>
      <trkpt lat="43.74309" lon="6.63973">
        <ele>1429.8</ele>
        <time>2024-05-26T09:04:45Z</time>
      </trkpt>
      <trkpt lat="43.74308" lon="6.63974">
        <ele>1429.9</ele>
        <time>2024-05-26T09:04:46Z</time>
      </trkpt>
      <trkpt lat="43.74307" lon="6.63974">
        <ele>1430</ele>
        <time>2024-05-26T09:04:47Z</time>
      </trkpt>
      <trkpt lat="43.74306" lon="6.63975">
        <ele>1430</ele>
        <time>2024-05-26T09:04:48Z</time>
      </trkpt>
      <trkpt lat="43.74305" lon="6.63975">
        <ele>1430.1</ele>
        <time>2024-05-26T09:04:49Z</time>
      </trkpt>
      <trkpt lat="43.74304" lon="6.63976">
        <ele>1430.1</ele>
        <time>2024-05-26T09:04:50Z</time>
      </trkpt>
      <trkpt lat="43.74303" lon="6.63976">
        <ele>1430.1</ele>
        <time>2024-05-26T09:04:51Z</time>
      </trkpt>
      <trkpt lat="43.74302" lon="6.63976">
        <ele>1430.1</ele>
        <time>2024-05-26T09:04:52Z</time>
      </trkpt>
      <trkpt lat="43.74301" lon="6.63976">
        <ele>1430.1</ele>
        <time>2024-05-26T09:04:53Z</time>
      </trkpt>
      <trkpt lat="43.743" lon="6.63977">
        <ele>1430.1</ele>
        <time>2024-05-26T09:04:54Z</time>
      </trkpt>
      <trkpt lat="43.74299" lon="6.63977">
        <ele>1430.1</ele>
        <time>2024-05-26T09:04:55Z</time>
      </trkpt>
      <trkpt lat="43.74298" lon="6.63978">
        <ele>1430.1</ele>
        <time>2024-05-26T09:04:56Z</time>
      </trkpt>
      <trkpt lat="43.74297" lon="6.63979">
        <ele>1430.1</ele>
        <time>2024-05-26T09:04:57Z</time>
      </trkpt>
      <trkpt lat="43.74296" lon="6.63979">
        <ele>1430.2</ele>
        <time>2024-05-26T09:04:58Z</time>
      </trkpt>
      <trkpt lat="43.74295" lon="6.6398">
        <ele>1430.2</ele>
        <time>2024-05-26T09:04:59Z</time>
      </trkpt>
      <trkpt lat="43.74294" lon="6.63981">
        <ele>1430.2</ele>
        <time>2024-05-26T09:05:00Z</time>
      </trkpt>
      <trkpt lat="43.74293" lon="6.63981">
        <ele>1430.2</ele>
        <time>2024-05-26T09:05:01Z</time>
      </trkpt>
      <trkpt lat="43.74292" lon="6.63982">
        <ele>1430.3</ele>
        <time>2024-05-26T09:05:02Z</time>
      </trkpt>
      <trkpt lat="43.74291" lon="6.63982">
        <ele>1430.3</ele>
        <time>2024-05-26T09:05:03Z</time>
      </trkpt>
      <trkpt lat="43.7429" lon="6.63983">
        <ele>1430.2</ele>
        <time>2024-05-26T09:05:04Z</time>
      </trkpt>
      <trkpt lat="43.74289" lon="6.63983">
        <ele>1430.3</ele>
        <time>2024-05-26T09:05:05Z</time>
      </trkpt>
      <trkpt lat="43.74288" lon="6.63984">
        <ele>1430.3</ele>
        <time>2024-05-26T09:05:06Z</time>
      </trkpt>
      <trkpt lat="43.74287" lon="6.63985">
        <ele>1430.2</ele>
        <time>2024-05-26T09:05:07Z</time>
      </trkpt>
      <trkpt lat="43.74286" lon="6.63986">
        <ele>1430.3</ele>
        <time>2024-05-26T09:05:08Z</time>
      </trkpt>
      <trkpt lat="43.74285" lon="6.63987">
        <ele>1430.3</ele>
        <time>2024-05-26T09:05:09Z</time>
      </trkpt>
      <trkpt lat="43.74284" lon="6.63987">
        <ele>1430.3</ele>
        <time>2024-05-26T09:05:10Z</time>
      </trkpt>
      <trkpt lat="43.74283" lon="6.63988">
        <ele>1430.3</ele>
        <time>2024-05-26T09:05:11Z</time>
      </trkpt>
      <trkpt lat="43.74282" lon="6.63989">
        <ele>1430.3</ele>
        <time>2024-05-26T09:05:12Z</time>
      </trkpt>
      <trkpt lat="43.74281" lon="6.63989">
        <ele>1430.3</ele>
        <time>2024-05-26T09:05:13Z</time>
      </trkpt>
      <trkpt lat="43.7428" lon="6.6399">
        <ele>1430.3</ele>
        <time>2024-05-26T09:05:14Z</time>
      </trkpt>
      <trkpt lat="43.74279" lon="6.63991">
        <ele>1430.3</ele>
        <time>2024-05-26T09:05:15Z</time>
      </trkpt>
      <trkpt lat="43.74278" lon="6.63992">
        <ele>1430.3</ele>
        <time>2024-05-26T09:05:16Z</time>
      </trkpt>
      <trkpt lat="43.74277" lon="6.63993">
        <ele>1430.3</ele>
        <time>2024-05-26T09:05:17Z</time>
      </trkpt>
      <trkpt lat="43.74276" lon="6.63994">
        <ele>1430.2</ele>
        <time>2024-05-26T09:05:18Z</time>
      </trkpt>
      <trkpt lat="43.74275" lon="6.63994">
        <ele>1430.2</ele>
        <time>2024-05-26T09:05:19Z</time>
      </trkpt>
      <trkpt lat="43.74274" lon="6.63996">
        <ele>1430.3</ele>
        <time>2024-05-26T09:05:20Z</time>
      </trkpt>
      <trkpt lat="43.74274" lon="6.63996">
        <ele>1430.3</ele>
        <time>2024-05-26T09:05:21Z</time>
      </trkpt>
      <trkpt lat="43.74272" lon="6.63997">
        <ele>1430.3</ele>
        <time>2024-05-26T09:05:22Z</time>
      </trkpt>
      <trkpt lat="43.74271" lon="6.63997">
        <ele>1430.4</ele>
        <time>2024-05-26T09:05:23Z</time>
      </trkpt>
      <trkpt lat="43.7427" lon="6.63998">
        <ele>1430.4</ele>
        <time>2024-05-26T09:05:24Z</time>
      </trkpt>
      <trkpt lat="43.74269" lon="6.63999">
        <ele>1430.5</ele>
        <time>2024-05-26T09:05:25Z</time>
      </trkpt>
      <trkpt lat="43.74268" lon="6.64">
        <ele>1430.5</ele>
        <time>2024-05-26T09:05:26Z</time>
      </trkpt>
      <trkpt lat="43.74267" lon="6.64001">
        <ele>1430.4</ele>
        <time>2024-05-26T09:05:27Z</time>
      </trkpt>
      <trkpt lat="43.74266" lon="6.64002">
        <ele>1430.4</ele>
        <time>2024-05-26T09:05:28Z</time>
      </trkpt>
      <trkpt lat="43.74266" lon="6.64003">
        <ele>1430.4</ele>
        <time>2024-05-26T09:05:29Z</time>
      </trkpt>
      <trkpt lat="43.74265" lon="6.64003">
        <ele>1430.4</ele>
        <time>2024-05-26T09:05:30Z</time>
      </trkpt>
      <trkpt lat="43.74264" lon="6.64004">
        <ele>1430.4</ele>
        <time>2024-05-26T09:05:31Z</time>
      </trkpt>
      <trkpt lat="43.74263" lon="6.64005">
        <ele>1430.4</ele>
        <time>2024-05-26T09:05:32Z</time>
      </trkpt>
      <trkpt lat="43.74262" lon="6.64006">
        <ele>1430.4</ele>
        <time>2024-05-26T09:05:33Z</time>
      </trkpt>
      <trkpt lat="43.74261" lon="6.64007">
        <ele>1430.4</ele>
        <time>2024-05-26T09:05:34Z</time>
      </trkpt>
      <trkpt lat="43.7426" lon="6.64008">
        <ele>1430.5</ele>
        <time>2024-05-26T09:05:35Z</time>
      </trkpt>
      <trkpt lat="43.74259" lon="6.64008">
        <ele>1430.5</ele>
        <time>2024-05-26T09:05:36Z</time>
      </trkpt>
      <trkpt lat="43.74258" lon="6.64009">
        <ele>1430.5</ele>
        <time>2024-05-26T09:05:37Z</time>
      </trkpt>
      <trkpt lat="43.74257" lon="6.64011">
        <ele>1430.5</ele>
        <time>2024-05-26T09:05:38Z</time>
      </trkpt>
      <trkpt lat="43.74256" lon="6.64012">
        <ele>1430.4</ele>
        <time>2024-05-26T09:05:39Z</time>
      </trkpt>
      <trkpt lat="43.74255" lon="6.64013">
        <ele>1430.5</ele>
        <time>2024-05-26T09:05:40Z</time>
      </trkpt>
      <trkpt lat="43.74254" lon="6.64014">
        <ele>1430.6</ele>
        <time>2024-05-26T09:05:41Z</time>
      </trkpt>
      <trkpt lat="43.74254" lon="6.64015">
        <ele>1430.7</ele>
        <time>2024-05-26T09:05:42Z</time>
      </trkpt>
      <trkpt lat="43.74253" lon="6.64017">
        <ele>1430.8</ele>
        <time>2024-05-26T09:05:43Z</time>
      </trkpt>
      <trkpt lat="43.74252" lon="6.64018">
        <ele>1430.8</ele>
        <time>2024-05-26T09:05:44Z</time>
      </trkpt>
      <trkpt lat="43.74251" lon="6.6402">
        <ele>1430.8</ele>
        <time>2024-05-26T09:05:45Z</time>
      </trkpt>
      <trkpt lat="43.7425" lon="6.64021">
        <ele>1430.8</ele>
        <time>2024-05-26T09:05:46Z</time>
      </trkpt>
      <trkpt lat="43.7425" lon="6.64022">
        <ele>1430.9</ele>
        <time>2024-05-26T09:05:47Z</time>
      </trkpt>
      <trkpt lat="43.74249" lon="6.64023">
        <ele>1430.9</ele>
        <time>2024-05-26T09:05:48Z</time>
      </trkpt>
      <trkpt lat="43.74248" lon="6.64024">
        <ele>1430.9</ele>
        <time>2024-05-26T09:05:49Z</time>
      </trkpt>
      <trkpt lat="43.74247" lon="6.64025">
        <ele>1430.9</ele>
        <time>2024-05-26T09:05:50Z</time>
      </trkpt>
      <trkpt lat="43.74246" lon="6.64026">
        <ele>1431</ele>
        <time>2024-05-26T09:05:51Z</time>
      </trkpt>
      <trkpt lat="43.74245" lon="6.64027">
        <ele>1431.1</ele>
        <time>2024-05-26T09:05:52Z</time>
      </trkpt>
      <trkpt lat="43.74245" lon="6.64028">
        <ele>1431.2</ele>
        <time>2024-05-26T09:05:53Z</time>
      </trkpt>
      <trkpt lat="43.74244" lon="6.64029">
        <ele>1431.2</ele>
        <time>2024-05-26T09:05:54Z</time>
      </trkpt>
      <trkpt lat="43.74243" lon="6.6403">
        <ele>1431.3</ele>
        <time>2024-05-26T09:05:55Z</time>
      </trkpt>
      <trkpt lat="43.74242" lon="6.64031">
        <ele>1431.3</ele>
        <time>2024-05-26T09:05:56Z</time>
      </trkpt>
      <trkpt lat="43.74242" lon="6.64033">
        <ele>1431.2</ele>
        <time>2024-05-26T09:05:57Z</time>
      </trkpt>
      <trkpt lat="43.74241" lon="6.64034">
        <ele>1431.2</ele>
        <time>2024-05-26T09:05:58Z</time>
      </trkpt>
      <trkpt lat="43.7424" lon="6.64035">
        <ele>1431.3</ele>
        <time>2024-05-26T09:05:59Z</time>
      </trkpt>
      <trkpt lat="43.74239" lon="6.64035">
        <ele>1431.3</ele>
        <time>2024-05-26T09:06:00Z</time>
      </trkpt>
      <trkpt lat="43.74238" lon="6.64036">
        <ele>1431.3</ele>
        <time>2024-05-26T09:06:01Z</time>
      </trkpt>
      <trkpt lat="43.74237" lon="6.64036">
        <ele>1431.3</ele>
        <time>2024-05-26T09:06:02Z</time>
      </trkpt>
      <trkpt lat="43.74236" lon="6.64037">
        <ele>1431.4</ele>
        <time>2024-05-26T09:06:03Z</time>
      </trkpt>
      <trkpt lat="43.74235" lon="6.64037">
        <ele>1431.4</ele>
        <time>2024-05-26T09:06:04Z</time>
      </trkpt>
      <trkpt lat="43.74234" lon="6.64038">
        <ele>1431.4</ele>
        <time>2024-05-26T09:06:05Z</time>
      </trkpt>
      <trkpt lat="43.74233" lon="6.64039">
        <ele>1431.4</ele>
        <time>2024-05-26T09:06:06Z</time>
      </trkpt>
      <trkpt lat="43.74232" lon="6.64039">
        <ele>1431.5</ele>
        <time>2024-05-26T09:06:07Z</time>
      </trkpt>
      <trkpt lat="43.74231" lon="6.64039">
        <ele>1431.6</ele>
        <time>2024-05-26T09:06:08Z</time>
      </trkpt>
      <trkpt lat="43.7423" lon="6.6404">
        <ele>1431.6</ele>
        <time>2024-05-26T09:06:09Z</time>
      </trkpt>
      <trkpt lat="43.7423" lon="6.6404">
        <ele>1431.6</ele>
        <time>2024-05-26T09:06:10Z</time>
      </trkpt>
      <trkpt lat="43.74229" lon="6.64041">
        <ele>1431.7</ele>
        <time>2024-05-26T09:06:11Z</time>
      </trkpt>
      <trkpt lat="43.74228" lon="6.64041">
        <ele>1431.8</ele>
        <time>2024-05-26T09:06:12Z</time>
      </trkpt>
      <trkpt lat="43.74227" lon="6.64041">
        <ele>1431.8</ele>
        <time>2024-05-26T09:06:13Z</time>
      </trkpt>
      <trkpt lat="43.74226" lon="6.64041">
        <ele>1431.8</ele>
        <time>2024-05-26T09:06:14Z</time>
      </trkpt>
      <trkpt lat="43.74226" lon="6.64042">
        <ele>1431.8</ele>
        <time>2024-05-26T09:06:15Z</time>
      </trkpt>
      <trkpt lat="43.74225" lon="6.64041">
        <ele>1431.9</ele>
        <time>2024-05-26T09:06:16Z</time>
      </trkpt>
      <trkpt lat="43.74224" lon="6.64041">
        <ele>1431.9</ele>
        <time>2024-05-26T09:06:17Z</time>
      </trkpt>
      <trkpt lat="43.74223" lon="6.64041">
        <ele>1432</ele>
        <time>2024-05-26T09:06:18Z</time>
      </trkpt>
      <trkpt lat="43.74221" lon="6.64041">
        <ele>1432.1</ele>
        <time>2024-05-26T09:06:19Z</time>
      </trkpt>
      <trkpt lat="43.7422" lon="6.64041">
        <ele>1432.1</ele>
        <time>2024-05-26T09:06:20Z</time>
      </trkpt>
      <trkpt lat="43.74219" lon="6.64041">
        <ele>1432.1</ele>
        <time>2024-05-26T09:06:21Z</time>
      </trkpt>
      <trkpt lat="43.74218" lon="6.64041">
        <ele>1432.1</ele>
        <time>2024-05-26T09:06:22Z</time>
      </trkpt>
      <trkpt lat="43.74217" lon="6.64042">
        <ele>1432.2</ele>
        <time>2024-05-26T09:06:23Z</time>
      </trkpt>
      <trkpt lat="43.74217" lon="6.64041">
        <ele>1432.2</ele>
        <time>2024-05-26T09:06:24Z</time>
      </trkpt>
      <trkpt lat="43.74216" lon="6.64041">
        <ele>1432.3</ele>
        <time>2024-05-26T09:06:25Z</time>
      </trkpt>
      <trkpt lat="43.74215" lon="6.64041">
        <ele>1432.4</ele>
        <time>2024-05-26T09:06:26Z</time>
      </trkpt>
      <trkpt lat="43.74215" lon="6.6404">
        <ele>1432.5</ele>
        <time>2024-05-26T09:06:27Z</time>
      </trkpt>
      <trkpt lat="43.74214" lon="6.64041">
        <ele>1432.5</ele>
        <time>2024-05-26T09:06:28Z</time>
      </trkpt>
      <trkpt lat="43.74214" lon="6.6404">
        <ele>1432.5</ele>
        <time>2024-05-26T09:06:29Z</time>
      </trkpt>
      <trkpt lat="43.74214" lon="6.64041">
        <ele>1432.5</ele>
        <time>2024-05-26T09:06:30Z</time>
      </trkpt>
      <trkpt lat="43.74214" lon="6.6404">
        <ele>1432.6</ele>
        <time>2024-05-26T09:06:31Z</time>
      </trkpt>
      <trkpt lat="43.74213" lon="6.6404">
        <ele>1432.5</ele>
        <time>2024-05-26T09:06:32Z</time>
      </trkpt>
      <trkpt lat="43.74212" lon="6.64041">
        <ele>1432.6</ele>
        <time>2024-05-26T09:06:33Z</time>
      </trkpt>
      <trkpt lat="43.74211" lon="6.64041">
        <ele>1432.6</ele>
        <time>2024-05-26T09:06:34Z</time>
      </trkpt>
      <trkpt lat="43.7421" lon="6.64042">
        <ele>1432.5</ele>
        <time>2024-05-26T09:06:35Z</time>
      </trkpt>
      <trkpt lat="43.74209" lon="6.64042">
        <ele>1432.5</ele>
        <time>2024-05-26T09:06:36Z</time>
      </trkpt>
      <trkpt lat="43.74208" lon="6.64043">
        <ele>1432.6</ele>
        <time>2024-05-26T09:06:37Z</time>
      </trkpt>
      <trkpt lat="43.74207" lon="6.64044">
        <ele>1432.6</ele>
        <time>2024-05-26T09:06:38Z</time>
      </trkpt>
      <trkpt lat="43.74207" lon="6.64045">
        <ele>1432.6</ele>
        <time>2024-05-26T09:06:39Z</time>
      </trkpt>
      <trkpt lat="43.74206" lon="6.64046">
        <ele>1432.6</ele>
        <time>2024-05-26T09:06:40Z</time>
      </trkpt>
      <trkpt lat="43.74205" lon="6.64046">
        <ele>1432.6</ele>
        <time>2024-05-26T09:06:41Z</time>
      </trkpt>
      <trkpt lat="43.74205" lon="6.64047">
        <ele>1432.6</ele>
        <time>2024-05-26T09:06:42Z</time>
      </trkpt>
      <trkpt lat="43.74204" lon="6.64047">
        <ele>1432.7</ele>
        <time>2024-05-26T09:06:43Z</time>
      </trkpt>
      <trkpt lat="43.74204" lon="6.64048">
        <ele>1432.8</ele>
        <time>2024-05-26T09:06:44Z</time>
      </trkpt>
      <trkpt lat="43.74203" lon="6.64049">
        <ele>1432.8</ele>
        <time>2024-05-26T09:06:45Z</time>
      </trkpt>
      <trkpt lat="43.74202" lon="6.64049">
        <ele>1432.9</ele>
        <time>2024-05-26T09:06:46Z</time>
      </trkpt>
      <trkpt lat="43.74201" lon="6.6405">
        <ele>1432.9</ele>
        <time>2024-05-26T09:06:47Z</time>
      </trkpt>
      <trkpt lat="43.74201" lon="6.64051">
        <ele>1433</ele>
        <time>2024-05-26T09:06:48Z</time>
      </trkpt>
      <trkpt lat="43.742" lon="6.64051">
        <ele>1433</ele>
        <time>2024-05-26T09:06:49Z</time>
      </trkpt>
      <trkpt lat="43.74199" lon="6.64052">
        <ele>1433.1</ele>
        <time>2024-05-26T09:06:50Z</time>
      </trkpt>
      <trkpt lat="43.74198" lon="6.64052">
        <ele>1433.1</ele>
        <time>2024-05-26T09:06:51Z</time>
      </trkpt>
      <trkpt lat="43.74196" lon="6.64053">
        <ele>1433.1</ele>
        <time>2024-05-26T09:06:52Z</time>
      </trkpt>
      <trkpt lat="43.74195" lon="6.64054">
        <ele>1433.1</ele>
        <time>2024-05-26T09:06:53Z</time>
      </trkpt>
      <trkpt lat="43.74194" lon="6.64054">
        <ele>1433.1</ele>
        <time>2024-05-26T09:06:54Z</time>
      </trkpt>
      <trkpt lat="43.74193" lon="6.64054">
        <ele>1433.1</ele>
        <time>2024-05-26T09:06:55Z</time>
      </trkpt>
      <trkpt lat="43.74192" lon="6.64055">
        <ele>1433.1</ele>
        <time>2024-05-26T09:06:56Z</time>
      </trkpt>
      <trkpt lat="43.74191" lon="6.64056">
        <ele>1433.2</ele>
        <time>2024-05-26T09:06:57Z</time>
      </trkpt>
      <trkpt lat="43.74191" lon="6.64056">
        <ele>1433.3</ele>
        <time>2024-05-26T09:06:58Z</time>
      </trkpt>
      <trkpt lat="43.7419" lon="6.64057">
        <ele>1433.3</ele>
        <time>2024-05-26T09:06:59Z</time>
      </trkpt>
      <trkpt lat="43.74189" lon="6.64058">
        <ele>1433.3</ele>
        <time>2024-05-26T09:07:00Z</time>
      </trkpt>
      <trkpt lat="43.74188" lon="6.64058">
        <ele>1433.4</ele>
        <time>2024-05-26T09:07:01Z</time>
      </trkpt>
      <trkpt lat="43.74187" lon="6.64059">
        <ele>1433.5</ele>
        <time>2024-05-26T09:07:02Z</time>
      </trkpt>
      <trkpt lat="43.74186" lon="6.64059">
        <ele>1433.5</ele>
        <time>2024-05-26T09:07:03Z</time>
      </trkpt>
      <trkpt lat="43.74185" lon="6.64059">
        <ele>1433.5</ele>
        <time>2024-05-26T09:07:04Z</time>
      </trkpt>
      <trkpt lat="43.74183" lon="6.6406">
        <ele>1433.6</ele>
        <time>2024-05-26T09:07:05Z</time>
      </trkpt>
      <trkpt lat="43.74182" lon="6.6406">
        <ele>1433.7</ele>
        <time>2024-05-26T09:07:06Z</time>
      </trkpt>
      <trkpt lat="43.74181" lon="6.6406">
        <ele>1433.7</ele>
        <time>2024-05-26T09:07:07Z</time>
      </trkpt>
      <trkpt lat="43.74181" lon="6.6406">
        <ele>1433.7</ele>
        <time>2024-05-26T09:07:08Z</time>
      </trkpt>
      <trkpt lat="43.74181" lon="6.6406">
        <ele>1433.7</ele>
        <time>2024-05-26T09:07:09Z</time>
      </trkpt>
      <trkpt lat="43.74181" lon="6.6406">
        <ele>1433.7</ele>
        <time>2024-05-26T09:07:10Z</time>
      </trkpt>
      <trkpt lat="43.7418" lon="6.64061">
        <ele>1433.7</ele>
        <time>2024-05-26T09:07:11Z</time>
      </trkpt>
      <trkpt lat="43.7418" lon="6.64061">
        <ele>1433.7</ele>
        <time>2024-05-26T09:07:12Z</time>
      </trkpt>
      <trkpt lat="43.74179" lon="6.64061">
        <ele>1433.8</ele>
        <time>2024-05-26T09:07:13Z</time>
      </trkpt>
      <trkpt lat="43.74179" lon="6.64062">
        <ele>1433.8</ele>
        <time>2024-05-26T09:07:14Z</time>
      </trkpt>
      <trkpt lat="43.74178" lon="6.64062">
        <ele>1433.8</ele>
        <time>2024-05-26T09:07:15Z</time>
      </trkpt>
      <trkpt lat="43.74177" lon="6.64063">
        <ele>1433.9</ele>
        <time>2024-05-26T09:07:16Z</time>
      </trkpt>
      <trkpt lat="43.74176" lon="6.64063">
        <ele>1433.9</ele>
        <time>2024-05-26T09:07:17Z</time>
      </trkpt>
      <trkpt lat="43.74175" lon="6.64063">
        <ele>1434</ele>
        <time>2024-05-26T09:07:18Z</time>
      </trkpt>
      <trkpt lat="43.74174" lon="6.64063">
        <ele>1434</ele>
        <time>2024-05-26T09:07:19Z</time>
      </trkpt>
      <trkpt lat="43.74173" lon="6.64063">
        <ele>1434.1</ele>
        <time>2024-05-26T09:07:20Z</time>
      </trkpt>
      <trkpt lat="43.74172" lon="6.64063">
        <ele>1434.2</ele>
        <time>2024-05-26T09:07:21Z</time>
      </trkpt>
      <trkpt lat="43.74171" lon="6.64062">
        <ele>1434.4</ele>
        <time>2024-05-26T09:07:22Z</time>
      </trkpt>
      <trkpt lat="43.7417" lon="6.64062">
        <ele>1434.4</ele>
        <time>2024-05-26T09:07:23Z</time>
      </trkpt>
      <trkpt lat="43.74169" lon="6.64061">
        <ele>1434.4</ele>
        <time>2024-05-26T09:07:24Z</time>
      </trkpt>
      <trkpt lat="43.74168" lon="6.64061">
        <ele>1434.4</ele>
        <time>2024-05-26T09:07:25Z</time>
      </trkpt>
      <trkpt lat="43.74167" lon="6.64061">
        <ele>1434.5</ele>
        <time>2024-05-26T09:07:26Z</time>
      </trkpt>
      <trkpt lat="43.74166" lon="6.6406">
        <ele>1434.5</ele>
        <time>2024-05-26T09:07:27Z</time>
      </trkpt>
      <trkpt lat="43.74166" lon="6.6406">
        <ele>1434.5</ele>
        <time>2024-05-26T09:07:28Z</time>
      </trkpt>
      <trkpt lat="43.74165" lon="6.64061">
        <ele>1434.6</ele>
        <time>2024-05-26T09:07:29Z</time>
      </trkpt>
      <trkpt lat="43.74165" lon="6.64061">
        <ele>1434.6</ele>
        <time>2024-05-26T09:07:30Z</time>
      </trkpt>
      <trkpt lat="43.74164" lon="6.64063">
        <ele>1434.7</ele>
        <time>2024-05-26T09:07:31Z</time>
      </trkpt>
      <trkpt lat="43.74164" lon="6.64064">
        <ele>1434.8</ele>
        <time>2024-05-26T09:07:32Z</time>
      </trkpt>
      <trkpt lat="43.74163" lon="6.64064">
        <ele>1434.9</ele>
        <time>2024-05-26T09:07:33Z</time>
      </trkpt>
      <trkpt lat="43.74164" lon="6.64065">
        <ele>1435</ele>
        <time>2024-05-26T09:07:34Z</time>
      </trkpt>
      <trkpt lat="43.74163" lon="6.64065">
        <ele>1435</ele>
        <time>2024-05-26T09:07:35Z</time>
      </trkpt>
      <trkpt lat="43.74163" lon="6.64065">
        <ele>1435.1</ele>
        <time>2024-05-26T09:07:36Z</time>
      </trkpt>
      <trkpt lat="43.74162" lon="6.64064">
        <ele>1435.1</ele>
        <time>2024-05-26T09:07:37Z</time>
      </trkpt>
      <trkpt lat="43.74162" lon="6.64064">
        <ele>1435.3</ele>
        <time>2024-05-26T09:07:38Z</time>
      </trkpt>
      <trkpt lat="43.74162" lon="6.64064">
        <ele>1435.3</ele>
        <time>2024-05-26T09:07:39Z</time>
      </trkpt>
      <trkpt lat="43.74162" lon="6.64064">
        <ele>1435.4</ele>
        <time>2024-05-26T09:07:40Z</time>
      </trkpt>
      <trkpt lat="43.74162" lon="6.64064">
        <ele>1435.5</ele>
        <time>2024-05-26T09:07:41Z</time>
      </trkpt>
      <trkpt lat="43.74162" lon="6.64064">
        <ele>1435.5</ele>
        <time>2024-05-26T09:07:42Z</time>
      </trkpt>
      <trkpt lat="43.74162" lon="6.64064">
        <ele>1435.5</ele>
        <time>2024-05-26T09:07:43Z</time>
      </trkpt>
      <trkpt lat="43.74161" lon="6.64064">
        <ele>1435.6</ele>
        <time>2024-05-26T09:07:44Z</time>
      </trkpt>
      <trkpt lat="43.74161" lon="6.64064">
        <ele>1435.6</ele>
        <time>2024-05-26T09:07:45Z</time>
      </trkpt>
      <trkpt lat="43.74161" lon="6.64064">
        <ele>1435.6</ele>
        <time>2024-05-26T09:07:46Z</time>
      </trkpt>
      <trkpt lat="43.74161" lon="6.64063">
        <ele>1435.6</ele>
        <time>2024-05-26T09:07:47Z</time>
      </trkpt>
      <trkpt lat="43.7416" lon="6.64063">
        <ele>1435.6</ele>
        <time>2024-05-26T09:07:48Z</time>
      </trkpt>
      <trkpt lat="43.7416" lon="6.64063">
        <ele>1435.6</ele>
        <time>2024-05-26T09:07:49Z</time>
      </trkpt>
      <trkpt lat="43.74159" lon="6.64062">
        <ele>1435.6</ele>
        <time>2024-05-26T09:07:50Z</time>
      </trkpt>
      <trkpt lat="43.74158" lon="6.64063">
        <ele>1435.6</ele>
        <time>2024-05-26T09:07:51Z</time>
      </trkpt>
      <trkpt lat="43.74157" lon="6.64063">
        <ele>1435.7</ele>
        <time>2024-05-26T09:07:52Z</time>
      </trkpt>
      <trkpt lat="43.74157" lon="6.64064">
        <ele>1435.8</ele>
        <time>2024-05-26T09:07:53Z</time>
      </trkpt>
      <trkpt lat="43.74156" lon="6.64064">
        <ele>1435.9</ele>
        <time>2024-05-26T09:07:54Z</time>
      </trkpt>
      <trkpt lat="43.74156" lon="6.64065">
        <ele>1436.1</ele>
        <time>2024-05-26T09:07:55Z</time>
      </trkpt>
      <trkpt lat="43.74156" lon="6.64065">
        <ele>1436.2</ele>
        <time>2024-05-26T09:07:56Z</time>
      </trkpt>
      <trkpt lat="43.74155" lon="6.64065">
        <ele>1436.3</ele>
        <time>2024-05-26T09:07:57Z</time>
      </trkpt>
      <trkpt lat="43.74155" lon="6.64065">
        <ele>1436.5</ele>
        <time>2024-05-26T09:07:58Z</time>
      </trkpt>
      <trkpt lat="43.74155" lon="6.64064">
        <ele>1436.6</ele>
        <time>2024-05-26T09:07:59Z</time>
      </trkpt>
      <trkpt lat="43.74154" lon="6.64065">
        <ele>1436.7</ele>
        <time>2024-05-26T09:08:00Z</time>
      </trkpt>
      <trkpt lat="43.74154" lon="6.64065">
        <ele>1436.8</ele>
        <time>2024-05-26T09:08:01Z</time>
      </trkpt>
      <trkpt lat="43.74153" lon="6.64065">
        <ele>1437</ele>
        <time>2024-05-26T09:08:02Z</time>
      </trkpt>
      <trkpt lat="43.74152" lon="6.64066">
        <ele>1437.1</ele>
        <time>2024-05-26T09:08:03Z</time>
      </trkpt>
      <trkpt lat="43.74152" lon="6.64066">
        <ele>1437.3</ele>
        <time>2024-05-26T09:08:04Z</time>
      </trkpt>
      <trkpt lat="43.74151" lon="6.64067">
        <ele>1437.4</ele>
        <time>2024-05-26T09:08:05Z</time>
      </trkpt>
      <trkpt lat="43.74151" lon="6.64068">
        <ele>1437.6</ele>
        <time>2024-05-26T09:08:06Z</time>
      </trkpt>
      <trkpt lat="43.7415" lon="6.64069">
        <ele>1437.7</ele>
        <time>2024-05-26T09:08:07Z</time>
      </trkpt>
      <trkpt lat="43.7415" lon="6.6407">
        <ele>1437.9</ele>
        <time>2024-05-26T09:08:08Z</time>
      </trkpt>
      <trkpt lat="43.7415" lon="6.64071">
        <ele>1438.1</ele>
        <time>2024-05-26T09:08:09Z</time>
      </trkpt>
      <trkpt lat="43.7415" lon="6.64072">
        <ele>1438.3</ele>
        <time>2024-05-26T09:08:10Z</time>
      </trkpt>
      <trkpt lat="43.7415" lon="6.64073">
        <ele>1438.5</ele>
        <time>2024-05-26T09:08:11Z</time>
      </trkpt>
      <trkpt lat="43.74149" lon="6.64074">
        <ele>1438.7</ele>
        <time>2024-05-26T09:08:12Z</time>
      </trkpt>
      <trkpt lat="43.74149" lon="6.64074">
        <ele>1438.8</ele>
        <time>2024-05-26T09:08:13Z</time>
      </trkpt>
      <trkpt lat="43.74149" lon="6.64075">
        <ele>1439</ele>
        <time>2024-05-26T09:08:14Z</time>
      </trkpt>
      <trkpt lat="43.74148" lon="6.64076">
        <ele>1439.1</ele>
        <time>2024-05-26T09:08:15Z</time>
      </trkpt>
      <trkpt lat="43.74148" lon="6.64076">
        <ele>1439.2</ele>
        <time>2024-05-26T09:08:16Z</time>
      </trkpt>
      <trkpt lat="43.74148" lon="6.64077">
        <ele>1439.3</ele>
        <time>2024-05-26T09:08:17Z</time>
      </trkpt>
      <trkpt lat="43.74147" lon="6.64077">
        <ele>1439.4</ele>
        <time>2024-05-26T09:08:18Z</time>
      </trkpt>
      <trkpt lat="43.74147" lon="6.64077">
        <ele>1439.5</ele>
        <time>2024-05-26T09:08:19Z</time>
      </trkpt>
      <trkpt lat="43.74146" lon="6.64077">
        <ele>1439.7</ele>
        <time>2024-05-26T09:08:20Z</time>
      </trkpt>
      <trkpt lat="43.74146" lon="6.64078">
        <ele>1439.9</ele>
        <time>2024-05-26T09:08:21Z</time>
      </trkpt>
      <trkpt lat="43.74145" lon="6.64078">
        <ele>1440.1</ele>
        <time>2024-05-26T09:08:22Z</time>
      </trkpt>
      <trkpt lat="43.74145" lon="6.64079">
        <ele>1440.2</ele>
        <time>2024-05-26T09:08:23Z</time>
      </trkpt>
      <trkpt lat="43.74145" lon="6.6408">
        <ele>1440.4</ele>
        <time>2024-05-26T09:08:24Z</time>
      </trkpt>
      <trkpt lat="43.74144" lon="6.6408">
        <ele>1440.5</ele>
        <time>2024-05-26T09:08:25Z</time>
      </trkpt>
      <trkpt lat="43.74144" lon="6.64081">
        <ele>1440.7</ele>
        <time>2024-05-26T09:08:26Z</time>
      </trkpt>
      <trkpt lat="43.74144" lon="6.64082">
        <ele>1440.8</ele>
        <time>2024-05-26T09:08:27Z</time>
      </trkpt>
      <trkpt lat="43.74143" lon="6.64083">
        <ele>1440.9</ele>
        <time>2024-05-26T09:08:28Z</time>
      </trkpt>
      <trkpt lat="43.74143" lon="6.64083">
        <ele>1441.1</ele>
        <time>2024-05-26T09:08:29Z</time>
      </trkpt>
      <trkpt lat="43.74143" lon="6.64084">
        <ele>1441.3</ele>
        <time>2024-05-26T09:08:30Z</time>
      </trkpt>
      <trkpt lat="43.74143" lon="6.64085">
        <ele>1441.4</ele>
        <time>2024-05-26T09:08:31Z</time>
      </trkpt>
      <trkpt lat="43.74142" lon="6.64085">
        <ele>1441.6</ele>
        <time>2024-05-26T09:08:32Z</time>
      </trkpt>
      <trkpt lat="43.74142" lon="6.64086">
        <ele>1441.8</ele>
        <time>2024-05-26T09:08:33Z</time>
      </trkpt>
      <trkpt lat="43.74142" lon="6.64086">
        <ele>1442</ele>
        <time>2024-05-26T09:08:34Z</time>
      </trkpt>
      <trkpt lat="43.74141" lon="6.64087">
        <ele>1442.2</ele>
        <time>2024-05-26T09:08:35Z</time>
      </trkpt>
      <trkpt lat="43.7414" lon="6.64087">
        <ele>1442.4</ele>
        <time>2024-05-26T09:08:36Z</time>
      </trkpt>
      <trkpt lat="43.7414" lon="6.64087">
        <ele>1442.6</ele>
        <time>2024-05-26T09:08:37Z</time>
      </trkpt>
      <trkpt lat="43.74139" lon="6.64087">
        <ele>1442.8</ele>
        <time>2024-05-26T09:08:38Z</time>
      </trkpt>
      <trkpt lat="43.74139" lon="6.64088">
        <ele>1442.9</ele>
        <time>2024-05-26T09:08:39Z</time>
      </trkpt>
      <trkpt lat="43.74138" lon="6.64088">
        <ele>1443</ele>
        <time>2024-05-26T09:08:40Z</time>
      </trkpt>
      <trkpt lat="43.74138" lon="6.64089">
        <ele>1443.1</ele>
        <time>2024-05-26T09:08:41Z</time>
      </trkpt>
      <trkpt lat="43.74137" lon="6.64089">
        <ele>1443.3</ele>
        <time>2024-05-26T09:08:42Z</time>
      </trkpt>
      <trkpt lat="43.74136" lon="6.6409">
        <ele>1443.4</ele>
        <time>2024-05-26T09:08:43Z</time>
      </trkpt>
      <trkpt lat="43.74136" lon="6.64091">
        <ele>1443.5</ele>
        <time>2024-05-26T09:08:44Z</time>
      </trkpt>
      <trkpt lat="43.74135" lon="6.64092">
        <ele>1443.7</ele>
        <time>2024-05-26T09:08:45Z</time>
      </trkpt>
      <trkpt lat="43.74134" lon="6.64092">
        <ele>1443.9</ele>
        <time>2024-05-26T09:08:46Z</time>
      </trkpt>
      <trkpt lat="43.74133" lon="6.64093">
        <ele>1444</ele>
        <time>2024-05-26T09:08:47Z</time>
      </trkpt>
      <trkpt lat="43.74132" lon="6.64093">
        <ele>1444.2</ele>
        <time>2024-05-26T09:08:48Z</time>
      </trkpt>
      <trkpt lat="43.74132" lon="6.64094">
        <ele>1444.3</ele>
        <time>2024-05-26T09:08:49Z</time>
      </trkpt>
      <trkpt lat="43.74131" lon="6.64096">
        <ele>1444.4</ele>
        <time>2024-05-26T09:08:50Z</time>
      </trkpt>
      <trkpt lat="43.74131" lon="6.64096">
        <ele>1444.5</ele>
        <time>2024-05-26T09:08:51Z</time>
      </trkpt>
      <trkpt lat="43.7413" lon="6.64097">
        <ele>1444.6</ele>
        <time>2024-05-26T09:08:52Z</time>
      </trkpt>
      <trkpt lat="43.7413" lon="6.64098">
        <ele>1444.8</ele>
        <time>2024-05-26T09:08:53Z</time>
      </trkpt>
      <trkpt lat="43.74129" lon="6.64098">
        <ele>1445</ele>
        <time>2024-05-26T09:08:54Z</time>
      </trkpt>
      <trkpt lat="43.74128" lon="6.64098">
        <ele>1445.2</ele>
        <time>2024-05-26T09:08:55Z</time>
      </trkpt>
      <trkpt lat="43.74127" lon="6.64099">
        <ele>1445.4</ele>
        <time>2024-05-26T09:08:56Z</time>
      </trkpt>
      <trkpt lat="43.74127" lon="6.641">
        <ele>1445.5</ele>
        <time>2024-05-26T09:08:57Z</time>
      </trkpt>
      <trkpt lat="43.74126" lon="6.641">
        <ele>1445.7</ele>
        <time>2024-05-26T09:08:58Z</time>
      </trkpt>
      <trkpt lat="43.74126" lon="6.64101">
        <ele>1445.9</ele>
        <time>2024-05-26T09:08:59Z</time>
      </trkpt>
      <trkpt lat="43.74126" lon="6.64101">
        <ele>1446</ele>
        <time>2024-05-26T09:09:00Z</time>
      </trkpt>
      <trkpt lat="43.74125" lon="6.64101">
        <ele>1446.1</ele>
        <time>2024-05-26T09:09:01Z</time>
      </trkpt>
      <trkpt lat="43.74124" lon="6.64101">
        <ele>1446.2</ele>
        <time>2024-05-26T09:09:02Z</time>
      </trkpt>
      <trkpt lat="43.74124" lon="6.64101">
        <ele>1446.4</ele>
        <time>2024-05-26T09:09:03Z</time>
      </trkpt>
      <trkpt lat="43.74123" lon="6.64101">
        <ele>1446.5</ele>
        <time>2024-05-26T09:09:04Z</time>
      </trkpt>
      <trkpt lat="43.74122" lon="6.641">
        <ele>1446.6</ele>
        <time>2024-05-26T09:09:05Z</time>
      </trkpt>
      <trkpt lat="43.74121" lon="6.641">
        <ele>1446.8</ele>
        <time>2024-05-26T09:09:06Z</time>
      </trkpt>
      <trkpt lat="43.74121" lon="6.641">
        <ele>1447</ele>
        <time>2024-05-26T09:09:07Z</time>
      </trkpt>
      <trkpt lat="43.74121" lon="6.641">
        <ele>1447.1</ele>
        <time>2024-05-26T09:09:08Z</time>
      </trkpt>
      <trkpt lat="43.74121" lon="6.64099">
        <ele>1447.3</ele>
        <time>2024-05-26T09:09:09Z</time>
      </trkpt>
      <trkpt lat="43.74121" lon="6.64099">
        <ele>1447.4</ele>
        <time>2024-05-26T09:09:10Z</time>
      </trkpt>
      <trkpt lat="43.74121" lon="6.64099">
        <ele>1447.4</ele>
        <time>2024-05-26T09:09:11Z</time>
      </trkpt>
      <trkpt lat="43.74121" lon="6.64098">
        <ele>1447.5</ele>
        <time>2024-05-26T09:09:12Z</time>
      </trkpt>
      <trkpt lat="43.74121" lon="6.64098">
        <ele>1447.6</ele>
        <time>2024-05-26T09:09:13Z</time>
      </trkpt>
      <trkpt lat="43.74121" lon="6.64097">
        <ele>1447.6</ele>
        <time>2024-05-26T09:09:14Z</time>
      </trkpt>
      <trkpt lat="43.7412" lon="6.64096">
        <ele>1447.7</ele>
        <time>2024-05-26T09:09:15Z</time>
      </trkpt>
      <trkpt lat="43.7412" lon="6.64096">
        <ele>1447.8</ele>
        <time>2024-05-26T09:09:16Z</time>
      </trkpt>
      <trkpt lat="43.74119" lon="6.64096">
        <ele>1447.9</ele>
        <time>2024-05-26T09:09:17Z</time>
      </trkpt>
      <trkpt lat="43.74119" lon="6.64095">
        <ele>1448</ele>
        <time>2024-05-26T09:09:18Z</time>
      </trkpt>
      <trkpt lat="43.74118" lon="6.64095">
        <ele>1448.1</ele>
        <time>2024-05-26T09:09:19Z</time>
      </trkpt>
      <trkpt lat="43.74117" lon="6.64095">
        <ele>1448.3</ele>
        <time>2024-05-26T09:09:20Z</time>
      </trkpt>
      <trkpt lat="43.74116" lon="6.64095">
        <ele>1448.4</ele>
        <time>2024-05-26T09:09:21Z</time>
      </trkpt>
      <trkpt lat="43.74115" lon="6.64095">
        <ele>1448.6</ele>
        <time>2024-05-26T09:09:22Z</time>
      </trkpt>
      <trkpt lat="43.74114" lon="6.64096">
        <ele>1448.7</ele>
        <time>2024-05-26T09:09:23Z</time>
      </trkpt>
      <trkpt lat="43.74113" lon="6.64096">
        <ele>1448.8</ele>
        <time>2024-05-26T09:09:24Z</time>
      </trkpt>
      <trkpt lat="43.74112" lon="6.64097">
        <ele>1448.8</ele>
        <time>2024-05-26T09:09:25Z</time>
      </trkpt>
      <trkpt lat="43.74111" lon="6.64097">
        <ele>1448.9</ele>
        <time>2024-05-26T09:09:26Z</time>
      </trkpt>
      <trkpt lat="43.7411" lon="6.64097">
        <ele>1449</ele>
        <time>2024-05-26T09:09:27Z</time>
      </trkpt>
      <trkpt lat="43.74109" lon="6.64097">
        <ele>1449.1</ele>
        <time>2024-05-26T09:09:28Z</time>
      </trkpt>
      <trkpt lat="43.74109" lon="6.64097">
        <ele>1449.2</ele>
        <time>2024-05-26T09:09:29Z</time>
      </trkpt>
      <trkpt lat="43.74109" lon="6.64097">
        <ele>1449.2</ele>
        <time>2024-05-26T09:09:30Z</time>
      </trkpt>
      <trkpt lat="43.74108" lon="6.64097">
        <ele>1449.3</ele>
        <time>2024-05-26T09:09:31Z</time>
      </trkpt>
      <trkpt lat="43.74108" lon="6.64097">
        <ele>1449.3</ele>
        <time>2024-05-26T09:09:32Z</time>
      </trkpt>
      <trkpt lat="43.74107" lon="6.64097">
        <ele>1449.4</ele>
        <time>2024-05-26T09:09:33Z</time>
      </trkpt>
      <trkpt lat="43.74106" lon="6.64097">
        <ele>1449.6</ele>
        <time>2024-05-26T09:09:34Z</time>
      </trkpt>
      <trkpt lat="43.74105" lon="6.64097">
        <ele>1449.7</ele>
        <time>2024-05-26T09:09:35Z</time>
      </trkpt>
      <trkpt lat="43.74105" lon="6.64098">
        <ele>1449.8</ele>
        <time>2024-05-26T09:09:36Z</time>
      </trkpt>
      <trkpt lat="43.74104" lon="6.64098">
        <ele>1450</ele>
        <time>2024-05-26T09:09:37Z</time>
      </trkpt>
      <trkpt lat="43.74103" lon="6.64098">
        <ele>1450.1</ele>
        <time>2024-05-26T09:09:38Z</time>
      </trkpt>
      <trkpt lat="43.74102" lon="6.64099">
        <ele>1450.2</ele>
        <time>2024-05-26T09:09:39Z</time>
      </trkpt>
      <trkpt lat="43.74101" lon="6.64099">
        <ele>1450.3</ele>
        <time>2024-05-26T09:09:40Z</time>
      </trkpt>
      <trkpt lat="43.741" lon="6.64099">
        <ele>1450.5</ele>
        <time>2024-05-26T09:09:41Z</time>
      </trkpt>
      <trkpt lat="43.74099" lon="6.64099">
        <ele>1450.6</ele>
        <time>2024-05-26T09:09:42Z</time>
      </trkpt>
      <trkpt lat="43.74098" lon="6.64099">
        <ele>1450.7</ele>
        <time>2024-05-26T09:09:43Z</time>
      </trkpt>
      <trkpt lat="43.74097" lon="6.64099">
        <ele>1450.9</ele>
        <time>2024-05-26T09:09:44Z</time>
      </trkpt>
      <trkpt lat="43.74096" lon="6.641">
        <ele>1451.1</ele>
        <time>2024-05-26T09:09:45Z</time>
      </trkpt>
      <trkpt lat="43.74095" lon="6.641">
        <ele>1451.2</ele>
        <time>2024-05-26T09:09:46Z</time>
      </trkpt>
      <trkpt lat="43.74094" lon="6.641">
        <ele>1451.3</ele>
        <time>2024-05-26T09:09:47Z</time>
      </trkpt>
      <trkpt lat="43.74094" lon="6.641">
        <ele>1451.3</ele>
        <time>2024-05-26T09:09:48Z</time>
      </trkpt>
      <trkpt lat="43.74093" lon="6.641">
        <ele>1451.4</ele>
        <time>2024-05-26T09:09:49Z</time>
      </trkpt>
      <trkpt lat="43.74092" lon="6.641">
        <ele>1451.5</ele>
        <time>2024-05-26T09:09:50Z</time>
      </trkpt>
      <trkpt lat="43.74091" lon="6.641">
        <ele>1451.5</ele>
        <time>2024-05-26T09:09:51Z</time>
      </trkpt>
      <trkpt lat="43.7409" lon="6.641">
        <ele>1451.5</ele>
        <time>2024-05-26T09:09:52Z</time>
      </trkpt>
      <trkpt lat="43.74089" lon="6.641">
        <ele>1451.6</ele>
        <time>2024-05-26T09:09:53Z</time>
      </trkpt>
      <trkpt lat="43.74088" lon="6.641">
        <ele>1451.7</ele>
        <time>2024-05-26T09:09:54Z</time>
      </trkpt>
      <trkpt lat="43.74087" lon="6.641">
        <ele>1451.8</ele>
        <time>2024-05-26T09:09:55Z</time>
      </trkpt>
      <trkpt lat="43.74086" lon="6.641">
        <ele>1451.8</ele>
        <time>2024-05-26T09:09:56Z</time>
      </trkpt>
      <trkpt lat="43.74085" lon="6.641">
        <ele>1451.9</ele>
        <time>2024-05-26T09:09:57Z</time>
      </trkpt>
      <trkpt lat="43.74084" lon="6.641">
        <ele>1452</ele>
        <time>2024-05-26T09:09:58Z</time>
      </trkpt>
      <trkpt lat="43.74083" lon="6.641">
        <ele>1452.2</ele>
        <time>2024-05-26T09:09:59Z</time>
      </trkpt>
      <trkpt lat="43.74082" lon="6.641">
        <ele>1452.2</ele>
        <time>2024-05-26T09:10:00Z</time>
      </trkpt>
      <trkpt lat="43.74082" lon="6.641">
        <ele>1452.3</ele>
        <time>2024-05-26T09:10:01Z</time>
      </trkpt>
      <trkpt lat="43.74081" lon="6.64101">
        <ele>1452.3</ele>
        <time>2024-05-26T09:10:02Z</time>
      </trkpt>
      <trkpt lat="43.7408" lon="6.64102">
        <ele>1452.3</ele>
        <time>2024-05-26T09:10:03Z</time>
      </trkpt>
      <trkpt lat="43.7408" lon="6.64102">
        <ele>1452.4</ele>
        <time>2024-05-26T09:10:04Z</time>
      </trkpt>
      <trkpt lat="43.74079" lon="6.64103">
        <ele>1452.5</ele>
        <time>2024-05-26T09:10:05Z</time>
      </trkpt>
      <trkpt lat="43.74079" lon="6.64104">
        <ele>1452.6</ele>
        <time>2024-05-26T09:10:06Z</time>
      </trkpt>
      <trkpt lat="43.74078" lon="6.64105">
        <ele>1452.8</ele>
        <time>2024-05-26T09:10:07Z</time>
      </trkpt>
      <trkpt lat="43.74077" lon="6.64106">
        <ele>1452.9</ele>
        <time>2024-05-26T09:10:08Z</time>
      </trkpt>
      <trkpt lat="43.74077" lon="6.64106">
        <ele>1453</ele>
        <time>2024-05-26T09:10:09Z</time>
      </trkpt>
      <trkpt lat="43.74077" lon="6.64107">
        <ele>1453.1</ele>
        <time>2024-05-26T09:10:10Z</time>
      </trkpt>
      <trkpt lat="43.74076" lon="6.64108">
        <ele>1453.3</ele>
        <time>2024-05-26T09:10:11Z</time>
      </trkpt>
      <trkpt lat="43.74076" lon="6.64108">
        <ele>1453.4</ele>
        <time>2024-05-26T09:10:12Z</time>
      </trkpt>
      <trkpt lat="43.74075" lon="6.64109">
        <ele>1453.5</ele>
        <time>2024-05-26T09:10:13Z</time>
      </trkpt>
      <trkpt lat="43.74074" lon="6.6411">
        <ele>1453.6</ele>
        <time>2024-05-26T09:10:14Z</time>
      </trkpt>
      <trkpt lat="43.74074" lon="6.6411">
        <ele>1453.7</ele>
        <time>2024-05-26T09:10:15Z</time>
      </trkpt>
      <trkpt lat="43.74073" lon="6.64111">
        <ele>1453.9</ele>
        <time>2024-05-26T09:10:16Z</time>
      </trkpt>
      <trkpt lat="43.74073" lon="6.64112">
        <ele>1454.1</ele>
        <time>2024-05-26T09:10:17Z</time>
      </trkpt>
      <trkpt lat="43.74072" lon="6.64113">
        <ele>1454.3</ele>
        <time>2024-05-26T09:10:18Z</time>
      </trkpt>
      <trkpt lat="43.74072" lon="6.64113">
        <ele>1454.5</ele>
        <time>2024-05-26T09:10:19Z</time>
      </trkpt>
      <trkpt lat="43.74072" lon="6.64114">
        <ele>1454.6</ele>
        <time>2024-05-26T09:10:20Z</time>
      </trkpt>
      <trkpt lat="43.74072" lon="6.64115">
        <ele>1454.7</ele>
        <time>2024-05-26T09:10:21Z</time>
      </trkpt>
      <trkpt lat="43.74071" lon="6.64116">
        <ele>1454.8</ele>
        <time>2024-05-26T09:10:22Z</time>
      </trkpt>
      <trkpt lat="43.7407" lon="6.64117">
        <ele>1455</ele>
        <time>2024-05-26T09:10:23Z</time>
      </trkpt>
      <trkpt lat="43.7407" lon="6.64117">
        <ele>1455.1</ele>
        <time>2024-05-26T09:10:24Z</time>
      </trkpt>
      <trkpt lat="43.74069" lon="6.64117">
        <ele>1455.2</ele>
        <time>2024-05-26T09:10:25Z</time>
      </trkpt>
      <trkpt lat="43.74069" lon="6.64117">
        <ele>1455.2</ele>
        <time>2024-05-26T09:10:26Z</time>
      </trkpt>
      <trkpt lat="43.74068" lon="6.64118">
        <ele>1455.5</ele>
        <time>2024-05-26T09:10:27Z</time>
      </trkpt>
      <trkpt lat="43.74067" lon="6.64119">
        <ele>1455.7</ele>
        <time>2024-05-26T09:10:28Z</time>
      </trkpt>
      <trkpt lat="43.74067" lon="6.64119">
        <ele>1455.7</ele>
        <time>2024-05-26T09:10:29Z</time>
      </trkpt>
      <trkpt lat="43.74066" lon="6.6412">
        <ele>1455.8</ele>
        <time>2024-05-26T09:10:30Z</time>
      </trkpt>
      <trkpt lat="43.74066" lon="6.6412">
        <ele>1455.9</ele>
        <time>2024-05-26T09:10:31Z</time>
      </trkpt>
      <trkpt lat="43.74065" lon="6.64121">
        <ele>1456</ele>
        <time>2024-05-26T09:10:32Z</time>
      </trkpt>
      <trkpt lat="43.74064" lon="6.64121">
        <ele>1456.1</ele>
        <time>2024-05-26T09:10:33Z</time>
      </trkpt>
      <trkpt lat="43.74064" lon="6.64122">
        <ele>1456.2</ele>
        <time>2024-05-26T09:10:34Z</time>
      </trkpt>
      <trkpt lat="43.74063" lon="6.64123">
        <ele>1456.3</ele>
        <time>2024-05-26T09:10:35Z</time>
      </trkpt>
      <trkpt lat="43.74062" lon="6.64124">
        <ele>1456.4</ele>
        <time>2024-05-26T09:10:36Z</time>
      </trkpt>
      <trkpt lat="43.74062" lon="6.64124">
        <ele>1456.5</ele>
        <time>2024-05-26T09:10:37Z</time>
      </trkpt>
      <trkpt lat="43.74061" lon="6.64125">
        <ele>1456.8</ele>
        <time>2024-05-26T09:10:38Z</time>
      </trkpt>
      <trkpt lat="43.74061" lon="6.64126">
        <ele>1457.1</ele>
        <time>2024-05-26T09:10:39Z</time>
      </trkpt>
      <trkpt lat="43.7406" lon="6.64127">
        <ele>1457.4</ele>
        <time>2024-05-26T09:10:40Z</time>
      </trkpt>
      <trkpt lat="43.7406" lon="6.64128">
        <ele>1457.6</ele>
        <time>2024-05-26T09:10:41Z</time>
      </trkpt>
      <trkpt lat="43.74059" lon="6.64129">
        <ele>1457.7</ele>
        <time>2024-05-26T09:10:42Z</time>
      </trkpt>
      <trkpt lat="43.74059" lon="6.64129">
        <ele>1457.9</ele>
        <time>2024-05-26T09:10:43Z</time>
      </trkpt>
      <trkpt lat="43.74058" lon="6.6413">
        <ele>1458</ele>
        <time>2024-05-26T09:10:44Z</time>
      </trkpt>
      <trkpt lat="43.74058" lon="6.64131">
        <ele>1458.1</ele>
        <time>2024-05-26T09:10:45Z</time>
      </trkpt>
      <trkpt lat="43.74057" lon="6.64132">
        <ele>1458.2</ele>
        <time>2024-05-26T09:10:46Z</time>
      </trkpt>
      <trkpt lat="43.74058" lon="6.64133">
        <ele>1458.3</ele>
        <time>2024-05-26T09:10:47Z</time>
      </trkpt>
      <trkpt lat="43.74057" lon="6.64134">
        <ele>1458.4</ele>
        <time>2024-05-26T09:10:48Z</time>
      </trkpt>
      <trkpt lat="43.74057" lon="6.64135">
        <ele>1458.5</ele>
        <time>2024-05-26T09:10:49Z</time>
      </trkpt>
      <trkpt lat="43.74057" lon="6.64136">
        <ele>1458.7</ele>
        <time>2024-05-26T09:10:50Z</time>
      </trkpt>
      <trkpt lat="43.74056" lon="6.64137">
        <ele>1458.8</ele>
        <time>2024-05-26T09:10:51Z</time>
      </trkpt>
      <trkpt lat="43.74056" lon="6.64137">
        <ele>1459</ele>
        <time>2024-05-26T09:10:52Z</time>
      </trkpt>
      <trkpt lat="43.74057" lon="6.64138">
        <ele>1459.1</ele>
        <time>2024-05-26T09:10:53Z</time>
      </trkpt>
      <trkpt lat="43.74056" lon="6.64139">
        <ele>1459.3</ele>
        <time>2024-05-26T09:10:54Z</time>
      </trkpt>
      <trkpt lat="43.74056" lon="6.64139">
        <ele>1459.4</ele>
        <time>2024-05-26T09:10:55Z</time>
      </trkpt>
      <trkpt lat="43.74055" lon="6.6414">
        <ele>1459.5</ele>
        <time>2024-05-26T09:10:56Z</time>
      </trkpt>
      <trkpt lat="43.74055" lon="6.6414">
        <ele>1459.5</ele>
        <time>2024-05-26T09:10:57Z</time>
      </trkpt>
      <trkpt lat="43.74055" lon="6.6414">
        <ele>1459.6</ele>
        <time>2024-05-26T09:10:58Z</time>
      </trkpt>
      <trkpt lat="43.74054" lon="6.6414">
        <ele>1459.7</ele>
        <time>2024-05-26T09:10:59Z</time>
      </trkpt>
      <trkpt lat="43.74053" lon="6.64141">
        <ele>1459.8</ele>
        <time>2024-05-26T09:11:00Z</time>
      </trkpt>
      <trkpt lat="43.74053" lon="6.64142">
        <ele>1459.9</ele>
        <time>2024-05-26T09:11:01Z</time>
      </trkpt>
      <trkpt lat="43.74052" lon="6.64142">
        <ele>1460</ele>
        <time>2024-05-26T09:11:02Z</time>
      </trkpt>
      <trkpt lat="43.74052" lon="6.64143">
        <ele>1460.2</ele>
        <time>2024-05-26T09:11:03Z</time>
      </trkpt>
      <trkpt lat="43.74052" lon="6.64144">
        <ele>1460.5</ele>
        <time>2024-05-26T09:11:04Z</time>
      </trkpt>
      <trkpt lat="43.74051" lon="6.64144">
        <ele>1460.7</ele>
        <time>2024-05-26T09:11:05Z</time>
      </trkpt>
      <trkpt lat="43.74051" lon="6.64144">
        <ele>1460.8</ele>
        <time>2024-05-26T09:11:06Z</time>
      </trkpt>
      <trkpt lat="43.7405" lon="6.64145">
        <ele>1460.9</ele>
        <time>2024-05-26T09:11:07Z</time>
      </trkpt>
      <trkpt lat="43.7405" lon="6.64146">
        <ele>1461.1</ele>
        <time>2024-05-26T09:11:08Z</time>
      </trkpt>
      <trkpt lat="43.7405" lon="6.64147">
        <ele>1461.3</ele>
        <time>2024-05-26T09:11:09Z</time>
      </trkpt>
      <trkpt lat="43.74049" lon="6.64148">
        <ele>1461.4</ele>
        <time>2024-05-26T09:11:10Z</time>
      </trkpt>
      <trkpt lat="43.74049" lon="6.64149">
        <ele>1461.6</ele>
        <time>2024-05-26T09:11:11Z</time>
      </trkpt>
      <trkpt lat="43.74048" lon="6.64149">
        <ele>1461.7</ele>
        <time>2024-05-26T09:11:12Z</time>
      </trkpt>
      <trkpt lat="43.74048" lon="6.6415">
        <ele>1461.9</ele>
        <time>2024-05-26T09:11:13Z</time>
      </trkpt>
      <trkpt lat="43.74047" lon="6.6415">
        <ele>1462.1</ele>
        <time>2024-05-26T09:11:14Z</time>
      </trkpt>
      <trkpt lat="43.74046" lon="6.64151">
        <ele>1462.3</ele>
        <time>2024-05-26T09:11:15Z</time>
      </trkpt>
      <trkpt lat="43.74046" lon="6.64152">
        <ele>1462.5</ele>
        <time>2024-05-26T09:11:16Z</time>
      </trkpt>
      <trkpt lat="43.74045" lon="6.64153">
        <ele>1462.7</ele>
        <time>2024-05-26T09:11:17Z</time>
      </trkpt>
      <trkpt lat="43.74045" lon="6.64154">
        <ele>1462.9</ele>
        <time>2024-05-26T09:11:18Z</time>
      </trkpt>
      <trkpt lat="43.74044" lon="6.64154">
        <ele>1463.1</ele>
        <time>2024-05-26T09:11:19Z</time>
      </trkpt>
      <trkpt lat="43.74044" lon="6.64155">
        <ele>1463.3</ele>
        <time>2024-05-26T09:11:20Z</time>
      </trkpt>
      <trkpt lat="43.74043" lon="6.64156">
        <ele>1463.5</ele>
        <time>2024-05-26T09:11:21Z</time>
      </trkpt>
      <trkpt lat="43.74043" lon="6.64156">
        <ele>1463.7</ele>
        <time>2024-05-26T09:11:22Z</time>
      </trkpt>
      <trkpt lat="43.74042" lon="6.64158">
        <ele>1463.9</ele>
        <time>2024-05-26T09:11:23Z</time>
      </trkpt>
      <trkpt lat="43.74042" lon="6.64159">
        <ele>1464.1</ele>
        <time>2024-05-26T09:11:24Z</time>
      </trkpt>
      <trkpt lat="43.74042" lon="6.6416">
        <ele>1464.2</ele>
        <time>2024-05-26T09:11:25Z</time>
      </trkpt>
      <trkpt lat="43.74042" lon="6.64161">
        <ele>1464.2</ele>
        <time>2024-05-26T09:11:26Z</time>
      </trkpt>
      <trkpt lat="43.74041" lon="6.64162">
        <ele>1464.2</ele>
        <time>2024-05-26T09:11:27Z</time>
      </trkpt>
      <trkpt lat="43.74041" lon="6.64163">
        <ele>1464.3</ele>
        <time>2024-05-26T09:11:28Z</time>
      </trkpt>
      <trkpt lat="43.7404" lon="6.64163">
        <ele>1464.5</ele>
        <time>2024-05-26T09:11:29Z</time>
      </trkpt>
      <trkpt lat="43.7404" lon="6.64164">
        <ele>1464.6</ele>
        <time>2024-05-26T09:11:30Z</time>
      </trkpt>
      <trkpt lat="43.74039" lon="6.64164">
        <ele>1464.8</ele>
        <time>2024-05-26T09:11:31Z</time>
      </trkpt>
      <trkpt lat="43.74039" lon="6.64164">
        <ele>1464.9</ele>
        <time>2024-05-26T09:11:32Z</time>
      </trkpt>
      <trkpt lat="43.74038" lon="6.64165">
        <ele>1465.1</ele>
        <time>2024-05-26T09:11:33Z</time>
      </trkpt>
      <trkpt lat="43.74038" lon="6.64165">
        <ele>1465.2</ele>
        <time>2024-05-26T09:11:34Z</time>
      </trkpt>
      <trkpt lat="43.74037" lon="6.64166">
        <ele>1465.4</ele>
        <time>2024-05-26T09:11:35Z</time>
      </trkpt>
      <trkpt lat="43.74036" lon="6.64166">
        <ele>1465.5</ele>
        <time>2024-05-26T09:11:36Z</time>
      </trkpt>
      <trkpt lat="43.74036" lon="6.64167">
        <ele>1465.7</ele>
        <time>2024-05-26T09:11:37Z</time>
      </trkpt>
      <trkpt lat="43.74035" lon="6.64168">
        <ele>1466</ele>
        <time>2024-05-26T09:11:38Z</time>
      </trkpt>
      <trkpt lat="43.74035" lon="6.64169">
        <ele>1466.2</ele>
        <time>2024-05-26T09:11:39Z</time>
      </trkpt>
      <trkpt lat="43.74035" lon="6.6417">
        <ele>1466.2</ele>
        <time>2024-05-26T09:11:40Z</time>
      </trkpt>
      <trkpt lat="43.74034" lon="6.64171">
        <ele>1466.3</ele>
        <time>2024-05-26T09:11:41Z</time>
      </trkpt>
      <trkpt lat="43.74034" lon="6.64172">
        <ele>1466.4</ele>
        <time>2024-05-26T09:11:42Z</time>
      </trkpt>
      <trkpt lat="43.74034" lon="6.64172">
        <ele>1466.6</ele>
        <time>2024-05-26T09:11:43Z</time>
      </trkpt>
      <trkpt lat="43.74033" lon="6.64173">
        <ele>1466.7</ele>
        <time>2024-05-26T09:11:44Z</time>
      </trkpt>
      <trkpt lat="43.74032" lon="6.64173">
        <ele>1466.8</ele>
        <time>2024-05-26T09:11:45Z</time>
      </trkpt>
      <trkpt lat="43.74032" lon="6.64174">
        <ele>1467.1</ele>
        <time>2024-05-26T09:11:46Z</time>
      </trkpt>
      <trkpt lat="43.74031" lon="6.64175">
        <ele>1467.3</ele>
        <time>2024-05-26T09:11:47Z</time>
      </trkpt>
      <trkpt lat="43.74031" lon="6.64176">
        <ele>1467.4</ele>
        <time>2024-05-26T09:11:48Z</time>
      </trkpt>
      <trkpt lat="43.74031" lon="6.64177">
        <ele>1467.6</ele>
        <time>2024-05-26T09:11:49Z</time>
      </trkpt>
      <trkpt lat="43.7403" lon="6.64178">
        <ele>1467.7</ele>
        <time>2024-05-26T09:11:50Z</time>
      </trkpt>
      <trkpt lat="43.7403" lon="6.64179">
        <ele>1467.8</ele>
        <time>2024-05-26T09:11:51Z</time>
      </trkpt>
      <trkpt lat="43.7403" lon="6.6418">
        <ele>1467.9</ele>
        <time>2024-05-26T09:11:52Z</time>
      </trkpt>
      <trkpt lat="43.74029" lon="6.64181">
        <ele>1468.1</ele>
        <time>2024-05-26T09:11:53Z</time>
      </trkpt>
      <trkpt lat="43.74029" lon="6.64182">
        <ele>1468.2</ele>
        <time>2024-05-26T09:11:54Z</time>
      </trkpt>
      <trkpt lat="43.74029" lon="6.64182">
        <ele>1468.4</ele>
        <time>2024-05-26T09:11:55Z</time>
      </trkpt>
      <trkpt lat="43.74029" lon="6.64183">
        <ele>1468.5</ele>
        <time>2024-05-26T09:11:56Z</time>
      </trkpt>
      <trkpt lat="43.74029" lon="6.64184">
        <ele>1468.7</ele>
        <time>2024-05-26T09:11:57Z</time>
      </trkpt>
      <trkpt lat="43.74029" lon="6.64184">
        <ele>1468.9</ele>
        <time>2024-05-26T09:11:58Z</time>
      </trkpt>
      <trkpt lat="43.74029" lon="6.64184">
        <ele>1469</ele>
        <time>2024-05-26T09:11:59Z</time>
      </trkpt>
      <trkpt lat="43.74028" lon="6.64184">
        <ele>1469.1</ele>
        <time>2024-05-26T09:12:00Z</time>
      </trkpt>
      <trkpt lat="43.74028" lon="6.64185">
        <ele>1469.1</ele>
        <time>2024-05-26T09:12:01Z</time>
      </trkpt>
      <trkpt lat="43.74027" lon="6.64186">
        <ele>1469.2</ele>
        <time>2024-05-26T09:12:02Z</time>
      </trkpt>
      <trkpt lat="43.74027" lon="6.64188">
        <ele>1469.3</ele>
        <time>2024-05-26T09:12:03Z</time>
      </trkpt>
      <trkpt lat="43.74027" lon="6.64189">
        <ele>1469.4</ele>
        <time>2024-05-26T09:12:04Z</time>
      </trkpt>
      <trkpt lat="43.74027" lon="6.6419">
        <ele>1469.4</ele>
        <time>2024-05-26T09:12:05Z</time>
      </trkpt>
      <trkpt lat="43.74027" lon="6.6419">
        <ele>1469.5</ele>
        <time>2024-05-26T09:12:06Z</time>
      </trkpt>
      <trkpt lat="43.74026" lon="6.64191">
        <ele>1469.6</ele>
        <time>2024-05-26T09:12:07Z</time>
      </trkpt>
      <trkpt lat="43.74026" lon="6.64192">
        <ele>1469.7</ele>
        <time>2024-05-26T09:12:08Z</time>
      </trkpt>
      <trkpt lat="43.74026" lon="6.64193">
        <ele>1469.8</ele>
        <time>2024-05-26T09:12:09Z</time>
      </trkpt>
      <trkpt lat="43.74025" lon="6.64194">
        <ele>1469.9</ele>
        <time>2024-05-26T09:12:10Z</time>
      </trkpt>
      <trkpt lat="43.74025" lon="6.64195">
        <ele>1470</ele>
        <time>2024-05-26T09:12:11Z</time>
      </trkpt>
      <trkpt lat="43.74025" lon="6.64196">
        <ele>1470.3</ele>
        <time>2024-05-26T09:12:12Z</time>
      </trkpt>
      <trkpt lat="43.74024" lon="6.64197">
        <ele>1470.5</ele>
        <time>2024-05-26T09:12:13Z</time>
      </trkpt>
      <trkpt lat="43.74024" lon="6.64197">
        <ele>1470.7</ele>
        <time>2024-05-26T09:12:14Z</time>
      </trkpt>
      <trkpt lat="43.74023" lon="6.64199">
        <ele>1470.9</ele>
        <time>2024-05-26T09:12:15Z</time>
      </trkpt>
      <trkpt lat="43.74023" lon="6.642">
        <ele>1471.1</ele>
        <time>2024-05-26T09:12:16Z</time>
      </trkpt>
      <trkpt lat="43.74023" lon="6.64201">
        <ele>1471.3</ele>
        <time>2024-05-26T09:12:17Z</time>
      </trkpt>
      <trkpt lat="43.74023" lon="6.64202">
        <ele>1471.4</ele>
        <time>2024-05-26T09:12:18Z</time>
      </trkpt>
      <trkpt lat="43.74022" lon="6.64203">
        <ele>1471.5</ele>
        <time>2024-05-26T09:12:19Z</time>
      </trkpt>
      <trkpt lat="43.74022" lon="6.64204">
        <ele>1471.7</ele>
        <time>2024-05-26T09:12:20Z</time>
      </trkpt>
      <trkpt lat="43.74023" lon="6.64205">
        <ele>1471.9</ele>
        <time>2024-05-26T09:12:21Z</time>
      </trkpt>
      <trkpt lat="43.74023" lon="6.64205">
        <ele>1472</ele>
        <time>2024-05-26T09:12:22Z</time>
      </trkpt>
      <trkpt lat="43.74023" lon="6.64206">
        <ele>1472.1</ele>
        <time>2024-05-26T09:12:23Z</time>
      </trkpt>
      <trkpt lat="43.74023" lon="6.64207">
        <ele>1472.3</ele>
        <time>2024-05-26T09:12:24Z</time>
      </trkpt>
      <trkpt lat="43.74023" lon="6.64208">
        <ele>1472.4</ele>
        <time>2024-05-26T09:12:25Z</time>
      </trkpt>
      <trkpt lat="43.74023" lon="6.64209">
        <ele>1472.5</ele>
        <time>2024-05-26T09:12:26Z</time>
      </trkpt>
      <trkpt lat="43.74023" lon="6.64209">
        <ele>1472.6</ele>
        <time>2024-05-26T09:12:27Z</time>
      </trkpt>
      <trkpt lat="43.74022" lon="6.6421">
        <ele>1472.7</ele>
        <time>2024-05-26T09:12:28Z</time>
      </trkpt>
      <trkpt lat="43.74021" lon="6.6421">
        <ele>1472.9</ele>
        <time>2024-05-26T09:12:29Z</time>
      </trkpt>
      <trkpt lat="43.74021" lon="6.64211">
        <ele>1473</ele>
        <time>2024-05-26T09:12:30Z</time>
      </trkpt>
      <trkpt lat="43.7402" lon="6.64212">
        <ele>1473.2</ele>
        <time>2024-05-26T09:12:31Z</time>
      </trkpt>
      <trkpt lat="43.7402" lon="6.64214">
        <ele>1473.3</ele>
        <time>2024-05-26T09:12:32Z</time>
      </trkpt>
      <trkpt lat="43.7402" lon="6.64215">
        <ele>1473.4</ele>
        <time>2024-05-26T09:12:33Z</time>
      </trkpt>
      <trkpt lat="43.7402" lon="6.64216">
        <ele>1473.5</ele>
        <time>2024-05-26T09:12:34Z</time>
      </trkpt>
      <trkpt lat="43.7402" lon="6.64217">
        <ele>1473.6</ele>
        <time>2024-05-26T09:12:35Z</time>
      </trkpt>
      <trkpt lat="43.7402" lon="6.64218">
        <ele>1473.7</ele>
        <time>2024-05-26T09:12:36Z</time>
      </trkpt>
      <trkpt lat="43.74019" lon="6.64219">
        <ele>1473.9</ele>
        <time>2024-05-26T09:12:37Z</time>
      </trkpt>
      <trkpt lat="43.74019" lon="6.6422">
        <ele>1474</ele>
        <time>2024-05-26T09:12:38Z</time>
      </trkpt>
      <trkpt lat="43.74018" lon="6.64221">
        <ele>1474.2</ele>
        <time>2024-05-26T09:12:39Z</time>
      </trkpt>
      <trkpt lat="43.74017" lon="6.64222">
        <ele>1474.4</ele>
        <time>2024-05-26T09:12:40Z</time>
      </trkpt>
      <trkpt lat="43.74016" lon="6.64222">
        <ele>1474.6</ele>
        <time>2024-05-26T09:12:41Z</time>
      </trkpt>
      <trkpt lat="43.74016" lon="6.64223">
        <ele>1474.8</ele>
        <time>2024-05-26T09:12:42Z</time>
      </trkpt>
      <trkpt lat="43.74015" lon="6.64224">
        <ele>1475</ele>
        <time>2024-05-26T09:12:43Z</time>
      </trkpt>
      <trkpt lat="43.74015" lon="6.64225">
        <ele>1475.2</ele>
        <time>2024-05-26T09:12:44Z</time>
      </trkpt>
      <trkpt lat="43.74014" lon="6.64226">
        <ele>1475.4</ele>
        <time>2024-05-26T09:12:45Z</time>
      </trkpt>
      <trkpt lat="43.74014" lon="6.64227">
        <ele>1475.5</ele>
        <time>2024-05-26T09:12:46Z</time>
      </trkpt>
      <trkpt lat="43.74013" lon="6.64228">
        <ele>1475.7</ele>
        <time>2024-05-26T09:12:47Z</time>
      </trkpt>
      <trkpt lat="43.74013" lon="6.64229">
        <ele>1475.8</ele>
        <time>2024-05-26T09:12:48Z</time>
      </trkpt>
      <trkpt lat="43.74012" lon="6.6423">
        <ele>1475.9</ele>
        <time>2024-05-26T09:12:49Z</time>
      </trkpt>
      <trkpt lat="43.74012" lon="6.64231">
        <ele>1476</ele>
        <time>2024-05-26T09:12:50Z</time>
      </trkpt>
      <trkpt lat="43.74011" lon="6.64232">
        <ele>1476.1</ele>
        <time>2024-05-26T09:12:51Z</time>
      </trkpt>
      <trkpt lat="43.74011" lon="6.64233">
        <ele>1476.4</ele>
        <time>2024-05-26T09:12:52Z</time>
      </trkpt>
      <trkpt lat="43.74011" lon="6.64234">
        <ele>1476.6</ele>
        <time>2024-05-26T09:12:53Z</time>
      </trkpt>
      <trkpt lat="43.7401" lon="6.64235">
        <ele>1476.9</ele>
        <time>2024-05-26T09:12:54Z</time>
      </trkpt>
      <trkpt lat="43.74009" lon="6.64236">
        <ele>1477.1</ele>
        <time>2024-05-26T09:12:55Z</time>
      </trkpt>
      <trkpt lat="43.74009" lon="6.64237">
        <ele>1477.2</ele>
        <time>2024-05-26T09:12:56Z</time>
      </trkpt>
      <trkpt lat="43.74008" lon="6.64238">
        <ele>1477.5</ele>
        <time>2024-05-26T09:12:57Z</time>
      </trkpt>
      <trkpt lat="43.74007" lon="6.64239">
        <ele>1477.8</ele>
        <time>2024-05-26T09:12:58Z</time>
      </trkpt>
      <trkpt lat="43.74007" lon="6.6424">
        <ele>1478.1</ele>
        <time>2024-05-26T09:12:59Z</time>
      </trkpt>
      <trkpt lat="43.74006" lon="6.64241">
        <ele>1478.2</ele>
        <time>2024-05-26T09:13:00Z</time>
      </trkpt>
      <trkpt lat="43.74006" lon="6.64242">
        <ele>1478.4</ele>
        <time>2024-05-26T09:13:01Z</time>
      </trkpt>
      <trkpt lat="43.74005" lon="6.64243">
        <ele>1478.6</ele>
        <time>2024-05-26T09:13:02Z</time>
      </trkpt>
      <trkpt lat="43.74004" lon="6.64244">
        <ele>1478.9</ele>
        <time>2024-05-26T09:13:03Z</time>
      </trkpt>
      <trkpt lat="43.74004" lon="6.64244">
        <ele>1479.1</ele>
        <time>2024-05-26T09:13:04Z</time>
      </trkpt>
      <trkpt lat="43.74003" lon="6.64245">
        <ele>1479.3</ele>
        <time>2024-05-26T09:13:05Z</time>
      </trkpt>
      <trkpt lat="43.74002" lon="6.64246">
        <ele>1479.4</ele>
        <time>2024-05-26T09:13:06Z</time>
      </trkpt>
      <trkpt lat="43.74002" lon="6.64247">
        <ele>1479.5</ele>
        <time>2024-05-26T09:13:07Z</time>
      </trkpt>
      <trkpt lat="43.74001" lon="6.64248">
        <ele>1479.8</ele>
        <time>2024-05-26T09:13:08Z</time>
      </trkpt>
      <trkpt lat="43.74001" lon="6.64249">
        <ele>1480</ele>
        <time>2024-05-26T09:13:09Z</time>
      </trkpt>
      <trkpt lat="43.74" lon="6.6425">
        <ele>1480.2</ele>
        <time>2024-05-26T09:13:10Z</time>
      </trkpt>
      <trkpt lat="43.73999" lon="6.64251">
        <ele>1480.4</ele>
        <time>2024-05-26T09:13:11Z</time>
      </trkpt>
      <trkpt lat="43.73999" lon="6.64252">
        <ele>1480.6</ele>
        <time>2024-05-26T09:13:12Z</time>
      </trkpt>
      <trkpt lat="43.73998" lon="6.64253">
        <ele>1480.7</ele>
        <time>2024-05-26T09:13:13Z</time>
      </trkpt>
      <trkpt lat="43.73998" lon="6.64254">
        <ele>1480.9</ele>
        <time>2024-05-26T09:13:14Z</time>
      </trkpt>
      <trkpt lat="43.73997" lon="6.64255">
        <ele>1481.2</ele>
        <time>2024-05-26T09:13:15Z</time>
      </trkpt>
      <trkpt lat="43.73997" lon="6.64256">
        <ele>1481.4</ele>
        <time>2024-05-26T09:13:16Z</time>
      </trkpt>
      <trkpt lat="43.73996" lon="6.64257">
        <ele>1481.6</ele>
        <time>2024-05-26T09:13:17Z</time>
      </trkpt>
      <trkpt lat="43.73996" lon="6.64257">
        <ele>1481.8</ele>
        <time>2024-05-26T09:13:18Z</time>
      </trkpt>
      <trkpt lat="43.73995" lon="6.64258">
        <ele>1482</ele>
        <time>2024-05-26T09:13:19Z</time>
      </trkpt>
      <trkpt lat="43.73995" lon="6.64259">
        <ele>1482.2</ele>
        <time>2024-05-26T09:13:20Z</time>
      </trkpt>
      <trkpt lat="43.73994" lon="6.6426">
        <ele>1482.4</ele>
        <time>2024-05-26T09:13:21Z</time>
      </trkpt>
      <trkpt lat="43.73994" lon="6.64261">
        <ele>1482.6</ele>
        <time>2024-05-26T09:13:22Z</time>
      </trkpt>
      <trkpt lat="43.73993" lon="6.64262">
        <ele>1482.7</ele>
        <time>2024-05-26T09:13:23Z</time>
      </trkpt>
      <trkpt lat="43.73993" lon="6.64263">
        <ele>1482.9</ele>
        <time>2024-05-26T09:13:24Z</time>
      </trkpt>
      <trkpt lat="43.73993" lon="6.64264">
        <ele>1483.1</ele>
        <time>2024-05-26T09:13:25Z</time>
      </trkpt>
      <trkpt lat="43.73993" lon="6.64265">
        <ele>1483.2</ele>
        <time>2024-05-26T09:13:26Z</time>
      </trkpt>
      <trkpt lat="43.73993" lon="6.64266">
        <ele>1483.5</ele>
        <time>2024-05-26T09:13:27Z</time>
      </trkpt>
      <trkpt lat="43.73992" lon="6.64267">
        <ele>1483.8</ele>
        <time>2024-05-26T09:13:28Z</time>
      </trkpt>
      <trkpt lat="43.73992" lon="6.64268">
        <ele>1484</ele>
        <time>2024-05-26T09:13:29Z</time>
      </trkpt>
      <trkpt lat="43.73992" lon="6.64268">
        <ele>1484.2</ele>
        <time>2024-05-26T09:13:30Z</time>
      </trkpt>
      <trkpt lat="43.73991" lon="6.64269">
        <ele>1484.4</ele>
        <time>2024-05-26T09:13:31Z</time>
      </trkpt>
      <trkpt lat="43.73991" lon="6.6427">
        <ele>1484.5</ele>
        <time>2024-05-26T09:13:32Z</time>
      </trkpt>
      <trkpt lat="43.73991" lon="6.64271">
        <ele>1484.7</ele>
        <time>2024-05-26T09:13:33Z</time>
      </trkpt>
      <trkpt lat="43.7399" lon="6.64272">
        <ele>1485</ele>
        <time>2024-05-26T09:13:34Z</time>
      </trkpt>
      <trkpt lat="43.7399" lon="6.64273">
        <ele>1485.2</ele>
        <time>2024-05-26T09:13:35Z</time>
      </trkpt>
      <trkpt lat="43.73989" lon="6.64274">
        <ele>1485.3</ele>
        <time>2024-05-26T09:13:36Z</time>
      </trkpt>
      <trkpt lat="43.73989" lon="6.64275">
        <ele>1485.5</ele>
        <time>2024-05-26T09:13:37Z</time>
      </trkpt>
      <trkpt lat="43.73989" lon="6.64276">
        <ele>1485.7</ele>
        <time>2024-05-26T09:13:38Z</time>
      </trkpt>
      <trkpt lat="43.73989" lon="6.64277">
        <ele>1485.9</ele>
        <time>2024-05-26T09:13:39Z</time>
      </trkpt>
      <trkpt lat="43.73988" lon="6.64277">
        <ele>1486.1</ele>
        <time>2024-05-26T09:13:40Z</time>
      </trkpt>
      <trkpt lat="43.73988" lon="6.64278">
        <ele>1486.2</ele>
        <time>2024-05-26T09:13:41Z</time>
      </trkpt>
      <trkpt lat="43.73988" lon="6.6428">
        <ele>1486.4</ele>
        <time>2024-05-26T09:13:42Z</time>
      </trkpt>
      <trkpt lat="43.73988" lon="6.64281">
        <ele>1486.6</ele>
        <time>2024-05-26T09:13:43Z</time>
      </trkpt>
      <trkpt lat="43.73988" lon="6.64282">
        <ele>1486.8</ele>
        <time>2024-05-26T09:13:44Z</time>
      </trkpt>
      <trkpt lat="43.73987" lon="6.64283">
        <ele>1487</ele>
        <time>2024-05-26T09:13:45Z</time>
      </trkpt>
      <trkpt lat="43.73987" lon="6.64284">
        <ele>1487.1</ele>
        <time>2024-05-26T09:13:46Z</time>
      </trkpt>
      <trkpt lat="43.73986" lon="6.64285">
        <ele>1487.4</ele>
        <time>2024-05-26T09:13:47Z</time>
      </trkpt>
      <trkpt lat="43.73986" lon="6.64286">
        <ele>1487.5</ele>
        <time>2024-05-26T09:13:48Z</time>
      </trkpt>
      <trkpt lat="43.73985" lon="6.64287">
        <ele>1487.7</ele>
        <time>2024-05-26T09:13:49Z</time>
      </trkpt>
      <trkpt lat="43.73985" lon="6.64288">
        <ele>1487.8</ele>
        <time>2024-05-26T09:13:50Z</time>
      </trkpt>
      <trkpt lat="43.73985" lon="6.64289">
        <ele>1488</ele>
        <time>2024-05-26T09:13:51Z</time>
      </trkpt>
      <trkpt lat="43.73984" lon="6.6429">
        <ele>1488.2</ele>
        <time>2024-05-26T09:13:52Z</time>
      </trkpt>
      <trkpt lat="43.73984" lon="6.64291">
        <ele>1488.5</ele>
        <time>2024-05-26T09:13:53Z</time>
      </trkpt>
      <trkpt lat="43.73984" lon="6.64292">
        <ele>1488.7</ele>
        <time>2024-05-26T09:13:54Z</time>
      </trkpt>
      <trkpt lat="43.73984" lon="6.64293">
        <ele>1488.9</ele>
        <time>2024-05-26T09:13:55Z</time>
      </trkpt>
      <trkpt lat="43.73984" lon="6.64295">
        <ele>1489.2</ele>
        <time>2024-05-26T09:13:56Z</time>
      </trkpt>
      <trkpt lat="43.73983" lon="6.64296">
        <ele>1489.5</ele>
        <time>2024-05-26T09:13:57Z</time>
      </trkpt>
      <trkpt lat="43.73983" lon="6.64297">
        <ele>1489.7</ele>
        <time>2024-05-26T09:13:58Z</time>
      </trkpt>
      <trkpt lat="43.73983" lon="6.64298">
        <ele>1489.9</ele>
        <time>2024-05-26T09:13:59Z</time>
      </trkpt>
      <trkpt lat="43.73983" lon="6.643">
        <ele>1490.1</ele>
        <time>2024-05-26T09:14:00Z</time>
      </trkpt>
      <trkpt lat="43.73983" lon="6.64301">
        <ele>1490.3</ele>
        <time>2024-05-26T09:14:01Z</time>
      </trkpt>
      <trkpt lat="43.73983" lon="6.64302">
        <ele>1490.5</ele>
        <time>2024-05-26T09:14:02Z</time>
      </trkpt>
      <trkpt lat="43.73983" lon="6.64303">
        <ele>1490.7</ele>
        <time>2024-05-26T09:14:03Z</time>
      </trkpt>
      <trkpt lat="43.73983" lon="6.64305">
        <ele>1490.8</ele>
        <time>2024-05-26T09:14:04Z</time>
      </trkpt>
      <trkpt lat="43.73983" lon="6.64306">
        <ele>1490.9</ele>
        <time>2024-05-26T09:14:05Z</time>
      </trkpt>
      <trkpt lat="43.73983" lon="6.64307">
        <ele>1491</ele>
        <time>2024-05-26T09:14:06Z</time>
      </trkpt>
      <trkpt lat="43.73983" lon="6.64308">
        <ele>1491.2</ele>
        <time>2024-05-26T09:14:07Z</time>
      </trkpt>
      <trkpt lat="43.73983" lon="6.64309">
        <ele>1491.4</ele>
        <time>2024-05-26T09:14:08Z</time>
      </trkpt>
      <trkpt lat="43.73984" lon="6.6431">
        <ele>1491.7</ele>
        <time>2024-05-26T09:14:09Z</time>
      </trkpt>
      <trkpt lat="43.73983" lon="6.64311">
        <ele>1492</ele>
        <time>2024-05-26T09:14:10Z</time>
      </trkpt>
      <trkpt lat="43.73983" lon="6.64312">
        <ele>1492.2</ele>
        <time>2024-05-26T09:14:11Z</time>
      </trkpt>
      <trkpt lat="43.73983" lon="6.64314">
        <ele>1492.4</ele>
        <time>2024-05-26T09:14:12Z</time>
      </trkpt>
      <trkpt lat="43.73983" lon="6.64315">
        <ele>1492.6</ele>
        <time>2024-05-26T09:14:13Z</time>
      </trkpt>
      <trkpt lat="43.73983" lon="6.64316">
        <ele>1492.7</ele>
        <time>2024-05-26T09:14:14Z</time>
      </trkpt>
      <trkpt lat="43.73983" lon="6.64317">
        <ele>1492.9</ele>
        <time>2024-05-26T09:14:15Z</time>
      </trkpt>
      <trkpt lat="43.73983" lon="6.64318">
        <ele>1493</ele>
        <time>2024-05-26T09:14:16Z</time>
      </trkpt>
      <trkpt lat="43.73983" lon="6.6432">
        <ele>1493.2</ele>
        <time>2024-05-26T09:14:17Z</time>
      </trkpt>
      <trkpt lat="43.73983" lon="6.64321">
        <ele>1493.3</ele>
        <time>2024-05-26T09:14:18Z</time>
      </trkpt>
      <trkpt lat="43.73983" lon="6.64322">
        <ele>1493.5</ele>
        <time>2024-05-26T09:14:19Z</time>
      </trkpt>
      <trkpt lat="43.73982" lon="6.64323">
        <ele>1493.7</ele>
        <time>2024-05-26T09:14:20Z</time>
      </trkpt>
      <trkpt lat="43.73982" lon="6.64324">
        <ele>1493.8</ele>
        <time>2024-05-26T09:14:21Z</time>
      </trkpt>
      <trkpt lat="43.73982" lon="6.64326">
        <ele>1494</ele>
        <time>2024-05-26T09:14:22Z</time>
      </trkpt>
      <trkpt lat="43.73982" lon="6.64327">
        <ele>1494.2</ele>
        <time>2024-05-26T09:14:23Z</time>
      </trkpt>
      <trkpt lat="43.73982" lon="6.64328">
        <ele>1494.4</ele>
        <time>2024-05-26T09:14:24Z</time>
      </trkpt>
      <trkpt lat="43.73981" lon="6.64329">
        <ele>1494.6</ele>
        <time>2024-05-26T09:14:25Z</time>
      </trkpt>
      <trkpt lat="43.73981" lon="6.6433">
        <ele>1495</ele>
        <time>2024-05-26T09:14:26Z</time>
      </trkpt>
      <trkpt lat="43.73981" lon="6.64332">
        <ele>1495.3</ele>
        <time>2024-05-26T09:14:27Z</time>
      </trkpt>
      <trkpt lat="43.7398" lon="6.64333">
        <ele>1495.5</ele>
        <time>2024-05-26T09:14:28Z</time>
      </trkpt>
      <trkpt lat="43.7398" lon="6.64334">
        <ele>1495.7</ele>
        <time>2024-05-26T09:14:29Z</time>
      </trkpt>
      <trkpt lat="43.7398" lon="6.64335">
        <ele>1496</ele>
        <time>2024-05-26T09:14:30Z</time>
      </trkpt>
      <trkpt lat="43.7398" lon="6.64336">
        <ele>1496.1</ele>
        <time>2024-05-26T09:14:31Z</time>
      </trkpt>
      <trkpt lat="43.7398" lon="6.64337">
        <ele>1496.3</ele>
        <time>2024-05-26T09:14:32Z</time>
      </trkpt>
      <trkpt lat="43.7398" lon="6.64339">
        <ele>1496.5</ele>
        <time>2024-05-26T09:14:33Z</time>
      </trkpt>
      <trkpt lat="43.7398" lon="6.64339">
        <ele>1496.7</ele>
        <time>2024-05-26T09:14:34Z</time>
      </trkpt>
      <trkpt lat="43.7398" lon="6.64341">
        <ele>1496.9</ele>
        <time>2024-05-26T09:14:35Z</time>
      </trkpt>
      <trkpt lat="43.7398" lon="6.64342">
        <ele>1497</ele>
        <time>2024-05-26T09:14:36Z</time>
      </trkpt>
      <trkpt lat="43.7398" lon="6.64343">
        <ele>1497.2</ele>
        <time>2024-05-26T09:14:37Z</time>
      </trkpt>
      <trkpt lat="43.7398" lon="6.64344">
        <ele>1497.3</ele>
        <time>2024-05-26T09:14:38Z</time>
      </trkpt>
      <trkpt lat="43.7398" lon="6.64345">
        <ele>1497.5</ele>
        <time>2024-05-26T09:14:39Z</time>
      </trkpt>
      <trkpt lat="43.7398" lon="6.64346">
        <ele>1497.7</ele>
        <time>2024-05-26T09:14:40Z</time>
      </trkpt>
      <trkpt lat="43.7398" lon="6.64347">
        <ele>1498</ele>
        <time>2024-05-26T09:14:41Z</time>
      </trkpt>
      <trkpt lat="43.7398" lon="6.64348">
        <ele>1498.1</ele>
        <time>2024-05-26T09:14:42Z</time>
      </trkpt>
      <trkpt lat="43.7398" lon="6.64349">
        <ele>1498.3</ele>
        <time>2024-05-26T09:14:43Z</time>
      </trkpt>
      <trkpt lat="43.7398" lon="6.64351">
        <ele>1498.5</ele>
        <time>2024-05-26T09:14:44Z</time>
      </trkpt>
      <trkpt lat="43.73981" lon="6.64351">
        <ele>1498.8</ele>
        <time>2024-05-26T09:14:45Z</time>
      </trkpt>
      <trkpt lat="43.73981" lon="6.64352">
        <ele>1499</ele>
        <time>2024-05-26T09:14:46Z</time>
      </trkpt>
      <trkpt lat="43.73981" lon="6.64353">
        <ele>1499.2</ele>
        <time>2024-05-26T09:14:47Z</time>
      </trkpt>
      <trkpt lat="43.73981" lon="6.64354">
        <ele>1499.4</ele>
        <time>2024-05-26T09:14:48Z</time>
      </trkpt>
      <trkpt lat="43.73981" lon="6.64355">
        <ele>1499.7</ele>
        <time>2024-05-26T09:14:49Z</time>
      </trkpt>
      <trkpt lat="43.73981" lon="6.64356">
        <ele>1499.9</ele>
        <time>2024-05-26T09:14:50Z</time>
      </trkpt>
      <trkpt lat="43.73981" lon="6.64357">
        <ele>1500.1</ele>
        <time>2024-05-26T09:14:51Z</time>
      </trkpt>
      <trkpt lat="43.73981" lon="6.64358">
        <ele>1500.2</ele>
        <time>2024-05-26T09:14:52Z</time>
      </trkpt>
      <trkpt lat="43.73982" lon="6.64359">
        <ele>1500.3</ele>
        <time>2024-05-26T09:14:53Z</time>
      </trkpt>
      <trkpt lat="43.73982" lon="6.6436">
        <ele>1500.5</ele>
        <time>2024-05-26T09:14:54Z</time>
      </trkpt>
      <trkpt lat="43.73982" lon="6.64361">
        <ele>1500.6</ele>
        <time>2024-05-26T09:14:55Z</time>
      </trkpt>
      <trkpt lat="43.73982" lon="6.64362">
        <ele>1500.8</ele>
        <time>2024-05-26T09:14:56Z</time>
      </trkpt>
      <trkpt lat="43.73983" lon="6.64363">
        <ele>1500.9</ele>
        <time>2024-05-26T09:14:57Z</time>
      </trkpt>
      <trkpt lat="43.73983" lon="6.64364">
        <ele>1501.1</ele>
        <time>2024-05-26T09:14:58Z</time>
      </trkpt>
      <trkpt lat="43.73983" lon="6.64365">
        <ele>1501.2</ele>
        <time>2024-05-26T09:14:59Z</time>
      </trkpt>
      <trkpt lat="43.73982" lon="6.64366">
        <ele>1501.3</ele>
        <time>2024-05-26T09:15:00Z</time>
      </trkpt>
      <trkpt lat="43.73982" lon="6.64367">
        <ele>1501.5</ele>
        <time>2024-05-26T09:15:01Z</time>
      </trkpt>
      <trkpt lat="43.73982" lon="6.64368">
        <ele>1501.8</ele>
        <time>2024-05-26T09:15:02Z</time>
      </trkpt>
      <trkpt lat="43.73982" lon="6.6437">
        <ele>1501.9</ele>
        <time>2024-05-26T09:15:03Z</time>
      </trkpt>
      <trkpt lat="43.73981" lon="6.64371">
        <ele>1502.1</ele>
        <time>2024-05-26T09:15:04Z</time>
      </trkpt>
      <trkpt lat="43.73981" lon="6.64372">
        <ele>1502.2</ele>
        <time>2024-05-26T09:15:05Z</time>
      </trkpt>
      <trkpt lat="43.73981" lon="6.64374">
        <ele>1502.3</ele>
        <time>2024-05-26T09:15:06Z</time>
      </trkpt>
      <trkpt lat="43.73982" lon="6.64375">
        <ele>1502.5</ele>
        <time>2024-05-26T09:15:07Z</time>
      </trkpt>
      <trkpt lat="43.73982" lon="6.64376">
        <ele>1502.6</ele>
        <time>2024-05-26T09:15:08Z</time>
      </trkpt>
      <trkpt lat="43.73982" lon="6.64377">
        <ele>1502.8</ele>
        <time>2024-05-26T09:15:09Z</time>
      </trkpt>
      <trkpt lat="43.73983" lon="6.64377">
        <ele>1502.9</ele>
        <time>2024-05-26T09:15:10Z</time>
      </trkpt>
      <trkpt lat="43.73984" lon="6.64378">
        <ele>1502.9</ele>
        <time>2024-05-26T09:15:11Z</time>
      </trkpt>
      <trkpt lat="43.73984" lon="6.64378">
        <ele>1503</ele>
        <time>2024-05-26T09:15:12Z</time>
      </trkpt>
      <trkpt lat="43.73984" lon="6.64379">
        <ele>1503.1</ele>
        <time>2024-05-26T09:15:13Z</time>
      </trkpt>
      <trkpt lat="43.73984" lon="6.64379">
        <ele>1503.3</ele>
        <time>2024-05-26T09:15:14Z</time>
      </trkpt>
      <trkpt lat="43.73984" lon="6.64378">
        <ele>1503.3</ele>
        <time>2024-05-26T09:15:15Z</time>
      </trkpt>
      <trkpt lat="43.73984" lon="6.64379">
        <ele>1503.4</ele>
        <time>2024-05-26T09:15:16Z</time>
      </trkpt>
      <trkpt lat="43.73984" lon="6.64379">
        <ele>1503.4</ele>
        <time>2024-05-26T09:15:17Z</time>
      </trkpt>
      <trkpt lat="43.73984" lon="6.6438">
        <ele>1503.5</ele>
        <time>2024-05-26T09:15:18Z</time>
      </trkpt>
      <trkpt lat="43.73985" lon="6.64381">
        <ele>1503.6</ele>
        <time>2024-05-26T09:15:19Z</time>
      </trkpt>
      <trkpt lat="43.73985" lon="6.64382">
        <ele>1503.7</ele>
        <time>2024-05-26T09:15:20Z</time>
      </trkpt>
      <trkpt lat="43.73985" lon="6.64383">
        <ele>1503.7</ele>
        <time>2024-05-26T09:15:21Z</time>
      </trkpt>
      <trkpt lat="43.73985" lon="6.64385">
        <ele>1503.8</ele>
        <time>2024-05-26T09:15:22Z</time>
      </trkpt>
      <trkpt lat="43.73986" lon="6.64385">
        <ele>1503.9</ele>
        <time>2024-05-26T09:15:23Z</time>
      </trkpt>
      <trkpt lat="43.73986" lon="6.64387">
        <ele>1504</ele>
        <time>2024-05-26T09:15:24Z</time>
      </trkpt>
      <trkpt lat="43.73986" lon="6.64388">
        <ele>1504</ele>
        <time>2024-05-26T09:15:25Z</time>
      </trkpt>
      <trkpt lat="43.73986" lon="6.64389">
        <ele>1504.2</ele>
        <time>2024-05-26T09:15:26Z</time>
      </trkpt>
      <trkpt lat="43.73987" lon="6.6439">
        <ele>1504.3</ele>
        <time>2024-05-26T09:15:27Z</time>
      </trkpt>
      <trkpt lat="43.73987" lon="6.64391">
        <ele>1504.4</ele>
        <time>2024-05-26T09:15:28Z</time>
      </trkpt>
      <trkpt lat="43.73987" lon="6.64391">
        <ele>1504.5</ele>
        <time>2024-05-26T09:15:29Z</time>
      </trkpt>
      <trkpt lat="43.73988" lon="6.64392">
        <ele>1504.6</ele>
        <time>2024-05-26T09:15:30Z</time>
      </trkpt>
      <trkpt lat="43.73988" lon="6.64394">
        <ele>1504.8</ele>
        <time>2024-05-26T09:15:31Z</time>
      </trkpt>
      <trkpt lat="43.73988" lon="6.64395">
        <ele>1504.9</ele>
        <time>2024-05-26T09:15:32Z</time>
      </trkpt>
      <trkpt lat="43.73988" lon="6.64396">
        <ele>1505.1</ele>
        <time>2024-05-26T09:15:33Z</time>
      </trkpt>
      <trkpt lat="43.73988" lon="6.64397">
        <ele>1505.2</ele>
        <time>2024-05-26T09:15:34Z</time>
      </trkpt>
      <trkpt lat="43.73988" lon="6.64398">
        <ele>1505.4</ele>
        <time>2024-05-26T09:15:35Z</time>
      </trkpt>
      <trkpt lat="43.73989" lon="6.64399">
        <ele>1505.5</ele>
        <time>2024-05-26T09:15:36Z</time>
      </trkpt>
      <trkpt lat="43.73989" lon="6.644">
        <ele>1505.7</ele>
        <time>2024-05-26T09:15:37Z</time>
      </trkpt>
      <trkpt lat="43.73989" lon="6.64401">
        <ele>1505.8</ele>
        <time>2024-05-26T09:15:38Z</time>
      </trkpt>
      <trkpt lat="43.7399" lon="6.64402">
        <ele>1506</ele>
        <time>2024-05-26T09:15:39Z</time>
      </trkpt>
      <trkpt lat="43.7399" lon="6.64404">
        <ele>1506.1</ele>
        <time>2024-05-26T09:15:40Z</time>
      </trkpt>
      <trkpt lat="43.7399" lon="6.64404">
        <ele>1506.3</ele>
        <time>2024-05-26T09:15:41Z</time>
      </trkpt>
      <trkpt lat="43.73991" lon="6.64405">
        <ele>1506.6</ele>
        <time>2024-05-26T09:15:42Z</time>
      </trkpt>
      <trkpt lat="43.73991" lon="6.64406">
        <ele>1506.8</ele>
        <time>2024-05-26T09:15:43Z</time>
      </trkpt>
      <trkpt lat="43.73991" lon="6.64407">
        <ele>1506.9</ele>
        <time>2024-05-26T09:15:44Z</time>
      </trkpt>
      <trkpt lat="43.73991" lon="6.64409">
        <ele>1507.1</ele>
        <time>2024-05-26T09:15:45Z</time>
      </trkpt>
      <trkpt lat="43.73992" lon="6.6441">
        <ele>1507.3</ele>
        <time>2024-05-26T09:15:46Z</time>
      </trkpt>
      <trkpt lat="43.73992" lon="6.64411">
        <ele>1507.5</ele>
        <time>2024-05-26T09:15:47Z</time>
      </trkpt>
      <trkpt lat="43.73993" lon="6.64413">
        <ele>1507.7</ele>
        <time>2024-05-26T09:15:48Z</time>
      </trkpt>
      <trkpt lat="43.73993" lon="6.64414">
        <ele>1507.8</ele>
        <time>2024-05-26T09:15:49Z</time>
      </trkpt>
      <trkpt lat="43.73993" lon="6.64415">
        <ele>1508</ele>
        <time>2024-05-26T09:15:50Z</time>
      </trkpt>
      <trkpt lat="43.73994" lon="6.64416">
        <ele>1508.2</ele>
        <time>2024-05-26T09:15:51Z</time>
      </trkpt>
      <trkpt lat="43.73994" lon="6.64418">
        <ele>1508.5</ele>
        <time>2024-05-26T09:15:52Z</time>
      </trkpt>
      <trkpt lat="43.73995" lon="6.64419">
        <ele>1508.7</ele>
        <time>2024-05-26T09:15:53Z</time>
      </trkpt>
      <trkpt lat="43.73995" lon="6.6442">
        <ele>1508.9</ele>
        <time>2024-05-26T09:15:54Z</time>
      </trkpt>
      <trkpt lat="43.73995" lon="6.64421">
        <ele>1509</ele>
        <time>2024-05-26T09:15:55Z</time>
      </trkpt>
      <trkpt lat="43.73996" lon="6.64421">
        <ele>1509.2</ele>
        <time>2024-05-26T09:15:56Z</time>
      </trkpt>
      <trkpt lat="43.73996" lon="6.64422">
        <ele>1509.5</ele>
        <time>2024-05-26T09:15:57Z</time>
      </trkpt>
      <trkpt lat="43.73997" lon="6.64423">
        <ele>1509.7</ele>
        <time>2024-05-26T09:15:58Z</time>
      </trkpt>
      <trkpt lat="43.73997" lon="6.64424">
        <ele>1509.9</ele>
        <time>2024-05-26T09:15:59Z</time>
      </trkpt>
      <trkpt lat="43.73997" lon="6.64425">
        <ele>1510.1</ele>
        <time>2024-05-26T09:16:00Z</time>
      </trkpt>
      <trkpt lat="43.73997" lon="6.64426">
        <ele>1510.2</ele>
        <time>2024-05-26T09:16:01Z</time>
      </trkpt>
      <trkpt lat="43.73998" lon="6.64427">
        <ele>1510.4</ele>
        <time>2024-05-26T09:16:02Z</time>
      </trkpt>
      <trkpt lat="43.73998" lon="6.64428">
        <ele>1510.6</ele>
        <time>2024-05-26T09:16:03Z</time>
      </trkpt>
      <trkpt lat="43.73998" lon="6.64429">
        <ele>1510.8</ele>
        <time>2024-05-26T09:16:04Z</time>
      </trkpt>
      <trkpt lat="43.73998" lon="6.6443">
        <ele>1511</ele>
        <time>2024-05-26T09:16:05Z</time>
      </trkpt>
      <trkpt lat="43.73998" lon="6.64431">
        <ele>1511.3</ele>
        <time>2024-05-26T09:16:06Z</time>
      </trkpt>
      <trkpt lat="43.73998" lon="6.64432">
        <ele>1511.6</ele>
        <time>2024-05-26T09:16:07Z</time>
      </trkpt>
      <trkpt lat="43.73998" lon="6.64433">
        <ele>1511.9</ele>
        <time>2024-05-26T09:16:08Z</time>
      </trkpt>
      <trkpt lat="43.73998" lon="6.64434">
        <ele>1512.1</ele>
        <time>2024-05-26T09:16:09Z</time>
      </trkpt>
      <trkpt lat="43.73999" lon="6.64435">
        <ele>1512.4</ele>
        <time>2024-05-26T09:16:10Z</time>
      </trkpt>
      <trkpt lat="43.73999" lon="6.64437">
        <ele>1512.6</ele>
        <time>2024-05-26T09:16:11Z</time>
      </trkpt>
      <trkpt lat="43.73998" lon="6.64438">
        <ele>1512.7</ele>
        <time>2024-05-26T09:16:12Z</time>
      </trkpt>
      <trkpt lat="43.73998" lon="6.64439">
        <ele>1512.9</ele>
        <time>2024-05-26T09:16:13Z</time>
      </trkpt>
      <trkpt lat="43.73998" lon="6.6444">
        <ele>1513</ele>
        <time>2024-05-26T09:16:14Z</time>
      </trkpt>
      <trkpt lat="43.73998" lon="6.64441">
        <ele>1513.2</ele>
        <time>2024-05-26T09:16:15Z</time>
      </trkpt>
      <trkpt lat="43.73999" lon="6.64442">
        <ele>1513.3</ele>
        <time>2024-05-26T09:16:16Z</time>
      </trkpt>
      <trkpt lat="43.73999" lon="6.64443">
        <ele>1513.4</ele>
        <time>2024-05-26T09:16:17Z</time>
      </trkpt>
      <trkpt lat="43.73999" lon="6.64444">
        <ele>1513.6</ele>
        <time>2024-05-26T09:16:18Z</time>
      </trkpt>
      <trkpt lat="43.73999" lon="6.64446">
        <ele>1513.8</ele>
        <time>2024-05-26T09:16:19Z</time>
      </trkpt>
      <trkpt lat="43.73999" lon="6.64447">
        <ele>1514</ele>
        <time>2024-05-26T09:16:20Z</time>
      </trkpt>
      <trkpt lat="43.73999" lon="6.64448">
        <ele>1514.3</ele>
        <time>2024-05-26T09:16:21Z</time>
      </trkpt>
      <trkpt lat="43.73999" lon="6.64449">
        <ele>1514.4</ele>
        <time>2024-05-26T09:16:22Z</time>
      </trkpt>
      <trkpt lat="43.74" lon="6.6445">
        <ele>1514.6</ele>
        <time>2024-05-26T09:16:23Z</time>
      </trkpt>
      <trkpt lat="43.74" lon="6.6445">
        <ele>1514.8</ele>
        <time>2024-05-26T09:16:24Z</time>
      </trkpt>
      <trkpt lat="43.74" lon="6.64451">
        <ele>1515</ele>
        <time>2024-05-26T09:16:25Z</time>
      </trkpt>
      <trkpt lat="43.74" lon="6.64452">
        <ele>1515.2</ele>
        <time>2024-05-26T09:16:26Z</time>
      </trkpt>
      <trkpt lat="43.74" lon="6.64453">
        <ele>1515.5</ele>
        <time>2024-05-26T09:16:27Z</time>
      </trkpt>
      <trkpt lat="43.74" lon="6.64454">
        <ele>1515.7</ele>
        <time>2024-05-26T09:16:28Z</time>
      </trkpt>
      <trkpt lat="43.74" lon="6.64456">
        <ele>1515.9</ele>
        <time>2024-05-26T09:16:29Z</time>
      </trkpt>
      <trkpt lat="43.74" lon="6.64457">
        <ele>1516.1</ele>
        <time>2024-05-26T09:16:30Z</time>
      </trkpt>
      <trkpt lat="43.74001" lon="6.64458">
        <ele>1516.3</ele>
        <time>2024-05-26T09:16:31Z</time>
      </trkpt>
      <trkpt lat="43.74001" lon="6.64458">
        <ele>1516.4</ele>
        <time>2024-05-26T09:16:32Z</time>
      </trkpt>
      <trkpt lat="43.74001" lon="6.64459">
        <ele>1516.6</ele>
        <time>2024-05-26T09:16:33Z</time>
      </trkpt>
      <trkpt lat="43.74001" lon="6.6446">
        <ele>1516.7</ele>
        <time>2024-05-26T09:16:34Z</time>
      </trkpt>
      <trkpt lat="43.74001" lon="6.64461">
        <ele>1516.9</ele>
        <time>2024-05-26T09:16:35Z</time>
      </trkpt>
      <trkpt lat="43.74002" lon="6.64463">
        <ele>1517.1</ele>
        <time>2024-05-26T09:16:36Z</time>
      </trkpt>
      <trkpt lat="43.74002" lon="6.64464">
        <ele>1517.3</ele>
        <time>2024-05-26T09:16:37Z</time>
      </trkpt>
      <trkpt lat="43.74001" lon="6.64464">
        <ele>1517.6</ele>
        <time>2024-05-26T09:16:38Z</time>
      </trkpt>
      <trkpt lat="43.74001" lon="6.64465">
        <ele>1517.8</ele>
        <time>2024-05-26T09:16:39Z</time>
      </trkpt>
      <trkpt lat="43.74001" lon="6.64466">
        <ele>1518</ele>
        <time>2024-05-26T09:16:40Z</time>
      </trkpt>
      <trkpt lat="43.74001" lon="6.64467">
        <ele>1518.2</ele>
        <time>2024-05-26T09:16:41Z</time>
      </trkpt>
      <trkpt lat="43.74001" lon="6.64468">
        <ele>1518.4</ele>
        <time>2024-05-26T09:16:42Z</time>
      </trkpt>
      <trkpt lat="43.74001" lon="6.64469">
        <ele>1518.5</ele>
        <time>2024-05-26T09:16:43Z</time>
      </trkpt>
      <trkpt lat="43.74001" lon="6.6447">
        <ele>1518.6</ele>
        <time>2024-05-26T09:16:44Z</time>
      </trkpt>
      <trkpt lat="43.74001" lon="6.64471">
        <ele>1518.9</ele>
        <time>2024-05-26T09:16:45Z</time>
      </trkpt>
      <trkpt lat="43.74001" lon="6.64472">
        <ele>1519.2</ele>
        <time>2024-05-26T09:16:46Z</time>
      </trkpt>
      <trkpt lat="43.74001" lon="6.64473">
        <ele>1519.4</ele>
        <time>2024-05-26T09:16:47Z</time>
      </trkpt>
      <trkpt lat="43.74001" lon="6.64474">
        <ele>1519.6</ele>
        <time>2024-05-26T09:16:48Z</time>
      </trkpt>
      <trkpt lat="43.74" lon="6.64475">
        <ele>1519.8</ele>
        <time>2024-05-26T09:16:49Z</time>
      </trkpt>
      <trkpt lat="43.74" lon="6.64476">
        <ele>1520</ele>
        <time>2024-05-26T09:16:50Z</time>
      </trkpt>
      <trkpt lat="43.74" lon="6.64477">
        <ele>1520.3</ele>
        <time>2024-05-26T09:16:51Z</time>
      </trkpt>
      <trkpt lat="43.74" lon="6.64477">
        <ele>1520.4</ele>
        <time>2024-05-26T09:16:52Z</time>
      </trkpt>
      <trkpt lat="43.73999" lon="6.64478">
        <ele>1520.6</ele>
        <time>2024-05-26T09:16:53Z</time>
      </trkpt>
      <trkpt lat="43.73999" lon="6.64479">
        <ele>1520.6</ele>
        <time>2024-05-26T09:16:54Z</time>
      </trkpt>
      <trkpt lat="43.73999" lon="6.6448">
        <ele>1520.7</ele>
        <time>2024-05-26T09:16:55Z</time>
      </trkpt>
      <trkpt lat="43.73999" lon="6.64481">
        <ele>1520.7</ele>
        <time>2024-05-26T09:16:56Z</time>
      </trkpt>
      <trkpt lat="43.73998" lon="6.64481">
        <ele>1520.9</ele>
        <time>2024-05-26T09:16:57Z</time>
      </trkpt>
      <trkpt lat="43.73998" lon="6.64482">
        <ele>1521</ele>
        <time>2024-05-26T09:16:58Z</time>
      </trkpt>
      <trkpt lat="43.73998" lon="6.64483">
        <ele>1521.2</ele>
        <time>2024-05-26T09:16:59Z</time>
      </trkpt>
      <trkpt lat="43.73997" lon="6.64484">
        <ele>1521.2</ele>
        <time>2024-05-26T09:17:00Z</time>
      </trkpt>
      <trkpt lat="43.73996" lon="6.64485">
        <ele>1521.3</ele>
        <time>2024-05-26T09:17:01Z</time>
      </trkpt>
      <trkpt lat="43.73996" lon="6.64486">
        <ele>1521.4</ele>
        <time>2024-05-26T09:17:02Z</time>
      </trkpt>
      <trkpt lat="43.73995" lon="6.64486">
        <ele>1521.5</ele>
        <time>2024-05-26T09:17:03Z</time>
      </trkpt>
      <trkpt lat="43.73995" lon="6.64488">
        <ele>1521.5</ele>
        <time>2024-05-26T09:17:04Z</time>
      </trkpt>
      <trkpt lat="43.73994" lon="6.64489">
        <ele>1521.6</ele>
        <time>2024-05-26T09:17:05Z</time>
      </trkpt>
      <trkpt lat="43.73994" lon="6.6449">
        <ele>1521.8</ele>
        <time>2024-05-26T09:17:06Z</time>
      </trkpt>
      <trkpt lat="43.73994" lon="6.64491">
        <ele>1522</ele>
        <time>2024-05-26T09:17:07Z</time>
      </trkpt>
      <trkpt lat="43.73993" lon="6.64492">
        <ele>1522.1</ele>
        <time>2024-05-26T09:17:08Z</time>
      </trkpt>
      <trkpt lat="43.73993" lon="6.64493">
        <ele>1522.2</ele>
        <time>2024-05-26T09:17:09Z</time>
      </trkpt>
      <trkpt lat="43.73992" lon="6.64494">
        <ele>1522.4</ele>
        <time>2024-05-26T09:17:10Z</time>
      </trkpt>
      <trkpt lat="43.73991" lon="6.64495">
        <ele>1522.6</ele>
        <time>2024-05-26T09:17:11Z</time>
      </trkpt>
      <trkpt lat="43.73991" lon="6.64495">
        <ele>1522.7</ele>
        <time>2024-05-26T09:17:12Z</time>
      </trkpt>
      <trkpt lat="43.7399" lon="6.64496">
        <ele>1522.7</ele>
        <time>2024-05-26T09:17:13Z</time>
      </trkpt>
      <trkpt lat="43.73989" lon="6.64497">
        <ele>1522.7</ele>
        <time>2024-05-26T09:17:14Z</time>
      </trkpt>
      <trkpt lat="43.73989" lon="6.64498">
        <ele>1522.9</ele>
        <time>2024-05-26T09:17:15Z</time>
      </trkpt>
      <trkpt lat="43.73988" lon="6.64499">
        <ele>1522.9</ele>
        <time>2024-05-26T09:17:16Z</time>
      </trkpt>
      <trkpt lat="43.73988" lon="6.645">
        <ele>1523</ele>
        <time>2024-05-26T09:17:17Z</time>
      </trkpt>
      <trkpt lat="43.73988" lon="6.64502">
        <ele>1523</ele>
        <time>2024-05-26T09:17:18Z</time>
      </trkpt>
      <trkpt lat="43.73989" lon="6.64503">
        <ele>1523.1</ele>
        <time>2024-05-26T09:17:19Z</time>
      </trkpt>
      <trkpt lat="43.73989" lon="6.64504">
        <ele>1523.2</ele>
        <time>2024-05-26T09:17:20Z</time>
      </trkpt>
      <trkpt lat="43.7399" lon="6.64505">
        <ele>1523.3</ele>
        <time>2024-05-26T09:17:21Z</time>
      </trkpt>
      <trkpt lat="43.73989" lon="6.64506">
        <ele>1523.4</ele>
        <time>2024-05-26T09:17:22Z</time>
      </trkpt>
      <trkpt lat="43.7399" lon="6.64507">
        <ele>1523.5</ele>
        <time>2024-05-26T09:17:23Z</time>
      </trkpt>
      <trkpt lat="43.7399" lon="6.64508">
        <ele>1523.7</ele>
        <time>2024-05-26T09:17:24Z</time>
      </trkpt>
      <trkpt lat="43.7399" lon="6.6451">
        <ele>1523.8</ele>
        <time>2024-05-26T09:17:25Z</time>
      </trkpt>
      <trkpt lat="43.7399" lon="6.64511">
        <ele>1524.1</ele>
        <time>2024-05-26T09:17:26Z</time>
      </trkpt>
      <trkpt lat="43.7399" lon="6.64512">
        <ele>1524.3</ele>
        <time>2024-05-26T09:17:27Z</time>
      </trkpt>
      <trkpt lat="43.7399" lon="6.64513">
        <ele>1524.5</ele>
        <time>2024-05-26T09:17:28Z</time>
      </trkpt>
      <trkpt lat="43.7399" lon="6.64514">
        <ele>1524.7</ele>
        <time>2024-05-26T09:17:29Z</time>
      </trkpt>
      <trkpt lat="43.7399" lon="6.64515">
        <ele>1524.9</ele>
        <time>2024-05-26T09:17:30Z</time>
      </trkpt>
      <trkpt lat="43.73991" lon="6.64516">
        <ele>1525.1</ele>
        <time>2024-05-26T09:17:31Z</time>
      </trkpt>
      <trkpt lat="43.73991" lon="6.64517">
        <ele>1525.3</ele>
        <time>2024-05-26T09:17:32Z</time>
      </trkpt>
      <trkpt lat="43.73991" lon="6.64519">
        <ele>1525.5</ele>
        <time>2024-05-26T09:17:33Z</time>
      </trkpt>
      <trkpt lat="43.73991" lon="6.6452">
        <ele>1525.7</ele>
        <time>2024-05-26T09:17:34Z</time>
      </trkpt>
      <trkpt lat="43.73991" lon="6.64521">
        <ele>1525.9</ele>
        <time>2024-05-26T09:17:35Z</time>
      </trkpt>
      <trkpt lat="43.7399" lon="6.64522">
        <ele>1526.1</ele>
        <time>2024-05-26T09:17:36Z</time>
      </trkpt>
      <trkpt lat="43.7399" lon="6.64524">
        <ele>1526.3</ele>
        <time>2024-05-26T09:17:37Z</time>
      </trkpt>
      <trkpt lat="43.7399" lon="6.64525">
        <ele>1526.4</ele>
        <time>2024-05-26T09:17:38Z</time>
      </trkpt>
      <trkpt lat="43.7399" lon="6.64526">
        <ele>1526.5</ele>
        <time>2024-05-26T09:17:39Z</time>
      </trkpt>
      <trkpt lat="43.7399" lon="6.64527">
        <ele>1526.6</ele>
        <time>2024-05-26T09:17:40Z</time>
      </trkpt>
      <trkpt lat="43.73989" lon="6.64528">
        <ele>1526.8</ele>
        <time>2024-05-26T09:17:41Z</time>
      </trkpt>
      <trkpt lat="43.73989" lon="6.64529">
        <ele>1527</ele>
        <time>2024-05-26T09:17:42Z</time>
      </trkpt>
      <trkpt lat="43.73989" lon="6.6453">
        <ele>1527.2</ele>
        <time>2024-05-26T09:17:43Z</time>
      </trkpt>
      <trkpt lat="43.73989" lon="6.64531">
        <ele>1527.5</ele>
        <time>2024-05-26T09:17:44Z</time>
      </trkpt>
      <trkpt lat="43.73988" lon="6.64532">
        <ele>1527.8</ele>
        <time>2024-05-26T09:17:45Z</time>
      </trkpt>
      <trkpt lat="43.73988" lon="6.64533">
        <ele>1528</ele>
        <time>2024-05-26T09:17:46Z</time>
      </trkpt>
      <trkpt lat="43.73988" lon="6.64535">
        <ele>1528.1</ele>
        <time>2024-05-26T09:17:47Z</time>
      </trkpt>
      <trkpt lat="43.73988" lon="6.64536">
        <ele>1528.2</ele>
        <time>2024-05-26T09:17:48Z</time>
      </trkpt>
      <trkpt lat="43.73987" lon="6.64537">
        <ele>1528.3</ele>
        <time>2024-05-26T09:17:49Z</time>
      </trkpt>
      <trkpt lat="43.73987" lon="6.64538">
        <ele>1528.5</ele>
        <time>2024-05-26T09:17:50Z</time>
      </trkpt>
      <trkpt lat="43.73987" lon="6.64539">
        <ele>1528.5</ele>
        <time>2024-05-26T09:17:51Z</time>
      </trkpt>
      <trkpt lat="43.73986" lon="6.6454">
        <ele>1528.7</ele>
        <time>2024-05-26T09:17:52Z</time>
      </trkpt>
      <trkpt lat="43.73986" lon="6.64542">
        <ele>1528.8</ele>
        <time>2024-05-26T09:17:53Z</time>
      </trkpt>
      <trkpt lat="43.73986" lon="6.64543">
        <ele>1528.9</ele>
        <time>2024-05-26T09:17:54Z</time>
      </trkpt>
      <trkpt lat="43.73986" lon="6.64543">
        <ele>1529.2</ele>
        <time>2024-05-26T09:17:55Z</time>
      </trkpt>
      <trkpt lat="43.73985" lon="6.64544">
        <ele>1529.3</ele>
        <time>2024-05-26T09:17:56Z</time>
      </trkpt>
      <trkpt lat="43.73985" lon="6.64545">
        <ele>1529.4</ele>
        <time>2024-05-26T09:17:57Z</time>
      </trkpt>
      <trkpt lat="43.73985" lon="6.64547">
        <ele>1529.6</ele>
        <time>2024-05-26T09:17:58Z</time>
      </trkpt>
      <trkpt lat="43.73985" lon="6.64548">
        <ele>1529.8</ele>
        <time>2024-05-26T09:17:59Z</time>
      </trkpt>
      <trkpt lat="43.73985" lon="6.64549">
        <ele>1530</ele>
        <time>2024-05-26T09:18:00Z</time>
      </trkpt>
      <trkpt lat="43.73985" lon="6.6455">
        <ele>1530.2</ele>
        <time>2024-05-26T09:18:01Z</time>
      </trkpt>
      <trkpt lat="43.73985" lon="6.6455">
        <ele>1530.4</ele>
        <time>2024-05-26T09:18:02Z</time>
      </trkpt>
      <trkpt lat="43.73985" lon="6.64551">
        <ele>1530.6</ele>
        <time>2024-05-26T09:18:03Z</time>
      </trkpt>
      <trkpt lat="43.73985" lon="6.64552">
        <ele>1530.9</ele>
        <time>2024-05-26T09:18:04Z</time>
      </trkpt>
      <trkpt lat="43.73985" lon="6.64553">
        <ele>1531.1</ele>
        <time>2024-05-26T09:18:05Z</time>
      </trkpt>
      <trkpt lat="43.73985" lon="6.64554">
        <ele>1531.3</ele>
        <time>2024-05-26T09:18:06Z</time>
      </trkpt>
      <trkpt lat="43.73986" lon="6.64555">
        <ele>1531.4</ele>
        <time>2024-05-26T09:18:07Z</time>
      </trkpt>
      <trkpt lat="43.73986" lon="6.64556">
        <ele>1531.6</ele>
        <time>2024-05-26T09:18:08Z</time>
      </trkpt>
      <trkpt lat="43.73986" lon="6.64557">
        <ele>1531.8</ele>
        <time>2024-05-26T09:18:09Z</time>
      </trkpt>
      <trkpt lat="43.73986" lon="6.64558">
        <ele>1532</ele>
        <time>2024-05-26T09:18:10Z</time>
      </trkpt>
      <trkpt lat="43.73985" lon="6.64558">
        <ele>1532.2</ele>
        <time>2024-05-26T09:18:11Z</time>
      </trkpt>
      <trkpt lat="43.73985" lon="6.64559">
        <ele>1532.4</ele>
        <time>2024-05-26T09:18:12Z</time>
      </trkpt>
      <trkpt lat="43.73985" lon="6.6456">
        <ele>1532.6</ele>
        <time>2024-05-26T09:18:13Z</time>
      </trkpt>
      <trkpt lat="43.73985" lon="6.64561">
        <ele>1532.8</ele>
        <time>2024-05-26T09:18:14Z</time>
      </trkpt>
      <trkpt lat="43.73985" lon="6.64561">
        <ele>1533</ele>
        <time>2024-05-26T09:18:15Z</time>
      </trkpt>
      <trkpt lat="43.73985" lon="6.64562">
        <ele>1533.1</ele>
        <time>2024-05-26T09:18:16Z</time>
      </trkpt>
      <trkpt lat="43.73985" lon="6.64563">
        <ele>1533.2</ele>
        <time>2024-05-26T09:18:17Z</time>
      </trkpt>
      <trkpt lat="43.73985" lon="6.64564">
        <ele>1533.3</ele>
        <time>2024-05-26T09:18:18Z</time>
      </trkpt>
      <trkpt lat="43.73985" lon="6.64565">
        <ele>1533.5</ele>
        <time>2024-05-26T09:18:19Z</time>
      </trkpt>
      <trkpt lat="43.73985" lon="6.64566">
        <ele>1533.7</ele>
        <time>2024-05-26T09:18:20Z</time>
      </trkpt>
      <trkpt lat="43.73985" lon="6.64566">
        <ele>1534</ele>
        <time>2024-05-26T09:18:21Z</time>
      </trkpt>
      <trkpt lat="43.73985" lon="6.64567">
        <ele>1534.1</ele>
        <time>2024-05-26T09:18:22Z</time>
      </trkpt>
      <trkpt lat="43.73985" lon="6.64567">
        <ele>1534.2</ele>
        <time>2024-05-26T09:18:23Z</time>
      </trkpt>
      <trkpt lat="43.73984" lon="6.64568">
        <ele>1534.4</ele>
        <time>2024-05-26T09:18:24Z</time>
      </trkpt>
      <trkpt lat="43.73984" lon="6.64568">
        <ele>1534.5</ele>
        <time>2024-05-26T09:18:25Z</time>
      </trkpt>
      <trkpt lat="43.73984" lon="6.64569">
        <ele>1534.6</ele>
        <time>2024-05-26T09:18:26Z</time>
      </trkpt>
      <trkpt lat="43.73983" lon="6.64569">
        <ele>1534.8</ele>
        <time>2024-05-26T09:18:27Z</time>
      </trkpt>
      <trkpt lat="43.73983" lon="6.64569">
        <ele>1534.9</ele>
        <time>2024-05-26T09:18:28Z</time>
      </trkpt>
      <trkpt lat="43.73982" lon="6.64569">
        <ele>1534.9</ele>
        <time>2024-05-26T09:18:29Z</time>
      </trkpt>
      <trkpt lat="43.73982" lon="6.64569">
        <ele>1535.1</ele>
        <time>2024-05-26T09:18:30Z</time>
      </trkpt>
      <trkpt lat="43.73981" lon="6.6457">
        <ele>1535.2</ele>
        <time>2024-05-26T09:18:31Z</time>
      </trkpt>
      <trkpt lat="43.73981" lon="6.6457">
        <ele>1535.3</ele>
        <time>2024-05-26T09:18:32Z</time>
      </trkpt>
      <trkpt lat="43.73982" lon="6.6457">
        <ele>1535.4</ele>
        <time>2024-05-26T09:18:33Z</time>
      </trkpt>
      <trkpt lat="43.73982" lon="6.6457">
        <ele>1535.5</ele>
        <time>2024-05-26T09:18:34Z</time>
      </trkpt>
      <trkpt lat="43.73982" lon="6.6457">
        <ele>1535.5</ele>
        <time>2024-05-26T09:18:35Z</time>
      </trkpt>
      <trkpt lat="43.73982" lon="6.6457">
        <ele>1535.5</ele>
        <time>2024-05-26T09:18:36Z</time>
      </trkpt>
      <trkpt lat="43.73982" lon="6.6457">
        <ele>1535.5</ele>
        <time>2024-05-26T09:18:37Z</time>
      </trkpt>
      <trkpt lat="43.73983" lon="6.6457">
        <ele>1535.5</ele>
        <time>2024-05-26T09:18:38Z</time>
      </trkpt>
      <trkpt lat="43.73983" lon="6.6457">
        <ele>1535.6</ele>
        <time>2024-05-26T09:18:39Z</time>
      </trkpt>
      <trkpt lat="43.73983" lon="6.6457">
        <ele>1535.7</ele>
        <time>2024-05-26T09:18:40Z</time>
      </trkpt>
      <trkpt lat="43.73983" lon="6.6457">
        <ele>1535.7</ele>
        <time>2024-05-26T09:18:41Z</time>
      </trkpt>
      <trkpt lat="43.73983" lon="6.6457">
        <ele>1535.8</ele>
        <time>2024-05-26T09:18:42Z</time>
      </trkpt>
      <trkpt lat="43.73983" lon="6.6457">
        <ele>1535.8</ele>
        <time>2024-05-26T09:18:43Z</time>
      </trkpt>
      <trkpt lat="43.73984" lon="6.6457">
        <ele>1535.7</ele>
        <time>2024-05-26T09:18:44Z</time>
      </trkpt>
      <trkpt lat="43.73984" lon="6.6457">
        <ele>1535.8</ele>
        <time>2024-05-26T09:18:45Z</time>
      </trkpt>
      <trkpt lat="43.73984" lon="6.6457">
        <ele>1535.8</ele>
        <time>2024-05-26T09:18:46Z</time>
      </trkpt>
      <trkpt lat="43.73984" lon="6.6457">
        <ele>1535.8</ele>
        <time>2024-05-26T09:18:47Z</time>
      </trkpt>
      <trkpt lat="43.73984" lon="6.6457">
        <ele>1535.9</ele>
        <time>2024-05-26T09:18:48Z</time>
      </trkpt>
      <trkpt lat="43.73984" lon="6.6457">
        <ele>1535.9</ele>
        <time>2024-05-26T09:18:49Z</time>
      </trkpt>
      <trkpt lat="43.73985" lon="6.6457">
        <ele>1535.9</ele>
        <time>2024-05-26T09:18:50Z</time>
      </trkpt>
      <trkpt lat="43.73985" lon="6.6457">
        <ele>1535.9</ele>
        <time>2024-05-26T09:18:51Z</time>
      </trkpt>
      <trkpt lat="43.73985" lon="6.6457">
        <ele>1535.9</ele>
        <time>2024-05-26T09:18:52Z</time>
      </trkpt>
      <trkpt lat="43.73985" lon="6.6457">
        <ele>1535.9</ele>
        <time>2024-05-26T09:18:53Z</time>
      </trkpt>
      <trkpt lat="43.73985" lon="6.6457">
        <ele>1535.9</ele>
        <time>2024-05-26T09:18:54Z</time>
      </trkpt>
      <trkpt lat="43.73985" lon="6.6457">
        <ele>1535.9</ele>
        <time>2024-05-26T09:18:55Z</time>
      </trkpt>
      <trkpt lat="43.73985" lon="6.6457">
        <ele>1535.9</ele>
        <time>2024-05-26T09:18:56Z</time>
      </trkpt>
      <trkpt lat="43.73986" lon="6.6457">
        <ele>1535.8</ele>
        <time>2024-05-26T09:18:57Z</time>
      </trkpt>
      <trkpt lat="43.73986" lon="6.6457">
        <ele>1535.7</ele>
        <time>2024-05-26T09:18:58Z</time>
      </trkpt>
      <trkpt lat="43.73986" lon="6.6457">
        <ele>1535.7</ele>
        <time>2024-05-26T09:18:59Z</time>
      </trkpt>
      <trkpt lat="43.73986" lon="6.6457">
        <ele>1535.7</ele>
        <time>2024-05-26T09:19:00Z</time>
      </trkpt>
      <trkpt lat="43.73986" lon="6.6457">
        <ele>1535.7</ele>
        <time>2024-05-26T09:19:01Z</time>
      </trkpt>
      <trkpt lat="43.73986" lon="6.6457">
        <ele>1535.8</ele>
        <time>2024-05-26T09:19:02Z</time>
      </trkpt>
      <trkpt lat="43.73986" lon="6.6457">
        <ele>1535.7</ele>
        <time>2024-05-26T09:19:03Z</time>
      </trkpt>
      <trkpt lat="43.73986" lon="6.6457">
        <ele>1535.7</ele>
        <time>2024-05-26T09:19:04Z</time>
      </trkpt>
      <trkpt lat="43.73986" lon="6.6457">
        <ele>1535.7</ele>
        <time>2024-05-26T09:19:05Z</time>
      </trkpt>
      <trkpt lat="43.73987" lon="6.6457">
        <ele>1535.7</ele>
        <time>2024-05-26T09:19:06Z</time>
      </trkpt>
      <trkpt lat="43.73987" lon="6.6457">
        <ele>1535.7</ele>
        <time>2024-05-26T09:19:07Z</time>
      </trkpt>
      <trkpt lat="43.73987" lon="6.6457">
        <ele>1535.7</ele>
        <time>2024-05-26T09:19:08Z</time>
      </trkpt>
      <trkpt lat="43.73987" lon="6.6457">
        <ele>1535.7</ele>
        <time>2024-05-26T09:19:09Z</time>
      </trkpt>
      <trkpt lat="43.73987" lon="6.6457">
        <ele>1535.7</ele>
        <time>2024-05-26T09:19:10Z</time>
      </trkpt>
      <trkpt lat="43.73987" lon="6.6457">
        <ele>1535.7</ele>
        <time>2024-05-26T09:19:11Z</time>
      </trkpt>
      <trkpt lat="43.73987" lon="6.6457">
        <ele>1535.7</ele>
        <time>2024-05-26T09:19:12Z</time>
      </trkpt>
      <trkpt lat="43.73987" lon="6.64571">
        <ele>1535.7</ele>
        <time>2024-05-26T09:19:13Z</time>
      </trkpt>
      <trkpt lat="43.73987" lon="6.64571">
        <ele>1535.7</ele>
        <time>2024-05-26T09:19:14Z</time>
      </trkpt>
      <trkpt lat="43.73987" lon="6.64571">
        <ele>1535.7</ele>
        <time>2024-05-26T09:19:15Z</time>
      </trkpt>
      <trkpt lat="43.73987" lon="6.64571">
        <ele>1535.8</ele>
        <time>2024-05-26T09:19:16Z</time>
      </trkpt>
      <trkpt lat="43.73987" lon="6.64572">
        <ele>1535.8</ele>
        <time>2024-05-26T09:19:17Z</time>
      </trkpt>
      <trkpt lat="43.73987" lon="6.64572">
        <ele>1535.8</ele>
        <time>2024-05-26T09:19:18Z</time>
      </trkpt>
      <trkpt lat="43.73987" lon="6.64572">
        <ele>1535.9</ele>
        <time>2024-05-26T09:19:19Z</time>
      </trkpt>
      <trkpt lat="43.73987" lon="6.64572">
        <ele>1536</ele>
        <time>2024-05-26T09:19:20Z</time>
      </trkpt>
      <trkpt lat="43.73987" lon="6.64573">
        <ele>1536</ele>
        <time>2024-05-26T09:19:21Z</time>
      </trkpt>
      <trkpt lat="43.73987" lon="6.64573">
        <ele>1536</ele>
        <time>2024-05-26T09:19:22Z</time>
      </trkpt>
      <trkpt lat="43.73987" lon="6.64573">
        <ele>1536.1</ele>
        <time>2024-05-26T09:19:23Z</time>
      </trkpt>
      <trkpt lat="43.73986" lon="6.64573">
        <ele>1536.1</ele>
        <time>2024-05-26T09:19:24Z</time>
      </trkpt>
      <trkpt lat="43.73986" lon="6.64573">
        <ele>1536.1</ele>
        <time>2024-05-26T09:19:25Z</time>
      </trkpt>
      <trkpt lat="43.73986" lon="6.64573">
        <ele>1536.1</ele>
        <time>2024-05-26T09:19:26Z</time>
      </trkpt>
      <trkpt lat="43.73986" lon="6.64574">
        <ele>1536.2</ele>
        <time>2024-05-26T09:19:27Z</time>
      </trkpt>
      <trkpt lat="43.73986" lon="6.64574">
        <ele>1536.2</ele>
        <time>2024-05-26T09:19:28Z</time>
      </trkpt>
      <trkpt lat="43.73986" lon="6.64574">
        <ele>1536.2</ele>
        <time>2024-05-26T09:19:29Z</time>
      </trkpt>
      <trkpt lat="43.73986" lon="6.64574">
        <ele>1536.2</ele>
        <time>2024-05-26T09:19:30Z</time>
      </trkpt>
      <trkpt lat="43.73986" lon="6.64574">
        <ele>1536.2</ele>
        <time>2024-05-26T09:19:31Z</time>
      </trkpt>
      <trkpt lat="43.73986" lon="6.64574">
        <ele>1536.2</ele>
        <time>2024-05-26T09:19:32Z</time>
      </trkpt>
      <trkpt lat="43.73986" lon="6.64574">
        <ele>1536.3</ele>
        <time>2024-05-26T09:19:33Z</time>
      </trkpt>
      <trkpt lat="43.73986" lon="6.64574">
        <ele>1536.3</ele>
        <time>2024-05-26T09:19:34Z</time>
      </trkpt>
      <trkpt lat="43.73986" lon="6.64574">
        <ele>1536.2</ele>
        <time>2024-05-26T09:19:35Z</time>
      </trkpt>
      <trkpt lat="43.73986" lon="6.64574">
        <ele>1536.2</ele>
        <time>2024-05-26T09:19:36Z</time>
      </trkpt>
      <trkpt lat="43.73986" lon="6.64574">
        <ele>1536.2</ele>
        <time>2024-05-26T09:19:37Z</time>
      </trkpt>
      <trkpt lat="43.73986" lon="6.64574">
        <ele>1536.1</ele>
        <time>2024-05-26T09:19:38Z</time>
      </trkpt>
      <trkpt lat="43.73986" lon="6.64574">
        <ele>1536</ele>
        <time>2024-05-26T09:19:39Z</time>
      </trkpt>
      <trkpt lat="43.73986" lon="6.64574">
        <ele>1536</ele>
        <time>2024-05-26T09:19:40Z</time>
      </trkpt>
      <trkpt lat="43.73986" lon="6.64574">
        <ele>1536</ele>
        <time>2024-05-26T09:19:41Z</time>
      </trkpt>
      <trkpt lat="43.73986" lon="6.64574">
        <ele>1535.9</ele>
        <time>2024-05-26T09:19:42Z</time>
      </trkpt>
      <trkpt lat="43.73986" lon="6.64574">
        <ele>1535.9</ele>
        <time>2024-05-26T09:19:43Z</time>
      </trkpt>
      <trkpt lat="43.73986" lon="6.64574">
        <ele>1535.9</ele>
        <time>2024-05-26T09:19:44Z</time>
      </trkpt>
      <trkpt lat="43.73986" lon="6.64574">
        <ele>1535.9</ele>
        <time>2024-05-26T09:19:45Z</time>
      </trkpt>
      <trkpt lat="43.73986" lon="6.64574">
        <ele>1535.9</ele>
        <time>2024-05-26T09:19:46Z</time>
      </trkpt>
      <trkpt lat="43.73986" lon="6.64574">
        <ele>1535.9</ele>
        <time>2024-05-26T09:19:47Z</time>
      </trkpt>
      <trkpt lat="43.73987" lon="6.64574">
        <ele>1536</ele>
        <time>2024-05-26T09:19:48Z</time>
      </trkpt>
      <trkpt lat="43.73987" lon="6.64574">
        <ele>1536</ele>
        <time>2024-05-26T09:19:49Z</time>
      </trkpt>
      <trkpt lat="43.73987" lon="6.64574">
        <ele>1536.1</ele>
        <time>2024-05-26T09:19:50Z</time>
      </trkpt>
      <trkpt lat="43.73987" lon="6.64574">
        <ele>1536.2</ele>
        <time>2024-05-26T09:19:51Z</time>
      </trkpt>
      <trkpt lat="43.73987" lon="6.64575">
        <ele>1536.2</ele>
        <time>2024-05-26T09:19:52Z</time>
      </trkpt>
      <trkpt lat="43.73987" lon="6.64574">
        <ele>1536.2</ele>
        <time>2024-05-26T09:19:53Z</time>
      </trkpt>
      <trkpt lat="43.73987" lon="6.64574">
        <ele>1536.1</ele>
        <time>2024-05-26T09:19:54Z</time>
      </trkpt>
      <trkpt lat="43.73987" lon="6.64575">
        <ele>1536.1</ele>
        <time>2024-05-26T09:19:55Z</time>
      </trkpt>
      <trkpt lat="43.73987" lon="6.64574">
        <ele>1536.2</ele>
        <time>2024-05-26T09:19:56Z</time>
      </trkpt>
      <trkpt lat="43.73987" lon="6.64574">
        <ele>1536.2</ele>
        <time>2024-05-26T09:19:57Z</time>
      </trkpt>
      <trkpt lat="43.73987" lon="6.64575">
        <ele>1536.2</ele>
        <time>2024-05-26T09:19:58Z</time>
      </trkpt>
      <trkpt lat="43.73987" lon="6.64575">
        <ele>1536.2</ele>
        <time>2024-05-26T09:19:59Z</time>
      </trkpt>
      <trkpt lat="43.73987" lon="6.64575">
        <ele>1536.3</ele>
        <time>2024-05-26T09:20:00Z</time>
      </trkpt>
      <trkpt lat="43.73987" lon="6.64575">
        <ele>1536.3</ele>
        <time>2024-05-26T09:20:01Z</time>
      </trkpt>
      <trkpt lat="43.73987" lon="6.64575">
        <ele>1536.3</ele>
        <time>2024-05-26T09:20:02Z</time>
      </trkpt>
      <trkpt lat="43.73987" lon="6.64575">
        <ele>1536.2</ele>
        <time>2024-05-26T09:20:03Z</time>
      </trkpt>
      <trkpt lat="43.73987" lon="6.64575">
        <ele>1536.2</ele>
        <time>2024-05-26T09:20:04Z</time>
      </trkpt>
      <trkpt lat="43.73987" lon="6.64575">
        <ele>1536.2</ele>
        <time>2024-05-26T09:20:05Z</time>
      </trkpt>
      <trkpt lat="43.73987" lon="6.64575">
        <ele>1536.1</ele>
        <time>2024-05-26T09:20:06Z</time>
      </trkpt>
      <trkpt lat="43.73987" lon="6.64575">
        <ele>1536.1</ele>
        <time>2024-05-26T09:20:07Z</time>
      </trkpt>
      <trkpt lat="43.73987" lon="6.64575">
        <ele>1536</ele>
        <time>2024-05-26T09:20:08Z</time>
      </trkpt>
      <trkpt lat="43.73987" lon="6.64575">
        <ele>1536</ele>
        <time>2024-05-26T09:20:09Z</time>
      </trkpt>
      <trkpt lat="43.73987" lon="6.64575">
        <ele>1536</ele>
        <time>2024-05-26T09:20:10Z</time>
      </trkpt>
      <trkpt lat="43.73987" lon="6.64575">
        <ele>1536</ele>
        <time>2024-05-26T09:20:11Z</time>
      </trkpt>
      <trkpt lat="43.73987" lon="6.64575">
        <ele>1536</ele>
        <time>2024-05-26T09:20:12Z</time>
      </trkpt>
      <trkpt lat="43.73987" lon="6.64575">
        <ele>1536.1</ele>
        <time>2024-05-26T09:20:13Z</time>
      </trkpt>
      <trkpt lat="43.73987" lon="6.64575">
        <ele>1536.2</ele>
        <time>2024-05-26T09:20:14Z</time>
      </trkpt>
      <trkpt lat="43.73987" lon="6.64575">
        <ele>1536.2</ele>
        <time>2024-05-26T09:20:15Z</time>
      </trkpt>
      <trkpt lat="43.73987" lon="6.64575">
        <ele>1536.3</ele>
        <time>2024-05-26T09:20:16Z</time>
      </trkpt>
      <trkpt lat="43.73987" lon="6.64575">
        <ele>1536.4</ele>
        <time>2024-05-26T09:20:17Z</time>
      </trkpt>
      <trkpt lat="43.73987" lon="6.64575">
        <ele>1536.4</ele>
        <time>2024-05-26T09:20:18Z</time>
      </trkpt>
      <trkpt lat="43.73987" lon="6.64575">
        <ele>1536.4</ele>
        <time>2024-05-26T09:20:19Z</time>
      </trkpt>
      <trkpt lat="43.73987" lon="6.64575">
        <ele>1536.4</ele>
        <time>2024-05-26T09:20:20Z</time>
      </trkpt>
      <trkpt lat="43.73987" lon="6.64575">
        <ele>1536.4</ele>
        <time>2024-05-26T09:20:21Z</time>
      </trkpt>
      <trkpt lat="43.73987" lon="6.64575">
        <ele>1536.4</ele>
        <time>2024-05-26T09:20:22Z</time>
      </trkpt>
      <trkpt lat="43.73987" lon="6.64575">
        <ele>1536.4</ele>
        <time>2024-05-26T09:20:23Z</time>
      </trkpt>
      <trkpt lat="43.73987" lon="6.64575">
        <ele>1536.4</ele>
        <time>2024-05-26T09:20:24Z</time>
      </trkpt>
      <trkpt lat="43.73987" lon="6.64575">
        <ele>1536.3</ele>
        <time>2024-05-26T09:20:25Z</time>
      </trkpt>
      <trkpt lat="43.73987" lon="6.64575">
        <ele>1536.4</ele>
        <time>2024-05-26T09:20:26Z</time>
      </trkpt>
      <trkpt lat="43.73987" lon="6.64575">
        <ele>1536.4</ele>
        <time>2024-05-26T09:20:27Z</time>
      </trkpt>
      <trkpt lat="43.73987" lon="6.64575">
        <ele>1536.4</ele>
        <time>2024-05-26T09:20:28Z</time>
      </trkpt>
      <trkpt lat="43.73987" lon="6.64575">
        <ele>1536.5</ele>
        <time>2024-05-26T09:20:29Z</time>
      </trkpt>
      <trkpt lat="43.73987" lon="6.64575">
        <ele>1536.5</ele>
        <time>2024-05-26T09:20:30Z</time>
      </trkpt>
      <trkpt lat="43.73987" lon="6.64575">
        <ele>1536.6</ele>
        <time>2024-05-26T09:20:31Z</time>
      </trkpt>
      <trkpt lat="43.73987" lon="6.64575">
        <ele>1536.5</ele>
        <time>2024-05-26T09:20:32Z</time>
      </trkpt>
      <trkpt lat="43.73987" lon="6.64575">
        <ele>1536.4</ele>
        <time>2024-05-26T09:20:33Z</time>
      </trkpt>
      <trkpt lat="43.73987" lon="6.64576">
        <ele>1536.5</ele>
        <time>2024-05-26T09:20:34Z</time>
      </trkpt>
      <trkpt lat="43.73987" lon="6.64576">
        <ele>1536.6</ele>
        <time>2024-05-26T09:20:35Z</time>
      </trkpt>
      <trkpt lat="43.73987" lon="6.64575">
        <ele>1536.6</ele>
        <time>2024-05-26T09:20:36Z</time>
      </trkpt>
      <trkpt lat="43.73988" lon="6.64575">
        <ele>1536.7</ele>
        <time>2024-05-26T09:20:37Z</time>
      </trkpt>
      <trkpt lat="43.73988" lon="6.64575">
        <ele>1536.7</ele>
        <time>2024-05-26T09:20:38Z</time>
      </trkpt>
      <trkpt lat="43.73988" lon="6.64575">
        <ele>1536.6</ele>
        <time>2024-05-26T09:20:39Z</time>
      </trkpt>
      <trkpt lat="43.73988" lon="6.64575">
        <ele>1536.6</ele>
        <time>2024-05-26T09:20:40Z</time>
      </trkpt>
      <trkpt lat="43.73988" lon="6.64575">
        <ele>1536.5</ele>
        <time>2024-05-26T09:20:41Z</time>
      </trkpt>
      <trkpt lat="43.73988" lon="6.64575">
        <ele>1536.5</ele>
        <time>2024-05-26T09:20:42Z</time>
      </trkpt>
      <trkpt lat="43.73988" lon="6.64575">
        <ele>1536.6</ele>
        <time>2024-05-26T09:20:43Z</time>
      </trkpt>
      <trkpt lat="43.73988" lon="6.64575">
        <ele>1536.6</ele>
        <time>2024-05-26T09:20:44Z</time>
      </trkpt>
      <trkpt lat="43.73988" lon="6.64575">
        <ele>1536.6</ele>
        <time>2024-05-26T09:20:45Z</time>
      </trkpt>
      <trkpt lat="43.73988" lon="6.64575">
        <ele>1536.6</ele>
        <time>2024-05-26T09:20:46Z</time>
      </trkpt>
      <trkpt lat="43.73988" lon="6.64575">
        <ele>1536.6</ele>
        <time>2024-05-26T09:20:47Z</time>
      </trkpt>
      <trkpt lat="43.73987" lon="6.64575">
        <ele>1536.7</ele>
        <time>2024-05-26T09:20:48Z</time>
      </trkpt>
      <trkpt lat="43.73987" lon="6.64575">
        <ele>1536.7</ele>
        <time>2024-05-26T09:20:49Z</time>
      </trkpt>
      <trkpt lat="43.73987" lon="6.64575">
        <ele>1536.7</ele>
        <time>2024-05-26T09:20:50Z</time>
      </trkpt>
      <trkpt lat="43.73987" lon="6.64575">
        <ele>1536.6</ele>
        <time>2024-05-26T09:20:51Z</time>
      </trkpt>
      <trkpt lat="43.73987" lon="6.64575">
        <ele>1536.7</ele>
        <time>2024-05-26T09:20:52Z</time>
      </trkpt>
      <trkpt lat="43.73987" lon="6.64575">
        <ele>1536.7</ele>
        <time>2024-05-26T09:20:53Z</time>
      </trkpt>
      <trkpt lat="43.73987" lon="6.64575">
        <ele>1536.7</ele>
        <time>2024-05-26T09:20:54Z</time>
      </trkpt>
      <trkpt lat="43.73987" lon="6.64575">
        <ele>1536.6</ele>
        <time>2024-05-26T09:20:55Z</time>
      </trkpt>
      <trkpt lat="43.73987" lon="6.64575">
        <ele>1536.6</ele>
        <time>2024-05-26T09:20:56Z</time>
      </trkpt>
      <trkpt lat="43.73988" lon="6.64575">
        <ele>1536.7</ele>
        <time>2024-05-26T09:20:57Z</time>
      </trkpt>
      <trkpt lat="43.73988" lon="6.64575">
        <ele>1536.7</ele>
        <time>2024-05-26T09:20:58Z</time>
      </trkpt>
      <trkpt lat="43.73988" lon="6.64575">
        <ele>1536.7</ele>
        <time>2024-05-26T09:20:59Z</time>
      </trkpt>
      <trkpt lat="43.73988" lon="6.64575">
        <ele>1536.9</ele>
        <time>2024-05-26T09:21:00Z</time>
      </trkpt>
      <trkpt lat="43.73987" lon="6.64575">
        <ele>1536.9</ele>
        <time>2024-05-26T09:21:01Z</time>
      </trkpt>
      <trkpt lat="43.73987" lon="6.64575">
        <ele>1536.9</ele>
        <time>2024-05-26T09:21:02Z</time>
      </trkpt>
      <trkpt lat="43.73987" lon="6.64575">
        <ele>1537</ele>
        <time>2024-05-26T09:21:03Z</time>
      </trkpt>
      <trkpt lat="43.73987" lon="6.64576">
        <ele>1536.9</ele>
        <time>2024-05-26T09:21:04Z</time>
      </trkpt>
      <trkpt lat="43.73987" lon="6.64576">
        <ele>1537</ele>
        <time>2024-05-26T09:21:05Z</time>
      </trkpt>
      <trkpt lat="43.73987" lon="6.64576">
        <ele>1537</ele>
        <time>2024-05-26T09:21:06Z</time>
      </trkpt>
      <trkpt lat="43.73987" lon="6.64576">
        <ele>1537</ele>
        <time>2024-05-26T09:21:07Z</time>
      </trkpt>
      <trkpt lat="43.73987" lon="6.64576">
        <ele>1537</ele>
        <time>2024-05-26T09:21:08Z</time>
      </trkpt>
      <trkpt lat="43.73987" lon="6.64576">
        <ele>1537</ele>
        <time>2024-05-26T09:21:09Z</time>
      </trkpt>
      <trkpt lat="43.73987" lon="6.64576">
        <ele>1537.1</ele>
        <time>2024-05-26T09:21:10Z</time>
      </trkpt>
      <trkpt lat="43.73987" lon="6.64576">
        <ele>1537.1</ele>
        <time>2024-05-26T09:21:11Z</time>
      </trkpt>
      <trkpt lat="43.73987" lon="6.64576">
        <ele>1537.1</ele>
        <time>2024-05-26T09:21:12Z</time>
      </trkpt>
      <trkpt lat="43.73988" lon="6.64576">
        <ele>1537.1</ele>
        <time>2024-05-26T09:21:13Z</time>
      </trkpt>
      <trkpt lat="43.73988" lon="6.64576">
        <ele>1537</ele>
        <time>2024-05-26T09:21:14Z</time>
      </trkpt>
      <trkpt lat="43.73988" lon="6.64576">
        <ele>1537</ele>
        <time>2024-05-26T09:21:15Z</time>
      </trkpt>
      <trkpt lat="43.73988" lon="6.64576">
        <ele>1537</ele>
        <time>2024-05-26T09:21:16Z</time>
      </trkpt>
      <trkpt lat="43.73988" lon="6.64576">
        <ele>1536.9</ele>
        <time>2024-05-26T09:21:17Z</time>
      </trkpt>
      <trkpt lat="43.73988" lon="6.64576">
        <ele>1537</ele>
        <time>2024-05-26T09:21:18Z</time>
      </trkpt>
      <trkpt lat="43.73988" lon="6.64576">
        <ele>1537</ele>
        <time>2024-05-26T09:21:19Z</time>
      </trkpt>
      <trkpt lat="43.73988" lon="6.64576">
        <ele>1536.9</ele>
        <time>2024-05-26T09:21:20Z</time>
      </trkpt>
      <trkpt lat="43.73988" lon="6.64576">
        <ele>1536.9</ele>
        <time>2024-05-26T09:21:21Z</time>
      </trkpt>
      <trkpt lat="43.73987" lon="6.64576">
        <ele>1536.9</ele>
        <time>2024-05-26T09:21:22Z</time>
      </trkpt>
      <trkpt lat="43.73987" lon="6.64576">
        <ele>1536.9</ele>
        <time>2024-05-26T09:21:23Z</time>
      </trkpt>
      <trkpt lat="43.73987" lon="6.64577">
        <ele>1536.9</ele>
        <time>2024-05-26T09:21:24Z</time>
      </trkpt>
      <trkpt lat="43.73987" lon="6.64577">
        <ele>1536.9</ele>
        <time>2024-05-26T09:21:25Z</time>
      </trkpt>
      <trkpt lat="43.73987" lon="6.64577">
        <ele>1537</ele>
        <time>2024-05-26T09:21:26Z</time>
      </trkpt>
      <trkpt lat="43.73987" lon="6.64577">
        <ele>1537</ele>
        <time>2024-05-26T09:21:27Z</time>
      </trkpt>
      <trkpt lat="43.73987" lon="6.64577">
        <ele>1537.1</ele>
        <time>2024-05-26T09:21:28Z</time>
      </trkpt>
      <trkpt lat="43.73987" lon="6.64577">
        <ele>1537.2</ele>
        <time>2024-05-26T09:21:29Z</time>
      </trkpt>
      <trkpt lat="43.73987" lon="6.64577">
        <ele>1537.2</ele>
        <time>2024-05-26T09:21:30Z</time>
      </trkpt>
      <trkpt lat="43.73987" lon="6.64577">
        <ele>1537.2</ele>
        <time>2024-05-26T09:21:31Z</time>
      </trkpt>
      <trkpt lat="43.73987" lon="6.64577">
        <ele>1537.2</ele>
        <time>2024-05-26T09:21:32Z</time>
      </trkpt>
      <trkpt lat="43.73987" lon="6.64577">
        <ele>1537.2</ele>
        <time>2024-05-26T09:21:33Z</time>
      </trkpt>
      <trkpt lat="43.73987" lon="6.64577">
        <ele>1537.2</ele>
        <time>2024-05-26T09:21:34Z</time>
      </trkpt>
      <trkpt lat="43.73987" lon="6.64577">
        <ele>1537.2</ele>
        <time>2024-05-26T09:21:35Z</time>
      </trkpt>
      <trkpt lat="43.73987" lon="6.64577">
        <ele>1537.2</ele>
        <time>2024-05-26T09:21:36Z</time>
      </trkpt>
      <trkpt lat="43.73987" lon="6.64577">
        <ele>1537.2</ele>
        <time>2024-05-26T09:21:37Z</time>
      </trkpt>
      <trkpt lat="43.73987" lon="6.64576">
        <ele>1537.2</ele>
        <time>2024-05-26T09:21:38Z</time>
      </trkpt>
      <trkpt lat="43.73987" lon="6.64576">
        <ele>1537.2</ele>
        <time>2024-05-26T09:21:39Z</time>
      </trkpt>
      <trkpt lat="43.73987" lon="6.64576">
        <ele>1537.2</ele>
        <time>2024-05-26T09:21:40Z</time>
      </trkpt>
      <trkpt lat="43.73987" lon="6.64576">
        <ele>1537.3</ele>
        <time>2024-05-26T09:21:41Z</time>
      </trkpt>
      <trkpt lat="43.73987" lon="6.64577">
        <ele>1537.3</ele>
        <time>2024-05-26T09:21:42Z</time>
      </trkpt>
      <trkpt lat="43.73987" lon="6.64576">
        <ele>1537.3</ele>
        <time>2024-05-26T09:21:43Z</time>
      </trkpt>
      <trkpt lat="43.73987" lon="6.64576">
        <ele>1537.3</ele>
        <time>2024-05-26T09:21:44Z</time>
      </trkpt>
      <trkpt lat="43.73987" lon="6.64577">
        <ele>1537.3</ele>
        <time>2024-05-26T09:21:45Z</time>
      </trkpt>
      <trkpt lat="43.73987" lon="6.64577">
        <ele>1537.3</ele>
        <time>2024-05-26T09:21:46Z</time>
      </trkpt>
      <trkpt lat="43.73987" lon="6.64577">
        <ele>1537.3</ele>
        <time>2024-05-26T09:21:47Z</time>
      </trkpt>
      <trkpt lat="43.73987" lon="6.64577">
        <ele>1537.3</ele>
        <time>2024-05-26T09:21:48Z</time>
      </trkpt>
      <trkpt lat="43.73987" lon="6.64577">
        <ele>1537.3</ele>
        <time>2024-05-26T09:21:49Z</time>
      </trkpt>
      <trkpt lat="43.73987" lon="6.64577">
        <ele>1537.3</ele>
        <time>2024-05-26T09:21:50Z</time>
      </trkpt>
      <trkpt lat="43.73987" lon="6.64577">
        <ele>1537.3</ele>
        <time>2024-05-26T09:21:51Z</time>
      </trkpt>
      <trkpt lat="43.73987" lon="6.64577">
        <ele>1537.5</ele>
        <time>2024-05-26T09:21:52Z</time>
      </trkpt>
      <trkpt lat="43.73987" lon="6.64577">
        <ele>1537.5</ele>
        <time>2024-05-26T09:21:53Z</time>
      </trkpt>
      <trkpt lat="43.73987" lon="6.64577">
        <ele>1537.5</ele>
        <time>2024-05-26T09:21:54Z</time>
      </trkpt>
      <trkpt lat="43.73986" lon="6.64577">
        <ele>1537.6</ele>
        <time>2024-05-26T09:21:55Z</time>
      </trkpt>
      <trkpt lat="43.73986" lon="6.64577">
        <ele>1537.6</ele>
        <time>2024-05-26T09:21:56Z</time>
      </trkpt>
      <trkpt lat="43.73986" lon="6.64577">
        <ele>1537.7</ele>
        <time>2024-05-26T09:21:57Z</time>
      </trkpt>
      <trkpt lat="43.73986" lon="6.64577">
        <ele>1537.8</ele>
        <time>2024-05-26T09:21:58Z</time>
      </trkpt>
      <trkpt lat="43.73986" lon="6.64577">
        <ele>1537.7</ele>
        <time>2024-05-26T09:21:59Z</time>
      </trkpt>
      <trkpt lat="43.73986" lon="6.64577">
        <ele>1537.7</ele>
        <time>2024-05-26T09:22:00Z</time>
      </trkpt>
      <trkpt lat="43.73986" lon="6.64577">
        <ele>1537.7</ele>
        <time>2024-05-26T09:22:01Z</time>
      </trkpt>
      <trkpt lat="43.73986" lon="6.64577">
        <ele>1537.8</ele>
        <time>2024-05-26T09:22:02Z</time>
      </trkpt>
      <trkpt lat="43.73986" lon="6.64577">
        <ele>1537.8</ele>
        <time>2024-05-26T09:22:03Z</time>
      </trkpt>
      <trkpt lat="43.73986" lon="6.64577">
        <ele>1537.8</ele>
        <time>2024-05-26T09:22:04Z</time>
      </trkpt>
      <trkpt lat="43.73986" lon="6.64577">
        <ele>1537.7</ele>
        <time>2024-05-26T09:22:05Z</time>
      </trkpt>
      <trkpt lat="43.73986" lon="6.64577">
        <ele>1537.8</ele>
        <time>2024-05-26T09:22:06Z</time>
      </trkpt>
      <trkpt lat="43.73986" lon="6.64577">
        <ele>1537.8</ele>
        <time>2024-05-26T09:22:07Z</time>
      </trkpt>
      <trkpt lat="43.73986" lon="6.64577">
        <ele>1537.8</ele>
        <time>2024-05-26T09:22:08Z</time>
      </trkpt>
      <trkpt lat="43.73986" lon="6.64577">
        <ele>1537.8</ele>
        <time>2024-05-26T09:22:09Z</time>
      </trkpt>
      <trkpt lat="43.73986" lon="6.64577">
        <ele>1537.8</ele>
        <time>2024-05-26T09:22:10Z</time>
      </trkpt>
      <trkpt lat="43.73986" lon="6.64577">
        <ele>1537.8</ele>
        <time>2024-05-26T09:22:11Z</time>
      </trkpt>
      <trkpt lat="43.73986" lon="6.64578">
        <ele>1537.8</ele>
        <time>2024-05-26T09:22:12Z</time>
      </trkpt>
      <trkpt lat="43.73986" lon="6.64578">
        <ele>1537.8</ele>
        <time>2024-05-26T09:22:13Z</time>
      </trkpt>
      <trkpt lat="43.73986" lon="6.64578">
        <ele>1537.8</ele>
        <time>2024-05-26T09:22:14Z</time>
      </trkpt>
      <trkpt lat="43.73986" lon="6.64578">
        <ele>1537.8</ele>
        <time>2024-05-26T09:22:15Z</time>
      </trkpt>
      <trkpt lat="43.73986" lon="6.64578">
        <ele>1537.8</ele>
        <time>2024-05-26T09:22:16Z</time>
      </trkpt>
      <trkpt lat="43.73986" lon="6.64578">
        <ele>1537.8</ele>
        <time>2024-05-26T09:22:17Z</time>
      </trkpt>
      <trkpt lat="43.73986" lon="6.64578">
        <ele>1537.9</ele>
        <time>2024-05-26T09:22:18Z</time>
      </trkpt>
      <trkpt lat="43.73986" lon="6.64578">
        <ele>1537.9</ele>
        <time>2024-05-26T09:22:19Z</time>
      </trkpt>
      <trkpt lat="43.73986" lon="6.64578">
        <ele>1538</ele>
        <time>2024-05-26T09:22:20Z</time>
      </trkpt>
      <trkpt lat="43.73986" lon="6.64578">
        <ele>1538</ele>
        <time>2024-05-26T09:22:21Z</time>
      </trkpt>
      <trkpt lat="43.73987" lon="6.64578">
        <ele>1538.1</ele>
        <time>2024-05-26T09:22:22Z</time>
      </trkpt>
      <trkpt lat="43.73987" lon="6.64578">
        <ele>1538.2</ele>
        <time>2024-05-26T09:22:23Z</time>
      </trkpt>
      <trkpt lat="43.73987" lon="6.64578">
        <ele>1538.2</ele>
        <time>2024-05-26T09:22:24Z</time>
      </trkpt>
      <trkpt lat="43.73987" lon="6.64578">
        <ele>1538.3</ele>
        <time>2024-05-26T09:22:25Z</time>
      </trkpt>
      <trkpt lat="43.73987" lon="6.64578">
        <ele>1538.2</ele>
        <time>2024-05-26T09:22:26Z</time>
      </trkpt>
      <trkpt lat="43.73987" lon="6.64578">
        <ele>1538.2</ele>
        <time>2024-05-26T09:22:27Z</time>
      </trkpt>
      <trkpt lat="43.73987" lon="6.64578">
        <ele>1538.2</ele>
        <time>2024-05-26T09:22:28Z</time>
      </trkpt>
      <trkpt lat="43.73987" lon="6.64578">
        <ele>1538.2</ele>
        <time>2024-05-26T09:22:29Z</time>
      </trkpt>
      <trkpt lat="43.73987" lon="6.64578">
        <ele>1538.3</ele>
        <time>2024-05-26T09:22:30Z</time>
      </trkpt>
      <trkpt lat="43.73987" lon="6.64578">
        <ele>1538.3</ele>
        <time>2024-05-26T09:22:31Z</time>
      </trkpt>
      <trkpt lat="43.73987" lon="6.64578">
        <ele>1538.3</ele>
        <time>2024-05-26T09:22:32Z</time>
      </trkpt>
      <trkpt lat="43.73987" lon="6.64578">
        <ele>1538.3</ele>
        <time>2024-05-26T09:22:33Z</time>
      </trkpt>
      <trkpt lat="43.73987" lon="6.64579">
        <ele>1538.3</ele>
        <time>2024-05-26T09:22:34Z</time>
      </trkpt>
      <trkpt lat="43.73987" lon="6.64579">
        <ele>1538.3</ele>
        <time>2024-05-26T09:22:35Z</time>
      </trkpt>
      <trkpt lat="43.73987" lon="6.64579">
        <ele>1538.2</ele>
        <time>2024-05-26T09:22:36Z</time>
      </trkpt>
      <trkpt lat="43.73987" lon="6.64579">
        <ele>1538.2</ele>
        <time>2024-05-26T09:22:37Z</time>
      </trkpt>
      <trkpt lat="43.73987" lon="6.64579">
        <ele>1538.2</ele>
        <time>2024-05-26T09:22:38Z</time>
      </trkpt>
      <trkpt lat="43.73987" lon="6.64579">
        <ele>1538.1</ele>
        <time>2024-05-26T09:22:39Z</time>
      </trkpt>
      <trkpt lat="43.73987" lon="6.64579">
        <ele>1538.1</ele>
        <time>2024-05-26T09:22:40Z</time>
      </trkpt>
      <trkpt lat="43.73987" lon="6.64579">
        <ele>1538.1</ele>
        <time>2024-05-26T09:22:41Z</time>
      </trkpt>
      <trkpt lat="43.73987" lon="6.64579">
        <ele>1538.1</ele>
        <time>2024-05-26T09:22:42Z</time>
      </trkpt>
      <trkpt lat="43.73987" lon="6.64579">
        <ele>1538</ele>
        <time>2024-05-26T09:22:43Z</time>
      </trkpt>
      <trkpt lat="43.73987" lon="6.64579">
        <ele>1538</ele>
        <time>2024-05-26T09:22:44Z</time>
      </trkpt>
      <trkpt lat="43.73987" lon="6.64579">
        <ele>1538</ele>
        <time>2024-05-26T09:22:45Z</time>
      </trkpt>
      <trkpt lat="43.73987" lon="6.64579">
        <ele>1537.9</ele>
        <time>2024-05-26T09:22:46Z</time>
      </trkpt>
      <trkpt lat="43.73987" lon="6.64579">
        <ele>1537.8</ele>
        <time>2024-05-26T09:22:47Z</time>
      </trkpt>
      <trkpt lat="43.73987" lon="6.64578">
        <ele>1537.8</ele>
        <time>2024-05-26T09:22:48Z</time>
      </trkpt>
      <trkpt lat="43.73987" lon="6.64578">
        <ele>1537.7</ele>
        <time>2024-05-26T09:22:49Z</time>
      </trkpt>
      <trkpt lat="43.73987" lon="6.64578">
        <ele>1537.7</ele>
        <time>2024-05-26T09:22:50Z</time>
      </trkpt>
      <trkpt lat="43.73987" lon="6.64578">
        <ele>1537.5</ele>
        <time>2024-05-26T09:22:51Z</time>
      </trkpt>
      <trkpt lat="43.73986" lon="6.64578">
        <ele>1537.7</ele>
        <time>2024-05-26T09:22:52Z</time>
      </trkpt>
      <trkpt lat="43.73986" lon="6.64578">
        <ele>1537.6</ele>
        <time>2024-05-26T09:22:53Z</time>
      </trkpt>
      <trkpt lat="43.73986" lon="6.64577">
        <ele>1537.6</ele>
        <time>2024-05-26T09:22:54Z</time>
      </trkpt>
      <trkpt lat="43.73987" lon="6.64577">
        <ele>1537.6</ele>
        <time>2024-05-26T09:22:55Z</time>
      </trkpt>
      <trkpt lat="43.73986" lon="6.64577">
        <ele>1537.6</ele>
        <time>2024-05-26T09:22:56Z</time>
      </trkpt>
      <trkpt lat="43.73986" lon="6.64577">
        <ele>1537.7</ele>
        <time>2024-05-26T09:22:57Z</time>
      </trkpt>
      <trkpt lat="43.73986" lon="6.64577">
        <ele>1537.7</ele>
        <time>2024-05-26T09:22:58Z</time>
      </trkpt>
      <trkpt lat="43.73986" lon="6.64576">
        <ele>1537.7</ele>
        <time>2024-05-26T09:22:59Z</time>
      </trkpt>
      <trkpt lat="43.73985" lon="6.64576">
        <ele>1537.8</ele>
        <time>2024-05-26T09:23:00Z</time>
      </trkpt>
      <trkpt lat="43.73985" lon="6.64576">
        <ele>1537.8</ele>
        <time>2024-05-26T09:23:01Z</time>
      </trkpt>
      <trkpt lat="43.73985" lon="6.64576">
        <ele>1537.8</ele>
        <time>2024-05-26T09:23:02Z</time>
      </trkpt>
      <trkpt lat="43.73985" lon="6.64576">
        <ele>1537.8</ele>
        <time>2024-05-26T09:23:03Z</time>
      </trkpt>
      <trkpt lat="43.73984" lon="6.64576">
        <ele>1537.6</ele>
        <time>2024-05-26T09:23:04Z</time>
      </trkpt>
      <trkpt lat="43.73984" lon="6.64577">
        <ele>1537.6</ele>
        <time>2024-05-26T09:23:05Z</time>
      </trkpt>
      <trkpt lat="43.73982" lon="6.64577">
        <ele>1537.6</ele>
        <time>2024-05-26T09:23:06Z</time>
      </trkpt>
      <trkpt lat="43.73982" lon="6.64578">
        <ele>1537.7</ele>
        <time>2024-05-26T09:23:07Z</time>
      </trkpt>
      <trkpt lat="43.73981" lon="6.64579">
        <ele>1537.7</ele>
        <time>2024-05-26T09:23:08Z</time>
      </trkpt>
      <trkpt lat="43.7398" lon="6.64579">
        <ele>1537.7</ele>
        <time>2024-05-26T09:23:09Z</time>
      </trkpt>
      <trkpt lat="43.73979" lon="6.6458">
        <ele>1537.8</ele>
        <time>2024-05-26T09:23:10Z</time>
      </trkpt>
      <trkpt lat="43.73979" lon="6.64581">
        <ele>1537.8</ele>
        <time>2024-05-26T09:23:11Z</time>
      </trkpt>
      <trkpt lat="43.73978" lon="6.64582">
        <ele>1537.9</ele>
        <time>2024-05-26T09:23:12Z</time>
      </trkpt>
      <trkpt lat="43.73978" lon="6.64583">
        <ele>1538</ele>
        <time>2024-05-26T09:23:13Z</time>
      </trkpt>
      <trkpt lat="43.73977" lon="6.64583">
        <ele>1538.1</ele>
        <time>2024-05-26T09:23:14Z</time>
      </trkpt>
      <trkpt lat="43.73976" lon="6.64584">
        <ele>1538.3</ele>
        <time>2024-05-26T09:23:15Z</time>
      </trkpt>
      <trkpt lat="43.73976" lon="6.64585">
        <ele>1538.6</ele>
        <time>2024-05-26T09:23:16Z</time>
      </trkpt>
      <trkpt lat="43.73975" lon="6.64586">
        <ele>1538.8</ele>
        <time>2024-05-26T09:23:17Z</time>
      </trkpt>
      <trkpt lat="43.73975" lon="6.64587">
        <ele>1539</ele>
        <time>2024-05-26T09:23:18Z</time>
      </trkpt>
      <trkpt lat="43.73974" lon="6.64588">
        <ele>1539.1</ele>
        <time>2024-05-26T09:23:19Z</time>
      </trkpt>
      <trkpt lat="43.73974" lon="6.64589">
        <ele>1539.1</ele>
        <time>2024-05-26T09:23:20Z</time>
      </trkpt>
      <trkpt lat="43.73973" lon="6.6459">
        <ele>1539.1</ele>
        <time>2024-05-26T09:23:21Z</time>
      </trkpt>
      <trkpt lat="43.73973" lon="6.64591">
        <ele>1539.4</ele>
        <time>2024-05-26T09:23:22Z</time>
      </trkpt>
      <trkpt lat="43.73972" lon="6.64592">
        <ele>1539.5</ele>
        <time>2024-05-26T09:23:23Z</time>
      </trkpt>
      <trkpt lat="43.73972" lon="6.64592">
        <ele>1539.7</ele>
        <time>2024-05-26T09:23:24Z</time>
      </trkpt>
      <trkpt lat="43.73971" lon="6.64593">
        <ele>1539.8</ele>
        <time>2024-05-26T09:23:25Z</time>
      </trkpt>
      <trkpt lat="43.73971" lon="6.64594">
        <ele>1539.9</ele>
        <time>2024-05-26T09:23:26Z</time>
      </trkpt>
      <trkpt lat="43.73971" lon="6.64595">
        <ele>1540</ele>
        <time>2024-05-26T09:23:27Z</time>
      </trkpt>
      <trkpt lat="43.73971" lon="6.64596">
        <ele>1540.2</ele>
        <time>2024-05-26T09:23:28Z</time>
      </trkpt>
      <trkpt lat="43.73971" lon="6.64597">
        <ele>1540.5</ele>
        <time>2024-05-26T09:23:29Z</time>
      </trkpt>
      <trkpt lat="43.73971" lon="6.64597">
        <ele>1540.8</ele>
        <time>2024-05-26T09:23:30Z</time>
      </trkpt>
      <trkpt lat="43.73971" lon="6.64598">
        <ele>1541</ele>
        <time>2024-05-26T09:23:31Z</time>
      </trkpt>
      <trkpt lat="43.73971" lon="6.64599">
        <ele>1541.2</ele>
        <time>2024-05-26T09:23:32Z</time>
      </trkpt>
      <trkpt lat="43.73972" lon="6.64599">
        <ele>1541.5</ele>
        <time>2024-05-26T09:23:33Z</time>
      </trkpt>
      <trkpt lat="43.73972" lon="6.646">
        <ele>1541.7</ele>
        <time>2024-05-26T09:23:34Z</time>
      </trkpt>
      <trkpt lat="43.73973" lon="6.646">
        <ele>1542</ele>
        <time>2024-05-26T09:23:35Z</time>
      </trkpt>
      <trkpt lat="43.73973" lon="6.64601">
        <ele>1542.2</ele>
        <time>2024-05-26T09:23:36Z</time>
      </trkpt>
      <trkpt lat="43.73973" lon="6.64602">
        <ele>1542.3</ele>
        <time>2024-05-26T09:23:37Z</time>
      </trkpt>
      <trkpt lat="43.73973" lon="6.64603">
        <ele>1542.6</ele>
        <time>2024-05-26T09:23:38Z</time>
      </trkpt>
      <trkpt lat="43.73974" lon="6.64604">
        <ele>1542.8</ele>
        <time>2024-05-26T09:23:39Z</time>
      </trkpt>
      <trkpt lat="43.73974" lon="6.64605">
        <ele>1543.2</ele>
        <time>2024-05-26T09:23:40Z</time>
      </trkpt>
      <trkpt lat="43.73975" lon="6.64606">
        <ele>1543.5</ele>
        <time>2024-05-26T09:23:41Z</time>
      </trkpt>
      <trkpt lat="43.73975" lon="6.64607">
        <ele>1543.8</ele>
        <time>2024-05-26T09:23:42Z</time>
      </trkpt>
      <trkpt lat="43.73974" lon="6.64608">
        <ele>1544.1</ele>
        <time>2024-05-26T09:23:43Z</time>
      </trkpt>
      <trkpt lat="43.73974" lon="6.64609">
        <ele>1544.4</ele>
        <time>2024-05-26T09:23:44Z</time>
      </trkpt>
      <trkpt lat="43.73974" lon="6.6461">
        <ele>1544.6</ele>
        <time>2024-05-26T09:23:45Z</time>
      </trkpt>
      <trkpt lat="43.73974" lon="6.64611">
        <ele>1544.8</ele>
        <time>2024-05-26T09:23:46Z</time>
      </trkpt>
      <trkpt lat="43.73974" lon="6.64612">
        <ele>1545</ele>
        <time>2024-05-26T09:23:47Z</time>
      </trkpt>
      <trkpt lat="43.73974" lon="6.64613">
        <ele>1545.1</ele>
        <time>2024-05-26T09:23:48Z</time>
      </trkpt>
      <trkpt lat="43.73974" lon="6.64613">
        <ele>1545.2</ele>
        <time>2024-05-26T09:23:49Z</time>
      </trkpt>
      <trkpt lat="43.73974" lon="6.64613">
        <ele>1545.3</ele>
        <time>2024-05-26T09:23:50Z</time>
      </trkpt>
      <trkpt lat="43.73974" lon="6.64612">
        <ele>1545.6</ele>
        <time>2024-05-26T09:23:51Z</time>
      </trkpt>
      <trkpt lat="43.73974" lon="6.64612">
        <ele>1545.8</ele>
        <time>2024-05-26T09:23:52Z</time>
      </trkpt>
      <trkpt lat="43.73974" lon="6.64612">
        <ele>1545.9</ele>
        <time>2024-05-26T09:23:53Z</time>
      </trkpt>
      <trkpt lat="43.73974" lon="6.64612">
        <ele>1546</ele>
        <time>2024-05-26T09:23:54Z</time>
      </trkpt>
      <trkpt lat="43.73974" lon="6.64612">
        <ele>1546</ele>
        <time>2024-05-26T09:23:55Z</time>
      </trkpt>
      <trkpt lat="43.73974" lon="6.64612">
        <ele>1545.9</ele>
        <time>2024-05-26T09:23:56Z</time>
      </trkpt>
      <trkpt lat="43.73974" lon="6.64612">
        <ele>1546</ele>
        <time>2024-05-26T09:23:57Z</time>
      </trkpt>
      <trkpt lat="43.73974" lon="6.64613">
        <ele>1546</ele>
        <time>2024-05-26T09:23:58Z</time>
      </trkpt>
      <trkpt lat="43.73975" lon="6.64613">
        <ele>1546.1</ele>
        <time>2024-05-26T09:23:59Z</time>
      </trkpt>
      <trkpt lat="43.73976" lon="6.64614">
        <ele>1546.1</ele>
        <time>2024-05-26T09:24:00Z</time>
      </trkpt>
      <trkpt lat="43.73976" lon="6.64614">
        <ele>1546.2</ele>
        <time>2024-05-26T09:24:01Z</time>
      </trkpt>
      <trkpt lat="43.73977" lon="6.64615">
        <ele>1546.2</ele>
        <time>2024-05-26T09:24:02Z</time>
      </trkpt>
      <trkpt lat="43.73977" lon="6.64615">
        <ele>1546.2</ele>
        <time>2024-05-26T09:24:03Z</time>
      </trkpt>
      <trkpt lat="43.73977" lon="6.64616">
        <ele>1546.3</ele>
        <time>2024-05-26T09:24:04Z</time>
      </trkpt>
      <trkpt lat="43.73978" lon="6.64617">
        <ele>1546.3</ele>
        <time>2024-05-26T09:24:05Z</time>
      </trkpt>
      <trkpt lat="43.73979" lon="6.64617">
        <ele>1546.4</ele>
        <time>2024-05-26T09:24:06Z</time>
      </trkpt>
      <trkpt lat="43.7398" lon="6.64618">
        <ele>1546.4</ele>
        <time>2024-05-26T09:24:07Z</time>
      </trkpt>
      <trkpt lat="43.7398" lon="6.64618">
        <ele>1546.4</ele>
        <time>2024-05-26T09:24:08Z</time>
      </trkpt>
      <trkpt lat="43.73981" lon="6.64618">
        <ele>1546.5</ele>
        <time>2024-05-26T09:24:09Z</time>
      </trkpt>
      <trkpt lat="43.73982" lon="6.64617">
        <ele>1546.5</ele>
        <time>2024-05-26T09:24:10Z</time>
      </trkpt>
      <trkpt lat="43.73982" lon="6.64617">
        <ele>1546.6</ele>
        <time>2024-05-26T09:24:11Z</time>
      </trkpt>
      <trkpt lat="43.73982" lon="6.64618">
        <ele>1546.6</ele>
        <time>2024-05-26T09:24:12Z</time>
      </trkpt>
      <trkpt lat="43.73981" lon="6.6462">
        <ele>1546.6</ele>
        <time>2024-05-26T09:24:13Z</time>
      </trkpt>
      <trkpt lat="43.73982" lon="6.64621">
        <ele>1546.7</ele>
        <time>2024-05-26T09:24:14Z</time>
      </trkpt>
      <trkpt lat="43.73981" lon="6.64622">
        <ele>1546.7</ele>
        <time>2024-05-26T09:24:15Z</time>
      </trkpt>
      <trkpt lat="43.73981" lon="6.64623">
        <ele>1546.7</ele>
        <time>2024-05-26T09:24:16Z</time>
      </trkpt>
      <trkpt lat="43.73981" lon="6.64625">
        <ele>1546.7</ele>
        <time>2024-05-26T09:24:17Z</time>
      </trkpt>
      <trkpt lat="43.73981" lon="6.64626">
        <ele>1546.7</ele>
        <time>2024-05-26T09:24:18Z</time>
      </trkpt>
      <trkpt lat="43.73981" lon="6.64627">
        <ele>1546.8</ele>
        <time>2024-05-26T09:24:19Z</time>
      </trkpt>
      <trkpt lat="43.73981" lon="6.64628">
        <ele>1546.8</ele>
        <time>2024-05-26T09:24:20Z</time>
      </trkpt>
      <trkpt lat="43.73981" lon="6.64628">
        <ele>1546.9</ele>
        <time>2024-05-26T09:24:21Z</time>
      </trkpt>
      <trkpt lat="43.73981" lon="6.64629">
        <ele>1546.9</ele>
        <time>2024-05-26T09:24:22Z</time>
      </trkpt>
      <trkpt lat="43.73981" lon="6.64629">
        <ele>1546.8</ele>
        <time>2024-05-26T09:24:23Z</time>
      </trkpt>
      <trkpt lat="43.73981" lon="6.64629">
        <ele>1546.6</ele>
        <time>2024-05-26T09:24:24Z</time>
      </trkpt>
      <trkpt lat="43.73981" lon="6.64629">
        <ele>1546.5</ele>
        <time>2024-05-26T09:24:25Z</time>
      </trkpt>
      <trkpt lat="43.73981" lon="6.64628">
        <ele>1546.4</ele>
        <time>2024-05-26T09:24:26Z</time>
      </trkpt>
      <trkpt lat="43.7398" lon="6.64629">
        <ele>1546.4</ele>
        <time>2024-05-26T09:24:27Z</time>
      </trkpt>
      <trkpt lat="43.7398" lon="6.64629">
        <ele>1546.4</ele>
        <time>2024-05-26T09:24:28Z</time>
      </trkpt>
      <trkpt lat="43.7398" lon="6.64629">
        <ele>1546.5</ele>
        <time>2024-05-26T09:24:29Z</time>
      </trkpt>
      <trkpt lat="43.7398" lon="6.64629">
        <ele>1546.4</ele>
        <time>2024-05-26T09:24:30Z</time>
      </trkpt>
      <trkpt lat="43.7398" lon="6.64629">
        <ele>1546.4</ele>
        <time>2024-05-26T09:24:31Z</time>
      </trkpt>
      <trkpt lat="43.7398" lon="6.64629">
        <ele>1546.5</ele>
        <time>2024-05-26T09:24:32Z</time>
      </trkpt>
      <trkpt lat="43.7398" lon="6.64628">
        <ele>1546.5</ele>
        <time>2024-05-26T09:24:33Z</time>
      </trkpt>
      <trkpt lat="43.73981" lon="6.64628">
        <ele>1546.6</ele>
        <time>2024-05-26T09:24:34Z</time>
      </trkpt>
      <trkpt lat="43.73981" lon="6.64628">
        <ele>1546.6</ele>
        <time>2024-05-26T09:24:35Z</time>
      </trkpt>
      <trkpt lat="43.73981" lon="6.64628">
        <ele>1546.7</ele>
        <time>2024-05-26T09:24:36Z</time>
      </trkpt>
      <trkpt lat="43.73981" lon="6.64628">
        <ele>1546.7</ele>
        <time>2024-05-26T09:24:37Z</time>
      </trkpt>
      <trkpt lat="43.73981" lon="6.64628">
        <ele>1546.8</ele>
        <time>2024-05-26T09:24:38Z</time>
      </trkpt>
      <trkpt lat="43.73981" lon="6.64628">
        <ele>1546.8</ele>
        <time>2024-05-26T09:24:39Z</time>
      </trkpt>
      <trkpt lat="43.73981" lon="6.64628">
        <ele>1546.8</ele>
        <time>2024-05-26T09:24:40Z</time>
      </trkpt>
      <trkpt lat="43.73981" lon="6.64628">
        <ele>1546.8</ele>
        <time>2024-05-26T09:24:41Z</time>
      </trkpt>
      <trkpt lat="43.73981" lon="6.64627">
        <ele>1546.8</ele>
        <time>2024-05-26T09:24:42Z</time>
      </trkpt>
      <trkpt lat="43.73981" lon="6.64627">
        <ele>1546.8</ele>
        <time>2024-05-26T09:24:43Z</time>
      </trkpt>
      <trkpt lat="43.73981" lon="6.64627">
        <ele>1546.9</ele>
        <time>2024-05-26T09:24:44Z</time>
      </trkpt>
      <trkpt lat="43.73981" lon="6.64627">
        <ele>1547</ele>
        <time>2024-05-26T09:24:45Z</time>
      </trkpt>
      <trkpt lat="43.73981" lon="6.64627">
        <ele>1547.1</ele>
        <time>2024-05-26T09:24:46Z</time>
      </trkpt>
      <trkpt lat="43.73981" lon="6.64627">
        <ele>1547.1</ele>
        <time>2024-05-26T09:24:47Z</time>
      </trkpt>
      <trkpt lat="43.73981" lon="6.64627">
        <ele>1547.1</ele>
        <time>2024-05-26T09:24:48Z</time>
      </trkpt>
      <trkpt lat="43.73981" lon="6.64627">
        <ele>1547.2</ele>
        <time>2024-05-26T09:24:49Z</time>
      </trkpt>
      <trkpt lat="43.73981" lon="6.64627">
        <ele>1547.2</ele>
        <time>2024-05-26T09:24:50Z</time>
      </trkpt>
      <trkpt lat="43.73982" lon="6.64627">
        <ele>1547.2</ele>
        <time>2024-05-26T09:24:51Z</time>
      </trkpt>
      <trkpt lat="43.73982" lon="6.64627">
        <ele>1547.2</ele>
        <time>2024-05-26T09:24:52Z</time>
      </trkpt>
      <trkpt lat="43.73982" lon="6.64627">
        <ele>1547.2</ele>
        <time>2024-05-26T09:24:53Z</time>
      </trkpt>
      <trkpt lat="43.73982" lon="6.64627">
        <ele>1547.2</ele>
        <time>2024-05-26T09:24:54Z</time>
      </trkpt>
      <trkpt lat="43.73982" lon="6.64627">
        <ele>1547.2</ele>
        <time>2024-05-26T09:24:55Z</time>
      </trkpt>
      <trkpt lat="43.73982" lon="6.64627">
        <ele>1547.1</ele>
        <time>2024-05-26T09:24:56Z</time>
      </trkpt>
      <trkpt lat="43.73982" lon="6.64627">
        <ele>1547</ele>
        <time>2024-05-26T09:24:57Z</time>
      </trkpt>
      <trkpt lat="43.73982" lon="6.64627">
        <ele>1547</ele>
        <time>2024-05-26T09:24:58Z</time>
      </trkpt>
      <trkpt lat="43.73982" lon="6.64627">
        <ele>1546.9</ele>
        <time>2024-05-26T09:24:59Z</time>
      </trkpt>
      <trkpt lat="43.73982" lon="6.64628">
        <ele>1547</ele>
        <time>2024-05-26T09:25:00Z</time>
      </trkpt>
      <trkpt lat="43.73983" lon="6.64628">
        <ele>1546.9</ele>
        <time>2024-05-26T09:25:01Z</time>
      </trkpt>
      <trkpt lat="43.73983" lon="6.64628">
        <ele>1546.9</ele>
        <time>2024-05-26T09:25:02Z</time>
      </trkpt>
      <trkpt lat="43.73984" lon="6.64628">
        <ele>1546.9</ele>
        <time>2024-05-26T09:25:03Z</time>
      </trkpt>
      <trkpt lat="43.73985" lon="6.64628">
        <ele>1546.9</ele>
        <time>2024-05-26T09:25:04Z</time>
      </trkpt>
      <trkpt lat="43.73986" lon="6.64628">
        <ele>1546.9</ele>
        <time>2024-05-26T09:25:05Z</time>
      </trkpt>
      <trkpt lat="43.73986" lon="6.64628">
        <ele>1547.1</ele>
        <time>2024-05-26T09:25:06Z</time>
      </trkpt>
      <trkpt lat="43.73987" lon="6.64628">
        <ele>1547.2</ele>
        <time>2024-05-26T09:25:07Z</time>
      </trkpt>
      <trkpt lat="43.73987" lon="6.64628">
        <ele>1547.4</ele>
        <time>2024-05-26T09:25:08Z</time>
      </trkpt>
      <trkpt lat="43.73988" lon="6.64628">
        <ele>1547.5</ele>
        <time>2024-05-26T09:25:09Z</time>
      </trkpt>
      <trkpt lat="43.73989" lon="6.64629">
        <ele>1547.7</ele>
        <time>2024-05-26T09:25:10Z</time>
      </trkpt>
      <trkpt lat="43.7399" lon="6.64629">
        <ele>1547.9</ele>
        <time>2024-05-26T09:25:11Z</time>
      </trkpt>
      <trkpt lat="43.7399" lon="6.6463">
        <ele>1548.1</ele>
        <time>2024-05-26T09:25:12Z</time>
      </trkpt>
      <trkpt lat="43.73991" lon="6.6463">
        <ele>1548.3</ele>
        <time>2024-05-26T09:25:13Z</time>
      </trkpt>
      <trkpt lat="43.73991" lon="6.6463">
        <ele>1548.4</ele>
        <time>2024-05-26T09:25:14Z</time>
      </trkpt>
      <trkpt lat="43.73992" lon="6.6463">
        <ele>1548.5</ele>
        <time>2024-05-26T09:25:15Z</time>
      </trkpt>
      <trkpt lat="43.73992" lon="6.64631">
        <ele>1548.6</ele>
        <time>2024-05-26T09:25:16Z</time>
      </trkpt>
      <trkpt lat="43.73993" lon="6.64631">
        <ele>1548.7</ele>
        <time>2024-05-26T09:25:17Z</time>
      </trkpt>
      <trkpt lat="43.73993" lon="6.64632">
        <ele>1548.9</ele>
        <time>2024-05-26T09:25:18Z</time>
      </trkpt>
      <trkpt lat="43.73993" lon="6.64632">
        <ele>1549</ele>
        <time>2024-05-26T09:25:19Z</time>
      </trkpt>
      <trkpt lat="43.73993" lon="6.64632">
        <ele>1549</ele>
        <time>2024-05-26T09:25:20Z</time>
      </trkpt>
      <trkpt lat="43.73993" lon="6.64633">
        <ele>1548.9</ele>
        <time>2024-05-26T09:25:21Z</time>
      </trkpt>
      <trkpt lat="43.73994" lon="6.64633">
        <ele>1548.9</ele>
        <time>2024-05-26T09:25:22Z</time>
      </trkpt>
      <trkpt lat="43.73994" lon="6.64632">
        <ele>1549</ele>
        <time>2024-05-26T09:25:23Z</time>
      </trkpt>
      <trkpt lat="43.73994" lon="6.64632">
        <ele>1549</ele>
        <time>2024-05-26T09:25:24Z</time>
      </trkpt>
      <trkpt lat="43.73994" lon="6.64632">
        <ele>1549</ele>
        <time>2024-05-26T09:25:25Z</time>
      </trkpt>
      <trkpt lat="43.73994" lon="6.64632">
        <ele>1549</ele>
        <time>2024-05-26T09:25:26Z</time>
      </trkpt>
      <trkpt lat="43.73994" lon="6.64632">
        <ele>1549</ele>
        <time>2024-05-26T09:25:27Z</time>
      </trkpt>
      <trkpt lat="43.73994" lon="6.64632">
        <ele>1549.1</ele>
        <time>2024-05-26T09:25:28Z</time>
      </trkpt>
      <trkpt lat="43.73994" lon="6.64632">
        <ele>1549</ele>
        <time>2024-05-26T09:25:29Z</time>
      </trkpt>
      <trkpt lat="43.73994" lon="6.64632">
        <ele>1549</ele>
        <time>2024-05-26T09:25:30Z</time>
      </trkpt>
      <trkpt lat="43.73994" lon="6.64632">
        <ele>1549</ele>
        <time>2024-05-26T09:25:31Z</time>
      </trkpt>
      <trkpt lat="43.73994" lon="6.64631">
        <ele>1549</ele>
        <time>2024-05-26T09:25:32Z</time>
      </trkpt>
      <trkpt lat="43.73994" lon="6.64632">
        <ele>1549</ele>
        <time>2024-05-26T09:25:33Z</time>
      </trkpt>
      <trkpt lat="43.73994" lon="6.64632">
        <ele>1549.1</ele>
        <time>2024-05-26T09:25:34Z</time>
      </trkpt>
      <trkpt lat="43.73994" lon="6.64632">
        <ele>1549.1</ele>
        <time>2024-05-26T09:25:35Z</time>
      </trkpt>
      <trkpt lat="43.73994" lon="6.64632">
        <ele>1549.1</ele>
        <time>2024-05-26T09:25:36Z</time>
      </trkpt>
      <trkpt lat="43.73994" lon="6.64632">
        <ele>1549.1</ele>
        <time>2024-05-26T09:25:37Z</time>
      </trkpt>
      <trkpt lat="43.73994" lon="6.64632">
        <ele>1549.2</ele>
        <time>2024-05-26T09:25:38Z</time>
      </trkpt>
      <trkpt lat="43.73994" lon="6.64632">
        <ele>1549.2</ele>
        <time>2024-05-26T09:25:39Z</time>
      </trkpt>
      <trkpt lat="43.73994" lon="6.64632">
        <ele>1549.2</ele>
        <time>2024-05-26T09:25:40Z</time>
      </trkpt>
      <trkpt lat="43.73994" lon="6.64633">
        <ele>1549.3</ele>
        <time>2024-05-26T09:25:41Z</time>
      </trkpt>
      <trkpt lat="43.73995" lon="6.64634">
        <ele>1549.3</ele>
        <time>2024-05-26T09:25:42Z</time>
      </trkpt>
      <trkpt lat="43.73995" lon="6.64634">
        <ele>1549.3</ele>
        <time>2024-05-26T09:25:43Z</time>
      </trkpt>
      <trkpt lat="43.73996" lon="6.64635">
        <ele>1549.4</ele>
        <time>2024-05-26T09:25:44Z</time>
      </trkpt>
      <trkpt lat="43.73996" lon="6.64636">
        <ele>1549.5</ele>
        <time>2024-05-26T09:25:45Z</time>
      </trkpt>
      <trkpt lat="43.73996" lon="6.64637">
        <ele>1549.7</ele>
        <time>2024-05-26T09:25:46Z</time>
      </trkpt>
      <trkpt lat="43.73996" lon="6.64638">
        <ele>1549.8</ele>
        <time>2024-05-26T09:25:47Z</time>
      </trkpt>
      <trkpt lat="43.73997" lon="6.64638">
        <ele>1550.1</ele>
        <time>2024-05-26T09:25:48Z</time>
      </trkpt>
      <trkpt lat="43.73997" lon="6.64639">
        <ele>1550.2</ele>
        <time>2024-05-26T09:25:49Z</time>
      </trkpt>
      <trkpt lat="43.73998" lon="6.6464">
        <ele>1550.4</ele>
        <time>2024-05-26T09:25:50Z</time>
      </trkpt>
      <trkpt lat="43.73998" lon="6.64641">
        <ele>1550.6</ele>
        <time>2024-05-26T09:25:51Z</time>
      </trkpt>
      <trkpt lat="43.73998" lon="6.64642">
        <ele>1550.7</ele>
        <time>2024-05-26T09:25:52Z</time>
      </trkpt>
      <trkpt lat="43.73999" lon="6.64643">
        <ele>1550.8</ele>
        <time>2024-05-26T09:25:53Z</time>
      </trkpt>
      <trkpt lat="43.73999" lon="6.64643">
        <ele>1551</ele>
        <time>2024-05-26T09:25:54Z</time>
      </trkpt>
      <trkpt lat="43.73999" lon="6.64644">
        <ele>1551.1</ele>
        <time>2024-05-26T09:25:55Z</time>
      </trkpt>
      <trkpt lat="43.74" lon="6.64645">
        <ele>1551.2</ele>
        <time>2024-05-26T09:25:56Z</time>
      </trkpt>
      <trkpt lat="43.74" lon="6.64646">
        <ele>1551.3</ele>
        <time>2024-05-26T09:25:57Z</time>
      </trkpt>
      <trkpt lat="43.74" lon="6.64646">
        <ele>1551.4</ele>
        <time>2024-05-26T09:25:58Z</time>
      </trkpt>
      <trkpt lat="43.74" lon="6.64647">
        <ele>1551.5</ele>
        <time>2024-05-26T09:25:59Z</time>
      </trkpt>
      <trkpt lat="43.74" lon="6.64648">
        <ele>1551.6</ele>
        <time>2024-05-26T09:26:00Z</time>
      </trkpt>
      <trkpt lat="43.74" lon="6.64648">
        <ele>1551.8</ele>
        <time>2024-05-26T09:26:01Z</time>
      </trkpt>
      <trkpt lat="43.74" lon="6.64649">
        <ele>1552</ele>
        <time>2024-05-26T09:26:02Z</time>
      </trkpt>
      <trkpt lat="43.74" lon="6.6465">
        <ele>1552.1</ele>
        <time>2024-05-26T09:26:03Z</time>
      </trkpt>
      <trkpt lat="43.73999" lon="6.64651">
        <ele>1552.3</ele>
        <time>2024-05-26T09:26:04Z</time>
      </trkpt>
      <trkpt lat="43.73999" lon="6.64652">
        <ele>1552.5</ele>
        <time>2024-05-26T09:26:05Z</time>
      </trkpt>
      <trkpt lat="43.73999" lon="6.64653">
        <ele>1552.6</ele>
        <time>2024-05-26T09:26:06Z</time>
      </trkpt>
      <trkpt lat="43.73999" lon="6.64653">
        <ele>1552.7</ele>
        <time>2024-05-26T09:26:07Z</time>
      </trkpt>
      <trkpt lat="43.73999" lon="6.64654">
        <ele>1552.9</ele>
        <time>2024-05-26T09:26:08Z</time>
      </trkpt>
      <trkpt lat="43.74" lon="6.64655">
        <ele>1553.1</ele>
        <time>2024-05-26T09:26:09Z</time>
      </trkpt>
      <trkpt lat="43.74001" lon="6.64656">
        <ele>1553.3</ele>
        <time>2024-05-26T09:26:10Z</time>
      </trkpt>
      <trkpt lat="43.74001" lon="6.64656">
        <ele>1553.6</ele>
        <time>2024-05-26T09:26:11Z</time>
      </trkpt>
      <trkpt lat="43.74002" lon="6.64656">
        <ele>1553.8</ele>
        <time>2024-05-26T09:26:12Z</time>
      </trkpt>
      <trkpt lat="43.74002" lon="6.64656">
        <ele>1553.9</ele>
        <time>2024-05-26T09:26:13Z</time>
      </trkpt>
      <trkpt lat="43.74003" lon="6.64656">
        <ele>1554.1</ele>
        <time>2024-05-26T09:26:14Z</time>
      </trkpt>
      <trkpt lat="43.74003" lon="6.64657">
        <ele>1554.3</ele>
        <time>2024-05-26T09:26:15Z</time>
      </trkpt>
      <trkpt lat="43.74003" lon="6.64658">
        <ele>1554.5</ele>
        <time>2024-05-26T09:26:16Z</time>
      </trkpt>
      <trkpt lat="43.74003" lon="6.64658">
        <ele>1554.6</ele>
        <time>2024-05-26T09:26:17Z</time>
      </trkpt>
      <trkpt lat="43.74003" lon="6.64659">
        <ele>1554.7</ele>
        <time>2024-05-26T09:26:18Z</time>
      </trkpt>
      <trkpt lat="43.74003" lon="6.6466">
        <ele>1554.8</ele>
        <time>2024-05-26T09:26:19Z</time>
      </trkpt>
      <trkpt lat="43.74003" lon="6.6466">
        <ele>1555</ele>
        <time>2024-05-26T09:26:20Z</time>
      </trkpt>
      <trkpt lat="43.74003" lon="6.64661">
        <ele>1555.1</ele>
        <time>2024-05-26T09:26:21Z</time>
      </trkpt>
      <trkpt lat="43.74004" lon="6.64661">
        <ele>1555.2</ele>
        <time>2024-05-26T09:26:22Z</time>
      </trkpt>
      <trkpt lat="43.74004" lon="6.64662">
        <ele>1555.3</ele>
        <time>2024-05-26T09:26:23Z</time>
      </trkpt>
      <trkpt lat="43.74005" lon="6.64662">
        <ele>1555.4</ele>
        <time>2024-05-26T09:26:24Z</time>
      </trkpt>
      <trkpt lat="43.74005" lon="6.64662">
        <ele>1555.6</ele>
        <time>2024-05-26T09:26:25Z</time>
      </trkpt>
      <trkpt lat="43.74006" lon="6.64663">
        <ele>1555.7</ele>
        <time>2024-05-26T09:26:26Z</time>
      </trkpt>
      <trkpt lat="43.74006" lon="6.64663">
        <ele>1555.9</ele>
        <time>2024-05-26T09:26:27Z</time>
      </trkpt>
      <trkpt lat="43.74007" lon="6.64663">
        <ele>1556</ele>
        <time>2024-05-26T09:26:28Z</time>
      </trkpt>
      <trkpt lat="43.74007" lon="6.64663">
        <ele>1556.2</ele>
        <time>2024-05-26T09:26:29Z</time>
      </trkpt>
      <trkpt lat="43.74008" lon="6.64664">
        <ele>1556.3</ele>
        <time>2024-05-26T09:26:30Z</time>
      </trkpt>
      <trkpt lat="43.74008" lon="6.64665">
        <ele>1556.4</ele>
        <time>2024-05-26T09:26:31Z</time>
      </trkpt>
      <trkpt lat="43.74009" lon="6.64666">
        <ele>1556.5</ele>
        <time>2024-05-26T09:26:32Z</time>
      </trkpt>
      <trkpt lat="43.74009" lon="6.64667">
        <ele>1556.6</ele>
        <time>2024-05-26T09:26:33Z</time>
      </trkpt>
      <trkpt lat="43.7401" lon="6.64667">
        <ele>1556.9</ele>
        <time>2024-05-26T09:26:34Z</time>
      </trkpt>
      <trkpt lat="43.74011" lon="6.64667">
        <ele>1557</ele>
        <time>2024-05-26T09:26:35Z</time>
      </trkpt>
      <trkpt lat="43.74012" lon="6.64667">
        <ele>1557.2</ele>
        <time>2024-05-26T09:26:36Z</time>
      </trkpt>
      <trkpt lat="43.74012" lon="6.64668">
        <ele>1557.3</ele>
        <time>2024-05-26T09:26:37Z</time>
      </trkpt>
      <trkpt lat="43.74013" lon="6.64668">
        <ele>1557.5</ele>
        <time>2024-05-26T09:26:38Z</time>
      </trkpt>
      <trkpt lat="43.74013" lon="6.64669">
        <ele>1557.6</ele>
        <time>2024-05-26T09:26:39Z</time>
      </trkpt>
      <trkpt lat="43.74014" lon="6.64669">
        <ele>1557.7</ele>
        <time>2024-05-26T09:26:40Z</time>
      </trkpt>
      <trkpt lat="43.74014" lon="6.6467">
        <ele>1557.8</ele>
        <time>2024-05-26T09:26:41Z</time>
      </trkpt>
      <trkpt lat="43.74015" lon="6.6467">
        <ele>1557.8</ele>
        <time>2024-05-26T09:26:42Z</time>
      </trkpt>
      <trkpt lat="43.74016" lon="6.64669">
        <ele>1557.8</ele>
        <time>2024-05-26T09:26:43Z</time>
      </trkpt>
      <trkpt lat="43.74016" lon="6.64669">
        <ele>1557.8</ele>
        <time>2024-05-26T09:26:44Z</time>
      </trkpt>
      <trkpt lat="43.74017" lon="6.64669">
        <ele>1557.8</ele>
        <time>2024-05-26T09:26:45Z</time>
      </trkpt>
      <trkpt lat="43.74018" lon="6.6467">
        <ele>1557.8</ele>
        <time>2024-05-26T09:26:46Z</time>
      </trkpt>
      <trkpt lat="43.74018" lon="6.6467">
        <ele>1558</ele>
        <time>2024-05-26T09:26:47Z</time>
      </trkpt>
      <trkpt lat="43.74019" lon="6.64671">
        <ele>1558.1</ele>
        <time>2024-05-26T09:26:48Z</time>
      </trkpt>
      <trkpt lat="43.74019" lon="6.64671">
        <ele>1558.2</ele>
        <time>2024-05-26T09:26:49Z</time>
      </trkpt>
      <trkpt lat="43.7402" lon="6.64672">
        <ele>1558.3</ele>
        <time>2024-05-26T09:26:50Z</time>
      </trkpt>
      <trkpt lat="43.74021" lon="6.64673">
        <ele>1558.4</ele>
        <time>2024-05-26T09:26:51Z</time>
      </trkpt>
      <trkpt lat="43.74021" lon="6.64673">
        <ele>1558.3</ele>
        <time>2024-05-26T09:26:52Z</time>
      </trkpt>
      <trkpt lat="43.74022" lon="6.64674">
        <ele>1558.4</ele>
        <time>2024-05-26T09:26:53Z</time>
      </trkpt>
      <trkpt lat="43.74022" lon="6.64675">
        <ele>1558.5</ele>
        <time>2024-05-26T09:26:54Z</time>
      </trkpt>
      <trkpt lat="43.74022" lon="6.64676">
        <ele>1558.5</ele>
        <time>2024-05-26T09:26:55Z</time>
      </trkpt>
      <trkpt lat="43.74022" lon="6.64677">
        <ele>1558.6</ele>
        <time>2024-05-26T09:26:56Z</time>
      </trkpt>
      <trkpt lat="43.74022" lon="6.64678">
        <ele>1558.7</ele>
        <time>2024-05-26T09:26:57Z</time>
      </trkpt>
      <trkpt lat="43.74023" lon="6.64678">
        <ele>1558.8</ele>
        <time>2024-05-26T09:26:58Z</time>
      </trkpt>
      <trkpt lat="43.74023" lon="6.64679">
        <ele>1558.9</ele>
        <time>2024-05-26T09:26:59Z</time>
      </trkpt>
      <trkpt lat="43.74024" lon="6.64679">
        <ele>1559.1</ele>
        <time>2024-05-26T09:27:00Z</time>
      </trkpt>
      <trkpt lat="43.74025" lon="6.6468">
        <ele>1559.2</ele>
        <time>2024-05-26T09:27:01Z</time>
      </trkpt>
      <trkpt lat="43.74025" lon="6.6468">
        <ele>1559.4</ele>
        <time>2024-05-26T09:27:02Z</time>
      </trkpt>
      <trkpt lat="43.74026" lon="6.6468">
        <ele>1559.6</ele>
        <time>2024-05-26T09:27:03Z</time>
      </trkpt>
      <trkpt lat="43.74026" lon="6.64681">
        <ele>1559.8</ele>
        <time>2024-05-26T09:27:04Z</time>
      </trkpt>
      <trkpt lat="43.74027" lon="6.64682">
        <ele>1560</ele>
        <time>2024-05-26T09:27:05Z</time>
      </trkpt>
      <trkpt lat="43.74027" lon="6.64682">
        <ele>1560.2</ele>
        <time>2024-05-26T09:27:06Z</time>
      </trkpt>
      <trkpt lat="43.74027" lon="6.64682">
        <ele>1560.3</ele>
        <time>2024-05-26T09:27:07Z</time>
      </trkpt>
      <trkpt lat="43.74028" lon="6.64683">
        <ele>1560.6</ele>
        <time>2024-05-26T09:27:08Z</time>
      </trkpt>
      <trkpt lat="43.74028" lon="6.64683">
        <ele>1560.7</ele>
        <time>2024-05-26T09:27:09Z</time>
      </trkpt>
      <trkpt lat="43.74028" lon="6.64684">
        <ele>1561</ele>
        <time>2024-05-26T09:27:10Z</time>
      </trkpt>
      <trkpt lat="43.74027" lon="6.64685">
        <ele>1561.1</ele>
        <time>2024-05-26T09:27:11Z</time>
      </trkpt>
      <trkpt lat="43.74027" lon="6.64686">
        <ele>1561.2</ele>
        <time>2024-05-26T09:27:12Z</time>
      </trkpt>
      <trkpt lat="43.74027" lon="6.64687">
        <ele>1561.3</ele>
        <time>2024-05-26T09:27:13Z</time>
      </trkpt>
      <trkpt lat="43.74027" lon="6.64688">
        <ele>1561.5</ele>
        <time>2024-05-26T09:27:14Z</time>
      </trkpt>
      <trkpt lat="43.74028" lon="6.64688">
        <ele>1561.6</ele>
        <time>2024-05-26T09:27:15Z</time>
      </trkpt>
      <trkpt lat="43.74028" lon="6.64689">
        <ele>1561.7</ele>
        <time>2024-05-26T09:27:16Z</time>
      </trkpt>
      <trkpt lat="43.74029" lon="6.6469">
        <ele>1561.9</ele>
        <time>2024-05-26T09:27:17Z</time>
      </trkpt>
      <trkpt lat="43.74029" lon="6.64691">
        <ele>1562.1</ele>
        <time>2024-05-26T09:27:18Z</time>
      </trkpt>
      <trkpt lat="43.74029" lon="6.64691">
        <ele>1562.3</ele>
        <time>2024-05-26T09:27:19Z</time>
      </trkpt>
      <trkpt lat="43.74029" lon="6.64692">
        <ele>1562.4</ele>
        <time>2024-05-26T09:27:20Z</time>
      </trkpt>
      <trkpt lat="43.74029" lon="6.64693">
        <ele>1562.6</ele>
        <time>2024-05-26T09:27:21Z</time>
      </trkpt>
      <trkpt lat="43.74029" lon="6.64694">
        <ele>1562.7</ele>
        <time>2024-05-26T09:27:22Z</time>
      </trkpt>
      <trkpt lat="43.7403" lon="6.64695">
        <ele>1562.8</ele>
        <time>2024-05-26T09:27:23Z</time>
      </trkpt>
      <trkpt lat="43.7403" lon="6.64696">
        <ele>1563</ele>
        <time>2024-05-26T09:27:24Z</time>
      </trkpt>
      <trkpt lat="43.7403" lon="6.64696">
        <ele>1563.2</ele>
        <time>2024-05-26T09:27:25Z</time>
      </trkpt>
      <trkpt lat="43.7403" lon="6.64697">
        <ele>1563.3</ele>
        <time>2024-05-26T09:27:26Z</time>
      </trkpt>
      <trkpt lat="43.7403" lon="6.64698">
        <ele>1563.5</ele>
        <time>2024-05-26T09:27:27Z</time>
      </trkpt>
      <trkpt lat="43.7403" lon="6.64698">
        <ele>1563.6</ele>
        <time>2024-05-26T09:27:28Z</time>
      </trkpt>
      <trkpt lat="43.7403" lon="6.64698">
        <ele>1563.8</ele>
        <time>2024-05-26T09:27:29Z</time>
      </trkpt>
      <trkpt lat="43.7403" lon="6.64697">
        <ele>1563.9</ele>
        <time>2024-05-26T09:27:30Z</time>
      </trkpt>
      <trkpt lat="43.7403" lon="6.64697">
        <ele>1564</ele>
        <time>2024-05-26T09:27:31Z</time>
      </trkpt>
      <trkpt lat="43.74029" lon="6.64697">
        <ele>1564</ele>
        <time>2024-05-26T09:27:32Z</time>
      </trkpt>
      <trkpt lat="43.74029" lon="6.64697">
        <ele>1564.1</ele>
        <time>2024-05-26T09:27:33Z</time>
      </trkpt>
      <trkpt lat="43.7403" lon="6.64697">
        <ele>1564.1</ele>
        <time>2024-05-26T09:27:34Z</time>
      </trkpt>
      <trkpt lat="43.7403" lon="6.64697">
        <ele>1564.2</ele>
        <time>2024-05-26T09:27:35Z</time>
      </trkpt>
      <trkpt lat="43.7403" lon="6.64697">
        <ele>1564.2</ele>
        <time>2024-05-26T09:27:36Z</time>
      </trkpt>
      <trkpt lat="43.74029" lon="6.64697">
        <ele>1564.2</ele>
        <time>2024-05-26T09:27:37Z</time>
      </trkpt>
      <trkpt lat="43.74029" lon="6.64697">
        <ele>1564.3</ele>
        <time>2024-05-26T09:27:38Z</time>
      </trkpt>
      <trkpt lat="43.74028" lon="6.64697">
        <ele>1564.4</ele>
        <time>2024-05-26T09:27:39Z</time>
      </trkpt>
      <trkpt lat="43.74028" lon="6.64698">
        <ele>1564.4</ele>
        <time>2024-05-26T09:27:40Z</time>
      </trkpt>
      <trkpt lat="43.74028" lon="6.64698">
        <ele>1564.5</ele>
        <time>2024-05-26T09:27:41Z</time>
      </trkpt>
      <trkpt lat="43.74027" lon="6.64698">
        <ele>1564.5</ele>
        <time>2024-05-26T09:27:42Z</time>
      </trkpt>
      <trkpt lat="43.74027" lon="6.64698">
        <ele>1564.6</ele>
        <time>2024-05-26T09:27:43Z</time>
      </trkpt>
      <trkpt lat="43.74027" lon="6.64698">
        <ele>1564.7</ele>
        <time>2024-05-26T09:27:44Z</time>
      </trkpt>
      <trkpt lat="43.74027" lon="6.64698">
        <ele>1564.7</ele>
        <time>2024-05-26T09:27:45Z</time>
      </trkpt>
      <trkpt lat="43.74027" lon="6.64698">
        <ele>1564.7</ele>
        <time>2024-05-26T09:27:46Z</time>
      </trkpt>
      <trkpt lat="43.74027" lon="6.64698">
        <ele>1564.8</ele>
        <time>2024-05-26T09:27:47Z</time>
      </trkpt>
      <trkpt lat="43.74027" lon="6.64698">
        <ele>1564.8</ele>
        <time>2024-05-26T09:27:48Z</time>
      </trkpt>
      <trkpt lat="43.74027" lon="6.64698">
        <ele>1564.8</ele>
        <time>2024-05-26T09:27:49Z</time>
      </trkpt>
      <trkpt lat="43.74027" lon="6.64698">
        <ele>1564.8</ele>
        <time>2024-05-26T09:27:50Z</time>
      </trkpt>
      <trkpt lat="43.74027" lon="6.64699">
        <ele>1564.8</ele>
        <time>2024-05-26T09:27:51Z</time>
      </trkpt>
      <trkpt lat="43.74027" lon="6.64699">
        <ele>1564.9</ele>
        <time>2024-05-26T09:27:52Z</time>
      </trkpt>
      <trkpt lat="43.74027" lon="6.64699">
        <ele>1564.9</ele>
        <time>2024-05-26T09:27:53Z</time>
      </trkpt>
      <trkpt lat="43.74027" lon="6.64699">
        <ele>1564.9</ele>
        <time>2024-05-26T09:27:54Z</time>
      </trkpt>
      <trkpt lat="43.74027" lon="6.64698">
        <ele>1565</ele>
        <time>2024-05-26T09:27:55Z</time>
      </trkpt>
      <trkpt lat="43.74027" lon="6.64699">
        <ele>1565</ele>
        <time>2024-05-26T09:27:56Z</time>
      </trkpt>
      <trkpt lat="43.74027" lon="6.64699">
        <ele>1565</ele>
        <time>2024-05-26T09:27:57Z</time>
      </trkpt>
      <trkpt lat="43.74027" lon="6.64699">
        <ele>1565</ele>
        <time>2024-05-26T09:27:58Z</time>
      </trkpt>
      <trkpt lat="43.74027" lon="6.64699">
        <ele>1565.1</ele>
        <time>2024-05-26T09:27:59Z</time>
      </trkpt>
      <trkpt lat="43.74027" lon="6.64699">
        <ele>1565.2</ele>
        <time>2024-05-26T09:28:00Z</time>
      </trkpt>
      <trkpt lat="43.74027" lon="6.64699">
        <ele>1565.1</ele>
        <time>2024-05-26T09:28:01Z</time>
      </trkpt>
      <trkpt lat="43.74027" lon="6.64699">
        <ele>1565.2</ele>
        <time>2024-05-26T09:28:02Z</time>
      </trkpt>
      <trkpt lat="43.74027" lon="6.647">
        <ele>1565.2</ele>
        <time>2024-05-26T09:28:03Z</time>
      </trkpt>
      <trkpt lat="43.74027" lon="6.647">
        <ele>1565.3</ele>
        <time>2024-05-26T09:28:04Z</time>
      </trkpt>
      <trkpt lat="43.74027" lon="6.647">
        <ele>1565.4</ele>
        <time>2024-05-26T09:28:05Z</time>
      </trkpt>
      <trkpt lat="43.74027" lon="6.647">
        <ele>1565.3</ele>
        <time>2024-05-26T09:28:06Z</time>
      </trkpt>
      <trkpt lat="43.74027" lon="6.64699">
        <ele>1565.3</ele>
        <time>2024-05-26T09:28:07Z</time>
      </trkpt>
      <trkpt lat="43.74027" lon="6.64699">
        <ele>1565.3</ele>
        <time>2024-05-26T09:28:08Z</time>
      </trkpt>
      <trkpt lat="43.74026" lon="6.64699">
        <ele>1565.3</ele>
        <time>2024-05-26T09:28:09Z</time>
      </trkpt>
      <trkpt lat="43.74026" lon="6.64699">
        <ele>1565.4</ele>
        <time>2024-05-26T09:28:10Z</time>
      </trkpt>
      <trkpt lat="43.74026" lon="6.64699">
        <ele>1565.4</ele>
        <time>2024-05-26T09:28:11Z</time>
      </trkpt>
      <trkpt lat="43.74026" lon="6.64699">
        <ele>1565.4</ele>
        <time>2024-05-26T09:28:12Z</time>
      </trkpt>
      <trkpt lat="43.74026" lon="6.64699">
        <ele>1565.5</ele>
        <time>2024-05-26T09:28:13Z</time>
      </trkpt>
      <trkpt lat="43.74026" lon="6.64699">
        <ele>1565.5</ele>
        <time>2024-05-26T09:28:14Z</time>
      </trkpt>
      <trkpt lat="43.74027" lon="6.64699">
        <ele>1565.5</ele>
        <time>2024-05-26T09:28:15Z</time>
      </trkpt>
      <trkpt lat="43.74027" lon="6.64699">
        <ele>1565.5</ele>
        <time>2024-05-26T09:28:16Z</time>
      </trkpt>
      <trkpt lat="43.74027" lon="6.64699">
        <ele>1565.5</ele>
        <time>2024-05-26T09:28:17Z</time>
      </trkpt>
      <trkpt lat="43.74028" lon="6.64699">
        <ele>1565.5</ele>
        <time>2024-05-26T09:28:18Z</time>
      </trkpt>
      <trkpt lat="43.74028" lon="6.64699">
        <ele>1565.5</ele>
        <time>2024-05-26T09:28:19Z</time>
      </trkpt>
      <trkpt lat="43.74029" lon="6.64699">
        <ele>1565.6</ele>
        <time>2024-05-26T09:28:20Z</time>
      </trkpt>
      <trkpt lat="43.7403" lon="6.64699">
        <ele>1565.5</ele>
        <time>2024-05-26T09:28:21Z</time>
      </trkpt>
      <trkpt lat="43.7403" lon="6.64699">
        <ele>1565.4</ele>
        <time>2024-05-26T09:28:22Z</time>
      </trkpt>
      <trkpt lat="43.74031" lon="6.647">
        <ele>1565.4</ele>
        <time>2024-05-26T09:28:23Z</time>
      </trkpt>
      <trkpt lat="43.74031" lon="6.647">
        <ele>1565.4</ele>
        <time>2024-05-26T09:28:24Z</time>
      </trkpt>
      <trkpt lat="43.74031" lon="6.647">
        <ele>1565.4</ele>
        <time>2024-05-26T09:28:25Z</time>
      </trkpt>
      <trkpt lat="43.74031" lon="6.647">
        <ele>1565.3</ele>
        <time>2024-05-26T09:28:26Z</time>
      </trkpt>
      <trkpt lat="43.74031" lon="6.647">
        <ele>1565.3</ele>
        <time>2024-05-26T09:28:27Z</time>
      </trkpt>
      <trkpt lat="43.74031" lon="6.64699">
        <ele>1565.3</ele>
        <time>2024-05-26T09:28:28Z</time>
      </trkpt>
      <trkpt lat="43.74031" lon="6.64699">
        <ele>1565.3</ele>
        <time>2024-05-26T09:28:29Z</time>
      </trkpt>
      <trkpt lat="43.74031" lon="6.64699">
        <ele>1565.3</ele>
        <time>2024-05-26T09:28:30Z</time>
      </trkpt>
      <trkpt lat="43.74031" lon="6.64699">
        <ele>1565.3</ele>
        <time>2024-05-26T09:28:31Z</time>
      </trkpt>
      <trkpt lat="43.74032" lon="6.647">
        <ele>1565.3</ele>
        <time>2024-05-26T09:28:32Z</time>
      </trkpt>
      <trkpt lat="43.74032" lon="6.647">
        <ele>1565.4</ele>
        <time>2024-05-26T09:28:33Z</time>
      </trkpt>
      <trkpt lat="43.74033" lon="6.64701">
        <ele>1565.4</ele>
        <time>2024-05-26T09:28:34Z</time>
      </trkpt>
      <trkpt lat="43.74034" lon="6.64701">
        <ele>1565.4</ele>
        <time>2024-05-26T09:28:35Z</time>
      </trkpt>
      <trkpt lat="43.74035" lon="6.64702">
        <ele>1565.4</ele>
        <time>2024-05-26T09:28:36Z</time>
      </trkpt>
      <trkpt lat="43.74036" lon="6.64703">
        <ele>1565.5</ele>
        <time>2024-05-26T09:28:37Z</time>
      </trkpt>
      <trkpt lat="43.74036" lon="6.64705">
        <ele>1565.6</ele>
        <time>2024-05-26T09:28:38Z</time>
      </trkpt>
      <trkpt lat="43.74036" lon="6.64706">
        <ele>1565.7</ele>
        <time>2024-05-26T09:28:39Z</time>
      </trkpt>
      <trkpt lat="43.74037" lon="6.64707">
        <ele>1565.9</ele>
        <time>2024-05-26T09:28:40Z</time>
      </trkpt>
      <trkpt lat="43.74037" lon="6.64708">
        <ele>1566.1</ele>
        <time>2024-05-26T09:28:41Z</time>
      </trkpt>
      <trkpt lat="43.74038" lon="6.64708">
        <ele>1566.3</ele>
        <time>2024-05-26T09:28:42Z</time>
      </trkpt>
      <trkpt lat="43.74039" lon="6.64708">
        <ele>1566.5</ele>
        <time>2024-05-26T09:28:43Z</time>
      </trkpt>
      <trkpt lat="43.7404" lon="6.64708">
        <ele>1566.6</ele>
        <time>2024-05-26T09:28:44Z</time>
      </trkpt>
      <trkpt lat="43.74041" lon="6.64708">
        <ele>1566.9</ele>
        <time>2024-05-26T09:28:45Z</time>
      </trkpt>
      <trkpt lat="43.74042" lon="6.64708">
        <ele>1567.1</ele>
        <time>2024-05-26T09:28:46Z</time>
      </trkpt>
      <trkpt lat="43.74043" lon="6.64709">
        <ele>1567.3</ele>
        <time>2024-05-26T09:28:47Z</time>
      </trkpt>
      <trkpt lat="43.74044" lon="6.64709">
        <ele>1567.5</ele>
        <time>2024-05-26T09:28:48Z</time>
      </trkpt>
      <trkpt lat="43.74044" lon="6.64709">
        <ele>1567.7</ele>
        <time>2024-05-26T09:28:49Z</time>
      </trkpt>
      <trkpt lat="43.74044" lon="6.6471">
        <ele>1567.9</ele>
        <time>2024-05-26T09:28:50Z</time>
      </trkpt>
      <trkpt lat="43.74045" lon="6.64711">
        <ele>1568.1</ele>
        <time>2024-05-26T09:28:51Z</time>
      </trkpt>
      <trkpt lat="43.74046" lon="6.64712">
        <ele>1568.3</ele>
        <time>2024-05-26T09:28:52Z</time>
      </trkpt>
      <trkpt lat="43.74047" lon="6.64713">
        <ele>1568.5</ele>
        <time>2024-05-26T09:28:53Z</time>
      </trkpt>
      <trkpt lat="43.74048" lon="6.64714">
        <ele>1568.6</ele>
        <time>2024-05-26T09:28:54Z</time>
      </trkpt>
      <trkpt lat="43.74048" lon="6.64715">
        <ele>1568.7</ele>
        <time>2024-05-26T09:28:55Z</time>
      </trkpt>
      <trkpt lat="43.74049" lon="6.64716">
        <ele>1569</ele>
        <time>2024-05-26T09:28:56Z</time>
      </trkpt>
      <trkpt lat="43.74049" lon="6.64716">
        <ele>1569.2</ele>
        <time>2024-05-26T09:28:57Z</time>
      </trkpt>
      <trkpt lat="43.7405" lon="6.64717">
        <ele>1569.5</ele>
        <time>2024-05-26T09:28:58Z</time>
      </trkpt>
      <trkpt lat="43.74051" lon="6.64718">
        <ele>1569.6</ele>
        <time>2024-05-26T09:28:59Z</time>
      </trkpt>
      <trkpt lat="43.74051" lon="6.64719">
        <ele>1569.8</ele>
        <time>2024-05-26T09:29:00Z</time>
      </trkpt>
      <trkpt lat="43.74052" lon="6.6472">
        <ele>1569.9</ele>
        <time>2024-05-26T09:29:01Z</time>
      </trkpt>
      <trkpt lat="43.74053" lon="6.64721">
        <ele>1570.1</ele>
        <time>2024-05-26T09:29:02Z</time>
      </trkpt>
      <trkpt lat="43.74053" lon="6.64722">
        <ele>1570.2</ele>
        <time>2024-05-26T09:29:03Z</time>
      </trkpt>
      <trkpt lat="43.74053" lon="6.64723">
        <ele>1570.4</ele>
        <time>2024-05-26T09:29:04Z</time>
      </trkpt>
      <trkpt lat="43.74054" lon="6.64724">
        <ele>1570.6</ele>
        <time>2024-05-26T09:29:05Z</time>
      </trkpt>
      <trkpt lat="43.74055" lon="6.64724">
        <ele>1570.8</ele>
        <time>2024-05-26T09:29:06Z</time>
      </trkpt>
      <trkpt lat="43.74055" lon="6.64725">
        <ele>1571</ele>
        <time>2024-05-26T09:29:07Z</time>
      </trkpt>
      <trkpt lat="43.74056" lon="6.64726">
        <ele>1571.4</ele>
        <time>2024-05-26T09:29:08Z</time>
      </trkpt>
      <trkpt lat="43.74056" lon="6.64727">
        <ele>1571.5</ele>
        <time>2024-05-26T09:29:09Z</time>
      </trkpt>
      <trkpt lat="43.74057" lon="6.64727">
        <ele>1571.7</ele>
        <time>2024-05-26T09:29:10Z</time>
      </trkpt>
      <trkpt lat="43.74058" lon="6.64728">
        <ele>1571.9</ele>
        <time>2024-05-26T09:29:11Z</time>
      </trkpt>
      <trkpt lat="43.74059" lon="6.64729">
        <ele>1572.1</ele>
        <time>2024-05-26T09:29:12Z</time>
      </trkpt>
      <trkpt lat="43.74059" lon="6.64729">
        <ele>1572.2</ele>
        <time>2024-05-26T09:29:13Z</time>
      </trkpt>
      <trkpt lat="43.7406" lon="6.6473">
        <ele>1572.5</ele>
        <time>2024-05-26T09:29:14Z</time>
      </trkpt>
      <trkpt lat="43.74061" lon="6.64731">
        <ele>1572.7</ele>
        <time>2024-05-26T09:29:15Z</time>
      </trkpt>
      <trkpt lat="43.74061" lon="6.64732">
        <ele>1572.9</ele>
        <time>2024-05-26T09:29:16Z</time>
      </trkpt>
      <trkpt lat="43.74062" lon="6.64732">
        <ele>1573.1</ele>
        <time>2024-05-26T09:29:17Z</time>
      </trkpt>
      <trkpt lat="43.74062" lon="6.64733">
        <ele>1573.3</ele>
        <time>2024-05-26T09:29:18Z</time>
      </trkpt>
      <trkpt lat="43.74063" lon="6.64734">
        <ele>1573.4</ele>
        <time>2024-05-26T09:29:19Z</time>
      </trkpt>
      <trkpt lat="43.74063" lon="6.64735">
        <ele>1573.7</ele>
        <time>2024-05-26T09:29:20Z</time>
      </trkpt>
      <trkpt lat="43.74064" lon="6.64736">
        <ele>1573.9</ele>
        <time>2024-05-26T09:29:21Z</time>
      </trkpt>
      <trkpt lat="43.74064" lon="6.64737">
        <ele>1574</ele>
        <time>2024-05-26T09:29:22Z</time>
      </trkpt>
      <trkpt lat="43.74065" lon="6.64738">
        <ele>1574.3</ele>
        <time>2024-05-26T09:29:23Z</time>
      </trkpt>
      <trkpt lat="43.74066" lon="6.64739">
        <ele>1574.5</ele>
        <time>2024-05-26T09:29:24Z</time>
      </trkpt>
      <trkpt lat="43.74067" lon="6.6474">
        <ele>1574.7</ele>
        <time>2024-05-26T09:29:25Z</time>
      </trkpt>
      <trkpt lat="43.74067" lon="6.6474">
        <ele>1575</ele>
        <time>2024-05-26T09:29:26Z</time>
      </trkpt>
      <trkpt lat="43.74068" lon="6.6474">
        <ele>1575.3</ele>
        <time>2024-05-26T09:29:27Z</time>
      </trkpt>
      <trkpt lat="43.74068" lon="6.64741">
        <ele>1575.5</ele>
        <time>2024-05-26T09:29:28Z</time>
      </trkpt>
      <trkpt lat="43.74069" lon="6.64742">
        <ele>1575.8</ele>
        <time>2024-05-26T09:29:29Z</time>
      </trkpt>
      <trkpt lat="43.74069" lon="6.64742">
        <ele>1576</ele>
        <time>2024-05-26T09:29:30Z</time>
      </trkpt>
      <trkpt lat="43.7407" lon="6.64743">
        <ele>1576.2</ele>
        <time>2024-05-26T09:29:31Z</time>
      </trkpt>
      <trkpt lat="43.7407" lon="6.64743">
        <ele>1576.4</ele>
        <time>2024-05-26T09:29:32Z</time>
      </trkpt>
      <trkpt lat="43.7407" lon="6.64745">
        <ele>1576.7</ele>
        <time>2024-05-26T09:29:33Z</time>
      </trkpt>
      <trkpt lat="43.74071" lon="6.64745">
        <ele>1577</ele>
        <time>2024-05-26T09:29:34Z</time>
      </trkpt>
      <trkpt lat="43.74071" lon="6.64746">
        <ele>1577.2</ele>
        <time>2024-05-26T09:29:35Z</time>
      </trkpt>
      <trkpt lat="43.74072" lon="6.64747">
        <ele>1577.5</ele>
        <time>2024-05-26T09:29:36Z</time>
      </trkpt>
      <trkpt lat="43.74073" lon="6.64748">
        <ele>1577.8</ele>
        <time>2024-05-26T09:29:37Z</time>
      </trkpt>
      <trkpt lat="43.74073" lon="6.64748">
        <ele>1578</ele>
        <time>2024-05-26T09:29:38Z</time>
      </trkpt>
      <trkpt lat="43.74074" lon="6.64749">
        <ele>1578.3</ele>
        <time>2024-05-26T09:29:39Z</time>
      </trkpt>
      <trkpt lat="43.74074" lon="6.6475">
        <ele>1578.5</ele>
        <time>2024-05-26T09:29:40Z</time>
      </trkpt>
      <trkpt lat="43.74075" lon="6.64752">
        <ele>1578.7</ele>
        <time>2024-05-26T09:29:41Z</time>
      </trkpt>
      <trkpt lat="43.74075" lon="6.64753">
        <ele>1578.8</ele>
        <time>2024-05-26T09:29:42Z</time>
      </trkpt>
      <trkpt lat="43.74076" lon="6.64753">
        <ele>1578.9</ele>
        <time>2024-05-26T09:29:43Z</time>
      </trkpt>
      <trkpt lat="43.74076" lon="6.64754">
        <ele>1579.1</ele>
        <time>2024-05-26T09:29:44Z</time>
      </trkpt>
      <trkpt lat="43.74077" lon="6.64754">
        <ele>1579.3</ele>
        <time>2024-05-26T09:29:45Z</time>
      </trkpt>
      <trkpt lat="43.74078" lon="6.64755">
        <ele>1579.4</ele>
        <time>2024-05-26T09:29:46Z</time>
      </trkpt>
      <trkpt lat="43.74079" lon="6.64755">
        <ele>1579.6</ele>
        <time>2024-05-26T09:29:47Z</time>
      </trkpt>
      <trkpt lat="43.74079" lon="6.64756">
        <ele>1579.7</ele>
        <time>2024-05-26T09:29:48Z</time>
      </trkpt>
      <trkpt lat="43.7408" lon="6.64756">
        <ele>1579.8</ele>
        <time>2024-05-26T09:29:49Z</time>
      </trkpt>
      <trkpt lat="43.74081" lon="6.64757">
        <ele>1579.9</ele>
        <time>2024-05-26T09:29:50Z</time>
      </trkpt>
      <trkpt lat="43.74081" lon="6.64757">
        <ele>1580.1</ele>
        <time>2024-05-26T09:29:51Z</time>
      </trkpt>
      <trkpt lat="43.74082" lon="6.64758">
        <ele>1580.3</ele>
        <time>2024-05-26T09:29:52Z</time>
      </trkpt>
      <trkpt lat="43.74082" lon="6.64759">
        <ele>1580.5</ele>
        <time>2024-05-26T09:29:53Z</time>
      </trkpt>
      <trkpt lat="43.74083" lon="6.6476">
        <ele>1580.7</ele>
        <time>2024-05-26T09:29:54Z</time>
      </trkpt>
      <trkpt lat="43.74083" lon="6.6476">
        <ele>1580.9</ele>
        <time>2024-05-26T09:29:55Z</time>
      </trkpt>
      <trkpt lat="43.74084" lon="6.64761">
        <ele>1581.3</ele>
        <time>2024-05-26T09:29:56Z</time>
      </trkpt>
      <trkpt lat="43.74084" lon="6.64761">
        <ele>1581.5</ele>
        <time>2024-05-26T09:29:57Z</time>
      </trkpt>
      <trkpt lat="43.74085" lon="6.64762">
        <ele>1581.7</ele>
        <time>2024-05-26T09:29:58Z</time>
      </trkpt>
      <trkpt lat="43.74085" lon="6.64763">
        <ele>1581.9</ele>
        <time>2024-05-26T09:29:59Z</time>
      </trkpt>
      <trkpt lat="43.74086" lon="6.64764">
        <ele>1582</ele>
        <time>2024-05-26T09:30:00Z</time>
      </trkpt>
      <trkpt lat="43.74086" lon="6.64765">
        <ele>1582.2</ele>
        <time>2024-05-26T09:30:01Z</time>
      </trkpt>
      <trkpt lat="43.74086" lon="6.64766">
        <ele>1582.3</ele>
        <time>2024-05-26T09:30:02Z</time>
      </trkpt>
      <trkpt lat="43.74087" lon="6.64767">
        <ele>1582.5</ele>
        <time>2024-05-26T09:30:03Z</time>
      </trkpt>
      <trkpt lat="43.74087" lon="6.64767">
        <ele>1582.6</ele>
        <time>2024-05-26T09:30:04Z</time>
      </trkpt>
      <trkpt lat="43.74088" lon="6.64768">
        <ele>1582.8</ele>
        <time>2024-05-26T09:30:05Z</time>
      </trkpt>
      <trkpt lat="43.74089" lon="6.64769">
        <ele>1583.1</ele>
        <time>2024-05-26T09:30:06Z</time>
      </trkpt>
      <trkpt lat="43.74089" lon="6.6477">
        <ele>1583.2</ele>
        <time>2024-05-26T09:30:07Z</time>
      </trkpt>
      <trkpt lat="43.74089" lon="6.64771">
        <ele>1583.4</ele>
        <time>2024-05-26T09:30:08Z</time>
      </trkpt>
      <trkpt lat="43.7409" lon="6.64772">
        <ele>1583.5</ele>
        <time>2024-05-26T09:30:09Z</time>
      </trkpt>
      <trkpt lat="43.7409" lon="6.64773">
        <ele>1583.7</ele>
        <time>2024-05-26T09:30:10Z</time>
      </trkpt>
      <trkpt lat="43.74091" lon="6.64773">
        <ele>1584</ele>
        <time>2024-05-26T09:30:11Z</time>
      </trkpt>
      <trkpt lat="43.74091" lon="6.64774">
        <ele>1584.2</ele>
        <time>2024-05-26T09:30:12Z</time>
      </trkpt>
      <trkpt lat="43.74092" lon="6.64774">
        <ele>1584.3</ele>
        <time>2024-05-26T09:30:13Z</time>
      </trkpt>
      <trkpt lat="43.74093" lon="6.64775">
        <ele>1584.5</ele>
        <time>2024-05-26T09:30:14Z</time>
      </trkpt>
      <trkpt lat="43.74093" lon="6.64775">
        <ele>1584.8</ele>
        <time>2024-05-26T09:30:15Z</time>
      </trkpt>
      <trkpt lat="43.74094" lon="6.64776">
        <ele>1585.1</ele>
        <time>2024-05-26T09:30:16Z</time>
      </trkpt>
      <trkpt lat="43.74095" lon="6.64777">
        <ele>1585.2</ele>
        <time>2024-05-26T09:30:17Z</time>
      </trkpt>
      <trkpt lat="43.74095" lon="6.64778">
        <ele>1585.4</ele>
        <time>2024-05-26T09:30:18Z</time>
      </trkpt>
      <trkpt lat="43.74096" lon="6.64779">
        <ele>1585.6</ele>
        <time>2024-05-26T09:30:19Z</time>
      </trkpt>
      <trkpt lat="43.74097" lon="6.6478">
        <ele>1585.9</ele>
        <time>2024-05-26T09:30:20Z</time>
      </trkpt>
      <trkpt lat="43.74097" lon="6.6478">
        <ele>1586.1</ele>
        <time>2024-05-26T09:30:21Z</time>
      </trkpt>
      <trkpt lat="43.74098" lon="6.64781">
        <ele>1586.3</ele>
        <time>2024-05-26T09:30:22Z</time>
      </trkpt>
      <trkpt lat="43.74099" lon="6.64781">
        <ele>1586.5</ele>
        <time>2024-05-26T09:30:23Z</time>
      </trkpt>
      <trkpt lat="43.741" lon="6.64781">
        <ele>1586.7</ele>
        <time>2024-05-26T09:30:24Z</time>
      </trkpt>
      <trkpt lat="43.74101" lon="6.64782">
        <ele>1586.9</ele>
        <time>2024-05-26T09:30:25Z</time>
      </trkpt>
      <trkpt lat="43.74101" lon="6.64783">
        <ele>1587</ele>
        <time>2024-05-26T09:30:26Z</time>
      </trkpt>
      <trkpt lat="43.74102" lon="6.64783">
        <ele>1587.1</ele>
        <time>2024-05-26T09:30:27Z</time>
      </trkpt>
      <trkpt lat="43.74103" lon="6.64784">
        <ele>1587.1</ele>
        <time>2024-05-26T09:30:28Z</time>
      </trkpt>
      <trkpt lat="43.74103" lon="6.64785">
        <ele>1587.3</ele>
        <time>2024-05-26T09:30:29Z</time>
      </trkpt>
      <trkpt lat="43.74104" lon="6.64786">
        <ele>1587.4</ele>
        <time>2024-05-26T09:30:30Z</time>
      </trkpt>
      <trkpt lat="43.74104" lon="6.64787">
        <ele>1587.6</ele>
        <time>2024-05-26T09:30:31Z</time>
      </trkpt>
      <trkpt lat="43.74105" lon="6.64788">
        <ele>1587.7</ele>
        <time>2024-05-26T09:30:32Z</time>
      </trkpt>
      <trkpt lat="43.74105" lon="6.64788">
        <ele>1587.9</ele>
        <time>2024-05-26T09:30:33Z</time>
      </trkpt>
      <trkpt lat="43.74105" lon="6.6479">
        <ele>1588</ele>
        <time>2024-05-26T09:30:34Z</time>
      </trkpt>
      <trkpt lat="43.74105" lon="6.64791">
        <ele>1588.2</ele>
        <time>2024-05-26T09:30:35Z</time>
      </trkpt>
      <trkpt lat="43.74105" lon="6.64793">
        <ele>1588.4</ele>
        <time>2024-05-26T09:30:36Z</time>
      </trkpt>
      <trkpt lat="43.74105" lon="6.64794">
        <ele>1588.7</ele>
        <time>2024-05-26T09:30:37Z</time>
      </trkpt>
      <trkpt lat="43.74105" lon="6.64795">
        <ele>1588.9</ele>
        <time>2024-05-26T09:30:38Z</time>
      </trkpt>
      <trkpt lat="43.74105" lon="6.64797">
        <ele>1589.1</ele>
        <time>2024-05-26T09:30:39Z</time>
      </trkpt>
      <trkpt lat="43.74105" lon="6.64798">
        <ele>1589.2</ele>
        <time>2024-05-26T09:30:40Z</time>
      </trkpt>
      <trkpt lat="43.74105" lon="6.64799">
        <ele>1589.4</ele>
        <time>2024-05-26T09:30:41Z</time>
      </trkpt>
      <trkpt lat="43.74106" lon="6.648">
        <ele>1589.6</ele>
        <time>2024-05-26T09:30:42Z</time>
      </trkpt>
      <trkpt lat="43.74106" lon="6.64801">
        <ele>1589.8</ele>
        <time>2024-05-26T09:30:43Z</time>
      </trkpt>
      <trkpt lat="43.74106" lon="6.64803">
        <ele>1589.9</ele>
        <time>2024-05-26T09:30:44Z</time>
      </trkpt>
      <trkpt lat="43.74106" lon="6.64804">
        <ele>1590</ele>
        <time>2024-05-26T09:30:45Z</time>
      </trkpt>
      <trkpt lat="43.74106" lon="6.64805">
        <ele>1590.2</ele>
        <time>2024-05-26T09:30:46Z</time>
      </trkpt>
      <trkpt lat="43.74107" lon="6.64806">
        <ele>1590.4</ele>
        <time>2024-05-26T09:30:47Z</time>
      </trkpt>
      <trkpt lat="43.74107" lon="6.64807">
        <ele>1590.5</ele>
        <time>2024-05-26T09:30:48Z</time>
      </trkpt>
      <trkpt lat="43.74108" lon="6.64807">
        <ele>1590.7</ele>
        <time>2024-05-26T09:30:49Z</time>
      </trkpt>
      <trkpt lat="43.74109" lon="6.64808">
        <ele>1590.9</ele>
        <time>2024-05-26T09:30:50Z</time>
      </trkpt>
      <trkpt lat="43.7411" lon="6.64808">
        <ele>1591.1</ele>
        <time>2024-05-26T09:30:51Z</time>
      </trkpt>
      <trkpt lat="43.74111" lon="6.64808">
        <ele>1591.2</ele>
        <time>2024-05-26T09:30:52Z</time>
      </trkpt>
      <trkpt lat="43.74111" lon="6.64809">
        <ele>1591.4</ele>
        <time>2024-05-26T09:30:53Z</time>
      </trkpt>
      <trkpt lat="43.74112" lon="6.64809">
        <ele>1591.5</ele>
        <time>2024-05-26T09:30:54Z</time>
      </trkpt>
      <trkpt lat="43.74113" lon="6.6481">
        <ele>1591.7</ele>
        <time>2024-05-26T09:30:55Z</time>
      </trkpt>
      <trkpt lat="43.74114" lon="6.6481">
        <ele>1591.8</ele>
        <time>2024-05-26T09:30:56Z</time>
      </trkpt>
      <trkpt lat="43.74115" lon="6.6481">
        <ele>1592</ele>
        <time>2024-05-26T09:30:57Z</time>
      </trkpt>
      <trkpt lat="43.74115" lon="6.6481">
        <ele>1592.1</ele>
        <time>2024-05-26T09:30:58Z</time>
      </trkpt>
      <trkpt lat="43.74116" lon="6.64811">
        <ele>1592.2</ele>
        <time>2024-05-26T09:30:59Z</time>
      </trkpt>
      <trkpt lat="43.74117" lon="6.64811">
        <ele>1592.5</ele>
        <time>2024-05-26T09:31:00Z</time>
      </trkpt>
      <trkpt lat="43.74118" lon="6.64812">
        <ele>1592.6</ele>
        <time>2024-05-26T09:31:01Z</time>
      </trkpt>
      <trkpt lat="43.74118" lon="6.64812">
        <ele>1592.7</ele>
        <time>2024-05-26T09:31:02Z</time>
      </trkpt>
      <trkpt lat="43.74119" lon="6.64813">
        <ele>1592.8</ele>
        <time>2024-05-26T09:31:03Z</time>
      </trkpt>
      <trkpt lat="43.74119" lon="6.64813">
        <ele>1593.1</ele>
        <time>2024-05-26T09:31:04Z</time>
      </trkpt>
      <trkpt lat="43.7412" lon="6.64814">
        <ele>1593.3</ele>
        <time>2024-05-26T09:31:05Z</time>
      </trkpt>
      <trkpt lat="43.74121" lon="6.64814">
        <ele>1593.5</ele>
        <time>2024-05-26T09:31:06Z</time>
      </trkpt>
      <trkpt lat="43.74122" lon="6.64815">
        <ele>1593.6</ele>
        <time>2024-05-26T09:31:07Z</time>
      </trkpt>
      <trkpt lat="43.74123" lon="6.64815">
        <ele>1593.9</ele>
        <time>2024-05-26T09:31:08Z</time>
      </trkpt>
      <trkpt lat="43.74123" lon="6.64815">
        <ele>1594</ele>
        <time>2024-05-26T09:31:09Z</time>
      </trkpt>
      <trkpt lat="43.74124" lon="6.64816">
        <ele>1594.2</ele>
        <time>2024-05-26T09:31:10Z</time>
      </trkpt>
      <trkpt lat="43.74124" lon="6.64817">
        <ele>1594.3</ele>
        <time>2024-05-26T09:31:11Z</time>
      </trkpt>
      <trkpt lat="43.74124" lon="6.64817">
        <ele>1594.5</ele>
        <time>2024-05-26T09:31:12Z</time>
      </trkpt>
      <trkpt lat="43.74124" lon="6.64818">
        <ele>1594.7</ele>
        <time>2024-05-26T09:31:13Z</time>
      </trkpt>
      <trkpt lat="43.74124" lon="6.64819">
        <ele>1594.9</ele>
        <time>2024-05-26T09:31:14Z</time>
      </trkpt>
      <trkpt lat="43.74124" lon="6.6482">
        <ele>1595.2</ele>
        <time>2024-05-26T09:31:15Z</time>
      </trkpt>
      <trkpt lat="43.74125" lon="6.64821">
        <ele>1595.4</ele>
        <time>2024-05-26T09:31:16Z</time>
      </trkpt>
      <trkpt lat="43.74126" lon="6.64821">
        <ele>1595.6</ele>
        <time>2024-05-26T09:31:17Z</time>
      </trkpt>
      <trkpt lat="43.74126" lon="6.64822">
        <ele>1595.8</ele>
        <time>2024-05-26T09:31:18Z</time>
      </trkpt>
      <trkpt lat="43.74127" lon="6.64823">
        <ele>1596</ele>
        <time>2024-05-26T09:31:19Z</time>
      </trkpt>
      <trkpt lat="43.74127" lon="6.64824">
        <ele>1596.1</ele>
        <time>2024-05-26T09:31:20Z</time>
      </trkpt>
      <trkpt lat="43.74128" lon="6.64825">
        <ele>1596.1</ele>
        <time>2024-05-26T09:31:21Z</time>
      </trkpt>
      <trkpt lat="43.74128" lon="6.64825">
        <ele>1596.2</ele>
        <time>2024-05-26T09:31:22Z</time>
      </trkpt>
      <trkpt lat="43.74129" lon="6.64826">
        <ele>1596.3</ele>
        <time>2024-05-26T09:31:23Z</time>
      </trkpt>
      <trkpt lat="43.74129" lon="6.64827">
        <ele>1596.5</ele>
        <time>2024-05-26T09:31:24Z</time>
      </trkpt>
      <trkpt lat="43.74129" lon="6.64828">
        <ele>1596.6</ele>
        <time>2024-05-26T09:31:25Z</time>
      </trkpt>
      <trkpt lat="43.74129" lon="6.64829">
        <ele>1596.7</ele>
        <time>2024-05-26T09:31:26Z</time>
      </trkpt>
      <trkpt lat="43.7413" lon="6.6483">
        <ele>1596.9</ele>
        <time>2024-05-26T09:31:27Z</time>
      </trkpt>
      <trkpt lat="43.7413" lon="6.64831">
        <ele>1597</ele>
        <time>2024-05-26T09:31:28Z</time>
      </trkpt>
      <trkpt lat="43.74131" lon="6.64832">
        <ele>1597.1</ele>
        <time>2024-05-26T09:31:29Z</time>
      </trkpt>
      <trkpt lat="43.74131" lon="6.64833">
        <ele>1597.3</ele>
        <time>2024-05-26T09:31:30Z</time>
      </trkpt>
      <trkpt lat="43.74131" lon="6.64834">
        <ele>1597.4</ele>
        <time>2024-05-26T09:31:31Z</time>
      </trkpt>
      <trkpt lat="43.74132" lon="6.64835">
        <ele>1597.6</ele>
        <time>2024-05-26T09:31:32Z</time>
      </trkpt>
      <trkpt lat="43.74132" lon="6.64835">
        <ele>1597.7</ele>
        <time>2024-05-26T09:31:33Z</time>
      </trkpt>
      <trkpt lat="43.74132" lon="6.64836">
        <ele>1597.8</ele>
        <time>2024-05-26T09:31:34Z</time>
      </trkpt>
      <trkpt lat="43.74133" lon="6.64837">
        <ele>1597.9</ele>
        <time>2024-05-26T09:31:35Z</time>
      </trkpt>
      <trkpt lat="43.74133" lon="6.64838">
        <ele>1597.8</ele>
        <time>2024-05-26T09:31:36Z</time>
      </trkpt>
      <trkpt lat="43.74134" lon="6.64839">
        <ele>1597.9</ele>
        <time>2024-05-26T09:31:37Z</time>
      </trkpt>
      <trkpt lat="43.74134" lon="6.6484">
        <ele>1598</ele>
        <time>2024-05-26T09:31:38Z</time>
      </trkpt>
      <trkpt lat="43.74134" lon="6.6484">
        <ele>1598.1</ele>
        <time>2024-05-26T09:31:39Z</time>
      </trkpt>
      <trkpt lat="43.74134" lon="6.64841">
        <ele>1598.1</ele>
        <time>2024-05-26T09:31:40Z</time>
      </trkpt>
      <trkpt lat="43.74135" lon="6.64842">
        <ele>1598.1</ele>
        <time>2024-05-26T09:31:41Z</time>
      </trkpt>
      <trkpt lat="43.74135" lon="6.64842">
        <ele>1598.1</ele>
        <time>2024-05-26T09:31:42Z</time>
      </trkpt>
      <trkpt lat="43.74135" lon="6.64843">
        <ele>1598.2</ele>
        <time>2024-05-26T09:31:43Z</time>
      </trkpt>
      <trkpt lat="43.74135" lon="6.64843">
        <ele>1598.3</ele>
        <time>2024-05-26T09:31:44Z</time>
      </trkpt>
      <trkpt lat="43.74135" lon="6.64843">
        <ele>1598.4</ele>
        <time>2024-05-26T09:31:45Z</time>
      </trkpt>
      <trkpt lat="43.74135" lon="6.64843">
        <ele>1598.5</ele>
        <time>2024-05-26T09:31:46Z</time>
      </trkpt>
      <trkpt lat="43.74135" lon="6.64843">
        <ele>1598.5</ele>
        <time>2024-05-26T09:31:47Z</time>
      </trkpt>
      <trkpt lat="43.74135" lon="6.64843">
        <ele>1598.4</ele>
        <time>2024-05-26T09:31:48Z</time>
      </trkpt>
      <trkpt lat="43.74135" lon="6.64843">
        <ele>1598.4</ele>
        <time>2024-05-26T09:31:49Z</time>
      </trkpt>
      <trkpt lat="43.74135" lon="6.64843">
        <ele>1598.4</ele>
        <time>2024-05-26T09:31:50Z</time>
      </trkpt>
      <trkpt lat="43.74135" lon="6.64843">
        <ele>1598.4</ele>
        <time>2024-05-26T09:31:51Z</time>
      </trkpt>
      <trkpt lat="43.74135" lon="6.64843">
        <ele>1598.3</ele>
        <time>2024-05-26T09:31:52Z</time>
      </trkpt>
      <trkpt lat="43.74135" lon="6.64843">
        <ele>1598.3</ele>
        <time>2024-05-26T09:31:53Z</time>
      </trkpt>
      <trkpt lat="43.74135" lon="6.64843">
        <ele>1598.3</ele>
        <time>2024-05-26T09:31:54Z</time>
      </trkpt>
      <trkpt lat="43.74135" lon="6.64843">
        <ele>1598.3</ele>
        <time>2024-05-26T09:31:55Z</time>
      </trkpt>
      <trkpt lat="43.74135" lon="6.64843">
        <ele>1598.2</ele>
        <time>2024-05-26T09:31:56Z</time>
      </trkpt>
      <trkpt lat="43.74135" lon="6.64843">
        <ele>1598.3</ele>
        <time>2024-05-26T09:31:57Z</time>
      </trkpt>
      <trkpt lat="43.74136" lon="6.64843">
        <ele>1598.4</ele>
        <time>2024-05-26T09:31:58Z</time>
      </trkpt>
      <trkpt lat="43.74137" lon="6.64843">
        <ele>1598.5</ele>
        <time>2024-05-26T09:31:59Z</time>
      </trkpt>
      <trkpt lat="43.74137" lon="6.64844">
        <ele>1598.6</ele>
        <time>2024-05-26T09:32:00Z</time>
      </trkpt>
      <trkpt lat="43.74138" lon="6.64844">
        <ele>1598.7</ele>
        <time>2024-05-26T09:32:01Z</time>
      </trkpt>
      <trkpt lat="43.74139" lon="6.64844">
        <ele>1598.8</ele>
        <time>2024-05-26T09:32:02Z</time>
      </trkpt>
      <trkpt lat="43.74139" lon="6.64845">
        <ele>1598.9</ele>
        <time>2024-05-26T09:32:03Z</time>
      </trkpt>
      <trkpt lat="43.7414" lon="6.64846">
        <ele>1599.1</ele>
        <time>2024-05-26T09:32:04Z</time>
      </trkpt>
      <trkpt lat="43.74141" lon="6.64847">
        <ele>1599.3</ele>
        <time>2024-05-26T09:32:05Z</time>
      </trkpt>
      <trkpt lat="43.74142" lon="6.64847">
        <ele>1599.5</ele>
        <time>2024-05-26T09:32:06Z</time>
      </trkpt>
      <trkpt lat="43.74143" lon="6.64847">
        <ele>1599.6</ele>
        <time>2024-05-26T09:32:07Z</time>
      </trkpt>
      <trkpt lat="43.74143" lon="6.64847">
        <ele>1599.8</ele>
        <time>2024-05-26T09:32:08Z</time>
      </trkpt>
      <trkpt lat="43.74144" lon="6.64847">
        <ele>1599.9</ele>
        <time>2024-05-26T09:32:09Z</time>
      </trkpt>
      <trkpt lat="43.74144" lon="6.64847">
        <ele>1600.1</ele>
        <time>2024-05-26T09:32:10Z</time>
      </trkpt>
      <trkpt lat="43.74144" lon="6.64847">
        <ele>1600.3</ele>
        <time>2024-05-26T09:32:11Z</time>
      </trkpt>
      <trkpt lat="43.74144" lon="6.64847">
        <ele>1600.3</ele>
        <time>2024-05-26T09:32:12Z</time>
      </trkpt>
      <trkpt lat="43.74144" lon="6.64847">
        <ele>1600.3</ele>
        <time>2024-05-26T09:32:13Z</time>
      </trkpt>
      <trkpt lat="43.74144" lon="6.64847">
        <ele>1600.4</ele>
        <time>2024-05-26T09:32:14Z</time>
      </trkpt>
      <trkpt lat="43.74145" lon="6.64847">
        <ele>1600.5</ele>
        <time>2024-05-26T09:32:15Z</time>
      </trkpt>
      <trkpt lat="43.74145" lon="6.64847">
        <ele>1600.6</ele>
        <time>2024-05-26T09:32:16Z</time>
      </trkpt>
      <trkpt lat="43.74146" lon="6.64847">
        <ele>1600.8</ele>
        <time>2024-05-26T09:32:17Z</time>
      </trkpt>
      <trkpt lat="43.74147" lon="6.64848">
        <ele>1600.9</ele>
        <time>2024-05-26T09:32:18Z</time>
      </trkpt>
      <trkpt lat="43.74147" lon="6.64848">
        <ele>1601.1</ele>
        <time>2024-05-26T09:32:19Z</time>
      </trkpt>
      <trkpt lat="43.74148" lon="6.64848">
        <ele>1601.2</ele>
        <time>2024-05-26T09:32:20Z</time>
      </trkpt>
      <trkpt lat="43.74149" lon="6.64848">
        <ele>1601.3</ele>
        <time>2024-05-26T09:32:21Z</time>
      </trkpt>
      <trkpt lat="43.7415" lon="6.64848">
        <ele>1601.4</ele>
        <time>2024-05-26T09:32:22Z</time>
      </trkpt>
      <trkpt lat="43.7415" lon="6.64848">
        <ele>1601.6</ele>
        <time>2024-05-26T09:32:23Z</time>
      </trkpt>
      <trkpt lat="43.74151" lon="6.64848">
        <ele>1601.8</ele>
        <time>2024-05-26T09:32:24Z</time>
      </trkpt>
      <trkpt lat="43.74151" lon="6.64849">
        <ele>1602</ele>
        <time>2024-05-26T09:32:25Z</time>
      </trkpt>
      <trkpt lat="43.74152" lon="6.6485">
        <ele>1602</ele>
        <time>2024-05-26T09:32:26Z</time>
      </trkpt>
      <trkpt lat="43.74152" lon="6.6485">
        <ele>1602.1</ele>
        <time>2024-05-26T09:32:27Z</time>
      </trkpt>
      <trkpt lat="43.74153" lon="6.6485">
        <ele>1602.2</ele>
        <time>2024-05-26T09:32:28Z</time>
      </trkpt>
      <trkpt lat="43.74154" lon="6.6485">
        <ele>1602.2</ele>
        <time>2024-05-26T09:32:29Z</time>
      </trkpt>
      <trkpt lat="43.74155" lon="6.6485">
        <ele>1602.4</ele>
        <time>2024-05-26T09:32:30Z</time>
      </trkpt>
      <trkpt lat="43.74155" lon="6.6485">
        <ele>1602.5</ele>
        <time>2024-05-26T09:32:31Z</time>
      </trkpt>
      <trkpt lat="43.74156" lon="6.6485">
        <ele>1602.7</ele>
        <time>2024-05-26T09:32:32Z</time>
      </trkpt>
      <trkpt lat="43.74156" lon="6.6485">
        <ele>1602.8</ele>
        <time>2024-05-26T09:32:33Z</time>
      </trkpt>
      <trkpt lat="43.74157" lon="6.64851">
        <ele>1603.1</ele>
        <time>2024-05-26T09:32:34Z</time>
      </trkpt>
      <trkpt lat="43.74157" lon="6.64852">
        <ele>1603.3</ele>
        <time>2024-05-26T09:32:35Z</time>
      </trkpt>
      <trkpt lat="43.74157" lon="6.64852">
        <ele>1603.4</ele>
        <time>2024-05-26T09:32:36Z</time>
      </trkpt>
      <trkpt lat="43.74157" lon="6.64852">
        <ele>1603.6</ele>
        <time>2024-05-26T09:32:37Z</time>
      </trkpt>
      <trkpt lat="43.74157" lon="6.64853">
        <ele>1603.7</ele>
        <time>2024-05-26T09:32:38Z</time>
      </trkpt>
      <trkpt lat="43.74157" lon="6.64853">
        <ele>1603.8</ele>
        <time>2024-05-26T09:32:39Z</time>
      </trkpt>
      <trkpt lat="43.74156" lon="6.64853">
        <ele>1604</ele>
        <time>2024-05-26T09:32:40Z</time>
      </trkpt>
      <trkpt lat="43.74156" lon="6.64853">
        <ele>1604.1</ele>
        <time>2024-05-26T09:32:41Z</time>
      </trkpt>
      <trkpt lat="43.74156" lon="6.64853">
        <ele>1604.2</ele>
        <time>2024-05-26T09:32:42Z</time>
      </trkpt>
      <trkpt lat="43.74156" lon="6.64853">
        <ele>1604.2</ele>
        <time>2024-05-26T09:32:43Z</time>
      </trkpt>
      <trkpt lat="43.74156" lon="6.64853">
        <ele>1604.3</ele>
        <time>2024-05-26T09:32:44Z</time>
      </trkpt>
      <trkpt lat="43.74156" lon="6.64852">
        <ele>1604.3</ele>
        <time>2024-05-26T09:32:45Z</time>
      </trkpt>
      <trkpt lat="43.74156" lon="6.64853">
        <ele>1604.3</ele>
        <time>2024-05-26T09:32:46Z</time>
      </trkpt>
      <trkpt lat="43.74156" lon="6.64853">
        <ele>1604.4</ele>
        <time>2024-05-26T09:32:47Z</time>
      </trkpt>
      <trkpt lat="43.74156" lon="6.64853">
        <ele>1604.4</ele>
        <time>2024-05-26T09:32:48Z</time>
      </trkpt>
      <trkpt lat="43.74156" lon="6.64853">
        <ele>1604.6</ele>
        <time>2024-05-26T09:32:49Z</time>
      </trkpt>
      <trkpt lat="43.74157" lon="6.64854">
        <ele>1604.6</ele>
        <time>2024-05-26T09:32:50Z</time>
      </trkpt>
      <trkpt lat="43.74157" lon="6.64855">
        <ele>1604.7</ele>
        <time>2024-05-26T09:32:51Z</time>
      </trkpt>
      <trkpt lat="43.74158" lon="6.64855">
        <ele>1604.7</ele>
        <time>2024-05-26T09:32:52Z</time>
      </trkpt>
      <trkpt lat="43.74158" lon="6.64856">
        <ele>1604.8</ele>
        <time>2024-05-26T09:32:53Z</time>
      </trkpt>
      <trkpt lat="43.74159" lon="6.64856">
        <ele>1605</ele>
        <time>2024-05-26T09:32:54Z</time>
      </trkpt>
      <trkpt lat="43.74159" lon="6.64857">
        <ele>1605.2</ele>
        <time>2024-05-26T09:32:55Z</time>
      </trkpt>
      <trkpt lat="43.74159" lon="6.64857">
        <ele>1605.3</ele>
        <time>2024-05-26T09:32:56Z</time>
      </trkpt>
      <trkpt lat="43.7416" lon="6.64858">
        <ele>1605.4</ele>
        <time>2024-05-26T09:32:57Z</time>
      </trkpt>
      <trkpt lat="43.7416" lon="6.64859">
        <ele>1605.5</ele>
        <time>2024-05-26T09:32:58Z</time>
      </trkpt>
      <trkpt lat="43.74161" lon="6.64859">
        <ele>1605.6</ele>
        <time>2024-05-26T09:32:59Z</time>
      </trkpt>
      <trkpt lat="43.74162" lon="6.6486">
        <ele>1605.8</ele>
        <time>2024-05-26T09:33:00Z</time>
      </trkpt>
      <trkpt lat="43.74162" lon="6.6486">
        <ele>1606</ele>
        <time>2024-05-26T09:33:01Z</time>
      </trkpt>
      <trkpt lat="43.74162" lon="6.64861">
        <ele>1606.2</ele>
        <time>2024-05-26T09:33:02Z</time>
      </trkpt>
      <trkpt lat="43.74163" lon="6.64862">
        <ele>1606.4</ele>
        <time>2024-05-26T09:33:03Z</time>
      </trkpt>
      <trkpt lat="43.74163" lon="6.64863">
        <ele>1606.5</ele>
        <time>2024-05-26T09:33:04Z</time>
      </trkpt>
      <trkpt lat="43.74164" lon="6.64864">
        <ele>1606.6</ele>
        <time>2024-05-26T09:33:05Z</time>
      </trkpt>
      <trkpt lat="43.74164" lon="6.64864">
        <ele>1606.8</ele>
        <time>2024-05-26T09:33:06Z</time>
      </trkpt>
      <trkpt lat="43.74165" lon="6.64865">
        <ele>1607</ele>
        <time>2024-05-26T09:33:07Z</time>
      </trkpt>
      <trkpt lat="43.74165" lon="6.64865">
        <ele>1607.1</ele>
        <time>2024-05-26T09:33:08Z</time>
      </trkpt>
      <trkpt lat="43.74165" lon="6.64866">
        <ele>1607.2</ele>
        <time>2024-05-26T09:33:09Z</time>
      </trkpt>
      <trkpt lat="43.74166" lon="6.64867">
        <ele>1607.3</ele>
        <time>2024-05-26T09:33:10Z</time>
      </trkpt>
      <trkpt lat="43.74166" lon="6.64867">
        <ele>1607.5</ele>
        <time>2024-05-26T09:33:11Z</time>
      </trkpt>
      <trkpt lat="43.74167" lon="6.64868">
        <ele>1607.6</ele>
        <time>2024-05-26T09:33:12Z</time>
      </trkpt>
      <trkpt lat="43.74168" lon="6.64868">
        <ele>1607.8</ele>
        <time>2024-05-26T09:33:13Z</time>
      </trkpt>
      <trkpt lat="43.74168" lon="6.64868">
        <ele>1608</ele>
        <time>2024-05-26T09:33:14Z</time>
      </trkpt>
      <trkpt lat="43.74168" lon="6.64869">
        <ele>1608.2</ele>
        <time>2024-05-26T09:33:15Z</time>
      </trkpt>
      <trkpt lat="43.74168" lon="6.6487">
        <ele>1608.3</ele>
        <time>2024-05-26T09:33:16Z</time>
      </trkpt>
      <trkpt lat="43.74169" lon="6.6487">
        <ele>1608.5</ele>
        <time>2024-05-26T09:33:17Z</time>
      </trkpt>
      <trkpt lat="43.74169" lon="6.64871">
        <ele>1608.7</ele>
        <time>2024-05-26T09:33:18Z</time>
      </trkpt>
      <trkpt lat="43.74169" lon="6.64871">
        <ele>1608.9</ele>
        <time>2024-05-26T09:33:19Z</time>
      </trkpt>
      <trkpt lat="43.7417" lon="6.64871">
        <ele>1609.1</ele>
        <time>2024-05-26T09:33:20Z</time>
      </trkpt>
      <trkpt lat="43.7417" lon="6.64872">
        <ele>1609.2</ele>
        <time>2024-05-26T09:33:21Z</time>
      </trkpt>
      <trkpt lat="43.7417" lon="6.64872">
        <ele>1609.4</ele>
        <time>2024-05-26T09:33:22Z</time>
      </trkpt>
      <trkpt lat="43.74171" lon="6.64873">
        <ele>1609.6</ele>
        <time>2024-05-26T09:33:23Z</time>
      </trkpt>
      <trkpt lat="43.74171" lon="6.64873">
        <ele>1609.7</ele>
        <time>2024-05-26T09:33:24Z</time>
      </trkpt>
      <trkpt lat="43.74171" lon="6.64873">
        <ele>1609.9</ele>
        <time>2024-05-26T09:33:25Z</time>
      </trkpt>
      <trkpt lat="43.74172" lon="6.64874">
        <ele>1610</ele>
        <time>2024-05-26T09:33:26Z</time>
      </trkpt>
      <trkpt lat="43.74172" lon="6.64875">
        <ele>1610.2</ele>
        <time>2024-05-26T09:33:27Z</time>
      </trkpt>
      <trkpt lat="43.74172" lon="6.64875">
        <ele>1610.4</ele>
        <time>2024-05-26T09:33:28Z</time>
      </trkpt>
      <trkpt lat="43.74173" lon="6.64876">
        <ele>1610.7</ele>
        <time>2024-05-26T09:33:29Z</time>
      </trkpt>
      <trkpt lat="43.74173" lon="6.64877">
        <ele>1610.8</ele>
        <time>2024-05-26T09:33:30Z</time>
      </trkpt>
      <trkpt lat="43.74173" lon="6.64877">
        <ele>1610.9</ele>
        <time>2024-05-26T09:33:31Z</time>
      </trkpt>
      <trkpt lat="43.74174" lon="6.64877">
        <ele>1611.1</ele>
        <time>2024-05-26T09:33:32Z</time>
      </trkpt>
      <trkpt lat="43.74174" lon="6.64878">
        <ele>1611.4</ele>
        <time>2024-05-26T09:33:33Z</time>
      </trkpt>
      <trkpt lat="43.74174" lon="6.64878">
        <ele>1611.5</ele>
        <time>2024-05-26T09:33:34Z</time>
      </trkpt>
      <trkpt lat="43.74175" lon="6.64878">
        <ele>1611.6</ele>
        <time>2024-05-26T09:33:35Z</time>
      </trkpt>
      <trkpt lat="43.74176" lon="6.64879">
        <ele>1611.7</ele>
        <time>2024-05-26T09:33:36Z</time>
      </trkpt>
      <trkpt lat="43.74176" lon="6.64879">
        <ele>1611.8</ele>
        <time>2024-05-26T09:33:37Z</time>
      </trkpt>
      <trkpt lat="43.74177" lon="6.6488">
        <ele>1611.8</ele>
        <time>2024-05-26T09:33:38Z</time>
      </trkpt>
      <trkpt lat="43.74177" lon="6.6488">
        <ele>1612.1</ele>
        <time>2024-05-26T09:33:39Z</time>
      </trkpt>
      <trkpt lat="43.74178" lon="6.6488">
        <ele>1612.2</ele>
        <time>2024-05-26T09:33:40Z</time>
      </trkpt>
      <trkpt lat="43.74178" lon="6.6488">
        <ele>1612.4</ele>
        <time>2024-05-26T09:33:41Z</time>
      </trkpt>
      <trkpt lat="43.74179" lon="6.64881">
        <ele>1612.5</ele>
        <time>2024-05-26T09:33:42Z</time>
      </trkpt>
      <trkpt lat="43.7418" lon="6.64882">
        <ele>1612.6</ele>
        <time>2024-05-26T09:33:43Z</time>
      </trkpt>
      <trkpt lat="43.7418" lon="6.64882">
        <ele>1612.6</ele>
        <time>2024-05-26T09:33:44Z</time>
      </trkpt>
      <trkpt lat="43.74181" lon="6.64882">
        <ele>1612.7</ele>
        <time>2024-05-26T09:33:45Z</time>
      </trkpt>
      <trkpt lat="43.74181" lon="6.64882">
        <ele>1613</ele>
        <time>2024-05-26T09:33:46Z</time>
      </trkpt>
      <trkpt lat="43.74182" lon="6.64883">
        <ele>1613.2</ele>
        <time>2024-05-26T09:33:47Z</time>
      </trkpt>
      <trkpt lat="43.74182" lon="6.64883">
        <ele>1613.3</ele>
        <time>2024-05-26T09:33:48Z</time>
      </trkpt>
      <trkpt lat="43.74183" lon="6.64883">
        <ele>1613.5</ele>
        <time>2024-05-26T09:33:49Z</time>
      </trkpt>
      <trkpt lat="43.74184" lon="6.64883">
        <ele>1613.7</ele>
        <time>2024-05-26T09:33:50Z</time>
      </trkpt>
      <trkpt lat="43.74185" lon="6.64883">
        <ele>1613.8</ele>
        <time>2024-05-26T09:33:51Z</time>
      </trkpt>
      <trkpt lat="43.74185" lon="6.64884">
        <ele>1613.9</ele>
        <time>2024-05-26T09:33:52Z</time>
      </trkpt>
      <trkpt lat="43.74185" lon="6.64884">
        <ele>1613.9</ele>
        <time>2024-05-26T09:33:53Z</time>
      </trkpt>
      <trkpt lat="43.74186" lon="6.64885">
        <ele>1614</ele>
        <time>2024-05-26T09:33:54Z</time>
      </trkpt>
      <trkpt lat="43.74186" lon="6.64886">
        <ele>1614.1</ele>
        <time>2024-05-26T09:33:55Z</time>
      </trkpt>
      <trkpt lat="43.74187" lon="6.64887">
        <ele>1614.2</ele>
        <time>2024-05-26T09:33:56Z</time>
      </trkpt>
      <trkpt lat="43.74187" lon="6.64888">
        <ele>1614.3</ele>
        <time>2024-05-26T09:33:57Z</time>
      </trkpt>
      <trkpt lat="43.74187" lon="6.64889">
        <ele>1614.6</ele>
        <time>2024-05-26T09:33:58Z</time>
      </trkpt>
      <trkpt lat="43.74187" lon="6.6489">
        <ele>1614.9</ele>
        <time>2024-05-26T09:33:59Z</time>
      </trkpt>
      <trkpt lat="43.74188" lon="6.6489">
        <ele>1615.2</ele>
        <time>2024-05-26T09:34:00Z</time>
      </trkpt>
      <trkpt lat="43.74188" lon="6.64891">
        <ele>1615.4</ele>
        <time>2024-05-26T09:34:01Z</time>
      </trkpt>
      <trkpt lat="43.74189" lon="6.64891">
        <ele>1615.6</ele>
        <time>2024-05-26T09:34:02Z</time>
      </trkpt>
      <trkpt lat="43.74189" lon="6.64892">
        <ele>1615.8</ele>
        <time>2024-05-26T09:34:03Z</time>
      </trkpt>
      <trkpt lat="43.7419" lon="6.64893">
        <ele>1616.1</ele>
        <time>2024-05-26T09:34:04Z</time>
      </trkpt>
      <trkpt lat="43.7419" lon="6.64893">
        <ele>1616.3</ele>
        <time>2024-05-26T09:34:05Z</time>
      </trkpt>
      <trkpt lat="43.74191" lon="6.64893">
        <ele>1616.5</ele>
        <time>2024-05-26T09:34:06Z</time>
      </trkpt>
      <trkpt lat="43.74191" lon="6.64894">
        <ele>1616.7</ele>
        <time>2024-05-26T09:34:07Z</time>
      </trkpt>
      <trkpt lat="43.74191" lon="6.64895">
        <ele>1616.7</ele>
        <time>2024-05-26T09:34:08Z</time>
      </trkpt>
      <trkpt lat="43.74192" lon="6.64896">
        <ele>1616.9</ele>
        <time>2024-05-26T09:34:09Z</time>
      </trkpt>
      <trkpt lat="43.74192" lon="6.64896">
        <ele>1617</ele>
        <time>2024-05-26T09:34:10Z</time>
      </trkpt>
      <trkpt lat="43.74192" lon="6.64897">
        <ele>1617.2</ele>
        <time>2024-05-26T09:34:11Z</time>
      </trkpt>
      <trkpt lat="43.74193" lon="6.64898">
        <ele>1617.4</ele>
        <time>2024-05-26T09:34:12Z</time>
      </trkpt>
      <trkpt lat="43.74193" lon="6.64899">
        <ele>1617.6</ele>
        <time>2024-05-26T09:34:13Z</time>
      </trkpt>
      <trkpt lat="43.74194" lon="6.649">
        <ele>1617.7</ele>
        <time>2024-05-26T09:34:14Z</time>
      </trkpt>
      <trkpt lat="43.74194" lon="6.64901">
        <ele>1617.8</ele>
        <time>2024-05-26T09:34:15Z</time>
      </trkpt>
      <trkpt lat="43.74195" lon="6.64901">
        <ele>1618</ele>
        <time>2024-05-26T09:34:16Z</time>
      </trkpt>
      <trkpt lat="43.74195" lon="6.64902">
        <ele>1618.2</ele>
        <time>2024-05-26T09:34:17Z</time>
      </trkpt>
      <trkpt lat="43.74195" lon="6.64903">
        <ele>1618.3</ele>
        <time>2024-05-26T09:34:18Z</time>
      </trkpt>
      <trkpt lat="43.74196" lon="6.64903">
        <ele>1618.6</ele>
        <time>2024-05-26T09:34:19Z</time>
      </trkpt>
      <trkpt lat="43.74196" lon="6.64904">
        <ele>1618.7</ele>
        <time>2024-05-26T09:34:20Z</time>
      </trkpt>
      <trkpt lat="43.74197" lon="6.64905">
        <ele>1618.8</ele>
        <time>2024-05-26T09:34:21Z</time>
      </trkpt>
      <trkpt lat="43.74197" lon="6.64905">
        <ele>1618.9</ele>
        <time>2024-05-26T09:34:22Z</time>
      </trkpt>
      <trkpt lat="43.74197" lon="6.64906">
        <ele>1619.1</ele>
        <time>2024-05-26T09:34:23Z</time>
      </trkpt>
      <trkpt lat="43.74198" lon="6.64907">
        <ele>1619.3</ele>
        <time>2024-05-26T09:34:24Z</time>
      </trkpt>
      <trkpt lat="43.74198" lon="6.64908">
        <ele>1619.4</ele>
        <time>2024-05-26T09:34:25Z</time>
      </trkpt>
      <trkpt lat="43.74198" lon="6.64908">
        <ele>1619.5</ele>
        <time>2024-05-26T09:34:26Z</time>
      </trkpt>
      <trkpt lat="43.74198" lon="6.64909">
        <ele>1619.7</ele>
        <time>2024-05-26T09:34:27Z</time>
      </trkpt>
      <trkpt lat="43.74199" lon="6.6491">
        <ele>1619.8</ele>
        <time>2024-05-26T09:34:28Z</time>
      </trkpt>
      <trkpt lat="43.74199" lon="6.64911">
        <ele>1620</ele>
        <time>2024-05-26T09:34:29Z</time>
      </trkpt>
      <trkpt lat="43.74199" lon="6.64912">
        <ele>1620.2</ele>
        <time>2024-05-26T09:34:30Z</time>
      </trkpt>
      <trkpt lat="43.742" lon="6.64912">
        <ele>1620.4</ele>
        <time>2024-05-26T09:34:31Z</time>
      </trkpt>
      <trkpt lat="43.742" lon="6.64913">
        <ele>1620.6</ele>
        <time>2024-05-26T09:34:32Z</time>
      </trkpt>
      <trkpt lat="43.742" lon="6.64914">
        <ele>1620.7</ele>
        <time>2024-05-26T09:34:33Z</time>
      </trkpt>
      <trkpt lat="43.74201" lon="6.64914">
        <ele>1620.9</ele>
        <time>2024-05-26T09:34:34Z</time>
      </trkpt>
      <trkpt lat="43.74201" lon="6.64915">
        <ele>1621.1</ele>
        <time>2024-05-26T09:34:35Z</time>
      </trkpt>
      <trkpt lat="43.74202" lon="6.64916">
        <ele>1621.2</ele>
        <time>2024-05-26T09:34:36Z</time>
      </trkpt>
      <trkpt lat="43.74202" lon="6.64917">
        <ele>1621.5</ele>
        <time>2024-05-26T09:34:37Z</time>
      </trkpt>
      <trkpt lat="43.74203" lon="6.64917">
        <ele>1621.6</ele>
        <time>2024-05-26T09:34:38Z</time>
      </trkpt>
      <trkpt lat="43.74203" lon="6.64918">
        <ele>1621.8</ele>
        <time>2024-05-26T09:34:39Z</time>
      </trkpt>
      <trkpt lat="43.74204" lon="6.64919">
        <ele>1622</ele>
        <time>2024-05-26T09:34:40Z</time>
      </trkpt>
      <trkpt lat="43.74205" lon="6.64919">
        <ele>1622.1</ele>
        <time>2024-05-26T09:34:41Z</time>
      </trkpt>
      <trkpt lat="43.74205" lon="6.6492">
        <ele>1622.3</ele>
        <time>2024-05-26T09:34:42Z</time>
      </trkpt>
      <trkpt lat="43.74206" lon="6.6492">
        <ele>1622.5</ele>
        <time>2024-05-26T09:34:43Z</time>
      </trkpt>
      <trkpt lat="43.74206" lon="6.64921">
        <ele>1622.6</ele>
        <time>2024-05-26T09:34:44Z</time>
      </trkpt>
      <trkpt lat="43.74207" lon="6.64921">
        <ele>1622.8</ele>
        <time>2024-05-26T09:34:45Z</time>
      </trkpt>
      <trkpt lat="43.74207" lon="6.64922">
        <ele>1622.9</ele>
        <time>2024-05-26T09:34:46Z</time>
      </trkpt>
      <trkpt lat="43.74208" lon="6.64923">
        <ele>1623.1</ele>
        <time>2024-05-26T09:34:47Z</time>
      </trkpt>
      <trkpt lat="43.74208" lon="6.64924">
        <ele>1623.3</ele>
        <time>2024-05-26T09:34:48Z</time>
      </trkpt>
      <trkpt lat="43.74209" lon="6.64924">
        <ele>1623.4</ele>
        <time>2024-05-26T09:34:49Z</time>
      </trkpt>
      <trkpt lat="43.7421" lon="6.64925">
        <ele>1623.6</ele>
        <time>2024-05-26T09:34:50Z</time>
      </trkpt>
      <trkpt lat="43.7421" lon="6.64925">
        <ele>1623.8</ele>
        <time>2024-05-26T09:34:51Z</time>
      </trkpt>
      <trkpt lat="43.74211" lon="6.64926">
        <ele>1624</ele>
        <time>2024-05-26T09:34:52Z</time>
      </trkpt>
      <trkpt lat="43.74212" lon="6.64927">
        <ele>1624.1</ele>
        <time>2024-05-26T09:34:53Z</time>
      </trkpt>
      <trkpt lat="43.74212" lon="6.64927">
        <ele>1624.4</ele>
        <time>2024-05-26T09:34:54Z</time>
      </trkpt>
      <trkpt lat="43.74213" lon="6.64928">
        <ele>1624.6</ele>
        <time>2024-05-26T09:34:55Z</time>
      </trkpt>
      <trkpt lat="43.74213" lon="6.64929">
        <ele>1624.8</ele>
        <time>2024-05-26T09:34:56Z</time>
      </trkpt>
      <trkpt lat="43.74214" lon="6.64929">
        <ele>1624.9</ele>
        <time>2024-05-26T09:34:57Z</time>
      </trkpt>
      <trkpt lat="43.74214" lon="6.64931">
        <ele>1625.1</ele>
        <time>2024-05-26T09:34:58Z</time>
      </trkpt>
      <trkpt lat="43.74215" lon="6.64932">
        <ele>1625.3</ele>
        <time>2024-05-26T09:34:59Z</time>
      </trkpt>
      <trkpt lat="43.74215" lon="6.64932">
        <ele>1625.5</ele>
        <time>2024-05-26T09:35:00Z</time>
      </trkpt>
      <trkpt lat="43.74216" lon="6.64933">
        <ele>1625.7</ele>
        <time>2024-05-26T09:35:01Z</time>
      </trkpt>
      <trkpt lat="43.74216" lon="6.64934">
        <ele>1625.9</ele>
        <time>2024-05-26T09:35:02Z</time>
      </trkpt>
      <trkpt lat="43.74217" lon="6.64935">
        <ele>1626.1</ele>
        <time>2024-05-26T09:35:03Z</time>
      </trkpt>
      <trkpt lat="43.74217" lon="6.64935">
        <ele>1626.3</ele>
        <time>2024-05-26T09:35:04Z</time>
      </trkpt>
      <trkpt lat="43.74218" lon="6.64936">
        <ele>1626.5</ele>
        <time>2024-05-26T09:35:05Z</time>
      </trkpt>
      <trkpt lat="43.74218" lon="6.64937">
        <ele>1626.7</ele>
        <time>2024-05-26T09:35:06Z</time>
      </trkpt>
      <trkpt lat="43.74219" lon="6.64938">
        <ele>1626.8</ele>
        <time>2024-05-26T09:35:07Z</time>
      </trkpt>
      <trkpt lat="43.7422" lon="6.64938">
        <ele>1626.9</ele>
        <time>2024-05-26T09:35:08Z</time>
      </trkpt>
      <trkpt lat="43.74221" lon="6.64938">
        <ele>1627</ele>
        <time>2024-05-26T09:35:09Z</time>
      </trkpt>
      <trkpt lat="43.74221" lon="6.64939">
        <ele>1627.1</ele>
        <time>2024-05-26T09:35:10Z</time>
      </trkpt>
      <trkpt lat="43.74222" lon="6.64939">
        <ele>1627.3</ele>
        <time>2024-05-26T09:35:11Z</time>
      </trkpt>
      <trkpt lat="43.74223" lon="6.6494">
        <ele>1627.5</ele>
        <time>2024-05-26T09:35:12Z</time>
      </trkpt>
      <trkpt lat="43.74223" lon="6.6494">
        <ele>1627.7</ele>
        <time>2024-05-26T09:35:13Z</time>
      </trkpt>
      <trkpt lat="43.74224" lon="6.64941">
        <ele>1627.8</ele>
        <time>2024-05-26T09:35:14Z</time>
      </trkpt>
      <trkpt lat="43.74224" lon="6.64942">
        <ele>1627.9</ele>
        <time>2024-05-26T09:35:15Z</time>
      </trkpt>
      <trkpt lat="43.74225" lon="6.64942">
        <ele>1628.1</ele>
        <time>2024-05-26T09:35:16Z</time>
      </trkpt>
      <trkpt lat="43.74226" lon="6.64943">
        <ele>1628.2</ele>
        <time>2024-05-26T09:35:17Z</time>
      </trkpt>
      <trkpt lat="43.74227" lon="6.64943">
        <ele>1628.3</ele>
        <time>2024-05-26T09:35:18Z</time>
      </trkpt>
      <trkpt lat="43.74228" lon="6.64943">
        <ele>1628.4</ele>
        <time>2024-05-26T09:35:19Z</time>
      </trkpt>
      <trkpt lat="43.74229" lon="6.64944">
        <ele>1628.6</ele>
        <time>2024-05-26T09:35:20Z</time>
      </trkpt>
      <trkpt lat="43.74229" lon="6.64944">
        <ele>1628.8</ele>
        <time>2024-05-26T09:35:21Z</time>
      </trkpt>
      <trkpt lat="43.7423" lon="6.64945">
        <ele>1628.9</ele>
        <time>2024-05-26T09:35:22Z</time>
      </trkpt>
      <trkpt lat="43.7423" lon="6.64946">
        <ele>1629.1</ele>
        <time>2024-05-26T09:35:23Z</time>
      </trkpt>
      <trkpt lat="43.74231" lon="6.64947">
        <ele>1629.3</ele>
        <time>2024-05-26T09:35:24Z</time>
      </trkpt>
      <trkpt lat="43.74231" lon="6.64948">
        <ele>1629.6</ele>
        <time>2024-05-26T09:35:25Z</time>
      </trkpt>
      <trkpt lat="43.74232" lon="6.64949">
        <ele>1629.7</ele>
        <time>2024-05-26T09:35:26Z</time>
      </trkpt>
      <trkpt lat="43.74232" lon="6.6495">
        <ele>1629.9</ele>
        <time>2024-05-26T09:35:27Z</time>
      </trkpt>
      <trkpt lat="43.74233" lon="6.64951">
        <ele>1630</ele>
        <time>2024-05-26T09:35:28Z</time>
      </trkpt>
      <trkpt lat="43.74233" lon="6.64951">
        <ele>1630.1</ele>
        <time>2024-05-26T09:35:29Z</time>
      </trkpt>
      <trkpt lat="43.74234" lon="6.64952">
        <ele>1630.2</ele>
        <time>2024-05-26T09:35:30Z</time>
      </trkpt>
      <trkpt lat="43.74234" lon="6.64953">
        <ele>1630.4</ele>
        <time>2024-05-26T09:35:31Z</time>
      </trkpt>
      <trkpt lat="43.74235" lon="6.64954">
        <ele>1630.6</ele>
        <time>2024-05-26T09:35:32Z</time>
      </trkpt>
      <trkpt lat="43.74236" lon="6.64954">
        <ele>1630.7</ele>
        <time>2024-05-26T09:35:33Z</time>
      </trkpt>
      <trkpt lat="43.74236" lon="6.64955">
        <ele>1630.8</ele>
        <time>2024-05-26T09:35:34Z</time>
      </trkpt>
      <trkpt lat="43.74237" lon="6.64955">
        <ele>1631</ele>
        <time>2024-05-26T09:35:35Z</time>
      </trkpt>
      <trkpt lat="43.74238" lon="6.64956">
        <ele>1631.1</ele>
        <time>2024-05-26T09:35:36Z</time>
      </trkpt>
      <trkpt lat="43.74238" lon="6.64956">
        <ele>1631.2</ele>
        <time>2024-05-26T09:35:37Z</time>
      </trkpt>
      <trkpt lat="43.74239" lon="6.64956">
        <ele>1631.4</ele>
        <time>2024-05-26T09:35:38Z</time>
      </trkpt>
      <trkpt lat="43.7424" lon="6.64957">
        <ele>1631.5</ele>
        <time>2024-05-26T09:35:39Z</time>
      </trkpt>
      <trkpt lat="43.7424" lon="6.64958">
        <ele>1631.7</ele>
        <time>2024-05-26T09:35:40Z</time>
      </trkpt>
      <trkpt lat="43.7424" lon="6.64959">
        <ele>1631.9</ele>
        <time>2024-05-26T09:35:41Z</time>
      </trkpt>
      <trkpt lat="43.7424" lon="6.6496">
        <ele>1632.1</ele>
        <time>2024-05-26T09:35:42Z</time>
      </trkpt>
      <trkpt lat="43.7424" lon="6.64962">
        <ele>1632.2</ele>
        <time>2024-05-26T09:35:43Z</time>
      </trkpt>
      <trkpt lat="43.7424" lon="6.64963">
        <ele>1632.3</ele>
        <time>2024-05-26T09:35:44Z</time>
      </trkpt>
      <trkpt lat="43.7424" lon="6.64964">
        <ele>1632.4</ele>
        <time>2024-05-26T09:35:45Z</time>
      </trkpt>
      <trkpt lat="43.74241" lon="6.64964">
        <ele>1632.5</ele>
        <time>2024-05-26T09:35:46Z</time>
      </trkpt>
      <trkpt lat="43.74241" lon="6.64965">
        <ele>1632.7</ele>
        <time>2024-05-26T09:35:47Z</time>
      </trkpt>
      <trkpt lat="43.74242" lon="6.64966">
        <ele>1632.9</ele>
        <time>2024-05-26T09:35:48Z</time>
      </trkpt>
      <trkpt lat="43.74242" lon="6.64967">
        <ele>1633.1</ele>
        <time>2024-05-26T09:35:49Z</time>
      </trkpt>
      <trkpt lat="43.74243" lon="6.64967">
        <ele>1633.2</ele>
        <time>2024-05-26T09:35:50Z</time>
      </trkpt>
      <trkpt lat="43.74243" lon="6.64968">
        <ele>1633.3</ele>
        <time>2024-05-26T09:35:51Z</time>
      </trkpt>
      <trkpt lat="43.74244" lon="6.64968">
        <ele>1633.5</ele>
        <time>2024-05-26T09:35:52Z</time>
      </trkpt>
      <trkpt lat="43.74245" lon="6.64969">
        <ele>1633.7</ele>
        <time>2024-05-26T09:35:53Z</time>
      </trkpt>
      <trkpt lat="43.74245" lon="6.6497">
        <ele>1633.9</ele>
        <time>2024-05-26T09:35:54Z</time>
      </trkpt>
      <trkpt lat="43.74246" lon="6.6497">
        <ele>1634</ele>
        <time>2024-05-26T09:35:55Z</time>
      </trkpt>
      <trkpt lat="43.74246" lon="6.64971">
        <ele>1634.1</ele>
        <time>2024-05-26T09:35:56Z</time>
      </trkpt>
      <trkpt lat="43.74247" lon="6.64971">
        <ele>1634.2</ele>
        <time>2024-05-26T09:35:57Z</time>
      </trkpt>
      <trkpt lat="43.74247" lon="6.64972">
        <ele>1634.3</ele>
        <time>2024-05-26T09:35:58Z</time>
      </trkpt>
      <trkpt lat="43.74248" lon="6.64973">
        <ele>1634.4</ele>
        <time>2024-05-26T09:35:59Z</time>
      </trkpt>
      <trkpt lat="43.74248" lon="6.64973">
        <ele>1634.6</ele>
        <time>2024-05-26T09:36:00Z</time>
      </trkpt>
      <trkpt lat="43.74249" lon="6.64974">
        <ele>1634.8</ele>
        <time>2024-05-26T09:36:01Z</time>
      </trkpt>
      <trkpt lat="43.74249" lon="6.64975">
        <ele>1634.9</ele>
        <time>2024-05-26T09:36:02Z</time>
      </trkpt>
      <trkpt lat="43.74249" lon="6.64976">
        <ele>1635.1</ele>
        <time>2024-05-26T09:36:03Z</time>
      </trkpt>
      <trkpt lat="43.7425" lon="6.64977">
        <ele>1635.2</ele>
        <time>2024-05-26T09:36:04Z</time>
      </trkpt>
      <trkpt lat="43.7425" lon="6.64977">
        <ele>1635.3</ele>
        <time>2024-05-26T09:36:05Z</time>
      </trkpt>
      <trkpt lat="43.7425" lon="6.64978">
        <ele>1635.5</ele>
        <time>2024-05-26T09:36:06Z</time>
      </trkpt>
      <trkpt lat="43.74251" lon="6.64979">
        <ele>1635.6</ele>
        <time>2024-05-26T09:36:07Z</time>
      </trkpt>
      <trkpt lat="43.74251" lon="6.6498">
        <ele>1635.7</ele>
        <time>2024-05-26T09:36:08Z</time>
      </trkpt>
      <trkpt lat="43.74251" lon="6.64982">
        <ele>1635.9</ele>
        <time>2024-05-26T09:36:09Z</time>
      </trkpt>
      <trkpt lat="43.74251" lon="6.64983">
        <ele>1636</ele>
        <time>2024-05-26T09:36:10Z</time>
      </trkpt>
      <trkpt lat="43.74251" lon="6.64984">
        <ele>1636.1</ele>
        <time>2024-05-26T09:36:11Z</time>
      </trkpt>
      <trkpt lat="43.74252" lon="6.64985">
        <ele>1636.2</ele>
        <time>2024-05-26T09:36:12Z</time>
      </trkpt>
      <trkpt lat="43.74252" lon="6.64986">
        <ele>1636.4</ele>
        <time>2024-05-26T09:36:13Z</time>
      </trkpt>
      <trkpt lat="43.74253" lon="6.64986">
        <ele>1636.6</ele>
        <time>2024-05-26T09:36:14Z</time>
      </trkpt>
      <trkpt lat="43.74253" lon="6.64987">
        <ele>1636.7</ele>
        <time>2024-05-26T09:36:15Z</time>
      </trkpt>
      <trkpt lat="43.74254" lon="6.64988">
        <ele>1636.9</ele>
        <time>2024-05-26T09:36:16Z</time>
      </trkpt>
      <trkpt lat="43.74255" lon="6.64988">
        <ele>1636.9</ele>
        <time>2024-05-26T09:36:17Z</time>
      </trkpt>
      <trkpt lat="43.74256" lon="6.64989">
        <ele>1637</ele>
        <time>2024-05-26T09:36:18Z</time>
      </trkpt>
      <trkpt lat="43.74257" lon="6.6499">
        <ele>1637.1</ele>
        <time>2024-05-26T09:36:19Z</time>
      </trkpt>
      <trkpt lat="43.74257" lon="6.6499">
        <ele>1637.2</ele>
        <time>2024-05-26T09:36:20Z</time>
      </trkpt>
      <trkpt lat="43.74257" lon="6.64991">
        <ele>1637.3</ele>
        <time>2024-05-26T09:36:21Z</time>
      </trkpt>
      <trkpt lat="43.74257" lon="6.64993">
        <ele>1637.3</ele>
        <time>2024-05-26T09:36:22Z</time>
      </trkpt>
      <trkpt lat="43.74258" lon="6.64994">
        <ele>1637.3</ele>
        <time>2024-05-26T09:36:23Z</time>
      </trkpt>
      <trkpt lat="43.74258" lon="6.64995">
        <ele>1637.4</ele>
        <time>2024-05-26T09:36:24Z</time>
      </trkpt>
      <trkpt lat="43.74258" lon="6.64996">
        <ele>1637.4</ele>
        <time>2024-05-26T09:36:25Z</time>
      </trkpt>
      <trkpt lat="43.74259" lon="6.64997">
        <ele>1637.6</ele>
        <time>2024-05-26T09:36:26Z</time>
      </trkpt>
      <trkpt lat="43.74259" lon="6.64998">
        <ele>1637.6</ele>
        <time>2024-05-26T09:36:27Z</time>
      </trkpt>
      <trkpt lat="43.7426" lon="6.65">
        <ele>1637.7</ele>
        <time>2024-05-26T09:36:28Z</time>
      </trkpt>
      <trkpt lat="43.7426" lon="6.65001">
        <ele>1637.7</ele>
        <time>2024-05-26T09:36:29Z</time>
      </trkpt>
      <trkpt lat="43.74261" lon="6.65002">
        <ele>1637.8</ele>
        <time>2024-05-26T09:36:30Z</time>
      </trkpt>
      <trkpt lat="43.74261" lon="6.65003">
        <ele>1637.8</ele>
        <time>2024-05-26T09:36:31Z</time>
      </trkpt>
      <trkpt lat="43.74262" lon="6.65003">
        <ele>1637.9</ele>
        <time>2024-05-26T09:36:32Z</time>
      </trkpt>
      <trkpt lat="43.74262" lon="6.65004">
        <ele>1638</ele>
        <time>2024-05-26T09:36:33Z</time>
      </trkpt>
      <trkpt lat="43.74263" lon="6.65005">
        <ele>1638</ele>
        <time>2024-05-26T09:36:34Z</time>
      </trkpt>
      <trkpt lat="43.74263" lon="6.65006">
        <ele>1638.2</ele>
        <time>2024-05-26T09:36:35Z</time>
      </trkpt>
      <trkpt lat="43.74264" lon="6.65007">
        <ele>1638.3</ele>
        <time>2024-05-26T09:36:36Z</time>
      </trkpt>
      <trkpt lat="43.74264" lon="6.65008">
        <ele>1638.4</ele>
        <time>2024-05-26T09:36:37Z</time>
      </trkpt>
      <trkpt lat="43.74265" lon="6.65009">
        <ele>1638.5</ele>
        <time>2024-05-26T09:36:38Z</time>
      </trkpt>
      <trkpt lat="43.74265" lon="6.6501">
        <ele>1638.7</ele>
        <time>2024-05-26T09:36:39Z</time>
      </trkpt>
      <trkpt lat="43.74266" lon="6.6501">
        <ele>1638.9</ele>
        <time>2024-05-26T09:36:40Z</time>
      </trkpt>
      <trkpt lat="43.74266" lon="6.65011">
        <ele>1639</ele>
        <time>2024-05-26T09:36:41Z</time>
      </trkpt>
      <trkpt lat="43.74267" lon="6.65012">
        <ele>1639.1</ele>
        <time>2024-05-26T09:36:42Z</time>
      </trkpt>
      <trkpt lat="43.74268" lon="6.65013">
        <ele>1639.2</ele>
        <time>2024-05-26T09:36:43Z</time>
      </trkpt>
      <trkpt lat="43.74268" lon="6.65013">
        <ele>1639.2</ele>
        <time>2024-05-26T09:36:44Z</time>
      </trkpt>
      <trkpt lat="43.74269" lon="6.65014">
        <ele>1639.4</ele>
        <time>2024-05-26T09:36:45Z</time>
      </trkpt>
      <trkpt lat="43.7427" lon="6.65014">
        <ele>1639.5</ele>
        <time>2024-05-26T09:36:46Z</time>
      </trkpt>
      <trkpt lat="43.7427" lon="6.65014">
        <ele>1639.6</ele>
        <time>2024-05-26T09:36:47Z</time>
      </trkpt>
      <trkpt lat="43.74271" lon="6.65015">
        <ele>1639.7</ele>
        <time>2024-05-26T09:36:48Z</time>
      </trkpt>
      <trkpt lat="43.74272" lon="6.65016">
        <ele>1639.8</ele>
        <time>2024-05-26T09:36:49Z</time>
      </trkpt>
      <trkpt lat="43.74272" lon="6.65016">
        <ele>1639.8</ele>
        <time>2024-05-26T09:36:50Z</time>
      </trkpt>
      <trkpt lat="43.74273" lon="6.65017">
        <ele>1639.9</ele>
        <time>2024-05-26T09:36:51Z</time>
      </trkpt>
      <trkpt lat="43.74273" lon="6.65017">
        <ele>1640</ele>
        <time>2024-05-26T09:36:52Z</time>
      </trkpt>
      <trkpt lat="43.74274" lon="6.65018">
        <ele>1640</ele>
        <time>2024-05-26T09:36:53Z</time>
      </trkpt>
      <trkpt lat="43.74274" lon="6.65019">
        <ele>1640.1</ele>
        <time>2024-05-26T09:36:54Z</time>
      </trkpt>
      <trkpt lat="43.74275" lon="6.65019">
        <ele>1640.4</ele>
        <time>2024-05-26T09:36:55Z</time>
      </trkpt>
      <trkpt lat="43.74275" lon="6.6502">
        <ele>1640.6</ele>
        <time>2024-05-26T09:36:56Z</time>
      </trkpt>
      <trkpt lat="43.74276" lon="6.65021">
        <ele>1640.7</ele>
        <time>2024-05-26T09:36:57Z</time>
      </trkpt>
      <trkpt lat="43.74276" lon="6.65022">
        <ele>1640.7</ele>
        <time>2024-05-26T09:36:58Z</time>
      </trkpt>
      <trkpt lat="43.74277" lon="6.65022">
        <ele>1640.8</ele>
        <time>2024-05-26T09:36:59Z</time>
      </trkpt>
      <trkpt lat="43.74277" lon="6.65023">
        <ele>1641</ele>
        <time>2024-05-26T09:37:00Z</time>
      </trkpt>
      <trkpt lat="43.74277" lon="6.65024">
        <ele>1641.1</ele>
        <time>2024-05-26T09:37:01Z</time>
      </trkpt>
      <trkpt lat="43.74278" lon="6.65024">
        <ele>1641.2</ele>
        <time>2024-05-26T09:37:02Z</time>
      </trkpt>
      <trkpt lat="43.74278" lon="6.65025">
        <ele>1641.4</ele>
        <time>2024-05-26T09:37:03Z</time>
      </trkpt>
      <trkpt lat="43.74278" lon="6.65025">
        <ele>1641.4</ele>
        <time>2024-05-26T09:37:04Z</time>
      </trkpt>
      <trkpt lat="43.74279" lon="6.65024">
        <ele>1641.5</ele>
        <time>2024-05-26T09:37:05Z</time>
      </trkpt>
      <trkpt lat="43.74279" lon="6.65024">
        <ele>1641.5</ele>
        <time>2024-05-26T09:37:06Z</time>
      </trkpt>
      <trkpt lat="43.74279" lon="6.65025">
        <ele>1641.6</ele>
        <time>2024-05-26T09:37:07Z</time>
      </trkpt>
      <trkpt lat="43.74279" lon="6.65025">
        <ele>1641.7</ele>
        <time>2024-05-26T09:37:08Z</time>
      </trkpt>
      <trkpt lat="43.7428" lon="6.65025">
        <ele>1641.8</ele>
        <time>2024-05-26T09:37:09Z</time>
      </trkpt>
      <trkpt lat="43.7428" lon="6.65026">
        <ele>1642</ele>
        <time>2024-05-26T09:37:10Z</time>
      </trkpt>
      <trkpt lat="43.7428" lon="6.65027">
        <ele>1642.1</ele>
        <time>2024-05-26T09:37:11Z</time>
      </trkpt>
      <trkpt lat="43.74281" lon="6.65028">
        <ele>1642.2</ele>
        <time>2024-05-26T09:37:12Z</time>
      </trkpt>
      <trkpt lat="43.74281" lon="6.65029">
        <ele>1642.4</ele>
        <time>2024-05-26T09:37:13Z</time>
      </trkpt>
      <trkpt lat="43.74281" lon="6.6503">
        <ele>1642.5</ele>
        <time>2024-05-26T09:37:14Z</time>
      </trkpt>
      <trkpt lat="43.74282" lon="6.65031">
        <ele>1642.5</ele>
        <time>2024-05-26T09:37:15Z</time>
      </trkpt>
      <trkpt lat="43.74282" lon="6.65032">
        <ele>1642.7</ele>
        <time>2024-05-26T09:37:16Z</time>
      </trkpt>
      <trkpt lat="43.74282" lon="6.65033">
        <ele>1642.8</ele>
        <time>2024-05-26T09:37:17Z</time>
      </trkpt>
      <trkpt lat="43.74282" lon="6.65034">
        <ele>1642.9</ele>
        <time>2024-05-26T09:37:18Z</time>
      </trkpt>
      <trkpt lat="43.74282" lon="6.65035">
        <ele>1643</ele>
        <time>2024-05-26T09:37:19Z</time>
      </trkpt>
      <trkpt lat="43.74282" lon="6.65036">
        <ele>1643.2</ele>
        <time>2024-05-26T09:37:20Z</time>
      </trkpt>
      <trkpt lat="43.74282" lon="6.65037">
        <ele>1643.2</ele>
        <time>2024-05-26T09:37:21Z</time>
      </trkpt>
      <trkpt lat="43.74283" lon="6.65038">
        <ele>1643.2</ele>
        <time>2024-05-26T09:37:22Z</time>
      </trkpt>
      <trkpt lat="43.74283" lon="6.65039">
        <ele>1643.3</ele>
        <time>2024-05-26T09:37:23Z</time>
      </trkpt>
      <trkpt lat="43.74284" lon="6.65039">
        <ele>1643.3</ele>
        <time>2024-05-26T09:37:24Z</time>
      </trkpt>
      <trkpt lat="43.74284" lon="6.6504">
        <ele>1643.3</ele>
        <time>2024-05-26T09:37:25Z</time>
      </trkpt>
      <trkpt lat="43.74284" lon="6.65041">
        <ele>1643.3</ele>
        <time>2024-05-26T09:37:26Z</time>
      </trkpt>
      <trkpt lat="43.74285" lon="6.65041">
        <ele>1643.3</ele>
        <time>2024-05-26T09:37:27Z</time>
      </trkpt>
      <trkpt lat="43.74285" lon="6.65042">
        <ele>1643.4</ele>
        <time>2024-05-26T09:37:28Z</time>
      </trkpt>
      <trkpt lat="43.74285" lon="6.65042">
        <ele>1643.5</ele>
        <time>2024-05-26T09:37:29Z</time>
      </trkpt>
      <trkpt lat="43.74285" lon="6.65042">
        <ele>1643.6</ele>
        <time>2024-05-26T09:37:30Z</time>
      </trkpt>
      <trkpt lat="43.74285" lon="6.65042">
        <ele>1643.7</ele>
        <time>2024-05-26T09:37:31Z</time>
      </trkpt>
      <trkpt lat="43.74285" lon="6.65042">
        <ele>1643.7</ele>
        <time>2024-05-26T09:37:32Z</time>
      </trkpt>
      <trkpt lat="43.74285" lon="6.65042">
        <ele>1643.8</ele>
        <time>2024-05-26T09:37:33Z</time>
      </trkpt>
      <trkpt lat="43.74285" lon="6.65042">
        <ele>1644</ele>
        <time>2024-05-26T09:37:34Z</time>
      </trkpt>
      <trkpt lat="43.74285" lon="6.65042">
        <ele>1644</ele>
        <time>2024-05-26T09:37:35Z</time>
      </trkpt>
      <trkpt lat="43.74285" lon="6.65042">
        <ele>1644</ele>
        <time>2024-05-26T09:37:36Z</time>
      </trkpt>
      <trkpt lat="43.74285" lon="6.65042">
        <ele>1644</ele>
        <time>2024-05-26T09:37:37Z</time>
      </trkpt>
      <trkpt lat="43.74285" lon="6.65042">
        <ele>1643.9</ele>
        <time>2024-05-26T09:37:38Z</time>
      </trkpt>
      <trkpt lat="43.74285" lon="6.65042">
        <ele>1643.9</ele>
        <time>2024-05-26T09:37:39Z</time>
      </trkpt>
      <trkpt lat="43.74285" lon="6.65042">
        <ele>1643.8</ele>
        <time>2024-05-26T09:37:40Z</time>
      </trkpt>
      <trkpt lat="43.74285" lon="6.65042">
        <ele>1643.9</ele>
        <time>2024-05-26T09:37:41Z</time>
      </trkpt>
      <trkpt lat="43.74285" lon="6.65042">
        <ele>1643.9</ele>
        <time>2024-05-26T09:37:42Z</time>
      </trkpt>
      <trkpt lat="43.74284" lon="6.65042">
        <ele>1643.9</ele>
        <time>2024-05-26T09:37:43Z</time>
      </trkpt>
      <trkpt lat="43.74284" lon="6.65042">
        <ele>1643.9</ele>
        <time>2024-05-26T09:37:44Z</time>
      </trkpt>
      <trkpt lat="43.74284" lon="6.65042">
        <ele>1643.9</ele>
        <time>2024-05-26T09:37:45Z</time>
      </trkpt>
      <trkpt lat="43.74284" lon="6.65042">
        <ele>1644</ele>
        <time>2024-05-26T09:37:46Z</time>
      </trkpt>
      <trkpt lat="43.74284" lon="6.65043">
        <ele>1644.1</ele>
        <time>2024-05-26T09:37:47Z</time>
      </trkpt>
      <trkpt lat="43.74284" lon="6.65043">
        <ele>1644.1</ele>
        <time>2024-05-26T09:37:48Z</time>
      </trkpt>
      <trkpt lat="43.74284" lon="6.65043">
        <ele>1644.2</ele>
        <time>2024-05-26T09:37:49Z</time>
      </trkpt>
      <trkpt lat="43.74284" lon="6.65043">
        <ele>1644.2</ele>
        <time>2024-05-26T09:37:50Z</time>
      </trkpt>
      <trkpt lat="43.74284" lon="6.65043">
        <ele>1644.3</ele>
        <time>2024-05-26T09:37:51Z</time>
      </trkpt>
      <trkpt lat="43.74284" lon="6.65043">
        <ele>1644.3</ele>
        <time>2024-05-26T09:37:52Z</time>
      </trkpt>
      <trkpt lat="43.74284" lon="6.65043">
        <ele>1644.4</ele>
        <time>2024-05-26T09:37:53Z</time>
      </trkpt>
      <trkpt lat="43.74284" lon="6.65043">
        <ele>1644.4</ele>
        <time>2024-05-26T09:37:54Z</time>
      </trkpt>
      <trkpt lat="43.74284" lon="6.65043">
        <ele>1644.4</ele>
        <time>2024-05-26T09:37:55Z</time>
      </trkpt>
      <trkpt lat="43.74284" lon="6.65043">
        <ele>1644.5</ele>
        <time>2024-05-26T09:37:56Z</time>
      </trkpt>
      <trkpt lat="43.74284" lon="6.65043">
        <ele>1644.4</ele>
        <time>2024-05-26T09:37:57Z</time>
      </trkpt>
      <trkpt lat="43.74284" lon="6.65043">
        <ele>1644.4</ele>
        <time>2024-05-26T09:37:58Z</time>
      </trkpt>
      <trkpt lat="43.74284" lon="6.65043">
        <ele>1644.4</ele>
        <time>2024-05-26T09:37:59Z</time>
      </trkpt>
      <trkpt lat="43.74284" lon="6.65043">
        <ele>1644.5</ele>
        <time>2024-05-26T09:38:00Z</time>
      </trkpt>
      <trkpt lat="43.74284" lon="6.65043">
        <ele>1644.5</ele>
        <time>2024-05-26T09:38:01Z</time>
      </trkpt>
      <trkpt lat="43.74284" lon="6.65043">
        <ele>1644.6</ele>
        <time>2024-05-26T09:38:02Z</time>
      </trkpt>
      <trkpt lat="43.74284" lon="6.65043">
        <ele>1644.6</ele>
        <time>2024-05-26T09:38:03Z</time>
      </trkpt>
      <trkpt lat="43.74284" lon="6.65043">
        <ele>1644.6</ele>
        <time>2024-05-26T09:38:04Z</time>
      </trkpt>
      <trkpt lat="43.74284" lon="6.65043">
        <ele>1644.6</ele>
        <time>2024-05-26T09:38:05Z</time>
      </trkpt>
      <trkpt lat="43.74284" lon="6.65043">
        <ele>1644.6</ele>
        <time>2024-05-26T09:38:06Z</time>
      </trkpt>
      <trkpt lat="43.74284" lon="6.65043">
        <ele>1644.7</ele>
        <time>2024-05-26T09:38:07Z</time>
      </trkpt>
      <trkpt lat="43.74284" lon="6.65043">
        <ele>1644.7</ele>
        <time>2024-05-26T09:38:08Z</time>
      </trkpt>
      <trkpt lat="43.74284" lon="6.65043">
        <ele>1644.7</ele>
        <time>2024-05-26T09:38:09Z</time>
      </trkpt>
      <trkpt lat="43.74284" lon="6.65043">
        <ele>1644.7</ele>
        <time>2024-05-26T09:38:10Z</time>
      </trkpt>
      <trkpt lat="43.74284" lon="6.65043">
        <ele>1644.7</ele>
        <time>2024-05-26T09:38:11Z</time>
      </trkpt>
      <trkpt lat="43.74284" lon="6.65043">
        <ele>1644.7</ele>
        <time>2024-05-26T09:38:12Z</time>
      </trkpt>
      <trkpt lat="43.74284" lon="6.65043">
        <ele>1644.7</ele>
        <time>2024-05-26T09:38:13Z</time>
      </trkpt>
      <trkpt lat="43.74284" lon="6.65043">
        <ele>1644.7</ele>
        <time>2024-05-26T09:38:14Z</time>
      </trkpt>
      <trkpt lat="43.74284" lon="6.65043">
        <ele>1644.9</ele>
        <time>2024-05-26T09:38:15Z</time>
      </trkpt>
      <trkpt lat="43.74284" lon="6.65043">
        <ele>1644.9</ele>
        <time>2024-05-26T09:38:16Z</time>
      </trkpt>
      <trkpt lat="43.74284" lon="6.65043">
        <ele>1645</ele>
        <time>2024-05-26T09:38:17Z</time>
      </trkpt>
      <trkpt lat="43.74284" lon="6.65043">
        <ele>1645</ele>
        <time>2024-05-26T09:38:18Z</time>
      </trkpt>
      <trkpt lat="43.74284" lon="6.65043">
        <ele>1645</ele>
        <time>2024-05-26T09:38:19Z</time>
      </trkpt>
      <trkpt lat="43.74284" lon="6.65043">
        <ele>1644.9</ele>
        <time>2024-05-26T09:38:20Z</time>
      </trkpt>
      <trkpt lat="43.74284" lon="6.65043">
        <ele>1645</ele>
        <time>2024-05-26T09:38:21Z</time>
      </trkpt>
      <trkpt lat="43.74284" lon="6.65043">
        <ele>1645.1</ele>
        <time>2024-05-26T09:38:22Z</time>
      </trkpt>
      <trkpt lat="43.74284" lon="6.65043">
        <ele>1645.2</ele>
        <time>2024-05-26T09:38:23Z</time>
      </trkpt>
      <trkpt lat="43.74284" lon="6.65043">
        <ele>1645.2</ele>
        <time>2024-05-26T09:38:24Z</time>
      </trkpt>
      <trkpt lat="43.74284" lon="6.65043">
        <ele>1645.3</ele>
        <time>2024-05-26T09:38:25Z</time>
      </trkpt>
      <trkpt lat="43.74284" lon="6.65043">
        <ele>1645.3</ele>
        <time>2024-05-26T09:38:26Z</time>
      </trkpt>
      <trkpt lat="43.74284" lon="6.65043">
        <ele>1645.3</ele>
        <time>2024-05-26T09:38:27Z</time>
      </trkpt>
      <trkpt lat="43.74284" lon="6.65043">
        <ele>1645.3</ele>
        <time>2024-05-26T09:38:28Z</time>
      </trkpt>
      <trkpt lat="43.74284" lon="6.65043">
        <ele>1645.4</ele>
        <time>2024-05-26T09:38:29Z</time>
      </trkpt>
      <trkpt lat="43.74284" lon="6.65043">
        <ele>1645.4</ele>
        <time>2024-05-26T09:38:30Z</time>
      </trkpt>
      <trkpt lat="43.74284" lon="6.65043">
        <ele>1645.6</ele>
        <time>2024-05-26T09:38:31Z</time>
      </trkpt>
      <trkpt lat="43.74284" lon="6.65043">
        <ele>1645.7</ele>
        <time>2024-05-26T09:38:32Z</time>
      </trkpt>
      <trkpt lat="43.74284" lon="6.65043">
        <ele>1645.8</ele>
        <time>2024-05-26T09:38:33Z</time>
      </trkpt>
      <trkpt lat="43.74284" lon="6.65043">
        <ele>1645.9</ele>
        <time>2024-05-26T09:38:34Z</time>
      </trkpt>
      <trkpt lat="43.74284" lon="6.65043">
        <ele>1646</ele>
        <time>2024-05-26T09:38:35Z</time>
      </trkpt>
      <trkpt lat="43.74283" lon="6.65043">
        <ele>1646</ele>
        <time>2024-05-26T09:38:36Z</time>
      </trkpt>
      <trkpt lat="43.74283" lon="6.65043">
        <ele>1646.1</ele>
        <time>2024-05-26T09:38:37Z</time>
      </trkpt>
      <trkpt lat="43.74283" lon="6.65043">
        <ele>1646.1</ele>
        <time>2024-05-26T09:38:38Z</time>
      </trkpt>
      <trkpt lat="43.74283" lon="6.65043">
        <ele>1646</ele>
        <time>2024-05-26T09:38:39Z</time>
      </trkpt>
      <trkpt lat="43.74283" lon="6.65044">
        <ele>1646</ele>
        <time>2024-05-26T09:38:40Z</time>
      </trkpt>
      <trkpt lat="43.74283" lon="6.65044">
        <ele>1646</ele>
        <time>2024-05-26T09:38:41Z</time>
      </trkpt>
      <trkpt lat="43.74283" lon="6.65044">
        <ele>1646.1</ele>
        <time>2024-05-26T09:38:42Z</time>
      </trkpt>
      <trkpt lat="43.74283" lon="6.65044">
        <ele>1646.2</ele>
        <time>2024-05-26T09:38:43Z</time>
      </trkpt>
      <trkpt lat="43.74283" lon="6.65044">
        <ele>1646.3</ele>
        <time>2024-05-26T09:38:44Z</time>
      </trkpt>
      <trkpt lat="43.74283" lon="6.65044">
        <ele>1646.3</ele>
        <time>2024-05-26T09:38:45Z</time>
      </trkpt>
      <trkpt lat="43.74283" lon="6.65044">
        <ele>1646.3</ele>
        <time>2024-05-26T09:38:46Z</time>
      </trkpt>
      <trkpt lat="43.74283" lon="6.65044">
        <ele>1646.3</ele>
        <time>2024-05-26T09:38:47Z</time>
      </trkpt>
      <trkpt lat="43.74283" lon="6.65044">
        <ele>1646.3</ele>
        <time>2024-05-26T09:38:48Z</time>
      </trkpt>
      <trkpt lat="43.74283" lon="6.65044">
        <ele>1646.3</ele>
        <time>2024-05-26T09:38:49Z</time>
      </trkpt>
      <trkpt lat="43.74283" lon="6.65044">
        <ele>1646.3</ele>
        <time>2024-05-26T09:38:50Z</time>
      </trkpt>
      <trkpt lat="43.74283" lon="6.65044">
        <ele>1646.3</ele>
        <time>2024-05-26T09:38:51Z</time>
      </trkpt>
      <trkpt lat="43.74283" lon="6.65044">
        <ele>1646.4</ele>
        <time>2024-05-26T09:38:52Z</time>
      </trkpt>
      <trkpt lat="43.74283" lon="6.65044">
        <ele>1646.4</ele>
        <time>2024-05-26T09:38:53Z</time>
      </trkpt>
      <trkpt lat="43.74283" lon="6.65044">
        <ele>1646.5</ele>
        <time>2024-05-26T09:38:54Z</time>
      </trkpt>
      <trkpt lat="43.74283" lon="6.65044">
        <ele>1646.5</ele>
        <time>2024-05-26T09:38:55Z</time>
      </trkpt>
      <trkpt lat="43.74283" lon="6.65044">
        <ele>1646.5</ele>
        <time>2024-05-26T09:38:56Z</time>
      </trkpt>
      <trkpt lat="43.74284" lon="6.65044">
        <ele>1646.5</ele>
        <time>2024-05-26T09:38:57Z</time>
      </trkpt>
      <trkpt lat="43.74284" lon="6.65045">
        <ele>1646.5</ele>
        <time>2024-05-26T09:38:58Z</time>
      </trkpt>
      <trkpt lat="43.74284" lon="6.65046">
        <ele>1646.5</ele>
        <time>2024-05-26T09:38:59Z</time>
      </trkpt>
      <trkpt lat="43.74285" lon="6.65046">
        <ele>1646.5</ele>
        <time>2024-05-26T09:39:00Z</time>
      </trkpt>
      <trkpt lat="43.74286" lon="6.65046">
        <ele>1646.3</ele>
        <time>2024-05-26T09:39:01Z</time>
      </trkpt>
      <trkpt lat="43.74286" lon="6.65047">
        <ele>1646.2</ele>
        <time>2024-05-26T09:39:02Z</time>
      </trkpt>
      <trkpt lat="43.74287" lon="6.65047">
        <ele>1646.1</ele>
        <time>2024-05-26T09:39:03Z</time>
      </trkpt>
      <trkpt lat="43.74287" lon="6.65048">
        <ele>1645.9</ele>
        <time>2024-05-26T09:39:04Z</time>
      </trkpt>
      <trkpt lat="43.74288" lon="6.65048">
        <ele>1645.8</ele>
        <time>2024-05-26T09:39:05Z</time>
      </trkpt>
      <trkpt lat="43.74289" lon="6.65049">
        <ele>1645.7</ele>
        <time>2024-05-26T09:39:06Z</time>
      </trkpt>
      <trkpt lat="43.74289" lon="6.6505">
        <ele>1645.6</ele>
        <time>2024-05-26T09:39:07Z</time>
      </trkpt>
      <trkpt lat="43.7429" lon="6.65051">
        <ele>1645.5</ele>
        <time>2024-05-26T09:39:08Z</time>
      </trkpt>
      <trkpt lat="43.7429" lon="6.65052">
        <ele>1645.5</ele>
        <time>2024-05-26T09:39:09Z</time>
      </trkpt>
      <trkpt lat="43.74291" lon="6.65053">
        <ele>1645.4</ele>
        <time>2024-05-26T09:39:10Z</time>
      </trkpt>
      <trkpt lat="43.74292" lon="6.65054">
        <ele>1645.5</ele>
        <time>2024-05-26T09:39:11Z</time>
      </trkpt>
      <trkpt lat="43.74292" lon="6.65055">
        <ele>1645.5</ele>
        <time>2024-05-26T09:39:12Z</time>
      </trkpt>
      <trkpt lat="43.74293" lon="6.65056">
        <ele>1645.5</ele>
        <time>2024-05-26T09:39:13Z</time>
      </trkpt>
      <trkpt lat="43.74294" lon="6.65057">
        <ele>1645.5</ele>
        <time>2024-05-26T09:39:14Z</time>
      </trkpt>
      <trkpt lat="43.74294" lon="6.65058">
        <ele>1645.5</ele>
        <time>2024-05-26T09:39:15Z</time>
      </trkpt>
      <trkpt lat="43.74295" lon="6.65059">
        <ele>1645.5</ele>
        <time>2024-05-26T09:39:16Z</time>
      </trkpt>
      <trkpt lat="43.74295" lon="6.65059">
        <ele>1645.5</ele>
        <time>2024-05-26T09:39:17Z</time>
      </trkpt>
      <trkpt lat="43.74296" lon="6.6506">
        <ele>1645.5</ele>
        <time>2024-05-26T09:39:18Z</time>
      </trkpt>
      <trkpt lat="43.74297" lon="6.65061">
        <ele>1645.5</ele>
        <time>2024-05-26T09:39:19Z</time>
      </trkpt>
      <trkpt lat="43.74298" lon="6.65061">
        <ele>1645.5</ele>
        <time>2024-05-26T09:39:20Z</time>
      </trkpt>
      <trkpt lat="43.74298" lon="6.65062">
        <ele>1645.5</ele>
        <time>2024-05-26T09:39:21Z</time>
      </trkpt>
      <trkpt lat="43.74299" lon="6.65062">
        <ele>1645.6</ele>
        <time>2024-05-26T09:39:22Z</time>
      </trkpt>
      <trkpt lat="43.743" lon="6.65063">
        <ele>1645.6</ele>
        <time>2024-05-26T09:39:23Z</time>
      </trkpt>
      <trkpt lat="43.74301" lon="6.65064">
        <ele>1645.7</ele>
        <time>2024-05-26T09:39:24Z</time>
      </trkpt>
      <trkpt lat="43.74301" lon="6.65064">
        <ele>1645.8</ele>
        <time>2024-05-26T09:39:25Z</time>
      </trkpt>
      <trkpt lat="43.74302" lon="6.65065">
        <ele>1645.9</ele>
        <time>2024-05-26T09:39:26Z</time>
      </trkpt>
      <trkpt lat="43.74303" lon="6.65065">
        <ele>1646</ele>
        <time>2024-05-26T09:39:27Z</time>
      </trkpt>
      <trkpt lat="43.74304" lon="6.65066">
        <ele>1646</ele>
        <time>2024-05-26T09:39:28Z</time>
      </trkpt>
      <trkpt lat="43.74305" lon="6.65066">
        <ele>1646</ele>
        <time>2024-05-26T09:39:29Z</time>
      </trkpt>
      <trkpt lat="43.74305" lon="6.65067">
        <ele>1646</ele>
        <time>2024-05-26T09:39:30Z</time>
      </trkpt>
      <trkpt lat="43.74306" lon="6.65068">
        <ele>1646</ele>
        <time>2024-05-26T09:39:31Z</time>
      </trkpt>
      <trkpt lat="43.74307" lon="6.65069">
        <ele>1645.8</ele>
        <time>2024-05-26T09:39:32Z</time>
      </trkpt>
      <trkpt lat="43.74308" lon="6.6507">
        <ele>1645.8</ele>
        <time>2024-05-26T09:39:33Z</time>
      </trkpt>
      <trkpt lat="43.74309" lon="6.65071">
        <ele>1645.8</ele>
        <time>2024-05-26T09:39:34Z</time>
      </trkpt>
      <trkpt lat="43.7431" lon="6.65072">
        <ele>1645.6</ele>
        <time>2024-05-26T09:39:35Z</time>
      </trkpt>
      <trkpt lat="43.74311" lon="6.65072">
        <ele>1645.5</ele>
        <time>2024-05-26T09:39:36Z</time>
      </trkpt>
      <trkpt lat="43.74312" lon="6.65072">
        <ele>1645.5</ele>
        <time>2024-05-26T09:39:37Z</time>
      </trkpt>
      <trkpt lat="43.74313" lon="6.65073">
        <ele>1645.5</ele>
        <time>2024-05-26T09:39:38Z</time>
      </trkpt>
      <trkpt lat="43.74313" lon="6.65073">
        <ele>1645.5</ele>
        <time>2024-05-26T09:39:39Z</time>
      </trkpt>
      <trkpt lat="43.74314" lon="6.65074">
        <ele>1645.5</ele>
        <time>2024-05-26T09:39:40Z</time>
      </trkpt>
      <trkpt lat="43.74315" lon="6.65074">
        <ele>1645.5</ele>
        <time>2024-05-26T09:39:41Z</time>
      </trkpt>
      <trkpt lat="43.74316" lon="6.65075">
        <ele>1645.5</ele>
        <time>2024-05-26T09:39:42Z</time>
      </trkpt>
      <trkpt lat="43.74316" lon="6.65076">
        <ele>1645.3</ele>
        <time>2024-05-26T09:39:43Z</time>
      </trkpt>
      <trkpt lat="43.74317" lon="6.65077">
        <ele>1645.2</ele>
        <time>2024-05-26T09:39:44Z</time>
      </trkpt>
      <trkpt lat="43.74317" lon="6.65078">
        <ele>1645.1</ele>
        <time>2024-05-26T09:39:45Z</time>
      </trkpt>
      <trkpt lat="43.74318" lon="6.65078">
        <ele>1645</ele>
        <time>2024-05-26T09:39:46Z</time>
      </trkpt>
      <trkpt lat="43.74319" lon="6.65079">
        <ele>1644.9</ele>
        <time>2024-05-26T09:39:47Z</time>
      </trkpt>
      <trkpt lat="43.74319" lon="6.65079">
        <ele>1644.8</ele>
        <time>2024-05-26T09:39:48Z</time>
      </trkpt>
      <trkpt lat="43.7432" lon="6.6508">
        <ele>1644.8</ele>
        <time>2024-05-26T09:39:49Z</time>
      </trkpt>
      <trkpt lat="43.74321" lon="6.65081">
        <ele>1644.7</ele>
        <time>2024-05-26T09:39:50Z</time>
      </trkpt>
      <trkpt lat="43.74322" lon="6.65081">
        <ele>1644.6</ele>
        <time>2024-05-26T09:39:51Z</time>
      </trkpt>
      <trkpt lat="43.74322" lon="6.65082">
        <ele>1644.5</ele>
        <time>2024-05-26T09:39:52Z</time>
      </trkpt>
      <trkpt lat="43.74323" lon="6.65083">
        <ele>1644.3</ele>
        <time>2024-05-26T09:39:53Z</time>
      </trkpt>
      <trkpt lat="43.74323" lon="6.65084">
        <ele>1644.2</ele>
        <time>2024-05-26T09:39:54Z</time>
      </trkpt>
      <trkpt lat="43.74324" lon="6.65085">
        <ele>1644.2</ele>
        <time>2024-05-26T09:39:55Z</time>
      </trkpt>
      <trkpt lat="43.74325" lon="6.65085">
        <ele>1644.2</ele>
        <time>2024-05-26T09:39:56Z</time>
      </trkpt>
      <trkpt lat="43.74325" lon="6.65085">
        <ele>1644.2</ele>
        <time>2024-05-26T09:39:57Z</time>
      </trkpt>
      <trkpt lat="43.74326" lon="6.65086">
        <ele>1644.2</ele>
        <time>2024-05-26T09:39:58Z</time>
      </trkpt>
      <trkpt lat="43.74326" lon="6.65087">
        <ele>1644.2</ele>
        <time>2024-05-26T09:39:59Z</time>
      </trkpt>
      <trkpt lat="43.74327" lon="6.65087">
        <ele>1644.3</ele>
        <time>2024-05-26T09:40:00Z</time>
      </trkpt>
      <trkpt lat="43.74327" lon="6.65087">
        <ele>1644.3</ele>
        <time>2024-05-26T09:40:01Z</time>
      </trkpt>
      <trkpt lat="43.74328" lon="6.65087">
        <ele>1644.2</ele>
        <time>2024-05-26T09:40:02Z</time>
      </trkpt>
      <trkpt lat="43.74328" lon="6.65087">
        <ele>1644.4</ele>
        <time>2024-05-26T09:40:03Z</time>
      </trkpt>
      <trkpt lat="43.74329" lon="6.65088">
        <ele>1644.5</ele>
        <time>2024-05-26T09:40:04Z</time>
      </trkpt>
      <trkpt lat="43.74329" lon="6.65088">
        <ele>1644.6</ele>
        <time>2024-05-26T09:40:05Z</time>
      </trkpt>
      <trkpt lat="43.7433" lon="6.65088">
        <ele>1644.6</ele>
        <time>2024-05-26T09:40:06Z</time>
      </trkpt>
      <trkpt lat="43.74331" lon="6.65089">
        <ele>1644.6</ele>
        <time>2024-05-26T09:40:07Z</time>
      </trkpt>
      <trkpt lat="43.74331" lon="6.65089">
        <ele>1644.6</ele>
        <time>2024-05-26T09:40:08Z</time>
      </trkpt>
      <trkpt lat="43.74332" lon="6.6509">
        <ele>1644.6</ele>
        <time>2024-05-26T09:40:09Z</time>
      </trkpt>
      <trkpt lat="43.74332" lon="6.6509">
        <ele>1644.6</ele>
        <time>2024-05-26T09:40:10Z</time>
      </trkpt>
      <trkpt lat="43.74333" lon="6.65091">
        <ele>1644.7</ele>
        <time>2024-05-26T09:40:11Z</time>
      </trkpt>
      <trkpt lat="43.74334" lon="6.65092">
        <ele>1644.7</ele>
        <time>2024-05-26T09:40:12Z</time>
      </trkpt>
      <trkpt lat="43.74334" lon="6.65093">
        <ele>1644.7</ele>
        <time>2024-05-26T09:40:13Z</time>
      </trkpt>
      <trkpt lat="43.74335" lon="6.65094">
        <ele>1644.7</ele>
        <time>2024-05-26T09:40:14Z</time>
      </trkpt>
      <trkpt lat="43.74335" lon="6.65095">
        <ele>1644.7</ele>
        <time>2024-05-26T09:40:15Z</time>
      </trkpt>
      <trkpt lat="43.74336" lon="6.65096">
        <ele>1644.6</ele>
        <time>2024-05-26T09:40:16Z</time>
      </trkpt>
      <trkpt lat="43.74336" lon="6.65097">
        <ele>1644.6</ele>
        <time>2024-05-26T09:40:17Z</time>
      </trkpt>
      <trkpt lat="43.74337" lon="6.65098">
        <ele>1644.5</ele>
        <time>2024-05-26T09:40:18Z</time>
      </trkpt>
      <trkpt lat="43.74337" lon="6.65098">
        <ele>1644.5</ele>
        <time>2024-05-26T09:40:19Z</time>
      </trkpt>
      <trkpt lat="43.74338" lon="6.65099">
        <ele>1644.5</ele>
        <time>2024-05-26T09:40:20Z</time>
      </trkpt>
      <trkpt lat="43.74339" lon="6.651">
        <ele>1644.4</ele>
        <time>2024-05-26T09:40:21Z</time>
      </trkpt>
      <trkpt lat="43.74339" lon="6.65101">
        <ele>1644.3</ele>
        <time>2024-05-26T09:40:22Z</time>
      </trkpt>
      <trkpt lat="43.7434" lon="6.65102">
        <ele>1644.3</ele>
        <time>2024-05-26T09:40:23Z</time>
      </trkpt>
      <trkpt lat="43.7434" lon="6.65102">
        <ele>1644.3</ele>
        <time>2024-05-26T09:40:24Z</time>
      </trkpt>
      <trkpt lat="43.74341" lon="6.65102">
        <ele>1644.2</ele>
        <time>2024-05-26T09:40:25Z</time>
      </trkpt>
      <trkpt lat="43.74341" lon="6.65103">
        <ele>1644.2</ele>
        <time>2024-05-26T09:40:26Z</time>
      </trkpt>
      <trkpt lat="43.74342" lon="6.65104">
        <ele>1644.2</ele>
        <time>2024-05-26T09:40:27Z</time>
      </trkpt>
      <trkpt lat="43.74342" lon="6.65104">
        <ele>1644.3</ele>
        <time>2024-05-26T09:40:28Z</time>
      </trkpt>
      <trkpt lat="43.74343" lon="6.65105">
        <ele>1644.2</ele>
        <time>2024-05-26T09:40:29Z</time>
      </trkpt>
      <trkpt lat="43.74344" lon="6.65106">
        <ele>1644.3</ele>
        <time>2024-05-26T09:40:30Z</time>
      </trkpt>
      <trkpt lat="43.74344" lon="6.65106">
        <ele>1644.2</ele>
        <time>2024-05-26T09:40:31Z</time>
      </trkpt>
      <trkpt lat="43.74345" lon="6.65107">
        <ele>1644.2</ele>
        <time>2024-05-26T09:40:32Z</time>
      </trkpt>
      <trkpt lat="43.74346" lon="6.65108">
        <ele>1644.1</ele>
        <time>2024-05-26T09:40:33Z</time>
      </trkpt>
      <trkpt lat="43.74347" lon="6.65109">
        <ele>1644</ele>
        <time>2024-05-26T09:40:34Z</time>
      </trkpt>
      <trkpt lat="43.74348" lon="6.65109">
        <ele>1643.9</ele>
        <time>2024-05-26T09:40:35Z</time>
      </trkpt>
      <trkpt lat="43.74348" lon="6.65109">
        <ele>1643.7</ele>
        <time>2024-05-26T09:40:36Z</time>
      </trkpt>
      <trkpt lat="43.74349" lon="6.6511">
        <ele>1643.7</ele>
        <time>2024-05-26T09:40:37Z</time>
      </trkpt>
      <trkpt lat="43.74349" lon="6.65111">
        <ele>1643.6</ele>
        <time>2024-05-26T09:40:38Z</time>
      </trkpt>
      <trkpt lat="43.74349" lon="6.65111">
        <ele>1643.6</ele>
        <time>2024-05-26T09:40:39Z</time>
      </trkpt>
      <trkpt lat="43.7435" lon="6.65112">
        <ele>1643.5</ele>
        <time>2024-05-26T09:40:40Z</time>
      </trkpt>
      <trkpt lat="43.74351" lon="6.65113">
        <ele>1643.4</ele>
        <time>2024-05-26T09:40:41Z</time>
      </trkpt>
      <trkpt lat="43.74351" lon="6.65114">
        <ele>1643.3</ele>
        <time>2024-05-26T09:40:42Z</time>
      </trkpt>
      <trkpt lat="43.74352" lon="6.65115">
        <ele>1643.2</ele>
        <time>2024-05-26T09:40:43Z</time>
      </trkpt>
      <trkpt lat="43.74353" lon="6.65115">
        <ele>1643.1</ele>
        <time>2024-05-26T09:40:44Z</time>
      </trkpt>
      <trkpt lat="43.74353" lon="6.65116">
        <ele>1643</ele>
        <time>2024-05-26T09:40:45Z</time>
      </trkpt>
      <trkpt lat="43.74354" lon="6.65116">
        <ele>1642.9</ele>
        <time>2024-05-26T09:40:46Z</time>
      </trkpt>
      <trkpt lat="43.74354" lon="6.65117">
        <ele>1642.9</ele>
        <time>2024-05-26T09:40:47Z</time>
      </trkpt>
      <trkpt lat="43.74355" lon="6.65117">
        <ele>1642.8</ele>
        <time>2024-05-26T09:40:48Z</time>
      </trkpt>
      <trkpt lat="43.74355" lon="6.65118">
        <ele>1642.8</ele>
        <time>2024-05-26T09:40:49Z</time>
      </trkpt>
      <trkpt lat="43.74356" lon="6.65118">
        <ele>1642.7</ele>
        <time>2024-05-26T09:40:50Z</time>
      </trkpt>
      <trkpt lat="43.74356" lon="6.65119">
        <ele>1642.7</ele>
        <time>2024-05-26T09:40:51Z</time>
      </trkpt>
      <trkpt lat="43.74357" lon="6.6512">
        <ele>1642.6</ele>
        <time>2024-05-26T09:40:52Z</time>
      </trkpt>
      <trkpt lat="43.74358" lon="6.65121">
        <ele>1642.6</ele>
        <time>2024-05-26T09:40:53Z</time>
      </trkpt>
      <trkpt lat="43.74359" lon="6.65122">
        <ele>1642.5</ele>
        <time>2024-05-26T09:40:54Z</time>
      </trkpt>
      <trkpt lat="43.7436" lon="6.65122">
        <ele>1642.5</ele>
        <time>2024-05-26T09:40:55Z</time>
      </trkpt>
      <trkpt lat="43.7436" lon="6.65123">
        <ele>1642.5</ele>
        <time>2024-05-26T09:40:56Z</time>
      </trkpt>
      <trkpt lat="43.74361" lon="6.65123">
        <ele>1642.5</ele>
        <time>2024-05-26T09:40:57Z</time>
      </trkpt>
      <trkpt lat="43.74362" lon="6.65124">
        <ele>1642.5</ele>
        <time>2024-05-26T09:40:58Z</time>
      </trkpt>
      <trkpt lat="43.74363" lon="6.65124">
        <ele>1642.4</ele>
        <time>2024-05-26T09:40:59Z</time>
      </trkpt>
      <trkpt lat="43.74363" lon="6.65125">
        <ele>1642.3</ele>
        <time>2024-05-26T09:41:00Z</time>
      </trkpt>
      <trkpt lat="43.74364" lon="6.65126">
        <ele>1642.3</ele>
        <time>2024-05-26T09:41:01Z</time>
      </trkpt>
      <trkpt lat="43.74364" lon="6.65126">
        <ele>1642.2</ele>
        <time>2024-05-26T09:41:02Z</time>
      </trkpt>
      <trkpt lat="43.74365" lon="6.65127">
        <ele>1642.2</ele>
        <time>2024-05-26T09:41:03Z</time>
      </trkpt>
      <trkpt lat="43.74366" lon="6.65127">
        <ele>1642</ele>
        <time>2024-05-26T09:41:04Z</time>
      </trkpt>
      <trkpt lat="43.74366" lon="6.65128">
        <ele>1641.9</ele>
        <time>2024-05-26T09:41:05Z</time>
      </trkpt>
      <trkpt lat="43.74367" lon="6.65129">
        <ele>1641.8</ele>
        <time>2024-05-26T09:41:06Z</time>
      </trkpt>
      <trkpt lat="43.74367" lon="6.65129">
        <ele>1641.7</ele>
        <time>2024-05-26T09:41:07Z</time>
      </trkpt>
      <trkpt lat="43.74367" lon="6.6513">
        <ele>1641.7</ele>
        <time>2024-05-26T09:41:08Z</time>
      </trkpt>
      <trkpt lat="43.74368" lon="6.65131">
        <ele>1641.5</ele>
        <time>2024-05-26T09:41:09Z</time>
      </trkpt>
      <trkpt lat="43.74368" lon="6.65132">
        <ele>1641.4</ele>
        <time>2024-05-26T09:41:10Z</time>
      </trkpt>
      <trkpt lat="43.74369" lon="6.65133">
        <ele>1641.2</ele>
        <time>2024-05-26T09:41:11Z</time>
      </trkpt>
      <trkpt lat="43.74369" lon="6.65133">
        <ele>1641</ele>
        <time>2024-05-26T09:41:12Z</time>
      </trkpt>
      <trkpt lat="43.7437" lon="6.65134">
        <ele>1640.7</ele>
        <time>2024-05-26T09:41:13Z</time>
      </trkpt>
      <trkpt lat="43.7437" lon="6.65135">
        <ele>1640.5</ele>
        <time>2024-05-26T09:41:14Z</time>
      </trkpt>
      <trkpt lat="43.74371" lon="6.65135">
        <ele>1640.4</ele>
        <time>2024-05-26T09:41:15Z</time>
      </trkpt>
      <trkpt lat="43.74371" lon="6.65136">
        <ele>1640.2</ele>
        <time>2024-05-26T09:41:16Z</time>
      </trkpt>
      <trkpt lat="43.74371" lon="6.65136">
        <ele>1640.1</ele>
        <time>2024-05-26T09:41:17Z</time>
      </trkpt>
      <trkpt lat="43.74372" lon="6.65137">
        <ele>1640</ele>
        <time>2024-05-26T09:41:18Z</time>
      </trkpt>
      <trkpt lat="43.74372" lon="6.65138">
        <ele>1639.8</ele>
        <time>2024-05-26T09:41:19Z</time>
      </trkpt>
      <trkpt lat="43.74373" lon="6.65138">
        <ele>1639.7</ele>
        <time>2024-05-26T09:41:20Z</time>
      </trkpt>
      <trkpt lat="43.74373" lon="6.65139">
        <ele>1639.5</ele>
        <time>2024-05-26T09:41:21Z</time>
      </trkpt>
      <trkpt lat="43.74374" lon="6.65139">
        <ele>1639.3</ele>
        <time>2024-05-26T09:41:22Z</time>
      </trkpt>
      <trkpt lat="43.74375" lon="6.6514">
        <ele>1639.1</ele>
        <time>2024-05-26T09:41:23Z</time>
      </trkpt>
      <trkpt lat="43.74376" lon="6.6514">
        <ele>1638.9</ele>
        <time>2024-05-26T09:41:24Z</time>
      </trkpt>
      <trkpt lat="43.74376" lon="6.65141">
        <ele>1638.7</ele>
        <time>2024-05-26T09:41:25Z</time>
      </trkpt>
      <trkpt lat="43.74377" lon="6.65141">
        <ele>1638.4</ele>
        <time>2024-05-26T09:41:26Z</time>
      </trkpt>
      <trkpt lat="43.74377" lon="6.65142">
        <ele>1638</ele>
        <time>2024-05-26T09:41:27Z</time>
      </trkpt>
      <trkpt lat="43.74377" lon="6.65143">
        <ele>1637.7</ele>
        <time>2024-05-26T09:41:28Z</time>
      </trkpt>
      <trkpt lat="43.74377" lon="6.65144">
        <ele>1637.5</ele>
        <time>2024-05-26T09:41:29Z</time>
      </trkpt>
      <trkpt lat="43.74378" lon="6.65145">
        <ele>1637.2</ele>
        <time>2024-05-26T09:41:30Z</time>
      </trkpt>
      <trkpt lat="43.74378" lon="6.65145">
        <ele>1637</ele>
        <time>2024-05-26T09:41:31Z</time>
      </trkpt>
      <trkpt lat="43.74379" lon="6.65146">
        <ele>1636.8</ele>
        <time>2024-05-26T09:41:32Z</time>
      </trkpt>
      <trkpt lat="43.7438" lon="6.65147">
        <ele>1636.6</ele>
        <time>2024-05-26T09:41:33Z</time>
      </trkpt>
      <trkpt lat="43.74381" lon="6.65148">
        <ele>1636.4</ele>
        <time>2024-05-26T09:41:34Z</time>
      </trkpt>
      <trkpt lat="43.74381" lon="6.65148">
        <ele>1636.3</ele>
        <time>2024-05-26T09:41:35Z</time>
      </trkpt>
      <trkpt lat="43.74382" lon="6.65149">
        <ele>1636.1</ele>
        <time>2024-05-26T09:41:36Z</time>
      </trkpt>
      <trkpt lat="43.74382" lon="6.65151">
        <ele>1635.9</ele>
        <time>2024-05-26T09:41:37Z</time>
      </trkpt>
      <trkpt lat="43.74383" lon="6.65152">
        <ele>1635.8</ele>
        <time>2024-05-26T09:41:38Z</time>
      </trkpt>
      <trkpt lat="43.74384" lon="6.65153">
        <ele>1635.6</ele>
        <time>2024-05-26T09:41:39Z</time>
      </trkpt>
      <trkpt lat="43.74385" lon="6.65154">
        <ele>1635.4</ele>
        <time>2024-05-26T09:41:40Z</time>
      </trkpt>
      <trkpt lat="43.74386" lon="6.65155">
        <ele>1635.2</ele>
        <time>2024-05-26T09:41:41Z</time>
      </trkpt>
      <trkpt lat="43.74387" lon="6.65156">
        <ele>1635.1</ele>
        <time>2024-05-26T09:41:42Z</time>
      </trkpt>
      <trkpt lat="43.74388" lon="6.65156">
        <ele>1635</ele>
        <time>2024-05-26T09:41:43Z</time>
      </trkpt>
      <trkpt lat="43.74389" lon="6.65157">
        <ele>1634.9</ele>
        <time>2024-05-26T09:41:44Z</time>
      </trkpt>
      <trkpt lat="43.7439" lon="6.65158">
        <ele>1635</ele>
        <time>2024-05-26T09:41:45Z</time>
      </trkpt>
      <trkpt lat="43.74392" lon="6.65158">
        <ele>1635</ele>
        <time>2024-05-26T09:41:46Z</time>
      </trkpt>
      <trkpt lat="43.74393" lon="6.65159">
        <ele>1635</ele>
        <time>2024-05-26T09:41:47Z</time>
      </trkpt>
      <trkpt lat="43.74394" lon="6.65159">
        <ele>1635</ele>
        <time>2024-05-26T09:41:48Z</time>
      </trkpt>
      <trkpt lat="43.74395" lon="6.6516">
        <ele>1635.1</ele>
        <time>2024-05-26T09:41:49Z</time>
      </trkpt>
      <trkpt lat="43.74396" lon="6.65161">
        <ele>1635.2</ele>
        <time>2024-05-26T09:41:50Z</time>
      </trkpt>
      <trkpt lat="43.74397" lon="6.65161">
        <ele>1635.3</ele>
        <time>2024-05-26T09:41:51Z</time>
      </trkpt>
      <trkpt lat="43.74398" lon="6.65162">
        <ele>1635.3</ele>
        <time>2024-05-26T09:41:52Z</time>
      </trkpt>
      <trkpt lat="43.74399" lon="6.65162">
        <ele>1635.4</ele>
        <time>2024-05-26T09:41:53Z</time>
      </trkpt>
      <trkpt lat="43.744" lon="6.65163">
        <ele>1635.5</ele>
        <time>2024-05-26T09:41:54Z</time>
      </trkpt>
      <trkpt lat="43.74401" lon="6.65164">
        <ele>1635.6</ele>
        <time>2024-05-26T09:41:55Z</time>
      </trkpt>
      <trkpt lat="43.74402" lon="6.65164">
        <ele>1635.6</ele>
        <time>2024-05-26T09:41:56Z</time>
      </trkpt>
      <trkpt lat="43.74403" lon="6.65164">
        <ele>1635.7</ele>
        <time>2024-05-26T09:41:57Z</time>
      </trkpt>
      <trkpt lat="43.74404" lon="6.65165">
        <ele>1635.8</ele>
        <time>2024-05-26T09:41:58Z</time>
      </trkpt>
      <trkpt lat="43.74405" lon="6.65165">
        <ele>1635.9</ele>
        <time>2024-05-26T09:41:59Z</time>
      </trkpt>
      <trkpt lat="43.74406" lon="6.65166">
        <ele>1635.9</ele>
        <time>2024-05-26T09:42:00Z</time>
      </trkpt>
      <trkpt lat="43.74407" lon="6.65166">
        <ele>1636</ele>
        <time>2024-05-26T09:42:01Z</time>
      </trkpt>
      <trkpt lat="43.74408" lon="6.65166">
        <ele>1636.1</ele>
        <time>2024-05-26T09:42:02Z</time>
      </trkpt>
      <trkpt lat="43.74409" lon="6.65166">
        <ele>1636.3</ele>
        <time>2024-05-26T09:42:03Z</time>
      </trkpt>
      <trkpt lat="43.74409" lon="6.65167">
        <ele>1636.4</ele>
        <time>2024-05-26T09:42:04Z</time>
      </trkpt>
      <trkpt lat="43.7441" lon="6.65167">
        <ele>1636.6</ele>
        <time>2024-05-26T09:42:05Z</time>
      </trkpt>
      <trkpt lat="43.74411" lon="6.65167">
        <ele>1636.8</ele>
        <time>2024-05-26T09:42:06Z</time>
      </trkpt>
      <trkpt lat="43.74412" lon="6.65168">
        <ele>1636.9</ele>
        <time>2024-05-26T09:42:07Z</time>
      </trkpt>
      <trkpt lat="43.74413" lon="6.65168">
        <ele>1637.2</ele>
        <time>2024-05-26T09:42:08Z</time>
      </trkpt>
      <trkpt lat="43.74414" lon="6.65169">
        <ele>1637.4</ele>
        <time>2024-05-26T09:42:09Z</time>
      </trkpt>
      <trkpt lat="43.74415" lon="6.65169">
        <ele>1637.5</ele>
        <time>2024-05-26T09:42:10Z</time>
      </trkpt>
      <trkpt lat="43.74416" lon="6.6517">
        <ele>1637.8</ele>
        <time>2024-05-26T09:42:11Z</time>
      </trkpt>
      <trkpt lat="43.74416" lon="6.65169">
        <ele>1638</ele>
        <time>2024-05-26T09:42:12Z</time>
      </trkpt>
      <trkpt lat="43.74417" lon="6.65169">
        <ele>1638.1</ele>
        <time>2024-05-26T09:42:13Z</time>
      </trkpt>
      <trkpt lat="43.74419" lon="6.6517">
        <ele>1638.3</ele>
        <time>2024-05-26T09:42:14Z</time>
      </trkpt>
      <trkpt lat="43.7442" lon="6.6517">
        <ele>1638.5</ele>
        <time>2024-05-26T09:42:15Z</time>
      </trkpt>
      <trkpt lat="43.74421" lon="6.6517">
        <ele>1638.7</ele>
        <time>2024-05-26T09:42:16Z</time>
      </trkpt>
      <trkpt lat="43.74422" lon="6.6517">
        <ele>1638.8</ele>
        <time>2024-05-26T09:42:17Z</time>
      </trkpt>
      <trkpt lat="43.74423" lon="6.6517">
        <ele>1639</ele>
        <time>2024-05-26T09:42:18Z</time>
      </trkpt>
      <trkpt lat="43.74424" lon="6.6517">
        <ele>1639</ele>
        <time>2024-05-26T09:42:19Z</time>
      </trkpt>
      <trkpt lat="43.74425" lon="6.6517">
        <ele>1639.1</ele>
        <time>2024-05-26T09:42:20Z</time>
      </trkpt>
      <trkpt lat="43.74426" lon="6.65171">
        <ele>1639.2</ele>
        <time>2024-05-26T09:42:21Z</time>
      </trkpt>
      <trkpt lat="43.74427" lon="6.65171">
        <ele>1639.5</ele>
        <time>2024-05-26T09:42:22Z</time>
      </trkpt>
      <trkpt lat="43.74427" lon="6.65171">
        <ele>1639.7</ele>
        <time>2024-05-26T09:42:23Z</time>
      </trkpt>
      <trkpt lat="43.74428" lon="6.65171">
        <ele>1639.8</ele>
        <time>2024-05-26T09:42:24Z</time>
      </trkpt>
      <trkpt lat="43.74429" lon="6.65171">
        <ele>1640</ele>
        <time>2024-05-26T09:42:25Z</time>
      </trkpt>
      <trkpt lat="43.7443" lon="6.65171">
        <ele>1640.1</ele>
        <time>2024-05-26T09:42:26Z</time>
      </trkpt>
      <trkpt lat="43.74431" lon="6.65171">
        <ele>1640.3</ele>
        <time>2024-05-26T09:42:27Z</time>
      </trkpt>
      <trkpt lat="43.74432" lon="6.65171">
        <ele>1640.5</ele>
        <time>2024-05-26T09:42:28Z</time>
      </trkpt>
      <trkpt lat="43.74433" lon="6.65171">
        <ele>1640.6</ele>
        <time>2024-05-26T09:42:29Z</time>
      </trkpt>
      <trkpt lat="43.74434" lon="6.65172">
        <ele>1640.8</ele>
        <time>2024-05-26T09:42:30Z</time>
      </trkpt>
      <trkpt lat="43.74435" lon="6.65172">
        <ele>1640.9</ele>
        <time>2024-05-26T09:42:31Z</time>
      </trkpt>
      <trkpt lat="43.74436" lon="6.65172">
        <ele>1641.2</ele>
        <time>2024-05-26T09:42:32Z</time>
      </trkpt>
      <trkpt lat="43.74437" lon="6.65172">
        <ele>1641.4</ele>
        <time>2024-05-26T09:42:33Z</time>
      </trkpt>
      <trkpt lat="43.74437" lon="6.65172">
        <ele>1641.7</ele>
        <time>2024-05-26T09:42:34Z</time>
      </trkpt>
      <trkpt lat="43.74438" lon="6.65172">
        <ele>1641.9</ele>
        <time>2024-05-26T09:42:35Z</time>
      </trkpt>
      <trkpt lat="43.74439" lon="6.65172">
        <ele>1642.1</ele>
        <time>2024-05-26T09:42:36Z</time>
      </trkpt>
      <trkpt lat="43.7444" lon="6.65173">
        <ele>1642.3</ele>
        <time>2024-05-26T09:42:37Z</time>
      </trkpt>
      <trkpt lat="43.7444" lon="6.65172">
        <ele>1642.5</ele>
        <time>2024-05-26T09:42:38Z</time>
      </trkpt>
      <trkpt lat="43.74441" lon="6.65172">
        <ele>1642.6</ele>
        <time>2024-05-26T09:42:39Z</time>
      </trkpt>
      <trkpt lat="43.74442" lon="6.65172">
        <ele>1642.7</ele>
        <time>2024-05-26T09:42:40Z</time>
      </trkpt>
      <trkpt lat="43.74442" lon="6.65172">
        <ele>1642.9</ele>
        <time>2024-05-26T09:42:41Z</time>
      </trkpt>
      <trkpt lat="43.74443" lon="6.65172">
        <ele>1643</ele>
        <time>2024-05-26T09:42:42Z</time>
      </trkpt>
      <trkpt lat="43.74444" lon="6.65172">
        <ele>1643.1</ele>
        <time>2024-05-26T09:42:43Z</time>
      </trkpt>
      <trkpt lat="43.74444" lon="6.65172">
        <ele>1643.2</ele>
        <time>2024-05-26T09:42:44Z</time>
      </trkpt>
      <trkpt lat="43.74445" lon="6.65172">
        <ele>1643.4</ele>
        <time>2024-05-26T09:42:45Z</time>
      </trkpt>
      <trkpt lat="43.74445" lon="6.65172">
        <ele>1643.5</ele>
        <time>2024-05-26T09:42:46Z</time>
      </trkpt>
      <trkpt lat="43.74445" lon="6.65172">
        <ele>1643.5</ele>
        <time>2024-05-26T09:42:47Z</time>
      </trkpt>
      <trkpt lat="43.74446" lon="6.65172">
        <ele>1643.7</ele>
        <time>2024-05-26T09:42:48Z</time>
      </trkpt>
      <trkpt lat="43.74446" lon="6.65173">
        <ele>1643.8</ele>
        <time>2024-05-26T09:42:49Z</time>
      </trkpt>
      <trkpt lat="43.74447" lon="6.65173">
        <ele>1643.9</ele>
        <time>2024-05-26T09:42:50Z</time>
      </trkpt>
      <trkpt lat="43.74448" lon="6.65173">
        <ele>1644.1</ele>
        <time>2024-05-26T09:42:51Z</time>
      </trkpt>
      <trkpt lat="43.74448" lon="6.65173">
        <ele>1644.2</ele>
        <time>2024-05-26T09:42:52Z</time>
      </trkpt>
      <trkpt lat="43.74449" lon="6.65173">
        <ele>1644.6</ele>
        <time>2024-05-26T09:42:53Z</time>
      </trkpt>
      <trkpt lat="43.74449" lon="6.65173">
        <ele>1644.8</ele>
        <time>2024-05-26T09:42:54Z</time>
      </trkpt>
      <trkpt lat="43.7445" lon="6.65172">
        <ele>1644.9</ele>
        <time>2024-05-26T09:42:55Z</time>
      </trkpt>
      <trkpt lat="43.7445" lon="6.65173">
        <ele>1645.1</ele>
        <time>2024-05-26T09:42:56Z</time>
      </trkpt>
      <trkpt lat="43.74451" lon="6.65173">
        <ele>1645.2</ele>
        <time>2024-05-26T09:42:57Z</time>
      </trkpt>
      <trkpt lat="43.74451" lon="6.65173">
        <ele>1645.3</ele>
        <time>2024-05-26T09:42:58Z</time>
      </trkpt>
      <trkpt lat="43.74452" lon="6.65173">
        <ele>1645.5</ele>
        <time>2024-05-26T09:42:59Z</time>
      </trkpt>
      <trkpt lat="43.74452" lon="6.65174">
        <ele>1645.6</ele>
        <time>2024-05-26T09:43:00Z</time>
      </trkpt>
      <trkpt lat="43.74453" lon="6.65175">
        <ele>1645.7</ele>
        <time>2024-05-26T09:43:01Z</time>
      </trkpt>
      <trkpt lat="43.74453" lon="6.65175">
        <ele>1645.8</ele>
        <time>2024-05-26T09:43:02Z</time>
      </trkpt>
      <trkpt lat="43.74454" lon="6.65175">
        <ele>1646</ele>
        <time>2024-05-26T09:43:03Z</time>
      </trkpt>
      <trkpt lat="43.74454" lon="6.65174">
        <ele>1646.2</ele>
        <time>2024-05-26T09:43:04Z</time>
      </trkpt>
      <trkpt lat="43.74455" lon="6.65174">
        <ele>1646.5</ele>
        <time>2024-05-26T09:43:05Z</time>
      </trkpt>
      <trkpt lat="43.74456" lon="6.65174">
        <ele>1646.6</ele>
        <time>2024-05-26T09:43:06Z</time>
      </trkpt>
      <trkpt lat="43.74457" lon="6.65174">
        <ele>1646.8</ele>
        <time>2024-05-26T09:43:07Z</time>
      </trkpt>
      <trkpt lat="43.74458" lon="6.65174">
        <ele>1646.9</ele>
        <time>2024-05-26T09:43:08Z</time>
      </trkpt>
      <trkpt lat="43.74458" lon="6.65173">
        <ele>1647.2</ele>
        <time>2024-05-26T09:43:09Z</time>
      </trkpt>
      <trkpt lat="43.74459" lon="6.65173">
        <ele>1647.4</ele>
        <time>2024-05-26T09:43:10Z</time>
      </trkpt>
      <trkpt lat="43.7446" lon="6.65173">
        <ele>1647.6</ele>
        <time>2024-05-26T09:43:11Z</time>
      </trkpt>
      <trkpt lat="43.74461" lon="6.65173">
        <ele>1647.8</ele>
        <time>2024-05-26T09:43:12Z</time>
      </trkpt>
      <trkpt lat="43.74461" lon="6.65173">
        <ele>1648.1</ele>
        <time>2024-05-26T09:43:13Z</time>
      </trkpt>
      <trkpt lat="43.74462" lon="6.65173">
        <ele>1648.3</ele>
        <time>2024-05-26T09:43:14Z</time>
      </trkpt>
      <trkpt lat="43.74462" lon="6.65173">
        <ele>1648.5</ele>
        <time>2024-05-26T09:43:15Z</time>
      </trkpt>
      <trkpt lat="43.74463" lon="6.65173">
        <ele>1648.7</ele>
        <time>2024-05-26T09:43:16Z</time>
      </trkpt>
      <trkpt lat="43.74464" lon="6.65173">
        <ele>1648.9</ele>
        <time>2024-05-26T09:43:17Z</time>
      </trkpt>
      <trkpt lat="43.74464" lon="6.65173">
        <ele>1649.1</ele>
        <time>2024-05-26T09:43:18Z</time>
      </trkpt>
      <trkpt lat="43.74465" lon="6.65173">
        <ele>1649.3</ele>
        <time>2024-05-26T09:43:19Z</time>
      </trkpt>
      <trkpt lat="43.74465" lon="6.65173">
        <ele>1649.4</ele>
        <time>2024-05-26T09:43:20Z</time>
      </trkpt>
      <trkpt lat="43.74466" lon="6.65173">
        <ele>1649.6</ele>
        <time>2024-05-26T09:43:21Z</time>
      </trkpt>
      <trkpt lat="43.74466" lon="6.65173">
        <ele>1649.8</ele>
        <time>2024-05-26T09:43:22Z</time>
      </trkpt>
      <trkpt lat="43.74467" lon="6.65173">
        <ele>1650.1</ele>
        <time>2024-05-26T09:43:23Z</time>
      </trkpt>
      <trkpt lat="43.74467" lon="6.65173">
        <ele>1650.3</ele>
        <time>2024-05-26T09:43:24Z</time>
      </trkpt>
      <trkpt lat="43.74467" lon="6.65173">
        <ele>1650.4</ele>
        <time>2024-05-26T09:43:25Z</time>
      </trkpt>
      <trkpt lat="43.74467" lon="6.65173">
        <ele>1650.6</ele>
        <time>2024-05-26T09:43:26Z</time>
      </trkpt>
      <trkpt lat="43.74467" lon="6.65172">
        <ele>1650.7</ele>
        <time>2024-05-26T09:43:27Z</time>
      </trkpt>
      <trkpt lat="43.74467" lon="6.65172">
        <ele>1650.7</ele>
        <time>2024-05-26T09:43:28Z</time>
      </trkpt>
      <trkpt lat="43.74467" lon="6.65172">
        <ele>1650.8</ele>
        <time>2024-05-26T09:43:29Z</time>
      </trkpt>
      <trkpt lat="43.74467" lon="6.65172">
        <ele>1650.9</ele>
        <time>2024-05-26T09:43:30Z</time>
      </trkpt>
      <trkpt lat="43.74467" lon="6.65172">
        <ele>1651.1</ele>
        <time>2024-05-26T09:43:31Z</time>
      </trkpt>
      <trkpt lat="43.74466" lon="6.65171">
        <ele>1651.2</ele>
        <time>2024-05-26T09:43:32Z</time>
      </trkpt>
      <trkpt lat="43.74466" lon="6.65171">
        <ele>1651.2</ele>
        <time>2024-05-26T09:43:33Z</time>
      </trkpt>
      <trkpt lat="43.74466" lon="6.65171">
        <ele>1651.4</ele>
        <time>2024-05-26T09:43:34Z</time>
      </trkpt>
      <trkpt lat="43.74466" lon="6.6517">
        <ele>1651.5</ele>
        <time>2024-05-26T09:43:35Z</time>
      </trkpt>
      <trkpt lat="43.74466" lon="6.6517">
        <ele>1651.4</ele>
        <time>2024-05-26T09:43:36Z</time>
      </trkpt>
      <trkpt lat="43.74466" lon="6.6517">
        <ele>1651.4</ele>
        <time>2024-05-26T09:43:37Z</time>
      </trkpt>
      <trkpt lat="43.74466" lon="6.6517">
        <ele>1651.3</ele>
        <time>2024-05-26T09:43:38Z</time>
      </trkpt>
      <trkpt lat="43.74465" lon="6.6517">
        <ele>1651.3</ele>
        <time>2024-05-26T09:43:39Z</time>
      </trkpt>
      <trkpt lat="43.74465" lon="6.6517">
        <ele>1651.3</ele>
        <time>2024-05-26T09:43:40Z</time>
      </trkpt>
      <trkpt lat="43.74465" lon="6.65169">
        <ele>1651.3</ele>
        <time>2024-05-26T09:43:41Z</time>
      </trkpt>
      <trkpt lat="43.74465" lon="6.65169">
        <ele>1651.4</ele>
        <time>2024-05-26T09:43:42Z</time>
      </trkpt>
      <trkpt lat="43.74465" lon="6.65169">
        <ele>1651.4</ele>
        <time>2024-05-26T09:43:43Z</time>
      </trkpt>
      <trkpt lat="43.74465" lon="6.65169">
        <ele>1651.5</ele>
        <time>2024-05-26T09:43:44Z</time>
      </trkpt>
      <trkpt lat="43.74465" lon="6.65169">
        <ele>1651.5</ele>
        <time>2024-05-26T09:43:45Z</time>
      </trkpt>
      <trkpt lat="43.74465" lon="6.65169">
        <ele>1651.5</ele>
        <time>2024-05-26T09:43:46Z</time>
      </trkpt>
      <trkpt lat="43.74465" lon="6.65168">
        <ele>1651.5</ele>
        <time>2024-05-26T09:43:47Z</time>
      </trkpt>
      <trkpt lat="43.74465" lon="6.65168">
        <ele>1651.5</ele>
        <time>2024-05-26T09:43:48Z</time>
      </trkpt>
      <trkpt lat="43.74465" lon="6.65168">
        <ele>1651.5</ele>
        <time>2024-05-26T09:43:49Z</time>
      </trkpt>
      <trkpt lat="43.74465" lon="6.65168">
        <ele>1651.5</ele>
        <time>2024-05-26T09:43:50Z</time>
      </trkpt>
      <trkpt lat="43.74465" lon="6.65168">
        <ele>1651.5</ele>
        <time>2024-05-26T09:43:51Z</time>
      </trkpt>
      <trkpt lat="43.74465" lon="6.65168">
        <ele>1651.5</ele>
        <time>2024-05-26T09:43:52Z</time>
      </trkpt>
      <trkpt lat="43.74465" lon="6.65168">
        <ele>1651.4</ele>
        <time>2024-05-26T09:43:53Z</time>
      </trkpt>
      <trkpt lat="43.74466" lon="6.65169">
        <ele>1651.3</ele>
        <time>2024-05-26T09:43:54Z</time>
      </trkpt>
      <trkpt lat="43.74466" lon="6.6517">
        <ele>1651.3</ele>
        <time>2024-05-26T09:43:55Z</time>
      </trkpt>
      <trkpt lat="43.74466" lon="6.65172">
        <ele>1651.3</ele>
        <time>2024-05-26T09:43:56Z</time>
      </trkpt>
      <trkpt lat="43.74466" lon="6.65172">
        <ele>1651.3</ele>
        <time>2024-05-26T09:43:57Z</time>
      </trkpt>
      <trkpt lat="43.74466" lon="6.65173">
        <ele>1651.3</ele>
        <time>2024-05-26T09:43:58Z</time>
      </trkpt>
      <trkpt lat="43.74466" lon="6.65174">
        <ele>1651.4</ele>
        <time>2024-05-26T09:43:59Z</time>
      </trkpt>
      <trkpt lat="43.74466" lon="6.65174">
        <ele>1651.6</ele>
        <time>2024-05-26T09:44:00Z</time>
      </trkpt>
      <trkpt lat="43.74466" lon="6.65175">
        <ele>1651.7</ele>
        <time>2024-05-26T09:44:01Z</time>
      </trkpt>
      <trkpt lat="43.74466" lon="6.65175">
        <ele>1651.8</ele>
        <time>2024-05-26T09:44:02Z</time>
      </trkpt>
      <trkpt lat="43.74466" lon="6.65175">
        <ele>1651.9</ele>
        <time>2024-05-26T09:44:03Z</time>
      </trkpt>
      <trkpt lat="43.74466" lon="6.65175">
        <ele>1651.9</ele>
        <time>2024-05-26T09:44:04Z</time>
      </trkpt>
      <trkpt lat="43.74466" lon="6.65175">
        <ele>1651.9</ele>
        <time>2024-05-26T09:44:05Z</time>
      </trkpt>
      <trkpt lat="43.74465" lon="6.65175">
        <ele>1652</ele>
        <time>2024-05-26T09:44:06Z</time>
      </trkpt>
      <trkpt lat="43.74465" lon="6.65175">
        <ele>1652</ele>
        <time>2024-05-26T09:44:07Z</time>
      </trkpt>
      <trkpt lat="43.74465" lon="6.65175">
        <ele>1652.1</ele>
        <time>2024-05-26T09:44:08Z</time>
      </trkpt>
      <trkpt lat="43.74465" lon="6.65175">
        <ele>1652.2</ele>
        <time>2024-05-26T09:44:09Z</time>
      </trkpt>
      <trkpt lat="43.74466" lon="6.65176">
        <ele>1652.1</ele>
        <time>2024-05-26T09:44:10Z</time>
      </trkpt>
      <trkpt lat="43.74466" lon="6.65176">
        <ele>1652.1</ele>
        <time>2024-05-26T09:44:11Z</time>
      </trkpt>
      <trkpt lat="43.74466" lon="6.65176">
        <ele>1652.1</ele>
        <time>2024-05-26T09:44:12Z</time>
      </trkpt>
      <trkpt lat="43.74466" lon="6.65176">
        <ele>1652.1</ele>
        <time>2024-05-26T09:44:13Z</time>
      </trkpt>
      <trkpt lat="43.74466" lon="6.65177">
        <ele>1652.2</ele>
        <time>2024-05-26T09:44:14Z</time>
      </trkpt>
      <trkpt lat="43.74466" lon="6.65177">
        <ele>1652.2</ele>
        <time>2024-05-26T09:44:15Z</time>
      </trkpt>
      <trkpt lat="43.74466" lon="6.65177">
        <ele>1652.2</ele>
        <time>2024-05-26T09:44:16Z</time>
      </trkpt>
      <trkpt lat="43.74466" lon="6.65177">
        <ele>1652.2</ele>
        <time>2024-05-26T09:44:17Z</time>
      </trkpt>
      <trkpt lat="43.74466" lon="6.65177">
        <ele>1652.2</ele>
        <time>2024-05-26T09:44:18Z</time>
      </trkpt>
      <trkpt lat="43.74466" lon="6.65178">
        <ele>1652.2</ele>
        <time>2024-05-26T09:44:19Z</time>
      </trkpt>
      <trkpt lat="43.74467" lon="6.65178">
        <ele>1652.2</ele>
        <time>2024-05-26T09:44:20Z</time>
      </trkpt>
      <trkpt lat="43.74467" lon="6.65179">
        <ele>1652.2</ele>
        <time>2024-05-26T09:44:21Z</time>
      </trkpt>
      <trkpt lat="43.74467" lon="6.65179">
        <ele>1652.2</ele>
        <time>2024-05-26T09:44:22Z</time>
      </trkpt>
      <trkpt lat="43.74467" lon="6.6518">
        <ele>1652.3</ele>
        <time>2024-05-26T09:44:23Z</time>
      </trkpt>
      <trkpt lat="43.74468" lon="6.65181">
        <ele>1652.2</ele>
        <time>2024-05-26T09:44:24Z</time>
      </trkpt>
      <trkpt lat="43.74467" lon="6.65179">
        <ele>1652.1</ele>
        <time>2024-05-26T09:44:25Z</time>
      </trkpt>
      <trkpt lat="43.74466" lon="6.65178">
        <ele>1652.1</ele>
        <time>2024-05-26T09:44:26Z</time>
      </trkpt>
      <trkpt lat="43.74465" lon="6.65179">
        <ele>1652.2</ele>
        <time>2024-05-26T09:44:27Z</time>
      </trkpt>
      <trkpt lat="43.74465" lon="6.65179">
        <ele>1652.2</ele>
        <time>2024-05-26T09:44:28Z</time>
      </trkpt>
      <trkpt lat="43.74465" lon="6.65179">
        <ele>1652.3</ele>
        <time>2024-05-26T09:44:29Z</time>
      </trkpt>
      <trkpt lat="43.74465" lon="6.65179">
        <ele>1652.3</ele>
        <time>2024-05-26T09:44:30Z</time>
      </trkpt>
      <trkpt lat="43.74465" lon="6.65179">
        <ele>1652.3</ele>
        <time>2024-05-26T09:44:31Z</time>
      </trkpt>
      <trkpt lat="43.74465" lon="6.65179">
        <ele>1652.4</ele>
        <time>2024-05-26T09:44:32Z</time>
      </trkpt>
      <trkpt lat="43.74465" lon="6.6518">
        <ele>1652.4</ele>
        <time>2024-05-26T09:44:33Z</time>
      </trkpt>
      <trkpt lat="43.74466" lon="6.6518">
        <ele>1652.3</ele>
        <time>2024-05-26T09:44:34Z</time>
      </trkpt>
      <trkpt lat="43.74466" lon="6.6518">
        <ele>1652.3</ele>
        <time>2024-05-26T09:44:35Z</time>
      </trkpt>
      <trkpt lat="43.74466" lon="6.6518">
        <ele>1652.3</ele>
        <time>2024-05-26T09:44:36Z</time>
      </trkpt>
      <trkpt lat="43.74466" lon="6.6518">
        <ele>1652.4</ele>
        <time>2024-05-26T09:44:37Z</time>
      </trkpt>
      <trkpt lat="43.74466" lon="6.6518">
        <ele>1652.4</ele>
        <time>2024-05-26T09:44:38Z</time>
      </trkpt>
      <trkpt lat="43.74466" lon="6.65181">
        <ele>1652.4</ele>
        <time>2024-05-26T09:44:39Z</time>
      </trkpt>
      <trkpt lat="43.74466" lon="6.65181">
        <ele>1652.4</ele>
        <time>2024-05-26T09:44:40Z</time>
      </trkpt>
      <trkpt lat="43.74467" lon="6.65181">
        <ele>1652.4</ele>
        <time>2024-05-26T09:44:41Z</time>
      </trkpt>
      <trkpt lat="43.74467" lon="6.65181">
        <ele>1652.4</ele>
        <time>2024-05-26T09:44:42Z</time>
      </trkpt>
      <trkpt lat="43.74467" lon="6.65181">
        <ele>1652.4</ele>
        <time>2024-05-26T09:44:43Z</time>
      </trkpt>
      <trkpt lat="43.74467" lon="6.65181">
        <ele>1652.4</ele>
        <time>2024-05-26T09:44:44Z</time>
      </trkpt>
      <trkpt lat="43.74468" lon="6.6518">
        <ele>1652.4</ele>
        <time>2024-05-26T09:44:45Z</time>
      </trkpt>
      <trkpt lat="43.74469" lon="6.65181">
        <ele>1652.4</ele>
        <time>2024-05-26T09:44:46Z</time>
      </trkpt>
      <trkpt lat="43.74469" lon="6.65181">
        <ele>1652.5</ele>
        <time>2024-05-26T09:44:47Z</time>
      </trkpt>
      <trkpt lat="43.7447" lon="6.65181">
        <ele>1652.6</ele>
        <time>2024-05-26T09:44:48Z</time>
      </trkpt>
      <trkpt lat="43.74471" lon="6.65182">
        <ele>1652.5</ele>
        <time>2024-05-26T09:44:49Z</time>
      </trkpt>
      <trkpt lat="43.74471" lon="6.65182">
        <ele>1652.6</ele>
        <time>2024-05-26T09:44:50Z</time>
      </trkpt>
      <trkpt lat="43.74472" lon="6.65182">
        <ele>1652.6</ele>
        <time>2024-05-26T09:44:51Z</time>
      </trkpt>
      <trkpt lat="43.74473" lon="6.65183">
        <ele>1652.7</ele>
        <time>2024-05-26T09:44:52Z</time>
      </trkpt>
      <trkpt lat="43.74474" lon="6.65183">
        <ele>1652.8</ele>
        <time>2024-05-26T09:44:53Z</time>
      </trkpt>
      <trkpt lat="43.74474" lon="6.65184">
        <ele>1652.8</ele>
        <time>2024-05-26T09:44:54Z</time>
      </trkpt>
      <trkpt lat="43.74475" lon="6.65184">
        <ele>1652.8</ele>
        <time>2024-05-26T09:44:55Z</time>
      </trkpt>
      <trkpt lat="43.74476" lon="6.65184">
        <ele>1652.8</ele>
        <time>2024-05-26T09:44:56Z</time>
      </trkpt>
      <trkpt lat="43.74477" lon="6.65185">
        <ele>1652.8</ele>
        <time>2024-05-26T09:44:57Z</time>
      </trkpt>
      <trkpt lat="43.74477" lon="6.65185">
        <ele>1652.8</ele>
        <time>2024-05-26T09:44:58Z</time>
      </trkpt>
      <trkpt lat="43.74478" lon="6.65186">
        <ele>1652.8</ele>
        <time>2024-05-26T09:44:59Z</time>
      </trkpt>
      <trkpt lat="43.74479" lon="6.65186">
        <ele>1652.8</ele>
        <time>2024-05-26T09:45:00Z</time>
      </trkpt>
      <trkpt lat="43.74479" lon="6.65186">
        <ele>1652.7</ele>
        <time>2024-05-26T09:45:01Z</time>
      </trkpt>
      <trkpt lat="43.7448" lon="6.65187">
        <ele>1652.8</ele>
        <time>2024-05-26T09:45:02Z</time>
      </trkpt>
      <trkpt lat="43.7448" lon="6.65187">
        <ele>1652.8</ele>
        <time>2024-05-26T09:45:03Z</time>
      </trkpt>
      <trkpt lat="43.74481" lon="6.65188">
        <ele>1652.8</ele>
        <time>2024-05-26T09:45:04Z</time>
      </trkpt>
      <trkpt lat="43.74482" lon="6.65188">
        <ele>1652.8</ele>
        <time>2024-05-26T09:45:05Z</time>
      </trkpt>
      <trkpt lat="43.74482" lon="6.65189">
        <ele>1652.8</ele>
        <time>2024-05-26T09:45:06Z</time>
      </trkpt>
      <trkpt lat="43.74482" lon="6.65189">
        <ele>1652.8</ele>
        <time>2024-05-26T09:45:07Z</time>
      </trkpt>
      <trkpt lat="43.74482" lon="6.65189">
        <ele>1652.8</ele>
        <time>2024-05-26T09:45:08Z</time>
      </trkpt>
      <trkpt lat="43.74482" lon="6.65189">
        <ele>1652.8</ele>
        <time>2024-05-26T09:45:09Z</time>
      </trkpt>
      <trkpt lat="43.74482" lon="6.65189">
        <ele>1652.9</ele>
        <time>2024-05-26T09:45:10Z</time>
      </trkpt>
      <trkpt lat="43.74482" lon="6.65189">
        <ele>1652.9</ele>
        <time>2024-05-26T09:45:11Z</time>
      </trkpt>
      <trkpt lat="43.74482" lon="6.65189">
        <ele>1652.9</ele>
        <time>2024-05-26T09:45:12Z</time>
      </trkpt>
      <trkpt lat="43.74482" lon="6.65189">
        <ele>1652.8</ele>
        <time>2024-05-26T09:45:13Z</time>
      </trkpt>
      <trkpt lat="43.74482" lon="6.65188">
        <ele>1652.8</ele>
        <time>2024-05-26T09:45:14Z</time>
      </trkpt>
      <trkpt lat="43.74482" lon="6.65188">
        <ele>1652.9</ele>
        <time>2024-05-26T09:45:15Z</time>
      </trkpt>
      <trkpt lat="43.74482" lon="6.65188">
        <ele>1652.9</ele>
        <time>2024-05-26T09:45:16Z</time>
      </trkpt>
      <trkpt lat="43.74482" lon="6.65188">
        <ele>1652.9</ele>
        <time>2024-05-26T09:45:17Z</time>
      </trkpt>
      <trkpt lat="43.74482" lon="6.65188">
        <ele>1653</ele>
        <time>2024-05-26T09:45:18Z</time>
      </trkpt>
      <trkpt lat="43.74482" lon="6.65188">
        <ele>1653</ele>
        <time>2024-05-26T09:45:19Z</time>
      </trkpt>
      <trkpt lat="43.74482" lon="6.65188">
        <ele>1653.1</ele>
        <time>2024-05-26T09:45:20Z</time>
      </trkpt>
      <trkpt lat="43.74482" lon="6.65188">
        <ele>1653.1</ele>
        <time>2024-05-26T09:45:21Z</time>
      </trkpt>
      <trkpt lat="43.74482" lon="6.65188">
        <ele>1653.1</ele>
        <time>2024-05-26T09:45:22Z</time>
      </trkpt>
      <trkpt lat="43.74482" lon="6.65188">
        <ele>1653.2</ele>
        <time>2024-05-26T09:45:23Z</time>
      </trkpt>
      <trkpt lat="43.74482" lon="6.65188">
        <ele>1653.3</ele>
        <time>2024-05-26T09:45:24Z</time>
      </trkpt>
      <trkpt lat="43.74482" lon="6.65188">
        <ele>1653.3</ele>
        <time>2024-05-26T09:45:25Z</time>
      </trkpt>
      <trkpt lat="43.74482" lon="6.65188">
        <ele>1653.4</ele>
        <time>2024-05-26T09:45:26Z</time>
      </trkpt>
      <trkpt lat="43.74482" lon="6.65188">
        <ele>1653.4</ele>
        <time>2024-05-26T09:45:27Z</time>
      </trkpt>
      <trkpt lat="43.74482" lon="6.65188">
        <ele>1653.4</ele>
        <time>2024-05-26T09:45:28Z</time>
      </trkpt>
      <trkpt lat="43.74482" lon="6.65188">
        <ele>1653.4</ele>
        <time>2024-05-26T09:45:29Z</time>
      </trkpt>
      <trkpt lat="43.74482" lon="6.65188">
        <ele>1653.4</ele>
        <time>2024-05-26T09:45:30Z</time>
      </trkpt>
      <trkpt lat="43.74482" lon="6.65188">
        <ele>1653.4</ele>
        <time>2024-05-26T09:45:31Z</time>
      </trkpt>
      <trkpt lat="43.74482" lon="6.65188">
        <ele>1653.4</ele>
        <time>2024-05-26T09:45:32Z</time>
      </trkpt>
      <trkpt lat="43.74482" lon="6.65188">
        <ele>1653.4</ele>
        <time>2024-05-26T09:45:33Z</time>
      </trkpt>
      <trkpt lat="43.74482" lon="6.65188">
        <ele>1653.4</ele>
        <time>2024-05-26T09:45:34Z</time>
      </trkpt>
      <trkpt lat="43.74482" lon="6.65188">
        <ele>1653.4</ele>
        <time>2024-05-26T09:45:35Z</time>
      </trkpt>
      <trkpt lat="43.74482" lon="6.65188">
        <ele>1653.5</ele>
        <time>2024-05-26T09:45:36Z</time>
      </trkpt>
      <trkpt lat="43.74482" lon="6.65188">
        <ele>1653.5</ele>
        <time>2024-05-26T09:45:37Z</time>
      </trkpt>
      <trkpt lat="43.74483" lon="6.65188">
        <ele>1653.6</ele>
        <time>2024-05-26T09:45:38Z</time>
      </trkpt>
      <trkpt lat="43.74483" lon="6.65188">
        <ele>1653.6</ele>
        <time>2024-05-26T09:45:39Z</time>
      </trkpt>
      <trkpt lat="43.74483" lon="6.65188">
        <ele>1653.5</ele>
        <time>2024-05-26T09:45:40Z</time>
      </trkpt>
      <trkpt lat="43.74483" lon="6.65188">
        <ele>1653.4</ele>
        <time>2024-05-26T09:45:41Z</time>
      </trkpt>
      <trkpt lat="43.74483" lon="6.65188">
        <ele>1653.4</ele>
        <time>2024-05-26T09:45:42Z</time>
      </trkpt>
      <trkpt lat="43.74483" lon="6.65188">
        <ele>1653.4</ele>
        <time>2024-05-26T09:45:43Z</time>
      </trkpt>
      <trkpt lat="43.74483" lon="6.65188">
        <ele>1653.4</ele>
        <time>2024-05-26T09:45:44Z</time>
      </trkpt>
      <trkpt lat="43.74483" lon="6.65189">
        <ele>1653.2</ele>
        <time>2024-05-26T09:45:45Z</time>
      </trkpt>
      <trkpt lat="43.74483" lon="6.65189">
        <ele>1653.3</ele>
        <time>2024-05-26T09:45:46Z</time>
      </trkpt>
      <trkpt lat="43.74483" lon="6.65189">
        <ele>1653.3</ele>
        <time>2024-05-26T09:45:47Z</time>
      </trkpt>
      <trkpt lat="43.74483" lon="6.65189">
        <ele>1653.3</ele>
        <time>2024-05-26T09:45:48Z</time>
      </trkpt>
      <trkpt lat="43.74483" lon="6.65189">
        <ele>1653.3</ele>
        <time>2024-05-26T09:45:49Z</time>
      </trkpt>
      <trkpt lat="43.74483" lon="6.65189">
        <ele>1653.4</ele>
        <time>2024-05-26T09:45:50Z</time>
      </trkpt>
      <trkpt lat="43.74483" lon="6.65189">
        <ele>1653.4</ele>
        <time>2024-05-26T09:45:51Z</time>
      </trkpt>
      <trkpt lat="43.74483" lon="6.65189">
        <ele>1653.4</ele>
        <time>2024-05-26T09:45:52Z</time>
      </trkpt>
      <trkpt lat="43.74483" lon="6.65189">
        <ele>1653.4</ele>
        <time>2024-05-26T09:45:53Z</time>
      </trkpt>
      <trkpt lat="43.74483" lon="6.65189">
        <ele>1653.4</ele>
        <time>2024-05-26T09:45:54Z</time>
      </trkpt>
      <trkpt lat="43.74483" lon="6.65189">
        <ele>1653.5</ele>
        <time>2024-05-26T09:45:55Z</time>
      </trkpt>
      <trkpt lat="43.74483" lon="6.65189">
        <ele>1653.5</ele>
        <time>2024-05-26T09:45:56Z</time>
      </trkpt>
      <trkpt lat="43.74483" lon="6.65189">
        <ele>1653.4</ele>
        <time>2024-05-26T09:45:57Z</time>
      </trkpt>
      <trkpt lat="43.74483" lon="6.65189">
        <ele>1653.3</ele>
        <time>2024-05-26T09:45:58Z</time>
      </trkpt>
      <trkpt lat="43.74483" lon="6.65188">
        <ele>1653.4</ele>
        <time>2024-05-26T09:45:59Z</time>
      </trkpt>
      <trkpt lat="43.74483" lon="6.65189">
        <ele>1653.4</ele>
        <time>2024-05-26T09:46:00Z</time>
      </trkpt>
      <trkpt lat="43.74483" lon="6.65189">
        <ele>1653.4</ele>
        <time>2024-05-26T09:46:01Z</time>
      </trkpt>
      <trkpt lat="43.74483" lon="6.6519">
        <ele>1653.4</ele>
        <time>2024-05-26T09:46:02Z</time>
      </trkpt>
      <trkpt lat="43.74483" lon="6.65191">
        <ele>1653.6</ele>
        <time>2024-05-26T09:46:03Z</time>
      </trkpt>
      <trkpt lat="43.74483" lon="6.65191">
        <ele>1653.6</ele>
        <time>2024-05-26T09:46:04Z</time>
      </trkpt>
      <trkpt lat="43.74484" lon="6.65192">
        <ele>1653.6</ele>
        <time>2024-05-26T09:46:05Z</time>
      </trkpt>
      <trkpt lat="43.74484" lon="6.65193">
        <ele>1653.6</ele>
        <time>2024-05-26T09:46:06Z</time>
      </trkpt>
      <trkpt lat="43.74484" lon="6.65194">
        <ele>1653.6</ele>
        <time>2024-05-26T09:46:07Z</time>
      </trkpt>
      <trkpt lat="43.74484" lon="6.65194">
        <ele>1653.6</ele>
        <time>2024-05-26T09:46:08Z</time>
      </trkpt>
      <trkpt lat="43.74484" lon="6.65194">
        <ele>1653.6</ele>
        <time>2024-05-26T09:46:09Z</time>
      </trkpt>
      <trkpt lat="43.74484" lon="6.65194">
        <ele>1653.6</ele>
        <time>2024-05-26T09:46:10Z</time>
      </trkpt>
      <trkpt lat="43.74484" lon="6.65194">
        <ele>1653.7</ele>
        <time>2024-05-26T09:46:11Z</time>
      </trkpt>
      <trkpt lat="43.74483" lon="6.65194">
        <ele>1653.7</ele>
        <time>2024-05-26T09:46:12Z</time>
      </trkpt>
      <trkpt lat="43.74483" lon="6.65194">
        <ele>1653.7</ele>
        <time>2024-05-26T09:46:13Z</time>
      </trkpt>
      <trkpt lat="43.74483" lon="6.65193">
        <ele>1653.7</ele>
        <time>2024-05-26T09:46:14Z</time>
      </trkpt>
      <trkpt lat="43.74483" lon="6.65193">
        <ele>1653.7</ele>
        <time>2024-05-26T09:46:15Z</time>
      </trkpt>
      <trkpt lat="43.74483" lon="6.65194">
        <ele>1653.7</ele>
        <time>2024-05-26T09:46:16Z</time>
      </trkpt>
      <trkpt lat="43.74483" lon="6.65194">
        <ele>1653.7</ele>
        <time>2024-05-26T09:46:17Z</time>
      </trkpt>
      <trkpt lat="43.74483" lon="6.65194">
        <ele>1653.7</ele>
        <time>2024-05-26T09:46:18Z</time>
      </trkpt>
      <trkpt lat="43.74483" lon="6.65194">
        <ele>1653.7</ele>
        <time>2024-05-26T09:46:19Z</time>
      </trkpt>
      <trkpt lat="43.74483" lon="6.65195">
        <ele>1653.7</ele>
        <time>2024-05-26T09:46:20Z</time>
      </trkpt>
      <trkpt lat="43.74483" lon="6.65195">
        <ele>1653.7</ele>
        <time>2024-05-26T09:46:21Z</time>
      </trkpt>
      <trkpt lat="43.74483" lon="6.65195">
        <ele>1653.8</ele>
        <time>2024-05-26T09:46:22Z</time>
      </trkpt>
      <trkpt lat="43.74483" lon="6.65195">
        <ele>1653.9</ele>
        <time>2024-05-26T09:46:23Z</time>
      </trkpt>
      <trkpt lat="43.74483" lon="6.65195">
        <ele>1653.9</ele>
        <time>2024-05-26T09:46:24Z</time>
      </trkpt>
      <trkpt lat="43.74483" lon="6.65195">
        <ele>1653.9</ele>
        <time>2024-05-26T09:46:25Z</time>
      </trkpt>
      <trkpt lat="43.74483" lon="6.65195">
        <ele>1654</ele>
        <time>2024-05-26T09:46:26Z</time>
      </trkpt>
      <trkpt lat="43.74483" lon="6.65195">
        <ele>1654</ele>
        <time>2024-05-26T09:46:27Z</time>
      </trkpt>
      <trkpt lat="43.74483" lon="6.65195">
        <ele>1654</ele>
        <time>2024-05-26T09:46:28Z</time>
      </trkpt>
      <trkpt lat="43.74483" lon="6.65195">
        <ele>1653.9</ele>
        <time>2024-05-26T09:46:29Z</time>
      </trkpt>
      <trkpt lat="43.74483" lon="6.65195">
        <ele>1653.9</ele>
        <time>2024-05-26T09:46:30Z</time>
      </trkpt>
      <trkpt lat="43.74483" lon="6.65195">
        <ele>1653.8</ele>
        <time>2024-05-26T09:46:31Z</time>
      </trkpt>
      <trkpt lat="43.74483" lon="6.65195">
        <ele>1653.8</ele>
        <time>2024-05-26T09:46:32Z</time>
      </trkpt>
      <trkpt lat="43.74482" lon="6.65195">
        <ele>1653.7</ele>
        <time>2024-05-26T09:46:33Z</time>
      </trkpt>
      <trkpt lat="43.74483" lon="6.65196">
        <ele>1653.8</ele>
        <time>2024-05-26T09:46:34Z</time>
      </trkpt>
      <trkpt lat="43.74482" lon="6.65197">
        <ele>1653.8</ele>
        <time>2024-05-26T09:46:35Z</time>
      </trkpt>
      <trkpt lat="43.74482" lon="6.65198">
        <ele>1653.9</ele>
        <time>2024-05-26T09:46:36Z</time>
      </trkpt>
      <trkpt lat="43.74482" lon="6.65198">
        <ele>1654.1</ele>
        <time>2024-05-26T09:46:37Z</time>
      </trkpt>
      <trkpt lat="43.74482" lon="6.65198">
        <ele>1654.2</ele>
        <time>2024-05-26T09:46:38Z</time>
      </trkpt>
      <trkpt lat="43.74482" lon="6.65199">
        <ele>1654.2</ele>
        <time>2024-05-26T09:46:39Z</time>
      </trkpt>
      <trkpt lat="43.74482" lon="6.652">
        <ele>1654.2</ele>
        <time>2024-05-26T09:46:40Z</time>
      </trkpt>
      <trkpt lat="43.74482" lon="6.65201">
        <ele>1654.4</ele>
        <time>2024-05-26T09:46:41Z</time>
      </trkpt>
      <trkpt lat="43.74481" lon="6.65202">
        <ele>1654.6</ele>
        <time>2024-05-26T09:46:42Z</time>
      </trkpt>
      <trkpt lat="43.74481" lon="6.65203">
        <ele>1654.8</ele>
        <time>2024-05-26T09:46:43Z</time>
      </trkpt>
      <trkpt lat="43.74481" lon="6.65203">
        <ele>1654.9</ele>
        <time>2024-05-26T09:46:44Z</time>
      </trkpt>
      <trkpt lat="43.74481" lon="6.65204">
        <ele>1655.1</ele>
        <time>2024-05-26T09:46:45Z</time>
      </trkpt>
      <trkpt lat="43.7448" lon="6.65205">
        <ele>1655.3</ele>
        <time>2024-05-26T09:46:46Z</time>
      </trkpt>
      <trkpt lat="43.7448" lon="6.65205">
        <ele>1655.5</ele>
        <time>2024-05-26T09:46:47Z</time>
      </trkpt>
      <trkpt lat="43.7448" lon="6.65206">
        <ele>1655.6</ele>
        <time>2024-05-26T09:46:48Z</time>
      </trkpt>
      <trkpt lat="43.7448" lon="6.65207">
        <ele>1655.8</ele>
        <time>2024-05-26T09:46:49Z</time>
      </trkpt>
      <trkpt lat="43.74479" lon="6.65207">
        <ele>1656</ele>
        <time>2024-05-26T09:46:50Z</time>
      </trkpt>
      <trkpt lat="43.7448" lon="6.65207">
        <ele>1656.1</ele>
        <time>2024-05-26T09:46:51Z</time>
      </trkpt>
      <trkpt lat="43.74479" lon="6.65207">
        <ele>1656.2</ele>
        <time>2024-05-26T09:46:52Z</time>
      </trkpt>
      <trkpt lat="43.74479" lon="6.65207">
        <ele>1656.2</ele>
        <time>2024-05-26T09:46:53Z</time>
      </trkpt>
      <trkpt lat="43.74479" lon="6.65207">
        <ele>1656.4</ele>
        <time>2024-05-26T09:46:54Z</time>
      </trkpt>
      <trkpt lat="43.74479" lon="6.65207">
        <ele>1656.5</ele>
        <time>2024-05-26T09:46:55Z</time>
      </trkpt>
      <trkpt lat="43.74479" lon="6.65206">
        <ele>1656.5</ele>
        <time>2024-05-26T09:46:56Z</time>
      </trkpt>
      <trkpt lat="43.74479" lon="6.65206">
        <ele>1656.5</ele>
        <time>2024-05-26T09:46:57Z</time>
      </trkpt>
      <trkpt lat="43.74479" lon="6.65206">
        <ele>1656.5</ele>
        <time>2024-05-26T09:46:58Z</time>
      </trkpt>
      <trkpt lat="43.74479" lon="6.65206">
        <ele>1656.5</ele>
        <time>2024-05-26T09:46:59Z</time>
      </trkpt>
      <trkpt lat="43.74479" lon="6.65206">
        <ele>1656.5</ele>
        <time>2024-05-26T09:47:00Z</time>
      </trkpt>
      <trkpt lat="43.74479" lon="6.65206">
        <ele>1656.4</ele>
        <time>2024-05-26T09:47:01Z</time>
      </trkpt>
      <trkpt lat="43.74479" lon="6.65206">
        <ele>1656.4</ele>
        <time>2024-05-26T09:47:02Z</time>
      </trkpt>
      <trkpt lat="43.74479" lon="6.65206">
        <ele>1656.4</ele>
        <time>2024-05-26T09:47:03Z</time>
      </trkpt>
      <trkpt lat="43.74478" lon="6.65206">
        <ele>1656.4</ele>
        <time>2024-05-26T09:47:04Z</time>
      </trkpt>
      <trkpt lat="43.74478" lon="6.65206">
        <ele>1656.4</ele>
        <time>2024-05-26T09:47:05Z</time>
      </trkpt>
      <trkpt lat="43.74479" lon="6.65206">
        <ele>1656.4</ele>
        <time>2024-05-26T09:47:06Z</time>
      </trkpt>
      <trkpt lat="43.74479" lon="6.65206">
        <ele>1656.5</ele>
        <time>2024-05-26T09:47:07Z</time>
      </trkpt>
      <trkpt lat="43.74479" lon="6.65206">
        <ele>1656.6</ele>
        <time>2024-05-26T09:47:08Z</time>
      </trkpt>
      <trkpt lat="43.74479" lon="6.65206">
        <ele>1656.7</ele>
        <time>2024-05-26T09:47:09Z</time>
      </trkpt>
      <trkpt lat="43.74479" lon="6.65206">
        <ele>1656.7</ele>
        <time>2024-05-26T09:47:10Z</time>
      </trkpt>
      <trkpt lat="43.7448" lon="6.65206">
        <ele>1656.7</ele>
        <time>2024-05-26T09:47:11Z</time>
      </trkpt>
      <trkpt lat="43.7448" lon="6.65207">
        <ele>1656.7</ele>
        <time>2024-05-26T09:47:12Z</time>
      </trkpt>
      <trkpt lat="43.7448" lon="6.65207">
        <ele>1656.7</ele>
        <time>2024-05-26T09:47:13Z</time>
      </trkpt>
      <trkpt lat="43.7448" lon="6.65207">
        <ele>1656.6</ele>
        <time>2024-05-26T09:47:14Z</time>
      </trkpt>
      <trkpt lat="43.7448" lon="6.65207">
        <ele>1656.6</ele>
        <time>2024-05-26T09:47:15Z</time>
      </trkpt>
      <trkpt lat="43.7448" lon="6.65207">
        <ele>1656.5</ele>
        <time>2024-05-26T09:47:16Z</time>
      </trkpt>
      <trkpt lat="43.7448" lon="6.65208">
        <ele>1656.5</ele>
        <time>2024-05-26T09:47:17Z</time>
      </trkpt>
      <trkpt lat="43.7448" lon="6.65208">
        <ele>1656.5</ele>
        <time>2024-05-26T09:47:18Z</time>
      </trkpt>
      <trkpt lat="43.7448" lon="6.65208">
        <ele>1656.5</ele>
        <time>2024-05-26T09:47:19Z</time>
      </trkpt>
      <trkpt lat="43.7448" lon="6.65208">
        <ele>1656.6</ele>
        <time>2024-05-26T09:47:20Z</time>
      </trkpt>
      <trkpt lat="43.7448" lon="6.65208">
        <ele>1656.6</ele>
        <time>2024-05-26T09:47:21Z</time>
      </trkpt>
      <trkpt lat="43.7448" lon="6.65208">
        <ele>1656.6</ele>
        <time>2024-05-26T09:47:22Z</time>
      </trkpt>
      <trkpt lat="43.74476" lon="6.65228">
        <ele>1662.4</ele>
        <time>2024-05-26T09:48:36Z</time>
      </trkpt>
      <trkpt lat="43.74476" lon="6.65227">
        <ele>1662.3</ele>
        <time>2024-05-26T09:48:40Z</time>
      </trkpt>
      <trkpt lat="43.74476" lon="6.65227">
        <ele>1662.2</ele>
        <time>2024-05-26T09:48:41Z</time>
      </trkpt>
      <trkpt lat="43.74476" lon="6.65227">
        <ele>1662.8</ele>
        <time>2024-05-26T09:48:42Z</time>
      </trkpt>
      <trkpt lat="43.74476" lon="6.65227">
        <ele>1663.3</ele>
        <time>2024-05-26T09:48:43Z</time>
      </trkpt>
      <trkpt lat="43.74477" lon="6.65227">
        <ele>1663.6</ele>
        <time>2024-05-26T09:48:44Z</time>
      </trkpt>
      <trkpt lat="43.74477" lon="6.65227">
        <ele>1663.9</ele>
        <time>2024-05-26T09:48:45Z</time>
      </trkpt>
      <trkpt lat="43.74477" lon="6.65227">
        <ele>1664.2</ele>
        <time>2024-05-26T09:48:46Z</time>
      </trkpt>
      <trkpt lat="43.74477" lon="6.65227">
        <ele>1664.4</ele>
        <time>2024-05-26T09:48:47Z</time>
      </trkpt>
      <trkpt lat="43.74477" lon="6.65227">
        <ele>1664.6</ele>
        <time>2024-05-26T09:48:48Z</time>
      </trkpt>
      <trkpt lat="43.74477" lon="6.65227">
        <ele>1664.7</ele>
        <time>2024-05-26T09:48:49Z</time>
      </trkpt>
      <trkpt lat="43.74477" lon="6.65227">
        <ele>1664.8</ele>
        <time>2024-05-26T09:48:50Z</time>
      </trkpt>
      <trkpt lat="43.74477" lon="6.65227">
        <ele>1664.9</ele>
        <time>2024-05-26T09:48:51Z</time>
      </trkpt>
      <trkpt lat="43.74477" lon="6.65227">
        <ele>1665</ele>
        <time>2024-05-26T09:48:52Z</time>
      </trkpt>
      <trkpt lat="43.74477" lon="6.65228">
        <ele>1665</ele>
        <time>2024-05-26T09:48:53Z</time>
      </trkpt>
      <trkpt lat="43.74477" lon="6.65228">
        <ele>1665.1</ele>
        <time>2024-05-26T09:48:54Z</time>
      </trkpt>
      <trkpt lat="43.74477" lon="6.65228">
        <ele>1665.1</ele>
        <time>2024-05-26T09:48:55Z</time>
      </trkpt>
      <trkpt lat="43.74476" lon="6.65228">
        <ele>1665.1</ele>
        <time>2024-05-26T09:48:56Z</time>
      </trkpt>
      <trkpt lat="43.74476" lon="6.65228">
        <ele>1665.2</ele>
        <time>2024-05-26T09:48:57Z</time>
      </trkpt>
      <trkpt lat="43.74476" lon="6.65228">
        <ele>1665.2</ele>
        <time>2024-05-26T09:48:58Z</time>
      </trkpt>
      <trkpt lat="43.74476" lon="6.65228">
        <ele>1665.2</ele>
        <time>2024-05-26T09:48:59Z</time>
      </trkpt>
      <trkpt lat="43.74476" lon="6.65228">
        <ele>1665.2</ele>
        <time>2024-05-26T09:49:00Z</time>
      </trkpt>
      <trkpt lat="43.74476" lon="6.65228">
        <ele>1665.2</ele>
        <time>2024-05-26T09:49:01Z</time>
      </trkpt>
      <trkpt lat="43.74476" lon="6.65228">
        <ele>1665.2</ele>
        <time>2024-05-26T09:49:02Z</time>
      </trkpt>
      <trkpt lat="43.74476" lon="6.65228">
        <ele>1665.2</ele>
        <time>2024-05-26T09:49:03Z</time>
      </trkpt>
      <trkpt lat="43.74476" lon="6.65228">
        <ele>1665.2</ele>
        <time>2024-05-26T09:49:04Z</time>
      </trkpt>
      <trkpt lat="43.74475" lon="6.65228">
        <ele>1665.2</ele>
        <time>2024-05-26T09:49:05Z</time>
      </trkpt>
      <trkpt lat="43.74475" lon="6.65228">
        <ele>1665.2</ele>
        <time>2024-05-26T09:49:06Z</time>
      </trkpt>
      <trkpt lat="43.74475" lon="6.65228">
        <ele>1665.2</ele>
        <time>2024-05-26T09:49:07Z</time>
      </trkpt>
      <trkpt lat="43.74475" lon="6.65228">
        <ele>1665.3</ele>
        <time>2024-05-26T09:49:08Z</time>
      </trkpt>
      <trkpt lat="43.74475" lon="6.65228">
        <ele>1665.3</ele>
        <time>2024-05-26T09:49:09Z</time>
      </trkpt>
      <trkpt lat="43.74475" lon="6.65228">
        <ele>1665.4</ele>
        <time>2024-05-26T09:49:10Z</time>
      </trkpt>
      <trkpt lat="43.74476" lon="6.65228">
        <ele>1665.4</ele>
        <time>2024-05-26T09:49:11Z</time>
      </trkpt>
      <trkpt lat="43.74476" lon="6.65228">
        <ele>1665.3</ele>
        <time>2024-05-26T09:49:12Z</time>
      </trkpt>
      <trkpt lat="43.74475" lon="6.65227">
        <ele>1665.4</ele>
        <time>2024-05-26T09:49:13Z</time>
      </trkpt>
      <trkpt lat="43.74475" lon="6.65227">
        <ele>1665.5</ele>
        <time>2024-05-26T09:49:14Z</time>
      </trkpt>
      <trkpt lat="43.74475" lon="6.65227">
        <ele>1665.5</ele>
        <time>2024-05-26T09:49:15Z</time>
      </trkpt>
      <trkpt lat="43.74475" lon="6.65227">
        <ele>1665.6</ele>
        <time>2024-05-26T09:49:16Z</time>
      </trkpt>
      <trkpt lat="43.74475" lon="6.65227">
        <ele>1665.6</ele>
        <time>2024-05-26T09:49:17Z</time>
      </trkpt>
      <trkpt lat="43.74475" lon="6.65227">
        <ele>1665.7</ele>
        <time>2024-05-26T09:49:18Z</time>
      </trkpt>
      <trkpt lat="43.74475" lon="6.65227">
        <ele>1665.6</ele>
        <time>2024-05-26T09:49:19Z</time>
      </trkpt>
      <trkpt lat="43.74475" lon="6.65227">
        <ele>1665.6</ele>
        <time>2024-05-26T09:49:20Z</time>
      </trkpt>
      <trkpt lat="43.74475" lon="6.65227">
        <ele>1665.5</ele>
        <time>2024-05-26T09:49:21Z</time>
      </trkpt>
      <trkpt lat="43.74475" lon="6.65228">
        <ele>1665.5</ele>
        <time>2024-05-26T09:49:22Z</time>
      </trkpt>
      <trkpt lat="43.74475" lon="6.65228">
        <ele>1665.5</ele>
        <time>2024-05-26T09:49:23Z</time>
      </trkpt>
      <trkpt lat="43.74475" lon="6.65228">
        <ele>1665.5</ele>
        <time>2024-05-26T09:49:24Z</time>
      </trkpt>
      <trkpt lat="43.74475" lon="6.65228">
        <ele>1665.5</ele>
        <time>2024-05-26T09:49:25Z</time>
      </trkpt>
      <trkpt lat="43.74475" lon="6.65228">
        <ele>1665.5</ele>
        <time>2024-05-26T09:49:26Z</time>
      </trkpt>
      <trkpt lat="43.74475" lon="6.65228">
        <ele>1665.5</ele>
        <time>2024-05-26T09:49:27Z</time>
      </trkpt>
      <trkpt lat="43.74475" lon="6.65228">
        <ele>1665.5</ele>
        <time>2024-05-26T09:49:28Z</time>
      </trkpt>
      <trkpt lat="43.74475" lon="6.65228">
        <ele>1665.5</ele>
        <time>2024-05-26T09:49:29Z</time>
      </trkpt>
      <trkpt lat="43.74475" lon="6.65227">
        <ele>1665.4</ele>
        <time>2024-05-26T09:49:30Z</time>
      </trkpt>
      <trkpt lat="43.74475" lon="6.65227">
        <ele>1665.4</ele>
        <time>2024-05-26T09:49:31Z</time>
      </trkpt>
      <trkpt lat="43.74476" lon="6.65227">
        <ele>1665.3</ele>
        <time>2024-05-26T09:49:32Z</time>
      </trkpt>
      <trkpt lat="43.74476" lon="6.65227">
        <ele>1665.2</ele>
        <time>2024-05-26T09:49:33Z</time>
      </trkpt>
      <trkpt lat="43.74476" lon="6.65227">
        <ele>1665.2</ele>
        <time>2024-05-26T09:49:34Z</time>
      </trkpt>
      <trkpt lat="43.74476" lon="6.65227">
        <ele>1665.2</ele>
        <time>2024-05-26T09:49:35Z</time>
      </trkpt>
      <trkpt lat="43.74475" lon="6.65228">
        <ele>1665.2</ele>
        <time>2024-05-26T09:49:36Z</time>
      </trkpt>
      <trkpt lat="43.74475" lon="6.65229">
        <ele>1665.2</ele>
        <time>2024-05-26T09:49:37Z</time>
      </trkpt>
      <trkpt lat="43.74474" lon="6.65231">
        <ele>1665.2</ele>
        <time>2024-05-26T09:49:38Z</time>
      </trkpt>
      <trkpt lat="43.74474" lon="6.65232">
        <ele>1665.3</ele>
        <time>2024-05-26T09:49:39Z</time>
      </trkpt>
      <trkpt lat="43.74475" lon="6.65233">
        <ele>1665.4</ele>
        <time>2024-05-26T09:49:40Z</time>
      </trkpt>
      <trkpt lat="43.74475" lon="6.65234">
        <ele>1665.5</ele>
        <time>2024-05-26T09:49:41Z</time>
      </trkpt>
      <trkpt lat="43.74475" lon="6.65235">
        <ele>1665.6</ele>
        <time>2024-05-26T09:49:42Z</time>
      </trkpt>
      <trkpt lat="43.74475" lon="6.65235">
        <ele>1665.7</ele>
        <time>2024-05-26T09:49:43Z</time>
      </trkpt>
      <trkpt lat="43.74475" lon="6.65236">
        <ele>1665.8</ele>
        <time>2024-05-26T09:49:44Z</time>
      </trkpt>
      <trkpt lat="43.74474" lon="6.65237">
        <ele>1666</ele>
        <time>2024-05-26T09:49:45Z</time>
      </trkpt>
      <trkpt lat="43.74474" lon="6.65238">
        <ele>1666</ele>
        <time>2024-05-26T09:49:46Z</time>
      </trkpt>
      <trkpt lat="43.74474" lon="6.65238">
        <ele>1666.1</ele>
        <time>2024-05-26T09:49:47Z</time>
      </trkpt>
      <trkpt lat="43.74474" lon="6.65239">
        <ele>1666.2</ele>
        <time>2024-05-26T09:49:48Z</time>
      </trkpt>
      <trkpt lat="43.74473" lon="6.6524">
        <ele>1666.4</ele>
        <time>2024-05-26T09:49:49Z</time>
      </trkpt>
      <trkpt lat="43.74473" lon="6.6524">
        <ele>1666.5</ele>
        <time>2024-05-26T09:49:50Z</time>
      </trkpt>
      <trkpt lat="43.74472" lon="6.65241">
        <ele>1666.6</ele>
        <time>2024-05-26T09:49:51Z</time>
      </trkpt>
      <trkpt lat="43.74472" lon="6.65242">
        <ele>1666.8</ele>
        <time>2024-05-26T09:49:52Z</time>
      </trkpt>
      <trkpt lat="43.74471" lon="6.65243">
        <ele>1667</ele>
        <time>2024-05-26T09:49:53Z</time>
      </trkpt>
      <trkpt lat="43.74472" lon="6.65244">
        <ele>1667.2</ele>
        <time>2024-05-26T09:49:54Z</time>
      </trkpt>
      <trkpt lat="43.74472" lon="6.65246">
        <ele>1667.3</ele>
        <time>2024-05-26T09:49:55Z</time>
      </trkpt>
      <trkpt lat="43.74472" lon="6.65247">
        <ele>1667.5</ele>
        <time>2024-05-26T09:49:56Z</time>
      </trkpt>
      <trkpt lat="43.74473" lon="6.65248">
        <ele>1667.8</ele>
        <time>2024-05-26T09:49:57Z</time>
      </trkpt>
      <trkpt lat="43.74473" lon="6.65249">
        <ele>1668.2</ele>
        <time>2024-05-26T09:49:58Z</time>
      </trkpt>
      <trkpt lat="43.74473" lon="6.65249">
        <ele>1668.5</ele>
        <time>2024-05-26T09:49:59Z</time>
      </trkpt>
      <trkpt lat="43.74473" lon="6.6525">
        <ele>1668.7</ele>
        <time>2024-05-26T09:50:00Z</time>
      </trkpt>
      <trkpt lat="43.74473" lon="6.65251">
        <ele>1669.4</ele>
        <time>2024-05-26T09:50:01Z</time>
      </trkpt>
      <trkpt lat="43.74473" lon="6.65252">
        <ele>1669.7</ele>
        <time>2024-05-26T09:50:02Z</time>
      </trkpt>
      <trkpt lat="43.74474" lon="6.65253">
        <ele>1670.1</ele>
        <time>2024-05-26T09:50:03Z</time>
      </trkpt>
      <trkpt lat="43.74474" lon="6.65254">
        <ele>1670.4</ele>
        <time>2024-05-26T09:50:04Z</time>
      </trkpt>
      <trkpt lat="43.74474" lon="6.65255">
        <ele>1670.6</ele>
        <time>2024-05-26T09:50:05Z</time>
      </trkpt>
      <trkpt lat="43.74474" lon="6.65255">
        <ele>1670.8</ele>
        <time>2024-05-26T09:50:06Z</time>
      </trkpt>
      <trkpt lat="43.74474" lon="6.65256">
        <ele>1671</ele>
        <time>2024-05-26T09:50:07Z</time>
      </trkpt>
      <trkpt lat="43.74474" lon="6.65257">
        <ele>1671.2</ele>
        <time>2024-05-26T09:50:08Z</time>
      </trkpt>
      <trkpt lat="43.74473" lon="6.65258">
        <ele>1671.3</ele>
        <time>2024-05-26T09:50:09Z</time>
      </trkpt>
      <trkpt lat="43.74473" lon="6.65259">
        <ele>1672</ele>
        <time>2024-05-26T09:50:10Z</time>
      </trkpt>
      <trkpt lat="43.74473" lon="6.6526">
        <ele>1672.3</ele>
        <time>2024-05-26T09:50:11Z</time>
      </trkpt>
      <trkpt lat="43.74472" lon="6.6526">
        <ele>1672.5</ele>
        <time>2024-05-26T09:50:12Z</time>
      </trkpt>
      <trkpt lat="43.74472" lon="6.65261">
        <ele>1672.7</ele>
        <time>2024-05-26T09:50:13Z</time>
      </trkpt>
      <trkpt lat="43.74472" lon="6.65262">
        <ele>1672.8</ele>
        <time>2024-05-26T09:50:14Z</time>
      </trkpt>
      <trkpt lat="43.74472" lon="6.65264">
        <ele>1673</ele>
        <time>2024-05-26T09:50:15Z</time>
      </trkpt>
      <trkpt lat="43.74472" lon="6.65264">
        <ele>1673.2</ele>
        <time>2024-05-26T09:50:16Z</time>
      </trkpt>
      <trkpt lat="43.74471" lon="6.65265">
        <ele>1673.4</ele>
        <time>2024-05-26T09:50:17Z</time>
      </trkpt>
      <trkpt lat="43.74471" lon="6.65267">
        <ele>1673.5</ele>
        <time>2024-05-26T09:50:18Z</time>
      </trkpt>
      <trkpt lat="43.74471" lon="6.65268">
        <ele>1673.6</ele>
        <time>2024-05-26T09:50:19Z</time>
      </trkpt>
      <trkpt lat="43.74471" lon="6.65269">
        <ele>1673.6</ele>
        <time>2024-05-26T09:50:20Z</time>
      </trkpt>
      <trkpt lat="43.7447" lon="6.6527">
        <ele>1673.8</ele>
        <time>2024-05-26T09:50:21Z</time>
      </trkpt>
      <trkpt lat="43.74471" lon="6.65272">
        <ele>1673.9</ele>
        <time>2024-05-26T09:50:22Z</time>
      </trkpt>
      <trkpt lat="43.74471" lon="6.65273">
        <ele>1674.2</ele>
        <time>2024-05-26T09:50:23Z</time>
      </trkpt>
      <trkpt lat="43.74472" lon="6.65274">
        <ele>1674.5</ele>
        <time>2024-05-26T09:50:24Z</time>
      </trkpt>
      <trkpt lat="43.74472" lon="6.65274">
        <ele>1674.8</ele>
        <time>2024-05-26T09:50:25Z</time>
      </trkpt>
      <trkpt lat="43.74473" lon="6.65275">
        <ele>1675</ele>
        <time>2024-05-26T09:50:26Z</time>
      </trkpt>
      <trkpt lat="43.74473" lon="6.65276">
        <ele>1675.1</ele>
        <time>2024-05-26T09:50:27Z</time>
      </trkpt>
      <trkpt lat="43.74473" lon="6.65277">
        <ele>1675.3</ele>
        <time>2024-05-26T09:50:28Z</time>
      </trkpt>
      <trkpt lat="43.74474" lon="6.65278">
        <ele>1675.5</ele>
        <time>2024-05-26T09:50:29Z</time>
      </trkpt>
      <trkpt lat="43.74474" lon="6.65279">
        <ele>1675.8</ele>
        <time>2024-05-26T09:50:30Z</time>
      </trkpt>
      <trkpt lat="43.74474" lon="6.6528">
        <ele>1676</ele>
        <time>2024-05-26T09:50:31Z</time>
      </trkpt>
      <trkpt lat="43.74474" lon="6.65281">
        <ele>1676.2</ele>
        <time>2024-05-26T09:50:32Z</time>
      </trkpt>
      <trkpt lat="43.74474" lon="6.65282">
        <ele>1676.3</ele>
        <time>2024-05-26T09:50:33Z</time>
      </trkpt>
      <trkpt lat="43.74474" lon="6.65283">
        <ele>1676.5</ele>
        <time>2024-05-26T09:50:34Z</time>
      </trkpt>
      <trkpt lat="43.74473" lon="6.65284">
        <ele>1676.7</ele>
        <time>2024-05-26T09:50:35Z</time>
      </trkpt>
      <trkpt lat="43.74473" lon="6.65285">
        <ele>1676.9</ele>
        <time>2024-05-26T09:50:36Z</time>
      </trkpt>
      <trkpt lat="43.74473" lon="6.65286">
        <ele>1677</ele>
        <time>2024-05-26T09:50:37Z</time>
      </trkpt>
      <trkpt lat="43.74473" lon="6.65287">
        <ele>1677.1</ele>
        <time>2024-05-26T09:50:38Z</time>
      </trkpt>
      <trkpt lat="43.74473" lon="6.65288">
        <ele>1677.4</ele>
        <time>2024-05-26T09:50:39Z</time>
      </trkpt>
      <trkpt lat="43.74473" lon="6.6529">
        <ele>1677.8</ele>
        <time>2024-05-26T09:50:40Z</time>
      </trkpt>
      <trkpt lat="43.74473" lon="6.65291">
        <ele>1678</ele>
        <time>2024-05-26T09:50:41Z</time>
      </trkpt>
      <trkpt lat="43.74473" lon="6.65292">
        <ele>1678.3</ele>
        <time>2024-05-26T09:50:42Z</time>
      </trkpt>
      <trkpt lat="43.74473" lon="6.65293">
        <ele>1678.7</ele>
        <time>2024-05-26T09:50:43Z</time>
      </trkpt>
      <trkpt lat="43.74473" lon="6.65294">
        <ele>1679.1</ele>
        <time>2024-05-26T09:50:44Z</time>
      </trkpt>
      <trkpt lat="43.74472" lon="6.65295">
        <ele>1679.3</ele>
        <time>2024-05-26T09:50:45Z</time>
      </trkpt>
      <trkpt lat="43.74472" lon="6.65297">
        <ele>1679.6</ele>
        <time>2024-05-26T09:50:46Z</time>
      </trkpt>
      <trkpt lat="43.74472" lon="6.65298">
        <ele>1679.9</ele>
        <time>2024-05-26T09:50:47Z</time>
      </trkpt>
      <trkpt lat="43.74473" lon="6.65299">
        <ele>1680.2</ele>
        <time>2024-05-26T09:50:48Z</time>
      </trkpt>
      <trkpt lat="43.74473" lon="6.653">
        <ele>1680.6</ele>
        <time>2024-05-26T09:50:49Z</time>
      </trkpt>
      <trkpt lat="43.74473" lon="6.65301">
        <ele>1680.8</ele>
        <time>2024-05-26T09:50:50Z</time>
      </trkpt>
      <trkpt lat="43.74473" lon="6.65302">
        <ele>1681.1</ele>
        <time>2024-05-26T09:50:51Z</time>
      </trkpt>
      <trkpt lat="43.74473" lon="6.65303">
        <ele>1681.4</ele>
        <time>2024-05-26T09:50:52Z</time>
      </trkpt>
      <trkpt lat="43.74474" lon="6.65304">
        <ele>1681.6</ele>
        <time>2024-05-26T09:50:53Z</time>
      </trkpt>
      <trkpt lat="43.74474" lon="6.65305">
        <ele>1681.8</ele>
        <time>2024-05-26T09:50:54Z</time>
      </trkpt>
      <trkpt lat="43.74474" lon="6.65306">
        <ele>1682.1</ele>
        <time>2024-05-26T09:50:55Z</time>
      </trkpt>
      <trkpt lat="43.74474" lon="6.65307">
        <ele>1682.3</ele>
        <time>2024-05-26T09:50:56Z</time>
      </trkpt>
      <trkpt lat="43.74474" lon="6.65308">
        <ele>1682.6</ele>
        <time>2024-05-26T09:50:57Z</time>
      </trkpt>
      <trkpt lat="43.74474" lon="6.65309">
        <ele>1682.8</ele>
        <time>2024-05-26T09:50:58Z</time>
      </trkpt>
      <trkpt lat="43.74474" lon="6.6531">
        <ele>1682.9</ele>
        <time>2024-05-26T09:50:59Z</time>
      </trkpt>
      <trkpt lat="43.74475" lon="6.65312">
        <ele>1683.2</ele>
        <time>2024-05-26T09:51:00Z</time>
      </trkpt>
      <trkpt lat="43.74475" lon="6.65313">
        <ele>1683.6</ele>
        <time>2024-05-26T09:51:01Z</time>
      </trkpt>
      <trkpt lat="43.74475" lon="6.65314">
        <ele>1683.8</ele>
        <time>2024-05-26T09:51:02Z</time>
      </trkpt>
      <trkpt lat="43.74476" lon="6.65315">
        <ele>1684</ele>
        <time>2024-05-26T09:51:03Z</time>
      </trkpt>
      <trkpt lat="43.74476" lon="6.65316">
        <ele>1684.2</ele>
        <time>2024-05-26T09:51:04Z</time>
      </trkpt>
      <trkpt lat="43.74476" lon="6.65317">
        <ele>1684.3</ele>
        <time>2024-05-26T09:51:05Z</time>
      </trkpt>
      <trkpt lat="43.74476" lon="6.65318">
        <ele>1684.4</ele>
        <time>2024-05-26T09:51:06Z</time>
      </trkpt>
      <trkpt lat="43.74477" lon="6.65319">
        <ele>1684.5</ele>
        <time>2024-05-26T09:51:07Z</time>
      </trkpt>
      <trkpt lat="43.74477" lon="6.6532">
        <ele>1684.6</ele>
        <time>2024-05-26T09:51:08Z</time>
      </trkpt>
      <trkpt lat="43.74477" lon="6.65321">
        <ele>1684.7</ele>
        <time>2024-05-26T09:51:09Z</time>
      </trkpt>
      <trkpt lat="43.74477" lon="6.65322">
        <ele>1684.7</ele>
        <time>2024-05-26T09:51:10Z</time>
      </trkpt>
      <trkpt lat="43.74477" lon="6.65322">
        <ele>1684.8</ele>
        <time>2024-05-26T09:51:11Z</time>
      </trkpt>
      <trkpt lat="43.74478" lon="6.65323">
        <ele>1685</ele>
        <time>2024-05-26T09:51:12Z</time>
      </trkpt>
      <trkpt lat="43.74478" lon="6.65322">
        <ele>1685.1</ele>
        <time>2024-05-26T09:51:13Z</time>
      </trkpt>
      <trkpt lat="43.74478" lon="6.65322">
        <ele>1685.2</ele>
        <time>2024-05-26T09:51:14Z</time>
      </trkpt>
      <trkpt lat="43.74478" lon="6.65322">
        <ele>1685.2</ele>
        <time>2024-05-26T09:51:15Z</time>
      </trkpt>
      <trkpt lat="43.74478" lon="6.65322">
        <ele>1685.3</ele>
        <time>2024-05-26T09:51:16Z</time>
      </trkpt>
      <trkpt lat="43.74478" lon="6.65323">
        <ele>1685.3</ele>
        <time>2024-05-26T09:51:17Z</time>
      </trkpt>
      <trkpt lat="43.74478" lon="6.65323">
        <ele>1685.3</ele>
        <time>2024-05-26T09:51:18Z</time>
      </trkpt>
      <trkpt lat="43.74479" lon="6.65324">
        <ele>1685.4</ele>
        <time>2024-05-26T09:51:19Z</time>
      </trkpt>
      <trkpt lat="43.74479" lon="6.65325">
        <ele>1685.3</ele>
        <time>2024-05-26T09:51:20Z</time>
      </trkpt>
      <trkpt lat="43.74479" lon="6.65326">
        <ele>1685.4</ele>
        <time>2024-05-26T09:51:21Z</time>
      </trkpt>
      <trkpt lat="43.7448" lon="6.65327">
        <ele>1685.6</ele>
        <time>2024-05-26T09:51:22Z</time>
      </trkpt>
      <trkpt lat="43.7448" lon="6.65328">
        <ele>1685.7</ele>
        <time>2024-05-26T09:51:23Z</time>
      </trkpt>
      <trkpt lat="43.74481" lon="6.65329">
        <ele>1685.8</ele>
        <time>2024-05-26T09:51:24Z</time>
      </trkpt>
      <trkpt lat="43.74481" lon="6.6533">
        <ele>1685.8</ele>
        <time>2024-05-26T09:51:25Z</time>
      </trkpt>
      <trkpt lat="43.74482" lon="6.6533">
        <ele>1685.9</ele>
        <time>2024-05-26T09:51:26Z</time>
      </trkpt>
      <trkpt lat="43.74482" lon="6.65331">
        <ele>1686</ele>
        <time>2024-05-26T09:51:27Z</time>
      </trkpt>
      <trkpt lat="43.74483" lon="6.65332">
        <ele>1686.1</ele>
        <time>2024-05-26T09:51:28Z</time>
      </trkpt>
      <trkpt lat="43.74483" lon="6.65332">
        <ele>1686.2</ele>
        <time>2024-05-26T09:51:29Z</time>
      </trkpt>
      <trkpt lat="43.74484" lon="6.65333">
        <ele>1686.2</ele>
        <time>2024-05-26T09:51:30Z</time>
      </trkpt>
      <trkpt lat="43.74484" lon="6.65333">
        <ele>1686.3</ele>
        <time>2024-05-26T09:51:31Z</time>
      </trkpt>
      <trkpt lat="43.74484" lon="6.65333">
        <ele>1686.3</ele>
        <time>2024-05-26T09:51:32Z</time>
      </trkpt>
      <trkpt lat="43.74484" lon="6.65334">
        <ele>1686.3</ele>
        <time>2024-05-26T09:51:33Z</time>
      </trkpt>
      <trkpt lat="43.74484" lon="6.65334">
        <ele>1686.3</ele>
        <time>2024-05-26T09:51:34Z</time>
      </trkpt>
      <trkpt lat="43.74484" lon="6.65334">
        <ele>1686.3</ele>
        <time>2024-05-26T09:51:35Z</time>
      </trkpt>
      <trkpt lat="43.74484" lon="6.65334">
        <ele>1686.3</ele>
        <time>2024-05-26T09:51:36Z</time>
      </trkpt>
      <trkpt lat="43.74484" lon="6.65335">
        <ele>1686.3</ele>
        <time>2024-05-26T09:51:37Z</time>
      </trkpt>
      <trkpt lat="43.74483" lon="6.65335">
        <ele>1686.3</ele>
        <time>2024-05-26T09:51:38Z</time>
      </trkpt>
      <trkpt lat="43.74483" lon="6.65335">
        <ele>1686.2</ele>
        <time>2024-05-26T09:51:39Z</time>
      </trkpt>
      <trkpt lat="43.74483" lon="6.65335">
        <ele>1686.3</ele>
        <time>2024-05-26T09:51:40Z</time>
      </trkpt>
      <trkpt lat="43.74483" lon="6.65335">
        <ele>1686.4</ele>
        <time>2024-05-26T09:51:41Z</time>
      </trkpt>
      <trkpt lat="43.74483" lon="6.65335">
        <ele>1686.3</ele>
        <time>2024-05-26T09:51:42Z</time>
      </trkpt>
      <trkpt lat="43.74483" lon="6.65335">
        <ele>1686.4</ele>
        <time>2024-05-26T09:51:43Z</time>
      </trkpt>
      <trkpt lat="43.74484" lon="6.65335">
        <ele>1686.4</ele>
        <time>2024-05-26T09:51:44Z</time>
      </trkpt>
      <trkpt lat="43.74484" lon="6.65335">
        <ele>1686.3</ele>
        <time>2024-05-26T09:51:45Z</time>
      </trkpt>
      <trkpt lat="43.74485" lon="6.65335">
        <ele>1686.3</ele>
        <time>2024-05-26T09:51:46Z</time>
      </trkpt>
      <trkpt lat="43.74486" lon="6.65335">
        <ele>1686.3</ele>
        <time>2024-05-26T09:51:47Z</time>
      </trkpt>
      <trkpt lat="43.74486" lon="6.65335">
        <ele>1686.3</ele>
        <time>2024-05-26T09:51:48Z</time>
      </trkpt>
      <trkpt lat="43.74487" lon="6.65335">
        <ele>1686.2</ele>
        <time>2024-05-26T09:51:49Z</time>
      </trkpt>
      <trkpt lat="43.74489" lon="6.65335">
        <ele>1686.1</ele>
        <time>2024-05-26T09:51:50Z</time>
      </trkpt>
      <trkpt lat="43.7449" lon="6.65334">
        <ele>1686</ele>
        <time>2024-05-26T09:51:51Z</time>
      </trkpt>
      <trkpt lat="43.74491" lon="6.65334">
        <ele>1685.9</ele>
        <time>2024-05-26T09:51:52Z</time>
      </trkpt>
      <trkpt lat="43.74492" lon="6.65333">
        <ele>1686</ele>
        <time>2024-05-26T09:51:53Z</time>
      </trkpt>
      <trkpt lat="43.74492" lon="6.65332">
        <ele>1686.1</ele>
        <time>2024-05-26T09:51:54Z</time>
      </trkpt>
      <trkpt lat="43.74493" lon="6.65332">
        <ele>1686.2</ele>
        <time>2024-05-26T09:51:55Z</time>
      </trkpt>
      <trkpt lat="43.74494" lon="6.65331">
        <ele>1686.4</ele>
        <time>2024-05-26T09:51:56Z</time>
      </trkpt>
      <trkpt lat="43.74495" lon="6.65331">
        <ele>1686.5</ele>
        <time>2024-05-26T09:51:57Z</time>
      </trkpt>
      <trkpt lat="43.74496" lon="6.65331">
        <ele>1686.6</ele>
        <time>2024-05-26T09:51:58Z</time>
      </trkpt>
      <trkpt lat="43.74497" lon="6.65331">
        <ele>1686.7</ele>
        <time>2024-05-26T09:51:59Z</time>
      </trkpt>
      <trkpt lat="43.74498" lon="6.6533">
        <ele>1686.8</ele>
        <time>2024-05-26T09:52:00Z</time>
      </trkpt>
      <trkpt lat="43.74499" lon="6.65329">
        <ele>1686.9</ele>
        <time>2024-05-26T09:52:01Z</time>
      </trkpt>
      <trkpt lat="43.745" lon="6.65328">
        <ele>1687.1</ele>
        <time>2024-05-26T09:52:02Z</time>
      </trkpt>
      <trkpt lat="43.74501" lon="6.65327">
        <ele>1687.2</ele>
        <time>2024-05-26T09:52:03Z</time>
      </trkpt>
      <trkpt lat="43.74502" lon="6.65327">
        <ele>1687.4</ele>
        <time>2024-05-26T09:52:04Z</time>
      </trkpt>
      <trkpt lat="43.74503" lon="6.65326">
        <ele>1687.5</ele>
        <time>2024-05-26T09:52:05Z</time>
      </trkpt>
      <trkpt lat="43.74504" lon="6.65326">
        <ele>1687.5</ele>
        <time>2024-05-26T09:52:06Z</time>
      </trkpt>
      <trkpt lat="43.74505" lon="6.65326">
        <ele>1687.5</ele>
        <time>2024-05-26T09:52:07Z</time>
      </trkpt>
      <trkpt lat="43.74506" lon="6.65326">
        <ele>1687.5</ele>
        <time>2024-05-26T09:52:08Z</time>
      </trkpt>
      <trkpt lat="43.74506" lon="6.65327">
        <ele>1687.6</ele>
        <time>2024-05-26T09:52:09Z</time>
      </trkpt>
      <trkpt lat="43.74507" lon="6.65327">
        <ele>1687.6</ele>
        <time>2024-05-26T09:52:10Z</time>
      </trkpt>
      <trkpt lat="43.74508" lon="6.65327">
        <ele>1687.6</ele>
        <time>2024-05-26T09:52:11Z</time>
      </trkpt>
      <trkpt lat="43.74509" lon="6.65327">
        <ele>1687.6</ele>
        <time>2024-05-26T09:52:12Z</time>
      </trkpt>
      <trkpt lat="43.74509" lon="6.65327">
        <ele>1687.7</ele>
        <time>2024-05-26T09:52:13Z</time>
      </trkpt>
      <trkpt lat="43.7451" lon="6.65327">
        <ele>1687.6</ele>
        <time>2024-05-26T09:52:14Z</time>
      </trkpt>
      <trkpt lat="43.7451" lon="6.65327">
        <ele>1687.7</ele>
        <time>2024-05-26T09:52:15Z</time>
      </trkpt>
      <trkpt lat="43.7451" lon="6.65327">
        <ele>1687.7</ele>
        <time>2024-05-26T09:52:16Z</time>
      </trkpt>
      <trkpt lat="43.7451" lon="6.65327">
        <ele>1687.8</ele>
        <time>2024-05-26T09:52:17Z</time>
      </trkpt>
      <trkpt lat="43.7451" lon="6.65327">
        <ele>1687.7</ele>
        <time>2024-05-26T09:52:18Z</time>
      </trkpt>
      <trkpt lat="43.74511" lon="6.65327">
        <ele>1687.6</ele>
        <time>2024-05-26T09:52:19Z</time>
      </trkpt>
      <trkpt lat="43.74511" lon="6.65327">
        <ele>1687.7</ele>
        <time>2024-05-26T09:52:20Z</time>
      </trkpt>
      <trkpt lat="43.74511" lon="6.65327">
        <ele>1687.6</ele>
        <time>2024-05-26T09:52:21Z</time>
      </trkpt>
      <trkpt lat="43.74511" lon="6.65327">
        <ele>1687.5</ele>
        <time>2024-05-26T09:52:22Z</time>
      </trkpt>
      <trkpt lat="43.74511" lon="6.65327">
        <ele>1687.6</ele>
        <time>2024-05-26T09:52:23Z</time>
      </trkpt>
      <trkpt lat="43.74511" lon="6.65327">
        <ele>1687.5</ele>
        <time>2024-05-26T09:52:24Z</time>
      </trkpt>
      <trkpt lat="43.74511" lon="6.65327">
        <ele>1687.6</ele>
        <time>2024-05-26T09:52:25Z</time>
      </trkpt>
      <trkpt lat="43.74511" lon="6.65327">
        <ele>1687.6</ele>
        <time>2024-05-26T09:52:26Z</time>
      </trkpt>
      <trkpt lat="43.74511" lon="6.65327">
        <ele>1687.5</ele>
        <time>2024-05-26T09:52:27Z</time>
      </trkpt>
      <trkpt lat="43.74511" lon="6.65327">
        <ele>1687.4</ele>
        <time>2024-05-26T09:52:28Z</time>
      </trkpt>
      <trkpt lat="43.74511" lon="6.65327">
        <ele>1687.5</ele>
        <time>2024-05-26T09:52:29Z</time>
      </trkpt>
      <trkpt lat="43.74511" lon="6.65327">
        <ele>1687.5</ele>
        <time>2024-05-26T09:52:30Z</time>
      </trkpt>
      <trkpt lat="43.74511" lon="6.65327">
        <ele>1687.5</ele>
        <time>2024-05-26T09:52:31Z</time>
      </trkpt>
      <trkpt lat="43.74511" lon="6.65326">
        <ele>1687.5</ele>
        <time>2024-05-26T09:52:32Z</time>
      </trkpt>
      <trkpt lat="43.74512" lon="6.65326">
        <ele>1687.6</ele>
        <time>2024-05-26T09:52:33Z</time>
      </trkpt>
      <trkpt lat="43.74513" lon="6.65326">
        <ele>1687.6</ele>
        <time>2024-05-26T09:52:34Z</time>
      </trkpt>
      <trkpt lat="43.74513" lon="6.65326">
        <ele>1687.6</ele>
        <time>2024-05-26T09:52:35Z</time>
      </trkpt>
      <trkpt lat="43.74513" lon="6.65326">
        <ele>1687.6</ele>
        <time>2024-05-26T09:52:36Z</time>
      </trkpt>
      <trkpt lat="43.74513" lon="6.65326">
        <ele>1687.5</ele>
        <time>2024-05-26T09:52:37Z</time>
      </trkpt>
      <trkpt lat="43.74513" lon="6.65326">
        <ele>1687.4</ele>
        <time>2024-05-26T09:52:38Z</time>
      </trkpt>
      <trkpt lat="43.74513" lon="6.65326">
        <ele>1687.3</ele>
        <time>2024-05-26T09:52:39Z</time>
      </trkpt>
      <trkpt lat="43.74513" lon="6.65326">
        <ele>1687.2</ele>
        <time>2024-05-26T09:52:40Z</time>
      </trkpt>
      <trkpt lat="43.74513" lon="6.65326">
        <ele>1687.2</ele>
        <time>2024-05-26T09:52:41Z</time>
      </trkpt>
      <trkpt lat="43.74513" lon="6.65326">
        <ele>1687.1</ele>
        <time>2024-05-26T09:52:42Z</time>
      </trkpt>
      <trkpt lat="43.74513" lon="6.65326">
        <ele>1687.1</ele>
        <time>2024-05-26T09:52:43Z</time>
      </trkpt>
      <trkpt lat="43.74513" lon="6.65326">
        <ele>1687</ele>
        <time>2024-05-26T09:52:44Z</time>
      </trkpt>
      <trkpt lat="43.74513" lon="6.65326">
        <ele>1687</ele>
        <time>2024-05-26T09:52:45Z</time>
      </trkpt>
      <trkpt lat="43.74513" lon="6.65326">
        <ele>1687</ele>
        <time>2024-05-26T09:52:46Z</time>
      </trkpt>
      <trkpt lat="43.74513" lon="6.65326">
        <ele>1686.9</ele>
        <time>2024-05-26T09:52:47Z</time>
      </trkpt>
      <trkpt lat="43.74513" lon="6.65326">
        <ele>1686.9</ele>
        <time>2024-05-26T09:52:48Z</time>
      </trkpt>
      <trkpt lat="43.74513" lon="6.65326">
        <ele>1686.9</ele>
        <time>2024-05-26T09:52:49Z</time>
      </trkpt>
      <trkpt lat="43.74513" lon="6.65326">
        <ele>1686.9</ele>
        <time>2024-05-26T09:52:50Z</time>
      </trkpt>
      <trkpt lat="43.74513" lon="6.65326">
        <ele>1686.9</ele>
        <time>2024-05-26T09:52:51Z</time>
      </trkpt>
      <trkpt lat="43.74513" lon="6.65326">
        <ele>1686.8</ele>
        <time>2024-05-26T09:52:52Z</time>
      </trkpt>
      <trkpt lat="43.74513" lon="6.65326">
        <ele>1686.8</ele>
        <time>2024-05-26T09:52:53Z</time>
      </trkpt>
      <trkpt lat="43.74513" lon="6.65325">
        <ele>1686.9</ele>
        <time>2024-05-26T09:52:54Z</time>
      </trkpt>
      <trkpt lat="43.74513" lon="6.65325">
        <ele>1686.9</ele>
        <time>2024-05-26T09:52:55Z</time>
      </trkpt>
      <trkpt lat="43.74513" lon="6.65325">
        <ele>1686.9</ele>
        <time>2024-05-26T09:52:56Z</time>
      </trkpt>
      <trkpt lat="43.74513" lon="6.65325">
        <ele>1687</ele>
        <time>2024-05-26T09:52:57Z</time>
      </trkpt>
      <trkpt lat="43.74513" lon="6.65325">
        <ele>1687</ele>
        <time>2024-05-26T09:52:58Z</time>
      </trkpt>
      <trkpt lat="43.74513" lon="6.65325">
        <ele>1687</ele>
        <time>2024-05-26T09:52:59Z</time>
      </trkpt>
      <trkpt lat="43.74513" lon="6.65325">
        <ele>1687</ele>
        <time>2024-05-26T09:53:00Z</time>
      </trkpt>
      <trkpt lat="43.74513" lon="6.65325">
        <ele>1687</ele>
        <time>2024-05-26T09:53:01Z</time>
      </trkpt>
      <trkpt lat="43.74513" lon="6.65325">
        <ele>1687</ele>
        <time>2024-05-26T09:53:02Z</time>
      </trkpt>
      <trkpt lat="43.74513" lon="6.65326">
        <ele>1686.9</ele>
        <time>2024-05-26T09:53:03Z</time>
      </trkpt>
      <trkpt lat="43.74513" lon="6.65326">
        <ele>1686.9</ele>
        <time>2024-05-26T09:53:04Z</time>
      </trkpt>
      <trkpt lat="43.74513" lon="6.65326">
        <ele>1687</ele>
        <time>2024-05-26T09:53:05Z</time>
      </trkpt>
      <trkpt lat="43.74513" lon="6.65326">
        <ele>1687</ele>
        <time>2024-05-26T09:53:06Z</time>
      </trkpt>
      <trkpt lat="43.74513" lon="6.65326">
        <ele>1686.9</ele>
        <time>2024-05-26T09:53:07Z</time>
      </trkpt>
      <trkpt lat="43.74513" lon="6.65326">
        <ele>1686.9</ele>
        <time>2024-05-26T09:53:08Z</time>
      </trkpt>
      <trkpt lat="43.74513" lon="6.65326">
        <ele>1686.9</ele>
        <time>2024-05-26T09:53:09Z</time>
      </trkpt>
      <trkpt lat="43.74513" lon="6.65326">
        <ele>1686.9</ele>
        <time>2024-05-26T09:53:10Z</time>
      </trkpt>
      <trkpt lat="43.74513" lon="6.65326">
        <ele>1686.9</ele>
        <time>2024-05-26T09:53:11Z</time>
      </trkpt>
      <trkpt lat="43.74513" lon="6.65326">
        <ele>1686.9</ele>
        <time>2024-05-26T09:53:12Z</time>
      </trkpt>
      <trkpt lat="43.74513" lon="6.65325">
        <ele>1686.9</ele>
        <time>2024-05-26T09:53:13Z</time>
      </trkpt>
      <trkpt lat="43.74513" lon="6.65325">
        <ele>1686.9</ele>
        <time>2024-05-26T09:53:14Z</time>
      </trkpt>
      <trkpt lat="43.74513" lon="6.65325">
        <ele>1686.8</ele>
        <time>2024-05-26T09:53:15Z</time>
      </trkpt>
      <trkpt lat="43.74513" lon="6.65325">
        <ele>1686.8</ele>
        <time>2024-05-26T09:53:16Z</time>
      </trkpt>
      <trkpt lat="43.74513" lon="6.65325">
        <ele>1686.7</ele>
        <time>2024-05-26T09:53:17Z</time>
      </trkpt>
      <trkpt lat="43.74513" lon="6.65325">
        <ele>1686.7</ele>
        <time>2024-05-26T09:53:18Z</time>
      </trkpt>
      <trkpt lat="43.74513" lon="6.65325">
        <ele>1686.7</ele>
        <time>2024-05-26T09:53:19Z</time>
      </trkpt>
      <trkpt lat="43.74513" lon="6.65326">
        <ele>1686.7</ele>
        <time>2024-05-26T09:53:20Z</time>
      </trkpt>
      <trkpt lat="43.74513" lon="6.65326">
        <ele>1686.8</ele>
        <time>2024-05-26T09:53:21Z</time>
      </trkpt>
      <trkpt lat="43.74513" lon="6.65326">
        <ele>1686.8</ele>
        <time>2024-05-26T09:53:22Z</time>
      </trkpt>
      <trkpt lat="43.74513" lon="6.65326">
        <ele>1686.8</ele>
        <time>2024-05-26T09:53:23Z</time>
      </trkpt>
      <trkpt lat="43.74514" lon="6.65325">
        <ele>1686.9</ele>
        <time>2024-05-26T09:53:24Z</time>
      </trkpt>
      <trkpt lat="43.74514" lon="6.65325">
        <ele>1686.9</ele>
        <time>2024-05-26T09:53:25Z</time>
      </trkpt>
      <trkpt lat="43.74514" lon="6.65325">
        <ele>1687</ele>
        <time>2024-05-26T09:53:26Z</time>
      </trkpt>
      <trkpt lat="43.74514" lon="6.65325">
        <ele>1686.9</ele>
        <time>2024-05-26T09:53:27Z</time>
      </trkpt>
      <trkpt lat="43.74514" lon="6.65325">
        <ele>1686.9</ele>
        <time>2024-05-26T09:53:28Z</time>
      </trkpt>
      <trkpt lat="43.74514" lon="6.65325">
        <ele>1686.9</ele>
        <time>2024-05-26T09:53:29Z</time>
      </trkpt>
      <trkpt lat="43.74514" lon="6.65324">
        <ele>1686.8</ele>
        <time>2024-05-26T09:53:30Z</time>
      </trkpt>
      <trkpt lat="43.74514" lon="6.65324">
        <ele>1686.8</ele>
        <time>2024-05-26T09:53:31Z</time>
      </trkpt>
      <trkpt lat="43.74514" lon="6.65324">
        <ele>1686.8</ele>
        <time>2024-05-26T09:53:32Z</time>
      </trkpt>
      <trkpt lat="43.74514" lon="6.65324">
        <ele>1686.8</ele>
        <time>2024-05-26T09:53:33Z</time>
      </trkpt>
      <trkpt lat="43.74514" lon="6.65324">
        <ele>1686.9</ele>
        <time>2024-05-26T09:53:34Z</time>
      </trkpt>
      <trkpt lat="43.74514" lon="6.65323">
        <ele>1686.9</ele>
        <time>2024-05-26T09:53:35Z</time>
      </trkpt>
      <trkpt lat="43.74514" lon="6.65323">
        <ele>1686.9</ele>
        <time>2024-05-26T09:53:36Z</time>
      </trkpt>
      <trkpt lat="43.74515" lon="6.65323">
        <ele>1686.9</ele>
        <time>2024-05-26T09:53:37Z</time>
      </trkpt>
      <trkpt lat="43.74515" lon="6.65323">
        <ele>1686.9</ele>
        <time>2024-05-26T09:53:38Z</time>
      </trkpt>
      <trkpt lat="43.74515" lon="6.65323">
        <ele>1686.9</ele>
        <time>2024-05-26T09:53:39Z</time>
      </trkpt>
      <trkpt lat="43.74515" lon="6.65323">
        <ele>1687</ele>
        <time>2024-05-26T09:53:40Z</time>
      </trkpt>
      <trkpt lat="43.74515" lon="6.65323">
        <ele>1687</ele>
        <time>2024-05-26T09:53:41Z</time>
      </trkpt>
      <trkpt lat="43.74515" lon="6.65323">
        <ele>1687.1</ele>
        <time>2024-05-26T09:53:42Z</time>
      </trkpt>
      <trkpt lat="43.74515" lon="6.65323">
        <ele>1687.1</ele>
        <time>2024-05-26T09:53:43Z</time>
      </trkpt>
      <trkpt lat="43.74515" lon="6.65323">
        <ele>1687.1</ele>
        <time>2024-05-26T09:53:44Z</time>
      </trkpt>
      <trkpt lat="43.74515" lon="6.65323">
        <ele>1687.1</ele>
        <time>2024-05-26T09:53:45Z</time>
      </trkpt>
      <trkpt lat="43.74515" lon="6.65323">
        <ele>1687</ele>
        <time>2024-05-26T09:53:46Z</time>
      </trkpt>
      <trkpt lat="43.74515" lon="6.65323">
        <ele>1687</ele>
        <time>2024-05-26T09:53:47Z</time>
      </trkpt>
      <trkpt lat="43.74515" lon="6.65323">
        <ele>1686.9</ele>
        <time>2024-05-26T09:53:48Z</time>
      </trkpt>
      <trkpt lat="43.74515" lon="6.65323">
        <ele>1686.8</ele>
        <time>2024-05-26T09:53:49Z</time>
      </trkpt>
      <trkpt lat="43.74515" lon="6.65323">
        <ele>1686.8</ele>
        <time>2024-05-26T09:53:50Z</time>
      </trkpt>
      <trkpt lat="43.74515" lon="6.65323">
        <ele>1686.7</ele>
        <time>2024-05-26T09:53:51Z</time>
      </trkpt>
      <trkpt lat="43.74515" lon="6.65322">
        <ele>1686.7</ele>
        <time>2024-05-26T09:53:52Z</time>
      </trkpt>
      <trkpt lat="43.74515" lon="6.65322">
        <ele>1686.7</ele>
        <time>2024-05-26T09:53:53Z</time>
      </trkpt>
      <trkpt lat="43.74515" lon="6.65322">
        <ele>1686.8</ele>
        <time>2024-05-26T09:53:54Z</time>
      </trkpt>
      <trkpt lat="43.74515" lon="6.65322">
        <ele>1686.9</ele>
        <time>2024-05-26T09:53:55Z</time>
      </trkpt>
      <trkpt lat="43.74515" lon="6.65322">
        <ele>1686.9</ele>
        <time>2024-05-26T09:53:56Z</time>
      </trkpt>
      <trkpt lat="43.74515" lon="6.65322">
        <ele>1686.9</ele>
        <time>2024-05-26T09:53:57Z</time>
      </trkpt>
      <trkpt lat="43.74515" lon="6.65322">
        <ele>1686.9</ele>
        <time>2024-05-26T09:53:58Z</time>
      </trkpt>
      <trkpt lat="43.74515" lon="6.65322">
        <ele>1686.9</ele>
        <time>2024-05-26T09:53:59Z</time>
      </trkpt>
      <trkpt lat="43.74515" lon="6.65322">
        <ele>1686.9</ele>
        <time>2024-05-26T09:54:00Z</time>
      </trkpt>
      <trkpt lat="43.74515" lon="6.65322">
        <ele>1686.9</ele>
        <time>2024-05-26T09:54:01Z</time>
      </trkpt>
      <trkpt lat="43.74515" lon="6.65322">
        <ele>1686.9</ele>
        <time>2024-05-26T09:54:02Z</time>
      </trkpt>
      <trkpt lat="43.74515" lon="6.65322">
        <ele>1686.8</ele>
        <time>2024-05-26T09:54:03Z</time>
      </trkpt>
      <trkpt lat="43.74514" lon="6.65322">
        <ele>1686.7</ele>
        <time>2024-05-26T09:54:04Z</time>
      </trkpt>
      <trkpt lat="43.74514" lon="6.65322">
        <ele>1686.8</ele>
        <time>2024-05-26T09:54:05Z</time>
      </trkpt>
      <trkpt lat="43.74515" lon="6.65322">
        <ele>1686.7</ele>
        <time>2024-05-26T09:54:06Z</time>
      </trkpt>
      <trkpt lat="43.74515" lon="6.65322">
        <ele>1686.8</ele>
        <time>2024-05-26T09:54:07Z</time>
      </trkpt>
      <trkpt lat="43.74514" lon="6.65322">
        <ele>1686.7</ele>
        <time>2024-05-26T09:54:08Z</time>
      </trkpt>
      <trkpt lat="43.74514" lon="6.65322">
        <ele>1686.7</ele>
        <time>2024-05-26T09:54:09Z</time>
      </trkpt>
      <trkpt lat="43.74514" lon="6.65322">
        <ele>1686.8</ele>
        <time>2024-05-26T09:54:10Z</time>
      </trkpt>
      <trkpt lat="43.74514" lon="6.65322">
        <ele>1686.9</ele>
        <time>2024-05-26T09:54:11Z</time>
      </trkpt>
      <trkpt lat="43.74514" lon="6.65322">
        <ele>1687</ele>
        <time>2024-05-26T09:54:12Z</time>
      </trkpt>
      <trkpt lat="43.74514" lon="6.65322">
        <ele>1687</ele>
        <time>2024-05-26T09:54:13Z</time>
      </trkpt>
      <trkpt lat="43.74514" lon="6.65322">
        <ele>1687</ele>
        <time>2024-05-26T09:54:14Z</time>
      </trkpt>
      <trkpt lat="43.74514" lon="6.65322">
        <ele>1686.9</ele>
        <time>2024-05-26T09:54:15Z</time>
      </trkpt>
      <trkpt lat="43.74514" lon="6.65322">
        <ele>1686.9</ele>
        <time>2024-05-26T09:54:16Z</time>
      </trkpt>
      <trkpt lat="43.74514" lon="6.65322">
        <ele>1686.8</ele>
        <time>2024-05-26T09:54:17Z</time>
      </trkpt>
      <trkpt lat="43.74514" lon="6.65322">
        <ele>1686.8</ele>
        <time>2024-05-26T09:54:18Z</time>
      </trkpt>
      <trkpt lat="43.74514" lon="6.65322">
        <ele>1686.8</ele>
        <time>2024-05-26T09:54:19Z</time>
      </trkpt>
      <trkpt lat="43.74514" lon="6.65321">
        <ele>1686.8</ele>
        <time>2024-05-26T09:54:20Z</time>
      </trkpt>
      <trkpt lat="43.74514" lon="6.65321">
        <ele>1686.8</ele>
        <time>2024-05-26T09:54:21Z</time>
      </trkpt>
      <trkpt lat="43.74514" lon="6.65321">
        <ele>1686.8</ele>
        <time>2024-05-26T09:54:22Z</time>
      </trkpt>
      <trkpt lat="43.74514" lon="6.65321">
        <ele>1686.8</ele>
        <time>2024-05-26T09:54:23Z</time>
      </trkpt>
      <trkpt lat="43.74514" lon="6.65321">
        <ele>1686.8</ele>
        <time>2024-05-26T09:54:24Z</time>
      </trkpt>
      <trkpt lat="43.74514" lon="6.65321">
        <ele>1686.8</ele>
        <time>2024-05-26T09:54:25Z</time>
      </trkpt>
      <trkpt lat="43.74514" lon="6.65321">
        <ele>1686.7</ele>
        <time>2024-05-26T09:54:26Z</time>
      </trkpt>
      <trkpt lat="43.74514" lon="6.65321">
        <ele>1686.7</ele>
        <time>2024-05-26T09:54:27Z</time>
      </trkpt>
      <trkpt lat="43.74514" lon="6.6532">
        <ele>1686.6</ele>
        <time>2024-05-26T09:54:28Z</time>
      </trkpt>
      <trkpt lat="43.74514" lon="6.6532">
        <ele>1686.6</ele>
        <time>2024-05-26T09:54:29Z</time>
      </trkpt>
      <trkpt lat="43.74514" lon="6.6532">
        <ele>1686.6</ele>
        <time>2024-05-26T09:54:30Z</time>
      </trkpt>
      <trkpt lat="43.74514" lon="6.6532">
        <ele>1686.6</ele>
        <time>2024-05-26T09:54:31Z</time>
      </trkpt>
      <trkpt lat="43.74514" lon="6.6532">
        <ele>1686.6</ele>
        <time>2024-05-26T09:54:32Z</time>
      </trkpt>
      <trkpt lat="43.74514" lon="6.6532">
        <ele>1686.7</ele>
        <time>2024-05-26T09:54:33Z</time>
      </trkpt>
      <trkpt lat="43.74514" lon="6.6532">
        <ele>1686.8</ele>
        <time>2024-05-26T09:54:34Z</time>
      </trkpt>
      <trkpt lat="43.74514" lon="6.6532">
        <ele>1686.8</ele>
        <time>2024-05-26T09:54:35Z</time>
      </trkpt>
      <trkpt lat="43.74514" lon="6.6532">
        <ele>1686.9</ele>
        <time>2024-05-26T09:54:36Z</time>
      </trkpt>
      <trkpt lat="43.74514" lon="6.6532">
        <ele>1687</ele>
        <time>2024-05-26T09:54:37Z</time>
      </trkpt>
      <trkpt lat="43.74514" lon="6.6532">
        <ele>1687.1</ele>
        <time>2024-05-26T09:54:38Z</time>
      </trkpt>
      <trkpt lat="43.74514" lon="6.6532">
        <ele>1687.1</ele>
        <time>2024-05-26T09:54:39Z</time>
      </trkpt>
      <trkpt lat="43.74514" lon="6.65321">
        <ele>1687.3</ele>
        <time>2024-05-26T09:54:40Z</time>
      </trkpt>
      <trkpt lat="43.74514" lon="6.65321">
        <ele>1687.1</ele>
        <time>2024-05-26T09:54:41Z</time>
      </trkpt>
      <trkpt lat="43.74515" lon="6.65321">
        <ele>1687</ele>
        <time>2024-05-26T09:54:42Z</time>
      </trkpt>
      <trkpt lat="43.74515" lon="6.65321">
        <ele>1687</ele>
        <time>2024-05-26T09:54:43Z</time>
      </trkpt>
      <trkpt lat="43.74515" lon="6.65321">
        <ele>1687</ele>
        <time>2024-05-26T09:54:44Z</time>
      </trkpt>
      <trkpt lat="43.74515" lon="6.65321">
        <ele>1687</ele>
        <time>2024-05-26T09:54:45Z</time>
      </trkpt>
      <trkpt lat="43.74515" lon="6.65321">
        <ele>1686.9</ele>
        <time>2024-05-26T09:54:46Z</time>
      </trkpt>
      <trkpt lat="43.74515" lon="6.65321">
        <ele>1686.9</ele>
        <time>2024-05-26T09:54:47Z</time>
      </trkpt>
      <trkpt lat="43.74515" lon="6.65321">
        <ele>1686.9</ele>
        <time>2024-05-26T09:54:48Z</time>
      </trkpt>
      <trkpt lat="43.74515" lon="6.65321">
        <ele>1686.9</ele>
        <time>2024-05-26T09:54:49Z</time>
      </trkpt>
      <trkpt lat="43.74515" lon="6.65321">
        <ele>1687</ele>
        <time>2024-05-26T09:54:50Z</time>
      </trkpt>
      <trkpt lat="43.74515" lon="6.65321">
        <ele>1686.9</ele>
        <time>2024-05-26T09:54:51Z</time>
      </trkpt>
      <trkpt lat="43.74515" lon="6.65321">
        <ele>1686.9</ele>
        <time>2024-05-26T09:54:52Z</time>
      </trkpt>
      <trkpt lat="43.74516" lon="6.65321">
        <ele>1686.9</ele>
        <time>2024-05-26T09:54:53Z</time>
      </trkpt>
      <trkpt lat="43.74515" lon="6.65321">
        <ele>1686.8</ele>
        <time>2024-05-26T09:54:54Z</time>
      </trkpt>
      <trkpt lat="43.74515" lon="6.65321">
        <ele>1686.8</ele>
        <time>2024-05-26T09:54:55Z</time>
      </trkpt>
      <trkpt lat="43.74516" lon="6.65321">
        <ele>1686.8</ele>
        <time>2024-05-26T09:54:56Z</time>
      </trkpt>
      <trkpt lat="43.74516" lon="6.65321">
        <ele>1686.9</ele>
        <time>2024-05-26T09:54:57Z</time>
      </trkpt>
      <trkpt lat="43.74516" lon="6.65321">
        <ele>1686.9</ele>
        <time>2024-05-26T09:54:58Z</time>
      </trkpt>
      <trkpt lat="43.74516" lon="6.65322">
        <ele>1686.9</ele>
        <time>2024-05-26T09:54:59Z</time>
      </trkpt>
      <trkpt lat="43.74516" lon="6.65321">
        <ele>1686.9</ele>
        <time>2024-05-26T09:55:00Z</time>
      </trkpt>
      <trkpt lat="43.74516" lon="6.65321">
        <ele>1687</ele>
        <time>2024-05-26T09:55:01Z</time>
      </trkpt>
      <trkpt lat="43.74515" lon="6.65321">
        <ele>1686.9</ele>
        <time>2024-05-26T09:55:02Z</time>
      </trkpt>
      <trkpt lat="43.74515" lon="6.65321">
        <ele>1686.9</ele>
        <time>2024-05-26T09:55:03Z</time>
      </trkpt>
      <trkpt lat="43.74515" lon="6.65321">
        <ele>1686.9</ele>
        <time>2024-05-26T09:55:04Z</time>
      </trkpt>
      <trkpt lat="43.74515" lon="6.65321">
        <ele>1686.9</ele>
        <time>2024-05-26T09:55:05Z</time>
      </trkpt>
      <trkpt lat="43.74515" lon="6.65321">
        <ele>1687.1</ele>
        <time>2024-05-26T09:55:06Z</time>
      </trkpt>
      <trkpt lat="43.74515" lon="6.65321">
        <ele>1687.1</ele>
        <time>2024-05-26T09:55:07Z</time>
      </trkpt>
      <trkpt lat="43.74515" lon="6.65321">
        <ele>1687.1</ele>
        <time>2024-05-26T09:55:08Z</time>
      </trkpt>
      <trkpt lat="43.74515" lon="6.65321">
        <ele>1687.1</ele>
        <time>2024-05-26T09:55:09Z</time>
      </trkpt>
      <trkpt lat="43.74515" lon="6.65321">
        <ele>1687.1</ele>
        <time>2024-05-26T09:55:10Z</time>
      </trkpt>
      <trkpt lat="43.74515" lon="6.65321">
        <ele>1687.1</ele>
        <time>2024-05-26T09:55:11Z</time>
      </trkpt>
      <trkpt lat="43.74515" lon="6.65321">
        <ele>1687.1</ele>
        <time>2024-05-26T09:55:12Z</time>
      </trkpt>
      <trkpt lat="43.74515" lon="6.65321">
        <ele>1687.1</ele>
        <time>2024-05-26T09:55:13Z</time>
      </trkpt>
      <trkpt lat="43.74514" lon="6.65321">
        <ele>1687</ele>
        <time>2024-05-26T09:55:14Z</time>
      </trkpt>
      <trkpt lat="43.74515" lon="6.65321">
        <ele>1687</ele>
        <time>2024-05-26T09:55:15Z</time>
      </trkpt>
      <trkpt lat="43.74515" lon="6.65321">
        <ele>1687</ele>
        <time>2024-05-26T09:55:16Z</time>
      </trkpt>
      <trkpt lat="43.74514" lon="6.65321">
        <ele>1686.9</ele>
        <time>2024-05-26T09:55:17Z</time>
      </trkpt>
      <trkpt lat="43.74514" lon="6.65321">
        <ele>1686.9</ele>
        <time>2024-05-26T09:55:18Z</time>
      </trkpt>
      <trkpt lat="43.74514" lon="6.65321">
        <ele>1686.9</ele>
        <time>2024-05-26T09:55:19Z</time>
      </trkpt>
      <trkpt lat="43.74514" lon="6.65322">
        <ele>1686.9</ele>
        <time>2024-05-26T09:55:20Z</time>
      </trkpt>
      <trkpt lat="43.74514" lon="6.65321">
        <ele>1686.9</ele>
        <time>2024-05-26T09:55:21Z</time>
      </trkpt>
      <trkpt lat="43.74514" lon="6.65321">
        <ele>1686.8</ele>
        <time>2024-05-26T09:55:22Z</time>
      </trkpt>
      <trkpt lat="43.74514" lon="6.65321">
        <ele>1686.8</ele>
        <time>2024-05-26T09:55:23Z</time>
      </trkpt>
      <trkpt lat="43.74514" lon="6.65321">
        <ele>1686.8</ele>
        <time>2024-05-26T09:55:24Z</time>
      </trkpt>
      <trkpt lat="43.74514" lon="6.65321">
        <ele>1686.9</ele>
        <time>2024-05-26T09:55:25Z</time>
      </trkpt>
      <trkpt lat="43.74514" lon="6.65321">
        <ele>1686.9</ele>
        <time>2024-05-26T09:55:26Z</time>
      </trkpt>
      <trkpt lat="43.74514" lon="6.65321">
        <ele>1686.9</ele>
        <time>2024-05-26T09:55:27Z</time>
      </trkpt>
      <trkpt lat="43.74514" lon="6.65321">
        <ele>1687</ele>
        <time>2024-05-26T09:55:28Z</time>
      </trkpt>
      <trkpt lat="43.74514" lon="6.65321">
        <ele>1687</ele>
        <time>2024-05-26T09:55:29Z</time>
      </trkpt>
      <trkpt lat="43.74514" lon="6.65321">
        <ele>1687.1</ele>
        <time>2024-05-26T09:55:30Z</time>
      </trkpt>
      <trkpt lat="43.74514" lon="6.65321">
        <ele>1687.1</ele>
        <time>2024-05-26T09:55:31Z</time>
      </trkpt>
      <trkpt lat="43.74514" lon="6.65321">
        <ele>1687.1</ele>
        <time>2024-05-26T09:55:32Z</time>
      </trkpt>
      <trkpt lat="43.74514" lon="6.65321">
        <ele>1687</ele>
        <time>2024-05-26T09:55:33Z</time>
      </trkpt>
      <trkpt lat="43.74514" lon="6.65321">
        <ele>1687</ele>
        <time>2024-05-26T09:55:34Z</time>
      </trkpt>
      <trkpt lat="43.74514" lon="6.65321">
        <ele>1687.1</ele>
        <time>2024-05-26T09:55:35Z</time>
      </trkpt>
      <trkpt lat="43.74515" lon="6.65321">
        <ele>1687.1</ele>
        <time>2024-05-26T09:55:36Z</time>
      </trkpt>
      <trkpt lat="43.74515" lon="6.65321">
        <ele>1687.1</ele>
        <time>2024-05-26T09:55:37Z</time>
      </trkpt>
      <trkpt lat="43.74515" lon="6.65321">
        <ele>1687.1</ele>
        <time>2024-05-26T09:55:38Z</time>
      </trkpt>
      <trkpt lat="43.74515" lon="6.65321">
        <ele>1687.1</ele>
        <time>2024-05-26T09:55:39Z</time>
      </trkpt>
      <trkpt lat="43.74515" lon="6.65321">
        <ele>1687.1</ele>
        <time>2024-05-26T09:55:40Z</time>
      </trkpt>
      <trkpt lat="43.74515" lon="6.65321">
        <ele>1687.2</ele>
        <time>2024-05-26T09:55:41Z</time>
      </trkpt>
      <trkpt lat="43.74515" lon="6.65321">
        <ele>1687.2</ele>
        <time>2024-05-26T09:55:42Z</time>
      </trkpt>
      <trkpt lat="43.74515" lon="6.65321">
        <ele>1687.2</ele>
        <time>2024-05-26T09:55:43Z</time>
      </trkpt>
      <trkpt lat="43.74515" lon="6.65321">
        <ele>1687.2</ele>
        <time>2024-05-26T09:55:44Z</time>
      </trkpt>
      <trkpt lat="43.74515" lon="6.65321">
        <ele>1687.2</ele>
        <time>2024-05-26T09:55:45Z</time>
      </trkpt>
      <trkpt lat="43.74515" lon="6.65321">
        <ele>1687.2</ele>
        <time>2024-05-26T09:55:46Z</time>
      </trkpt>
      <trkpt lat="43.74515" lon="6.65321">
        <ele>1687.3</ele>
        <time>2024-05-26T09:55:47Z</time>
      </trkpt>
      <trkpt lat="43.74515" lon="6.65322">
        <ele>1687.3</ele>
        <time>2024-05-26T09:55:48Z</time>
      </trkpt>
      <trkpt lat="43.74515" lon="6.65321">
        <ele>1687.3</ele>
        <time>2024-05-26T09:55:49Z</time>
      </trkpt>
      <trkpt lat="43.74515" lon="6.65321">
        <ele>1687.3</ele>
        <time>2024-05-26T09:55:50Z</time>
      </trkpt>
      <trkpt lat="43.74515" lon="6.65321">
        <ele>1687.4</ele>
        <time>2024-05-26T09:55:51Z</time>
      </trkpt>
      <trkpt lat="43.74515" lon="6.65321">
        <ele>1687.5</ele>
        <time>2024-05-26T09:55:52Z</time>
      </trkpt>
      <trkpt lat="43.74515" lon="6.65321">
        <ele>1687.5</ele>
        <time>2024-05-26T09:55:53Z</time>
      </trkpt>
      <trkpt lat="43.74515" lon="6.65321">
        <ele>1687.6</ele>
        <time>2024-05-26T09:55:54Z</time>
      </trkpt>
      <trkpt lat="43.74515" lon="6.65321">
        <ele>1687.6</ele>
        <time>2024-05-26T09:55:55Z</time>
      </trkpt>
      <trkpt lat="43.74515" lon="6.65321">
        <ele>1687.6</ele>
        <time>2024-05-26T09:55:56Z</time>
      </trkpt>
      <trkpt lat="43.74515" lon="6.65321">
        <ele>1687.7</ele>
        <time>2024-05-26T09:55:57Z</time>
      </trkpt>
      <trkpt lat="43.74515" lon="6.65321">
        <ele>1687.6</ele>
        <time>2024-05-26T09:55:58Z</time>
      </trkpt>
      <trkpt lat="43.74515" lon="6.65321">
        <ele>1687.6</ele>
        <time>2024-05-26T09:55:59Z</time>
      </trkpt>
      <trkpt lat="43.74515" lon="6.65321">
        <ele>1687.6</ele>
        <time>2024-05-26T09:56:00Z</time>
      </trkpt>
      <trkpt lat="43.74514" lon="6.65321">
        <ele>1687.6</ele>
        <time>2024-05-26T09:56:01Z</time>
      </trkpt>
      <trkpt lat="43.74515" lon="6.65321">
        <ele>1687.6</ele>
        <time>2024-05-26T09:56:02Z</time>
      </trkpt>
      <trkpt lat="43.74514" lon="6.65321">
        <ele>1687.7</ele>
        <time>2024-05-26T09:56:03Z</time>
      </trkpt>
      <trkpt lat="43.74514" lon="6.65321">
        <ele>1687.8</ele>
        <time>2024-05-26T09:56:04Z</time>
      </trkpt>
      <trkpt lat="43.74514" lon="6.65321">
        <ele>1687.8</ele>
        <time>2024-05-26T09:56:05Z</time>
      </trkpt>
      <trkpt lat="43.74514" lon="6.65321">
        <ele>1687.8</ele>
        <time>2024-05-26T09:56:06Z</time>
      </trkpt>
      <trkpt lat="43.74514" lon="6.65321">
        <ele>1687.8</ele>
        <time>2024-05-26T09:56:07Z</time>
      </trkpt>
      <trkpt lat="43.74514" lon="6.65321">
        <ele>1687.9</ele>
        <time>2024-05-26T09:56:08Z</time>
      </trkpt>
      <trkpt lat="43.74514" lon="6.65321">
        <ele>1687.9</ele>
        <time>2024-05-26T09:56:09Z</time>
      </trkpt>
      <trkpt lat="43.74515" lon="6.65321">
        <ele>1687.9</ele>
        <time>2024-05-26T09:56:10Z</time>
      </trkpt>
      <trkpt lat="43.74515" lon="6.65321">
        <ele>1687.9</ele>
        <time>2024-05-26T09:56:11Z</time>
      </trkpt>
      <trkpt lat="43.74515" lon="6.65321">
        <ele>1688</ele>
        <time>2024-05-26T09:56:12Z</time>
      </trkpt>
      <trkpt lat="43.74515" lon="6.65321">
        <ele>1687.9</ele>
        <time>2024-05-26T09:56:13Z</time>
      </trkpt>
      <trkpt lat="43.74515" lon="6.65321">
        <ele>1687.9</ele>
        <time>2024-05-26T09:56:14Z</time>
      </trkpt>
      <trkpt lat="43.74515" lon="6.65321">
        <ele>1687.9</ele>
        <time>2024-05-26T09:56:15Z</time>
      </trkpt>
      <trkpt lat="43.74515" lon="6.65321">
        <ele>1688</ele>
        <time>2024-05-26T09:56:16Z</time>
      </trkpt>
      <trkpt lat="43.74514" lon="6.65321">
        <ele>1687.9</ele>
        <time>2024-05-26T09:56:17Z</time>
      </trkpt>
      <trkpt lat="43.74515" lon="6.65321">
        <ele>1687.8</ele>
        <time>2024-05-26T09:56:18Z</time>
      </trkpt>
      <trkpt lat="43.74515" lon="6.65322">
        <ele>1687.7</ele>
        <time>2024-05-26T09:56:19Z</time>
      </trkpt>
      <trkpt lat="43.74515" lon="6.65322">
        <ele>1687.7</ele>
        <time>2024-05-26T09:56:20Z</time>
      </trkpt>
      <trkpt lat="43.74515" lon="6.65322">
        <ele>1687.6</ele>
        <time>2024-05-26T09:56:21Z</time>
      </trkpt>
      <trkpt lat="43.74515" lon="6.65322">
        <ele>1687.6</ele>
        <time>2024-05-26T09:56:22Z</time>
      </trkpt>
      <trkpt lat="43.74515" lon="6.65322">
        <ele>1687.5</ele>
        <time>2024-05-26T09:56:23Z</time>
      </trkpt>
      <trkpt lat="43.74515" lon="6.65322">
        <ele>1687.5</ele>
        <time>2024-05-26T09:56:24Z</time>
      </trkpt>
      <trkpt lat="43.74515" lon="6.65322">
        <ele>1687.4</ele>
        <time>2024-05-26T09:56:25Z</time>
      </trkpt>
      <trkpt lat="43.74515" lon="6.65322">
        <ele>1687.4</ele>
        <time>2024-05-26T09:56:26Z</time>
      </trkpt>
      <trkpt lat="43.74515" lon="6.65322">
        <ele>1687.3</ele>
        <time>2024-05-26T09:56:27Z</time>
      </trkpt>
      <trkpt lat="43.74515" lon="6.65322">
        <ele>1687.3</ele>
        <time>2024-05-26T09:56:28Z</time>
      </trkpt>
      <trkpt lat="43.74515" lon="6.65322">
        <ele>1687.3</ele>
        <time>2024-05-26T09:56:29Z</time>
      </trkpt>
      <trkpt lat="43.74515" lon="6.65322">
        <ele>1687.4</ele>
        <time>2024-05-26T09:56:30Z</time>
      </trkpt>
      <trkpt lat="43.74515" lon="6.65322">
        <ele>1687.4</ele>
        <time>2024-05-26T09:56:31Z</time>
      </trkpt>
      <trkpt lat="43.74515" lon="6.65322">
        <ele>1687.4</ele>
        <time>2024-05-26T09:56:32Z</time>
      </trkpt>
      <trkpt lat="43.74515" lon="6.65322">
        <ele>1687.4</ele>
        <time>2024-05-26T09:56:33Z</time>
      </trkpt>
      <trkpt lat="43.74515" lon="6.65322">
        <ele>1687.4</ele>
        <time>2024-05-26T09:56:34Z</time>
      </trkpt>
      <trkpt lat="43.74515" lon="6.65322">
        <ele>1687.5</ele>
        <time>2024-05-26T09:56:35Z</time>
      </trkpt>
      <trkpt lat="43.74514" lon="6.65322">
        <ele>1687.5</ele>
        <time>2024-05-26T09:56:36Z</time>
      </trkpt>
      <trkpt lat="43.74514" lon="6.65322">
        <ele>1687.5</ele>
        <time>2024-05-26T09:56:37Z</time>
      </trkpt>
      <trkpt lat="43.74514" lon="6.65322">
        <ele>1687.6</ele>
        <time>2024-05-26T09:56:38Z</time>
      </trkpt>
      <trkpt lat="43.74514" lon="6.65322">
        <ele>1687.6</ele>
        <time>2024-05-26T09:56:39Z</time>
      </trkpt>
      <trkpt lat="43.74514" lon="6.65322">
        <ele>1687.6</ele>
        <time>2024-05-26T09:56:40Z</time>
      </trkpt>
      <trkpt lat="43.74514" lon="6.65322">
        <ele>1687.7</ele>
        <time>2024-05-26T09:56:41Z</time>
      </trkpt>
      <trkpt lat="43.74514" lon="6.65322">
        <ele>1687.6</ele>
        <time>2024-05-26T09:56:42Z</time>
      </trkpt>
      <trkpt lat="43.74514" lon="6.65322">
        <ele>1687.6</ele>
        <time>2024-05-26T09:56:43Z</time>
      </trkpt>
      <trkpt lat="43.74514" lon="6.65322">
        <ele>1687.5</ele>
        <time>2024-05-26T09:56:44Z</time>
      </trkpt>
      <trkpt lat="43.74514" lon="6.65322">
        <ele>1687.6</ele>
        <time>2024-05-26T09:56:45Z</time>
      </trkpt>
      <trkpt lat="43.74514" lon="6.65322">
        <ele>1687.6</ele>
        <time>2024-05-26T09:56:46Z</time>
      </trkpt>
      <trkpt lat="43.74514" lon="6.65322">
        <ele>1687.6</ele>
        <time>2024-05-26T09:56:47Z</time>
      </trkpt>
      <trkpt lat="43.74514" lon="6.65322">
        <ele>1687.6</ele>
        <time>2024-05-26T09:56:48Z</time>
      </trkpt>
      <trkpt lat="43.74514" lon="6.65322">
        <ele>1687.7</ele>
        <time>2024-05-26T09:56:49Z</time>
      </trkpt>
      <trkpt lat="43.74514" lon="6.65322">
        <ele>1687.8</ele>
        <time>2024-05-26T09:56:50Z</time>
      </trkpt>
      <trkpt lat="43.74514" lon="6.65322">
        <ele>1687.7</ele>
        <time>2024-05-26T09:56:51Z</time>
      </trkpt>
      <trkpt lat="43.74514" lon="6.65323">
        <ele>1687.6</ele>
        <time>2024-05-26T09:56:52Z</time>
      </trkpt>
      <trkpt lat="43.74514" lon="6.65323">
        <ele>1687.6</ele>
        <time>2024-05-26T09:56:53Z</time>
      </trkpt>
      <trkpt lat="43.74515" lon="6.65323">
        <ele>1687.5</ele>
        <time>2024-05-26T09:56:54Z</time>
      </trkpt>
      <trkpt lat="43.74515" lon="6.65323">
        <ele>1687.5</ele>
        <time>2024-05-26T09:56:55Z</time>
      </trkpt>
      <trkpt lat="43.74515" lon="6.65322">
        <ele>1687.4</ele>
        <time>2024-05-26T09:56:56Z</time>
      </trkpt>
      <trkpt lat="43.74515" lon="6.65322">
        <ele>1687.3</ele>
        <time>2024-05-26T09:56:57Z</time>
      </trkpt>
      <trkpt lat="43.74515" lon="6.65322">
        <ele>1687.2</ele>
        <time>2024-05-26T09:56:58Z</time>
      </trkpt>
      <trkpt lat="43.74515" lon="6.65322">
        <ele>1687.1</ele>
        <time>2024-05-26T09:56:59Z</time>
      </trkpt>
      <trkpt lat="43.74516" lon="6.65322">
        <ele>1687.1</ele>
        <time>2024-05-26T09:57:00Z</time>
      </trkpt>
      <trkpt lat="43.74516" lon="6.65322">
        <ele>1687</ele>
        <time>2024-05-26T09:57:01Z</time>
      </trkpt>
      <trkpt lat="43.74516" lon="6.65321">
        <ele>1686.9</ele>
        <time>2024-05-26T09:57:02Z</time>
      </trkpt>
      <trkpt lat="43.74516" lon="6.65321">
        <ele>1686.9</ele>
        <time>2024-05-26T09:57:03Z</time>
      </trkpt>
      <trkpt lat="43.74516" lon="6.65321">
        <ele>1686.9</ele>
        <time>2024-05-26T09:57:04Z</time>
      </trkpt>
      <trkpt lat="43.74516" lon="6.65321">
        <ele>1687</ele>
        <time>2024-05-26T09:57:05Z</time>
      </trkpt>
      <trkpt lat="43.74516" lon="6.65321">
        <ele>1687</ele>
        <time>2024-05-26T09:57:06Z</time>
      </trkpt>
      <trkpt lat="43.74516" lon="6.65321">
        <ele>1687</ele>
        <time>2024-05-26T09:57:07Z</time>
      </trkpt>
      <trkpt lat="43.74516" lon="6.65321">
        <ele>1687.1</ele>
        <time>2024-05-26T09:57:08Z</time>
      </trkpt>
      <trkpt lat="43.74516" lon="6.65321">
        <ele>1687.1</ele>
        <time>2024-05-26T09:57:09Z</time>
      </trkpt>
      <trkpt lat="43.74516" lon="6.65321">
        <ele>1687.2</ele>
        <time>2024-05-26T09:57:10Z</time>
      </trkpt>
      <trkpt lat="43.74516" lon="6.65321">
        <ele>1687.2</ele>
        <time>2024-05-26T09:57:11Z</time>
      </trkpt>
      <trkpt lat="43.74516" lon="6.65321">
        <ele>1687.3</ele>
        <time>2024-05-26T09:57:12Z</time>
      </trkpt>
      <trkpt lat="43.74516" lon="6.65321">
        <ele>1687.3</ele>
        <time>2024-05-26T09:57:13Z</time>
      </trkpt>
      <trkpt lat="43.74516" lon="6.65321">
        <ele>1687.4</ele>
        <time>2024-05-26T09:57:14Z</time>
      </trkpt>
      <trkpt lat="43.74516" lon="6.65321">
        <ele>1687.4</ele>
        <time>2024-05-26T09:57:15Z</time>
      </trkpt>
      <trkpt lat="43.74516" lon="6.65321">
        <ele>1687.4</ele>
        <time>2024-05-26T09:57:16Z</time>
      </trkpt>
      <trkpt lat="43.74516" lon="6.65321">
        <ele>1687.4</ele>
        <time>2024-05-26T09:57:17Z</time>
      </trkpt>
      <trkpt lat="43.74516" lon="6.65321">
        <ele>1687.4</ele>
        <time>2024-05-26T09:57:18Z</time>
      </trkpt>
      <trkpt lat="43.74516" lon="6.65321">
        <ele>1687.4</ele>
        <time>2024-05-26T09:57:19Z</time>
      </trkpt>
      <trkpt lat="43.74517" lon="6.65321">
        <ele>1687.5</ele>
        <time>2024-05-26T09:57:20Z</time>
      </trkpt>
      <trkpt lat="43.74517" lon="6.65321">
        <ele>1687.5</ele>
        <time>2024-05-26T09:57:21Z</time>
      </trkpt>
      <trkpt lat="43.74517" lon="6.65321">
        <ele>1687.5</ele>
        <time>2024-05-26T09:57:22Z</time>
      </trkpt>
      <trkpt lat="43.74517" lon="6.65321">
        <ele>1687.4</ele>
        <time>2024-05-26T09:57:23Z</time>
      </trkpt>
      <trkpt lat="43.74517" lon="6.65321">
        <ele>1687.4</ele>
        <time>2024-05-26T09:57:24Z</time>
      </trkpt>
      <trkpt lat="43.74517" lon="6.65321">
        <ele>1687.4</ele>
        <time>2024-05-26T09:57:25Z</time>
      </trkpt>
      <trkpt lat="43.74517" lon="6.65321">
        <ele>1687.5</ele>
        <time>2024-05-26T09:57:26Z</time>
      </trkpt>
      <trkpt lat="43.74517" lon="6.65321">
        <ele>1687.4</ele>
        <time>2024-05-26T09:57:27Z</time>
      </trkpt>
      <trkpt lat="43.74517" lon="6.65321">
        <ele>1687.3</ele>
        <time>2024-05-26T09:57:28Z</time>
      </trkpt>
      <trkpt lat="43.74518" lon="6.65321">
        <ele>1687.3</ele>
        <time>2024-05-26T09:57:29Z</time>
      </trkpt>
      <trkpt lat="43.74518" lon="6.65321">
        <ele>1687.2</ele>
        <time>2024-05-26T09:57:30Z</time>
      </trkpt>
      <trkpt lat="43.74518" lon="6.65321">
        <ele>1687.2</ele>
        <time>2024-05-26T09:57:31Z</time>
      </trkpt>
      <trkpt lat="43.74518" lon="6.65321">
        <ele>1687.2</ele>
        <time>2024-05-26T09:57:32Z</time>
      </trkpt>
      <trkpt lat="43.74517" lon="6.65321">
        <ele>1687.2</ele>
        <time>2024-05-26T09:57:33Z</time>
      </trkpt>
      <trkpt lat="43.74517" lon="6.65321">
        <ele>1687.3</ele>
        <time>2024-05-26T09:57:34Z</time>
      </trkpt>
      <trkpt lat="43.74517" lon="6.65321">
        <ele>1687.3</ele>
        <time>2024-05-26T09:57:35Z</time>
      </trkpt>
      <trkpt lat="43.74517" lon="6.65322">
        <ele>1687.2</ele>
        <time>2024-05-26T09:57:36Z</time>
      </trkpt>
      <trkpt lat="43.74516" lon="6.65322">
        <ele>1687.1</ele>
        <time>2024-05-26T09:57:37Z</time>
      </trkpt>
      <trkpt lat="43.74516" lon="6.65322">
        <ele>1687.1</ele>
        <time>2024-05-26T09:57:38Z</time>
      </trkpt>
      <trkpt lat="43.74516" lon="6.65322">
        <ele>1687</ele>
        <time>2024-05-26T09:57:39Z</time>
      </trkpt>
      <trkpt lat="43.74515" lon="6.65322">
        <ele>1687.1</ele>
        <time>2024-05-26T09:57:40Z</time>
      </trkpt>
      <trkpt lat="43.74515" lon="6.65322">
        <ele>1687.1</ele>
        <time>2024-05-26T09:57:41Z</time>
      </trkpt>
      <trkpt lat="43.74515" lon="6.65323">
        <ele>1687.1</ele>
        <time>2024-05-26T09:57:42Z</time>
      </trkpt>
      <trkpt lat="43.74514" lon="6.65324">
        <ele>1687</ele>
        <time>2024-05-26T09:57:43Z</time>
      </trkpt>
      <trkpt lat="43.74514" lon="6.65324">
        <ele>1687</ele>
        <time>2024-05-26T09:57:44Z</time>
      </trkpt>
      <trkpt lat="43.74513" lon="6.65325">
        <ele>1686.9</ele>
        <time>2024-05-26T09:57:45Z</time>
      </trkpt>
      <trkpt lat="43.74513" lon="6.65327">
        <ele>1686.9</ele>
        <time>2024-05-26T09:57:46Z</time>
      </trkpt>
      <trkpt lat="43.74512" lon="6.65328">
        <ele>1686.9</ele>
        <time>2024-05-26T09:57:47Z</time>
      </trkpt>
      <trkpt lat="43.74512" lon="6.65329">
        <ele>1686.9</ele>
        <time>2024-05-26T09:57:48Z</time>
      </trkpt>
      <trkpt lat="43.74512" lon="6.65329">
        <ele>1686.9</ele>
        <time>2024-05-26T09:57:49Z</time>
      </trkpt>
      <trkpt lat="43.74512" lon="6.6533">
        <ele>1686.8</ele>
        <time>2024-05-26T09:57:50Z</time>
      </trkpt>
      <trkpt lat="43.74512" lon="6.65331">
        <ele>1686.8</ele>
        <time>2024-05-26T09:57:51Z</time>
      </trkpt>
      <trkpt lat="43.74512" lon="6.65331">
        <ele>1686.7</ele>
        <time>2024-05-26T09:57:52Z</time>
      </trkpt>
      <trkpt lat="43.74513" lon="6.65332">
        <ele>1686.7</ele>
        <time>2024-05-26T09:57:53Z</time>
      </trkpt>
      <trkpt lat="43.74513" lon="6.65332">
        <ele>1686.7</ele>
        <time>2024-05-26T09:57:54Z</time>
      </trkpt>
      <trkpt lat="43.74513" lon="6.65332">
        <ele>1686.7</ele>
        <time>2024-05-26T09:57:55Z</time>
      </trkpt>
      <trkpt lat="43.74514" lon="6.65333">
        <ele>1686.6</ele>
        <time>2024-05-26T09:57:56Z</time>
      </trkpt>
      <trkpt lat="43.74513" lon="6.65334">
        <ele>1686.5</ele>
        <time>2024-05-26T09:57:57Z</time>
      </trkpt>
      <trkpt lat="43.74513" lon="6.65334">
        <ele>1686.5</ele>
        <time>2024-05-26T09:57:58Z</time>
      </trkpt>
      <trkpt lat="43.74513" lon="6.65334">
        <ele>1686.4</ele>
        <time>2024-05-26T09:57:59Z</time>
      </trkpt>
      <trkpt lat="43.74513" lon="6.65335">
        <ele>1686.3</ele>
        <time>2024-05-26T09:58:00Z</time>
      </trkpt>
      <trkpt lat="43.74513" lon="6.65335">
        <ele>1686.2</ele>
        <time>2024-05-26T09:58:01Z</time>
      </trkpt>
      <trkpt lat="43.74513" lon="6.65335">
        <ele>1686.1</ele>
        <time>2024-05-26T09:58:02Z</time>
      </trkpt>
      <trkpt lat="43.74513" lon="6.65335">
        <ele>1686</ele>
        <time>2024-05-26T09:58:03Z</time>
      </trkpt>
      <trkpt lat="43.74512" lon="6.65336">
        <ele>1685.9</ele>
        <time>2024-05-26T09:58:04Z</time>
      </trkpt>
      <trkpt lat="43.74512" lon="6.65336">
        <ele>1685.9</ele>
        <time>2024-05-26T09:58:05Z</time>
      </trkpt>
      <trkpt lat="43.74512" lon="6.65336">
        <ele>1685.9</ele>
        <time>2024-05-26T09:58:06Z</time>
      </trkpt>
      <trkpt lat="43.74512" lon="6.65337">
        <ele>1685.8</ele>
        <time>2024-05-26T09:58:07Z</time>
      </trkpt>
      <trkpt lat="43.74512" lon="6.65338">
        <ele>1685.6</ele>
        <time>2024-05-26T09:58:08Z</time>
      </trkpt>
      <trkpt lat="43.74512" lon="6.65339">
        <ele>1685.4</ele>
        <time>2024-05-26T09:58:09Z</time>
      </trkpt>
      <trkpt lat="43.74511" lon="6.65339">
        <ele>1685.3</ele>
        <time>2024-05-26T09:58:10Z</time>
      </trkpt>
      <trkpt lat="43.74511" lon="6.6534">
        <ele>1685.1</ele>
        <time>2024-05-26T09:58:11Z</time>
      </trkpt>
      <trkpt lat="43.7451" lon="6.65341">
        <ele>1684.9</ele>
        <time>2024-05-26T09:58:12Z</time>
      </trkpt>
      <trkpt lat="43.7451" lon="6.65341">
        <ele>1684.8</ele>
        <time>2024-05-26T09:58:13Z</time>
      </trkpt>
      <trkpt lat="43.7451" lon="6.65342">
        <ele>1684.6</ele>
        <time>2024-05-26T09:58:14Z</time>
      </trkpt>
      <trkpt lat="43.74509" lon="6.65342">
        <ele>1684.5</ele>
        <time>2024-05-26T09:58:15Z</time>
      </trkpt>
      <trkpt lat="43.74508" lon="6.65343">
        <ele>1684.3</ele>
        <time>2024-05-26T09:58:16Z</time>
      </trkpt>
      <trkpt lat="43.74507" lon="6.65343">
        <ele>1684.2</ele>
        <time>2024-05-26T09:58:17Z</time>
      </trkpt>
      <trkpt lat="43.74507" lon="6.65344">
        <ele>1684.1</ele>
        <time>2024-05-26T09:58:18Z</time>
      </trkpt>
      <trkpt lat="43.74506" lon="6.65344">
        <ele>1684</ele>
        <time>2024-05-26T09:58:19Z</time>
      </trkpt>
      <trkpt lat="43.74505" lon="6.65345">
        <ele>1684</ele>
        <time>2024-05-26T09:58:20Z</time>
      </trkpt>
      <trkpt lat="43.74504" lon="6.65345">
        <ele>1684</ele>
        <time>2024-05-26T09:58:21Z</time>
      </trkpt>
      <trkpt lat="43.74503" lon="6.65345">
        <ele>1684</ele>
        <time>2024-05-26T09:58:22Z</time>
      </trkpt>
      <trkpt lat="43.74502" lon="6.65345">
        <ele>1684.1</ele>
        <time>2024-05-26T09:58:23Z</time>
      </trkpt>
      <trkpt lat="43.74501" lon="6.65346">
        <ele>1684.1</ele>
        <time>2024-05-26T09:58:24Z</time>
      </trkpt>
      <trkpt lat="43.74501" lon="6.65346">
        <ele>1684.1</ele>
        <time>2024-05-26T09:58:25Z</time>
      </trkpt>
      <trkpt lat="43.745" lon="6.65346">
        <ele>1684.1</ele>
        <time>2024-05-26T09:58:26Z</time>
      </trkpt>
      <trkpt lat="43.74499" lon="6.65347">
        <ele>1684.1</ele>
        <time>2024-05-26T09:58:27Z</time>
      </trkpt>
      <trkpt lat="43.74498" lon="6.65348">
        <ele>1684.1</ele>
        <time>2024-05-26T09:58:28Z</time>
      </trkpt>
      <trkpt lat="43.74497" lon="6.65348">
        <ele>1684.2</ele>
        <time>2024-05-26T09:58:29Z</time>
      </trkpt>
      <trkpt lat="43.74496" lon="6.65349">
        <ele>1684.1</ele>
        <time>2024-05-26T09:58:30Z</time>
      </trkpt>
      <trkpt lat="43.74495" lon="6.6535">
        <ele>1684</ele>
        <time>2024-05-26T09:58:31Z</time>
      </trkpt>
      <trkpt lat="43.74494" lon="6.6535">
        <ele>1684</ele>
        <time>2024-05-26T09:58:32Z</time>
      </trkpt>
      <trkpt lat="43.74494" lon="6.6535">
        <ele>1684</ele>
        <time>2024-05-26T09:58:33Z</time>
      </trkpt>
      <trkpt lat="43.74493" lon="6.65351">
        <ele>1684</ele>
        <time>2024-05-26T09:58:34Z</time>
      </trkpt>
      <trkpt lat="43.74492" lon="6.65351">
        <ele>1684</ele>
        <time>2024-05-26T09:58:35Z</time>
      </trkpt>
      <trkpt lat="43.74491" lon="6.65352">
        <ele>1683.9</ele>
        <time>2024-05-26T09:58:36Z</time>
      </trkpt>
      <trkpt lat="43.7449" lon="6.65352">
        <ele>1683.7</ele>
        <time>2024-05-26T09:58:37Z</time>
      </trkpt>
      <trkpt lat="43.7449" lon="6.65353">
        <ele>1683.6</ele>
        <time>2024-05-26T09:58:38Z</time>
      </trkpt>
      <trkpt lat="43.7449" lon="6.65354">
        <ele>1683.5</ele>
        <time>2024-05-26T09:58:39Z</time>
      </trkpt>
      <trkpt lat="43.74489" lon="6.65355">
        <ele>1683.4</ele>
        <time>2024-05-26T09:58:40Z</time>
      </trkpt>
      <trkpt lat="43.74489" lon="6.65356">
        <ele>1683.3</ele>
        <time>2024-05-26T09:58:41Z</time>
      </trkpt>
      <trkpt lat="43.74488" lon="6.65357">
        <ele>1683.1</ele>
        <time>2024-05-26T09:58:42Z</time>
      </trkpt>
      <trkpt lat="43.74488" lon="6.65357">
        <ele>1683.1</ele>
        <time>2024-05-26T09:58:43Z</time>
      </trkpt>
      <trkpt lat="43.74487" lon="6.65358">
        <ele>1683</ele>
        <time>2024-05-26T09:58:44Z</time>
      </trkpt>
      <trkpt lat="43.74487" lon="6.65359">
        <ele>1682.9</ele>
        <time>2024-05-26T09:58:45Z</time>
      </trkpt>
      <trkpt lat="43.74486" lon="6.6536">
        <ele>1682.8</ele>
        <time>2024-05-26T09:58:46Z</time>
      </trkpt>
      <trkpt lat="43.74486" lon="6.65361">
        <ele>1682.7</ele>
        <time>2024-05-26T09:58:47Z</time>
      </trkpt>
      <trkpt lat="43.74486" lon="6.65362">
        <ele>1682.6</ele>
        <time>2024-05-26T09:58:48Z</time>
      </trkpt>
      <trkpt lat="43.74486" lon="6.65363">
        <ele>1682.5</ele>
        <time>2024-05-26T09:58:49Z</time>
      </trkpt>
      <trkpt lat="43.74486" lon="6.65364">
        <ele>1682.3</ele>
        <time>2024-05-26T09:58:50Z</time>
      </trkpt>
      <trkpt lat="43.74485" lon="6.65364">
        <ele>1682.1</ele>
        <time>2024-05-26T09:58:51Z</time>
      </trkpt>
      <trkpt lat="43.74485" lon="6.65365">
        <ele>1681.8</ele>
        <time>2024-05-26T09:58:52Z</time>
      </trkpt>
      <trkpt lat="43.74485" lon="6.65366">
        <ele>1681.7</ele>
        <time>2024-05-26T09:58:53Z</time>
      </trkpt>
      <trkpt lat="43.74485" lon="6.65366">
        <ele>1681.5</ele>
        <time>2024-05-26T09:58:54Z</time>
      </trkpt>
      <trkpt lat="43.74484" lon="6.65367">
        <ele>1681.4</ele>
        <time>2024-05-26T09:58:55Z</time>
      </trkpt>
      <trkpt lat="43.74484" lon="6.65368">
        <ele>1681.1</ele>
        <time>2024-05-26T09:58:56Z</time>
      </trkpt>
      <trkpt lat="43.74484" lon="6.65369">
        <ele>1680.9</ele>
        <time>2024-05-26T09:58:57Z</time>
      </trkpt>
      <trkpt lat="43.74483" lon="6.6537">
        <ele>1680.7</ele>
        <time>2024-05-26T09:58:58Z</time>
      </trkpt>
      <trkpt lat="43.74483" lon="6.65371">
        <ele>1680.5</ele>
        <time>2024-05-26T09:58:59Z</time>
      </trkpt>
      <trkpt lat="43.74483" lon="6.65371">
        <ele>1680.4</ele>
        <time>2024-05-26T09:59:00Z</time>
      </trkpt>
      <trkpt lat="43.74483" lon="6.65373">
        <ele>1680.1</ele>
        <time>2024-05-26T09:59:01Z</time>
      </trkpt>
      <trkpt lat="43.74484" lon="6.65373">
        <ele>1679.9</ele>
        <time>2024-05-26T09:59:02Z</time>
      </trkpt>
      <trkpt lat="43.74484" lon="6.65374">
        <ele>1679.8</ele>
        <time>2024-05-26T09:59:03Z</time>
      </trkpt>
      <trkpt lat="43.74483" lon="6.65375">
        <ele>1679.5</ele>
        <time>2024-05-26T09:59:04Z</time>
      </trkpt>
      <trkpt lat="43.74483" lon="6.65375">
        <ele>1679.2</ele>
        <time>2024-05-26T09:59:05Z</time>
      </trkpt>
      <trkpt lat="43.74482" lon="6.65376">
        <ele>1679</ele>
        <time>2024-05-26T09:59:06Z</time>
      </trkpt>
      <trkpt lat="43.74482" lon="6.65377">
        <ele>1677.3</ele>
        <time>2024-05-26T09:59:07Z</time>
      </trkpt>
      <trkpt lat="43.74481" lon="6.65378">
        <ele>1677.2</ele>
        <time>2024-05-26T09:59:08Z</time>
      </trkpt>
      <trkpt lat="43.74482" lon="6.65378">
        <ele>1677.2</ele>
        <time>2024-05-26T09:59:09Z</time>
      </trkpt>
      <trkpt lat="43.74481" lon="6.65379">
        <ele>1677.3</ele>
        <time>2024-05-26T09:59:10Z</time>
      </trkpt>
      <trkpt lat="43.74481" lon="6.6538">
        <ele>1677.2</ele>
        <time>2024-05-26T09:59:11Z</time>
      </trkpt>
      <trkpt lat="43.74481" lon="6.65381">
        <ele>1677.1</ele>
        <time>2024-05-26T09:59:12Z</time>
      </trkpt>
      <trkpt lat="43.74481" lon="6.65383">
        <ele>1677</ele>
        <time>2024-05-26T09:59:13Z</time>
      </trkpt>
      <trkpt lat="43.74481" lon="6.65383">
        <ele>1676.8</ele>
        <time>2024-05-26T09:59:14Z</time>
      </trkpt>
      <trkpt lat="43.74481" lon="6.65384">
        <ele>1676.7</ele>
        <time>2024-05-26T09:59:15Z</time>
      </trkpt>
      <trkpt lat="43.74481" lon="6.65385">
        <ele>1676.5</ele>
        <time>2024-05-26T09:59:16Z</time>
      </trkpt>
      <trkpt lat="43.7448" lon="6.65386">
        <ele>1676.2</ele>
        <time>2024-05-26T09:59:17Z</time>
      </trkpt>
      <trkpt lat="43.7448" lon="6.65386">
        <ele>1676</ele>
        <time>2024-05-26T09:59:18Z</time>
      </trkpt>
      <trkpt lat="43.74479" lon="6.65387">
        <ele>1675.9</ele>
        <time>2024-05-26T09:59:19Z</time>
      </trkpt>
      <trkpt lat="43.74479" lon="6.65387">
        <ele>1675.7</ele>
        <time>2024-05-26T09:59:20Z</time>
      </trkpt>
      <trkpt lat="43.74479" lon="6.65388">
        <ele>1675.6</ele>
        <time>2024-05-26T09:59:21Z</time>
      </trkpt>
      <trkpt lat="43.74478" lon="6.65389">
        <ele>1675.4</ele>
        <time>2024-05-26T09:59:22Z</time>
      </trkpt>
      <trkpt lat="43.74478" lon="6.6539">
        <ele>1675.2</ele>
        <time>2024-05-26T09:59:23Z</time>
      </trkpt>
      <trkpt lat="43.74478" lon="6.65391">
        <ele>1675.1</ele>
        <time>2024-05-26T09:59:24Z</time>
      </trkpt>
      <trkpt lat="43.74478" lon="6.65391">
        <ele>1674.9</ele>
        <time>2024-05-26T09:59:25Z</time>
      </trkpt>
      <trkpt lat="43.74478" lon="6.65392">
        <ele>1674.8</ele>
        <time>2024-05-26T09:59:26Z</time>
      </trkpt>
      <trkpt lat="43.74478" lon="6.65394">
        <ele>1674.6</ele>
        <time>2024-05-26T09:59:27Z</time>
      </trkpt>
      <trkpt lat="43.74479" lon="6.65395">
        <ele>1674.5</ele>
        <time>2024-05-26T09:59:28Z</time>
      </trkpt>
      <trkpt lat="43.74479" lon="6.65395">
        <ele>1674.4</ele>
        <time>2024-05-26T09:59:29Z</time>
      </trkpt>
      <trkpt lat="43.74479" lon="6.65396">
        <ele>1674.2</ele>
        <time>2024-05-26T09:59:30Z</time>
      </trkpt>
      <trkpt lat="43.74479" lon="6.65397">
        <ele>1674</ele>
        <time>2024-05-26T09:59:31Z</time>
      </trkpt>
      <trkpt lat="43.74479" lon="6.65398">
        <ele>1673.8</ele>
        <time>2024-05-26T09:59:32Z</time>
      </trkpt>
      <trkpt lat="43.74479" lon="6.65399">
        <ele>1673.6</ele>
        <time>2024-05-26T09:59:33Z</time>
      </trkpt>
      <trkpt lat="43.74479" lon="6.654">
        <ele>1673.4</ele>
        <time>2024-05-26T09:59:34Z</time>
      </trkpt>
      <trkpt lat="43.74479" lon="6.65401">
        <ele>1673.2</ele>
        <time>2024-05-26T09:59:35Z</time>
      </trkpt>
      <trkpt lat="43.7448" lon="6.65402">
        <ele>1673</ele>
        <time>2024-05-26T09:59:36Z</time>
      </trkpt>
      <trkpt lat="43.7448" lon="6.65403">
        <ele>1672.8</ele>
        <time>2024-05-26T09:59:37Z</time>
      </trkpt>
      <trkpt lat="43.7448" lon="6.65404">
        <ele>1672.6</ele>
        <time>2024-05-26T09:59:38Z</time>
      </trkpt>
      <trkpt lat="43.7448" lon="6.65405">
        <ele>1672.3</ele>
        <time>2024-05-26T09:59:39Z</time>
      </trkpt>
      <trkpt lat="43.7448" lon="6.65406">
        <ele>1672.1</ele>
        <time>2024-05-26T09:59:40Z</time>
      </trkpt>
      <trkpt lat="43.7448" lon="6.65407">
        <ele>1671.9</ele>
        <time>2024-05-26T09:59:41Z</time>
      </trkpt>
      <trkpt lat="43.7448" lon="6.65408">
        <ele>1671.8</ele>
        <time>2024-05-26T09:59:42Z</time>
      </trkpt>
      <trkpt lat="43.7448" lon="6.65409">
        <ele>1671.6</ele>
        <time>2024-05-26T09:59:43Z</time>
      </trkpt>
      <trkpt lat="43.7448" lon="6.6541">
        <ele>1671.3</ele>
        <time>2024-05-26T09:59:44Z</time>
      </trkpt>
      <trkpt lat="43.7448" lon="6.65412">
        <ele>1671.1</ele>
        <time>2024-05-26T09:59:45Z</time>
      </trkpt>
      <trkpt lat="43.7448" lon="6.65413">
        <ele>1670.9</ele>
        <time>2024-05-26T09:59:46Z</time>
      </trkpt>
      <trkpt lat="43.7448" lon="6.65414">
        <ele>1670.7</ele>
        <time>2024-05-26T09:59:47Z</time>
      </trkpt>
      <trkpt lat="43.74479" lon="6.65415">
        <ele>1670.5</ele>
        <time>2024-05-26T09:59:48Z</time>
      </trkpt>
      <trkpt lat="43.7448" lon="6.65415">
        <ele>1670.3</ele>
        <time>2024-05-26T09:59:49Z</time>
      </trkpt>
      <trkpt lat="43.7448" lon="6.65416">
        <ele>1670.1</ele>
        <time>2024-05-26T09:59:50Z</time>
      </trkpt>
      <trkpt lat="43.7448" lon="6.65416">
        <ele>1670</ele>
        <time>2024-05-26T09:59:51Z</time>
      </trkpt>
      <trkpt lat="43.7448" lon="6.65416">
        <ele>1669.8</ele>
        <time>2024-05-26T09:59:52Z</time>
      </trkpt>
      <trkpt lat="43.7448" lon="6.65416">
        <ele>1669.7</ele>
        <time>2024-05-26T09:59:53Z</time>
      </trkpt>
      <trkpt lat="43.7448" lon="6.65416">
        <ele>1669.6</ele>
        <time>2024-05-26T09:59:54Z</time>
      </trkpt>
      <trkpt lat="43.7448" lon="6.65416">
        <ele>1669.6</ele>
        <time>2024-05-26T09:59:55Z</time>
      </trkpt>
      <trkpt lat="43.74481" lon="6.65416">
        <ele>1669.5</ele>
        <time>2024-05-26T09:59:56Z</time>
      </trkpt>
      <trkpt lat="43.74481" lon="6.65416">
        <ele>1669.5</ele>
        <time>2024-05-26T09:59:57Z</time>
      </trkpt>
      <trkpt lat="43.74481" lon="6.65415">
        <ele>1669.5</ele>
        <time>2024-05-26T09:59:58Z</time>
      </trkpt>
      <trkpt lat="43.74481" lon="6.65415">
        <ele>1669.5</ele>
        <time>2024-05-26T09:59:59Z</time>
      </trkpt>
      <trkpt lat="43.74481" lon="6.65415">
        <ele>1669.4</ele>
        <time>2024-05-26T10:00:00Z</time>
      </trkpt>
      <trkpt lat="43.74481" lon="6.65415">
        <ele>1669.4</ele>
        <time>2024-05-26T10:00:01Z</time>
      </trkpt>
      <trkpt lat="43.74481" lon="6.65415">
        <ele>1669.4</ele>
        <time>2024-05-26T10:00:02Z</time>
      </trkpt>
      <trkpt lat="43.74481" lon="6.65415">
        <ele>1669.2</ele>
        <time>2024-05-26T10:00:03Z</time>
      </trkpt>
      <trkpt lat="43.74481" lon="6.65416">
        <ele>1669.1</ele>
        <time>2024-05-26T10:00:04Z</time>
      </trkpt>
      <trkpt lat="43.74481" lon="6.65416">
        <ele>1669.1</ele>
        <time>2024-05-26T10:00:05Z</time>
      </trkpt>
      <trkpt lat="43.74481" lon="6.65416">
        <ele>1669.1</ele>
        <time>2024-05-26T10:00:06Z</time>
      </trkpt>
      <trkpt lat="43.74481" lon="6.65416">
        <ele>1669.1</ele>
        <time>2024-05-26T10:00:07Z</time>
      </trkpt>
      <trkpt lat="43.74481" lon="6.65416">
        <ele>1669.1</ele>
        <time>2024-05-26T10:00:08Z</time>
      </trkpt>
      <trkpt lat="43.74481" lon="6.65416">
        <ele>1669</ele>
        <time>2024-05-26T10:00:09Z</time>
      </trkpt>
      <trkpt lat="43.74481" lon="6.65416">
        <ele>1669</ele>
        <time>2024-05-26T10:00:10Z</time>
      </trkpt>
      <trkpt lat="43.74482" lon="6.65416">
        <ele>1669</ele>
        <time>2024-05-26T10:00:11Z</time>
      </trkpt>
      <trkpt lat="43.74482" lon="6.65416">
        <ele>1669</ele>
        <time>2024-05-26T10:00:12Z</time>
      </trkpt>
      <trkpt lat="43.74482" lon="6.65416">
        <ele>1669</ele>
        <time>2024-05-26T10:00:13Z</time>
      </trkpt>
      <trkpt lat="43.74482" lon="6.65416">
        <ele>1669</ele>
        <time>2024-05-26T10:00:14Z</time>
      </trkpt>
      <trkpt lat="43.74482" lon="6.65416">
        <ele>1669.1</ele>
        <time>2024-05-26T10:00:15Z</time>
      </trkpt>
      <trkpt lat="43.74482" lon="6.65416">
        <ele>1669.1</ele>
        <time>2024-05-26T10:00:16Z</time>
      </trkpt>
      <trkpt lat="43.74482" lon="6.65416">
        <ele>1669</ele>
        <time>2024-05-26T10:00:17Z</time>
      </trkpt>
      <trkpt lat="43.74482" lon="6.65416">
        <ele>1669</ele>
        <time>2024-05-26T10:00:18Z</time>
      </trkpt>
      <trkpt lat="43.74482" lon="6.65416">
        <ele>1668.9</ele>
        <time>2024-05-26T10:00:19Z</time>
      </trkpt>
      <trkpt lat="43.74482" lon="6.65416">
        <ele>1668.9</ele>
        <time>2024-05-26T10:00:20Z</time>
      </trkpt>
      <trkpt lat="43.74482" lon="6.65416">
        <ele>1668.9</ele>
        <time>2024-05-26T10:00:21Z</time>
      </trkpt>
      <trkpt lat="43.74482" lon="6.65416">
        <ele>1669</ele>
        <time>2024-05-26T10:00:22Z</time>
      </trkpt>
      <trkpt lat="43.74481" lon="6.65417">
        <ele>1669.1</ele>
        <time>2024-05-26T10:00:23Z</time>
      </trkpt>
      <trkpt lat="43.74481" lon="6.65417">
        <ele>1669.1</ele>
        <time>2024-05-26T10:00:24Z</time>
      </trkpt>
      <trkpt lat="43.74481" lon="6.65418">
        <ele>1669.1</ele>
        <time>2024-05-26T10:00:25Z</time>
      </trkpt>
      <trkpt lat="43.74481" lon="6.65418">
        <ele>1669</ele>
        <time>2024-05-26T10:00:26Z</time>
      </trkpt>
      <trkpt lat="43.74481" lon="6.65419">
        <ele>1669</ele>
        <time>2024-05-26T10:00:27Z</time>
      </trkpt>
      <trkpt lat="43.74481" lon="6.65418">
        <ele>1668.9</ele>
        <time>2024-05-26T10:00:28Z</time>
      </trkpt>
      <trkpt lat="43.74481" lon="6.65418">
        <ele>1669</ele>
        <time>2024-05-26T10:00:29Z</time>
      </trkpt>
      <trkpt lat="43.7448" lon="6.65418">
        <ele>1669</ele>
        <time>2024-05-26T10:00:30Z</time>
      </trkpt>
      <trkpt lat="43.74479" lon="6.65418">
        <ele>1668.9</ele>
        <time>2024-05-26T10:00:31Z</time>
      </trkpt>
      <trkpt lat="43.74479" lon="6.65418">
        <ele>1668.9</ele>
        <time>2024-05-26T10:00:32Z</time>
      </trkpt>
      <trkpt lat="43.74478" lon="6.65418">
        <ele>1669</ele>
        <time>2024-05-26T10:00:33Z</time>
      </trkpt>
      <trkpt lat="43.74478" lon="6.65418">
        <ele>1669.1</ele>
        <time>2024-05-26T10:00:34Z</time>
      </trkpt>
      <trkpt lat="43.74477" lon="6.65419">
        <ele>1669.2</ele>
        <time>2024-05-26T10:00:35Z</time>
      </trkpt>
      <trkpt lat="43.74477" lon="6.65419">
        <ele>1669.4</ele>
        <time>2024-05-26T10:00:36Z</time>
      </trkpt>
      <trkpt lat="43.74477" lon="6.65419">
        <ele>1669.4</ele>
        <time>2024-05-26T10:00:37Z</time>
      </trkpt>
      <trkpt lat="43.74478" lon="6.65419">
        <ele>1669.4</ele>
        <time>2024-05-26T10:00:38Z</time>
      </trkpt>
      <trkpt lat="43.74478" lon="6.65419">
        <ele>1669.5</ele>
        <time>2024-05-26T10:00:39Z</time>
      </trkpt>
      <trkpt lat="43.74478" lon="6.65419">
        <ele>1669.6</ele>
        <time>2024-05-26T10:00:40Z</time>
      </trkpt>
      <trkpt lat="43.74478" lon="6.6542">
        <ele>1669.6</ele>
        <time>2024-05-26T10:00:41Z</time>
      </trkpt>
      <trkpt lat="43.74478" lon="6.6542">
        <ele>1669.7</ele>
        <time>2024-05-26T10:00:42Z</time>
      </trkpt>
      <trkpt lat="43.74478" lon="6.6542">
        <ele>1669.7</ele>
        <time>2024-05-26T10:00:43Z</time>
      </trkpt>
      <trkpt lat="43.74478" lon="6.6542">
        <ele>1669.7</ele>
        <time>2024-05-26T10:00:44Z</time>
      </trkpt>
      <trkpt lat="43.74478" lon="6.6542">
        <ele>1669.7</ele>
        <time>2024-05-26T10:00:45Z</time>
      </trkpt>
      <trkpt lat="43.74478" lon="6.65421">
        <ele>1669.7</ele>
        <time>2024-05-26T10:00:46Z</time>
      </trkpt>
      <trkpt lat="43.74478" lon="6.65421">
        <ele>1669.7</ele>
        <time>2024-05-26T10:00:47Z</time>
      </trkpt>
      <trkpt lat="43.74479" lon="6.65421">
        <ele>1669.6</ele>
        <time>2024-05-26T10:00:48Z</time>
      </trkpt>
      <trkpt lat="43.7448" lon="6.6542">
        <ele>1669.5</ele>
        <time>2024-05-26T10:00:49Z</time>
      </trkpt>
      <trkpt lat="43.7448" lon="6.65419">
        <ele>1669.4</ele>
        <time>2024-05-26T10:00:50Z</time>
      </trkpt>
      <trkpt lat="43.7448" lon="6.65419">
        <ele>1669.3</ele>
        <time>2024-05-26T10:00:51Z</time>
      </trkpt>
      <trkpt lat="43.74481" lon="6.6542">
        <ele>1669.3</ele>
        <time>2024-05-26T10:00:52Z</time>
      </trkpt>
      <trkpt lat="43.74481" lon="6.65421">
        <ele>1669.1</ele>
        <time>2024-05-26T10:00:53Z</time>
      </trkpt>
      <trkpt lat="43.74482" lon="6.65422">
        <ele>1668.9</ele>
        <time>2024-05-26T10:00:54Z</time>
      </trkpt>
      <trkpt lat="43.74482" lon="6.65422">
        <ele>1668.7</ele>
        <time>2024-05-26T10:00:55Z</time>
      </trkpt>
      <trkpt lat="43.74483" lon="6.65423">
        <ele>1668.6</ele>
        <time>2024-05-26T10:00:56Z</time>
      </trkpt>
      <trkpt lat="43.74483" lon="6.65424">
        <ele>1668.5</ele>
        <time>2024-05-26T10:00:57Z</time>
      </trkpt>
      <trkpt lat="43.74483" lon="6.65425">
        <ele>1668.3</ele>
        <time>2024-05-26T10:00:58Z</time>
      </trkpt>
      <trkpt lat="43.74484" lon="6.65426">
        <ele>1668.2</ele>
        <time>2024-05-26T10:00:59Z</time>
      </trkpt>
      <trkpt lat="43.74484" lon="6.65428">
        <ele>1668</ele>
        <time>2024-05-26T10:01:00Z</time>
      </trkpt>
      <trkpt lat="43.74485" lon="6.65429">
        <ele>1667.9</ele>
        <time>2024-05-26T10:01:01Z</time>
      </trkpt>
      <trkpt lat="43.74486" lon="6.6543">
        <ele>1667.7</ele>
        <time>2024-05-26T10:01:02Z</time>
      </trkpt>
      <trkpt lat="43.74486" lon="6.6543">
        <ele>1667.5</ele>
        <time>2024-05-26T10:01:03Z</time>
      </trkpt>
      <trkpt lat="43.74487" lon="6.65432">
        <ele>1667.2</ele>
        <time>2024-05-26T10:01:04Z</time>
      </trkpt>
      <trkpt lat="43.74488" lon="6.65433">
        <ele>1666.9</ele>
        <time>2024-05-26T10:01:05Z</time>
      </trkpt>
      <trkpt lat="43.74488" lon="6.65434">
        <ele>1666.7</ele>
        <time>2024-05-26T10:01:06Z</time>
      </trkpt>
      <trkpt lat="43.74489" lon="6.65435">
        <ele>1666.5</ele>
        <time>2024-05-26T10:01:07Z</time>
      </trkpt>
      <trkpt lat="43.74489" lon="6.65436">
        <ele>1666.2</ele>
        <time>2024-05-26T10:01:08Z</time>
      </trkpt>
      <trkpt lat="43.7449" lon="6.65437">
        <ele>1665.9</ele>
        <time>2024-05-26T10:01:09Z</time>
      </trkpt>
      <trkpt lat="43.7449" lon="6.65439">
        <ele>1665.7</ele>
        <time>2024-05-26T10:01:10Z</time>
      </trkpt>
      <trkpt lat="43.7449" lon="6.6544">
        <ele>1665.4</ele>
        <time>2024-05-26T10:01:11Z</time>
      </trkpt>
      <trkpt lat="43.74491" lon="6.65441">
        <ele>1665.2</ele>
        <time>2024-05-26T10:01:12Z</time>
      </trkpt>
      <trkpt lat="43.74491" lon="6.65442">
        <ele>1665</ele>
        <time>2024-05-26T10:01:13Z</time>
      </trkpt>
      <trkpt lat="43.74491" lon="6.65444">
        <ele>1664.8</ele>
        <time>2024-05-26T10:01:14Z</time>
      </trkpt>
      <trkpt lat="43.74492" lon="6.65445">
        <ele>1664.6</ele>
        <time>2024-05-26T10:01:15Z</time>
      </trkpt>
      <trkpt lat="43.74492" lon="6.65446">
        <ele>1664.4</ele>
        <time>2024-05-26T10:01:16Z</time>
      </trkpt>
      <trkpt lat="43.74493" lon="6.65447">
        <ele>1664.1</ele>
        <time>2024-05-26T10:01:17Z</time>
      </trkpt>
      <trkpt lat="43.74493" lon="6.65448">
        <ele>1664</ele>
        <time>2024-05-26T10:01:18Z</time>
      </trkpt>
      <trkpt lat="43.74493" lon="6.65449">
        <ele>1663.8</ele>
        <time>2024-05-26T10:01:19Z</time>
      </trkpt>
      <trkpt lat="43.74493" lon="6.6545">
        <ele>1663.6</ele>
        <time>2024-05-26T10:01:20Z</time>
      </trkpt>
      <trkpt lat="43.74493" lon="6.65451">
        <ele>1663.6</ele>
        <time>2024-05-26T10:01:21Z</time>
      </trkpt>
      <trkpt lat="43.74493" lon="6.65452">
        <ele>1663.5</ele>
        <time>2024-05-26T10:01:22Z</time>
      </trkpt>
      <trkpt lat="43.74493" lon="6.65454">
        <ele>1663.5</ele>
        <time>2024-05-26T10:01:23Z</time>
      </trkpt>
      <trkpt lat="43.74493" lon="6.65455">
        <ele>1663.4</ele>
        <time>2024-05-26T10:01:24Z</time>
      </trkpt>
      <trkpt lat="43.74493" lon="6.65457">
        <ele>1663.3</ele>
        <time>2024-05-26T10:01:25Z</time>
      </trkpt>
      <trkpt lat="43.74493" lon="6.65459">
        <ele>1663.2</ele>
        <time>2024-05-26T10:01:26Z</time>
      </trkpt>
      <trkpt lat="43.74493" lon="6.6546">
        <ele>1663</ele>
        <time>2024-05-26T10:01:27Z</time>
      </trkpt>
      <trkpt lat="43.74493" lon="6.65462">
        <ele>1662.9</ele>
        <time>2024-05-26T10:01:28Z</time>
      </trkpt>
      <trkpt lat="43.74493" lon="6.65463">
        <ele>1662.6</ele>
        <time>2024-05-26T10:01:29Z</time>
      </trkpt>
      <trkpt lat="43.74493" lon="6.65465">
        <ele>1662.4</ele>
        <time>2024-05-26T10:01:30Z</time>
      </trkpt>
      <trkpt lat="43.74493" lon="6.65466">
        <ele>1662.2</ele>
        <time>2024-05-26T10:01:31Z</time>
      </trkpt>
      <trkpt lat="43.74493" lon="6.65468">
        <ele>1662</ele>
        <time>2024-05-26T10:01:32Z</time>
      </trkpt>
      <trkpt lat="43.74494" lon="6.65469">
        <ele>1661.8</ele>
        <time>2024-05-26T10:01:33Z</time>
      </trkpt>
      <trkpt lat="43.74494" lon="6.6547">
        <ele>1661.6</ele>
        <time>2024-05-26T10:01:34Z</time>
      </trkpt>
      <trkpt lat="43.74494" lon="6.65472">
        <ele>1661.4</ele>
        <time>2024-05-26T10:01:35Z</time>
      </trkpt>
      <trkpt lat="43.74494" lon="6.65475">
        <ele>1661.2</ele>
        <time>2024-05-26T10:01:36Z</time>
      </trkpt>
      <trkpt lat="43.74494" lon="6.65476">
        <ele>1661.1</ele>
        <time>2024-05-26T10:01:37Z</time>
      </trkpt>
      <trkpt lat="43.74494" lon="6.65477">
        <ele>1661</ele>
        <time>2024-05-26T10:01:38Z</time>
      </trkpt>
      <trkpt lat="43.74494" lon="6.65478">
        <ele>1660.9</ele>
        <time>2024-05-26T10:01:39Z</time>
      </trkpt>
      <trkpt lat="43.74494" lon="6.65479">
        <ele>1660.8</ele>
        <time>2024-05-26T10:01:40Z</time>
      </trkpt>
      <trkpt lat="43.74494" lon="6.65481">
        <ele>1660.8</ele>
        <time>2024-05-26T10:01:41Z</time>
      </trkpt>
      <trkpt lat="43.74494" lon="6.65482">
        <ele>1660.8</ele>
        <time>2024-05-26T10:01:42Z</time>
      </trkpt>
      <trkpt lat="43.74495" lon="6.65484">
        <ele>1660.7</ele>
        <time>2024-05-26T10:01:43Z</time>
      </trkpt>
      <trkpt lat="43.74495" lon="6.65485">
        <ele>1660.7</ele>
        <time>2024-05-26T10:01:44Z</time>
      </trkpt>
      <trkpt lat="43.74495" lon="6.65486">
        <ele>1660.7</ele>
        <time>2024-05-26T10:01:45Z</time>
      </trkpt>
      <trkpt lat="43.74495" lon="6.65487">
        <ele>1660.6</ele>
        <time>2024-05-26T10:01:46Z</time>
      </trkpt>
      <trkpt lat="43.74495" lon="6.65488">
        <ele>1660.5</ele>
        <time>2024-05-26T10:01:47Z</time>
      </trkpt>
      <trkpt lat="43.74496" lon="6.6549">
        <ele>1660.4</ele>
        <time>2024-05-26T10:01:48Z</time>
      </trkpt>
      <trkpt lat="43.74496" lon="6.65491">
        <ele>1660.3</ele>
        <time>2024-05-26T10:01:49Z</time>
      </trkpt>
      <trkpt lat="43.74495" lon="6.65493">
        <ele>1660.2</ele>
        <time>2024-05-26T10:01:50Z</time>
      </trkpt>
      <trkpt lat="43.74495" lon="6.65494">
        <ele>1660.2</ele>
        <time>2024-05-26T10:01:51Z</time>
      </trkpt>
      <trkpt lat="43.74495" lon="6.65495">
        <ele>1660.1</ele>
        <time>2024-05-26T10:01:52Z</time>
      </trkpt>
      <trkpt lat="43.74495" lon="6.65496">
        <ele>1660</ele>
        <time>2024-05-26T10:01:53Z</time>
      </trkpt>
      <trkpt lat="43.74495" lon="6.65497">
        <ele>1660</ele>
        <time>2024-05-26T10:01:54Z</time>
      </trkpt>
      <trkpt lat="43.74494" lon="6.65499">
        <ele>1659.9</ele>
        <time>2024-05-26T10:01:55Z</time>
      </trkpt>
      <trkpt lat="43.74495" lon="6.65499">
        <ele>1659.7</ele>
        <time>2024-05-26T10:01:56Z</time>
      </trkpt>
      <trkpt lat="43.74495" lon="6.655">
        <ele>1659.6</ele>
        <time>2024-05-26T10:01:57Z</time>
      </trkpt>
      <trkpt lat="43.74495" lon="6.65501">
        <ele>1659.5</ele>
        <time>2024-05-26T10:01:58Z</time>
      </trkpt>
      <trkpt lat="43.74494" lon="6.65502">
        <ele>1659.5</ele>
        <time>2024-05-26T10:01:59Z</time>
      </trkpt>
      <trkpt lat="43.74494" lon="6.65503">
        <ele>1659.4</ele>
        <time>2024-05-26T10:02:00Z</time>
      </trkpt>
      <trkpt lat="43.74494" lon="6.65504">
        <ele>1659.3</ele>
        <time>2024-05-26T10:02:01Z</time>
      </trkpt>
      <trkpt lat="43.74494" lon="6.65506">
        <ele>1659.1</ele>
        <time>2024-05-26T10:02:02Z</time>
      </trkpt>
      <trkpt lat="43.74493" lon="6.65508">
        <ele>1659</ele>
        <time>2024-05-26T10:02:03Z</time>
      </trkpt>
      <trkpt lat="43.74493" lon="6.65509">
        <ele>1658.9</ele>
        <time>2024-05-26T10:02:04Z</time>
      </trkpt>
      <trkpt lat="43.74493" lon="6.6551">
        <ele>1658.9</ele>
        <time>2024-05-26T10:02:05Z</time>
      </trkpt>
      <trkpt lat="43.74493" lon="6.65511">
        <ele>1658.6</ele>
        <time>2024-05-26T10:02:06Z</time>
      </trkpt>
      <trkpt lat="43.74494" lon="6.65512">
        <ele>1658.4</ele>
        <time>2024-05-26T10:02:07Z</time>
      </trkpt>
      <trkpt lat="43.74493" lon="6.65512">
        <ele>1658.3</ele>
        <time>2024-05-26T10:02:08Z</time>
      </trkpt>
      <trkpt lat="43.74493" lon="6.65513">
        <ele>1658.2</ele>
        <time>2024-05-26T10:02:09Z</time>
      </trkpt>
      <trkpt lat="43.74493" lon="6.65513">
        <ele>1658.1</ele>
        <time>2024-05-26T10:02:10Z</time>
      </trkpt>
      <trkpt lat="43.74493" lon="6.65514">
        <ele>1658</ele>
        <time>2024-05-26T10:02:11Z</time>
      </trkpt>
      <trkpt lat="43.74493" lon="6.65515">
        <ele>1657.9</ele>
        <time>2024-05-26T10:02:12Z</time>
      </trkpt>
      <trkpt lat="43.74493" lon="6.65516">
        <ele>1657.8</ele>
        <time>2024-05-26T10:02:13Z</time>
      </trkpt>
      <trkpt lat="43.74493" lon="6.65517">
        <ele>1657.7</ele>
        <time>2024-05-26T10:02:14Z</time>
      </trkpt>
      <trkpt lat="43.74493" lon="6.65518">
        <ele>1657.6</ele>
        <time>2024-05-26T10:02:15Z</time>
      </trkpt>
      <trkpt lat="43.74493" lon="6.65519">
        <ele>1657.5</ele>
        <time>2024-05-26T10:02:16Z</time>
      </trkpt>
      <trkpt lat="43.74493" lon="6.6552">
        <ele>1657.4</ele>
        <time>2024-05-26T10:02:17Z</time>
      </trkpt>
      <trkpt lat="43.74493" lon="6.65521">
        <ele>1657.3</ele>
        <time>2024-05-26T10:02:18Z</time>
      </trkpt>
      <trkpt lat="43.74493" lon="6.65522">
        <ele>1657.2</ele>
        <time>2024-05-26T10:02:19Z</time>
      </trkpt>
      <trkpt lat="43.74492" lon="6.65523">
        <ele>1657.1</ele>
        <time>2024-05-26T10:02:20Z</time>
      </trkpt>
      <trkpt lat="43.74493" lon="6.65524">
        <ele>1657</ele>
        <time>2024-05-26T10:02:21Z</time>
      </trkpt>
      <trkpt lat="43.74493" lon="6.65525">
        <ele>1656.8</ele>
        <time>2024-05-26T10:02:22Z</time>
      </trkpt>
      <trkpt lat="43.74492" lon="6.65526">
        <ele>1656.7</ele>
        <time>2024-05-26T10:02:23Z</time>
      </trkpt>
      <trkpt lat="43.74492" lon="6.65527">
        <ele>1656.5</ele>
        <time>2024-05-26T10:02:24Z</time>
      </trkpt>
      <trkpt lat="43.74492" lon="6.65528">
        <ele>1656.3</ele>
        <time>2024-05-26T10:02:25Z</time>
      </trkpt>
      <trkpt lat="43.74492" lon="6.65529">
        <ele>1656.1</ele>
        <time>2024-05-26T10:02:26Z</time>
      </trkpt>
      <trkpt lat="43.74492" lon="6.6553">
        <ele>1656</ele>
        <time>2024-05-26T10:02:27Z</time>
      </trkpt>
      <trkpt lat="43.74492" lon="6.65531">
        <ele>1655.7</ele>
        <time>2024-05-26T10:02:28Z</time>
      </trkpt>
      <trkpt lat="43.74492" lon="6.65531">
        <ele>1655.5</ele>
        <time>2024-05-26T10:02:29Z</time>
      </trkpt>
      <trkpt lat="43.74492" lon="6.65532">
        <ele>1655.4</ele>
        <time>2024-05-26T10:02:30Z</time>
      </trkpt>
      <trkpt lat="43.74492" lon="6.65533">
        <ele>1655.2</ele>
        <time>2024-05-26T10:02:31Z</time>
      </trkpt>
      <trkpt lat="43.74492" lon="6.65534">
        <ele>1655</ele>
        <time>2024-05-26T10:02:32Z</time>
      </trkpt>
      <trkpt lat="43.74492" lon="6.65535">
        <ele>1654.7</ele>
        <time>2024-05-26T10:02:33Z</time>
      </trkpt>
      <trkpt lat="43.74492" lon="6.65536">
        <ele>1654.4</ele>
        <time>2024-05-26T10:02:34Z</time>
      </trkpt>
      <trkpt lat="43.74491" lon="6.65537">
        <ele>1654.2</ele>
        <time>2024-05-26T10:02:35Z</time>
      </trkpt>
      <trkpt lat="43.74491" lon="6.65538">
        <ele>1653.9</ele>
        <time>2024-05-26T10:02:36Z</time>
      </trkpt>
      <trkpt lat="43.74491" lon="6.65539">
        <ele>1653.8</ele>
        <time>2024-05-26T10:02:37Z</time>
      </trkpt>
      <trkpt lat="43.74491" lon="6.6554">
        <ele>1653.6</ele>
        <time>2024-05-26T10:02:38Z</time>
      </trkpt>
      <trkpt lat="43.74491" lon="6.65541">
        <ele>1653.4</ele>
        <time>2024-05-26T10:02:39Z</time>
      </trkpt>
      <trkpt lat="43.74491" lon="6.65541">
        <ele>1653.3</ele>
        <time>2024-05-26T10:02:40Z</time>
      </trkpt>
      <trkpt lat="43.74491" lon="6.65542">
        <ele>1653.1</ele>
        <time>2024-05-26T10:02:41Z</time>
      </trkpt>
      <trkpt lat="43.7449" lon="6.65543">
        <ele>1653</ele>
        <time>2024-05-26T10:02:42Z</time>
      </trkpt>
      <trkpt lat="43.7449" lon="6.65544">
        <ele>1652.8</ele>
        <time>2024-05-26T10:02:43Z</time>
      </trkpt>
      <trkpt lat="43.7449" lon="6.65545">
        <ele>1652.5</ele>
        <time>2024-05-26T10:02:44Z</time>
      </trkpt>
      <trkpt lat="43.7449" lon="6.65546">
        <ele>1652.3</ele>
        <time>2024-05-26T10:02:45Z</time>
      </trkpt>
      <trkpt lat="43.7449" lon="6.65547">
        <ele>1652.1</ele>
        <time>2024-05-26T10:02:46Z</time>
      </trkpt>
      <trkpt lat="43.7449" lon="6.65548">
        <ele>1652</ele>
        <time>2024-05-26T10:02:47Z</time>
      </trkpt>
      <trkpt lat="43.7449" lon="6.65548">
        <ele>1651.9</ele>
        <time>2024-05-26T10:02:48Z</time>
      </trkpt>
      <trkpt lat="43.7449" lon="6.65549">
        <ele>1651.7</ele>
        <time>2024-05-26T10:02:49Z</time>
      </trkpt>
      <trkpt lat="43.7449" lon="6.6555">
        <ele>1651.4</ele>
        <time>2024-05-26T10:02:50Z</time>
      </trkpt>
      <trkpt lat="43.74489" lon="6.65551">
        <ele>1651.2</ele>
        <time>2024-05-26T10:02:51Z</time>
      </trkpt>
      <trkpt lat="43.74489" lon="6.65552">
        <ele>1651</ele>
        <time>2024-05-26T10:02:52Z</time>
      </trkpt>
      <trkpt lat="43.74489" lon="6.65553">
        <ele>1650.9</ele>
        <time>2024-05-26T10:02:53Z</time>
      </trkpt>
      <trkpt lat="43.7449" lon="6.65554">
        <ele>1650.8</ele>
        <time>2024-05-26T10:02:54Z</time>
      </trkpt>
      <trkpt lat="43.7449" lon="6.65554">
        <ele>1650.7</ele>
        <time>2024-05-26T10:02:55Z</time>
      </trkpt>
      <trkpt lat="43.7449" lon="6.65555">
        <ele>1650.7</ele>
        <time>2024-05-26T10:02:56Z</time>
      </trkpt>
      <trkpt lat="43.7449" lon="6.65556">
        <ele>1650.4</ele>
        <time>2024-05-26T10:02:57Z</time>
      </trkpt>
      <trkpt lat="43.7449" lon="6.65557">
        <ele>1650.3</ele>
        <time>2024-05-26T10:02:58Z</time>
      </trkpt>
      <trkpt lat="43.7449" lon="6.65558">
        <ele>1650.1</ele>
        <time>2024-05-26T10:02:59Z</time>
      </trkpt>
      <trkpt lat="43.7449" lon="6.65559">
        <ele>1649.9</ele>
        <time>2024-05-26T10:03:00Z</time>
      </trkpt>
      <trkpt lat="43.74489" lon="6.65559">
        <ele>1649.7</ele>
        <time>2024-05-26T10:03:01Z</time>
      </trkpt>
      <trkpt lat="43.74489" lon="6.65559">
        <ele>1649.5</ele>
        <time>2024-05-26T10:03:02Z</time>
      </trkpt>
      <trkpt lat="43.74489" lon="6.65559">
        <ele>1649.4</ele>
        <time>2024-05-26T10:03:03Z</time>
      </trkpt>
      <trkpt lat="43.74489" lon="6.65559">
        <ele>1649.4</ele>
        <time>2024-05-26T10:03:04Z</time>
      </trkpt>
      <trkpt lat="43.74489" lon="6.65559">
        <ele>1649.3</ele>
        <time>2024-05-26T10:03:05Z</time>
      </trkpt>
      <trkpt lat="43.74489" lon="6.65559">
        <ele>1649.2</ele>
        <time>2024-05-26T10:03:06Z</time>
      </trkpt>
      <trkpt lat="43.74489" lon="6.6556">
        <ele>1649.1</ele>
        <time>2024-05-26T10:03:07Z</time>
      </trkpt>
      <trkpt lat="43.7449" lon="6.6556">
        <ele>1649.1</ele>
        <time>2024-05-26T10:03:08Z</time>
      </trkpt>
      <trkpt lat="43.7449" lon="6.6556">
        <ele>1649</ele>
        <time>2024-05-26T10:03:09Z</time>
      </trkpt>
      <trkpt lat="43.7449" lon="6.6556">
        <ele>1649</ele>
        <time>2024-05-26T10:03:10Z</time>
      </trkpt>
      <trkpt lat="43.74489" lon="6.65561">
        <ele>1649</ele>
        <time>2024-05-26T10:03:11Z</time>
      </trkpt>
      <trkpt lat="43.74489" lon="6.65561">
        <ele>1648.9</ele>
        <time>2024-05-26T10:03:12Z</time>
      </trkpt>
      <trkpt lat="43.74489" lon="6.65562">
        <ele>1648.7</ele>
        <time>2024-05-26T10:03:13Z</time>
      </trkpt>
      <trkpt lat="43.74489" lon="6.65563">
        <ele>1648.6</ele>
        <time>2024-05-26T10:03:14Z</time>
      </trkpt>
      <trkpt lat="43.74489" lon="6.65564">
        <ele>1648.5</ele>
        <time>2024-05-26T10:03:15Z</time>
      </trkpt>
      <trkpt lat="43.74489" lon="6.65565">
        <ele>1648.4</ele>
        <time>2024-05-26T10:03:16Z</time>
      </trkpt>
      <trkpt lat="43.74489" lon="6.65565">
        <ele>1648.3</ele>
        <time>2024-05-26T10:03:17Z</time>
      </trkpt>
      <trkpt lat="43.74489" lon="6.65567">
        <ele>1648.2</ele>
        <time>2024-05-26T10:03:18Z</time>
      </trkpt>
      <trkpt lat="43.74489" lon="6.65568">
        <ele>1648</ele>
        <time>2024-05-26T10:03:19Z</time>
      </trkpt>
      <trkpt lat="43.74489" lon="6.65569">
        <ele>1647.9</ele>
        <time>2024-05-26T10:03:20Z</time>
      </trkpt>
      <trkpt lat="43.74489" lon="6.6557">
        <ele>1647.8</ele>
        <time>2024-05-26T10:03:21Z</time>
      </trkpt>
      <trkpt lat="43.74489" lon="6.6557">
        <ele>1647.8</ele>
        <time>2024-05-26T10:03:22Z</time>
      </trkpt>
      <trkpt lat="43.74489" lon="6.65571">
        <ele>1647.6</ele>
        <time>2024-05-26T10:03:23Z</time>
      </trkpt>
      <trkpt lat="43.74489" lon="6.65571">
        <ele>1647.5</ele>
        <time>2024-05-26T10:03:24Z</time>
      </trkpt>
      <trkpt lat="43.74489" lon="6.65571">
        <ele>1647.4</ele>
        <time>2024-05-26T10:03:25Z</time>
      </trkpt>
      <trkpt lat="43.74489" lon="6.65571">
        <ele>1647.3</ele>
        <time>2024-05-26T10:03:26Z</time>
      </trkpt>
      <trkpt lat="43.74489" lon="6.65571">
        <ele>1647.3</ele>
        <time>2024-05-26T10:03:27Z</time>
      </trkpt>
      <trkpt lat="43.74489" lon="6.65571">
        <ele>1647.2</ele>
        <time>2024-05-26T10:03:28Z</time>
      </trkpt>
      <trkpt lat="43.74489" lon="6.65571">
        <ele>1647.2</ele>
        <time>2024-05-26T10:03:29Z</time>
      </trkpt>
      <trkpt lat="43.74489" lon="6.65572">
        <ele>1647.1</ele>
        <time>2024-05-26T10:03:30Z</time>
      </trkpt>
      <trkpt lat="43.74489" lon="6.65574">
        <ele>1647</ele>
        <time>2024-05-26T10:03:31Z</time>
      </trkpt>
      <trkpt lat="43.74489" lon="6.65575">
        <ele>1646.9</ele>
        <time>2024-05-26T10:03:32Z</time>
      </trkpt>
      <trkpt lat="43.74489" lon="6.65576">
        <ele>1646.8</ele>
        <time>2024-05-26T10:03:33Z</time>
      </trkpt>
      <trkpt lat="43.74489" lon="6.65578">
        <ele>1646.5</ele>
        <time>2024-05-26T10:03:34Z</time>
      </trkpt>
      <trkpt lat="43.74489" lon="6.65579">
        <ele>1646.3</ele>
        <time>2024-05-26T10:03:35Z</time>
      </trkpt>
      <trkpt lat="43.7449" lon="6.6558">
        <ele>1646.1</ele>
        <time>2024-05-26T10:03:36Z</time>
      </trkpt>
      <trkpt lat="43.7449" lon="6.65581">
        <ele>1645.9</ele>
        <time>2024-05-26T10:03:37Z</time>
      </trkpt>
      <trkpt lat="43.7449" lon="6.65582">
        <ele>1645.7</ele>
        <time>2024-05-26T10:03:38Z</time>
      </trkpt>
      <trkpt lat="43.74491" lon="6.65583">
        <ele>1645.4</ele>
        <time>2024-05-26T10:03:39Z</time>
      </trkpt>
      <trkpt lat="43.74491" lon="6.65584">
        <ele>1645.2</ele>
        <time>2024-05-26T10:03:40Z</time>
      </trkpt>
      <trkpt lat="43.74491" lon="6.65585">
        <ele>1645.1</ele>
        <time>2024-05-26T10:03:41Z</time>
      </trkpt>
      <trkpt lat="43.74491" lon="6.65585">
        <ele>1645</ele>
        <time>2024-05-26T10:03:42Z</time>
      </trkpt>
      <trkpt lat="43.74491" lon="6.65585">
        <ele>1644.9</ele>
        <time>2024-05-26T10:03:43Z</time>
      </trkpt>
      <trkpt lat="43.74491" lon="6.65585">
        <ele>1644.8</ele>
        <time>2024-05-26T10:03:44Z</time>
      </trkpt>
      <trkpt lat="43.74491" lon="6.65585">
        <ele>1644.6</ele>
        <time>2024-05-26T10:03:45Z</time>
      </trkpt>
      <trkpt lat="43.74491" lon="6.65586">
        <ele>1644.5</ele>
        <time>2024-05-26T10:03:46Z</time>
      </trkpt>
      <trkpt lat="43.74491" lon="6.65586">
        <ele>1644.5</ele>
        <time>2024-05-26T10:03:47Z</time>
      </trkpt>
      <trkpt lat="43.74491" lon="6.65586">
        <ele>1644.4</ele>
        <time>2024-05-26T10:03:48Z</time>
      </trkpt>
      <trkpt lat="43.74491" lon="6.65586">
        <ele>1644.3</ele>
        <time>2024-05-26T10:03:49Z</time>
      </trkpt>
      <trkpt lat="43.74491" lon="6.65586">
        <ele>1644.2</ele>
        <time>2024-05-26T10:03:50Z</time>
      </trkpt>
      <trkpt lat="43.74491" lon="6.65586">
        <ele>1644.2</ele>
        <time>2024-05-26T10:03:51Z</time>
      </trkpt>
      <trkpt lat="43.74491" lon="6.65586">
        <ele>1644.2</ele>
        <time>2024-05-26T10:03:52Z</time>
      </trkpt>
      <trkpt lat="43.74491" lon="6.65587">
        <ele>1644.1</ele>
        <time>2024-05-26T10:03:53Z</time>
      </trkpt>
      <trkpt lat="43.74491" lon="6.65588">
        <ele>1644.1</ele>
        <time>2024-05-26T10:03:54Z</time>
      </trkpt>
      <trkpt lat="43.74491" lon="6.65588">
        <ele>1644</ele>
        <time>2024-05-26T10:03:55Z</time>
      </trkpt>
      <trkpt lat="43.74491" lon="6.65589">
        <ele>1643.8</ele>
        <time>2024-05-26T10:03:56Z</time>
      </trkpt>
      <trkpt lat="43.74491" lon="6.6559">
        <ele>1643.7</ele>
        <time>2024-05-26T10:03:57Z</time>
      </trkpt>
      <trkpt lat="43.74491" lon="6.6559">
        <ele>1643.6</ele>
        <time>2024-05-26T10:03:58Z</time>
      </trkpt>
      <trkpt lat="43.74491" lon="6.65591">
        <ele>1643.5</ele>
        <time>2024-05-26T10:03:59Z</time>
      </trkpt>
      <trkpt lat="43.74491" lon="6.65592">
        <ele>1643.5</ele>
        <time>2024-05-26T10:04:00Z</time>
      </trkpt>
      <trkpt lat="43.74491" lon="6.65592">
        <ele>1643.4</ele>
        <time>2024-05-26T10:04:01Z</time>
      </trkpt>
      <trkpt lat="43.74491" lon="6.65593">
        <ele>1643.4</ele>
        <time>2024-05-26T10:04:02Z</time>
      </trkpt>
      <trkpt lat="43.74491" lon="6.65594">
        <ele>1643.3</ele>
        <time>2024-05-26T10:04:03Z</time>
      </trkpt>
      <trkpt lat="43.7449" lon="6.65595">
        <ele>1643.3</ele>
        <time>2024-05-26T10:04:04Z</time>
      </trkpt>
      <trkpt lat="43.7449" lon="6.65597">
        <ele>1643.2</ele>
        <time>2024-05-26T10:04:05Z</time>
      </trkpt>
      <trkpt lat="43.74489" lon="6.65598">
        <ele>1643.2</ele>
        <time>2024-05-26T10:04:06Z</time>
      </trkpt>
      <trkpt lat="43.74489" lon="6.65599">
        <ele>1643.1</ele>
        <time>2024-05-26T10:04:07Z</time>
      </trkpt>
      <trkpt lat="43.74489" lon="6.65601">
        <ele>1642.9</ele>
        <time>2024-05-26T10:04:08Z</time>
      </trkpt>
      <trkpt lat="43.74488" lon="6.65603">
        <ele>1642.6</ele>
        <time>2024-05-26T10:04:09Z</time>
      </trkpt>
      <trkpt lat="43.74488" lon="6.65605">
        <ele>1642.4</ele>
        <time>2024-05-26T10:04:10Z</time>
      </trkpt>
      <trkpt lat="43.74488" lon="6.65606">
        <ele>1642.2</ele>
        <time>2024-05-26T10:04:11Z</time>
      </trkpt>
      <trkpt lat="43.74488" lon="6.65608">
        <ele>1642.1</ele>
        <time>2024-05-26T10:04:12Z</time>
      </trkpt>
      <trkpt lat="43.74488" lon="6.65609">
        <ele>1641.9</ele>
        <time>2024-05-26T10:04:13Z</time>
      </trkpt>
      <trkpt lat="43.74488" lon="6.65611">
        <ele>1641.7</ele>
        <time>2024-05-26T10:04:14Z</time>
      </trkpt>
      <trkpt lat="43.74488" lon="6.65612">
        <ele>1641.4</ele>
        <time>2024-05-26T10:04:15Z</time>
      </trkpt>
      <trkpt lat="43.74488" lon="6.65614">
        <ele>1641.1</ele>
        <time>2024-05-26T10:04:16Z</time>
      </trkpt>
      <trkpt lat="43.74489" lon="6.65615">
        <ele>1640.8</ele>
        <time>2024-05-26T10:04:17Z</time>
      </trkpt>
      <trkpt lat="43.74489" lon="6.65617">
        <ele>1640.6</ele>
        <time>2024-05-26T10:04:18Z</time>
      </trkpt>
      <trkpt lat="43.74489" lon="6.65618">
        <ele>1640.3</ele>
        <time>2024-05-26T10:04:19Z</time>
      </trkpt>
      <trkpt lat="43.74489" lon="6.6562">
        <ele>1640</ele>
        <time>2024-05-26T10:04:20Z</time>
      </trkpt>
      <trkpt lat="43.7449" lon="6.65622">
        <ele>1639.8</ele>
        <time>2024-05-26T10:04:21Z</time>
      </trkpt>
      <trkpt lat="43.7449" lon="6.65623">
        <ele>1639.5</ele>
        <time>2024-05-26T10:04:22Z</time>
      </trkpt>
      <trkpt lat="43.7449" lon="6.65624">
        <ele>1639.4</ele>
        <time>2024-05-26T10:04:23Z</time>
      </trkpt>
      <trkpt lat="43.74491" lon="6.65626">
        <ele>1639.2</ele>
        <time>2024-05-26T10:04:24Z</time>
      </trkpt>
      <trkpt lat="43.74491" lon="6.65627">
        <ele>1639</ele>
        <time>2024-05-26T10:04:25Z</time>
      </trkpt>
      <trkpt lat="43.74492" lon="6.65628">
        <ele>1638.8</ele>
        <time>2024-05-26T10:04:26Z</time>
      </trkpt>
      <trkpt lat="43.74493" lon="6.65629">
        <ele>1638.4</ele>
        <time>2024-05-26T10:04:27Z</time>
      </trkpt>
      <trkpt lat="43.74493" lon="6.6563">
        <ele>1638.1</ele>
        <time>2024-05-26T10:04:28Z</time>
      </trkpt>
      <trkpt lat="43.74493" lon="6.65632">
        <ele>1637.9</ele>
        <time>2024-05-26T10:04:29Z</time>
      </trkpt>
      <trkpt lat="43.74493" lon="6.65633">
        <ele>1637.6</ele>
        <time>2024-05-26T10:04:30Z</time>
      </trkpt>
      <trkpt lat="43.74494" lon="6.65634">
        <ele>1637.4</ele>
        <time>2024-05-26T10:04:31Z</time>
      </trkpt>
      <trkpt lat="43.74494" lon="6.65635">
        <ele>1637.2</ele>
        <time>2024-05-26T10:04:32Z</time>
      </trkpt>
      <trkpt lat="43.74494" lon="6.65637">
        <ele>1637</ele>
        <time>2024-05-26T10:04:33Z</time>
      </trkpt>
      <trkpt lat="43.74494" lon="6.65638">
        <ele>1636.9</ele>
        <time>2024-05-26T10:04:34Z</time>
      </trkpt>
      <trkpt lat="43.74494" lon="6.6564">
        <ele>1636.7</ele>
        <time>2024-05-26T10:04:35Z</time>
      </trkpt>
      <trkpt lat="43.74494" lon="6.65641">
        <ele>1636.4</ele>
        <time>2024-05-26T10:04:36Z</time>
      </trkpt>
      <trkpt lat="43.74494" lon="6.65642">
        <ele>1636.2</ele>
        <time>2024-05-26T10:04:37Z</time>
      </trkpt>
      <trkpt lat="43.74494" lon="6.65644">
        <ele>1635.9</ele>
        <time>2024-05-26T10:04:38Z</time>
      </trkpt>
      <trkpt lat="43.74495" lon="6.65645">
        <ele>1635.6</ele>
        <time>2024-05-26T10:04:39Z</time>
      </trkpt>
      <trkpt lat="43.74494" lon="6.65647">
        <ele>1635.4</ele>
        <time>2024-05-26T10:04:40Z</time>
      </trkpt>
      <trkpt lat="43.74494" lon="6.65648">
        <ele>1635.2</ele>
        <time>2024-05-26T10:04:41Z</time>
      </trkpt>
      <trkpt lat="43.74495" lon="6.6565">
        <ele>1634.9</ele>
        <time>2024-05-26T10:04:42Z</time>
      </trkpt>
      <trkpt lat="43.74494" lon="6.65651">
        <ele>1634.7</ele>
        <time>2024-05-26T10:04:43Z</time>
      </trkpt>
      <trkpt lat="43.74494" lon="6.65652">
        <ele>1634.6</ele>
        <time>2024-05-26T10:04:44Z</time>
      </trkpt>
      <trkpt lat="43.74494" lon="6.65654">
        <ele>1634.3</ele>
        <time>2024-05-26T10:04:45Z</time>
      </trkpt>
      <trkpt lat="43.74493" lon="6.65655">
        <ele>1634.1</ele>
        <time>2024-05-26T10:04:46Z</time>
      </trkpt>
      <trkpt lat="43.74493" lon="6.65656">
        <ele>1633.9</ele>
        <time>2024-05-26T10:04:47Z</time>
      </trkpt>
      <trkpt lat="43.74492" lon="6.65658">
        <ele>1633.7</ele>
        <time>2024-05-26T10:04:48Z</time>
      </trkpt>
      <trkpt lat="43.74492" lon="6.65659">
        <ele>1633.4</ele>
        <time>2024-05-26T10:04:49Z</time>
      </trkpt>
      <trkpt lat="43.74492" lon="6.65661">
        <ele>1633.2</ele>
        <time>2024-05-26T10:04:50Z</time>
      </trkpt>
      <trkpt lat="43.74492" lon="6.65663">
        <ele>1633.1</ele>
        <time>2024-05-26T10:04:51Z</time>
      </trkpt>
      <trkpt lat="43.74492" lon="6.65664">
        <ele>1632.9</ele>
        <time>2024-05-26T10:04:52Z</time>
      </trkpt>
      <trkpt lat="43.74493" lon="6.65666">
        <ele>1632.7</ele>
        <time>2024-05-26T10:04:53Z</time>
      </trkpt>
      <trkpt lat="43.74493" lon="6.65667">
        <ele>1632.6</ele>
        <time>2024-05-26T10:04:54Z</time>
      </trkpt>
      <trkpt lat="43.74494" lon="6.65669">
        <ele>1632.4</ele>
        <time>2024-05-26T10:04:55Z</time>
      </trkpt>
      <trkpt lat="43.74494" lon="6.6567">
        <ele>1632.2</ele>
        <time>2024-05-26T10:04:56Z</time>
      </trkpt>
      <trkpt lat="43.74494" lon="6.65672">
        <ele>1632</ele>
        <time>2024-05-26T10:04:57Z</time>
      </trkpt>
      <trkpt lat="43.74494" lon="6.65673">
        <ele>1631.8</ele>
        <time>2024-05-26T10:04:58Z</time>
      </trkpt>
      <trkpt lat="43.74494" lon="6.65675">
        <ele>1631.6</ele>
        <time>2024-05-26T10:04:59Z</time>
      </trkpt>
      <trkpt lat="43.74494" lon="6.65677">
        <ele>1631.4</ele>
        <time>2024-05-26T10:05:00Z</time>
      </trkpt>
      <trkpt lat="43.74494" lon="6.65679">
        <ele>1631.2</ele>
        <time>2024-05-26T10:05:01Z</time>
      </trkpt>
      <trkpt lat="43.74493" lon="6.6568">
        <ele>1630.9</ele>
        <time>2024-05-26T10:05:02Z</time>
      </trkpt>
      <trkpt lat="43.74493" lon="6.65682">
        <ele>1630.6</ele>
        <time>2024-05-26T10:05:03Z</time>
      </trkpt>
      <trkpt lat="43.74492" lon="6.65683">
        <ele>1630.4</ele>
        <time>2024-05-26T10:05:04Z</time>
      </trkpt>
      <trkpt lat="43.74492" lon="6.65685">
        <ele>1630.3</ele>
        <time>2024-05-26T10:05:05Z</time>
      </trkpt>
      <trkpt lat="43.74492" lon="6.65686">
        <ele>1630.1</ele>
        <time>2024-05-26T10:05:06Z</time>
      </trkpt>
      <trkpt lat="43.74491" lon="6.65687">
        <ele>1630</ele>
        <time>2024-05-26T10:05:07Z</time>
      </trkpt>
      <trkpt lat="43.74491" lon="6.65689">
        <ele>1629.8</ele>
        <time>2024-05-26T10:05:08Z</time>
      </trkpt>
      <trkpt lat="43.74491" lon="6.6569">
        <ele>1629.6</ele>
        <time>2024-05-26T10:05:09Z</time>
      </trkpt>
      <trkpt lat="43.74491" lon="6.65691">
        <ele>1629.4</ele>
        <time>2024-05-26T10:05:10Z</time>
      </trkpt>
      <trkpt lat="43.7449" lon="6.65692">
        <ele>1629.3</ele>
        <time>2024-05-26T10:05:11Z</time>
      </trkpt>
      <trkpt lat="43.7449" lon="6.65693">
        <ele>1629.2</ele>
        <time>2024-05-26T10:05:12Z</time>
      </trkpt>
      <trkpt lat="43.7449" lon="6.65694">
        <ele>1629.1</ele>
        <time>2024-05-26T10:05:13Z</time>
      </trkpt>
      <trkpt lat="43.7449" lon="6.65695">
        <ele>1629</ele>
        <time>2024-05-26T10:05:14Z</time>
      </trkpt>
      <trkpt lat="43.74489" lon="6.65696">
        <ele>1628.9</ele>
        <time>2024-05-26T10:05:15Z</time>
      </trkpt>
      <trkpt lat="43.74489" lon="6.65697">
        <ele>1628.9</ele>
        <time>2024-05-26T10:05:16Z</time>
      </trkpt>
      <trkpt lat="43.74488" lon="6.65699">
        <ele>1628.8</ele>
        <time>2024-05-26T10:05:17Z</time>
      </trkpt>
      <trkpt lat="43.74488" lon="6.657">
        <ele>1628.8</ele>
        <time>2024-05-26T10:05:18Z</time>
      </trkpt>
      <trkpt lat="43.74487" lon="6.65701">
        <ele>1628.6</ele>
        <time>2024-05-26T10:05:19Z</time>
      </trkpt>
      <trkpt lat="43.74487" lon="6.65703">
        <ele>1628.5</ele>
        <time>2024-05-26T10:05:20Z</time>
      </trkpt>
      <trkpt lat="43.74487" lon="6.65704">
        <ele>1628.5</ele>
        <time>2024-05-26T10:05:21Z</time>
      </trkpt>
      <trkpt lat="43.74486" lon="6.65705">
        <ele>1628.4</ele>
        <time>2024-05-26T10:05:22Z</time>
      </trkpt>
      <trkpt lat="43.74485" lon="6.65706">
        <ele>1628.4</ele>
        <time>2024-05-26T10:05:23Z</time>
      </trkpt>
      <trkpt lat="43.74485" lon="6.65707">
        <ele>1628.4</ele>
        <time>2024-05-26T10:05:24Z</time>
      </trkpt>
      <trkpt lat="43.74484" lon="6.65708">
        <ele>1628.2</ele>
        <time>2024-05-26T10:05:25Z</time>
      </trkpt>
      <trkpt lat="43.74483" lon="6.65709">
        <ele>1628.2</ele>
        <time>2024-05-26T10:05:26Z</time>
      </trkpt>
      <trkpt lat="43.74483" lon="6.6571">
        <ele>1628.2</ele>
        <time>2024-05-26T10:05:27Z</time>
      </trkpt>
      <trkpt lat="43.74482" lon="6.65711">
        <ele>1628.3</ele>
        <time>2024-05-26T10:05:28Z</time>
      </trkpt>
      <trkpt lat="43.74482" lon="6.65713">
        <ele>1628.2</ele>
        <time>2024-05-26T10:05:29Z</time>
      </trkpt>
      <trkpt lat="43.74481" lon="6.65714">
        <ele>1628.2</ele>
        <time>2024-05-26T10:05:30Z</time>
      </trkpt>
      <trkpt lat="43.74481" lon="6.65715">
        <ele>1628.2</ele>
        <time>2024-05-26T10:05:31Z</time>
      </trkpt>
      <trkpt lat="43.74481" lon="6.65715">
        <ele>1628.2</ele>
        <time>2024-05-26T10:05:32Z</time>
      </trkpt>
      <trkpt lat="43.7448" lon="6.65716">
        <ele>1628.1</ele>
        <time>2024-05-26T10:05:33Z</time>
      </trkpt>
      <trkpt lat="43.74479" lon="6.65716">
        <ele>1628</ele>
        <time>2024-05-26T10:05:34Z</time>
      </trkpt>
      <trkpt lat="43.74479" lon="6.65716">
        <ele>1627.9</ele>
        <time>2024-05-26T10:05:35Z</time>
      </trkpt>
      <trkpt lat="43.74478" lon="6.65716">
        <ele>1627.8</ele>
        <time>2024-05-26T10:05:36Z</time>
      </trkpt>
      <trkpt lat="43.74478" lon="6.65717">
        <ele>1627.8</ele>
        <time>2024-05-26T10:05:37Z</time>
      </trkpt>
      <trkpt lat="43.74477" lon="6.65717">
        <ele>1627.8</ele>
        <time>2024-05-26T10:05:38Z</time>
      </trkpt>
      <trkpt lat="43.74476" lon="6.65718">
        <ele>1627.6</ele>
        <time>2024-05-26T10:05:39Z</time>
      </trkpt>
      <trkpt lat="43.74476" lon="6.65718">
        <ele>1627.5</ele>
        <time>2024-05-26T10:05:40Z</time>
      </trkpt>
      <trkpt lat="43.74475" lon="6.65718">
        <ele>1627.4</ele>
        <time>2024-05-26T10:05:41Z</time>
      </trkpt>
      <trkpt lat="43.74474" lon="6.65717">
        <ele>1627.3</ele>
        <time>2024-05-26T10:05:42Z</time>
      </trkpt>
      <trkpt lat="43.74473" lon="6.65717">
        <ele>1627.2</ele>
        <time>2024-05-26T10:05:43Z</time>
      </trkpt>
      <trkpt lat="43.74472" lon="6.65716">
        <ele>1627.1</ele>
        <time>2024-05-26T10:05:44Z</time>
      </trkpt>
      <trkpt lat="43.74472" lon="6.65715">
        <ele>1626.9</ele>
        <time>2024-05-26T10:05:45Z</time>
      </trkpt>
      <trkpt lat="43.74471" lon="6.65715">
        <ele>1626.7</ele>
        <time>2024-05-26T10:05:46Z</time>
      </trkpt>
      <trkpt lat="43.74471" lon="6.65714">
        <ele>1626.6</ele>
        <time>2024-05-26T10:05:47Z</time>
      </trkpt>
      <trkpt lat="43.7447" lon="6.65713">
        <ele>1626.5</ele>
        <time>2024-05-26T10:05:48Z</time>
      </trkpt>
      <trkpt lat="43.7447" lon="6.65711">
        <ele>1626.4</ele>
        <time>2024-05-26T10:05:49Z</time>
      </trkpt>
      <trkpt lat="43.7447" lon="6.6571">
        <ele>1626.3</ele>
        <time>2024-05-26T10:05:50Z</time>
      </trkpt>
      <trkpt lat="43.74469" lon="6.65709">
        <ele>1626.3</ele>
        <time>2024-05-26T10:05:51Z</time>
      </trkpt>
      <trkpt lat="43.74469" lon="6.65708">
        <ele>1626.3</ele>
        <time>2024-05-26T10:05:52Z</time>
      </trkpt>
      <trkpt lat="43.74469" lon="6.65707">
        <ele>1626.3</ele>
        <time>2024-05-26T10:05:53Z</time>
      </trkpt>
      <trkpt lat="43.74468" lon="6.65705">
        <ele>1626.3</ele>
        <time>2024-05-26T10:05:54Z</time>
      </trkpt>
      <trkpt lat="43.74468" lon="6.65704">
        <ele>1626.3</ele>
        <time>2024-05-26T10:05:55Z</time>
      </trkpt>
      <trkpt lat="43.74468" lon="6.65703">
        <ele>1626.2</ele>
        <time>2024-05-26T10:05:56Z</time>
      </trkpt>
      <trkpt lat="43.74467" lon="6.65702">
        <ele>1626.2</ele>
        <time>2024-05-26T10:05:57Z</time>
      </trkpt>
      <trkpt lat="43.74467" lon="6.65701">
        <ele>1626.2</ele>
        <time>2024-05-26T10:05:58Z</time>
      </trkpt>
      <trkpt lat="43.74467" lon="6.657">
        <ele>1626.1</ele>
        <time>2024-05-26T10:05:59Z</time>
      </trkpt>
      <trkpt lat="43.74467" lon="6.65699">
        <ele>1626.1</ele>
        <time>2024-05-26T10:06:00Z</time>
      </trkpt>
      <trkpt lat="43.74467" lon="6.65697">
        <ele>1626.1</ele>
        <time>2024-05-26T10:06:01Z</time>
      </trkpt>
      <trkpt lat="43.74467" lon="6.65696">
        <ele>1626.1</ele>
        <time>2024-05-26T10:06:02Z</time>
      </trkpt>
      <trkpt lat="43.74466" lon="6.65695">
        <ele>1626.2</ele>
        <time>2024-05-26T10:06:03Z</time>
      </trkpt>
      <trkpt lat="43.74466" lon="6.65694">
        <ele>1626.3</ele>
        <time>2024-05-26T10:06:04Z</time>
      </trkpt>
      <trkpt lat="43.74465" lon="6.65693">
        <ele>1626.3</ele>
        <time>2024-05-26T10:06:05Z</time>
      </trkpt>
      <trkpt lat="43.74465" lon="6.65692">
        <ele>1626.3</ele>
        <time>2024-05-26T10:06:06Z</time>
      </trkpt>
      <trkpt lat="43.74464" lon="6.65692">
        <ele>1626.2</ele>
        <time>2024-05-26T10:06:07Z</time>
      </trkpt>
      <trkpt lat="43.74464" lon="6.65691">
        <ele>1626.2</ele>
        <time>2024-05-26T10:06:08Z</time>
      </trkpt>
      <trkpt lat="43.74463" lon="6.6569">
        <ele>1626.3</ele>
        <time>2024-05-26T10:06:09Z</time>
      </trkpt>
      <trkpt lat="43.74463" lon="6.65689">
        <ele>1626.4</ele>
        <time>2024-05-26T10:06:10Z</time>
      </trkpt>
      <trkpt lat="43.74462" lon="6.65688">
        <ele>1626.4</ele>
        <time>2024-05-26T10:06:11Z</time>
      </trkpt>
      <trkpt lat="43.74461" lon="6.65688">
        <ele>1626.4</ele>
        <time>2024-05-26T10:06:12Z</time>
      </trkpt>
      <trkpt lat="43.74461" lon="6.65687">
        <ele>1626.4</ele>
        <time>2024-05-26T10:06:13Z</time>
      </trkpt>
      <trkpt lat="43.7446" lon="6.65687">
        <ele>1626.3</ele>
        <time>2024-05-26T10:06:14Z</time>
      </trkpt>
      <trkpt lat="43.74459" lon="6.65686">
        <ele>1626.3</ele>
        <time>2024-05-26T10:06:15Z</time>
      </trkpt>
      <trkpt lat="43.74459" lon="6.65685">
        <ele>1626.3</ele>
        <time>2024-05-26T10:06:16Z</time>
      </trkpt>
      <trkpt lat="43.74458" lon="6.65685">
        <ele>1626.2</ele>
        <time>2024-05-26T10:06:17Z</time>
      </trkpt>
      <trkpt lat="43.74457" lon="6.65684">
        <ele>1626.1</ele>
        <time>2024-05-26T10:06:18Z</time>
      </trkpt>
      <trkpt lat="43.74457" lon="6.65684">
        <ele>1626</ele>
        <time>2024-05-26T10:06:19Z</time>
      </trkpt>
      <trkpt lat="43.74456" lon="6.65683">
        <ele>1625.9</ele>
        <time>2024-05-26T10:06:20Z</time>
      </trkpt>
      <trkpt lat="43.74455" lon="6.65683">
        <ele>1625.9</ele>
        <time>2024-05-26T10:06:21Z</time>
      </trkpt>
      <trkpt lat="43.74454" lon="6.65683">
        <ele>1626</ele>
        <time>2024-05-26T10:06:22Z</time>
      </trkpt>
      <trkpt lat="43.74454" lon="6.65683">
        <ele>1625.9</ele>
        <time>2024-05-26T10:06:23Z</time>
      </trkpt>
      <trkpt lat="43.74453" lon="6.65682">
        <ele>1625.9</ele>
        <time>2024-05-26T10:06:24Z</time>
      </trkpt>
      <trkpt lat="43.74452" lon="6.65681">
        <ele>1625.8</ele>
        <time>2024-05-26T10:06:25Z</time>
      </trkpt>
      <trkpt lat="43.74452" lon="6.65681">
        <ele>1625.8</ele>
        <time>2024-05-26T10:06:26Z</time>
      </trkpt>
      <trkpt lat="43.74451" lon="6.6568">
        <ele>1625.8</ele>
        <time>2024-05-26T10:06:27Z</time>
      </trkpt>
      <trkpt lat="43.7445" lon="6.65679">
        <ele>1625.7</ele>
        <time>2024-05-26T10:06:28Z</time>
      </trkpt>
      <trkpt lat="43.74449" lon="6.65678">
        <ele>1625.7</ele>
        <time>2024-05-26T10:06:29Z</time>
      </trkpt>
      <trkpt lat="43.74448" lon="6.65678">
        <ele>1625.6</ele>
        <time>2024-05-26T10:06:30Z</time>
      </trkpt>
      <trkpt lat="43.74447" lon="6.65677">
        <ele>1625.6</ele>
        <time>2024-05-26T10:06:31Z</time>
      </trkpt>
      <trkpt lat="43.74447" lon="6.65676">
        <ele>1625.4</ele>
        <time>2024-05-26T10:06:32Z</time>
      </trkpt>
      <trkpt lat="43.74446" lon="6.65675">
        <ele>1625.3</ele>
        <time>2024-05-26T10:06:33Z</time>
      </trkpt>
      <trkpt lat="43.74446" lon="6.65674">
        <ele>1625.2</ele>
        <time>2024-05-26T10:06:34Z</time>
      </trkpt>
      <trkpt lat="43.74445" lon="6.65673">
        <ele>1625.2</ele>
        <time>2024-05-26T10:06:35Z</time>
      </trkpt>
      <trkpt lat="43.74445" lon="6.65672">
        <ele>1625.1</ele>
        <time>2024-05-26T10:06:36Z</time>
      </trkpt>
      <trkpt lat="43.74444" lon="6.65671">
        <ele>1625</ele>
        <time>2024-05-26T10:06:37Z</time>
      </trkpt>
      <trkpt lat="43.74443" lon="6.6567">
        <ele>1624.9</ele>
        <time>2024-05-26T10:06:38Z</time>
      </trkpt>
      <trkpt lat="43.74443" lon="6.65669">
        <ele>1624.9</ele>
        <time>2024-05-26T10:06:39Z</time>
      </trkpt>
      <trkpt lat="43.74442" lon="6.65668">
        <ele>1624.8</ele>
        <time>2024-05-26T10:06:40Z</time>
      </trkpt>
      <trkpt lat="43.74441" lon="6.65667">
        <ele>1624.7</ele>
        <time>2024-05-26T10:06:41Z</time>
      </trkpt>
      <trkpt lat="43.74441" lon="6.65666">
        <ele>1624.6</ele>
        <time>2024-05-26T10:06:42Z</time>
      </trkpt>
      <trkpt lat="43.7444" lon="6.65664">
        <ele>1624.5</ele>
        <time>2024-05-26T10:06:43Z</time>
      </trkpt>
      <trkpt lat="43.7444" lon="6.65663">
        <ele>1624.4</ele>
        <time>2024-05-26T10:06:44Z</time>
      </trkpt>
      <trkpt lat="43.74439" lon="6.65662">
        <ele>1624.3</ele>
        <time>2024-05-26T10:06:45Z</time>
      </trkpt>
      <trkpt lat="43.74439" lon="6.65661">
        <ele>1624.2</ele>
        <time>2024-05-26T10:06:46Z</time>
      </trkpt>
      <trkpt lat="43.74438" lon="6.6566">
        <ele>1624.1</ele>
        <time>2024-05-26T10:06:47Z</time>
      </trkpt>
      <trkpt lat="43.74438" lon="6.65659">
        <ele>1624.1</ele>
        <time>2024-05-26T10:06:48Z</time>
      </trkpt>
      <trkpt lat="43.74437" lon="6.65657">
        <ele>1624</ele>
        <time>2024-05-26T10:06:49Z</time>
      </trkpt>
      <trkpt lat="43.74437" lon="6.65656">
        <ele>1623.9</ele>
        <time>2024-05-26T10:06:50Z</time>
      </trkpt>
      <trkpt lat="43.74436" lon="6.65655">
        <ele>1623.9</ele>
        <time>2024-05-26T10:06:51Z</time>
      </trkpt>
      <trkpt lat="43.74435" lon="6.65654">
        <ele>1623.8</ele>
        <time>2024-05-26T10:06:52Z</time>
      </trkpt>
      <trkpt lat="43.74434" lon="6.65653">
        <ele>1623.7</ele>
        <time>2024-05-26T10:06:53Z</time>
      </trkpt>
      <trkpt lat="43.74434" lon="6.65652">
        <ele>1623.5</ele>
        <time>2024-05-26T10:06:54Z</time>
      </trkpt>
      <trkpt lat="43.74433" lon="6.65651">
        <ele>1623.5</ele>
        <time>2024-05-26T10:06:55Z</time>
      </trkpt>
      <trkpt lat="43.74433" lon="6.6565">
        <ele>1623.4</ele>
        <time>2024-05-26T10:06:56Z</time>
      </trkpt>
      <trkpt lat="43.74432" lon="6.65649">
        <ele>1623.3</ele>
        <time>2024-05-26T10:06:57Z</time>
      </trkpt>
      <trkpt lat="43.74432" lon="6.65648">
        <ele>1623.3</ele>
        <time>2024-05-26T10:06:58Z</time>
      </trkpt>
      <trkpt lat="43.74431" lon="6.65648">
        <ele>1623.3</ele>
        <time>2024-05-26T10:06:59Z</time>
      </trkpt>
      <trkpt lat="43.74431" lon="6.65648">
        <ele>1623.2</ele>
        <time>2024-05-26T10:07:00Z</time>
      </trkpt>
      <trkpt lat="43.74431" lon="6.65648">
        <ele>1623.1</ele>
        <time>2024-05-26T10:07:01Z</time>
      </trkpt>
      <trkpt lat="43.7443" lon="6.65647">
        <ele>1623</ele>
        <time>2024-05-26T10:07:02Z</time>
      </trkpt>
      <trkpt lat="43.7443" lon="6.65646">
        <ele>1623</ele>
        <time>2024-05-26T10:07:03Z</time>
      </trkpt>
      <trkpt lat="43.74429" lon="6.65646">
        <ele>1622.8</ele>
        <time>2024-05-26T10:07:04Z</time>
      </trkpt>
      <trkpt lat="43.74429" lon="6.65646">
        <ele>1622.6</ele>
        <time>2024-05-26T10:07:05Z</time>
      </trkpt>
      <trkpt lat="43.74428" lon="6.65646">
        <ele>1622.5</ele>
        <time>2024-05-26T10:07:06Z</time>
      </trkpt>
      <trkpt lat="43.74428" lon="6.65645">
        <ele>1622.4</ele>
        <time>2024-05-26T10:07:07Z</time>
      </trkpt>
      <trkpt lat="43.74427" lon="6.65644">
        <ele>1622.4</ele>
        <time>2024-05-26T10:07:08Z</time>
      </trkpt>
      <trkpt lat="43.74427" lon="6.65643">
        <ele>1622.4</ele>
        <time>2024-05-26T10:07:09Z</time>
      </trkpt>
      <trkpt lat="43.74426" lon="6.65642">
        <ele>1622.3</ele>
        <time>2024-05-26T10:07:10Z</time>
      </trkpt>
      <trkpt lat="43.74426" lon="6.65641">
        <ele>1622.3</ele>
        <time>2024-05-26T10:07:11Z</time>
      </trkpt>
      <trkpt lat="43.74425" lon="6.6564">
        <ele>1622.2</ele>
        <time>2024-05-26T10:07:12Z</time>
      </trkpt>
      <trkpt lat="43.74425" lon="6.65639">
        <ele>1622.1</ele>
        <time>2024-05-26T10:07:13Z</time>
      </trkpt>
      <trkpt lat="43.74424" lon="6.65638">
        <ele>1622</ele>
        <time>2024-05-26T10:07:14Z</time>
      </trkpt>
      <trkpt lat="43.74423" lon="6.65637">
        <ele>1621.9</ele>
        <time>2024-05-26T10:07:15Z</time>
      </trkpt>
      <trkpt lat="43.74423" lon="6.65636">
        <ele>1621.9</ele>
        <time>2024-05-26T10:07:16Z</time>
      </trkpt>
      <trkpt lat="43.74423" lon="6.65635">
        <ele>1621.8</ele>
        <time>2024-05-26T10:07:17Z</time>
      </trkpt>
      <trkpt lat="43.74422" lon="6.65634">
        <ele>1621.7</ele>
        <time>2024-05-26T10:07:18Z</time>
      </trkpt>
      <trkpt lat="43.74422" lon="6.65633">
        <ele>1621.6</ele>
        <time>2024-05-26T10:07:19Z</time>
      </trkpt>
      <trkpt lat="43.74421" lon="6.65633">
        <ele>1621.6</ele>
        <time>2024-05-26T10:07:20Z</time>
      </trkpt>
      <trkpt lat="43.7442" lon="6.65632">
        <ele>1621.6</ele>
        <time>2024-05-26T10:07:21Z</time>
      </trkpt>
      <trkpt lat="43.74419" lon="6.65631">
        <ele>1621.4</ele>
        <time>2024-05-26T10:07:22Z</time>
      </trkpt>
      <trkpt lat="43.74419" lon="6.6563">
        <ele>1621.4</ele>
        <time>2024-05-26T10:07:23Z</time>
      </trkpt>
      <trkpt lat="43.74418" lon="6.65628">
        <ele>1621.5</ele>
        <time>2024-05-26T10:07:24Z</time>
      </trkpt>
      <trkpt lat="43.74418" lon="6.65627">
        <ele>1621.5</ele>
        <time>2024-05-26T10:07:25Z</time>
      </trkpt>
      <trkpt lat="43.74417" lon="6.65626">
        <ele>1621.3</ele>
        <time>2024-05-26T10:07:26Z</time>
      </trkpt>
      <trkpt lat="43.74416" lon="6.65625">
        <ele>1621.2</ele>
        <time>2024-05-26T10:07:27Z</time>
      </trkpt>
      <trkpt lat="43.74415" lon="6.65624">
        <ele>1621.2</ele>
        <time>2024-05-26T10:07:28Z</time>
      </trkpt>
      <trkpt lat="43.74414" lon="6.65623">
        <ele>1621.1</ele>
        <time>2024-05-26T10:07:29Z</time>
      </trkpt>
      <trkpt lat="43.74414" lon="6.65622">
        <ele>1621</ele>
        <time>2024-05-26T10:07:30Z</time>
      </trkpt>
      <trkpt lat="43.74413" lon="6.65621">
        <ele>1621</ele>
        <time>2024-05-26T10:07:31Z</time>
      </trkpt>
      <trkpt lat="43.74413" lon="6.6562">
        <ele>1620.8</ele>
        <time>2024-05-26T10:07:32Z</time>
      </trkpt>
      <trkpt lat="43.74413" lon="6.65618">
        <ele>1620.6</ele>
        <time>2024-05-26T10:07:33Z</time>
      </trkpt>
      <trkpt lat="43.74412" lon="6.65617">
        <ele>1620.5</ele>
        <time>2024-05-26T10:07:34Z</time>
      </trkpt>
      <trkpt lat="43.74412" lon="6.65616">
        <ele>1620.4</ele>
        <time>2024-05-26T10:07:35Z</time>
      </trkpt>
      <trkpt lat="43.74411" lon="6.65615">
        <ele>1620.3</ele>
        <time>2024-05-26T10:07:36Z</time>
      </trkpt>
      <trkpt lat="43.74411" lon="6.65614">
        <ele>1620.2</ele>
        <time>2024-05-26T10:07:37Z</time>
      </trkpt>
      <trkpt lat="43.7441" lon="6.65612">
        <ele>1620.1</ele>
        <time>2024-05-26T10:07:38Z</time>
      </trkpt>
      <trkpt lat="43.7441" lon="6.65611">
        <ele>1620</ele>
        <time>2024-05-26T10:07:39Z</time>
      </trkpt>
      <trkpt lat="43.74409" lon="6.6561">
        <ele>1619.8</ele>
        <time>2024-05-26T10:07:40Z</time>
      </trkpt>
      <trkpt lat="43.74408" lon="6.65609">
        <ele>1619.6</ele>
        <time>2024-05-26T10:07:41Z</time>
      </trkpt>
      <trkpt lat="43.74407" lon="6.65608">
        <ele>1619.5</ele>
        <time>2024-05-26T10:07:42Z</time>
      </trkpt>
      <trkpt lat="43.74407" lon="6.65607">
        <ele>1619.4</ele>
        <time>2024-05-26T10:07:43Z</time>
      </trkpt>
      <trkpt lat="43.74406" lon="6.65606">
        <ele>1619.3</ele>
        <time>2024-05-26T10:07:44Z</time>
      </trkpt>
      <trkpt lat="43.74405" lon="6.65605">
        <ele>1619.1</ele>
        <time>2024-05-26T10:07:45Z</time>
      </trkpt>
      <trkpt lat="43.74404" lon="6.65604">
        <ele>1619</ele>
        <time>2024-05-26T10:07:46Z</time>
      </trkpt>
      <trkpt lat="43.74403" lon="6.65603">
        <ele>1619</ele>
        <time>2024-05-26T10:07:47Z</time>
      </trkpt>
      <trkpt lat="43.74402" lon="6.65602">
        <ele>1618.9</ele>
        <time>2024-05-26T10:07:48Z</time>
      </trkpt>
      <trkpt lat="43.74401" lon="6.65601">
        <ele>1618.7</ele>
        <time>2024-05-26T10:07:49Z</time>
      </trkpt>
      <trkpt lat="43.74401" lon="6.656">
        <ele>1618.6</ele>
        <time>2024-05-26T10:07:50Z</time>
      </trkpt>
      <trkpt lat="43.744" lon="6.65599">
        <ele>1618.6</ele>
        <time>2024-05-26T10:07:51Z</time>
      </trkpt>
      <trkpt lat="43.744" lon="6.65598">
        <ele>1618.5</ele>
        <time>2024-05-26T10:07:52Z</time>
      </trkpt>
      <trkpt lat="43.74399" lon="6.65597">
        <ele>1618.4</ele>
        <time>2024-05-26T10:07:53Z</time>
      </trkpt>
      <trkpt lat="43.74398" lon="6.65596">
        <ele>1618.3</ele>
        <time>2024-05-26T10:07:54Z</time>
      </trkpt>
      <trkpt lat="43.74398" lon="6.65594">
        <ele>1618.2</ele>
        <time>2024-05-26T10:07:55Z</time>
      </trkpt>
      <trkpt lat="43.74398" lon="6.65593">
        <ele>1618.2</ele>
        <time>2024-05-26T10:07:56Z</time>
      </trkpt>
      <trkpt lat="43.74397" lon="6.65592">
        <ele>1618.1</ele>
        <time>2024-05-26T10:07:57Z</time>
      </trkpt>
      <trkpt lat="43.74397" lon="6.6559">
        <ele>1617.9</ele>
        <time>2024-05-26T10:07:58Z</time>
      </trkpt>
      <trkpt lat="43.74396" lon="6.65589">
        <ele>1617.8</ele>
        <time>2024-05-26T10:07:59Z</time>
      </trkpt>
      <trkpt lat="43.74396" lon="6.65588">
        <ele>1617.8</ele>
        <time>2024-05-26T10:08:00Z</time>
      </trkpt>
      <trkpt lat="43.74395" lon="6.65587">
        <ele>1617.6</ele>
        <time>2024-05-26T10:08:01Z</time>
      </trkpt>
      <trkpt lat="43.74394" lon="6.65586">
        <ele>1617.5</ele>
        <time>2024-05-26T10:08:02Z</time>
      </trkpt>
      <trkpt lat="43.74394" lon="6.65585">
        <ele>1617.5</ele>
        <time>2024-05-26T10:08:03Z</time>
      </trkpt>
      <trkpt lat="43.74394" lon="6.65584">
        <ele>1617.3</ele>
        <time>2024-05-26T10:08:04Z</time>
      </trkpt>
      <trkpt lat="43.74394" lon="6.65582">
        <ele>1617.2</ele>
        <time>2024-05-26T10:08:05Z</time>
      </trkpt>
      <trkpt lat="43.74393" lon="6.65581">
        <ele>1617.1</ele>
        <time>2024-05-26T10:08:06Z</time>
      </trkpt>
      <trkpt lat="43.74393" lon="6.6558">
        <ele>1617.1</ele>
        <time>2024-05-26T10:08:07Z</time>
      </trkpt>
      <trkpt lat="43.74392" lon="6.65578">
        <ele>1617</ele>
        <time>2024-05-26T10:08:08Z</time>
      </trkpt>
      <trkpt lat="43.74392" lon="6.65577">
        <ele>1616.9</ele>
        <time>2024-05-26T10:08:09Z</time>
      </trkpt>
      <trkpt lat="43.74391" lon="6.65576">
        <ele>1616.8</ele>
        <time>2024-05-26T10:08:10Z</time>
      </trkpt>
      <trkpt lat="43.7439" lon="6.65575">
        <ele>1616.7</ele>
        <time>2024-05-26T10:08:11Z</time>
      </trkpt>
      <trkpt lat="43.7439" lon="6.65573">
        <ele>1616.6</ele>
        <time>2024-05-26T10:08:12Z</time>
      </trkpt>
      <trkpt lat="43.7439" lon="6.65572">
        <ele>1616.4</ele>
        <time>2024-05-26T10:08:13Z</time>
      </trkpt>
      <trkpt lat="43.7439" lon="6.6557">
        <ele>1616.4</ele>
        <time>2024-05-26T10:08:14Z</time>
      </trkpt>
      <trkpt lat="43.74389" lon="6.65568">
        <ele>1616.2</ele>
        <time>2024-05-26T10:08:15Z</time>
      </trkpt>
      <trkpt lat="43.74389" lon="6.65567">
        <ele>1616.1</ele>
        <time>2024-05-26T10:08:16Z</time>
      </trkpt>
      <trkpt lat="43.74389" lon="6.65565">
        <ele>1616.1</ele>
        <time>2024-05-26T10:08:17Z</time>
      </trkpt>
      <trkpt lat="43.74388" lon="6.65564">
        <ele>1615.9</ele>
        <time>2024-05-26T10:08:18Z</time>
      </trkpt>
      <trkpt lat="43.74388" lon="6.65563">
        <ele>1615.8</ele>
        <time>2024-05-26T10:08:19Z</time>
      </trkpt>
      <trkpt lat="43.74387" lon="6.65561">
        <ele>1615.8</ele>
        <time>2024-05-26T10:08:20Z</time>
      </trkpt>
      <trkpt lat="43.74387" lon="6.6556">
        <ele>1615.7</ele>
        <time>2024-05-26T10:08:21Z</time>
      </trkpt>
      <trkpt lat="43.74387" lon="6.65558">
        <ele>1615.6</ele>
        <time>2024-05-26T10:08:22Z</time>
      </trkpt>
      <trkpt lat="43.74387" lon="6.65556">
        <ele>1615.5</ele>
        <time>2024-05-26T10:08:23Z</time>
      </trkpt>
      <trkpt lat="43.74386" lon="6.65555">
        <ele>1615.4</ele>
        <time>2024-05-26T10:08:24Z</time>
      </trkpt>
      <trkpt lat="43.74385" lon="6.65554">
        <ele>1615.4</ele>
        <time>2024-05-26T10:08:25Z</time>
      </trkpt>
      <trkpt lat="43.74385" lon="6.65552">
        <ele>1615.3</ele>
        <time>2024-05-26T10:08:26Z</time>
      </trkpt>
      <trkpt lat="43.74385" lon="6.65551">
        <ele>1615.3</ele>
        <time>2024-05-26T10:08:27Z</time>
      </trkpt>
      <trkpt lat="43.74384" lon="6.65549">
        <ele>1615.1</ele>
        <time>2024-05-26T10:08:28Z</time>
      </trkpt>
      <trkpt lat="43.74384" lon="6.65548">
        <ele>1615.1</ele>
        <time>2024-05-26T10:08:29Z</time>
      </trkpt>
      <trkpt lat="43.74383" lon="6.65546">
        <ele>1615.1</ele>
        <time>2024-05-26T10:08:30Z</time>
      </trkpt>
      <trkpt lat="43.74383" lon="6.65545">
        <ele>1615</ele>
        <time>2024-05-26T10:08:31Z</time>
      </trkpt>
      <trkpt lat="43.74382" lon="6.65543">
        <ele>1615</ele>
        <time>2024-05-26T10:08:32Z</time>
      </trkpt>
      <trkpt lat="43.74381" lon="6.65542">
        <ele>1614.9</ele>
        <time>2024-05-26T10:08:33Z</time>
      </trkpt>
      <trkpt lat="43.7438" lon="6.65541">
        <ele>1614.9</ele>
        <time>2024-05-26T10:08:34Z</time>
      </trkpt>
      <trkpt lat="43.7438" lon="6.65539">
        <ele>1614.7</ele>
        <time>2024-05-26T10:08:35Z</time>
      </trkpt>
      <trkpt lat="43.74379" lon="6.65538">
        <ele>1614.7</ele>
        <time>2024-05-26T10:08:36Z</time>
      </trkpt>
      <trkpt lat="43.74379" lon="6.65536">
        <ele>1614.5</ele>
        <time>2024-05-26T10:08:37Z</time>
      </trkpt>
      <trkpt lat="43.74378" lon="6.65535">
        <ele>1614.4</ele>
        <time>2024-05-26T10:08:38Z</time>
      </trkpt>
      <trkpt lat="43.74377" lon="6.65534">
        <ele>1614.3</ele>
        <time>2024-05-26T10:08:39Z</time>
      </trkpt>
      <trkpt lat="43.74377" lon="6.65532">
        <ele>1614.2</ele>
        <time>2024-05-26T10:08:40Z</time>
      </trkpt>
      <trkpt lat="43.74376" lon="6.65531">
        <ele>1614.1</ele>
        <time>2024-05-26T10:08:41Z</time>
      </trkpt>
      <trkpt lat="43.74375" lon="6.6553">
        <ele>1614</ele>
        <time>2024-05-26T10:08:42Z</time>
      </trkpt>
      <trkpt lat="43.74375" lon="6.65528">
        <ele>1613.9</ele>
        <time>2024-05-26T10:08:43Z</time>
      </trkpt>
      <trkpt lat="43.74374" lon="6.65527">
        <ele>1613.8</ele>
        <time>2024-05-26T10:08:44Z</time>
      </trkpt>
      <trkpt lat="43.74373" lon="6.65526">
        <ele>1613.6</ele>
        <time>2024-05-26T10:08:45Z</time>
      </trkpt>
      <trkpt lat="43.74373" lon="6.65525">
        <ele>1613.5</ele>
        <time>2024-05-26T10:08:46Z</time>
      </trkpt>
      <trkpt lat="43.74372" lon="6.65523">
        <ele>1613.4</ele>
        <time>2024-05-26T10:08:47Z</time>
      </trkpt>
      <trkpt lat="43.74372" lon="6.65522">
        <ele>1613.3</ele>
        <time>2024-05-26T10:08:48Z</time>
      </trkpt>
      <trkpt lat="43.74372" lon="6.6552">
        <ele>1613.1</ele>
        <time>2024-05-26T10:08:49Z</time>
      </trkpt>
      <trkpt lat="43.74371" lon="6.65518">
        <ele>1613.1</ele>
        <time>2024-05-26T10:08:50Z</time>
      </trkpt>
      <trkpt lat="43.7437" lon="6.65517">
        <ele>1612.9</ele>
        <time>2024-05-26T10:08:51Z</time>
      </trkpt>
      <trkpt lat="43.7437" lon="6.65515">
        <ele>1612.8</ele>
        <time>2024-05-26T10:08:52Z</time>
      </trkpt>
      <trkpt lat="43.74369" lon="6.65514">
        <ele>1612.7</ele>
        <time>2024-05-26T10:08:53Z</time>
      </trkpt>
      <trkpt lat="43.74369" lon="6.65513">
        <ele>1612.6</ele>
        <time>2024-05-26T10:08:54Z</time>
      </trkpt>
      <trkpt lat="43.74369" lon="6.65512">
        <ele>1612.4</ele>
        <time>2024-05-26T10:08:55Z</time>
      </trkpt>
      <trkpt lat="43.74368" lon="6.65511">
        <ele>1612.3</ele>
        <time>2024-05-26T10:08:56Z</time>
      </trkpt>
      <trkpt lat="43.74368" lon="6.65509">
        <ele>1612.3</ele>
        <time>2024-05-26T10:08:57Z</time>
      </trkpt>
      <trkpt lat="43.74368" lon="6.65508">
        <ele>1612.2</ele>
        <time>2024-05-26T10:08:58Z</time>
      </trkpt>
      <trkpt lat="43.74367" lon="6.65507">
        <ele>1612.1</ele>
        <time>2024-05-26T10:08:59Z</time>
      </trkpt>
      <trkpt lat="43.74367" lon="6.65506">
        <ele>1611.9</ele>
        <time>2024-05-26T10:09:00Z</time>
      </trkpt>
      <trkpt lat="43.74366" lon="6.65504">
        <ele>1611.9</ele>
        <time>2024-05-26T10:09:01Z</time>
      </trkpt>
      <trkpt lat="43.74365" lon="6.65503">
        <ele>1611.8</ele>
        <time>2024-05-26T10:09:02Z</time>
      </trkpt>
      <trkpt lat="43.74365" lon="6.65502">
        <ele>1611.7</ele>
        <time>2024-05-26T10:09:03Z</time>
      </trkpt>
      <trkpt lat="43.74364" lon="6.65502">
        <ele>1611.6</ele>
        <time>2024-05-26T10:09:04Z</time>
      </trkpt>
      <trkpt lat="43.74364" lon="6.655">
        <ele>1611.4</ele>
        <time>2024-05-26T10:09:05Z</time>
      </trkpt>
      <trkpt lat="43.74363" lon="6.65499">
        <ele>1611.4</ele>
        <time>2024-05-26T10:09:06Z</time>
      </trkpt>
      <trkpt lat="43.74363" lon="6.65498">
        <ele>1611.2</ele>
        <time>2024-05-26T10:09:07Z</time>
      </trkpt>
      <trkpt lat="43.74363" lon="6.65497">
        <ele>1611.1</ele>
        <time>2024-05-26T10:09:08Z</time>
      </trkpt>
      <trkpt lat="43.74362" lon="6.65496">
        <ele>1611.1</ele>
        <time>2024-05-26T10:09:09Z</time>
      </trkpt>
      <trkpt lat="43.74362" lon="6.65495">
        <ele>1611</ele>
        <time>2024-05-26T10:09:10Z</time>
      </trkpt>
      <trkpt lat="43.74362" lon="6.65494">
        <ele>1610.9</ele>
        <time>2024-05-26T10:09:11Z</time>
      </trkpt>
      <trkpt lat="43.74362" lon="6.65493">
        <ele>1610.9</ele>
        <time>2024-05-26T10:09:12Z</time>
      </trkpt>
      <trkpt lat="43.74361" lon="6.65492">
        <ele>1610.9</ele>
        <time>2024-05-26T10:09:13Z</time>
      </trkpt>
      <trkpt lat="43.74361" lon="6.65491">
        <ele>1610.7</ele>
        <time>2024-05-26T10:09:14Z</time>
      </trkpt>
      <trkpt lat="43.74361" lon="6.6549">
        <ele>1610.6</ele>
        <time>2024-05-26T10:09:15Z</time>
      </trkpt>
      <trkpt lat="43.7436" lon="6.65488">
        <ele>1610.5</ele>
        <time>2024-05-26T10:09:16Z</time>
      </trkpt>
      <trkpt lat="43.7436" lon="6.65487">
        <ele>1610.4</ele>
        <time>2024-05-26T10:09:17Z</time>
      </trkpt>
      <trkpt lat="43.7436" lon="6.65486">
        <ele>1610.3</ele>
        <time>2024-05-26T10:09:18Z</time>
      </trkpt>
      <trkpt lat="43.7436" lon="6.65485">
        <ele>1610.2</ele>
        <time>2024-05-26T10:09:19Z</time>
      </trkpt>
      <trkpt lat="43.74359" lon="6.65484">
        <ele>1610.1</ele>
        <time>2024-05-26T10:09:20Z</time>
      </trkpt>
      <trkpt lat="43.74359" lon="6.65483">
        <ele>1610.1</ele>
        <time>2024-05-26T10:09:21Z</time>
      </trkpt>
      <trkpt lat="43.74359" lon="6.65481">
        <ele>1610.1</ele>
        <time>2024-05-26T10:09:22Z</time>
      </trkpt>
      <trkpt lat="43.74359" lon="6.6548">
        <ele>1609.9</ele>
        <time>2024-05-26T10:09:23Z</time>
      </trkpt>
      <trkpt lat="43.74359" lon="6.65478">
        <ele>1609.9</ele>
        <time>2024-05-26T10:09:24Z</time>
      </trkpt>
      <trkpt lat="43.74358" lon="6.65477">
        <ele>1609.7</ele>
        <time>2024-05-26T10:09:25Z</time>
      </trkpt>
      <trkpt lat="43.74358" lon="6.65475">
        <ele>1609.6</ele>
        <time>2024-05-26T10:09:26Z</time>
      </trkpt>
      <trkpt lat="43.74357" lon="6.65474">
        <ele>1609.5</ele>
        <time>2024-05-26T10:09:27Z</time>
      </trkpt>
      <trkpt lat="43.74357" lon="6.65474">
        <ele>1609.3</ele>
        <time>2024-05-26T10:09:28Z</time>
      </trkpt>
      <trkpt lat="43.74356" lon="6.65473">
        <ele>1609.3</ele>
        <time>2024-05-26T10:09:29Z</time>
      </trkpt>
      <trkpt lat="43.74356" lon="6.65473">
        <ele>1609.2</ele>
        <time>2024-05-26T10:09:30Z</time>
      </trkpt>
      <trkpt lat="43.74356" lon="6.65473">
        <ele>1609.1</ele>
        <time>2024-05-26T10:09:31Z</time>
      </trkpt>
      <trkpt lat="43.74355" lon="6.65472">
        <ele>1609.1</ele>
        <time>2024-05-26T10:09:32Z</time>
      </trkpt>
      <trkpt lat="43.74355" lon="6.65471">
        <ele>1609</ele>
        <time>2024-05-26T10:09:33Z</time>
      </trkpt>
      <trkpt lat="43.74355" lon="6.65469">
        <ele>1609</ele>
        <time>2024-05-26T10:09:34Z</time>
      </trkpt>
      <trkpt lat="43.74355" lon="6.65468">
        <ele>1608.9</ele>
        <time>2024-05-26T10:09:35Z</time>
      </trkpt>
      <trkpt lat="43.74355" lon="6.65466">
        <ele>1608.9</ele>
        <time>2024-05-26T10:09:36Z</time>
      </trkpt>
      <trkpt lat="43.74355" lon="6.65465">
        <ele>1608.9</ele>
        <time>2024-05-26T10:09:37Z</time>
      </trkpt>
      <trkpt lat="43.74354" lon="6.65463">
        <ele>1608.9</ele>
        <time>2024-05-26T10:09:38Z</time>
      </trkpt>
      <trkpt lat="43.74354" lon="6.65462">
        <ele>1608.9</ele>
        <time>2024-05-26T10:09:39Z</time>
      </trkpt>
      <trkpt lat="43.74354" lon="6.65461">
        <ele>1608.9</ele>
        <time>2024-05-26T10:09:40Z</time>
      </trkpt>
      <trkpt lat="43.74354" lon="6.65459">
        <ele>1608.8</ele>
        <time>2024-05-26T10:09:41Z</time>
      </trkpt>
      <trkpt lat="43.74354" lon="6.65458">
        <ele>1608.7</ele>
        <time>2024-05-26T10:09:42Z</time>
      </trkpt>
      <trkpt lat="43.74354" lon="6.65456">
        <ele>1608.7</ele>
        <time>2024-05-26T10:09:43Z</time>
      </trkpt>
      <trkpt lat="43.74353" lon="6.65455">
        <ele>1608.8</ele>
        <time>2024-05-26T10:09:44Z</time>
      </trkpt>
      <trkpt lat="43.74353" lon="6.65454">
        <ele>1608.8</ele>
        <time>2024-05-26T10:09:45Z</time>
      </trkpt>
      <trkpt lat="43.74353" lon="6.65452">
        <ele>1608.7</ele>
        <time>2024-05-26T10:09:46Z</time>
      </trkpt>
      <trkpt lat="43.74353" lon="6.65451">
        <ele>1608.7</ele>
        <time>2024-05-26T10:09:47Z</time>
      </trkpt>
      <trkpt lat="43.74353" lon="6.65449">
        <ele>1608.7</ele>
        <time>2024-05-26T10:09:48Z</time>
      </trkpt>
      <trkpt lat="43.74353" lon="6.65447">
        <ele>1608.7</ele>
        <time>2024-05-26T10:09:49Z</time>
      </trkpt>
      <trkpt lat="43.74353" lon="6.65446">
        <ele>1608.6</ele>
        <time>2024-05-26T10:09:50Z</time>
      </trkpt>
      <trkpt lat="43.74352" lon="6.65444">
        <ele>1608.6</ele>
        <time>2024-05-26T10:09:51Z</time>
      </trkpt>
      <trkpt lat="43.74352" lon="6.65443">
        <ele>1608.5</ele>
        <time>2024-05-26T10:09:52Z</time>
      </trkpt>
      <trkpt lat="43.74352" lon="6.65442">
        <ele>1608.4</ele>
        <time>2024-05-26T10:09:53Z</time>
      </trkpt>
      <trkpt lat="43.74352" lon="6.6544">
        <ele>1608.4</ele>
        <time>2024-05-26T10:09:54Z</time>
      </trkpt>
      <trkpt lat="43.74352" lon="6.65439">
        <ele>1608.4</ele>
        <time>2024-05-26T10:09:55Z</time>
      </trkpt>
      <trkpt lat="43.74351" lon="6.65437">
        <ele>1608.3</ele>
        <time>2024-05-26T10:09:56Z</time>
      </trkpt>
      <trkpt lat="43.74351" lon="6.65436">
        <ele>1608.3</ele>
        <time>2024-05-26T10:09:57Z</time>
      </trkpt>
      <trkpt lat="43.7435" lon="6.65435">
        <ele>1608.3</ele>
        <time>2024-05-26T10:09:58Z</time>
      </trkpt>
      <trkpt lat="43.7435" lon="6.65434">
        <ele>1608.3</ele>
        <time>2024-05-26T10:09:59Z</time>
      </trkpt>
      <trkpt lat="43.7435" lon="6.65433">
        <ele>1608.2</ele>
        <time>2024-05-26T10:10:00Z</time>
      </trkpt>
      <trkpt lat="43.7435" lon="6.65431">
        <ele>1608.2</ele>
        <time>2024-05-26T10:10:01Z</time>
      </trkpt>
      <trkpt lat="43.7435" lon="6.6543">
        <ele>1608.2</ele>
        <time>2024-05-26T10:10:02Z</time>
      </trkpt>
      <trkpt lat="43.7435" lon="6.65429">
        <ele>1608.2</ele>
        <time>2024-05-26T10:10:03Z</time>
      </trkpt>
      <trkpt lat="43.74349" lon="6.65427">
        <ele>1608.1</ele>
        <time>2024-05-26T10:10:04Z</time>
      </trkpt>
      <trkpt lat="43.74349" lon="6.65426">
        <ele>1608.1</ele>
        <time>2024-05-26T10:10:05Z</time>
      </trkpt>
      <trkpt lat="43.74348" lon="6.65424">
        <ele>1608</ele>
        <time>2024-05-26T10:10:06Z</time>
      </trkpt>
      <trkpt lat="43.74348" lon="6.65422">
        <ele>1608</ele>
        <time>2024-05-26T10:10:07Z</time>
      </trkpt>
      <trkpt lat="43.74348" lon="6.65421">
        <ele>1607.9</ele>
        <time>2024-05-26T10:10:08Z</time>
      </trkpt>
      <trkpt lat="43.74348" lon="6.65419">
        <ele>1607.9</ele>
        <time>2024-05-26T10:10:09Z</time>
      </trkpt>
      <trkpt lat="43.74347" lon="6.65418">
        <ele>1607.8</ele>
        <time>2024-05-26T10:10:10Z</time>
      </trkpt>
      <trkpt lat="43.74347" lon="6.65416">
        <ele>1607.8</ele>
        <time>2024-05-26T10:10:11Z</time>
      </trkpt>
      <trkpt lat="43.74347" lon="6.65414">
        <ele>1607.7</ele>
        <time>2024-05-26T10:10:12Z</time>
      </trkpt>
      <trkpt lat="43.74347" lon="6.65412">
        <ele>1607.7</ele>
        <time>2024-05-26T10:10:13Z</time>
      </trkpt>
      <trkpt lat="43.74347" lon="6.65411">
        <ele>1607.6</ele>
        <time>2024-05-26T10:10:14Z</time>
      </trkpt>
      <trkpt lat="43.74346" lon="6.65409">
        <ele>1607.5</ele>
        <time>2024-05-26T10:10:15Z</time>
      </trkpt>
      <trkpt lat="43.74346" lon="6.65408">
        <ele>1607.3</ele>
        <time>2024-05-26T10:10:16Z</time>
      </trkpt>
      <trkpt lat="43.74346" lon="6.65406">
        <ele>1607.3</ele>
        <time>2024-05-26T10:10:17Z</time>
      </trkpt>
      <trkpt lat="43.74346" lon="6.65405">
        <ele>1607.1</ele>
        <time>2024-05-26T10:10:18Z</time>
      </trkpt>
      <trkpt lat="43.74345" lon="6.65403">
        <ele>1607</ele>
        <time>2024-05-26T10:10:19Z</time>
      </trkpt>
      <trkpt lat="43.74346" lon="6.65402">
        <ele>1606.9</ele>
        <time>2024-05-26T10:10:20Z</time>
      </trkpt>
      <trkpt lat="43.74345" lon="6.654">
        <ele>1606.8</ele>
        <time>2024-05-26T10:10:21Z</time>
      </trkpt>
      <trkpt lat="43.74345" lon="6.65398">
        <ele>1606.7</ele>
        <time>2024-05-26T10:10:22Z</time>
      </trkpt>
      <trkpt lat="43.74345" lon="6.65397">
        <ele>1606.6</ele>
        <time>2024-05-26T10:10:23Z</time>
      </trkpt>
      <trkpt lat="43.74345" lon="6.65395">
        <ele>1606.5</ele>
        <time>2024-05-26T10:10:24Z</time>
      </trkpt>
      <trkpt lat="43.74345" lon="6.65394">
        <ele>1606.5</ele>
        <time>2024-05-26T10:10:25Z</time>
      </trkpt>
      <trkpt lat="43.74345" lon="6.65393">
        <ele>1606.5</ele>
        <time>2024-05-26T10:10:26Z</time>
      </trkpt>
      <trkpt lat="43.74345" lon="6.65392">
        <ele>1606.5</ele>
        <time>2024-05-26T10:10:27Z</time>
      </trkpt>
      <trkpt lat="43.74345" lon="6.6539">
        <ele>1606.5</ele>
        <time>2024-05-26T10:10:28Z</time>
      </trkpt>
      <trkpt lat="43.74345" lon="6.65388">
        <ele>1606.5</ele>
        <time>2024-05-26T10:10:29Z</time>
      </trkpt>
      <trkpt lat="43.74344" lon="6.65387">
        <ele>1606.5</ele>
        <time>2024-05-26T10:10:30Z</time>
      </trkpt>
      <trkpt lat="43.74344" lon="6.65385">
        <ele>1606.6</ele>
        <time>2024-05-26T10:10:31Z</time>
      </trkpt>
      <trkpt lat="43.74344" lon="6.65384">
        <ele>1606.6</ele>
        <time>2024-05-26T10:10:32Z</time>
      </trkpt>
      <trkpt lat="43.74344" lon="6.65383">
        <ele>1606.6</ele>
        <time>2024-05-26T10:10:33Z</time>
      </trkpt>
      <trkpt lat="43.74343" lon="6.65381">
        <ele>1606.5</ele>
        <time>2024-05-26T10:10:34Z</time>
      </trkpt>
      <trkpt lat="43.74343" lon="6.65379">
        <ele>1606.4</ele>
        <time>2024-05-26T10:10:35Z</time>
      </trkpt>
      <trkpt lat="43.74343" lon="6.65378">
        <ele>1606.3</ele>
        <time>2024-05-26T10:10:36Z</time>
      </trkpt>
      <trkpt lat="43.74343" lon="6.65377">
        <ele>1606.2</ele>
        <time>2024-05-26T10:10:37Z</time>
      </trkpt>
      <trkpt lat="43.74342" lon="6.65376">
        <ele>1606.1</ele>
        <time>2024-05-26T10:10:38Z</time>
      </trkpt>
      <trkpt lat="43.74341" lon="6.65374">
        <ele>1606.2</ele>
        <time>2024-05-26T10:10:39Z</time>
      </trkpt>
      <trkpt lat="43.74341" lon="6.65373">
        <ele>1606.1</ele>
        <time>2024-05-26T10:10:40Z</time>
      </trkpt>
      <trkpt lat="43.74341" lon="6.65371">
        <ele>1606.1</ele>
        <time>2024-05-26T10:10:41Z</time>
      </trkpt>
      <trkpt lat="43.74341" lon="6.6537">
        <ele>1606.1</ele>
        <time>2024-05-26T10:10:42Z</time>
      </trkpt>
      <trkpt lat="43.7434" lon="6.65368">
        <ele>1606.1</ele>
        <time>2024-05-26T10:10:43Z</time>
      </trkpt>
      <trkpt lat="43.7434" lon="6.65367">
        <ele>1606.1</ele>
        <time>2024-05-26T10:10:44Z</time>
      </trkpt>
      <trkpt lat="43.74339" lon="6.65365">
        <ele>1606</ele>
        <time>2024-05-26T10:10:45Z</time>
      </trkpt>
      <trkpt lat="43.74339" lon="6.65364">
        <ele>1606</ele>
        <time>2024-05-26T10:10:46Z</time>
      </trkpt>
      <trkpt lat="43.74339" lon="6.65363">
        <ele>1605.8</ele>
        <time>2024-05-26T10:10:47Z</time>
      </trkpt>
      <trkpt lat="43.74339" lon="6.65361">
        <ele>1605.6</ele>
        <time>2024-05-26T10:10:48Z</time>
      </trkpt>
      <trkpt lat="43.74338" lon="6.65359">
        <ele>1605.5</ele>
        <time>2024-05-26T10:10:49Z</time>
      </trkpt>
      <trkpt lat="43.74338" lon="6.65358">
        <ele>1605.3</ele>
        <time>2024-05-26T10:10:50Z</time>
      </trkpt>
      <trkpt lat="43.74338" lon="6.65356">
        <ele>1605.3</ele>
        <time>2024-05-26T10:10:51Z</time>
      </trkpt>
      <trkpt lat="43.74338" lon="6.65355">
        <ele>1605.1</ele>
        <time>2024-05-26T10:10:52Z</time>
      </trkpt>
      <trkpt lat="43.74338" lon="6.65353">
        <ele>1605</ele>
        <time>2024-05-26T10:10:53Z</time>
      </trkpt>
      <trkpt lat="43.74338" lon="6.65352">
        <ele>1604.9</ele>
        <time>2024-05-26T10:10:54Z</time>
      </trkpt>
      <trkpt lat="43.74337" lon="6.6535">
        <ele>1604.8</ele>
        <time>2024-05-26T10:10:55Z</time>
      </trkpt>
      <trkpt lat="43.74337" lon="6.65349">
        <ele>1604.7</ele>
        <time>2024-05-26T10:10:56Z</time>
      </trkpt>
      <trkpt lat="43.74337" lon="6.65348">
        <ele>1604.5</ele>
        <time>2024-05-26T10:10:57Z</time>
      </trkpt>
      <trkpt lat="43.74336" lon="6.65346">
        <ele>1604.5</ele>
        <time>2024-05-26T10:10:58Z</time>
      </trkpt>
      <trkpt lat="43.74336" lon="6.65345">
        <ele>1604.4</ele>
        <time>2024-05-26T10:10:59Z</time>
      </trkpt>
      <trkpt lat="43.74335" lon="6.65344">
        <ele>1604.2</ele>
        <time>2024-05-26T10:11:00Z</time>
      </trkpt>
      <trkpt lat="43.74335" lon="6.65343">
        <ele>1604.1</ele>
        <time>2024-05-26T10:11:01Z</time>
      </trkpt>
      <trkpt lat="43.74334" lon="6.65342">
        <ele>1604</ele>
        <time>2024-05-26T10:11:02Z</time>
      </trkpt>
      <trkpt lat="43.74333" lon="6.65341">
        <ele>1604</ele>
        <time>2024-05-26T10:11:03Z</time>
      </trkpt>
      <trkpt lat="43.74332" lon="6.65341">
        <ele>1604</ele>
        <time>2024-05-26T10:11:04Z</time>
      </trkpt>
      <trkpt lat="43.74332" lon="6.65341">
        <ele>1603.9</ele>
        <time>2024-05-26T10:11:05Z</time>
      </trkpt>
      <trkpt lat="43.7433" lon="6.65341">
        <ele>1603.7</ele>
        <time>2024-05-26T10:11:06Z</time>
      </trkpt>
      <trkpt lat="43.7433" lon="6.65342">
        <ele>1603.6</ele>
        <time>2024-05-26T10:11:07Z</time>
      </trkpt>
      <trkpt lat="43.74329" lon="6.65343">
        <ele>1603.4</ele>
        <time>2024-05-26T10:11:08Z</time>
      </trkpt>
      <trkpt lat="43.74329" lon="6.65344">
        <ele>1603.2</ele>
        <time>2024-05-26T10:11:09Z</time>
      </trkpt>
      <trkpt lat="43.74329" lon="6.65346">
        <ele>1603.1</ele>
        <time>2024-05-26T10:11:10Z</time>
      </trkpt>
      <trkpt lat="43.74329" lon="6.65347">
        <ele>1602.9</ele>
        <time>2024-05-26T10:11:11Z</time>
      </trkpt>
      <trkpt lat="43.74329" lon="6.65348">
        <ele>1602.7</ele>
        <time>2024-05-26T10:11:12Z</time>
      </trkpt>
      <trkpt lat="43.74328" lon="6.65349">
        <ele>1602.5</ele>
        <time>2024-05-26T10:11:13Z</time>
      </trkpt>
      <trkpt lat="43.74329" lon="6.6535">
        <ele>1602.3</ele>
        <time>2024-05-26T10:11:14Z</time>
      </trkpt>
      <trkpt lat="43.74328" lon="6.65352">
        <ele>1602.1</ele>
        <time>2024-05-26T10:11:15Z</time>
      </trkpt>
      <trkpt lat="43.74328" lon="6.65353">
        <ele>1602</ele>
        <time>2024-05-26T10:11:16Z</time>
      </trkpt>
      <trkpt lat="43.74328" lon="6.65354">
        <ele>1601.8</ele>
        <time>2024-05-26T10:11:17Z</time>
      </trkpt>
      <trkpt lat="43.74328" lon="6.65356">
        <ele>1601.7</ele>
        <time>2024-05-26T10:11:18Z</time>
      </trkpt>
      <trkpt lat="43.74328" lon="6.65357">
        <ele>1601.6</ele>
        <time>2024-05-26T10:11:19Z</time>
      </trkpt>
      <trkpt lat="43.74328" lon="6.65358">
        <ele>1601.6</ele>
        <time>2024-05-26T10:11:20Z</time>
      </trkpt>
      <trkpt lat="43.74328" lon="6.6536">
        <ele>1601.5</ele>
        <time>2024-05-26T10:11:21Z</time>
      </trkpt>
      <trkpt lat="43.74328" lon="6.65361">
        <ele>1601.3</ele>
        <time>2024-05-26T10:11:22Z</time>
      </trkpt>
      <trkpt lat="43.74328" lon="6.65362">
        <ele>1601.1</ele>
        <time>2024-05-26T10:11:23Z</time>
      </trkpt>
      <trkpt lat="43.74328" lon="6.65364">
        <ele>1601</ele>
        <time>2024-05-26T10:11:24Z</time>
      </trkpt>
      <trkpt lat="43.74329" lon="6.65365">
        <ele>1600.8</ele>
        <time>2024-05-26T10:11:25Z</time>
      </trkpt>
      <trkpt lat="43.74329" lon="6.65366">
        <ele>1600.7</ele>
        <time>2024-05-26T10:11:26Z</time>
      </trkpt>
      <trkpt lat="43.74329" lon="6.65367">
        <ele>1600.6</ele>
        <time>2024-05-26T10:11:27Z</time>
      </trkpt>
      <trkpt lat="43.74329" lon="6.65368">
        <ele>1600.4</ele>
        <time>2024-05-26T10:11:28Z</time>
      </trkpt>
      <trkpt lat="43.74329" lon="6.65369">
        <ele>1600.1</ele>
        <time>2024-05-26T10:11:29Z</time>
      </trkpt>
      <trkpt lat="43.74329" lon="6.65371">
        <ele>1600</ele>
        <time>2024-05-26T10:11:30Z</time>
      </trkpt>
      <trkpt lat="43.74329" lon="6.65372">
        <ele>1599.8</ele>
        <time>2024-05-26T10:11:31Z</time>
      </trkpt>
      <trkpt lat="43.74328" lon="6.65373">
        <ele>1599.8</ele>
        <time>2024-05-26T10:11:32Z</time>
      </trkpt>
      <trkpt lat="43.74328" lon="6.65375">
        <ele>1599.8</ele>
        <time>2024-05-26T10:11:33Z</time>
      </trkpt>
      <trkpt lat="43.74329" lon="6.65376">
        <ele>1599.7</ele>
        <time>2024-05-26T10:11:34Z</time>
      </trkpt>
      <trkpt lat="43.74328" lon="6.65377">
        <ele>1599.5</ele>
        <time>2024-05-26T10:11:35Z</time>
      </trkpt>
      <trkpt lat="43.74328" lon="6.65378">
        <ele>1599.4</ele>
        <time>2024-05-26T10:11:36Z</time>
      </trkpt>
      <trkpt lat="43.74328" lon="6.65379">
        <ele>1599.2</ele>
        <time>2024-05-26T10:11:37Z</time>
      </trkpt>
      <trkpt lat="43.74328" lon="6.6538">
        <ele>1599</ele>
        <time>2024-05-26T10:11:38Z</time>
      </trkpt>
      <trkpt lat="43.74328" lon="6.65382">
        <ele>1598.9</ele>
        <time>2024-05-26T10:11:39Z</time>
      </trkpt>
      <trkpt lat="43.74327" lon="6.65383">
        <ele>1598.9</ele>
        <time>2024-05-26T10:11:40Z</time>
      </trkpt>
      <trkpt lat="43.74327" lon="6.65385">
        <ele>1598.8</ele>
        <time>2024-05-26T10:11:41Z</time>
      </trkpt>
      <trkpt lat="43.74327" lon="6.65386">
        <ele>1598.8</ele>
        <time>2024-05-26T10:11:42Z</time>
      </trkpt>
      <trkpt lat="43.74327" lon="6.65388">
        <ele>1598.8</ele>
        <time>2024-05-26T10:11:43Z</time>
      </trkpt>
      <trkpt lat="43.74327" lon="6.65389">
        <ele>1598.7</ele>
        <time>2024-05-26T10:11:44Z</time>
      </trkpt>
      <trkpt lat="43.74327" lon="6.65391">
        <ele>1598.6</ele>
        <time>2024-05-26T10:11:45Z</time>
      </trkpt>
      <trkpt lat="43.74326" lon="6.65392">
        <ele>1598.4</ele>
        <time>2024-05-26T10:11:46Z</time>
      </trkpt>
      <trkpt lat="43.74326" lon="6.65394">
        <ele>1598.2</ele>
        <time>2024-05-26T10:11:47Z</time>
      </trkpt>
      <trkpt lat="43.74326" lon="6.65396">
        <ele>1598</ele>
        <time>2024-05-26T10:11:48Z</time>
      </trkpt>
      <trkpt lat="43.74325" lon="6.65398">
        <ele>1597.8</ele>
        <time>2024-05-26T10:11:49Z</time>
      </trkpt>
      <trkpt lat="43.74325" lon="6.654">
        <ele>1597.6</ele>
        <time>2024-05-26T10:11:50Z</time>
      </trkpt>
      <trkpt lat="43.74325" lon="6.65401">
        <ele>1597.4</ele>
        <time>2024-05-26T10:11:51Z</time>
      </trkpt>
      <trkpt lat="43.74325" lon="6.65403">
        <ele>1597.3</ele>
        <time>2024-05-26T10:11:52Z</time>
      </trkpt>
      <trkpt lat="43.74325" lon="6.65405">
        <ele>1597.1</ele>
        <time>2024-05-26T10:11:53Z</time>
      </trkpt>
      <trkpt lat="43.74325" lon="6.65407">
        <ele>1596.9</ele>
        <time>2024-05-26T10:11:54Z</time>
      </trkpt>
      <trkpt lat="43.74325" lon="6.65408">
        <ele>1596.7</ele>
        <time>2024-05-26T10:11:55Z</time>
      </trkpt>
      <trkpt lat="43.74325" lon="6.65409">
        <ele>1596.5</ele>
        <time>2024-05-26T10:11:56Z</time>
      </trkpt>
      <trkpt lat="43.74325" lon="6.6541">
        <ele>1596.2</ele>
        <time>2024-05-26T10:11:57Z</time>
      </trkpt>
      <trkpt lat="43.74325" lon="6.65412">
        <ele>1595.9</ele>
        <time>2024-05-26T10:11:58Z</time>
      </trkpt>
      <trkpt lat="43.74324" lon="6.65413">
        <ele>1595.8</ele>
        <time>2024-05-26T10:11:59Z</time>
      </trkpt>
      <trkpt lat="43.74325" lon="6.65415">
        <ele>1595.7</ele>
        <time>2024-05-26T10:12:00Z</time>
      </trkpt>
      <trkpt lat="43.74324" lon="6.65418">
        <ele>1595.6</ele>
        <time>2024-05-26T10:12:01Z</time>
      </trkpt>
      <trkpt lat="43.74324" lon="6.65419">
        <ele>1595.6</ele>
        <time>2024-05-26T10:12:02Z</time>
      </trkpt>
      <trkpt lat="43.74324" lon="6.65421">
        <ele>1595.6</ele>
        <time>2024-05-26T10:12:03Z</time>
      </trkpt>
      <trkpt lat="43.74324" lon="6.65422">
        <ele>1595.7</ele>
        <time>2024-05-26T10:12:04Z</time>
      </trkpt>
      <trkpt lat="43.74324" lon="6.65424">
        <ele>1595.5</ele>
        <time>2024-05-26T10:12:05Z</time>
      </trkpt>
      <trkpt lat="43.74324" lon="6.65425">
        <ele>1595.4</ele>
        <time>2024-05-26T10:12:06Z</time>
      </trkpt>
      <trkpt lat="43.74324" lon="6.65426">
        <ele>1595.3</ele>
        <time>2024-05-26T10:12:07Z</time>
      </trkpt>
      <trkpt lat="43.74324" lon="6.65428">
        <ele>1595.2</ele>
        <time>2024-05-26T10:12:08Z</time>
      </trkpt>
      <trkpt lat="43.74323" lon="6.65429">
        <ele>1595.2</ele>
        <time>2024-05-26T10:12:09Z</time>
      </trkpt>
      <trkpt lat="43.74323" lon="6.65431">
        <ele>1595.1</ele>
        <time>2024-05-26T10:12:10Z</time>
      </trkpt>
      <trkpt lat="43.74323" lon="6.65432">
        <ele>1595.1</ele>
        <time>2024-05-26T10:12:11Z</time>
      </trkpt>
      <trkpt lat="43.74324" lon="6.65434">
        <ele>1595</ele>
        <time>2024-05-26T10:12:12Z</time>
      </trkpt>
      <trkpt lat="43.74324" lon="6.65435">
        <ele>1594.9</ele>
        <time>2024-05-26T10:12:13Z</time>
      </trkpt>
      <trkpt lat="43.74324" lon="6.65436">
        <ele>1594.8</ele>
        <time>2024-05-26T10:12:14Z</time>
      </trkpt>
      <trkpt lat="43.74324" lon="6.65438">
        <ele>1594.7</ele>
        <time>2024-05-26T10:12:15Z</time>
      </trkpt>
      <trkpt lat="43.74324" lon="6.65439">
        <ele>1594.6</ele>
        <time>2024-05-26T10:12:16Z</time>
      </trkpt>
      <trkpt lat="43.74323" lon="6.65441">
        <ele>1594.5</ele>
        <time>2024-05-26T10:12:17Z</time>
      </trkpt>
      <trkpt lat="43.74323" lon="6.65442">
        <ele>1594.3</ele>
        <time>2024-05-26T10:12:18Z</time>
      </trkpt>
      <trkpt lat="43.74323" lon="6.65444">
        <ele>1594.1</ele>
        <time>2024-05-26T10:12:19Z</time>
      </trkpt>
      <trkpt lat="43.74323" lon="6.65445">
        <ele>1594</ele>
        <time>2024-05-26T10:12:20Z</time>
      </trkpt>
      <trkpt lat="43.74323" lon="6.65446">
        <ele>1594</ele>
        <time>2024-05-26T10:12:21Z</time>
      </trkpt>
      <trkpt lat="43.74323" lon="6.65448">
        <ele>1593.9</ele>
        <time>2024-05-26T10:12:22Z</time>
      </trkpt>
      <trkpt lat="43.74323" lon="6.65449">
        <ele>1593.5</ele>
        <time>2024-05-26T10:12:23Z</time>
      </trkpt>
      <trkpt lat="43.74323" lon="6.6545">
        <ele>1593.3</ele>
        <time>2024-05-26T10:12:24Z</time>
      </trkpt>
      <trkpt lat="43.74323" lon="6.65451">
        <ele>1593.3</ele>
        <time>2024-05-26T10:12:25Z</time>
      </trkpt>
      <trkpt lat="43.74322" lon="6.65453">
        <ele>1593.3</ele>
        <time>2024-05-26T10:12:26Z</time>
      </trkpt>
      <trkpt lat="43.74322" lon="6.65455">
        <ele>1593.2</ele>
        <time>2024-05-26T10:12:27Z</time>
      </trkpt>
      <trkpt lat="43.74322" lon="6.65456">
        <ele>1593.2</ele>
        <time>2024-05-26T10:12:28Z</time>
      </trkpt>
      <trkpt lat="43.74322" lon="6.65458">
        <ele>1593.1</ele>
        <time>2024-05-26T10:12:29Z</time>
      </trkpt>
      <trkpt lat="43.74322" lon="6.65458">
        <ele>1593.1</ele>
        <time>2024-05-26T10:12:30Z</time>
      </trkpt>
      <trkpt lat="43.74322" lon="6.65459">
        <ele>1593</ele>
        <time>2024-05-26T10:12:31Z</time>
      </trkpt>
      <trkpt lat="43.74322" lon="6.6546">
        <ele>1592.9</ele>
        <time>2024-05-26T10:12:32Z</time>
      </trkpt>
      <trkpt lat="43.74322" lon="6.65462">
        <ele>1592.7</ele>
        <time>2024-05-26T10:12:33Z</time>
      </trkpt>
      <trkpt lat="43.74322" lon="6.65463">
        <ele>1592.5</ele>
        <time>2024-05-26T10:12:34Z</time>
      </trkpt>
      <trkpt lat="43.74322" lon="6.65465">
        <ele>1592.4</ele>
        <time>2024-05-26T10:12:35Z</time>
      </trkpt>
      <trkpt lat="43.74322" lon="6.65466">
        <ele>1592.1</ele>
        <time>2024-05-26T10:12:36Z</time>
      </trkpt>
      <trkpt lat="43.74322" lon="6.65468">
        <ele>1592.1</ele>
        <time>2024-05-26T10:12:37Z</time>
      </trkpt>
      <trkpt lat="43.74323" lon="6.65469">
        <ele>1592.1</ele>
        <time>2024-05-26T10:12:38Z</time>
      </trkpt>
      <trkpt lat="43.74323" lon="6.6547">
        <ele>1591.9</ele>
        <time>2024-05-26T10:12:39Z</time>
      </trkpt>
      <trkpt lat="43.74323" lon="6.65472">
        <ele>1591.9</ele>
        <time>2024-05-26T10:12:40Z</time>
      </trkpt>
      <trkpt lat="43.74323" lon="6.65473">
        <ele>1591.8</ele>
        <time>2024-05-26T10:12:41Z</time>
      </trkpt>
      <trkpt lat="43.74323" lon="6.65474">
        <ele>1591.7</ele>
        <time>2024-05-26T10:12:42Z</time>
      </trkpt>
      <trkpt lat="43.74322" lon="6.65475">
        <ele>1591.6</ele>
        <time>2024-05-26T10:12:43Z</time>
      </trkpt>
      <trkpt lat="43.74323" lon="6.65477">
        <ele>1591.5</ele>
        <time>2024-05-26T10:12:44Z</time>
      </trkpt>
      <trkpt lat="43.74323" lon="6.65478">
        <ele>1591.5</ele>
        <time>2024-05-26T10:12:45Z</time>
      </trkpt>
      <trkpt lat="43.74323" lon="6.65479">
        <ele>1591.4</ele>
        <time>2024-05-26T10:12:46Z</time>
      </trkpt>
      <trkpt lat="43.74322" lon="6.65481">
        <ele>1591.3</ele>
        <time>2024-05-26T10:12:47Z</time>
      </trkpt>
      <trkpt lat="43.74322" lon="6.65482">
        <ele>1591.2</ele>
        <time>2024-05-26T10:12:48Z</time>
      </trkpt>
      <trkpt lat="43.74323" lon="6.65484">
        <ele>1591</ele>
        <time>2024-05-26T10:12:49Z</time>
      </trkpt>
      <trkpt lat="43.74323" lon="6.65486">
        <ele>1590.9</ele>
        <time>2024-05-26T10:12:50Z</time>
      </trkpt>
      <trkpt lat="43.74323" lon="6.65488">
        <ele>1590.9</ele>
        <time>2024-05-26T10:12:51Z</time>
      </trkpt>
      <trkpt lat="43.74323" lon="6.65489">
        <ele>1590.7</ele>
        <time>2024-05-26T10:12:52Z</time>
      </trkpt>
      <trkpt lat="43.74324" lon="6.65491">
        <ele>1590.6</ele>
        <time>2024-05-26T10:12:53Z</time>
      </trkpt>
      <trkpt lat="43.74324" lon="6.65492">
        <ele>1590.6</ele>
        <time>2024-05-26T10:12:54Z</time>
      </trkpt>
      <trkpt lat="43.74323" lon="6.65494">
        <ele>1590.4</ele>
        <time>2024-05-26T10:12:55Z</time>
      </trkpt>
      <trkpt lat="43.74323" lon="6.65496">
        <ele>1590.4</ele>
        <time>2024-05-26T10:12:56Z</time>
      </trkpt>
      <trkpt lat="43.74323" lon="6.65498">
        <ele>1590.3</ele>
        <time>2024-05-26T10:12:57Z</time>
      </trkpt>
      <trkpt lat="43.74323" lon="6.65499">
        <ele>1590.1</ele>
        <time>2024-05-26T10:12:58Z</time>
      </trkpt>
      <trkpt lat="43.74323" lon="6.655">
        <ele>1590.1</ele>
        <time>2024-05-26T10:12:59Z</time>
      </trkpt>
      <trkpt lat="43.74324" lon="6.65502">
        <ele>1590.1</ele>
        <time>2024-05-26T10:13:00Z</time>
      </trkpt>
      <trkpt lat="43.74324" lon="6.65503">
        <ele>1590</ele>
        <time>2024-05-26T10:13:01Z</time>
      </trkpt>
      <trkpt lat="43.74324" lon="6.65505">
        <ele>1589.9</ele>
        <time>2024-05-26T10:13:02Z</time>
      </trkpt>
      <trkpt lat="43.74324" lon="6.65507">
        <ele>1589.7</ele>
        <time>2024-05-26T10:13:03Z</time>
      </trkpt>
      <trkpt lat="43.74324" lon="6.65508">
        <ele>1589.6</ele>
        <time>2024-05-26T10:13:04Z</time>
      </trkpt>
      <trkpt lat="43.74324" lon="6.6551">
        <ele>1589.4</ele>
        <time>2024-05-26T10:13:05Z</time>
      </trkpt>
      <trkpt lat="43.74324" lon="6.65511">
        <ele>1589.3</ele>
        <time>2024-05-26T10:13:06Z</time>
      </trkpt>
      <trkpt lat="43.74324" lon="6.65513">
        <ele>1589.1</ele>
        <time>2024-05-26T10:13:07Z</time>
      </trkpt>
      <trkpt lat="43.74324" lon="6.65514">
        <ele>1589</ele>
        <time>2024-05-26T10:13:08Z</time>
      </trkpt>
      <trkpt lat="43.74324" lon="6.65516">
        <ele>1589</ele>
        <time>2024-05-26T10:13:09Z</time>
      </trkpt>
      <trkpt lat="43.74324" lon="6.65517">
        <ele>1588.9</ele>
        <time>2024-05-26T10:13:10Z</time>
      </trkpt>
      <trkpt lat="43.74324" lon="6.65518">
        <ele>1588.9</ele>
        <time>2024-05-26T10:13:11Z</time>
      </trkpt>
      <trkpt lat="43.74324" lon="6.6552">
        <ele>1588.8</ele>
        <time>2024-05-26T10:13:12Z</time>
      </trkpt>
      <trkpt lat="43.74324" lon="6.65522">
        <ele>1588.8</ele>
        <time>2024-05-26T10:13:13Z</time>
      </trkpt>
      <trkpt lat="43.74324" lon="6.65523">
        <ele>1588.7</ele>
        <time>2024-05-26T10:13:14Z</time>
      </trkpt>
      <trkpt lat="43.74324" lon="6.65525">
        <ele>1588.6</ele>
        <time>2024-05-26T10:13:15Z</time>
      </trkpt>
      <trkpt lat="43.74324" lon="6.65527">
        <ele>1588.5</ele>
        <time>2024-05-26T10:13:16Z</time>
      </trkpt>
      <trkpt lat="43.74325" lon="6.65528">
        <ele>1588.4</ele>
        <time>2024-05-26T10:13:17Z</time>
      </trkpt>
      <trkpt lat="43.74324" lon="6.65529">
        <ele>1588.2</ele>
        <time>2024-05-26T10:13:18Z</time>
      </trkpt>
      <trkpt lat="43.74324" lon="6.65531">
        <ele>1588.1</ele>
        <time>2024-05-26T10:13:19Z</time>
      </trkpt>
      <trkpt lat="43.74324" lon="6.65532">
        <ele>1588</ele>
        <time>2024-05-26T10:13:20Z</time>
      </trkpt>
      <trkpt lat="43.74324" lon="6.65534">
        <ele>1587.9</ele>
        <time>2024-05-26T10:13:21Z</time>
      </trkpt>
      <trkpt lat="43.74324" lon="6.65535">
        <ele>1587.8</ele>
        <time>2024-05-26T10:13:22Z</time>
      </trkpt>
      <trkpt lat="43.74324" lon="6.65537">
        <ele>1587.7</ele>
        <time>2024-05-26T10:13:23Z</time>
      </trkpt>
      <trkpt lat="43.74324" lon="6.65538">
        <ele>1587.6</ele>
        <time>2024-05-26T10:13:24Z</time>
      </trkpt>
      <trkpt lat="43.74324" lon="6.65539">
        <ele>1587.4</ele>
        <time>2024-05-26T10:13:25Z</time>
      </trkpt>
      <trkpt lat="43.74324" lon="6.65541">
        <ele>1587.2</ele>
        <time>2024-05-26T10:13:26Z</time>
      </trkpt>
      <trkpt lat="43.74324" lon="6.65542">
        <ele>1587.1</ele>
        <time>2024-05-26T10:13:27Z</time>
      </trkpt>
      <trkpt lat="43.74324" lon="6.65544">
        <ele>1586.9</ele>
        <time>2024-05-26T10:13:28Z</time>
      </trkpt>
      <trkpt lat="43.74324" lon="6.65545">
        <ele>1586.7</ele>
        <time>2024-05-26T10:13:29Z</time>
      </trkpt>
      <trkpt lat="43.74324" lon="6.65547">
        <ele>1586.5</ele>
        <time>2024-05-26T10:13:30Z</time>
      </trkpt>
      <trkpt lat="43.74323" lon="6.65548">
        <ele>1586.4</ele>
        <time>2024-05-26T10:13:31Z</time>
      </trkpt>
      <trkpt lat="43.74324" lon="6.65549">
        <ele>1586.2</ele>
        <time>2024-05-26T10:13:32Z</time>
      </trkpt>
      <trkpt lat="43.74324" lon="6.65551">
        <ele>1586.1</ele>
        <time>2024-05-26T10:13:33Z</time>
      </trkpt>
      <trkpt lat="43.74324" lon="6.65553">
        <ele>1585.9</ele>
        <time>2024-05-26T10:13:34Z</time>
      </trkpt>
      <trkpt lat="43.74324" lon="6.65554">
        <ele>1585.7</ele>
        <time>2024-05-26T10:13:35Z</time>
      </trkpt>
      <trkpt lat="43.74324" lon="6.65556">
        <ele>1585.6</ele>
        <time>2024-05-26T10:13:36Z</time>
      </trkpt>
      <trkpt lat="43.74324" lon="6.65557">
        <ele>1585.6</ele>
        <time>2024-05-26T10:13:37Z</time>
      </trkpt>
      <trkpt lat="43.74324" lon="6.65559">
        <ele>1585.5</ele>
        <time>2024-05-26T10:13:38Z</time>
      </trkpt>
      <trkpt lat="43.74324" lon="6.6556">
        <ele>1585.4</ele>
        <time>2024-05-26T10:13:39Z</time>
      </trkpt>
      <trkpt lat="43.74324" lon="6.65561">
        <ele>1585.3</ele>
        <time>2024-05-26T10:13:40Z</time>
      </trkpt>
      <trkpt lat="43.74324" lon="6.65563">
        <ele>1585.1</ele>
        <time>2024-05-26T10:13:41Z</time>
      </trkpt>
      <trkpt lat="43.74324" lon="6.65564">
        <ele>1584.9</ele>
        <time>2024-05-26T10:13:42Z</time>
      </trkpt>
      <trkpt lat="43.74324" lon="6.65566">
        <ele>1584.8</ele>
        <time>2024-05-26T10:13:43Z</time>
      </trkpt>
      <trkpt lat="43.74324" lon="6.65568">
        <ele>1584.7</ele>
        <time>2024-05-26T10:13:44Z</time>
      </trkpt>
      <trkpt lat="43.74324" lon="6.65569">
        <ele>1584.5</ele>
        <time>2024-05-26T10:13:45Z</time>
      </trkpt>
      <trkpt lat="43.74324" lon="6.6557">
        <ele>1584.3</ele>
        <time>2024-05-26T10:13:46Z</time>
      </trkpt>
      <trkpt lat="43.74324" lon="6.65571">
        <ele>1584.1</ele>
        <time>2024-05-26T10:13:47Z</time>
      </trkpt>
      <trkpt lat="43.74324" lon="6.65573">
        <ele>1583.8</ele>
        <time>2024-05-26T10:13:48Z</time>
      </trkpt>
      <trkpt lat="43.74324" lon="6.65574">
        <ele>1583.8</ele>
        <time>2024-05-26T10:13:49Z</time>
      </trkpt>
      <trkpt lat="43.74324" lon="6.65576">
        <ele>1583.7</ele>
        <time>2024-05-26T10:13:50Z</time>
      </trkpt>
      <trkpt lat="43.74324" lon="6.65578">
        <ele>1583.7</ele>
        <time>2024-05-26T10:13:51Z</time>
      </trkpt>
      <trkpt lat="43.74324" lon="6.6558">
        <ele>1583.4</ele>
        <time>2024-05-26T10:13:52Z</time>
      </trkpt>
      <trkpt lat="43.74324" lon="6.65581">
        <ele>1583.3</ele>
        <time>2024-05-26T10:13:53Z</time>
      </trkpt>
      <trkpt lat="43.74325" lon="6.65583">
        <ele>1583.1</ele>
        <time>2024-05-26T10:13:54Z</time>
      </trkpt>
      <trkpt lat="43.74325" lon="6.65584">
        <ele>1582.9</ele>
        <time>2024-05-26T10:13:55Z</time>
      </trkpt>
      <trkpt lat="43.74326" lon="6.65586">
        <ele>1582.8</ele>
        <time>2024-05-26T10:13:56Z</time>
      </trkpt>
      <trkpt lat="43.74326" lon="6.65587">
        <ele>1582.6</ele>
        <time>2024-05-26T10:13:57Z</time>
      </trkpt>
      <trkpt lat="43.74325" lon="6.65588">
        <ele>1582.5</ele>
        <time>2024-05-26T10:13:58Z</time>
      </trkpt>
      <trkpt lat="43.74325" lon="6.6559">
        <ele>1582.3</ele>
        <time>2024-05-26T10:13:59Z</time>
      </trkpt>
      <trkpt lat="43.74325" lon="6.65592">
        <ele>1582.1</ele>
        <time>2024-05-26T10:14:00Z</time>
      </trkpt>
      <trkpt lat="43.74326" lon="6.65593">
        <ele>1582</ele>
        <time>2024-05-26T10:14:01Z</time>
      </trkpt>
      <trkpt lat="43.74326" lon="6.65595">
        <ele>1581.9</ele>
        <time>2024-05-26T10:14:02Z</time>
      </trkpt>
      <trkpt lat="43.74327" lon="6.65597">
        <ele>1581.8</ele>
        <time>2024-05-26T10:14:03Z</time>
      </trkpt>
      <trkpt lat="43.74327" lon="6.65598">
        <ele>1581.6</ele>
        <time>2024-05-26T10:14:04Z</time>
      </trkpt>
      <trkpt lat="43.74327" lon="6.65599">
        <ele>1581.4</ele>
        <time>2024-05-26T10:14:05Z</time>
      </trkpt>
      <trkpt lat="43.74327" lon="6.65601">
        <ele>1581.3</ele>
        <time>2024-05-26T10:14:06Z</time>
      </trkpt>
      <trkpt lat="43.74328" lon="6.65602">
        <ele>1581</ele>
        <time>2024-05-26T10:14:07Z</time>
      </trkpt>
      <trkpt lat="43.74328" lon="6.65603">
        <ele>1580.9</ele>
        <time>2024-05-26T10:14:08Z</time>
      </trkpt>
      <trkpt lat="43.74328" lon="6.65605">
        <ele>1580.8</ele>
        <time>2024-05-26T10:14:09Z</time>
      </trkpt>
      <trkpt lat="43.74328" lon="6.65607">
        <ele>1580.6</ele>
        <time>2024-05-26T10:14:10Z</time>
      </trkpt>
      <trkpt lat="43.74328" lon="6.65608">
        <ele>1580.6</ele>
        <time>2024-05-26T10:14:11Z</time>
      </trkpt>
      <trkpt lat="43.74328" lon="6.65609">
        <ele>1580.6</ele>
        <time>2024-05-26T10:14:12Z</time>
      </trkpt>
      <trkpt lat="43.74328" lon="6.6561">
        <ele>1580.5</ele>
        <time>2024-05-26T10:14:13Z</time>
      </trkpt>
      <trkpt lat="43.74329" lon="6.65611">
        <ele>1580.5</ele>
        <time>2024-05-26T10:14:14Z</time>
      </trkpt>
      <trkpt lat="43.74329" lon="6.65613">
        <ele>1580.2</ele>
        <time>2024-05-26T10:14:15Z</time>
      </trkpt>
      <trkpt lat="43.7433" lon="6.65615">
        <ele>1580</ele>
        <time>2024-05-26T10:14:16Z</time>
      </trkpt>
      <trkpt lat="43.7433" lon="6.65617">
        <ele>1579.9</ele>
        <time>2024-05-26T10:14:17Z</time>
      </trkpt>
      <trkpt lat="43.7433" lon="6.65619">
        <ele>1579.7</ele>
        <time>2024-05-26T10:14:18Z</time>
      </trkpt>
      <trkpt lat="43.7433" lon="6.65621">
        <ele>1579.5</ele>
        <time>2024-05-26T10:14:19Z</time>
      </trkpt>
      <trkpt lat="43.74331" lon="6.65623">
        <ele>1579.3</ele>
        <time>2024-05-26T10:14:20Z</time>
      </trkpt>
      <trkpt lat="43.74331" lon="6.65624">
        <ele>1579.2</ele>
        <time>2024-05-26T10:14:21Z</time>
      </trkpt>
      <trkpt lat="43.74331" lon="6.65625">
        <ele>1579.1</ele>
        <time>2024-05-26T10:14:22Z</time>
      </trkpt>
      <trkpt lat="43.74332" lon="6.65626">
        <ele>1579</ele>
        <time>2024-05-26T10:14:23Z</time>
      </trkpt>
      <trkpt lat="43.74332" lon="6.65626">
        <ele>1578.9</ele>
        <time>2024-05-26T10:14:24Z</time>
      </trkpt>
      <trkpt lat="43.74333" lon="6.65626">
        <ele>1578.9</ele>
        <time>2024-05-26T10:14:25Z</time>
      </trkpt>
      <trkpt lat="43.74333" lon="6.65626">
        <ele>1578.8</ele>
        <time>2024-05-26T10:14:26Z</time>
      </trkpt>
      <trkpt lat="43.74333" lon="6.65626">
        <ele>1578.8</ele>
        <time>2024-05-26T10:14:27Z</time>
      </trkpt>
      <trkpt lat="43.74333" lon="6.65627">
        <ele>1578.7</ele>
        <time>2024-05-26T10:14:28Z</time>
      </trkpt>
      <trkpt lat="43.74333" lon="6.65627">
        <ele>1578.7</ele>
        <time>2024-05-26T10:14:29Z</time>
      </trkpt>
      <trkpt lat="43.74333" lon="6.65627">
        <ele>1578.7</ele>
        <time>2024-05-26T10:14:30Z</time>
      </trkpt>
      <trkpt lat="43.74333" lon="6.65627">
        <ele>1578.6</ele>
        <time>2024-05-26T10:14:31Z</time>
      </trkpt>
      <trkpt lat="43.74333" lon="6.65627">
        <ele>1578.6</ele>
        <time>2024-05-26T10:14:32Z</time>
      </trkpt>
      <trkpt lat="43.74333" lon="6.65627">
        <ele>1578.5</ele>
        <time>2024-05-26T10:14:33Z</time>
      </trkpt>
      <trkpt lat="43.74333" lon="6.65627">
        <ele>1578.6</ele>
        <time>2024-05-26T10:14:34Z</time>
      </trkpt>
      <trkpt lat="43.74333" lon="6.65627">
        <ele>1578.5</ele>
        <time>2024-05-26T10:14:35Z</time>
      </trkpt>
      <trkpt lat="43.74333" lon="6.65627">
        <ele>1578.4</ele>
        <time>2024-05-26T10:14:36Z</time>
      </trkpt>
      <trkpt lat="43.74333" lon="6.65628">
        <ele>1578.3</ele>
        <time>2024-05-26T10:14:37Z</time>
      </trkpt>
      <trkpt lat="43.74334" lon="6.65629">
        <ele>1578.2</ele>
        <time>2024-05-26T10:14:38Z</time>
      </trkpt>
      <trkpt lat="43.74334" lon="6.65629">
        <ele>1578.1</ele>
        <time>2024-05-26T10:14:39Z</time>
      </trkpt>
      <trkpt lat="43.74335" lon="6.65629">
        <ele>1578.1</ele>
        <time>2024-05-26T10:14:40Z</time>
      </trkpt>
      <trkpt lat="43.74335" lon="6.65629">
        <ele>1578</ele>
        <time>2024-05-26T10:14:41Z</time>
      </trkpt>
      <trkpt lat="43.74335" lon="6.65629">
        <ele>1578</ele>
        <time>2024-05-26T10:14:42Z</time>
      </trkpt>
      <trkpt lat="43.74335" lon="6.65629">
        <ele>1578.1</ele>
        <time>2024-05-26T10:14:43Z</time>
      </trkpt>
      <trkpt lat="43.74335" lon="6.65629">
        <ele>1578.1</ele>
        <time>2024-05-26T10:14:44Z</time>
      </trkpt>
      <trkpt lat="43.74335" lon="6.65629">
        <ele>1578.1</ele>
        <time>2024-05-26T10:14:45Z</time>
      </trkpt>
      <trkpt lat="43.74335" lon="6.6563">
        <ele>1578.1</ele>
        <time>2024-05-26T10:14:46Z</time>
      </trkpt>
      <trkpt lat="43.74335" lon="6.65632">
        <ele>1578</ele>
        <time>2024-05-26T10:14:47Z</time>
      </trkpt>
      <trkpt lat="43.74335" lon="6.65633">
        <ele>1578</ele>
        <time>2024-05-26T10:14:48Z</time>
      </trkpt>
      <trkpt lat="43.74335" lon="6.65634">
        <ele>1578</ele>
        <time>2024-05-26T10:14:49Z</time>
      </trkpt>
      <trkpt lat="43.74335" lon="6.65635">
        <ele>1577.9</ele>
        <time>2024-05-26T10:14:50Z</time>
      </trkpt>
      <trkpt lat="43.74335" lon="6.65636">
        <ele>1577.9</ele>
        <time>2024-05-26T10:14:51Z</time>
      </trkpt>
      <trkpt lat="43.74336" lon="6.65638">
        <ele>1577.8</ele>
        <time>2024-05-26T10:14:52Z</time>
      </trkpt>
      <trkpt lat="43.74336" lon="6.65639">
        <ele>1577.7</ele>
        <time>2024-05-26T10:14:53Z</time>
      </trkpt>
      <trkpt lat="43.74336" lon="6.65641">
        <ele>1577.7</ele>
        <time>2024-05-26T10:14:54Z</time>
      </trkpt>
      <trkpt lat="43.74337" lon="6.65642">
        <ele>1577.6</ele>
        <time>2024-05-26T10:14:55Z</time>
      </trkpt>
      <trkpt lat="43.74337" lon="6.65643">
        <ele>1577.5</ele>
        <time>2024-05-26T10:14:56Z</time>
      </trkpt>
      <trkpt lat="43.74337" lon="6.65645">
        <ele>1577.4</ele>
        <time>2024-05-26T10:14:57Z</time>
      </trkpt>
      <trkpt lat="43.74337" lon="6.65647">
        <ele>1577.2</ele>
        <time>2024-05-26T10:14:58Z</time>
      </trkpt>
      <trkpt lat="43.74338" lon="6.65649">
        <ele>1577.1</ele>
        <time>2024-05-26T10:14:59Z</time>
      </trkpt>
      <trkpt lat="43.74338" lon="6.65651">
        <ele>1576.9</ele>
        <time>2024-05-26T10:15:00Z</time>
      </trkpt>
      <trkpt lat="43.74338" lon="6.65652">
        <ele>1576.8</ele>
        <time>2024-05-26T10:15:01Z</time>
      </trkpt>
      <trkpt lat="43.74338" lon="6.65653">
        <ele>1576.7</ele>
        <time>2024-05-26T10:15:02Z</time>
      </trkpt>
      <trkpt lat="43.74339" lon="6.65655">
        <ele>1576.6</ele>
        <time>2024-05-26T10:15:03Z</time>
      </trkpt>
      <trkpt lat="43.74339" lon="6.65656">
        <ele>1576.4</ele>
        <time>2024-05-26T10:15:04Z</time>
      </trkpt>
      <trkpt lat="43.74339" lon="6.65657">
        <ele>1576.4</ele>
        <time>2024-05-26T10:15:05Z</time>
      </trkpt>
      <trkpt lat="43.74339" lon="6.65659">
        <ele>1576.4</ele>
        <time>2024-05-26T10:15:06Z</time>
      </trkpt>
      <trkpt lat="43.7434" lon="6.6566">
        <ele>1576.2</ele>
        <time>2024-05-26T10:15:07Z</time>
      </trkpt>
      <trkpt lat="43.7434" lon="6.65662">
        <ele>1576</ele>
        <time>2024-05-26T10:15:08Z</time>
      </trkpt>
      <trkpt lat="43.7434" lon="6.65663">
        <ele>1575.9</ele>
        <time>2024-05-26T10:15:09Z</time>
      </trkpt>
      <trkpt lat="43.7434" lon="6.65664">
        <ele>1575.8</ele>
        <time>2024-05-26T10:15:10Z</time>
      </trkpt>
      <trkpt lat="43.74341" lon="6.65666">
        <ele>1575.6</ele>
        <time>2024-05-26T10:15:11Z</time>
      </trkpt>
      <trkpt lat="43.74341" lon="6.65667">
        <ele>1575.4</ele>
        <time>2024-05-26T10:15:12Z</time>
      </trkpt>
      <trkpt lat="43.74341" lon="6.65668">
        <ele>1575.3</ele>
        <time>2024-05-26T10:15:13Z</time>
      </trkpt>
      <trkpt lat="43.74341" lon="6.6567">
        <ele>1575.1</ele>
        <time>2024-05-26T10:15:14Z</time>
      </trkpt>
      <trkpt lat="43.74341" lon="6.65672">
        <ele>1574.9</ele>
        <time>2024-05-26T10:15:15Z</time>
      </trkpt>
      <trkpt lat="43.74342" lon="6.65673">
        <ele>1574.8</ele>
        <time>2024-05-26T10:15:16Z</time>
      </trkpt>
      <trkpt lat="43.74342" lon="6.65675">
        <ele>1574.6</ele>
        <time>2024-05-26T10:15:17Z</time>
      </trkpt>
      <trkpt lat="43.74343" lon="6.65676">
        <ele>1574.5</ele>
        <time>2024-05-26T10:15:18Z</time>
      </trkpt>
      <trkpt lat="43.74343" lon="6.65678">
        <ele>1574.3</ele>
        <time>2024-05-26T10:15:19Z</time>
      </trkpt>
      <trkpt lat="43.74344" lon="6.65679">
        <ele>1574.2</ele>
        <time>2024-05-26T10:15:20Z</time>
      </trkpt>
      <trkpt lat="43.74344" lon="6.6568">
        <ele>1574.1</ele>
        <time>2024-05-26T10:15:21Z</time>
      </trkpt>
      <trkpt lat="43.74344" lon="6.65682">
        <ele>1574</ele>
        <time>2024-05-26T10:15:22Z</time>
      </trkpt>
      <trkpt lat="43.74345" lon="6.65684">
        <ele>1573.8</ele>
        <time>2024-05-26T10:15:23Z</time>
      </trkpt>
      <trkpt lat="43.74345" lon="6.65685">
        <ele>1573.7</ele>
        <time>2024-05-26T10:15:24Z</time>
      </trkpt>
      <trkpt lat="43.74345" lon="6.65687">
        <ele>1573.6</ele>
        <time>2024-05-26T10:15:25Z</time>
      </trkpt>
      <trkpt lat="43.74346" lon="6.65689">
        <ele>1573.4</ele>
        <time>2024-05-26T10:15:26Z</time>
      </trkpt>
      <trkpt lat="43.74346" lon="6.65691">
        <ele>1573.3</ele>
        <time>2024-05-26T10:15:27Z</time>
      </trkpt>
      <trkpt lat="43.74347" lon="6.65693">
        <ele>1573.2</ele>
        <time>2024-05-26T10:15:28Z</time>
      </trkpt>
      <trkpt lat="43.74347" lon="6.65695">
        <ele>1573.2</ele>
        <time>2024-05-26T10:15:29Z</time>
      </trkpt>
      <trkpt lat="43.74348" lon="6.65696">
        <ele>1573.1</ele>
        <time>2024-05-26T10:15:30Z</time>
      </trkpt>
      <trkpt lat="43.74348" lon="6.65697">
        <ele>1572.9</ele>
        <time>2024-05-26T10:15:31Z</time>
      </trkpt>
      <trkpt lat="43.74348" lon="6.65698">
        <ele>1572.8</ele>
        <time>2024-05-26T10:15:32Z</time>
      </trkpt>
      <trkpt lat="43.74349" lon="6.657">
        <ele>1572.6</ele>
        <time>2024-05-26T10:15:33Z</time>
      </trkpt>
      <trkpt lat="43.74349" lon="6.65702">
        <ele>1572.6</ele>
        <time>2024-05-26T10:15:34Z</time>
      </trkpt>
      <trkpt lat="43.74349" lon="6.65704">
        <ele>1572.5</ele>
        <time>2024-05-26T10:15:35Z</time>
      </trkpt>
      <trkpt lat="43.7435" lon="6.65705">
        <ele>1572.4</ele>
        <time>2024-05-26T10:15:36Z</time>
      </trkpt>
      <trkpt lat="43.74351" lon="6.65706">
        <ele>1572.2</ele>
        <time>2024-05-26T10:15:37Z</time>
      </trkpt>
      <trkpt lat="43.74351" lon="6.65707">
        <ele>1572.1</ele>
        <time>2024-05-26T10:15:38Z</time>
      </trkpt>
      <trkpt lat="43.74352" lon="6.65708">
        <ele>1572</ele>
        <time>2024-05-26T10:15:39Z</time>
      </trkpt>
      <trkpt lat="43.74352" lon="6.65709">
        <ele>1571.7</ele>
        <time>2024-05-26T10:15:40Z</time>
      </trkpt>
      <trkpt lat="43.74352" lon="6.65711">
        <ele>1571.6</ele>
        <time>2024-05-26T10:15:41Z</time>
      </trkpt>
      <trkpt lat="43.74352" lon="6.65712">
        <ele>1571.4</ele>
        <time>2024-05-26T10:15:42Z</time>
      </trkpt>
      <trkpt lat="43.74353" lon="6.65714">
        <ele>1571.3</ele>
        <time>2024-05-26T10:15:43Z</time>
      </trkpt>
      <trkpt lat="43.74353" lon="6.65715">
        <ele>1571.2</ele>
        <time>2024-05-26T10:15:44Z</time>
      </trkpt>
      <trkpt lat="43.74353" lon="6.65717">
        <ele>1571.1</ele>
        <time>2024-05-26T10:15:45Z</time>
      </trkpt>
      <trkpt lat="43.74353" lon="6.65718">
        <ele>1571</ele>
        <time>2024-05-26T10:15:46Z</time>
      </trkpt>
      <trkpt lat="43.74353" lon="6.65719">
        <ele>1571</ele>
        <time>2024-05-26T10:15:47Z</time>
      </trkpt>
      <trkpt lat="43.74354" lon="6.65721">
        <ele>1570.9</ele>
        <time>2024-05-26T10:15:48Z</time>
      </trkpt>
      <trkpt lat="43.74354" lon="6.65722">
        <ele>1570.8</ele>
        <time>2024-05-26T10:15:49Z</time>
      </trkpt>
      <trkpt lat="43.74354" lon="6.65723">
        <ele>1570.8</ele>
        <time>2024-05-26T10:15:50Z</time>
      </trkpt>
      <trkpt lat="43.74354" lon="6.65725">
        <ele>1570.6</ele>
        <time>2024-05-26T10:15:51Z</time>
      </trkpt>
      <trkpt lat="43.74354" lon="6.65726">
        <ele>1570.6</ele>
        <time>2024-05-26T10:15:52Z</time>
      </trkpt>
      <trkpt lat="43.74355" lon="6.65728">
        <ele>1570.4</ele>
        <time>2024-05-26T10:15:53Z</time>
      </trkpt>
      <trkpt lat="43.74355" lon="6.65729">
        <ele>1570.4</ele>
        <time>2024-05-26T10:15:54Z</time>
      </trkpt>
      <trkpt lat="43.74355" lon="6.6573">
        <ele>1570.3</ele>
        <time>2024-05-26T10:15:55Z</time>
      </trkpt>
      <trkpt lat="43.74355" lon="6.65731">
        <ele>1570.2</ele>
        <time>2024-05-26T10:15:56Z</time>
      </trkpt>
      <trkpt lat="43.74356" lon="6.65732">
        <ele>1570</ele>
        <time>2024-05-26T10:15:57Z</time>
      </trkpt>
      <trkpt lat="43.74356" lon="6.65734">
        <ele>1569.8</ele>
        <time>2024-05-26T10:15:58Z</time>
      </trkpt>
      <trkpt lat="43.74356" lon="6.65735">
        <ele>1569.6</ele>
        <time>2024-05-26T10:15:59Z</time>
      </trkpt>
      <trkpt lat="43.74356" lon="6.65737">
        <ele>1569.4</ele>
        <time>2024-05-26T10:16:00Z</time>
      </trkpt>
      <trkpt lat="43.74356" lon="6.65738">
        <ele>1569.3</ele>
        <time>2024-05-26T10:16:01Z</time>
      </trkpt>
      <trkpt lat="43.74357" lon="6.6574">
        <ele>1569.2</ele>
        <time>2024-05-26T10:16:02Z</time>
      </trkpt>
      <trkpt lat="43.74357" lon="6.65741">
        <ele>1569.1</ele>
        <time>2024-05-26T10:16:03Z</time>
      </trkpt>
      <trkpt lat="43.74358" lon="6.65743">
        <ele>1568.9</ele>
        <time>2024-05-26T10:16:04Z</time>
      </trkpt>
      <trkpt lat="43.74358" lon="6.65744">
        <ele>1568.8</ele>
        <time>2024-05-26T10:16:05Z</time>
      </trkpt>
      <trkpt lat="43.74359" lon="6.65746">
        <ele>1568.7</ele>
        <time>2024-05-26T10:16:06Z</time>
      </trkpt>
      <trkpt lat="43.74359" lon="6.65747">
        <ele>1568.7</ele>
        <time>2024-05-26T10:16:07Z</time>
      </trkpt>
      <trkpt lat="43.74359" lon="6.65748">
        <ele>1568.7</ele>
        <time>2024-05-26T10:16:08Z</time>
      </trkpt>
      <trkpt lat="43.74359" lon="6.65749">
        <ele>1568.7</ele>
        <time>2024-05-26T10:16:09Z</time>
      </trkpt>
      <trkpt lat="43.74359" lon="6.65751">
        <ele>1568.7</ele>
        <time>2024-05-26T10:16:10Z</time>
      </trkpt>
      <trkpt lat="43.7436" lon="6.65753">
        <ele>1568.6</ele>
        <time>2024-05-26T10:16:11Z</time>
      </trkpt>
      <trkpt lat="43.7436" lon="6.65755">
        <ele>1568.6</ele>
        <time>2024-05-26T10:16:12Z</time>
      </trkpt>
      <trkpt lat="43.7436" lon="6.65756">
        <ele>1568.6</ele>
        <time>2024-05-26T10:16:13Z</time>
      </trkpt>
      <trkpt lat="43.7436" lon="6.65757">
        <ele>1568.5</ele>
        <time>2024-05-26T10:16:14Z</time>
      </trkpt>
      <trkpt lat="43.74361" lon="6.65759">
        <ele>1568.5</ele>
        <time>2024-05-26T10:16:15Z</time>
      </trkpt>
      <trkpt lat="43.74361" lon="6.65761">
        <ele>1568.5</ele>
        <time>2024-05-26T10:16:16Z</time>
      </trkpt>
      <trkpt lat="43.74361" lon="6.65762">
        <ele>1568.4</ele>
        <time>2024-05-26T10:16:17Z</time>
      </trkpt>
      <trkpt lat="43.74362" lon="6.65764">
        <ele>1568.4</ele>
        <time>2024-05-26T10:16:18Z</time>
      </trkpt>
      <trkpt lat="43.74362" lon="6.65766">
        <ele>1568.3</ele>
        <time>2024-05-26T10:16:19Z</time>
      </trkpt>
      <trkpt lat="43.74362" lon="6.65767">
        <ele>1568.2</ele>
        <time>2024-05-26T10:16:20Z</time>
      </trkpt>
      <trkpt lat="43.74363" lon="6.65768">
        <ele>1568.1</ele>
        <time>2024-05-26T10:16:21Z</time>
      </trkpt>
      <trkpt lat="43.74363" lon="6.6577">
        <ele>1568</ele>
        <time>2024-05-26T10:16:22Z</time>
      </trkpt>
      <trkpt lat="43.74363" lon="6.65771">
        <ele>1568</ele>
        <time>2024-05-26T10:16:23Z</time>
      </trkpt>
      <trkpt lat="43.74363" lon="6.65773">
        <ele>1567.9</ele>
        <time>2024-05-26T10:16:24Z</time>
      </trkpt>
      <trkpt lat="43.74364" lon="6.65775">
        <ele>1567.8</ele>
        <time>2024-05-26T10:16:25Z</time>
      </trkpt>
      <trkpt lat="43.74364" lon="6.65776">
        <ele>1567.7</ele>
        <time>2024-05-26T10:16:26Z</time>
      </trkpt>
      <trkpt lat="43.74365" lon="6.65777">
        <ele>1567.6</ele>
        <time>2024-05-26T10:16:27Z</time>
      </trkpt>
      <trkpt lat="43.74365" lon="6.65778">
        <ele>1567.6</ele>
        <time>2024-05-26T10:16:28Z</time>
      </trkpt>
      <trkpt lat="43.74365" lon="6.65779">
        <ele>1567.5</ele>
        <time>2024-05-26T10:16:29Z</time>
      </trkpt>
      <trkpt lat="43.74365" lon="6.6578">
        <ele>1567.4</ele>
        <time>2024-05-26T10:16:30Z</time>
      </trkpt>
      <trkpt lat="43.74365" lon="6.65782">
        <ele>1567.3</ele>
        <time>2024-05-26T10:16:31Z</time>
      </trkpt>
      <trkpt lat="43.74365" lon="6.65784">
        <ele>1567.2</ele>
        <time>2024-05-26T10:16:32Z</time>
      </trkpt>
      <trkpt lat="43.74366" lon="6.65785">
        <ele>1567.1</ele>
        <time>2024-05-26T10:16:33Z</time>
      </trkpt>
      <trkpt lat="43.74366" lon="6.65786">
        <ele>1567</ele>
        <time>2024-05-26T10:16:34Z</time>
      </trkpt>
      <trkpt lat="43.74366" lon="6.65788">
        <ele>1567</ele>
        <time>2024-05-26T10:16:35Z</time>
      </trkpt>
      <trkpt lat="43.74365" lon="6.65789">
        <ele>1566.9</ele>
        <time>2024-05-26T10:16:36Z</time>
      </trkpt>
      <trkpt lat="43.74365" lon="6.65791">
        <ele>1566.8</ele>
        <time>2024-05-26T10:16:37Z</time>
      </trkpt>
      <trkpt lat="43.74365" lon="6.65793">
        <ele>1566.6</ele>
        <time>2024-05-26T10:16:38Z</time>
      </trkpt>
      <trkpt lat="43.74365" lon="6.65795">
        <ele>1566.6</ele>
        <time>2024-05-26T10:16:39Z</time>
      </trkpt>
      <trkpt lat="43.74366" lon="6.65797">
        <ele>1566.6</ele>
        <time>2024-05-26T10:16:40Z</time>
      </trkpt>
      <trkpt lat="43.74365" lon="6.65798">
        <ele>1566.5</ele>
        <time>2024-05-26T10:16:41Z</time>
      </trkpt>
      <trkpt lat="43.74365" lon="6.65799">
        <ele>1566.4</ele>
        <time>2024-05-26T10:16:42Z</time>
      </trkpt>
      <trkpt lat="43.74365" lon="6.658">
        <ele>1566.3</ele>
        <time>2024-05-26T10:16:43Z</time>
      </trkpt>
      <trkpt lat="43.74365" lon="6.65802">
        <ele>1566.2</ele>
        <time>2024-05-26T10:16:44Z</time>
      </trkpt>
      <trkpt lat="43.74365" lon="6.65803">
        <ele>1566.1</ele>
        <time>2024-05-26T10:16:45Z</time>
      </trkpt>
      <trkpt lat="43.74365" lon="6.65804">
        <ele>1566</ele>
        <time>2024-05-26T10:16:46Z</time>
      </trkpt>
      <trkpt lat="43.74364" lon="6.65806">
        <ele>1566</ele>
        <time>2024-05-26T10:16:47Z</time>
      </trkpt>
      <trkpt lat="43.74364" lon="6.65808">
        <ele>1565.8</ele>
        <time>2024-05-26T10:16:48Z</time>
      </trkpt>
      <trkpt lat="43.74364" lon="6.65809">
        <ele>1565.6</ele>
        <time>2024-05-26T10:16:49Z</time>
      </trkpt>
      <trkpt lat="43.74364" lon="6.65811">
        <ele>1565.5</ele>
        <time>2024-05-26T10:16:50Z</time>
      </trkpt>
      <trkpt lat="43.74364" lon="6.65813">
        <ele>1565.4</ele>
        <time>2024-05-26T10:16:51Z</time>
      </trkpt>
      <trkpt lat="43.74364" lon="6.65814">
        <ele>1565.3</ele>
        <time>2024-05-26T10:16:52Z</time>
      </trkpt>
      <trkpt lat="43.74365" lon="6.65816">
        <ele>1565.2</ele>
        <time>2024-05-26T10:16:53Z</time>
      </trkpt>
      <trkpt lat="43.74365" lon="6.65817">
        <ele>1565.2</ele>
        <time>2024-05-26T10:16:54Z</time>
      </trkpt>
      <trkpt lat="43.74365" lon="6.65818">
        <ele>1565.1</ele>
        <time>2024-05-26T10:16:55Z</time>
      </trkpt>
      <trkpt lat="43.74365" lon="6.6582">
        <ele>1564.9</ele>
        <time>2024-05-26T10:16:56Z</time>
      </trkpt>
      <trkpt lat="43.74365" lon="6.65821">
        <ele>1564.8</ele>
        <time>2024-05-26T10:16:57Z</time>
      </trkpt>
      <trkpt lat="43.74365" lon="6.65822">
        <ele>1564.8</ele>
        <time>2024-05-26T10:16:58Z</time>
      </trkpt>
      <trkpt lat="43.74365" lon="6.65823">
        <ele>1564.7</ele>
        <time>2024-05-26T10:16:59Z</time>
      </trkpt>
      <trkpt lat="43.74365" lon="6.65824">
        <ele>1564.7</ele>
        <time>2024-05-26T10:17:00Z</time>
      </trkpt>
      <trkpt lat="43.74365" lon="6.65825">
        <ele>1564.6</ele>
        <time>2024-05-26T10:17:01Z</time>
      </trkpt>
      <trkpt lat="43.74366" lon="6.65827">
        <ele>1564.5</ele>
        <time>2024-05-26T10:17:02Z</time>
      </trkpt>
      <trkpt lat="43.74366" lon="6.65828">
        <ele>1564.3</ele>
        <time>2024-05-26T10:17:03Z</time>
      </trkpt>
      <trkpt lat="43.74367" lon="6.6583">
        <ele>1564.2</ele>
        <time>2024-05-26T10:17:04Z</time>
      </trkpt>
      <trkpt lat="43.74367" lon="6.65832">
        <ele>1564.2</ele>
        <time>2024-05-26T10:17:05Z</time>
      </trkpt>
      <trkpt lat="43.74366" lon="6.65833">
        <ele>1564.1</ele>
        <time>2024-05-26T10:17:06Z</time>
      </trkpt>
      <trkpt lat="43.74367" lon="6.65835">
        <ele>1564</ele>
        <time>2024-05-26T10:17:07Z</time>
      </trkpt>
      <trkpt lat="43.74367" lon="6.65837">
        <ele>1563.9</ele>
        <time>2024-05-26T10:17:08Z</time>
      </trkpt>
      <trkpt lat="43.74367" lon="6.65839">
        <ele>1563.7</ele>
        <time>2024-05-26T10:17:09Z</time>
      </trkpt>
      <trkpt lat="43.74367" lon="6.6584">
        <ele>1563.5</ele>
        <time>2024-05-26T10:17:10Z</time>
      </trkpt>
      <trkpt lat="43.74366" lon="6.65841">
        <ele>1563.4</ele>
        <time>2024-05-26T10:17:11Z</time>
      </trkpt>
      <trkpt lat="43.74367" lon="6.65843">
        <ele>1563.3</ele>
        <time>2024-05-26T10:17:12Z</time>
      </trkpt>
      <trkpt lat="43.74366" lon="6.65845">
        <ele>1563.3</ele>
        <time>2024-05-26T10:17:13Z</time>
      </trkpt>
      <trkpt lat="43.74366" lon="6.65846">
        <ele>1563.1</ele>
        <time>2024-05-26T10:17:14Z</time>
      </trkpt>
      <trkpt lat="43.74365" lon="6.65847">
        <ele>1563</ele>
        <time>2024-05-26T10:17:15Z</time>
      </trkpt>
      <trkpt lat="43.74364" lon="6.65848">
        <ele>1562.9</ele>
        <time>2024-05-26T10:17:16Z</time>
      </trkpt>
      <trkpt lat="43.74364" lon="6.6585">
        <ele>1562.8</ele>
        <time>2024-05-26T10:17:17Z</time>
      </trkpt>
      <trkpt lat="43.74364" lon="6.65851">
        <ele>1562.6</ele>
        <time>2024-05-26T10:17:18Z</time>
      </trkpt>
      <trkpt lat="43.74363" lon="6.65853">
        <ele>1562.5</ele>
        <time>2024-05-26T10:17:19Z</time>
      </trkpt>
      <trkpt lat="43.74364" lon="6.65854">
        <ele>1562.4</ele>
        <time>2024-05-26T10:17:20Z</time>
      </trkpt>
      <trkpt lat="43.74363" lon="6.65856">
        <ele>1562.3</ele>
        <time>2024-05-26T10:17:21Z</time>
      </trkpt>
      <trkpt lat="43.74364" lon="6.65859">
        <ele>1562.2</ele>
        <time>2024-05-26T10:17:22Z</time>
      </trkpt>
      <trkpt lat="43.74364" lon="6.65861">
        <ele>1562.1</ele>
        <time>2024-05-26T10:17:23Z</time>
      </trkpt>
      <trkpt lat="43.74364" lon="6.65862">
        <ele>1562</ele>
        <time>2024-05-26T10:17:24Z</time>
      </trkpt>
      <trkpt lat="43.74363" lon="6.65863">
        <ele>1561.9</ele>
        <time>2024-05-26T10:17:25Z</time>
      </trkpt>
      <trkpt lat="43.74363" lon="6.65866">
        <ele>1561.7</ele>
        <time>2024-05-26T10:17:26Z</time>
      </trkpt>
      <trkpt lat="43.74362" lon="6.65867">
        <ele>1561.6</ele>
        <time>2024-05-26T10:17:27Z</time>
      </trkpt>
      <trkpt lat="43.74362" lon="6.65868">
        <ele>1561.5</ele>
        <time>2024-05-26T10:17:28Z</time>
      </trkpt>
      <trkpt lat="43.74362" lon="6.6587">
        <ele>1561.3</ele>
        <time>2024-05-26T10:17:29Z</time>
      </trkpt>
      <trkpt lat="43.74361" lon="6.65871">
        <ele>1561.2</ele>
        <time>2024-05-26T10:17:30Z</time>
      </trkpt>
      <trkpt lat="43.74361" lon="6.65872">
        <ele>1561.1</ele>
        <time>2024-05-26T10:17:31Z</time>
      </trkpt>
      <trkpt lat="43.74361" lon="6.65873">
        <ele>1561</ele>
        <time>2024-05-26T10:17:32Z</time>
      </trkpt>
      <trkpt lat="43.7436" lon="6.65875">
        <ele>1560.9</ele>
        <time>2024-05-26T10:17:33Z</time>
      </trkpt>
      <trkpt lat="43.7436" lon="6.65877">
        <ele>1560.7</ele>
        <time>2024-05-26T10:17:34Z</time>
      </trkpt>
      <trkpt lat="43.7436" lon="6.65878">
        <ele>1560.6</ele>
        <time>2024-05-26T10:17:35Z</time>
      </trkpt>
      <trkpt lat="43.74359" lon="6.6588">
        <ele>1560.4</ele>
        <time>2024-05-26T10:17:36Z</time>
      </trkpt>
      <trkpt lat="43.74359" lon="6.65881">
        <ele>1560.4</ele>
        <time>2024-05-26T10:17:37Z</time>
      </trkpt>
      <trkpt lat="43.74358" lon="6.65882">
        <ele>1560.2</ele>
        <time>2024-05-26T10:17:38Z</time>
      </trkpt>
      <trkpt lat="43.74358" lon="6.65884">
        <ele>1560.1</ele>
        <time>2024-05-26T10:17:39Z</time>
      </trkpt>
      <trkpt lat="43.74358" lon="6.65885">
        <ele>1560</ele>
        <time>2024-05-26T10:17:40Z</time>
      </trkpt>
      <trkpt lat="43.74358" lon="6.65886">
        <ele>1559.9</ele>
        <time>2024-05-26T10:17:41Z</time>
      </trkpt>
      <trkpt lat="43.74358" lon="6.65887">
        <ele>1559.8</ele>
        <time>2024-05-26T10:17:42Z</time>
      </trkpt>
      <trkpt lat="43.74357" lon="6.65888">
        <ele>1559.7</ele>
        <time>2024-05-26T10:17:43Z</time>
      </trkpt>
      <trkpt lat="43.74356" lon="6.65889">
        <ele>1559.6</ele>
        <time>2024-05-26T10:17:44Z</time>
      </trkpt>
      <trkpt lat="43.74356" lon="6.65891">
        <ele>1559.5</ele>
        <time>2024-05-26T10:17:45Z</time>
      </trkpt>
      <trkpt lat="43.74355" lon="6.65891">
        <ele>1559.4</ele>
        <time>2024-05-26T10:17:46Z</time>
      </trkpt>
      <trkpt lat="43.74355" lon="6.65892">
        <ele>1559.1</ele>
        <time>2024-05-26T10:17:47Z</time>
      </trkpt>
      <trkpt lat="43.74354" lon="6.65893">
        <ele>1559</ele>
        <time>2024-05-26T10:17:48Z</time>
      </trkpt>
      <trkpt lat="43.74354" lon="6.65894">
        <ele>1558.8</ele>
        <time>2024-05-26T10:17:49Z</time>
      </trkpt>
      <trkpt lat="43.74354" lon="6.65894">
        <ele>1558.7</ele>
        <time>2024-05-26T10:17:50Z</time>
      </trkpt>
      <trkpt lat="43.74353" lon="6.65895">
        <ele>1558.6</ele>
        <time>2024-05-26T10:17:51Z</time>
      </trkpt>
      <trkpt lat="43.74353" lon="6.65897">
        <ele>1558.5</ele>
        <time>2024-05-26T10:17:52Z</time>
      </trkpt>
      <trkpt lat="43.74353" lon="6.65899">
        <ele>1558.5</ele>
        <time>2024-05-26T10:17:53Z</time>
      </trkpt>
      <trkpt lat="43.74352" lon="6.659">
        <ele>1558.5</ele>
        <time>2024-05-26T10:17:54Z</time>
      </trkpt>
      <trkpt lat="43.74352" lon="6.659">
        <ele>1558.4</ele>
        <time>2024-05-26T10:17:55Z</time>
      </trkpt>
      <trkpt lat="43.74352" lon="6.65902">
        <ele>1558.2</ele>
        <time>2024-05-26T10:17:56Z</time>
      </trkpt>
      <trkpt lat="43.74351" lon="6.65903">
        <ele>1558.1</ele>
        <time>2024-05-26T10:17:57Z</time>
      </trkpt>
      <trkpt lat="43.74351" lon="6.65903">
        <ele>1558</ele>
        <time>2024-05-26T10:17:58Z</time>
      </trkpt>
      <trkpt lat="43.7435" lon="6.65905">
        <ele>1557.9</ele>
        <time>2024-05-26T10:17:59Z</time>
      </trkpt>
      <trkpt lat="43.7435" lon="6.65906">
        <ele>1557.9</ele>
        <time>2024-05-26T10:18:00Z</time>
      </trkpt>
      <trkpt lat="43.7435" lon="6.65908">
        <ele>1557.7</ele>
        <time>2024-05-26T10:18:01Z</time>
      </trkpt>
      <trkpt lat="43.7435" lon="6.65909">
        <ele>1557.6</ele>
        <time>2024-05-26T10:18:02Z</time>
      </trkpt>
      <trkpt lat="43.74349" lon="6.6591">
        <ele>1557.4</ele>
        <time>2024-05-26T10:18:03Z</time>
      </trkpt>
      <trkpt lat="43.74349" lon="6.65912">
        <ele>1557.3</ele>
        <time>2024-05-26T10:18:04Z</time>
      </trkpt>
      <trkpt lat="43.74349" lon="6.65913">
        <ele>1557.1</ele>
        <time>2024-05-26T10:18:05Z</time>
      </trkpt>
      <trkpt lat="43.74348" lon="6.65914">
        <ele>1556.9</ele>
        <time>2024-05-26T10:18:06Z</time>
      </trkpt>
      <trkpt lat="43.74347" lon="6.65915">
        <ele>1556.8</ele>
        <time>2024-05-26T10:18:07Z</time>
      </trkpt>
      <trkpt lat="43.74347" lon="6.65917">
        <ele>1556.7</ele>
        <time>2024-05-26T10:18:08Z</time>
      </trkpt>
      <trkpt lat="43.74347" lon="6.65918">
        <ele>1556.6</ele>
        <time>2024-05-26T10:18:09Z</time>
      </trkpt>
      <trkpt lat="43.74346" lon="6.6592">
        <ele>1556.4</ele>
        <time>2024-05-26T10:18:10Z</time>
      </trkpt>
      <trkpt lat="43.74346" lon="6.65922">
        <ele>1556.3</ele>
        <time>2024-05-26T10:18:11Z</time>
      </trkpt>
      <trkpt lat="43.74346" lon="6.65923">
        <ele>1556.3</ele>
        <time>2024-05-26T10:18:12Z</time>
      </trkpt>
      <trkpt lat="43.74346" lon="6.65925">
        <ele>1556.2</ele>
        <time>2024-05-26T10:18:13Z</time>
      </trkpt>
      <trkpt lat="43.74346" lon="6.65927">
        <ele>1556.1</ele>
        <time>2024-05-26T10:18:14Z</time>
      </trkpt>
      <trkpt lat="43.74346" lon="6.65929">
        <ele>1556</ele>
        <time>2024-05-26T10:18:15Z</time>
      </trkpt>
      <trkpt lat="43.74346" lon="6.65931">
        <ele>1555.8</ele>
        <time>2024-05-26T10:18:16Z</time>
      </trkpt>
      <trkpt lat="43.74346" lon="6.65932">
        <ele>1555.6</ele>
        <time>2024-05-26T10:18:17Z</time>
      </trkpt>
      <trkpt lat="43.74345" lon="6.65934">
        <ele>1555.5</ele>
        <time>2024-05-26T10:18:18Z</time>
      </trkpt>
      <trkpt lat="43.74345" lon="6.65936">
        <ele>1555.4</ele>
        <time>2024-05-26T10:18:19Z</time>
      </trkpt>
      <trkpt lat="43.74345" lon="6.65938">
        <ele>1555.3</ele>
        <time>2024-05-26T10:18:20Z</time>
      </trkpt>
      <trkpt lat="43.74345" lon="6.65939">
        <ele>1555.2</ele>
        <time>2024-05-26T10:18:21Z</time>
      </trkpt>
      <trkpt lat="43.74345" lon="6.65941">
        <ele>1555.1</ele>
        <time>2024-05-26T10:18:22Z</time>
      </trkpt>
      <trkpt lat="43.74345" lon="6.65943">
        <ele>1554.9</ele>
        <time>2024-05-26T10:18:23Z</time>
      </trkpt>
      <trkpt lat="43.74345" lon="6.65945">
        <ele>1554.9</ele>
        <time>2024-05-26T10:18:24Z</time>
      </trkpt>
      <trkpt lat="43.74344" lon="6.65947">
        <ele>1554.8</ele>
        <time>2024-05-26T10:18:25Z</time>
      </trkpt>
      <trkpt lat="43.74344" lon="6.65949">
        <ele>1554.8</ele>
        <time>2024-05-26T10:18:26Z</time>
      </trkpt>
      <trkpt lat="43.74344" lon="6.6595">
        <ele>1554.7</ele>
        <time>2024-05-26T10:18:27Z</time>
      </trkpt>
      <trkpt lat="43.74343" lon="6.65951">
        <ele>1554.6</ele>
        <time>2024-05-26T10:18:28Z</time>
      </trkpt>
      <trkpt lat="43.74343" lon="6.65953">
        <ele>1554.5</ele>
        <time>2024-05-26T10:18:29Z</time>
      </trkpt>
      <trkpt lat="43.74343" lon="6.65954">
        <ele>1554.4</ele>
        <time>2024-05-26T10:18:30Z</time>
      </trkpt>
      <trkpt lat="43.74343" lon="6.65955">
        <ele>1554.3</ele>
        <time>2024-05-26T10:18:31Z</time>
      </trkpt>
      <trkpt lat="43.74343" lon="6.65957">
        <ele>1554.2</ele>
        <time>2024-05-26T10:18:32Z</time>
      </trkpt>
      <trkpt lat="43.74343" lon="6.65959">
        <ele>1554.2</ele>
        <time>2024-05-26T10:18:33Z</time>
      </trkpt>
      <trkpt lat="43.74343" lon="6.65961">
        <ele>1554.1</ele>
        <time>2024-05-26T10:18:34Z</time>
      </trkpt>
      <trkpt lat="43.74342" lon="6.65962">
        <ele>1554</ele>
        <time>2024-05-26T10:18:35Z</time>
      </trkpt>
      <trkpt lat="43.74342" lon="6.65964">
        <ele>1553.9</ele>
        <time>2024-05-26T10:18:36Z</time>
      </trkpt>
      <trkpt lat="43.74342" lon="6.65966">
        <ele>1553.9</ele>
        <time>2024-05-26T10:18:37Z</time>
      </trkpt>
      <trkpt lat="43.74343" lon="6.65967">
        <ele>1553.9</ele>
        <time>2024-05-26T10:18:38Z</time>
      </trkpt>
      <trkpt lat="43.74343" lon="6.65968">
        <ele>1553.9</ele>
        <time>2024-05-26T10:18:39Z</time>
      </trkpt>
      <trkpt lat="43.74343" lon="6.6597">
        <ele>1553.7</ele>
        <time>2024-05-26T10:18:40Z</time>
      </trkpt>
      <trkpt lat="43.74343" lon="6.65972">
        <ele>1553.6</ele>
        <time>2024-05-26T10:18:41Z</time>
      </trkpt>
      <trkpt lat="43.74343" lon="6.65973">
        <ele>1553.5</ele>
        <time>2024-05-26T10:18:42Z</time>
      </trkpt>
      <trkpt lat="43.74343" lon="6.65974">
        <ele>1553.4</ele>
        <time>2024-05-26T10:18:43Z</time>
      </trkpt>
      <trkpt lat="43.74344" lon="6.65976">
        <ele>1553.2</ele>
        <time>2024-05-26T10:18:44Z</time>
      </trkpt>
      <trkpt lat="43.74344" lon="6.65977">
        <ele>1553</ele>
        <time>2024-05-26T10:18:45Z</time>
      </trkpt>
      <trkpt lat="43.74344" lon="6.65979">
        <ele>1553</ele>
        <time>2024-05-26T10:18:46Z</time>
      </trkpt>
      <trkpt lat="43.74344" lon="6.6598">
        <ele>1552.9</ele>
        <time>2024-05-26T10:18:47Z</time>
      </trkpt>
      <trkpt lat="43.74345" lon="6.65982">
        <ele>1552.9</ele>
        <time>2024-05-26T10:18:48Z</time>
      </trkpt>
      <trkpt lat="43.74345" lon="6.65983">
        <ele>1552.7</ele>
        <time>2024-05-26T10:18:49Z</time>
      </trkpt>
      <trkpt lat="43.74345" lon="6.65985">
        <ele>1552.6</ele>
        <time>2024-05-26T10:18:50Z</time>
      </trkpt>
      <trkpt lat="43.74344" lon="6.65986">
        <ele>1552.5</ele>
        <time>2024-05-26T10:18:51Z</time>
      </trkpt>
      <trkpt lat="43.74344" lon="6.65989">
        <ele>1552.5</ele>
        <time>2024-05-26T10:18:52Z</time>
      </trkpt>
      <trkpt lat="43.74344" lon="6.6599">
        <ele>1552.3</ele>
        <time>2024-05-26T10:18:53Z</time>
      </trkpt>
      <trkpt lat="43.74344" lon="6.65992">
        <ele>1552.1</ele>
        <time>2024-05-26T10:18:54Z</time>
      </trkpt>
      <trkpt lat="43.74344" lon="6.65994">
        <ele>1552</ele>
        <time>2024-05-26T10:18:55Z</time>
      </trkpt>
      <trkpt lat="43.74345" lon="6.65995">
        <ele>1551.9</ele>
        <time>2024-05-26T10:18:56Z</time>
      </trkpt>
      <trkpt lat="43.74345" lon="6.65997">
        <ele>1551.7</ele>
        <time>2024-05-26T10:18:57Z</time>
      </trkpt>
      <trkpt lat="43.74344" lon="6.65999">
        <ele>1551.5</ele>
        <time>2024-05-26T10:18:58Z</time>
      </trkpt>
      <trkpt lat="43.74345" lon="6.66">
        <ele>1551.4</ele>
        <time>2024-05-26T10:18:59Z</time>
      </trkpt>
      <trkpt lat="43.74345" lon="6.66003">
        <ele>1551.2</ele>
        <time>2024-05-26T10:19:00Z</time>
      </trkpt>
      <trkpt lat="43.74345" lon="6.66004">
        <ele>1551.1</ele>
        <time>2024-05-26T10:19:01Z</time>
      </trkpt>
      <trkpt lat="43.74345" lon="6.66006">
        <ele>1550.9</ele>
        <time>2024-05-26T10:19:02Z</time>
      </trkpt>
      <trkpt lat="43.74345" lon="6.66006">
        <ele>1550.8</ele>
        <time>2024-05-26T10:19:03Z</time>
      </trkpt>
      <trkpt lat="43.74345" lon="6.66007">
        <ele>1550.8</ele>
        <time>2024-05-26T10:19:04Z</time>
      </trkpt>
      <trkpt lat="43.74345" lon="6.66009">
        <ele>1550.7</ele>
        <time>2024-05-26T10:19:05Z</time>
      </trkpt>
      <trkpt lat="43.74345" lon="6.6601">
        <ele>1550.6</ele>
        <time>2024-05-26T10:19:06Z</time>
      </trkpt>
      <trkpt lat="43.74345" lon="6.66012">
        <ele>1550.4</ele>
        <time>2024-05-26T10:19:07Z</time>
      </trkpt>
      <trkpt lat="43.74344" lon="6.66014">
        <ele>1550.3</ele>
        <time>2024-05-26T10:19:08Z</time>
      </trkpt>
      <trkpt lat="43.74344" lon="6.66016">
        <ele>1550.2</ele>
        <time>2024-05-26T10:19:09Z</time>
      </trkpt>
      <trkpt lat="43.74345" lon="6.66017">
        <ele>1550.2</ele>
        <time>2024-05-26T10:19:10Z</time>
      </trkpt>
      <trkpt lat="43.74345" lon="6.66019">
        <ele>1550.1</ele>
        <time>2024-05-26T10:19:11Z</time>
      </trkpt>
      <trkpt lat="43.74345" lon="6.66021">
        <ele>1550</ele>
        <time>2024-05-26T10:19:12Z</time>
      </trkpt>
      <trkpt lat="43.74345" lon="6.66022">
        <ele>1549.8</ele>
        <time>2024-05-26T10:19:13Z</time>
      </trkpt>
      <trkpt lat="43.74345" lon="6.66024">
        <ele>1549.7</ele>
        <time>2024-05-26T10:19:14Z</time>
      </trkpt>
      <trkpt lat="43.74345" lon="6.66026">
        <ele>1549.6</ele>
        <time>2024-05-26T10:19:15Z</time>
      </trkpt>
      <trkpt lat="43.74345" lon="6.66027">
        <ele>1549.5</ele>
        <time>2024-05-26T10:19:16Z</time>
      </trkpt>
      <trkpt lat="43.74344" lon="6.66029">
        <ele>1549.3</ele>
        <time>2024-05-26T10:19:17Z</time>
      </trkpt>
      <trkpt lat="43.74344" lon="6.66031">
        <ele>1549.2</ele>
        <time>2024-05-26T10:19:18Z</time>
      </trkpt>
      <trkpt lat="43.74344" lon="6.66032">
        <ele>1549.1</ele>
        <time>2024-05-26T10:19:19Z</time>
      </trkpt>
      <trkpt lat="43.74344" lon="6.66033">
        <ele>1549</ele>
        <time>2024-05-26T10:19:20Z</time>
      </trkpt>
      <trkpt lat="43.74344" lon="6.66035">
        <ele>1548.9</ele>
        <time>2024-05-26T10:19:21Z</time>
      </trkpt>
      <trkpt lat="43.74344" lon="6.66036">
        <ele>1548.8</ele>
        <time>2024-05-26T10:19:22Z</time>
      </trkpt>
      <trkpt lat="43.74343" lon="6.66038">
        <ele>1548.7</ele>
        <time>2024-05-26T10:19:23Z</time>
      </trkpt>
      <trkpt lat="43.74343" lon="6.66039">
        <ele>1548.6</ele>
        <time>2024-05-26T10:19:24Z</time>
      </trkpt>
      <trkpt lat="43.74343" lon="6.6604">
        <ele>1548.4</ele>
        <time>2024-05-26T10:19:25Z</time>
      </trkpt>
      <trkpt lat="43.74343" lon="6.66042">
        <ele>1548.3</ele>
        <time>2024-05-26T10:19:26Z</time>
      </trkpt>
      <trkpt lat="43.74343" lon="6.66044">
        <ele>1548.2</ele>
        <time>2024-05-26T10:19:27Z</time>
      </trkpt>
      <trkpt lat="43.74343" lon="6.66045">
        <ele>1548.1</ele>
        <time>2024-05-26T10:19:28Z</time>
      </trkpt>
      <trkpt lat="43.74343" lon="6.66047">
        <ele>1547.9</ele>
        <time>2024-05-26T10:19:29Z</time>
      </trkpt>
      <trkpt lat="43.74344" lon="6.66048">
        <ele>1547.7</ele>
        <time>2024-05-26T10:19:30Z</time>
      </trkpt>
      <trkpt lat="43.74344" lon="6.6605">
        <ele>1547.6</ele>
        <time>2024-05-26T10:19:31Z</time>
      </trkpt>
      <trkpt lat="43.74344" lon="6.66052">
        <ele>1547.4</ele>
        <time>2024-05-26T10:19:32Z</time>
      </trkpt>
      <trkpt lat="43.74344" lon="6.66053">
        <ele>1547.1</ele>
        <time>2024-05-26T10:19:33Z</time>
      </trkpt>
      <trkpt lat="43.74344" lon="6.66054">
        <ele>1546.9</ele>
        <time>2024-05-26T10:19:34Z</time>
      </trkpt>
      <trkpt lat="43.74344" lon="6.66056">
        <ele>1546.8</ele>
        <time>2024-05-26T10:19:35Z</time>
      </trkpt>
      <trkpt lat="43.74344" lon="6.66057">
        <ele>1546.6</ele>
        <time>2024-05-26T10:19:36Z</time>
      </trkpt>
      <trkpt lat="43.74345" lon="6.66059">
        <ele>1546.5</ele>
        <time>2024-05-26T10:19:37Z</time>
      </trkpt>
      <trkpt lat="43.74345" lon="6.6606">
        <ele>1546.3</ele>
        <time>2024-05-26T10:19:38Z</time>
      </trkpt>
      <trkpt lat="43.74344" lon="6.66061">
        <ele>1546.2</ele>
        <time>2024-05-26T10:19:39Z</time>
      </trkpt>
      <trkpt lat="43.74345" lon="6.66062">
        <ele>1546.2</ele>
        <time>2024-05-26T10:19:40Z</time>
      </trkpt>
      <trkpt lat="43.74345" lon="6.66064">
        <ele>1546.1</ele>
        <time>2024-05-26T10:19:41Z</time>
      </trkpt>
      <trkpt lat="43.74345" lon="6.66065">
        <ele>1546</ele>
        <time>2024-05-26T10:19:42Z</time>
      </trkpt>
      <trkpt lat="43.74345" lon="6.66067">
        <ele>1545.9</ele>
        <time>2024-05-26T10:19:43Z</time>
      </trkpt>
      <trkpt lat="43.74345" lon="6.66068">
        <ele>1545.7</ele>
        <time>2024-05-26T10:19:44Z</time>
      </trkpt>
      <trkpt lat="43.74345" lon="6.6607">
        <ele>1545.5</ele>
        <time>2024-05-26T10:19:45Z</time>
      </trkpt>
      <trkpt lat="43.74345" lon="6.66072">
        <ele>1545.4</ele>
        <time>2024-05-26T10:19:46Z</time>
      </trkpt>
      <trkpt lat="43.74346" lon="6.66073">
        <ele>1545.3</ele>
        <time>2024-05-26T10:19:47Z</time>
      </trkpt>
      <trkpt lat="43.74346" lon="6.66074">
        <ele>1545.2</ele>
        <time>2024-05-26T10:19:48Z</time>
      </trkpt>
      <trkpt lat="43.74346" lon="6.66076">
        <ele>1545.1</ele>
        <time>2024-05-26T10:19:49Z</time>
      </trkpt>
      <trkpt lat="43.74346" lon="6.66077">
        <ele>1544.9</ele>
        <time>2024-05-26T10:19:50Z</time>
      </trkpt>
      <trkpt lat="43.74346" lon="6.66079">
        <ele>1544.8</ele>
        <time>2024-05-26T10:19:51Z</time>
      </trkpt>
      <trkpt lat="43.74346" lon="6.6608">
        <ele>1544.6</ele>
        <time>2024-05-26T10:19:52Z</time>
      </trkpt>
      <trkpt lat="43.74346" lon="6.66082">
        <ele>1544.6</ele>
        <time>2024-05-26T10:19:53Z</time>
      </trkpt>
      <trkpt lat="43.74346" lon="6.66084">
        <ele>1544.5</ele>
        <time>2024-05-26T10:19:54Z</time>
      </trkpt>
      <trkpt lat="43.74347" lon="6.66085">
        <ele>1544.4</ele>
        <time>2024-05-26T10:19:55Z</time>
      </trkpt>
      <trkpt lat="43.74347" lon="6.66086">
        <ele>1544.4</ele>
        <time>2024-05-26T10:19:56Z</time>
      </trkpt>
      <trkpt lat="43.74347" lon="6.66088">
        <ele>1544.3</ele>
        <time>2024-05-26T10:19:57Z</time>
      </trkpt>
      <trkpt lat="43.74347" lon="6.66089">
        <ele>1544.2</ele>
        <time>2024-05-26T10:19:58Z</time>
      </trkpt>
      <trkpt lat="43.74347" lon="6.6609">
        <ele>1544</ele>
        <time>2024-05-26T10:19:59Z</time>
      </trkpt>
      <trkpt lat="43.74347" lon="6.66092">
        <ele>1543.9</ele>
        <time>2024-05-26T10:20:00Z</time>
      </trkpt>
      <trkpt lat="43.74347" lon="6.66093">
        <ele>1543.8</ele>
        <time>2024-05-26T10:20:01Z</time>
      </trkpt>
      <trkpt lat="43.74348" lon="6.66094">
        <ele>1543.7</ele>
        <time>2024-05-26T10:20:02Z</time>
      </trkpt>
      <trkpt lat="43.74348" lon="6.66096">
        <ele>1543.6</ele>
        <time>2024-05-26T10:20:03Z</time>
      </trkpt>
      <trkpt lat="43.74348" lon="6.66097">
        <ele>1543.4</ele>
        <time>2024-05-26T10:20:04Z</time>
      </trkpt>
      <trkpt lat="43.74349" lon="6.66099">
        <ele>1543.3</ele>
        <time>2024-05-26T10:20:05Z</time>
      </trkpt>
      <trkpt lat="43.74349" lon="6.661">
        <ele>1543.2</ele>
        <time>2024-05-26T10:20:06Z</time>
      </trkpt>
      <trkpt lat="43.74349" lon="6.66102">
        <ele>1543.2</ele>
        <time>2024-05-26T10:20:07Z</time>
      </trkpt>
      <trkpt lat="43.7435" lon="6.66103">
        <ele>1543.1</ele>
        <time>2024-05-26T10:20:08Z</time>
      </trkpt>
      <trkpt lat="43.7435" lon="6.66104">
        <ele>1542.9</ele>
        <time>2024-05-26T10:20:09Z</time>
      </trkpt>
      <trkpt lat="43.7435" lon="6.66106">
        <ele>1542.8</ele>
        <time>2024-05-26T10:20:10Z</time>
      </trkpt>
      <trkpt lat="43.7435" lon="6.66108">
        <ele>1542.6</ele>
        <time>2024-05-26T10:20:11Z</time>
      </trkpt>
      <trkpt lat="43.74351" lon="6.66109">
        <ele>1542.3</ele>
        <time>2024-05-26T10:20:12Z</time>
      </trkpt>
      <trkpt lat="43.74351" lon="6.66111">
        <ele>1542.2</ele>
        <time>2024-05-26T10:20:13Z</time>
      </trkpt>
      <trkpt lat="43.74351" lon="6.66113">
        <ele>1542</ele>
        <time>2024-05-26T10:20:14Z</time>
      </trkpt>
      <trkpt lat="43.74352" lon="6.66114">
        <ele>1541.9</ele>
        <time>2024-05-26T10:20:15Z</time>
      </trkpt>
      <trkpt lat="43.74352" lon="6.66116">
        <ele>1541.8</ele>
        <time>2024-05-26T10:20:16Z</time>
      </trkpt>
      <trkpt lat="43.74353" lon="6.66117">
        <ele>1541.6</ele>
        <time>2024-05-26T10:20:17Z</time>
      </trkpt>
      <trkpt lat="43.74353" lon="6.66119">
        <ele>1541.4</ele>
        <time>2024-05-26T10:20:18Z</time>
      </trkpt>
      <trkpt lat="43.74353" lon="6.6612">
        <ele>1541.3</ele>
        <time>2024-05-26T10:20:19Z</time>
      </trkpt>
      <trkpt lat="43.74353" lon="6.66122">
        <ele>1541.2</ele>
        <time>2024-05-26T10:20:20Z</time>
      </trkpt>
      <trkpt lat="43.74353" lon="6.66123">
        <ele>1541.1</ele>
        <time>2024-05-26T10:20:21Z</time>
      </trkpt>
      <trkpt lat="43.74354" lon="6.66125">
        <ele>1541.1</ele>
        <time>2024-05-26T10:20:22Z</time>
      </trkpt>
      <trkpt lat="43.74354" lon="6.66126">
        <ele>1541.1</ele>
        <time>2024-05-26T10:20:23Z</time>
      </trkpt>
      <trkpt lat="43.74355" lon="6.66127">
        <ele>1540.9</ele>
        <time>2024-05-26T10:20:24Z</time>
      </trkpt>
      <trkpt lat="43.74356" lon="6.66128">
        <ele>1540.8</ele>
        <time>2024-05-26T10:20:25Z</time>
      </trkpt>
      <trkpt lat="43.74356" lon="6.6613">
        <ele>1540.6</ele>
        <time>2024-05-26T10:20:26Z</time>
      </trkpt>
      <trkpt lat="43.74356" lon="6.66131">
        <ele>1540.5</ele>
        <time>2024-05-26T10:20:27Z</time>
      </trkpt>
      <trkpt lat="43.74356" lon="6.66133">
        <ele>1540.5</ele>
        <time>2024-05-26T10:20:28Z</time>
      </trkpt>
      <trkpt lat="43.74357" lon="6.66134">
        <ele>1540.4</ele>
        <time>2024-05-26T10:20:29Z</time>
      </trkpt>
      <trkpt lat="43.74357" lon="6.66136">
        <ele>1540.4</ele>
        <time>2024-05-26T10:20:30Z</time>
      </trkpt>
      <trkpt lat="43.74358" lon="6.66137">
        <ele>1540.1</ele>
        <time>2024-05-26T10:20:31Z</time>
      </trkpt>
      <trkpt lat="43.74358" lon="6.66139">
        <ele>1540</ele>
        <time>2024-05-26T10:20:32Z</time>
      </trkpt>
      <trkpt lat="43.74359" lon="6.6614">
        <ele>1539.9</ele>
        <time>2024-05-26T10:20:33Z</time>
      </trkpt>
      <trkpt lat="43.74359" lon="6.66141">
        <ele>1539.8</ele>
        <time>2024-05-26T10:20:34Z</time>
      </trkpt>
      <trkpt lat="43.74359" lon="6.66143">
        <ele>1539.7</ele>
        <time>2024-05-26T10:20:35Z</time>
      </trkpt>
      <trkpt lat="43.7436" lon="6.66144">
        <ele>1539.6</ele>
        <time>2024-05-26T10:20:36Z</time>
      </trkpt>
      <trkpt lat="43.7436" lon="6.66146">
        <ele>1539.5</ele>
        <time>2024-05-26T10:20:37Z</time>
      </trkpt>
      <trkpt lat="43.74361" lon="6.66147">
        <ele>1539.3</ele>
        <time>2024-05-26T10:20:38Z</time>
      </trkpt>
      <trkpt lat="43.74361" lon="6.66147">
        <ele>1539.2</ele>
        <time>2024-05-26T10:20:39Z</time>
      </trkpt>
      <trkpt lat="43.74362" lon="6.66149">
        <ele>1539.1</ele>
        <time>2024-05-26T10:20:40Z</time>
      </trkpt>
      <trkpt lat="43.74363" lon="6.6615">
        <ele>1538.9</ele>
        <time>2024-05-26T10:20:41Z</time>
      </trkpt>
      <trkpt lat="43.74364" lon="6.66151">
        <ele>1538.7</ele>
        <time>2024-05-26T10:20:42Z</time>
      </trkpt>
      <trkpt lat="43.74364" lon="6.66152">
        <ele>1538.6</ele>
        <time>2024-05-26T10:20:43Z</time>
      </trkpt>
      <trkpt lat="43.74364" lon="6.66154">
        <ele>1538.5</ele>
        <time>2024-05-26T10:20:44Z</time>
      </trkpt>
      <trkpt lat="43.74364" lon="6.66156">
        <ele>1538.4</ele>
        <time>2024-05-26T10:20:45Z</time>
      </trkpt>
      <trkpt lat="43.74365" lon="6.66157">
        <ele>1538.3</ele>
        <time>2024-05-26T10:20:46Z</time>
      </trkpt>
      <trkpt lat="43.74365" lon="6.66159">
        <ele>1538.2</ele>
        <time>2024-05-26T10:20:47Z</time>
      </trkpt>
      <trkpt lat="43.74366" lon="6.6616">
        <ele>1538</ele>
        <time>2024-05-26T10:20:48Z</time>
      </trkpt>
      <trkpt lat="43.74366" lon="6.66161">
        <ele>1537.9</ele>
        <time>2024-05-26T10:20:49Z</time>
      </trkpt>
      <trkpt lat="43.74367" lon="6.66162">
        <ele>1537.7</ele>
        <time>2024-05-26T10:20:50Z</time>
      </trkpt>
      <trkpt lat="43.74367" lon="6.66163">
        <ele>1537.6</ele>
        <time>2024-05-26T10:20:51Z</time>
      </trkpt>
      <trkpt lat="43.74368" lon="6.66164">
        <ele>1537.5</ele>
        <time>2024-05-26T10:20:52Z</time>
      </trkpt>
      <trkpt lat="43.74368" lon="6.66166">
        <ele>1537.4</ele>
        <time>2024-05-26T10:20:53Z</time>
      </trkpt>
      <trkpt lat="43.74368" lon="6.66167">
        <ele>1537.3</ele>
        <time>2024-05-26T10:20:54Z</time>
      </trkpt>
      <trkpt lat="43.74369" lon="6.66169">
        <ele>1537.3</ele>
        <time>2024-05-26T10:20:55Z</time>
      </trkpt>
      <trkpt lat="43.7437" lon="6.6617">
        <ele>1537.1</ele>
        <time>2024-05-26T10:20:56Z</time>
      </trkpt>
      <trkpt lat="43.7437" lon="6.66172">
        <ele>1537</ele>
        <time>2024-05-26T10:20:57Z</time>
      </trkpt>
      <trkpt lat="43.74371" lon="6.66173">
        <ele>1536.9</ele>
        <time>2024-05-26T10:20:58Z</time>
      </trkpt>
      <trkpt lat="43.74371" lon="6.66174">
        <ele>1536.8</ele>
        <time>2024-05-26T10:20:59Z</time>
      </trkpt>
      <trkpt lat="43.74372" lon="6.66176">
        <ele>1536.6</ele>
        <time>2024-05-26T10:21:00Z</time>
      </trkpt>
      <trkpt lat="43.74372" lon="6.66177">
        <ele>1536.5</ele>
        <time>2024-05-26T10:21:01Z</time>
      </trkpt>
      <trkpt lat="43.74372" lon="6.66179">
        <ele>1536.4</ele>
        <time>2024-05-26T10:21:02Z</time>
      </trkpt>
      <trkpt lat="43.74373" lon="6.66181">
        <ele>1536.3</ele>
        <time>2024-05-26T10:21:03Z</time>
      </trkpt>
      <trkpt lat="43.74373" lon="6.66183">
        <ele>1536.1</ele>
        <time>2024-05-26T10:21:04Z</time>
      </trkpt>
      <trkpt lat="43.74374" lon="6.66184">
        <ele>1536</ele>
        <time>2024-05-26T10:21:05Z</time>
      </trkpt>
      <trkpt lat="43.74374" lon="6.66185">
        <ele>1535.9</ele>
        <time>2024-05-26T10:21:06Z</time>
      </trkpt>
      <trkpt lat="43.74375" lon="6.66187">
        <ele>1535.8</ele>
        <time>2024-05-26T10:21:07Z</time>
      </trkpt>
      <trkpt lat="43.74376" lon="6.66188">
        <ele>1535.6</ele>
        <time>2024-05-26T10:21:08Z</time>
      </trkpt>
      <trkpt lat="43.74376" lon="6.66189">
        <ele>1535.5</ele>
        <time>2024-05-26T10:21:09Z</time>
      </trkpt>
      <trkpt lat="43.74376" lon="6.66191">
        <ele>1535.4</ele>
        <time>2024-05-26T10:21:10Z</time>
      </trkpt>
      <trkpt lat="43.74377" lon="6.66192">
        <ele>1535.3</ele>
        <time>2024-05-26T10:21:11Z</time>
      </trkpt>
      <trkpt lat="43.74377" lon="6.66194">
        <ele>1535.2</ele>
        <time>2024-05-26T10:21:12Z</time>
      </trkpt>
      <trkpt lat="43.74377" lon="6.66195">
        <ele>1535</ele>
        <time>2024-05-26T10:21:13Z</time>
      </trkpt>
      <trkpt lat="43.74378" lon="6.66196">
        <ele>1534.9</ele>
        <time>2024-05-26T10:21:14Z</time>
      </trkpt>
      <trkpt lat="43.74378" lon="6.66197">
        <ele>1534.7</ele>
        <time>2024-05-26T10:21:15Z</time>
      </trkpt>
      <trkpt lat="43.74379" lon="6.66199">
        <ele>1534.6</ele>
        <time>2024-05-26T10:21:16Z</time>
      </trkpt>
      <trkpt lat="43.74379" lon="6.662">
        <ele>1534.5</ele>
        <time>2024-05-26T10:21:17Z</time>
      </trkpt>
      <trkpt lat="43.74379" lon="6.66202">
        <ele>1534.4</ele>
        <time>2024-05-26T10:21:18Z</time>
      </trkpt>
      <trkpt lat="43.74379" lon="6.66204">
        <ele>1534.2</ele>
        <time>2024-05-26T10:21:19Z</time>
      </trkpt>
      <trkpt lat="43.7438" lon="6.66206">
        <ele>1534.1</ele>
        <time>2024-05-26T10:21:20Z</time>
      </trkpt>
      <trkpt lat="43.7438" lon="6.66208">
        <ele>1533.9</ele>
        <time>2024-05-26T10:21:21Z</time>
      </trkpt>
      <trkpt lat="43.7438" lon="6.66209">
        <ele>1533.7</ele>
        <time>2024-05-26T10:21:22Z</time>
      </trkpt>
      <trkpt lat="43.74381" lon="6.66211">
        <ele>1533.6</ele>
        <time>2024-05-26T10:21:23Z</time>
      </trkpt>
      <trkpt lat="43.74381" lon="6.66212">
        <ele>1533.6</ele>
        <time>2024-05-26T10:21:24Z</time>
      </trkpt>
      <trkpt lat="43.74382" lon="6.66214">
        <ele>1533.5</ele>
        <time>2024-05-26T10:21:25Z</time>
      </trkpt>
      <trkpt lat="43.74382" lon="6.66215">
        <ele>1533.4</ele>
        <time>2024-05-26T10:21:26Z</time>
      </trkpt>
      <trkpt lat="43.74382" lon="6.66217">
        <ele>1533.2</ele>
        <time>2024-05-26T10:21:27Z</time>
      </trkpt>
      <trkpt lat="43.74383" lon="6.66219">
        <ele>1533.1</ele>
        <time>2024-05-26T10:21:28Z</time>
      </trkpt>
      <trkpt lat="43.74383" lon="6.6622">
        <ele>1532.9</ele>
        <time>2024-05-26T10:21:29Z</time>
      </trkpt>
      <trkpt lat="43.74383" lon="6.66222">
        <ele>1532.8</ele>
        <time>2024-05-26T10:21:30Z</time>
      </trkpt>
      <trkpt lat="43.74383" lon="6.66223">
        <ele>1532.6</ele>
        <time>2024-05-26T10:21:31Z</time>
      </trkpt>
      <trkpt lat="43.74384" lon="6.66225">
        <ele>1532.5</ele>
        <time>2024-05-26T10:21:32Z</time>
      </trkpt>
      <trkpt lat="43.74384" lon="6.66226">
        <ele>1532.3</ele>
        <time>2024-05-26T10:21:33Z</time>
      </trkpt>
      <trkpt lat="43.74384" lon="6.66228">
        <ele>1532.2</ele>
        <time>2024-05-26T10:21:34Z</time>
      </trkpt>
      <trkpt lat="43.74384" lon="6.6623">
        <ele>1532.1</ele>
        <time>2024-05-26T10:21:35Z</time>
      </trkpt>
      <trkpt lat="43.74384" lon="6.66231">
        <ele>1531.9</ele>
        <time>2024-05-26T10:21:36Z</time>
      </trkpt>
      <trkpt lat="43.74384" lon="6.66233">
        <ele>1531.8</ele>
        <time>2024-05-26T10:21:37Z</time>
      </trkpt>
      <trkpt lat="43.74384" lon="6.66234">
        <ele>1531.8</ele>
        <time>2024-05-26T10:21:38Z</time>
      </trkpt>
      <trkpt lat="43.74385" lon="6.66235">
        <ele>1531.6</ele>
        <time>2024-05-26T10:21:39Z</time>
      </trkpt>
      <trkpt lat="43.74385" lon="6.66237">
        <ele>1531.6</ele>
        <time>2024-05-26T10:21:40Z</time>
      </trkpt>
      <trkpt lat="43.74386" lon="6.66238">
        <ele>1531.3</ele>
        <time>2024-05-26T10:21:41Z</time>
      </trkpt>
      <trkpt lat="43.74386" lon="6.66239">
        <ele>1531.1</ele>
        <time>2024-05-26T10:21:42Z</time>
      </trkpt>
      <trkpt lat="43.74386" lon="6.66241">
        <ele>1530.9</ele>
        <time>2024-05-26T10:21:43Z</time>
      </trkpt>
      <trkpt lat="43.74386" lon="6.66242">
        <ele>1530.8</ele>
        <time>2024-05-26T10:21:44Z</time>
      </trkpt>
      <trkpt lat="43.74386" lon="6.66244">
        <ele>1530.6</ele>
        <time>2024-05-26T10:21:45Z</time>
      </trkpt>
      <trkpt lat="43.74387" lon="6.66245">
        <ele>1530.5</ele>
        <time>2024-05-26T10:21:46Z</time>
      </trkpt>
      <trkpt lat="43.74387" lon="6.66246">
        <ele>1530.4</ele>
        <time>2024-05-26T10:21:47Z</time>
      </trkpt>
      <trkpt lat="43.74387" lon="6.66247">
        <ele>1530.2</ele>
        <time>2024-05-26T10:21:48Z</time>
      </trkpt>
      <trkpt lat="43.74388" lon="6.66249">
        <ele>1530</ele>
        <time>2024-05-26T10:21:49Z</time>
      </trkpt>
      <trkpt lat="43.74388" lon="6.6625">
        <ele>1529.8</ele>
        <time>2024-05-26T10:21:50Z</time>
      </trkpt>
      <trkpt lat="43.74388" lon="6.66252">
        <ele>1529.7</ele>
        <time>2024-05-26T10:21:51Z</time>
      </trkpt>
      <trkpt lat="43.74388" lon="6.66253">
        <ele>1529.6</ele>
        <time>2024-05-26T10:21:52Z</time>
      </trkpt>
      <trkpt lat="43.74388" lon="6.66255">
        <ele>1529.5</ele>
        <time>2024-05-26T10:21:53Z</time>
      </trkpt>
      <trkpt lat="43.74389" lon="6.66257">
        <ele>1529.3</ele>
        <time>2024-05-26T10:21:54Z</time>
      </trkpt>
      <trkpt lat="43.74389" lon="6.66258">
        <ele>1529.2</ele>
        <time>2024-05-26T10:21:55Z</time>
      </trkpt>
      <trkpt lat="43.7439" lon="6.6626">
        <ele>1528.9</ele>
        <time>2024-05-26T10:21:56Z</time>
      </trkpt>
      <trkpt lat="43.7439" lon="6.66262">
        <ele>1528.6</ele>
        <time>2024-05-26T10:21:57Z</time>
      </trkpt>
      <trkpt lat="43.7439" lon="6.66263">
        <ele>1528.4</ele>
        <time>2024-05-26T10:21:58Z</time>
      </trkpt>
      <trkpt lat="43.74391" lon="6.66265">
        <ele>1528.3</ele>
        <time>2024-05-26T10:21:59Z</time>
      </trkpt>
      <trkpt lat="43.74391" lon="6.66266">
        <ele>1528.1</ele>
        <time>2024-05-26T10:22:00Z</time>
      </trkpt>
      <trkpt lat="43.74391" lon="6.66268">
        <ele>1527.9</ele>
        <time>2024-05-26T10:22:01Z</time>
      </trkpt>
      <trkpt lat="43.74391" lon="6.6627">
        <ele>1527.7</ele>
        <time>2024-05-26T10:22:02Z</time>
      </trkpt>
      <trkpt lat="43.74392" lon="6.66272">
        <ele>1527.6</ele>
        <time>2024-05-26T10:22:03Z</time>
      </trkpt>
      <trkpt lat="43.74392" lon="6.66274">
        <ele>1527.5</ele>
        <time>2024-05-26T10:22:04Z</time>
      </trkpt>
      <trkpt lat="43.74392" lon="6.66275">
        <ele>1527.4</ele>
        <time>2024-05-26T10:22:05Z</time>
      </trkpt>
      <trkpt lat="43.74393" lon="6.66276">
        <ele>1527.3</ele>
        <time>2024-05-26T10:22:06Z</time>
      </trkpt>
      <trkpt lat="43.74394" lon="6.66277">
        <ele>1527.2</ele>
        <time>2024-05-26T10:22:07Z</time>
      </trkpt>
      <trkpt lat="43.74394" lon="6.66279">
        <ele>1527.1</ele>
        <time>2024-05-26T10:22:08Z</time>
      </trkpt>
      <trkpt lat="43.74394" lon="6.66281">
        <ele>1527</ele>
        <time>2024-05-26T10:22:09Z</time>
      </trkpt>
      <trkpt lat="43.74395" lon="6.66282">
        <ele>1526.9</ele>
        <time>2024-05-26T10:22:10Z</time>
      </trkpt>
      <trkpt lat="43.74395" lon="6.66284">
        <ele>1526.8</ele>
        <time>2024-05-26T10:22:11Z</time>
      </trkpt>
      <trkpt lat="43.74395" lon="6.66285">
        <ele>1526.7</ele>
        <time>2024-05-26T10:22:12Z</time>
      </trkpt>
      <trkpt lat="43.74395" lon="6.66287">
        <ele>1526.6</ele>
        <time>2024-05-26T10:22:13Z</time>
      </trkpt>
      <trkpt lat="43.74396" lon="6.66288">
        <ele>1526.6</ele>
        <time>2024-05-26T10:22:14Z</time>
      </trkpt>
      <trkpt lat="43.74396" lon="6.66289">
        <ele>1526.6</ele>
        <time>2024-05-26T10:22:15Z</time>
      </trkpt>
      <trkpt lat="43.74396" lon="6.66291">
        <ele>1526.5</ele>
        <time>2024-05-26T10:22:16Z</time>
      </trkpt>
      <trkpt lat="43.74397" lon="6.66292">
        <ele>1526.5</ele>
        <time>2024-05-26T10:22:17Z</time>
      </trkpt>
      <trkpt lat="43.74398" lon="6.66293">
        <ele>1526.4</ele>
        <time>2024-05-26T10:22:18Z</time>
      </trkpt>
      <trkpt lat="43.74398" lon="6.66294">
        <ele>1526.2</ele>
        <time>2024-05-26T10:22:19Z</time>
      </trkpt>
      <trkpt lat="43.74398" lon="6.66296">
        <ele>1526.1</ele>
        <time>2024-05-26T10:22:20Z</time>
      </trkpt>
      <trkpt lat="43.74398" lon="6.66298">
        <ele>1526</ele>
        <time>2024-05-26T10:22:21Z</time>
      </trkpt>
      <trkpt lat="43.74399" lon="6.66299">
        <ele>1525.9</ele>
        <time>2024-05-26T10:22:22Z</time>
      </trkpt>
      <trkpt lat="43.74399" lon="6.66301">
        <ele>1525.7</ele>
        <time>2024-05-26T10:22:23Z</time>
      </trkpt>
      <trkpt lat="43.744" lon="6.66303">
        <ele>1525.6</ele>
        <time>2024-05-26T10:22:24Z</time>
      </trkpt>
      <trkpt lat="43.744" lon="6.66304">
        <ele>1525.4</ele>
        <time>2024-05-26T10:22:25Z</time>
      </trkpt>
      <trkpt lat="43.74401" lon="6.66306">
        <ele>1525.2</ele>
        <time>2024-05-26T10:22:26Z</time>
      </trkpt>
      <trkpt lat="43.74401" lon="6.66307">
        <ele>1525</ele>
        <time>2024-05-26T10:22:27Z</time>
      </trkpt>
      <trkpt lat="43.74402" lon="6.66309">
        <ele>1524.8</ele>
        <time>2024-05-26T10:22:28Z</time>
      </trkpt>
      <trkpt lat="43.74402" lon="6.6631">
        <ele>1524.5</ele>
        <time>2024-05-26T10:22:29Z</time>
      </trkpt>
      <trkpt lat="43.74402" lon="6.66311">
        <ele>1524.4</ele>
        <time>2024-05-26T10:22:30Z</time>
      </trkpt>
      <trkpt lat="43.74402" lon="6.66313">
        <ele>1524.2</ele>
        <time>2024-05-26T10:22:31Z</time>
      </trkpt>
      <trkpt lat="43.74402" lon="6.66314">
        <ele>1524</ele>
        <time>2024-05-26T10:22:32Z</time>
      </trkpt>
      <trkpt lat="43.74403" lon="6.66316">
        <ele>1523.9</ele>
        <time>2024-05-26T10:22:33Z</time>
      </trkpt>
      <trkpt lat="43.74403" lon="6.66317">
        <ele>1523.7</ele>
        <time>2024-05-26T10:22:34Z</time>
      </trkpt>
      <trkpt lat="43.74403" lon="6.66319">
        <ele>1523.6</ele>
        <time>2024-05-26T10:22:35Z</time>
      </trkpt>
      <trkpt lat="43.74404" lon="6.6632">
        <ele>1523.4</ele>
        <time>2024-05-26T10:22:36Z</time>
      </trkpt>
      <trkpt lat="43.74404" lon="6.66321">
        <ele>1523.3</ele>
        <time>2024-05-26T10:22:37Z</time>
      </trkpt>
      <trkpt lat="43.74405" lon="6.66322">
        <ele>1523.1</ele>
        <time>2024-05-26T10:22:38Z</time>
      </trkpt>
      <trkpt lat="43.74406" lon="6.66324">
        <ele>1522.9</ele>
        <time>2024-05-26T10:22:39Z</time>
      </trkpt>
      <trkpt lat="43.74406" lon="6.66325">
        <ele>1522.8</ele>
        <time>2024-05-26T10:22:40Z</time>
      </trkpt>
      <trkpt lat="43.74407" lon="6.66327">
        <ele>1522.7</ele>
        <time>2024-05-26T10:22:41Z</time>
      </trkpt>
      <trkpt lat="43.74407" lon="6.66328">
        <ele>1522.6</ele>
        <time>2024-05-26T10:22:42Z</time>
      </trkpt>
      <trkpt lat="43.74407" lon="6.66329">
        <ele>1522.4</ele>
        <time>2024-05-26T10:22:43Z</time>
      </trkpt>
      <trkpt lat="43.74408" lon="6.66331">
        <ele>1522.2</ele>
        <time>2024-05-26T10:22:44Z</time>
      </trkpt>
      <trkpt lat="43.74408" lon="6.66333">
        <ele>1522.1</ele>
        <time>2024-05-26T10:22:45Z</time>
      </trkpt>
      <trkpt lat="43.74408" lon="6.66334">
        <ele>1522</ele>
        <time>2024-05-26T10:22:46Z</time>
      </trkpt>
      <trkpt lat="43.74409" lon="6.66335">
        <ele>1521.9</ele>
        <time>2024-05-26T10:22:47Z</time>
      </trkpt>
      <trkpt lat="43.74409" lon="6.66335">
        <ele>1521.7</ele>
        <time>2024-05-26T10:22:48Z</time>
      </trkpt>
      <trkpt lat="43.7441" lon="6.66337">
        <ele>1521.6</ele>
        <time>2024-05-26T10:22:49Z</time>
      </trkpt>
      <trkpt lat="43.7441" lon="6.66338">
        <ele>1521.5</ele>
        <time>2024-05-26T10:22:50Z</time>
      </trkpt>
      <trkpt lat="43.74411" lon="6.66339">
        <ele>1521.3</ele>
        <time>2024-05-26T10:22:51Z</time>
      </trkpt>
      <trkpt lat="43.74411" lon="6.66341">
        <ele>1521.1</ele>
        <time>2024-05-26T10:22:52Z</time>
      </trkpt>
      <trkpt lat="43.74411" lon="6.66343">
        <ele>1521</ele>
        <time>2024-05-26T10:22:53Z</time>
      </trkpt>
      <trkpt lat="43.74411" lon="6.66344">
        <ele>1520.8</ele>
        <time>2024-05-26T10:22:54Z</time>
      </trkpt>
      <trkpt lat="43.74412" lon="6.66346">
        <ele>1520.7</ele>
        <time>2024-05-26T10:22:55Z</time>
      </trkpt>
      <trkpt lat="43.74412" lon="6.66347">
        <ele>1520.5</ele>
        <time>2024-05-26T10:22:56Z</time>
      </trkpt>
      <trkpt lat="43.74412" lon="6.66348">
        <ele>1520.5</ele>
        <time>2024-05-26T10:22:57Z</time>
      </trkpt>
      <trkpt lat="43.74413" lon="6.6635">
        <ele>1520.4</ele>
        <time>2024-05-26T10:22:58Z</time>
      </trkpt>
      <trkpt lat="43.74414" lon="6.66351">
        <ele>1520.3</ele>
        <time>2024-05-26T10:22:59Z</time>
      </trkpt>
      <trkpt lat="43.74414" lon="6.66352">
        <ele>1520.1</ele>
        <time>2024-05-26T10:23:00Z</time>
      </trkpt>
      <trkpt lat="43.74414" lon="6.66354">
        <ele>1520</ele>
        <time>2024-05-26T10:23:01Z</time>
      </trkpt>
      <trkpt lat="43.74415" lon="6.66355">
        <ele>1519.9</ele>
        <time>2024-05-26T10:23:02Z</time>
      </trkpt>
      <trkpt lat="43.74415" lon="6.66356">
        <ele>1519.7</ele>
        <time>2024-05-26T10:23:03Z</time>
      </trkpt>
      <trkpt lat="43.74415" lon="6.66357">
        <ele>1519.6</ele>
        <time>2024-05-26T10:23:04Z</time>
      </trkpt>
      <trkpt lat="43.74415" lon="6.66359">
        <ele>1519.5</ele>
        <time>2024-05-26T10:23:05Z</time>
      </trkpt>
      <trkpt lat="43.74415" lon="6.66361">
        <ele>1519.4</ele>
        <time>2024-05-26T10:23:06Z</time>
      </trkpt>
      <trkpt lat="43.74416" lon="6.66363">
        <ele>1519.3</ele>
        <time>2024-05-26T10:23:07Z</time>
      </trkpt>
      <trkpt lat="43.74417" lon="6.66364">
        <ele>1519.3</ele>
        <time>2024-05-26T10:23:08Z</time>
      </trkpt>
      <trkpt lat="43.74417" lon="6.66365">
        <ele>1519.1</ele>
        <time>2024-05-26T10:23:09Z</time>
      </trkpt>
      <trkpt lat="43.74418" lon="6.66367">
        <ele>1519</ele>
        <time>2024-05-26T10:23:10Z</time>
      </trkpt>
      <trkpt lat="43.74418" lon="6.66368">
        <ele>1518.8</ele>
        <time>2024-05-26T10:23:11Z</time>
      </trkpt>
      <trkpt lat="43.74418" lon="6.66369">
        <ele>1518.6</ele>
        <time>2024-05-26T10:23:12Z</time>
      </trkpt>
      <trkpt lat="43.74418" lon="6.66371">
        <ele>1518.5</ele>
        <time>2024-05-26T10:23:13Z</time>
      </trkpt>
      <trkpt lat="43.74419" lon="6.66372">
        <ele>1518.4</ele>
        <time>2024-05-26T10:23:14Z</time>
      </trkpt>
      <trkpt lat="43.74419" lon="6.66373">
        <ele>1518.3</ele>
        <time>2024-05-26T10:23:15Z</time>
      </trkpt>
      <trkpt lat="43.7442" lon="6.66375">
        <ele>1518.1</ele>
        <time>2024-05-26T10:23:16Z</time>
      </trkpt>
      <trkpt lat="43.7442" lon="6.66376">
        <ele>1517.9</ele>
        <time>2024-05-26T10:23:17Z</time>
      </trkpt>
      <trkpt lat="43.74421" lon="6.66377">
        <ele>1517.7</ele>
        <time>2024-05-26T10:23:18Z</time>
      </trkpt>
      <trkpt lat="43.74421" lon="6.66378">
        <ele>1517.6</ele>
        <time>2024-05-26T10:23:19Z</time>
      </trkpt>
      <trkpt lat="43.74422" lon="6.6638">
        <ele>1517.5</ele>
        <time>2024-05-26T10:23:20Z</time>
      </trkpt>
      <trkpt lat="43.74422" lon="6.66381">
        <ele>1517.3</ele>
        <time>2024-05-26T10:23:21Z</time>
      </trkpt>
      <trkpt lat="43.74423" lon="6.66383">
        <ele>1517.1</ele>
        <time>2024-05-26T10:23:22Z</time>
      </trkpt>
      <trkpt lat="43.74423" lon="6.66385">
        <ele>1517</ele>
        <time>2024-05-26T10:23:23Z</time>
      </trkpt>
      <trkpt lat="43.74424" lon="6.66386">
        <ele>1516.9</ele>
        <time>2024-05-26T10:23:24Z</time>
      </trkpt>
      <trkpt lat="43.74424" lon="6.66387">
        <ele>1516.8</ele>
        <time>2024-05-26T10:23:25Z</time>
      </trkpt>
      <trkpt lat="43.74425" lon="6.66388">
        <ele>1516.7</ele>
        <time>2024-05-26T10:23:26Z</time>
      </trkpt>
      <trkpt lat="43.74425" lon="6.6639">
        <ele>1516.5</ele>
        <time>2024-05-26T10:23:27Z</time>
      </trkpt>
      <trkpt lat="43.74426" lon="6.66391">
        <ele>1516.4</ele>
        <time>2024-05-26T10:23:28Z</time>
      </trkpt>
      <trkpt lat="43.74427" lon="6.66392">
        <ele>1516.3</ele>
        <time>2024-05-26T10:23:29Z</time>
      </trkpt>
      <trkpt lat="43.74427" lon="6.66394">
        <ele>1516.2</ele>
        <time>2024-05-26T10:23:30Z</time>
      </trkpt>
      <trkpt lat="43.74427" lon="6.66395">
        <ele>1516.1</ele>
        <time>2024-05-26T10:23:31Z</time>
      </trkpt>
      <trkpt lat="43.74428" lon="6.66397">
        <ele>1515.8</ele>
        <time>2024-05-26T10:23:32Z</time>
      </trkpt>
      <trkpt lat="43.74428" lon="6.66398">
        <ele>1515.7</ele>
        <time>2024-05-26T10:23:33Z</time>
      </trkpt>
      <trkpt lat="43.74429" lon="6.664">
        <ele>1515.5</ele>
        <time>2024-05-26T10:23:34Z</time>
      </trkpt>
      <trkpt lat="43.74429" lon="6.66401">
        <ele>1515.3</ele>
        <time>2024-05-26T10:23:35Z</time>
      </trkpt>
      <trkpt lat="43.7443" lon="6.66402">
        <ele>1515.2</ele>
        <time>2024-05-26T10:23:36Z</time>
      </trkpt>
      <trkpt lat="43.7443" lon="6.66404">
        <ele>1514.8</ele>
        <time>2024-05-26T10:23:37Z</time>
      </trkpt>
      <trkpt lat="43.7443" lon="6.66406">
        <ele>1514.5</ele>
        <time>2024-05-26T10:23:38Z</time>
      </trkpt>
      <trkpt lat="43.74431" lon="6.66407">
        <ele>1514.4</ele>
        <time>2024-05-26T10:23:39Z</time>
      </trkpt>
      <trkpt lat="43.74431" lon="6.66409">
        <ele>1514.2</ele>
        <time>2024-05-26T10:23:40Z</time>
      </trkpt>
      <trkpt lat="43.74432" lon="6.6641">
        <ele>1514.1</ele>
        <time>2024-05-26T10:23:41Z</time>
      </trkpt>
      <trkpt lat="43.74432" lon="6.66411">
        <ele>1514.1</ele>
        <time>2024-05-26T10:23:42Z</time>
      </trkpt>
      <trkpt lat="43.74433" lon="6.66412">
        <ele>1514</ele>
        <time>2024-05-26T10:23:43Z</time>
      </trkpt>
      <trkpt lat="43.74433" lon="6.66414">
        <ele>1513.9</ele>
        <time>2024-05-26T10:23:44Z</time>
      </trkpt>
      <trkpt lat="43.74434" lon="6.66415">
        <ele>1513.7</ele>
        <time>2024-05-26T10:23:45Z</time>
      </trkpt>
      <trkpt lat="43.74434" lon="6.66416">
        <ele>1513.6</ele>
        <time>2024-05-26T10:23:46Z</time>
      </trkpt>
      <trkpt lat="43.74435" lon="6.66418">
        <ele>1513.4</ele>
        <time>2024-05-26T10:23:47Z</time>
      </trkpt>
      <trkpt lat="43.74435" lon="6.66419">
        <ele>1513.2</ele>
        <time>2024-05-26T10:23:48Z</time>
      </trkpt>
      <trkpt lat="43.74435" lon="6.66421">
        <ele>1513.1</ele>
        <time>2024-05-26T10:23:49Z</time>
      </trkpt>
      <trkpt lat="43.74436" lon="6.66422">
        <ele>1513</ele>
        <time>2024-05-26T10:23:50Z</time>
      </trkpt>
      <trkpt lat="43.74437" lon="6.66423">
        <ele>1512.9</ele>
        <time>2024-05-26T10:23:51Z</time>
      </trkpt>
      <trkpt lat="43.74437" lon="6.66425">
        <ele>1512.8</ele>
        <time>2024-05-26T10:23:52Z</time>
      </trkpt>
      <trkpt lat="43.74438" lon="6.66426">
        <ele>1512.5</ele>
        <time>2024-05-26T10:23:53Z</time>
      </trkpt>
      <trkpt lat="43.74439" lon="6.66427">
        <ele>1512.4</ele>
        <time>2024-05-26T10:23:54Z</time>
      </trkpt>
      <trkpt lat="43.74439" lon="6.66429">
        <ele>1512.2</ele>
        <time>2024-05-26T10:23:55Z</time>
      </trkpt>
      <trkpt lat="43.74439" lon="6.6643">
        <ele>1512.1</ele>
        <time>2024-05-26T10:23:56Z</time>
      </trkpt>
      <trkpt lat="43.74439" lon="6.66432">
        <ele>1511.9</ele>
        <time>2024-05-26T10:23:57Z</time>
      </trkpt>
      <trkpt lat="43.7444" lon="6.66434">
        <ele>1511.9</ele>
        <time>2024-05-26T10:23:58Z</time>
      </trkpt>
      <trkpt lat="43.7444" lon="6.66436">
        <ele>1511.6</ele>
        <time>2024-05-26T10:23:59Z</time>
      </trkpt>
      <trkpt lat="43.7444" lon="6.66437">
        <ele>1511.5</ele>
        <time>2024-05-26T10:24:00Z</time>
      </trkpt>
      <trkpt lat="43.74441" lon="6.66439">
        <ele>1511.3</ele>
        <time>2024-05-26T10:24:01Z</time>
      </trkpt>
      <trkpt lat="43.74442" lon="6.6644">
        <ele>1511.2</ele>
        <time>2024-05-26T10:24:02Z</time>
      </trkpt>
      <trkpt lat="43.74442" lon="6.66441">
        <ele>1511.1</ele>
        <time>2024-05-26T10:24:03Z</time>
      </trkpt>
      <trkpt lat="43.74443" lon="6.66442">
        <ele>1511</ele>
        <time>2024-05-26T10:24:04Z</time>
      </trkpt>
      <trkpt lat="43.74443" lon="6.66444">
        <ele>1510.8</ele>
        <time>2024-05-26T10:24:05Z</time>
      </trkpt>
      <trkpt lat="43.74444" lon="6.66446">
        <ele>1510.7</ele>
        <time>2024-05-26T10:24:06Z</time>
      </trkpt>
      <trkpt lat="43.74444" lon="6.66447">
        <ele>1510.5</ele>
        <time>2024-05-26T10:24:07Z</time>
      </trkpt>
      <trkpt lat="43.74445" lon="6.66449">
        <ele>1510.5</ele>
        <time>2024-05-26T10:24:08Z</time>
      </trkpt>
      <trkpt lat="43.74445" lon="6.66451">
        <ele>1510.3</ele>
        <time>2024-05-26T10:24:09Z</time>
      </trkpt>
      <trkpt lat="43.74446" lon="6.66452">
        <ele>1510.2</ele>
        <time>2024-05-26T10:24:10Z</time>
      </trkpt>
      <trkpt lat="43.74446" lon="6.66454">
        <ele>1510</ele>
        <time>2024-05-26T10:24:11Z</time>
      </trkpt>
      <trkpt lat="43.74447" lon="6.66455">
        <ele>1509.9</ele>
        <time>2024-05-26T10:24:12Z</time>
      </trkpt>
      <trkpt lat="43.74447" lon="6.66456">
        <ele>1509.7</ele>
        <time>2024-05-26T10:24:13Z</time>
      </trkpt>
      <trkpt lat="43.74448" lon="6.66457">
        <ele>1509.6</ele>
        <time>2024-05-26T10:24:14Z</time>
      </trkpt>
      <trkpt lat="43.74448" lon="6.66459">
        <ele>1509.5</ele>
        <time>2024-05-26T10:24:15Z</time>
      </trkpt>
      <trkpt lat="43.74449" lon="6.6646">
        <ele>1509.3</ele>
        <time>2024-05-26T10:24:16Z</time>
      </trkpt>
      <trkpt lat="43.74449" lon="6.66462">
        <ele>1509.3</ele>
        <time>2024-05-26T10:24:17Z</time>
      </trkpt>
      <trkpt lat="43.7445" lon="6.66463">
        <ele>1509.2</ele>
        <time>2024-05-26T10:24:18Z</time>
      </trkpt>
      <trkpt lat="43.7445" lon="6.66465">
        <ele>1509.1</ele>
        <time>2024-05-26T10:24:19Z</time>
      </trkpt>
      <trkpt lat="43.7445" lon="6.66467">
        <ele>1509</ele>
        <time>2024-05-26T10:24:20Z</time>
      </trkpt>
      <trkpt lat="43.74451" lon="6.66468">
        <ele>1508.9</ele>
        <time>2024-05-26T10:24:21Z</time>
      </trkpt>
      <trkpt lat="43.74451" lon="6.66469">
        <ele>1508.8</ele>
        <time>2024-05-26T10:24:22Z</time>
      </trkpt>
      <trkpt lat="43.74452" lon="6.66471">
        <ele>1508.7</ele>
        <time>2024-05-26T10:24:23Z</time>
      </trkpt>
      <trkpt lat="43.74452" lon="6.66472">
        <ele>1508.5</ele>
        <time>2024-05-26T10:24:24Z</time>
      </trkpt>
      <trkpt lat="43.74453" lon="6.66474">
        <ele>1508.2</ele>
        <time>2024-05-26T10:24:25Z</time>
      </trkpt>
      <trkpt lat="43.74453" lon="6.66474">
        <ele>1508</ele>
        <time>2024-05-26T10:24:26Z</time>
      </trkpt>
      <trkpt lat="43.74454" lon="6.66476">
        <ele>1507.9</ele>
        <time>2024-05-26T10:24:27Z</time>
      </trkpt>
      <trkpt lat="43.74454" lon="6.66478">
        <ele>1507.7</ele>
        <time>2024-05-26T10:24:28Z</time>
      </trkpt>
      <trkpt lat="43.74455" lon="6.6648">
        <ele>1507.6</ele>
        <time>2024-05-26T10:24:29Z</time>
      </trkpt>
      <trkpt lat="43.74455" lon="6.66481">
        <ele>1507.5</ele>
        <time>2024-05-26T10:24:30Z</time>
      </trkpt>
      <trkpt lat="43.74456" lon="6.66482">
        <ele>1507.5</ele>
        <time>2024-05-26T10:24:31Z</time>
      </trkpt>
      <trkpt lat="43.74456" lon="6.66484">
        <ele>1507.4</ele>
        <time>2024-05-26T10:24:32Z</time>
      </trkpt>
      <trkpt lat="43.74457" lon="6.66485">
        <ele>1507.3</ele>
        <time>2024-05-26T10:24:33Z</time>
      </trkpt>
      <trkpt lat="43.74457" lon="6.66486">
        <ele>1507.2</ele>
        <time>2024-05-26T10:24:34Z</time>
      </trkpt>
      <trkpt lat="43.74458" lon="6.66488">
        <ele>1507.1</ele>
        <time>2024-05-26T10:24:35Z</time>
      </trkpt>
      <trkpt lat="43.74458" lon="6.6649">
        <ele>1507</ele>
        <time>2024-05-26T10:24:36Z</time>
      </trkpt>
      <trkpt lat="43.74458" lon="6.66491">
        <ele>1506.8</ele>
        <time>2024-05-26T10:24:37Z</time>
      </trkpt>
      <trkpt lat="43.74459" lon="6.66493">
        <ele>1506.6</ele>
        <time>2024-05-26T10:24:38Z</time>
      </trkpt>
      <trkpt lat="43.7446" lon="6.66494">
        <ele>1506.3</ele>
        <time>2024-05-26T10:24:39Z</time>
      </trkpt>
      <trkpt lat="43.7446" lon="6.66496">
        <ele>1506.1</ele>
        <time>2024-05-26T10:24:40Z</time>
      </trkpt>
      <trkpt lat="43.7446" lon="6.66497">
        <ele>1505.9</ele>
        <time>2024-05-26T10:24:41Z</time>
      </trkpt>
      <trkpt lat="43.74461" lon="6.66498">
        <ele>1505.7</ele>
        <time>2024-05-26T10:24:42Z</time>
      </trkpt>
      <trkpt lat="43.74462" lon="6.66499">
        <ele>1505.5</ele>
        <time>2024-05-26T10:24:43Z</time>
      </trkpt>
      <trkpt lat="43.74463" lon="6.665">
        <ele>1505.4</ele>
        <time>2024-05-26T10:24:44Z</time>
      </trkpt>
      <trkpt lat="43.74463" lon="6.66502">
        <ele>1505.1</ele>
        <time>2024-05-26T10:24:45Z</time>
      </trkpt>
      <trkpt lat="43.74464" lon="6.66503">
        <ele>1504.8</ele>
        <time>2024-05-26T10:24:46Z</time>
      </trkpt>
      <trkpt lat="43.74464" lon="6.66504">
        <ele>1504.7</ele>
        <time>2024-05-26T10:24:47Z</time>
      </trkpt>
      <trkpt lat="43.74464" lon="6.66506">
        <ele>1504.6</ele>
        <time>2024-05-26T10:24:48Z</time>
      </trkpt>
      <trkpt lat="43.74465" lon="6.66508">
        <ele>1504.4</ele>
        <time>2024-05-26T10:24:49Z</time>
      </trkpt>
      <trkpt lat="43.74465" lon="6.66509">
        <ele>1504.4</ele>
        <time>2024-05-26T10:24:50Z</time>
      </trkpt>
      <trkpt lat="43.74466" lon="6.6651">
        <ele>1504.3</ele>
        <time>2024-05-26T10:24:51Z</time>
      </trkpt>
      <trkpt lat="43.74467" lon="6.66511">
        <ele>1504.1</ele>
        <time>2024-05-26T10:24:52Z</time>
      </trkpt>
      <trkpt lat="43.74467" lon="6.66513">
        <ele>1503.9</ele>
        <time>2024-05-26T10:24:53Z</time>
      </trkpt>
      <trkpt lat="43.74468" lon="6.66514">
        <ele>1503.8</ele>
        <time>2024-05-26T10:24:54Z</time>
      </trkpt>
      <trkpt lat="43.74469" lon="6.66515">
        <ele>1503.7</ele>
        <time>2024-05-26T10:24:55Z</time>
      </trkpt>
      <trkpt lat="43.74469" lon="6.66516">
        <ele>1503.5</ele>
        <time>2024-05-26T10:24:56Z</time>
      </trkpt>
      <trkpt lat="43.7447" lon="6.66518">
        <ele>1503.4</ele>
        <time>2024-05-26T10:24:57Z</time>
      </trkpt>
      <trkpt lat="43.7447" lon="6.66519">
        <ele>1503.2</ele>
        <time>2024-05-26T10:24:58Z</time>
      </trkpt>
      <trkpt lat="43.74471" lon="6.66521">
        <ele>1503</ele>
        <time>2024-05-26T10:24:59Z</time>
      </trkpt>
      <trkpt lat="43.74471" lon="6.66522">
        <ele>1502.9</ele>
        <time>2024-05-26T10:25:00Z</time>
      </trkpt>
      <trkpt lat="43.74472" lon="6.66524">
        <ele>1502.7</ele>
        <time>2024-05-26T10:25:01Z</time>
      </trkpt>
      <trkpt lat="43.74472" lon="6.66526">
        <ele>1502.7</ele>
        <time>2024-05-26T10:25:02Z</time>
      </trkpt>
      <trkpt lat="43.74473" lon="6.66527">
        <ele>1502.6</ele>
        <time>2024-05-26T10:25:03Z</time>
      </trkpt>
      <trkpt lat="43.74474" lon="6.66529">
        <ele>1502.4</ele>
        <time>2024-05-26T10:25:04Z</time>
      </trkpt>
      <trkpt lat="43.74475" lon="6.6653">
        <ele>1502.3</ele>
        <time>2024-05-26T10:25:05Z</time>
      </trkpt>
      <trkpt lat="43.74475" lon="6.66531">
        <ele>1502.2</ele>
        <time>2024-05-26T10:25:06Z</time>
      </trkpt>
      <trkpt lat="43.74475" lon="6.66533">
        <ele>1502</ele>
        <time>2024-05-26T10:25:07Z</time>
      </trkpt>
      <trkpt lat="43.74476" lon="6.66534">
        <ele>1502</ele>
        <time>2024-05-26T10:25:08Z</time>
      </trkpt>
      <trkpt lat="43.74477" lon="6.66536">
        <ele>1502</ele>
        <time>2024-05-26T10:25:09Z</time>
      </trkpt>
      <trkpt lat="43.74477" lon="6.66538">
        <ele>1502</ele>
        <time>2024-05-26T10:25:10Z</time>
      </trkpt>
      <trkpt lat="43.74478" lon="6.66539">
        <ele>1502</ele>
        <time>2024-05-26T10:25:11Z</time>
      </trkpt>
      <trkpt lat="43.74478" lon="6.6654">
        <ele>1502</ele>
        <time>2024-05-26T10:25:12Z</time>
      </trkpt>
      <trkpt lat="43.74479" lon="6.66542">
        <ele>1502</ele>
        <time>2024-05-26T10:25:13Z</time>
      </trkpt>
      <trkpt lat="43.7448" lon="6.66543">
        <ele>1501.9</ele>
        <time>2024-05-26T10:25:14Z</time>
      </trkpt>
      <trkpt lat="43.7448" lon="6.66544">
        <ele>1501.8</ele>
        <time>2024-05-26T10:25:15Z</time>
      </trkpt>
      <trkpt lat="43.74481" lon="6.66545">
        <ele>1501.8</ele>
        <time>2024-05-26T10:25:16Z</time>
      </trkpt>
      <trkpt lat="43.74481" lon="6.66546">
        <ele>1501.6</ele>
        <time>2024-05-26T10:25:17Z</time>
      </trkpt>
      <trkpt lat="43.74482" lon="6.66548">
        <ele>1501.5</ele>
        <time>2024-05-26T10:25:18Z</time>
      </trkpt>
      <trkpt lat="43.74483" lon="6.66549">
        <ele>1501.4</ele>
        <time>2024-05-26T10:25:19Z</time>
      </trkpt>
      <trkpt lat="43.74483" lon="6.66551">
        <ele>1501.4</ele>
        <time>2024-05-26T10:25:20Z</time>
      </trkpt>
      <trkpt lat="43.74484" lon="6.66552">
        <ele>1501.3</ele>
        <time>2024-05-26T10:25:21Z</time>
      </trkpt>
      <trkpt lat="43.74485" lon="6.66553">
        <ele>1501.3</ele>
        <time>2024-05-26T10:25:22Z</time>
      </trkpt>
      <trkpt lat="43.74486" lon="6.66554">
        <ele>1501.2</ele>
        <time>2024-05-26T10:25:23Z</time>
      </trkpt>
      <trkpt lat="43.74487" lon="6.66556">
        <ele>1501.1</ele>
        <time>2024-05-26T10:25:24Z</time>
      </trkpt>
      <trkpt lat="43.74488" lon="6.66557">
        <ele>1501</ele>
        <time>2024-05-26T10:25:25Z</time>
      </trkpt>
      <trkpt lat="43.74488" lon="6.66559">
        <ele>1500.9</ele>
        <time>2024-05-26T10:25:26Z</time>
      </trkpt>
      <trkpt lat="43.74489" lon="6.6656">
        <ele>1500.8</ele>
        <time>2024-05-26T10:25:27Z</time>
      </trkpt>
      <trkpt lat="43.74489" lon="6.66561">
        <ele>1500.7</ele>
        <time>2024-05-26T10:25:28Z</time>
      </trkpt>
      <trkpt lat="43.7449" lon="6.66563">
        <ele>1500.7</ele>
        <time>2024-05-26T10:25:29Z</time>
      </trkpt>
      <trkpt lat="43.74491" lon="6.66564">
        <ele>1500.6</ele>
        <time>2024-05-26T10:25:30Z</time>
      </trkpt>
      <trkpt lat="43.74491" lon="6.66565">
        <ele>1500.5</ele>
        <time>2024-05-26T10:25:31Z</time>
      </trkpt>
      <trkpt lat="43.74492" lon="6.66566">
        <ele>1500.4</ele>
        <time>2024-05-26T10:25:32Z</time>
      </trkpt>
      <trkpt lat="43.74492" lon="6.66568">
        <ele>1500.2</ele>
        <time>2024-05-26T10:25:33Z</time>
      </trkpt>
      <trkpt lat="43.74493" lon="6.66569">
        <ele>1500.1</ele>
        <time>2024-05-26T10:25:34Z</time>
      </trkpt>
      <trkpt lat="43.74494" lon="6.6657">
        <ele>1500.1</ele>
        <time>2024-05-26T10:25:35Z</time>
      </trkpt>
      <trkpt lat="43.74495" lon="6.66572">
        <ele>1500.1</ele>
        <time>2024-05-26T10:25:36Z</time>
      </trkpt>
      <trkpt lat="43.74495" lon="6.66574">
        <ele>1500</ele>
        <time>2024-05-26T10:25:37Z</time>
      </trkpt>
      <trkpt lat="43.74496" lon="6.66575">
        <ele>1500</ele>
        <time>2024-05-26T10:25:38Z</time>
      </trkpt>
      <trkpt lat="43.74496" lon="6.66576">
        <ele>1500</ele>
        <time>2024-05-26T10:25:39Z</time>
      </trkpt>
      <trkpt lat="43.74497" lon="6.66578">
        <ele>1500</ele>
        <time>2024-05-26T10:25:40Z</time>
      </trkpt>
      <trkpt lat="43.74498" lon="6.66579">
        <ele>1500.1</ele>
        <time>2024-05-26T10:25:41Z</time>
      </trkpt>
      <trkpt lat="43.74499" lon="6.66579">
        <ele>1500.1</ele>
        <time>2024-05-26T10:25:42Z</time>
      </trkpt>
      <trkpt lat="43.745" lon="6.6658">
        <ele>1500</ele>
        <time>2024-05-26T10:25:43Z</time>
      </trkpt>
      <trkpt lat="43.745" lon="6.66582">
        <ele>1499.9</ele>
        <time>2024-05-26T10:25:44Z</time>
      </trkpt>
      <trkpt lat="43.74501" lon="6.66583">
        <ele>1499.8</ele>
        <time>2024-05-26T10:25:45Z</time>
      </trkpt>
      <trkpt lat="43.74502" lon="6.66584">
        <ele>1499.7</ele>
        <time>2024-05-26T10:25:46Z</time>
      </trkpt>
      <trkpt lat="43.74503" lon="6.66586">
        <ele>1499.6</ele>
        <time>2024-05-26T10:25:47Z</time>
      </trkpt>
      <trkpt lat="43.74503" lon="6.66587">
        <ele>1499.4</ele>
        <time>2024-05-26T10:25:48Z</time>
      </trkpt>
      <trkpt lat="43.74504" lon="6.66589">
        <ele>1499.4</ele>
        <time>2024-05-26T10:25:49Z</time>
      </trkpt>
      <trkpt lat="43.74504" lon="6.66591">
        <ele>1499.3</ele>
        <time>2024-05-26T10:25:50Z</time>
      </trkpt>
      <trkpt lat="43.74505" lon="6.66592">
        <ele>1499.2</ele>
        <time>2024-05-26T10:25:51Z</time>
      </trkpt>
      <trkpt lat="43.74506" lon="6.66593">
        <ele>1499.2</ele>
        <time>2024-05-26T10:25:52Z</time>
      </trkpt>
      <trkpt lat="43.74506" lon="6.66594">
        <ele>1499.1</ele>
        <time>2024-05-26T10:25:53Z</time>
      </trkpt>
      <trkpt lat="43.74507" lon="6.66596">
        <ele>1499</ele>
        <time>2024-05-26T10:25:54Z</time>
      </trkpt>
      <trkpt lat="43.74508" lon="6.66597">
        <ele>1498.9</ele>
        <time>2024-05-26T10:25:55Z</time>
      </trkpt>
      <trkpt lat="43.74508" lon="6.66598">
        <ele>1498.9</ele>
        <time>2024-05-26T10:25:56Z</time>
      </trkpt>
      <trkpt lat="43.74509" lon="6.666">
        <ele>1498.8</ele>
        <time>2024-05-26T10:25:57Z</time>
      </trkpt>
      <trkpt lat="43.74509" lon="6.66601">
        <ele>1498.8</ele>
        <time>2024-05-26T10:25:58Z</time>
      </trkpt>
      <trkpt lat="43.7451" lon="6.66602">
        <ele>1498.7</ele>
        <time>2024-05-26T10:25:59Z</time>
      </trkpt>
      <trkpt lat="43.7451" lon="6.66604">
        <ele>1498.8</ele>
        <time>2024-05-26T10:26:00Z</time>
      </trkpt>
      <trkpt lat="43.74511" lon="6.66605">
        <ele>1498.8</ele>
        <time>2024-05-26T10:26:01Z</time>
      </trkpt>
      <trkpt lat="43.74512" lon="6.66606">
        <ele>1498.8</ele>
        <time>2024-05-26T10:26:02Z</time>
      </trkpt>
      <trkpt lat="43.74513" lon="6.66607">
        <ele>1498.8</ele>
        <time>2024-05-26T10:26:03Z</time>
      </trkpt>
      <trkpt lat="43.74513" lon="6.66608">
        <ele>1498.6</ele>
        <time>2024-05-26T10:26:04Z</time>
      </trkpt>
      <trkpt lat="43.74514" lon="6.6661">
        <ele>1498.4</ele>
        <time>2024-05-26T10:26:05Z</time>
      </trkpt>
      <trkpt lat="43.74514" lon="6.66611">
        <ele>1498.4</ele>
        <time>2024-05-26T10:26:06Z</time>
      </trkpt>
      <trkpt lat="43.74515" lon="6.66613">
        <ele>1498.4</ele>
        <time>2024-05-26T10:26:07Z</time>
      </trkpt>
      <trkpt lat="43.74515" lon="6.66614">
        <ele>1498.3</ele>
        <time>2024-05-26T10:26:08Z</time>
      </trkpt>
      <trkpt lat="43.74516" lon="6.66615">
        <ele>1498.3</ele>
        <time>2024-05-26T10:26:09Z</time>
      </trkpt>
      <trkpt lat="43.74517" lon="6.66616">
        <ele>1498.3</ele>
        <time>2024-05-26T10:26:10Z</time>
      </trkpt>
      <trkpt lat="43.74517" lon="6.66618">
        <ele>1498.3</ele>
        <time>2024-05-26T10:26:11Z</time>
      </trkpt>
      <trkpt lat="43.74518" lon="6.66619">
        <ele>1498.3</ele>
        <time>2024-05-26T10:26:12Z</time>
      </trkpt>
      <trkpt lat="43.74519" lon="6.6662">
        <ele>1498.3</ele>
        <time>2024-05-26T10:26:13Z</time>
      </trkpt>
      <trkpt lat="43.74519" lon="6.66621">
        <ele>1498.3</ele>
        <time>2024-05-26T10:26:14Z</time>
      </trkpt>
      <trkpt lat="43.7452" lon="6.66623">
        <ele>1498.2</ele>
        <time>2024-05-26T10:26:15Z</time>
      </trkpt>
      <trkpt lat="43.74521" lon="6.66625">
        <ele>1498.1</ele>
        <time>2024-05-26T10:26:16Z</time>
      </trkpt>
      <trkpt lat="43.74522" lon="6.66626">
        <ele>1498</ele>
        <time>2024-05-26T10:26:17Z</time>
      </trkpt>
      <trkpt lat="43.74523" lon="6.66628">
        <ele>1498</ele>
        <time>2024-05-26T10:26:18Z</time>
      </trkpt>
      <trkpt lat="43.74523" lon="6.66629">
        <ele>1498</ele>
        <time>2024-05-26T10:26:19Z</time>
      </trkpt>
      <trkpt lat="43.74523" lon="6.66631">
        <ele>1498</ele>
        <time>2024-05-26T10:26:20Z</time>
      </trkpt>
      <trkpt lat="43.74524" lon="6.66632">
        <ele>1498</ele>
        <time>2024-05-26T10:26:21Z</time>
      </trkpt>
      <trkpt lat="43.74524" lon="6.66634">
        <ele>1497.9</ele>
        <time>2024-05-26T10:26:22Z</time>
      </trkpt>
      <trkpt lat="43.74525" lon="6.66636">
        <ele>1497.8</ele>
        <time>2024-05-26T10:26:23Z</time>
      </trkpt>
      <trkpt lat="43.74525" lon="6.66637">
        <ele>1497.7</ele>
        <time>2024-05-26T10:26:24Z</time>
      </trkpt>
      <trkpt lat="43.74525" lon="6.66639">
        <ele>1497.7</ele>
        <time>2024-05-26T10:26:25Z</time>
      </trkpt>
      <trkpt lat="43.74526" lon="6.6664">
        <ele>1497.7</ele>
        <time>2024-05-26T10:26:26Z</time>
      </trkpt>
      <trkpt lat="43.74526" lon="6.66642">
        <ele>1497.7</ele>
        <time>2024-05-26T10:26:27Z</time>
      </trkpt>
      <trkpt lat="43.74527" lon="6.66643">
        <ele>1497.6</ele>
        <time>2024-05-26T10:26:28Z</time>
      </trkpt>
      <trkpt lat="43.74527" lon="6.66645">
        <ele>1497.5</ele>
        <time>2024-05-26T10:26:29Z</time>
      </trkpt>
      <trkpt lat="43.74528" lon="6.66647">
        <ele>1497.4</ele>
        <time>2024-05-26T10:26:30Z</time>
      </trkpt>
      <trkpt lat="43.74528" lon="6.66648">
        <ele>1497.4</ele>
        <time>2024-05-26T10:26:31Z</time>
      </trkpt>
      <trkpt lat="43.74529" lon="6.6665">
        <ele>1497.2</ele>
        <time>2024-05-26T10:26:32Z</time>
      </trkpt>
      <trkpt lat="43.7453" lon="6.66651">
        <ele>1497.1</ele>
        <time>2024-05-26T10:26:33Z</time>
      </trkpt>
      <trkpt lat="43.7453" lon="6.66652">
        <ele>1497.1</ele>
        <time>2024-05-26T10:26:34Z</time>
      </trkpt>
      <trkpt lat="43.74531" lon="6.66654">
        <ele>1497.1</ele>
        <time>2024-05-26T10:26:35Z</time>
      </trkpt>
      <trkpt lat="43.74531" lon="6.66655">
        <ele>1497.1</ele>
        <time>2024-05-26T10:26:36Z</time>
      </trkpt>
      <trkpt lat="43.74531" lon="6.66657">
        <ele>1497.1</ele>
        <time>2024-05-26T10:26:37Z</time>
      </trkpt>
      <trkpt lat="43.74532" lon="6.66659">
        <ele>1497.1</ele>
        <time>2024-05-26T10:26:38Z</time>
      </trkpt>
      <trkpt lat="43.74533" lon="6.6666">
        <ele>1497</ele>
        <time>2024-05-26T10:26:39Z</time>
      </trkpt>
      <trkpt lat="43.74533" lon="6.66661">
        <ele>1496.9</ele>
        <time>2024-05-26T10:26:40Z</time>
      </trkpt>
      <trkpt lat="43.74533" lon="6.66663">
        <ele>1496.8</ele>
        <time>2024-05-26T10:26:41Z</time>
      </trkpt>
      <trkpt lat="43.74534" lon="6.66664">
        <ele>1496.8</ele>
        <time>2024-05-26T10:26:42Z</time>
      </trkpt>
      <trkpt lat="43.74534" lon="6.66666">
        <ele>1496.7</ele>
        <time>2024-05-26T10:26:43Z</time>
      </trkpt>
      <trkpt lat="43.74535" lon="6.66667">
        <ele>1496.6</ele>
        <time>2024-05-26T10:26:44Z</time>
      </trkpt>
      <trkpt lat="43.74535" lon="6.66668">
        <ele>1496.6</ele>
        <time>2024-05-26T10:26:45Z</time>
      </trkpt>
      <trkpt lat="43.74535" lon="6.6667">
        <ele>1496.5</ele>
        <time>2024-05-26T10:26:46Z</time>
      </trkpt>
      <trkpt lat="43.74535" lon="6.66672">
        <ele>1496.4</ele>
        <time>2024-05-26T10:26:47Z</time>
      </trkpt>
      <trkpt lat="43.74535" lon="6.66674">
        <ele>1496.3</ele>
        <time>2024-05-26T10:26:48Z</time>
      </trkpt>
      <trkpt lat="43.74535" lon="6.66676">
        <ele>1496.1</ele>
        <time>2024-05-26T10:26:49Z</time>
      </trkpt>
      <trkpt lat="43.74535" lon="6.66677">
        <ele>1496</ele>
        <time>2024-05-26T10:26:50Z</time>
      </trkpt>
      <trkpt lat="43.74536" lon="6.66679">
        <ele>1496</ele>
        <time>2024-05-26T10:26:51Z</time>
      </trkpt>
      <trkpt lat="43.74535" lon="6.6668">
        <ele>1495.9</ele>
        <time>2024-05-26T10:26:52Z</time>
      </trkpt>
      <trkpt lat="43.74535" lon="6.66682">
        <ele>1495.8</ele>
        <time>2024-05-26T10:26:53Z</time>
      </trkpt>
      <trkpt lat="43.74535" lon="6.66683">
        <ele>1495.6</ele>
        <time>2024-05-26T10:26:54Z</time>
      </trkpt>
      <trkpt lat="43.74535" lon="6.66684">
        <ele>1495.5</ele>
        <time>2024-05-26T10:26:55Z</time>
      </trkpt>
      <trkpt lat="43.74534" lon="6.66686">
        <ele>1495.4</ele>
        <time>2024-05-26T10:26:56Z</time>
      </trkpt>
      <trkpt lat="43.74534" lon="6.66687">
        <ele>1495.2</ele>
        <time>2024-05-26T10:26:57Z</time>
      </trkpt>
      <trkpt lat="43.74533" lon="6.66689">
        <ele>1495.1</ele>
        <time>2024-05-26T10:26:58Z</time>
      </trkpt>
      <trkpt lat="43.74533" lon="6.6669">
        <ele>1495</ele>
        <time>2024-05-26T10:26:59Z</time>
      </trkpt>
      <trkpt lat="43.74532" lon="6.66691">
        <ele>1494.8</ele>
        <time>2024-05-26T10:27:00Z</time>
      </trkpt>
      <trkpt lat="43.74532" lon="6.66692">
        <ele>1494.7</ele>
        <time>2024-05-26T10:27:01Z</time>
      </trkpt>
      <trkpt lat="43.74531" lon="6.66693">
        <ele>1494.5</ele>
        <time>2024-05-26T10:27:02Z</time>
      </trkpt>
      <trkpt lat="43.74531" lon="6.66694">
        <ele>1494.4</ele>
        <time>2024-05-26T10:27:03Z</time>
      </trkpt>
      <trkpt lat="43.7453" lon="6.66695">
        <ele>1494.3</ele>
        <time>2024-05-26T10:27:04Z</time>
      </trkpt>
      <trkpt lat="43.74529" lon="6.66696">
        <ele>1494.1</ele>
        <time>2024-05-26T10:27:05Z</time>
      </trkpt>
      <trkpt lat="43.74529" lon="6.66697">
        <ele>1494</ele>
        <time>2024-05-26T10:27:06Z</time>
      </trkpt>
      <trkpt lat="43.74528" lon="6.66699">
        <ele>1493.8</ele>
        <time>2024-05-26T10:27:07Z</time>
      </trkpt>
      <trkpt lat="43.74527" lon="6.667">
        <ele>1493.7</ele>
        <time>2024-05-26T10:27:08Z</time>
      </trkpt>
      <trkpt lat="43.74527" lon="6.667">
        <ele>1493.6</ele>
        <time>2024-05-26T10:27:09Z</time>
      </trkpt>
      <trkpt lat="43.74526" lon="6.66701">
        <ele>1493.5</ele>
        <time>2024-05-26T10:27:10Z</time>
      </trkpt>
      <trkpt lat="43.74526" lon="6.66702">
        <ele>1493.4</ele>
        <time>2024-05-26T10:27:11Z</time>
      </trkpt>
      <trkpt lat="43.74526" lon="6.66703">
        <ele>1493.3</ele>
        <time>2024-05-26T10:27:12Z</time>
      </trkpt>
      <trkpt lat="43.74526" lon="6.66704">
        <ele>1493.3</ele>
        <time>2024-05-26T10:27:13Z</time>
      </trkpt>
      <trkpt lat="43.74526" lon="6.66706">
        <ele>1493.2</ele>
        <time>2024-05-26T10:27:14Z</time>
      </trkpt>
      <trkpt lat="43.74526" lon="6.66706">
        <ele>1493</ele>
        <time>2024-05-26T10:27:15Z</time>
      </trkpt>
      <trkpt lat="43.74526" lon="6.66706">
        <ele>1492.9</ele>
        <time>2024-05-26T10:27:16Z</time>
      </trkpt>
      <trkpt lat="43.74526" lon="6.66706">
        <ele>1492.9</ele>
        <time>2024-05-26T10:27:17Z</time>
      </trkpt>
      <trkpt lat="43.74526" lon="6.66706">
        <ele>1492.8</ele>
        <time>2024-05-26T10:27:18Z</time>
      </trkpt>
      <trkpt lat="43.74526" lon="6.66706">
        <ele>1492.7</ele>
        <time>2024-05-26T10:27:19Z</time>
      </trkpt>
      <trkpt lat="43.74526" lon="6.66706">
        <ele>1492.7</ele>
        <time>2024-05-26T10:27:20Z</time>
      </trkpt>
      <trkpt lat="43.74526" lon="6.66706">
        <ele>1492.7</ele>
        <time>2024-05-26T10:27:21Z</time>
      </trkpt>
      <trkpt lat="43.74526" lon="6.66706">
        <ele>1492.7</ele>
        <time>2024-05-26T10:27:22Z</time>
      </trkpt>
      <trkpt lat="43.74526" lon="6.66706">
        <ele>1492.7</ele>
        <time>2024-05-26T10:27:23Z</time>
      </trkpt>
      <trkpt lat="43.74526" lon="6.66707">
        <ele>1492.6</ele>
        <time>2024-05-26T10:27:24Z</time>
      </trkpt>
      <trkpt lat="43.74526" lon="6.66707">
        <ele>1492.6</ele>
        <time>2024-05-26T10:27:25Z</time>
      </trkpt>
      <trkpt lat="43.74526" lon="6.66707">
        <ele>1492.6</ele>
        <time>2024-05-26T10:27:26Z</time>
      </trkpt>
      <trkpt lat="43.74526" lon="6.66707">
        <ele>1492.7</ele>
        <time>2024-05-26T10:27:27Z</time>
      </trkpt>
      <trkpt lat="43.74525" lon="6.66707">
        <ele>1492.7</ele>
        <time>2024-05-26T10:27:28Z</time>
      </trkpt>
      <trkpt lat="43.74525" lon="6.66708">
        <ele>1492.7</ele>
        <time>2024-05-26T10:27:29Z</time>
      </trkpt>
      <trkpt lat="43.74525" lon="6.66707">
        <ele>1492.7</ele>
        <time>2024-05-26T10:27:30Z</time>
      </trkpt>
      <trkpt lat="43.74526" lon="6.66707">
        <ele>1492.7</ele>
        <time>2024-05-26T10:27:31Z</time>
      </trkpt>
      <trkpt lat="43.74526" lon="6.66707">
        <ele>1492.7</ele>
        <time>2024-05-26T10:27:32Z</time>
      </trkpt>
      <trkpt lat="43.74526" lon="6.66707">
        <ele>1492.6</ele>
        <time>2024-05-26T10:27:33Z</time>
      </trkpt>
      <trkpt lat="43.74526" lon="6.66707">
        <ele>1492.6</ele>
        <time>2024-05-26T10:27:34Z</time>
      </trkpt>
      <trkpt lat="43.74526" lon="6.66707">
        <ele>1492.5</ele>
        <time>2024-05-26T10:27:35Z</time>
      </trkpt>
      <trkpt lat="43.74526" lon="6.66707">
        <ele>1492.5</ele>
        <time>2024-05-26T10:27:36Z</time>
      </trkpt>
      <trkpt lat="43.74526" lon="6.66707">
        <ele>1492.5</ele>
        <time>2024-05-26T10:27:37Z</time>
      </trkpt>
      <trkpt lat="43.74526" lon="6.66707">
        <ele>1492.5</ele>
        <time>2024-05-26T10:27:38Z</time>
      </trkpt>
      <trkpt lat="43.74525" lon="6.66707">
        <ele>1492.5</ele>
        <time>2024-05-26T10:27:39Z</time>
      </trkpt>
      <trkpt lat="43.74525" lon="6.66707">
        <ele>1492.5</ele>
        <time>2024-05-26T10:27:40Z</time>
      </trkpt>
      <trkpt lat="43.74524" lon="6.66707">
        <ele>1492.3</ele>
        <time>2024-05-26T10:27:41Z</time>
      </trkpt>
      <trkpt lat="43.74524" lon="6.66706">
        <ele>1492.2</ele>
        <time>2024-05-26T10:27:42Z</time>
      </trkpt>
      <trkpt lat="43.74524" lon="6.66706">
        <ele>1492.2</ele>
        <time>2024-05-26T10:27:43Z</time>
      </trkpt>
      <trkpt lat="43.74524" lon="6.66706">
        <ele>1492.1</ele>
        <time>2024-05-26T10:27:44Z</time>
      </trkpt>
      <trkpt lat="43.74524" lon="6.66706">
        <ele>1492.1</ele>
        <time>2024-05-26T10:27:45Z</time>
      </trkpt>
      <trkpt lat="43.74524" lon="6.66706">
        <ele>1492</ele>
        <time>2024-05-26T10:27:46Z</time>
      </trkpt>
      <trkpt lat="43.74524" lon="6.66706">
        <ele>1491.9</ele>
        <time>2024-05-26T10:27:47Z</time>
      </trkpt>
      <trkpt lat="43.74523" lon="6.66705">
        <ele>1491.8</ele>
        <time>2024-05-26T10:27:48Z</time>
      </trkpt>
      <trkpt lat="43.74523" lon="6.66705">
        <ele>1491.8</ele>
        <time>2024-05-26T10:27:49Z</time>
      </trkpt>
      <trkpt lat="43.74523" lon="6.66705">
        <ele>1491.7</ele>
        <time>2024-05-26T10:27:50Z</time>
      </trkpt>
      <trkpt lat="43.74523" lon="6.66705">
        <ele>1491.6</ele>
        <time>2024-05-26T10:27:51Z</time>
      </trkpt>
      <trkpt lat="43.74522" lon="6.66704">
        <ele>1491.6</ele>
        <time>2024-05-26T10:27:52Z</time>
      </trkpt>
      <trkpt lat="43.74522" lon="6.66704">
        <ele>1491.5</ele>
        <time>2024-05-26T10:27:53Z</time>
      </trkpt>
      <trkpt lat="43.74522" lon="6.66704">
        <ele>1491.5</ele>
        <time>2024-05-26T10:27:54Z</time>
      </trkpt>
      <trkpt lat="43.74522" lon="6.66704">
        <ele>1491.5</ele>
        <time>2024-05-26T10:27:55Z</time>
      </trkpt>
      <trkpt lat="43.74522" lon="6.66703">
        <ele>1491.6</ele>
        <time>2024-05-26T10:27:56Z</time>
      </trkpt>
      <trkpt lat="43.74521" lon="6.66702">
        <ele>1491.5</ele>
        <time>2024-05-26T10:27:57Z</time>
      </trkpt>
      <trkpt lat="43.74521" lon="6.66702">
        <ele>1491.5</ele>
        <time>2024-05-26T10:27:58Z</time>
      </trkpt>
      <trkpt lat="43.7452" lon="6.66701">
        <ele>1491.4</ele>
        <time>2024-05-26T10:27:59Z</time>
      </trkpt>
      <trkpt lat="43.7452" lon="6.66701">
        <ele>1491.3</ele>
        <time>2024-05-26T10:28:00Z</time>
      </trkpt>
      <trkpt lat="43.7452" lon="6.667">
        <ele>1491.1</ele>
        <time>2024-05-26T10:28:01Z</time>
      </trkpt>
      <trkpt lat="43.7452" lon="6.66699">
        <ele>1490.8</ele>
        <time>2024-05-26T10:28:02Z</time>
      </trkpt>
      <trkpt lat="43.7452" lon="6.66698">
        <ele>1490.7</ele>
        <time>2024-05-26T10:28:03Z</time>
      </trkpt>
      <trkpt lat="43.74519" lon="6.66697">
        <ele>1490.6</ele>
        <time>2024-05-26T10:28:04Z</time>
      </trkpt>
      <trkpt lat="43.74519" lon="6.66697">
        <ele>1490.4</ele>
        <time>2024-05-26T10:28:05Z</time>
      </trkpt>
      <trkpt lat="43.74518" lon="6.66696">
        <ele>1490.2</ele>
        <time>2024-05-26T10:28:06Z</time>
      </trkpt>
      <trkpt lat="43.74518" lon="6.66695">
        <ele>1490</ele>
        <time>2024-05-26T10:28:07Z</time>
      </trkpt>
      <trkpt lat="43.74518" lon="6.66694">
        <ele>1489.8</ele>
        <time>2024-05-26T10:28:08Z</time>
      </trkpt>
      <trkpt lat="43.74518" lon="6.66693">
        <ele>1489.7</ele>
        <time>2024-05-26T10:28:09Z</time>
      </trkpt>
      <trkpt lat="43.74517" lon="6.66692">
        <ele>1489.6</ele>
        <time>2024-05-26T10:28:10Z</time>
      </trkpt>
      <trkpt lat="43.74517" lon="6.66691">
        <ele>1489.5</ele>
        <time>2024-05-26T10:28:11Z</time>
      </trkpt>
      <trkpt lat="43.74516" lon="6.66691">
        <ele>1489.3</ele>
        <time>2024-05-26T10:28:12Z</time>
      </trkpt>
      <trkpt lat="43.74515" lon="6.6669">
        <ele>1489.1</ele>
        <time>2024-05-26T10:28:13Z</time>
      </trkpt>
      <trkpt lat="43.74515" lon="6.6669">
        <ele>1489</ele>
        <time>2024-05-26T10:28:14Z</time>
      </trkpt>
      <trkpt lat="43.74515" lon="6.66689">
        <ele>1488.9</ele>
        <time>2024-05-26T10:28:15Z</time>
      </trkpt>
      <trkpt lat="43.74515" lon="6.66688">
        <ele>1488.8</ele>
        <time>2024-05-26T10:28:16Z</time>
      </trkpt>
      <trkpt lat="43.74515" lon="6.66688">
        <ele>1488.7</ele>
        <time>2024-05-26T10:28:17Z</time>
      </trkpt>
      <trkpt lat="43.74515" lon="6.66687">
        <ele>1488.7</ele>
        <time>2024-05-26T10:28:18Z</time>
      </trkpt>
      <trkpt lat="43.74514" lon="6.66685">
        <ele>1488.7</ele>
        <time>2024-05-26T10:28:19Z</time>
      </trkpt>
      <trkpt lat="43.74514" lon="6.66684">
        <ele>1488.6</ele>
        <time>2024-05-26T10:28:20Z</time>
      </trkpt>
      <trkpt lat="43.74514" lon="6.66683">
        <ele>1488.5</ele>
        <time>2024-05-26T10:28:21Z</time>
      </trkpt>
      <trkpt lat="43.74514" lon="6.66682">
        <ele>1488.3</ele>
        <time>2024-05-26T10:28:22Z</time>
      </trkpt>
      <trkpt lat="43.74514" lon="6.66681">
        <ele>1488.2</ele>
        <time>2024-05-26T10:28:23Z</time>
      </trkpt>
      <trkpt lat="43.74514" lon="6.6668">
        <ele>1488.1</ele>
        <time>2024-05-26T10:28:24Z</time>
      </trkpt>
      <trkpt lat="43.74514" lon="6.66678">
        <ele>1488</ele>
        <time>2024-05-26T10:28:25Z</time>
      </trkpt>
      <trkpt lat="43.74514" lon="6.66677">
        <ele>1487.8</ele>
        <time>2024-05-26T10:28:26Z</time>
      </trkpt>
      <trkpt lat="43.74514" lon="6.66676">
        <ele>1487.6</ele>
        <time>2024-05-26T10:28:27Z</time>
      </trkpt>
      <trkpt lat="43.74514" lon="6.66674">
        <ele>1487.6</ele>
        <time>2024-05-26T10:28:28Z</time>
      </trkpt>
      <trkpt lat="43.74513" lon="6.66673">
        <ele>1487.4</ele>
        <time>2024-05-26T10:28:29Z</time>
      </trkpt>
      <trkpt lat="43.74513" lon="6.66672">
        <ele>1487.3</ele>
        <time>2024-05-26T10:28:30Z</time>
      </trkpt>
      <trkpt lat="43.74512" lon="6.66671">
        <ele>1487.2</ele>
        <time>2024-05-26T10:28:31Z</time>
      </trkpt>
      <trkpt lat="43.74512" lon="6.6667">
        <ele>1487</ele>
        <time>2024-05-26T10:28:32Z</time>
      </trkpt>
      <trkpt lat="43.74511" lon="6.66668">
        <ele>1486.8</ele>
        <time>2024-05-26T10:28:33Z</time>
      </trkpt>
      <trkpt lat="43.74511" lon="6.66667">
        <ele>1486.5</ele>
        <time>2024-05-26T10:28:34Z</time>
      </trkpt>
      <trkpt lat="43.7451" lon="6.66666">
        <ele>1486.4</ele>
        <time>2024-05-26T10:28:35Z</time>
      </trkpt>
      <trkpt lat="43.7451" lon="6.66665">
        <ele>1486.3</ele>
        <time>2024-05-26T10:28:36Z</time>
      </trkpt>
      <trkpt lat="43.7451" lon="6.66664">
        <ele>1486.2</ele>
        <time>2024-05-26T10:28:37Z</time>
      </trkpt>
      <trkpt lat="43.74509" lon="6.66662">
        <ele>1486</ele>
        <time>2024-05-26T10:28:38Z</time>
      </trkpt>
      <trkpt lat="43.74509" lon="6.66661">
        <ele>1485.8</ele>
        <time>2024-05-26T10:28:39Z</time>
      </trkpt>
      <trkpt lat="43.74508" lon="6.6666">
        <ele>1485.8</ele>
        <time>2024-05-26T10:28:40Z</time>
      </trkpt>
      <trkpt lat="43.74507" lon="6.66659">
        <ele>1485.7</ele>
        <time>2024-05-26T10:28:41Z</time>
      </trkpt>
      <trkpt lat="43.74507" lon="6.66657">
        <ele>1485.6</ele>
        <time>2024-05-26T10:28:42Z</time>
      </trkpt>
      <trkpt lat="43.74507" lon="6.66656">
        <ele>1485.4</ele>
        <time>2024-05-26T10:28:43Z</time>
      </trkpt>
      <trkpt lat="43.74506" lon="6.66655">
        <ele>1485.2</ele>
        <time>2024-05-26T10:28:44Z</time>
      </trkpt>
      <trkpt lat="43.74506" lon="6.66653">
        <ele>1485.1</ele>
        <time>2024-05-26T10:28:45Z</time>
      </trkpt>
      <trkpt lat="43.74505" lon="6.66652">
        <ele>1484.9</ele>
        <time>2024-05-26T10:28:46Z</time>
      </trkpt>
      <trkpt lat="43.74504" lon="6.66651">
        <ele>1484.9</ele>
        <time>2024-05-26T10:28:47Z</time>
      </trkpt>
      <trkpt lat="43.74504" lon="6.6665">
        <ele>1484.9</ele>
        <time>2024-05-26T10:28:48Z</time>
      </trkpt>
      <trkpt lat="43.74503" lon="6.66649">
        <ele>1484.8</ele>
        <time>2024-05-26T10:28:49Z</time>
      </trkpt>
      <trkpt lat="43.74502" lon="6.66648">
        <ele>1484.7</ele>
        <time>2024-05-26T10:28:50Z</time>
      </trkpt>
      <trkpt lat="43.74502" lon="6.66647">
        <ele>1484.6</ele>
        <time>2024-05-26T10:28:51Z</time>
      </trkpt>
      <trkpt lat="43.74502" lon="6.66646">
        <ele>1484.5</ele>
        <time>2024-05-26T10:28:52Z</time>
      </trkpt>
      <trkpt lat="43.74501" lon="6.66645">
        <ele>1484.4</ele>
        <time>2024-05-26T10:28:53Z</time>
      </trkpt>
      <trkpt lat="43.74501" lon="6.66644">
        <ele>1484.3</ele>
        <time>2024-05-26T10:28:54Z</time>
      </trkpt>
      <trkpt lat="43.74501" lon="6.66643">
        <ele>1484.2</ele>
        <time>2024-05-26T10:28:55Z</time>
      </trkpt>
      <trkpt lat="43.74501" lon="6.66641">
        <ele>1484.1</ele>
        <time>2024-05-26T10:28:56Z</time>
      </trkpt>
      <trkpt lat="43.74501" lon="6.6664">
        <ele>1484</ele>
        <time>2024-05-26T10:28:57Z</time>
      </trkpt>
      <trkpt lat="43.74501" lon="6.66639">
        <ele>1483.8</ele>
        <time>2024-05-26T10:28:58Z</time>
      </trkpt>
      <trkpt lat="43.745" lon="6.66638">
        <ele>1483.7</ele>
        <time>2024-05-26T10:28:59Z</time>
      </trkpt>
      <trkpt lat="43.74499" lon="6.66637">
        <ele>1483.6</ele>
        <time>2024-05-26T10:29:00Z</time>
      </trkpt>
      <trkpt lat="43.74497" lon="6.66635">
        <ele>1483.4</ele>
        <time>2024-05-26T10:29:01Z</time>
      </trkpt>
      <trkpt lat="43.74496" lon="6.66634">
        <ele>1483.3</ele>
        <time>2024-05-26T10:29:02Z</time>
      </trkpt>
      <trkpt lat="43.74495" lon="6.66633">
        <ele>1483.2</ele>
        <time>2024-05-26T10:29:03Z</time>
      </trkpt>
      <trkpt lat="43.74494" lon="6.66632">
        <ele>1483.1</ele>
        <time>2024-05-26T10:29:04Z</time>
      </trkpt>
      <trkpt lat="43.74494" lon="6.66631">
        <ele>1483</ele>
        <time>2024-05-26T10:29:05Z</time>
      </trkpt>
      <trkpt lat="43.74493" lon="6.6663">
        <ele>1482.9</ele>
        <time>2024-05-26T10:29:06Z</time>
      </trkpt>
      <trkpt lat="43.74491" lon="6.66629">
        <ele>1482.8</ele>
        <time>2024-05-26T10:29:07Z</time>
      </trkpt>
      <trkpt lat="43.7449" lon="6.66628">
        <ele>1482.7</ele>
        <time>2024-05-26T10:29:08Z</time>
      </trkpt>
      <trkpt lat="43.7449" lon="6.66627">
        <ele>1482.5</ele>
        <time>2024-05-26T10:29:09Z</time>
      </trkpt>
      <trkpt lat="43.74489" lon="6.66626">
        <ele>1482.3</ele>
        <time>2024-05-26T10:29:10Z</time>
      </trkpt>
      <trkpt lat="43.74487" lon="6.66625">
        <ele>1482.2</ele>
        <time>2024-05-26T10:29:11Z</time>
      </trkpt>
      <trkpt lat="43.74486" lon="6.66624">
        <ele>1482.1</ele>
        <time>2024-05-26T10:29:12Z</time>
      </trkpt>
      <trkpt lat="43.74485" lon="6.66622">
        <ele>1482.1</ele>
        <time>2024-05-26T10:29:13Z</time>
      </trkpt>
      <trkpt lat="43.74484" lon="6.66621">
        <ele>1482</ele>
        <time>2024-05-26T10:29:14Z</time>
      </trkpt>
      <trkpt lat="43.74483" lon="6.6662">
        <ele>1482</ele>
        <time>2024-05-26T10:29:15Z</time>
      </trkpt>
      <trkpt lat="43.74482" lon="6.66619">
        <ele>1481.8</ele>
        <time>2024-05-26T10:29:16Z</time>
      </trkpt>
      <trkpt lat="43.74481" lon="6.66618">
        <ele>1481.6</ele>
        <time>2024-05-26T10:29:17Z</time>
      </trkpt>
      <trkpt lat="43.7448" lon="6.66617">
        <ele>1481.5</ele>
        <time>2024-05-26T10:29:18Z</time>
      </trkpt>
      <trkpt lat="43.74479" lon="6.66616">
        <ele>1481.5</ele>
        <time>2024-05-26T10:29:19Z</time>
      </trkpt>
      <trkpt lat="43.74478" lon="6.66615">
        <ele>1481.4</ele>
        <time>2024-05-26T10:29:20Z</time>
      </trkpt>
      <trkpt lat="43.74478" lon="6.66614">
        <ele>1481.3</ele>
        <time>2024-05-26T10:29:21Z</time>
      </trkpt>
      <trkpt lat="43.74477" lon="6.66613">
        <ele>1481.1</ele>
        <time>2024-05-26T10:29:22Z</time>
      </trkpt>
      <trkpt lat="43.74476" lon="6.66611">
        <ele>1481.1</ele>
        <time>2024-05-26T10:29:23Z</time>
      </trkpt>
      <trkpt lat="43.74475" lon="6.66611">
        <ele>1481</ele>
        <time>2024-05-26T10:29:24Z</time>
      </trkpt>
      <trkpt lat="43.74473" lon="6.6661">
        <ele>1480.8</ele>
        <time>2024-05-26T10:29:25Z</time>
      </trkpt>
      <trkpt lat="43.74473" lon="6.66609">
        <ele>1480.7</ele>
        <time>2024-05-26T10:29:26Z</time>
      </trkpt>
      <trkpt lat="43.74472" lon="6.66609">
        <ele>1480.5</ele>
        <time>2024-05-26T10:29:27Z</time>
      </trkpt>
      <trkpt lat="43.74471" lon="6.66608">
        <ele>1480.4</ele>
        <time>2024-05-26T10:29:28Z</time>
      </trkpt>
      <trkpt lat="43.7447" lon="6.66608">
        <ele>1480.4</ele>
        <time>2024-05-26T10:29:29Z</time>
      </trkpt>
      <trkpt lat="43.7447" lon="6.66607">
        <ele>1480.1</ele>
        <time>2024-05-26T10:29:30Z</time>
      </trkpt>
      <trkpt lat="43.74469" lon="6.66606">
        <ele>1480.1</ele>
        <time>2024-05-26T10:29:31Z</time>
      </trkpt>
      <trkpt lat="43.74469" lon="6.66605">
        <ele>1479.9</ele>
        <time>2024-05-26T10:29:32Z</time>
      </trkpt>
      <trkpt lat="43.74468" lon="6.66604">
        <ele>1479.9</ele>
        <time>2024-05-26T10:29:33Z</time>
      </trkpt>
      <trkpt lat="43.74468" lon="6.66603">
        <ele>1479.8</ele>
        <time>2024-05-26T10:29:34Z</time>
      </trkpt>
      <trkpt lat="43.74467" lon="6.66602">
        <ele>1479.6</ele>
        <time>2024-05-26T10:29:35Z</time>
      </trkpt>
      <trkpt lat="43.74466" lon="6.66602">
        <ele>1479.5</ele>
        <time>2024-05-26T10:29:36Z</time>
      </trkpt>
      <trkpt lat="43.74465" lon="6.66601">
        <ele>1479.4</ele>
        <time>2024-05-26T10:29:37Z</time>
      </trkpt>
      <trkpt lat="43.74464" lon="6.666">
        <ele>1479.2</ele>
        <time>2024-05-26T10:29:38Z</time>
      </trkpt>
      <trkpt lat="43.74463" lon="6.66599">
        <ele>1479.2</ele>
        <time>2024-05-26T10:29:39Z</time>
      </trkpt>
      <trkpt lat="43.74462" lon="6.66598">
        <ele>1479.2</ele>
        <time>2024-05-26T10:29:40Z</time>
      </trkpt>
      <trkpt lat="43.74461" lon="6.66597">
        <ele>1479</ele>
        <time>2024-05-26T10:29:41Z</time>
      </trkpt>
      <trkpt lat="43.7446" lon="6.66596">
        <ele>1478.8</ele>
        <time>2024-05-26T10:29:42Z</time>
      </trkpt>
      <trkpt lat="43.74458" lon="6.66595">
        <ele>1478.7</ele>
        <time>2024-05-26T10:29:43Z</time>
      </trkpt>
      <trkpt lat="43.74457" lon="6.66595">
        <ele>1478.5</ele>
        <time>2024-05-26T10:29:44Z</time>
      </trkpt>
      <trkpt lat="43.74456" lon="6.66594">
        <ele>1478.4</ele>
        <time>2024-05-26T10:29:45Z</time>
      </trkpt>
      <trkpt lat="43.74454" lon="6.66594">
        <ele>1478.2</ele>
        <time>2024-05-26T10:29:46Z</time>
      </trkpt>
      <trkpt lat="43.74453" lon="6.66594">
        <ele>1478.1</ele>
        <time>2024-05-26T10:29:47Z</time>
      </trkpt>
      <trkpt lat="43.74452" lon="6.66594">
        <ele>1477.9</ele>
        <time>2024-05-26T10:29:48Z</time>
      </trkpt>
      <trkpt lat="43.74451" lon="6.66593">
        <ele>1477.9</ele>
        <time>2024-05-26T10:29:49Z</time>
      </trkpt>
      <trkpt lat="43.7445" lon="6.66592">
        <ele>1477.7</ele>
        <time>2024-05-26T10:29:50Z</time>
      </trkpt>
      <trkpt lat="43.74449" lon="6.66591">
        <ele>1477.5</ele>
        <time>2024-05-26T10:29:51Z</time>
      </trkpt>
      <trkpt lat="43.74448" lon="6.6659">
        <ele>1477.3</ele>
        <time>2024-05-26T10:29:52Z</time>
      </trkpt>
      <trkpt lat="43.74447" lon="6.6659">
        <ele>1477.2</ele>
        <time>2024-05-26T10:29:53Z</time>
      </trkpt>
      <trkpt lat="43.74446" lon="6.6659">
        <ele>1477.1</ele>
        <time>2024-05-26T10:29:54Z</time>
      </trkpt>
      <trkpt lat="43.74445" lon="6.6659">
        <ele>1477</ele>
        <time>2024-05-26T10:29:55Z</time>
      </trkpt>
      <trkpt lat="43.74444" lon="6.6659">
        <ele>1476.8</ele>
        <time>2024-05-26T10:29:56Z</time>
      </trkpt>
      <trkpt lat="43.74443" lon="6.6659">
        <ele>1476.7</ele>
        <time>2024-05-26T10:29:57Z</time>
      </trkpt>
      <trkpt lat="43.74443" lon="6.6659">
        <ele>1476.5</ele>
        <time>2024-05-26T10:29:58Z</time>
      </trkpt>
      <trkpt lat="43.74441" lon="6.66589">
        <ele>1476.4</ele>
        <time>2024-05-26T10:29:59Z</time>
      </trkpt>
      <trkpt lat="43.7444" lon="6.66589">
        <ele>1476.2</ele>
        <time>2024-05-26T10:30:00Z</time>
      </trkpt>
      <trkpt lat="43.7444" lon="6.66589">
        <ele>1476</ele>
        <time>2024-05-26T10:30:01Z</time>
      </trkpt>
      <trkpt lat="43.74438" lon="6.66589">
        <ele>1475.7</ele>
        <time>2024-05-26T10:30:02Z</time>
      </trkpt>
      <trkpt lat="43.74438" lon="6.66589">
        <ele>1475.5</ele>
        <time>2024-05-26T10:30:03Z</time>
      </trkpt>
      <trkpt lat="43.74437" lon="6.66589">
        <ele>1475.3</ele>
        <time>2024-05-26T10:30:04Z</time>
      </trkpt>
      <trkpt lat="43.74436" lon="6.66589">
        <ele>1475.2</ele>
        <time>2024-05-26T10:30:05Z</time>
      </trkpt>
      <trkpt lat="43.74435" lon="6.66588">
        <ele>1474.9</ele>
        <time>2024-05-26T10:30:06Z</time>
      </trkpt>
      <trkpt lat="43.74434" lon="6.66588">
        <ele>1474.8</ele>
        <time>2024-05-26T10:30:07Z</time>
      </trkpt>
      <trkpt lat="43.74433" lon="6.66588">
        <ele>1474.6</ele>
        <time>2024-05-26T10:30:08Z</time>
      </trkpt>
      <trkpt lat="43.74432" lon="6.66588">
        <ele>1474.4</ele>
        <time>2024-05-26T10:30:09Z</time>
      </trkpt>
      <trkpt lat="43.74431" lon="6.66588">
        <ele>1474.2</ele>
        <time>2024-05-26T10:30:10Z</time>
      </trkpt>
      <trkpt lat="43.74431" lon="6.66587">
        <ele>1474.1</ele>
        <time>2024-05-26T10:30:11Z</time>
      </trkpt>
      <trkpt lat="43.7443" lon="6.66586">
        <ele>1473.9</ele>
        <time>2024-05-26T10:30:12Z</time>
      </trkpt>
      <trkpt lat="43.74429" lon="6.66586">
        <ele>1473.7</ele>
        <time>2024-05-26T10:30:13Z</time>
      </trkpt>
      <trkpt lat="43.74428" lon="6.66586">
        <ele>1473.5</ele>
        <time>2024-05-26T10:30:14Z</time>
      </trkpt>
      <trkpt lat="43.74428" lon="6.66585">
        <ele>1473.3</ele>
        <time>2024-05-26T10:30:15Z</time>
      </trkpt>
      <trkpt lat="43.74427" lon="6.66585">
        <ele>1473.1</ele>
        <time>2024-05-26T10:30:16Z</time>
      </trkpt>
      <trkpt lat="43.74426" lon="6.66585">
        <ele>1473</ele>
        <time>2024-05-26T10:30:17Z</time>
      </trkpt>
      <trkpt lat="43.74425" lon="6.66586">
        <ele>1472.7</ele>
        <time>2024-05-26T10:30:18Z</time>
      </trkpt>
      <trkpt lat="43.74424" lon="6.66586">
        <ele>1472.5</ele>
        <time>2024-05-26T10:30:19Z</time>
      </trkpt>
      <trkpt lat="43.74423" lon="6.66585">
        <ele>1472.3</ele>
        <time>2024-05-26T10:30:20Z</time>
      </trkpt>
      <trkpt lat="43.74422" lon="6.66585">
        <ele>1472.1</ele>
        <time>2024-05-26T10:30:21Z</time>
      </trkpt>
      <trkpt lat="43.74421" lon="6.66584">
        <ele>1472</ele>
        <time>2024-05-26T10:30:22Z</time>
      </trkpt>
      <trkpt lat="43.7442" lon="6.66583">
        <ele>1471.9</ele>
        <time>2024-05-26T10:30:23Z</time>
      </trkpt>
      <trkpt lat="43.74419" lon="6.66583">
        <ele>1471.7</ele>
        <time>2024-05-26T10:30:24Z</time>
      </trkpt>
      <trkpt lat="43.74418" lon="6.66582">
        <ele>1471.5</ele>
        <time>2024-05-26T10:30:25Z</time>
      </trkpt>
      <trkpt lat="43.74417" lon="6.66582">
        <ele>1471.4</ele>
        <time>2024-05-26T10:30:26Z</time>
      </trkpt>
      <trkpt lat="43.74416" lon="6.66582">
        <ele>1471.3</ele>
        <time>2024-05-26T10:30:27Z</time>
      </trkpt>
      <trkpt lat="43.74415" lon="6.66581">
        <ele>1471.1</ele>
        <time>2024-05-26T10:30:28Z</time>
      </trkpt>
      <trkpt lat="43.74414" lon="6.66581">
        <ele>1471</ele>
        <time>2024-05-26T10:30:29Z</time>
      </trkpt>
      <trkpt lat="43.74413" lon="6.6658">
        <ele>1470.9</ele>
        <time>2024-05-26T10:30:30Z</time>
      </trkpt>
      <trkpt lat="43.74412" lon="6.66579">
        <ele>1470.8</ele>
        <time>2024-05-26T10:30:31Z</time>
      </trkpt>
      <trkpt lat="43.74411" lon="6.66579">
        <ele>1470.7</ele>
        <time>2024-05-26T10:30:32Z</time>
      </trkpt>
      <trkpt lat="43.7441" lon="6.66579">
        <ele>1470.5</ele>
        <time>2024-05-26T10:30:33Z</time>
      </trkpt>
      <trkpt lat="43.74409" lon="6.66577">
        <ele>1470.4</ele>
        <time>2024-05-26T10:30:34Z</time>
      </trkpt>
      <trkpt lat="43.74409" lon="6.66577">
        <ele>1470.2</ele>
        <time>2024-05-26T10:30:35Z</time>
      </trkpt>
      <trkpt lat="43.74408" lon="6.66576">
        <ele>1470</ele>
        <time>2024-05-26T10:30:36Z</time>
      </trkpt>
      <trkpt lat="43.74407" lon="6.66575">
        <ele>1470</ele>
        <time>2024-05-26T10:30:37Z</time>
      </trkpt>
      <trkpt lat="43.74406" lon="6.66575">
        <ele>1469.8</ele>
        <time>2024-05-26T10:30:38Z</time>
      </trkpt>
      <trkpt lat="43.74405" lon="6.66574">
        <ele>1469.7</ele>
        <time>2024-05-26T10:30:39Z</time>
      </trkpt>
      <trkpt lat="43.74404" lon="6.66573">
        <ele>1469.6</ele>
        <time>2024-05-26T10:30:40Z</time>
      </trkpt>
      <trkpt lat="43.74403" lon="6.66573">
        <ele>1469.5</ele>
        <time>2024-05-26T10:30:41Z</time>
      </trkpt>
      <trkpt lat="43.74402" lon="6.66573">
        <ele>1469.4</ele>
        <time>2024-05-26T10:30:42Z</time>
      </trkpt>
      <trkpt lat="43.74401" lon="6.66573">
        <ele>1469.2</ele>
        <time>2024-05-26T10:30:43Z</time>
      </trkpt>
      <trkpt lat="43.744" lon="6.66572">
        <ele>1469</ele>
        <time>2024-05-26T10:30:44Z</time>
      </trkpt>
      <trkpt lat="43.744" lon="6.6657">
        <ele>1468.9</ele>
        <time>2024-05-26T10:30:45Z</time>
      </trkpt>
      <trkpt lat="43.74399" lon="6.66569">
        <ele>1468.8</ele>
        <time>2024-05-26T10:30:46Z</time>
      </trkpt>
      <trkpt lat="43.74398" lon="6.66568">
        <ele>1468.7</ele>
        <time>2024-05-26T10:30:47Z</time>
      </trkpt>
      <trkpt lat="43.74397" lon="6.66567">
        <ele>1468.7</ele>
        <time>2024-05-26T10:30:48Z</time>
      </trkpt>
      <trkpt lat="43.74395" lon="6.66566">
        <ele>1468.6</ele>
        <time>2024-05-26T10:30:49Z</time>
      </trkpt>
      <trkpt lat="43.74394" lon="6.66565">
        <ele>1468.5</ele>
        <time>2024-05-26T10:30:50Z</time>
      </trkpt>
      <trkpt lat="43.74393" lon="6.66564">
        <ele>1468.3</ele>
        <time>2024-05-26T10:30:51Z</time>
      </trkpt>
      <trkpt lat="43.74392" lon="6.66564">
        <ele>1468.2</ele>
        <time>2024-05-26T10:30:52Z</time>
      </trkpt>
      <trkpt lat="43.74392" lon="6.66563">
        <ele>1468.1</ele>
        <time>2024-05-26T10:30:53Z</time>
      </trkpt>
      <trkpt lat="43.74391" lon="6.66562">
        <ele>1468</ele>
        <time>2024-05-26T10:30:54Z</time>
      </trkpt>
      <trkpt lat="43.7439" lon="6.66561">
        <ele>1467.9</ele>
        <time>2024-05-26T10:30:55Z</time>
      </trkpt>
      <trkpt lat="43.74388" lon="6.66559">
        <ele>1467.8</ele>
        <time>2024-05-26T10:30:56Z</time>
      </trkpt>
      <trkpt lat="43.74387" lon="6.66559">
        <ele>1467.6</ele>
        <time>2024-05-26T10:30:57Z</time>
      </trkpt>
      <trkpt lat="43.74386" lon="6.66558">
        <ele>1467.5</ele>
        <time>2024-05-26T10:30:58Z</time>
      </trkpt>
      <trkpt lat="43.74385" lon="6.66558">
        <ele>1467.4</ele>
        <time>2024-05-26T10:30:59Z</time>
      </trkpt>
      <trkpt lat="43.74384" lon="6.66557">
        <ele>1467.3</ele>
        <time>2024-05-26T10:31:00Z</time>
      </trkpt>
      <trkpt lat="43.74382" lon="6.66556">
        <ele>1467.2</ele>
        <time>2024-05-26T10:31:01Z</time>
      </trkpt>
      <trkpt lat="43.74381" lon="6.66555">
        <ele>1466.9</ele>
        <time>2024-05-26T10:31:02Z</time>
      </trkpt>
      <trkpt lat="43.7438" lon="6.66555">
        <ele>1466.8</ele>
        <time>2024-05-26T10:31:03Z</time>
      </trkpt>
      <trkpt lat="43.74379" lon="6.66554">
        <ele>1466.7</ele>
        <time>2024-05-26T10:31:04Z</time>
      </trkpt>
      <trkpt lat="43.74378" lon="6.66553">
        <ele>1466.6</ele>
        <time>2024-05-26T10:31:05Z</time>
      </trkpt>
      <trkpt lat="43.74376" lon="6.66553">
        <ele>1466.5</ele>
        <time>2024-05-26T10:31:06Z</time>
      </trkpt>
      <trkpt lat="43.74375" lon="6.66553">
        <ele>1466.4</ele>
        <time>2024-05-26T10:31:07Z</time>
      </trkpt>
      <trkpt lat="43.74374" lon="6.66553">
        <ele>1466.2</ele>
        <time>2024-05-26T10:31:08Z</time>
      </trkpt>
      <trkpt lat="43.74373" lon="6.66552">
        <ele>1466.1</ele>
        <time>2024-05-26T10:31:09Z</time>
      </trkpt>
      <trkpt lat="43.74372" lon="6.66552">
        <ele>1466</ele>
        <time>2024-05-26T10:31:10Z</time>
      </trkpt>
      <trkpt lat="43.74371" lon="6.66552">
        <ele>1465.9</ele>
        <time>2024-05-26T10:31:11Z</time>
      </trkpt>
      <trkpt lat="43.74371" lon="6.66551">
        <ele>1465.8</ele>
        <time>2024-05-26T10:31:12Z</time>
      </trkpt>
      <trkpt lat="43.74369" lon="6.6655">
        <ele>1465.7</ele>
        <time>2024-05-26T10:31:13Z</time>
      </trkpt>
      <trkpt lat="43.74368" lon="6.66549">
        <ele>1465.5</ele>
        <time>2024-05-26T10:31:14Z</time>
      </trkpt>
      <trkpt lat="43.74367" lon="6.66549">
        <ele>1465.3</ele>
        <time>2024-05-26T10:31:15Z</time>
      </trkpt>
      <trkpt lat="43.74367" lon="6.66549">
        <ele>1465.1</ele>
        <time>2024-05-26T10:31:16Z</time>
      </trkpt>
      <trkpt lat="43.74366" lon="6.66549">
        <ele>1464.9</ele>
        <time>2024-05-26T10:31:17Z</time>
      </trkpt>
      <trkpt lat="43.74365" lon="6.66548">
        <ele>1464.7</ele>
        <time>2024-05-26T10:31:18Z</time>
      </trkpt>
      <trkpt lat="43.74364" lon="6.66547">
        <ele>1464.6</ele>
        <time>2024-05-26T10:31:19Z</time>
      </trkpt>
      <trkpt lat="43.74363" lon="6.66547">
        <ele>1464.5</ele>
        <time>2024-05-26T10:31:20Z</time>
      </trkpt>
      <trkpt lat="43.74362" lon="6.66547">
        <ele>1464.2</ele>
        <time>2024-05-26T10:31:21Z</time>
      </trkpt>
      <trkpt lat="43.7436" lon="6.66546">
        <ele>1464</ele>
        <time>2024-05-26T10:31:22Z</time>
      </trkpt>
      <trkpt lat="43.74359" lon="6.66545">
        <ele>1463.8</ele>
        <time>2024-05-26T10:31:23Z</time>
      </trkpt>
      <trkpt lat="43.74358" lon="6.66545">
        <ele>1463.7</ele>
        <time>2024-05-26T10:31:24Z</time>
      </trkpt>
      <trkpt lat="43.74358" lon="6.66544">
        <ele>1463.6</ele>
        <time>2024-05-26T10:31:25Z</time>
      </trkpt>
      <trkpt lat="43.74357" lon="6.66543">
        <ele>1463.4</ele>
        <time>2024-05-26T10:31:26Z</time>
      </trkpt>
      <trkpt lat="43.74356" lon="6.66543">
        <ele>1463.3</ele>
        <time>2024-05-26T10:31:27Z</time>
      </trkpt>
      <trkpt lat="43.74355" lon="6.66542">
        <ele>1463.1</ele>
        <time>2024-05-26T10:31:28Z</time>
      </trkpt>
      <trkpt lat="43.74354" lon="6.66541">
        <ele>1463</ele>
        <time>2024-05-26T10:31:29Z</time>
      </trkpt>
      <trkpt lat="43.74354" lon="6.66541">
        <ele>1462.9</ele>
        <time>2024-05-26T10:31:30Z</time>
      </trkpt>
      <trkpt lat="43.74353" lon="6.66539">
        <ele>1462.8</ele>
        <time>2024-05-26T10:31:31Z</time>
      </trkpt>
      <trkpt lat="43.74352" lon="6.66538">
        <ele>1462.6</ele>
        <time>2024-05-26T10:31:32Z</time>
      </trkpt>
      <trkpt lat="43.74351" lon="6.66538">
        <ele>1462.4</ele>
        <time>2024-05-26T10:31:33Z</time>
      </trkpt>
      <trkpt lat="43.7435" lon="6.66537">
        <ele>1462.1</ele>
        <time>2024-05-26T10:31:34Z</time>
      </trkpt>
      <trkpt lat="43.74348" lon="6.66536">
        <ele>1462</ele>
        <time>2024-05-26T10:31:35Z</time>
      </trkpt>
      <trkpt lat="43.74348" lon="6.66535">
        <ele>1461.8</ele>
        <time>2024-05-26T10:31:36Z</time>
      </trkpt>
      <trkpt lat="43.74347" lon="6.66534">
        <ele>1461.7</ele>
        <time>2024-05-26T10:31:37Z</time>
      </trkpt>
      <trkpt lat="43.74346" lon="6.66534">
        <ele>1461.5</ele>
        <time>2024-05-26T10:31:38Z</time>
      </trkpt>
      <trkpt lat="43.74346" lon="6.66534">
        <ele>1461.4</ele>
        <time>2024-05-26T10:31:39Z</time>
      </trkpt>
      <trkpt lat="43.74346" lon="6.66534">
        <ele>1461.1</ele>
        <time>2024-05-26T10:31:40Z</time>
      </trkpt>
      <trkpt lat="43.74345" lon="6.66533">
        <ele>1461</ele>
        <time>2024-05-26T10:31:41Z</time>
      </trkpt>
      <trkpt lat="43.74344" lon="6.66532">
        <ele>1460.8</ele>
        <time>2024-05-26T10:31:42Z</time>
      </trkpt>
      <trkpt lat="43.74343" lon="6.6653">
        <ele>1460.6</ele>
        <time>2024-05-26T10:31:43Z</time>
      </trkpt>
      <trkpt lat="43.74342" lon="6.66529">
        <ele>1460.5</ele>
        <time>2024-05-26T10:31:44Z</time>
      </trkpt>
      <trkpt lat="43.74341" lon="6.66529">
        <ele>1460.3</ele>
        <time>2024-05-26T10:31:45Z</time>
      </trkpt>
      <trkpt lat="43.74341" lon="6.66529">
        <ele>1460.1</ele>
        <time>2024-05-26T10:31:46Z</time>
      </trkpt>
      <trkpt lat="43.7434" lon="6.66528">
        <ele>1460</ele>
        <time>2024-05-26T10:31:47Z</time>
      </trkpt>
      <trkpt lat="43.74339" lon="6.66528">
        <ele>1459.9</ele>
        <time>2024-05-26T10:31:48Z</time>
      </trkpt>
      <trkpt lat="43.74339" lon="6.66527">
        <ele>1459.8</ele>
        <time>2024-05-26T10:31:49Z</time>
      </trkpt>
      <trkpt lat="43.74338" lon="6.66527">
        <ele>1459.7</ele>
        <time>2024-05-26T10:31:50Z</time>
      </trkpt>
      <trkpt lat="43.74338" lon="6.66526">
        <ele>1459.5</ele>
        <time>2024-05-26T10:31:51Z</time>
      </trkpt>
      <trkpt lat="43.74337" lon="6.66525">
        <ele>1459.4</ele>
        <time>2024-05-26T10:31:52Z</time>
      </trkpt>
      <trkpt lat="43.74336" lon="6.66524">
        <ele>1459.3</ele>
        <time>2024-05-26T10:31:53Z</time>
      </trkpt>
      <trkpt lat="43.74335" lon="6.66523">
        <ele>1459.1</ele>
        <time>2024-05-26T10:31:54Z</time>
      </trkpt>
      <trkpt lat="43.74334" lon="6.66522">
        <ele>1459</ele>
        <time>2024-05-26T10:31:55Z</time>
      </trkpt>
      <trkpt lat="43.74333" lon="6.66521">
        <ele>1458.8</ele>
        <time>2024-05-26T10:31:56Z</time>
      </trkpt>
      <trkpt lat="43.74333" lon="6.66521">
        <ele>1458.7</ele>
        <time>2024-05-26T10:31:57Z</time>
      </trkpt>
      <trkpt lat="43.74332" lon="6.66519">
        <ele>1458.5</ele>
        <time>2024-05-26T10:31:58Z</time>
      </trkpt>
      <trkpt lat="43.74331" lon="6.66519">
        <ele>1458.2</ele>
        <time>2024-05-26T10:31:59Z</time>
      </trkpt>
      <trkpt lat="43.7433" lon="6.66517">
        <ele>1458</ele>
        <time>2024-05-26T10:32:00Z</time>
      </trkpt>
      <trkpt lat="43.74329" lon="6.66517">
        <ele>1457.8</ele>
        <time>2024-05-26T10:32:01Z</time>
      </trkpt>
      <trkpt lat="43.74328" lon="6.66515">
        <ele>1457.6</ele>
        <time>2024-05-26T10:32:02Z</time>
      </trkpt>
      <trkpt lat="43.74327" lon="6.66514">
        <ele>1457.4</ele>
        <time>2024-05-26T10:32:03Z</time>
      </trkpt>
      <trkpt lat="43.74326" lon="6.66513">
        <ele>1457.3</ele>
        <time>2024-05-26T10:32:04Z</time>
      </trkpt>
      <trkpt lat="43.74326" lon="6.66512">
        <ele>1457.2</ele>
        <time>2024-05-26T10:32:05Z</time>
      </trkpt>
      <trkpt lat="43.74325" lon="6.66511">
        <ele>1457.2</ele>
        <time>2024-05-26T10:32:06Z</time>
      </trkpt>
      <trkpt lat="43.74324" lon="6.6651">
        <ele>1457.1</ele>
        <time>2024-05-26T10:32:07Z</time>
      </trkpt>
      <trkpt lat="43.74323" lon="6.66509">
        <ele>1457</ele>
        <time>2024-05-26T10:32:08Z</time>
      </trkpt>
      <trkpt lat="43.74322" lon="6.66508">
        <ele>1456.8</ele>
        <time>2024-05-26T10:32:09Z</time>
      </trkpt>
      <trkpt lat="43.74322" lon="6.66507">
        <ele>1456.7</ele>
        <time>2024-05-26T10:32:10Z</time>
      </trkpt>
      <trkpt lat="43.74321" lon="6.66505">
        <ele>1456.5</ele>
        <time>2024-05-26T10:32:11Z</time>
      </trkpt>
      <trkpt lat="43.7432" lon="6.66505">
        <ele>1456.4</ele>
        <time>2024-05-26T10:32:12Z</time>
      </trkpt>
      <trkpt lat="43.7432" lon="6.66504">
        <ele>1456.3</ele>
        <time>2024-05-26T10:32:13Z</time>
      </trkpt>
      <trkpt lat="43.7432" lon="6.66503">
        <ele>1456.2</ele>
        <time>2024-05-26T10:32:14Z</time>
      </trkpt>
      <trkpt lat="43.74319" lon="6.66503">
        <ele>1456</ele>
        <time>2024-05-26T10:32:15Z</time>
      </trkpt>
      <trkpt lat="43.74318" lon="6.66502">
        <ele>1456</ele>
        <time>2024-05-26T10:32:16Z</time>
      </trkpt>
      <trkpt lat="43.74317" lon="6.66502">
        <ele>1455.9</ele>
        <time>2024-05-26T10:32:17Z</time>
      </trkpt>
      <trkpt lat="43.74316" lon="6.66501">
        <ele>1455.8</ele>
        <time>2024-05-26T10:32:18Z</time>
      </trkpt>
      <trkpt lat="43.74315" lon="6.665">
        <ele>1455.8</ele>
        <time>2024-05-26T10:32:19Z</time>
      </trkpt>
      <trkpt lat="43.74314" lon="6.665">
        <ele>1455.7</ele>
        <time>2024-05-26T10:32:20Z</time>
      </trkpt>
      <trkpt lat="43.74313" lon="6.66499">
        <ele>1455.5</ele>
        <time>2024-05-26T10:32:21Z</time>
      </trkpt>
      <trkpt lat="43.74312" lon="6.66499">
        <ele>1455.4</ele>
        <time>2024-05-26T10:32:22Z</time>
      </trkpt>
      <trkpt lat="43.74312" lon="6.66497">
        <ele>1455.3</ele>
        <time>2024-05-26T10:32:23Z</time>
      </trkpt>
      <trkpt lat="43.7431" lon="6.66496">
        <ele>1455.1</ele>
        <time>2024-05-26T10:32:24Z</time>
      </trkpt>
      <trkpt lat="43.7431" lon="6.66496">
        <ele>1455</ele>
        <time>2024-05-26T10:32:25Z</time>
      </trkpt>
      <trkpt lat="43.74309" lon="6.66496">
        <ele>1454.9</ele>
        <time>2024-05-26T10:32:26Z</time>
      </trkpt>
      <trkpt lat="43.74309" lon="6.66495">
        <ele>1454.8</ele>
        <time>2024-05-26T10:32:27Z</time>
      </trkpt>
      <trkpt lat="43.74308" lon="6.66494">
        <ele>1454.7</ele>
        <time>2024-05-26T10:32:28Z</time>
      </trkpt>
      <trkpt lat="43.74307" lon="6.66493">
        <ele>1454.4</ele>
        <time>2024-05-26T10:32:29Z</time>
      </trkpt>
      <trkpt lat="43.74306" lon="6.66492">
        <ele>1454.3</ele>
        <time>2024-05-26T10:32:30Z</time>
      </trkpt>
      <trkpt lat="43.74306" lon="6.66492">
        <ele>1454.1</ele>
        <time>2024-05-26T10:32:31Z</time>
      </trkpt>
      <trkpt lat="43.74305" lon="6.66491">
        <ele>1454</ele>
        <time>2024-05-26T10:32:32Z</time>
      </trkpt>
      <trkpt lat="43.74304" lon="6.66491">
        <ele>1453.9</ele>
        <time>2024-05-26T10:32:33Z</time>
      </trkpt>
      <trkpt lat="43.74304" lon="6.6649">
        <ele>1453.8</ele>
        <time>2024-05-26T10:32:34Z</time>
      </trkpt>
      <trkpt lat="43.74303" lon="6.6649">
        <ele>1453.6</ele>
        <time>2024-05-26T10:32:35Z</time>
      </trkpt>
      <trkpt lat="43.74302" lon="6.66489">
        <ele>1453.4</ele>
        <time>2024-05-26T10:32:36Z</time>
      </trkpt>
      <trkpt lat="43.74301" lon="6.66488">
        <ele>1453.2</ele>
        <time>2024-05-26T10:32:37Z</time>
      </trkpt>
      <trkpt lat="43.743" lon="6.66488">
        <ele>1453.1</ele>
        <time>2024-05-26T10:32:38Z</time>
      </trkpt>
      <trkpt lat="43.74299" lon="6.66488">
        <ele>1452.9</ele>
        <time>2024-05-26T10:32:39Z</time>
      </trkpt>
      <trkpt lat="43.74298" lon="6.66487">
        <ele>1452.8</ele>
        <time>2024-05-26T10:32:40Z</time>
      </trkpt>
      <trkpt lat="43.74297" lon="6.66487">
        <ele>1452.7</ele>
        <time>2024-05-26T10:32:41Z</time>
      </trkpt>
      <trkpt lat="43.74296" lon="6.66487">
        <ele>1452.5</ele>
        <time>2024-05-26T10:32:42Z</time>
      </trkpt>
      <trkpt lat="43.74295" lon="6.66486">
        <ele>1452.3</ele>
        <time>2024-05-26T10:32:43Z</time>
      </trkpt>
      <trkpt lat="43.74295" lon="6.66486">
        <ele>1452.1</ele>
        <time>2024-05-26T10:32:44Z</time>
      </trkpt>
      <trkpt lat="43.74294" lon="6.66486">
        <ele>1452</ele>
        <time>2024-05-26T10:32:45Z</time>
      </trkpt>
      <trkpt lat="43.74294" lon="6.66485">
        <ele>1451.9</ele>
        <time>2024-05-26T10:32:46Z</time>
      </trkpt>
      <trkpt lat="43.74293" lon="6.66485">
        <ele>1451.8</ele>
        <time>2024-05-26T10:32:47Z</time>
      </trkpt>
      <trkpt lat="43.74291" lon="6.66486">
        <ele>1451.7</ele>
        <time>2024-05-26T10:32:48Z</time>
      </trkpt>
      <trkpt lat="43.7429" lon="6.66486">
        <ele>1451.6</ele>
        <time>2024-05-26T10:32:49Z</time>
      </trkpt>
      <trkpt lat="43.74288" lon="6.66486">
        <ele>1451.4</ele>
        <time>2024-05-26T10:32:50Z</time>
      </trkpt>
      <trkpt lat="43.74287" lon="6.66487">
        <ele>1451.2</ele>
        <time>2024-05-26T10:32:51Z</time>
      </trkpt>
      <trkpt lat="43.74286" lon="6.66487">
        <ele>1451</ele>
        <time>2024-05-26T10:32:52Z</time>
      </trkpt>
      <trkpt lat="43.74285" lon="6.66488">
        <ele>1450.8</ele>
        <time>2024-05-26T10:32:53Z</time>
      </trkpt>
      <trkpt lat="43.74284" lon="6.66488">
        <ele>1450.6</ele>
        <time>2024-05-26T10:32:54Z</time>
      </trkpt>
      <trkpt lat="43.74284" lon="6.66489">
        <ele>1450.4</ele>
        <time>2024-05-26T10:32:55Z</time>
      </trkpt>
      <trkpt lat="43.74283" lon="6.6649">
        <ele>1450.1</ele>
        <time>2024-05-26T10:32:56Z</time>
      </trkpt>
      <trkpt lat="43.74282" lon="6.66491">
        <ele>1449.9</ele>
        <time>2024-05-26T10:32:57Z</time>
      </trkpt>
      <trkpt lat="43.74282" lon="6.66492">
        <ele>1449.7</ele>
        <time>2024-05-26T10:32:58Z</time>
      </trkpt>
      <trkpt lat="43.74281" lon="6.66493">
        <ele>1449.6</ele>
        <time>2024-05-26T10:32:59Z</time>
      </trkpt>
      <trkpt lat="43.74281" lon="6.66494">
        <ele>1449.5</ele>
        <time>2024-05-26T10:33:00Z</time>
      </trkpt>
      <trkpt lat="43.74281" lon="6.66495">
        <ele>1449.3</ele>
        <time>2024-05-26T10:33:01Z</time>
      </trkpt>
      <trkpt lat="43.7428" lon="6.66496">
        <ele>1449.1</ele>
        <time>2024-05-26T10:33:02Z</time>
      </trkpt>
      <trkpt lat="43.7428" lon="6.66498">
        <ele>1449</ele>
        <time>2024-05-26T10:33:03Z</time>
      </trkpt>
      <trkpt lat="43.74279" lon="6.66498">
        <ele>1448.8</ele>
        <time>2024-05-26T10:33:04Z</time>
      </trkpt>
      <trkpt lat="43.74279" lon="6.66499">
        <ele>1448.6</ele>
        <time>2024-05-26T10:33:05Z</time>
      </trkpt>
      <trkpt lat="43.7428" lon="6.665">
        <ele>1448.3</ele>
        <time>2024-05-26T10:33:06Z</time>
      </trkpt>
      <trkpt lat="43.7428" lon="6.66502">
        <ele>1448.1</ele>
        <time>2024-05-26T10:33:07Z</time>
      </trkpt>
      <trkpt lat="43.7428" lon="6.66503">
        <ele>1447.9</ele>
        <time>2024-05-26T10:33:08Z</time>
      </trkpt>
      <trkpt lat="43.7428" lon="6.66505">
        <ele>1447.7</ele>
        <time>2024-05-26T10:33:09Z</time>
      </trkpt>
      <trkpt lat="43.7428" lon="6.66506">
        <ele>1447.6</ele>
        <time>2024-05-26T10:33:10Z</time>
      </trkpt>
      <trkpt lat="43.7428" lon="6.66507">
        <ele>1447.4</ele>
        <time>2024-05-26T10:33:11Z</time>
      </trkpt>
      <trkpt lat="43.7428" lon="6.66509">
        <ele>1447.3</ele>
        <time>2024-05-26T10:33:12Z</time>
      </trkpt>
      <trkpt lat="43.7428" lon="6.6651">
        <ele>1447.1</ele>
        <time>2024-05-26T10:33:13Z</time>
      </trkpt>
      <trkpt lat="43.7428" lon="6.66512">
        <ele>1446.9</ele>
        <time>2024-05-26T10:33:14Z</time>
      </trkpt>
      <trkpt lat="43.7428" lon="6.66513">
        <ele>1446.8</ele>
        <time>2024-05-26T10:33:15Z</time>
      </trkpt>
      <trkpt lat="43.74281" lon="6.66514">
        <ele>1446.6</ele>
        <time>2024-05-26T10:33:16Z</time>
      </trkpt>
      <trkpt lat="43.74281" lon="6.66516">
        <ele>1446.4</ele>
        <time>2024-05-26T10:33:17Z</time>
      </trkpt>
      <trkpt lat="43.74281" lon="6.66517">
        <ele>1446.2</ele>
        <time>2024-05-26T10:33:18Z</time>
      </trkpt>
      <trkpt lat="43.74281" lon="6.66518">
        <ele>1446</ele>
        <time>2024-05-26T10:33:19Z</time>
      </trkpt>
      <trkpt lat="43.74281" lon="6.6652">
        <ele>1445.9</ele>
        <time>2024-05-26T10:33:20Z</time>
      </trkpt>
      <trkpt lat="43.74281" lon="6.66521">
        <ele>1445.7</ele>
        <time>2024-05-26T10:33:21Z</time>
      </trkpt>
      <trkpt lat="43.74282" lon="6.66523">
        <ele>1445.6</ele>
        <time>2024-05-26T10:33:22Z</time>
      </trkpt>
      <trkpt lat="43.74282" lon="6.66525">
        <ele>1445.5</ele>
        <time>2024-05-26T10:33:23Z</time>
      </trkpt>
      <trkpt lat="43.74282" lon="6.66525">
        <ele>1445.4</ele>
        <time>2024-05-26T10:33:24Z</time>
      </trkpt>
      <trkpt lat="43.74283" lon="6.66526">
        <ele>1445.3</ele>
        <time>2024-05-26T10:33:25Z</time>
      </trkpt>
      <trkpt lat="43.74283" lon="6.66528">
        <ele>1445.1</ele>
        <time>2024-05-26T10:33:26Z</time>
      </trkpt>
      <trkpt lat="43.74283" lon="6.66529">
        <ele>1444.9</ele>
        <time>2024-05-26T10:33:27Z</time>
      </trkpt>
      <trkpt lat="43.74284" lon="6.6653">
        <ele>1444.8</ele>
        <time>2024-05-26T10:33:28Z</time>
      </trkpt>
      <trkpt lat="43.74284" lon="6.66532">
        <ele>1444.7</ele>
        <time>2024-05-26T10:33:29Z</time>
      </trkpt>
      <trkpt lat="43.74284" lon="6.66534">
        <ele>1444.6</ele>
        <time>2024-05-26T10:33:30Z</time>
      </trkpt>
      <trkpt lat="43.74285" lon="6.66535">
        <ele>1444.5</ele>
        <time>2024-05-26T10:33:31Z</time>
      </trkpt>
      <trkpt lat="43.74285" lon="6.66536">
        <ele>1444.5</ele>
        <time>2024-05-26T10:33:32Z</time>
      </trkpt>
      <trkpt lat="43.74286" lon="6.66537">
        <ele>1444.4</ele>
        <time>2024-05-26T10:33:33Z</time>
      </trkpt>
      <trkpt lat="43.74286" lon="6.66537">
        <ele>1444.3</ele>
        <time>2024-05-26T10:33:34Z</time>
      </trkpt>
      <trkpt lat="43.74286" lon="6.66539">
        <ele>1444.2</ele>
        <time>2024-05-26T10:33:35Z</time>
      </trkpt>
      <trkpt lat="43.74286" lon="6.6654">
        <ele>1444.2</ele>
        <time>2024-05-26T10:33:36Z</time>
      </trkpt>
      <trkpt lat="43.74286" lon="6.66542">
        <ele>1444.1</ele>
        <time>2024-05-26T10:33:37Z</time>
      </trkpt>
      <trkpt lat="43.74287" lon="6.66543">
        <ele>1443.9</ele>
        <time>2024-05-26T10:33:38Z</time>
      </trkpt>
      <trkpt lat="43.74287" lon="6.66544">
        <ele>1443.7</ele>
        <time>2024-05-26T10:33:39Z</time>
      </trkpt>
      <trkpt lat="43.74287" lon="6.66545">
        <ele>1443.6</ele>
        <time>2024-05-26T10:33:40Z</time>
      </trkpt>
      <trkpt lat="43.74288" lon="6.66546">
        <ele>1443.5</ele>
        <time>2024-05-26T10:33:41Z</time>
      </trkpt>
      <trkpt lat="43.74288" lon="6.66547">
        <ele>1443.3</ele>
        <time>2024-05-26T10:33:42Z</time>
      </trkpt>
      <trkpt lat="43.74288" lon="6.66548">
        <ele>1443.1</ele>
        <time>2024-05-26T10:33:43Z</time>
      </trkpt>
      <trkpt lat="43.74288" lon="6.6655">
        <ele>1443</ele>
        <time>2024-05-26T10:33:44Z</time>
      </trkpt>
      <trkpt lat="43.74289" lon="6.66552">
        <ele>1443</ele>
        <time>2024-05-26T10:33:45Z</time>
      </trkpt>
      <trkpt lat="43.74289" lon="6.66553">
        <ele>1443</ele>
        <time>2024-05-26T10:33:46Z</time>
      </trkpt>
      <trkpt lat="43.74289" lon="6.66554">
        <ele>1442.8</ele>
        <time>2024-05-26T10:33:47Z</time>
      </trkpt>
      <trkpt lat="43.74289" lon="6.66556">
        <ele>1442.8</ele>
        <time>2024-05-26T10:33:48Z</time>
      </trkpt>
      <trkpt lat="43.7429" lon="6.66557">
        <ele>1442.7</ele>
        <time>2024-05-26T10:33:49Z</time>
      </trkpt>
      <trkpt lat="43.7429" lon="6.66558">
        <ele>1442.5</ele>
        <time>2024-05-26T10:33:50Z</time>
      </trkpt>
      <trkpt lat="43.7429" lon="6.66559">
        <ele>1442.4</ele>
        <time>2024-05-26T10:33:51Z</time>
      </trkpt>
      <trkpt lat="43.7429" lon="6.6656">
        <ele>1442.3</ele>
        <time>2024-05-26T10:33:52Z</time>
      </trkpt>
      <trkpt lat="43.74291" lon="6.66562">
        <ele>1442.1</ele>
        <time>2024-05-26T10:33:53Z</time>
      </trkpt>
      <trkpt lat="43.74291" lon="6.66564">
        <ele>1442</ele>
        <time>2024-05-26T10:33:54Z</time>
      </trkpt>
      <trkpt lat="43.74292" lon="6.66565">
        <ele>1441.8</ele>
        <time>2024-05-26T10:33:55Z</time>
      </trkpt>
      <trkpt lat="43.74291" lon="6.66567">
        <ele>1441.7</ele>
        <time>2024-05-26T10:33:56Z</time>
      </trkpt>
      <trkpt lat="43.74291" lon="6.66568">
        <ele>1441.6</ele>
        <time>2024-05-26T10:33:57Z</time>
      </trkpt>
      <trkpt lat="43.74292" lon="6.6657">
        <ele>1441.5</ele>
        <time>2024-05-26T10:33:58Z</time>
      </trkpt>
      <trkpt lat="43.74292" lon="6.66571">
        <ele>1441.3</ele>
        <time>2024-05-26T10:33:59Z</time>
      </trkpt>
      <trkpt lat="43.74292" lon="6.66573">
        <ele>1441.1</ele>
        <time>2024-05-26T10:34:00Z</time>
      </trkpt>
      <trkpt lat="43.74292" lon="6.66575">
        <ele>1441</ele>
        <time>2024-05-26T10:34:01Z</time>
      </trkpt>
      <trkpt lat="43.74293" lon="6.66576">
        <ele>1440.8</ele>
        <time>2024-05-26T10:34:02Z</time>
      </trkpt>
      <trkpt lat="43.74293" lon="6.66578">
        <ele>1440.6</ele>
        <time>2024-05-26T10:34:03Z</time>
      </trkpt>
      <trkpt lat="43.74294" lon="6.66579">
        <ele>1440.5</ele>
        <time>2024-05-26T10:34:04Z</time>
      </trkpt>
      <trkpt lat="43.74293" lon="6.66581">
        <ele>1440.4</ele>
        <time>2024-05-26T10:34:05Z</time>
      </trkpt>
      <trkpt lat="43.74294" lon="6.66583">
        <ele>1440.2</ele>
        <time>2024-05-26T10:34:06Z</time>
      </trkpt>
      <trkpt lat="43.74294" lon="6.66584">
        <ele>1440.1</ele>
        <time>2024-05-26T10:34:07Z</time>
      </trkpt>
      <trkpt lat="43.74294" lon="6.66586">
        <ele>1440</ele>
        <time>2024-05-26T10:34:08Z</time>
      </trkpt>
      <trkpt lat="43.74295" lon="6.66587">
        <ele>1439.8</ele>
        <time>2024-05-26T10:34:09Z</time>
      </trkpt>
      <trkpt lat="43.74295" lon="6.66589">
        <ele>1439.7</ele>
        <time>2024-05-26T10:34:10Z</time>
      </trkpt>
      <trkpt lat="43.74296" lon="6.6659">
        <ele>1439.6</ele>
        <time>2024-05-26T10:34:11Z</time>
      </trkpt>
      <trkpt lat="43.74297" lon="6.66591">
        <ele>1439.4</ele>
        <time>2024-05-26T10:34:12Z</time>
      </trkpt>
      <trkpt lat="43.74297" lon="6.66593">
        <ele>1439.2</ele>
        <time>2024-05-26T10:34:13Z</time>
      </trkpt>
      <trkpt lat="43.74298" lon="6.66594">
        <ele>1439</ele>
        <time>2024-05-26T10:34:14Z</time>
      </trkpt>
      <trkpt lat="43.74298" lon="6.66595">
        <ele>1438.8</ele>
        <time>2024-05-26T10:34:15Z</time>
      </trkpt>
      <trkpt lat="43.74298" lon="6.66597">
        <ele>1438.7</ele>
        <time>2024-05-26T10:34:16Z</time>
      </trkpt>
      <trkpt lat="43.74298" lon="6.66598">
        <ele>1438.5</ele>
        <time>2024-05-26T10:34:17Z</time>
      </trkpt>
      <trkpt lat="43.74298" lon="6.66599">
        <ele>1438.3</ele>
        <time>2024-05-26T10:34:18Z</time>
      </trkpt>
      <trkpt lat="43.74298" lon="6.66601">
        <ele>1438.1</ele>
        <time>2024-05-26T10:34:19Z</time>
      </trkpt>
      <trkpt lat="43.74299" lon="6.66603">
        <ele>1437.9</ele>
        <time>2024-05-26T10:34:20Z</time>
      </trkpt>
      <trkpt lat="43.74299" lon="6.66604">
        <ele>1437.7</ele>
        <time>2024-05-26T10:34:21Z</time>
      </trkpt>
      <trkpt lat="43.74299" lon="6.66605">
        <ele>1437.6</ele>
        <time>2024-05-26T10:34:22Z</time>
      </trkpt>
      <trkpt lat="43.74299" lon="6.66606">
        <ele>1437.4</ele>
        <time>2024-05-26T10:34:23Z</time>
      </trkpt>
      <trkpt lat="43.743" lon="6.66608">
        <ele>1437.1</ele>
        <time>2024-05-26T10:34:24Z</time>
      </trkpt>
      <trkpt lat="43.74299" lon="6.66609">
        <ele>1436.9</ele>
        <time>2024-05-26T10:34:25Z</time>
      </trkpt>
      <trkpt lat="43.74299" lon="6.66611">
        <ele>1436.9</ele>
        <time>2024-05-26T10:34:26Z</time>
      </trkpt>
      <trkpt lat="43.74298" lon="6.66612">
        <ele>1436.8</ele>
        <time>2024-05-26T10:34:27Z</time>
      </trkpt>
      <trkpt lat="43.74298" lon="6.66614">
        <ele>1436.7</ele>
        <time>2024-05-26T10:34:28Z</time>
      </trkpt>
      <trkpt lat="43.74298" lon="6.66616">
        <ele>1436.6</ele>
        <time>2024-05-26T10:34:29Z</time>
      </trkpt>
      <trkpt lat="43.74298" lon="6.66618">
        <ele>1436.5</ele>
        <time>2024-05-26T10:34:30Z</time>
      </trkpt>
      <trkpt lat="43.74298" lon="6.66619">
        <ele>1436.5</ele>
        <time>2024-05-26T10:34:31Z</time>
      </trkpt>
      <trkpt lat="43.74298" lon="6.6662">
        <ele>1436.5</ele>
        <time>2024-05-26T10:34:32Z</time>
      </trkpt>
      <trkpt lat="43.74298" lon="6.66622">
        <ele>1436.4</ele>
        <time>2024-05-26T10:34:33Z</time>
      </trkpt>
      <trkpt lat="43.74297" lon="6.66623">
        <ele>1436.3</ele>
        <time>2024-05-26T10:34:34Z</time>
      </trkpt>
      <trkpt lat="43.74297" lon="6.66624">
        <ele>1436.3</ele>
        <time>2024-05-26T10:34:35Z</time>
      </trkpt>
      <trkpt lat="43.74297" lon="6.66625">
        <ele>1436.2</ele>
        <time>2024-05-26T10:34:36Z</time>
      </trkpt>
      <trkpt lat="43.74296" lon="6.66626">
        <ele>1436</ele>
        <time>2024-05-26T10:34:37Z</time>
      </trkpt>
      <trkpt lat="43.74295" lon="6.66627">
        <ele>1435.8</ele>
        <time>2024-05-26T10:34:38Z</time>
      </trkpt>
      <trkpt lat="43.74294" lon="6.66628">
        <ele>1435.7</ele>
        <time>2024-05-26T10:34:39Z</time>
      </trkpt>
      <trkpt lat="43.74294" lon="6.66629">
        <ele>1435.6</ele>
        <time>2024-05-26T10:34:40Z</time>
      </trkpt>
      <trkpt lat="43.74294" lon="6.6663">
        <ele>1435.5</ele>
        <time>2024-05-26T10:34:41Z</time>
      </trkpt>
      <trkpt lat="43.74293" lon="6.66631">
        <ele>1435.5</ele>
        <time>2024-05-26T10:34:42Z</time>
      </trkpt>
      <trkpt lat="43.74293" lon="6.66632">
        <ele>1435.4</ele>
        <time>2024-05-26T10:34:43Z</time>
      </trkpt>
      <trkpt lat="43.74292" lon="6.66633">
        <ele>1435.3</ele>
        <time>2024-05-26T10:34:44Z</time>
      </trkpt>
      <trkpt lat="43.74292" lon="6.66633">
        <ele>1435.2</ele>
        <time>2024-05-26T10:34:45Z</time>
      </trkpt>
      <trkpt lat="43.74292" lon="6.66634">
        <ele>1435</ele>
        <time>2024-05-26T10:34:46Z</time>
      </trkpt>
      <trkpt lat="43.74291" lon="6.66635">
        <ele>1434.7</ele>
        <time>2024-05-26T10:34:47Z</time>
      </trkpt>
      <trkpt lat="43.74291" lon="6.66636">
        <ele>1434.5</ele>
        <time>2024-05-26T10:34:48Z</time>
      </trkpt>
      <trkpt lat="43.7429" lon="6.66636">
        <ele>1434.3</ele>
        <time>2024-05-26T10:34:49Z</time>
      </trkpt>
      <trkpt lat="43.7429" lon="6.66635">
        <ele>1434.1</ele>
        <time>2024-05-26T10:34:50Z</time>
      </trkpt>
      <trkpt lat="43.74289" lon="6.66635">
        <ele>1434</ele>
        <time>2024-05-26T10:34:51Z</time>
      </trkpt>
      <trkpt lat="43.74288" lon="6.66636">
        <ele>1434</ele>
        <time>2024-05-26T10:34:52Z</time>
      </trkpt>
      <trkpt lat="43.74288" lon="6.66637">
        <ele>1433.8</ele>
        <time>2024-05-26T10:34:53Z</time>
      </trkpt>
      <trkpt lat="43.74288" lon="6.66637">
        <ele>1433.5</ele>
        <time>2024-05-26T10:34:54Z</time>
      </trkpt>
      <trkpt lat="43.74287" lon="6.66637">
        <ele>1433.3</ele>
        <time>2024-05-26T10:34:55Z</time>
      </trkpt>
      <trkpt lat="43.74287" lon="6.66637">
        <ele>1433.1</ele>
        <time>2024-05-26T10:34:56Z</time>
      </trkpt>
      <trkpt lat="43.74286" lon="6.66637">
        <ele>1432.9</ele>
        <time>2024-05-26T10:34:57Z</time>
      </trkpt>
      <trkpt lat="43.74285" lon="6.66637">
        <ele>1432.7</ele>
        <time>2024-05-26T10:34:58Z</time>
      </trkpt>
      <trkpt lat="43.74285" lon="6.66637">
        <ele>1432.6</ele>
        <time>2024-05-26T10:34:59Z</time>
      </trkpt>
      <trkpt lat="43.74284" lon="6.66638">
        <ele>1432.5</ele>
        <time>2024-05-26T10:35:00Z</time>
      </trkpt>
      <trkpt lat="43.74284" lon="6.66638">
        <ele>1432.3</ele>
        <time>2024-05-26T10:35:01Z</time>
      </trkpt>
      <trkpt lat="43.74283" lon="6.66638">
        <ele>1432.1</ele>
        <time>2024-05-26T10:35:02Z</time>
      </trkpt>
      <trkpt lat="43.74282" lon="6.66638">
        <ele>1431.9</ele>
        <time>2024-05-26T10:35:03Z</time>
      </trkpt>
      <trkpt lat="43.74281" lon="6.66638">
        <ele>1431.7</ele>
        <time>2024-05-26T10:35:04Z</time>
      </trkpt>
      <trkpt lat="43.7428" lon="6.66638">
        <ele>1431.5</ele>
        <time>2024-05-26T10:35:05Z</time>
      </trkpt>
      <trkpt lat="43.74279" lon="6.66638">
        <ele>1431.3</ele>
        <time>2024-05-26T10:35:06Z</time>
      </trkpt>
      <trkpt lat="43.74278" lon="6.66639">
        <ele>1431</ele>
        <time>2024-05-26T10:35:07Z</time>
      </trkpt>
      <trkpt lat="43.74277" lon="6.66638">
        <ele>1430.8</ele>
        <time>2024-05-26T10:35:08Z</time>
      </trkpt>
      <trkpt lat="43.74276" lon="6.66638">
        <ele>1430.6</ele>
        <time>2024-05-26T10:35:09Z</time>
      </trkpt>
      <trkpt lat="43.74276" lon="6.66638">
        <ele>1430.4</ele>
        <time>2024-05-26T10:35:10Z</time>
      </trkpt>
      <trkpt lat="43.74275" lon="6.66637">
        <ele>1430.3</ele>
        <time>2024-05-26T10:35:11Z</time>
      </trkpt>
      <trkpt lat="43.74274" lon="6.66636">
        <ele>1430.2</ele>
        <time>2024-05-26T10:35:12Z</time>
      </trkpt>
      <trkpt lat="43.74274" lon="6.66637">
        <ele>1430</ele>
        <time>2024-05-26T10:35:13Z</time>
      </trkpt>
      <trkpt lat="43.74273" lon="6.66637">
        <ele>1429.8</ele>
        <time>2024-05-26T10:35:14Z</time>
      </trkpt>
      <trkpt lat="43.74272" lon="6.66637">
        <ele>1429.6</ele>
        <time>2024-05-26T10:35:15Z</time>
      </trkpt>
      <trkpt lat="43.74272" lon="6.66637">
        <ele>1429.5</ele>
        <time>2024-05-26T10:35:16Z</time>
      </trkpt>
      <trkpt lat="43.74271" lon="6.66638">
        <ele>1429.4</ele>
        <time>2024-05-26T10:35:17Z</time>
      </trkpt>
      <trkpt lat="43.7427" lon="6.66638">
        <ele>1429.3</ele>
        <time>2024-05-26T10:35:18Z</time>
      </trkpt>
      <trkpt lat="43.74269" lon="6.66638">
        <ele>1429.2</ele>
        <time>2024-05-26T10:35:19Z</time>
      </trkpt>
      <trkpt lat="43.74269" lon="6.66638">
        <ele>1429.1</ele>
        <time>2024-05-26T10:35:20Z</time>
      </trkpt>
      <trkpt lat="43.74269" lon="6.66638">
        <ele>1429</ele>
        <time>2024-05-26T10:35:21Z</time>
      </trkpt>
      <trkpt lat="43.74269" lon="6.66638">
        <ele>1429</ele>
        <time>2024-05-26T10:35:22Z</time>
      </trkpt>
      <trkpt lat="43.74269" lon="6.66638">
        <ele>1428.9</ele>
        <time>2024-05-26T10:35:23Z</time>
      </trkpt>
      <trkpt lat="43.74268" lon="6.66638">
        <ele>1428.9</ele>
        <time>2024-05-26T10:35:24Z</time>
      </trkpt>
      <trkpt lat="43.74268" lon="6.66638">
        <ele>1429</ele>
        <time>2024-05-26T10:35:25Z</time>
      </trkpt>
      <trkpt lat="43.74268" lon="6.66638">
        <ele>1429</ele>
        <time>2024-05-26T10:35:26Z</time>
      </trkpt>
      <trkpt lat="43.74268" lon="6.66638">
        <ele>1429</ele>
        <time>2024-05-26T10:35:27Z</time>
      </trkpt>
      <trkpt lat="43.74268" lon="6.66638">
        <ele>1429.1</ele>
        <time>2024-05-26T10:35:28Z</time>
      </trkpt>
      <trkpt lat="43.74268" lon="6.66639">
        <ele>1429</ele>
        <time>2024-05-26T10:35:29Z</time>
      </trkpt>
      <trkpt lat="43.74268" lon="6.66639">
        <ele>1429</ele>
        <time>2024-05-26T10:35:30Z</time>
      </trkpt>
      <trkpt lat="43.74268" lon="6.66639">
        <ele>1429</ele>
        <time>2024-05-26T10:35:31Z</time>
      </trkpt>
      <trkpt lat="43.74268" lon="6.66639">
        <ele>1429</ele>
        <time>2024-05-26T10:35:32Z</time>
      </trkpt>
      <trkpt lat="43.74268" lon="6.6664">
        <ele>1429</ele>
        <time>2024-05-26T10:35:33Z</time>
      </trkpt>
      <trkpt lat="43.74268" lon="6.6664">
        <ele>1429</ele>
        <time>2024-05-26T10:35:34Z</time>
      </trkpt>
      <trkpt lat="43.74268" lon="6.6664">
        <ele>1429</ele>
        <time>2024-05-26T10:35:35Z</time>
      </trkpt>
      <trkpt lat="43.74267" lon="6.6664">
        <ele>1429.1</ele>
        <time>2024-05-26T10:35:36Z</time>
      </trkpt>
      <trkpt lat="43.74268" lon="6.66641">
        <ele>1429.1</ele>
        <time>2024-05-26T10:35:37Z</time>
      </trkpt>
      <trkpt lat="43.74268" lon="6.66641">
        <ele>1429.1</ele>
        <time>2024-05-26T10:35:38Z</time>
      </trkpt>
      <trkpt lat="43.74268" lon="6.66641">
        <ele>1429.2</ele>
        <time>2024-05-26T10:35:39Z</time>
      </trkpt>
      <trkpt lat="43.74268" lon="6.6664">
        <ele>1429.2</ele>
        <time>2024-05-26T10:35:40Z</time>
      </trkpt>
      <trkpt lat="43.74268" lon="6.66641">
        <ele>1429.3</ele>
        <time>2024-05-26T10:35:41Z</time>
      </trkpt>
      <trkpt lat="43.74267" lon="6.6664">
        <ele>1429.3</ele>
        <time>2024-05-26T10:35:42Z</time>
      </trkpt>
      <trkpt lat="43.74267" lon="6.66641">
        <ele>1429.3</ele>
        <time>2024-05-26T10:35:43Z</time>
      </trkpt>
      <trkpt lat="43.74267" lon="6.6664">
        <ele>1429.3</ele>
        <time>2024-05-26T10:35:44Z</time>
      </trkpt>
      <trkpt lat="43.74266" lon="6.6664">
        <ele>1429.3</ele>
        <time>2024-05-26T10:35:45Z</time>
      </trkpt>
      <trkpt lat="43.74266" lon="6.6664">
        <ele>1429.4</ele>
        <time>2024-05-26T10:35:46Z</time>
      </trkpt>
      <trkpt lat="43.74266" lon="6.66641">
        <ele>1429.4</ele>
        <time>2024-05-26T10:35:47Z</time>
      </trkpt>
      <trkpt lat="43.74266" lon="6.66641">
        <ele>1429.4</ele>
        <time>2024-05-26T10:35:48Z</time>
      </trkpt>
      <trkpt lat="43.74266" lon="6.66641">
        <ele>1429.4</ele>
        <time>2024-05-26T10:35:49Z</time>
      </trkpt>
      <trkpt lat="43.74266" lon="6.66642">
        <ele>1429.5</ele>
        <time>2024-05-26T10:35:50Z</time>
      </trkpt>
      <trkpt lat="43.74265" lon="6.66642">
        <ele>1429.4</ele>
        <time>2024-05-26T10:35:51Z</time>
      </trkpt>
      <trkpt lat="43.74266" lon="6.66643">
        <ele>1429.4</ele>
        <time>2024-05-26T10:35:52Z</time>
      </trkpt>
      <trkpt lat="43.74266" lon="6.66643">
        <ele>1429.3</ele>
        <time>2024-05-26T10:35:53Z</time>
      </trkpt>
      <trkpt lat="43.74266" lon="6.66643">
        <ele>1429.2</ele>
        <time>2024-05-26T10:35:54Z</time>
      </trkpt>
      <trkpt lat="43.74266" lon="6.66643">
        <ele>1429.2</ele>
        <time>2024-05-26T10:35:55Z</time>
      </trkpt>
      <trkpt lat="43.74266" lon="6.66644">
        <ele>1429.2</ele>
        <time>2024-05-26T10:35:56Z</time>
      </trkpt>
      <trkpt lat="43.74266" lon="6.66644">
        <ele>1429.2</ele>
        <time>2024-05-26T10:35:57Z</time>
      </trkpt>
      <trkpt lat="43.74266" lon="6.66644">
        <ele>1429.2</ele>
        <time>2024-05-26T10:35:58Z</time>
      </trkpt>
      <trkpt lat="43.74266" lon="6.66645">
        <ele>1429.2</ele>
        <time>2024-05-26T10:35:59Z</time>
      </trkpt>
      <trkpt lat="43.74265" lon="6.66645">
        <ele>1429.3</ele>
        <time>2024-05-26T10:36:00Z</time>
      </trkpt>
      <trkpt lat="43.74266" lon="6.66645">
        <ele>1429.3</ele>
        <time>2024-05-26T10:36:01Z</time>
      </trkpt>
      <trkpt lat="43.74266" lon="6.66645">
        <ele>1429.4</ele>
        <time>2024-05-26T10:36:02Z</time>
      </trkpt>
      <trkpt lat="43.74266" lon="6.66645">
        <ele>1429.4</ele>
        <time>2024-05-26T10:36:03Z</time>
      </trkpt>
      <trkpt lat="43.74266" lon="6.66645">
        <ele>1429.4</ele>
        <time>2024-05-26T10:36:04Z</time>
      </trkpt>
      <trkpt lat="43.74265" lon="6.66645">
        <ele>1429.4</ele>
        <time>2024-05-26T10:36:05Z</time>
      </trkpt>
      <trkpt lat="43.74265" lon="6.66644">
        <ele>1429.4</ele>
        <time>2024-05-26T10:36:06Z</time>
      </trkpt>
      <trkpt lat="43.74266" lon="6.66644">
        <ele>1429.4</ele>
        <time>2024-05-26T10:36:07Z</time>
      </trkpt>
      <trkpt lat="43.74266" lon="6.66644">
        <ele>1429.4</ele>
        <time>2024-05-26T10:36:08Z</time>
      </trkpt>
      <trkpt lat="43.74266" lon="6.66644">
        <ele>1429.4</ele>
        <time>2024-05-26T10:36:09Z</time>
      </trkpt>
      <trkpt lat="43.74266" lon="6.66644">
        <ele>1429.4</ele>
        <time>2024-05-26T10:36:10Z</time>
      </trkpt>
      <trkpt lat="43.74265" lon="6.66644">
        <ele>1429.3</ele>
        <time>2024-05-26T10:36:11Z</time>
      </trkpt>
      <trkpt lat="43.74265" lon="6.66643">
        <ele>1429.3</ele>
        <time>2024-05-26T10:36:12Z</time>
      </trkpt>
      <trkpt lat="43.74265" lon="6.66643">
        <ele>1429.2</ele>
        <time>2024-05-26T10:36:13Z</time>
      </trkpt>
      <trkpt lat="43.74265" lon="6.66643">
        <ele>1429.2</ele>
        <time>2024-05-26T10:36:14Z</time>
      </trkpt>
      <trkpt lat="43.74265" lon="6.66643">
        <ele>1429.1</ele>
        <time>2024-05-26T10:36:15Z</time>
      </trkpt>
      <trkpt lat="43.74265" lon="6.66642">
        <ele>1429.1</ele>
        <time>2024-05-26T10:36:16Z</time>
      </trkpt>
      <trkpt lat="43.74265" lon="6.66642">
        <ele>1429.1</ele>
        <time>2024-05-26T10:36:17Z</time>
      </trkpt>
      <trkpt lat="43.74265" lon="6.66642">
        <ele>1429.1</ele>
        <time>2024-05-26T10:36:18Z</time>
      </trkpt>
      <trkpt lat="43.74265" lon="6.66642">
        <ele>1429</ele>
        <time>2024-05-26T10:36:19Z</time>
      </trkpt>
      <trkpt lat="43.74264" lon="6.66641">
        <ele>1428.9</ele>
        <time>2024-05-26T10:36:20Z</time>
      </trkpt>
      <trkpt lat="43.74264" lon="6.66641">
        <ele>1428.9</ele>
        <time>2024-05-26T10:36:21Z</time>
      </trkpt>
      <trkpt lat="43.74263" lon="6.6664">
        <ele>1428.9</ele>
        <time>2024-05-26T10:36:22Z</time>
      </trkpt>
      <trkpt lat="43.74263" lon="6.6664">
        <ele>1428.9</ele>
        <time>2024-05-26T10:36:23Z</time>
      </trkpt>
      <trkpt lat="43.74263" lon="6.6664">
        <ele>1428.9</ele>
        <time>2024-05-26T10:36:24Z</time>
      </trkpt>
      <trkpt lat="43.74264" lon="6.6664">
        <ele>1428.9</ele>
        <time>2024-05-26T10:36:25Z</time>
      </trkpt>
      <trkpt lat="43.74264" lon="6.6664">
        <ele>1428.9</ele>
        <time>2024-05-26T10:36:26Z</time>
      </trkpt>
      <trkpt lat="43.74264" lon="6.6664">
        <ele>1428.9</ele>
        <time>2024-05-26T10:36:27Z</time>
      </trkpt>
      <trkpt lat="43.74265" lon="6.6664">
        <ele>1429</ele>
        <time>2024-05-26T10:36:28Z</time>
      </trkpt>
      <trkpt lat="43.74265" lon="6.6664">
        <ele>1428.9</ele>
        <time>2024-05-26T10:36:29Z</time>
      </trkpt>
      <trkpt lat="43.74265" lon="6.6664">
        <ele>1428.9</ele>
        <time>2024-05-26T10:36:30Z</time>
      </trkpt>
      <trkpt lat="43.74265" lon="6.66639">
        <ele>1428.9</ele>
        <time>2024-05-26T10:36:31Z</time>
      </trkpt>
      <trkpt lat="43.74264" lon="6.66639">
        <ele>1428.8</ele>
        <time>2024-05-26T10:36:32Z</time>
      </trkpt>
      <trkpt lat="43.74263" lon="6.6664">
        <ele>1428.8</ele>
        <time>2024-05-26T10:36:33Z</time>
      </trkpt>
      <trkpt lat="43.74262" lon="6.6664">
        <ele>1428.8</ele>
        <time>2024-05-26T10:36:34Z</time>
      </trkpt>
      <trkpt lat="43.74262" lon="6.6664">
        <ele>1428.7</ele>
        <time>2024-05-26T10:36:35Z</time>
      </trkpt>
      <trkpt lat="43.74261" lon="6.6664">
        <ele>1428.6</ele>
        <time>2024-05-26T10:36:36Z</time>
      </trkpt>
      <trkpt lat="43.74261" lon="6.6664">
        <ele>1428.4</ele>
        <time>2024-05-26T10:36:37Z</time>
      </trkpt>
      <trkpt lat="43.74261" lon="6.66641">
        <ele>1428.4</ele>
        <time>2024-05-26T10:36:38Z</time>
      </trkpt>
      <trkpt lat="43.74261" lon="6.66641">
        <ele>1428.2</ele>
        <time>2024-05-26T10:36:39Z</time>
      </trkpt>
      <trkpt lat="43.74261" lon="6.66641">
        <ele>1428.2</ele>
        <time>2024-05-26T10:36:40Z</time>
      </trkpt>
      <trkpt lat="43.74261" lon="6.66641">
        <ele>1428.2</ele>
        <time>2024-05-26T10:36:41Z</time>
      </trkpt>
      <trkpt lat="43.74261" lon="6.66641">
        <ele>1428.2</ele>
        <time>2024-05-26T10:36:42Z</time>
      </trkpt>
      <trkpt lat="43.74261" lon="6.66641">
        <ele>1428.2</ele>
        <time>2024-05-26T10:36:43Z</time>
      </trkpt>
      <trkpt lat="43.74261" lon="6.66641">
        <ele>1428.2</ele>
        <time>2024-05-26T10:36:44Z</time>
      </trkpt>
      <trkpt lat="43.74261" lon="6.66641">
        <ele>1428.2</ele>
        <time>2024-05-26T10:36:45Z</time>
      </trkpt>
      <trkpt lat="43.74261" lon="6.6664">
        <ele>1428.1</ele>
        <time>2024-05-26T10:36:46Z</time>
      </trkpt>
      <trkpt lat="43.74261" lon="6.6664">
        <ele>1428.1</ele>
        <time>2024-05-26T10:36:47Z</time>
      </trkpt>
      <trkpt lat="43.74261" lon="6.6664">
        <ele>1428.1</ele>
        <time>2024-05-26T10:36:48Z</time>
      </trkpt>
      <trkpt lat="43.74261" lon="6.6664">
        <ele>1428</ele>
        <time>2024-05-26T10:36:49Z</time>
      </trkpt>
      <trkpt lat="43.74261" lon="6.6664">
        <ele>1427.9</ele>
        <time>2024-05-26T10:36:50Z</time>
      </trkpt>
      <trkpt lat="43.74261" lon="6.66641">
        <ele>1427.9</ele>
        <time>2024-05-26T10:36:51Z</time>
      </trkpt>
      <trkpt lat="43.74261" lon="6.66641">
        <ele>1427.9</ele>
        <time>2024-05-26T10:36:52Z</time>
      </trkpt>
      <trkpt lat="43.74261" lon="6.66641">
        <ele>1427.9</ele>
        <time>2024-05-26T10:36:53Z</time>
      </trkpt>
      <trkpt lat="43.74261" lon="6.66641">
        <ele>1427.9</ele>
        <time>2024-05-26T10:36:54Z</time>
      </trkpt>
      <trkpt lat="43.74261" lon="6.66641">
        <ele>1427.9</ele>
        <time>2024-05-26T10:36:55Z</time>
      </trkpt>
      <trkpt lat="43.74261" lon="6.6664">
        <ele>1427.9</ele>
        <time>2024-05-26T10:36:56Z</time>
      </trkpt>
      <trkpt lat="43.74261" lon="6.6664">
        <ele>1427.9</ele>
        <time>2024-05-26T10:36:57Z</time>
      </trkpt>
      <trkpt lat="43.74261" lon="6.6664">
        <ele>1427.9</ele>
        <time>2024-05-26T10:36:58Z</time>
      </trkpt>
      <trkpt lat="43.74261" lon="6.6664">
        <ele>1427.9</ele>
        <time>2024-05-26T10:36:59Z</time>
      </trkpt>
      <trkpt lat="43.74261" lon="6.6664">
        <ele>1427.8</ele>
        <time>2024-05-26T10:37:00Z</time>
      </trkpt>
      <trkpt lat="43.74261" lon="6.6664">
        <ele>1427.8</ele>
        <time>2024-05-26T10:37:01Z</time>
      </trkpt>
      <trkpt lat="43.74261" lon="6.6664">
        <ele>1427.8</ele>
        <time>2024-05-26T10:37:02Z</time>
      </trkpt>
      <trkpt lat="43.74261" lon="6.6664">
        <ele>1427.8</ele>
        <time>2024-05-26T10:37:03Z</time>
      </trkpt>
      <trkpt lat="43.74261" lon="6.6664">
        <ele>1427.8</ele>
        <time>2024-05-26T10:37:04Z</time>
      </trkpt>
      <trkpt lat="43.74261" lon="6.6664">
        <ele>1427.8</ele>
        <time>2024-05-26T10:37:05Z</time>
      </trkpt>
      <trkpt lat="43.74261" lon="6.6664">
        <ele>1427.8</ele>
        <time>2024-05-26T10:37:06Z</time>
      </trkpt>
      <trkpt lat="43.74262" lon="6.6664">
        <ele>1427.8</ele>
        <time>2024-05-26T10:37:07Z</time>
      </trkpt>
      <trkpt lat="43.74262" lon="6.6664">
        <ele>1427.8</ele>
        <time>2024-05-26T10:37:08Z</time>
      </trkpt>
      <trkpt lat="43.74262" lon="6.6664">
        <ele>1427.8</ele>
        <time>2024-05-26T10:37:09Z</time>
      </trkpt>
      <trkpt lat="43.74263" lon="6.66641">
        <ele>1427.8</ele>
        <time>2024-05-26T10:37:10Z</time>
      </trkpt>
      <trkpt lat="43.74263" lon="6.66641">
        <ele>1427.8</ele>
        <time>2024-05-26T10:37:11Z</time>
      </trkpt>
      <trkpt lat="43.74262" lon="6.66641">
        <ele>1427.9</ele>
        <time>2024-05-26T10:37:12Z</time>
      </trkpt>
      <trkpt lat="43.74261" lon="6.66641">
        <ele>1427.9</ele>
        <time>2024-05-26T10:37:13Z</time>
      </trkpt>
      <trkpt lat="43.7426" lon="6.6664">
        <ele>1427.9</ele>
        <time>2024-05-26T10:37:14Z</time>
      </trkpt>
      <trkpt lat="43.7426" lon="6.6664">
        <ele>1427.9</ele>
        <time>2024-05-26T10:37:15Z</time>
      </trkpt>
      <trkpt lat="43.74259" lon="6.6664">
        <ele>1427.8</ele>
        <time>2024-05-26T10:37:16Z</time>
      </trkpt>
      <trkpt lat="43.74258" lon="6.66639">
        <ele>1427.8</ele>
        <time>2024-05-26T10:37:17Z</time>
      </trkpt>
      <trkpt lat="43.74256" lon="6.6664">
        <ele>1427.8</ele>
        <time>2024-05-26T10:37:18Z</time>
      </trkpt>
      <trkpt lat="43.74255" lon="6.6664">
        <ele>1427.7</ele>
        <time>2024-05-26T10:37:19Z</time>
      </trkpt>
      <trkpt lat="43.74255" lon="6.6664">
        <ele>1427.6</ele>
        <time>2024-05-26T10:37:20Z</time>
      </trkpt>
      <trkpt lat="43.74255" lon="6.66641">
        <ele>1427.5</ele>
        <time>2024-05-26T10:37:21Z</time>
      </trkpt>
      <trkpt lat="43.74255" lon="6.66641">
        <ele>1427.5</ele>
        <time>2024-05-26T10:37:22Z</time>
      </trkpt>
      <trkpt lat="43.74255" lon="6.66641">
        <ele>1427.5</ele>
        <time>2024-05-26T10:37:23Z</time>
      </trkpt>
      <trkpt lat="43.74254" lon="6.66641">
        <ele>1427.4</ele>
        <time>2024-05-26T10:37:24Z</time>
      </trkpt>
      <trkpt lat="43.74254" lon="6.66642">
        <ele>1427.4</ele>
        <time>2024-05-26T10:37:25Z</time>
      </trkpt>
      <trkpt lat="43.74254" lon="6.66642">
        <ele>1427.4</ele>
        <time>2024-05-26T10:37:26Z</time>
      </trkpt>
      <trkpt lat="43.74254" lon="6.66642">
        <ele>1427.4</ele>
        <time>2024-05-26T10:37:27Z</time>
      </trkpt>
      <trkpt lat="43.74254" lon="6.66643">
        <ele>1427.3</ele>
        <time>2024-05-26T10:37:28Z</time>
      </trkpt>
      <trkpt lat="43.74254" lon="6.66643">
        <ele>1427.2</ele>
        <time>2024-05-26T10:37:29Z</time>
      </trkpt>
      <trkpt lat="43.74253" lon="6.66643">
        <ele>1427</ele>
        <time>2024-05-26T10:37:30Z</time>
      </trkpt>
      <trkpt lat="43.74253" lon="6.66644">
        <ele>1426.9</ele>
        <time>2024-05-26T10:37:31Z</time>
      </trkpt>
      <trkpt lat="43.74253" lon="6.66644">
        <ele>1426.9</ele>
        <time>2024-05-26T10:37:32Z</time>
      </trkpt>
      <trkpt lat="43.74253" lon="6.66645">
        <ele>1426.8</ele>
        <time>2024-05-26T10:37:33Z</time>
      </trkpt>
      <trkpt lat="43.74253" lon="6.66645">
        <ele>1426.8</ele>
        <time>2024-05-26T10:37:34Z</time>
      </trkpt>
      <trkpt lat="43.74253" lon="6.66645">
        <ele>1426.8</ele>
        <time>2024-05-26T10:37:35Z</time>
      </trkpt>
      <trkpt lat="43.74253" lon="6.66645">
        <ele>1426.9</ele>
        <time>2024-05-26T10:37:36Z</time>
      </trkpt>
      <trkpt lat="43.74253" lon="6.66646">
        <ele>1426.9</ele>
        <time>2024-05-26T10:37:37Z</time>
      </trkpt>
      <trkpt lat="43.74252" lon="6.66646">
        <ele>1426.9</ele>
        <time>2024-05-26T10:37:38Z</time>
      </trkpt>
      <trkpt lat="43.74252" lon="6.66646">
        <ele>1426.9</ele>
        <time>2024-05-26T10:37:39Z</time>
      </trkpt>
      <trkpt lat="43.74252" lon="6.66646">
        <ele>1426.9</ele>
        <time>2024-05-26T10:37:40Z</time>
      </trkpt>
      <trkpt lat="43.74252" lon="6.66646">
        <ele>1427</ele>
        <time>2024-05-26T10:37:41Z</time>
      </trkpt>
      <trkpt lat="43.74252" lon="6.66646">
        <ele>1427</ele>
        <time>2024-05-26T10:37:42Z</time>
      </trkpt>
      <trkpt lat="43.74252" lon="6.66646">
        <ele>1427</ele>
        <time>2024-05-26T10:37:43Z</time>
      </trkpt>
      <trkpt lat="43.74252" lon="6.66646">
        <ele>1427</ele>
        <time>2024-05-26T10:37:44Z</time>
      </trkpt>
      <trkpt lat="43.74251" lon="6.66646">
        <ele>1427</ele>
        <time>2024-05-26T10:37:45Z</time>
      </trkpt>
      <trkpt lat="43.74251" lon="6.66646">
        <ele>1426.9</ele>
        <time>2024-05-26T10:37:46Z</time>
      </trkpt>
      <trkpt lat="43.74251" lon="6.66646">
        <ele>1426.9</ele>
        <time>2024-05-26T10:37:47Z</time>
      </trkpt>
      <trkpt lat="43.74251" lon="6.66646">
        <ele>1427</ele>
        <time>2024-05-26T10:37:48Z</time>
      </trkpt>
      <trkpt lat="43.74251" lon="6.66647">
        <ele>1426.9</ele>
        <time>2024-05-26T10:37:49Z</time>
      </trkpt>
      <trkpt lat="43.74251" lon="6.66646">
        <ele>1427</ele>
        <time>2024-05-26T10:37:50Z</time>
      </trkpt>
      <trkpt lat="43.74251" lon="6.66647">
        <ele>1427.1</ele>
        <time>2024-05-26T10:37:51Z</time>
      </trkpt>
      <trkpt lat="43.74251" lon="6.66646">
        <ele>1427.1</ele>
        <time>2024-05-26T10:37:52Z</time>
      </trkpt>
      <trkpt lat="43.7425" lon="6.66646">
        <ele>1427.2</ele>
        <time>2024-05-26T10:37:53Z</time>
      </trkpt>
      <trkpt lat="43.7425" lon="6.66646">
        <ele>1427.2</ele>
        <time>2024-05-26T10:37:54Z</time>
      </trkpt>
      <trkpt lat="43.7425" lon="6.66646">
        <ele>1427.2</ele>
        <time>2024-05-26T10:37:55Z</time>
      </trkpt>
      <trkpt lat="43.7425" lon="6.66646">
        <ele>1427.2</ele>
        <time>2024-05-26T10:37:56Z</time>
      </trkpt>
      <trkpt lat="43.7425" lon="6.66646">
        <ele>1427.2</ele>
        <time>2024-05-26T10:37:57Z</time>
      </trkpt>
      <trkpt lat="43.74249" lon="6.66646">
        <ele>1427.3</ele>
        <time>2024-05-26T10:37:58Z</time>
      </trkpt>
      <trkpt lat="43.74249" lon="6.66646">
        <ele>1427.3</ele>
        <time>2024-05-26T10:37:59Z</time>
      </trkpt>
      <trkpt lat="43.74249" lon="6.66646">
        <ele>1427.4</ele>
        <time>2024-05-26T10:38:00Z</time>
      </trkpt>
      <trkpt lat="43.74249" lon="6.66646">
        <ele>1427.3</ele>
        <time>2024-05-26T10:38:01Z</time>
      </trkpt>
      <trkpt lat="43.74249" lon="6.66647">
        <ele>1427.4</ele>
        <time>2024-05-26T10:38:02Z</time>
      </trkpt>
      <trkpt lat="43.74248" lon="6.66647">
        <ele>1427.4</ele>
        <time>2024-05-26T10:38:03Z</time>
      </trkpt>
      <trkpt lat="43.74248" lon="6.66648">
        <ele>1427.3</ele>
        <time>2024-05-26T10:38:04Z</time>
      </trkpt>
      <trkpt lat="43.74247" lon="6.66648">
        <ele>1427.3</ele>
        <time>2024-05-26T10:38:05Z</time>
      </trkpt>
      <trkpt lat="43.74247" lon="6.66648">
        <ele>1427.1</ele>
        <time>2024-05-26T10:38:06Z</time>
      </trkpt>
      <trkpt lat="43.74246" lon="6.66647">
        <ele>1427.1</ele>
        <time>2024-05-26T10:38:07Z</time>
      </trkpt>
      <trkpt lat="43.74246" lon="6.66647">
        <ele>1427.1</ele>
        <time>2024-05-26T10:38:08Z</time>
      </trkpt>
      <trkpt lat="43.74246" lon="6.66648">
        <ele>1427.2</ele>
        <time>2024-05-26T10:38:09Z</time>
      </trkpt>
      <trkpt lat="43.74246" lon="6.66649">
        <ele>1427.2</ele>
        <time>2024-05-26T10:38:10Z</time>
      </trkpt>
      <trkpt lat="43.74247" lon="6.6665">
        <ele>1427.2</ele>
        <time>2024-05-26T10:38:11Z</time>
      </trkpt>
      <trkpt lat="43.74248" lon="6.6665">
        <ele>1427.3</ele>
        <time>2024-05-26T10:38:12Z</time>
      </trkpt>
      <trkpt lat="43.74249" lon="6.66651">
        <ele>1427.4</ele>
        <time>2024-05-26T10:38:13Z</time>
      </trkpt>
      <trkpt lat="43.74249" lon="6.66651">
        <ele>1427.5</ele>
        <time>2024-05-26T10:38:14Z</time>
      </trkpt>
      <trkpt lat="43.74249" lon="6.66652">
        <ele>1427.4</ele>
        <time>2024-05-26T10:38:15Z</time>
      </trkpt>
      <trkpt lat="43.74249" lon="6.66652">
        <ele>1427.5</ele>
        <time>2024-05-26T10:38:16Z</time>
      </trkpt>
      <trkpt lat="43.74248" lon="6.66652">
        <ele>1427.4</ele>
        <time>2024-05-26T10:38:17Z</time>
      </trkpt>
      <trkpt lat="43.74248" lon="6.66653">
        <ele>1427.3</ele>
        <time>2024-05-26T10:38:18Z</time>
      </trkpt>
      <trkpt lat="43.74247" lon="6.66654">
        <ele>1427.2</ele>
        <time>2024-05-26T10:38:19Z</time>
      </trkpt>
      <trkpt lat="43.74247" lon="6.66655">
        <ele>1427.1</ele>
        <time>2024-05-26T10:38:20Z</time>
      </trkpt>
      <trkpt lat="43.74246" lon="6.66656">
        <ele>1427.1</ele>
        <time>2024-05-26T10:38:21Z</time>
      </trkpt>
      <trkpt lat="43.74246" lon="6.66657">
        <ele>1427</ele>
        <time>2024-05-26T10:38:22Z</time>
      </trkpt>
      <trkpt lat="43.74245" lon="6.66658">
        <ele>1427</ele>
        <time>2024-05-26T10:38:23Z</time>
      </trkpt>
      <trkpt lat="43.74244" lon="6.6666">
        <ele>1426.9</ele>
        <time>2024-05-26T10:38:24Z</time>
      </trkpt>
      <trkpt lat="43.74244" lon="6.66662">
        <ele>1426.7</ele>
        <time>2024-05-26T10:38:25Z</time>
      </trkpt>
      <trkpt lat="43.74243" lon="6.66664">
        <ele>1426.6</ele>
        <time>2024-05-26T10:38:26Z</time>
      </trkpt>
      <trkpt lat="43.74242" lon="6.66665">
        <ele>1426.5</ele>
        <time>2024-05-26T10:38:27Z</time>
      </trkpt>
      <trkpt lat="43.74242" lon="6.66667">
        <ele>1426.4</ele>
        <time>2024-05-26T10:38:28Z</time>
      </trkpt>
      <trkpt lat="43.74242" lon="6.66668">
        <ele>1426.3</ele>
        <time>2024-05-26T10:38:29Z</time>
      </trkpt>
      <trkpt lat="43.74241" lon="6.66669">
        <ele>1426.3</ele>
        <time>2024-05-26T10:38:30Z</time>
      </trkpt>
      <trkpt lat="43.74241" lon="6.6667">
        <ele>1426.2</ele>
        <time>2024-05-26T10:38:31Z</time>
      </trkpt>
      <trkpt lat="43.7424" lon="6.66671">
        <ele>1426.1</ele>
        <time>2024-05-26T10:38:32Z</time>
      </trkpt>
      <trkpt lat="43.74239" lon="6.66672">
        <ele>1426.1</ele>
        <time>2024-05-26T10:38:33Z</time>
      </trkpt>
      <trkpt lat="43.74239" lon="6.66672">
        <ele>1426</ele>
        <time>2024-05-26T10:38:34Z</time>
      </trkpt>
      <trkpt lat="43.74238" lon="6.66673">
        <ele>1425.8</ele>
        <time>2024-05-26T10:38:35Z</time>
      </trkpt>
      <trkpt lat="43.74237" lon="6.66674">
        <ele>1425.7</ele>
        <time>2024-05-26T10:38:36Z</time>
      </trkpt>
      <trkpt lat="43.74237" lon="6.66676">
        <ele>1425.6</ele>
        <time>2024-05-26T10:38:37Z</time>
      </trkpt>
      <trkpt lat="43.74236" lon="6.66677">
        <ele>1425.3</ele>
        <time>2024-05-26T10:38:38Z</time>
      </trkpt>
      <trkpt lat="43.74235" lon="6.66679">
        <ele>1425</ele>
        <time>2024-05-26T10:38:39Z</time>
      </trkpt>
      <trkpt lat="43.74234" lon="6.6668">
        <ele>1424.9</ele>
        <time>2024-05-26T10:38:40Z</time>
      </trkpt>
      <trkpt lat="43.74233" lon="6.66681">
        <ele>1424.8</ele>
        <time>2024-05-26T10:38:41Z</time>
      </trkpt>
      <trkpt lat="43.74233" lon="6.66682">
        <ele>1424.7</ele>
        <time>2024-05-26T10:38:42Z</time>
      </trkpt>
      <trkpt lat="43.74232" lon="6.66683">
        <ele>1424.5</ele>
        <time>2024-05-26T10:38:43Z</time>
      </trkpt>
      <trkpt lat="43.74231" lon="6.66684">
        <ele>1424.2</ele>
        <time>2024-05-26T10:38:44Z</time>
      </trkpt>
      <trkpt lat="43.74231" lon="6.66685">
        <ele>1424</ele>
        <time>2024-05-26T10:38:45Z</time>
      </trkpt>
      <trkpt lat="43.74231" lon="6.66686">
        <ele>1423.9</ele>
        <time>2024-05-26T10:38:46Z</time>
      </trkpt>
      <trkpt lat="43.74231" lon="6.66688">
        <ele>1423.7</ele>
        <time>2024-05-26T10:38:47Z</time>
      </trkpt>
      <trkpt lat="43.7423" lon="6.66689">
        <ele>1423.6</ele>
        <time>2024-05-26T10:38:48Z</time>
      </trkpt>
      <trkpt lat="43.7423" lon="6.66691">
        <ele>1423.4</ele>
        <time>2024-05-26T10:38:49Z</time>
      </trkpt>
      <trkpt lat="43.7423" lon="6.66692">
        <ele>1423.3</ele>
        <time>2024-05-26T10:38:50Z</time>
      </trkpt>
      <trkpt lat="43.74229" lon="6.66694">
        <ele>1423.2</ele>
        <time>2024-05-26T10:38:51Z</time>
      </trkpt>
      <trkpt lat="43.74229" lon="6.66695">
        <ele>1423.1</ele>
        <time>2024-05-26T10:38:52Z</time>
      </trkpt>
      <trkpt lat="43.74228" lon="6.66697">
        <ele>1422.9</ele>
        <time>2024-05-26T10:38:53Z</time>
      </trkpt>
      <trkpt lat="43.74227" lon="6.66698">
        <ele>1422.7</ele>
        <time>2024-05-26T10:38:54Z</time>
      </trkpt>
      <trkpt lat="43.74227" lon="6.66698">
        <ele>1422.5</ele>
        <time>2024-05-26T10:38:55Z</time>
      </trkpt>
      <trkpt lat="43.74225" lon="6.66699">
        <ele>1422.4</ele>
        <time>2024-05-26T10:38:56Z</time>
      </trkpt>
      <trkpt lat="43.74224" lon="6.667">
        <ele>1422.1</ele>
        <time>2024-05-26T10:38:57Z</time>
      </trkpt>
      <trkpt lat="43.74223" lon="6.66702">
        <ele>1421.9</ele>
        <time>2024-05-26T10:38:58Z</time>
      </trkpt>
      <trkpt lat="43.74223" lon="6.66703">
        <ele>1421.8</ele>
        <time>2024-05-26T10:38:59Z</time>
      </trkpt>
      <trkpt lat="43.74222" lon="6.66704">
        <ele>1421.5</ele>
        <time>2024-05-26T10:39:00Z</time>
      </trkpt>
      <trkpt lat="43.74222" lon="6.66704">
        <ele>1421.3</ele>
        <time>2024-05-26T10:39:01Z</time>
      </trkpt>
      <trkpt lat="43.74222" lon="6.66705">
        <ele>1421.1</ele>
        <time>2024-05-26T10:39:02Z</time>
      </trkpt>
      <trkpt lat="43.74222" lon="6.66705">
        <ele>1421</ele>
        <time>2024-05-26T10:39:03Z</time>
      </trkpt>
      <trkpt lat="43.74221" lon="6.66705">
        <ele>1420.9</ele>
        <time>2024-05-26T10:39:04Z</time>
      </trkpt>
      <trkpt lat="43.74221" lon="6.66705">
        <ele>1420.8</ele>
        <time>2024-05-26T10:39:05Z</time>
      </trkpt>
      <trkpt lat="43.74221" lon="6.66706">
        <ele>1420.8</ele>
        <time>2024-05-26T10:39:06Z</time>
      </trkpt>
      <trkpt lat="43.74221" lon="6.66706">
        <ele>1420.7</ele>
        <time>2024-05-26T10:39:07Z</time>
      </trkpt>
      <trkpt lat="43.74221" lon="6.66707">
        <ele>1420.6</ele>
        <time>2024-05-26T10:39:08Z</time>
      </trkpt>
      <trkpt lat="43.7422" lon="6.66707">
        <ele>1420.5</ele>
        <time>2024-05-26T10:39:09Z</time>
      </trkpt>
      <trkpt lat="43.7422" lon="6.66707">
        <ele>1420.4</ele>
        <time>2024-05-26T10:39:10Z</time>
      </trkpt>
      <trkpt lat="43.74219" lon="6.66708">
        <ele>1420.4</ele>
        <time>2024-05-26T10:39:11Z</time>
      </trkpt>
      <trkpt lat="43.74219" lon="6.66709">
        <ele>1420.3</ele>
        <time>2024-05-26T10:39:12Z</time>
      </trkpt>
      <trkpt lat="43.74218" lon="6.6671">
        <ele>1420.2</ele>
        <time>2024-05-26T10:39:13Z</time>
      </trkpt>
      <trkpt lat="43.74218" lon="6.66711">
        <ele>1420.2</ele>
        <time>2024-05-26T10:39:14Z</time>
      </trkpt>
      <trkpt lat="43.74217" lon="6.66712">
        <ele>1420.1</ele>
        <time>2024-05-26T10:39:15Z</time>
      </trkpt>
      <trkpt lat="43.74217" lon="6.66714">
        <ele>1420.1</ele>
        <time>2024-05-26T10:39:16Z</time>
      </trkpt>
      <trkpt lat="43.74216" lon="6.66715">
        <ele>1420</ele>
        <time>2024-05-26T10:39:17Z</time>
      </trkpt>
      <trkpt lat="43.74216" lon="6.66716">
        <ele>1419.9</ele>
        <time>2024-05-26T10:39:18Z</time>
      </trkpt>
      <trkpt lat="43.74216" lon="6.66717">
        <ele>1419.8</ele>
        <time>2024-05-26T10:39:19Z</time>
      </trkpt>
      <trkpt lat="43.74215" lon="6.66718">
        <ele>1419.6</ele>
        <time>2024-05-26T10:39:20Z</time>
      </trkpt>
      <trkpt lat="43.74215" lon="6.6672">
        <ele>1419.4</ele>
        <time>2024-05-26T10:39:21Z</time>
      </trkpt>
      <trkpt lat="43.74215" lon="6.66721">
        <ele>1419.3</ele>
        <time>2024-05-26T10:39:22Z</time>
      </trkpt>
      <trkpt lat="43.74214" lon="6.66723">
        <ele>1419.1</ele>
        <time>2024-05-26T10:39:23Z</time>
      </trkpt>
      <trkpt lat="43.74213" lon="6.66724">
        <ele>1419</ele>
        <time>2024-05-26T10:39:24Z</time>
      </trkpt>
      <trkpt lat="43.74213" lon="6.66726">
        <ele>1418.9</ele>
        <time>2024-05-26T10:39:25Z</time>
      </trkpt>
      <trkpt lat="43.74213" lon="6.66727">
        <ele>1418.7</ele>
        <time>2024-05-26T10:39:26Z</time>
      </trkpt>
      <trkpt lat="43.74213" lon="6.66728">
        <ele>1418.5</ele>
        <time>2024-05-26T10:39:27Z</time>
      </trkpt>
      <trkpt lat="43.74213" lon="6.6673">
        <ele>1418.3</ele>
        <time>2024-05-26T10:39:28Z</time>
      </trkpt>
      <trkpt lat="43.74212" lon="6.66731">
        <ele>1418</ele>
        <time>2024-05-26T10:39:29Z</time>
      </trkpt>
      <trkpt lat="43.74212" lon="6.66732">
        <ele>1417.8</ele>
        <time>2024-05-26T10:39:30Z</time>
      </trkpt>
      <trkpt lat="43.74212" lon="6.66733">
        <ele>1417.7</ele>
        <time>2024-05-26T10:39:31Z</time>
      </trkpt>
      <trkpt lat="43.74211" lon="6.66734">
        <ele>1417.5</ele>
        <time>2024-05-26T10:39:32Z</time>
      </trkpt>
      <trkpt lat="43.74211" lon="6.66735">
        <ele>1417.4</ele>
        <time>2024-05-26T10:39:33Z</time>
      </trkpt>
      <trkpt lat="43.7421" lon="6.66736">
        <ele>1417.2</ele>
        <time>2024-05-26T10:39:34Z</time>
      </trkpt>
      <trkpt lat="43.74209" lon="6.66737">
        <ele>1417</ele>
        <time>2024-05-26T10:39:35Z</time>
      </trkpt>
      <trkpt lat="43.74208" lon="6.66738">
        <ele>1416.7</ele>
        <time>2024-05-26T10:39:36Z</time>
      </trkpt>
      <trkpt lat="43.74207" lon="6.6674">
        <ele>1416.5</ele>
        <time>2024-05-26T10:39:37Z</time>
      </trkpt>
      <trkpt lat="43.74207" lon="6.66742">
        <ele>1416.3</ele>
        <time>2024-05-26T10:39:38Z</time>
      </trkpt>
      <trkpt lat="43.74207" lon="6.66745">
        <ele>1416</ele>
        <time>2024-05-26T10:39:39Z</time>
      </trkpt>
      <trkpt lat="43.74206" lon="6.66747">
        <ele>1415.8</ele>
        <time>2024-05-26T10:39:40Z</time>
      </trkpt>
      <trkpt lat="43.74206" lon="6.66749">
        <ele>1415.6</ele>
        <time>2024-05-26T10:39:41Z</time>
      </trkpt>
      <trkpt lat="43.74205" lon="6.66751">
        <ele>1415.3</ele>
        <time>2024-05-26T10:39:42Z</time>
      </trkpt>
      <trkpt lat="43.74205" lon="6.66753">
        <ele>1415.1</ele>
        <time>2024-05-26T10:39:43Z</time>
      </trkpt>
      <trkpt lat="43.74205" lon="6.66755">
        <ele>1414.9</ele>
        <time>2024-05-26T10:39:44Z</time>
      </trkpt>
      <trkpt lat="43.74205" lon="6.66756">
        <ele>1414.8</ele>
        <time>2024-05-26T10:39:45Z</time>
      </trkpt>
      <trkpt lat="43.74205" lon="6.66758">
        <ele>1414.6</ele>
        <time>2024-05-26T10:39:46Z</time>
      </trkpt>
      <trkpt lat="43.74204" lon="6.66759">
        <ele>1414.5</ele>
        <time>2024-05-26T10:39:47Z</time>
      </trkpt>
      <trkpt lat="43.74204" lon="6.6676">
        <ele>1414.4</ele>
        <time>2024-05-26T10:39:48Z</time>
      </trkpt>
      <trkpt lat="43.74203" lon="6.66762">
        <ele>1414.2</ele>
        <time>2024-05-26T10:39:49Z</time>
      </trkpt>
      <trkpt lat="43.74202" lon="6.66763">
        <ele>1414.1</ele>
        <time>2024-05-26T10:39:50Z</time>
      </trkpt>
      <trkpt lat="43.74201" lon="6.66764">
        <ele>1414</ele>
        <time>2024-05-26T10:39:51Z</time>
      </trkpt>
      <trkpt lat="43.742" lon="6.66766">
        <ele>1413.9</ele>
        <time>2024-05-26T10:39:52Z</time>
      </trkpt>
      <trkpt lat="43.742" lon="6.66768">
        <ele>1413.7</ele>
        <time>2024-05-26T10:39:53Z</time>
      </trkpt>
      <trkpt lat="43.742" lon="6.6677">
        <ele>1413.5</ele>
        <time>2024-05-26T10:39:54Z</time>
      </trkpt>
      <trkpt lat="43.74199" lon="6.66772">
        <ele>1413.3</ele>
        <time>2024-05-26T10:39:55Z</time>
      </trkpt>
      <trkpt lat="43.74199" lon="6.66773">
        <ele>1413.2</ele>
        <time>2024-05-26T10:39:56Z</time>
      </trkpt>
      <trkpt lat="43.74199" lon="6.66775">
        <ele>1413.1</ele>
        <time>2024-05-26T10:39:57Z</time>
      </trkpt>
      <trkpt lat="43.74199" lon="6.66776">
        <ele>1413.1</ele>
        <time>2024-05-26T10:39:58Z</time>
      </trkpt>
      <trkpt lat="43.74199" lon="6.66778">
        <ele>1413</ele>
        <time>2024-05-26T10:39:59Z</time>
      </trkpt>
      <trkpt lat="43.74199" lon="6.6678">
        <ele>1412.9</ele>
        <time>2024-05-26T10:40:00Z</time>
      </trkpt>
      <trkpt lat="43.74198" lon="6.66782">
        <ele>1412.8</ele>
        <time>2024-05-26T10:40:01Z</time>
      </trkpt>
      <trkpt lat="43.74198" lon="6.66784">
        <ele>1412.8</ele>
        <time>2024-05-26T10:40:02Z</time>
      </trkpt>
      <trkpt lat="43.74198" lon="6.66786">
        <ele>1412.7</ele>
        <time>2024-05-26T10:40:03Z</time>
      </trkpt>
      <trkpt lat="43.74198" lon="6.66787">
        <ele>1412.6</ele>
        <time>2024-05-26T10:40:04Z</time>
      </trkpt>
      <trkpt lat="43.74197" lon="6.66789">
        <ele>1412.5</ele>
        <time>2024-05-26T10:40:05Z</time>
      </trkpt>
      <trkpt lat="43.74197" lon="6.66791">
        <ele>1412.4</ele>
        <time>2024-05-26T10:40:06Z</time>
      </trkpt>
      <trkpt lat="43.74196" lon="6.66794">
        <ele>1412.3</ele>
        <time>2024-05-26T10:40:07Z</time>
      </trkpt>
      <trkpt lat="43.74196" lon="6.66796">
        <ele>1412.2</ele>
        <time>2024-05-26T10:40:08Z</time>
      </trkpt>
      <trkpt lat="43.74195" lon="6.66797">
        <ele>1412.1</ele>
        <time>2024-05-26T10:40:09Z</time>
      </trkpt>
      <trkpt lat="43.74195" lon="6.66799">
        <ele>1412.1</ele>
        <time>2024-05-26T10:40:10Z</time>
      </trkpt>
      <trkpt lat="43.74195" lon="6.66801">
        <ele>1412</ele>
        <time>2024-05-26T10:40:11Z</time>
      </trkpt>
      <trkpt lat="43.74194" lon="6.66802">
        <ele>1412</ele>
        <time>2024-05-26T10:40:12Z</time>
      </trkpt>
      <trkpt lat="43.74194" lon="6.66804">
        <ele>1411.8</ele>
        <time>2024-05-26T10:40:13Z</time>
      </trkpt>
      <trkpt lat="43.74193" lon="6.66805">
        <ele>1411.8</ele>
        <time>2024-05-26T10:40:14Z</time>
      </trkpt>
      <trkpt lat="43.74193" lon="6.66806">
        <ele>1411.6</ele>
        <time>2024-05-26T10:40:15Z</time>
      </trkpt>
      <trkpt lat="43.74193" lon="6.66808">
        <ele>1411.5</ele>
        <time>2024-05-26T10:40:16Z</time>
      </trkpt>
      <trkpt lat="43.74192" lon="6.66809">
        <ele>1411.3</ele>
        <time>2024-05-26T10:40:17Z</time>
      </trkpt>
      <trkpt lat="43.74192" lon="6.66811">
        <ele>1411.2</ele>
        <time>2024-05-26T10:40:18Z</time>
      </trkpt>
      <trkpt lat="43.74191" lon="6.66812">
        <ele>1411</ele>
        <time>2024-05-26T10:40:19Z</time>
      </trkpt>
      <trkpt lat="43.7419" lon="6.66814">
        <ele>1410.9</ele>
        <time>2024-05-26T10:40:20Z</time>
      </trkpt>
      <trkpt lat="43.7419" lon="6.66816">
        <ele>1410.8</ele>
        <time>2024-05-26T10:40:21Z</time>
      </trkpt>
      <trkpt lat="43.74189" lon="6.66818">
        <ele>1410.8</ele>
        <time>2024-05-26T10:40:22Z</time>
      </trkpt>
      <trkpt lat="43.74189" lon="6.6682">
        <ele>1410.7</ele>
        <time>2024-05-26T10:40:23Z</time>
      </trkpt>
      <trkpt lat="43.74189" lon="6.66822">
        <ele>1410.7</ele>
        <time>2024-05-26T10:40:24Z</time>
      </trkpt>
      <trkpt lat="43.74189" lon="6.66824">
        <ele>1410.6</ele>
        <time>2024-05-26T10:40:25Z</time>
      </trkpt>
      <trkpt lat="43.74189" lon="6.66826">
        <ele>1410.5</ele>
        <time>2024-05-26T10:40:26Z</time>
      </trkpt>
      <trkpt lat="43.74189" lon="6.66827">
        <ele>1410.5</ele>
        <time>2024-05-26T10:40:27Z</time>
      </trkpt>
      <trkpt lat="43.74188" lon="6.66829">
        <ele>1410.6</ele>
        <time>2024-05-26T10:40:28Z</time>
      </trkpt>
      <trkpt lat="43.74188" lon="6.66831">
        <ele>1410.4</ele>
        <time>2024-05-26T10:40:29Z</time>
      </trkpt>
      <trkpt lat="43.74188" lon="6.66833">
        <ele>1410.3</ele>
        <time>2024-05-26T10:40:30Z</time>
      </trkpt>
      <trkpt lat="43.74188" lon="6.66836">
        <ele>1410.2</ele>
        <time>2024-05-26T10:40:31Z</time>
      </trkpt>
      <trkpt lat="43.74189" lon="6.66838">
        <ele>1410.2</ele>
        <time>2024-05-26T10:40:32Z</time>
      </trkpt>
      <trkpt lat="43.74189" lon="6.6684">
        <ele>1410.2</ele>
        <time>2024-05-26T10:40:33Z</time>
      </trkpt>
      <trkpt lat="43.7419" lon="6.66842">
        <ele>1410.1</ele>
        <time>2024-05-26T10:40:34Z</time>
      </trkpt>
      <trkpt lat="43.7419" lon="6.66843">
        <ele>1410</ele>
        <time>2024-05-26T10:40:35Z</time>
      </trkpt>
      <trkpt lat="43.7419" lon="6.66845">
        <ele>1409.8</ele>
        <time>2024-05-26T10:40:36Z</time>
      </trkpt>
      <trkpt lat="43.7419" lon="6.66847">
        <ele>1409.8</ele>
        <time>2024-05-26T10:40:37Z</time>
      </trkpt>
      <trkpt lat="43.7419" lon="6.66849">
        <ele>1409.7</ele>
        <time>2024-05-26T10:40:38Z</time>
      </trkpt>
      <trkpt lat="43.7419" lon="6.66851">
        <ele>1409.7</ele>
        <time>2024-05-26T10:40:39Z</time>
      </trkpt>
      <trkpt lat="43.74191" lon="6.66853">
        <ele>1409.6</ele>
        <time>2024-05-26T10:40:40Z</time>
      </trkpt>
      <trkpt lat="43.74191" lon="6.66855">
        <ele>1409.6</ele>
        <time>2024-05-26T10:40:41Z</time>
      </trkpt>
      <trkpt lat="43.74191" lon="6.66856">
        <ele>1409.6</ele>
        <time>2024-05-26T10:40:42Z</time>
      </trkpt>
      <trkpt lat="43.74191" lon="6.66858">
        <ele>1409.6</ele>
        <time>2024-05-26T10:40:43Z</time>
      </trkpt>
      <trkpt lat="43.7419" lon="6.6686">
        <ele>1409.6</ele>
        <time>2024-05-26T10:40:44Z</time>
      </trkpt>
      <trkpt lat="43.7419" lon="6.66861">
        <ele>1409.5</ele>
        <time>2024-05-26T10:40:45Z</time>
      </trkpt>
      <trkpt lat="43.74189" lon="6.66863">
        <ele>1409.4</ele>
        <time>2024-05-26T10:40:46Z</time>
      </trkpt>
      <trkpt lat="43.74189" lon="6.66865">
        <ele>1409.4</ele>
        <time>2024-05-26T10:40:47Z</time>
      </trkpt>
      <trkpt lat="43.74189" lon="6.66868">
        <ele>1409.3</ele>
        <time>2024-05-26T10:40:48Z</time>
      </trkpt>
      <trkpt lat="43.74189" lon="6.6687">
        <ele>1409.2</ele>
        <time>2024-05-26T10:40:49Z</time>
      </trkpt>
      <trkpt lat="43.74189" lon="6.66872">
        <ele>1409.2</ele>
        <time>2024-05-26T10:40:50Z</time>
      </trkpt>
      <trkpt lat="43.74189" lon="6.66873">
        <ele>1409.1</ele>
        <time>2024-05-26T10:40:51Z</time>
      </trkpt>
      <trkpt lat="43.74189" lon="6.66875">
        <ele>1409.2</ele>
        <time>2024-05-26T10:40:52Z</time>
      </trkpt>
      <trkpt lat="43.74189" lon="6.66877">
        <ele>1409.2</ele>
        <time>2024-05-26T10:40:53Z</time>
      </trkpt>
      <trkpt lat="43.74189" lon="6.66879">
        <ele>1409.1</ele>
        <time>2024-05-26T10:40:54Z</time>
      </trkpt>
      <trkpt lat="43.74189" lon="6.6688">
        <ele>1409.1</ele>
        <time>2024-05-26T10:40:55Z</time>
      </trkpt>
      <trkpt lat="43.74189" lon="6.66881">
        <ele>1408.9</ele>
        <time>2024-05-26T10:40:56Z</time>
      </trkpt>
      <trkpt lat="43.74189" lon="6.66883">
        <ele>1408.8</ele>
        <time>2024-05-26T10:40:57Z</time>
      </trkpt>
      <trkpt lat="43.74188" lon="6.66884">
        <ele>1408.7</ele>
        <time>2024-05-26T10:40:58Z</time>
      </trkpt>
      <trkpt lat="43.74188" lon="6.66886">
        <ele>1408.7</ele>
        <time>2024-05-26T10:40:59Z</time>
      </trkpt>
      <trkpt lat="43.74187" lon="6.66888">
        <ele>1408.6</ele>
        <time>2024-05-26T10:41:00Z</time>
      </trkpt>
      <trkpt lat="43.74187" lon="6.6689">
        <ele>1408.5</ele>
        <time>2024-05-26T10:41:01Z</time>
      </trkpt>
      <trkpt lat="43.74187" lon="6.66892">
        <ele>1408.4</ele>
        <time>2024-05-26T10:41:02Z</time>
      </trkpt>
      <trkpt lat="43.74187" lon="6.66894">
        <ele>1408.4</ele>
        <time>2024-05-26T10:41:03Z</time>
      </trkpt>
      <trkpt lat="43.74187" lon="6.66896">
        <ele>1408.3</ele>
        <time>2024-05-26T10:41:04Z</time>
      </trkpt>
      <trkpt lat="43.74187" lon="6.66897">
        <ele>1408.3</ele>
        <time>2024-05-26T10:41:05Z</time>
      </trkpt>
      <trkpt lat="43.74187" lon="6.66898">
        <ele>1408.2</ele>
        <time>2024-05-26T10:41:06Z</time>
      </trkpt>
      <trkpt lat="43.74187" lon="6.669">
        <ele>1408.3</ele>
        <time>2024-05-26T10:41:07Z</time>
      </trkpt>
      <trkpt lat="43.74188" lon="6.66901">
        <ele>1408.3</ele>
        <time>2024-05-26T10:41:08Z</time>
      </trkpt>
      <trkpt lat="43.74189" lon="6.66903">
        <ele>1408.3</ele>
        <time>2024-05-26T10:41:09Z</time>
      </trkpt>
      <trkpt lat="43.74189" lon="6.66903">
        <ele>1408.3</ele>
        <time>2024-05-26T10:41:10Z</time>
      </trkpt>
      <trkpt lat="43.7419" lon="6.66904">
        <ele>1408.3</ele>
        <time>2024-05-26T10:41:11Z</time>
      </trkpt>
      <trkpt lat="43.7419" lon="6.66906">
        <ele>1408.2</ele>
        <time>2024-05-26T10:41:12Z</time>
      </trkpt>
      <trkpt lat="43.74191" lon="6.66907">
        <ele>1408.3</ele>
        <time>2024-05-26T10:41:13Z</time>
      </trkpt>
      <trkpt lat="43.74191" lon="6.66907">
        <ele>1408.4</ele>
        <time>2024-05-26T10:41:14Z</time>
      </trkpt>
      <trkpt lat="43.74192" lon="6.66909">
        <ele>1408.4</ele>
        <time>2024-05-26T10:41:15Z</time>
      </trkpt>
      <trkpt lat="43.74193" lon="6.6691">
        <ele>1408.3</ele>
        <time>2024-05-26T10:41:16Z</time>
      </trkpt>
      <trkpt lat="43.74193" lon="6.66912">
        <ele>1408.3</ele>
        <time>2024-05-26T10:41:17Z</time>
      </trkpt>
      <trkpt lat="43.74194" lon="6.66914">
        <ele>1408.3</ele>
        <time>2024-05-26T10:41:18Z</time>
      </trkpt>
      <trkpt lat="43.74195" lon="6.66917">
        <ele>1408.3</ele>
        <time>2024-05-26T10:41:19Z</time>
      </trkpt>
      <trkpt lat="43.74196" lon="6.66918">
        <ele>1408.3</ele>
        <time>2024-05-26T10:41:20Z</time>
      </trkpt>
      <trkpt lat="43.74197" lon="6.66921">
        <ele>1408.4</ele>
        <time>2024-05-26T10:41:21Z</time>
      </trkpt>
      <trkpt lat="43.74198" lon="6.66921">
        <ele>1408.5</ele>
        <time>2024-05-26T10:41:22Z</time>
      </trkpt>
      <trkpt lat="43.74198" lon="6.66923">
        <ele>1408.5</ele>
        <time>2024-05-26T10:41:23Z</time>
      </trkpt>
      <trkpt lat="43.74199" lon="6.66924">
        <ele>1408.6</ele>
        <time>2024-05-26T10:41:24Z</time>
      </trkpt>
      <trkpt lat="43.74199" lon="6.66925">
        <ele>1408.6</ele>
        <time>2024-05-26T10:41:25Z</time>
      </trkpt>
      <trkpt lat="43.74199" lon="6.66927">
        <ele>1408.6</ele>
        <time>2024-05-26T10:41:26Z</time>
      </trkpt>
      <trkpt lat="43.742" lon="6.66928">
        <ele>1408.6</ele>
        <time>2024-05-26T10:41:27Z</time>
      </trkpt>
      <trkpt lat="43.742" lon="6.6693">
        <ele>1408.6</ele>
        <time>2024-05-26T10:41:28Z</time>
      </trkpt>
      <trkpt lat="43.74201" lon="6.66931">
        <ele>1408.6</ele>
        <time>2024-05-26T10:41:29Z</time>
      </trkpt>
      <trkpt lat="43.74202" lon="6.66931">
        <ele>1408.7</ele>
        <time>2024-05-26T10:41:30Z</time>
      </trkpt>
      <trkpt lat="43.74202" lon="6.66933">
        <ele>1408.7</ele>
        <time>2024-05-26T10:41:31Z</time>
      </trkpt>
      <trkpt lat="43.74202" lon="6.66934">
        <ele>1408.7</ele>
        <time>2024-05-26T10:41:32Z</time>
      </trkpt>
      <trkpt lat="43.74202" lon="6.66934">
        <ele>1408.7</ele>
        <time>2024-05-26T10:41:33Z</time>
      </trkpt>
      <trkpt lat="43.74202" lon="6.66935">
        <ele>1408.6</ele>
        <time>2024-05-26T10:41:34Z</time>
      </trkpt>
      <trkpt lat="43.74202" lon="6.66935">
        <ele>1408.7</ele>
        <time>2024-05-26T10:41:35Z</time>
      </trkpt>
      <trkpt lat="43.74203" lon="6.66936">
        <ele>1408.7</ele>
        <time>2024-05-26T10:41:36Z</time>
      </trkpt>
      <trkpt lat="43.74202" lon="6.66937">
        <ele>1408.7</ele>
        <time>2024-05-26T10:41:37Z</time>
      </trkpt>
      <trkpt lat="43.74202" lon="6.66938">
        <ele>1408.7</ele>
        <time>2024-05-26T10:41:38Z</time>
      </trkpt>
      <trkpt lat="43.74202" lon="6.66938">
        <ele>1408.8</ele>
        <time>2024-05-26T10:41:39Z</time>
      </trkpt>
      <trkpt lat="43.74203" lon="6.66939">
        <ele>1408.8</ele>
        <time>2024-05-26T10:41:40Z</time>
      </trkpt>
      <trkpt lat="43.74203" lon="6.66939">
        <ele>1408.9</ele>
        <time>2024-05-26T10:41:41Z</time>
      </trkpt>
      <trkpt lat="43.74204" lon="6.66939">
        <ele>1409</ele>
        <time>2024-05-26T10:41:42Z</time>
      </trkpt>
      <trkpt lat="43.74204" lon="6.6694">
        <ele>1409.1</ele>
        <time>2024-05-26T10:41:43Z</time>
      </trkpt>
      <trkpt lat="43.74205" lon="6.66941">
        <ele>1409</ele>
        <time>2024-05-26T10:41:44Z</time>
      </trkpt>
      <trkpt lat="43.74205" lon="6.66942">
        <ele>1409</ele>
        <time>2024-05-26T10:41:45Z</time>
      </trkpt>
      <trkpt lat="43.74205" lon="6.66943">
        <ele>1409.1</ele>
        <time>2024-05-26T10:41:46Z</time>
      </trkpt>
      <trkpt lat="43.74205" lon="6.66944">
        <ele>1409.3</ele>
        <time>2024-05-26T10:41:47Z</time>
      </trkpt>
      <trkpt lat="43.74205" lon="6.66945">
        <ele>1409.4</ele>
        <time>2024-05-26T10:41:48Z</time>
      </trkpt>
      <trkpt lat="43.74204" lon="6.66946">
        <ele>1409.4</ele>
        <time>2024-05-26T10:41:49Z</time>
      </trkpt>
      <trkpt lat="43.74204" lon="6.66947">
        <ele>1409.5</ele>
        <time>2024-05-26T10:41:50Z</time>
      </trkpt>
      <trkpt lat="43.74203" lon="6.66947">
        <ele>1409.6</ele>
        <time>2024-05-26T10:41:51Z</time>
      </trkpt>
      <trkpt lat="43.74203" lon="6.66948">
        <ele>1409.6</ele>
        <time>2024-05-26T10:41:52Z</time>
      </trkpt>
      <trkpt lat="43.74202" lon="6.66948">
        <ele>1409.7</ele>
        <time>2024-05-26T10:41:53Z</time>
      </trkpt>
      <trkpt lat="43.74201" lon="6.66948">
        <ele>1409.8</ele>
        <time>2024-05-26T10:41:54Z</time>
      </trkpt>
      <trkpt lat="43.74201" lon="6.66949">
        <ele>1409.9</ele>
        <time>2024-05-26T10:41:55Z</time>
      </trkpt>
      <trkpt lat="43.74201" lon="6.66949">
        <ele>1409.9</ele>
        <time>2024-05-26T10:41:56Z</time>
      </trkpt>
      <trkpt lat="43.74201" lon="6.66949">
        <ele>1410</ele>
        <time>2024-05-26T10:41:57Z</time>
      </trkpt>
      <trkpt lat="43.74201" lon="6.66949">
        <ele>1410.1</ele>
        <time>2024-05-26T10:41:58Z</time>
      </trkpt>
      <trkpt lat="43.74201" lon="6.66949">
        <ele>1410.2</ele>
        <time>2024-05-26T10:41:59Z</time>
      </trkpt>
      <trkpt lat="43.74201" lon="6.66949">
        <ele>1410.3</ele>
        <time>2024-05-26T10:42:00Z</time>
      </trkpt>
      <trkpt lat="43.74201" lon="6.66949">
        <ele>1410.3</ele>
        <time>2024-05-26T10:42:01Z</time>
      </trkpt>
      <trkpt lat="43.74201" lon="6.66949">
        <ele>1410.4</ele>
        <time>2024-05-26T10:42:02Z</time>
      </trkpt>
      <trkpt lat="43.74201" lon="6.66949">
        <ele>1410.3</ele>
        <time>2024-05-26T10:42:03Z</time>
      </trkpt>
      <trkpt lat="43.74201" lon="6.66949">
        <ele>1410.3</ele>
        <time>2024-05-26T10:42:04Z</time>
      </trkpt>
      <trkpt lat="43.74201" lon="6.66949">
        <ele>1410.3</ele>
        <time>2024-05-26T10:42:05Z</time>
      </trkpt>
      <trkpt lat="43.74201" lon="6.66949">
        <ele>1410.3</ele>
        <time>2024-05-26T10:42:06Z</time>
      </trkpt>
      <trkpt lat="43.74201" lon="6.66949">
        <ele>1410.3</ele>
        <time>2024-05-26T10:42:07Z</time>
      </trkpt>
      <trkpt lat="43.74201" lon="6.66949">
        <ele>1410.3</ele>
        <time>2024-05-26T10:42:08Z</time>
      </trkpt>
      <trkpt lat="43.74201" lon="6.66949">
        <ele>1410.3</ele>
        <time>2024-05-26T10:42:09Z</time>
      </trkpt>
      <trkpt lat="43.74201" lon="6.66949">
        <ele>1410.2</ele>
        <time>2024-05-26T10:42:10Z</time>
      </trkpt>
      <trkpt lat="43.74201" lon="6.66948">
        <ele>1410.2</ele>
        <time>2024-05-26T10:42:11Z</time>
      </trkpt>
      <trkpt lat="43.74201" lon="6.66948">
        <ele>1410.2</ele>
        <time>2024-05-26T10:42:12Z</time>
      </trkpt>
      <trkpt lat="43.74201" lon="6.66948">
        <ele>1410.2</ele>
        <time>2024-05-26T10:42:13Z</time>
      </trkpt>
      <trkpt lat="43.74202" lon="6.66949">
        <ele>1410.2</ele>
        <time>2024-05-26T10:42:14Z</time>
      </trkpt>
      <trkpt lat="43.74201" lon="6.6695">
        <ele>1410.2</ele>
        <time>2024-05-26T10:42:15Z</time>
      </trkpt>
      <trkpt lat="43.74202" lon="6.66952">
        <ele>1410.2</ele>
        <time>2024-05-26T10:42:16Z</time>
      </trkpt>
      <trkpt lat="43.74202" lon="6.66953">
        <ele>1410.2</ele>
        <time>2024-05-26T10:42:17Z</time>
      </trkpt>
      <trkpt lat="43.74203" lon="6.66955">
        <ele>1410.2</ele>
        <time>2024-05-26T10:42:18Z</time>
      </trkpt>
      <trkpt lat="43.74204" lon="6.66954">
        <ele>1410.2</ele>
        <time>2024-05-26T10:42:19Z</time>
      </trkpt>
      <trkpt lat="43.74206" lon="6.66955">
        <ele>1410.4</ele>
        <time>2024-05-26T10:42:20Z</time>
      </trkpt>
      <trkpt lat="43.74207" lon="6.66955">
        <ele>1410.5</ele>
        <time>2024-05-26T10:42:21Z</time>
      </trkpt>
      <trkpt lat="43.74208" lon="6.66958">
        <ele>1410.6</ele>
        <time>2024-05-26T10:42:22Z</time>
      </trkpt>
      <trkpt lat="43.7421" lon="6.66959">
        <ele>1410.7</ele>
        <time>2024-05-26T10:42:23Z</time>
      </trkpt>
      <trkpt lat="43.74211" lon="6.66959">
        <ele>1410.8</ele>
        <time>2024-05-26T10:42:24Z</time>
      </trkpt>
      <trkpt lat="43.74212" lon="6.6696">
        <ele>1410.8</ele>
        <time>2024-05-26T10:42:25Z</time>
      </trkpt>
      <trkpt lat="43.74213" lon="6.66962">
        <ele>1411.1</ele>
        <time>2024-05-26T10:42:26Z</time>
      </trkpt>
      <trkpt lat="43.74213" lon="6.66963">
        <ele>1411.2</ele>
        <time>2024-05-26T10:42:27Z</time>
      </trkpt>
      <trkpt lat="43.74215" lon="6.66964">
        <ele>1411.3</ele>
        <time>2024-05-26T10:42:28Z</time>
      </trkpt>
      <trkpt lat="43.74216" lon="6.66966">
        <ele>1411.4</ele>
        <time>2024-05-26T10:42:29Z</time>
      </trkpt>
      <trkpt lat="43.74216" lon="6.66967">
        <ele>1411.5</ele>
        <time>2024-05-26T10:42:30Z</time>
      </trkpt>
      <trkpt lat="43.74216" lon="6.66968">
        <ele>1411.7</ele>
        <time>2024-05-26T10:42:31Z</time>
      </trkpt>
      <trkpt lat="43.74217" lon="6.66969">
        <ele>1411.8</ele>
        <time>2024-05-26T10:42:32Z</time>
      </trkpt>
      <trkpt lat="43.74218" lon="6.6697">
        <ele>1411.9</ele>
        <time>2024-05-26T10:42:33Z</time>
      </trkpt>
      <trkpt lat="43.74218" lon="6.66971">
        <ele>1412</ele>
        <time>2024-05-26T10:42:34Z</time>
      </trkpt>
      <trkpt lat="43.74219" lon="6.66972">
        <ele>1412.1</ele>
        <time>2024-05-26T10:42:35Z</time>
      </trkpt>
      <trkpt lat="43.7422" lon="6.66972">
        <ele>1412.3</ele>
        <time>2024-05-26T10:42:36Z</time>
      </trkpt>
      <trkpt lat="43.74221" lon="6.66973">
        <ele>1412.4</ele>
        <time>2024-05-26T10:42:37Z</time>
      </trkpt>
      <trkpt lat="43.74221" lon="6.66973">
        <ele>1412.6</ele>
        <time>2024-05-26T10:42:38Z</time>
      </trkpt>
      <trkpt lat="43.74222" lon="6.66975">
        <ele>1412.7</ele>
        <time>2024-05-26T10:42:39Z</time>
      </trkpt>
      <trkpt lat="43.74222" lon="6.66976">
        <ele>1412.8</ele>
        <time>2024-05-26T10:42:40Z</time>
      </trkpt>
      <trkpt lat="43.74223" lon="6.66977">
        <ele>1412.9</ele>
        <time>2024-05-26T10:42:41Z</time>
      </trkpt>
      <trkpt lat="43.74223" lon="6.66978">
        <ele>1413.2</ele>
        <time>2024-05-26T10:42:42Z</time>
      </trkpt>
      <trkpt lat="43.74223" lon="6.66978">
        <ele>1413.4</ele>
        <time>2024-05-26T10:42:43Z</time>
      </trkpt>
      <trkpt lat="43.74224" lon="6.66979">
        <ele>1413.7</ele>
        <time>2024-05-26T10:42:44Z</time>
      </trkpt>
      <trkpt lat="43.74225" lon="6.6698">
        <ele>1413.9</ele>
        <time>2024-05-26T10:42:45Z</time>
      </trkpt>
      <trkpt lat="43.74225" lon="6.66981">
        <ele>1414</ele>
        <time>2024-05-26T10:42:46Z</time>
      </trkpt>
      <trkpt lat="43.74226" lon="6.66982">
        <ele>1414.2</ele>
        <time>2024-05-26T10:42:47Z</time>
      </trkpt>
      <trkpt lat="43.74226" lon="6.66982">
        <ele>1414.5</ele>
        <time>2024-05-26T10:42:48Z</time>
      </trkpt>
      <trkpt lat="43.74226" lon="6.66983">
        <ele>1414.8</ele>
        <time>2024-05-26T10:42:49Z</time>
      </trkpt>
      <trkpt lat="43.74227" lon="6.66984">
        <ele>1415</ele>
        <time>2024-05-26T10:42:50Z</time>
      </trkpt>
      <trkpt lat="43.74226" lon="6.66985">
        <ele>1415.2</ele>
        <time>2024-05-26T10:42:51Z</time>
      </trkpt>
      <trkpt lat="43.74226" lon="6.66986">
        <ele>1415.4</ele>
        <time>2024-05-26T10:42:52Z</time>
      </trkpt>
      <trkpt lat="43.74227" lon="6.66987">
        <ele>1415.6</ele>
        <time>2024-05-26T10:42:53Z</time>
      </trkpt>
      <trkpt lat="43.74227" lon="6.66988">
        <ele>1415.8</ele>
        <time>2024-05-26T10:42:54Z</time>
      </trkpt>
      <trkpt lat="43.74227" lon="6.66989">
        <ele>1415.9</ele>
        <time>2024-05-26T10:42:55Z</time>
      </trkpt>
      <trkpt lat="43.74228" lon="6.66989">
        <ele>1416.2</ele>
        <time>2024-05-26T10:42:56Z</time>
      </trkpt>
      <trkpt lat="43.74228" lon="6.6699">
        <ele>1416.4</ele>
        <time>2024-05-26T10:42:57Z</time>
      </trkpt>
      <trkpt lat="43.74228" lon="6.66991">
        <ele>1416.5</ele>
        <time>2024-05-26T10:42:58Z</time>
      </trkpt>
      <trkpt lat="43.74228" lon="6.66993">
        <ele>1416.6</ele>
        <time>2024-05-26T10:42:59Z</time>
      </trkpt>
      <trkpt lat="43.74228" lon="6.66993">
        <ele>1416.7</ele>
        <time>2024-05-26T10:43:00Z</time>
      </trkpt>
      <trkpt lat="43.74229" lon="6.66995">
        <ele>1416.8</ele>
        <time>2024-05-26T10:43:01Z</time>
      </trkpt>
      <trkpt lat="43.74229" lon="6.66996">
        <ele>1416.9</ele>
        <time>2024-05-26T10:43:02Z</time>
      </trkpt>
      <trkpt lat="43.7423" lon="6.66996">
        <ele>1417.1</ele>
        <time>2024-05-26T10:43:03Z</time>
      </trkpt>
      <trkpt lat="43.7423" lon="6.66997">
        <ele>1417.2</ele>
        <time>2024-05-26T10:43:04Z</time>
      </trkpt>
      <trkpt lat="43.7423" lon="6.66998">
        <ele>1417.4</ele>
        <time>2024-05-26T10:43:05Z</time>
      </trkpt>
      <trkpt lat="43.74231" lon="6.66999">
        <ele>1417.6</ele>
        <time>2024-05-26T10:43:06Z</time>
      </trkpt>
      <trkpt lat="43.74231" lon="6.66999">
        <ele>1417.8</ele>
        <time>2024-05-26T10:43:07Z</time>
      </trkpt>
      <trkpt lat="43.74231" lon="6.67">
        <ele>1418</ele>
        <time>2024-05-26T10:43:08Z</time>
      </trkpt>
      <trkpt lat="43.74231" lon="6.67">
        <ele>1418.1</ele>
        <time>2024-05-26T10:43:09Z</time>
      </trkpt>
      <trkpt lat="43.7423" lon="6.67001">
        <ele>1418.2</ele>
        <time>2024-05-26T10:43:10Z</time>
      </trkpt>
      <trkpt lat="43.7423" lon="6.67001">
        <ele>1418.3</ele>
        <time>2024-05-26T10:43:11Z</time>
      </trkpt>
      <trkpt lat="43.7423" lon="6.67001">
        <ele>1418.4</ele>
        <time>2024-05-26T10:43:12Z</time>
      </trkpt>
      <trkpt lat="43.7423" lon="6.67001">
        <ele>1418.4</ele>
        <time>2024-05-26T10:43:13Z</time>
      </trkpt>
      <trkpt lat="43.7423" lon="6.67002">
        <ele>1418.5</ele>
        <time>2024-05-26T10:43:14Z</time>
      </trkpt>
      <trkpt lat="43.7423" lon="6.67002">
        <ele>1418.4</ele>
        <time>2024-05-26T10:43:15Z</time>
      </trkpt>
      <trkpt lat="43.7423" lon="6.67002">
        <ele>1418.5</ele>
        <time>2024-05-26T10:43:16Z</time>
      </trkpt>
      <trkpt lat="43.7423" lon="6.67002">
        <ele>1418.6</ele>
        <time>2024-05-26T10:43:17Z</time>
      </trkpt>
      <trkpt lat="43.7423" lon="6.67003">
        <ele>1418.7</ele>
        <time>2024-05-26T10:43:18Z</time>
      </trkpt>
      <trkpt lat="43.74231" lon="6.67003">
        <ele>1418.7</ele>
        <time>2024-05-26T10:43:19Z</time>
      </trkpt>
      <trkpt lat="43.74231" lon="6.67004">
        <ele>1418.8</ele>
        <time>2024-05-26T10:43:20Z</time>
      </trkpt>
      <trkpt lat="43.74231" lon="6.67005">
        <ele>1418.8</ele>
        <time>2024-05-26T10:43:21Z</time>
      </trkpt>
      <trkpt lat="43.74232" lon="6.67006">
        <ele>1419</ele>
        <time>2024-05-26T10:43:22Z</time>
      </trkpt>
      <trkpt lat="43.74233" lon="6.67007">
        <ele>1419.1</ele>
        <time>2024-05-26T10:43:23Z</time>
      </trkpt>
      <trkpt lat="43.74233" lon="6.67008">
        <ele>1419.3</ele>
        <time>2024-05-26T10:43:24Z</time>
      </trkpt>
      <trkpt lat="43.74233" lon="6.67009">
        <ele>1419.5</ele>
        <time>2024-05-26T10:43:25Z</time>
      </trkpt>
      <trkpt lat="43.74234" lon="6.6701">
        <ele>1419.7</ele>
        <time>2024-05-26T10:43:26Z</time>
      </trkpt>
      <trkpt lat="43.74234" lon="6.67012">
        <ele>1420</ele>
        <time>2024-05-26T10:43:27Z</time>
      </trkpt>
      <trkpt lat="43.74234" lon="6.67013">
        <ele>1420.2</ele>
        <time>2024-05-26T10:43:28Z</time>
      </trkpt>
      <trkpt lat="43.74234" lon="6.67014">
        <ele>1420.4</ele>
        <time>2024-05-26T10:43:29Z</time>
      </trkpt>
      <trkpt lat="43.74234" lon="6.67016">
        <ele>1420.6</ele>
        <time>2024-05-26T10:43:30Z</time>
      </trkpt>
      <trkpt lat="43.74235" lon="6.67017">
        <ele>1420.8</ele>
        <time>2024-05-26T10:43:31Z</time>
      </trkpt>
      <trkpt lat="43.74235" lon="6.67018">
        <ele>1420.9</ele>
        <time>2024-05-26T10:43:32Z</time>
      </trkpt>
      <trkpt lat="43.74235" lon="6.67019">
        <ele>1421</ele>
        <time>2024-05-26T10:43:33Z</time>
      </trkpt>
      <trkpt lat="43.74235" lon="6.6702">
        <ele>1421.2</ele>
        <time>2024-05-26T10:43:34Z</time>
      </trkpt>
      <trkpt lat="43.74235" lon="6.67022">
        <ele>1421.3</ele>
        <time>2024-05-26T10:43:35Z</time>
      </trkpt>
      <trkpt lat="43.74236" lon="6.67023">
        <ele>1421.6</ele>
        <time>2024-05-26T10:43:36Z</time>
      </trkpt>
      <trkpt lat="43.74237" lon="6.67024">
        <ele>1421.7</ele>
        <time>2024-05-26T10:43:37Z</time>
      </trkpt>
      <trkpt lat="43.74237" lon="6.67025">
        <ele>1421.8</ele>
        <time>2024-05-26T10:43:38Z</time>
      </trkpt>
      <trkpt lat="43.74238" lon="6.67026">
        <ele>1421.9</ele>
        <time>2024-05-26T10:43:39Z</time>
      </trkpt>
      <trkpt lat="43.74238" lon="6.67028">
        <ele>1422</ele>
        <time>2024-05-26T10:43:40Z</time>
      </trkpt>
      <trkpt lat="43.74239" lon="6.67029">
        <ele>1422.2</ele>
        <time>2024-05-26T10:43:41Z</time>
      </trkpt>
      <trkpt lat="43.7424" lon="6.6703">
        <ele>1422.4</ele>
        <time>2024-05-26T10:43:42Z</time>
      </trkpt>
      <trkpt lat="43.74241" lon="6.67031">
        <ele>1422.5</ele>
        <time>2024-05-26T10:43:43Z</time>
      </trkpt>
      <trkpt lat="43.74241" lon="6.67031">
        <ele>1422.6</ele>
        <time>2024-05-26T10:43:44Z</time>
      </trkpt>
      <trkpt lat="43.74242" lon="6.67032">
        <ele>1422.7</ele>
        <time>2024-05-26T10:43:45Z</time>
      </trkpt>
      <trkpt lat="43.74242" lon="6.67032">
        <ele>1422.8</ele>
        <time>2024-05-26T10:43:46Z</time>
      </trkpt>
      <trkpt lat="43.74243" lon="6.67033">
        <ele>1423.1</ele>
        <time>2024-05-26T10:43:47Z</time>
      </trkpt>
      <trkpt lat="43.74244" lon="6.67034">
        <ele>1423.2</ele>
        <time>2024-05-26T10:43:48Z</time>
      </trkpt>
      <trkpt lat="43.74245" lon="6.67035">
        <ele>1423.4</ele>
        <time>2024-05-26T10:43:49Z</time>
      </trkpt>
      <trkpt lat="43.74246" lon="6.67037">
        <ele>1423.6</ele>
        <time>2024-05-26T10:43:50Z</time>
      </trkpt>
      <trkpt lat="43.74246" lon="6.67037">
        <ele>1423.7</ele>
        <time>2024-05-26T10:43:51Z</time>
      </trkpt>
      <trkpt lat="43.74247" lon="6.67038">
        <ele>1423.8</ele>
        <time>2024-05-26T10:43:52Z</time>
      </trkpt>
      <trkpt lat="43.74247" lon="6.67039">
        <ele>1423.9</ele>
        <time>2024-05-26T10:43:53Z</time>
      </trkpt>
      <trkpt lat="43.74248" lon="6.67039">
        <ele>1424</ele>
        <time>2024-05-26T10:43:54Z</time>
      </trkpt>
      <trkpt lat="43.74248" lon="6.6704">
        <ele>1424.2</ele>
        <time>2024-05-26T10:43:55Z</time>
      </trkpt>
      <trkpt lat="43.74249" lon="6.67041">
        <ele>1424.4</ele>
        <time>2024-05-26T10:43:56Z</time>
      </trkpt>
      <trkpt lat="43.74249" lon="6.67041">
        <ele>1424.5</ele>
        <time>2024-05-26T10:43:57Z</time>
      </trkpt>
      <trkpt lat="43.7425" lon="6.67043">
        <ele>1424.7</ele>
        <time>2024-05-26T10:43:58Z</time>
      </trkpt>
      <trkpt lat="43.74251" lon="6.67044">
        <ele>1424.9</ele>
        <time>2024-05-26T10:43:59Z</time>
      </trkpt>
      <trkpt lat="43.74251" lon="6.67045">
        <ele>1425.1</ele>
        <time>2024-05-26T10:44:00Z</time>
      </trkpt>
      <trkpt lat="43.74251" lon="6.67046">
        <ele>1425.3</ele>
        <time>2024-05-26T10:44:01Z</time>
      </trkpt>
      <trkpt lat="43.74251" lon="6.67046">
        <ele>1425.5</ele>
        <time>2024-05-26T10:44:02Z</time>
      </trkpt>
      <trkpt lat="43.74251" lon="6.67047">
        <ele>1425.7</ele>
        <time>2024-05-26T10:44:03Z</time>
      </trkpt>
      <trkpt lat="43.74251" lon="6.67048">
        <ele>1425.9</ele>
        <time>2024-05-26T10:44:04Z</time>
      </trkpt>
      <trkpt lat="43.74252" lon="6.67049">
        <ele>1426</ele>
        <time>2024-05-26T10:44:05Z</time>
      </trkpt>
      <trkpt lat="43.74252" lon="6.6705">
        <ele>1426</ele>
        <time>2024-05-26T10:44:06Z</time>
      </trkpt>
      <trkpt lat="43.74252" lon="6.67051">
        <ele>1426.1</ele>
        <time>2024-05-26T10:44:07Z</time>
      </trkpt>
      <trkpt lat="43.74252" lon="6.67052">
        <ele>1426.2</ele>
        <time>2024-05-26T10:44:08Z</time>
      </trkpt>
      <trkpt lat="43.74253" lon="6.67054">
        <ele>1426.3</ele>
        <time>2024-05-26T10:44:09Z</time>
      </trkpt>
      <trkpt lat="43.74253" lon="6.67055">
        <ele>1426.4</ele>
        <time>2024-05-26T10:44:10Z</time>
      </trkpt>
      <trkpt lat="43.74253" lon="6.67056">
        <ele>1426.5</ele>
        <time>2024-05-26T10:44:11Z</time>
      </trkpt>
      <trkpt lat="43.74254" lon="6.67057">
        <ele>1426.7</ele>
        <time>2024-05-26T10:44:12Z</time>
      </trkpt>
      <trkpt lat="43.74254" lon="6.67058">
        <ele>1426.8</ele>
        <time>2024-05-26T10:44:13Z</time>
      </trkpt>
      <trkpt lat="43.74255" lon="6.67058">
        <ele>1427</ele>
        <time>2024-05-26T10:44:14Z</time>
      </trkpt>
      <trkpt lat="43.74255" lon="6.67059">
        <ele>1427.1</ele>
        <time>2024-05-26T10:44:15Z</time>
      </trkpt>
      <trkpt lat="43.74255" lon="6.6706">
        <ele>1427.3</ele>
        <time>2024-05-26T10:44:16Z</time>
      </trkpt>
      <trkpt lat="43.74255" lon="6.67062">
        <ele>1427.4</ele>
        <time>2024-05-26T10:44:17Z</time>
      </trkpt>
      <trkpt lat="43.74255" lon="6.67063">
        <ele>1427.6</ele>
        <time>2024-05-26T10:44:18Z</time>
      </trkpt>
      <trkpt lat="43.74255" lon="6.67064">
        <ele>1427.7</ele>
        <time>2024-05-26T10:44:19Z</time>
      </trkpt>
      <trkpt lat="43.74256" lon="6.67065">
        <ele>1427.9</ele>
        <time>2024-05-26T10:44:20Z</time>
      </trkpt>
      <trkpt lat="43.74256" lon="6.67065">
        <ele>1427.9</ele>
        <time>2024-05-26T10:44:21Z</time>
      </trkpt>
      <trkpt lat="43.74257" lon="6.67066">
        <ele>1427.9</ele>
        <time>2024-05-26T10:44:22Z</time>
      </trkpt>
      <trkpt lat="43.74258" lon="6.67067">
        <ele>1427.9</ele>
        <time>2024-05-26T10:44:23Z</time>
      </trkpt>
      <trkpt lat="43.74259" lon="6.67069">
        <ele>1428.2</ele>
        <time>2024-05-26T10:44:24Z</time>
      </trkpt>
      <trkpt lat="43.74259" lon="6.6707">
        <ele>1428.5</ele>
        <time>2024-05-26T10:44:25Z</time>
      </trkpt>
      <trkpt lat="43.74261" lon="6.67072">
        <ele>1428.7</ele>
        <time>2024-05-26T10:44:26Z</time>
      </trkpt>
      <trkpt lat="43.74262" lon="6.67072">
        <ele>1428.8</ele>
        <time>2024-05-26T10:44:27Z</time>
      </trkpt>
      <trkpt lat="43.74262" lon="6.67073">
        <ele>1429.1</ele>
        <time>2024-05-26T10:44:28Z</time>
      </trkpt>
      <trkpt lat="43.74262" lon="6.67074">
        <ele>1429.2</ele>
        <time>2024-05-26T10:44:29Z</time>
      </trkpt>
      <trkpt lat="43.74262" lon="6.67075">
        <ele>1429.3</ele>
        <time>2024-05-26T10:44:30Z</time>
      </trkpt>
      <trkpt lat="43.74262" lon="6.67077">
        <ele>1429.4</ele>
        <time>2024-05-26T10:44:31Z</time>
      </trkpt>
      <trkpt lat="43.74262" lon="6.67077">
        <ele>1429.5</ele>
        <time>2024-05-26T10:44:32Z</time>
      </trkpt>
      <trkpt lat="43.74262" lon="6.67077">
        <ele>1429.5</ele>
        <time>2024-05-26T10:44:33Z</time>
      </trkpt>
      <trkpt lat="43.74262" lon="6.67077">
        <ele>1429.6</ele>
        <time>2024-05-26T10:44:34Z</time>
      </trkpt>
      <trkpt lat="43.74262" lon="6.67078">
        <ele>1429.5</ele>
        <time>2024-05-26T10:44:35Z</time>
      </trkpt>
      <trkpt lat="43.74262" lon="6.67078">
        <ele>1429.5</ele>
        <time>2024-05-26T10:44:36Z</time>
      </trkpt>
      <trkpt lat="43.74262" lon="6.67079">
        <ele>1429.5</ele>
        <time>2024-05-26T10:44:37Z</time>
      </trkpt>
      <trkpt lat="43.74262" lon="6.67079">
        <ele>1429.5</ele>
        <time>2024-05-26T10:44:38Z</time>
      </trkpt>
      <trkpt lat="43.74262" lon="6.67079">
        <ele>1429.5</ele>
        <time>2024-05-26T10:44:39Z</time>
      </trkpt>
      <trkpt lat="43.74262" lon="6.6708">
        <ele>1429.5</ele>
        <time>2024-05-26T10:44:40Z</time>
      </trkpt>
      <trkpt lat="43.74262" lon="6.6708">
        <ele>1429.5</ele>
        <time>2024-05-26T10:44:41Z</time>
      </trkpt>
      <trkpt lat="43.74262" lon="6.6708">
        <ele>1429.5</ele>
        <time>2024-05-26T10:44:42Z</time>
      </trkpt>
      <trkpt lat="43.74262" lon="6.6708">
        <ele>1429.5</ele>
        <time>2024-05-26T10:44:43Z</time>
      </trkpt>
      <trkpt lat="43.74262" lon="6.67081">
        <ele>1429.5</ele>
        <time>2024-05-26T10:44:44Z</time>
      </trkpt>
      <trkpt lat="43.74263" lon="6.67081">
        <ele>1429.6</ele>
        <time>2024-05-26T10:44:45Z</time>
      </trkpt>
      <trkpt lat="43.74263" lon="6.67081">
        <ele>1429.6</ele>
        <time>2024-05-26T10:44:46Z</time>
      </trkpt>
      <trkpt lat="43.74263" lon="6.67081">
        <ele>1429.6</ele>
        <time>2024-05-26T10:44:47Z</time>
      </trkpt>
      <trkpt lat="43.74263" lon="6.67081">
        <ele>1429.6</ele>
        <time>2024-05-26T10:44:48Z</time>
      </trkpt>
      <trkpt lat="43.74263" lon="6.67081">
        <ele>1429.6</ele>
        <time>2024-05-26T10:44:49Z</time>
      </trkpt>
      <trkpt lat="43.74263" lon="6.67081">
        <ele>1429.6</ele>
        <time>2024-05-26T10:44:50Z</time>
      </trkpt>
      <trkpt lat="43.74263" lon="6.67081">
        <ele>1429.6</ele>
        <time>2024-05-26T10:44:51Z</time>
      </trkpt>
      <trkpt lat="43.74263" lon="6.67082">
        <ele>1429.6</ele>
        <time>2024-05-26T10:44:52Z</time>
      </trkpt>
      <trkpt lat="43.74263" lon="6.67083">
        <ele>1429.7</ele>
        <time>2024-05-26T10:44:53Z</time>
      </trkpt>
      <trkpt lat="43.74263" lon="6.67084">
        <ele>1429.7</ele>
        <time>2024-05-26T10:44:54Z</time>
      </trkpt>
      <trkpt lat="43.74263" lon="6.67085">
        <ele>1429.7</ele>
        <time>2024-05-26T10:44:55Z</time>
      </trkpt>
      <trkpt lat="43.74264" lon="6.67086">
        <ele>1429.7</ele>
        <time>2024-05-26T10:44:56Z</time>
      </trkpt>
      <trkpt lat="43.74264" lon="6.67086">
        <ele>1429.7</ele>
        <time>2024-05-26T10:44:57Z</time>
      </trkpt>
      <trkpt lat="43.74264" lon="6.67087">
        <ele>1429.8</ele>
        <time>2024-05-26T10:44:58Z</time>
      </trkpt>
      <trkpt lat="43.74265" lon="6.67088">
        <ele>1430</ele>
        <time>2024-05-26T10:44:59Z</time>
      </trkpt>
      <trkpt lat="43.74266" lon="6.67089">
        <ele>1430</ele>
        <time>2024-05-26T10:45:00Z</time>
      </trkpt>
      <trkpt lat="43.74266" lon="6.6709">
        <ele>1430</ele>
        <time>2024-05-26T10:45:01Z</time>
      </trkpt>
      <trkpt lat="43.74267" lon="6.6709">
        <ele>1430</ele>
        <time>2024-05-26T10:45:02Z</time>
      </trkpt>
      <trkpt lat="43.74267" lon="6.67091">
        <ele>1430.2</ele>
        <time>2024-05-26T10:45:03Z</time>
      </trkpt>
      <trkpt lat="43.74267" lon="6.67091">
        <ele>1430.4</ele>
        <time>2024-05-26T10:45:04Z</time>
      </trkpt>
      <trkpt lat="43.74267" lon="6.67091">
        <ele>1430.5</ele>
        <time>2024-05-26T10:45:05Z</time>
      </trkpt>
      <trkpt lat="43.74267" lon="6.6709">
        <ele>1430.5</ele>
        <time>2024-05-26T10:45:06Z</time>
      </trkpt>
      <trkpt lat="43.74267" lon="6.6709">
        <ele>1430.6</ele>
        <time>2024-05-26T10:45:07Z</time>
      </trkpt>
      <trkpt lat="43.74267" lon="6.6709">
        <ele>1430.7</ele>
        <time>2024-05-26T10:45:08Z</time>
      </trkpt>
      <trkpt lat="43.74267" lon="6.6709">
        <ele>1430.7</ele>
        <time>2024-05-26T10:45:09Z</time>
      </trkpt>
      <trkpt lat="43.74267" lon="6.6709">
        <ele>1430.7</ele>
        <time>2024-05-26T10:45:10Z</time>
      </trkpt>
      <trkpt lat="43.74267" lon="6.6709">
        <ele>1430.8</ele>
        <time>2024-05-26T10:45:11Z</time>
      </trkpt>
      <trkpt lat="43.74268" lon="6.6709">
        <ele>1430.8</ele>
        <time>2024-05-26T10:45:12Z</time>
      </trkpt>
      <trkpt lat="43.74268" lon="6.6709">
        <ele>1430.7</ele>
        <time>2024-05-26T10:45:13Z</time>
      </trkpt>
      <trkpt lat="43.74268" lon="6.6709">
        <ele>1430.7</ele>
        <time>2024-05-26T10:45:14Z</time>
      </trkpt>
      <trkpt lat="43.74268" lon="6.6709">
        <ele>1430.6</ele>
        <time>2024-05-26T10:45:15Z</time>
      </trkpt>
      <trkpt lat="43.74268" lon="6.6709">
        <ele>1430.6</ele>
        <time>2024-05-26T10:45:16Z</time>
      </trkpt>
      <trkpt lat="43.74269" lon="6.67089">
        <ele>1430.6</ele>
        <time>2024-05-26T10:45:17Z</time>
      </trkpt>
      <trkpt lat="43.74269" lon="6.67089">
        <ele>1430.6</ele>
        <time>2024-05-26T10:45:18Z</time>
      </trkpt>
      <trkpt lat="43.74269" lon="6.67089">
        <ele>1430.7</ele>
        <time>2024-05-26T10:45:19Z</time>
      </trkpt>
      <trkpt lat="43.74269" lon="6.6709">
        <ele>1430.7</ele>
        <time>2024-05-26T10:45:20Z</time>
      </trkpt>
      <trkpt lat="43.74269" lon="6.67091">
        <ele>1430.8</ele>
        <time>2024-05-26T10:45:21Z</time>
      </trkpt>
      <trkpt lat="43.74269" lon="6.67092">
        <ele>1431</ele>
        <time>2024-05-26T10:45:22Z</time>
      </trkpt>
      <trkpt lat="43.74269" lon="6.67092">
        <ele>1431.1</ele>
        <time>2024-05-26T10:45:23Z</time>
      </trkpt>
      <trkpt lat="43.74269" lon="6.67093">
        <ele>1431.1</ele>
        <time>2024-05-26T10:45:24Z</time>
      </trkpt>
      <trkpt lat="43.7427" lon="6.67095">
        <ele>1431.2</ele>
        <time>2024-05-26T10:45:25Z</time>
      </trkpt>
      <trkpt lat="43.7427" lon="6.67097">
        <ele>1431.4</ele>
        <time>2024-05-26T10:45:26Z</time>
      </trkpt>
      <trkpt lat="43.74271" lon="6.67098">
        <ele>1431.6</ele>
        <time>2024-05-26T10:45:27Z</time>
      </trkpt>
      <trkpt lat="43.74272" lon="6.67099">
        <ele>1431.8</ele>
        <time>2024-05-26T10:45:28Z</time>
      </trkpt>
      <trkpt lat="43.74272" lon="6.67101">
        <ele>1431.9</ele>
        <time>2024-05-26T10:45:29Z</time>
      </trkpt>
      <trkpt lat="43.74273" lon="6.67102">
        <ele>1432</ele>
        <time>2024-05-26T10:45:30Z</time>
      </trkpt>
      <trkpt lat="43.74273" lon="6.67103">
        <ele>1432</ele>
        <time>2024-05-26T10:45:31Z</time>
      </trkpt>
      <trkpt lat="43.74274" lon="6.67104">
        <ele>1432</ele>
        <time>2024-05-26T10:45:32Z</time>
      </trkpt>
      <trkpt lat="43.74274" lon="6.67104">
        <ele>1432</ele>
        <time>2024-05-26T10:45:33Z</time>
      </trkpt>
      <trkpt lat="43.74274" lon="6.67105">
        <ele>1432</ele>
        <time>2024-05-26T10:45:34Z</time>
      </trkpt>
      <trkpt lat="43.74275" lon="6.67106">
        <ele>1432</ele>
        <time>2024-05-26T10:45:35Z</time>
      </trkpt>
      <trkpt lat="43.74275" lon="6.67108">
        <ele>1432</ele>
        <time>2024-05-26T10:45:36Z</time>
      </trkpt>
      <trkpt lat="43.74276" lon="6.6711">
        <ele>1432</ele>
        <time>2024-05-26T10:45:37Z</time>
      </trkpt>
      <trkpt lat="43.74276" lon="6.67111">
        <ele>1432</ele>
        <time>2024-05-26T10:45:38Z</time>
      </trkpt>
      <trkpt lat="43.74277" lon="6.67112">
        <ele>1431.9</ele>
        <time>2024-05-26T10:45:39Z</time>
      </trkpt>
      <trkpt lat="43.74277" lon="6.67113">
        <ele>1431.8</ele>
        <time>2024-05-26T10:45:40Z</time>
      </trkpt>
      <trkpt lat="43.74277" lon="6.67114">
        <ele>1431.7</ele>
        <time>2024-05-26T10:45:41Z</time>
      </trkpt>
      <trkpt lat="43.74277" lon="6.67115">
        <ele>1431.5</ele>
        <time>2024-05-26T10:45:42Z</time>
      </trkpt>
      <trkpt lat="43.74277" lon="6.67116">
        <ele>1431.4</ele>
        <time>2024-05-26T10:45:43Z</time>
      </trkpt>
      <trkpt lat="43.74278" lon="6.67119">
        <ele>1431.3</ele>
        <time>2024-05-26T10:45:44Z</time>
      </trkpt>
      <trkpt lat="43.74278" lon="6.6712">
        <ele>1431.2</ele>
        <time>2024-05-26T10:45:45Z</time>
      </trkpt>
      <trkpt lat="43.74278" lon="6.67121">
        <ele>1431</ele>
        <time>2024-05-26T10:45:46Z</time>
      </trkpt>
      <trkpt lat="43.74279" lon="6.67122">
        <ele>1430.8</ele>
        <time>2024-05-26T10:45:47Z</time>
      </trkpt>
      <trkpt lat="43.74279" lon="6.67122">
        <ele>1430.6</ele>
        <time>2024-05-26T10:45:48Z</time>
      </trkpt>
      <trkpt lat="43.74279" lon="6.67124">
        <ele>1430.5</ele>
        <time>2024-05-26T10:45:49Z</time>
      </trkpt>
      <trkpt lat="43.7428" lon="6.67125">
        <ele>1430.3</ele>
        <time>2024-05-26T10:45:50Z</time>
      </trkpt>
      <trkpt lat="43.7428" lon="6.67125">
        <ele>1430.2</ele>
        <time>2024-05-26T10:45:51Z</time>
      </trkpt>
      <trkpt lat="43.7428" lon="6.67125">
        <ele>1429.9</ele>
        <time>2024-05-26T10:45:52Z</time>
      </trkpt>
      <trkpt lat="43.74281" lon="6.67126">
        <ele>1429.7</ele>
        <time>2024-05-26T10:45:53Z</time>
      </trkpt>
      <trkpt lat="43.7428" lon="6.67127">
        <ele>1429.3</ele>
        <time>2024-05-26T10:45:54Z</time>
      </trkpt>
      <trkpt lat="43.7428" lon="6.67128">
        <ele>1429.1</ele>
        <time>2024-05-26T10:45:55Z</time>
      </trkpt>
      <trkpt lat="43.7428" lon="6.67128">
        <ele>1428.9</ele>
        <time>2024-05-26T10:45:56Z</time>
      </trkpt>
      <trkpt lat="43.74279" lon="6.67129">
        <ele>1428.7</ele>
        <time>2024-05-26T10:45:57Z</time>
      </trkpt>
      <trkpt lat="43.74279" lon="6.6713">
        <ele>1428.5</ele>
        <time>2024-05-26T10:45:58Z</time>
      </trkpt>
      <trkpt lat="43.74279" lon="6.6713">
        <ele>1428.4</ele>
        <time>2024-05-26T10:45:59Z</time>
      </trkpt>
      <trkpt lat="43.74279" lon="6.67131">
        <ele>1428.3</ele>
        <time>2024-05-26T10:46:00Z</time>
      </trkpt>
      <trkpt lat="43.74279" lon="6.67132">
        <ele>1428.2</ele>
        <time>2024-05-26T10:46:01Z</time>
      </trkpt>
      <trkpt lat="43.7428" lon="6.67132">
        <ele>1428.1</ele>
        <time>2024-05-26T10:46:02Z</time>
      </trkpt>
      <trkpt lat="43.7428" lon="6.67133">
        <ele>1427.9</ele>
        <time>2024-05-26T10:46:03Z</time>
      </trkpt>
      <trkpt lat="43.74279" lon="6.67133">
        <ele>1427.7</ele>
        <time>2024-05-26T10:46:04Z</time>
      </trkpt>
      <trkpt lat="43.74279" lon="6.67135">
        <ele>1427.5</ele>
        <time>2024-05-26T10:46:05Z</time>
      </trkpt>
      <trkpt lat="43.74278" lon="6.67136">
        <ele>1427.4</ele>
        <time>2024-05-26T10:46:06Z</time>
      </trkpt>
      <trkpt lat="43.74278" lon="6.67137">
        <ele>1427.2</ele>
        <time>2024-05-26T10:46:07Z</time>
      </trkpt>
      <trkpt lat="43.74278" lon="6.67138">
        <ele>1427.1</ele>
        <time>2024-05-26T10:46:08Z</time>
      </trkpt>
      <trkpt lat="43.74278" lon="6.67139">
        <ele>1427</ele>
        <time>2024-05-26T10:46:09Z</time>
      </trkpt>
      <trkpt lat="43.74278" lon="6.6714">
        <ele>1426.9</ele>
        <time>2024-05-26T10:46:10Z</time>
      </trkpt>
      <trkpt lat="43.74279" lon="6.6714">
        <ele>1426.8</ele>
        <time>2024-05-26T10:46:11Z</time>
      </trkpt>
      <trkpt lat="43.74279" lon="6.67141">
        <ele>1426.7</ele>
        <time>2024-05-26T10:46:12Z</time>
      </trkpt>
      <trkpt lat="43.74279" lon="6.67142">
        <ele>1426.5</ele>
        <time>2024-05-26T10:46:13Z</time>
      </trkpt>
      <trkpt lat="43.74279" lon="6.67142">
        <ele>1426.4</ele>
        <time>2024-05-26T10:46:14Z</time>
      </trkpt>
      <trkpt lat="43.74278" lon="6.67142">
        <ele>1426.3</ele>
        <time>2024-05-26T10:46:15Z</time>
      </trkpt>
      <trkpt lat="43.74278" lon="6.67143">
        <ele>1426.2</ele>
        <time>2024-05-26T10:46:16Z</time>
      </trkpt>
      <trkpt lat="43.74278" lon="6.67144">
        <ele>1426.1</ele>
        <time>2024-05-26T10:46:17Z</time>
      </trkpt>
      <trkpt lat="43.74278" lon="6.67145">
        <ele>1426</ele>
        <time>2024-05-26T10:46:18Z</time>
      </trkpt>
      <trkpt lat="43.74277" lon="6.67145">
        <ele>1425.9</ele>
        <time>2024-05-26T10:46:19Z</time>
      </trkpt>
      <trkpt lat="43.74277" lon="6.67145">
        <ele>1425.8</ele>
        <time>2024-05-26T10:46:20Z</time>
      </trkpt>
      <trkpt lat="43.74276" lon="6.67145">
        <ele>1425.7</ele>
        <time>2024-05-26T10:46:21Z</time>
      </trkpt>
      <trkpt lat="43.74275" lon="6.67146">
        <ele>1425.6</ele>
        <time>2024-05-26T10:46:22Z</time>
      </trkpt>
      <trkpt lat="43.74275" lon="6.67146">
        <ele>1425.6</ele>
        <time>2024-05-26T10:46:23Z</time>
      </trkpt>
      <trkpt lat="43.74274" lon="6.67147">
        <ele>1425.6</ele>
        <time>2024-05-26T10:46:24Z</time>
      </trkpt>
      <trkpt lat="43.74274" lon="6.67148">
        <ele>1425.6</ele>
        <time>2024-05-26T10:46:25Z</time>
      </trkpt>
      <trkpt lat="43.74273" lon="6.67149">
        <ele>1425.6</ele>
        <time>2024-05-26T10:46:26Z</time>
      </trkpt>
      <trkpt lat="43.74274" lon="6.67151">
        <ele>1425.6</ele>
        <time>2024-05-26T10:46:27Z</time>
      </trkpt>
      <trkpt lat="43.74273" lon="6.67152">
        <ele>1425.5</ele>
        <time>2024-05-26T10:46:28Z</time>
      </trkpt>
      <trkpt lat="43.74273" lon="6.67153">
        <ele>1425.5</ele>
        <time>2024-05-26T10:46:29Z</time>
      </trkpt>
      <trkpt lat="43.74273" lon="6.67154">
        <ele>1425.5</ele>
        <time>2024-05-26T10:46:30Z</time>
      </trkpt>
      <trkpt lat="43.74273" lon="6.67154">
        <ele>1425.5</ele>
        <time>2024-05-26T10:46:31Z</time>
      </trkpt>
      <trkpt lat="43.74272" lon="6.67154">
        <ele>1425.6</ele>
        <time>2024-05-26T10:46:32Z</time>
      </trkpt>
      <trkpt lat="43.74271" lon="6.67155">
        <ele>1425.5</ele>
        <time>2024-05-26T10:46:33Z</time>
      </trkpt>
      <trkpt lat="43.7427" lon="6.67156">
        <ele>1425.5</ele>
        <time>2024-05-26T10:46:34Z</time>
      </trkpt>
      <trkpt lat="43.74269" lon="6.67156">
        <ele>1425.5</ele>
        <time>2024-05-26T10:46:35Z</time>
      </trkpt>
      <trkpt lat="43.74268" lon="6.67157">
        <ele>1425.5</ele>
        <time>2024-05-26T10:46:36Z</time>
      </trkpt>
      <trkpt lat="43.74267" lon="6.67158">
        <ele>1425.5</ele>
        <time>2024-05-26T10:46:37Z</time>
      </trkpt>
      <trkpt lat="43.74267" lon="6.67159">
        <ele>1425.5</ele>
        <time>2024-05-26T10:46:38Z</time>
      </trkpt>
      <trkpt lat="43.74266" lon="6.67159">
        <ele>1425.5</ele>
        <time>2024-05-26T10:46:39Z</time>
      </trkpt>
      <trkpt lat="43.74265" lon="6.6716">
        <ele>1425.6</ele>
        <time>2024-05-26T10:46:40Z</time>
      </trkpt>
      <trkpt lat="43.74264" lon="6.67159">
        <ele>1425.6</ele>
        <time>2024-05-26T10:46:41Z</time>
      </trkpt>
      <trkpt lat="43.74264" lon="6.6716">
        <ele>1425.7</ele>
        <time>2024-05-26T10:46:42Z</time>
      </trkpt>
      <trkpt lat="43.74263" lon="6.6716">
        <ele>1425.7</ele>
        <time>2024-05-26T10:46:43Z</time>
      </trkpt>
      <trkpt lat="43.74262" lon="6.67161">
        <ele>1425.8</ele>
        <time>2024-05-26T10:46:44Z</time>
      </trkpt>
      <trkpt lat="43.74262" lon="6.67162">
        <ele>1425.8</ele>
        <time>2024-05-26T10:46:45Z</time>
      </trkpt>
      <trkpt lat="43.74262" lon="6.67163">
        <ele>1425.8</ele>
        <time>2024-05-26T10:46:46Z</time>
      </trkpt>
      <trkpt lat="43.74262" lon="6.67164">
        <ele>1425.8</ele>
        <time>2024-05-26T10:46:47Z</time>
      </trkpt>
      <trkpt lat="43.74263" lon="6.67165">
        <ele>1425.8</ele>
        <time>2024-05-26T10:46:48Z</time>
      </trkpt>
      <trkpt lat="43.74263" lon="6.67165">
        <ele>1425.9</ele>
        <time>2024-05-26T10:46:49Z</time>
      </trkpt>
      <trkpt lat="43.74263" lon="6.67165">
        <ele>1425.8</ele>
        <time>2024-05-26T10:46:50Z</time>
      </trkpt>
      <trkpt lat="43.74263" lon="6.67166">
        <ele>1425.9</ele>
        <time>2024-05-26T10:46:51Z</time>
      </trkpt>
      <trkpt lat="43.74263" lon="6.67167">
        <ele>1425.9</ele>
        <time>2024-05-26T10:46:52Z</time>
      </trkpt>
      <trkpt lat="43.74263" lon="6.67167">
        <ele>1425.9</ele>
        <time>2024-05-26T10:46:53Z</time>
      </trkpt>
      <trkpt lat="43.74263" lon="6.67168">
        <ele>1425.8</ele>
        <time>2024-05-26T10:46:54Z</time>
      </trkpt>
      <trkpt lat="43.74262" lon="6.67169">
        <ele>1425.8</ele>
        <time>2024-05-26T10:46:55Z</time>
      </trkpt>
      <trkpt lat="43.74262" lon="6.67169">
        <ele>1425.9</ele>
        <time>2024-05-26T10:46:56Z</time>
      </trkpt>
      <trkpt lat="43.74262" lon="6.6717">
        <ele>1425.9</ele>
        <time>2024-05-26T10:46:57Z</time>
      </trkpt>
      <trkpt lat="43.74261" lon="6.6717">
        <ele>1425.9</ele>
        <time>2024-05-26T10:46:58Z</time>
      </trkpt>
      <trkpt lat="43.74261" lon="6.6717">
        <ele>1426</ele>
        <time>2024-05-26T10:46:59Z</time>
      </trkpt>
      <trkpt lat="43.7426" lon="6.6717">
        <ele>1426.1</ele>
        <time>2024-05-26T10:47:00Z</time>
      </trkpt>
      <trkpt lat="43.74259" lon="6.6717">
        <ele>1426.2</ele>
        <time>2024-05-26T10:47:01Z</time>
      </trkpt>
      <trkpt lat="43.74259" lon="6.67171">
        <ele>1426.2</ele>
        <time>2024-05-26T10:47:02Z</time>
      </trkpt>
      <trkpt lat="43.74258" lon="6.67172">
        <ele>1426.3</ele>
        <time>2024-05-26T10:47:03Z</time>
      </trkpt>
      <trkpt lat="43.74257" lon="6.67173">
        <ele>1426.4</ele>
        <time>2024-05-26T10:47:04Z</time>
      </trkpt>
      <trkpt lat="43.74257" lon="6.67174">
        <ele>1426.4</ele>
        <time>2024-05-26T10:47:05Z</time>
      </trkpt>
      <trkpt lat="43.74256" lon="6.67174">
        <ele>1426.5</ele>
        <time>2024-05-26T10:47:06Z</time>
      </trkpt>
      <trkpt lat="43.74255" lon="6.67175">
        <ele>1426.5</ele>
        <time>2024-05-26T10:47:07Z</time>
      </trkpt>
      <trkpt lat="43.74255" lon="6.67176">
        <ele>1426.7</ele>
        <time>2024-05-26T10:47:08Z</time>
      </trkpt>
      <trkpt lat="43.74254" lon="6.67176">
        <ele>1426.8</ele>
        <time>2024-05-26T10:47:09Z</time>
      </trkpt>
      <trkpt lat="43.74254" lon="6.67177">
        <ele>1426.9</ele>
        <time>2024-05-26T10:47:10Z</time>
      </trkpt>
      <trkpt lat="43.74253" lon="6.67177">
        <ele>1427</ele>
        <time>2024-05-26T10:47:11Z</time>
      </trkpt>
      <trkpt lat="43.74253" lon="6.67178">
        <ele>1427.1</ele>
        <time>2024-05-26T10:47:12Z</time>
      </trkpt>
      <trkpt lat="43.74253" lon="6.67179">
        <ele>1427.2</ele>
        <time>2024-05-26T10:47:13Z</time>
      </trkpt>
      <trkpt lat="43.74252" lon="6.6718">
        <ele>1427.3</ele>
        <time>2024-05-26T10:47:14Z</time>
      </trkpt>
      <trkpt lat="43.74253" lon="6.67181">
        <ele>1427.4</ele>
        <time>2024-05-26T10:47:15Z</time>
      </trkpt>
      <trkpt lat="43.74252" lon="6.67182">
        <ele>1427.5</ele>
        <time>2024-05-26T10:47:16Z</time>
      </trkpt>
      <trkpt lat="43.74252" lon="6.67183">
        <ele>1427.1</ele>
        <time>2024-05-26T10:47:17Z</time>
      </trkpt>
      <trkpt lat="43.74251" lon="6.67185">
        <ele>1427.1</ele>
        <time>2024-05-26T10:47:18Z</time>
      </trkpt>
      <trkpt lat="43.7425" lon="6.67186">
        <ele>1427.2</ele>
        <time>2024-05-26T10:47:19Z</time>
      </trkpt>
      <trkpt lat="43.7425" lon="6.67187">
        <ele>1427.2</ele>
        <time>2024-05-26T10:47:20Z</time>
      </trkpt>
      <trkpt lat="43.7425" lon="6.67188">
        <ele>1427.4</ele>
        <time>2024-05-26T10:47:21Z</time>
      </trkpt>
      <trkpt lat="43.74249" lon="6.67189">
        <ele>1427.5</ele>
        <time>2024-05-26T10:47:22Z</time>
      </trkpt>
      <trkpt lat="43.74249" lon="6.67189">
        <ele>1427.5</ele>
        <time>2024-05-26T10:47:23Z</time>
      </trkpt>
      <trkpt lat="43.74248" lon="6.6719">
        <ele>1427.5</ele>
        <time>2024-05-26T10:47:24Z</time>
      </trkpt>
      <trkpt lat="43.74248" lon="6.67191">
        <ele>1427.6</ele>
        <time>2024-05-26T10:47:25Z</time>
      </trkpt>
      <trkpt lat="43.74248" lon="6.67192">
        <ele>1427.7</ele>
        <time>2024-05-26T10:47:26Z</time>
      </trkpt>
      <trkpt lat="43.74247" lon="6.67193">
        <ele>1427.7</ele>
        <time>2024-05-26T10:47:27Z</time>
      </trkpt>
      <trkpt lat="43.74247" lon="6.67194">
        <ele>1427.8</ele>
        <time>2024-05-26T10:47:28Z</time>
      </trkpt>
      <trkpt lat="43.74247" lon="6.67194">
        <ele>1427.9</ele>
        <time>2024-05-26T10:47:29Z</time>
      </trkpt>
      <trkpt lat="43.74246" lon="6.67194">
        <ele>1428</ele>
        <time>2024-05-26T10:47:30Z</time>
      </trkpt>
      <trkpt lat="43.74246" lon="6.67194">
        <ele>1428.1</ele>
        <time>2024-05-26T10:47:31Z</time>
      </trkpt>
      <trkpt lat="43.74246" lon="6.67195">
        <ele>1428.2</ele>
        <time>2024-05-26T10:47:32Z</time>
      </trkpt>
      <trkpt lat="43.74246" lon="6.67196">
        <ele>1428.3</ele>
        <time>2024-05-26T10:47:33Z</time>
      </trkpt>
      <trkpt lat="43.74246" lon="6.67196">
        <ele>1428.5</ele>
        <time>2024-05-26T10:47:34Z</time>
      </trkpt>
      <trkpt lat="43.74245" lon="6.67197">
        <ele>1428.6</ele>
        <time>2024-05-26T10:47:35Z</time>
      </trkpt>
      <trkpt lat="43.74245" lon="6.67197">
        <ele>1428.7</ele>
        <time>2024-05-26T10:47:36Z</time>
      </trkpt>
      <trkpt lat="43.74245" lon="6.67198">
        <ele>1428.8</ele>
        <time>2024-05-26T10:47:37Z</time>
      </trkpt>
      <trkpt lat="43.74245" lon="6.67198">
        <ele>1428.9</ele>
        <time>2024-05-26T10:47:38Z</time>
      </trkpt>
      <trkpt lat="43.74245" lon="6.67199">
        <ele>1429</ele>
        <time>2024-05-26T10:47:39Z</time>
      </trkpt>
      <trkpt lat="43.74244" lon="6.672">
        <ele>1429.1</ele>
        <time>2024-05-26T10:47:40Z</time>
      </trkpt>
      <trkpt lat="43.74243" lon="6.67201">
        <ele>1429.1</ele>
        <time>2024-05-26T10:47:41Z</time>
      </trkpt>
      <trkpt lat="43.74242" lon="6.67201">
        <ele>1429.2</ele>
        <time>2024-05-26T10:47:42Z</time>
      </trkpt>
      <trkpt lat="43.74242" lon="6.67203">
        <ele>1429.2</ele>
        <time>2024-05-26T10:47:43Z</time>
      </trkpt>
      <trkpt lat="43.74242" lon="6.67203">
        <ele>1429.3</ele>
        <time>2024-05-26T10:47:44Z</time>
      </trkpt>
      <trkpt lat="43.74243" lon="6.67205">
        <ele>1429.4</ele>
        <time>2024-05-26T10:47:45Z</time>
      </trkpt>
      <trkpt lat="43.74243" lon="6.67207">
        <ele>1429.7</ele>
        <time>2024-05-26T10:47:46Z</time>
      </trkpt>
      <trkpt lat="43.74243" lon="6.67208">
        <ele>1429.8</ele>
        <time>2024-05-26T10:47:47Z</time>
      </trkpt>
      <trkpt lat="43.74244" lon="6.6721">
        <ele>1429.9</ele>
        <time>2024-05-26T10:47:48Z</time>
      </trkpt>
      <trkpt lat="43.74244" lon="6.67212">
        <ele>1430</ele>
        <time>2024-05-26T10:47:49Z</time>
      </trkpt>
      <trkpt lat="43.74246" lon="6.67215">
        <ele>1430.1</ele>
        <time>2024-05-26T10:47:50Z</time>
      </trkpt>
      <trkpt lat="43.74246" lon="6.67217">
        <ele>1430.3</ele>
        <time>2024-05-26T10:47:51Z</time>
      </trkpt>
      <trkpt lat="43.74246" lon="6.67217">
        <ele>1430.4</ele>
        <time>2024-05-26T10:47:52Z</time>
      </trkpt>
      <trkpt lat="43.74246" lon="6.67216">
        <ele>1430.5</ele>
        <time>2024-05-26T10:47:53Z</time>
      </trkpt>
      <trkpt lat="43.74245" lon="6.67216">
        <ele>1430.6</ele>
        <time>2024-05-26T10:47:54Z</time>
      </trkpt>
      <trkpt lat="43.74245" lon="6.67216">
        <ele>1430.5</ele>
        <time>2024-05-26T10:47:55Z</time>
      </trkpt>
      <trkpt lat="43.74245" lon="6.67216">
        <ele>1430.4</ele>
        <time>2024-05-26T10:47:56Z</time>
      </trkpt>
      <trkpt lat="43.74245" lon="6.67217">
        <ele>1430.4</ele>
        <time>2024-05-26T10:47:57Z</time>
      </trkpt>
      <trkpt lat="43.74245" lon="6.67217">
        <ele>1430.4</ele>
        <time>2024-05-26T10:47:58Z</time>
      </trkpt>
      <trkpt lat="43.74245" lon="6.67217">
        <ele>1430.4</ele>
        <time>2024-05-26T10:47:59Z</time>
      </trkpt>
      <trkpt lat="43.74245" lon="6.67217">
        <ele>1430.4</ele>
        <time>2024-05-26T10:48:00Z</time>
      </trkpt>
      <trkpt lat="43.74245" lon="6.67217">
        <ele>1430.4</ele>
        <time>2024-05-26T10:48:01Z</time>
      </trkpt>
      <trkpt lat="43.74245" lon="6.67217">
        <ele>1430.4</ele>
        <time>2024-05-26T10:48:02Z</time>
      </trkpt>
      <trkpt lat="43.74245" lon="6.67217">
        <ele>1430.3</ele>
        <time>2024-05-26T10:48:03Z</time>
      </trkpt>
      <trkpt lat="43.74245" lon="6.67219">
        <ele>1430.4</ele>
        <time>2024-05-26T10:48:04Z</time>
      </trkpt>
      <trkpt lat="43.74245" lon="6.67219">
        <ele>1430.4</ele>
        <time>2024-05-26T10:48:05Z</time>
      </trkpt>
      <trkpt lat="43.74245" lon="6.67219">
        <ele>1430.4</ele>
        <time>2024-05-26T10:48:06Z</time>
      </trkpt>
      <trkpt lat="43.74245" lon="6.67221">
        <ele>1430.4</ele>
        <time>2024-05-26T10:48:07Z</time>
      </trkpt>
      <trkpt lat="43.74245" lon="6.67222">
        <ele>1430.4</ele>
        <time>2024-05-26T10:48:08Z</time>
      </trkpt>
      <trkpt lat="43.74246" lon="6.67223">
        <ele>1430.5</ele>
        <time>2024-05-26T10:48:09Z</time>
      </trkpt>
      <trkpt lat="43.74246" lon="6.67224">
        <ele>1430.5</ele>
        <time>2024-05-26T10:48:10Z</time>
      </trkpt>
      <trkpt lat="43.74246" lon="6.67225">
        <ele>1430.6</ele>
        <time>2024-05-26T10:48:11Z</time>
      </trkpt>
      <trkpt lat="43.74246" lon="6.67226">
        <ele>1430.7</ele>
        <time>2024-05-26T10:48:12Z</time>
      </trkpt>
      <trkpt lat="43.74246" lon="6.67226">
        <ele>1430.9</ele>
        <time>2024-05-26T10:48:13Z</time>
      </trkpt>
      <trkpt lat="43.74246" lon="6.67227">
        <ele>1430.9</ele>
        <time>2024-05-26T10:48:14Z</time>
      </trkpt>
      <trkpt lat="43.74246" lon="6.67228">
        <ele>1431</ele>
        <time>2024-05-26T10:48:15Z</time>
      </trkpt>
      <trkpt lat="43.74246" lon="6.67228">
        <ele>1431.1</ele>
        <time>2024-05-26T10:48:16Z</time>
      </trkpt>
      <trkpt lat="43.74247" lon="6.67229">
        <ele>1431.1</ele>
        <time>2024-05-26T10:48:17Z</time>
      </trkpt>
      <trkpt lat="43.74247" lon="6.67229">
        <ele>1431.1</ele>
        <time>2024-05-26T10:48:18Z</time>
      </trkpt>
      <trkpt lat="43.74246" lon="6.6723">
        <ele>1431.1</ele>
        <time>2024-05-26T10:48:19Z</time>
      </trkpt>
      <trkpt lat="43.74246" lon="6.6723">
        <ele>1431.2</ele>
        <time>2024-05-26T10:48:20Z</time>
      </trkpt>
      <trkpt lat="43.74246" lon="6.6723">
        <ele>1431.2</ele>
        <time>2024-05-26T10:48:21Z</time>
      </trkpt>
      <trkpt lat="43.74246" lon="6.67231">
        <ele>1431.2</ele>
        <time>2024-05-26T10:48:22Z</time>
      </trkpt>
      <trkpt lat="43.74247" lon="6.67231">
        <ele>1431.2</ele>
        <time>2024-05-26T10:48:23Z</time>
      </trkpt>
      <trkpt lat="43.74247" lon="6.67231">
        <ele>1431.2</ele>
        <time>2024-05-26T10:48:24Z</time>
      </trkpt>
      <trkpt lat="43.74248" lon="6.67231">
        <ele>1431.2</ele>
        <time>2024-05-26T10:48:25Z</time>
      </trkpt>
      <trkpt lat="43.74249" lon="6.67231">
        <ele>1431.2</ele>
        <time>2024-05-26T10:48:26Z</time>
      </trkpt>
      <trkpt lat="43.74249" lon="6.67231">
        <ele>1431.3</ele>
        <time>2024-05-26T10:48:27Z</time>
      </trkpt>
      <trkpt lat="43.74249" lon="6.67232">
        <ele>1431.3</ele>
        <time>2024-05-26T10:48:28Z</time>
      </trkpt>
      <trkpt lat="43.7425" lon="6.67232">
        <ele>1431.4</ele>
        <time>2024-05-26T10:48:29Z</time>
      </trkpt>
      <trkpt lat="43.7425" lon="6.67233">
        <ele>1431.4</ele>
        <time>2024-05-26T10:48:30Z</time>
      </trkpt>
      <trkpt lat="43.7425" lon="6.67233">
        <ele>1431.4</ele>
        <time>2024-05-26T10:48:31Z</time>
      </trkpt>
      <trkpt lat="43.7425" lon="6.67233">
        <ele>1431.4</ele>
        <time>2024-05-26T10:48:32Z</time>
      </trkpt>
      <trkpt lat="43.74251" lon="6.67234">
        <ele>1431.4</ele>
        <time>2024-05-26T10:48:33Z</time>
      </trkpt>
      <trkpt lat="43.74251" lon="6.67235">
        <ele>1431.4</ele>
        <time>2024-05-26T10:48:34Z</time>
      </trkpt>
      <trkpt lat="43.74251" lon="6.67235">
        <ele>1431.4</ele>
        <time>2024-05-26T10:48:35Z</time>
      </trkpt>
      <trkpt lat="43.74251" lon="6.67236">
        <ele>1431.4</ele>
        <time>2024-05-26T10:48:36Z</time>
      </trkpt>
      <trkpt lat="43.74251" lon="6.67236">
        <ele>1431.4</ele>
        <time>2024-05-26T10:48:37Z</time>
      </trkpt>
      <trkpt lat="43.7425" lon="6.67237">
        <ele>1431.4</ele>
        <time>2024-05-26T10:48:38Z</time>
      </trkpt>
      <trkpt lat="43.7425" lon="6.67237">
        <ele>1431.4</ele>
        <time>2024-05-26T10:48:39Z</time>
      </trkpt>
      <trkpt lat="43.7425" lon="6.67237">
        <ele>1431.3</ele>
        <time>2024-05-26T10:48:40Z</time>
      </trkpt>
      <trkpt lat="43.7425" lon="6.67237">
        <ele>1431.3</ele>
        <time>2024-05-26T10:48:41Z</time>
      </trkpt>
      <trkpt lat="43.7425" lon="6.67238">
        <ele>1431.3</ele>
        <time>2024-05-26T10:48:42Z</time>
      </trkpt>
      <trkpt lat="43.7425" lon="6.67238">
        <ele>1431.3</ele>
        <time>2024-05-26T10:48:43Z</time>
      </trkpt>
      <trkpt lat="43.7425" lon="6.67238">
        <ele>1431.3</ele>
        <time>2024-05-26T10:48:44Z</time>
      </trkpt>
      <trkpt lat="43.7425" lon="6.67238">
        <ele>1431.3</ele>
        <time>2024-05-26T10:48:45Z</time>
      </trkpt>
      <trkpt lat="43.7425" lon="6.67238">
        <ele>1431.3</ele>
        <time>2024-05-26T10:48:46Z</time>
      </trkpt>
      <trkpt lat="43.7425" lon="6.67239">
        <ele>1431.3</ele>
        <time>2024-05-26T10:48:47Z</time>
      </trkpt>
      <trkpt lat="43.7425" lon="6.67239">
        <ele>1431.3</ele>
        <time>2024-05-26T10:48:48Z</time>
      </trkpt>
      <trkpt lat="43.7425" lon="6.67239">
        <ele>1431.2</ele>
        <time>2024-05-26T10:48:49Z</time>
      </trkpt>
      <trkpt lat="43.7425" lon="6.6724">
        <ele>1431.2</ele>
        <time>2024-05-26T10:48:50Z</time>
      </trkpt>
      <trkpt lat="43.7425" lon="6.6724">
        <ele>1431.2</ele>
        <time>2024-05-26T10:48:51Z</time>
      </trkpt>
      <trkpt lat="43.7425" lon="6.6724">
        <ele>1431.2</ele>
        <time>2024-05-26T10:48:52Z</time>
      </trkpt>
      <trkpt lat="43.7425" lon="6.6724">
        <ele>1431.1</ele>
        <time>2024-05-26T10:48:53Z</time>
      </trkpt>
      <trkpt lat="43.7425" lon="6.6724">
        <ele>1431.1</ele>
        <time>2024-05-26T10:48:54Z</time>
      </trkpt>
      <trkpt lat="43.7425" lon="6.6724">
        <ele>1431.1</ele>
        <time>2024-05-26T10:48:55Z</time>
      </trkpt>
      <trkpt lat="43.7425" lon="6.6724">
        <ele>1431</ele>
        <time>2024-05-26T10:48:56Z</time>
      </trkpt>
      <trkpt lat="43.7425" lon="6.67241">
        <ele>1431</ele>
        <time>2024-05-26T10:48:57Z</time>
      </trkpt>
      <trkpt lat="43.7425" lon="6.67241">
        <ele>1430.9</ele>
        <time>2024-05-26T10:48:58Z</time>
      </trkpt>
      <trkpt lat="43.7425" lon="6.67241">
        <ele>1430.9</ele>
        <time>2024-05-26T10:48:59Z</time>
      </trkpt>
      <trkpt lat="43.7425" lon="6.67241">
        <ele>1431</ele>
        <time>2024-05-26T10:49:00Z</time>
      </trkpt>
      <trkpt lat="43.7425" lon="6.67241">
        <ele>1431.1</ele>
        <time>2024-05-26T10:49:01Z</time>
      </trkpt>
      <trkpt lat="43.7425" lon="6.67241">
        <ele>1431</ele>
        <time>2024-05-26T10:49:02Z</time>
      </trkpt>
      <trkpt lat="43.74251" lon="6.67242">
        <ele>1430.9</ele>
        <time>2024-05-26T10:49:03Z</time>
      </trkpt>
      <trkpt lat="43.74251" lon="6.67242">
        <ele>1430.8</ele>
        <time>2024-05-26T10:49:04Z</time>
      </trkpt>
      <trkpt lat="43.74251" lon="6.67242">
        <ele>1430.8</ele>
        <time>2024-05-26T10:49:05Z</time>
      </trkpt>
      <trkpt lat="43.74252" lon="6.67241">
        <ele>1430.8</ele>
        <time>2024-05-26T10:49:06Z</time>
      </trkpt>
      <trkpt lat="43.74252" lon="6.67241">
        <ele>1430.9</ele>
        <time>2024-05-26T10:49:07Z</time>
      </trkpt>
      <trkpt lat="43.74252" lon="6.67241">
        <ele>1430.9</ele>
        <time>2024-05-26T10:49:08Z</time>
      </trkpt>
      <trkpt lat="43.74253" lon="6.6724">
        <ele>1430.9</ele>
        <time>2024-05-26T10:49:09Z</time>
      </trkpt>
      <trkpt lat="43.74253" lon="6.6724">
        <ele>1430.9</ele>
        <time>2024-05-26T10:49:10Z</time>
      </trkpt>
      <trkpt lat="43.74253" lon="6.6724">
        <ele>1430.9</ele>
        <time>2024-05-26T10:49:11Z</time>
      </trkpt>
      <trkpt lat="43.74253" lon="6.67239">
        <ele>1431.1</ele>
        <time>2024-05-26T10:49:12Z</time>
      </trkpt>
      <trkpt lat="43.74253" lon="6.67239">
        <ele>1431.2</ele>
        <time>2024-05-26T10:49:13Z</time>
      </trkpt>
      <trkpt lat="43.74254" lon="6.67239">
        <ele>1431.3</ele>
        <time>2024-05-26T10:49:14Z</time>
      </trkpt>
      <trkpt lat="43.74254" lon="6.67239">
        <ele>1431.3</ele>
        <time>2024-05-26T10:49:15Z</time>
      </trkpt>
      <trkpt lat="43.74254" lon="6.67239">
        <ele>1431.3</ele>
        <time>2024-05-26T10:49:16Z</time>
      </trkpt>
      <trkpt lat="43.74254" lon="6.67239">
        <ele>1431.3</ele>
        <time>2024-05-26T10:49:17Z</time>
      </trkpt>
      <trkpt lat="43.74254" lon="6.67239">
        <ele>1431.3</ele>
        <time>2024-05-26T10:49:18Z</time>
      </trkpt>
      <trkpt lat="43.74254" lon="6.67239">
        <ele>1431.4</ele>
        <time>2024-05-26T10:49:19Z</time>
      </trkpt>
      <trkpt lat="43.74254" lon="6.67238">
        <ele>1431.4</ele>
        <time>2024-05-26T10:49:20Z</time>
      </trkpt>
      <trkpt lat="43.74255" lon="6.67238">
        <ele>1431.3</ele>
        <time>2024-05-26T10:49:21Z</time>
      </trkpt>
      <trkpt lat="43.74255" lon="6.67238">
        <ele>1431.3</ele>
        <time>2024-05-26T10:49:22Z</time>
      </trkpt>
      <trkpt lat="43.74255" lon="6.67238">
        <ele>1431.3</ele>
        <time>2024-05-26T10:49:23Z</time>
      </trkpt>
      <trkpt lat="43.74255" lon="6.67238">
        <ele>1431.2</ele>
        <time>2024-05-26T10:49:24Z</time>
      </trkpt>
      <trkpt lat="43.74255" lon="6.67238">
        <ele>1431.3</ele>
        <time>2024-05-26T10:49:25Z</time>
      </trkpt>
      <trkpt lat="43.74255" lon="6.67238">
        <ele>1431.3</ele>
        <time>2024-05-26T10:49:26Z</time>
      </trkpt>
      <trkpt lat="43.74256" lon="6.67238">
        <ele>1431.3</ele>
        <time>2024-05-26T10:49:27Z</time>
      </trkpt>
      <trkpt lat="43.74256" lon="6.67237">
        <ele>1431.3</ele>
        <time>2024-05-26T10:49:28Z</time>
      </trkpt>
      <trkpt lat="43.74257" lon="6.67236">
        <ele>1431.2</ele>
        <time>2024-05-26T10:49:29Z</time>
      </trkpt>
      <trkpt lat="43.74256" lon="6.67236">
        <ele>1431.1</ele>
        <time>2024-05-26T10:49:30Z</time>
      </trkpt>
      <trkpt lat="43.74257" lon="6.67235">
        <ele>1431.1</ele>
        <time>2024-05-26T10:49:31Z</time>
      </trkpt>
      <trkpt lat="43.74257" lon="6.67235">
        <ele>1431.2</ele>
        <time>2024-05-26T10:49:32Z</time>
      </trkpt>
      <trkpt lat="43.74257" lon="6.67234">
        <ele>1431.2</ele>
        <time>2024-05-26T10:49:33Z</time>
      </trkpt>
      <trkpt lat="43.74257" lon="6.67234">
        <ele>1431.2</ele>
        <time>2024-05-26T10:49:34Z</time>
      </trkpt>
      <trkpt lat="43.74257" lon="6.67233">
        <ele>1431.1</ele>
        <time>2024-05-26T10:49:35Z</time>
      </trkpt>
      <trkpt lat="43.74257" lon="6.67233">
        <ele>1431.1</ele>
        <time>2024-05-26T10:49:36Z</time>
      </trkpt>
      <trkpt lat="43.74257" lon="6.67232">
        <ele>1431</ele>
        <time>2024-05-26T10:49:37Z</time>
      </trkpt>
      <trkpt lat="43.74257" lon="6.67232">
        <ele>1431</ele>
        <time>2024-05-26T10:49:38Z</time>
      </trkpt>
      <trkpt lat="43.74258" lon="6.67231">
        <ele>1431</ele>
        <time>2024-05-26T10:49:39Z</time>
      </trkpt>
      <trkpt lat="43.74258" lon="6.67232">
        <ele>1431</ele>
        <time>2024-05-26T10:49:40Z</time>
      </trkpt>
      <trkpt lat="43.74258" lon="6.67231">
        <ele>1431</ele>
        <time>2024-05-26T10:49:41Z</time>
      </trkpt>
      <trkpt lat="43.74258" lon="6.67232">
        <ele>1431</ele>
        <time>2024-05-26T10:49:42Z</time>
      </trkpt>
      <trkpt lat="43.74258" lon="6.67232">
        <ele>1431</ele>
        <time>2024-05-26T10:49:43Z</time>
      </trkpt>
      <trkpt lat="43.74258" lon="6.67231">
        <ele>1431</ele>
        <time>2024-05-26T10:49:44Z</time>
      </trkpt>
      <trkpt lat="43.74257" lon="6.67231">
        <ele>1431</ele>
        <time>2024-05-26T10:49:45Z</time>
      </trkpt>
      <trkpt lat="43.74258" lon="6.67231">
        <ele>1431</ele>
        <time>2024-05-26T10:49:46Z</time>
      </trkpt>
      <trkpt lat="43.74258" lon="6.67231">
        <ele>1431.1</ele>
        <time>2024-05-26T10:49:47Z</time>
      </trkpt>
      <trkpt lat="43.74257" lon="6.67231">
        <ele>1431.2</ele>
        <time>2024-05-26T10:49:48Z</time>
      </trkpt>
      <trkpt lat="43.74257" lon="6.67231">
        <ele>1431.2</ele>
        <time>2024-05-26T10:49:49Z</time>
      </trkpt>
      <trkpt lat="43.74258" lon="6.67231">
        <ele>1431.2</ele>
        <time>2024-05-26T10:49:50Z</time>
      </trkpt>
      <trkpt lat="43.74258" lon="6.67232">
        <ele>1431.2</ele>
        <time>2024-05-26T10:49:51Z</time>
      </trkpt>
      <trkpt lat="43.74258" lon="6.67232">
        <ele>1431.2</ele>
        <time>2024-05-26T10:49:52Z</time>
      </trkpt>
      <trkpt lat="43.74258" lon="6.67233">
        <ele>1431.2</ele>
        <time>2024-05-26T10:49:53Z</time>
      </trkpt>
      <trkpt lat="43.74258" lon="6.67234">
        <ele>1431.2</ele>
        <time>2024-05-26T10:49:54Z</time>
      </trkpt>
      <trkpt lat="43.74258" lon="6.67234">
        <ele>1431.1</ele>
        <time>2024-05-26T10:49:55Z</time>
      </trkpt>
      <trkpt lat="43.74259" lon="6.67234">
        <ele>1431</ele>
        <time>2024-05-26T10:49:56Z</time>
      </trkpt>
      <trkpt lat="43.74259" lon="6.67234">
        <ele>1430.9</ele>
        <time>2024-05-26T10:49:57Z</time>
      </trkpt>
      <trkpt lat="43.7426" lon="6.67235">
        <ele>1430.8</ele>
        <time>2024-05-26T10:49:58Z</time>
      </trkpt>
      <trkpt lat="43.7426" lon="6.67235">
        <ele>1430.8</ele>
        <time>2024-05-26T10:49:59Z</time>
      </trkpt>
      <trkpt lat="43.7426" lon="6.67235">
        <ele>1430.7</ele>
        <time>2024-05-26T10:50:00Z</time>
      </trkpt>
      <trkpt lat="43.7426" lon="6.67235">
        <ele>1430.7</ele>
        <time>2024-05-26T10:50:01Z</time>
      </trkpt>
      <trkpt lat="43.7426" lon="6.67235">
        <ele>1430.7</ele>
        <time>2024-05-26T10:50:02Z</time>
      </trkpt>
      <trkpt lat="43.7426" lon="6.67236">
        <ele>1430.6</ele>
        <time>2024-05-26T10:50:03Z</time>
      </trkpt>
      <trkpt lat="43.74261" lon="6.67236">
        <ele>1430.6</ele>
        <time>2024-05-26T10:50:04Z</time>
      </trkpt>
      <trkpt lat="43.74261" lon="6.67236">
        <ele>1430.6</ele>
        <time>2024-05-26T10:50:05Z</time>
      </trkpt>
      <trkpt lat="43.74261" lon="6.67237">
        <ele>1430.6</ele>
        <time>2024-05-26T10:50:06Z</time>
      </trkpt>
      <trkpt lat="43.74261" lon="6.67237">
        <ele>1430.6</ele>
        <time>2024-05-26T10:50:07Z</time>
      </trkpt>
      <trkpt lat="43.74261" lon="6.67236">
        <ele>1430.7</ele>
        <time>2024-05-26T10:50:08Z</time>
      </trkpt>
      <trkpt lat="43.74261" lon="6.67236">
        <ele>1430.7</ele>
        <time>2024-05-26T10:50:09Z</time>
      </trkpt>
      <trkpt lat="43.74262" lon="6.67236">
        <ele>1430.7</ele>
        <time>2024-05-26T10:50:10Z</time>
      </trkpt>
      <trkpt lat="43.74262" lon="6.67236">
        <ele>1430.8</ele>
        <time>2024-05-26T10:50:11Z</time>
      </trkpt>
      <trkpt lat="43.74262" lon="6.67236">
        <ele>1430.8</ele>
        <time>2024-05-26T10:50:12Z</time>
      </trkpt>
      <trkpt lat="43.74262" lon="6.67236">
        <ele>1430.8</ele>
        <time>2024-05-26T10:50:13Z</time>
      </trkpt>
      <trkpt lat="43.74262" lon="6.67237">
        <ele>1430.8</ele>
        <time>2024-05-26T10:50:14Z</time>
      </trkpt>
      <trkpt lat="43.74262" lon="6.67237">
        <ele>1430.8</ele>
        <time>2024-05-26T10:50:15Z</time>
      </trkpt>
      <trkpt lat="43.74262" lon="6.67237">
        <ele>1430.9</ele>
        <time>2024-05-26T10:50:16Z</time>
      </trkpt>
      <trkpt lat="43.74263" lon="6.67237">
        <ele>1430.9</ele>
        <time>2024-05-26T10:50:17Z</time>
      </trkpt>
      <trkpt lat="43.74263" lon="6.67237">
        <ele>1431</ele>
        <time>2024-05-26T10:50:18Z</time>
      </trkpt>
      <trkpt lat="43.74263" lon="6.67237">
        <ele>1431.1</ele>
        <time>2024-05-26T10:50:19Z</time>
      </trkpt>
      <trkpt lat="43.74263" lon="6.67237">
        <ele>1430.9</ele>
        <time>2024-05-26T10:50:20Z</time>
      </trkpt>
      <trkpt lat="43.74263" lon="6.67237">
        <ele>1430.9</ele>
        <time>2024-05-26T10:50:21Z</time>
      </trkpt>
      <trkpt lat="43.74263" lon="6.67237">
        <ele>1430.8</ele>
        <time>2024-05-26T10:50:22Z</time>
      </trkpt>
      <trkpt lat="43.74264" lon="6.67237">
        <ele>1430.7</ele>
        <time>2024-05-26T10:50:23Z</time>
      </trkpt>
      <trkpt lat="43.74264" lon="6.67237">
        <ele>1430.8</ele>
        <time>2024-05-26T10:50:24Z</time>
      </trkpt>
      <trkpt lat="43.74264" lon="6.67237">
        <ele>1430.8</ele>
        <time>2024-05-26T10:50:25Z</time>
      </trkpt>
      <trkpt lat="43.74264" lon="6.67238">
        <ele>1430.8</ele>
        <time>2024-05-26T10:50:26Z</time>
      </trkpt>
      <trkpt lat="43.74264" lon="6.67238">
        <ele>1430.8</ele>
        <time>2024-05-26T10:50:27Z</time>
      </trkpt>
      <trkpt lat="43.74264" lon="6.67237">
        <ele>1430.9</ele>
        <time>2024-05-26T10:50:28Z</time>
      </trkpt>
      <trkpt lat="43.74264" lon="6.67238">
        <ele>1430.9</ele>
        <time>2024-05-26T10:50:29Z</time>
      </trkpt>
      <trkpt lat="43.74264" lon="6.67238">
        <ele>1431</ele>
        <time>2024-05-26T10:50:30Z</time>
      </trkpt>
      <trkpt lat="43.74263" lon="6.67238">
        <ele>1430.9</ele>
        <time>2024-05-26T10:50:31Z</time>
      </trkpt>
      <trkpt lat="43.74264" lon="6.67238">
        <ele>1430.8</ele>
        <time>2024-05-26T10:50:32Z</time>
      </trkpt>
      <trkpt lat="43.74264" lon="6.67238">
        <ele>1430.8</ele>
        <time>2024-05-26T10:50:33Z</time>
      </trkpt>
      <trkpt lat="43.74264" lon="6.67238">
        <ele>1430.8</ele>
        <time>2024-05-26T10:50:34Z</time>
      </trkpt>
      <trkpt lat="43.74264" lon="6.67238">
        <ele>1430.9</ele>
        <time>2024-05-26T10:50:35Z</time>
      </trkpt>
      <trkpt lat="43.74265" lon="6.67238">
        <ele>1430.9</ele>
        <time>2024-05-26T10:50:36Z</time>
      </trkpt>
      <trkpt lat="43.74265" lon="6.67238">
        <ele>1430.9</ele>
        <time>2024-05-26T10:50:37Z</time>
      </trkpt>
      <trkpt lat="43.74265" lon="6.67238">
        <ele>1430.9</ele>
        <time>2024-05-26T10:50:38Z</time>
      </trkpt>
      <trkpt lat="43.74265" lon="6.67238">
        <ele>1430.9</ele>
        <time>2024-05-26T10:50:39Z</time>
      </trkpt>
      <trkpt lat="43.74265" lon="6.67238">
        <ele>1431</ele>
        <time>2024-05-26T10:50:40Z</time>
      </trkpt>
      <trkpt lat="43.74265" lon="6.67239">
        <ele>1431</ele>
        <time>2024-05-26T10:50:41Z</time>
      </trkpt>
      <trkpt lat="43.74265" lon="6.67239">
        <ele>1431</ele>
        <time>2024-05-26T10:50:42Z</time>
      </trkpt>
      <trkpt lat="43.74266" lon="6.67239">
        <ele>1431.1</ele>
        <time>2024-05-26T10:50:43Z</time>
      </trkpt>
      <trkpt lat="43.74266" lon="6.67239">
        <ele>1431.2</ele>
        <time>2024-05-26T10:50:44Z</time>
      </trkpt>
      <trkpt lat="43.74266" lon="6.67239">
        <ele>1431.2</ele>
        <time>2024-05-26T10:50:45Z</time>
      </trkpt>
      <trkpt lat="43.74266" lon="6.67239">
        <ele>1431.1</ele>
        <time>2024-05-26T10:50:46Z</time>
      </trkpt>
      <trkpt lat="43.74266" lon="6.67239">
        <ele>1431</ele>
        <time>2024-05-26T10:50:47Z</time>
      </trkpt>
      <trkpt lat="43.74266" lon="6.67239">
        <ele>1431</ele>
        <time>2024-05-26T10:50:48Z</time>
      </trkpt>
      <trkpt lat="43.74267" lon="6.67239">
        <ele>1431</ele>
        <time>2024-05-26T10:50:49Z</time>
      </trkpt>
      <trkpt lat="43.74267" lon="6.67239">
        <ele>1431</ele>
        <time>2024-05-26T10:50:50Z</time>
      </trkpt>
      <trkpt lat="43.74267" lon="6.67239">
        <ele>1431</ele>
        <time>2024-05-26T10:50:51Z</time>
      </trkpt>
      <trkpt lat="43.74267" lon="6.67239">
        <ele>1431</ele>
        <time>2024-05-26T10:50:52Z</time>
      </trkpt>
      <trkpt lat="43.74267" lon="6.67239">
        <ele>1431</ele>
        <time>2024-05-26T10:50:53Z</time>
      </trkpt>
      <trkpt lat="43.74267" lon="6.67239">
        <ele>1431</ele>
        <time>2024-05-26T10:50:54Z</time>
      </trkpt>
      <trkpt lat="43.74267" lon="6.67239">
        <ele>1431.1</ele>
        <time>2024-05-26T10:50:55Z</time>
      </trkpt>
      <trkpt lat="43.74267" lon="6.67238">
        <ele>1431.1</ele>
        <time>2024-05-26T10:50:56Z</time>
      </trkpt>
      <trkpt lat="43.74268" lon="6.67238">
        <ele>1431.1</ele>
        <time>2024-05-26T10:50:57Z</time>
      </trkpt>
      <trkpt lat="43.74268" lon="6.67238">
        <ele>1431</ele>
        <time>2024-05-26T10:50:58Z</time>
      </trkpt>
      <trkpt lat="43.74268" lon="6.67238">
        <ele>1431</ele>
        <time>2024-05-26T10:50:59Z</time>
      </trkpt>
      <trkpt lat="43.74268" lon="6.67238">
        <ele>1431</ele>
        <time>2024-05-26T10:51:00Z</time>
      </trkpt>
      <trkpt lat="43.74268" lon="6.67238">
        <ele>1430.9</ele>
        <time>2024-05-26T10:51:01Z</time>
      </trkpt>
      <trkpt lat="43.74267" lon="6.67238">
        <ele>1430.9</ele>
        <time>2024-05-26T10:51:02Z</time>
      </trkpt>
      <trkpt lat="43.74267" lon="6.67238">
        <ele>1430.8</ele>
        <time>2024-05-26T10:51:03Z</time>
      </trkpt>
      <trkpt lat="43.74266" lon="6.67238">
        <ele>1430.8</ele>
        <time>2024-05-26T10:51:04Z</time>
      </trkpt>
      <trkpt lat="43.74266" lon="6.67238">
        <ele>1430.8</ele>
        <time>2024-05-26T10:51:05Z</time>
      </trkpt>
      <trkpt lat="43.74265" lon="6.67238">
        <ele>1430.8</ele>
        <time>2024-05-26T10:51:06Z</time>
      </trkpt>
      <trkpt lat="43.74265" lon="6.67238">
        <ele>1430.7</ele>
        <time>2024-05-26T10:51:07Z</time>
      </trkpt>
      <trkpt lat="43.74264" lon="6.67238">
        <ele>1430.7</ele>
        <time>2024-05-26T10:51:08Z</time>
      </trkpt>
      <trkpt lat="43.74264" lon="6.67238">
        <ele>1430.7</ele>
        <time>2024-05-26T10:51:09Z</time>
      </trkpt>
      <trkpt lat="43.74264" lon="6.67238">
        <ele>1430.8</ele>
        <time>2024-05-26T10:51:10Z</time>
      </trkpt>
      <trkpt lat="43.74264" lon="6.67238">
        <ele>1430.9</ele>
        <time>2024-05-26T10:51:11Z</time>
      </trkpt>
      <trkpt lat="43.74264" lon="6.67238">
        <ele>1431</ele>
        <time>2024-05-26T10:51:12Z</time>
      </trkpt>
      <trkpt lat="43.74265" lon="6.67237">
        <ele>1431</ele>
        <time>2024-05-26T10:51:13Z</time>
      </trkpt>
      <trkpt lat="43.74265" lon="6.67237">
        <ele>1430.9</ele>
        <time>2024-05-26T10:51:14Z</time>
      </trkpt>
      <trkpt lat="43.74265" lon="6.67237">
        <ele>1431</ele>
        <time>2024-05-26T10:51:15Z</time>
      </trkpt>
      <trkpt lat="43.74265" lon="6.67237">
        <ele>1431</ele>
        <time>2024-05-26T10:51:16Z</time>
      </trkpt>
      <trkpt lat="43.74265" lon="6.67237">
        <ele>1431.1</ele>
        <time>2024-05-26T10:51:17Z</time>
      </trkpt>
      <trkpt lat="43.74265" lon="6.67237">
        <ele>1431</ele>
        <time>2024-05-26T10:51:18Z</time>
      </trkpt>
      <trkpt lat="43.74265" lon="6.67237">
        <ele>1430.9</ele>
        <time>2024-05-26T10:51:19Z</time>
      </trkpt>
      <trkpt lat="43.74264" lon="6.67237">
        <ele>1430.8</ele>
        <time>2024-05-26T10:51:20Z</time>
      </trkpt>
      <trkpt lat="43.74264" lon="6.67237">
        <ele>1430.7</ele>
        <time>2024-05-26T10:51:21Z</time>
      </trkpt>
      <trkpt lat="43.74264" lon="6.67237">
        <ele>1430.7</ele>
        <time>2024-05-26T10:51:22Z</time>
      </trkpt>
      <trkpt lat="43.74264" lon="6.67237">
        <ele>1430.7</ele>
        <time>2024-05-26T10:51:23Z</time>
      </trkpt>
      <trkpt lat="43.74264" lon="6.67237">
        <ele>1430.7</ele>
        <time>2024-05-26T10:51:24Z</time>
      </trkpt>
      <trkpt lat="43.74264" lon="6.67237">
        <ele>1430.7</ele>
        <time>2024-05-26T10:51:25Z</time>
      </trkpt>
      <trkpt lat="43.74265" lon="6.67237">
        <ele>1430.6</ele>
        <time>2024-05-26T10:51:26Z</time>
      </trkpt>
      <trkpt lat="43.74265" lon="6.67237">
        <ele>1430.6</ele>
        <time>2024-05-26T10:51:27Z</time>
      </trkpt>
      <trkpt lat="43.74265" lon="6.67237">
        <ele>1430.6</ele>
        <time>2024-05-26T10:51:28Z</time>
      </trkpt>
      <trkpt lat="43.74265" lon="6.67237">
        <ele>1430.6</ele>
        <time>2024-05-26T10:51:29Z</time>
      </trkpt>
      <trkpt lat="43.74266" lon="6.67237">
        <ele>1430.7</ele>
        <time>2024-05-26T10:51:30Z</time>
      </trkpt>
      <trkpt lat="43.74266" lon="6.67237">
        <ele>1430.7</ele>
        <time>2024-05-26T10:51:31Z</time>
      </trkpt>
      <trkpt lat="43.74266" lon="6.67237">
        <ele>1430.7</ele>
        <time>2024-05-26T10:51:32Z</time>
      </trkpt>
      <trkpt lat="43.74266" lon="6.67237">
        <ele>1430.7</ele>
        <time>2024-05-26T10:51:33Z</time>
      </trkpt>
      <trkpt lat="43.74266" lon="6.67237">
        <ele>1430.7</ele>
        <time>2024-05-26T10:51:34Z</time>
      </trkpt>
      <trkpt lat="43.74267" lon="6.67237">
        <ele>1430.7</ele>
        <time>2024-05-26T10:51:35Z</time>
      </trkpt>
      <trkpt lat="43.74267" lon="6.67237">
        <ele>1430.7</ele>
        <time>2024-05-26T10:51:36Z</time>
      </trkpt>
      <trkpt lat="43.74267" lon="6.67237">
        <ele>1430.7</ele>
        <time>2024-05-26T10:51:37Z</time>
      </trkpt>
      <trkpt lat="43.74267" lon="6.67237">
        <ele>1430.7</ele>
        <time>2024-05-26T10:51:38Z</time>
      </trkpt>
      <trkpt lat="43.74267" lon="6.67237">
        <ele>1430.8</ele>
        <time>2024-05-26T10:51:39Z</time>
      </trkpt>
      <trkpt lat="43.74267" lon="6.67237">
        <ele>1430.8</ele>
        <time>2024-05-26T10:51:40Z</time>
      </trkpt>
      <trkpt lat="43.74267" lon="6.67237">
        <ele>1430.8</ele>
        <time>2024-05-26T10:51:41Z</time>
      </trkpt>
      <trkpt lat="43.74268" lon="6.67237">
        <ele>1430.8</ele>
        <time>2024-05-26T10:51:42Z</time>
      </trkpt>
      <trkpt lat="43.74268" lon="6.67236">
        <ele>1430.8</ele>
        <time>2024-05-26T10:51:43Z</time>
      </trkpt>
      <trkpt lat="43.74268" lon="6.67236">
        <ele>1430.8</ele>
        <time>2024-05-26T10:51:44Z</time>
      </trkpt>
      <trkpt lat="43.74268" lon="6.67236">
        <ele>1430.8</ele>
        <time>2024-05-26T10:51:45Z</time>
      </trkpt>
      <trkpt lat="43.74268" lon="6.67236">
        <ele>1430.7</ele>
        <time>2024-05-26T10:51:46Z</time>
      </trkpt>
      <trkpt lat="43.74268" lon="6.67236">
        <ele>1430.7</ele>
        <time>2024-05-26T10:51:47Z</time>
      </trkpt>
      <trkpt lat="43.74268" lon="6.67236">
        <ele>1430.7</ele>
        <time>2024-05-26T10:51:48Z</time>
      </trkpt>
      <trkpt lat="43.74268" lon="6.67236">
        <ele>1430.7</ele>
        <time>2024-05-26T10:51:49Z</time>
      </trkpt>
      <trkpt lat="43.74269" lon="6.67236">
        <ele>1430.7</ele>
        <time>2024-05-26T10:51:50Z</time>
      </trkpt>
      <trkpt lat="43.74269" lon="6.67236">
        <ele>1430.7</ele>
        <time>2024-05-26T10:51:51Z</time>
      </trkpt>
      <trkpt lat="43.74269" lon="6.67236">
        <ele>1430.8</ele>
        <time>2024-05-26T10:51:52Z</time>
      </trkpt>
      <trkpt lat="43.74269" lon="6.67236">
        <ele>1430.7</ele>
        <time>2024-05-26T10:51:53Z</time>
      </trkpt>
      <trkpt lat="43.74269" lon="6.67236">
        <ele>1430.7</ele>
        <time>2024-05-26T10:51:54Z</time>
      </trkpt>
      <trkpt lat="43.74269" lon="6.67236">
        <ele>1430.7</ele>
        <time>2024-05-26T10:51:55Z</time>
      </trkpt>
      <trkpt lat="43.74269" lon="6.67236">
        <ele>1430.7</ele>
        <time>2024-05-26T10:51:56Z</time>
      </trkpt>
      <trkpt lat="43.74269" lon="6.67235">
        <ele>1430.7</ele>
        <time>2024-05-26T10:51:57Z</time>
      </trkpt>
      <trkpt lat="43.74269" lon="6.67235">
        <ele>1430.8</ele>
        <time>2024-05-26T10:51:58Z</time>
      </trkpt>
      <trkpt lat="43.74269" lon="6.67235">
        <ele>1430.8</ele>
        <time>2024-05-26T10:51:59Z</time>
      </trkpt>
      <trkpt lat="43.74269" lon="6.67235">
        <ele>1430.9</ele>
        <time>2024-05-26T10:52:00Z</time>
      </trkpt>
      <trkpt lat="43.74269" lon="6.67235">
        <ele>1430.9</ele>
        <time>2024-05-26T10:52:01Z</time>
      </trkpt>
      <trkpt lat="43.74269" lon="6.67235">
        <ele>1430.9</ele>
        <time>2024-05-26T10:52:02Z</time>
      </trkpt>
      <trkpt lat="43.7427" lon="6.67235">
        <ele>1430.8</ele>
        <time>2024-05-26T10:52:03Z</time>
      </trkpt>
      <trkpt lat="43.7427" lon="6.67235">
        <ele>1430.8</ele>
        <time>2024-05-26T10:52:04Z</time>
      </trkpt>
      <trkpt lat="43.7427" lon="6.67235">
        <ele>1430.8</ele>
        <time>2024-05-26T10:52:05Z</time>
      </trkpt>
      <trkpt lat="43.7427" lon="6.67235">
        <ele>1430.8</ele>
        <time>2024-05-26T10:52:06Z</time>
      </trkpt>
      <trkpt lat="43.7427" lon="6.67235">
        <ele>1430.8</ele>
        <time>2024-05-26T10:52:07Z</time>
      </trkpt>
      <trkpt lat="43.7427" lon="6.67235">
        <ele>1430.8</ele>
        <time>2024-05-26T10:52:08Z</time>
      </trkpt>
      <trkpt lat="43.7427" lon="6.67234">
        <ele>1430.9</ele>
        <time>2024-05-26T10:52:09Z</time>
      </trkpt>
      <trkpt lat="43.7427" lon="6.67234">
        <ele>1430.9</ele>
        <time>2024-05-26T10:52:10Z</time>
      </trkpt>
      <trkpt lat="43.7427" lon="6.67234">
        <ele>1430.9</ele>
        <time>2024-05-26T10:52:11Z</time>
      </trkpt>
      <trkpt lat="43.7427" lon="6.67234">
        <ele>1430.9</ele>
        <time>2024-05-26T10:52:12Z</time>
      </trkpt>
      <trkpt lat="43.7427" lon="6.67234">
        <ele>1430.9</ele>
        <time>2024-05-26T10:52:13Z</time>
      </trkpt>
      <trkpt lat="43.7427" lon="6.67234">
        <ele>1430.9</ele>
        <time>2024-05-26T10:52:14Z</time>
      </trkpt>
      <trkpt lat="43.7427" lon="6.67234">
        <ele>1430.9</ele>
        <time>2024-05-26T10:52:15Z</time>
      </trkpt>
      <trkpt lat="43.7427" lon="6.67234">
        <ele>1430.9</ele>
        <time>2024-05-26T10:52:16Z</time>
      </trkpt>
      <trkpt lat="43.7427" lon="6.67234">
        <ele>1431</ele>
        <time>2024-05-26T10:52:17Z</time>
      </trkpt>
      <trkpt lat="43.7427" lon="6.67234">
        <ele>1431.1</ele>
        <time>2024-05-26T10:52:18Z</time>
      </trkpt>
      <trkpt lat="43.7427" lon="6.67234">
        <ele>1431.1</ele>
        <time>2024-05-26T10:52:19Z</time>
      </trkpt>
      <trkpt lat="43.7427" lon="6.67234">
        <ele>1431.1</ele>
        <time>2024-05-26T10:52:20Z</time>
      </trkpt>
      <trkpt lat="43.7427" lon="6.67234">
        <ele>1431</ele>
        <time>2024-05-26T10:52:21Z</time>
      </trkpt>
      <trkpt lat="43.7427" lon="6.67234">
        <ele>1431.1</ele>
        <time>2024-05-26T10:52:22Z</time>
      </trkpt>
      <trkpt lat="43.7427" lon="6.67234">
        <ele>1431.1</ele>
        <time>2024-05-26T10:52:23Z</time>
      </trkpt>
      <trkpt lat="43.7427" lon="6.67234">
        <ele>1431.1</ele>
        <time>2024-05-26T10:52:24Z</time>
      </trkpt>
      <trkpt lat="43.7427" lon="6.67234">
        <ele>1431.2</ele>
        <time>2024-05-26T10:52:25Z</time>
      </trkpt>
      <trkpt lat="43.7427" lon="6.67234">
        <ele>1431.2</ele>
        <time>2024-05-26T10:52:26Z</time>
      </trkpt>
      <trkpt lat="43.7427" lon="6.67234">
        <ele>1431.2</ele>
        <time>2024-05-26T10:52:27Z</time>
      </trkpt>
      <trkpt lat="43.7427" lon="6.67234">
        <ele>1431.2</ele>
        <time>2024-05-26T10:52:28Z</time>
      </trkpt>
      <trkpt lat="43.7427" lon="6.67234">
        <ele>1431.3</ele>
        <time>2024-05-26T10:52:29Z</time>
      </trkpt>
      <trkpt lat="43.7427" lon="6.67234">
        <ele>1431.4</ele>
        <time>2024-05-26T10:52:30Z</time>
      </trkpt>
      <trkpt lat="43.7427" lon="6.67234">
        <ele>1431.4</ele>
        <time>2024-05-26T10:52:31Z</time>
      </trkpt>
      <trkpt lat="43.7427" lon="6.67234">
        <ele>1431.4</ele>
        <time>2024-05-26T10:52:32Z</time>
      </trkpt>
      <trkpt lat="43.7427" lon="6.67234">
        <ele>1431.4</ele>
        <time>2024-05-26T10:52:33Z</time>
      </trkpt>
      <trkpt lat="43.7427" lon="6.67234">
        <ele>1431.4</ele>
        <time>2024-05-26T10:52:34Z</time>
      </trkpt>
      <trkpt lat="43.7427" lon="6.67234">
        <ele>1431.4</ele>
        <time>2024-05-26T10:52:35Z</time>
      </trkpt>
      <trkpt lat="43.74269" lon="6.67234">
        <ele>1431.3</ele>
        <time>2024-05-26T10:52:36Z</time>
      </trkpt>
      <trkpt lat="43.74269" lon="6.67234">
        <ele>1431.3</ele>
        <time>2024-05-26T10:52:37Z</time>
      </trkpt>
      <trkpt lat="43.74269" lon="6.67235">
        <ele>1431.2</ele>
        <time>2024-05-26T10:52:38Z</time>
      </trkpt>
      <trkpt lat="43.74269" lon="6.67235">
        <ele>1431.2</ele>
        <time>2024-05-26T10:52:39Z</time>
      </trkpt>
      <trkpt lat="43.74269" lon="6.67235">
        <ele>1431.2</ele>
        <time>2024-05-26T10:52:40Z</time>
      </trkpt>
      <trkpt lat="43.74269" lon="6.67235">
        <ele>1431.1</ele>
        <time>2024-05-26T10:52:41Z</time>
      </trkpt>
      <trkpt lat="43.74269" lon="6.67235">
        <ele>1431.1</ele>
        <time>2024-05-26T10:52:42Z</time>
      </trkpt>
      <trkpt lat="43.74269" lon="6.67235">
        <ele>1431</ele>
        <time>2024-05-26T10:52:43Z</time>
      </trkpt>
      <trkpt lat="43.74269" lon="6.67235">
        <ele>1430.9</ele>
        <time>2024-05-26T10:52:44Z</time>
      </trkpt>
      <trkpt lat="43.74269" lon="6.67236">
        <ele>1430.9</ele>
        <time>2024-05-26T10:52:45Z</time>
      </trkpt>
      <trkpt lat="43.74269" lon="6.67236">
        <ele>1430.9</ele>
        <time>2024-05-26T10:52:46Z</time>
      </trkpt>
      <trkpt lat="43.74269" lon="6.67236">
        <ele>1430.9</ele>
        <time>2024-05-26T10:52:47Z</time>
      </trkpt>
      <trkpt lat="43.74269" lon="6.67236">
        <ele>1431</ele>
        <time>2024-05-26T10:52:48Z</time>
      </trkpt>
      <trkpt lat="43.74269" lon="6.67236">
        <ele>1431</ele>
        <time>2024-05-26T10:52:49Z</time>
      </trkpt>
      <trkpt lat="43.74269" lon="6.67236">
        <ele>1431</ele>
        <time>2024-05-26T10:52:50Z</time>
      </trkpt>
      <trkpt lat="43.74269" lon="6.67236">
        <ele>1431</ele>
        <time>2024-05-26T10:52:51Z</time>
      </trkpt>
      <trkpt lat="43.74269" lon="6.67236">
        <ele>1431</ele>
        <time>2024-05-26T10:52:52Z</time>
      </trkpt>
      <trkpt lat="43.74268" lon="6.67236">
        <ele>1430.9</ele>
        <time>2024-05-26T10:52:53Z</time>
      </trkpt>
      <trkpt lat="43.74268" lon="6.67237">
        <ele>1430.9</ele>
        <time>2024-05-26T10:52:54Z</time>
      </trkpt>
      <trkpt lat="43.74268" lon="6.67237">
        <ele>1430.8</ele>
        <time>2024-05-26T10:52:55Z</time>
      </trkpt>
      <trkpt lat="43.74268" lon="6.67237">
        <ele>1430.9</ele>
        <time>2024-05-26T10:52:56Z</time>
      </trkpt>
      <trkpt lat="43.74268" lon="6.67237">
        <ele>1430.9</ele>
        <time>2024-05-26T10:52:57Z</time>
      </trkpt>
      <trkpt lat="43.74268" lon="6.67237">
        <ele>1430.9</ele>
        <time>2024-05-26T10:52:58Z</time>
      </trkpt>
      <trkpt lat="43.74267" lon="6.67237">
        <ele>1430.8</ele>
        <time>2024-05-26T10:52:59Z</time>
      </trkpt>
      <trkpt lat="43.74267" lon="6.67237">
        <ele>1430.8</ele>
        <time>2024-05-26T10:53:00Z</time>
      </trkpt>
      <trkpt lat="43.74267" lon="6.67237">
        <ele>1430.8</ele>
        <time>2024-05-26T10:53:01Z</time>
      </trkpt>
      <trkpt lat="43.74267" lon="6.67237">
        <ele>1430.9</ele>
        <time>2024-05-26T10:53:02Z</time>
      </trkpt>
      <trkpt lat="43.74267" lon="6.67237">
        <ele>1430.9</ele>
        <time>2024-05-26T10:53:03Z</time>
      </trkpt>
      <trkpt lat="43.74267" lon="6.67237">
        <ele>1430.9</ele>
        <time>2024-05-26T10:53:04Z</time>
      </trkpt>
      <trkpt lat="43.74267" lon="6.67237">
        <ele>1430.9</ele>
        <time>2024-05-26T10:53:05Z</time>
      </trkpt>
      <trkpt lat="43.74266" lon="6.67237">
        <ele>1430.9</ele>
        <time>2024-05-26T10:53:06Z</time>
      </trkpt>
      <trkpt lat="43.74266" lon="6.67237">
        <ele>1430.9</ele>
        <time>2024-05-26T10:53:07Z</time>
      </trkpt>
      <trkpt lat="43.74266" lon="6.67237">
        <ele>1430.9</ele>
        <time>2024-05-26T10:53:08Z</time>
      </trkpt>
      <trkpt lat="43.74266" lon="6.67237">
        <ele>1430.8</ele>
        <time>2024-05-26T10:53:09Z</time>
      </trkpt>
      <trkpt lat="43.74266" lon="6.67237">
        <ele>1430.8</ele>
        <time>2024-05-26T10:53:10Z</time>
      </trkpt>
      <trkpt lat="43.74266" lon="6.67237">
        <ele>1430.8</ele>
        <time>2024-05-26T10:53:11Z</time>
      </trkpt>
      <trkpt lat="43.74267" lon="6.67237">
        <ele>1430.9</ele>
        <time>2024-05-26T10:53:12Z</time>
      </trkpt>
      <trkpt lat="43.74267" lon="6.67237">
        <ele>1430.8</ele>
        <time>2024-05-26T10:53:13Z</time>
      </trkpt>
      <trkpt lat="43.74267" lon="6.67237">
        <ele>1430.8</ele>
        <time>2024-05-26T10:53:14Z</time>
      </trkpt>
      <trkpt lat="43.74267" lon="6.67237">
        <ele>1430.8</ele>
        <time>2024-05-26T10:53:15Z</time>
      </trkpt>
      <trkpt lat="43.74267" lon="6.67237">
        <ele>1430.9</ele>
        <time>2024-05-26T10:53:16Z</time>
      </trkpt>
      <trkpt lat="43.74267" lon="6.67236">
        <ele>1430.9</ele>
        <time>2024-05-26T10:53:17Z</time>
      </trkpt>
      <trkpt lat="43.74267" lon="6.67236">
        <ele>1431</ele>
        <time>2024-05-26T10:53:18Z</time>
      </trkpt>
      <trkpt lat="43.74267" lon="6.67236">
        <ele>1431</ele>
        <time>2024-05-26T10:53:19Z</time>
      </trkpt>
      <trkpt lat="43.74267" lon="6.67236">
        <ele>1431</ele>
        <time>2024-05-26T10:53:20Z</time>
      </trkpt>
      <trkpt lat="43.74267" lon="6.67236">
        <ele>1431.1</ele>
        <time>2024-05-26T10:53:21Z</time>
      </trkpt>
      <trkpt lat="43.74267" lon="6.67236">
        <ele>1431.1</ele>
        <time>2024-05-26T10:53:22Z</time>
      </trkpt>
      <trkpt lat="43.74267" lon="6.67236">
        <ele>1431</ele>
        <time>2024-05-26T10:53:23Z</time>
      </trkpt>
      <trkpt lat="43.74267" lon="6.67235">
        <ele>1431</ele>
        <time>2024-05-26T10:53:24Z</time>
      </trkpt>
      <trkpt lat="43.74267" lon="6.67235">
        <ele>1431</ele>
        <time>2024-05-26T10:53:25Z</time>
      </trkpt>
      <trkpt lat="43.74267" lon="6.67235">
        <ele>1431</ele>
        <time>2024-05-26T10:53:26Z</time>
      </trkpt>
      <trkpt lat="43.74267" lon="6.67235">
        <ele>1431</ele>
        <time>2024-05-26T10:53:27Z</time>
      </trkpt>
      <trkpt lat="43.74267" lon="6.67235">
        <ele>1431</ele>
        <time>2024-05-26T10:53:28Z</time>
      </trkpt>
      <trkpt lat="43.74267" lon="6.67235">
        <ele>1430.9</ele>
        <time>2024-05-26T10:53:29Z</time>
      </trkpt>
      <trkpt lat="43.74267" lon="6.67235">
        <ele>1430.9</ele>
        <time>2024-05-26T10:53:30Z</time>
      </trkpt>
      <trkpt lat="43.74267" lon="6.67235">
        <ele>1431</ele>
        <time>2024-05-26T10:53:31Z</time>
      </trkpt>
      <trkpt lat="43.74267" lon="6.67234">
        <ele>1430.9</ele>
        <time>2024-05-26T10:53:32Z</time>
      </trkpt>
      <trkpt lat="43.74267" lon="6.67234">
        <ele>1430.8</ele>
        <time>2024-05-26T10:53:33Z</time>
      </trkpt>
      <trkpt lat="43.74267" lon="6.67234">
        <ele>1430.8</ele>
        <time>2024-05-26T10:53:34Z</time>
      </trkpt>
      <trkpt lat="43.74267" lon="6.67234">
        <ele>1430.8</ele>
        <time>2024-05-26T10:53:35Z</time>
      </trkpt>
      <trkpt lat="43.74268" lon="6.67234">
        <ele>1430.9</ele>
        <time>2024-05-26T10:53:36Z</time>
      </trkpt>
      <trkpt lat="43.74268" lon="6.67234">
        <ele>1430.9</ele>
        <time>2024-05-26T10:53:37Z</time>
      </trkpt>
      <trkpt lat="43.74268" lon="6.67234">
        <ele>1430.9</ele>
        <time>2024-05-26T10:53:38Z</time>
      </trkpt>
      <trkpt lat="43.74267" lon="6.67234">
        <ele>1430.9</ele>
        <time>2024-05-26T10:53:39Z</time>
      </trkpt>
      <trkpt lat="43.74267" lon="6.67234">
        <ele>1430.8</ele>
        <time>2024-05-26T10:53:40Z</time>
      </trkpt>
      <trkpt lat="43.74267" lon="6.67234">
        <ele>1430.8</ele>
        <time>2024-05-26T10:53:41Z</time>
      </trkpt>
      <trkpt lat="43.74267" lon="6.67234">
        <ele>1430.7</ele>
        <time>2024-05-26T10:53:42Z</time>
      </trkpt>
      <trkpt lat="43.74267" lon="6.67234">
        <ele>1430.7</ele>
        <time>2024-05-26T10:53:43Z</time>
      </trkpt>
      <trkpt lat="43.74267" lon="6.67234">
        <ele>1430.7</ele>
        <time>2024-05-26T10:53:44Z</time>
      </trkpt>
      <trkpt lat="43.74267" lon="6.67234">
        <ele>1430.7</ele>
        <time>2024-05-26T10:53:45Z</time>
      </trkpt>
      <trkpt lat="43.74267" lon="6.67234">
        <ele>1430.8</ele>
        <time>2024-05-26T10:53:46Z</time>
      </trkpt>
      <trkpt lat="43.74267" lon="6.67234">
        <ele>1430.8</ele>
        <time>2024-05-26T10:53:47Z</time>
      </trkpt>
      <trkpt lat="43.74266" lon="6.67233">
        <ele>1430.8</ele>
        <time>2024-05-26T10:53:48Z</time>
      </trkpt>
      <trkpt lat="43.74266" lon="6.67233">
        <ele>1430.8</ele>
        <time>2024-05-26T10:53:49Z</time>
      </trkpt>
      <trkpt lat="43.74266" lon="6.67233">
        <ele>1430.8</ele>
        <time>2024-05-26T10:53:50Z</time>
      </trkpt>
      <trkpt lat="43.74266" lon="6.67233">
        <ele>1430.9</ele>
        <time>2024-05-26T10:53:51Z</time>
      </trkpt>
      <trkpt lat="43.74266" lon="6.67233">
        <ele>1430.9</ele>
        <time>2024-05-26T10:53:52Z</time>
      </trkpt>
      <trkpt lat="43.74266" lon="6.67233">
        <ele>1430.9</ele>
        <time>2024-05-26T10:53:53Z</time>
      </trkpt>
      <trkpt lat="43.74266" lon="6.67233">
        <ele>1430.9</ele>
        <time>2024-05-26T10:53:54Z</time>
      </trkpt>
      <trkpt lat="43.74266" lon="6.67233">
        <ele>1430.9</ele>
        <time>2024-05-26T10:53:55Z</time>
      </trkpt>
      <trkpt lat="43.74266" lon="6.67233">
        <ele>1430.9</ele>
        <time>2024-05-26T10:53:56Z</time>
      </trkpt>
      <trkpt lat="43.74266" lon="6.67233">
        <ele>1430.9</ele>
        <time>2024-05-26T10:53:57Z</time>
      </trkpt>
      <trkpt lat="43.74266" lon="6.67233">
        <ele>1430.9</ele>
        <time>2024-05-26T10:53:58Z</time>
      </trkpt>
      <trkpt lat="43.74266" lon="6.67233">
        <ele>1430.9</ele>
        <time>2024-05-26T10:53:59Z</time>
      </trkpt>
      <trkpt lat="43.74266" lon="6.67233">
        <ele>1430.8</ele>
        <time>2024-05-26T10:54:00Z</time>
      </trkpt>
      <trkpt lat="43.74266" lon="6.67233">
        <ele>1430.8</ele>
        <time>2024-05-26T10:54:01Z</time>
      </trkpt>
      <trkpt lat="43.74266" lon="6.67233">
        <ele>1430.7</ele>
        <time>2024-05-26T10:54:02Z</time>
      </trkpt>
      <trkpt lat="43.74266" lon="6.67233">
        <ele>1430.7</ele>
        <time>2024-05-26T10:54:03Z</time>
      </trkpt>
      <trkpt lat="43.74266" lon="6.67234">
        <ele>1430.8</ele>
        <time>2024-05-26T10:54:04Z</time>
      </trkpt>
      <trkpt lat="43.74266" lon="6.67234">
        <ele>1430.8</ele>
        <time>2024-05-26T10:54:05Z</time>
      </trkpt>
      <trkpt lat="43.74266" lon="6.67234">
        <ele>1430.8</ele>
        <time>2024-05-26T10:54:06Z</time>
      </trkpt>
      <trkpt lat="43.74266" lon="6.67234">
        <ele>1430.8</ele>
        <time>2024-05-26T10:54:07Z</time>
      </trkpt>
      <trkpt lat="43.74266" lon="6.67234">
        <ele>1430.9</ele>
        <time>2024-05-26T10:54:08Z</time>
      </trkpt>
      <trkpt lat="43.74266" lon="6.67234">
        <ele>1431</ele>
        <time>2024-05-26T10:54:09Z</time>
      </trkpt>
      <trkpt lat="43.74266" lon="6.67235">
        <ele>1431.1</ele>
        <time>2024-05-26T10:54:10Z</time>
      </trkpt>
      <trkpt lat="43.74266" lon="6.67235">
        <ele>1431.1</ele>
        <time>2024-05-26T10:54:11Z</time>
      </trkpt>
      <trkpt lat="43.74266" lon="6.67235">
        <ele>1431.1</ele>
        <time>2024-05-26T10:54:12Z</time>
      </trkpt>
      <trkpt lat="43.74266" lon="6.67235">
        <ele>1431</ele>
        <time>2024-05-26T10:54:13Z</time>
      </trkpt>
      <trkpt lat="43.74266" lon="6.67235">
        <ele>1431</ele>
        <time>2024-05-26T10:54:14Z</time>
      </trkpt>
      <trkpt lat="43.74266" lon="6.67236">
        <ele>1430.9</ele>
        <time>2024-05-26T10:54:15Z</time>
      </trkpt>
      <trkpt lat="43.74265" lon="6.67236">
        <ele>1430.9</ele>
        <time>2024-05-26T10:54:16Z</time>
      </trkpt>
      <trkpt lat="43.74265" lon="6.67236">
        <ele>1431</ele>
        <time>2024-05-26T10:54:17Z</time>
      </trkpt>
      <trkpt lat="43.74265" lon="6.67236">
        <ele>1431</ele>
        <time>2024-05-26T10:54:18Z</time>
      </trkpt>
      <trkpt lat="43.74265" lon="6.67236">
        <ele>1431</ele>
        <time>2024-05-26T10:54:19Z</time>
      </trkpt>
      <trkpt lat="43.74265" lon="6.67236">
        <ele>1431</ele>
        <time>2024-05-26T10:54:20Z</time>
      </trkpt>
      <trkpt lat="43.74266" lon="6.67236">
        <ele>1431</ele>
        <time>2024-05-26T10:54:21Z</time>
      </trkpt>
      <trkpt lat="43.74266" lon="6.67236">
        <ele>1430.9</ele>
        <time>2024-05-26T10:54:22Z</time>
      </trkpt>
      <trkpt lat="43.74266" lon="6.67236">
        <ele>1430.9</ele>
        <time>2024-05-26T10:54:23Z</time>
      </trkpt>
      <trkpt lat="43.74266" lon="6.67236">
        <ele>1430.9</ele>
        <time>2024-05-26T10:54:24Z</time>
      </trkpt>
      <trkpt lat="43.74266" lon="6.67236">
        <ele>1430.9</ele>
        <time>2024-05-26T10:54:25Z</time>
      </trkpt>
      <trkpt lat="43.74266" lon="6.67236">
        <ele>1430.9</ele>
        <time>2024-05-26T10:54:26Z</time>
      </trkpt>
      <trkpt lat="43.74266" lon="6.67236">
        <ele>1430.9</ele>
        <time>2024-05-26T10:54:27Z</time>
      </trkpt>
      <trkpt lat="43.74266" lon="6.67236">
        <ele>1431</ele>
        <time>2024-05-26T10:54:28Z</time>
      </trkpt>
      <trkpt lat="43.74266" lon="6.67236">
        <ele>1431</ele>
        <time>2024-05-26T10:54:29Z</time>
      </trkpt>
      <trkpt lat="43.74266" lon="6.67236">
        <ele>1431</ele>
        <time>2024-05-26T10:54:30Z</time>
      </trkpt>
      <trkpt lat="43.74266" lon="6.67236">
        <ele>1430.9</ele>
        <time>2024-05-26T10:54:31Z</time>
      </trkpt>
      <trkpt lat="43.74266" lon="6.67236">
        <ele>1430.9</ele>
        <time>2024-05-26T10:54:32Z</time>
      </trkpt>
      <trkpt lat="43.74266" lon="6.67236">
        <ele>1430.9</ele>
        <time>2024-05-26T10:54:33Z</time>
      </trkpt>
      <trkpt lat="43.74266" lon="6.67236">
        <ele>1430.9</ele>
        <time>2024-05-26T10:54:34Z</time>
      </trkpt>
      <trkpt lat="43.74266" lon="6.67236">
        <ele>1430.9</ele>
        <time>2024-05-26T10:54:35Z</time>
      </trkpt>
      <trkpt lat="43.74266" lon="6.67236">
        <ele>1430.9</ele>
        <time>2024-05-26T10:54:36Z</time>
      </trkpt>
      <trkpt lat="43.74266" lon="6.67236">
        <ele>1431</ele>
        <time>2024-05-26T10:54:37Z</time>
      </trkpt>
      <trkpt lat="43.74266" lon="6.67236">
        <ele>1430.9</ele>
        <time>2024-05-26T10:54:38Z</time>
      </trkpt>
      <trkpt lat="43.74266" lon="6.67236">
        <ele>1430.8</ele>
        <time>2024-05-26T10:54:39Z</time>
      </trkpt>
      <trkpt lat="43.74266" lon="6.67236">
        <ele>1430.7</ele>
        <time>2024-05-26T10:54:40Z</time>
      </trkpt>
      <trkpt lat="43.74266" lon="6.67235">
        <ele>1430.7</ele>
        <time>2024-05-26T10:54:41Z</time>
      </trkpt>
      <trkpt lat="43.74266" lon="6.67235">
        <ele>1430.7</ele>
        <time>2024-05-26T10:54:42Z</time>
      </trkpt>
      <trkpt lat="43.74266" lon="6.67235">
        <ele>1430.8</ele>
        <time>2024-05-26T10:54:43Z</time>
      </trkpt>
      <trkpt lat="43.74266" lon="6.67235">
        <ele>1430.8</ele>
        <time>2024-05-26T10:54:44Z</time>
      </trkpt>
      <trkpt lat="43.74266" lon="6.67235">
        <ele>1430.8</ele>
        <time>2024-05-26T10:54:45Z</time>
      </trkpt>
      <trkpt lat="43.74266" lon="6.67235">
        <ele>1430.9</ele>
        <time>2024-05-26T10:54:46Z</time>
      </trkpt>
      <trkpt lat="43.74266" lon="6.67235">
        <ele>1431</ele>
        <time>2024-05-26T10:54:47Z</time>
      </trkpt>
      <trkpt lat="43.74266" lon="6.67235">
        <ele>1431</ele>
        <time>2024-05-26T10:54:48Z</time>
      </trkpt>
      <trkpt lat="43.74266" lon="6.67235">
        <ele>1431.1</ele>
        <time>2024-05-26T10:54:49Z</time>
      </trkpt>
      <trkpt lat="43.74266" lon="6.67235">
        <ele>1431.2</ele>
        <time>2024-05-26T10:54:50Z</time>
      </trkpt>
      <trkpt lat="43.74266" lon="6.67235">
        <ele>1431.3</ele>
        <time>2024-05-26T10:54:51Z</time>
      </trkpt>
      <trkpt lat="43.74266" lon="6.67235">
        <ele>1431.3</ele>
        <time>2024-05-26T10:54:52Z</time>
      </trkpt>
      <trkpt lat="43.74266" lon="6.67235">
        <ele>1431.3</ele>
        <time>2024-05-26T10:54:53Z</time>
      </trkpt>
      <trkpt lat="43.74266" lon="6.67235">
        <ele>1431.4</ele>
        <time>2024-05-26T10:54:54Z</time>
      </trkpt>
      <trkpt lat="43.74266" lon="6.67235">
        <ele>1431.4</ele>
        <time>2024-05-26T10:54:55Z</time>
      </trkpt>
      <trkpt lat="43.74266" lon="6.67235">
        <ele>1431.4</ele>
        <time>2024-05-26T10:54:56Z</time>
      </trkpt>
      <trkpt lat="43.74266" lon="6.67235">
        <ele>1431.4</ele>
        <time>2024-05-26T10:54:57Z</time>
      </trkpt>
      <trkpt lat="43.74266" lon="6.67235">
        <ele>1431.4</ele>
        <time>2024-05-26T10:54:58Z</time>
      </trkpt>
      <trkpt lat="43.74266" lon="6.67235">
        <ele>1431.3</ele>
        <time>2024-05-26T10:54:59Z</time>
      </trkpt>
      <trkpt lat="43.74266" lon="6.67235">
        <ele>1431.3</ele>
        <time>2024-05-26T10:55:00Z</time>
      </trkpt>
      <trkpt lat="43.74266" lon="6.67235">
        <ele>1431.3</ele>
        <time>2024-05-26T10:55:01Z</time>
      </trkpt>
      <trkpt lat="43.74266" lon="6.67235">
        <ele>1431.3</ele>
        <time>2024-05-26T10:55:02Z</time>
      </trkpt>
      <trkpt lat="43.74266" lon="6.67235">
        <ele>1431.3</ele>
        <time>2024-05-26T10:55:03Z</time>
      </trkpt>
      <trkpt lat="43.74266" lon="6.67235">
        <ele>1431.3</ele>
        <time>2024-05-26T10:55:04Z</time>
      </trkpt>
      <trkpt lat="43.74266" lon="6.67235">
        <ele>1431.4</ele>
        <time>2024-05-26T10:55:05Z</time>
      </trkpt>
      <trkpt lat="43.74266" lon="6.67235">
        <ele>1431.4</ele>
        <time>2024-05-26T10:55:06Z</time>
      </trkpt>
      <trkpt lat="43.74266" lon="6.67235">
        <ele>1431.4</ele>
        <time>2024-05-26T10:55:07Z</time>
      </trkpt>
      <trkpt lat="43.74266" lon="6.67235">
        <ele>1431.3</ele>
        <time>2024-05-26T10:55:08Z</time>
      </trkpt>
      <trkpt lat="43.74266" lon="6.67235">
        <ele>1431.3</ele>
        <time>2024-05-26T10:55:09Z</time>
      </trkpt>
      <trkpt lat="43.74267" lon="6.67235">
        <ele>1431.2</ele>
        <time>2024-05-26T10:55:10Z</time>
      </trkpt>
      <trkpt lat="43.74267" lon="6.67235">
        <ele>1431.2</ele>
        <time>2024-05-26T10:55:11Z</time>
      </trkpt>
      <trkpt lat="43.74267" lon="6.67235">
        <ele>1431.2</ele>
        <time>2024-05-26T10:55:12Z</time>
      </trkpt>
      <trkpt lat="43.74267" lon="6.67235">
        <ele>1431.3</ele>
        <time>2024-05-26T10:55:13Z</time>
      </trkpt>
      <trkpt lat="43.74267" lon="6.67235">
        <ele>1431.3</ele>
        <time>2024-05-26T10:55:14Z</time>
      </trkpt>
      <trkpt lat="43.74267" lon="6.67235">
        <ele>1431.4</ele>
        <time>2024-05-26T10:55:15Z</time>
      </trkpt>
      <trkpt lat="43.74267" lon="6.67235">
        <ele>1431.5</ele>
        <time>2024-05-26T10:55:16Z</time>
      </trkpt>
      <trkpt lat="43.74267" lon="6.67235">
        <ele>1431.6</ele>
        <time>2024-05-26T10:55:17Z</time>
      </trkpt>
      <trkpt lat="43.74267" lon="6.67235">
        <ele>1431.5</ele>
        <time>2024-05-26T10:55:18Z</time>
      </trkpt>
      <trkpt lat="43.74267" lon="6.67235">
        <ele>1431.4</ele>
        <time>2024-05-26T10:55:19Z</time>
      </trkpt>
      <trkpt lat="43.74267" lon="6.67235">
        <ele>1431.4</ele>
        <time>2024-05-26T10:55:20Z</time>
      </trkpt>
      <trkpt lat="43.74267" lon="6.67235">
        <ele>1431.4</ele>
        <time>2024-05-26T10:55:21Z</time>
      </trkpt>
      <trkpt lat="43.74267" lon="6.67235">
        <ele>1431.4</ele>
        <time>2024-05-26T10:55:22Z</time>
      </trkpt>
      <trkpt lat="43.74267" lon="6.67235">
        <ele>1431.5</ele>
        <time>2024-05-26T10:55:23Z</time>
      </trkpt>
      <trkpt lat="43.74267" lon="6.67235">
        <ele>1431.6</ele>
        <time>2024-05-26T10:55:24Z</time>
      </trkpt>
      <trkpt lat="43.74268" lon="6.67235">
        <ele>1431.6</ele>
        <time>2024-05-26T10:55:25Z</time>
      </trkpt>
      <trkpt lat="43.74268" lon="6.67235">
        <ele>1431.7</ele>
        <time>2024-05-26T10:55:26Z</time>
      </trkpt>
      <trkpt lat="43.74268" lon="6.67235">
        <ele>1431.6</ele>
        <time>2024-05-26T10:55:27Z</time>
      </trkpt>
      <trkpt lat="43.74268" lon="6.67235">
        <ele>1431.5</ele>
        <time>2024-05-26T10:55:28Z</time>
      </trkpt>
      <trkpt lat="43.74268" lon="6.67235">
        <ele>1431.5</ele>
        <time>2024-05-26T10:55:29Z</time>
      </trkpt>
      <trkpt lat="43.74268" lon="6.67235">
        <ele>1431.4</ele>
        <time>2024-05-26T10:55:30Z</time>
      </trkpt>
      <trkpt lat="43.74268" lon="6.67235">
        <ele>1431.5</ele>
        <time>2024-05-26T10:55:31Z</time>
      </trkpt>
      <trkpt lat="43.74268" lon="6.67235">
        <ele>1431.6</ele>
        <time>2024-05-26T10:55:32Z</time>
      </trkpt>
      <trkpt lat="43.74268" lon="6.67235">
        <ele>1431.6</ele>
        <time>2024-05-26T10:55:33Z</time>
      </trkpt>
      <trkpt lat="43.74268" lon="6.67235">
        <ele>1431.6</ele>
        <time>2024-05-26T10:55:34Z</time>
      </trkpt>
      <trkpt lat="43.74268" lon="6.67235">
        <ele>1431.6</ele>
        <time>2024-05-26T10:55:35Z</time>
      </trkpt>
      <trkpt lat="43.74268" lon="6.67235">
        <ele>1431.6</ele>
        <time>2024-05-26T10:55:36Z</time>
      </trkpt>
      <trkpt lat="43.74268" lon="6.67235">
        <ele>1431.6</ele>
        <time>2024-05-26T10:55:37Z</time>
      </trkpt>
      <trkpt lat="43.74269" lon="6.67235">
        <ele>1431.6</ele>
        <time>2024-05-26T10:55:38Z</time>
      </trkpt>
      <trkpt lat="43.74269" lon="6.67235">
        <ele>1431.6</ele>
        <time>2024-05-26T10:55:39Z</time>
      </trkpt>
      <trkpt lat="43.74269" lon="6.67234">
        <ele>1431.6</ele>
        <time>2024-05-26T10:55:40Z</time>
      </trkpt>
      <trkpt lat="43.74269" lon="6.67234">
        <ele>1431.5</ele>
        <time>2024-05-26T10:55:41Z</time>
      </trkpt>
      <trkpt lat="43.74269" lon="6.67234">
        <ele>1431.5</ele>
        <time>2024-05-26T10:55:42Z</time>
      </trkpt>
      <trkpt lat="43.74269" lon="6.67234">
        <ele>1431.5</ele>
        <time>2024-05-26T10:55:43Z</time>
      </trkpt>
      <trkpt lat="43.74269" lon="6.67234">
        <ele>1431.5</ele>
        <time>2024-05-26T10:55:44Z</time>
      </trkpt>
      <trkpt lat="43.74269" lon="6.67234">
        <ele>1431.5</ele>
        <time>2024-05-26T10:55:45Z</time>
      </trkpt>
      <trkpt lat="43.74269" lon="6.67234">
        <ele>1431.5</ele>
        <time>2024-05-26T10:55:46Z</time>
      </trkpt>
      <trkpt lat="43.74269" lon="6.67234">
        <ele>1431.5</ele>
        <time>2024-05-26T10:55:47Z</time>
      </trkpt>
      <trkpt lat="43.74269" lon="6.67234">
        <ele>1431.5</ele>
        <time>2024-05-26T10:55:48Z</time>
      </trkpt>
      <trkpt lat="43.74269" lon="6.67234">
        <ele>1431.5</ele>
        <time>2024-05-26T10:55:49Z</time>
      </trkpt>
      <trkpt lat="43.7427" lon="6.67234">
        <ele>1431.6</ele>
        <time>2024-05-26T10:55:50Z</time>
      </trkpt>
      <trkpt lat="43.7427" lon="6.67234">
        <ele>1431.6</ele>
        <time>2024-05-26T10:55:51Z</time>
      </trkpt>
      <trkpt lat="43.7427" lon="6.67234">
        <ele>1431.5</ele>
        <time>2024-05-26T10:55:52Z</time>
      </trkpt>
      <trkpt lat="43.7427" lon="6.67234">
        <ele>1431.4</ele>
        <time>2024-05-26T10:55:53Z</time>
      </trkpt>
      <trkpt lat="43.7427" lon="6.67234">
        <ele>1431.3</ele>
        <time>2024-05-26T10:55:54Z</time>
      </trkpt>
      <trkpt lat="43.7427" lon="6.67234">
        <ele>1431.2</ele>
        <time>2024-05-26T10:55:55Z</time>
      </trkpt>
      <trkpt lat="43.7427" lon="6.67234">
        <ele>1431.2</ele>
        <time>2024-05-26T10:55:56Z</time>
      </trkpt>
      <trkpt lat="43.7427" lon="6.67234">
        <ele>1431.2</ele>
        <time>2024-05-26T10:55:57Z</time>
      </trkpt>
      <trkpt lat="43.7427" lon="6.67233">
        <ele>1431.2</ele>
        <time>2024-05-26T10:55:58Z</time>
      </trkpt>
      <trkpt lat="43.74269" lon="6.67233">
        <ele>1431.2</ele>
        <time>2024-05-26T10:55:59Z</time>
      </trkpt>
      <trkpt lat="43.74269" lon="6.67233">
        <ele>1431.2</ele>
        <time>2024-05-26T10:56:00Z</time>
      </trkpt>
      <trkpt lat="43.74269" lon="6.67233">
        <ele>1431.2</ele>
        <time>2024-05-26T10:56:01Z</time>
      </trkpt>
      <trkpt lat="43.74269" lon="6.67233">
        <ele>1431.2</ele>
        <time>2024-05-26T10:56:02Z</time>
      </trkpt>
      <trkpt lat="43.74269" lon="6.67233">
        <ele>1431.2</ele>
        <time>2024-05-26T10:56:03Z</time>
      </trkpt>
      <trkpt lat="43.74269" lon="6.67233">
        <ele>1431.3</ele>
        <time>2024-05-26T10:56:04Z</time>
      </trkpt>
      <trkpt lat="43.74269" lon="6.67233">
        <ele>1431.4</ele>
        <time>2024-05-26T10:56:05Z</time>
      </trkpt>
      <trkpt lat="43.74269" lon="6.67233">
        <ele>1431.3</ele>
        <time>2024-05-26T10:56:06Z</time>
      </trkpt>
      <trkpt lat="43.74269" lon="6.67233">
        <ele>1431.3</ele>
        <time>2024-05-26T10:56:07Z</time>
      </trkpt>
      <trkpt lat="43.74269" lon="6.67233">
        <ele>1431.3</ele>
        <time>2024-05-26T10:56:08Z</time>
      </trkpt>
      <trkpt lat="43.74269" lon="6.67233">
        <ele>1431.4</ele>
        <time>2024-05-26T10:56:09Z</time>
      </trkpt>
      <trkpt lat="43.74269" lon="6.67233">
        <ele>1431.5</ele>
        <time>2024-05-26T10:56:10Z</time>
      </trkpt>
      <trkpt lat="43.74269" lon="6.67233">
        <ele>1431.5</ele>
        <time>2024-05-26T10:56:11Z</time>
      </trkpt>
      <trkpt lat="43.74269" lon="6.67233">
        <ele>1431.4</ele>
        <time>2024-05-26T10:56:12Z</time>
      </trkpt>
      <trkpt lat="43.74269" lon="6.67233">
        <ele>1431.4</ele>
        <time>2024-05-26T10:56:13Z</time>
      </trkpt>
      <trkpt lat="43.74269" lon="6.67233">
        <ele>1431.3</ele>
        <time>2024-05-26T10:56:14Z</time>
      </trkpt>
      <trkpt lat="43.74269" lon="6.67233">
        <ele>1431.3</ele>
        <time>2024-05-26T10:56:15Z</time>
      </trkpt>
      <trkpt lat="43.74269" lon="6.67233">
        <ele>1431.3</ele>
        <time>2024-05-26T10:56:16Z</time>
      </trkpt>
      <trkpt lat="43.74269" lon="6.67233">
        <ele>1431.3</ele>
        <time>2024-05-26T10:56:17Z</time>
      </trkpt>
      <trkpt lat="43.74269" lon="6.67233">
        <ele>1431.4</ele>
        <time>2024-05-26T10:56:18Z</time>
      </trkpt>
      <trkpt lat="43.74269" lon="6.67233">
        <ele>1431.4</ele>
        <time>2024-05-26T10:56:19Z</time>
      </trkpt>
      <trkpt lat="43.74269" lon="6.67233">
        <ele>1431.5</ele>
        <time>2024-05-26T10:56:20Z</time>
      </trkpt>
      <trkpt lat="43.74269" lon="6.67233">
        <ele>1431.5</ele>
        <time>2024-05-26T10:56:21Z</time>
      </trkpt>
      <trkpt lat="43.74269" lon="6.67233">
        <ele>1431.3</ele>
        <time>2024-05-26T10:56:22Z</time>
      </trkpt>
      <trkpt lat="43.74269" lon="6.67233">
        <ele>1431.3</ele>
        <time>2024-05-26T10:56:23Z</time>
      </trkpt>
      <trkpt lat="43.74269" lon="6.67233">
        <ele>1431.3</ele>
        <time>2024-05-26T10:56:24Z</time>
      </trkpt>
      <trkpt lat="43.74269" lon="6.67233">
        <ele>1431.3</ele>
        <time>2024-05-26T10:56:25Z</time>
      </trkpt>
      <trkpt lat="43.74269" lon="6.67233">
        <ele>1431.3</ele>
        <time>2024-05-26T10:56:26Z</time>
      </trkpt>
      <trkpt lat="43.74269" lon="6.67233">
        <ele>1431.3</ele>
        <time>2024-05-26T10:56:27Z</time>
      </trkpt>
      <trkpt lat="43.74269" lon="6.67233">
        <ele>1431.2</ele>
        <time>2024-05-26T10:56:28Z</time>
      </trkpt>
      <trkpt lat="43.74269" lon="6.67233">
        <ele>1431.2</ele>
        <time>2024-05-26T10:56:29Z</time>
      </trkpt>
      <trkpt lat="43.74269" lon="6.67233">
        <ele>1431.3</ele>
        <time>2024-05-26T10:56:30Z</time>
      </trkpt>
      <trkpt lat="43.74269" lon="6.67233">
        <ele>1431.3</ele>
        <time>2024-05-26T10:56:31Z</time>
      </trkpt>
      <trkpt lat="43.74269" lon="6.67233">
        <ele>1431.3</ele>
        <time>2024-05-26T10:56:32Z</time>
      </trkpt>
      <trkpt lat="43.74269" lon="6.67233">
        <ele>1431.2</ele>
        <time>2024-05-26T10:56:33Z</time>
      </trkpt>
      <trkpt lat="43.74269" lon="6.67233">
        <ele>1431.2</ele>
        <time>2024-05-26T10:56:34Z</time>
      </trkpt>
      <trkpt lat="43.74269" lon="6.67233">
        <ele>1431.2</ele>
        <time>2024-05-26T10:56:35Z</time>
      </trkpt>
      <trkpt lat="43.74269" lon="6.67233">
        <ele>1431.2</ele>
        <time>2024-05-26T10:56:36Z</time>
      </trkpt>
      <trkpt lat="43.74269" lon="6.67233">
        <ele>1431.3</ele>
        <time>2024-05-26T10:56:37Z</time>
      </trkpt>
      <trkpt lat="43.74269" lon="6.67233">
        <ele>1431.3</ele>
        <time>2024-05-26T10:56:38Z</time>
      </trkpt>
      <trkpt lat="43.74269" lon="6.67233">
        <ele>1431.3</ele>
        <time>2024-05-26T10:56:39Z</time>
      </trkpt>
      <trkpt lat="43.74269" lon="6.67234">
        <ele>1431.3</ele>
        <time>2024-05-26T10:56:40Z</time>
      </trkpt>
      <trkpt lat="43.74269" lon="6.67234">
        <ele>1431.3</ele>
        <time>2024-05-26T10:56:41Z</time>
      </trkpt>
      <trkpt lat="43.74269" lon="6.67234">
        <ele>1431.1</ele>
        <time>2024-05-26T10:56:42Z</time>
      </trkpt>
      <trkpt lat="43.74269" lon="6.67234">
        <ele>1431</ele>
        <time>2024-05-26T10:56:43Z</time>
      </trkpt>
      <trkpt lat="43.74269" lon="6.67234">
        <ele>1431</ele>
        <time>2024-05-26T10:56:44Z</time>
      </trkpt>
      <trkpt lat="43.74269" lon="6.67234">
        <ele>1431</ele>
        <time>2024-05-26T10:56:45Z</time>
      </trkpt>
      <trkpt lat="43.74269" lon="6.67234">
        <ele>1430.9</ele>
        <time>2024-05-26T10:56:46Z</time>
      </trkpt>
      <trkpt lat="43.74269" lon="6.67233">
        <ele>1431</ele>
        <time>2024-05-26T10:56:47Z</time>
      </trkpt>
      <trkpt lat="43.74269" lon="6.67233">
        <ele>1431.1</ele>
        <time>2024-05-26T10:56:48Z</time>
      </trkpt>
      <trkpt lat="43.74269" lon="6.67233">
        <ele>1431.1</ele>
        <time>2024-05-26T10:56:49Z</time>
      </trkpt>
      <trkpt lat="43.74269" lon="6.67233">
        <ele>1431.2</ele>
        <time>2024-05-26T10:56:50Z</time>
      </trkpt>
      <trkpt lat="43.74269" lon="6.67233">
        <ele>1431.2</ele>
        <time>2024-05-26T10:56:51Z</time>
      </trkpt>
      <trkpt lat="43.74269" lon="6.67233">
        <ele>1431.3</ele>
        <time>2024-05-26T10:56:52Z</time>
      </trkpt>
      <trkpt lat="43.74269" lon="6.67233">
        <ele>1431.4</ele>
        <time>2024-05-26T10:56:53Z</time>
      </trkpt>
      <trkpt lat="43.74269" lon="6.67233">
        <ele>1431.4</ele>
        <time>2024-05-26T10:56:54Z</time>
      </trkpt>
      <trkpt lat="43.74268" lon="6.67233">
        <ele>1431.4</ele>
        <time>2024-05-26T10:56:55Z</time>
      </trkpt>
      <trkpt lat="43.74268" lon="6.67233">
        <ele>1431.4</ele>
        <time>2024-05-26T10:56:56Z</time>
      </trkpt>
      <trkpt lat="43.74268" lon="6.67233">
        <ele>1431.4</ele>
        <time>2024-05-26T10:56:57Z</time>
      </trkpt>
      <trkpt lat="43.74268" lon="6.67233">
        <ele>1431.4</ele>
        <time>2024-05-26T10:56:58Z</time>
      </trkpt>
      <trkpt lat="43.74268" lon="6.67233">
        <ele>1431.4</ele>
        <time>2024-05-26T10:56:59Z</time>
      </trkpt>
      <trkpt lat="43.74268" lon="6.67232">
        <ele>1431.4</ele>
        <time>2024-05-26T10:57:00Z</time>
      </trkpt>
      <trkpt lat="43.74268" lon="6.67232">
        <ele>1431.5</ele>
        <time>2024-05-26T10:57:01Z</time>
      </trkpt>
      <trkpt lat="43.74268" lon="6.67232">
        <ele>1431.5</ele>
        <time>2024-05-26T10:57:02Z</time>
      </trkpt>
      <trkpt lat="43.74267" lon="6.67232">
        <ele>1431.6</ele>
        <time>2024-05-26T10:57:03Z</time>
      </trkpt>
      <trkpt lat="43.74267" lon="6.67232">
        <ele>1431.5</ele>
        <time>2024-05-26T10:57:04Z</time>
      </trkpt>
      <trkpt lat="43.74267" lon="6.67232">
        <ele>1431.5</ele>
        <time>2024-05-26T10:57:05Z</time>
      </trkpt>
      <trkpt lat="43.74267" lon="6.67232">
        <ele>1431.5</ele>
        <time>2024-05-26T10:57:06Z</time>
      </trkpt>
      <trkpt lat="43.74267" lon="6.67232">
        <ele>1431.4</ele>
        <time>2024-05-26T10:57:07Z</time>
      </trkpt>
      <trkpt lat="43.74267" lon="6.67232">
        <ele>1431.4</ele>
        <time>2024-05-26T10:57:08Z</time>
      </trkpt>
      <trkpt lat="43.74266" lon="6.67232">
        <ele>1431.5</ele>
        <time>2024-05-26T10:57:09Z</time>
      </trkpt>
      <trkpt lat="43.74266" lon="6.67232">
        <ele>1431.6</ele>
        <time>2024-05-26T10:57:10Z</time>
      </trkpt>
      <trkpt lat="43.74266" lon="6.67232">
        <ele>1431.6</ele>
        <time>2024-05-26T10:57:11Z</time>
      </trkpt>
      <trkpt lat="43.74266" lon="6.67231">
        <ele>1431.7</ele>
        <time>2024-05-26T10:57:12Z</time>
      </trkpt>
      <trkpt lat="43.74266" lon="6.67231">
        <ele>1431.7</ele>
        <time>2024-05-26T10:57:13Z</time>
      </trkpt>
      <trkpt lat="43.74266" lon="6.67231">
        <ele>1431.7</ele>
        <time>2024-05-26T10:57:14Z</time>
      </trkpt>
      <trkpt lat="43.74265" lon="6.67231">
        <ele>1431.7</ele>
        <time>2024-05-26T10:57:15Z</time>
      </trkpt>
      <trkpt lat="43.74265" lon="6.67231">
        <ele>1431.8</ele>
        <time>2024-05-26T10:57:16Z</time>
      </trkpt>
      <trkpt lat="43.74265" lon="6.67231">
        <ele>1431.8</ele>
        <time>2024-05-26T10:57:17Z</time>
      </trkpt>
      <trkpt lat="43.74265" lon="6.67231">
        <ele>1431.6</ele>
        <time>2024-05-26T10:57:18Z</time>
      </trkpt>
      <trkpt lat="43.74265" lon="6.67231">
        <ele>1431.7</ele>
        <time>2024-05-26T10:57:19Z</time>
      </trkpt>
      <trkpt lat="43.74265" lon="6.67231">
        <ele>1431.6</ele>
        <time>2024-05-26T10:57:20Z</time>
      </trkpt>
      <trkpt lat="43.74265" lon="6.67231">
        <ele>1431.6</ele>
        <time>2024-05-26T10:57:21Z</time>
      </trkpt>
      <trkpt lat="43.74265" lon="6.67231">
        <ele>1431.6</ele>
        <time>2024-05-26T10:57:22Z</time>
      </trkpt>
      <trkpt lat="43.74265" lon="6.67231">
        <ele>1431.6</ele>
        <time>2024-05-26T10:57:23Z</time>
      </trkpt>
      <trkpt lat="43.74265" lon="6.67231">
        <ele>1431.5</ele>
        <time>2024-05-26T10:57:24Z</time>
      </trkpt>
      <trkpt lat="43.74264" lon="6.67231">
        <ele>1431.5</ele>
        <time>2024-05-26T10:57:25Z</time>
      </trkpt>
      <trkpt lat="43.74264" lon="6.67231">
        <ele>1431.5</ele>
        <time>2024-05-26T10:57:26Z</time>
      </trkpt>
      <trkpt lat="43.74264" lon="6.67231">
        <ele>1431.4</ele>
        <time>2024-05-26T10:57:27Z</time>
      </trkpt>
      <trkpt lat="43.74264" lon="6.67231">
        <ele>1431.5</ele>
        <time>2024-05-26T10:57:28Z</time>
      </trkpt>
      <trkpt lat="43.74264" lon="6.67231">
        <ele>1431.5</ele>
        <time>2024-05-26T10:57:29Z</time>
      </trkpt>
      <trkpt lat="43.74264" lon="6.67231">
        <ele>1431.5</ele>
        <time>2024-05-26T10:57:30Z</time>
      </trkpt>
      <trkpt lat="43.74264" lon="6.67231">
        <ele>1431.5</ele>
        <time>2024-05-26T10:57:31Z</time>
      </trkpt>
      <trkpt lat="43.74264" lon="6.67231">
        <ele>1431.5</ele>
        <time>2024-05-26T10:57:32Z</time>
      </trkpt>
      <trkpt lat="43.74264" lon="6.6723">
        <ele>1431.5</ele>
        <time>2024-05-26T10:57:33Z</time>
      </trkpt>
      <trkpt lat="43.74264" lon="6.6723">
        <ele>1431.5</ele>
        <time>2024-05-26T10:57:34Z</time>
      </trkpt>
      <trkpt lat="43.74264" lon="6.6723">
        <ele>1431.6</ele>
        <time>2024-05-26T10:57:35Z</time>
      </trkpt>
      <trkpt lat="43.74264" lon="6.6723">
        <ele>1431.6</ele>
        <time>2024-05-26T10:57:36Z</time>
      </trkpt>
      <trkpt lat="43.74264" lon="6.6723">
        <ele>1431.6</ele>
        <time>2024-05-26T10:57:37Z</time>
      </trkpt>
      <trkpt lat="43.74264" lon="6.6723">
        <ele>1431.7</ele>
        <time>2024-05-26T10:57:38Z</time>
      </trkpt>
      <trkpt lat="43.74264" lon="6.6723">
        <ele>1431.7</ele>
        <time>2024-05-26T10:57:39Z</time>
      </trkpt>
      <trkpt lat="43.74264" lon="6.6723">
        <ele>1431.7</ele>
        <time>2024-05-26T10:57:40Z</time>
      </trkpt>
      <trkpt lat="43.74264" lon="6.6723">
        <ele>1431.7</ele>
        <time>2024-05-26T10:57:41Z</time>
      </trkpt>
      <trkpt lat="43.74264" lon="6.6723">
        <ele>1431.7</ele>
        <time>2024-05-26T10:57:42Z</time>
      </trkpt>
      <trkpt lat="43.74263" lon="6.6723">
        <ele>1431.6</ele>
        <time>2024-05-26T10:57:43Z</time>
      </trkpt>
      <trkpt lat="43.74263" lon="6.67229">
        <ele>1431.6</ele>
        <time>2024-05-26T10:57:44Z</time>
      </trkpt>
      <trkpt lat="43.74263" lon="6.67229">
        <ele>1431.6</ele>
        <time>2024-05-26T10:57:45Z</time>
      </trkpt>
      <trkpt lat="43.74263" lon="6.67229">
        <ele>1431.7</ele>
        <time>2024-05-26T10:57:46Z</time>
      </trkpt>
      <trkpt lat="43.74263" lon="6.67229">
        <ele>1431.7</ele>
        <time>2024-05-26T10:57:47Z</time>
      </trkpt>
      <trkpt lat="43.74263" lon="6.67229">
        <ele>1431.7</ele>
        <time>2024-05-26T10:57:48Z</time>
      </trkpt>
      <trkpt lat="43.74263" lon="6.67229">
        <ele>1431.7</ele>
        <time>2024-05-26T10:57:49Z</time>
      </trkpt>
      <trkpt lat="43.74263" lon="6.67229">
        <ele>1431.7</ele>
        <time>2024-05-26T10:57:50Z</time>
      </trkpt>
      <trkpt lat="43.74263" lon="6.67229">
        <ele>1431.6</ele>
        <time>2024-05-26T10:57:51Z</time>
      </trkpt>
      <trkpt lat="43.74263" lon="6.67229">
        <ele>1431.6</ele>
        <time>2024-05-26T10:57:52Z</time>
      </trkpt>
      <trkpt lat="43.74263" lon="6.67229">
        <ele>1431.6</ele>
        <time>2024-05-26T10:57:53Z</time>
      </trkpt>
      <trkpt lat="43.74263" lon="6.67229">
        <ele>1431.6</ele>
        <time>2024-05-26T10:57:54Z</time>
      </trkpt>
      <trkpt lat="43.74263" lon="6.67229">
        <ele>1431.6</ele>
        <time>2024-05-26T10:57:55Z</time>
      </trkpt>
      <trkpt lat="43.74263" lon="6.67229">
        <ele>1431.6</ele>
        <time>2024-05-26T10:57:56Z</time>
      </trkpt>
      <trkpt lat="43.74263" lon="6.6723">
        <ele>1431.6</ele>
        <time>2024-05-26T10:57:57Z</time>
      </trkpt>
      <trkpt lat="43.74263" lon="6.6723">
        <ele>1431.7</ele>
        <time>2024-05-26T10:57:58Z</time>
      </trkpt>
      <trkpt lat="43.74263" lon="6.6723">
        <ele>1431.7</ele>
        <time>2024-05-26T10:57:59Z</time>
      </trkpt>
      <trkpt lat="43.74264" lon="6.6723">
        <ele>1431.7</ele>
        <time>2024-05-26T10:58:00Z</time>
      </trkpt>
      <trkpt lat="43.74264" lon="6.6723">
        <ele>1431.6</ele>
        <time>2024-05-26T10:58:01Z</time>
      </trkpt>
      <trkpt lat="43.74264" lon="6.6723">
        <ele>1431.7</ele>
        <time>2024-05-26T10:58:02Z</time>
      </trkpt>
      <trkpt lat="43.74264" lon="6.6723">
        <ele>1431.8</ele>
        <time>2024-05-26T10:58:03Z</time>
      </trkpt>
      <trkpt lat="43.74264" lon="6.6723">
        <ele>1431.8</ele>
        <time>2024-05-26T10:58:04Z</time>
      </trkpt>
      <trkpt lat="43.74264" lon="6.6723">
        <ele>1431.9</ele>
        <time>2024-05-26T10:58:05Z</time>
      </trkpt>
      <trkpt lat="43.74264" lon="6.6723">
        <ele>1431.9</ele>
        <time>2024-05-26T10:58:06Z</time>
      </trkpt>
      <trkpt lat="43.74264" lon="6.6723">
        <ele>1432</ele>
        <time>2024-05-26T10:58:07Z</time>
      </trkpt>
      <trkpt lat="43.74264" lon="6.6723">
        <ele>1432.1</ele>
        <time>2024-05-26T10:58:08Z</time>
      </trkpt>
      <trkpt lat="43.74264" lon="6.6723">
        <ele>1432.1</ele>
        <time>2024-05-26T10:58:09Z</time>
      </trkpt>
      <trkpt lat="43.74264" lon="6.6723">
        <ele>1432.1</ele>
        <time>2024-05-26T10:58:10Z</time>
      </trkpt>
      <trkpt lat="43.74264" lon="6.6723">
        <ele>1432.1</ele>
        <time>2024-05-26T10:58:11Z</time>
      </trkpt>
      <trkpt lat="43.74265" lon="6.6723">
        <ele>1432</ele>
        <time>2024-05-26T10:58:12Z</time>
      </trkpt>
      <trkpt lat="43.74265" lon="6.6723">
        <ele>1432.1</ele>
        <time>2024-05-26T10:58:13Z</time>
      </trkpt>
      <trkpt lat="43.74265" lon="6.67231">
        <ele>1432.1</ele>
        <time>2024-05-26T10:58:14Z</time>
      </trkpt>
      <trkpt lat="43.74265" lon="6.67231">
        <ele>1432.1</ele>
        <time>2024-05-26T10:58:15Z</time>
      </trkpt>
      <trkpt lat="43.74265" lon="6.67231">
        <ele>1432</ele>
        <time>2024-05-26T10:58:16Z</time>
      </trkpt>
      <trkpt lat="43.74265" lon="6.67231">
        <ele>1432</ele>
        <time>2024-05-26T10:58:17Z</time>
      </trkpt>
      <trkpt lat="43.74265" lon="6.67231">
        <ele>1432</ele>
        <time>2024-05-26T10:58:18Z</time>
      </trkpt>
      <trkpt lat="43.74265" lon="6.67231">
        <ele>1432</ele>
        <time>2024-05-26T10:58:19Z</time>
      </trkpt>
      <trkpt lat="43.74265" lon="6.67231">
        <ele>1432</ele>
        <time>2024-05-26T10:58:20Z</time>
      </trkpt>
      <trkpt lat="43.74265" lon="6.67231">
        <ele>1431.9</ele>
        <time>2024-05-26T10:58:21Z</time>
      </trkpt>
      <trkpt lat="43.74265" lon="6.67231">
        <ele>1431.9</ele>
        <time>2024-05-26T10:58:22Z</time>
      </trkpt>
      <trkpt lat="43.74265" lon="6.67231">
        <ele>1431.8</ele>
        <time>2024-05-26T10:58:23Z</time>
      </trkpt>
      <trkpt lat="43.74265" lon="6.67231">
        <ele>1431.8</ele>
        <time>2024-05-26T10:58:24Z</time>
      </trkpt>
      <trkpt lat="43.74265" lon="6.67231">
        <ele>1431.8</ele>
        <time>2024-05-26T10:58:25Z</time>
      </trkpt>
      <trkpt lat="43.74265" lon="6.67231">
        <ele>1431.8</ele>
        <time>2024-05-26T10:58:26Z</time>
      </trkpt>
      <trkpt lat="43.74265" lon="6.67232">
        <ele>1431.8</ele>
        <time>2024-05-26T10:58:27Z</time>
      </trkpt>
      <trkpt lat="43.74265" lon="6.67232">
        <ele>1432</ele>
        <time>2024-05-26T10:58:28Z</time>
      </trkpt>
      <trkpt lat="43.74265" lon="6.67232">
        <ele>1432</ele>
        <time>2024-05-26T10:58:29Z</time>
      </trkpt>
      <trkpt lat="43.74265" lon="6.67232">
        <ele>1432.1</ele>
        <time>2024-05-26T10:58:30Z</time>
      </trkpt>
      <trkpt lat="43.74265" lon="6.67232">
        <ele>1432</ele>
        <time>2024-05-26T10:58:31Z</time>
      </trkpt>
      <trkpt lat="43.74265" lon="6.67232">
        <ele>1432</ele>
        <time>2024-05-26T10:58:32Z</time>
      </trkpt>
      <trkpt lat="43.74265" lon="6.67232">
        <ele>1432</ele>
        <time>2024-05-26T10:58:33Z</time>
      </trkpt>
      <trkpt lat="43.74265" lon="6.67232">
        <ele>1432</ele>
        <time>2024-05-26T10:58:34Z</time>
      </trkpt>
      <trkpt lat="43.74265" lon="6.67232">
        <ele>1432.1</ele>
        <time>2024-05-26T10:58:35Z</time>
      </trkpt>
      <trkpt lat="43.74265" lon="6.67232">
        <ele>1432.2</ele>
        <time>2024-05-26T10:58:36Z</time>
      </trkpt>
      <trkpt lat="43.74265" lon="6.67232">
        <ele>1432.2</ele>
        <time>2024-05-26T10:58:37Z</time>
      </trkpt>
      <trkpt lat="43.74265" lon="6.67232">
        <ele>1432.2</ele>
        <time>2024-05-26T10:58:38Z</time>
      </trkpt>
      <trkpt lat="43.74265" lon="6.67232">
        <ele>1432.2</ele>
        <time>2024-05-26T10:58:39Z</time>
      </trkpt>
      <trkpt lat="43.74265" lon="6.67233">
        <ele>1432.2</ele>
        <time>2024-05-26T10:58:40Z</time>
      </trkpt>
      <trkpt lat="43.74265" lon="6.67233">
        <ele>1432.2</ele>
        <time>2024-05-26T10:58:41Z</time>
      </trkpt>
      <trkpt lat="43.74265" lon="6.67233">
        <ele>1432.2</ele>
        <time>2024-05-26T10:58:42Z</time>
      </trkpt>
      <trkpt lat="43.74265" lon="6.67233">
        <ele>1432.2</ele>
        <time>2024-05-26T10:58:43Z</time>
      </trkpt>
      <trkpt lat="43.74265" lon="6.67233">
        <ele>1432.2</ele>
        <time>2024-05-26T10:58:44Z</time>
      </trkpt>
      <trkpt lat="43.74266" lon="6.67232">
        <ele>1432.2</ele>
        <time>2024-05-26T10:58:45Z</time>
      </trkpt>
      <trkpt lat="43.74266" lon="6.67232">
        <ele>1432.1</ele>
        <time>2024-05-26T10:58:46Z</time>
      </trkpt>
      <trkpt lat="43.74266" lon="6.67232">
        <ele>1432.2</ele>
        <time>2024-05-26T10:58:47Z</time>
      </trkpt>
      <trkpt lat="43.74266" lon="6.67232">
        <ele>1432.3</ele>
        <time>2024-05-26T10:58:48Z</time>
      </trkpt>
      <trkpt lat="43.74266" lon="6.67232">
        <ele>1432.3</ele>
        <time>2024-05-26T10:58:49Z</time>
      </trkpt>
      <trkpt lat="43.74266" lon="6.67232">
        <ele>1432.3</ele>
        <time>2024-05-26T10:58:50Z</time>
      </trkpt>
      <trkpt lat="43.74266" lon="6.67232">
        <ele>1432.4</ele>
        <time>2024-05-26T10:58:51Z</time>
      </trkpt>
      <trkpt lat="43.74266" lon="6.67232">
        <ele>1432.6</ele>
        <time>2024-05-26T10:58:52Z</time>
      </trkpt>
      <trkpt lat="43.74266" lon="6.67232">
        <ele>1432.8</ele>
        <time>2024-05-26T10:58:53Z</time>
      </trkpt>
      <trkpt lat="43.74266" lon="6.67232">
        <ele>1432.7</ele>
        <time>2024-05-26T10:58:54Z</time>
      </trkpt>
      <trkpt lat="43.74266" lon="6.67231">
        <ele>1432.6</ele>
        <time>2024-05-26T10:58:55Z</time>
      </trkpt>
      <trkpt lat="43.74266" lon="6.67231">
        <ele>1432.6</ele>
        <time>2024-05-26T10:58:56Z</time>
      </trkpt>
      <trkpt lat="43.74266" lon="6.67231">
        <ele>1432.6</ele>
        <time>2024-05-26T10:58:57Z</time>
      </trkpt>
      <trkpt lat="43.74266" lon="6.67231">
        <ele>1432.6</ele>
        <time>2024-05-26T10:58:58Z</time>
      </trkpt>
      <trkpt lat="43.74266" lon="6.67231">
        <ele>1432.6</ele>
        <time>2024-05-26T10:58:59Z</time>
      </trkpt>
      <trkpt lat="43.74266" lon="6.67231">
        <ele>1432.7</ele>
        <time>2024-05-26T10:59:00Z</time>
      </trkpt>
      <trkpt lat="43.74266" lon="6.67231">
        <ele>1432.7</ele>
        <time>2024-05-26T10:59:01Z</time>
      </trkpt>
      <trkpt lat="43.74266" lon="6.67231">
        <ele>1432.7</ele>
        <time>2024-05-26T10:59:02Z</time>
      </trkpt>
      <trkpt lat="43.74266" lon="6.6723">
        <ele>1432.7</ele>
        <time>2024-05-26T10:59:03Z</time>
      </trkpt>
      <trkpt lat="43.74266" lon="6.6723">
        <ele>1432.7</ele>
        <time>2024-05-26T10:59:04Z</time>
      </trkpt>
      <trkpt lat="43.74266" lon="6.6723">
        <ele>1432.7</ele>
        <time>2024-05-26T10:59:05Z</time>
      </trkpt>
      <trkpt lat="43.74266" lon="6.6723">
        <ele>1432.7</ele>
        <time>2024-05-26T10:59:06Z</time>
      </trkpt>
      <trkpt lat="43.74266" lon="6.6723">
        <ele>1432.6</ele>
        <time>2024-05-26T10:59:07Z</time>
      </trkpt>
      <trkpt lat="43.74266" lon="6.6723">
        <ele>1432.7</ele>
        <time>2024-05-26T10:59:08Z</time>
      </trkpt>
      <trkpt lat="43.74266" lon="6.6723">
        <ele>1432.7</ele>
        <time>2024-05-26T10:59:09Z</time>
      </trkpt>
      <trkpt lat="43.74266" lon="6.6723">
        <ele>1432.7</ele>
        <time>2024-05-26T10:59:10Z</time>
      </trkpt>
      <trkpt lat="43.74266" lon="6.6723">
        <ele>1432.7</ele>
        <time>2024-05-26T10:59:11Z</time>
      </trkpt>
      <trkpt lat="43.74266" lon="6.6723">
        <ele>1432.7</ele>
        <time>2024-05-26T10:59:12Z</time>
      </trkpt>
      <trkpt lat="43.74266" lon="6.6723">
        <ele>1432.7</ele>
        <time>2024-05-26T10:59:13Z</time>
      </trkpt>
      <trkpt lat="43.74266" lon="6.6723">
        <ele>1432.7</ele>
        <time>2024-05-26T10:59:14Z</time>
      </trkpt>
      <trkpt lat="43.74266" lon="6.6723">
        <ele>1432.7</ele>
        <time>2024-05-26T10:59:15Z</time>
      </trkpt>
      <trkpt lat="43.74266" lon="6.6723">
        <ele>1432.7</ele>
        <time>2024-05-26T10:59:16Z</time>
      </trkpt>
      <trkpt lat="43.74266" lon="6.6723">
        <ele>1432.7</ele>
        <time>2024-05-26T10:59:17Z</time>
      </trkpt>
      <trkpt lat="43.74266" lon="6.6723">
        <ele>1432.7</ele>
        <time>2024-05-26T10:59:18Z</time>
      </trkpt>
      <trkpt lat="43.74266" lon="6.6723">
        <ele>1432.8</ele>
        <time>2024-05-26T10:59:19Z</time>
      </trkpt>
      <trkpt lat="43.74265" lon="6.6723">
        <ele>1432.7</ele>
        <time>2024-05-26T10:59:20Z</time>
      </trkpt>
      <trkpt lat="43.74265" lon="6.6723">
        <ele>1432.7</ele>
        <time>2024-05-26T10:59:21Z</time>
      </trkpt>
      <trkpt lat="43.74265" lon="6.6723">
        <ele>1432.7</ele>
        <time>2024-05-26T10:59:22Z</time>
      </trkpt>
      <trkpt lat="43.74265" lon="6.6723">
        <ele>1432.7</ele>
        <time>2024-05-26T10:59:23Z</time>
      </trkpt>
      <trkpt lat="43.74265" lon="6.67231">
        <ele>1432.7</ele>
        <time>2024-05-26T10:59:24Z</time>
      </trkpt>
      <trkpt lat="43.74265" lon="6.67231">
        <ele>1432.7</ele>
        <time>2024-05-26T10:59:25Z</time>
      </trkpt>
      <trkpt lat="43.74265" lon="6.67231">
        <ele>1432.6</ele>
        <time>2024-05-26T10:59:26Z</time>
      </trkpt>
      <trkpt lat="43.74265" lon="6.67231">
        <ele>1432.6</ele>
        <time>2024-05-26T10:59:27Z</time>
      </trkpt>
      <trkpt lat="43.74265" lon="6.67231">
        <ele>1432.6</ele>
        <time>2024-05-26T10:59:28Z</time>
      </trkpt>
      <trkpt lat="43.74265" lon="6.67232">
        <ele>1432.6</ele>
        <time>2024-05-26T10:59:29Z</time>
      </trkpt>
      <trkpt lat="43.74265" lon="6.67232">
        <ele>1432.6</ele>
        <time>2024-05-26T10:59:30Z</time>
      </trkpt>
      <trkpt lat="43.74265" lon="6.67232">
        <ele>1432.5</ele>
        <time>2024-05-26T10:59:31Z</time>
      </trkpt>
      <trkpt lat="43.74265" lon="6.67233">
        <ele>1432.4</ele>
        <time>2024-05-26T10:59:32Z</time>
      </trkpt>
      <trkpt lat="43.74265" lon="6.67233">
        <ele>1432.4</ele>
        <time>2024-05-26T10:59:33Z</time>
      </trkpt>
      <trkpt lat="43.74265" lon="6.67233">
        <ele>1432.3</ele>
        <time>2024-05-26T10:59:34Z</time>
      </trkpt>
      <trkpt lat="43.74265" lon="6.67233">
        <ele>1432.3</ele>
        <time>2024-05-26T10:59:35Z</time>
      </trkpt>
      <trkpt lat="43.74265" lon="6.67234">
        <ele>1432.3</ele>
        <time>2024-05-26T10:59:36Z</time>
      </trkpt>
      <trkpt lat="43.74264" lon="6.67234">
        <ele>1432.4</ele>
        <time>2024-05-26T10:59:37Z</time>
      </trkpt>
      <trkpt lat="43.74264" lon="6.67234">
        <ele>1432.4</ele>
        <time>2024-05-26T10:59:38Z</time>
      </trkpt>
      <trkpt lat="43.74264" lon="6.67234">
        <ele>1432.4</ele>
        <time>2024-05-26T10:59:39Z</time>
      </trkpt>
      <trkpt lat="43.74264" lon="6.67234">
        <ele>1432.4</ele>
        <time>2024-05-26T10:59:40Z</time>
      </trkpt>
      <trkpt lat="43.74264" lon="6.67234">
        <ele>1432.4</ele>
        <time>2024-05-26T10:59:41Z</time>
      </trkpt>
      <trkpt lat="43.74264" lon="6.67234">
        <ele>1432.4</ele>
        <time>2024-05-26T10:59:42Z</time>
      </trkpt>
      <trkpt lat="43.74264" lon="6.67235">
        <ele>1432.4</ele>
        <time>2024-05-26T10:59:43Z</time>
      </trkpt>
      <trkpt lat="43.74264" lon="6.67235">
        <ele>1432.4</ele>
        <time>2024-05-26T10:59:44Z</time>
      </trkpt>
      <trkpt lat="43.74264" lon="6.67235">
        <ele>1432.2</ele>
        <time>2024-05-26T10:59:45Z</time>
      </trkpt>
      <trkpt lat="43.74264" lon="6.67235">
        <ele>1432.1</ele>
        <time>2024-05-26T10:59:46Z</time>
      </trkpt>
      <trkpt lat="43.74264" lon="6.67235">
        <ele>1432.1</ele>
        <time>2024-05-26T10:59:47Z</time>
      </trkpt>
      <trkpt lat="43.74264" lon="6.67235">
        <ele>1432.1</ele>
        <time>2024-05-26T10:59:48Z</time>
      </trkpt>
      <trkpt lat="43.74264" lon="6.67236">
        <ele>1432.1</ele>
        <time>2024-05-26T10:59:49Z</time>
      </trkpt>
      <trkpt lat="43.74264" lon="6.67236">
        <ele>1432.1</ele>
        <time>2024-05-26T10:59:50Z</time>
      </trkpt>
      <trkpt lat="43.74264" lon="6.67236">
        <ele>1432.1</ele>
        <time>2024-05-26T10:59:51Z</time>
      </trkpt>
      <trkpt lat="43.74264" lon="6.67236">
        <ele>1432.1</ele>
        <time>2024-05-26T10:59:52Z</time>
      </trkpt>
      <trkpt lat="43.74264" lon="6.67236">
        <ele>1432.1</ele>
        <time>2024-05-26T10:59:53Z</time>
      </trkpt>
      <trkpt lat="43.74264" lon="6.67236">
        <ele>1432.1</ele>
        <time>2024-05-26T10:59:54Z</time>
      </trkpt>
      <trkpt lat="43.74265" lon="6.67236">
        <ele>1432.2</ele>
        <time>2024-05-26T10:59:55Z</time>
      </trkpt>
      <trkpt lat="43.74265" lon="6.67236">
        <ele>1432.3</ele>
        <time>2024-05-26T10:59:56Z</time>
      </trkpt>
      <trkpt lat="43.74265" lon="6.67237">
        <ele>1432.4</ele>
        <time>2024-05-26T10:59:57Z</time>
      </trkpt>
      <trkpt lat="43.74265" lon="6.67237">
        <ele>1432.4</ele>
        <time>2024-05-26T10:59:58Z</time>
      </trkpt>
      <trkpt lat="43.74265" lon="6.67237">
        <ele>1432.4</ele>
        <time>2024-05-26T10:59:59Z</time>
      </trkpt>
      <trkpt lat="43.74265" lon="6.67237">
        <ele>1432.4</ele>
        <time>2024-05-26T11:00:00Z</time>
      </trkpt>
      <trkpt lat="43.74265" lon="6.67238">
        <ele>1432.4</ele>
        <time>2024-05-26T11:00:01Z</time>
      </trkpt>
      <trkpt lat="43.74265" lon="6.67238">
        <ele>1432.4</ele>
        <time>2024-05-26T11:00:02Z</time>
      </trkpt>
      <trkpt lat="43.74265" lon="6.67238">
        <ele>1432.4</ele>
        <time>2024-05-26T11:00:03Z</time>
      </trkpt>
      <trkpt lat="43.74265" lon="6.67238">
        <ele>1432.4</ele>
        <time>2024-05-26T11:00:04Z</time>
      </trkpt>
      <trkpt lat="43.74265" lon="6.67238">
        <ele>1432.3</ele>
        <time>2024-05-26T11:00:05Z</time>
      </trkpt>
      <trkpt lat="43.74265" lon="6.67238">
        <ele>1432.2</ele>
        <time>2024-05-26T11:00:06Z</time>
      </trkpt>
      <trkpt lat="43.74265" lon="6.67238">
        <ele>1432.2</ele>
        <time>2024-05-26T11:00:07Z</time>
      </trkpt>
      <trkpt lat="43.74265" lon="6.67238">
        <ele>1432.2</ele>
        <time>2024-05-26T11:00:08Z</time>
      </trkpt>
      <trkpt lat="43.74265" lon="6.67238">
        <ele>1432</ele>
        <time>2024-05-26T11:00:09Z</time>
      </trkpt>
      <trkpt lat="43.74265" lon="6.67239">
        <ele>1432</ele>
        <time>2024-05-26T11:00:10Z</time>
      </trkpt>
      <trkpt lat="43.74265" lon="6.67239">
        <ele>1431.9</ele>
        <time>2024-05-26T11:00:11Z</time>
      </trkpt>
      <trkpt lat="43.74265" lon="6.67239">
        <ele>1432</ele>
        <time>2024-05-26T11:00:12Z</time>
      </trkpt>
      <trkpt lat="43.74265" lon="6.67239">
        <ele>1431.9</ele>
        <time>2024-05-26T11:00:13Z</time>
      </trkpt>
      <trkpt lat="43.74265" lon="6.67239">
        <ele>1431.9</ele>
        <time>2024-05-26T11:00:14Z</time>
      </trkpt>
      <trkpt lat="43.74265" lon="6.67239">
        <ele>1432</ele>
        <time>2024-05-26T11:00:15Z</time>
      </trkpt>
      <trkpt lat="43.74265" lon="6.67239">
        <ele>1432</ele>
        <time>2024-05-26T11:00:16Z</time>
      </trkpt>
      <trkpt lat="43.74265" lon="6.67239">
        <ele>1432</ele>
        <time>2024-05-26T11:00:17Z</time>
      </trkpt>
      <trkpt lat="43.74265" lon="6.67239">
        <ele>1432.1</ele>
        <time>2024-05-26T11:00:18Z</time>
      </trkpt>
      <trkpt lat="43.74265" lon="6.67239">
        <ele>1432.1</ele>
        <time>2024-05-26T11:00:19Z</time>
      </trkpt>
      <trkpt lat="43.74265" lon="6.67239">
        <ele>1432.1</ele>
        <time>2024-05-26T11:00:20Z</time>
      </trkpt>
      <trkpt lat="43.74265" lon="6.67239">
        <ele>1432.1</ele>
        <time>2024-05-26T11:00:21Z</time>
      </trkpt>
      <trkpt lat="43.74265" lon="6.67239">
        <ele>1432.1</ele>
        <time>2024-05-26T11:00:22Z</time>
      </trkpt>
      <trkpt lat="43.74265" lon="6.67239">
        <ele>1432.1</ele>
        <time>2024-05-26T11:00:23Z</time>
      </trkpt>
      <trkpt lat="43.74265" lon="6.67239">
        <ele>1432.1</ele>
        <time>2024-05-26T11:00:24Z</time>
      </trkpt>
      <trkpt lat="43.74265" lon="6.67239">
        <ele>1432.1</ele>
        <time>2024-05-26T11:00:25Z</time>
      </trkpt>
      <trkpt lat="43.74265" lon="6.67239">
        <ele>1432.1</ele>
        <time>2024-05-26T11:00:26Z</time>
      </trkpt>
      <trkpt lat="43.74265" lon="6.67239">
        <ele>1432.1</ele>
        <time>2024-05-26T11:00:27Z</time>
      </trkpt>
      <trkpt lat="43.74265" lon="6.67239">
        <ele>1432</ele>
        <time>2024-05-26T11:00:28Z</time>
      </trkpt>
      <trkpt lat="43.74265" lon="6.67239">
        <ele>1432</ele>
        <time>2024-05-26T11:00:29Z</time>
      </trkpt>
      <trkpt lat="43.74265" lon="6.67239">
        <ele>1432</ele>
        <time>2024-05-26T11:00:30Z</time>
      </trkpt>
      <trkpt lat="43.74265" lon="6.67239">
        <ele>1432</ele>
        <time>2024-05-26T11:00:31Z</time>
      </trkpt>
      <trkpt lat="43.74265" lon="6.67239">
        <ele>1432</ele>
        <time>2024-05-26T11:00:32Z</time>
      </trkpt>
      <trkpt lat="43.74265" lon="6.67239">
        <ele>1432</ele>
        <time>2024-05-26T11:00:33Z</time>
      </trkpt>
      <trkpt lat="43.74265" lon="6.67239">
        <ele>1432</ele>
        <time>2024-05-26T11:00:34Z</time>
      </trkpt>
      <trkpt lat="43.74265" lon="6.67239">
        <ele>1432</ele>
        <time>2024-05-26T11:00:35Z</time>
      </trkpt>
      <trkpt lat="43.74265" lon="6.67239">
        <ele>1432</ele>
        <time>2024-05-26T11:00:36Z</time>
      </trkpt>
      <trkpt lat="43.74265" lon="6.67239">
        <ele>1432</ele>
        <time>2024-05-26T11:00:37Z</time>
      </trkpt>
      <trkpt lat="43.74265" lon="6.67239">
        <ele>1432</ele>
        <time>2024-05-26T11:00:38Z</time>
      </trkpt>
      <trkpt lat="43.74265" lon="6.67239">
        <ele>1432</ele>
        <time>2024-05-26T11:00:39Z</time>
      </trkpt>
      <trkpt lat="43.74265" lon="6.67239">
        <ele>1432.1</ele>
        <time>2024-05-26T11:00:40Z</time>
      </trkpt>
      <trkpt lat="43.74265" lon="6.67239">
        <ele>1432.1</ele>
        <time>2024-05-26T11:00:41Z</time>
      </trkpt>
      <trkpt lat="43.74265" lon="6.67239">
        <ele>1432.1</ele>
        <time>2024-05-26T11:00:42Z</time>
      </trkpt>
      <trkpt lat="43.74265" lon="6.67239">
        <ele>1432.3</ele>
        <time>2024-05-26T11:00:43Z</time>
      </trkpt>
      <trkpt lat="43.74265" lon="6.67239">
        <ele>1432.3</ele>
        <time>2024-05-26T11:00:44Z</time>
      </trkpt>
      <trkpt lat="43.74265" lon="6.67239">
        <ele>1432.3</ele>
        <time>2024-05-26T11:00:45Z</time>
      </trkpt>
      <trkpt lat="43.74265" lon="6.67238">
        <ele>1432.4</ele>
        <time>2024-05-26T11:00:46Z</time>
      </trkpt>
      <trkpt lat="43.74265" lon="6.67238">
        <ele>1432.4</ele>
        <time>2024-05-26T11:00:47Z</time>
      </trkpt>
      <trkpt lat="43.74265" lon="6.67238">
        <ele>1432.4</ele>
        <time>2024-05-26T11:00:48Z</time>
      </trkpt>
      <trkpt lat="43.74265" lon="6.67238">
        <ele>1432.5</ele>
        <time>2024-05-26T11:00:49Z</time>
      </trkpt>
      <trkpt lat="43.74265" lon="6.67238">
        <ele>1432.5</ele>
        <time>2024-05-26T11:00:50Z</time>
      </trkpt>
      <trkpt lat="43.74265" lon="6.67238">
        <ele>1432.4</ele>
        <time>2024-05-26T11:00:51Z</time>
      </trkpt>
      <trkpt lat="43.74265" lon="6.67238">
        <ele>1432.4</ele>
        <time>2024-05-26T11:00:52Z</time>
      </trkpt>
      <trkpt lat="43.74265" lon="6.67238">
        <ele>1432.4</ele>
        <time>2024-05-26T11:00:53Z</time>
      </trkpt>
      <trkpt lat="43.74265" lon="6.67238">
        <ele>1432.2</ele>
        <time>2024-05-26T11:00:54Z</time>
      </trkpt>
      <trkpt lat="43.74265" lon="6.67237">
        <ele>1432.2</ele>
        <time>2024-05-26T11:00:55Z</time>
      </trkpt>
      <trkpt lat="43.74266" lon="6.67237">
        <ele>1432.2</ele>
        <time>2024-05-26T11:00:56Z</time>
      </trkpt>
      <trkpt lat="43.74266" lon="6.67237">
        <ele>1432.2</ele>
        <time>2024-05-26T11:00:57Z</time>
      </trkpt>
      <trkpt lat="43.74266" lon="6.67237">
        <ele>1432.2</ele>
        <time>2024-05-26T11:00:58Z</time>
      </trkpt>
      <trkpt lat="43.74266" lon="6.67237">
        <ele>1432.1</ele>
        <time>2024-05-26T11:00:59Z</time>
      </trkpt>
      <trkpt lat="43.74266" lon="6.67237">
        <ele>1432.1</ele>
        <time>2024-05-26T11:01:00Z</time>
      </trkpt>
      <trkpt lat="43.74266" lon="6.67237">
        <ele>1432.1</ele>
        <time>2024-05-26T11:01:01Z</time>
      </trkpt>
      <trkpt lat="43.74266" lon="6.67237">
        <ele>1432.1</ele>
        <time>2024-05-26T11:01:02Z</time>
      </trkpt>
      <trkpt lat="43.74266" lon="6.67237">
        <ele>1432.1</ele>
        <time>2024-05-26T11:01:03Z</time>
      </trkpt>
      <trkpt lat="43.74266" lon="6.67236">
        <ele>1432</ele>
        <time>2024-05-26T11:01:04Z</time>
      </trkpt>
      <trkpt lat="43.74266" lon="6.67236">
        <ele>1432</ele>
        <time>2024-05-26T11:01:05Z</time>
      </trkpt>
      <trkpt lat="43.74266" lon="6.67236">
        <ele>1432</ele>
        <time>2024-05-26T11:01:06Z</time>
      </trkpt>
      <trkpt lat="43.74266" lon="6.67236">
        <ele>1432</ele>
        <time>2024-05-26T11:01:07Z</time>
      </trkpt>
      <trkpt lat="43.74266" lon="6.67236">
        <ele>1432</ele>
        <time>2024-05-26T11:01:08Z</time>
      </trkpt>
      <trkpt lat="43.74266" lon="6.67236">
        <ele>1432.1</ele>
        <time>2024-05-26T11:01:09Z</time>
      </trkpt>
      <trkpt lat="43.74266" lon="6.67236">
        <ele>1432.1</ele>
        <time>2024-05-26T11:01:10Z</time>
      </trkpt>
      <trkpt lat="43.74266" lon="6.67236">
        <ele>1432</ele>
        <time>2024-05-26T11:01:11Z</time>
      </trkpt>
      <trkpt lat="43.74266" lon="6.67236">
        <ele>1432.1</ele>
        <time>2024-05-26T11:01:12Z</time>
      </trkpt>
      <trkpt lat="43.74266" lon="6.67236">
        <ele>1432</ele>
        <time>2024-05-26T11:01:13Z</time>
      </trkpt>
      <trkpt lat="43.74266" lon="6.67236">
        <ele>1432.1</ele>
        <time>2024-05-26T11:01:14Z</time>
      </trkpt>
      <trkpt lat="43.74266" lon="6.67236">
        <ele>1432.1</ele>
        <time>2024-05-26T11:01:15Z</time>
      </trkpt>
      <trkpt lat="43.74266" lon="6.67236">
        <ele>1432.2</ele>
        <time>2024-05-26T11:01:16Z</time>
      </trkpt>
      <trkpt lat="43.74266" lon="6.67236">
        <ele>1432.2</ele>
        <time>2024-05-26T11:01:17Z</time>
      </trkpt>
      <trkpt lat="43.74266" lon="6.67236">
        <ele>1432.3</ele>
        <time>2024-05-26T11:01:18Z</time>
      </trkpt>
      <trkpt lat="43.74266" lon="6.67235">
        <ele>1432.3</ele>
        <time>2024-05-26T11:01:19Z</time>
      </trkpt>
      <trkpt lat="43.74266" lon="6.67235">
        <ele>1432.3</ele>
        <time>2024-05-26T11:01:20Z</time>
      </trkpt>
      <trkpt lat="43.74266" lon="6.67235">
        <ele>1432.3</ele>
        <time>2024-05-26T11:01:21Z</time>
      </trkpt>
      <trkpt lat="43.74266" lon="6.67235">
        <ele>1432.3</ele>
        <time>2024-05-26T11:01:22Z</time>
      </trkpt>
      <trkpt lat="43.74266" lon="6.67235">
        <ele>1432.4</ele>
        <time>2024-05-26T11:01:23Z</time>
      </trkpt>
      <trkpt lat="43.74266" lon="6.67235">
        <ele>1432.4</ele>
        <time>2024-05-26T11:01:24Z</time>
      </trkpt>
      <trkpt lat="43.74266" lon="6.67235">
        <ele>1432.3</ele>
        <time>2024-05-26T11:01:25Z</time>
      </trkpt>
      <trkpt lat="43.74266" lon="6.67235">
        <ele>1432.3</ele>
        <time>2024-05-26T11:01:26Z</time>
      </trkpt>
      <trkpt lat="43.74266" lon="6.67235">
        <ele>1432.3</ele>
        <time>2024-05-26T11:01:27Z</time>
      </trkpt>
      <trkpt lat="43.74266" lon="6.67235">
        <ele>1432.3</ele>
        <time>2024-05-26T11:01:28Z</time>
      </trkpt>
      <trkpt lat="43.74266" lon="6.67234">
        <ele>1432.3</ele>
        <time>2024-05-26T11:01:29Z</time>
      </trkpt>
      <trkpt lat="43.74266" lon="6.67234">
        <ele>1432.3</ele>
        <time>2024-05-26T11:01:30Z</time>
      </trkpt>
      <trkpt lat="43.74266" lon="6.67234">
        <ele>1432.3</ele>
        <time>2024-05-26T11:01:31Z</time>
      </trkpt>
      <trkpt lat="43.74266" lon="6.67234">
        <ele>1432.3</ele>
        <time>2024-05-26T11:01:32Z</time>
      </trkpt>
      <trkpt lat="43.74266" lon="6.67234">
        <ele>1432.3</ele>
        <time>2024-05-26T11:01:33Z</time>
      </trkpt>
      <trkpt lat="43.74266" lon="6.67234">
        <ele>1432.2</ele>
        <time>2024-05-26T11:01:34Z</time>
      </trkpt>
      <trkpt lat="43.74266" lon="6.67234">
        <ele>1432.3</ele>
        <time>2024-05-26T11:01:35Z</time>
      </trkpt>
      <trkpt lat="43.74266" lon="6.67234">
        <ele>1432.4</ele>
        <time>2024-05-26T11:01:36Z</time>
      </trkpt>
      <trkpt lat="43.74266" lon="6.67234">
        <ele>1432.4</ele>
        <time>2024-05-26T11:01:37Z</time>
      </trkpt>
      <trkpt lat="43.74266" lon="6.67234">
        <ele>1432.5</ele>
        <time>2024-05-26T11:01:38Z</time>
      </trkpt>
      <trkpt lat="43.74266" lon="6.67234">
        <ele>1432.5</ele>
        <time>2024-05-26T11:01:39Z</time>
      </trkpt>
      <trkpt lat="43.74266" lon="6.67233">
        <ele>1432.5</ele>
        <time>2024-05-26T11:01:40Z</time>
      </trkpt>
      <trkpt lat="43.74266" lon="6.67233">
        <ele>1432.5</ele>
        <time>2024-05-26T11:01:41Z</time>
      </trkpt>
      <trkpt lat="43.74266" lon="6.67233">
        <ele>1432.5</ele>
        <time>2024-05-26T11:01:42Z</time>
      </trkpt>
      <trkpt lat="43.74266" lon="6.67233">
        <ele>1432.5</ele>
        <time>2024-05-26T11:01:43Z</time>
      </trkpt>
      <trkpt lat="43.74266" lon="6.67233">
        <ele>1432.5</ele>
        <time>2024-05-26T11:01:44Z</time>
      </trkpt>
      <trkpt lat="43.74266" lon="6.67233">
        <ele>1432.5</ele>
        <time>2024-05-26T11:01:45Z</time>
      </trkpt>
      <trkpt lat="43.74266" lon="6.67233">
        <ele>1432.5</ele>
        <time>2024-05-26T11:01:46Z</time>
      </trkpt>
      <trkpt lat="43.74266" lon="6.67232">
        <ele>1432.4</ele>
        <time>2024-05-26T11:01:47Z</time>
      </trkpt>
      <trkpt lat="43.74266" lon="6.67232">
        <ele>1432.4</ele>
        <time>2024-05-26T11:01:48Z</time>
      </trkpt>
      <trkpt lat="43.74266" lon="6.67232">
        <ele>1432.4</ele>
        <time>2024-05-26T11:01:49Z</time>
      </trkpt>
      <trkpt lat="43.74266" lon="6.67232">
        <ele>1432.3</ele>
        <time>2024-05-26T11:01:50Z</time>
      </trkpt>
      <trkpt lat="43.74266" lon="6.67232">
        <ele>1432.3</ele>
        <time>2024-05-26T11:01:51Z</time>
      </trkpt>
      <trkpt lat="43.74266" lon="6.67232">
        <ele>1432.3</ele>
        <time>2024-05-26T11:01:52Z</time>
      </trkpt>
      <trkpt lat="43.74266" lon="6.67232">
        <ele>1432.3</ele>
        <time>2024-05-26T11:01:53Z</time>
      </trkpt>
      <trkpt lat="43.74266" lon="6.67232">
        <ele>1432.2</ele>
        <time>2024-05-26T11:01:54Z</time>
      </trkpt>
      <trkpt lat="43.74266" lon="6.67232">
        <ele>1432.2</ele>
        <time>2024-05-26T11:01:55Z</time>
      </trkpt>
      <trkpt lat="43.74266" lon="6.67231">
        <ele>1432.2</ele>
        <time>2024-05-26T11:01:56Z</time>
      </trkpt>
      <trkpt lat="43.74266" lon="6.67231">
        <ele>1432.1</ele>
        <time>2024-05-26T11:01:57Z</time>
      </trkpt>
      <trkpt lat="43.74266" lon="6.67231">
        <ele>1432.1</ele>
        <time>2024-05-26T11:01:58Z</time>
      </trkpt>
      <trkpt lat="43.74266" lon="6.67231">
        <ele>1432.1</ele>
        <time>2024-05-26T11:01:59Z</time>
      </trkpt>
      <trkpt lat="43.74266" lon="6.67231">
        <ele>1432.2</ele>
        <time>2024-05-26T11:02:00Z</time>
      </trkpt>
      <trkpt lat="43.74266" lon="6.67231">
        <ele>1432.2</ele>
        <time>2024-05-26T11:02:01Z</time>
      </trkpt>
      <trkpt lat="43.74266" lon="6.67231">
        <ele>1432.2</ele>
        <time>2024-05-26T11:02:02Z</time>
      </trkpt>
      <trkpt lat="43.74266" lon="6.67231">
        <ele>1432.3</ele>
        <time>2024-05-26T11:02:03Z</time>
      </trkpt>
      <trkpt lat="43.74266" lon="6.67231">
        <ele>1432.3</ele>
        <time>2024-05-26T11:02:04Z</time>
      </trkpt>
      <trkpt lat="43.74265" lon="6.67231">
        <ele>1432.3</ele>
        <time>2024-05-26T11:02:05Z</time>
      </trkpt>
      <trkpt lat="43.74265" lon="6.67231">
        <ele>1432.3</ele>
        <time>2024-05-26T11:02:06Z</time>
      </trkpt>
      <trkpt lat="43.74265" lon="6.67231">
        <ele>1432.3</ele>
        <time>2024-05-26T11:02:07Z</time>
      </trkpt>
      <trkpt lat="43.74265" lon="6.67231">
        <ele>1432.3</ele>
        <time>2024-05-26T11:02:08Z</time>
      </trkpt>
      <trkpt lat="43.74265" lon="6.67231">
        <ele>1432.3</ele>
        <time>2024-05-26T11:02:09Z</time>
      </trkpt>
      <trkpt lat="43.74265" lon="6.67231">
        <ele>1432.4</ele>
        <time>2024-05-26T11:02:10Z</time>
      </trkpt>
      <trkpt lat="43.74265" lon="6.67231">
        <ele>1432.4</ele>
        <time>2024-05-26T11:02:11Z</time>
      </trkpt>
      <trkpt lat="43.74265" lon="6.67231">
        <ele>1432.4</ele>
        <time>2024-05-26T11:02:12Z</time>
      </trkpt>
      <trkpt lat="43.74264" lon="6.67231">
        <ele>1432.4</ele>
        <time>2024-05-26T11:02:13Z</time>
      </trkpt>
      <trkpt lat="43.74264" lon="6.67231">
        <ele>1432.4</ele>
        <time>2024-05-26T11:02:14Z</time>
      </trkpt>
      <trkpt lat="43.74264" lon="6.67231">
        <ele>1432.5</ele>
        <time>2024-05-26T11:02:15Z</time>
      </trkpt>
      <trkpt lat="43.74264" lon="6.67231">
        <ele>1432.5</ele>
        <time>2024-05-26T11:02:16Z</time>
      </trkpt>
      <trkpt lat="43.74264" lon="6.67231">
        <ele>1432.6</ele>
        <time>2024-05-26T11:02:17Z</time>
      </trkpt>
      <trkpt lat="43.74264" lon="6.67231">
        <ele>1432.6</ele>
        <time>2024-05-26T11:02:18Z</time>
      </trkpt>
      <trkpt lat="43.74264" lon="6.67231">
        <ele>1432.6</ele>
        <time>2024-05-26T11:02:19Z</time>
      </trkpt>
      <trkpt lat="43.74264" lon="6.67231">
        <ele>1432.6</ele>
        <time>2024-05-26T11:02:20Z</time>
      </trkpt>
      <trkpt lat="43.74264" lon="6.67231">
        <ele>1432.6</ele>
        <time>2024-05-26T11:02:21Z</time>
      </trkpt>
      <trkpt lat="43.74264" lon="6.67231">
        <ele>1432.6</ele>
        <time>2024-05-26T11:02:22Z</time>
      </trkpt>
      <trkpt lat="43.74263" lon="6.67231">
        <ele>1432.6</ele>
        <time>2024-05-26T11:02:23Z</time>
      </trkpt>
      <trkpt lat="43.74263" lon="6.67231">
        <ele>1432.7</ele>
        <time>2024-05-26T11:02:24Z</time>
      </trkpt>
      <trkpt lat="43.74263" lon="6.67231">
        <ele>1432.6</ele>
        <time>2024-05-26T11:02:25Z</time>
      </trkpt>
      <trkpt lat="43.74263" lon="6.67231">
        <ele>1432.5</ele>
        <time>2024-05-26T11:02:26Z</time>
      </trkpt>
      <trkpt lat="43.74263" lon="6.67232">
        <ele>1432.5</ele>
        <time>2024-05-26T11:02:27Z</time>
      </trkpt>
      <trkpt lat="43.74263" lon="6.67232">
        <ele>1432.4</ele>
        <time>2024-05-26T11:02:28Z</time>
      </trkpt>
      <trkpt lat="43.74263" lon="6.67232">
        <ele>1432.4</ele>
        <time>2024-05-26T11:02:29Z</time>
      </trkpt>
      <trkpt lat="43.74263" lon="6.67232">
        <ele>1432.4</ele>
        <time>2024-05-26T11:02:30Z</time>
      </trkpt>
      <trkpt lat="43.74263" lon="6.67232">
        <ele>1432.4</ele>
        <time>2024-05-26T11:02:31Z</time>
      </trkpt>
      <trkpt lat="43.74263" lon="6.67232">
        <ele>1432.4</ele>
        <time>2024-05-26T11:02:32Z</time>
      </trkpt>
      <trkpt lat="43.74263" lon="6.67232">
        <ele>1432.3</ele>
        <time>2024-05-26T11:02:33Z</time>
      </trkpt>
      <trkpt lat="43.74263" lon="6.67232">
        <ele>1432.3</ele>
        <time>2024-05-26T11:02:34Z</time>
      </trkpt>
      <trkpt lat="43.74263" lon="6.67232">
        <ele>1432.3</ele>
        <time>2024-05-26T11:02:35Z</time>
      </trkpt>
      <trkpt lat="43.74263" lon="6.67232">
        <ele>1432.3</ele>
        <time>2024-05-26T11:02:36Z</time>
      </trkpt>
      <trkpt lat="43.74263" lon="6.67232">
        <ele>1432.2</ele>
        <time>2024-05-26T11:02:37Z</time>
      </trkpt>
      <trkpt lat="43.74263" lon="6.67232">
        <ele>1432.1</ele>
        <time>2024-05-26T11:02:38Z</time>
      </trkpt>
      <trkpt lat="43.74263" lon="6.67232">
        <ele>1432.1</ele>
        <time>2024-05-26T11:02:39Z</time>
      </trkpt>
      <trkpt lat="43.74263" lon="6.67232">
        <ele>1432</ele>
        <time>2024-05-26T11:02:40Z</time>
      </trkpt>
      <trkpt lat="43.74263" lon="6.67233">
        <ele>1432.1</ele>
        <time>2024-05-26T11:02:41Z</time>
      </trkpt>
      <trkpt lat="43.74263" lon="6.67233">
        <ele>1432.1</ele>
        <time>2024-05-26T11:02:42Z</time>
      </trkpt>
      <trkpt lat="43.74263" lon="6.67233">
        <ele>1432.1</ele>
        <time>2024-05-26T11:02:43Z</time>
      </trkpt>
      <trkpt lat="43.74263" lon="6.67233">
        <ele>1432</ele>
        <time>2024-05-26T11:02:44Z</time>
      </trkpt>
      <trkpt lat="43.74263" lon="6.67233">
        <ele>1432.1</ele>
        <time>2024-05-26T11:02:45Z</time>
      </trkpt>
      <trkpt lat="43.74263" lon="6.67233">
        <ele>1432.1</ele>
        <time>2024-05-26T11:02:46Z</time>
      </trkpt>
      <trkpt lat="43.74263" lon="6.67233">
        <ele>1432.2</ele>
        <time>2024-05-26T11:02:47Z</time>
      </trkpt>
      <trkpt lat="43.74263" lon="6.67233">
        <ele>1432.2</ele>
        <time>2024-05-26T11:02:48Z</time>
      </trkpt>
      <trkpt lat="43.74263" lon="6.67234">
        <ele>1432.1</ele>
        <time>2024-05-26T11:02:49Z</time>
      </trkpt>
      <trkpt lat="43.74263" lon="6.67234">
        <ele>1432.2</ele>
        <time>2024-05-26T11:02:50Z</time>
      </trkpt>
      <trkpt lat="43.74263" lon="6.67234">
        <ele>1432.2</ele>
        <time>2024-05-26T11:02:51Z</time>
      </trkpt>
      <trkpt lat="43.74263" lon="6.67234">
        <ele>1432.2</ele>
        <time>2024-05-26T11:02:52Z</time>
      </trkpt>
      <trkpt lat="43.74263" lon="6.67233">
        <ele>1432.2</ele>
        <time>2024-05-26T11:02:53Z</time>
      </trkpt>
      <trkpt lat="43.74263" lon="6.67234">
        <ele>1432.3</ele>
        <time>2024-05-26T11:02:54Z</time>
      </trkpt>
      <trkpt lat="43.74262" lon="6.67234">
        <ele>1432.3</ele>
        <time>2024-05-26T11:02:55Z</time>
      </trkpt>
      <trkpt lat="43.74262" lon="6.67234">
        <ele>1432.4</ele>
        <time>2024-05-26T11:02:56Z</time>
      </trkpt>
      <trkpt lat="43.74262" lon="6.67234">
        <ele>1432.5</ele>
        <time>2024-05-26T11:02:57Z</time>
      </trkpt>
      <trkpt lat="43.74262" lon="6.67234">
        <ele>1432.4</ele>
        <time>2024-05-26T11:02:58Z</time>
      </trkpt>
      <trkpt lat="43.74262" lon="6.67234">
        <ele>1432.4</ele>
        <time>2024-05-26T11:02:59Z</time>
      </trkpt>
      <trkpt lat="43.74262" lon="6.67233">
        <ele>1432.5</ele>
        <time>2024-05-26T11:03:00Z</time>
      </trkpt>
      <trkpt lat="43.74262" lon="6.67233">
        <ele>1432.5</ele>
        <time>2024-05-26T11:03:01Z</time>
      </trkpt>
      <trkpt lat="43.74262" lon="6.67233">
        <ele>1432.5</ele>
        <time>2024-05-26T11:03:02Z</time>
      </trkpt>
      <trkpt lat="43.74262" lon="6.67233">
        <ele>1432.4</ele>
        <time>2024-05-26T11:03:03Z</time>
      </trkpt>
      <trkpt lat="43.74261" lon="6.67233">
        <ele>1432.3</ele>
        <time>2024-05-26T11:03:04Z</time>
      </trkpt>
      <trkpt lat="43.74261" lon="6.67233">
        <ele>1432.3</ele>
        <time>2024-05-26T11:03:05Z</time>
      </trkpt>
      <trkpt lat="43.74261" lon="6.67233">
        <ele>1432.3</ele>
        <time>2024-05-26T11:03:06Z</time>
      </trkpt>
      <trkpt lat="43.74261" lon="6.67234">
        <ele>1432.3</ele>
        <time>2024-05-26T11:03:07Z</time>
      </trkpt>
      <trkpt lat="43.74261" lon="6.67234">
        <ele>1432.1</ele>
        <time>2024-05-26T11:03:08Z</time>
      </trkpt>
      <trkpt lat="43.74261" lon="6.67234">
        <ele>1432</ele>
        <time>2024-05-26T11:03:09Z</time>
      </trkpt>
      <trkpt lat="43.74261" lon="6.67234">
        <ele>1432.1</ele>
        <time>2024-05-26T11:03:10Z</time>
      </trkpt>
      <trkpt lat="43.74261" lon="6.67234">
        <ele>1432.2</ele>
        <time>2024-05-26T11:03:11Z</time>
      </trkpt>
      <trkpt lat="43.74261" lon="6.67234">
        <ele>1432.1</ele>
        <time>2024-05-26T11:03:12Z</time>
      </trkpt>
      <trkpt lat="43.74261" lon="6.67234">
        <ele>1432.1</ele>
        <time>2024-05-26T11:03:13Z</time>
      </trkpt>
      <trkpt lat="43.74261" lon="6.67234">
        <ele>1432.1</ele>
        <time>2024-05-26T11:03:14Z</time>
      </trkpt>
      <trkpt lat="43.74261" lon="6.67234">
        <ele>1432.1</ele>
        <time>2024-05-26T11:03:15Z</time>
      </trkpt>
      <trkpt lat="43.74261" lon="6.67234">
        <ele>1432</ele>
        <time>2024-05-26T11:03:16Z</time>
      </trkpt>
      <trkpt lat="43.74261" lon="6.67234">
        <ele>1432</ele>
        <time>2024-05-26T11:03:17Z</time>
      </trkpt>
      <trkpt lat="43.74261" lon="6.67234">
        <ele>1432</ele>
        <time>2024-05-26T11:03:18Z</time>
      </trkpt>
      <trkpt lat="43.74261" lon="6.67235">
        <ele>1432</ele>
        <time>2024-05-26T11:03:19Z</time>
      </trkpt>
      <trkpt lat="43.74261" lon="6.67235">
        <ele>1432.1</ele>
        <time>2024-05-26T11:03:20Z</time>
      </trkpt>
      <trkpt lat="43.74261" lon="6.67235">
        <ele>1432.1</ele>
        <time>2024-05-26T11:03:21Z</time>
      </trkpt>
      <trkpt lat="43.74261" lon="6.67235">
        <ele>1432.2</ele>
        <time>2024-05-26T11:03:22Z</time>
      </trkpt>
      <trkpt lat="43.74261" lon="6.67235">
        <ele>1432.3</ele>
        <time>2024-05-26T11:03:23Z</time>
      </trkpt>
      <trkpt lat="43.74262" lon="6.67235">
        <ele>1432.4</ele>
        <time>2024-05-26T11:03:24Z</time>
      </trkpt>
      <trkpt lat="43.74262" lon="6.67235">
        <ele>1432.5</ele>
        <time>2024-05-26T11:03:25Z</time>
      </trkpt>
      <trkpt lat="43.74262" lon="6.67235">
        <ele>1432.6</ele>
        <time>2024-05-26T11:03:26Z</time>
      </trkpt>
      <trkpt lat="43.74262" lon="6.67235">
        <ele>1432.7</ele>
        <time>2024-05-26T11:03:27Z</time>
      </trkpt>
      <trkpt lat="43.74262" lon="6.67235">
        <ele>1432.7</ele>
        <time>2024-05-26T11:03:28Z</time>
      </trkpt>
      <trkpt lat="43.74262" lon="6.67235">
        <ele>1432.8</ele>
        <time>2024-05-26T11:03:29Z</time>
      </trkpt>
      <trkpt lat="43.74262" lon="6.67236">
        <ele>1432.7</ele>
        <time>2024-05-26T11:03:30Z</time>
      </trkpt>
      <trkpt lat="43.74262" lon="6.67236">
        <ele>1432.7</ele>
        <time>2024-05-26T11:03:31Z</time>
      </trkpt>
      <trkpt lat="43.74262" lon="6.67236">
        <ele>1432.7</ele>
        <time>2024-05-26T11:03:32Z</time>
      </trkpt>
      <trkpt lat="43.74262" lon="6.67236">
        <ele>1432.7</ele>
        <time>2024-05-26T11:03:33Z</time>
      </trkpt>
      <trkpt lat="43.74262" lon="6.67236">
        <ele>1432.7</ele>
        <time>2024-05-26T11:03:34Z</time>
      </trkpt>
      <trkpt lat="43.74262" lon="6.67236">
        <ele>1432.7</ele>
        <time>2024-05-26T11:03:35Z</time>
      </trkpt>
      <trkpt lat="43.74262" lon="6.67236">
        <ele>1432.7</ele>
        <time>2024-05-26T11:03:36Z</time>
      </trkpt>
      <trkpt lat="43.74262" lon="6.67236">
        <ele>1432.7</ele>
        <time>2024-05-26T11:03:37Z</time>
      </trkpt>
      <trkpt lat="43.74262" lon="6.67236">
        <ele>1432.7</ele>
        <time>2024-05-26T11:03:38Z</time>
      </trkpt>
      <trkpt lat="43.74262" lon="6.67236">
        <ele>1432.7</ele>
        <time>2024-05-26T11:03:39Z</time>
      </trkpt>
      <trkpt lat="43.74262" lon="6.67237">
        <ele>1432.7</ele>
        <time>2024-05-26T11:03:40Z</time>
      </trkpt>
      <trkpt lat="43.74261" lon="6.67237">
        <ele>1432.7</ele>
        <time>2024-05-26T11:03:41Z</time>
      </trkpt>
      <trkpt lat="43.74261" lon="6.67237">
        <ele>1432.7</ele>
        <time>2024-05-26T11:03:42Z</time>
      </trkpt>
      <trkpt lat="43.74261" lon="6.67237">
        <ele>1432.7</ele>
        <time>2024-05-26T11:03:43Z</time>
      </trkpt>
      <trkpt lat="43.74261" lon="6.67237">
        <ele>1432.7</ele>
        <time>2024-05-26T11:03:44Z</time>
      </trkpt>
      <trkpt lat="43.74261" lon="6.67237">
        <ele>1432.6</ele>
        <time>2024-05-26T11:03:45Z</time>
      </trkpt>
      <trkpt lat="43.74261" lon="6.67237">
        <ele>1432.6</ele>
        <time>2024-05-26T11:03:46Z</time>
      </trkpt>
      <trkpt lat="43.74261" lon="6.67237">
        <ele>1432.5</ele>
        <time>2024-05-26T11:03:47Z</time>
      </trkpt>
      <trkpt lat="43.74261" lon="6.67237">
        <ele>1432.6</ele>
        <time>2024-05-26T11:03:48Z</time>
      </trkpt>
      <trkpt lat="43.74261" lon="6.67237">
        <ele>1432.5</ele>
        <time>2024-05-26T11:03:49Z</time>
      </trkpt>
      <trkpt lat="43.74261" lon="6.67237">
        <ele>1432.5</ele>
        <time>2024-05-26T11:03:50Z</time>
      </trkpt>
      <trkpt lat="43.74261" lon="6.67238">
        <ele>1432.5</ele>
        <time>2024-05-26T11:03:51Z</time>
      </trkpt>
      <trkpt lat="43.74261" lon="6.67238">
        <ele>1432.4</ele>
        <time>2024-05-26T11:03:52Z</time>
      </trkpt>
      <trkpt lat="43.74261" lon="6.67238">
        <ele>1432.5</ele>
        <time>2024-05-26T11:03:53Z</time>
      </trkpt>
      <trkpt lat="43.74261" lon="6.67238">
        <ele>1432.5</ele>
        <time>2024-05-26T11:03:54Z</time>
      </trkpt>
      <trkpt lat="43.74261" lon="6.67238">
        <ele>1432.5</ele>
        <time>2024-05-26T11:03:55Z</time>
      </trkpt>
      <trkpt lat="43.74261" lon="6.67238">
        <ele>1432.4</ele>
        <time>2024-05-26T11:03:56Z</time>
      </trkpt>
      <trkpt lat="43.74262" lon="6.67238">
        <ele>1432.3</ele>
        <time>2024-05-26T11:03:57Z</time>
      </trkpt>
      <trkpt lat="43.74262" lon="6.67239">
        <ele>1432.3</ele>
        <time>2024-05-26T11:03:58Z</time>
      </trkpt>
      <trkpt lat="43.74262" lon="6.67239">
        <ele>1432.3</ele>
        <time>2024-05-26T11:03:59Z</time>
      </trkpt>
      <trkpt lat="43.74262" lon="6.67239">
        <ele>1432.3</ele>
        <time>2024-05-26T11:04:00Z</time>
      </trkpt>
      <trkpt lat="43.74262" lon="6.67239">
        <ele>1432.4</ele>
        <time>2024-05-26T11:04:01Z</time>
      </trkpt>
      <trkpt lat="43.74262" lon="6.67239">
        <ele>1432.4</ele>
        <time>2024-05-26T11:04:02Z</time>
      </trkpt>
      <trkpt lat="43.74263" lon="6.67239">
        <ele>1432.4</ele>
        <time>2024-05-26T11:04:03Z</time>
      </trkpt>
      <trkpt lat="43.74263" lon="6.6724">
        <ele>1432.4</ele>
        <time>2024-05-26T11:04:04Z</time>
      </trkpt>
      <trkpt lat="43.74263" lon="6.6724">
        <ele>1432.4</ele>
        <time>2024-05-26T11:04:05Z</time>
      </trkpt>
      <trkpt lat="43.74263" lon="6.6724">
        <ele>1432.4</ele>
        <time>2024-05-26T11:04:06Z</time>
      </trkpt>
      <trkpt lat="43.74263" lon="6.6724">
        <ele>1432.4</ele>
        <time>2024-05-26T11:04:07Z</time>
      </trkpt>
      <trkpt lat="43.74263" lon="6.6724">
        <ele>1432.4</ele>
        <time>2024-05-26T11:04:08Z</time>
      </trkpt>
      <trkpt lat="43.74263" lon="6.6724">
        <ele>1432.4</ele>
        <time>2024-05-26T11:04:09Z</time>
      </trkpt>
      <trkpt lat="43.74263" lon="6.6724">
        <ele>1432.5</ele>
        <time>2024-05-26T11:04:10Z</time>
      </trkpt>
      <trkpt lat="43.74263" lon="6.6724">
        <ele>1432.4</ele>
        <time>2024-05-26T11:04:11Z</time>
      </trkpt>
      <trkpt lat="43.74263" lon="6.67239">
        <ele>1432.4</ele>
        <time>2024-05-26T11:04:12Z</time>
      </trkpt>
      <trkpt lat="43.74263" lon="6.67239">
        <ele>1432.3</ele>
        <time>2024-05-26T11:04:13Z</time>
      </trkpt>
      <trkpt lat="43.74263" lon="6.67239">
        <ele>1432.3</ele>
        <time>2024-05-26T11:04:14Z</time>
      </trkpt>
      <trkpt lat="43.74264" lon="6.67239">
        <ele>1432.3</ele>
        <time>2024-05-26T11:04:15Z</time>
      </trkpt>
      <trkpt lat="43.74264" lon="6.67239">
        <ele>1432.2</ele>
        <time>2024-05-26T11:04:16Z</time>
      </trkpt>
      <trkpt lat="43.74264" lon="6.67239">
        <ele>1432.2</ele>
        <time>2024-05-26T11:04:17Z</time>
      </trkpt>
      <trkpt lat="43.74264" lon="6.67239">
        <ele>1432.2</ele>
        <time>2024-05-26T11:04:18Z</time>
      </trkpt>
      <trkpt lat="43.74264" lon="6.67239">
        <ele>1432.2</ele>
        <time>2024-05-26T11:04:19Z</time>
      </trkpt>
      <trkpt lat="43.74264" lon="6.67239">
        <ele>1432.2</ele>
        <time>2024-05-26T11:04:20Z</time>
      </trkpt>
      <trkpt lat="43.74264" lon="6.67239">
        <ele>1432.2</ele>
        <time>2024-05-26T11:04:21Z</time>
      </trkpt>
      <trkpt lat="43.74264" lon="6.67239">
        <ele>1432.1</ele>
        <time>2024-05-26T11:04:22Z</time>
      </trkpt>
      <trkpt lat="43.74264" lon="6.67239">
        <ele>1432.1</ele>
        <time>2024-05-26T11:04:23Z</time>
      </trkpt>
      <trkpt lat="43.74264" lon="6.67239">
        <ele>1432.1</ele>
        <time>2024-05-26T11:04:24Z</time>
      </trkpt>
      <trkpt lat="43.74264" lon="6.67239">
        <ele>1432.1</ele>
        <time>2024-05-26T11:04:25Z</time>
      </trkpt>
      <trkpt lat="43.74264" lon="6.67239">
        <ele>1432</ele>
        <time>2024-05-26T11:04:26Z</time>
      </trkpt>
      <trkpt lat="43.74264" lon="6.67239">
        <ele>1432</ele>
        <time>2024-05-26T11:04:27Z</time>
      </trkpt>
      <trkpt lat="43.74264" lon="6.67239">
        <ele>1432</ele>
        <time>2024-05-26T11:04:28Z</time>
      </trkpt>
      <trkpt lat="43.74264" lon="6.67239">
        <ele>1432</ele>
        <time>2024-05-26T11:04:29Z</time>
      </trkpt>
      <trkpt lat="43.74264" lon="6.67239">
        <ele>1431.8</ele>
        <time>2024-05-26T11:04:30Z</time>
      </trkpt>
      <trkpt lat="43.74264" lon="6.67239">
        <ele>1432.1</ele>
        <time>2024-05-26T11:04:31Z</time>
      </trkpt>
      <trkpt lat="43.74264" lon="6.6724">
        <ele>1432.2</ele>
        <time>2024-05-26T11:04:32Z</time>
      </trkpt>
      <trkpt lat="43.74264" lon="6.6724">
        <ele>1432.2</ele>
        <time>2024-05-26T11:04:33Z</time>
      </trkpt>
      <trkpt lat="43.74263" lon="6.6724">
        <ele>1432.1</ele>
        <time>2024-05-26T11:04:34Z</time>
      </trkpt>
      <trkpt lat="43.74263" lon="6.6724">
        <ele>1432.1</ele>
        <time>2024-05-26T11:04:35Z</time>
      </trkpt>
      <trkpt lat="43.74263" lon="6.6724">
        <ele>1432</ele>
        <time>2024-05-26T11:04:36Z</time>
      </trkpt>
      <trkpt lat="43.74263" lon="6.6724">
        <ele>1432</ele>
        <time>2024-05-26T11:04:37Z</time>
      </trkpt>
      <trkpt lat="43.74263" lon="6.6724">
        <ele>1432</ele>
        <time>2024-05-26T11:04:38Z</time>
      </trkpt>
      <trkpt lat="43.74263" lon="6.67241">
        <ele>1431.9</ele>
        <time>2024-05-26T11:04:39Z</time>
      </trkpt>
      <trkpt lat="43.74262" lon="6.67241">
        <ele>1432</ele>
        <time>2024-05-26T11:04:40Z</time>
      </trkpt>
      <trkpt lat="43.74262" lon="6.6724">
        <ele>1432</ele>
        <time>2024-05-26T11:04:41Z</time>
      </trkpt>
      <trkpt lat="43.74262" lon="6.67239">
        <ele>1432.1</ele>
        <time>2024-05-26T11:04:42Z</time>
      </trkpt>
      <trkpt lat="43.74262" lon="6.67239">
        <ele>1432.1</ele>
        <time>2024-05-26T11:04:43Z</time>
      </trkpt>
      <trkpt lat="43.74262" lon="6.67239">
        <ele>1432.1</ele>
        <time>2024-05-26T11:04:44Z</time>
      </trkpt>
      <trkpt lat="43.74262" lon="6.67238">
        <ele>1432.2</ele>
        <time>2024-05-26T11:04:45Z</time>
      </trkpt>
      <trkpt lat="43.74262" lon="6.67238">
        <ele>1432.2</ele>
        <time>2024-05-26T11:04:46Z</time>
      </trkpt>
      <trkpt lat="43.74262" lon="6.67238">
        <ele>1432.2</ele>
        <time>2024-05-26T11:04:47Z</time>
      </trkpt>
      <trkpt lat="43.74262" lon="6.67238">
        <ele>1432.2</ele>
        <time>2024-05-26T11:04:48Z</time>
      </trkpt>
      <trkpt lat="43.74262" lon="6.67239">
        <ele>1432.2</ele>
        <time>2024-05-26T11:04:49Z</time>
      </trkpt>
      <trkpt lat="43.74262" lon="6.67239">
        <ele>1432.2</ele>
        <time>2024-05-26T11:04:50Z</time>
      </trkpt>
      <trkpt lat="43.74262" lon="6.67239">
        <ele>1432.1</ele>
        <time>2024-05-26T11:04:51Z</time>
      </trkpt>
      <trkpt lat="43.74261" lon="6.67239">
        <ele>1432.1</ele>
        <time>2024-05-26T11:04:52Z</time>
      </trkpt>
      <trkpt lat="43.74261" lon="6.67239">
        <ele>1432</ele>
        <time>2024-05-26T11:04:53Z</time>
      </trkpt>
      <trkpt lat="43.74261" lon="6.67238">
        <ele>1432</ele>
        <time>2024-05-26T11:04:54Z</time>
      </trkpt>
      <trkpt lat="43.74261" lon="6.67238">
        <ele>1432.1</ele>
        <time>2024-05-26T11:04:55Z</time>
      </trkpt>
      <trkpt lat="43.74261" lon="6.67238">
        <ele>1432</ele>
        <time>2024-05-26T11:04:56Z</time>
      </trkpt>
      <trkpt lat="43.74261" lon="6.67237">
        <ele>1432</ele>
        <time>2024-05-26T11:04:57Z</time>
      </trkpt>
      <trkpt lat="43.74261" lon="6.67237">
        <ele>1432</ele>
        <time>2024-05-26T11:04:58Z</time>
      </trkpt>
      <trkpt lat="43.74261" lon="6.67237">
        <ele>1432</ele>
        <time>2024-05-26T11:04:59Z</time>
      </trkpt>
      <trkpt lat="43.74261" lon="6.67237">
        <ele>1432</ele>
        <time>2024-05-26T11:05:00Z</time>
      </trkpt>
      <trkpt lat="43.74261" lon="6.67238">
        <ele>1432.1</ele>
        <time>2024-05-26T11:05:01Z</time>
      </trkpt>
      <trkpt lat="43.74261" lon="6.67238">
        <ele>1432</ele>
        <time>2024-05-26T11:05:02Z</time>
      </trkpt>
      <trkpt lat="43.74261" lon="6.67238">
        <ele>1432</ele>
        <time>2024-05-26T11:05:03Z</time>
      </trkpt>
      <trkpt lat="43.74261" lon="6.67238">
        <ele>1431.9</ele>
        <time>2024-05-26T11:05:04Z</time>
      </trkpt>
      <trkpt lat="43.74261" lon="6.67238">
        <ele>1431.9</ele>
        <time>2024-05-26T11:05:05Z</time>
      </trkpt>
      <trkpt lat="43.74261" lon="6.67238">
        <ele>1431.8</ele>
        <time>2024-05-26T11:05:06Z</time>
      </trkpt>
      <trkpt lat="43.74261" lon="6.67238">
        <ele>1431.8</ele>
        <time>2024-05-26T11:05:07Z</time>
      </trkpt>
      <trkpt lat="43.74261" lon="6.67238">
        <ele>1431.8</ele>
        <time>2024-05-26T11:05:08Z</time>
      </trkpt>
      <trkpt lat="43.74261" lon="6.67238">
        <ele>1431.8</ele>
        <time>2024-05-26T11:05:09Z</time>
      </trkpt>
      <trkpt lat="43.74261" lon="6.67238">
        <ele>1431.8</ele>
        <time>2024-05-26T11:05:10Z</time>
      </trkpt>
      <trkpt lat="43.74261" lon="6.67239">
        <ele>1431.7</ele>
        <time>2024-05-26T11:05:11Z</time>
      </trkpt>
      <trkpt lat="43.74262" lon="6.67239">
        <ele>1431.7</ele>
        <time>2024-05-26T11:05:12Z</time>
      </trkpt>
      <trkpt lat="43.74262" lon="6.67239">
        <ele>1431.7</ele>
        <time>2024-05-26T11:05:13Z</time>
      </trkpt>
      <trkpt lat="43.74262" lon="6.67239">
        <ele>1431.7</ele>
        <time>2024-05-26T11:05:14Z</time>
      </trkpt>
      <trkpt lat="43.74262" lon="6.67239">
        <ele>1431.7</ele>
        <time>2024-05-26T11:05:15Z</time>
      </trkpt>
      <trkpt lat="43.74262" lon="6.67239">
        <ele>1431.7</ele>
        <time>2024-05-26T11:05:16Z</time>
      </trkpt>
      <trkpt lat="43.74262" lon="6.67239">
        <ele>1431.7</ele>
        <time>2024-05-26T11:05:17Z</time>
      </trkpt>
      <trkpt lat="43.74262" lon="6.67239">
        <ele>1431.7</ele>
        <time>2024-05-26T11:05:18Z</time>
      </trkpt>
      <trkpt lat="43.74262" lon="6.67239">
        <ele>1431.7</ele>
        <time>2024-05-26T11:05:19Z</time>
      </trkpt>
      <trkpt lat="43.74262" lon="6.67239">
        <ele>1431.7</ele>
        <time>2024-05-26T11:05:20Z</time>
      </trkpt>
      <trkpt lat="43.74262" lon="6.67239">
        <ele>1431.7</ele>
        <time>2024-05-26T11:05:21Z</time>
      </trkpt>
      <trkpt lat="43.74262" lon="6.67239">
        <ele>1431.7</ele>
        <time>2024-05-26T11:05:22Z</time>
      </trkpt>
      <trkpt lat="43.74262" lon="6.67239">
        <ele>1431.8</ele>
        <time>2024-05-26T11:05:23Z</time>
      </trkpt>
      <trkpt lat="43.74262" lon="6.67239">
        <ele>1431.7</ele>
        <time>2024-05-26T11:05:24Z</time>
      </trkpt>
      <trkpt lat="43.74262" lon="6.6724">
        <ele>1431.7</ele>
        <time>2024-05-26T11:05:25Z</time>
      </trkpt>
      <trkpt lat="43.74262" lon="6.6724">
        <ele>1431.7</ele>
        <time>2024-05-26T11:05:26Z</time>
      </trkpt>
      <trkpt lat="43.74262" lon="6.6724">
        <ele>1431.8</ele>
        <time>2024-05-26T11:05:27Z</time>
      </trkpt>
      <trkpt lat="43.74262" lon="6.6724">
        <ele>1431.8</ele>
        <time>2024-05-26T11:05:28Z</time>
      </trkpt>
      <trkpt lat="43.74262" lon="6.6724">
        <ele>1431.7</ele>
        <time>2024-05-26T11:05:29Z</time>
      </trkpt>
      <trkpt lat="43.74262" lon="6.6724">
        <ele>1431.7</ele>
        <time>2024-05-26T11:05:30Z</time>
      </trkpt>
      <trkpt lat="43.74262" lon="6.6724">
        <ele>1431.7</ele>
        <time>2024-05-26T11:05:31Z</time>
      </trkpt>
      <trkpt lat="43.74262" lon="6.6724">
        <ele>1431.7</ele>
        <time>2024-05-26T11:05:32Z</time>
      </trkpt>
      <trkpt lat="43.74262" lon="6.6724">
        <ele>1431.7</ele>
        <time>2024-05-26T11:05:33Z</time>
      </trkpt>
      <trkpt lat="43.74262" lon="6.6724">
        <ele>1431.7</ele>
        <time>2024-05-26T11:05:34Z</time>
      </trkpt>
      <trkpt lat="43.74262" lon="6.6724">
        <ele>1431.7</ele>
        <time>2024-05-26T11:05:35Z</time>
      </trkpt>
      <trkpt lat="43.74262" lon="6.67241">
        <ele>1431.7</ele>
        <time>2024-05-26T11:05:36Z</time>
      </trkpt>
      <trkpt lat="43.74262" lon="6.67241">
        <ele>1431.8</ele>
        <time>2024-05-26T11:05:37Z</time>
      </trkpt>
      <trkpt lat="43.74262" lon="6.67241">
        <ele>1431.8</ele>
        <time>2024-05-26T11:05:38Z</time>
      </trkpt>
      <trkpt lat="43.74262" lon="6.67241">
        <ele>1431.9</ele>
        <time>2024-05-26T11:05:39Z</time>
      </trkpt>
      <trkpt lat="43.74262" lon="6.67241">
        <ele>1431.9</ele>
        <time>2024-05-26T11:05:40Z</time>
      </trkpt>
      <trkpt lat="43.74263" lon="6.67241">
        <ele>1431.9</ele>
        <time>2024-05-26T11:05:41Z</time>
      </trkpt>
      <trkpt lat="43.74263" lon="6.67241">
        <ele>1432</ele>
        <time>2024-05-26T11:05:42Z</time>
      </trkpt>
      <trkpt lat="43.74263" lon="6.67241">
        <ele>1432.1</ele>
        <time>2024-05-26T11:05:43Z</time>
      </trkpt>
      <trkpt lat="43.74263" lon="6.67241">
        <ele>1432.1</ele>
        <time>2024-05-26T11:05:44Z</time>
      </trkpt>
      <trkpt lat="43.74263" lon="6.67242">
        <ele>1432.1</ele>
        <time>2024-05-26T11:05:45Z</time>
      </trkpt>
      <trkpt lat="43.74263" lon="6.67242">
        <ele>1432.1</ele>
        <time>2024-05-26T11:05:46Z</time>
      </trkpt>
      <trkpt lat="43.74263" lon="6.67242">
        <ele>1432.2</ele>
        <time>2024-05-26T11:05:47Z</time>
      </trkpt>
      <trkpt lat="43.74263" lon="6.67242">
        <ele>1432.1</ele>
        <time>2024-05-26T11:05:48Z</time>
      </trkpt>
      <trkpt lat="43.74263" lon="6.67242">
        <ele>1432</ele>
        <time>2024-05-26T11:05:49Z</time>
      </trkpt>
      <trkpt lat="43.74263" lon="6.67243">
        <ele>1431.9</ele>
        <time>2024-05-26T11:05:50Z</time>
      </trkpt>
      <trkpt lat="43.74263" lon="6.67243">
        <ele>1432</ele>
        <time>2024-05-26T11:05:51Z</time>
      </trkpt>
      <trkpt lat="43.74263" lon="6.67243">
        <ele>1432</ele>
        <time>2024-05-26T11:05:52Z</time>
      </trkpt>
      <trkpt lat="43.74263" lon="6.67243">
        <ele>1432</ele>
        <time>2024-05-26T11:05:53Z</time>
      </trkpt>
      <trkpt lat="43.74263" lon="6.67243">
        <ele>1431.9</ele>
        <time>2024-05-26T11:05:54Z</time>
      </trkpt>
      <trkpt lat="43.74263" lon="6.67243">
        <ele>1432</ele>
        <time>2024-05-26T11:05:55Z</time>
      </trkpt>
      <trkpt lat="43.74263" lon="6.67243">
        <ele>1432</ele>
        <time>2024-05-26T11:05:56Z</time>
      </trkpt>
      <trkpt lat="43.74262" lon="6.67243">
        <ele>1432</ele>
        <time>2024-05-26T11:05:57Z</time>
      </trkpt>
      <trkpt lat="43.74262" lon="6.67243">
        <ele>1432.1</ele>
        <time>2024-05-26T11:05:58Z</time>
      </trkpt>
      <trkpt lat="43.74262" lon="6.67243">
        <ele>1432.1</ele>
        <time>2024-05-26T11:05:59Z</time>
      </trkpt>
      <trkpt lat="43.74262" lon="6.67243">
        <ele>1432</ele>
        <time>2024-05-26T11:06:00Z</time>
      </trkpt>
      <trkpt lat="43.74262" lon="6.67243">
        <ele>1432</ele>
        <time>2024-05-26T11:06:01Z</time>
      </trkpt>
      <trkpt lat="43.74262" lon="6.67243">
        <ele>1432.2</ele>
        <time>2024-05-26T11:06:02Z</time>
      </trkpt>
      <trkpt lat="43.74262" lon="6.67243">
        <ele>1432.2</ele>
        <time>2024-05-26T11:06:03Z</time>
      </trkpt>
      <trkpt lat="43.74262" lon="6.67243">
        <ele>1432.3</ele>
        <time>2024-05-26T11:06:04Z</time>
      </trkpt>
      <trkpt lat="43.74262" lon="6.67243">
        <ele>1432.3</ele>
        <time>2024-05-26T11:06:05Z</time>
      </trkpt>
      <trkpt lat="43.74262" lon="6.67243">
        <ele>1432.3</ele>
        <time>2024-05-26T11:06:06Z</time>
      </trkpt>
      <trkpt lat="43.74261" lon="6.67243">
        <ele>1432.3</ele>
        <time>2024-05-26T11:06:07Z</time>
      </trkpt>
      <trkpt lat="43.74261" lon="6.67243">
        <ele>1432.4</ele>
        <time>2024-05-26T11:06:08Z</time>
      </trkpt>
      <trkpt lat="43.74261" lon="6.67243">
        <ele>1432.4</ele>
        <time>2024-05-26T11:06:09Z</time>
      </trkpt>
      <trkpt lat="43.74261" lon="6.67243">
        <ele>1432.4</ele>
        <time>2024-05-26T11:06:10Z</time>
      </trkpt>
      <trkpt lat="43.74261" lon="6.67243">
        <ele>1432.4</ele>
        <time>2024-05-26T11:06:11Z</time>
      </trkpt>
      <trkpt lat="43.74261" lon="6.67243">
        <ele>1432.4</ele>
        <time>2024-05-26T11:06:12Z</time>
      </trkpt>
      <trkpt lat="43.74261" lon="6.67243">
        <ele>1432.4</ele>
        <time>2024-05-26T11:06:13Z</time>
      </trkpt>
      <trkpt lat="43.74261" lon="6.67243">
        <ele>1432.4</ele>
        <time>2024-05-26T11:06:14Z</time>
      </trkpt>
      <trkpt lat="43.74261" lon="6.67243">
        <ele>1432.4</ele>
        <time>2024-05-26T11:06:15Z</time>
      </trkpt>
      <trkpt lat="43.74261" lon="6.67243">
        <ele>1432.4</ele>
        <time>2024-05-26T11:06:16Z</time>
      </trkpt>
      <trkpt lat="43.74261" lon="6.67243">
        <ele>1432.3</ele>
        <time>2024-05-26T11:06:17Z</time>
      </trkpt>
      <trkpt lat="43.74261" lon="6.67243">
        <ele>1432.3</ele>
        <time>2024-05-26T11:06:18Z</time>
      </trkpt>
      <trkpt lat="43.74261" lon="6.67243">
        <ele>1432.3</ele>
        <time>2024-05-26T11:06:19Z</time>
      </trkpt>
      <trkpt lat="43.74261" lon="6.67243">
        <ele>1432.3</ele>
        <time>2024-05-26T11:06:20Z</time>
      </trkpt>
      <trkpt lat="43.74261" lon="6.67243">
        <ele>1432.3</ele>
        <time>2024-05-26T11:06:21Z</time>
      </trkpt>
      <trkpt lat="43.74261" lon="6.67243">
        <ele>1432.3</ele>
        <time>2024-05-26T11:06:22Z</time>
      </trkpt>
      <trkpt lat="43.74261" lon="6.67242">
        <ele>1432.3</ele>
        <time>2024-05-26T11:06:23Z</time>
      </trkpt>
      <trkpt lat="43.7426" lon="6.67242">
        <ele>1432.3</ele>
        <time>2024-05-26T11:06:24Z</time>
      </trkpt>
      <trkpt lat="43.7426" lon="6.67242">
        <ele>1432.4</ele>
        <time>2024-05-26T11:06:25Z</time>
      </trkpt>
      <trkpt lat="43.7426" lon="6.67242">
        <ele>1432.4</ele>
        <time>2024-05-26T11:06:26Z</time>
      </trkpt>
      <trkpt lat="43.7426" lon="6.67242">
        <ele>1432.4</ele>
        <time>2024-05-26T11:06:27Z</time>
      </trkpt>
      <trkpt lat="43.7426" lon="6.67242">
        <ele>1432.4</ele>
        <time>2024-05-26T11:06:28Z</time>
      </trkpt>
      <trkpt lat="43.7426" lon="6.67242">
        <ele>1432.4</ele>
        <time>2024-05-26T11:06:29Z</time>
      </trkpt>
      <trkpt lat="43.7426" lon="6.67242">
        <ele>1432.4</ele>
        <time>2024-05-26T11:06:30Z</time>
      </trkpt>
      <trkpt lat="43.7426" lon="6.67241">
        <ele>1432.4</ele>
        <time>2024-05-26T11:06:31Z</time>
      </trkpt>
      <trkpt lat="43.7426" lon="6.67241">
        <ele>1432.4</ele>
        <time>2024-05-26T11:06:32Z</time>
      </trkpt>
      <trkpt lat="43.7426" lon="6.67241">
        <ele>1432.3</ele>
        <time>2024-05-26T11:06:33Z</time>
      </trkpt>
      <trkpt lat="43.7426" lon="6.67241">
        <ele>1432.3</ele>
        <time>2024-05-26T11:06:34Z</time>
      </trkpt>
      <trkpt lat="43.7426" lon="6.67241">
        <ele>1432.3</ele>
        <time>2024-05-26T11:06:35Z</time>
      </trkpt>
      <trkpt lat="43.7426" lon="6.6724">
        <ele>1432.3</ele>
        <time>2024-05-26T11:06:36Z</time>
      </trkpt>
      <trkpt lat="43.7426" lon="6.6724">
        <ele>1432.3</ele>
        <time>2024-05-26T11:06:37Z</time>
      </trkpt>
      <trkpt lat="43.7426" lon="6.6724">
        <ele>1432.2</ele>
        <time>2024-05-26T11:06:38Z</time>
      </trkpt>
      <trkpt lat="43.7426" lon="6.6724">
        <ele>1432.3</ele>
        <time>2024-05-26T11:06:39Z</time>
      </trkpt>
      <trkpt lat="43.7426" lon="6.6724">
        <ele>1432.3</ele>
        <time>2024-05-26T11:06:40Z</time>
      </trkpt>
      <trkpt lat="43.7426" lon="6.6724">
        <ele>1432.3</ele>
        <time>2024-05-26T11:06:41Z</time>
      </trkpt>
      <trkpt lat="43.7426" lon="6.6724">
        <ele>1432.4</ele>
        <time>2024-05-26T11:06:42Z</time>
      </trkpt>
      <trkpt lat="43.7426" lon="6.67241">
        <ele>1432.4</ele>
        <time>2024-05-26T11:06:43Z</time>
      </trkpt>
      <trkpt lat="43.7426" lon="6.67241">
        <ele>1432.4</ele>
        <time>2024-05-26T11:06:44Z</time>
      </trkpt>
      <trkpt lat="43.7426" lon="6.6724">
        <ele>1432.3</ele>
        <time>2024-05-26T11:06:45Z</time>
      </trkpt>
      <trkpt lat="43.7426" lon="6.6724">
        <ele>1432.3</ele>
        <time>2024-05-26T11:06:46Z</time>
      </trkpt>
      <trkpt lat="43.7426" lon="6.6724">
        <ele>1432.3</ele>
        <time>2024-05-26T11:06:47Z</time>
      </trkpt>
      <trkpt lat="43.7426" lon="6.6724">
        <ele>1432.3</ele>
        <time>2024-05-26T11:06:48Z</time>
      </trkpt>
      <trkpt lat="43.7426" lon="6.6724">
        <ele>1432.4</ele>
        <time>2024-05-26T11:06:49Z</time>
      </trkpt>
      <trkpt lat="43.7426" lon="6.6724">
        <ele>1432.4</ele>
        <time>2024-05-26T11:06:50Z</time>
      </trkpt>
      <trkpt lat="43.7426" lon="6.6724">
        <ele>1432.3</ele>
        <time>2024-05-26T11:06:51Z</time>
      </trkpt>
      <trkpt lat="43.7426" lon="6.6724">
        <ele>1432.3</ele>
        <time>2024-05-26T11:06:52Z</time>
      </trkpt>
      <trkpt lat="43.7426" lon="6.6724">
        <ele>1432.3</ele>
        <time>2024-05-26T11:06:53Z</time>
      </trkpt>
      <trkpt lat="43.7426" lon="6.6724">
        <ele>1432.3</ele>
        <time>2024-05-26T11:06:54Z</time>
      </trkpt>
      <trkpt lat="43.7426" lon="6.6724">
        <ele>1432.2</ele>
        <time>2024-05-26T11:06:55Z</time>
      </trkpt>
      <trkpt lat="43.74261" lon="6.6724">
        <ele>1432.3</ele>
        <time>2024-05-26T11:06:56Z</time>
      </trkpt>
      <trkpt lat="43.74261" lon="6.6724">
        <ele>1432.3</ele>
        <time>2024-05-26T11:06:57Z</time>
      </trkpt>
      <trkpt lat="43.74261" lon="6.6724">
        <ele>1432.3</ele>
        <time>2024-05-26T11:06:58Z</time>
      </trkpt>
      <trkpt lat="43.74261" lon="6.6724">
        <ele>1432.3</ele>
        <time>2024-05-26T11:06:59Z</time>
      </trkpt>
      <trkpt lat="43.74261" lon="6.6724">
        <ele>1432.4</ele>
        <time>2024-05-26T11:07:00Z</time>
      </trkpt>
      <trkpt lat="43.74261" lon="6.6724">
        <ele>1432.4</ele>
        <time>2024-05-26T11:07:01Z</time>
      </trkpt>
      <trkpt lat="43.74261" lon="6.6724">
        <ele>1432.4</ele>
        <time>2024-05-26T11:07:02Z</time>
      </trkpt>
      <trkpt lat="43.74261" lon="6.67241">
        <ele>1432.4</ele>
        <time>2024-05-26T11:07:03Z</time>
      </trkpt>
      <trkpt lat="43.74261" lon="6.67241">
        <ele>1432.4</ele>
        <time>2024-05-26T11:07:04Z</time>
      </trkpt>
      <trkpt lat="43.74261" lon="6.67241">
        <ele>1432.4</ele>
        <time>2024-05-26T11:07:05Z</time>
      </trkpt>
      <trkpt lat="43.74261" lon="6.67241">
        <ele>1432.4</ele>
        <time>2024-05-26T11:07:06Z</time>
      </trkpt>
      <trkpt lat="43.74261" lon="6.67241">
        <ele>1432.4</ele>
        <time>2024-05-26T11:07:07Z</time>
      </trkpt>
      <trkpt lat="43.74261" lon="6.67241">
        <ele>1432.5</ele>
        <time>2024-05-26T11:07:08Z</time>
      </trkpt>
      <trkpt lat="43.74261" lon="6.67241">
        <ele>1432.6</ele>
        <time>2024-05-26T11:07:09Z</time>
      </trkpt>
      <trkpt lat="43.74261" lon="6.67241">
        <ele>1432.7</ele>
        <time>2024-05-26T11:07:10Z</time>
      </trkpt>
      <trkpt lat="43.74262" lon="6.67241">
        <ele>1432.8</ele>
        <time>2024-05-26T11:07:11Z</time>
      </trkpt>
      <trkpt lat="43.74262" lon="6.67241">
        <ele>1432.8</ele>
        <time>2024-05-26T11:07:12Z</time>
      </trkpt>
      <trkpt lat="43.74262" lon="6.67241">
        <ele>1432.8</ele>
        <time>2024-05-26T11:07:13Z</time>
      </trkpt>
      <trkpt lat="43.74262" lon="6.67241">
        <ele>1432.9</ele>
        <time>2024-05-26T11:07:14Z</time>
      </trkpt>
      <trkpt lat="43.74262" lon="6.6724">
        <ele>1432.9</ele>
        <time>2024-05-26T11:07:15Z</time>
      </trkpt>
      <trkpt lat="43.74262" lon="6.6724">
        <ele>1433</ele>
        <time>2024-05-26T11:07:16Z</time>
      </trkpt>
      <trkpt lat="43.74262" lon="6.6724">
        <ele>1432.9</ele>
        <time>2024-05-26T11:07:17Z</time>
      </trkpt>
      <trkpt lat="43.74263" lon="6.6724">
        <ele>1432.9</ele>
        <time>2024-05-26T11:07:18Z</time>
      </trkpt>
      <trkpt lat="43.74263" lon="6.6724">
        <ele>1432.9</ele>
        <time>2024-05-26T11:07:19Z</time>
      </trkpt>
      <trkpt lat="43.74263" lon="6.6724">
        <ele>1432.9</ele>
        <time>2024-05-26T11:07:20Z</time>
      </trkpt>
      <trkpt lat="43.74263" lon="6.6724">
        <ele>1432.9</ele>
        <time>2024-05-26T11:07:21Z</time>
      </trkpt>
      <trkpt lat="43.74263" lon="6.6724">
        <ele>1432.9</ele>
        <time>2024-05-26T11:07:22Z</time>
      </trkpt>
      <trkpt lat="43.74263" lon="6.6724">
        <ele>1432.9</ele>
        <time>2024-05-26T11:07:23Z</time>
      </trkpt>
      <trkpt lat="43.74263" lon="6.6724">
        <ele>1433</ele>
        <time>2024-05-26T11:07:24Z</time>
      </trkpt>
      <trkpt lat="43.74263" lon="6.6724">
        <ele>1432.9</ele>
        <time>2024-05-26T11:07:25Z</time>
      </trkpt>
      <trkpt lat="43.74263" lon="6.6724">
        <ele>1432.9</ele>
        <time>2024-05-26T11:07:26Z</time>
      </trkpt>
      <trkpt lat="43.74264" lon="6.6724">
        <ele>1432.8</ele>
        <time>2024-05-26T11:07:27Z</time>
      </trkpt>
      <trkpt lat="43.74264" lon="6.6724">
        <ele>1432.9</ele>
        <time>2024-05-26T11:07:28Z</time>
      </trkpt>
      <trkpt lat="43.74264" lon="6.67239">
        <ele>1432.8</ele>
        <time>2024-05-26T11:07:29Z</time>
      </trkpt>
      <trkpt lat="43.74264" lon="6.67239">
        <ele>1432.8</ele>
        <time>2024-05-26T11:07:30Z</time>
      </trkpt>
      <trkpt lat="43.74264" lon="6.67239">
        <ele>1432.8</ele>
        <time>2024-05-26T11:07:31Z</time>
      </trkpt>
      <trkpt lat="43.74264" lon="6.67239">
        <ele>1432.9</ele>
        <time>2024-05-26T11:07:32Z</time>
      </trkpt>
      <trkpt lat="43.74264" lon="6.67239">
        <ele>1432.9</ele>
        <time>2024-05-26T11:07:33Z</time>
      </trkpt>
      <trkpt lat="43.74264" lon="6.67239">
        <ele>1432.8</ele>
        <time>2024-05-26T11:07:34Z</time>
      </trkpt>
      <trkpt lat="43.74264" lon="6.67239">
        <ele>1432.8</ele>
        <time>2024-05-26T11:07:35Z</time>
      </trkpt>
      <trkpt lat="43.74264" lon="6.67239">
        <ele>1432.8</ele>
        <time>2024-05-26T11:07:36Z</time>
      </trkpt>
      <trkpt lat="43.74264" lon="6.67239">
        <ele>1432.8</ele>
        <time>2024-05-26T11:07:37Z</time>
      </trkpt>
      <trkpt lat="43.74264" lon="6.67239">
        <ele>1432.7</ele>
        <time>2024-05-26T11:07:38Z</time>
      </trkpt>
      <trkpt lat="43.74264" lon="6.67239">
        <ele>1432.6</ele>
        <time>2024-05-26T11:07:39Z</time>
      </trkpt>
      <trkpt lat="43.74264" lon="6.67239">
        <ele>1432.6</ele>
        <time>2024-05-26T11:07:40Z</time>
      </trkpt>
      <trkpt lat="43.74264" lon="6.67239">
        <ele>1432.6</ele>
        <time>2024-05-26T11:07:41Z</time>
      </trkpt>
      <trkpt lat="43.74264" lon="6.67239">
        <ele>1432.6</ele>
        <time>2024-05-26T11:07:42Z</time>
      </trkpt>
      <trkpt lat="43.74264" lon="6.67239">
        <ele>1432.7</ele>
        <time>2024-05-26T11:07:43Z</time>
      </trkpt>
      <trkpt lat="43.74264" lon="6.67239">
        <ele>1432.7</ele>
        <time>2024-05-26T11:07:44Z</time>
      </trkpt>
      <trkpt lat="43.74264" lon="6.67239">
        <ele>1432.7</ele>
        <time>2024-05-26T11:07:45Z</time>
      </trkpt>
      <trkpt lat="43.74264" lon="6.67239">
        <ele>1432.6</ele>
        <time>2024-05-26T11:07:46Z</time>
      </trkpt>
      <trkpt lat="43.74264" lon="6.67239">
        <ele>1432.6</ele>
        <time>2024-05-26T11:07:47Z</time>
      </trkpt>
      <trkpt lat="43.74264" lon="6.67239">
        <ele>1432.6</ele>
        <time>2024-05-26T11:07:48Z</time>
      </trkpt>
      <trkpt lat="43.74264" lon="6.67239">
        <ele>1432.5</ele>
        <time>2024-05-26T11:07:49Z</time>
      </trkpt>
      <trkpt lat="43.74264" lon="6.67239">
        <ele>1432.5</ele>
        <time>2024-05-26T11:07:50Z</time>
      </trkpt>
      <trkpt lat="43.74263" lon="6.67238">
        <ele>1432.5</ele>
        <time>2024-05-26T11:07:51Z</time>
      </trkpt>
      <trkpt lat="43.74263" lon="6.67238">
        <ele>1432.3</ele>
        <time>2024-05-26T11:07:52Z</time>
      </trkpt>
      <trkpt lat="43.74263" lon="6.67238">
        <ele>1432.3</ele>
        <time>2024-05-26T11:07:53Z</time>
      </trkpt>
      <trkpt lat="43.74263" lon="6.67239">
        <ele>1432.2</ele>
        <time>2024-05-26T11:07:54Z</time>
      </trkpt>
      <trkpt lat="43.74263" lon="6.67238">
        <ele>1432.2</ele>
        <time>2024-05-26T11:07:55Z</time>
      </trkpt>
      <trkpt lat="43.74263" lon="6.67239">
        <ele>1432.2</ele>
        <time>2024-05-26T11:07:56Z</time>
      </trkpt>
      <trkpt lat="43.74263" lon="6.67239">
        <ele>1432.2</ele>
        <time>2024-05-26T11:07:57Z</time>
      </trkpt>
      <trkpt lat="43.74263" lon="6.67239">
        <ele>1432.2</ele>
        <time>2024-05-26T11:07:58Z</time>
      </trkpt>
      <trkpt lat="43.74263" lon="6.67239">
        <ele>1432.2</ele>
        <time>2024-05-26T11:07:59Z</time>
      </trkpt>
      <trkpt lat="43.74263" lon="6.67239">
        <ele>1432.2</ele>
        <time>2024-05-26T11:08:00Z</time>
      </trkpt>
      <trkpt lat="43.74263" lon="6.67239">
        <ele>1432.1</ele>
        <time>2024-05-26T11:08:01Z</time>
      </trkpt>
      <trkpt lat="43.74263" lon="6.67239">
        <ele>1432.1</ele>
        <time>2024-05-26T11:08:02Z</time>
      </trkpt>
      <trkpt lat="43.74263" lon="6.67239">
        <ele>1432</ele>
        <time>2024-05-26T11:08:03Z</time>
      </trkpt>
      <trkpt lat="43.74263" lon="6.67239">
        <ele>1432</ele>
        <time>2024-05-26T11:08:04Z</time>
      </trkpt>
      <trkpt lat="43.74263" lon="6.67239">
        <ele>1432</ele>
        <time>2024-05-26T11:08:05Z</time>
      </trkpt>
      <trkpt lat="43.74263" lon="6.67239">
        <ele>1432</ele>
        <time>2024-05-26T11:08:06Z</time>
      </trkpt>
      <trkpt lat="43.74263" lon="6.67239">
        <ele>1432</ele>
        <time>2024-05-26T11:08:07Z</time>
      </trkpt>
      <trkpt lat="43.74263" lon="6.67239">
        <ele>1432</ele>
        <time>2024-05-26T11:08:08Z</time>
      </trkpt>
      <trkpt lat="43.74263" lon="6.67239">
        <ele>1432.1</ele>
        <time>2024-05-26T11:08:09Z</time>
      </trkpt>
      <trkpt lat="43.74263" lon="6.67239">
        <ele>1432.1</ele>
        <time>2024-05-26T11:08:10Z</time>
      </trkpt>
      <trkpt lat="43.74263" lon="6.67239">
        <ele>1432.1</ele>
        <time>2024-05-26T11:08:11Z</time>
      </trkpt>
      <trkpt lat="43.74263" lon="6.67239">
        <ele>1432.1</ele>
        <time>2024-05-26T11:08:12Z</time>
      </trkpt>
      <trkpt lat="43.74263" lon="6.67239">
        <ele>1432</ele>
        <time>2024-05-26T11:08:13Z</time>
      </trkpt>
      <trkpt lat="43.74263" lon="6.67239">
        <ele>1432.1</ele>
        <time>2024-05-26T11:08:14Z</time>
      </trkpt>
      <trkpt lat="43.74263" lon="6.67239">
        <ele>1432.2</ele>
        <time>2024-05-26T11:08:15Z</time>
      </trkpt>
      <trkpt lat="43.74263" lon="6.67239">
        <ele>1432.1</ele>
        <time>2024-05-26T11:08:16Z</time>
      </trkpt>
      <trkpt lat="43.74263" lon="6.67239">
        <ele>1432.2</ele>
        <time>2024-05-26T11:08:17Z</time>
      </trkpt>
      <trkpt lat="43.74263" lon="6.67239">
        <ele>1432.2</ele>
        <time>2024-05-26T11:08:18Z</time>
      </trkpt>
      <trkpt lat="43.74263" lon="6.67239">
        <ele>1432.2</ele>
        <time>2024-05-26T11:08:19Z</time>
      </trkpt>
      <trkpt lat="43.74263" lon="6.67239">
        <ele>1432.2</ele>
        <time>2024-05-26T11:08:20Z</time>
      </trkpt>
      <trkpt lat="43.74262" lon="6.67239">
        <ele>1432.2</ele>
        <time>2024-05-26T11:08:21Z</time>
      </trkpt>
      <trkpt lat="43.74262" lon="6.67239">
        <ele>1432.2</ele>
        <time>2024-05-26T11:08:22Z</time>
      </trkpt>
      <trkpt lat="43.74262" lon="6.67239">
        <ele>1432.2</ele>
        <time>2024-05-26T11:08:23Z</time>
      </trkpt>
      <trkpt lat="43.74262" lon="6.67239">
        <ele>1432.2</ele>
        <time>2024-05-26T11:08:24Z</time>
      </trkpt>
      <trkpt lat="43.74262" lon="6.67239">
        <ele>1432.3</ele>
        <time>2024-05-26T11:08:25Z</time>
      </trkpt>
      <trkpt lat="43.74262" lon="6.67239">
        <ele>1432.3</ele>
        <time>2024-05-26T11:08:26Z</time>
      </trkpt>
      <trkpt lat="43.74263" lon="6.67239">
        <ele>1432.4</ele>
        <time>2024-05-26T11:08:27Z</time>
      </trkpt>
      <trkpt lat="43.74262" lon="6.67239">
        <ele>1432.5</ele>
        <time>2024-05-26T11:08:28Z</time>
      </trkpt>
      <trkpt lat="43.74262" lon="6.67239">
        <ele>1432.6</ele>
        <time>2024-05-26T11:08:29Z</time>
      </trkpt>
      <trkpt lat="43.74261" lon="6.6724">
        <ele>1432.7</ele>
        <time>2024-05-26T11:08:30Z</time>
      </trkpt>
      <trkpt lat="43.74261" lon="6.67241">
        <ele>1432.7</ele>
        <time>2024-05-26T11:08:31Z</time>
      </trkpt>
      <trkpt lat="43.74262" lon="6.67241">
        <ele>1432.8</ele>
        <time>2024-05-26T11:08:32Z</time>
      </trkpt>
      <trkpt lat="43.74262" lon="6.67242">
        <ele>1432.9</ele>
        <time>2024-05-26T11:08:33Z</time>
      </trkpt>
      <trkpt lat="43.74262" lon="6.67244">
        <ele>1433.1</ele>
        <time>2024-05-26T11:08:34Z</time>
      </trkpt>
      <trkpt lat="43.74262" lon="6.67244">
        <ele>1433.2</ele>
        <time>2024-05-26T11:08:35Z</time>
      </trkpt>
      <trkpt lat="43.74263" lon="6.67245">
        <ele>1433.3</ele>
        <time>2024-05-26T11:08:36Z</time>
      </trkpt>
      <trkpt lat="43.74263" lon="6.67246">
        <ele>1433.5</ele>
        <time>2024-05-26T11:08:37Z</time>
      </trkpt>
      <trkpt lat="43.74264" lon="6.67247">
        <ele>1433.5</ele>
        <time>2024-05-26T11:08:38Z</time>
      </trkpt>
      <trkpt lat="43.74264" lon="6.67249">
        <ele>1433.6</ele>
        <time>2024-05-26T11:08:39Z</time>
      </trkpt>
      <trkpt lat="43.74264" lon="6.67249">
        <ele>1433.8</ele>
        <time>2024-05-26T11:08:40Z</time>
      </trkpt>
      <trkpt lat="43.74265" lon="6.6725">
        <ele>1434</ele>
        <time>2024-05-26T11:08:41Z</time>
      </trkpt>
      <trkpt lat="43.74265" lon="6.6725">
        <ele>1434.2</ele>
        <time>2024-05-26T11:08:42Z</time>
      </trkpt>
      <trkpt lat="43.74265" lon="6.6725">
        <ele>1434.4</ele>
        <time>2024-05-26T11:08:43Z</time>
      </trkpt>
      <trkpt lat="43.74265" lon="6.6725">
        <ele>1434.4</ele>
        <time>2024-05-26T11:08:44Z</time>
      </trkpt>
      <trkpt lat="43.74265" lon="6.6725">
        <ele>1434.5</ele>
        <time>2024-05-26T11:08:45Z</time>
      </trkpt>
      <trkpt lat="43.74265" lon="6.6725">
        <ele>1434.5</ele>
        <time>2024-05-26T11:08:46Z</time>
      </trkpt>
      <trkpt lat="43.74265" lon="6.6725">
        <ele>1434.4</ele>
        <time>2024-05-26T11:08:47Z</time>
      </trkpt>
      <trkpt lat="43.74265" lon="6.67251">
        <ele>1434.4</ele>
        <time>2024-05-26T11:08:48Z</time>
      </trkpt>
      <trkpt lat="43.74265" lon="6.67251">
        <ele>1434.3</ele>
        <time>2024-05-26T11:08:49Z</time>
      </trkpt>
      <trkpt lat="43.74265" lon="6.67251">
        <ele>1434.3</ele>
        <time>2024-05-26T11:08:50Z</time>
      </trkpt>
      <trkpt lat="43.74265" lon="6.6725">
        <ele>1434.3</ele>
        <time>2024-05-26T11:08:51Z</time>
      </trkpt>
      <trkpt lat="43.74265" lon="6.6725">
        <ele>1434.2</ele>
        <time>2024-05-26T11:08:52Z</time>
      </trkpt>
      <trkpt lat="43.74265" lon="6.6725">
        <ele>1434.2</ele>
        <time>2024-05-26T11:08:53Z</time>
      </trkpt>
      <trkpt lat="43.74265" lon="6.6725">
        <ele>1434.1</ele>
        <time>2024-05-26T11:08:54Z</time>
      </trkpt>
      <trkpt lat="43.74265" lon="6.6725">
        <ele>1434.1</ele>
        <time>2024-05-26T11:08:55Z</time>
      </trkpt>
      <trkpt lat="43.74264" lon="6.6725">
        <ele>1434.1</ele>
        <time>2024-05-26T11:08:56Z</time>
      </trkpt>
      <trkpt lat="43.74265" lon="6.6725">
        <ele>1434.1</ele>
        <time>2024-05-26T11:08:57Z</time>
      </trkpt>
      <trkpt lat="43.74265" lon="6.67251">
        <ele>1434.1</ele>
        <time>2024-05-26T11:08:58Z</time>
      </trkpt>
      <trkpt lat="43.74264" lon="6.67251">
        <ele>1434.1</ele>
        <time>2024-05-26T11:08:59Z</time>
      </trkpt>
      <trkpt lat="43.74264" lon="6.67251">
        <ele>1434.1</ele>
        <time>2024-05-26T11:09:00Z</time>
      </trkpt>
      <trkpt lat="43.74264" lon="6.67251">
        <ele>1434.1</ele>
        <time>2024-05-26T11:09:01Z</time>
      </trkpt>
      <trkpt lat="43.74264" lon="6.67251">
        <ele>1434.1</ele>
        <time>2024-05-26T11:09:02Z</time>
      </trkpt>
      <trkpt lat="43.74264" lon="6.67251">
        <ele>1434.2</ele>
        <time>2024-05-26T11:09:03Z</time>
      </trkpt>
      <trkpt lat="43.74264" lon="6.67252">
        <ele>1434.2</ele>
        <time>2024-05-26T11:09:04Z</time>
      </trkpt>
      <trkpt lat="43.74263" lon="6.67252">
        <ele>1434.2</ele>
        <time>2024-05-26T11:09:05Z</time>
      </trkpt>
      <trkpt lat="43.74263" lon="6.67252">
        <ele>1434.2</ele>
        <time>2024-05-26T11:09:06Z</time>
      </trkpt>
      <trkpt lat="43.74262" lon="6.67253">
        <ele>1434.2</ele>
        <time>2024-05-26T11:09:07Z</time>
      </trkpt>
      <trkpt lat="43.74262" lon="6.67253">
        <ele>1434.2</ele>
        <time>2024-05-26T11:09:08Z</time>
      </trkpt>
      <trkpt lat="43.74262" lon="6.67254">
        <ele>1434.3</ele>
        <time>2024-05-26T11:09:09Z</time>
      </trkpt>
      <trkpt lat="43.74262" lon="6.67254">
        <ele>1434.3</ele>
        <time>2024-05-26T11:09:10Z</time>
      </trkpt>
      <trkpt lat="43.74262" lon="6.67253">
        <ele>1434.3</ele>
        <time>2024-05-26T11:09:11Z</time>
      </trkpt>
      <trkpt lat="43.74263" lon="6.67253">
        <ele>1434.4</ele>
        <time>2024-05-26T11:09:12Z</time>
      </trkpt>
      <trkpt lat="43.74263" lon="6.67253">
        <ele>1434.4</ele>
        <time>2024-05-26T11:09:13Z</time>
      </trkpt>
      <trkpt lat="43.74263" lon="6.67253">
        <ele>1434.4</ele>
        <time>2024-05-26T11:09:14Z</time>
      </trkpt>
      <trkpt lat="43.74263" lon="6.67252">
        <ele>1434.5</ele>
        <time>2024-05-26T11:09:15Z</time>
      </trkpt>
      <trkpt lat="43.74263" lon="6.67252">
        <ele>1434.5</ele>
        <time>2024-05-26T11:09:16Z</time>
      </trkpt>
      <trkpt lat="43.74262" lon="6.67253">
        <ele>1434.5</ele>
        <time>2024-05-26T11:09:17Z</time>
      </trkpt>
      <trkpt lat="43.74262" lon="6.67252">
        <ele>1434.5</ele>
        <time>2024-05-26T11:09:18Z</time>
      </trkpt>
      <trkpt lat="43.74262" lon="6.67253">
        <ele>1434.5</ele>
        <time>2024-05-26T11:09:19Z</time>
      </trkpt>
      <trkpt lat="43.74263" lon="6.67253">
        <ele>1434.5</ele>
        <time>2024-05-26T11:09:20Z</time>
      </trkpt>
      <trkpt lat="43.74263" lon="6.67253">
        <ele>1434.5</ele>
        <time>2024-05-26T11:09:21Z</time>
      </trkpt>
      <trkpt lat="43.74263" lon="6.67254">
        <ele>1434.6</ele>
        <time>2024-05-26T11:09:22Z</time>
      </trkpt>
      <trkpt lat="43.74263" lon="6.67254">
        <ele>1434.6</ele>
        <time>2024-05-26T11:09:23Z</time>
      </trkpt>
      <trkpt lat="43.74263" lon="6.67254">
        <ele>1434.6</ele>
        <time>2024-05-26T11:09:24Z</time>
      </trkpt>
      <trkpt lat="43.74263" lon="6.67255">
        <ele>1434.7</ele>
        <time>2024-05-26T11:09:25Z</time>
      </trkpt>
      <trkpt lat="43.74263" lon="6.67255">
        <ele>1434.7</ele>
        <time>2024-05-26T11:09:26Z</time>
      </trkpt>
      <trkpt lat="43.74264" lon="6.67255">
        <ele>1434.7</ele>
        <time>2024-05-26T11:09:27Z</time>
      </trkpt>
      <trkpt lat="43.74264" lon="6.67255">
        <ele>1434.7</ele>
        <time>2024-05-26T11:09:28Z</time>
      </trkpt>
      <trkpt lat="43.74264" lon="6.67255">
        <ele>1434.8</ele>
        <time>2024-05-26T11:09:29Z</time>
      </trkpt>
      <trkpt lat="43.74264" lon="6.67256">
        <ele>1434.8</ele>
        <time>2024-05-26T11:09:30Z</time>
      </trkpt>
      <trkpt lat="43.74264" lon="6.67256">
        <ele>1434.8</ele>
        <time>2024-05-26T11:09:31Z</time>
      </trkpt>
      <trkpt lat="43.74265" lon="6.67255">
        <ele>1434.8</ele>
        <time>2024-05-26T11:09:32Z</time>
      </trkpt>
      <trkpt lat="43.74265" lon="6.67256">
        <ele>1434.8</ele>
        <time>2024-05-26T11:09:33Z</time>
      </trkpt>
      <trkpt lat="43.74265" lon="6.67256">
        <ele>1434.8</ele>
        <time>2024-05-26T11:09:34Z</time>
      </trkpt>
      <trkpt lat="43.74265" lon="6.67256">
        <ele>1434.9</ele>
        <time>2024-05-26T11:09:35Z</time>
      </trkpt>
      <trkpt lat="43.74265" lon="6.67256">
        <ele>1434.9</ele>
        <time>2024-05-26T11:09:36Z</time>
      </trkpt>
      <trkpt lat="43.74265" lon="6.67256">
        <ele>1434.9</ele>
        <time>2024-05-26T11:09:37Z</time>
      </trkpt>
      <trkpt lat="43.74266" lon="6.67256">
        <ele>1434.9</ele>
        <time>2024-05-26T11:09:38Z</time>
      </trkpt>
      <trkpt lat="43.74266" lon="6.67255">
        <ele>1434.9</ele>
        <time>2024-05-26T11:09:39Z</time>
      </trkpt>
      <trkpt lat="43.74266" lon="6.67256">
        <ele>1434.9</ele>
        <time>2024-05-26T11:09:40Z</time>
      </trkpt>
      <trkpt lat="43.74266" lon="6.67255">
        <ele>1434.8</ele>
        <time>2024-05-26T11:09:41Z</time>
      </trkpt>
      <trkpt lat="43.74267" lon="6.67256">
        <ele>1434.8</ele>
        <time>2024-05-26T11:09:42Z</time>
      </trkpt>
      <trkpt lat="43.74267" lon="6.67256">
        <ele>1434.8</ele>
        <time>2024-05-26T11:09:43Z</time>
      </trkpt>
      <trkpt lat="43.74267" lon="6.67255">
        <ele>1434.8</ele>
        <time>2024-05-26T11:09:44Z</time>
      </trkpt>
      <trkpt lat="43.74267" lon="6.67256">
        <ele>1434.8</ele>
        <time>2024-05-26T11:09:45Z</time>
      </trkpt>
      <trkpt lat="43.74268" lon="6.67256">
        <ele>1434.8</ele>
        <time>2024-05-26T11:09:46Z</time>
      </trkpt>
      <trkpt lat="43.74268" lon="6.67256">
        <ele>1434.9</ele>
        <time>2024-05-26T11:09:47Z</time>
      </trkpt>
      <trkpt lat="43.74268" lon="6.67255">
        <ele>1435</ele>
        <time>2024-05-26T11:09:48Z</time>
      </trkpt>
      <trkpt lat="43.74268" lon="6.67255">
        <ele>1435.1</ele>
        <time>2024-05-26T11:09:49Z</time>
      </trkpt>
      <trkpt lat="43.74269" lon="6.67255">
        <ele>1435.1</ele>
        <time>2024-05-26T11:09:50Z</time>
      </trkpt>
      <trkpt lat="43.74269" lon="6.67255">
        <ele>1435</ele>
        <time>2024-05-26T11:09:51Z</time>
      </trkpt>
      <trkpt lat="43.74269" lon="6.67255">
        <ele>1435</ele>
        <time>2024-05-26T11:09:52Z</time>
      </trkpt>
      <trkpt lat="43.74269" lon="6.67255">
        <ele>1434.9</ele>
        <time>2024-05-26T11:09:53Z</time>
      </trkpt>
      <trkpt lat="43.74269" lon="6.67255">
        <ele>1434.9</ele>
        <time>2024-05-26T11:09:54Z</time>
      </trkpt>
      <trkpt lat="43.74269" lon="6.67255">
        <ele>1435</ele>
        <time>2024-05-26T11:09:55Z</time>
      </trkpt>
      <trkpt lat="43.7427" lon="6.67255">
        <ele>1435</ele>
        <time>2024-05-26T11:09:56Z</time>
      </trkpt>
      <trkpt lat="43.7427" lon="6.67255">
        <ele>1435</ele>
        <time>2024-05-26T11:09:57Z</time>
      </trkpt>
      <trkpt lat="43.7427" lon="6.67255">
        <ele>1435</ele>
        <time>2024-05-26T11:09:58Z</time>
      </trkpt>
      <trkpt lat="43.7427" lon="6.67255">
        <ele>1434.9</ele>
        <time>2024-05-26T11:09:59Z</time>
      </trkpt>
      <trkpt lat="43.74271" lon="6.67256">
        <ele>1435</ele>
        <time>2024-05-26T11:10:00Z</time>
      </trkpt>
      <trkpt lat="43.74271" lon="6.67256">
        <ele>1435</ele>
        <time>2024-05-26T11:10:01Z</time>
      </trkpt>
      <trkpt lat="43.74271" lon="6.67256">
        <ele>1435</ele>
        <time>2024-05-26T11:10:02Z</time>
      </trkpt>
      <trkpt lat="43.74271" lon="6.67256">
        <ele>1434.9</ele>
        <time>2024-05-26T11:10:03Z</time>
      </trkpt>
      <trkpt lat="43.74271" lon="6.67255">
        <ele>1434.9</ele>
        <time>2024-05-26T11:10:04Z</time>
      </trkpt>
      <trkpt lat="43.74271" lon="6.67255">
        <ele>1434.9</ele>
        <time>2024-05-26T11:10:05Z</time>
      </trkpt>
      <trkpt lat="43.74271" lon="6.67255">
        <ele>1434.9</ele>
        <time>2024-05-26T11:10:06Z</time>
      </trkpt>
      <trkpt lat="43.74271" lon="6.67255">
        <ele>1434.9</ele>
        <time>2024-05-26T11:10:07Z</time>
      </trkpt>
      <trkpt lat="43.74271" lon="6.67255">
        <ele>1434.8</ele>
        <time>2024-05-26T11:10:08Z</time>
      </trkpt>
      <trkpt lat="43.74271" lon="6.67254">
        <ele>1434.8</ele>
        <time>2024-05-26T11:10:09Z</time>
      </trkpt>
      <trkpt lat="43.74272" lon="6.67253">
        <ele>1434.8</ele>
        <time>2024-05-26T11:10:10Z</time>
      </trkpt>
      <trkpt lat="43.74271" lon="6.67253">
        <ele>1434.8</ele>
        <time>2024-05-26T11:10:11Z</time>
      </trkpt>
      <trkpt lat="43.74271" lon="6.67253">
        <ele>1434.7</ele>
        <time>2024-05-26T11:10:12Z</time>
      </trkpt>
      <trkpt lat="43.74271" lon="6.67253">
        <ele>1434.8</ele>
        <time>2024-05-26T11:10:13Z</time>
      </trkpt>
      <trkpt lat="43.74271" lon="6.67252">
        <ele>1434.9</ele>
        <time>2024-05-26T11:10:14Z</time>
      </trkpt>
      <trkpt lat="43.74272" lon="6.67251">
        <ele>1434.9</ele>
        <time>2024-05-26T11:10:15Z</time>
      </trkpt>
      <trkpt lat="43.74271" lon="6.67251">
        <ele>1434.8</ele>
        <time>2024-05-26T11:10:16Z</time>
      </trkpt>
      <trkpt lat="43.74271" lon="6.67251">
        <ele>1434.8</ele>
        <time>2024-05-26T11:10:17Z</time>
      </trkpt>
      <trkpt lat="43.74271" lon="6.67251">
        <ele>1434.8</ele>
        <time>2024-05-26T11:10:18Z</time>
      </trkpt>
      <trkpt lat="43.74271" lon="6.67251">
        <ele>1434.7</ele>
        <time>2024-05-26T11:10:19Z</time>
      </trkpt>
      <trkpt lat="43.74271" lon="6.67251">
        <ele>1434.7</ele>
        <time>2024-05-26T11:10:20Z</time>
      </trkpt>
      <trkpt lat="43.74271" lon="6.67251">
        <ele>1434.6</ele>
        <time>2024-05-26T11:10:21Z</time>
      </trkpt>
      <trkpt lat="43.74271" lon="6.67251">
        <ele>1434.5</ele>
        <time>2024-05-26T11:10:22Z</time>
      </trkpt>
      <trkpt lat="43.7427" lon="6.67251">
        <ele>1434.5</ele>
        <time>2024-05-26T11:10:23Z</time>
      </trkpt>
      <trkpt lat="43.74271" lon="6.6725">
        <ele>1434.5</ele>
        <time>2024-05-26T11:10:24Z</time>
      </trkpt>
      <trkpt lat="43.7427" lon="6.6725">
        <ele>1434.5</ele>
        <time>2024-05-26T11:10:25Z</time>
      </trkpt>
      <trkpt lat="43.7427" lon="6.6725">
        <ele>1434.5</ele>
        <time>2024-05-26T11:10:26Z</time>
      </trkpt>
      <trkpt lat="43.7427" lon="6.6725">
        <ele>1434.5</ele>
        <time>2024-05-26T11:10:27Z</time>
      </trkpt>
      <trkpt lat="43.7427" lon="6.6725">
        <ele>1434.5</ele>
        <time>2024-05-26T11:10:28Z</time>
      </trkpt>
      <trkpt lat="43.7427" lon="6.6725">
        <ele>1434.4</ele>
        <time>2024-05-26T11:10:29Z</time>
      </trkpt>
      <trkpt lat="43.74269" lon="6.6725">
        <ele>1434.4</ele>
        <time>2024-05-26T11:10:30Z</time>
      </trkpt>
      <trkpt lat="43.74269" lon="6.6725">
        <ele>1434.3</ele>
        <time>2024-05-26T11:10:31Z</time>
      </trkpt>
      <trkpt lat="43.74269" lon="6.67251">
        <ele>1434.3</ele>
        <time>2024-05-26T11:10:32Z</time>
      </trkpt>
      <trkpt lat="43.74269" lon="6.67251">
        <ele>1434.3</ele>
        <time>2024-05-26T11:10:33Z</time>
      </trkpt>
      <trkpt lat="43.74269" lon="6.67251">
        <ele>1434.2</ele>
        <time>2024-05-26T11:10:34Z</time>
      </trkpt>
      <trkpt lat="43.74269" lon="6.67251">
        <ele>1434.1</ele>
        <time>2024-05-26T11:10:35Z</time>
      </trkpt>
      <trkpt lat="43.74269" lon="6.67251">
        <ele>1434</ele>
        <time>2024-05-26T11:10:36Z</time>
      </trkpt>
      <trkpt lat="43.74268" lon="6.67252">
        <ele>1433.9</ele>
        <time>2024-05-26T11:10:37Z</time>
      </trkpt>
      <trkpt lat="43.74268" lon="6.67251">
        <ele>1433.9</ele>
        <time>2024-05-26T11:10:38Z</time>
      </trkpt>
      <trkpt lat="43.74267" lon="6.67251">
        <ele>1433.9</ele>
        <time>2024-05-26T11:10:39Z</time>
      </trkpt>
      <trkpt lat="43.74267" lon="6.67251">
        <ele>1433.9</ele>
        <time>2024-05-26T11:10:40Z</time>
      </trkpt>
      <trkpt lat="43.74267" lon="6.6725">
        <ele>1434</ele>
        <time>2024-05-26T11:10:41Z</time>
      </trkpt>
      <trkpt lat="43.74267" lon="6.67251">
        <ele>1434.1</ele>
        <time>2024-05-26T11:10:42Z</time>
      </trkpt>
      <trkpt lat="43.74266" lon="6.6725">
        <ele>1434.1</ele>
        <time>2024-05-26T11:10:43Z</time>
      </trkpt>
      <trkpt lat="43.74267" lon="6.6725">
        <ele>1434</ele>
        <time>2024-05-26T11:10:44Z</time>
      </trkpt>
      <trkpt lat="43.74266" lon="6.6725">
        <ele>1433.9</ele>
        <time>2024-05-26T11:10:45Z</time>
      </trkpt>
      <trkpt lat="43.74266" lon="6.6725">
        <ele>1433.8</ele>
        <time>2024-05-26T11:10:46Z</time>
      </trkpt>
      <trkpt lat="43.74266" lon="6.6725">
        <ele>1433.8</ele>
        <time>2024-05-26T11:10:47Z</time>
      </trkpt>
      <trkpt lat="43.74265" lon="6.6725">
        <ele>1433.8</ele>
        <time>2024-05-26T11:10:48Z</time>
      </trkpt>
      <trkpt lat="43.74265" lon="6.6725">
        <ele>1433.8</ele>
        <time>2024-05-26T11:10:49Z</time>
      </trkpt>
      <trkpt lat="43.74265" lon="6.6725">
        <ele>1433.8</ele>
        <time>2024-05-26T11:10:50Z</time>
      </trkpt>
      <trkpt lat="43.74265" lon="6.67251">
        <ele>1433.8</ele>
        <time>2024-05-26T11:10:51Z</time>
      </trkpt>
      <trkpt lat="43.74264" lon="6.67251">
        <ele>1433.8</ele>
        <time>2024-05-26T11:10:52Z</time>
      </trkpt>
      <trkpt lat="43.74264" lon="6.67251">
        <ele>1433.9</ele>
        <time>2024-05-26T11:10:53Z</time>
      </trkpt>
      <trkpt lat="43.74264" lon="6.67251">
        <ele>1433.9</ele>
        <time>2024-05-26T11:10:54Z</time>
      </trkpt>
      <trkpt lat="43.74264" lon="6.67251">
        <ele>1434</ele>
        <time>2024-05-26T11:10:55Z</time>
      </trkpt>
      <trkpt lat="43.74264" lon="6.6725">
        <ele>1434</ele>
        <time>2024-05-26T11:10:56Z</time>
      </trkpt>
      <trkpt lat="43.74264" lon="6.6725">
        <ele>1434</ele>
        <time>2024-05-26T11:10:57Z</time>
      </trkpt>
      <trkpt lat="43.74264" lon="6.6725">
        <ele>1433.9</ele>
        <time>2024-05-26T11:10:58Z</time>
      </trkpt>
      <trkpt lat="43.74265" lon="6.6725">
        <ele>1433.9</ele>
        <time>2024-05-26T11:10:59Z</time>
      </trkpt>
      <trkpt lat="43.74265" lon="6.6725">
        <ele>1433.8</ele>
        <time>2024-05-26T11:11:00Z</time>
      </trkpt>
      <trkpt lat="43.74265" lon="6.6725">
        <ele>1434</ele>
        <time>2024-05-26T11:11:01Z</time>
      </trkpt>
      <trkpt lat="43.74265" lon="6.6725">
        <ele>1434.1</ele>
        <time>2024-05-26T11:11:02Z</time>
      </trkpt>
      <trkpt lat="43.74266" lon="6.67249">
        <ele>1434.1</ele>
        <time>2024-05-26T11:11:03Z</time>
      </trkpt>
      <trkpt lat="43.74266" lon="6.67249">
        <ele>1434.1</ele>
        <time>2024-05-26T11:11:04Z</time>
      </trkpt>
      <trkpt lat="43.74266" lon="6.67249">
        <ele>1434.1</ele>
        <time>2024-05-26T11:11:05Z</time>
      </trkpt>
      <trkpt lat="43.74266" lon="6.67249">
        <ele>1434.1</ele>
        <time>2024-05-26T11:11:06Z</time>
      </trkpt>
      <trkpt lat="43.74266" lon="6.67249">
        <ele>1434.2</ele>
        <time>2024-05-26T11:11:07Z</time>
      </trkpt>
      <trkpt lat="43.74266" lon="6.67249">
        <ele>1434.1</ele>
        <time>2024-05-26T11:11:08Z</time>
      </trkpt>
      <trkpt lat="43.74266" lon="6.67248">
        <ele>1434</ele>
        <time>2024-05-26T11:11:09Z</time>
      </trkpt>
      <trkpt lat="43.74266" lon="6.67248">
        <ele>1434</ele>
        <time>2024-05-26T11:11:10Z</time>
      </trkpt>
      <trkpt lat="43.74266" lon="6.67248">
        <ele>1433.9</ele>
        <time>2024-05-26T11:11:11Z</time>
      </trkpt>
      <trkpt lat="43.74266" lon="6.67248">
        <ele>1433.9</ele>
        <time>2024-05-26T11:11:12Z</time>
      </trkpt>
      <trkpt lat="43.74265" lon="6.67247">
        <ele>1433.8</ele>
        <time>2024-05-26T11:11:13Z</time>
      </trkpt>
      <trkpt lat="43.74265" lon="6.67247">
        <ele>1433.9</ele>
        <time>2024-05-26T11:11:14Z</time>
      </trkpt>
      <trkpt lat="43.74265" lon="6.67247">
        <ele>1433.9</ele>
        <time>2024-05-26T11:11:15Z</time>
      </trkpt>
      <trkpt lat="43.74265" lon="6.67246">
        <ele>1433.9</ele>
        <time>2024-05-26T11:11:16Z</time>
      </trkpt>
      <trkpt lat="43.74265" lon="6.67246">
        <ele>1433.9</ele>
        <time>2024-05-26T11:11:17Z</time>
      </trkpt>
      <trkpt lat="43.74265" lon="6.67246">
        <ele>1434</ele>
        <time>2024-05-26T11:11:18Z</time>
      </trkpt>
      <trkpt lat="43.74265" lon="6.67246">
        <ele>1434</ele>
        <time>2024-05-26T11:11:19Z</time>
      </trkpt>
      <trkpt lat="43.74265" lon="6.67246">
        <ele>1434</ele>
        <time>2024-05-26T11:11:20Z</time>
      </trkpt>
      <trkpt lat="43.74265" lon="6.67246">
        <ele>1434</ele>
        <time>2024-05-26T11:11:21Z</time>
      </trkpt>
      <trkpt lat="43.74265" lon="6.67246">
        <ele>1434</ele>
        <time>2024-05-26T11:11:22Z</time>
      </trkpt>
      <trkpt lat="43.74265" lon="6.67245">
        <ele>1434</ele>
        <time>2024-05-26T11:11:23Z</time>
      </trkpt>
      <trkpt lat="43.74265" lon="6.67245">
        <ele>1434.1</ele>
        <time>2024-05-26T11:11:24Z</time>
      </trkpt>
      <trkpt lat="43.74265" lon="6.67245">
        <ele>1434.2</ele>
        <time>2024-05-26T11:11:25Z</time>
      </trkpt>
      <trkpt lat="43.74265" lon="6.67244">
        <ele>1434.3</ele>
        <time>2024-05-26T11:11:26Z</time>
      </trkpt>
      <trkpt lat="43.74265" lon="6.67244">
        <ele>1434.3</ele>
        <time>2024-05-26T11:11:27Z</time>
      </trkpt>
      <trkpt lat="43.74265" lon="6.67244">
        <ele>1434.3</ele>
        <time>2024-05-26T11:11:28Z</time>
      </trkpt>
      <trkpt lat="43.74265" lon="6.67244">
        <ele>1434.3</ele>
        <time>2024-05-26T11:11:29Z</time>
      </trkpt>
      <trkpt lat="43.74265" lon="6.67244">
        <ele>1434.4</ele>
        <time>2024-05-26T11:11:30Z</time>
      </trkpt>
      <trkpt lat="43.74266" lon="6.67243">
        <ele>1434.5</ele>
        <time>2024-05-26T11:11:31Z</time>
      </trkpt>
      <trkpt lat="43.74266" lon="6.67243">
        <ele>1434.5</ele>
        <time>2024-05-26T11:11:32Z</time>
      </trkpt>
      <trkpt lat="43.74266" lon="6.67243">
        <ele>1434.5</ele>
        <time>2024-05-26T11:11:33Z</time>
      </trkpt>
      <trkpt lat="43.74266" lon="6.67243">
        <ele>1434.5</ele>
        <time>2024-05-26T11:11:34Z</time>
      </trkpt>
      <trkpt lat="43.74266" lon="6.67243">
        <ele>1434.5</ele>
        <time>2024-05-26T11:11:35Z</time>
      </trkpt>
      <trkpt lat="43.74266" lon="6.67243">
        <ele>1434.5</ele>
        <time>2024-05-26T11:11:36Z</time>
      </trkpt>
      <trkpt lat="43.74266" lon="6.67243">
        <ele>1434.5</ele>
        <time>2024-05-26T11:11:37Z</time>
      </trkpt>
      <trkpt lat="43.74266" lon="6.67243">
        <ele>1434.5</ele>
        <time>2024-05-26T11:11:38Z</time>
      </trkpt>
      <trkpt lat="43.74266" lon="6.67243">
        <ele>1434.4</ele>
        <time>2024-05-26T11:11:39Z</time>
      </trkpt>
      <trkpt lat="43.74266" lon="6.67243">
        <ele>1434.4</ele>
        <time>2024-05-26T11:11:40Z</time>
      </trkpt>
      <trkpt lat="43.74266" lon="6.67243">
        <ele>1434.4</ele>
        <time>2024-05-26T11:11:41Z</time>
      </trkpt>
      <trkpt lat="43.74266" lon="6.67243">
        <ele>1434.4</ele>
        <time>2024-05-26T11:11:42Z</time>
      </trkpt>
      <trkpt lat="43.74266" lon="6.67243">
        <ele>1434.4</ele>
        <time>2024-05-26T11:11:43Z</time>
      </trkpt>
      <trkpt lat="43.74266" lon="6.67244">
        <ele>1434.4</ele>
        <time>2024-05-26T11:11:44Z</time>
      </trkpt>
      <trkpt lat="43.74266" lon="6.67244">
        <ele>1434.4</ele>
        <time>2024-05-26T11:11:45Z</time>
      </trkpt>
      <trkpt lat="43.74266" lon="6.67244">
        <ele>1434.3</ele>
        <time>2024-05-26T11:11:46Z</time>
      </trkpt>
      <trkpt lat="43.74266" lon="6.67244">
        <ele>1434.4</ele>
        <time>2024-05-26T11:11:47Z</time>
      </trkpt>
      <trkpt lat="43.74266" lon="6.67243">
        <ele>1434.4</ele>
        <time>2024-05-26T11:11:48Z</time>
      </trkpt>
      <trkpt lat="43.74267" lon="6.67242">
        <ele>1434.4</ele>
        <time>2024-05-26T11:11:49Z</time>
      </trkpt>
      <trkpt lat="43.74267" lon="6.67241">
        <ele>1434.5</ele>
        <time>2024-05-26T11:11:50Z</time>
      </trkpt>
      <trkpt lat="43.74268" lon="6.6724">
        <ele>1434.5</ele>
        <time>2024-05-26T11:11:51Z</time>
      </trkpt>
      <trkpt lat="43.74268" lon="6.6724">
        <ele>1434.6</ele>
        <time>2024-05-26T11:11:52Z</time>
      </trkpt>
      <trkpt lat="43.74269" lon="6.6724">
        <ele>1434.6</ele>
        <time>2024-05-26T11:11:53Z</time>
      </trkpt>
      <trkpt lat="43.74269" lon="6.67241">
        <ele>1434.6</ele>
        <time>2024-05-26T11:11:54Z</time>
      </trkpt>
      <trkpt lat="43.74269" lon="6.67241">
        <ele>1434.6</ele>
        <time>2024-05-26T11:11:55Z</time>
      </trkpt>
      <trkpt lat="43.74269" lon="6.67241">
        <ele>1434.6</ele>
        <time>2024-05-26T11:11:56Z</time>
      </trkpt>
      <trkpt lat="43.74269" lon="6.67241">
        <ele>1434.6</ele>
        <time>2024-05-26T11:11:57Z</time>
      </trkpt>
      <trkpt lat="43.74269" lon="6.67241">
        <ele>1434.6</ele>
        <time>2024-05-26T11:11:58Z</time>
      </trkpt>
      <trkpt lat="43.74269" lon="6.67241">
        <ele>1434.6</ele>
        <time>2024-05-26T11:11:59Z</time>
      </trkpt>
      <trkpt lat="43.74269" lon="6.67241">
        <ele>1434.5</ele>
        <time>2024-05-26T11:12:00Z</time>
      </trkpt>
      <trkpt lat="43.74269" lon="6.67241">
        <ele>1434.4</ele>
        <time>2024-05-26T11:12:01Z</time>
      </trkpt>
      <trkpt lat="43.74269" lon="6.67241">
        <ele>1434.4</ele>
        <time>2024-05-26T11:12:02Z</time>
      </trkpt>
      <trkpt lat="43.74269" lon="6.67241">
        <ele>1434.4</ele>
        <time>2024-05-26T11:12:03Z</time>
      </trkpt>
      <trkpt lat="43.74269" lon="6.67241">
        <ele>1434.4</ele>
        <time>2024-05-26T11:12:04Z</time>
      </trkpt>
      <trkpt lat="43.74269" lon="6.67241">
        <ele>1434.4</ele>
        <time>2024-05-26T11:12:05Z</time>
      </trkpt>
      <trkpt lat="43.74269" lon="6.67241">
        <ele>1434.3</ele>
        <time>2024-05-26T11:12:06Z</time>
      </trkpt>
      <trkpt lat="43.74269" lon="6.67241">
        <ele>1434.1</ele>
        <time>2024-05-26T11:12:07Z</time>
      </trkpt>
      <trkpt lat="43.74269" lon="6.67241">
        <ele>1434</ele>
        <time>2024-05-26T11:12:08Z</time>
      </trkpt>
      <trkpt lat="43.74268" lon="6.67241">
        <ele>1434</ele>
        <time>2024-05-26T11:12:09Z</time>
      </trkpt>
      <trkpt lat="43.74268" lon="6.6724">
        <ele>1433.9</ele>
        <time>2024-05-26T11:12:10Z</time>
      </trkpt>
      <trkpt lat="43.74268" lon="6.6724">
        <ele>1433.9</ele>
        <time>2024-05-26T11:12:11Z</time>
      </trkpt>
      <trkpt lat="43.74268" lon="6.6724">
        <ele>1433.8</ele>
        <time>2024-05-26T11:12:12Z</time>
      </trkpt>
      <trkpt lat="43.74268" lon="6.67239">
        <ele>1433.7</ele>
        <time>2024-05-26T11:12:13Z</time>
      </trkpt>
      <trkpt lat="43.74268" lon="6.67239">
        <ele>1433.7</ele>
        <time>2024-05-26T11:12:14Z</time>
      </trkpt>
      <trkpt lat="43.74268" lon="6.67239">
        <ele>1433.5</ele>
        <time>2024-05-26T11:12:15Z</time>
      </trkpt>
      <trkpt lat="43.74268" lon="6.67238">
        <ele>1433.4</ele>
        <time>2024-05-26T11:12:16Z</time>
      </trkpt>
      <trkpt lat="43.74267" lon="6.67238">
        <ele>1433.3</ele>
        <time>2024-05-26T11:12:17Z</time>
      </trkpt>
      <trkpt lat="43.74267" lon="6.67238">
        <ele>1433.2</ele>
        <time>2024-05-26T11:12:18Z</time>
      </trkpt>
      <trkpt lat="43.74267" lon="6.67238">
        <ele>1433.1</ele>
        <time>2024-05-26T11:12:19Z</time>
      </trkpt>
      <trkpt lat="43.74266" lon="6.67237">
        <ele>1433.1</ele>
        <time>2024-05-26T11:12:20Z</time>
      </trkpt>
      <trkpt lat="43.74266" lon="6.67237">
        <ele>1433.1</ele>
        <time>2024-05-26T11:12:21Z</time>
      </trkpt>
      <trkpt lat="43.74266" lon="6.67237">
        <ele>1433.1</ele>
        <time>2024-05-26T11:12:22Z</time>
      </trkpt>
      <trkpt lat="43.74266" lon="6.67236">
        <ele>1433.1</ele>
        <time>2024-05-26T11:12:23Z</time>
      </trkpt>
      <trkpt lat="43.74266" lon="6.67236">
        <ele>1433.1</ele>
        <time>2024-05-26T11:12:24Z</time>
      </trkpt>
      <trkpt lat="43.74266" lon="6.67236">
        <ele>1433.1</ele>
        <time>2024-05-26T11:12:25Z</time>
      </trkpt>
      <trkpt lat="43.74267" lon="6.67236">
        <ele>1433.2</ele>
        <time>2024-05-26T11:12:26Z</time>
      </trkpt>
      <trkpt lat="43.74267" lon="6.67236">
        <ele>1433.2</ele>
        <time>2024-05-26T11:12:27Z</time>
      </trkpt>
      <trkpt lat="43.74267" lon="6.67237">
        <ele>1433.2</ele>
        <time>2024-05-26T11:12:28Z</time>
      </trkpt>
      <trkpt lat="43.74267" lon="6.67237">
        <ele>1433.2</ele>
        <time>2024-05-26T11:12:29Z</time>
      </trkpt>
      <trkpt lat="43.74268" lon="6.67236">
        <ele>1433.2</ele>
        <time>2024-05-26T11:12:30Z</time>
      </trkpt>
      <trkpt lat="43.74269" lon="6.67236">
        <ele>1433.1</ele>
        <time>2024-05-26T11:12:31Z</time>
      </trkpt>
      <trkpt lat="43.74269" lon="6.67236">
        <ele>1433.2</ele>
        <time>2024-05-26T11:12:32Z</time>
      </trkpt>
      <trkpt lat="43.74269" lon="6.67235">
        <ele>1433.2</ele>
        <time>2024-05-26T11:12:33Z</time>
      </trkpt>
      <trkpt lat="43.74269" lon="6.67235">
        <ele>1433.2</ele>
        <time>2024-05-26T11:12:34Z</time>
      </trkpt>
      <trkpt lat="43.7427" lon="6.67235">
        <ele>1433.2</ele>
        <time>2024-05-26T11:12:35Z</time>
      </trkpt>
      <trkpt lat="43.7427" lon="6.67234">
        <ele>1433.2</ele>
        <time>2024-05-26T11:12:36Z</time>
      </trkpt>
      <trkpt lat="43.7427" lon="6.67234">
        <ele>1433.2</ele>
        <time>2024-05-26T11:12:37Z</time>
      </trkpt>
      <trkpt lat="43.7427" lon="6.67234">
        <ele>1433.2</ele>
        <time>2024-05-26T11:12:38Z</time>
      </trkpt>
      <trkpt lat="43.7427" lon="6.67235">
        <ele>1433.2</ele>
        <time>2024-05-26T11:12:39Z</time>
      </trkpt>
      <trkpt lat="43.7427" lon="6.67235">
        <ele>1433.2</ele>
        <time>2024-05-26T11:12:40Z</time>
      </trkpt>
      <trkpt lat="43.7427" lon="6.67235">
        <ele>1433.2</ele>
        <time>2024-05-26T11:12:41Z</time>
      </trkpt>
      <trkpt lat="43.74271" lon="6.67235">
        <ele>1433.2</ele>
        <time>2024-05-26T11:12:42Z</time>
      </trkpt>
      <trkpt lat="43.74271" lon="6.67235">
        <ele>1433.2</ele>
        <time>2024-05-26T11:12:43Z</time>
      </trkpt>
      <trkpt lat="43.74271" lon="6.67235">
        <ele>1433.1</ele>
        <time>2024-05-26T11:12:44Z</time>
      </trkpt>
      <trkpt lat="43.74271" lon="6.67235">
        <ele>1433.1</ele>
        <time>2024-05-26T11:12:45Z</time>
      </trkpt>
      <trkpt lat="43.74271" lon="6.67235">
        <ele>1433.2</ele>
        <time>2024-05-26T11:12:46Z</time>
      </trkpt>
      <trkpt lat="43.74271" lon="6.67235">
        <ele>1433.3</ele>
        <time>2024-05-26T11:12:47Z</time>
      </trkpt>
      <trkpt lat="43.74271" lon="6.67235">
        <ele>1433.4</ele>
        <time>2024-05-26T11:12:48Z</time>
      </trkpt>
      <trkpt lat="43.74271" lon="6.67234">
        <ele>1433.5</ele>
        <time>2024-05-26T11:12:49Z</time>
      </trkpt>
      <trkpt lat="43.74271" lon="6.67234">
        <ele>1433.4</ele>
        <time>2024-05-26T11:12:50Z</time>
      </trkpt>
      <trkpt lat="43.74271" lon="6.67234">
        <ele>1433.4</ele>
        <time>2024-05-26T11:12:51Z</time>
      </trkpt>
      <trkpt lat="43.74271" lon="6.67234">
        <ele>1433.4</ele>
        <time>2024-05-26T11:12:52Z</time>
      </trkpt>
      <trkpt lat="43.74272" lon="6.67234">
        <ele>1433.3</ele>
        <time>2024-05-26T11:12:53Z</time>
      </trkpt>
      <trkpt lat="43.74272" lon="6.67234">
        <ele>1433.3</ele>
        <time>2024-05-26T11:12:54Z</time>
      </trkpt>
      <trkpt lat="43.74272" lon="6.67234">
        <ele>1433.2</ele>
        <time>2024-05-26T11:12:55Z</time>
      </trkpt>
      <trkpt lat="43.74272" lon="6.67234">
        <ele>1433.1</ele>
        <time>2024-05-26T11:12:56Z</time>
      </trkpt>
      <trkpt lat="43.74272" lon="6.67234">
        <ele>1433.1</ele>
        <time>2024-05-26T11:12:57Z</time>
      </trkpt>
      <trkpt lat="43.74272" lon="6.67235">
        <ele>1433.1</ele>
        <time>2024-05-26T11:12:58Z</time>
      </trkpt>
      <trkpt lat="43.74271" lon="6.67235">
        <ele>1433.1</ele>
        <time>2024-05-26T11:12:59Z</time>
      </trkpt>
      <trkpt lat="43.74271" lon="6.67236">
        <ele>1433.1</ele>
        <time>2024-05-26T11:13:00Z</time>
      </trkpt>
      <trkpt lat="43.74271" lon="6.67236">
        <ele>1433.1</ele>
        <time>2024-05-26T11:13:01Z</time>
      </trkpt>
      <trkpt lat="43.74271" lon="6.67236">
        <ele>1433.1</ele>
        <time>2024-05-26T11:13:02Z</time>
      </trkpt>
      <trkpt lat="43.7427" lon="6.67237">
        <ele>1433.2</ele>
        <time>2024-05-26T11:13:03Z</time>
      </trkpt>
      <trkpt lat="43.7427" lon="6.67237">
        <ele>1433.1</ele>
        <time>2024-05-26T11:13:04Z</time>
      </trkpt>
      <trkpt lat="43.7427" lon="6.67237">
        <ele>1433</ele>
        <time>2024-05-26T11:13:05Z</time>
      </trkpt>
      <trkpt lat="43.7427" lon="6.67237">
        <ele>1433</ele>
        <time>2024-05-26T11:13:06Z</time>
      </trkpt>
      <trkpt lat="43.74269" lon="6.67237">
        <ele>1432.9</ele>
        <time>2024-05-26T11:13:07Z</time>
      </trkpt>
      <trkpt lat="43.7427" lon="6.67237">
        <ele>1432.9</ele>
        <time>2024-05-26T11:13:08Z</time>
      </trkpt>
      <trkpt lat="43.7427" lon="6.67238">
        <ele>1432.8</ele>
        <time>2024-05-26T11:13:09Z</time>
      </trkpt>
      <trkpt lat="43.7427" lon="6.67238">
        <ele>1432.8</ele>
        <time>2024-05-26T11:13:10Z</time>
      </trkpt>
      <trkpt lat="43.7427" lon="6.67238">
        <ele>1432.8</ele>
        <time>2024-05-26T11:13:11Z</time>
      </trkpt>
      <trkpt lat="43.7427" lon="6.67238">
        <ele>1432.8</ele>
        <time>2024-05-26T11:13:12Z</time>
      </trkpt>
      <trkpt lat="43.7427" lon="6.67238">
        <ele>1432.8</ele>
        <time>2024-05-26T11:13:13Z</time>
      </trkpt>
      <trkpt lat="43.7427" lon="6.67238">
        <ele>1432.8</ele>
        <time>2024-05-26T11:13:14Z</time>
      </trkpt>
      <trkpt lat="43.7427" lon="6.67239">
        <ele>1432.8</ele>
        <time>2024-05-26T11:13:15Z</time>
      </trkpt>
      <trkpt lat="43.7427" lon="6.67239">
        <ele>1432.8</ele>
        <time>2024-05-26T11:13:16Z</time>
      </trkpt>
      <trkpt lat="43.7427" lon="6.67238">
        <ele>1432.9</ele>
        <time>2024-05-26T11:13:17Z</time>
      </trkpt>
      <trkpt lat="43.7427" lon="6.67238">
        <ele>1432.9</ele>
        <time>2024-05-26T11:13:18Z</time>
      </trkpt>
      <trkpt lat="43.74269" lon="6.67239">
        <ele>1433</ele>
        <time>2024-05-26T11:13:19Z</time>
      </trkpt>
      <trkpt lat="43.7427" lon="6.67239">
        <ele>1433</ele>
        <time>2024-05-26T11:13:20Z</time>
      </trkpt>
      <trkpt lat="43.7427" lon="6.67239">
        <ele>1433</ele>
        <time>2024-05-26T11:13:21Z</time>
      </trkpt>
      <trkpt lat="43.74269" lon="6.67238">
        <ele>1433</ele>
        <time>2024-05-26T11:13:22Z</time>
      </trkpt>
      <trkpt lat="43.74268" lon="6.67238">
        <ele>1432.9</ele>
        <time>2024-05-26T11:13:23Z</time>
      </trkpt>
      <trkpt lat="43.74268" lon="6.67238">
        <ele>1433</ele>
        <time>2024-05-26T11:13:24Z</time>
      </trkpt>
      <trkpt lat="43.74267" lon="6.67238">
        <ele>1433</ele>
        <time>2024-05-26T11:13:25Z</time>
      </trkpt>
      <trkpt lat="43.74267" lon="6.67237">
        <ele>1433</ele>
        <time>2024-05-26T11:13:26Z</time>
      </trkpt>
      <trkpt lat="43.74266" lon="6.67237">
        <ele>1433</ele>
        <time>2024-05-26T11:13:27Z</time>
      </trkpt>
      <trkpt lat="43.74266" lon="6.67237">
        <ele>1433.1</ele>
        <time>2024-05-26T11:13:28Z</time>
      </trkpt>
      <trkpt lat="43.74266" lon="6.67237">
        <ele>1433.1</ele>
        <time>2024-05-26T11:13:29Z</time>
      </trkpt>
      <trkpt lat="43.74266" lon="6.67237">
        <ele>1433.1</ele>
        <time>2024-05-26T11:13:30Z</time>
      </trkpt>
      <trkpt lat="43.74266" lon="6.67237">
        <ele>1433.1</ele>
        <time>2024-05-26T11:13:31Z</time>
      </trkpt>
      <trkpt lat="43.74266" lon="6.67237">
        <ele>1433.1</ele>
        <time>2024-05-26T11:13:32Z</time>
      </trkpt>
      <trkpt lat="43.74266" lon="6.67237">
        <ele>1433.1</ele>
        <time>2024-05-26T11:13:33Z</time>
      </trkpt>
      <trkpt lat="43.74266" lon="6.67237">
        <ele>1433.1</ele>
        <time>2024-05-26T11:13:34Z</time>
      </trkpt>
      <trkpt lat="43.74266" lon="6.67236">
        <ele>1433.1</ele>
        <time>2024-05-26T11:13:35Z</time>
      </trkpt>
      <trkpt lat="43.74266" lon="6.67236">
        <ele>1433</ele>
        <time>2024-05-26T11:13:36Z</time>
      </trkpt>
      <trkpt lat="43.74266" lon="6.67235">
        <ele>1433</ele>
        <time>2024-05-26T11:13:37Z</time>
      </trkpt>
      <trkpt lat="43.74265" lon="6.67235">
        <ele>1433</ele>
        <time>2024-05-26T11:13:38Z</time>
      </trkpt>
      <trkpt lat="43.74266" lon="6.67234">
        <ele>1433</ele>
        <time>2024-05-26T11:13:39Z</time>
      </trkpt>
      <trkpt lat="43.74265" lon="6.67234">
        <ele>1432.9</ele>
        <time>2024-05-26T11:13:40Z</time>
      </trkpt>
      <trkpt lat="43.74265" lon="6.67233">
        <ele>1433</ele>
        <time>2024-05-26T11:13:41Z</time>
      </trkpt>
      <trkpt lat="43.74264" lon="6.67233">
        <ele>1433</ele>
        <time>2024-05-26T11:13:42Z</time>
      </trkpt>
      <trkpt lat="43.74264" lon="6.67233">
        <ele>1433</ele>
        <time>2024-05-26T11:13:43Z</time>
      </trkpt>
      <trkpt lat="43.74264" lon="6.67233">
        <ele>1433</ele>
        <time>2024-05-26T11:13:44Z</time>
      </trkpt>
      <trkpt lat="43.74263" lon="6.67232">
        <ele>1433</ele>
        <time>2024-05-26T11:13:45Z</time>
      </trkpt>
      <trkpt lat="43.74263" lon="6.67231">
        <ele>1433</ele>
        <time>2024-05-26T11:13:46Z</time>
      </trkpt>
      <trkpt lat="43.74262" lon="6.67231">
        <ele>1432.9</ele>
        <time>2024-05-26T11:13:47Z</time>
      </trkpt>
      <trkpt lat="43.74262" lon="6.6723">
        <ele>1432.8</ele>
        <time>2024-05-26T11:13:48Z</time>
      </trkpt>
      <trkpt lat="43.74261" lon="6.6723">
        <ele>1432.7</ele>
        <time>2024-05-26T11:13:49Z</time>
      </trkpt>
      <trkpt lat="43.74261" lon="6.6723">
        <ele>1432.6</ele>
        <time>2024-05-26T11:13:50Z</time>
      </trkpt>
      <trkpt lat="43.7426" lon="6.67229">
        <ele>1432.6</ele>
        <time>2024-05-26T11:13:51Z</time>
      </trkpt>
      <trkpt lat="43.7426" lon="6.67228">
        <ele>1432.5</ele>
        <time>2024-05-26T11:13:52Z</time>
      </trkpt>
      <trkpt lat="43.7426" lon="6.67228">
        <ele>1432.5</ele>
        <time>2024-05-26T11:13:53Z</time>
      </trkpt>
      <trkpt lat="43.7426" lon="6.67228">
        <ele>1432.3</ele>
        <time>2024-05-26T11:13:54Z</time>
      </trkpt>
      <trkpt lat="43.7426" lon="6.67229">
        <ele>1432.2</ele>
        <time>2024-05-26T11:13:55Z</time>
      </trkpt>
      <trkpt lat="43.7426" lon="6.67228">
        <ele>1432.2</ele>
        <time>2024-05-26T11:13:56Z</time>
      </trkpt>
      <trkpt lat="43.7426" lon="6.67228">
        <ele>1432.1</ele>
        <time>2024-05-26T11:13:57Z</time>
      </trkpt>
      <trkpt lat="43.7426" lon="6.67228">
        <ele>1432</ele>
        <time>2024-05-26T11:13:58Z</time>
      </trkpt>
      <trkpt lat="43.7426" lon="6.67229">
        <ele>1432</ele>
        <time>2024-05-26T11:13:59Z</time>
      </trkpt>
      <trkpt lat="43.74261" lon="6.67228">
        <ele>1431.9</ele>
        <time>2024-05-26T11:14:00Z</time>
      </trkpt>
      <trkpt lat="43.74261" lon="6.67228">
        <ele>1431.8</ele>
        <time>2024-05-26T11:14:01Z</time>
      </trkpt>
      <trkpt lat="43.74261" lon="6.67229">
        <ele>1431.7</ele>
        <time>2024-05-26T11:14:02Z</time>
      </trkpt>
      <trkpt lat="43.74261" lon="6.67229">
        <ele>1431.7</ele>
        <time>2024-05-26T11:14:03Z</time>
      </trkpt>
      <trkpt lat="43.74261" lon="6.67229">
        <ele>1431.7</ele>
        <time>2024-05-26T11:14:04Z</time>
      </trkpt>
      <trkpt lat="43.74261" lon="6.67228">
        <ele>1431.7</ele>
        <time>2024-05-26T11:14:05Z</time>
      </trkpt>
      <trkpt lat="43.74261" lon="6.67228">
        <ele>1431.7</ele>
        <time>2024-05-26T11:14:06Z</time>
      </trkpt>
      <trkpt lat="43.74261" lon="6.67228">
        <ele>1431.8</ele>
        <time>2024-05-26T11:14:07Z</time>
      </trkpt>
      <trkpt lat="43.74261" lon="6.67229">
        <ele>1431.9</ele>
        <time>2024-05-26T11:14:08Z</time>
      </trkpt>
      <trkpt lat="43.74261" lon="6.67229">
        <ele>1432</ele>
        <time>2024-05-26T11:14:09Z</time>
      </trkpt>
      <trkpt lat="43.74261" lon="6.67229">
        <ele>1432.1</ele>
        <time>2024-05-26T11:14:10Z</time>
      </trkpt>
      <trkpt lat="43.74262" lon="6.6723">
        <ele>1432.3</ele>
        <time>2024-05-26T11:14:11Z</time>
      </trkpt>
      <trkpt lat="43.74262" lon="6.67231">
        <ele>1432.5</ele>
        <time>2024-05-26T11:14:12Z</time>
      </trkpt>
      <trkpt lat="43.74263" lon="6.67231">
        <ele>1432.6</ele>
        <time>2024-05-26T11:14:13Z</time>
      </trkpt>
      <trkpt lat="43.74264" lon="6.67231">
        <ele>1432.6</ele>
        <time>2024-05-26T11:14:14Z</time>
      </trkpt>
      <trkpt lat="43.74264" lon="6.6723">
        <ele>1432.6</ele>
        <time>2024-05-26T11:14:15Z</time>
      </trkpt>
      <trkpt lat="43.74264" lon="6.67231">
        <ele>1432.6</ele>
        <time>2024-05-26T11:14:16Z</time>
      </trkpt>
      <trkpt lat="43.74264" lon="6.67231">
        <ele>1432.7</ele>
        <time>2024-05-26T11:14:17Z</time>
      </trkpt>
      <trkpt lat="43.74264" lon="6.67231">
        <ele>1432.7</ele>
        <time>2024-05-26T11:14:18Z</time>
      </trkpt>
      <trkpt lat="43.74264" lon="6.67231">
        <ele>1432.7</ele>
        <time>2024-05-26T11:14:19Z</time>
      </trkpt>
      <trkpt lat="43.74264" lon="6.67231">
        <ele>1432.8</ele>
        <time>2024-05-26T11:14:20Z</time>
      </trkpt>
      <trkpt lat="43.74264" lon="6.67231">
        <ele>1432.8</ele>
        <time>2024-05-26T11:14:21Z</time>
      </trkpt>
      <trkpt lat="43.74265" lon="6.67231">
        <ele>1432.8</ele>
        <time>2024-05-26T11:14:22Z</time>
      </trkpt>
      <trkpt lat="43.74265" lon="6.67231">
        <ele>1432.7</ele>
        <time>2024-05-26T11:14:23Z</time>
      </trkpt>
      <trkpt lat="43.74265" lon="6.67231">
        <ele>1432.7</ele>
        <time>2024-05-26T11:14:24Z</time>
      </trkpt>
      <trkpt lat="43.74265" lon="6.67231">
        <ele>1432.6</ele>
        <time>2024-05-26T11:14:25Z</time>
      </trkpt>
      <trkpt lat="43.74265" lon="6.67231">
        <ele>1432.6</ele>
        <time>2024-05-26T11:14:26Z</time>
      </trkpt>
      <trkpt lat="43.74266" lon="6.67232">
        <ele>1432.6</ele>
        <time>2024-05-26T11:14:27Z</time>
      </trkpt>
      <trkpt lat="43.74265" lon="6.67232">
        <ele>1432.5</ele>
        <time>2024-05-26T11:14:28Z</time>
      </trkpt>
      <trkpt lat="43.74265" lon="6.67231">
        <ele>1432.5</ele>
        <time>2024-05-26T11:14:29Z</time>
      </trkpt>
      <trkpt lat="43.74264" lon="6.6723">
        <ele>1432.5</ele>
        <time>2024-05-26T11:14:30Z</time>
      </trkpt>
      <trkpt lat="43.74263" lon="6.6723">
        <ele>1432.5</ele>
        <time>2024-05-26T11:14:31Z</time>
      </trkpt>
      <trkpt lat="43.74262" lon="6.6723">
        <ele>1432.4</ele>
        <time>2024-05-26T11:14:32Z</time>
      </trkpt>
      <trkpt lat="43.74262" lon="6.6723">
        <ele>1432.4</ele>
        <time>2024-05-26T11:14:33Z</time>
      </trkpt>
      <trkpt lat="43.74262" lon="6.67229">
        <ele>1432.4</ele>
        <time>2024-05-26T11:14:34Z</time>
      </trkpt>
      <trkpt lat="43.74262" lon="6.67229">
        <ele>1432.5</ele>
        <time>2024-05-26T11:14:35Z</time>
      </trkpt>
      <trkpt lat="43.74262" lon="6.67228">
        <ele>1432.4</ele>
        <time>2024-05-26T11:14:36Z</time>
      </trkpt>
      <trkpt lat="43.74262" lon="6.67229">
        <ele>1432.3</ele>
        <time>2024-05-26T11:14:37Z</time>
      </trkpt>
      <trkpt lat="43.74262" lon="6.67229">
        <ele>1432.3</ele>
        <time>2024-05-26T11:14:38Z</time>
      </trkpt>
      <trkpt lat="43.74262" lon="6.67229">
        <ele>1432.2</ele>
        <time>2024-05-26T11:14:39Z</time>
      </trkpt>
      <trkpt lat="43.74261" lon="6.67229">
        <ele>1432.1</ele>
        <time>2024-05-26T11:14:40Z</time>
      </trkpt>
      <trkpt lat="43.74261" lon="6.6723">
        <ele>1432.1</ele>
        <time>2024-05-26T11:14:41Z</time>
      </trkpt>
      <trkpt lat="43.74261" lon="6.6723">
        <ele>1432</ele>
        <time>2024-05-26T11:14:42Z</time>
      </trkpt>
      <trkpt lat="43.74261" lon="6.6723">
        <ele>1431.9</ele>
        <time>2024-05-26T11:14:43Z</time>
      </trkpt>
      <trkpt lat="43.74261" lon="6.6723">
        <ele>1431.8</ele>
        <time>2024-05-26T11:14:44Z</time>
      </trkpt>
      <trkpt lat="43.74261" lon="6.6723">
        <ele>1431.8</ele>
        <time>2024-05-26T11:14:45Z</time>
      </trkpt>
      <trkpt lat="43.74261" lon="6.6723">
        <ele>1431.7</ele>
        <time>2024-05-26T11:14:46Z</time>
      </trkpt>
      <trkpt lat="43.74261" lon="6.6723">
        <ele>1431.7</ele>
        <time>2024-05-26T11:14:47Z</time>
      </trkpt>
      <trkpt lat="43.74261" lon="6.6723">
        <ele>1431.7</ele>
        <time>2024-05-26T11:14:48Z</time>
      </trkpt>
      <trkpt lat="43.74261" lon="6.6723">
        <ele>1431.7</ele>
        <time>2024-05-26T11:14:49Z</time>
      </trkpt>
      <trkpt lat="43.74261" lon="6.6723">
        <ele>1431.7</ele>
        <time>2024-05-26T11:14:50Z</time>
      </trkpt>
      <trkpt lat="43.74261" lon="6.6723">
        <ele>1431.7</ele>
        <time>2024-05-26T11:14:51Z</time>
      </trkpt>
      <trkpt lat="43.74261" lon="6.6723">
        <ele>1431.6</ele>
        <time>2024-05-26T11:14:52Z</time>
      </trkpt>
      <trkpt lat="43.74261" lon="6.6723">
        <ele>1431.7</ele>
        <time>2024-05-26T11:14:53Z</time>
      </trkpt>
      <trkpt lat="43.74261" lon="6.6723">
        <ele>1431.7</ele>
        <time>2024-05-26T11:14:54Z</time>
      </trkpt>
      <trkpt lat="43.74261" lon="6.6723">
        <ele>1431.7</ele>
        <time>2024-05-26T11:14:55Z</time>
      </trkpt>
      <trkpt lat="43.74261" lon="6.6723">
        <ele>1431.8</ele>
        <time>2024-05-26T11:14:56Z</time>
      </trkpt>
      <trkpt lat="43.74261" lon="6.6723">
        <ele>1431.8</ele>
        <time>2024-05-26T11:14:57Z</time>
      </trkpt>
      <trkpt lat="43.74261" lon="6.6723">
        <ele>1431.7</ele>
        <time>2024-05-26T11:14:58Z</time>
      </trkpt>
      <trkpt lat="43.74261" lon="6.6723">
        <ele>1431.6</ele>
        <time>2024-05-26T11:14:59Z</time>
      </trkpt>
      <trkpt lat="43.74261" lon="6.6723">
        <ele>1431.6</ele>
        <time>2024-05-26T11:15:00Z</time>
      </trkpt>
      <trkpt lat="43.74261" lon="6.6723">
        <ele>1431.5</ele>
        <time>2024-05-26T11:15:01Z</time>
      </trkpt>
      <trkpt lat="43.74261" lon="6.6723">
        <ele>1431.5</ele>
        <time>2024-05-26T11:15:02Z</time>
      </trkpt>
      <trkpt lat="43.74261" lon="6.6723">
        <ele>1431.5</ele>
        <time>2024-05-26T11:15:03Z</time>
      </trkpt>
      <trkpt lat="43.74261" lon="6.67231">
        <ele>1431.5</ele>
        <time>2024-05-26T11:15:04Z</time>
      </trkpt>
      <trkpt lat="43.74261" lon="6.67231">
        <ele>1431.6</ele>
        <time>2024-05-26T11:15:05Z</time>
      </trkpt>
      <trkpt lat="43.74261" lon="6.67231">
        <ele>1431.6</ele>
        <time>2024-05-26T11:15:06Z</time>
      </trkpt>
      <trkpt lat="43.74261" lon="6.67231">
        <ele>1431.7</ele>
        <time>2024-05-26T11:15:07Z</time>
      </trkpt>
      <trkpt lat="43.74261" lon="6.67231">
        <ele>1431.7</ele>
        <time>2024-05-26T11:15:08Z</time>
      </trkpt>
      <trkpt lat="43.74261" lon="6.67232">
        <ele>1431.7</ele>
        <time>2024-05-26T11:15:09Z</time>
      </trkpt>
      <trkpt lat="43.7426" lon="6.67232">
        <ele>1431.8</ele>
        <time>2024-05-26T11:15:10Z</time>
      </trkpt>
      <trkpt lat="43.7426" lon="6.67232">
        <ele>1431.8</ele>
        <time>2024-05-26T11:15:11Z</time>
      </trkpt>
      <trkpt lat="43.7426" lon="6.67232">
        <ele>1431.8</ele>
        <time>2024-05-26T11:15:12Z</time>
      </trkpt>
      <trkpt lat="43.7426" lon="6.67232">
        <ele>1431.8</ele>
        <time>2024-05-26T11:15:13Z</time>
      </trkpt>
      <trkpt lat="43.7426" lon="6.67232">
        <ele>1431.9</ele>
        <time>2024-05-26T11:15:14Z</time>
      </trkpt>
      <trkpt lat="43.7426" lon="6.67233">
        <ele>1431.8</ele>
        <time>2024-05-26T11:15:15Z</time>
      </trkpt>
      <trkpt lat="43.7426" lon="6.67233">
        <ele>1431.8</ele>
        <time>2024-05-26T11:15:16Z</time>
      </trkpt>
      <trkpt lat="43.7426" lon="6.67233">
        <ele>1431.9</ele>
        <time>2024-05-26T11:15:17Z</time>
      </trkpt>
      <trkpt lat="43.74259" lon="6.67233">
        <ele>1432</ele>
        <time>2024-05-26T11:15:18Z</time>
      </trkpt>
      <trkpt lat="43.74259" lon="6.67234">
        <ele>1432</ele>
        <time>2024-05-26T11:15:19Z</time>
      </trkpt>
      <trkpt lat="43.74259" lon="6.67234">
        <ele>1432</ele>
        <time>2024-05-26T11:15:20Z</time>
      </trkpt>
      <trkpt lat="43.74259" lon="6.67234">
        <ele>1431.9</ele>
        <time>2024-05-26T11:15:21Z</time>
      </trkpt>
      <trkpt lat="43.74259" lon="6.67234">
        <ele>1431.9</ele>
        <time>2024-05-26T11:15:22Z</time>
      </trkpt>
      <trkpt lat="43.74259" lon="6.67235">
        <ele>1432</ele>
        <time>2024-05-26T11:15:23Z</time>
      </trkpt>
      <trkpt lat="43.74259" lon="6.67235">
        <ele>1432</ele>
        <time>2024-05-26T11:15:24Z</time>
      </trkpt>
      <trkpt lat="43.74259" lon="6.67235">
        <ele>1432</ele>
        <time>2024-05-26T11:15:25Z</time>
      </trkpt>
      <trkpt lat="43.74259" lon="6.67235">
        <ele>1432</ele>
        <time>2024-05-26T11:15:26Z</time>
      </trkpt>
      <trkpt lat="43.74259" lon="6.67236">
        <ele>1432</ele>
        <time>2024-05-26T11:15:27Z</time>
      </trkpt>
      <trkpt lat="43.74258" lon="6.67236">
        <ele>1432.1</ele>
        <time>2024-05-26T11:15:28Z</time>
      </trkpt>
      <trkpt lat="43.74258" lon="6.67236">
        <ele>1432.1</ele>
        <time>2024-05-26T11:15:29Z</time>
      </trkpt>
      <trkpt lat="43.74258" lon="6.67236">
        <ele>1432.1</ele>
        <time>2024-05-26T11:15:30Z</time>
      </trkpt>
      <trkpt lat="43.74258" lon="6.67237">
        <ele>1432.1</ele>
        <time>2024-05-26T11:15:31Z</time>
      </trkpt>
      <trkpt lat="43.74258" lon="6.67237">
        <ele>1432.1</ele>
        <time>2024-05-26T11:15:32Z</time>
      </trkpt>
      <trkpt lat="43.74258" lon="6.67237">
        <ele>1432.1</ele>
        <time>2024-05-26T11:15:33Z</time>
      </trkpt>
      <trkpt lat="43.74258" lon="6.67237">
        <ele>1432.1</ele>
        <time>2024-05-26T11:15:34Z</time>
      </trkpt>
      <trkpt lat="43.74258" lon="6.67237">
        <ele>1432.1</ele>
        <time>2024-05-26T11:15:35Z</time>
      </trkpt>
      <trkpt lat="43.74258" lon="6.67237">
        <ele>1432.1</ele>
        <time>2024-05-26T11:15:36Z</time>
      </trkpt>
      <trkpt lat="43.74258" lon="6.67237">
        <ele>1432</ele>
        <time>2024-05-26T11:15:37Z</time>
      </trkpt>
      <trkpt lat="43.74258" lon="6.67237">
        <ele>1432.1</ele>
        <time>2024-05-26T11:15:38Z</time>
      </trkpt>
      <trkpt lat="43.74258" lon="6.67237">
        <ele>1432</ele>
        <time>2024-05-26T11:15:39Z</time>
      </trkpt>
      <trkpt lat="43.74258" lon="6.67237">
        <ele>1432</ele>
        <time>2024-05-26T11:15:40Z</time>
      </trkpt>
      <trkpt lat="43.74258" lon="6.67237">
        <ele>1432</ele>
        <time>2024-05-26T11:15:41Z</time>
      </trkpt>
      <trkpt lat="43.74258" lon="6.67238">
        <ele>1432</ele>
        <time>2024-05-26T11:15:42Z</time>
      </trkpt>
      <trkpt lat="43.74258" lon="6.67238">
        <ele>1432</ele>
        <time>2024-05-26T11:15:43Z</time>
      </trkpt>
      <trkpt lat="43.74258" lon="6.67238">
        <ele>1432</ele>
        <time>2024-05-26T11:15:44Z</time>
      </trkpt>
      <trkpt lat="43.74257" lon="6.67238">
        <ele>1432.1</ele>
        <time>2024-05-26T11:15:45Z</time>
      </trkpt>
      <trkpt lat="43.74258" lon="6.67238">
        <ele>1432.1</ele>
        <time>2024-05-26T11:15:46Z</time>
      </trkpt>
      <trkpt lat="43.74258" lon="6.67238">
        <ele>1432.1</ele>
        <time>2024-05-26T11:15:47Z</time>
      </trkpt>
      <trkpt lat="43.74258" lon="6.67239">
        <ele>1432</ele>
        <time>2024-05-26T11:15:48Z</time>
      </trkpt>
      <trkpt lat="43.74258" lon="6.67239">
        <ele>1432</ele>
        <time>2024-05-26T11:15:49Z</time>
      </trkpt>
      <trkpt lat="43.74258" lon="6.67239">
        <ele>1432</ele>
        <time>2024-05-26T11:15:50Z</time>
      </trkpt>
      <trkpt lat="43.74258" lon="6.67239">
        <ele>1431.9</ele>
        <time>2024-05-26T11:15:51Z</time>
      </trkpt>
      <trkpt lat="43.74258" lon="6.67239">
        <ele>1431.9</ele>
        <time>2024-05-26T11:15:52Z</time>
      </trkpt>
      <trkpt lat="43.74258" lon="6.67239">
        <ele>1431.9</ele>
        <time>2024-05-26T11:15:53Z</time>
      </trkpt>
      <trkpt lat="43.74258" lon="6.67239">
        <ele>1431.9</ele>
        <time>2024-05-26T11:15:54Z</time>
      </trkpt>
      <trkpt lat="43.74257" lon="6.67239">
        <ele>1431.9</ele>
        <time>2024-05-26T11:15:55Z</time>
      </trkpt>
      <trkpt lat="43.74257" lon="6.67239">
        <ele>1431.8</ele>
        <time>2024-05-26T11:15:56Z</time>
      </trkpt>
      <trkpt lat="43.74257" lon="6.67239">
        <ele>1431.9</ele>
        <time>2024-05-26T11:15:57Z</time>
      </trkpt>
      <trkpt lat="43.74257" lon="6.67239">
        <ele>1432</ele>
        <time>2024-05-26T11:15:58Z</time>
      </trkpt>
      <trkpt lat="43.74257" lon="6.67239">
        <ele>1432.1</ele>
        <time>2024-05-26T11:15:59Z</time>
      </trkpt>
      <trkpt lat="43.74257" lon="6.67239">
        <ele>1432.1</ele>
        <time>2024-05-26T11:16:00Z</time>
      </trkpt>
      <trkpt lat="43.74257" lon="6.67239">
        <ele>1432</ele>
        <time>2024-05-26T11:16:01Z</time>
      </trkpt>
      <trkpt lat="43.74257" lon="6.67238">
        <ele>1432</ele>
        <time>2024-05-26T11:16:02Z</time>
      </trkpt>
      <trkpt lat="43.74257" lon="6.67238">
        <ele>1432.1</ele>
        <time>2024-05-26T11:16:03Z</time>
      </trkpt>
      <trkpt lat="43.74257" lon="6.67238">
        <ele>1432.1</ele>
        <time>2024-05-26T11:16:04Z</time>
      </trkpt>
      <trkpt lat="43.74257" lon="6.67238">
        <ele>1432.1</ele>
        <time>2024-05-26T11:16:05Z</time>
      </trkpt>
      <trkpt lat="43.74257" lon="6.67238">
        <ele>1432.1</ele>
        <time>2024-05-26T11:16:06Z</time>
      </trkpt>
      <trkpt lat="43.74257" lon="6.67237">
        <ele>1432.1</ele>
        <time>2024-05-26T11:16:07Z</time>
      </trkpt>
      <trkpt lat="43.74257" lon="6.67237">
        <ele>1432</ele>
        <time>2024-05-26T11:16:08Z</time>
      </trkpt>
      <trkpt lat="43.74257" lon="6.67237">
        <ele>1432</ele>
        <time>2024-05-26T11:16:09Z</time>
      </trkpt>
      <trkpt lat="43.74257" lon="6.67237">
        <ele>1432</ele>
        <time>2024-05-26T11:16:10Z</time>
      </trkpt>
      <trkpt lat="43.74257" lon="6.67236">
        <ele>1432</ele>
        <time>2024-05-26T11:16:11Z</time>
      </trkpt>
      <trkpt lat="43.74257" lon="6.67236">
        <ele>1431.9</ele>
        <time>2024-05-26T11:16:12Z</time>
      </trkpt>
      <trkpt lat="43.74257" lon="6.67236">
        <ele>1431.9</ele>
        <time>2024-05-26T11:16:13Z</time>
      </trkpt>
      <trkpt lat="43.74257" lon="6.67236">
        <ele>1431.9</ele>
        <time>2024-05-26T11:16:14Z</time>
      </trkpt>
      <trkpt lat="43.74257" lon="6.67236">
        <ele>1431.9</ele>
        <time>2024-05-26T11:16:15Z</time>
      </trkpt>
      <trkpt lat="43.74257" lon="6.67236">
        <ele>1431.9</ele>
        <time>2024-05-26T11:16:16Z</time>
      </trkpt>
      <trkpt lat="43.74257" lon="6.67235">
        <ele>1432</ele>
        <time>2024-05-26T11:16:17Z</time>
      </trkpt>
      <trkpt lat="43.74257" lon="6.67235">
        <ele>1431.9</ele>
        <time>2024-05-26T11:16:18Z</time>
      </trkpt>
      <trkpt lat="43.74257" lon="6.67235">
        <ele>1431.9</ele>
        <time>2024-05-26T11:16:19Z</time>
      </trkpt>
      <trkpt lat="43.74257" lon="6.67235">
        <ele>1431.9</ele>
        <time>2024-05-26T11:16:20Z</time>
      </trkpt>
      <trkpt lat="43.74257" lon="6.67236">
        <ele>1431.9</ele>
        <time>2024-05-26T11:16:21Z</time>
      </trkpt>
      <trkpt lat="43.74257" lon="6.67236">
        <ele>1431.8</ele>
        <time>2024-05-26T11:16:22Z</time>
      </trkpt>
      <trkpt lat="43.74257" lon="6.67236">
        <ele>1431.8</ele>
        <time>2024-05-26T11:16:23Z</time>
      </trkpt>
      <trkpt lat="43.74257" lon="6.67236">
        <ele>1431.8</ele>
        <time>2024-05-26T11:16:24Z</time>
      </trkpt>
      <trkpt lat="43.74257" lon="6.67236">
        <ele>1431.7</ele>
        <time>2024-05-26T11:16:25Z</time>
      </trkpt>
      <trkpt lat="43.74257" lon="6.67236">
        <ele>1431.7</ele>
        <time>2024-05-26T11:16:26Z</time>
      </trkpt>
      <trkpt lat="43.74257" lon="6.67236">
        <ele>1431.7</ele>
        <time>2024-05-26T11:16:27Z</time>
      </trkpt>
      <trkpt lat="43.74257" lon="6.67236">
        <ele>1431.6</ele>
        <time>2024-05-26T11:16:28Z</time>
      </trkpt>
      <trkpt lat="43.74257" lon="6.67236">
        <ele>1431.6</ele>
        <time>2024-05-26T11:16:29Z</time>
      </trkpt>
      <trkpt lat="43.74257" lon="6.67237">
        <ele>1431.6</ele>
        <time>2024-05-26T11:16:30Z</time>
      </trkpt>
      <trkpt lat="43.74257" lon="6.67237">
        <ele>1431.6</ele>
        <time>2024-05-26T11:16:31Z</time>
      </trkpt>
      <trkpt lat="43.74257" lon="6.67237">
        <ele>1431.5</ele>
        <time>2024-05-26T11:16:32Z</time>
      </trkpt>
      <trkpt lat="43.74257" lon="6.67237">
        <ele>1431.5</ele>
        <time>2024-05-26T11:16:33Z</time>
      </trkpt>
      <trkpt lat="43.74257" lon="6.67237">
        <ele>1431.5</ele>
        <time>2024-05-26T11:16:34Z</time>
      </trkpt>
      <trkpt lat="43.74257" lon="6.67237">
        <ele>1431.5</ele>
        <time>2024-05-26T11:16:35Z</time>
      </trkpt>
      <trkpt lat="43.74257" lon="6.67237">
        <ele>1431.5</ele>
        <time>2024-05-26T11:16:36Z</time>
      </trkpt>
      <trkpt lat="43.74257" lon="6.67237">
        <ele>1431.5</ele>
        <time>2024-05-26T11:16:37Z</time>
      </trkpt>
      <trkpt lat="43.74257" lon="6.67237">
        <ele>1431.5</ele>
        <time>2024-05-26T11:16:38Z</time>
      </trkpt>
      <trkpt lat="43.74257" lon="6.67237">
        <ele>1431.4</ele>
        <time>2024-05-26T11:16:39Z</time>
      </trkpt>
      <trkpt lat="43.74257" lon="6.67237">
        <ele>1431.4</ele>
        <time>2024-05-26T11:16:40Z</time>
      </trkpt>
      <trkpt lat="43.74258" lon="6.67236">
        <ele>1431.4</ele>
        <time>2024-05-26T11:16:41Z</time>
      </trkpt>
      <trkpt lat="43.74258" lon="6.67236">
        <ele>1431.4</ele>
        <time>2024-05-26T11:16:42Z</time>
      </trkpt>
      <trkpt lat="43.74258" lon="6.67236">
        <ele>1431.4</ele>
        <time>2024-05-26T11:16:43Z</time>
      </trkpt>
      <trkpt lat="43.74258" lon="6.67236">
        <ele>1431.4</ele>
        <time>2024-05-26T11:16:44Z</time>
      </trkpt>
      <trkpt lat="43.74258" lon="6.67236">
        <ele>1431.4</ele>
        <time>2024-05-26T11:16:45Z</time>
      </trkpt>
      <trkpt lat="43.74258" lon="6.67236">
        <ele>1431.4</ele>
        <time>2024-05-26T11:16:46Z</time>
      </trkpt>
      <trkpt lat="43.74258" lon="6.67236">
        <ele>1431.4</ele>
        <time>2024-05-26T11:16:47Z</time>
      </trkpt>
      <trkpt lat="43.74258" lon="6.67236">
        <ele>1431.3</ele>
        <time>2024-05-26T11:16:48Z</time>
      </trkpt>
      <trkpt lat="43.74258" lon="6.67235">
        <ele>1431.3</ele>
        <time>2024-05-26T11:16:49Z</time>
      </trkpt>
      <trkpt lat="43.74258" lon="6.67235">
        <ele>1431.3</ele>
        <time>2024-05-26T11:16:50Z</time>
      </trkpt>
      <trkpt lat="43.74258" lon="6.67235">
        <ele>1431.4</ele>
        <time>2024-05-26T11:16:51Z</time>
      </trkpt>
      <trkpt lat="43.74258" lon="6.67235">
        <ele>1431.4</ele>
        <time>2024-05-26T11:16:52Z</time>
      </trkpt>
      <trkpt lat="43.74258" lon="6.67235">
        <ele>1431.6</ele>
        <time>2024-05-26T11:16:53Z</time>
      </trkpt>
      <trkpt lat="43.74258" lon="6.67235">
        <ele>1431.6</ele>
        <time>2024-05-26T11:16:54Z</time>
      </trkpt>
      <trkpt lat="43.74258" lon="6.67235">
        <ele>1431.7</ele>
        <time>2024-05-26T11:16:55Z</time>
      </trkpt>
      <trkpt lat="43.74258" lon="6.67235">
        <ele>1431.8</ele>
        <time>2024-05-26T11:16:56Z</time>
      </trkpt>
      <trkpt lat="43.74258" lon="6.67235">
        <ele>1431.8</ele>
        <time>2024-05-26T11:16:57Z</time>
      </trkpt>
      <trkpt lat="43.74258" lon="6.67235">
        <ele>1431.8</ele>
        <time>2024-05-26T11:16:58Z</time>
      </trkpt>
      <trkpt lat="43.74258" lon="6.67235">
        <ele>1431.8</ele>
        <time>2024-05-26T11:16:59Z</time>
      </trkpt>
      <trkpt lat="43.74258" lon="6.67235">
        <ele>1431.8</ele>
        <time>2024-05-26T11:17:00Z</time>
      </trkpt>
      <trkpt lat="43.74258" lon="6.67235">
        <ele>1431.8</ele>
        <time>2024-05-26T11:17:01Z</time>
      </trkpt>
      <trkpt lat="43.74258" lon="6.67235">
        <ele>1431.9</ele>
        <time>2024-05-26T11:17:02Z</time>
      </trkpt>
      <trkpt lat="43.74258" lon="6.67235">
        <ele>1431.9</ele>
        <time>2024-05-26T11:17:03Z</time>
      </trkpt>
      <trkpt lat="43.74258" lon="6.67235">
        <ele>1431.8</ele>
        <time>2024-05-26T11:17:04Z</time>
      </trkpt>
      <trkpt lat="43.74258" lon="6.67235">
        <ele>1431.8</ele>
        <time>2024-05-26T11:17:05Z</time>
      </trkpt>
      <trkpt lat="43.74258" lon="6.67235">
        <ele>1431.6</ele>
        <time>2024-05-26T11:17:06Z</time>
      </trkpt>
      <trkpt lat="43.74258" lon="6.67235">
        <ele>1431.6</ele>
        <time>2024-05-26T11:17:07Z</time>
      </trkpt>
      <trkpt lat="43.74258" lon="6.67235">
        <ele>1431.7</ele>
        <time>2024-05-26T11:17:08Z</time>
      </trkpt>
      <trkpt lat="43.74258" lon="6.67235">
        <ele>1431.5</ele>
        <time>2024-05-26T11:17:09Z</time>
      </trkpt>
      <trkpt lat="43.74258" lon="6.67235">
        <ele>1431.5</ele>
        <time>2024-05-26T11:17:10Z</time>
      </trkpt>
      <trkpt lat="43.74258" lon="6.67235">
        <ele>1431.5</ele>
        <time>2024-05-26T11:17:11Z</time>
      </trkpt>
      <trkpt lat="43.74258" lon="6.67235">
        <ele>1431.5</ele>
        <time>2024-05-26T11:17:12Z</time>
      </trkpt>
      <trkpt lat="43.74258" lon="6.67235">
        <ele>1431.5</ele>
        <time>2024-05-26T11:17:13Z</time>
      </trkpt>
      <trkpt lat="43.74258" lon="6.67235">
        <ele>1431.5</ele>
        <time>2024-05-26T11:17:14Z</time>
      </trkpt>
      <trkpt lat="43.74258" lon="6.67235">
        <ele>1431.5</ele>
        <time>2024-05-26T11:17:15Z</time>
      </trkpt>
      <trkpt lat="43.74258" lon="6.67235">
        <ele>1431.6</ele>
        <time>2024-05-26T11:17:16Z</time>
      </trkpt>
      <trkpt lat="43.74258" lon="6.67235">
        <ele>1431.6</ele>
        <time>2024-05-26T11:17:17Z</time>
      </trkpt>
      <trkpt lat="43.74258" lon="6.67235">
        <ele>1431.6</ele>
        <time>2024-05-26T11:17:18Z</time>
      </trkpt>
      <trkpt lat="43.74258" lon="6.67235">
        <ele>1431.6</ele>
        <time>2024-05-26T11:17:19Z</time>
      </trkpt>
      <trkpt lat="43.74258" lon="6.67235">
        <ele>1431.6</ele>
        <time>2024-05-26T11:17:20Z</time>
      </trkpt>
      <trkpt lat="43.74259" lon="6.67235">
        <ele>1431.6</ele>
        <time>2024-05-26T11:17:21Z</time>
      </trkpt>
      <trkpt lat="43.74259" lon="6.67235">
        <ele>1431.6</ele>
        <time>2024-05-26T11:17:22Z</time>
      </trkpt>
      <trkpt lat="43.74259" lon="6.67234">
        <ele>1431.6</ele>
        <time>2024-05-26T11:17:23Z</time>
      </trkpt>
      <trkpt lat="43.74259" lon="6.67234">
        <ele>1431.6</ele>
        <time>2024-05-26T11:17:24Z</time>
      </trkpt>
      <trkpt lat="43.74259" lon="6.67234">
        <ele>1431.7</ele>
        <time>2024-05-26T11:17:25Z</time>
      </trkpt>
      <trkpt lat="43.74259" lon="6.67235">
        <ele>1431.7</ele>
        <time>2024-05-26T11:17:26Z</time>
      </trkpt>
      <trkpt lat="43.74259" lon="6.67235">
        <ele>1431.7</ele>
        <time>2024-05-26T11:17:27Z</time>
      </trkpt>
      <trkpt lat="43.74259" lon="6.67235">
        <ele>1431.7</ele>
        <time>2024-05-26T11:17:28Z</time>
      </trkpt>
      <trkpt lat="43.74259" lon="6.67235">
        <ele>1431.8</ele>
        <time>2024-05-26T11:17:29Z</time>
      </trkpt>
      <trkpt lat="43.74259" lon="6.67235">
        <ele>1431.8</ele>
        <time>2024-05-26T11:17:30Z</time>
      </trkpt>
      <trkpt lat="43.74258" lon="6.67235">
        <ele>1431.8</ele>
        <time>2024-05-26T11:17:31Z</time>
      </trkpt>
      <trkpt lat="43.74258" lon="6.67235">
        <ele>1431.8</ele>
        <time>2024-05-26T11:17:32Z</time>
      </trkpt>
      <trkpt lat="43.74258" lon="6.67235">
        <ele>1431.8</ele>
        <time>2024-05-26T11:17:33Z</time>
      </trkpt>
      <trkpt lat="43.74258" lon="6.67235">
        <ele>1431.8</ele>
        <time>2024-05-26T11:17:34Z</time>
      </trkpt>
      <trkpt lat="43.74258" lon="6.67235">
        <ele>1431.8</ele>
        <time>2024-05-26T11:17:35Z</time>
      </trkpt>
      <trkpt lat="43.74258" lon="6.67235">
        <ele>1431.8</ele>
        <time>2024-05-26T11:17:36Z</time>
      </trkpt>
      <trkpt lat="43.74258" lon="6.67235">
        <ele>1431.7</ele>
        <time>2024-05-26T11:17:37Z</time>
      </trkpt>
      <trkpt lat="43.74258" lon="6.67235">
        <ele>1431.6</ele>
        <time>2024-05-26T11:17:38Z</time>
      </trkpt>
      <trkpt lat="43.74258" lon="6.67235">
        <ele>1431.6</ele>
        <time>2024-05-26T11:17:39Z</time>
      </trkpt>
      <trkpt lat="43.74258" lon="6.67235">
        <ele>1431.5</ele>
        <time>2024-05-26T11:17:40Z</time>
      </trkpt>
      <trkpt lat="43.74258" lon="6.67236">
        <ele>1431.5</ele>
        <time>2024-05-26T11:17:41Z</time>
      </trkpt>
      <trkpt lat="43.74258" lon="6.67236">
        <ele>1431.6</ele>
        <time>2024-05-26T11:17:42Z</time>
      </trkpt>
      <trkpt lat="43.74258" lon="6.67236">
        <ele>1431.6</ele>
        <time>2024-05-26T11:17:43Z</time>
      </trkpt>
      <trkpt lat="43.74258" lon="6.67236">
        <ele>1431.6</ele>
        <time>2024-05-26T11:17:44Z</time>
      </trkpt>
      <trkpt lat="43.74258" lon="6.67235">
        <ele>1431.6</ele>
        <time>2024-05-26T11:17:45Z</time>
      </trkpt>
      <trkpt lat="43.74258" lon="6.67235">
        <ele>1431.6</ele>
        <time>2024-05-26T11:17:46Z</time>
      </trkpt>
      <trkpt lat="43.74259" lon="6.67235">
        <ele>1431.8</ele>
        <time>2024-05-26T11:17:47Z</time>
      </trkpt>
      <trkpt lat="43.74259" lon="6.67235">
        <ele>1431.9</ele>
        <time>2024-05-26T11:17:48Z</time>
      </trkpt>
      <trkpt lat="43.74259" lon="6.67235">
        <ele>1431.9</ele>
        <time>2024-05-26T11:17:49Z</time>
      </trkpt>
      <trkpt lat="43.74259" lon="6.67235">
        <ele>1431.9</ele>
        <time>2024-05-26T11:17:50Z</time>
      </trkpt>
      <trkpt lat="43.74259" lon="6.67235">
        <ele>1431.9</ele>
        <time>2024-05-26T11:17:51Z</time>
      </trkpt>
      <trkpt lat="43.74259" lon="6.67235">
        <ele>1431.8</ele>
        <time>2024-05-26T11:17:52Z</time>
      </trkpt>
      <trkpt lat="43.74259" lon="6.67235">
        <ele>1431.7</ele>
        <time>2024-05-26T11:17:53Z</time>
      </trkpt>
      <trkpt lat="43.74259" lon="6.67234">
        <ele>1431.7</ele>
        <time>2024-05-26T11:17:54Z</time>
      </trkpt>
      <trkpt lat="43.74259" lon="6.67234">
        <ele>1431.6</ele>
        <time>2024-05-26T11:17:55Z</time>
      </trkpt>
      <trkpt lat="43.74259" lon="6.67234">
        <ele>1431.6</ele>
        <time>2024-05-26T11:17:56Z</time>
      </trkpt>
      <trkpt lat="43.74259" lon="6.67234">
        <ele>1431.6</ele>
        <time>2024-05-26T11:17:57Z</time>
      </trkpt>
      <trkpt lat="43.74259" lon="6.67234">
        <ele>1431.6</ele>
        <time>2024-05-26T11:17:58Z</time>
      </trkpt>
      <trkpt lat="43.74259" lon="6.67234">
        <ele>1431.6</ele>
        <time>2024-05-26T11:17:59Z</time>
      </trkpt>
      <trkpt lat="43.74259" lon="6.67234">
        <ele>1431.6</ele>
        <time>2024-05-26T11:18:00Z</time>
      </trkpt>
      <trkpt lat="43.74259" lon="6.67234">
        <ele>1431.7</ele>
        <time>2024-05-26T11:18:01Z</time>
      </trkpt>
      <trkpt lat="43.74258" lon="6.67234">
        <ele>1431.7</ele>
        <time>2024-05-26T11:18:02Z</time>
      </trkpt>
      <trkpt lat="43.74258" lon="6.67234">
        <ele>1431.7</ele>
        <time>2024-05-26T11:18:03Z</time>
      </trkpt>
      <trkpt lat="43.74258" lon="6.67234">
        <ele>1431.7</ele>
        <time>2024-05-26T11:18:04Z</time>
      </trkpt>
      <trkpt lat="43.74258" lon="6.67234">
        <ele>1431.7</ele>
        <time>2024-05-26T11:18:05Z</time>
      </trkpt>
      <trkpt lat="43.74258" lon="6.67234">
        <ele>1431.7</ele>
        <time>2024-05-26T11:18:06Z</time>
      </trkpt>
      <trkpt lat="43.74258" lon="6.67234">
        <ele>1431.6</ele>
        <time>2024-05-26T11:18:07Z</time>
      </trkpt>
      <trkpt lat="43.74258" lon="6.67235">
        <ele>1431.6</ele>
        <time>2024-05-26T11:18:08Z</time>
      </trkpt>
      <trkpt lat="43.74258" lon="6.67235">
        <ele>1431.6</ele>
        <time>2024-05-26T11:18:09Z</time>
      </trkpt>
      <trkpt lat="43.74257" lon="6.67235">
        <ele>1431.6</ele>
        <time>2024-05-26T11:18:10Z</time>
      </trkpt>
      <trkpt lat="43.74257" lon="6.67235">
        <ele>1431.6</ele>
        <time>2024-05-26T11:18:11Z</time>
      </trkpt>
      <trkpt lat="43.74257" lon="6.67235">
        <ele>1431.7</ele>
        <time>2024-05-26T11:18:12Z</time>
      </trkpt>
      <trkpt lat="43.74257" lon="6.67235">
        <ele>1431.7</ele>
        <time>2024-05-26T11:18:13Z</time>
      </trkpt>
      <trkpt lat="43.74257" lon="6.67235">
        <ele>1431.7</ele>
        <time>2024-05-26T11:18:14Z</time>
      </trkpt>
      <trkpt lat="43.74257" lon="6.67235">
        <ele>1431.6</ele>
        <time>2024-05-26T11:18:15Z</time>
      </trkpt>
      <trkpt lat="43.74257" lon="6.67235">
        <ele>1431.5</ele>
        <time>2024-05-26T11:18:16Z</time>
      </trkpt>
      <trkpt lat="43.74257" lon="6.67235">
        <ele>1431.5</ele>
        <time>2024-05-26T11:18:17Z</time>
      </trkpt>
      <trkpt lat="43.74257" lon="6.67235">
        <ele>1431.4</ele>
        <time>2024-05-26T11:18:18Z</time>
      </trkpt>
      <trkpt lat="43.74257" lon="6.67236">
        <ele>1431.4</ele>
        <time>2024-05-26T11:18:19Z</time>
      </trkpt>
      <trkpt lat="43.74256" lon="6.67236">
        <ele>1431.4</ele>
        <time>2024-05-26T11:18:20Z</time>
      </trkpt>
      <trkpt lat="43.74257" lon="6.67236">
        <ele>1431.5</ele>
        <time>2024-05-26T11:18:21Z</time>
      </trkpt>
      <trkpt lat="43.74257" lon="6.67236">
        <ele>1431.5</ele>
        <time>2024-05-26T11:18:22Z</time>
      </trkpt>
      <trkpt lat="43.74257" lon="6.67236">
        <ele>1431.5</ele>
        <time>2024-05-26T11:18:23Z</time>
      </trkpt>
      <trkpt lat="43.74257" lon="6.67236">
        <ele>1431.5</ele>
        <time>2024-05-26T11:18:24Z</time>
      </trkpt>
      <trkpt lat="43.74257" lon="6.67236">
        <ele>1431.5</ele>
        <time>2024-05-26T11:18:25Z</time>
      </trkpt>
      <trkpt lat="43.74257" lon="6.67236">
        <ele>1431.5</ele>
        <time>2024-05-26T11:18:26Z</time>
      </trkpt>
      <trkpt lat="43.74257" lon="6.67236">
        <ele>1431.6</ele>
        <time>2024-05-26T11:18:27Z</time>
      </trkpt>
      <trkpt lat="43.74257" lon="6.67236">
        <ele>1431.5</ele>
        <time>2024-05-26T11:18:28Z</time>
      </trkpt>
      <trkpt lat="43.74257" lon="6.67236">
        <ele>1431.6</ele>
        <time>2024-05-26T11:18:29Z</time>
      </trkpt>
      <trkpt lat="43.74257" lon="6.67236">
        <ele>1431.7</ele>
        <time>2024-05-26T11:18:30Z</time>
      </trkpt>
      <trkpt lat="43.74257" lon="6.67236">
        <ele>1431.7</ele>
        <time>2024-05-26T11:18:31Z</time>
      </trkpt>
      <trkpt lat="43.74257" lon="6.67236">
        <ele>1431.6</ele>
        <time>2024-05-26T11:18:32Z</time>
      </trkpt>
      <trkpt lat="43.74257" lon="6.67236">
        <ele>1431.6</ele>
        <time>2024-05-26T11:18:33Z</time>
      </trkpt>
      <trkpt lat="43.74258" lon="6.67236">
        <ele>1431.6</ele>
        <time>2024-05-26T11:18:34Z</time>
      </trkpt>
      <trkpt lat="43.74258" lon="6.67236">
        <ele>1431.6</ele>
        <time>2024-05-26T11:18:35Z</time>
      </trkpt>
      <trkpt lat="43.74257" lon="6.67236">
        <ele>1431.6</ele>
        <time>2024-05-26T11:18:36Z</time>
      </trkpt>
      <trkpt lat="43.74257" lon="6.67237">
        <ele>1431.6</ele>
        <time>2024-05-26T11:18:37Z</time>
      </trkpt>
      <trkpt lat="43.74257" lon="6.67237">
        <ele>1431.6</ele>
        <time>2024-05-26T11:18:38Z</time>
      </trkpt>
      <trkpt lat="43.74257" lon="6.67237">
        <ele>1431.5</ele>
        <time>2024-05-26T11:18:39Z</time>
      </trkpt>
      <trkpt lat="43.74257" lon="6.67237">
        <ele>1431.5</ele>
        <time>2024-05-26T11:18:40Z</time>
      </trkpt>
      <trkpt lat="43.74258" lon="6.67237">
        <ele>1431.5</ele>
        <time>2024-05-26T11:18:41Z</time>
      </trkpt>
      <trkpt lat="43.74258" lon="6.67237">
        <ele>1431.5</ele>
        <time>2024-05-26T11:18:42Z</time>
      </trkpt>
      <trkpt lat="43.74258" lon="6.67237">
        <ele>1431.5</ele>
        <time>2024-05-26T11:18:43Z</time>
      </trkpt>
      <trkpt lat="43.74258" lon="6.67237">
        <ele>1431.6</ele>
        <time>2024-05-26T11:18:44Z</time>
      </trkpt>
      <trkpt lat="43.74258" lon="6.67237">
        <ele>1431.6</ele>
        <time>2024-05-26T11:18:45Z</time>
      </trkpt>
      <trkpt lat="43.74257" lon="6.67237">
        <ele>1431.6</ele>
        <time>2024-05-26T11:18:46Z</time>
      </trkpt>
      <trkpt lat="43.74257" lon="6.67237">
        <ele>1431.5</ele>
        <time>2024-05-26T11:18:47Z</time>
      </trkpt>
      <trkpt lat="43.74257" lon="6.67237">
        <ele>1431.5</ele>
        <time>2024-05-26T11:18:48Z</time>
      </trkpt>
      <trkpt lat="43.74257" lon="6.67236">
        <ele>1431.5</ele>
        <time>2024-05-26T11:18:49Z</time>
      </trkpt>
      <trkpt lat="43.74257" lon="6.67236">
        <ele>1431.4</ele>
        <time>2024-05-26T11:18:50Z</time>
      </trkpt>
      <trkpt lat="43.74258" lon="6.67237">
        <ele>1431.3</ele>
        <time>2024-05-26T11:18:51Z</time>
      </trkpt>
      <trkpt lat="43.74258" lon="6.67237">
        <ele>1431.2</ele>
        <time>2024-05-26T11:18:52Z</time>
      </trkpt>
      <trkpt lat="43.74258" lon="6.67237">
        <ele>1431.3</ele>
        <time>2024-05-26T11:18:53Z</time>
      </trkpt>
      <trkpt lat="43.74258" lon="6.67237">
        <ele>1431.3</ele>
        <time>2024-05-26T11:18:54Z</time>
      </trkpt>
      <trkpt lat="43.74258" lon="6.67237">
        <ele>1431.3</ele>
        <time>2024-05-26T11:18:55Z</time>
      </trkpt>
      <trkpt lat="43.74258" lon="6.67237">
        <ele>1431.3</ele>
        <time>2024-05-26T11:18:56Z</time>
      </trkpt>
      <trkpt lat="43.74258" lon="6.67237">
        <ele>1431.2</ele>
        <time>2024-05-26T11:18:57Z</time>
      </trkpt>
      <trkpt lat="43.74258" lon="6.67237">
        <ele>1431.2</ele>
        <time>2024-05-26T11:18:58Z</time>
      </trkpt>
      <trkpt lat="43.74259" lon="6.67236">
        <ele>1431.2</ele>
        <time>2024-05-26T11:18:59Z</time>
      </trkpt>
      <trkpt lat="43.74259" lon="6.67236">
        <ele>1431.2</ele>
        <time>2024-05-26T11:19:00Z</time>
      </trkpt>
      <trkpt lat="43.74259" lon="6.67236">
        <ele>1431.2</ele>
        <time>2024-05-26T11:19:01Z</time>
      </trkpt>
      <trkpt lat="43.74259" lon="6.67236">
        <ele>1431.2</ele>
        <time>2024-05-26T11:19:02Z</time>
      </trkpt>
      <trkpt lat="43.74259" lon="6.67236">
        <ele>1431.3</ele>
        <time>2024-05-26T11:19:03Z</time>
      </trkpt>
      <trkpt lat="43.74259" lon="6.67236">
        <ele>1431.3</ele>
        <time>2024-05-26T11:19:04Z</time>
      </trkpt>
      <trkpt lat="43.7426" lon="6.67236">
        <ele>1431.3</ele>
        <time>2024-05-26T11:19:05Z</time>
      </trkpt>
      <trkpt lat="43.7426" lon="6.67236">
        <ele>1431.3</ele>
        <time>2024-05-26T11:19:06Z</time>
      </trkpt>
      <trkpt lat="43.7426" lon="6.67236">
        <ele>1431.3</ele>
        <time>2024-05-26T11:19:07Z</time>
      </trkpt>
      <trkpt lat="43.7426" lon="6.67236">
        <ele>1431.2</ele>
        <time>2024-05-26T11:19:08Z</time>
      </trkpt>
      <trkpt lat="43.7426" lon="6.67236">
        <ele>1431.3</ele>
        <time>2024-05-26T11:19:09Z</time>
      </trkpt>
      <trkpt lat="43.7426" lon="6.67236">
        <ele>1431.3</ele>
        <time>2024-05-26T11:19:10Z</time>
      </trkpt>
      <trkpt lat="43.7426" lon="6.67235">
        <ele>1431.3</ele>
        <time>2024-05-26T11:19:11Z</time>
      </trkpt>
      <trkpt lat="43.74261" lon="6.67235">
        <ele>1431.3</ele>
        <time>2024-05-26T11:19:12Z</time>
      </trkpt>
      <trkpt lat="43.74261" lon="6.67235">
        <ele>1431.3</ele>
        <time>2024-05-26T11:19:13Z</time>
      </trkpt>
      <trkpt lat="43.74261" lon="6.67235">
        <ele>1431.3</ele>
        <time>2024-05-26T11:19:14Z</time>
      </trkpt>
      <trkpt lat="43.74261" lon="6.67235">
        <ele>1431.2</ele>
        <time>2024-05-26T11:19:15Z</time>
      </trkpt>
      <trkpt lat="43.74261" lon="6.67235">
        <ele>1431.1</ele>
        <time>2024-05-26T11:19:16Z</time>
      </trkpt>
      <trkpt lat="43.74261" lon="6.67235">
        <ele>1431.1</ele>
        <time>2024-05-26T11:19:17Z</time>
      </trkpt>
      <trkpt lat="43.74261" lon="6.67235">
        <ele>1431.1</ele>
        <time>2024-05-26T11:19:18Z</time>
      </trkpt>
      <trkpt lat="43.74262" lon="6.67235">
        <ele>1431</ele>
        <time>2024-05-26T11:19:19Z</time>
      </trkpt>
      <trkpt lat="43.74262" lon="6.67235">
        <ele>1431</ele>
        <time>2024-05-26T11:19:20Z</time>
      </trkpt>
      <trkpt lat="43.74262" lon="6.67235">
        <ele>1431</ele>
        <time>2024-05-26T11:19:21Z</time>
      </trkpt>
      <trkpt lat="43.74262" lon="6.67235">
        <ele>1431.1</ele>
        <time>2024-05-26T11:19:22Z</time>
      </trkpt>
      <trkpt lat="43.74262" lon="6.67235">
        <ele>1431.2</ele>
        <time>2024-05-26T11:19:23Z</time>
      </trkpt>
      <trkpt lat="43.74262" lon="6.67235">
        <ele>1431.2</ele>
        <time>2024-05-26T11:19:24Z</time>
      </trkpt>
      <trkpt lat="43.74262" lon="6.67235">
        <ele>1431.2</ele>
        <time>2024-05-26T11:19:25Z</time>
      </trkpt>
      <trkpt lat="43.74263" lon="6.67235">
        <ele>1431.3</ele>
        <time>2024-05-26T11:19:26Z</time>
      </trkpt>
      <trkpt lat="43.74263" lon="6.67235">
        <ele>1431.2</ele>
        <time>2024-05-26T11:19:27Z</time>
      </trkpt>
      <trkpt lat="43.74263" lon="6.67235">
        <ele>1431.2</ele>
        <time>2024-05-26T11:19:28Z</time>
      </trkpt>
      <trkpt lat="43.74263" lon="6.67235">
        <ele>1431.3</ele>
        <time>2024-05-26T11:19:29Z</time>
      </trkpt>
      <trkpt lat="43.74263" lon="6.67235">
        <ele>1431.3</ele>
        <time>2024-05-26T11:19:30Z</time>
      </trkpt>
      <trkpt lat="43.74263" lon="6.67235">
        <ele>1431.3</ele>
        <time>2024-05-26T11:19:31Z</time>
      </trkpt>
      <trkpt lat="43.74263" lon="6.67236">
        <ele>1431.3</ele>
        <time>2024-05-26T11:19:32Z</time>
      </trkpt>
      <trkpt lat="43.74263" lon="6.67236">
        <ele>1431.3</ele>
        <time>2024-05-26T11:19:33Z</time>
      </trkpt>
      <trkpt lat="43.74263" lon="6.67236">
        <ele>1431.3</ele>
        <time>2024-05-26T11:19:34Z</time>
      </trkpt>
      <trkpt lat="43.74263" lon="6.67236">
        <ele>1431.3</ele>
        <time>2024-05-26T11:19:35Z</time>
      </trkpt>
      <trkpt lat="43.74263" lon="6.67236">
        <ele>1431.2</ele>
        <time>2024-05-26T11:19:36Z</time>
      </trkpt>
      <trkpt lat="43.74263" lon="6.67236">
        <ele>1431.2</ele>
        <time>2024-05-26T11:19:37Z</time>
      </trkpt>
      <trkpt lat="43.74263" lon="6.67236">
        <ele>1431.1</ele>
        <time>2024-05-26T11:19:38Z</time>
      </trkpt>
      <trkpt lat="43.74263" lon="6.67236">
        <ele>1431.1</ele>
        <time>2024-05-26T11:19:39Z</time>
      </trkpt>
      <trkpt lat="43.74263" lon="6.67236">
        <ele>1431.1</ele>
        <time>2024-05-26T11:19:40Z</time>
      </trkpt>
      <trkpt lat="43.74264" lon="6.67236">
        <ele>1431.2</ele>
        <time>2024-05-26T11:19:41Z</time>
      </trkpt>
      <trkpt lat="43.74264" lon="6.67236">
        <ele>1431.1</ele>
        <time>2024-05-26T11:19:42Z</time>
      </trkpt>
      <trkpt lat="43.74264" lon="6.67236">
        <ele>1431.1</ele>
        <time>2024-05-26T11:19:43Z</time>
      </trkpt>
      <trkpt lat="43.74264" lon="6.67236">
        <ele>1431.1</ele>
        <time>2024-05-26T11:19:44Z</time>
      </trkpt>
      <trkpt lat="43.74263" lon="6.67236">
        <ele>1431.1</ele>
        <time>2024-05-26T11:19:45Z</time>
      </trkpt>
      <trkpt lat="43.74263" lon="6.67236">
        <ele>1431.2</ele>
        <time>2024-05-26T11:19:46Z</time>
      </trkpt>
      <trkpt lat="43.74263" lon="6.67237">
        <ele>1431.2</ele>
        <time>2024-05-26T11:19:47Z</time>
      </trkpt>
      <trkpt lat="43.74263" lon="6.67237">
        <ele>1431.1</ele>
        <time>2024-05-26T11:19:48Z</time>
      </trkpt>
      <trkpt lat="43.74263" lon="6.67237">
        <ele>1431.1</ele>
        <time>2024-05-26T11:19:49Z</time>
      </trkpt>
      <trkpt lat="43.74263" lon="6.67237">
        <ele>1431.1</ele>
        <time>2024-05-26T11:19:50Z</time>
      </trkpt>
      <trkpt lat="43.74263" lon="6.67237">
        <ele>1431.2</ele>
        <time>2024-05-26T11:19:51Z</time>
      </trkpt>
      <trkpt lat="43.74263" lon="6.67237">
        <ele>1431.2</ele>
        <time>2024-05-26T11:19:52Z</time>
      </trkpt>
      <trkpt lat="43.74262" lon="6.67237">
        <ele>1431.2</ele>
        <time>2024-05-26T11:19:53Z</time>
      </trkpt>
      <trkpt lat="43.74262" lon="6.67237">
        <ele>1431.1</ele>
        <time>2024-05-26T11:19:54Z</time>
      </trkpt>
      <trkpt lat="43.74262" lon="6.67237">
        <ele>1431.1</ele>
        <time>2024-05-26T11:19:55Z</time>
      </trkpt>
      <trkpt lat="43.74262" lon="6.67237">
        <ele>1431.1</ele>
        <time>2024-05-26T11:19:56Z</time>
      </trkpt>
      <trkpt lat="43.74262" lon="6.67237">
        <ele>1431.1</ele>
        <time>2024-05-26T11:19:57Z</time>
      </trkpt>
      <trkpt lat="43.74262" lon="6.67237">
        <ele>1431.1</ele>
        <time>2024-05-26T11:19:58Z</time>
      </trkpt>
      <trkpt lat="43.74262" lon="6.67237">
        <ele>1431.1</ele>
        <time>2024-05-26T11:19:59Z</time>
      </trkpt>
      <trkpt lat="43.74262" lon="6.67237">
        <ele>1431.1</ele>
        <time>2024-05-26T11:20:00Z</time>
      </trkpt>
      <trkpt lat="43.74262" lon="6.67237">
        <ele>1431.1</ele>
        <time>2024-05-26T11:20:01Z</time>
      </trkpt>
      <trkpt lat="43.74262" lon="6.67237">
        <ele>1431.1</ele>
        <time>2024-05-26T11:20:02Z</time>
      </trkpt>
      <trkpt lat="43.74262" lon="6.67237">
        <ele>1431</ele>
        <time>2024-05-26T11:20:03Z</time>
      </trkpt>
      <trkpt lat="43.74261" lon="6.67237">
        <ele>1431</ele>
        <time>2024-05-26T11:20:04Z</time>
      </trkpt>
      <trkpt lat="43.74261" lon="6.67237">
        <ele>1431</ele>
        <time>2024-05-26T11:20:05Z</time>
      </trkpt>
      <trkpt lat="43.74261" lon="6.67237">
        <ele>1431</ele>
        <time>2024-05-26T11:20:06Z</time>
      </trkpt>
      <trkpt lat="43.74261" lon="6.67237">
        <ele>1431</ele>
        <time>2024-05-26T11:20:07Z</time>
      </trkpt>
      <trkpt lat="43.74261" lon="6.67237">
        <ele>1431.1</ele>
        <time>2024-05-26T11:20:08Z</time>
      </trkpt>
      <trkpt lat="43.74261" lon="6.67237">
        <ele>1431.1</ele>
        <time>2024-05-26T11:20:09Z</time>
      </trkpt>
      <trkpt lat="43.74261" lon="6.67237">
        <ele>1431.1</ele>
        <time>2024-05-26T11:20:10Z</time>
      </trkpt>
      <trkpt lat="43.74261" lon="6.67237">
        <ele>1431.1</ele>
        <time>2024-05-26T11:20:11Z</time>
      </trkpt>
      <trkpt lat="43.74261" lon="6.67237">
        <ele>1431.1</ele>
        <time>2024-05-26T11:20:12Z</time>
      </trkpt>
      <trkpt lat="43.74261" lon="6.67237">
        <ele>1431.2</ele>
        <time>2024-05-26T11:20:13Z</time>
      </trkpt>
      <trkpt lat="43.74261" lon="6.67237">
        <ele>1431.1</ele>
        <time>2024-05-26T11:20:14Z</time>
      </trkpt>
      <trkpt lat="43.7426" lon="6.67237">
        <ele>1431.1</ele>
        <time>2024-05-26T11:20:15Z</time>
      </trkpt>
      <trkpt lat="43.7426" lon="6.67237">
        <ele>1431.1</ele>
        <time>2024-05-26T11:20:16Z</time>
      </trkpt>
      <trkpt lat="43.7426" lon="6.67237">
        <ele>1431.1</ele>
        <time>2024-05-26T11:20:17Z</time>
      </trkpt>
      <trkpt lat="43.7426" lon="6.67237">
        <ele>1431</ele>
        <time>2024-05-26T11:20:18Z</time>
      </trkpt>
      <trkpt lat="43.7426" lon="6.67237">
        <ele>1431</ele>
        <time>2024-05-26T11:20:19Z</time>
      </trkpt>
      <trkpt lat="43.7426" lon="6.67237">
        <ele>1431</ele>
        <time>2024-05-26T11:20:20Z</time>
      </trkpt>
      <trkpt lat="43.7426" lon="6.67237">
        <ele>1431.1</ele>
        <time>2024-05-26T11:20:21Z</time>
      </trkpt>
      <trkpt lat="43.7426" lon="6.67237">
        <ele>1431.2</ele>
        <time>2024-05-26T11:20:22Z</time>
      </trkpt>
      <trkpt lat="43.74259" lon="6.67237">
        <ele>1431.3</ele>
        <time>2024-05-26T11:20:23Z</time>
      </trkpt>
      <trkpt lat="43.74259" lon="6.67237">
        <ele>1431.4</ele>
        <time>2024-05-26T11:20:24Z</time>
      </trkpt>
      <trkpt lat="43.74259" lon="6.67237">
        <ele>1431.4</ele>
        <time>2024-05-26T11:20:25Z</time>
      </trkpt>
      <trkpt lat="43.74259" lon="6.67237">
        <ele>1431.5</ele>
        <time>2024-05-26T11:20:26Z</time>
      </trkpt>
      <trkpt lat="43.74259" lon="6.67237">
        <ele>1431.5</ele>
        <time>2024-05-26T11:20:27Z</time>
      </trkpt>
      <trkpt lat="43.74259" lon="6.67237">
        <ele>1431.5</ele>
        <time>2024-05-26T11:20:28Z</time>
      </trkpt>
      <trkpt lat="43.74259" lon="6.67237">
        <ele>1431.5</ele>
        <time>2024-05-26T11:20:29Z</time>
      </trkpt>
      <trkpt lat="43.74259" lon="6.67237">
        <ele>1431.5</ele>
        <time>2024-05-26T11:20:30Z</time>
      </trkpt>
      <trkpt lat="43.74259" lon="6.67237">
        <ele>1431.6</ele>
        <time>2024-05-26T11:20:31Z</time>
      </trkpt>
      <trkpt lat="43.74259" lon="6.67237">
        <ele>1431.6</ele>
        <time>2024-05-26T11:20:32Z</time>
      </trkpt>
      <trkpt lat="43.74259" lon="6.67237">
        <ele>1431.6</ele>
        <time>2024-05-26T11:20:33Z</time>
      </trkpt>
      <trkpt lat="43.74259" lon="6.67237">
        <ele>1431.7</ele>
        <time>2024-05-26T11:20:34Z</time>
      </trkpt>
      <trkpt lat="43.74258" lon="6.67237">
        <ele>1431.7</ele>
        <time>2024-05-26T11:20:35Z</time>
      </trkpt>
      <trkpt lat="43.74258" lon="6.67237">
        <ele>1431.7</ele>
        <time>2024-05-26T11:20:36Z</time>
      </trkpt>
      <trkpt lat="43.74258" lon="6.67237">
        <ele>1431.7</ele>
        <time>2024-05-26T11:20:37Z</time>
      </trkpt>
      <trkpt lat="43.74258" lon="6.67237">
        <ele>1431.7</ele>
        <time>2024-05-26T11:20:38Z</time>
      </trkpt>
      <trkpt lat="43.74258" lon="6.67237">
        <ele>1431.8</ele>
        <time>2024-05-26T11:20:39Z</time>
      </trkpt>
      <trkpt lat="43.74259" lon="6.67237">
        <ele>1431.8</ele>
        <time>2024-05-26T11:20:40Z</time>
      </trkpt>
      <trkpt lat="43.74259" lon="6.67237">
        <ele>1431.8</ele>
        <time>2024-05-26T11:20:41Z</time>
      </trkpt>
      <trkpt lat="43.74259" lon="6.67237">
        <ele>1431.8</ele>
        <time>2024-05-26T11:20:42Z</time>
      </trkpt>
      <trkpt lat="43.74259" lon="6.67237">
        <ele>1431.8</ele>
        <time>2024-05-26T11:20:43Z</time>
      </trkpt>
      <trkpt lat="43.74259" lon="6.67237">
        <ele>1431.9</ele>
        <time>2024-05-26T11:20:44Z</time>
      </trkpt>
      <trkpt lat="43.74259" lon="6.67237">
        <ele>1431.9</ele>
        <time>2024-05-26T11:20:45Z</time>
      </trkpt>
      <trkpt lat="43.74258" lon="6.67238">
        <ele>1432</ele>
        <time>2024-05-26T11:20:46Z</time>
      </trkpt>
      <trkpt lat="43.74258" lon="6.67237">
        <ele>1432</ele>
        <time>2024-05-26T11:20:47Z</time>
      </trkpt>
      <trkpt lat="43.74258" lon="6.67237">
        <ele>1432.1</ele>
        <time>2024-05-26T11:20:48Z</time>
      </trkpt>
      <trkpt lat="43.74258" lon="6.67237">
        <ele>1432.2</ele>
        <time>2024-05-26T11:20:49Z</time>
      </trkpt>
      <trkpt lat="43.74258" lon="6.67237">
        <ele>1432.2</ele>
        <time>2024-05-26T11:20:50Z</time>
      </trkpt>
      <trkpt lat="43.74258" lon="6.67237">
        <ele>1432.2</ele>
        <time>2024-05-26T11:20:51Z</time>
      </trkpt>
      <trkpt lat="43.74259" lon="6.67237">
        <ele>1432.2</ele>
        <time>2024-05-26T11:20:52Z</time>
      </trkpt>
      <trkpt lat="43.74259" lon="6.67237">
        <ele>1432.3</ele>
        <time>2024-05-26T11:20:53Z</time>
      </trkpt>
      <trkpt lat="43.74259" lon="6.67237">
        <ele>1432.2</ele>
        <time>2024-05-26T11:20:54Z</time>
      </trkpt>
      <trkpt lat="43.74259" lon="6.67237">
        <ele>1432.1</ele>
        <time>2024-05-26T11:20:55Z</time>
      </trkpt>
      <trkpt lat="43.74259" lon="6.67237">
        <ele>1432.2</ele>
        <time>2024-05-26T11:20:56Z</time>
      </trkpt>
      <trkpt lat="43.74259" lon="6.67237">
        <ele>1432.3</ele>
        <time>2024-05-26T11:20:57Z</time>
      </trkpt>
      <trkpt lat="43.74258" lon="6.67237">
        <ele>1432.3</ele>
        <time>2024-05-26T11:20:58Z</time>
      </trkpt>
      <trkpt lat="43.74258" lon="6.67237">
        <ele>1432.3</ele>
        <time>2024-05-26T11:20:59Z</time>
      </trkpt>
      <trkpt lat="43.74258" lon="6.67237">
        <ele>1432.4</ele>
        <time>2024-05-26T11:21:00Z</time>
      </trkpt>
      <trkpt lat="43.74258" lon="6.67237">
        <ele>1432.4</ele>
        <time>2024-05-26T11:21:01Z</time>
      </trkpt>
      <trkpt lat="43.74257" lon="6.67237">
        <ele>1432.5</ele>
        <time>2024-05-26T11:21:02Z</time>
      </trkpt>
      <trkpt lat="43.74257" lon="6.67237">
        <ele>1432.5</ele>
        <time>2024-05-26T11:21:03Z</time>
      </trkpt>
      <trkpt lat="43.74257" lon="6.67237">
        <ele>1432.4</ele>
        <time>2024-05-26T11:21:04Z</time>
      </trkpt>
      <trkpt lat="43.74257" lon="6.67237">
        <ele>1432.3</ele>
        <time>2024-05-26T11:21:05Z</time>
      </trkpt>
      <trkpt lat="43.74257" lon="6.67238">
        <ele>1432.2</ele>
        <time>2024-05-26T11:21:06Z</time>
      </trkpt>
      <trkpt lat="43.74257" lon="6.67238">
        <ele>1432.1</ele>
        <time>2024-05-26T11:21:07Z</time>
      </trkpt>
      <trkpt lat="43.74257" lon="6.67238">
        <ele>1432.1</ele>
        <time>2024-05-26T11:21:08Z</time>
      </trkpt>
      <trkpt lat="43.74257" lon="6.67238">
        <ele>1432.1</ele>
        <time>2024-05-26T11:21:09Z</time>
      </trkpt>
      <trkpt lat="43.74257" lon="6.67238">
        <ele>1432</ele>
        <time>2024-05-26T11:21:10Z</time>
      </trkpt>
      <trkpt lat="43.74257" lon="6.67238">
        <ele>1431.9</ele>
        <time>2024-05-26T11:21:11Z</time>
      </trkpt>
      <trkpt lat="43.74257" lon="6.67238">
        <ele>1431.9</ele>
        <time>2024-05-26T11:21:12Z</time>
      </trkpt>
      <trkpt lat="43.74257" lon="6.67238">
        <ele>1431.9</ele>
        <time>2024-05-26T11:21:13Z</time>
      </trkpt>
      <trkpt lat="43.74258" lon="6.67238">
        <ele>1432</ele>
        <time>2024-05-26T11:21:14Z</time>
      </trkpt>
      <trkpt lat="43.74258" lon="6.67237">
        <ele>1432</ele>
        <time>2024-05-26T11:21:15Z</time>
      </trkpt>
      <trkpt lat="43.74258" lon="6.67236">
        <ele>1432.2</ele>
        <time>2024-05-26T11:21:16Z</time>
      </trkpt>
      <trkpt lat="43.74258" lon="6.67236">
        <ele>1432.2</ele>
        <time>2024-05-26T11:21:17Z</time>
      </trkpt>
      <trkpt lat="43.74258" lon="6.67235">
        <ele>1432.2</ele>
        <time>2024-05-26T11:21:18Z</time>
      </trkpt>
      <trkpt lat="43.74258" lon="6.67235">
        <ele>1432.2</ele>
        <time>2024-05-26T11:21:19Z</time>
      </trkpt>
      <trkpt lat="43.74258" lon="6.67235">
        <ele>1432.2</ele>
        <time>2024-05-26T11:21:20Z</time>
      </trkpt>
      <trkpt lat="43.74258" lon="6.67235">
        <ele>1432.2</ele>
        <time>2024-05-26T11:21:21Z</time>
      </trkpt>
      <trkpt lat="43.74258" lon="6.67235">
        <ele>1432.2</ele>
        <time>2024-05-26T11:21:22Z</time>
      </trkpt>
      <trkpt lat="43.74258" lon="6.67235">
        <ele>1432.1</ele>
        <time>2024-05-26T11:21:23Z</time>
      </trkpt>
      <trkpt lat="43.74258" lon="6.67234">
        <ele>1432.1</ele>
        <time>2024-05-26T11:21:24Z</time>
      </trkpt>
      <trkpt lat="43.74258" lon="6.67234">
        <ele>1432.1</ele>
        <time>2024-05-26T11:21:25Z</time>
      </trkpt>
      <trkpt lat="43.74259" lon="6.67234">
        <ele>1432</ele>
        <time>2024-05-26T11:21:26Z</time>
      </trkpt>
      <trkpt lat="43.74259" lon="6.67233">
        <ele>1432.1</ele>
        <time>2024-05-26T11:21:27Z</time>
      </trkpt>
      <trkpt lat="43.74259" lon="6.67233">
        <ele>1432</ele>
        <time>2024-05-26T11:21:28Z</time>
      </trkpt>
      <trkpt lat="43.74259" lon="6.67232">
        <ele>1432</ele>
        <time>2024-05-26T11:21:29Z</time>
      </trkpt>
      <trkpt lat="43.74259" lon="6.67232">
        <ele>1432</ele>
        <time>2024-05-26T11:21:30Z</time>
      </trkpt>
      <trkpt lat="43.74259" lon="6.67232">
        <ele>1431.9</ele>
        <time>2024-05-26T11:21:31Z</time>
      </trkpt>
      <trkpt lat="43.74259" lon="6.67231">
        <ele>1431.9</ele>
        <time>2024-05-26T11:21:32Z</time>
      </trkpt>
      <trkpt lat="43.74257" lon="6.67231">
        <ele>1431.9</ele>
        <time>2024-05-26T11:21:33Z</time>
      </trkpt>
      <trkpt lat="43.74257" lon="6.67231">
        <ele>1431.9</ele>
        <time>2024-05-26T11:21:34Z</time>
      </trkpt>
      <trkpt lat="43.74257" lon="6.6723">
        <ele>1431.9</ele>
        <time>2024-05-26T11:21:35Z</time>
      </trkpt>
      <trkpt lat="43.74257" lon="6.67229">
        <ele>1431.9</ele>
        <time>2024-05-26T11:21:36Z</time>
      </trkpt>
      <trkpt lat="43.74257" lon="6.67228">
        <ele>1431.8</ele>
        <time>2024-05-26T11:21:37Z</time>
      </trkpt>
      <trkpt lat="43.74257" lon="6.67227">
        <ele>1431.7</ele>
        <time>2024-05-26T11:21:38Z</time>
      </trkpt>
      <trkpt lat="43.74257" lon="6.67227">
        <ele>1431.7</ele>
        <time>2024-05-26T11:21:39Z</time>
      </trkpt>
      <trkpt lat="43.74257" lon="6.67226">
        <ele>1431.7</ele>
        <time>2024-05-26T11:21:40Z</time>
      </trkpt>
      <trkpt lat="43.74258" lon="6.67226">
        <ele>1431.7</ele>
        <time>2024-05-26T11:21:41Z</time>
      </trkpt>
      <trkpt lat="43.74257" lon="6.67226">
        <ele>1431.7</ele>
        <time>2024-05-26T11:21:42Z</time>
      </trkpt>
      <trkpt lat="43.74258" lon="6.67226">
        <ele>1431.7</ele>
        <time>2024-05-26T11:21:43Z</time>
      </trkpt>
      <trkpt lat="43.74258" lon="6.67225">
        <ele>1431.7</ele>
        <time>2024-05-26T11:21:44Z</time>
      </trkpt>
      <trkpt lat="43.74258" lon="6.67225">
        <ele>1431.8</ele>
        <time>2024-05-26T11:21:45Z</time>
      </trkpt>
      <trkpt lat="43.74258" lon="6.67225">
        <ele>1431.8</ele>
        <time>2024-05-26T11:21:46Z</time>
      </trkpt>
      <trkpt lat="43.74257" lon="6.67225">
        <ele>1431.9</ele>
        <time>2024-05-26T11:21:47Z</time>
      </trkpt>
      <trkpt lat="43.74257" lon="6.67226">
        <ele>1431.9</ele>
        <time>2024-05-26T11:21:48Z</time>
      </trkpt>
      <trkpt lat="43.74256" lon="6.67226">
        <ele>1432</ele>
        <time>2024-05-26T11:21:49Z</time>
      </trkpt>
      <trkpt lat="43.74257" lon="6.67226">
        <ele>1432</ele>
        <time>2024-05-26T11:21:50Z</time>
      </trkpt>
      <trkpt lat="43.74256" lon="6.67226">
        <ele>1432.1</ele>
        <time>2024-05-26T11:21:51Z</time>
      </trkpt>
      <trkpt lat="43.74256" lon="6.67226">
        <ele>1432.1</ele>
        <time>2024-05-26T11:21:52Z</time>
      </trkpt>
      <trkpt lat="43.74256" lon="6.67226">
        <ele>1432.1</ele>
        <time>2024-05-26T11:21:53Z</time>
      </trkpt>
      <trkpt lat="43.74256" lon="6.67226">
        <ele>1432.1</ele>
        <time>2024-05-26T11:21:54Z</time>
      </trkpt>
      <trkpt lat="43.74256" lon="6.67226">
        <ele>1432.1</ele>
        <time>2024-05-26T11:21:55Z</time>
      </trkpt>
      <trkpt lat="43.74256" lon="6.67226">
        <ele>1432</ele>
        <time>2024-05-26T11:21:56Z</time>
      </trkpt>
      <trkpt lat="43.74256" lon="6.67226">
        <ele>1432</ele>
        <time>2024-05-26T11:21:57Z</time>
      </trkpt>
      <trkpt lat="43.74256" lon="6.67226">
        <ele>1431.9</ele>
        <time>2024-05-26T11:21:58Z</time>
      </trkpt>
      <trkpt lat="43.74256" lon="6.67226">
        <ele>1432</ele>
        <time>2024-05-26T11:21:59Z</time>
      </trkpt>
      <trkpt lat="43.74256" lon="6.67226">
        <ele>1432</ele>
        <time>2024-05-26T11:22:00Z</time>
      </trkpt>
      <trkpt lat="43.74255" lon="6.67226">
        <ele>1432.1</ele>
        <time>2024-05-26T11:22:01Z</time>
      </trkpt>
      <trkpt lat="43.74255" lon="6.67226">
        <ele>1432.1</ele>
        <time>2024-05-26T11:22:02Z</time>
      </trkpt>
      <trkpt lat="43.74255" lon="6.67226">
        <ele>1432.2</ele>
        <time>2024-05-26T11:22:03Z</time>
      </trkpt>
      <trkpt lat="43.74255" lon="6.67226">
        <ele>1432.2</ele>
        <time>2024-05-26T11:22:04Z</time>
      </trkpt>
      <trkpt lat="43.74255" lon="6.67227">
        <ele>1432.2</ele>
        <time>2024-05-26T11:22:05Z</time>
      </trkpt>
      <trkpt lat="43.74255" lon="6.67227">
        <ele>1432.2</ele>
        <time>2024-05-26T11:22:06Z</time>
      </trkpt>
      <trkpt lat="43.74254" lon="6.67227">
        <ele>1432.2</ele>
        <time>2024-05-26T11:22:07Z</time>
      </trkpt>
      <trkpt lat="43.74254" lon="6.67227">
        <ele>1432.2</ele>
        <time>2024-05-26T11:22:08Z</time>
      </trkpt>
      <trkpt lat="43.74254" lon="6.67227">
        <ele>1432.2</ele>
        <time>2024-05-26T11:22:09Z</time>
      </trkpt>
      <trkpt lat="43.74254" lon="6.67227">
        <ele>1432.2</ele>
        <time>2024-05-26T11:22:10Z</time>
      </trkpt>
      <trkpt lat="43.74254" lon="6.67226">
        <ele>1432.2</ele>
        <time>2024-05-26T11:22:11Z</time>
      </trkpt>
      <trkpt lat="43.74253" lon="6.67226">
        <ele>1432.2</ele>
        <time>2024-05-26T11:22:12Z</time>
      </trkpt>
      <trkpt lat="43.74253" lon="6.67226">
        <ele>1432.3</ele>
        <time>2024-05-26T11:22:13Z</time>
      </trkpt>
      <trkpt lat="43.74253" lon="6.67226">
        <ele>1432.3</ele>
        <time>2024-05-26T11:22:14Z</time>
      </trkpt>
      <trkpt lat="43.74253" lon="6.67226">
        <ele>1432.3</ele>
        <time>2024-05-26T11:22:15Z</time>
      </trkpt>
      <trkpt lat="43.74253" lon="6.67225">
        <ele>1432.5</ele>
        <time>2024-05-26T11:22:16Z</time>
      </trkpt>
      <trkpt lat="43.74253" lon="6.67225">
        <ele>1432.5</ele>
        <time>2024-05-26T11:22:17Z</time>
      </trkpt>
      <trkpt lat="43.74252" lon="6.67225">
        <ele>1432.5</ele>
        <time>2024-05-26T11:22:18Z</time>
      </trkpt>
      <trkpt lat="43.74253" lon="6.67226">
        <ele>1432.5</ele>
        <time>2024-05-26T11:22:19Z</time>
      </trkpt>
      <trkpt lat="43.74253" lon="6.67226">
        <ele>1432.5</ele>
        <time>2024-05-26T11:22:20Z</time>
      </trkpt>
      <trkpt lat="43.74253" lon="6.67226">
        <ele>1432.7</ele>
        <time>2024-05-26T11:22:21Z</time>
      </trkpt>
      <trkpt lat="43.74252" lon="6.67226">
        <ele>1432.8</ele>
        <time>2024-05-26T11:22:22Z</time>
      </trkpt>
      <trkpt lat="43.74252" lon="6.67226">
        <ele>1432.7</ele>
        <time>2024-05-26T11:22:23Z</time>
      </trkpt>
      <trkpt lat="43.74252" lon="6.67226">
        <ele>1432.7</ele>
        <time>2024-05-26T11:22:24Z</time>
      </trkpt>
      <trkpt lat="43.74253" lon="6.67226">
        <ele>1432.8</ele>
        <time>2024-05-26T11:22:25Z</time>
      </trkpt>
      <trkpt lat="43.74253" lon="6.67227">
        <ele>1432.9</ele>
        <time>2024-05-26T11:22:26Z</time>
      </trkpt>
      <trkpt lat="43.74253" lon="6.67227">
        <ele>1432.9</ele>
        <time>2024-05-26T11:22:27Z</time>
      </trkpt>
      <trkpt lat="43.74253" lon="6.67227">
        <ele>1432.9</ele>
        <time>2024-05-26T11:22:28Z</time>
      </trkpt>
      <trkpt lat="43.74254" lon="6.67227">
        <ele>1432.8</ele>
        <time>2024-05-26T11:22:29Z</time>
      </trkpt>
      <trkpt lat="43.74254" lon="6.67227">
        <ele>1432.7</ele>
        <time>2024-05-26T11:22:30Z</time>
      </trkpt>
      <trkpt lat="43.74254" lon="6.67227">
        <ele>1432.7</ele>
        <time>2024-05-26T11:22:31Z</time>
      </trkpt>
      <trkpt lat="43.74254" lon="6.67228">
        <ele>1432.6</ele>
        <time>2024-05-26T11:22:32Z</time>
      </trkpt>
      <trkpt lat="43.74254" lon="6.67228">
        <ele>1432.6</ele>
        <time>2024-05-26T11:22:33Z</time>
      </trkpt>
      <trkpt lat="43.74255" lon="6.67227">
        <ele>1432.6</ele>
        <time>2024-05-26T11:22:34Z</time>
      </trkpt>
      <trkpt lat="43.74255" lon="6.67227">
        <ele>1432.6</ele>
        <time>2024-05-26T11:22:35Z</time>
      </trkpt>
      <trkpt lat="43.74255" lon="6.67227">
        <ele>1432.6</ele>
        <time>2024-05-26T11:22:36Z</time>
      </trkpt>
      <trkpt lat="43.74255" lon="6.67226">
        <ele>1432.7</ele>
        <time>2024-05-26T11:22:37Z</time>
      </trkpt>
      <trkpt lat="43.74255" lon="6.67226">
        <ele>1432.7</ele>
        <time>2024-05-26T11:22:38Z</time>
      </trkpt>
      <trkpt lat="43.74255" lon="6.67226">
        <ele>1432.6</ele>
        <time>2024-05-26T11:22:39Z</time>
      </trkpt>
      <trkpt lat="43.74255" lon="6.67226">
        <ele>1432.7</ele>
        <time>2024-05-26T11:22:40Z</time>
      </trkpt>
      <trkpt lat="43.74254" lon="6.67226">
        <ele>1432.7</ele>
        <time>2024-05-26T11:22:41Z</time>
      </trkpt>
      <trkpt lat="43.74254" lon="6.67226">
        <ele>1432.6</ele>
        <time>2024-05-26T11:22:42Z</time>
      </trkpt>
      <trkpt lat="43.74254" lon="6.67226">
        <ele>1432.5</ele>
        <time>2024-05-26T11:22:43Z</time>
      </trkpt>
      <trkpt lat="43.74255" lon="6.67225">
        <ele>1432.4</ele>
        <time>2024-05-26T11:22:44Z</time>
      </trkpt>
      <trkpt lat="43.74255" lon="6.67225">
        <ele>1432.3</ele>
        <time>2024-05-26T11:22:45Z</time>
      </trkpt>
      <trkpt lat="43.74255" lon="6.67225">
        <ele>1432.3</ele>
        <time>2024-05-26T11:22:46Z</time>
      </trkpt>
      <trkpt lat="43.74255" lon="6.67225">
        <ele>1432.3</ele>
        <time>2024-05-26T11:22:47Z</time>
      </trkpt>
      <trkpt lat="43.74255" lon="6.67224">
        <ele>1432.2</ele>
        <time>2024-05-26T11:22:48Z</time>
      </trkpt>
      <trkpt lat="43.74255" lon="6.67224">
        <ele>1432.2</ele>
        <time>2024-05-26T11:22:49Z</time>
      </trkpt>
      <trkpt lat="43.74255" lon="6.67224">
        <ele>1432.2</ele>
        <time>2024-05-26T11:22:50Z</time>
      </trkpt>
      <trkpt lat="43.74255" lon="6.67224">
        <ele>1432.2</ele>
        <time>2024-05-26T11:22:51Z</time>
      </trkpt>
      <trkpt lat="43.74255" lon="6.67225">
        <ele>1432.1</ele>
        <time>2024-05-26T11:22:52Z</time>
      </trkpt>
      <trkpt lat="43.74254" lon="6.67225">
        <ele>1432.1</ele>
        <time>2024-05-26T11:22:53Z</time>
      </trkpt>
      <trkpt lat="43.74254" lon="6.67226">
        <ele>1432.1</ele>
        <time>2024-05-26T11:22:54Z</time>
      </trkpt>
      <trkpt lat="43.74254" lon="6.67226">
        <ele>1432.1</ele>
        <time>2024-05-26T11:22:55Z</time>
      </trkpt>
      <trkpt lat="43.74253" lon="6.67226">
        <ele>1432.3</ele>
        <time>2024-05-26T11:22:56Z</time>
      </trkpt>
      <trkpt lat="43.74253" lon="6.67227">
        <ele>1432.2</ele>
        <time>2024-05-26T11:22:57Z</time>
      </trkpt>
      <trkpt lat="43.74253" lon="6.67227">
        <ele>1432.2</ele>
        <time>2024-05-26T11:22:58Z</time>
      </trkpt>
      <trkpt lat="43.74253" lon="6.67227">
        <ele>1432.2</ele>
        <time>2024-05-26T11:22:59Z</time>
      </trkpt>
      <trkpt lat="43.74253" lon="6.67227">
        <ele>1432.3</ele>
        <time>2024-05-26T11:23:00Z</time>
      </trkpt>
      <trkpt lat="43.74253" lon="6.67227">
        <ele>1432.2</ele>
        <time>2024-05-26T11:23:01Z</time>
      </trkpt>
      <trkpt lat="43.74253" lon="6.67227">
        <ele>1432.1</ele>
        <time>2024-05-26T11:23:02Z</time>
      </trkpt>
      <trkpt lat="43.74253" lon="6.67227">
        <ele>1432.1</ele>
        <time>2024-05-26T11:23:03Z</time>
      </trkpt>
      <trkpt lat="43.74254" lon="6.67228">
        <ele>1432.2</ele>
        <time>2024-05-26T11:23:04Z</time>
      </trkpt>
      <trkpt lat="43.74254" lon="6.67228">
        <ele>1432.2</ele>
        <time>2024-05-26T11:23:05Z</time>
      </trkpt>
      <trkpt lat="43.74254" lon="6.67228">
        <ele>1432.2</ele>
        <time>2024-05-26T11:23:06Z</time>
      </trkpt>
      <trkpt lat="43.74254" lon="6.67229">
        <ele>1432.1</ele>
        <time>2024-05-26T11:23:07Z</time>
      </trkpt>
      <trkpt lat="43.74254" lon="6.67229">
        <ele>1432.1</ele>
        <time>2024-05-26T11:23:08Z</time>
      </trkpt>
      <trkpt lat="43.74254" lon="6.67229">
        <ele>1432.3</ele>
        <time>2024-05-26T11:23:09Z</time>
      </trkpt>
      <trkpt lat="43.74254" lon="6.6723">
        <ele>1432.4</ele>
        <time>2024-05-26T11:23:10Z</time>
      </trkpt>
      <trkpt lat="43.74254" lon="6.6723">
        <ele>1432.4</ele>
        <time>2024-05-26T11:23:11Z</time>
      </trkpt>
      <trkpt lat="43.74254" lon="6.6723">
        <ele>1432.3</ele>
        <time>2024-05-26T11:23:12Z</time>
      </trkpt>
      <trkpt lat="43.74254" lon="6.67231">
        <ele>1432.3</ele>
        <time>2024-05-26T11:23:13Z</time>
      </trkpt>
      <trkpt lat="43.74254" lon="6.67231">
        <ele>1432.4</ele>
        <time>2024-05-26T11:23:14Z</time>
      </trkpt>
      <trkpt lat="43.74255" lon="6.67231">
        <ele>1432.2</ele>
        <time>2024-05-26T11:23:15Z</time>
      </trkpt>
      <trkpt lat="43.74255" lon="6.67231">
        <ele>1432.3</ele>
        <time>2024-05-26T11:23:16Z</time>
      </trkpt>
      <trkpt lat="43.74255" lon="6.67231">
        <ele>1432.4</ele>
        <time>2024-05-26T11:23:17Z</time>
      </trkpt>
      <trkpt lat="43.74255" lon="6.67231">
        <ele>1432.5</ele>
        <time>2024-05-26T11:23:18Z</time>
      </trkpt>
      <trkpt lat="43.74255" lon="6.67231">
        <ele>1432.4</ele>
        <time>2024-05-26T11:23:19Z</time>
      </trkpt>
      <trkpt lat="43.74255" lon="6.67231">
        <ele>1432.4</ele>
        <time>2024-05-26T11:23:20Z</time>
      </trkpt>
      <trkpt lat="43.74255" lon="6.67231">
        <ele>1432.3</ele>
        <time>2024-05-26T11:23:21Z</time>
      </trkpt>
      <trkpt lat="43.74255" lon="6.67232">
        <ele>1432.3</ele>
        <time>2024-05-26T11:23:22Z</time>
      </trkpt>
      <trkpt lat="43.74255" lon="6.67232">
        <ele>1432.4</ele>
        <time>2024-05-26T11:23:23Z</time>
      </trkpt>
      <trkpt lat="43.74255" lon="6.67232">
        <ele>1432.4</ele>
        <time>2024-05-26T11:23:24Z</time>
      </trkpt>
      <trkpt lat="43.74255" lon="6.67232">
        <ele>1432.4</ele>
        <time>2024-05-26T11:23:25Z</time>
      </trkpt>
      <trkpt lat="43.74255" lon="6.67233">
        <ele>1432.4</ele>
        <time>2024-05-26T11:23:26Z</time>
      </trkpt>
      <trkpt lat="43.74255" lon="6.67233">
        <ele>1432.2</ele>
        <time>2024-05-26T11:23:27Z</time>
      </trkpt>
      <trkpt lat="43.74255" lon="6.67233">
        <ele>1432.2</ele>
        <time>2024-05-26T11:23:28Z</time>
      </trkpt>
      <trkpt lat="43.74255" lon="6.67233">
        <ele>1432.2</ele>
        <time>2024-05-26T11:23:29Z</time>
      </trkpt>
      <trkpt lat="43.74255" lon="6.67233">
        <ele>1432.2</ele>
        <time>2024-05-26T11:23:30Z</time>
      </trkpt>
      <trkpt lat="43.74255" lon="6.67234">
        <ele>1432.2</ele>
        <time>2024-05-26T11:23:31Z</time>
      </trkpt>
      <trkpt lat="43.74255" lon="6.67234">
        <ele>1432.1</ele>
        <time>2024-05-26T11:23:32Z</time>
      </trkpt>
      <trkpt lat="43.74256" lon="6.67234">
        <ele>1432.2</ele>
        <time>2024-05-26T11:23:33Z</time>
      </trkpt>
      <trkpt lat="43.74256" lon="6.67234">
        <ele>1432.2</ele>
        <time>2024-05-26T11:23:34Z</time>
      </trkpt>
      <trkpt lat="43.74256" lon="6.67234">
        <ele>1432.2</ele>
        <time>2024-05-26T11:23:35Z</time>
      </trkpt>
      <trkpt lat="43.74256" lon="6.67234">
        <ele>1432.2</ele>
        <time>2024-05-26T11:23:36Z</time>
      </trkpt>
      <trkpt lat="43.74256" lon="6.67235">
        <ele>1432.3</ele>
        <time>2024-05-26T11:23:37Z</time>
      </trkpt>
      <trkpt lat="43.74256" lon="6.67235">
        <ele>1432.3</ele>
        <time>2024-05-26T11:23:38Z</time>
      </trkpt>
      <trkpt lat="43.74256" lon="6.67235">
        <ele>1432.2</ele>
        <time>2024-05-26T11:23:39Z</time>
      </trkpt>
      <trkpt lat="43.74256" lon="6.67235">
        <ele>1432.2</ele>
        <time>2024-05-26T11:23:40Z</time>
      </trkpt>
      <trkpt lat="43.74256" lon="6.67235">
        <ele>1432.2</ele>
        <time>2024-05-26T11:23:41Z</time>
      </trkpt>
      <trkpt lat="43.74255" lon="6.67236">
        <ele>1432.1</ele>
        <time>2024-05-26T11:23:42Z</time>
      </trkpt>
      <trkpt lat="43.74255" lon="6.67236">
        <ele>1432</ele>
        <time>2024-05-26T11:23:43Z</time>
      </trkpt>
      <trkpt lat="43.74255" lon="6.67236">
        <ele>1432</ele>
        <time>2024-05-26T11:23:44Z</time>
      </trkpt>
      <trkpt lat="43.74255" lon="6.67236">
        <ele>1432</ele>
        <time>2024-05-26T11:23:45Z</time>
      </trkpt>
      <trkpt lat="43.74255" lon="6.67236">
        <ele>1432</ele>
        <time>2024-05-26T11:23:46Z</time>
      </trkpt>
      <trkpt lat="43.74255" lon="6.67236">
        <ele>1432</ele>
        <time>2024-05-26T11:23:47Z</time>
      </trkpt>
      <trkpt lat="43.74255" lon="6.67236">
        <ele>1432</ele>
        <time>2024-05-26T11:23:48Z</time>
      </trkpt>
      <trkpt lat="43.74255" lon="6.67236">
        <ele>1432</ele>
        <time>2024-05-26T11:23:49Z</time>
      </trkpt>
      <trkpt lat="43.74255" lon="6.67236">
        <ele>1432</ele>
        <time>2024-05-26T11:23:50Z</time>
      </trkpt>
      <trkpt lat="43.74255" lon="6.67236">
        <ele>1432</ele>
        <time>2024-05-26T11:23:51Z</time>
      </trkpt>
      <trkpt lat="43.74255" lon="6.67237">
        <ele>1432</ele>
        <time>2024-05-26T11:23:52Z</time>
      </trkpt>
      <trkpt lat="43.74255" lon="6.67237">
        <ele>1431.9</ele>
        <time>2024-05-26T11:23:53Z</time>
      </trkpt>
      <trkpt lat="43.74255" lon="6.67236">
        <ele>1431.9</ele>
        <time>2024-05-26T11:23:54Z</time>
      </trkpt>
      <trkpt lat="43.74256" lon="6.67236">
        <ele>1431.9</ele>
        <time>2024-05-26T11:23:55Z</time>
      </trkpt>
      <trkpt lat="43.74256" lon="6.67236">
        <ele>1431.8</ele>
        <time>2024-05-26T11:23:56Z</time>
      </trkpt>
      <trkpt lat="43.74256" lon="6.67236">
        <ele>1431.8</ele>
        <time>2024-05-26T11:23:57Z</time>
      </trkpt>
      <trkpt lat="43.74256" lon="6.67236">
        <ele>1431.8</ele>
        <time>2024-05-26T11:23:58Z</time>
      </trkpt>
      <trkpt lat="43.74256" lon="6.67236">
        <ele>1431.8</ele>
        <time>2024-05-26T11:23:59Z</time>
      </trkpt>
      <trkpt lat="43.74256" lon="6.67236">
        <ele>1431.8</ele>
        <time>2024-05-26T11:24:00Z</time>
      </trkpt>
      <trkpt lat="43.74256" lon="6.67236">
        <ele>1431.9</ele>
        <time>2024-05-26T11:24:01Z</time>
      </trkpt>
      <trkpt lat="43.74256" lon="6.67235">
        <ele>1431.9</ele>
        <time>2024-05-26T11:24:02Z</time>
      </trkpt>
      <trkpt lat="43.74257" lon="6.67235">
        <ele>1432</ele>
        <time>2024-05-26T11:24:03Z</time>
      </trkpt>
      <trkpt lat="43.74257" lon="6.67235">
        <ele>1432</ele>
        <time>2024-05-26T11:24:04Z</time>
      </trkpt>
      <trkpt lat="43.74257" lon="6.67235">
        <ele>1432.1</ele>
        <time>2024-05-26T11:24:05Z</time>
      </trkpt>
      <trkpt lat="43.74257" lon="6.67235">
        <ele>1432.1</ele>
        <time>2024-05-26T11:24:06Z</time>
      </trkpt>
      <trkpt lat="43.74257" lon="6.67235">
        <ele>1432.1</ele>
        <time>2024-05-26T11:24:07Z</time>
      </trkpt>
      <trkpt lat="43.74257" lon="6.67235">
        <ele>1432.1</ele>
        <time>2024-05-26T11:24:08Z</time>
      </trkpt>
      <trkpt lat="43.74256" lon="6.67234">
        <ele>1432.1</ele>
        <time>2024-05-26T11:24:09Z</time>
      </trkpt>
      <trkpt lat="43.74256" lon="6.67234">
        <ele>1432.2</ele>
        <time>2024-05-26T11:24:10Z</time>
      </trkpt>
      <trkpt lat="43.74256" lon="6.67234">
        <ele>1432.2</ele>
        <time>2024-05-26T11:24:11Z</time>
      </trkpt>
      <trkpt lat="43.74257" lon="6.67233">
        <ele>1432.2</ele>
        <time>2024-05-26T11:24:12Z</time>
      </trkpt>
      <trkpt lat="43.74257" lon="6.67233">
        <ele>1432.2</ele>
        <time>2024-05-26T11:24:13Z</time>
      </trkpt>
      <trkpt lat="43.74257" lon="6.67233">
        <ele>1432.2</ele>
        <time>2024-05-26T11:24:14Z</time>
      </trkpt>
      <trkpt lat="43.74257" lon="6.67233">
        <ele>1432.2</ele>
        <time>2024-05-26T11:24:15Z</time>
      </trkpt>
      <trkpt lat="43.74257" lon="6.67233">
        <ele>1432.2</ele>
        <time>2024-05-26T11:24:16Z</time>
      </trkpt>
      <trkpt lat="43.74258" lon="6.67233">
        <ele>1432.2</ele>
        <time>2024-05-26T11:24:17Z</time>
      </trkpt>
      <trkpt lat="43.74258" lon="6.67233">
        <ele>1432.2</ele>
        <time>2024-05-26T11:24:18Z</time>
      </trkpt>
      <trkpt lat="43.74258" lon="6.67233">
        <ele>1432.2</ele>
        <time>2024-05-26T11:24:19Z</time>
      </trkpt>
      <trkpt lat="43.74258" lon="6.67233">
        <ele>1432.2</ele>
        <time>2024-05-26T11:24:20Z</time>
      </trkpt>
      <trkpt lat="43.74258" lon="6.67234">
        <ele>1432.2</ele>
        <time>2024-05-26T11:24:21Z</time>
      </trkpt>
      <trkpt lat="43.74258" lon="6.67234">
        <ele>1432.3</ele>
        <time>2024-05-26T11:24:22Z</time>
      </trkpt>
      <trkpt lat="43.74258" lon="6.67234">
        <ele>1432.3</ele>
        <time>2024-05-26T11:24:23Z</time>
      </trkpt>
      <trkpt lat="43.74258" lon="6.67234">
        <ele>1432.2</ele>
        <time>2024-05-26T11:24:24Z</time>
      </trkpt>
      <trkpt lat="43.74258" lon="6.67234">
        <ele>1432.2</ele>
        <time>2024-05-26T11:24:25Z</time>
      </trkpt>
      <trkpt lat="43.74258" lon="6.67234">
        <ele>1432.2</ele>
        <time>2024-05-26T11:24:26Z</time>
      </trkpt>
      <trkpt lat="43.74259" lon="6.67234">
        <ele>1432.2</ele>
        <time>2024-05-26T11:24:27Z</time>
      </trkpt>
      <trkpt lat="43.74259" lon="6.67234">
        <ele>1432.2</ele>
        <time>2024-05-26T11:24:28Z</time>
      </trkpt>
      <trkpt lat="43.74259" lon="6.67233">
        <ele>1432.1</ele>
        <time>2024-05-26T11:24:29Z</time>
      </trkpt>
      <trkpt lat="43.74259" lon="6.67233">
        <ele>1432.1</ele>
        <time>2024-05-26T11:24:30Z</time>
      </trkpt>
      <trkpt lat="43.7426" lon="6.67233">
        <ele>1432.1</ele>
        <time>2024-05-26T11:24:31Z</time>
      </trkpt>
      <trkpt lat="43.7426" lon="6.67233">
        <ele>1432.1</ele>
        <time>2024-05-26T11:24:32Z</time>
      </trkpt>
      <trkpt lat="43.7426" lon="6.67233">
        <ele>1432.2</ele>
        <time>2024-05-26T11:24:33Z</time>
      </trkpt>
      <trkpt lat="43.7426" lon="6.67232">
        <ele>1432.2</ele>
        <time>2024-05-26T11:24:34Z</time>
      </trkpt>
      <trkpt lat="43.7426" lon="6.67232">
        <ele>1432.2</ele>
        <time>2024-05-26T11:24:35Z</time>
      </trkpt>
      <trkpt lat="43.7426" lon="6.67232">
        <ele>1432.2</ele>
        <time>2024-05-26T11:24:36Z</time>
      </trkpt>
      <trkpt lat="43.7426" lon="6.67232">
        <ele>1432.1</ele>
        <time>2024-05-26T11:24:37Z</time>
      </trkpt>
      <trkpt lat="43.7426" lon="6.67232">
        <ele>1432.1</ele>
        <time>2024-05-26T11:24:38Z</time>
      </trkpt>
      <trkpt lat="43.7426" lon="6.67232">
        <ele>1432.1</ele>
        <time>2024-05-26T11:24:39Z</time>
      </trkpt>
      <trkpt lat="43.7426" lon="6.67232">
        <ele>1432.1</ele>
        <time>2024-05-26T11:24:40Z</time>
      </trkpt>
      <trkpt lat="43.7426" lon="6.67232">
        <ele>1432</ele>
        <time>2024-05-26T11:24:41Z</time>
      </trkpt>
      <trkpt lat="43.74261" lon="6.67231">
        <ele>1432.1</ele>
        <time>2024-05-26T11:24:42Z</time>
      </trkpt>
      <trkpt lat="43.7426" lon="6.67231">
        <ele>1432.1</ele>
        <time>2024-05-26T11:24:43Z</time>
      </trkpt>
      <trkpt lat="43.7426" lon="6.67231">
        <ele>1432.1</ele>
        <time>2024-05-26T11:24:44Z</time>
      </trkpt>
      <trkpt lat="43.7426" lon="6.67231">
        <ele>1432.1</ele>
        <time>2024-05-26T11:24:45Z</time>
      </trkpt>
      <trkpt lat="43.74261" lon="6.67231">
        <ele>1432.2</ele>
        <time>2024-05-26T11:24:46Z</time>
      </trkpt>
      <trkpt lat="43.74261" lon="6.67231">
        <ele>1432.2</ele>
        <time>2024-05-26T11:24:47Z</time>
      </trkpt>
      <trkpt lat="43.74261" lon="6.67231">
        <ele>1432.2</ele>
        <time>2024-05-26T11:24:48Z</time>
      </trkpt>
      <trkpt lat="43.74261" lon="6.67231">
        <ele>1432.3</ele>
        <time>2024-05-26T11:24:49Z</time>
      </trkpt>
      <trkpt lat="43.74261" lon="6.67231">
        <ele>1432.3</ele>
        <time>2024-05-26T11:24:50Z</time>
      </trkpt>
      <trkpt lat="43.74261" lon="6.67232">
        <ele>1432.3</ele>
        <time>2024-05-26T11:24:51Z</time>
      </trkpt>
      <trkpt lat="43.74261" lon="6.67231">
        <ele>1432.3</ele>
        <time>2024-05-26T11:24:52Z</time>
      </trkpt>
      <trkpt lat="43.74261" lon="6.67231">
        <ele>1432.2</ele>
        <time>2024-05-26T11:24:53Z</time>
      </trkpt>
      <trkpt lat="43.74262" lon="6.67231">
        <ele>1432.2</ele>
        <time>2024-05-26T11:24:54Z</time>
      </trkpt>
      <trkpt lat="43.74262" lon="6.67231">
        <ele>1432.2</ele>
        <time>2024-05-26T11:24:55Z</time>
      </trkpt>
      <trkpt lat="43.74263" lon="6.67231">
        <ele>1432.1</ele>
        <time>2024-05-26T11:24:56Z</time>
      </trkpt>
      <trkpt lat="43.74262" lon="6.67231">
        <ele>1432.1</ele>
        <time>2024-05-26T11:24:57Z</time>
      </trkpt>
      <trkpt lat="43.74263" lon="6.67231">
        <ele>1432.1</ele>
        <time>2024-05-26T11:24:58Z</time>
      </trkpt>
      <trkpt lat="43.74262" lon="6.67231">
        <ele>1432</ele>
        <time>2024-05-26T11:24:59Z</time>
      </trkpt>
      <trkpt lat="43.74262" lon="6.67231">
        <ele>1432</ele>
        <time>2024-05-26T11:25:00Z</time>
      </trkpt>
      <trkpt lat="43.74262" lon="6.67231">
        <ele>1431.9</ele>
        <time>2024-05-26T11:25:01Z</time>
      </trkpt>
      <trkpt lat="43.74262" lon="6.67231">
        <ele>1431.9</ele>
        <time>2024-05-26T11:25:02Z</time>
      </trkpt>
      <trkpt lat="43.74262" lon="6.67231">
        <ele>1431.9</ele>
        <time>2024-05-26T11:25:03Z</time>
      </trkpt>
      <trkpt lat="43.74262" lon="6.67231">
        <ele>1432</ele>
        <time>2024-05-26T11:25:04Z</time>
      </trkpt>
      <trkpt lat="43.74262" lon="6.67231">
        <ele>1432</ele>
        <time>2024-05-26T11:25:05Z</time>
      </trkpt>
      <trkpt lat="43.74262" lon="6.67232">
        <ele>1432</ele>
        <time>2024-05-26T11:25:06Z</time>
      </trkpt>
      <trkpt lat="43.74262" lon="6.67232">
        <ele>1432</ele>
        <time>2024-05-26T11:25:07Z</time>
      </trkpt>
      <trkpt lat="43.74262" lon="6.67232">
        <ele>1432</ele>
        <time>2024-05-26T11:25:08Z</time>
      </trkpt>
      <trkpt lat="43.74262" lon="6.67232">
        <ele>1432</ele>
        <time>2024-05-26T11:25:09Z</time>
      </trkpt>
      <trkpt lat="43.74262" lon="6.67232">
        <ele>1432</ele>
        <time>2024-05-26T11:25:10Z</time>
      </trkpt>
      <trkpt lat="43.74262" lon="6.67232">
        <ele>1431.9</ele>
        <time>2024-05-26T11:25:11Z</time>
      </trkpt>
      <trkpt lat="43.74262" lon="6.67232">
        <ele>1432</ele>
        <time>2024-05-26T11:25:12Z</time>
      </trkpt>
      <trkpt lat="43.74262" lon="6.67232">
        <ele>1431.9</ele>
        <time>2024-05-26T11:25:13Z</time>
      </trkpt>
      <trkpt lat="43.74262" lon="6.67231">
        <ele>1431.8</ele>
        <time>2024-05-26T11:25:14Z</time>
      </trkpt>
      <trkpt lat="43.74262" lon="6.67231">
        <ele>1431.8</ele>
        <time>2024-05-26T11:25:15Z</time>
      </trkpt>
      <trkpt lat="43.74262" lon="6.67231">
        <ele>1431.8</ele>
        <time>2024-05-26T11:25:16Z</time>
      </trkpt>
      <trkpt lat="43.74262" lon="6.67231">
        <ele>1431.7</ele>
        <time>2024-05-26T11:25:17Z</time>
      </trkpt>
      <trkpt lat="43.74262" lon="6.67231">
        <ele>1431.7</ele>
        <time>2024-05-26T11:25:18Z</time>
      </trkpt>
      <trkpt lat="43.74261" lon="6.67231">
        <ele>1431.7</ele>
        <time>2024-05-26T11:25:19Z</time>
      </trkpt>
      <trkpt lat="43.74262" lon="6.67231">
        <ele>1431.8</ele>
        <time>2024-05-26T11:25:20Z</time>
      </trkpt>
      <trkpt lat="43.74261" lon="6.67232">
        <ele>1431.8</ele>
        <time>2024-05-26T11:25:21Z</time>
      </trkpt>
      <trkpt lat="43.74261" lon="6.67232">
        <ele>1431.8</ele>
        <time>2024-05-26T11:25:22Z</time>
      </trkpt>
      <trkpt lat="43.74261" lon="6.67232">
        <ele>1431.9</ele>
        <time>2024-05-26T11:25:23Z</time>
      </trkpt>
      <trkpt lat="43.74261" lon="6.67233">
        <ele>1432</ele>
        <time>2024-05-26T11:25:24Z</time>
      </trkpt>
      <trkpt lat="43.74261" lon="6.67233">
        <ele>1432</ele>
        <time>2024-05-26T11:25:25Z</time>
      </trkpt>
      <trkpt lat="43.74261" lon="6.67233">
        <ele>1432</ele>
        <time>2024-05-26T11:25:26Z</time>
      </trkpt>
      <trkpt lat="43.74261" lon="6.67233">
        <ele>1431.9</ele>
        <time>2024-05-26T11:25:27Z</time>
      </trkpt>
      <trkpt lat="43.74261" lon="6.67234">
        <ele>1431.9</ele>
        <time>2024-05-26T11:25:28Z</time>
      </trkpt>
      <trkpt lat="43.74261" lon="6.67234">
        <ele>1431.8</ele>
        <time>2024-05-26T11:25:29Z</time>
      </trkpt>
      <trkpt lat="43.74261" lon="6.67234">
        <ele>1431.8</ele>
        <time>2024-05-26T11:25:30Z</time>
      </trkpt>
      <trkpt lat="43.74261" lon="6.67234">
        <ele>1431.9</ele>
        <time>2024-05-26T11:25:31Z</time>
      </trkpt>
      <trkpt lat="43.74261" lon="6.67235">
        <ele>1432</ele>
        <time>2024-05-26T11:25:32Z</time>
      </trkpt>
      <trkpt lat="43.74261" lon="6.67235">
        <ele>1432</ele>
        <time>2024-05-26T11:25:33Z</time>
      </trkpt>
      <trkpt lat="43.74262" lon="6.67235">
        <ele>1432.1</ele>
        <time>2024-05-26T11:25:34Z</time>
      </trkpt>
      <trkpt lat="43.74262" lon="6.67235">
        <ele>1432.1</ele>
        <time>2024-05-26T11:25:35Z</time>
      </trkpt>
      <trkpt lat="43.74262" lon="6.67235">
        <ele>1432</ele>
        <time>2024-05-26T11:25:36Z</time>
      </trkpt>
      <trkpt lat="43.74262" lon="6.67235">
        <ele>1432.1</ele>
        <time>2024-05-26T11:25:37Z</time>
      </trkpt>
      <trkpt lat="43.74262" lon="6.67235">
        <ele>1432.2</ele>
        <time>2024-05-26T11:25:38Z</time>
      </trkpt>
      <trkpt lat="43.74262" lon="6.67235">
        <ele>1432.2</ele>
        <time>2024-05-26T11:25:39Z</time>
      </trkpt>
      <trkpt lat="43.74262" lon="6.67235">
        <ele>1432.3</ele>
        <time>2024-05-26T11:25:40Z</time>
      </trkpt>
      <trkpt lat="43.74263" lon="6.67235">
        <ele>1432.3</ele>
        <time>2024-05-26T11:25:41Z</time>
      </trkpt>
      <trkpt lat="43.74263" lon="6.67235">
        <ele>1432.3</ele>
        <time>2024-05-26T11:25:42Z</time>
      </trkpt>
      <trkpt lat="43.74263" lon="6.67235">
        <ele>1432.2</ele>
        <time>2024-05-26T11:25:43Z</time>
      </trkpt>
      <trkpt lat="43.74263" lon="6.67235">
        <ele>1432.2</ele>
        <time>2024-05-26T11:25:44Z</time>
      </trkpt>
      <trkpt lat="43.74263" lon="6.67235">
        <ele>1432.2</ele>
        <time>2024-05-26T11:25:45Z</time>
      </trkpt>
      <trkpt lat="43.74263" lon="6.67235">
        <ele>1432.1</ele>
        <time>2024-05-26T11:25:46Z</time>
      </trkpt>
      <trkpt lat="43.74263" lon="6.67236">
        <ele>1432.1</ele>
        <time>2024-05-26T11:25:47Z</time>
      </trkpt>
      <trkpt lat="43.74263" lon="6.67236">
        <ele>1432.1</ele>
        <time>2024-05-26T11:25:48Z</time>
      </trkpt>
      <trkpt lat="43.74263" lon="6.67236">
        <ele>1432.1</ele>
        <time>2024-05-26T11:25:49Z</time>
      </trkpt>
      <trkpt lat="43.74263" lon="6.67236">
        <ele>1432.1</ele>
        <time>2024-05-26T11:25:50Z</time>
      </trkpt>
      <trkpt lat="43.74263" lon="6.67236">
        <ele>1432.1</ele>
        <time>2024-05-26T11:25:51Z</time>
      </trkpt>
      <trkpt lat="43.74263" lon="6.67236">
        <ele>1432.2</ele>
        <time>2024-05-26T11:25:52Z</time>
      </trkpt>
      <trkpt lat="43.74263" lon="6.67236">
        <ele>1432.2</ele>
        <time>2024-05-26T11:25:53Z</time>
      </trkpt>
      <trkpt lat="43.74263" lon="6.67236">
        <ele>1432.2</ele>
        <time>2024-05-26T11:25:54Z</time>
      </trkpt>
      <trkpt lat="43.74263" lon="6.67235">
        <ele>1432.2</ele>
        <time>2024-05-26T11:25:55Z</time>
      </trkpt>
      <trkpt lat="43.74263" lon="6.67235">
        <ele>1432.2</ele>
        <time>2024-05-26T11:25:56Z</time>
      </trkpt>
      <trkpt lat="43.74263" lon="6.67236">
        <ele>1432.2</ele>
        <time>2024-05-26T11:25:57Z</time>
      </trkpt>
      <trkpt lat="43.74263" lon="6.67236">
        <ele>1432.3</ele>
        <time>2024-05-26T11:25:58Z</time>
      </trkpt>
      <trkpt lat="43.74263" lon="6.67235">
        <ele>1432.3</ele>
        <time>2024-05-26T11:25:59Z</time>
      </trkpt>
      <trkpt lat="43.74263" lon="6.67235">
        <ele>1432.3</ele>
        <time>2024-05-26T11:26:00Z</time>
      </trkpt>
      <trkpt lat="43.74263" lon="6.67235">
        <ele>1432.3</ele>
        <time>2024-05-26T11:26:01Z</time>
      </trkpt>
      <trkpt lat="43.74263" lon="6.67235">
        <ele>1432.3</ele>
        <time>2024-05-26T11:26:02Z</time>
      </trkpt>
      <trkpt lat="43.74263" lon="6.67235">
        <ele>1432.2</ele>
        <time>2024-05-26T11:26:03Z</time>
      </trkpt>
      <trkpt lat="43.74263" lon="6.67234">
        <ele>1432.2</ele>
        <time>2024-05-26T11:26:04Z</time>
      </trkpt>
      <trkpt lat="43.74263" lon="6.67234">
        <ele>1432.2</ele>
        <time>2024-05-26T11:26:05Z</time>
      </trkpt>
      <trkpt lat="43.74263" lon="6.67234">
        <ele>1432.2</ele>
        <time>2024-05-26T11:26:06Z</time>
      </trkpt>
      <trkpt lat="43.74263" lon="6.67233">
        <ele>1432.2</ele>
        <time>2024-05-26T11:26:07Z</time>
      </trkpt>
      <trkpt lat="43.74263" lon="6.67233">
        <ele>1432.2</ele>
        <time>2024-05-26T11:26:08Z</time>
      </trkpt>
      <trkpt lat="43.74263" lon="6.67233">
        <ele>1432.1</ele>
        <time>2024-05-26T11:26:09Z</time>
      </trkpt>
      <trkpt lat="43.74263" lon="6.67232">
        <ele>1432.2</ele>
        <time>2024-05-26T11:26:10Z</time>
      </trkpt>
      <trkpt lat="43.74263" lon="6.67232">
        <ele>1432.3</ele>
        <time>2024-05-26T11:26:11Z</time>
      </trkpt>
      <trkpt lat="43.74263" lon="6.67232">
        <ele>1432.3</ele>
        <time>2024-05-26T11:26:12Z</time>
      </trkpt>
      <trkpt lat="43.74263" lon="6.67232">
        <ele>1432.4</ele>
        <time>2024-05-26T11:26:13Z</time>
      </trkpt>
      <trkpt lat="43.74262" lon="6.67232">
        <ele>1432.3</ele>
        <time>2024-05-26T11:26:14Z</time>
      </trkpt>
      <trkpt lat="43.74261" lon="6.67232">
        <ele>1432.2</ele>
        <time>2024-05-26T11:26:15Z</time>
      </trkpt>
      <trkpt lat="43.74261" lon="6.67232">
        <ele>1432.1</ele>
        <time>2024-05-26T11:26:16Z</time>
      </trkpt>
      <trkpt lat="43.74261" lon="6.67232">
        <ele>1432</ele>
        <time>2024-05-26T11:26:17Z</time>
      </trkpt>
      <trkpt lat="43.74261" lon="6.67232">
        <ele>1432</ele>
        <time>2024-05-26T11:26:18Z</time>
      </trkpt>
      <trkpt lat="43.74261" lon="6.67232">
        <ele>1431.9</ele>
        <time>2024-05-26T11:26:19Z</time>
      </trkpt>
      <trkpt lat="43.74261" lon="6.67232">
        <ele>1431.9</ele>
        <time>2024-05-26T11:26:20Z</time>
      </trkpt>
      <trkpt lat="43.7426" lon="6.67232">
        <ele>1431.8</ele>
        <time>2024-05-26T11:26:21Z</time>
      </trkpt>
      <trkpt lat="43.7426" lon="6.67231">
        <ele>1431.9</ele>
        <time>2024-05-26T11:26:22Z</time>
      </trkpt>
      <trkpt lat="43.7426" lon="6.67231">
        <ele>1431.8</ele>
        <time>2024-05-26T11:26:23Z</time>
      </trkpt>
      <trkpt lat="43.7426" lon="6.67231">
        <ele>1431.9</ele>
        <time>2024-05-26T11:26:24Z</time>
      </trkpt>
      <trkpt lat="43.74259" lon="6.67231">
        <ele>1431.9</ele>
        <time>2024-05-26T11:26:25Z</time>
      </trkpt>
      <trkpt lat="43.74259" lon="6.67231">
        <ele>1431.8</ele>
        <time>2024-05-26T11:26:26Z</time>
      </trkpt>
      <trkpt lat="43.74259" lon="6.67231">
        <ele>1431.8</ele>
        <time>2024-05-26T11:26:27Z</time>
      </trkpt>
      <trkpt lat="43.74259" lon="6.67231">
        <ele>1431.7</ele>
        <time>2024-05-26T11:26:28Z</time>
      </trkpt>
      <trkpt lat="43.74259" lon="6.67231">
        <ele>1431.6</ele>
        <time>2024-05-26T11:26:29Z</time>
      </trkpt>
      <trkpt lat="43.74258" lon="6.67231">
        <ele>1431.6</ele>
        <time>2024-05-26T11:26:30Z</time>
      </trkpt>
      <trkpt lat="43.74258" lon="6.67231">
        <ele>1431.6</ele>
        <time>2024-05-26T11:26:31Z</time>
      </trkpt>
      <trkpt lat="43.74258" lon="6.67231">
        <ele>1431.6</ele>
        <time>2024-05-26T11:26:32Z</time>
      </trkpt>
      <trkpt lat="43.74258" lon="6.67231">
        <ele>1431.6</ele>
        <time>2024-05-26T11:26:33Z</time>
      </trkpt>
      <trkpt lat="43.74258" lon="6.67231">
        <ele>1431.6</ele>
        <time>2024-05-26T11:26:34Z</time>
      </trkpt>
      <trkpt lat="43.74257" lon="6.67231">
        <ele>1431.6</ele>
        <time>2024-05-26T11:26:35Z</time>
      </trkpt>
      <trkpt lat="43.74257" lon="6.67231">
        <ele>1431.7</ele>
        <time>2024-05-26T11:26:36Z</time>
      </trkpt>
      <trkpt lat="43.74257" lon="6.67231">
        <ele>1431.8</ele>
        <time>2024-05-26T11:26:37Z</time>
      </trkpt>
      <trkpt lat="43.74257" lon="6.67231">
        <ele>1431.8</ele>
        <time>2024-05-26T11:26:38Z</time>
      </trkpt>
      <trkpt lat="43.74256" lon="6.67232">
        <ele>1431.9</ele>
        <time>2024-05-26T11:26:39Z</time>
      </trkpt>
      <trkpt lat="43.74256" lon="6.67232">
        <ele>1431.9</ele>
        <time>2024-05-26T11:26:40Z</time>
      </trkpt>
      <trkpt lat="43.74256" lon="6.67232">
        <ele>1431.9</ele>
        <time>2024-05-26T11:26:41Z</time>
      </trkpt>
      <trkpt lat="43.74256" lon="6.67232">
        <ele>1431.9</ele>
        <time>2024-05-26T11:26:42Z</time>
      </trkpt>
      <trkpt lat="43.74255" lon="6.67232">
        <ele>1431.9</ele>
        <time>2024-05-26T11:26:43Z</time>
      </trkpt>
      <trkpt lat="43.74255" lon="6.67232">
        <ele>1431.9</ele>
        <time>2024-05-26T11:26:44Z</time>
      </trkpt>
      <trkpt lat="43.74255" lon="6.67231">
        <ele>1431.9</ele>
        <time>2024-05-26T11:26:45Z</time>
      </trkpt>
      <trkpt lat="43.74255" lon="6.67231">
        <ele>1431.9</ele>
        <time>2024-05-26T11:26:46Z</time>
      </trkpt>
      <trkpt lat="43.74254" lon="6.67231">
        <ele>1431.8</ele>
        <time>2024-05-26T11:26:47Z</time>
      </trkpt>
      <trkpt lat="43.74254" lon="6.67231">
        <ele>1431.8</ele>
        <time>2024-05-26T11:26:48Z</time>
      </trkpt>
      <trkpt lat="43.74254" lon="6.67231">
        <ele>1431.8</ele>
        <time>2024-05-26T11:26:49Z</time>
      </trkpt>
      <trkpt lat="43.74254" lon="6.67231">
        <ele>1431.7</ele>
        <time>2024-05-26T11:26:50Z</time>
      </trkpt>
      <trkpt lat="43.74254" lon="6.67231">
        <ele>1431.7</ele>
        <time>2024-05-26T11:26:51Z</time>
      </trkpt>
      <trkpt lat="43.74254" lon="6.67231">
        <ele>1431.7</ele>
        <time>2024-05-26T11:26:52Z</time>
      </trkpt>
      <trkpt lat="43.74254" lon="6.67231">
        <ele>1431.7</ele>
        <time>2024-05-26T11:26:53Z</time>
      </trkpt>
      <trkpt lat="43.74254" lon="6.67231">
        <ele>1431.7</ele>
        <time>2024-05-26T11:26:54Z</time>
      </trkpt>
      <trkpt lat="43.74254" lon="6.67231">
        <ele>1431.7</ele>
        <time>2024-05-26T11:26:55Z</time>
      </trkpt>
      <trkpt lat="43.74254" lon="6.67231">
        <ele>1431.7</ele>
        <time>2024-05-26T11:26:56Z</time>
      </trkpt>
      <trkpt lat="43.74254" lon="6.67232">
        <ele>1431.7</ele>
        <time>2024-05-26T11:26:57Z</time>
      </trkpt>
      <trkpt lat="43.74254" lon="6.67232">
        <ele>1431.7</ele>
        <time>2024-05-26T11:26:58Z</time>
      </trkpt>
      <trkpt lat="43.74255" lon="6.67232">
        <ele>1431.7</ele>
        <time>2024-05-26T11:26:59Z</time>
      </trkpt>
      <trkpt lat="43.74255" lon="6.67232">
        <ele>1431.8</ele>
        <time>2024-05-26T11:27:00Z</time>
      </trkpt>
      <trkpt lat="43.74255" lon="6.67232">
        <ele>1431.8</ele>
        <time>2024-05-26T11:27:01Z</time>
      </trkpt>
      <trkpt lat="43.74255" lon="6.67232">
        <ele>1431.8</ele>
        <time>2024-05-26T11:27:02Z</time>
      </trkpt>
      <trkpt lat="43.74254" lon="6.67232">
        <ele>1431.7</ele>
        <time>2024-05-26T11:27:03Z</time>
      </trkpt>
      <trkpt lat="43.74254" lon="6.67232">
        <ele>1431.7</ele>
        <time>2024-05-26T11:27:04Z</time>
      </trkpt>
      <trkpt lat="43.74254" lon="6.67233">
        <ele>1431.8</ele>
        <time>2024-05-26T11:27:05Z</time>
      </trkpt>
      <trkpt lat="43.74254" lon="6.67233">
        <ele>1431.8</ele>
        <time>2024-05-26T11:27:06Z</time>
      </trkpt>
      <trkpt lat="43.74254" lon="6.67233">
        <ele>1431.8</ele>
        <time>2024-05-26T11:27:07Z</time>
      </trkpt>
      <trkpt lat="43.74254" lon="6.67233">
        <ele>1431.8</ele>
        <time>2024-05-26T11:27:08Z</time>
      </trkpt>
      <trkpt lat="43.74254" lon="6.67233">
        <ele>1431.9</ele>
        <time>2024-05-26T11:27:09Z</time>
      </trkpt>
      <trkpt lat="43.74254" lon="6.67233">
        <ele>1431.8</ele>
        <time>2024-05-26T11:27:10Z</time>
      </trkpt>
      <trkpt lat="43.74254" lon="6.67233">
        <ele>1431.7</ele>
        <time>2024-05-26T11:27:11Z</time>
      </trkpt>
      <trkpt lat="43.74254" lon="6.67233">
        <ele>1431.7</ele>
        <time>2024-05-26T11:27:12Z</time>
      </trkpt>
      <trkpt lat="43.74254" lon="6.67233">
        <ele>1431.7</ele>
        <time>2024-05-26T11:27:13Z</time>
      </trkpt>
      <trkpt lat="43.74254" lon="6.67233">
        <ele>1431.7</ele>
        <time>2024-05-26T11:27:14Z</time>
      </trkpt>
      <trkpt lat="43.74254" lon="6.67233">
        <ele>1431.8</ele>
        <time>2024-05-26T11:27:15Z</time>
      </trkpt>
      <trkpt lat="43.74254" lon="6.67233">
        <ele>1431.8</ele>
        <time>2024-05-26T11:27:16Z</time>
      </trkpt>
      <trkpt lat="43.74254" lon="6.67233">
        <ele>1431.9</ele>
        <time>2024-05-26T11:27:17Z</time>
      </trkpt>
      <trkpt lat="43.74254" lon="6.67233">
        <ele>1431.9</ele>
        <time>2024-05-26T11:27:18Z</time>
      </trkpt>
      <trkpt lat="43.74254" lon="6.67233">
        <ele>1431.9</ele>
        <time>2024-05-26T11:27:19Z</time>
      </trkpt>
      <trkpt lat="43.74254" lon="6.67233">
        <ele>1431.8</ele>
        <time>2024-05-26T11:27:20Z</time>
      </trkpt>
      <trkpt lat="43.74254" lon="6.67233">
        <ele>1431.8</ele>
        <time>2024-05-26T11:27:21Z</time>
      </trkpt>
      <trkpt lat="43.74253" lon="6.67233">
        <ele>1431.8</ele>
        <time>2024-05-26T11:27:22Z</time>
      </trkpt>
      <trkpt lat="43.74253" lon="6.67233">
        <ele>1431.8</ele>
        <time>2024-05-26T11:27:23Z</time>
      </trkpt>
      <trkpt lat="43.74253" lon="6.67233">
        <ele>1431.9</ele>
        <time>2024-05-26T11:27:24Z</time>
      </trkpt>
      <trkpt lat="43.74253" lon="6.67233">
        <ele>1431.9</ele>
        <time>2024-05-26T11:27:25Z</time>
      </trkpt>
      <trkpt lat="43.74252" lon="6.67233">
        <ele>1431.9</ele>
        <time>2024-05-26T11:27:26Z</time>
      </trkpt>
      <trkpt lat="43.74252" lon="6.67233">
        <ele>1431.9</ele>
        <time>2024-05-26T11:27:27Z</time>
      </trkpt>
      <trkpt lat="43.74252" lon="6.67233">
        <ele>1431.8</ele>
        <time>2024-05-26T11:27:28Z</time>
      </trkpt>
      <trkpt lat="43.74252" lon="6.67233">
        <ele>1431.8</ele>
        <time>2024-05-26T11:27:29Z</time>
      </trkpt>
      <trkpt lat="43.74251" lon="6.67233">
        <ele>1431.8</ele>
        <time>2024-05-26T11:27:30Z</time>
      </trkpt>
      <trkpt lat="43.74251" lon="6.67233">
        <ele>1431.8</ele>
        <time>2024-05-26T11:27:31Z</time>
      </trkpt>
      <trkpt lat="43.74251" lon="6.67233">
        <ele>1431.8</ele>
        <time>2024-05-26T11:27:32Z</time>
      </trkpt>
      <trkpt lat="43.74251" lon="6.67233">
        <ele>1431.8</ele>
        <time>2024-05-26T11:27:33Z</time>
      </trkpt>
      <trkpt lat="43.7425" lon="6.67233">
        <ele>1431.8</ele>
        <time>2024-05-26T11:27:34Z</time>
      </trkpt>
      <trkpt lat="43.7425" lon="6.67233">
        <ele>1431.7</ele>
        <time>2024-05-26T11:27:35Z</time>
      </trkpt>
      <trkpt lat="43.7425" lon="6.67233">
        <ele>1431.7</ele>
        <time>2024-05-26T11:27:36Z</time>
      </trkpt>
      <trkpt lat="43.7425" lon="6.67233">
        <ele>1431.7</ele>
        <time>2024-05-26T11:27:37Z</time>
      </trkpt>
      <trkpt lat="43.7425" lon="6.67233">
        <ele>1431.7</ele>
        <time>2024-05-26T11:27:38Z</time>
      </trkpt>
      <trkpt lat="43.7425" lon="6.67233">
        <ele>1431.7</ele>
        <time>2024-05-26T11:27:39Z</time>
      </trkpt>
      <trkpt lat="43.7425" lon="6.67233">
        <ele>1431.7</ele>
        <time>2024-05-26T11:27:40Z</time>
      </trkpt>
      <trkpt lat="43.7425" lon="6.67233">
        <ele>1431.7</ele>
        <time>2024-05-26T11:27:41Z</time>
      </trkpt>
      <trkpt lat="43.7425" lon="6.67233">
        <ele>1431.8</ele>
        <time>2024-05-26T11:27:42Z</time>
      </trkpt>
      <trkpt lat="43.7425" lon="6.67233">
        <ele>1431.8</ele>
        <time>2024-05-26T11:27:43Z</time>
      </trkpt>
      <trkpt lat="43.74251" lon="6.67233">
        <ele>1431.9</ele>
        <time>2024-05-26T11:27:44Z</time>
      </trkpt>
      <trkpt lat="43.74251" lon="6.67233">
        <ele>1431.8</ele>
        <time>2024-05-26T11:27:45Z</time>
      </trkpt>
      <trkpt lat="43.74251" lon="6.67233">
        <ele>1431.7</ele>
        <time>2024-05-26T11:27:46Z</time>
      </trkpt>
      <trkpt lat="43.74251" lon="6.67233">
        <ele>1431.7</ele>
        <time>2024-05-26T11:27:47Z</time>
      </trkpt>
      <trkpt lat="43.74251" lon="6.67233">
        <ele>1431.6</ele>
        <time>2024-05-26T11:27:48Z</time>
      </trkpt>
      <trkpt lat="43.74251" lon="6.67233">
        <ele>1431.7</ele>
        <time>2024-05-26T11:27:49Z</time>
      </trkpt>
      <trkpt lat="43.74251" lon="6.67233">
        <ele>1431.7</ele>
        <time>2024-05-26T11:27:50Z</time>
      </trkpt>
      <trkpt lat="43.74251" lon="6.67233">
        <ele>1431.7</ele>
        <time>2024-05-26T11:27:51Z</time>
      </trkpt>
      <trkpt lat="43.74251" lon="6.67233">
        <ele>1431.6</ele>
        <time>2024-05-26T11:27:52Z</time>
      </trkpt>
      <trkpt lat="43.74252" lon="6.67233">
        <ele>1431.6</ele>
        <time>2024-05-26T11:27:53Z</time>
      </trkpt>
      <trkpt lat="43.74252" lon="6.67233">
        <ele>1431.6</ele>
        <time>2024-05-26T11:27:54Z</time>
      </trkpt>
      <trkpt lat="43.74252" lon="6.67233">
        <ele>1431.6</ele>
        <time>2024-05-26T11:27:55Z</time>
      </trkpt>
      <trkpt lat="43.74252" lon="6.67233">
        <ele>1431.6</ele>
        <time>2024-05-26T11:27:56Z</time>
      </trkpt>
      <trkpt lat="43.74252" lon="6.67233">
        <ele>1431.6</ele>
        <time>2024-05-26T11:27:57Z</time>
      </trkpt>
      <trkpt lat="43.74252" lon="6.67233">
        <ele>1431.5</ele>
        <time>2024-05-26T11:27:58Z</time>
      </trkpt>
      <trkpt lat="43.74252" lon="6.67234">
        <ele>1431.5</ele>
        <time>2024-05-26T11:27:59Z</time>
      </trkpt>
      <trkpt lat="43.74252" lon="6.67233">
        <ele>1431.4</ele>
        <time>2024-05-26T11:28:00Z</time>
      </trkpt>
      <trkpt lat="43.74252" lon="6.67233">
        <ele>1431.4</ele>
        <time>2024-05-26T11:28:01Z</time>
      </trkpt>
      <trkpt lat="43.74253" lon="6.67233">
        <ele>1431.4</ele>
        <time>2024-05-26T11:28:02Z</time>
      </trkpt>
      <trkpt lat="43.74253" lon="6.67233">
        <ele>1431.4</ele>
        <time>2024-05-26T11:28:03Z</time>
      </trkpt>
      <trkpt lat="43.74253" lon="6.67234">
        <ele>1431.3</ele>
        <time>2024-05-26T11:28:04Z</time>
      </trkpt>
      <trkpt lat="43.74253" lon="6.67234">
        <ele>1431.5</ele>
        <time>2024-05-26T11:28:05Z</time>
      </trkpt>
      <trkpt lat="43.74253" lon="6.67234">
        <ele>1431.5</ele>
        <time>2024-05-26T11:28:06Z</time>
      </trkpt>
      <trkpt lat="43.74253" lon="6.67234">
        <ele>1431.4</ele>
        <time>2024-05-26T11:28:07Z</time>
      </trkpt>
      <trkpt lat="43.74253" lon="6.67234">
        <ele>1431.4</ele>
        <time>2024-05-26T11:28:08Z</time>
      </trkpt>
      <trkpt lat="43.74253" lon="6.67234">
        <ele>1431.4</ele>
        <time>2024-05-26T11:28:09Z</time>
      </trkpt>
      <trkpt lat="43.74253" lon="6.67234">
        <ele>1431.5</ele>
        <time>2024-05-26T11:28:10Z</time>
      </trkpt>
      <trkpt lat="43.74253" lon="6.67234">
        <ele>1431.6</ele>
        <time>2024-05-26T11:28:11Z</time>
      </trkpt>
      <trkpt lat="43.74253" lon="6.67234">
        <ele>1431.6</ele>
        <time>2024-05-26T11:28:12Z</time>
      </trkpt>
      <trkpt lat="43.74253" lon="6.67234">
        <ele>1431.5</ele>
        <time>2024-05-26T11:28:13Z</time>
      </trkpt>
      <trkpt lat="43.74253" lon="6.67234">
        <ele>1431.5</ele>
        <time>2024-05-26T11:28:14Z</time>
      </trkpt>
      <trkpt lat="43.74253" lon="6.67234">
        <ele>1431.5</ele>
        <time>2024-05-26T11:28:15Z</time>
      </trkpt>
      <trkpt lat="43.74253" lon="6.67234">
        <ele>1431.5</ele>
        <time>2024-05-26T11:28:16Z</time>
      </trkpt>
      <trkpt lat="43.74253" lon="6.67234">
        <ele>1431.5</ele>
        <time>2024-05-26T11:28:17Z</time>
      </trkpt>
      <trkpt lat="43.74253" lon="6.67234">
        <ele>1431.5</ele>
        <time>2024-05-26T11:28:18Z</time>
      </trkpt>
      <trkpt lat="43.74253" lon="6.67234">
        <ele>1431.5</ele>
        <time>2024-05-26T11:28:19Z</time>
      </trkpt>
      <trkpt lat="43.74253" lon="6.67235">
        <ele>1431.6</ele>
        <time>2024-05-26T11:28:20Z</time>
      </trkpt>
      <trkpt lat="43.74253" lon="6.67235">
        <ele>1431.6</ele>
        <time>2024-05-26T11:28:21Z</time>
      </trkpt>
      <trkpt lat="43.74253" lon="6.67235">
        <ele>1431.6</ele>
        <time>2024-05-26T11:28:22Z</time>
      </trkpt>
      <trkpt lat="43.74253" lon="6.67235">
        <ele>1431.7</ele>
        <time>2024-05-26T11:28:23Z</time>
      </trkpt>
      <trkpt lat="43.74253" lon="6.67235">
        <ele>1431.8</ele>
        <time>2024-05-26T11:28:24Z</time>
      </trkpt>
      <trkpt lat="43.74253" lon="6.67235">
        <ele>1431.8</ele>
        <time>2024-05-26T11:28:25Z</time>
      </trkpt>
      <trkpt lat="43.74253" lon="6.67235">
        <ele>1431.9</ele>
        <time>2024-05-26T11:28:26Z</time>
      </trkpt>
      <trkpt lat="43.74253" lon="6.67235">
        <ele>1431.9</ele>
        <time>2024-05-26T11:28:27Z</time>
      </trkpt>
      <trkpt lat="43.74253" lon="6.67236">
        <ele>1431.9</ele>
        <time>2024-05-26T11:28:28Z</time>
      </trkpt>
      <trkpt lat="43.74253" lon="6.67236">
        <ele>1431.9</ele>
        <time>2024-05-26T11:28:29Z</time>
      </trkpt>
      <trkpt lat="43.74253" lon="6.67236">
        <ele>1431.9</ele>
        <time>2024-05-26T11:28:30Z</time>
      </trkpt>
      <trkpt lat="43.74253" lon="6.67236">
        <ele>1431.9</ele>
        <time>2024-05-26T11:28:31Z</time>
      </trkpt>
      <trkpt lat="43.74254" lon="6.67236">
        <ele>1431.8</ele>
        <time>2024-05-26T11:28:32Z</time>
      </trkpt>
      <trkpt lat="43.74254" lon="6.67236">
        <ele>1431.8</ele>
        <time>2024-05-26T11:28:33Z</time>
      </trkpt>
      <trkpt lat="43.74254" lon="6.67236">
        <ele>1431.8</ele>
        <time>2024-05-26T11:28:34Z</time>
      </trkpt>
      <trkpt lat="43.74254" lon="6.67236">
        <ele>1431.9</ele>
        <time>2024-05-26T11:28:35Z</time>
      </trkpt>
      <trkpt lat="43.74254" lon="6.67236">
        <ele>1431.9</ele>
        <time>2024-05-26T11:28:36Z</time>
      </trkpt>
      <trkpt lat="43.74254" lon="6.67236">
        <ele>1431.8</ele>
        <time>2024-05-26T11:28:37Z</time>
      </trkpt>
      <trkpt lat="43.74254" lon="6.67236">
        <ele>1431.7</ele>
        <time>2024-05-26T11:28:38Z</time>
      </trkpt>
      <trkpt lat="43.74254" lon="6.67236">
        <ele>1431.6</ele>
        <time>2024-05-26T11:28:39Z</time>
      </trkpt>
      <trkpt lat="43.74254" lon="6.67236">
        <ele>1431.7</ele>
        <time>2024-05-26T11:28:40Z</time>
      </trkpt>
      <trkpt lat="43.74254" lon="6.67236">
        <ele>1431.7</ele>
        <time>2024-05-26T11:28:41Z</time>
      </trkpt>
      <trkpt lat="43.74254" lon="6.67236">
        <ele>1431.8</ele>
        <time>2024-05-26T11:28:42Z</time>
      </trkpt>
      <trkpt lat="43.74254" lon="6.67236">
        <ele>1431.9</ele>
        <time>2024-05-26T11:28:43Z</time>
      </trkpt>
      <trkpt lat="43.74254" lon="6.67237">
        <ele>1431.8</ele>
        <time>2024-05-26T11:28:44Z</time>
      </trkpt>
      <trkpt lat="43.74254" lon="6.67237">
        <ele>1431.7</ele>
        <time>2024-05-26T11:28:45Z</time>
      </trkpt>
      <trkpt lat="43.74254" lon="6.67237">
        <ele>1431.7</ele>
        <time>2024-05-26T11:28:46Z</time>
      </trkpt>
      <trkpt lat="43.74254" lon="6.67237">
        <ele>1431.6</ele>
        <time>2024-05-26T11:28:47Z</time>
      </trkpt>
      <trkpt lat="43.74254" lon="6.67237">
        <ele>1431.5</ele>
        <time>2024-05-26T11:28:48Z</time>
      </trkpt>
      <trkpt lat="43.74254" lon="6.67238">
        <ele>1431.5</ele>
        <time>2024-05-26T11:28:49Z</time>
      </trkpt>
      <trkpt lat="43.74254" lon="6.67238">
        <ele>1431.4</ele>
        <time>2024-05-26T11:28:50Z</time>
      </trkpt>
      <trkpt lat="43.74254" lon="6.67238">
        <ele>1431.3</ele>
        <time>2024-05-26T11:28:51Z</time>
      </trkpt>
      <trkpt lat="43.74254" lon="6.67238">
        <ele>1431.2</ele>
        <time>2024-05-26T11:28:52Z</time>
      </trkpt>
      <trkpt lat="43.74254" lon="6.67238">
        <ele>1431.2</ele>
        <time>2024-05-26T11:28:53Z</time>
      </trkpt>
      <trkpt lat="43.74254" lon="6.67238">
        <ele>1431.2</ele>
        <time>2024-05-26T11:28:54Z</time>
      </trkpt>
      <trkpt lat="43.74254" lon="6.67238">
        <ele>1431.2</ele>
        <time>2024-05-26T11:28:55Z</time>
      </trkpt>
      <trkpt lat="43.74254" lon="6.67238">
        <ele>1431.3</ele>
        <time>2024-05-26T11:28:56Z</time>
      </trkpt>
      <trkpt lat="43.74254" lon="6.67238">
        <ele>1431.3</ele>
        <time>2024-05-26T11:28:57Z</time>
      </trkpt>
      <trkpt lat="43.74254" lon="6.67238">
        <ele>1431.3</ele>
        <time>2024-05-26T11:28:58Z</time>
      </trkpt>
      <trkpt lat="43.74254" lon="6.67238">
        <ele>1431.4</ele>
        <time>2024-05-26T11:28:59Z</time>
      </trkpt>
      <trkpt lat="43.74254" lon="6.67238">
        <ele>1431.4</ele>
        <time>2024-05-26T11:29:00Z</time>
      </trkpt>
      <trkpt lat="43.74254" lon="6.67238">
        <ele>1431.4</ele>
        <time>2024-05-26T11:29:01Z</time>
      </trkpt>
      <trkpt lat="43.74254" lon="6.67238">
        <ele>1431.4</ele>
        <time>2024-05-26T11:29:02Z</time>
      </trkpt>
      <trkpt lat="43.74254" lon="6.67238">
        <ele>1431.4</ele>
        <time>2024-05-26T11:29:03Z</time>
      </trkpt>
      <trkpt lat="43.74254" lon="6.67238">
        <ele>1431.4</ele>
        <time>2024-05-26T11:29:04Z</time>
      </trkpt>
      <trkpt lat="43.74254" lon="6.67238">
        <ele>1431.4</ele>
        <time>2024-05-26T11:29:05Z</time>
      </trkpt>
      <trkpt lat="43.74254" lon="6.67238">
        <ele>1431.4</ele>
        <time>2024-05-26T11:29:06Z</time>
      </trkpt>
      <trkpt lat="43.74254" lon="6.67238">
        <ele>1431.4</ele>
        <time>2024-05-26T11:29:07Z</time>
      </trkpt>
      <trkpt lat="43.74254" lon="6.67238">
        <ele>1431.4</ele>
        <time>2024-05-26T11:29:08Z</time>
      </trkpt>
      <trkpt lat="43.74254" lon="6.67238">
        <ele>1431.5</ele>
        <time>2024-05-26T11:29:09Z</time>
      </trkpt>
      <trkpt lat="43.74254" lon="6.67238">
        <ele>1431.5</ele>
        <time>2024-05-26T11:29:10Z</time>
      </trkpt>
      <trkpt lat="43.74254" lon="6.67238">
        <ele>1431.7</ele>
        <time>2024-05-26T11:29:11Z</time>
      </trkpt>
      <trkpt lat="43.74254" lon="6.67239">
        <ele>1431.7</ele>
        <time>2024-05-26T11:29:12Z</time>
      </trkpt>
      <trkpt lat="43.74254" lon="6.67239">
        <ele>1431.7</ele>
        <time>2024-05-26T11:29:13Z</time>
      </trkpt>
      <trkpt lat="43.74254" lon="6.67239">
        <ele>1431.7</ele>
        <time>2024-05-26T11:29:14Z</time>
      </trkpt>
      <trkpt lat="43.74254" lon="6.67239">
        <ele>1431.6</ele>
        <time>2024-05-26T11:29:15Z</time>
      </trkpt>
      <trkpt lat="43.74254" lon="6.67239">
        <ele>1431.7</ele>
        <time>2024-05-26T11:29:16Z</time>
      </trkpt>
      <trkpt lat="43.74254" lon="6.67239">
        <ele>1431.7</ele>
        <time>2024-05-26T11:29:17Z</time>
      </trkpt>
      <trkpt lat="43.74254" lon="6.6724">
        <ele>1431.8</ele>
        <time>2024-05-26T11:29:18Z</time>
      </trkpt>
      <trkpt lat="43.74254" lon="6.6724">
        <ele>1431.8</ele>
        <time>2024-05-26T11:29:19Z</time>
      </trkpt>
      <trkpt lat="43.74254" lon="6.6724">
        <ele>1431.8</ele>
        <time>2024-05-26T11:29:20Z</time>
      </trkpt>
      <trkpt lat="43.74255" lon="6.6724">
        <ele>1431.8</ele>
        <time>2024-05-26T11:29:21Z</time>
      </trkpt>
      <trkpt lat="43.74255" lon="6.6724">
        <ele>1431.8</ele>
        <time>2024-05-26T11:29:22Z</time>
      </trkpt>
      <trkpt lat="43.74255" lon="6.6724">
        <ele>1431.7</ele>
        <time>2024-05-26T11:29:23Z</time>
      </trkpt>
      <trkpt lat="43.74255" lon="6.6724">
        <ele>1431.7</ele>
        <time>2024-05-26T11:29:24Z</time>
      </trkpt>
      <trkpt lat="43.74255" lon="6.67241">
        <ele>1431.7</ele>
        <time>2024-05-26T11:29:25Z</time>
      </trkpt>
      <trkpt lat="43.74255" lon="6.67241">
        <ele>1431.7</ele>
        <time>2024-05-26T11:29:26Z</time>
      </trkpt>
      <trkpt lat="43.74255" lon="6.67241">
        <ele>1431.7</ele>
        <time>2024-05-26T11:29:27Z</time>
      </trkpt>
      <trkpt lat="43.74255" lon="6.67241">
        <ele>1431.7</ele>
        <time>2024-05-26T11:29:28Z</time>
      </trkpt>
      <trkpt lat="43.74255" lon="6.67241">
        <ele>1431.7</ele>
        <time>2024-05-26T11:29:29Z</time>
      </trkpt>
      <trkpt lat="43.74255" lon="6.67241">
        <ele>1431.7</ele>
        <time>2024-05-26T11:29:30Z</time>
      </trkpt>
      <trkpt lat="43.74255" lon="6.67241">
        <ele>1431.7</ele>
        <time>2024-05-26T11:29:31Z</time>
      </trkpt>
      <trkpt lat="43.74255" lon="6.67242">
        <ele>1431.7</ele>
        <time>2024-05-26T11:29:32Z</time>
      </trkpt>
      <trkpt lat="43.74255" lon="6.67242">
        <ele>1431.7</ele>
        <time>2024-05-26T11:29:33Z</time>
      </trkpt>
      <trkpt lat="43.74255" lon="6.67242">
        <ele>1431.7</ele>
        <time>2024-05-26T11:29:34Z</time>
      </trkpt>
      <trkpt lat="43.74255" lon="6.67242">
        <ele>1431.7</ele>
        <time>2024-05-26T11:29:35Z</time>
      </trkpt>
      <trkpt lat="43.74255" lon="6.67242">
        <ele>1431.7</ele>
        <time>2024-05-26T11:29:36Z</time>
      </trkpt>
      <trkpt lat="43.74255" lon="6.67243">
        <ele>1431.7</ele>
        <time>2024-05-26T11:29:37Z</time>
      </trkpt>
      <trkpt lat="43.74255" lon="6.67243">
        <ele>1431.7</ele>
        <time>2024-05-26T11:29:38Z</time>
      </trkpt>
      <trkpt lat="43.74255" lon="6.67243">
        <ele>1431.7</ele>
        <time>2024-05-26T11:29:39Z</time>
      </trkpt>
      <trkpt lat="43.74255" lon="6.67243">
        <ele>1431.7</ele>
        <time>2024-05-26T11:29:40Z</time>
      </trkpt>
      <trkpt lat="43.74255" lon="6.67244">
        <ele>1431.7</ele>
        <time>2024-05-26T11:29:41Z</time>
      </trkpt>
      <trkpt lat="43.74254" lon="6.67244">
        <ele>1431.7</ele>
        <time>2024-05-26T11:29:42Z</time>
      </trkpt>
      <trkpt lat="43.74254" lon="6.67244">
        <ele>1431.7</ele>
        <time>2024-05-26T11:29:43Z</time>
      </trkpt>
      <trkpt lat="43.74254" lon="6.67244">
        <ele>1431.8</ele>
        <time>2024-05-26T11:29:44Z</time>
      </trkpt>
      <trkpt lat="43.74254" lon="6.67244">
        <ele>1431.8</ele>
        <time>2024-05-26T11:29:45Z</time>
      </trkpt>
      <trkpt lat="43.74254" lon="6.67244">
        <ele>1431.8</ele>
        <time>2024-05-26T11:29:46Z</time>
      </trkpt>
      <trkpt lat="43.74254" lon="6.67244">
        <ele>1431.9</ele>
        <time>2024-05-26T11:29:47Z</time>
      </trkpt>
      <trkpt lat="43.74254" lon="6.67244">
        <ele>1431.9</ele>
        <time>2024-05-26T11:29:48Z</time>
      </trkpt>
      <trkpt lat="43.74254" lon="6.67244">
        <ele>1432</ele>
        <time>2024-05-26T11:29:49Z</time>
      </trkpt>
      <trkpt lat="43.74253" lon="6.67244">
        <ele>1432</ele>
        <time>2024-05-26T11:29:50Z</time>
      </trkpt>
      <trkpt lat="43.74253" lon="6.67244">
        <ele>1431.9</ele>
        <time>2024-05-26T11:29:51Z</time>
      </trkpt>
      <trkpt lat="43.74253" lon="6.67244">
        <ele>1431.8</ele>
        <time>2024-05-26T11:29:52Z</time>
      </trkpt>
      <trkpt lat="43.74253" lon="6.67244">
        <ele>1431.8</ele>
        <time>2024-05-26T11:29:53Z</time>
      </trkpt>
      <trkpt lat="43.74253" lon="6.67244">
        <ele>1431.8</ele>
        <time>2024-05-26T11:29:54Z</time>
      </trkpt>
      <trkpt lat="43.74253" lon="6.67244">
        <ele>1431.7</ele>
        <time>2024-05-26T11:29:55Z</time>
      </trkpt>
      <trkpt lat="43.74253" lon="6.67244">
        <ele>1431.6</ele>
        <time>2024-05-26T11:29:56Z</time>
      </trkpt>
      <trkpt lat="43.74253" lon="6.67244">
        <ele>1431.6</ele>
        <time>2024-05-26T11:29:57Z</time>
      </trkpt>
      <trkpt lat="43.74252" lon="6.67244">
        <ele>1431.6</ele>
        <time>2024-05-26T11:29:58Z</time>
      </trkpt>
      <trkpt lat="43.74252" lon="6.67244">
        <ele>1431.6</ele>
        <time>2024-05-26T11:29:59Z</time>
      </trkpt>
      <trkpt lat="43.74252" lon="6.67244">
        <ele>1431.6</ele>
        <time>2024-05-26T11:30:00Z</time>
      </trkpt>
      <trkpt lat="43.74252" lon="6.67244">
        <ele>1431.6</ele>
        <time>2024-05-26T11:30:01Z</time>
      </trkpt>
      <trkpt lat="43.74252" lon="6.67244">
        <ele>1431.6</ele>
        <time>2024-05-26T11:30:02Z</time>
      </trkpt>
      <trkpt lat="43.74253" lon="6.67244">
        <ele>1431.7</ele>
        <time>2024-05-26T11:30:03Z</time>
      </trkpt>
      <trkpt lat="43.74252" lon="6.67244">
        <ele>1431.7</ele>
        <time>2024-05-26T11:30:04Z</time>
      </trkpt>
      <trkpt lat="43.74253" lon="6.67244">
        <ele>1431.7</ele>
        <time>2024-05-26T11:30:05Z</time>
      </trkpt>
      <trkpt lat="43.74253" lon="6.67244">
        <ele>1431.6</ele>
        <time>2024-05-26T11:30:06Z</time>
      </trkpt>
      <trkpt lat="43.74253" lon="6.67244">
        <ele>1431.6</ele>
        <time>2024-05-26T11:30:07Z</time>
      </trkpt>
      <trkpt lat="43.74253" lon="6.67244">
        <ele>1431.6</ele>
        <time>2024-05-26T11:30:08Z</time>
      </trkpt>
      <trkpt lat="43.74253" lon="6.67244">
        <ele>1431.6</ele>
        <time>2024-05-26T11:30:09Z</time>
      </trkpt>
      <trkpt lat="43.74253" lon="6.67244">
        <ele>1431.5</ele>
        <time>2024-05-26T11:30:10Z</time>
      </trkpt>
      <trkpt lat="43.74253" lon="6.67244">
        <ele>1431.4</ele>
        <time>2024-05-26T11:30:11Z</time>
      </trkpt>
      <trkpt lat="43.74253" lon="6.67244">
        <ele>1431.3</ele>
        <time>2024-05-26T11:30:12Z</time>
      </trkpt>
      <trkpt lat="43.74253" lon="6.67244">
        <ele>1431.3</ele>
        <time>2024-05-26T11:30:13Z</time>
      </trkpt>
      <trkpt lat="43.74253" lon="6.67244">
        <ele>1431.3</ele>
        <time>2024-05-26T11:30:14Z</time>
      </trkpt>
      <trkpt lat="43.74253" lon="6.67244">
        <ele>1431.3</ele>
        <time>2024-05-26T11:30:15Z</time>
      </trkpt>
      <trkpt lat="43.74253" lon="6.67244">
        <ele>1431.4</ele>
        <time>2024-05-26T11:30:16Z</time>
      </trkpt>
      <trkpt lat="43.74253" lon="6.67244">
        <ele>1431.5</ele>
        <time>2024-05-26T11:30:17Z</time>
      </trkpt>
      <trkpt lat="43.74254" lon="6.67244">
        <ele>1431.5</ele>
        <time>2024-05-26T11:30:18Z</time>
      </trkpt>
      <trkpt lat="43.74254" lon="6.67244">
        <ele>1431.6</ele>
        <time>2024-05-26T11:30:19Z</time>
      </trkpt>
      <trkpt lat="43.74254" lon="6.67244">
        <ele>1431.6</ele>
        <time>2024-05-26T11:30:20Z</time>
      </trkpt>
      <trkpt lat="43.74254" lon="6.67244">
        <ele>1431.7</ele>
        <time>2024-05-26T11:30:21Z</time>
      </trkpt>
      <trkpt lat="43.74254" lon="6.67244">
        <ele>1431.8</ele>
        <time>2024-05-26T11:30:22Z</time>
      </trkpt>
      <trkpt lat="43.74254" lon="6.67244">
        <ele>1431.8</ele>
        <time>2024-05-26T11:30:23Z</time>
      </trkpt>
      <trkpt lat="43.74254" lon="6.67244">
        <ele>1431.9</ele>
        <time>2024-05-26T11:30:24Z</time>
      </trkpt>
      <trkpt lat="43.74254" lon="6.67244">
        <ele>1431.9</ele>
        <time>2024-05-26T11:30:25Z</time>
      </trkpt>
      <trkpt lat="43.74254" lon="6.67244">
        <ele>1431.9</ele>
        <time>2024-05-26T11:30:26Z</time>
      </trkpt>
      <trkpt lat="43.74254" lon="6.67244">
        <ele>1431.8</ele>
        <time>2024-05-26T11:30:27Z</time>
      </trkpt>
      <trkpt lat="43.74254" lon="6.67244">
        <ele>1431.8</ele>
        <time>2024-05-26T11:30:28Z</time>
      </trkpt>
      <trkpt lat="43.74254" lon="6.67244">
        <ele>1431.8</ele>
        <time>2024-05-26T11:30:29Z</time>
      </trkpt>
      <trkpt lat="43.74254" lon="6.67244">
        <ele>1431.8</ele>
        <time>2024-05-26T11:30:30Z</time>
      </trkpt>
      <trkpt lat="43.74254" lon="6.67244">
        <ele>1431.9</ele>
        <time>2024-05-26T11:30:31Z</time>
      </trkpt>
      <trkpt lat="43.74254" lon="6.67244">
        <ele>1431.8</ele>
        <time>2024-05-26T11:30:32Z</time>
      </trkpt>
      <trkpt lat="43.74254" lon="6.67244">
        <ele>1431.7</ele>
        <time>2024-05-26T11:30:33Z</time>
      </trkpt>
      <trkpt lat="43.74254" lon="6.67244">
        <ele>1431.6</ele>
        <time>2024-05-26T11:30:34Z</time>
      </trkpt>
      <trkpt lat="43.74254" lon="6.67244">
        <ele>1431.6</ele>
        <time>2024-05-26T11:30:35Z</time>
      </trkpt>
      <trkpt lat="43.74254" lon="6.67244">
        <ele>1431.6</ele>
        <time>2024-05-26T11:30:36Z</time>
      </trkpt>
      <trkpt lat="43.74254" lon="6.67244">
        <ele>1431.6</ele>
        <time>2024-05-26T11:30:37Z</time>
      </trkpt>
      <trkpt lat="43.74254" lon="6.67244">
        <ele>1431.6</ele>
        <time>2024-05-26T11:30:38Z</time>
      </trkpt>
      <trkpt lat="43.74254" lon="6.67244">
        <ele>1431.7</ele>
        <time>2024-05-26T11:30:39Z</time>
      </trkpt>
      <trkpt lat="43.74254" lon="6.67244">
        <ele>1431.6</ele>
        <time>2024-05-26T11:30:40Z</time>
      </trkpt>
      <trkpt lat="43.74255" lon="6.67244">
        <ele>1431.6</ele>
        <time>2024-05-26T11:30:41Z</time>
      </trkpt>
      <trkpt lat="43.74255" lon="6.67244">
        <ele>1431.5</ele>
        <time>2024-05-26T11:30:42Z</time>
      </trkpt>
      <trkpt lat="43.74255" lon="6.67244">
        <ele>1431.5</ele>
        <time>2024-05-26T11:30:43Z</time>
      </trkpt>
      <trkpt lat="43.74255" lon="6.67244">
        <ele>1431.5</ele>
        <time>2024-05-26T11:30:44Z</time>
      </trkpt>
      <trkpt lat="43.74255" lon="6.67244">
        <ele>1431.4</ele>
        <time>2024-05-26T11:30:45Z</time>
      </trkpt>
      <trkpt lat="43.74255" lon="6.67244">
        <ele>1431.4</ele>
        <time>2024-05-26T11:30:46Z</time>
      </trkpt>
      <trkpt lat="43.74255" lon="6.67244">
        <ele>1431.4</ele>
        <time>2024-05-26T11:30:47Z</time>
      </trkpt>
      <trkpt lat="43.74255" lon="6.67244">
        <ele>1431.4</ele>
        <time>2024-05-26T11:30:48Z</time>
      </trkpt>
      <trkpt lat="43.74255" lon="6.67244">
        <ele>1431.4</ele>
        <time>2024-05-26T11:30:49Z</time>
      </trkpt>
      <trkpt lat="43.74255" lon="6.67244">
        <ele>1431.4</ele>
        <time>2024-05-26T11:30:50Z</time>
      </trkpt>
      <trkpt lat="43.74255" lon="6.67244">
        <ele>1431.4</ele>
        <time>2024-05-26T11:30:51Z</time>
      </trkpt>
      <trkpt lat="43.74255" lon="6.67244">
        <ele>1431.4</ele>
        <time>2024-05-26T11:30:52Z</time>
      </trkpt>
      <trkpt lat="43.74255" lon="6.67244">
        <ele>1431.4</ele>
        <time>2024-05-26T11:30:53Z</time>
      </trkpt>
      <trkpt lat="43.74255" lon="6.67244">
        <ele>1431.3</ele>
        <time>2024-05-26T11:30:54Z</time>
      </trkpt>
      <trkpt lat="43.74255" lon="6.67244">
        <ele>1431.3</ele>
        <time>2024-05-26T11:30:55Z</time>
      </trkpt>
      <trkpt lat="43.74256" lon="6.67244">
        <ele>1431.3</ele>
        <time>2024-05-26T11:30:56Z</time>
      </trkpt>
      <trkpt lat="43.74256" lon="6.67244">
        <ele>1431.3</ele>
        <time>2024-05-26T11:30:57Z</time>
      </trkpt>
      <trkpt lat="43.74256" lon="6.67244">
        <ele>1431.2</ele>
        <time>2024-05-26T11:30:58Z</time>
      </trkpt>
      <trkpt lat="43.74256" lon="6.67244">
        <ele>1431.2</ele>
        <time>2024-05-26T11:30:59Z</time>
      </trkpt>
      <trkpt lat="43.74256" lon="6.67244">
        <ele>1431.2</ele>
        <time>2024-05-26T11:31:00Z</time>
      </trkpt>
      <trkpt lat="43.74256" lon="6.67244">
        <ele>1431.2</ele>
        <time>2024-05-26T11:31:01Z</time>
      </trkpt>
      <trkpt lat="43.74256" lon="6.67244">
        <ele>1431.3</ele>
        <time>2024-05-26T11:31:02Z</time>
      </trkpt>
      <trkpt lat="43.74257" lon="6.67243">
        <ele>1431.3</ele>
        <time>2024-05-26T11:31:03Z</time>
      </trkpt>
      <trkpt lat="43.74257" lon="6.67243">
        <ele>1431.3</ele>
        <time>2024-05-26T11:31:04Z</time>
      </trkpt>
      <trkpt lat="43.74257" lon="6.67243">
        <ele>1431.3</ele>
        <time>2024-05-26T11:31:05Z</time>
      </trkpt>
      <trkpt lat="43.74257" lon="6.67243">
        <ele>1431.3</ele>
        <time>2024-05-26T11:31:06Z</time>
      </trkpt>
      <trkpt lat="43.74257" lon="6.67243">
        <ele>1431.4</ele>
        <time>2024-05-26T11:31:07Z</time>
      </trkpt>
      <trkpt lat="43.74257" lon="6.67243">
        <ele>1431.4</ele>
        <time>2024-05-26T11:31:08Z</time>
      </trkpt>
      <trkpt lat="43.74258" lon="6.67243">
        <ele>1431.3</ele>
        <time>2024-05-26T11:31:09Z</time>
      </trkpt>
      <trkpt lat="43.74258" lon="6.67243">
        <ele>1431.4</ele>
        <time>2024-05-26T11:31:10Z</time>
      </trkpt>
      <trkpt lat="43.74258" lon="6.67243">
        <ele>1431.4</ele>
        <time>2024-05-26T11:31:11Z</time>
      </trkpt>
      <trkpt lat="43.74258" lon="6.67243">
        <ele>1431.5</ele>
        <time>2024-05-26T11:31:12Z</time>
      </trkpt>
      <trkpt lat="43.74259" lon="6.67243">
        <ele>1431.5</ele>
        <time>2024-05-26T11:31:13Z</time>
      </trkpt>
      <trkpt lat="43.74259" lon="6.67242">
        <ele>1431.5</ele>
        <time>2024-05-26T11:31:14Z</time>
      </trkpt>
      <trkpt lat="43.74259" lon="6.67242">
        <ele>1431.5</ele>
        <time>2024-05-26T11:31:15Z</time>
      </trkpt>
      <trkpt lat="43.74259" lon="6.67242">
        <ele>1431.5</ele>
        <time>2024-05-26T11:31:16Z</time>
      </trkpt>
      <trkpt lat="43.74259" lon="6.67242">
        <ele>1431.5</ele>
        <time>2024-05-26T11:31:17Z</time>
      </trkpt>
      <trkpt lat="43.7426" lon="6.67242">
        <ele>1431.5</ele>
        <time>2024-05-26T11:31:18Z</time>
      </trkpt>
      <trkpt lat="43.7426" lon="6.67242">
        <ele>1431.6</ele>
        <time>2024-05-26T11:31:19Z</time>
      </trkpt>
      <trkpt lat="43.7426" lon="6.67242">
        <ele>1431.7</ele>
        <time>2024-05-26T11:31:20Z</time>
      </trkpt>
      <trkpt lat="43.7426" lon="6.67242">
        <ele>1431.7</ele>
        <time>2024-05-26T11:31:21Z</time>
      </trkpt>
      <trkpt lat="43.7426" lon="6.67242">
        <ele>1431.6</ele>
        <time>2024-05-26T11:31:22Z</time>
      </trkpt>
      <trkpt lat="43.7426" lon="6.67242">
        <ele>1431.7</ele>
        <time>2024-05-26T11:31:23Z</time>
      </trkpt>
      <trkpt lat="43.74261" lon="6.67242">
        <ele>1431.7</ele>
        <time>2024-05-26T11:31:24Z</time>
      </trkpt>
      <trkpt lat="43.74261" lon="6.67242">
        <ele>1431.7</ele>
        <time>2024-05-26T11:31:25Z</time>
      </trkpt>
      <trkpt lat="43.74261" lon="6.67242">
        <ele>1431.8</ele>
        <time>2024-05-26T11:31:26Z</time>
      </trkpt>
      <trkpt lat="43.74261" lon="6.67242">
        <ele>1431.8</ele>
        <time>2024-05-26T11:31:27Z</time>
      </trkpt>
      <trkpt lat="43.74261" lon="6.67242">
        <ele>1431.8</ele>
        <time>2024-05-26T11:31:28Z</time>
      </trkpt>
      <trkpt lat="43.74261" lon="6.67242">
        <ele>1431.8</ele>
        <time>2024-05-26T11:31:29Z</time>
      </trkpt>
      <trkpt lat="43.74261" lon="6.67243">
        <ele>1431.9</ele>
        <time>2024-05-26T11:31:30Z</time>
      </trkpt>
      <trkpt lat="43.74261" lon="6.67243">
        <ele>1431.9</ele>
        <time>2024-05-26T11:31:31Z</time>
      </trkpt>
      <trkpt lat="43.74261" lon="6.67243">
        <ele>1431.9</ele>
        <time>2024-05-26T11:31:32Z</time>
      </trkpt>
      <trkpt lat="43.74261" lon="6.67243">
        <ele>1431.9</ele>
        <time>2024-05-26T11:31:33Z</time>
      </trkpt>
      <trkpt lat="43.74261" lon="6.67243">
        <ele>1431.9</ele>
        <time>2024-05-26T11:31:34Z</time>
      </trkpt>
      <trkpt lat="43.74261" lon="6.67244">
        <ele>1431.9</ele>
        <time>2024-05-26T11:31:35Z</time>
      </trkpt>
      <trkpt lat="43.7426" lon="6.67243">
        <ele>1431.9</ele>
        <time>2024-05-26T11:31:36Z</time>
      </trkpt>
      <trkpt lat="43.7426" lon="6.67244">
        <ele>1431.9</ele>
        <time>2024-05-26T11:31:37Z</time>
      </trkpt>
      <trkpt lat="43.7426" lon="6.67244">
        <ele>1432</ele>
        <time>2024-05-26T11:31:38Z</time>
      </trkpt>
      <trkpt lat="43.7426" lon="6.67244">
        <ele>1432</ele>
        <time>2024-05-26T11:31:39Z</time>
      </trkpt>
      <trkpt lat="43.7426" lon="6.67244">
        <ele>1432</ele>
        <time>2024-05-26T11:31:40Z</time>
      </trkpt>
      <trkpt lat="43.7426" lon="6.67244">
        <ele>1432</ele>
        <time>2024-05-26T11:31:41Z</time>
      </trkpt>
      <trkpt lat="43.7426" lon="6.67244">
        <ele>1432</ele>
        <time>2024-05-26T11:31:42Z</time>
      </trkpt>
      <trkpt lat="43.7426" lon="6.67243">
        <ele>1431.9</ele>
        <time>2024-05-26T11:31:43Z</time>
      </trkpt>
      <trkpt lat="43.7426" lon="6.67243">
        <ele>1431.9</ele>
        <time>2024-05-26T11:31:44Z</time>
      </trkpt>
      <trkpt lat="43.7426" lon="6.67243">
        <ele>1431.9</ele>
        <time>2024-05-26T11:31:45Z</time>
      </trkpt>
      <trkpt lat="43.74259" lon="6.67242">
        <ele>1431.9</ele>
        <time>2024-05-26T11:31:46Z</time>
      </trkpt>
      <trkpt lat="43.74258" lon="6.6724">
        <ele>1431.9</ele>
        <time>2024-05-26T11:31:47Z</time>
      </trkpt>
      <trkpt lat="43.74258" lon="6.6724">
        <ele>1432</ele>
        <time>2024-05-26T11:31:48Z</time>
      </trkpt>
      <trkpt lat="43.74258" lon="6.6724">
        <ele>1432</ele>
        <time>2024-05-26T11:31:49Z</time>
      </trkpt>
      <trkpt lat="43.74258" lon="6.6724">
        <ele>1432.1</ele>
        <time>2024-05-26T11:31:50Z</time>
      </trkpt>
      <trkpt lat="43.74258" lon="6.67239">
        <ele>1432.2</ele>
        <time>2024-05-26T11:31:51Z</time>
      </trkpt>
      <trkpt lat="43.74258" lon="6.67239">
        <ele>1432.3</ele>
        <time>2024-05-26T11:31:52Z</time>
      </trkpt>
      <trkpt lat="43.74257" lon="6.67238">
        <ele>1432.3</ele>
        <time>2024-05-26T11:31:53Z</time>
      </trkpt>
      <trkpt lat="43.74257" lon="6.67238">
        <ele>1432.3</ele>
        <time>2024-05-26T11:31:54Z</time>
      </trkpt>
      <trkpt lat="43.74257" lon="6.67237">
        <ele>1432.4</ele>
        <time>2024-05-26T11:31:55Z</time>
      </trkpt>
      <trkpt lat="43.74257" lon="6.67236">
        <ele>1432.6</ele>
        <time>2024-05-26T11:31:56Z</time>
      </trkpt>
      <trkpt lat="43.74257" lon="6.67236">
        <ele>1432.6</ele>
        <time>2024-05-26T11:31:57Z</time>
      </trkpt>
      <trkpt lat="43.74258" lon="6.67236">
        <ele>1432.6</ele>
        <time>2024-05-26T11:31:58Z</time>
      </trkpt>
      <trkpt lat="43.74258" lon="6.67235">
        <ele>1432.7</ele>
        <time>2024-05-26T11:31:59Z</time>
      </trkpt>
      <trkpt lat="43.74258" lon="6.67235">
        <ele>1432.7</ele>
        <time>2024-05-26T11:32:00Z</time>
      </trkpt>
      <trkpt lat="43.74258" lon="6.67235">
        <ele>1432.7</ele>
        <time>2024-05-26T11:32:01Z</time>
      </trkpt>
      <trkpt lat="43.74258" lon="6.67234">
        <ele>1432.7</ele>
        <time>2024-05-26T11:32:02Z</time>
      </trkpt>
      <trkpt lat="43.74258" lon="6.67233">
        <ele>1432.7</ele>
        <time>2024-05-26T11:32:03Z</time>
      </trkpt>
      <trkpt lat="43.74257" lon="6.67233">
        <ele>1432.6</ele>
        <time>2024-05-26T11:32:04Z</time>
      </trkpt>
      <trkpt lat="43.74257" lon="6.67233">
        <ele>1432.6</ele>
        <time>2024-05-26T11:32:05Z</time>
      </trkpt>
      <trkpt lat="43.74258" lon="6.67233">
        <ele>1432.6</ele>
        <time>2024-05-26T11:32:06Z</time>
      </trkpt>
      <trkpt lat="43.74258" lon="6.67232">
        <ele>1432.6</ele>
        <time>2024-05-26T11:32:07Z</time>
      </trkpt>
      <trkpt lat="43.74258" lon="6.67232">
        <ele>1432.6</ele>
        <time>2024-05-26T11:32:08Z</time>
      </trkpt>
      <trkpt lat="43.74258" lon="6.67232">
        <ele>1432.6</ele>
        <time>2024-05-26T11:32:09Z</time>
      </trkpt>
      <trkpt lat="43.74258" lon="6.67231">
        <ele>1432.5</ele>
        <time>2024-05-26T11:32:10Z</time>
      </trkpt>
      <trkpt lat="43.74258" lon="6.67231">
        <ele>1432.4</ele>
        <time>2024-05-26T11:32:11Z</time>
      </trkpt>
      <trkpt lat="43.74259" lon="6.67231">
        <ele>1432.4</ele>
        <time>2024-05-26T11:32:12Z</time>
      </trkpt>
      <trkpt lat="43.74259" lon="6.67231">
        <ele>1432.3</ele>
        <time>2024-05-26T11:32:13Z</time>
      </trkpt>
      <trkpt lat="43.74259" lon="6.67232">
        <ele>1432.1</ele>
        <time>2024-05-26T11:32:14Z</time>
      </trkpt>
      <trkpt lat="43.74259" lon="6.67232">
        <ele>1432.1</ele>
        <time>2024-05-26T11:32:15Z</time>
      </trkpt>
      <trkpt lat="43.74259" lon="6.67232">
        <ele>1432</ele>
        <time>2024-05-26T11:32:16Z</time>
      </trkpt>
      <trkpt lat="43.74259" lon="6.67232">
        <ele>1432</ele>
        <time>2024-05-26T11:32:17Z</time>
      </trkpt>
      <trkpt lat="43.74259" lon="6.67232">
        <ele>1431.9</ele>
        <time>2024-05-26T11:32:18Z</time>
      </trkpt>
      <trkpt lat="43.74258" lon="6.67232">
        <ele>1431.8</ele>
        <time>2024-05-26T11:32:19Z</time>
      </trkpt>
      <trkpt lat="43.74258" lon="6.67232">
        <ele>1431.8</ele>
        <time>2024-05-26T11:32:20Z</time>
      </trkpt>
      <trkpt lat="43.74258" lon="6.67232">
        <ele>1431.8</ele>
        <time>2024-05-26T11:32:21Z</time>
      </trkpt>
      <trkpt lat="43.74258" lon="6.67232">
        <ele>1431.8</ele>
        <time>2024-05-26T11:32:22Z</time>
      </trkpt>
      <trkpt lat="43.74258" lon="6.67232">
        <ele>1431.8</ele>
        <time>2024-05-26T11:32:23Z</time>
      </trkpt>
      <trkpt lat="43.74258" lon="6.67232">
        <ele>1431.8</ele>
        <time>2024-05-26T11:32:24Z</time>
      </trkpt>
      <trkpt lat="43.74257" lon="6.67232">
        <ele>1431.9</ele>
        <time>2024-05-26T11:32:25Z</time>
      </trkpt>
      <trkpt lat="43.74257" lon="6.67232">
        <ele>1431.9</ele>
        <time>2024-05-26T11:32:26Z</time>
      </trkpt>
      <trkpt lat="43.74257" lon="6.67232">
        <ele>1431.8</ele>
        <time>2024-05-26T11:32:27Z</time>
      </trkpt>
      <trkpt lat="43.74257" lon="6.67233">
        <ele>1431.8</ele>
        <time>2024-05-26T11:32:28Z</time>
      </trkpt>
      <trkpt lat="43.74257" lon="6.67233">
        <ele>1431.8</ele>
        <time>2024-05-26T11:32:29Z</time>
      </trkpt>
      <trkpt lat="43.74257" lon="6.67233">
        <ele>1431.7</ele>
        <time>2024-05-26T11:32:30Z</time>
      </trkpt>
      <trkpt lat="43.74257" lon="6.67233">
        <ele>1431.7</ele>
        <time>2024-05-26T11:32:31Z</time>
      </trkpt>
      <trkpt lat="43.74257" lon="6.67233">
        <ele>1431.7</ele>
        <time>2024-05-26T11:32:32Z</time>
      </trkpt>
      <trkpt lat="43.74257" lon="6.67233">
        <ele>1431.7</ele>
        <time>2024-05-26T11:32:33Z</time>
      </trkpt>
      <trkpt lat="43.74257" lon="6.67234">
        <ele>1431.7</ele>
        <time>2024-05-26T11:32:34Z</time>
      </trkpt>
      <trkpt lat="43.74257" lon="6.67234">
        <ele>1431.7</ele>
        <time>2024-05-26T11:32:35Z</time>
      </trkpt>
      <trkpt lat="43.74257" lon="6.67234">
        <ele>1431.7</ele>
        <time>2024-05-26T11:32:36Z</time>
      </trkpt>
      <trkpt lat="43.74257" lon="6.67234">
        <ele>1431.7</ele>
        <time>2024-05-26T11:32:37Z</time>
      </trkpt>
      <trkpt lat="43.74257" lon="6.67235">
        <ele>1431.7</ele>
        <time>2024-05-26T11:32:38Z</time>
      </trkpt>
      <trkpt lat="43.74257" lon="6.67235">
        <ele>1431.7</ele>
        <time>2024-05-26T11:32:39Z</time>
      </trkpt>
      <trkpt lat="43.74257" lon="6.67235">
        <ele>1431.8</ele>
        <time>2024-05-26T11:32:40Z</time>
      </trkpt>
      <trkpt lat="43.74257" lon="6.67235">
        <ele>1431.7</ele>
        <time>2024-05-26T11:32:41Z</time>
      </trkpt>
      <trkpt lat="43.74257" lon="6.67235">
        <ele>1431.7</ele>
        <time>2024-05-26T11:32:42Z</time>
      </trkpt>
      <trkpt lat="43.74258" lon="6.67235">
        <ele>1431.7</ele>
        <time>2024-05-26T11:32:43Z</time>
      </trkpt>
      <trkpt lat="43.74258" lon="6.67235">
        <ele>1431.7</ele>
        <time>2024-05-26T11:32:44Z</time>
      </trkpt>
      <trkpt lat="43.74258" lon="6.67235">
        <ele>1431.7</ele>
        <time>2024-05-26T11:32:45Z</time>
      </trkpt>
      <trkpt lat="43.74258" lon="6.67235">
        <ele>1431.7</ele>
        <time>2024-05-26T11:32:46Z</time>
      </trkpt>
      <trkpt lat="43.74258" lon="6.67235">
        <ele>1431.6</ele>
        <time>2024-05-26T11:32:47Z</time>
      </trkpt>
      <trkpt lat="43.74258" lon="6.67235">
        <ele>1431.6</ele>
        <time>2024-05-26T11:32:48Z</time>
      </trkpt>
      <trkpt lat="43.74258" lon="6.67236">
        <ele>1431.7</ele>
        <time>2024-05-26T11:32:49Z</time>
      </trkpt>
      <trkpt lat="43.74258" lon="6.67237">
        <ele>1431.8</ele>
        <time>2024-05-26T11:32:50Z</time>
      </trkpt>
      <trkpt lat="43.74258" lon="6.67237">
        <ele>1431.9</ele>
        <time>2024-05-26T11:32:51Z</time>
      </trkpt>
      <trkpt lat="43.74258" lon="6.67238">
        <ele>1432</ele>
        <time>2024-05-26T11:32:52Z</time>
      </trkpt>
      <trkpt lat="43.74259" lon="6.67239">
        <ele>1432.2</ele>
        <time>2024-05-26T11:32:53Z</time>
      </trkpt>
      <trkpt lat="43.74259" lon="6.67239">
        <ele>1432.3</ele>
        <time>2024-05-26T11:32:54Z</time>
      </trkpt>
      <trkpt lat="43.74259" lon="6.67239">
        <ele>1432.4</ele>
        <time>2024-05-26T11:32:55Z</time>
      </trkpt>
      <trkpt lat="43.74259" lon="6.67239">
        <ele>1432.5</ele>
        <time>2024-05-26T11:32:56Z</time>
      </trkpt>
      <trkpt lat="43.74258" lon="6.67239">
        <ele>1432.5</ele>
        <time>2024-05-26T11:32:57Z</time>
      </trkpt>
      <trkpt lat="43.74258" lon="6.67239">
        <ele>1432.5</ele>
        <time>2024-05-26T11:32:58Z</time>
      </trkpt>
      <trkpt lat="43.74258" lon="6.67239">
        <ele>1432.6</ele>
        <time>2024-05-26T11:32:59Z</time>
      </trkpt>
      <trkpt lat="43.74258" lon="6.67239">
        <ele>1432.7</ele>
        <time>2024-05-26T11:33:00Z</time>
      </trkpt>
      <trkpt lat="43.74258" lon="6.67239">
        <ele>1432.7</ele>
        <time>2024-05-26T11:33:01Z</time>
      </trkpt>
      <trkpt lat="43.74258" lon="6.67239">
        <ele>1432.7</ele>
        <time>2024-05-26T11:33:02Z</time>
      </trkpt>
      <trkpt lat="43.74257" lon="6.67239">
        <ele>1432.7</ele>
        <time>2024-05-26T11:33:03Z</time>
      </trkpt>
      <trkpt lat="43.74257" lon="6.6724">
        <ele>1432.7</ele>
        <time>2024-05-26T11:33:04Z</time>
      </trkpt>
      <trkpt lat="43.74257" lon="6.6724">
        <ele>1432.7</ele>
        <time>2024-05-26T11:33:05Z</time>
      </trkpt>
      <trkpt lat="43.74256" lon="6.6724">
        <ele>1432.7</ele>
        <time>2024-05-26T11:33:06Z</time>
      </trkpt>
      <trkpt lat="43.74256" lon="6.6724">
        <ele>1432.7</ele>
        <time>2024-05-26T11:33:07Z</time>
      </trkpt>
      <trkpt lat="43.74256" lon="6.6724">
        <ele>1432.6</ele>
        <time>2024-05-26T11:33:08Z</time>
      </trkpt>
      <trkpt lat="43.74255" lon="6.6724">
        <ele>1432.7</ele>
        <time>2024-05-26T11:33:09Z</time>
      </trkpt>
      <trkpt lat="43.74255" lon="6.67241">
        <ele>1432.7</ele>
        <time>2024-05-26T11:33:10Z</time>
      </trkpt>
      <trkpt lat="43.74255" lon="6.67241">
        <ele>1432.7</ele>
        <time>2024-05-26T11:33:11Z</time>
      </trkpt>
      <trkpt lat="43.74255" lon="6.67241">
        <ele>1432.7</ele>
        <time>2024-05-26T11:33:12Z</time>
      </trkpt>
      <trkpt lat="43.74255" lon="6.67241">
        <ele>1432.7</ele>
        <time>2024-05-26T11:33:13Z</time>
      </trkpt>
      <trkpt lat="43.74255" lon="6.67241">
        <ele>1432.8</ele>
        <time>2024-05-26T11:33:14Z</time>
      </trkpt>
      <trkpt lat="43.74255" lon="6.67241">
        <ele>1432.8</ele>
        <time>2024-05-26T11:33:15Z</time>
      </trkpt>
      <trkpt lat="43.74255" lon="6.67241">
        <ele>1432.7</ele>
        <time>2024-05-26T11:33:16Z</time>
      </trkpt>
      <trkpt lat="43.74255" lon="6.67241">
        <ele>1432.7</ele>
        <time>2024-05-26T11:33:17Z</time>
      </trkpt>
      <trkpt lat="43.74255" lon="6.67241">
        <ele>1432.6</ele>
        <time>2024-05-26T11:33:18Z</time>
      </trkpt>
      <trkpt lat="43.74256" lon="6.67241">
        <ele>1432.6</ele>
        <time>2024-05-26T11:33:19Z</time>
      </trkpt>
      <trkpt lat="43.74256" lon="6.67241">
        <ele>1432.5</ele>
        <time>2024-05-26T11:33:20Z</time>
      </trkpt>
      <trkpt lat="43.74256" lon="6.67241">
        <ele>1432.4</ele>
        <time>2024-05-26T11:33:21Z</time>
      </trkpt>
      <trkpt lat="43.74256" lon="6.67241">
        <ele>1432.4</ele>
        <time>2024-05-26T11:33:22Z</time>
      </trkpt>
      <trkpt lat="43.74256" lon="6.67241">
        <ele>1432.5</ele>
        <time>2024-05-26T11:33:23Z</time>
      </trkpt>
      <trkpt lat="43.74256" lon="6.67241">
        <ele>1432.5</ele>
        <time>2024-05-26T11:33:24Z</time>
      </trkpt>
      <trkpt lat="43.74256" lon="6.67241">
        <ele>1432.5</ele>
        <time>2024-05-26T11:33:25Z</time>
      </trkpt>
      <trkpt lat="43.74256" lon="6.67241">
        <ele>1432.6</ele>
        <time>2024-05-26T11:33:26Z</time>
      </trkpt>
      <trkpt lat="43.74256" lon="6.67241">
        <ele>1432.6</ele>
        <time>2024-05-26T11:33:27Z</time>
      </trkpt>
      <trkpt lat="43.74256" lon="6.67241">
        <ele>1432.6</ele>
        <time>2024-05-26T11:33:28Z</time>
      </trkpt>
      <trkpt lat="43.74256" lon="6.67241">
        <ele>1432.5</ele>
        <time>2024-05-26T11:33:29Z</time>
      </trkpt>
      <trkpt lat="43.74256" lon="6.67241">
        <ele>1432.5</ele>
        <time>2024-05-26T11:33:30Z</time>
      </trkpt>
      <trkpt lat="43.74256" lon="6.67241">
        <ele>1432.5</ele>
        <time>2024-05-26T11:33:31Z</time>
      </trkpt>
      <trkpt lat="43.74256" lon="6.67241">
        <ele>1432.4</ele>
        <time>2024-05-26T11:33:32Z</time>
      </trkpt>
      <trkpt lat="43.74256" lon="6.67241">
        <ele>1432.5</ele>
        <time>2024-05-26T11:33:33Z</time>
      </trkpt>
      <trkpt lat="43.74256" lon="6.67241">
        <ele>1432.5</ele>
        <time>2024-05-26T11:33:34Z</time>
      </trkpt>
      <trkpt lat="43.74256" lon="6.67241">
        <ele>1432.5</ele>
        <time>2024-05-26T11:33:35Z</time>
      </trkpt>
      <trkpt lat="43.74256" lon="6.6724">
        <ele>1432.5</ele>
        <time>2024-05-26T11:33:36Z</time>
      </trkpt>
      <trkpt lat="43.74256" lon="6.6724">
        <ele>1432.5</ele>
        <time>2024-05-26T11:33:37Z</time>
      </trkpt>
      <trkpt lat="43.74256" lon="6.6724">
        <ele>1432.4</ele>
        <time>2024-05-26T11:33:38Z</time>
      </trkpt>
      <trkpt lat="43.74256" lon="6.6724">
        <ele>1432.4</ele>
        <time>2024-05-26T11:33:39Z</time>
      </trkpt>
      <trkpt lat="43.74256" lon="6.6724">
        <ele>1432.4</ele>
        <time>2024-05-26T11:33:40Z</time>
      </trkpt>
      <trkpt lat="43.74256" lon="6.6724">
        <ele>1432.4</ele>
        <time>2024-05-26T11:33:41Z</time>
      </trkpt>
      <trkpt lat="43.74256" lon="6.6724">
        <ele>1432.4</ele>
        <time>2024-05-26T11:33:42Z</time>
      </trkpt>
      <trkpt lat="43.74256" lon="6.6724">
        <ele>1432.4</ele>
        <time>2024-05-26T11:33:43Z</time>
      </trkpt>
      <trkpt lat="43.74256" lon="6.6724">
        <ele>1432.4</ele>
        <time>2024-05-26T11:33:44Z</time>
      </trkpt>
      <trkpt lat="43.74256" lon="6.6724">
        <ele>1432.4</ele>
        <time>2024-05-26T11:33:45Z</time>
      </trkpt>
      <trkpt lat="43.74256" lon="6.6724">
        <ele>1432.4</ele>
        <time>2024-05-26T11:33:46Z</time>
      </trkpt>
      <trkpt lat="43.74257" lon="6.6724">
        <ele>1432.5</ele>
        <time>2024-05-26T11:33:47Z</time>
      </trkpt>
      <trkpt lat="43.74257" lon="6.6724">
        <ele>1432.5</ele>
        <time>2024-05-26T11:33:48Z</time>
      </trkpt>
      <trkpt lat="43.74257" lon="6.6724">
        <ele>1432.5</ele>
        <time>2024-05-26T11:33:49Z</time>
      </trkpt>
      <trkpt lat="43.74257" lon="6.6724">
        <ele>1432.5</ele>
        <time>2024-05-26T11:33:50Z</time>
      </trkpt>
      <trkpt lat="43.74257" lon="6.6724">
        <ele>1432.6</ele>
        <time>2024-05-26T11:33:51Z</time>
      </trkpt>
      <trkpt lat="43.74258" lon="6.6724">
        <ele>1432.6</ele>
        <time>2024-05-26T11:33:52Z</time>
      </trkpt>
      <trkpt lat="43.74258" lon="6.67241">
        <ele>1432.6</ele>
        <time>2024-05-26T11:33:53Z</time>
      </trkpt>
      <trkpt lat="43.74258" lon="6.67242">
        <ele>1432.6</ele>
        <time>2024-05-26T11:33:54Z</time>
      </trkpt>
      <trkpt lat="43.74258" lon="6.67242">
        <ele>1432.6</ele>
        <time>2024-05-26T11:33:55Z</time>
      </trkpt>
      <trkpt lat="43.74258" lon="6.67242">
        <ele>1432.6</ele>
        <time>2024-05-26T11:33:56Z</time>
      </trkpt>
      <trkpt lat="43.74258" lon="6.67242">
        <ele>1432.6</ele>
        <time>2024-05-26T11:33:57Z</time>
      </trkpt>
      <trkpt lat="43.74258" lon="6.67242">
        <ele>1432.6</ele>
        <time>2024-05-26T11:33:58Z</time>
      </trkpt>
      <trkpt lat="43.74258" lon="6.67242">
        <ele>1432.6</ele>
        <time>2024-05-26T11:33:59Z</time>
      </trkpt>
      <trkpt lat="43.74258" lon="6.67242">
        <ele>1432.6</ele>
        <time>2024-05-26T11:34:00Z</time>
      </trkpt>
      <trkpt lat="43.74258" lon="6.67242">
        <ele>1432.6</ele>
        <time>2024-05-26T11:34:01Z</time>
      </trkpt>
      <trkpt lat="43.74259" lon="6.67242">
        <ele>1432.6</ele>
        <time>2024-05-26T11:34:02Z</time>
      </trkpt>
      <trkpt lat="43.74259" lon="6.67242">
        <ele>1432.6</ele>
        <time>2024-05-26T11:34:03Z</time>
      </trkpt>
      <trkpt lat="43.74259" lon="6.67242">
        <ele>1432.6</ele>
        <time>2024-05-26T11:34:04Z</time>
      </trkpt>
      <trkpt lat="43.74259" lon="6.67242">
        <ele>1432.7</ele>
        <time>2024-05-26T11:34:05Z</time>
      </trkpt>
      <trkpt lat="43.74259" lon="6.67242">
        <ele>1432.7</ele>
        <time>2024-05-26T11:34:06Z</time>
      </trkpt>
      <trkpt lat="43.74259" lon="6.67242">
        <ele>1432.7</ele>
        <time>2024-05-26T11:34:07Z</time>
      </trkpt>
      <trkpt lat="43.74259" lon="6.67242">
        <ele>1432.8</ele>
        <time>2024-05-26T11:34:08Z</time>
      </trkpt>
      <trkpt lat="43.74259" lon="6.67242">
        <ele>1432.8</ele>
        <time>2024-05-26T11:34:09Z</time>
      </trkpt>
      <trkpt lat="43.74259" lon="6.67242">
        <ele>1432.7</ele>
        <time>2024-05-26T11:34:10Z</time>
      </trkpt>
      <trkpt lat="43.74259" lon="6.67242">
        <ele>1432.6</ele>
        <time>2024-05-26T11:34:11Z</time>
      </trkpt>
      <trkpt lat="43.74259" lon="6.67242">
        <ele>1432.5</ele>
        <time>2024-05-26T11:34:12Z</time>
      </trkpt>
      <trkpt lat="43.74259" lon="6.67242">
        <ele>1432.5</ele>
        <time>2024-05-26T11:34:13Z</time>
      </trkpt>
      <trkpt lat="43.74259" lon="6.67242">
        <ele>1432.4</ele>
        <time>2024-05-26T11:34:14Z</time>
      </trkpt>
      <trkpt lat="43.74259" lon="6.67242">
        <ele>1432.4</ele>
        <time>2024-05-26T11:34:15Z</time>
      </trkpt>
      <trkpt lat="43.74258" lon="6.67242">
        <ele>1432.4</ele>
        <time>2024-05-26T11:34:16Z</time>
      </trkpt>
      <trkpt lat="43.74258" lon="6.67242">
        <ele>1432.4</ele>
        <time>2024-05-26T11:34:17Z</time>
      </trkpt>
      <trkpt lat="43.74258" lon="6.67242">
        <ele>1432.4</ele>
        <time>2024-05-26T11:34:18Z</time>
      </trkpt>
      <trkpt lat="43.74258" lon="6.67243">
        <ele>1432.5</ele>
        <time>2024-05-26T11:34:19Z</time>
      </trkpt>
      <trkpt lat="43.74258" lon="6.67243">
        <ele>1432.5</ele>
        <time>2024-05-26T11:34:20Z</time>
      </trkpt>
      <trkpt lat="43.74257" lon="6.67243">
        <ele>1432.6</ele>
        <time>2024-05-26T11:34:21Z</time>
      </trkpt>
      <trkpt lat="43.74257" lon="6.67243">
        <ele>1432.6</ele>
        <time>2024-05-26T11:34:22Z</time>
      </trkpt>
      <trkpt lat="43.74257" lon="6.67243">
        <ele>1432.6</ele>
        <time>2024-05-26T11:34:23Z</time>
      </trkpt>
      <trkpt lat="43.74257" lon="6.67244">
        <ele>1432.6</ele>
        <time>2024-05-26T11:34:24Z</time>
      </trkpt>
      <trkpt lat="43.74256" lon="6.67244">
        <ele>1432.6</ele>
        <time>2024-05-26T11:34:25Z</time>
      </trkpt>
      <trkpt lat="43.74256" lon="6.67244">
        <ele>1432.6</ele>
        <time>2024-05-26T11:34:26Z</time>
      </trkpt>
      <trkpt lat="43.74256" lon="6.67244">
        <ele>1432.7</ele>
        <time>2024-05-26T11:34:27Z</time>
      </trkpt>
      <trkpt lat="43.74256" lon="6.67244">
        <ele>1432.7</ele>
        <time>2024-05-26T11:34:28Z</time>
      </trkpt>
      <trkpt lat="43.74256" lon="6.67244">
        <ele>1432.7</ele>
        <time>2024-05-26T11:34:29Z</time>
      </trkpt>
      <trkpt lat="43.74256" lon="6.67244">
        <ele>1432.6</ele>
        <time>2024-05-26T11:34:30Z</time>
      </trkpt>
      <trkpt lat="43.74256" lon="6.67244">
        <ele>1432.5</ele>
        <time>2024-05-26T11:34:31Z</time>
      </trkpt>
      <trkpt lat="43.74256" lon="6.67244">
        <ele>1432.5</ele>
        <time>2024-05-26T11:34:32Z</time>
      </trkpt>
      <trkpt lat="43.74256" lon="6.67244">
        <ele>1432.5</ele>
        <time>2024-05-26T11:34:33Z</time>
      </trkpt>
      <trkpt lat="43.74256" lon="6.67244">
        <ele>1432.6</ele>
        <time>2024-05-26T11:34:34Z</time>
      </trkpt>
      <trkpt lat="43.74255" lon="6.67244">
        <ele>1432.7</ele>
        <time>2024-05-26T11:34:35Z</time>
      </trkpt>
      <trkpt lat="43.74255" lon="6.67244">
        <ele>1432.7</ele>
        <time>2024-05-26T11:34:36Z</time>
      </trkpt>
      <trkpt lat="43.74255" lon="6.67244">
        <ele>1432.7</ele>
        <time>2024-05-26T11:34:37Z</time>
      </trkpt>
      <trkpt lat="43.74255" lon="6.67244">
        <ele>1432.6</ele>
        <time>2024-05-26T11:34:38Z</time>
      </trkpt>
      <trkpt lat="43.74255" lon="6.67244">
        <ele>1432.7</ele>
        <time>2024-05-26T11:34:39Z</time>
      </trkpt>
      <trkpt lat="43.74255" lon="6.67243">
        <ele>1432.7</ele>
        <time>2024-05-26T11:34:40Z</time>
      </trkpt>
      <trkpt lat="43.74255" lon="6.67243">
        <ele>1432.8</ele>
        <time>2024-05-26T11:34:41Z</time>
      </trkpt>
      <trkpt lat="43.74255" lon="6.67243">
        <ele>1432.8</ele>
        <time>2024-05-26T11:34:42Z</time>
      </trkpt>
      <trkpt lat="43.74255" lon="6.67243">
        <ele>1432.8</ele>
        <time>2024-05-26T11:34:43Z</time>
      </trkpt>
      <trkpt lat="43.74255" lon="6.67243">
        <ele>1432.7</ele>
        <time>2024-05-26T11:34:44Z</time>
      </trkpt>
      <trkpt lat="43.74255" lon="6.67243">
        <ele>1432.7</ele>
        <time>2024-05-26T11:34:45Z</time>
      </trkpt>
      <trkpt lat="43.74256" lon="6.67244">
        <ele>1432.7</ele>
        <time>2024-05-26T11:34:46Z</time>
      </trkpt>
      <trkpt lat="43.74256" lon="6.67244">
        <ele>1432.7</ele>
        <time>2024-05-26T11:34:47Z</time>
      </trkpt>
      <trkpt lat="43.74257" lon="6.67245">
        <ele>1432.8</ele>
        <time>2024-05-26T11:34:48Z</time>
      </trkpt>
      <trkpt lat="43.74258" lon="6.67246">
        <ele>1432.8</ele>
        <time>2024-05-26T11:34:49Z</time>
      </trkpt>
      <trkpt lat="43.74259" lon="6.67247">
        <ele>1432.9</ele>
        <time>2024-05-26T11:34:50Z</time>
      </trkpt>
      <trkpt lat="43.74259" lon="6.67248">
        <ele>1432.9</ele>
        <time>2024-05-26T11:34:51Z</time>
      </trkpt>
      <trkpt lat="43.74259" lon="6.67249">
        <ele>1432.9</ele>
        <time>2024-05-26T11:34:52Z</time>
      </trkpt>
      <trkpt lat="43.7426" lon="6.6725">
        <ele>1433</ele>
        <time>2024-05-26T11:34:53Z</time>
      </trkpt>
      <trkpt lat="43.74261" lon="6.67251">
        <ele>1433.1</ele>
        <time>2024-05-26T11:34:54Z</time>
      </trkpt>
      <trkpt lat="43.74261" lon="6.67251">
        <ele>1433.1</ele>
        <time>2024-05-26T11:34:55Z</time>
      </trkpt>
      <trkpt lat="43.7426" lon="6.67252">
        <ele>1433.3</ele>
        <time>2024-05-26T11:34:56Z</time>
      </trkpt>
      <trkpt lat="43.7426" lon="6.67254">
        <ele>1433.5</ele>
        <time>2024-05-26T11:34:57Z</time>
      </trkpt>
      <trkpt lat="43.7426" lon="6.67255">
        <ele>1433.5</ele>
        <time>2024-05-26T11:34:58Z</time>
      </trkpt>
      <trkpt lat="43.7426" lon="6.67255">
        <ele>1433.6</ele>
        <time>2024-05-26T11:34:59Z</time>
      </trkpt>
      <trkpt lat="43.7426" lon="6.67256">
        <ele>1433.7</ele>
        <time>2024-05-26T11:35:00Z</time>
      </trkpt>
      <trkpt lat="43.7426" lon="6.67256">
        <ele>1433.8</ele>
        <time>2024-05-26T11:35:01Z</time>
      </trkpt>
      <trkpt lat="43.74261" lon="6.67258">
        <ele>1433.9</ele>
        <time>2024-05-26T11:35:02Z</time>
      </trkpt>
      <trkpt lat="43.74262" lon="6.67258">
        <ele>1434</ele>
        <time>2024-05-26T11:35:03Z</time>
      </trkpt>
      <trkpt lat="43.74262" lon="6.67259">
        <ele>1434.2</ele>
        <time>2024-05-26T11:35:04Z</time>
      </trkpt>
      <trkpt lat="43.74263" lon="6.6726">
        <ele>1434.4</ele>
        <time>2024-05-26T11:35:05Z</time>
      </trkpt>
      <trkpt lat="43.74264" lon="6.67261">
        <ele>1434.6</ele>
        <time>2024-05-26T11:35:06Z</time>
      </trkpt>
      <trkpt lat="43.74264" lon="6.67261">
        <ele>1434.8</ele>
        <time>2024-05-26T11:35:07Z</time>
      </trkpt>
      <trkpt lat="43.74265" lon="6.67262">
        <ele>1434.9</ele>
        <time>2024-05-26T11:35:08Z</time>
      </trkpt>
      <trkpt lat="43.74266" lon="6.67263">
        <ele>1435</ele>
        <time>2024-05-26T11:35:09Z</time>
      </trkpt>
      <trkpt lat="43.74267" lon="6.67264">
        <ele>1435.1</ele>
        <time>2024-05-26T11:35:10Z</time>
      </trkpt>
      <trkpt lat="43.74267" lon="6.67265">
        <ele>1435.2</ele>
        <time>2024-05-26T11:35:11Z</time>
      </trkpt>
      <trkpt lat="43.74268" lon="6.67266">
        <ele>1435.3</ele>
        <time>2024-05-26T11:35:12Z</time>
      </trkpt>
      <trkpt lat="43.74269" lon="6.67267">
        <ele>1435.4</ele>
        <time>2024-05-26T11:35:13Z</time>
      </trkpt>
      <trkpt lat="43.74269" lon="6.67268">
        <ele>1435.5</ele>
        <time>2024-05-26T11:35:14Z</time>
      </trkpt>
      <trkpt lat="43.74269" lon="6.67269">
        <ele>1435.6</ele>
        <time>2024-05-26T11:35:15Z</time>
      </trkpt>
      <trkpt lat="43.74269" lon="6.6727">
        <ele>1435.7</ele>
        <time>2024-05-26T11:35:16Z</time>
      </trkpt>
      <trkpt lat="43.74269" lon="6.67271">
        <ele>1435.8</ele>
        <time>2024-05-26T11:35:17Z</time>
      </trkpt>
      <trkpt lat="43.74269" lon="6.67272">
        <ele>1435.9</ele>
        <time>2024-05-26T11:35:18Z</time>
      </trkpt>
      <trkpt lat="43.74269" lon="6.67273">
        <ele>1436</ele>
        <time>2024-05-26T11:35:19Z</time>
      </trkpt>
      <trkpt lat="43.74269" lon="6.67274">
        <ele>1436.2</ele>
        <time>2024-05-26T11:35:20Z</time>
      </trkpt>
      <trkpt lat="43.74269" lon="6.67275">
        <ele>1436.4</ele>
        <time>2024-05-26T11:35:21Z</time>
      </trkpt>
      <trkpt lat="43.7427" lon="6.67276">
        <ele>1436.6</ele>
        <time>2024-05-26T11:35:22Z</time>
      </trkpt>
      <trkpt lat="43.7427" lon="6.67277">
        <ele>1436.7</ele>
        <time>2024-05-26T11:35:23Z</time>
      </trkpt>
      <trkpt lat="43.74269" lon="6.67278">
        <ele>1436.9</ele>
        <time>2024-05-26T11:35:24Z</time>
      </trkpt>
      <trkpt lat="43.7427" lon="6.6728">
        <ele>1437</ele>
        <time>2024-05-26T11:35:25Z</time>
      </trkpt>
      <trkpt lat="43.7427" lon="6.67281">
        <ele>1437.2</ele>
        <time>2024-05-26T11:35:26Z</time>
      </trkpt>
      <trkpt lat="43.7427" lon="6.67283">
        <ele>1437.2</ele>
        <time>2024-05-26T11:35:27Z</time>
      </trkpt>
      <trkpt lat="43.7427" lon="6.67284">
        <ele>1437.4</ele>
        <time>2024-05-26T11:35:28Z</time>
      </trkpt>
      <trkpt lat="43.7427" lon="6.67285">
        <ele>1437.5</ele>
        <time>2024-05-26T11:35:29Z</time>
      </trkpt>
      <trkpt lat="43.74269" lon="6.67286">
        <ele>1437.5</ele>
        <time>2024-05-26T11:35:30Z</time>
      </trkpt>
      <trkpt lat="43.74269" lon="6.67287">
        <ele>1437.5</ele>
        <time>2024-05-26T11:35:31Z</time>
      </trkpt>
      <trkpt lat="43.74269" lon="6.67288">
        <ele>1437.6</ele>
        <time>2024-05-26T11:35:32Z</time>
      </trkpt>
      <trkpt lat="43.74269" lon="6.67289">
        <ele>1437.7</ele>
        <time>2024-05-26T11:35:33Z</time>
      </trkpt>
      <trkpt lat="43.74269" lon="6.6729">
        <ele>1437.7</ele>
        <time>2024-05-26T11:35:34Z</time>
      </trkpt>
      <trkpt lat="43.74268" lon="6.67291">
        <ele>1437.8</ele>
        <time>2024-05-26T11:35:35Z</time>
      </trkpt>
      <trkpt lat="43.74269" lon="6.67292">
        <ele>1437.9</ele>
        <time>2024-05-26T11:35:36Z</time>
      </trkpt>
      <trkpt lat="43.74269" lon="6.67293">
        <ele>1438</ele>
        <time>2024-05-26T11:35:37Z</time>
      </trkpt>
      <trkpt lat="43.74269" lon="6.67294">
        <ele>1438.1</ele>
        <time>2024-05-26T11:35:38Z</time>
      </trkpt>
      <trkpt lat="43.74269" lon="6.67295">
        <ele>1438.2</ele>
        <time>2024-05-26T11:35:39Z</time>
      </trkpt>
      <trkpt lat="43.74269" lon="6.67296">
        <ele>1438.2</ele>
        <time>2024-05-26T11:35:40Z</time>
      </trkpt>
      <trkpt lat="43.7427" lon="6.67297">
        <ele>1438.3</ele>
        <time>2024-05-26T11:35:41Z</time>
      </trkpt>
      <trkpt lat="43.7427" lon="6.67298">
        <ele>1438.5</ele>
        <time>2024-05-26T11:35:42Z</time>
      </trkpt>
      <trkpt lat="43.74271" lon="6.67299">
        <ele>1438.6</ele>
        <time>2024-05-26T11:35:43Z</time>
      </trkpt>
      <trkpt lat="43.74271" lon="6.673">
        <ele>1438.6</ele>
        <time>2024-05-26T11:35:44Z</time>
      </trkpt>
      <trkpt lat="43.74273" lon="6.67302">
        <ele>1438.8</ele>
        <time>2024-05-26T11:35:45Z</time>
      </trkpt>
      <trkpt lat="43.74273" lon="6.67303">
        <ele>1438.9</ele>
        <time>2024-05-26T11:35:46Z</time>
      </trkpt>
      <trkpt lat="43.74275" lon="6.67304">
        <ele>1439</ele>
        <time>2024-05-26T11:35:47Z</time>
      </trkpt>
      <trkpt lat="43.74276" lon="6.67305">
        <ele>1439.1</ele>
        <time>2024-05-26T11:35:48Z</time>
      </trkpt>
      <trkpt lat="43.74276" lon="6.67306">
        <ele>1439.2</ele>
        <time>2024-05-26T11:35:49Z</time>
      </trkpt>
      <trkpt lat="43.74277" lon="6.67307">
        <ele>1439.4</ele>
        <time>2024-05-26T11:35:50Z</time>
      </trkpt>
      <trkpt lat="43.74277" lon="6.67307">
        <ele>1439.5</ele>
        <time>2024-05-26T11:35:51Z</time>
      </trkpt>
      <trkpt lat="43.74278" lon="6.67308">
        <ele>1439.7</ele>
        <time>2024-05-26T11:35:52Z</time>
      </trkpt>
      <trkpt lat="43.74278" lon="6.6731">
        <ele>1439.9</ele>
        <time>2024-05-26T11:35:53Z</time>
      </trkpt>
      <trkpt lat="43.74279" lon="6.67311">
        <ele>1440</ele>
        <time>2024-05-26T11:35:54Z</time>
      </trkpt>
      <trkpt lat="43.74279" lon="6.67312">
        <ele>1440.1</ele>
        <time>2024-05-26T11:35:55Z</time>
      </trkpt>
      <trkpt lat="43.74279" lon="6.67313">
        <ele>1440.1</ele>
        <time>2024-05-26T11:35:56Z</time>
      </trkpt>
      <trkpt lat="43.7428" lon="6.67314">
        <ele>1440.2</ele>
        <time>2024-05-26T11:35:57Z</time>
      </trkpt>
      <trkpt lat="43.74281" lon="6.67315">
        <ele>1440.2</ele>
        <time>2024-05-26T11:35:58Z</time>
      </trkpt>
      <trkpt lat="43.74282" lon="6.67315">
        <ele>1440.3</ele>
        <time>2024-05-26T11:35:59Z</time>
      </trkpt>
      <trkpt lat="43.74283" lon="6.67317">
        <ele>1440.3</ele>
        <time>2024-05-26T11:36:00Z</time>
      </trkpt>
      <trkpt lat="43.74285" lon="6.67318">
        <ele>1440.4</ele>
        <time>2024-05-26T11:36:01Z</time>
      </trkpt>
      <trkpt lat="43.74286" lon="6.67319">
        <ele>1440.4</ele>
        <time>2024-05-26T11:36:02Z</time>
      </trkpt>
      <trkpt lat="43.74287" lon="6.6732">
        <ele>1440.4</ele>
        <time>2024-05-26T11:36:03Z</time>
      </trkpt>
      <trkpt lat="43.74287" lon="6.6732">
        <ele>1440.5</ele>
        <time>2024-05-26T11:36:04Z</time>
      </trkpt>
      <trkpt lat="43.74288" lon="6.6732">
        <ele>1440.7</ele>
        <time>2024-05-26T11:36:05Z</time>
      </trkpt>
      <trkpt lat="43.74288" lon="6.67321">
        <ele>1440.8</ele>
        <time>2024-05-26T11:36:06Z</time>
      </trkpt>
      <trkpt lat="43.74289" lon="6.67321">
        <ele>1440.9</ele>
        <time>2024-05-26T11:36:07Z</time>
      </trkpt>
      <trkpt lat="43.74289" lon="6.67322">
        <ele>1441</ele>
        <time>2024-05-26T11:36:08Z</time>
      </trkpt>
      <trkpt lat="43.7429" lon="6.67324">
        <ele>1441.3</ele>
        <time>2024-05-26T11:36:09Z</time>
      </trkpt>
      <trkpt lat="43.7429" lon="6.67325">
        <ele>1441.5</ele>
        <time>2024-05-26T11:36:10Z</time>
      </trkpt>
      <trkpt lat="43.74291" lon="6.67326">
        <ele>1441.7</ele>
        <time>2024-05-26T11:36:11Z</time>
      </trkpt>
      <trkpt lat="43.74291" lon="6.67327">
        <ele>1441.8</ele>
        <time>2024-05-26T11:36:12Z</time>
      </trkpt>
      <trkpt lat="43.74292" lon="6.67327">
        <ele>1442</ele>
        <time>2024-05-26T11:36:13Z</time>
      </trkpt>
      <trkpt lat="43.74293" lon="6.67328">
        <ele>1442.2</ele>
        <time>2024-05-26T11:36:14Z</time>
      </trkpt>
      <trkpt lat="43.74293" lon="6.67329">
        <ele>1442.3</ele>
        <time>2024-05-26T11:36:15Z</time>
      </trkpt>
      <trkpt lat="43.74294" lon="6.67329">
        <ele>1442.4</ele>
        <time>2024-05-26T11:36:16Z</time>
      </trkpt>
      <trkpt lat="43.74295" lon="6.67329">
        <ele>1442.5</ele>
        <time>2024-05-26T11:36:17Z</time>
      </trkpt>
      <trkpt lat="43.74295" lon="6.67329">
        <ele>1442.6</ele>
        <time>2024-05-26T11:36:18Z</time>
      </trkpt>
      <trkpt lat="43.74296" lon="6.6733">
        <ele>1442.8</ele>
        <time>2024-05-26T11:36:19Z</time>
      </trkpt>
      <trkpt lat="43.74296" lon="6.6733">
        <ele>1442.9</ele>
        <time>2024-05-26T11:36:20Z</time>
      </trkpt>
      <trkpt lat="43.74297" lon="6.67331">
        <ele>1443</ele>
        <time>2024-05-26T11:36:21Z</time>
      </trkpt>
      <trkpt lat="43.74297" lon="6.67332">
        <ele>1443.1</ele>
        <time>2024-05-26T11:36:22Z</time>
      </trkpt>
      <trkpt lat="43.74298" lon="6.67332">
        <ele>1443.1</ele>
        <time>2024-05-26T11:36:23Z</time>
      </trkpt>
      <trkpt lat="43.74299" lon="6.67333">
        <ele>1443.3</ele>
        <time>2024-05-26T11:36:24Z</time>
      </trkpt>
      <trkpt lat="43.743" lon="6.67333">
        <ele>1443.6</ele>
        <time>2024-05-26T11:36:25Z</time>
      </trkpt>
      <trkpt lat="43.743" lon="6.67334">
        <ele>1443.8</ele>
        <time>2024-05-26T11:36:26Z</time>
      </trkpt>
      <trkpt lat="43.743" lon="6.67334">
        <ele>1444</ele>
        <time>2024-05-26T11:36:27Z</time>
      </trkpt>
      <trkpt lat="43.74301" lon="6.67334">
        <ele>1444.2</ele>
        <time>2024-05-26T11:36:28Z</time>
      </trkpt>
      <trkpt lat="43.74301" lon="6.67335">
        <ele>1444.3</ele>
        <time>2024-05-26T11:36:29Z</time>
      </trkpt>
      <trkpt lat="43.74302" lon="6.67336">
        <ele>1444.4</ele>
        <time>2024-05-26T11:36:30Z</time>
      </trkpt>
      <trkpt lat="43.74302" lon="6.67336">
        <ele>1444.5</ele>
        <time>2024-05-26T11:36:31Z</time>
      </trkpt>
      <trkpt lat="43.74303" lon="6.67336">
        <ele>1444.6</ele>
        <time>2024-05-26T11:36:32Z</time>
      </trkpt>
      <trkpt lat="43.74303" lon="6.67337">
        <ele>1444.6</ele>
        <time>2024-05-26T11:36:33Z</time>
      </trkpt>
      <trkpt lat="43.74304" lon="6.67337">
        <ele>1444.7</ele>
        <time>2024-05-26T11:36:34Z</time>
      </trkpt>
      <trkpt lat="43.74305" lon="6.67338">
        <ele>1444.8</ele>
        <time>2024-05-26T11:36:35Z</time>
      </trkpt>
      <trkpt lat="43.74306" lon="6.67338">
        <ele>1445.1</ele>
        <time>2024-05-26T11:36:36Z</time>
      </trkpt>
      <trkpt lat="43.74307" lon="6.67339">
        <ele>1445.2</ele>
        <time>2024-05-26T11:36:37Z</time>
      </trkpt>
      <trkpt lat="43.74308" lon="6.67339">
        <ele>1445.5</ele>
        <time>2024-05-26T11:36:38Z</time>
      </trkpt>
      <trkpt lat="43.74309" lon="6.67339">
        <ele>1445.6</ele>
        <time>2024-05-26T11:36:39Z</time>
      </trkpt>
      <trkpt lat="43.7431" lon="6.67339">
        <ele>1445.8</ele>
        <time>2024-05-26T11:36:40Z</time>
      </trkpt>
      <trkpt lat="43.74311" lon="6.67339">
        <ele>1446</ele>
        <time>2024-05-26T11:36:41Z</time>
      </trkpt>
      <trkpt lat="43.74311" lon="6.6734">
        <ele>1446.2</ele>
        <time>2024-05-26T11:36:42Z</time>
      </trkpt>
      <trkpt lat="43.74312" lon="6.6734">
        <ele>1446.2</ele>
        <time>2024-05-26T11:36:43Z</time>
      </trkpt>
      <trkpt lat="43.74312" lon="6.6734">
        <ele>1446.2</ele>
        <time>2024-05-26T11:36:44Z</time>
      </trkpt>
      <trkpt lat="43.74313" lon="6.67341">
        <ele>1446.3</ele>
        <time>2024-05-26T11:36:45Z</time>
      </trkpt>
      <trkpt lat="43.74314" lon="6.67341">
        <ele>1446.4</ele>
        <time>2024-05-26T11:36:46Z</time>
      </trkpt>
      <trkpt lat="43.74314" lon="6.67342">
        <ele>1446.4</ele>
        <time>2024-05-26T11:36:47Z</time>
      </trkpt>
      <trkpt lat="43.74315" lon="6.67342">
        <ele>1446.6</ele>
        <time>2024-05-26T11:36:48Z</time>
      </trkpt>
      <trkpt lat="43.74316" lon="6.67342">
        <ele>1446.7</ele>
        <time>2024-05-26T11:36:49Z</time>
      </trkpt>
      <trkpt lat="43.74316" lon="6.67342">
        <ele>1446.8</ele>
        <time>2024-05-26T11:36:50Z</time>
      </trkpt>
      <trkpt lat="43.74317" lon="6.67342">
        <ele>1446.9</ele>
        <time>2024-05-26T11:36:51Z</time>
      </trkpt>
      <trkpt lat="43.74317" lon="6.67342">
        <ele>1447.1</ele>
        <time>2024-05-26T11:36:52Z</time>
      </trkpt>
      <trkpt lat="43.74318" lon="6.67341">
        <ele>1447.2</ele>
        <time>2024-05-26T11:36:53Z</time>
      </trkpt>
      <trkpt lat="43.74319" lon="6.6734">
        <ele>1447.2</ele>
        <time>2024-05-26T11:36:54Z</time>
      </trkpt>
      <trkpt lat="43.7432" lon="6.67339">
        <ele>1447.4</ele>
        <time>2024-05-26T11:36:55Z</time>
      </trkpt>
      <trkpt lat="43.7432" lon="6.67339">
        <ele>1447.4</ele>
        <time>2024-05-26T11:36:56Z</time>
      </trkpt>
      <trkpt lat="43.7432" lon="6.67339">
        <ele>1447.6</ele>
        <time>2024-05-26T11:36:57Z</time>
      </trkpt>
      <trkpt lat="43.74321" lon="6.67339">
        <ele>1447.7</ele>
        <time>2024-05-26T11:36:58Z</time>
      </trkpt>
      <trkpt lat="43.74321" lon="6.67339">
        <ele>1447.8</ele>
        <time>2024-05-26T11:36:59Z</time>
      </trkpt>
      <trkpt lat="43.74322" lon="6.67339">
        <ele>1447.9</ele>
        <time>2024-05-26T11:37:00Z</time>
      </trkpt>
      <trkpt lat="43.74322" lon="6.67339">
        <ele>1448.1</ele>
        <time>2024-05-26T11:37:01Z</time>
      </trkpt>
      <trkpt lat="43.74322" lon="6.67339">
        <ele>1448.3</ele>
        <time>2024-05-26T11:37:02Z</time>
      </trkpt>
      <trkpt lat="43.74322" lon="6.6734">
        <ele>1448.5</ele>
        <time>2024-05-26T11:37:03Z</time>
      </trkpt>
      <trkpt lat="43.74323" lon="6.6734">
        <ele>1448.6</ele>
        <time>2024-05-26T11:37:04Z</time>
      </trkpt>
      <trkpt lat="43.74323" lon="6.67339">
        <ele>1448.7</ele>
        <time>2024-05-26T11:37:05Z</time>
      </trkpt>
      <trkpt lat="43.74324" lon="6.6734">
        <ele>1448.8</ele>
        <time>2024-05-26T11:37:06Z</time>
      </trkpt>
      <trkpt lat="43.74324" lon="6.6734">
        <ele>1448.9</ele>
        <time>2024-05-26T11:37:07Z</time>
      </trkpt>
      <trkpt lat="43.74324" lon="6.67339">
        <ele>1449</ele>
        <time>2024-05-26T11:37:08Z</time>
      </trkpt>
      <trkpt lat="43.74324" lon="6.67339">
        <ele>1449.1</ele>
        <time>2024-05-26T11:37:09Z</time>
      </trkpt>
      <trkpt lat="43.74324" lon="6.67339">
        <ele>1449.1</ele>
        <time>2024-05-26T11:37:10Z</time>
      </trkpt>
      <trkpt lat="43.74324" lon="6.67339">
        <ele>1449.2</ele>
        <time>2024-05-26T11:37:11Z</time>
      </trkpt>
      <trkpt lat="43.74325" lon="6.67339">
        <ele>1449.3</ele>
        <time>2024-05-26T11:37:12Z</time>
      </trkpt>
      <trkpt lat="43.74324" lon="6.6734">
        <ele>1449.2</ele>
        <time>2024-05-26T11:37:13Z</time>
      </trkpt>
      <trkpt lat="43.74325" lon="6.67341">
        <ele>1449.1</ele>
        <time>2024-05-26T11:37:14Z</time>
      </trkpt>
      <trkpt lat="43.74326" lon="6.67341">
        <ele>1449.1</ele>
        <time>2024-05-26T11:37:15Z</time>
      </trkpt>
      <trkpt lat="43.74326" lon="6.67342">
        <ele>1449</ele>
        <time>2024-05-26T11:37:16Z</time>
      </trkpt>
      <trkpt lat="43.74327" lon="6.67343">
        <ele>1449</ele>
        <time>2024-05-26T11:37:17Z</time>
      </trkpt>
      <trkpt lat="43.74327" lon="6.67343">
        <ele>1449.1</ele>
        <time>2024-05-26T11:37:18Z</time>
      </trkpt>
      <trkpt lat="43.74327" lon="6.67344">
        <ele>1449.2</ele>
        <time>2024-05-26T11:37:19Z</time>
      </trkpt>
      <trkpt lat="43.74327" lon="6.67344">
        <ele>1449.3</ele>
        <time>2024-05-26T11:37:20Z</time>
      </trkpt>
      <trkpt lat="43.74328" lon="6.67344">
        <ele>1449.4</ele>
        <time>2024-05-26T11:37:21Z</time>
      </trkpt>
      <trkpt lat="43.74328" lon="6.67345">
        <ele>1449.4</ele>
        <time>2024-05-26T11:37:22Z</time>
      </trkpt>
      <trkpt lat="43.74328" lon="6.67345">
        <ele>1449.4</ele>
        <time>2024-05-26T11:37:23Z</time>
      </trkpt>
      <trkpt lat="43.74328" lon="6.67345">
        <ele>1449.5</ele>
        <time>2024-05-26T11:37:24Z</time>
      </trkpt>
      <trkpt lat="43.74328" lon="6.67345">
        <ele>1449.6</ele>
        <time>2024-05-26T11:37:25Z</time>
      </trkpt>
      <trkpt lat="43.74328" lon="6.67345">
        <ele>1449.7</ele>
        <time>2024-05-26T11:37:26Z</time>
      </trkpt>
      <trkpt lat="43.74328" lon="6.67345">
        <ele>1449.8</ele>
        <time>2024-05-26T11:37:27Z</time>
      </trkpt>
      <trkpt lat="43.74328" lon="6.67345">
        <ele>1449.9</ele>
        <time>2024-05-26T11:37:28Z</time>
      </trkpt>
      <trkpt lat="43.74328" lon="6.67345">
        <ele>1449.8</ele>
        <time>2024-05-26T11:37:29Z</time>
      </trkpt>
      <trkpt lat="43.74328" lon="6.67345">
        <ele>1449.8</ele>
        <time>2024-05-26T11:37:30Z</time>
      </trkpt>
      <trkpt lat="43.74328" lon="6.67345">
        <ele>1449.9</ele>
        <time>2024-05-26T11:37:31Z</time>
      </trkpt>
      <trkpt lat="43.74328" lon="6.67345">
        <ele>1449.9</ele>
        <time>2024-05-26T11:37:32Z</time>
      </trkpt>
      <trkpt lat="43.74328" lon="6.67345">
        <ele>1449.9</ele>
        <time>2024-05-26T11:37:33Z</time>
      </trkpt>
      <trkpt lat="43.74329" lon="6.67345">
        <ele>1450</ele>
        <time>2024-05-26T11:37:34Z</time>
      </trkpt>
      <trkpt lat="43.74329" lon="6.67345">
        <ele>1449.9</ele>
        <time>2024-05-26T11:37:35Z</time>
      </trkpt>
      <trkpt lat="43.74329" lon="6.67346">
        <ele>1449.9</ele>
        <time>2024-05-26T11:37:36Z</time>
      </trkpt>
      <trkpt lat="43.74329" lon="6.67345">
        <ele>1450</ele>
        <time>2024-05-26T11:37:37Z</time>
      </trkpt>
      <trkpt lat="43.74329" lon="6.67345">
        <ele>1450.1</ele>
        <time>2024-05-26T11:37:38Z</time>
      </trkpt>
      <trkpt lat="43.74329" lon="6.67345">
        <ele>1450.1</ele>
        <time>2024-05-26T11:37:39Z</time>
      </trkpt>
      <trkpt lat="43.74329" lon="6.67346">
        <ele>1450</ele>
        <time>2024-05-26T11:37:40Z</time>
      </trkpt>
      <trkpt lat="43.74329" lon="6.67346">
        <ele>1450</ele>
        <time>2024-05-26T11:37:41Z</time>
      </trkpt>
      <trkpt lat="43.74329" lon="6.67346">
        <ele>1450.1</ele>
        <time>2024-05-26T11:37:42Z</time>
      </trkpt>
      <trkpt lat="43.74329" lon="6.67346">
        <ele>1450.1</ele>
        <time>2024-05-26T11:37:43Z</time>
      </trkpt>
      <trkpt lat="43.74329" lon="6.67346">
        <ele>1450.1</ele>
        <time>2024-05-26T11:37:44Z</time>
      </trkpt>
      <trkpt lat="43.74329" lon="6.67346">
        <ele>1450.2</ele>
        <time>2024-05-26T11:37:45Z</time>
      </trkpt>
      <trkpt lat="43.74329" lon="6.67346">
        <ele>1450.2</ele>
        <time>2024-05-26T11:37:46Z</time>
      </trkpt>
      <trkpt lat="43.74329" lon="6.67346">
        <ele>1450.2</ele>
        <time>2024-05-26T11:37:47Z</time>
      </trkpt>
      <trkpt lat="43.74329" lon="6.67346">
        <ele>1450.2</ele>
        <time>2024-05-26T11:37:48Z</time>
      </trkpt>
      <trkpt lat="43.74329" lon="6.67346">
        <ele>1450.2</ele>
        <time>2024-05-26T11:37:49Z</time>
      </trkpt>
      <trkpt lat="43.74329" lon="6.67346">
        <ele>1450.2</ele>
        <time>2024-05-26T11:37:50Z</time>
      </trkpt>
      <trkpt lat="43.74329" lon="6.67347">
        <ele>1450.2</ele>
        <time>2024-05-26T11:37:51Z</time>
      </trkpt>
      <trkpt lat="43.74329" lon="6.67347">
        <ele>1450.2</ele>
        <time>2024-05-26T11:37:52Z</time>
      </trkpt>
      <trkpt lat="43.74329" lon="6.67347">
        <ele>1450.2</ele>
        <time>2024-05-26T11:37:53Z</time>
      </trkpt>
      <trkpt lat="43.74329" lon="6.67347">
        <ele>1450.2</ele>
        <time>2024-05-26T11:37:54Z</time>
      </trkpt>
      <trkpt lat="43.74329" lon="6.67347">
        <ele>1450.2</ele>
        <time>2024-05-26T11:37:55Z</time>
      </trkpt>
      <trkpt lat="43.74329" lon="6.67348">
        <ele>1450.2</ele>
        <time>2024-05-26T11:37:56Z</time>
      </trkpt>
      <trkpt lat="43.74329" lon="6.67347">
        <ele>1450.3</ele>
        <time>2024-05-26T11:37:57Z</time>
      </trkpt>
      <trkpt lat="43.74329" lon="6.67347">
        <ele>1450.3</ele>
        <time>2024-05-26T11:37:58Z</time>
      </trkpt>
      <trkpt lat="43.74329" lon="6.67348">
        <ele>1450.3</ele>
        <time>2024-05-26T11:37:59Z</time>
      </trkpt>
      <trkpt lat="43.7433" lon="6.67348">
        <ele>1450.3</ele>
        <time>2024-05-26T11:38:00Z</time>
      </trkpt>
      <trkpt lat="43.7433" lon="6.67349">
        <ele>1450.5</ele>
        <time>2024-05-26T11:38:01Z</time>
      </trkpt>
      <trkpt lat="43.7433" lon="6.67349">
        <ele>1450.6</ele>
        <time>2024-05-26T11:38:02Z</time>
      </trkpt>
      <trkpt lat="43.7433" lon="6.67349">
        <ele>1450.7</ele>
        <time>2024-05-26T11:38:03Z</time>
      </trkpt>
      <trkpt lat="43.7433" lon="6.6735">
        <ele>1450.8</ele>
        <time>2024-05-26T11:38:04Z</time>
      </trkpt>
      <trkpt lat="43.7433" lon="6.6735">
        <ele>1450.8</ele>
        <time>2024-05-26T11:38:05Z</time>
      </trkpt>
      <trkpt lat="43.7433" lon="6.67351">
        <ele>1450.9</ele>
        <time>2024-05-26T11:38:06Z</time>
      </trkpt>
      <trkpt lat="43.7433" lon="6.67351">
        <ele>1450.9</ele>
        <time>2024-05-26T11:38:07Z</time>
      </trkpt>
      <trkpt lat="43.7433" lon="6.67351">
        <ele>1451.1</ele>
        <time>2024-05-26T11:38:08Z</time>
      </trkpt>
      <trkpt lat="43.7433" lon="6.67351">
        <ele>1451.2</ele>
        <time>2024-05-26T11:38:09Z</time>
      </trkpt>
      <trkpt lat="43.7433" lon="6.67351">
        <ele>1451.3</ele>
        <time>2024-05-26T11:38:10Z</time>
      </trkpt>
      <trkpt lat="43.7433" lon="6.67351">
        <ele>1451.4</ele>
        <time>2024-05-26T11:38:11Z</time>
      </trkpt>
      <trkpt lat="43.74331" lon="6.67351">
        <ele>1451.4</ele>
        <time>2024-05-26T11:38:12Z</time>
      </trkpt>
      <trkpt lat="43.74331" lon="6.67352">
        <ele>1451.5</ele>
        <time>2024-05-26T11:38:13Z</time>
      </trkpt>
      <trkpt lat="43.74331" lon="6.67352">
        <ele>1451.5</ele>
        <time>2024-05-26T11:38:14Z</time>
      </trkpt>
      <trkpt lat="43.74332" lon="6.67352">
        <ele>1451.6</ele>
        <time>2024-05-26T11:38:15Z</time>
      </trkpt>
      <trkpt lat="43.74332" lon="6.67353">
        <ele>1451.6</ele>
        <time>2024-05-26T11:38:16Z</time>
      </trkpt>
      <trkpt lat="43.74333" lon="6.67354">
        <ele>1451.6</ele>
        <time>2024-05-26T11:38:17Z</time>
      </trkpt>
      <trkpt lat="43.74334" lon="6.67354">
        <ele>1451.6</ele>
        <time>2024-05-26T11:38:18Z</time>
      </trkpt>
      <trkpt lat="43.74334" lon="6.67355">
        <ele>1451.8</ele>
        <time>2024-05-26T11:38:19Z</time>
      </trkpt>
      <trkpt lat="43.74335" lon="6.67355">
        <ele>1451.9</ele>
        <time>2024-05-26T11:38:20Z</time>
      </trkpt>
      <trkpt lat="43.74336" lon="6.67355">
        <ele>1452.1</ele>
        <time>2024-05-26T11:38:21Z</time>
      </trkpt>
      <trkpt lat="43.74337" lon="6.67355">
        <ele>1452.3</ele>
        <time>2024-05-26T11:38:22Z</time>
      </trkpt>
      <trkpt lat="43.74338" lon="6.67354">
        <ele>1452.5</ele>
        <time>2024-05-26T11:38:23Z</time>
      </trkpt>
      <trkpt lat="43.74339" lon="6.67354">
        <ele>1452.7</ele>
        <time>2024-05-26T11:38:24Z</time>
      </trkpt>
      <trkpt lat="43.7434" lon="6.67354">
        <ele>1452.9</ele>
        <time>2024-05-26T11:38:25Z</time>
      </trkpt>
      <trkpt lat="43.74341" lon="6.67354">
        <ele>1453</ele>
        <time>2024-05-26T11:38:26Z</time>
      </trkpt>
      <trkpt lat="43.74342" lon="6.67353">
        <ele>1453.2</ele>
        <time>2024-05-26T11:38:27Z</time>
      </trkpt>
      <trkpt lat="43.74342" lon="6.67352">
        <ele>1453.3</ele>
        <time>2024-05-26T11:38:28Z</time>
      </trkpt>
      <trkpt lat="43.74342" lon="6.67352">
        <ele>1453.3</ele>
        <time>2024-05-26T11:38:29Z</time>
      </trkpt>
      <trkpt lat="43.74343" lon="6.67351">
        <ele>1453.4</ele>
        <time>2024-05-26T11:38:30Z</time>
      </trkpt>
      <trkpt lat="43.74344" lon="6.67351">
        <ele>1453.4</ele>
        <time>2024-05-26T11:38:31Z</time>
      </trkpt>
      <trkpt lat="43.74345" lon="6.6735">
        <ele>1453.4</ele>
        <time>2024-05-26T11:38:32Z</time>
      </trkpt>
      <trkpt lat="43.74346" lon="6.67349">
        <ele>1453.3</ele>
        <time>2024-05-26T11:38:33Z</time>
      </trkpt>
      <trkpt lat="43.74347" lon="6.67349">
        <ele>1453.2</ele>
        <time>2024-05-26T11:38:34Z</time>
      </trkpt>
      <trkpt lat="43.74347" lon="6.67349">
        <ele>1453.2</ele>
        <time>2024-05-26T11:38:35Z</time>
      </trkpt>
      <trkpt lat="43.74348" lon="6.67349">
        <ele>1453.2</ele>
        <time>2024-05-26T11:38:36Z</time>
      </trkpt>
      <trkpt lat="43.74348" lon="6.67348">
        <ele>1453.2</ele>
        <time>2024-05-26T11:38:37Z</time>
      </trkpt>
      <trkpt lat="43.74348" lon="6.67348">
        <ele>1453.1</ele>
        <time>2024-05-26T11:38:38Z</time>
      </trkpt>
      <trkpt lat="43.74349" lon="6.67348">
        <ele>1453.1</ele>
        <time>2024-05-26T11:38:39Z</time>
      </trkpt>
      <trkpt lat="43.7435" lon="6.67348">
        <ele>1452.9</ele>
        <time>2024-05-26T11:38:40Z</time>
      </trkpt>
      <trkpt lat="43.7435" lon="6.67348">
        <ele>1452.7</ele>
        <time>2024-05-26T11:38:41Z</time>
      </trkpt>
      <trkpt lat="43.74351" lon="6.67348">
        <ele>1452.5</ele>
        <time>2024-05-26T11:38:42Z</time>
      </trkpt>
      <trkpt lat="43.74351" lon="6.67348">
        <ele>1452.4</ele>
        <time>2024-05-26T11:38:43Z</time>
      </trkpt>
      <trkpt lat="43.74351" lon="6.67348">
        <ele>1452.3</ele>
        <time>2024-05-26T11:38:44Z</time>
      </trkpt>
      <trkpt lat="43.74351" lon="6.67348">
        <ele>1452.2</ele>
        <time>2024-05-26T11:38:45Z</time>
      </trkpt>
      <trkpt lat="43.74351" lon="6.67348">
        <ele>1452.2</ele>
        <time>2024-05-26T11:38:46Z</time>
      </trkpt>
      <trkpt lat="43.74351" lon="6.67348">
        <ele>1452.2</ele>
        <time>2024-05-26T11:38:47Z</time>
      </trkpt>
      <trkpt lat="43.74351" lon="6.67347">
        <ele>1452.1</ele>
        <time>2024-05-26T11:38:48Z</time>
      </trkpt>
      <trkpt lat="43.74351" lon="6.67347">
        <ele>1452.1</ele>
        <time>2024-05-26T11:38:49Z</time>
      </trkpt>
      <trkpt lat="43.74351" lon="6.67347">
        <ele>1452.1</ele>
        <time>2024-05-26T11:38:50Z</time>
      </trkpt>
      <trkpt lat="43.74351" lon="6.67347">
        <ele>1452.1</ele>
        <time>2024-05-26T11:38:51Z</time>
      </trkpt>
      <trkpt lat="43.74351" lon="6.67347">
        <ele>1452.1</ele>
        <time>2024-05-26T11:38:52Z</time>
      </trkpt>
      <trkpt lat="43.74351" lon="6.67347">
        <ele>1452.1</ele>
        <time>2024-05-26T11:38:53Z</time>
      </trkpt>
      <trkpt lat="43.74351" lon="6.67347">
        <ele>1452.1</ele>
        <time>2024-05-26T11:38:54Z</time>
      </trkpt>
      <trkpt lat="43.74351" lon="6.67347">
        <ele>1452.1</ele>
        <time>2024-05-26T11:38:55Z</time>
      </trkpt>
      <trkpt lat="43.74351" lon="6.67347">
        <ele>1452.1</ele>
        <time>2024-05-26T11:38:56Z</time>
      </trkpt>
      <trkpt lat="43.74351" lon="6.67347">
        <ele>1452.1</ele>
        <time>2024-05-26T11:38:57Z</time>
      </trkpt>
      <trkpt lat="43.74351" lon="6.67347">
        <ele>1452.1</ele>
        <time>2024-05-26T11:38:58Z</time>
      </trkpt>
      <trkpt lat="43.74351" lon="6.67347">
        <ele>1452.1</ele>
        <time>2024-05-26T11:38:59Z</time>
      </trkpt>
      <trkpt lat="43.74351" lon="6.67347">
        <ele>1452.1</ele>
        <time>2024-05-26T11:39:00Z</time>
      </trkpt>
      <trkpt lat="43.74351" lon="6.67347">
        <ele>1452.1</ele>
        <time>2024-05-26T11:39:01Z</time>
      </trkpt>
      <trkpt lat="43.74352" lon="6.67347">
        <ele>1452.2</ele>
        <time>2024-05-26T11:39:02Z</time>
      </trkpt>
      <trkpt lat="43.74352" lon="6.67347">
        <ele>1452.2</ele>
        <time>2024-05-26T11:39:03Z</time>
      </trkpt>
      <trkpt lat="43.74353" lon="6.67347">
        <ele>1452.4</ele>
        <time>2024-05-26T11:39:04Z</time>
      </trkpt>
      <trkpt lat="43.74353" lon="6.67346">
        <ele>1452.5</ele>
        <time>2024-05-26T11:39:05Z</time>
      </trkpt>
      <trkpt lat="43.74354" lon="6.67346">
        <ele>1452.5</ele>
        <time>2024-05-26T11:39:06Z</time>
      </trkpt>
      <trkpt lat="43.74354" lon="6.67346">
        <ele>1452.4</ele>
        <time>2024-05-26T11:39:07Z</time>
      </trkpt>
      <trkpt lat="43.74354" lon="6.67347">
        <ele>1452.4</ele>
        <time>2024-05-26T11:39:08Z</time>
      </trkpt>
      <trkpt lat="43.74354" lon="6.67347">
        <ele>1452.2</ele>
        <time>2024-05-26T11:39:09Z</time>
      </trkpt>
      <trkpt lat="43.74355" lon="6.67349">
        <ele>1452</ele>
        <time>2024-05-26T11:39:10Z</time>
      </trkpt>
      <trkpt lat="43.74355" lon="6.67349">
        <ele>1451.9</ele>
        <time>2024-05-26T11:39:11Z</time>
      </trkpt>
      <trkpt lat="43.74355" lon="6.6735">
        <ele>1451.8</ele>
        <time>2024-05-26T11:39:12Z</time>
      </trkpt>
      <trkpt lat="43.74356" lon="6.67349">
        <ele>1451.7</ele>
        <time>2024-05-26T11:39:13Z</time>
      </trkpt>
      <trkpt lat="43.74356" lon="6.67349">
        <ele>1451.7</ele>
        <time>2024-05-26T11:39:14Z</time>
      </trkpt>
      <trkpt lat="43.74356" lon="6.67349">
        <ele>1451.6</ele>
        <time>2024-05-26T11:39:15Z</time>
      </trkpt>
      <trkpt lat="43.74357" lon="6.6735">
        <ele>1451.5</ele>
        <time>2024-05-26T11:39:16Z</time>
      </trkpt>
      <trkpt lat="43.74358" lon="6.6735">
        <ele>1451.4</ele>
        <time>2024-05-26T11:39:17Z</time>
      </trkpt>
      <trkpt lat="43.74358" lon="6.67349">
        <ele>1451.3</ele>
        <time>2024-05-26T11:39:18Z</time>
      </trkpt>
      <trkpt lat="43.74359" lon="6.67349">
        <ele>1451.1</ele>
        <time>2024-05-26T11:39:19Z</time>
      </trkpt>
      <trkpt lat="43.7436" lon="6.6735">
        <ele>1450.9</ele>
        <time>2024-05-26T11:39:20Z</time>
      </trkpt>
      <trkpt lat="43.7436" lon="6.6735">
        <ele>1450.7</ele>
        <time>2024-05-26T11:39:21Z</time>
      </trkpt>
      <trkpt lat="43.74361" lon="6.6735">
        <ele>1450.5</ele>
        <time>2024-05-26T11:39:22Z</time>
      </trkpt>
      <trkpt lat="43.74362" lon="6.6735">
        <ele>1450.4</ele>
        <time>2024-05-26T11:39:23Z</time>
      </trkpt>
      <trkpt lat="43.74362" lon="6.6735">
        <ele>1450.3</ele>
        <time>2024-05-26T11:39:24Z</time>
      </trkpt>
      <trkpt lat="43.74363" lon="6.6735">
        <ele>1450.2</ele>
        <time>2024-05-26T11:39:25Z</time>
      </trkpt>
      <trkpt lat="43.74363" lon="6.6735">
        <ele>1450</ele>
        <time>2024-05-26T11:39:26Z</time>
      </trkpt>
      <trkpt lat="43.74363" lon="6.6735">
        <ele>1449.9</ele>
        <time>2024-05-26T11:39:27Z</time>
      </trkpt>
      <trkpt lat="43.74363" lon="6.6735">
        <ele>1449.6</ele>
        <time>2024-05-26T11:39:28Z</time>
      </trkpt>
      <trkpt lat="43.74363" lon="6.6735">
        <ele>1449.5</ele>
        <time>2024-05-26T11:39:29Z</time>
      </trkpt>
      <trkpt lat="43.74363" lon="6.6735">
        <ele>1449.4</ele>
        <time>2024-05-26T11:39:30Z</time>
      </trkpt>
      <trkpt lat="43.74363" lon="6.6735">
        <ele>1449.2</ele>
        <time>2024-05-26T11:39:31Z</time>
      </trkpt>
      <trkpt lat="43.74363" lon="6.6735">
        <ele>1449.1</ele>
        <time>2024-05-26T11:39:32Z</time>
      </trkpt>
      <trkpt lat="43.74363" lon="6.6735">
        <ele>1449.1</ele>
        <time>2024-05-26T11:39:33Z</time>
      </trkpt>
      <trkpt lat="43.74363" lon="6.6735">
        <ele>1449</ele>
        <time>2024-05-26T11:39:34Z</time>
      </trkpt>
      <trkpt lat="43.74363" lon="6.6735">
        <ele>1448.9</ele>
        <time>2024-05-26T11:39:35Z</time>
      </trkpt>
      <trkpt lat="43.74363" lon="6.6735">
        <ele>1448.8</ele>
        <time>2024-05-26T11:39:36Z</time>
      </trkpt>
      <trkpt lat="43.74363" lon="6.6735">
        <ele>1448.9</ele>
        <time>2024-05-26T11:39:37Z</time>
      </trkpt>
      <trkpt lat="43.74364" lon="6.67349">
        <ele>1448.8</ele>
        <time>2024-05-26T11:39:38Z</time>
      </trkpt>
      <trkpt lat="43.74365" lon="6.67349">
        <ele>1448.8</ele>
        <time>2024-05-26T11:39:39Z</time>
      </trkpt>
      <trkpt lat="43.74366" lon="6.67349">
        <ele>1448.7</ele>
        <time>2024-05-26T11:39:40Z</time>
      </trkpt>
      <trkpt lat="43.74366" lon="6.6735">
        <ele>1448.6</ele>
        <time>2024-05-26T11:39:41Z</time>
      </trkpt>
      <trkpt lat="43.74367" lon="6.6735">
        <ele>1448.5</ele>
        <time>2024-05-26T11:39:42Z</time>
      </trkpt>
      <trkpt lat="43.74368" lon="6.6735">
        <ele>1448.4</ele>
        <time>2024-05-26T11:39:43Z</time>
      </trkpt>
      <trkpt lat="43.74369" lon="6.67349">
        <ele>1448.2</ele>
        <time>2024-05-26T11:39:44Z</time>
      </trkpt>
      <trkpt lat="43.7437" lon="6.67349">
        <ele>1448.1</ele>
        <time>2024-05-26T11:39:45Z</time>
      </trkpt>
      <trkpt lat="43.7437" lon="6.67349">
        <ele>1447.8</ele>
        <time>2024-05-26T11:39:46Z</time>
      </trkpt>
      <trkpt lat="43.74371" lon="6.67349">
        <ele>1447.6</ele>
        <time>2024-05-26T11:39:47Z</time>
      </trkpt>
      <trkpt lat="43.74371" lon="6.67349">
        <ele>1447.4</ele>
        <time>2024-05-26T11:39:48Z</time>
      </trkpt>
      <trkpt lat="43.74371" lon="6.67349">
        <ele>1447.2</ele>
        <time>2024-05-26T11:39:49Z</time>
      </trkpt>
      <trkpt lat="43.74372" lon="6.6735">
        <ele>1447</ele>
        <time>2024-05-26T11:39:50Z</time>
      </trkpt>
      <trkpt lat="43.74373" lon="6.6735">
        <ele>1446.8</ele>
        <time>2024-05-26T11:39:51Z</time>
      </trkpt>
      <trkpt lat="43.74374" lon="6.6735">
        <ele>1446.6</ele>
        <time>2024-05-26T11:39:52Z</time>
      </trkpt>
      <trkpt lat="43.74374" lon="6.6735">
        <ele>1446.7</ele>
        <time>2024-05-26T11:39:53Z</time>
      </trkpt>
      <trkpt lat="43.74374" lon="6.6735">
        <ele>1446.5</ele>
        <time>2024-05-26T11:39:54Z</time>
      </trkpt>
      <trkpt lat="43.74375" lon="6.6735">
        <ele>1446.3</ele>
        <time>2024-05-26T11:39:55Z</time>
      </trkpt>
      <trkpt lat="43.74375" lon="6.6735">
        <ele>1446.2</ele>
        <time>2024-05-26T11:39:56Z</time>
      </trkpt>
      <trkpt lat="43.74376" lon="6.6735">
        <ele>1446</ele>
        <time>2024-05-26T11:39:57Z</time>
      </trkpt>
      <trkpt lat="43.74376" lon="6.67351">
        <ele>1445.8</ele>
        <time>2024-05-26T11:39:58Z</time>
      </trkpt>
      <trkpt lat="43.74376" lon="6.67352">
        <ele>1445.6</ele>
        <time>2024-05-26T11:39:59Z</time>
      </trkpt>
      <trkpt lat="43.74377" lon="6.67352">
        <ele>1445.5</ele>
        <time>2024-05-26T11:40:00Z</time>
      </trkpt>
      <trkpt lat="43.74377" lon="6.67352">
        <ele>1445.4</ele>
        <time>2024-05-26T11:40:01Z</time>
      </trkpt>
      <trkpt lat="43.74377" lon="6.67352">
        <ele>1445.1</ele>
        <time>2024-05-26T11:40:02Z</time>
      </trkpt>
      <trkpt lat="43.74377" lon="6.67352">
        <ele>1444.9</ele>
        <time>2024-05-26T11:40:03Z</time>
      </trkpt>
      <trkpt lat="43.74378" lon="6.67352">
        <ele>1444.8</ele>
        <time>2024-05-26T11:40:04Z</time>
      </trkpt>
      <trkpt lat="43.74378" lon="6.67353">
        <ele>1444.7</ele>
        <time>2024-05-26T11:40:05Z</time>
      </trkpt>
      <trkpt lat="43.74378" lon="6.67354">
        <ele>1444.6</ele>
        <time>2024-05-26T11:40:06Z</time>
      </trkpt>
      <trkpt lat="43.74378" lon="6.67354">
        <ele>1444.4</ele>
        <time>2024-05-26T11:40:07Z</time>
      </trkpt>
      <trkpt lat="43.74378" lon="6.67355">
        <ele>1444.4</ele>
        <time>2024-05-26T11:40:08Z</time>
      </trkpt>
      <trkpt lat="43.74378" lon="6.67355">
        <ele>1444.3</ele>
        <time>2024-05-26T11:40:09Z</time>
      </trkpt>
      <trkpt lat="43.74379" lon="6.67355">
        <ele>1444.2</ele>
        <time>2024-05-26T11:40:10Z</time>
      </trkpt>
      <trkpt lat="43.74379" lon="6.67356">
        <ele>1444.2</ele>
        <time>2024-05-26T11:40:11Z</time>
      </trkpt>
      <trkpt lat="43.74379" lon="6.67356">
        <ele>1444.1</ele>
        <time>2024-05-26T11:40:12Z</time>
      </trkpt>
      <trkpt lat="43.7438" lon="6.67357">
        <ele>1444</ele>
        <time>2024-05-26T11:40:13Z</time>
      </trkpt>
      <trkpt lat="43.7438" lon="6.67356">
        <ele>1444</ele>
        <time>2024-05-26T11:40:14Z</time>
      </trkpt>
      <trkpt lat="43.7438" lon="6.67357">
        <ele>1443.9</ele>
        <time>2024-05-26T11:40:15Z</time>
      </trkpt>
      <trkpt lat="43.74381" lon="6.67357">
        <ele>1443.7</ele>
        <time>2024-05-26T11:40:16Z</time>
      </trkpt>
      <trkpt lat="43.74381" lon="6.67357">
        <ele>1443.5</ele>
        <time>2024-05-26T11:40:17Z</time>
      </trkpt>
      <trkpt lat="43.74382" lon="6.67356">
        <ele>1443.4</ele>
        <time>2024-05-26T11:40:18Z</time>
      </trkpt>
      <trkpt lat="43.74382" lon="6.67355">
        <ele>1443.3</ele>
        <time>2024-05-26T11:40:19Z</time>
      </trkpt>
      <trkpt lat="43.74383" lon="6.67355">
        <ele>1443.2</ele>
        <time>2024-05-26T11:40:20Z</time>
      </trkpt>
      <trkpt lat="43.74383" lon="6.67354">
        <ele>1443.1</ele>
        <time>2024-05-26T11:40:21Z</time>
      </trkpt>
      <trkpt lat="43.74383" lon="6.67353">
        <ele>1443.2</ele>
        <time>2024-05-26T11:40:22Z</time>
      </trkpt>
      <trkpt lat="43.74383" lon="6.67352">
        <ele>1443.1</ele>
        <time>2024-05-26T11:40:23Z</time>
      </trkpt>
      <trkpt lat="43.74384" lon="6.67351">
        <ele>1443.1</ele>
        <time>2024-05-26T11:40:24Z</time>
      </trkpt>
      <trkpt lat="43.74384" lon="6.67351">
        <ele>1443</ele>
        <time>2024-05-26T11:40:25Z</time>
      </trkpt>
      <trkpt lat="43.74385" lon="6.67351">
        <ele>1443.2</ele>
        <time>2024-05-26T11:40:26Z</time>
      </trkpt>
      <trkpt lat="43.74385" lon="6.6735">
        <ele>1443.1</ele>
        <time>2024-05-26T11:40:27Z</time>
      </trkpt>
      <trkpt lat="43.74386" lon="6.6735">
        <ele>1443</ele>
        <time>2024-05-26T11:40:28Z</time>
      </trkpt>
      <trkpt lat="43.74386" lon="6.6735">
        <ele>1442.9</ele>
        <time>2024-05-26T11:40:29Z</time>
      </trkpt>
      <trkpt lat="43.74387" lon="6.6735">
        <ele>1442.9</ele>
        <time>2024-05-26T11:40:30Z</time>
      </trkpt>
      <trkpt lat="43.74388" lon="6.67349">
        <ele>1442.8</ele>
        <time>2024-05-26T11:40:31Z</time>
      </trkpt>
      <trkpt lat="43.74388" lon="6.67348">
        <ele>1442.7</ele>
        <time>2024-05-26T11:40:32Z</time>
      </trkpt>
      <trkpt lat="43.74389" lon="6.67347">
        <ele>1442.6</ele>
        <time>2024-05-26T11:40:33Z</time>
      </trkpt>
      <trkpt lat="43.74389" lon="6.67347">
        <ele>1442.6</ele>
        <time>2024-05-26T11:40:34Z</time>
      </trkpt>
      <trkpt lat="43.7439" lon="6.67347">
        <ele>1442.6</ele>
        <time>2024-05-26T11:40:35Z</time>
      </trkpt>
      <trkpt lat="43.7439" lon="6.67346">
        <ele>1442.5</ele>
        <time>2024-05-26T11:40:36Z</time>
      </trkpt>
      <trkpt lat="43.7439" lon="6.67346">
        <ele>1442.5</ele>
        <time>2024-05-26T11:40:37Z</time>
      </trkpt>
      <trkpt lat="43.74391" lon="6.67347">
        <ele>1442.4</ele>
        <time>2024-05-26T11:40:38Z</time>
      </trkpt>
      <trkpt lat="43.74392" lon="6.67347">
        <ele>1442.3</ele>
        <time>2024-05-26T11:40:39Z</time>
      </trkpt>
      <trkpt lat="43.74392" lon="6.67347">
        <ele>1442.2</ele>
        <time>2024-05-26T11:40:40Z</time>
      </trkpt>
      <trkpt lat="43.74393" lon="6.67347">
        <ele>1442.1</ele>
        <time>2024-05-26T11:40:41Z</time>
      </trkpt>
      <trkpt lat="43.74394" lon="6.67347">
        <ele>1442.1</ele>
        <time>2024-05-26T11:40:42Z</time>
      </trkpt>
      <trkpt lat="43.74394" lon="6.67347">
        <ele>1442</ele>
        <time>2024-05-26T11:40:43Z</time>
      </trkpt>
      <trkpt lat="43.74395" lon="6.67347">
        <ele>1441.9</ele>
        <time>2024-05-26T11:40:44Z</time>
      </trkpt>
      <trkpt lat="43.74395" lon="6.67346">
        <ele>1441.8</ele>
        <time>2024-05-26T11:40:45Z</time>
      </trkpt>
      <trkpt lat="43.74396" lon="6.67346">
        <ele>1441.7</ele>
        <time>2024-05-26T11:40:46Z</time>
      </trkpt>
      <trkpt lat="43.74396" lon="6.67345">
        <ele>1441.6</ele>
        <time>2024-05-26T11:40:47Z</time>
      </trkpt>
      <trkpt lat="43.74397" lon="6.67344">
        <ele>1441.5</ele>
        <time>2024-05-26T11:40:48Z</time>
      </trkpt>
      <trkpt lat="43.74397" lon="6.67344">
        <ele>1441.4</ele>
        <time>2024-05-26T11:40:49Z</time>
      </trkpt>
      <trkpt lat="43.74398" lon="6.67344">
        <ele>1441.3</ele>
        <time>2024-05-26T11:40:50Z</time>
      </trkpt>
      <trkpt lat="43.74398" lon="6.67344">
        <ele>1441.2</ele>
        <time>2024-05-26T11:40:51Z</time>
      </trkpt>
      <trkpt lat="43.74399" lon="6.67344">
        <ele>1441.1</ele>
        <time>2024-05-26T11:40:52Z</time>
      </trkpt>
      <trkpt lat="43.74399" lon="6.67344">
        <ele>1440.9</ele>
        <time>2024-05-26T11:40:53Z</time>
      </trkpt>
      <trkpt lat="43.744" lon="6.67343">
        <ele>1440.8</ele>
        <time>2024-05-26T11:40:54Z</time>
      </trkpt>
      <trkpt lat="43.744" lon="6.67343">
        <ele>1440.7</ele>
        <time>2024-05-26T11:40:55Z</time>
      </trkpt>
      <trkpt lat="43.74401" lon="6.67344">
        <ele>1440.6</ele>
        <time>2024-05-26T11:40:56Z</time>
      </trkpt>
      <trkpt lat="43.74401" lon="6.67344">
        <ele>1440.6</ele>
        <time>2024-05-26T11:40:57Z</time>
      </trkpt>
      <trkpt lat="43.74401" lon="6.67344">
        <ele>1440.5</ele>
        <time>2024-05-26T11:40:58Z</time>
      </trkpt>
      <trkpt lat="43.74401" lon="6.67344">
        <ele>1440.4</ele>
        <time>2024-05-26T11:40:59Z</time>
      </trkpt>
      <trkpt lat="43.74401" lon="6.67343">
        <ele>1440.2</ele>
        <time>2024-05-26T11:41:00Z</time>
      </trkpt>
      <trkpt lat="43.74401" lon="6.67344">
        <ele>1440</ele>
        <time>2024-05-26T11:41:01Z</time>
      </trkpt>
      <trkpt lat="43.74401" lon="6.67344">
        <ele>1439.8</ele>
        <time>2024-05-26T11:41:02Z</time>
      </trkpt>
      <trkpt lat="43.74402" lon="6.67343">
        <ele>1439.7</ele>
        <time>2024-05-26T11:41:03Z</time>
      </trkpt>
      <trkpt lat="43.74402" lon="6.67343">
        <ele>1439.5</ele>
        <time>2024-05-26T11:41:04Z</time>
      </trkpt>
      <trkpt lat="43.74402" lon="6.67343">
        <ele>1439.3</ele>
        <time>2024-05-26T11:41:05Z</time>
      </trkpt>
      <trkpt lat="43.74402" lon="6.67343">
        <ele>1439.1</ele>
        <time>2024-05-26T11:41:06Z</time>
      </trkpt>
      <trkpt lat="43.74402" lon="6.67344">
        <ele>1438.8</ele>
        <time>2024-05-26T11:41:07Z</time>
      </trkpt>
      <trkpt lat="43.74402" lon="6.67344">
        <ele>1438.6</ele>
        <time>2024-05-26T11:41:08Z</time>
      </trkpt>
      <trkpt lat="43.74402" lon="6.67345">
        <ele>1438.5</ele>
        <time>2024-05-26T11:41:09Z</time>
      </trkpt>
      <trkpt lat="43.74403" lon="6.67345">
        <ele>1438.3</ele>
        <time>2024-05-26T11:41:10Z</time>
      </trkpt>
      <trkpt lat="43.74404" lon="6.67345">
        <ele>1438.2</ele>
        <time>2024-05-26T11:41:11Z</time>
      </trkpt>
      <trkpt lat="43.74404" lon="6.67345">
        <ele>1438</ele>
        <time>2024-05-26T11:41:12Z</time>
      </trkpt>
      <trkpt lat="43.74404" lon="6.67345">
        <ele>1438</ele>
        <time>2024-05-26T11:41:13Z</time>
      </trkpt>
      <trkpt lat="43.74405" lon="6.67346">
        <ele>1438</ele>
        <time>2024-05-26T11:41:14Z</time>
      </trkpt>
      <trkpt lat="43.74405" lon="6.67346">
        <ele>1437.9</ele>
        <time>2024-05-26T11:41:15Z</time>
      </trkpt>
      <trkpt lat="43.74405" lon="6.67346">
        <ele>1437.8</ele>
        <time>2024-05-26T11:41:16Z</time>
      </trkpt>
      <trkpt lat="43.74405" lon="6.67347">
        <ele>1437.7</ele>
        <time>2024-05-26T11:41:17Z</time>
      </trkpt>
      <trkpt lat="43.74406" lon="6.67347">
        <ele>1437.7</ele>
        <time>2024-05-26T11:41:18Z</time>
      </trkpt>
      <trkpt lat="43.74406" lon="6.67348">
        <ele>1437.6</ele>
        <time>2024-05-26T11:41:19Z</time>
      </trkpt>
      <trkpt lat="43.74405" lon="6.67348">
        <ele>1437.5</ele>
        <time>2024-05-26T11:41:20Z</time>
      </trkpt>
      <trkpt lat="43.74406" lon="6.67348">
        <ele>1437.4</ele>
        <time>2024-05-26T11:41:21Z</time>
      </trkpt>
      <trkpt lat="43.74407" lon="6.67348">
        <ele>1437.3</ele>
        <time>2024-05-26T11:41:22Z</time>
      </trkpt>
      <trkpt lat="43.74407" lon="6.67348">
        <ele>1437.2</ele>
        <time>2024-05-26T11:41:23Z</time>
      </trkpt>
      <trkpt lat="43.74407" lon="6.67348">
        <ele>1436.9</ele>
        <time>2024-05-26T11:41:24Z</time>
      </trkpt>
      <trkpt lat="43.74408" lon="6.67349">
        <ele>1436.7</ele>
        <time>2024-05-26T11:41:25Z</time>
      </trkpt>
      <trkpt lat="43.74408" lon="6.67349">
        <ele>1436.6</ele>
        <time>2024-05-26T11:41:26Z</time>
      </trkpt>
      <trkpt lat="43.74408" lon="6.6735">
        <ele>1436.4</ele>
        <time>2024-05-26T11:41:27Z</time>
      </trkpt>
      <trkpt lat="43.74409" lon="6.6735">
        <ele>1436.3</ele>
        <time>2024-05-26T11:41:28Z</time>
      </trkpt>
      <trkpt lat="43.74409" lon="6.6735">
        <ele>1436.2</ele>
        <time>2024-05-26T11:41:29Z</time>
      </trkpt>
      <trkpt lat="43.7441" lon="6.6735">
        <ele>1436.1</ele>
        <time>2024-05-26T11:41:30Z</time>
      </trkpt>
      <trkpt lat="43.7441" lon="6.6735">
        <ele>1436</ele>
        <time>2024-05-26T11:41:31Z</time>
      </trkpt>
      <trkpt lat="43.74411" lon="6.6735">
        <ele>1436</ele>
        <time>2024-05-26T11:41:32Z</time>
      </trkpt>
      <trkpt lat="43.74411" lon="6.6735">
        <ele>1435.9</ele>
        <time>2024-05-26T11:41:33Z</time>
      </trkpt>
      <trkpt lat="43.74412" lon="6.6735">
        <ele>1435.7</ele>
        <time>2024-05-26T11:41:34Z</time>
      </trkpt>
      <trkpt lat="43.74413" lon="6.6735">
        <ele>1435.6</ele>
        <time>2024-05-26T11:41:35Z</time>
      </trkpt>
      <trkpt lat="43.74413" lon="6.6735">
        <ele>1435.4</ele>
        <time>2024-05-26T11:41:36Z</time>
      </trkpt>
      <trkpt lat="43.74413" lon="6.67351">
        <ele>1435.3</ele>
        <time>2024-05-26T11:41:37Z</time>
      </trkpt>
      <trkpt lat="43.74414" lon="6.67351">
        <ele>1435.2</ele>
        <time>2024-05-26T11:41:38Z</time>
      </trkpt>
      <trkpt lat="43.74414" lon="6.67351">
        <ele>1435.1</ele>
        <time>2024-05-26T11:41:39Z</time>
      </trkpt>
      <trkpt lat="43.74414" lon="6.67351">
        <ele>1435.1</ele>
        <time>2024-05-26T11:41:40Z</time>
      </trkpt>
      <trkpt lat="43.74415" lon="6.67351">
        <ele>1435</ele>
        <time>2024-05-26T11:41:41Z</time>
      </trkpt>
      <trkpt lat="43.74415" lon="6.67351">
        <ele>1434.9</ele>
        <time>2024-05-26T11:41:42Z</time>
      </trkpt>
      <trkpt lat="43.74416" lon="6.6735">
        <ele>1434.9</ele>
        <time>2024-05-26T11:41:43Z</time>
      </trkpt>
      <trkpt lat="43.74416" lon="6.6735">
        <ele>1434.9</ele>
        <time>2024-05-26T11:41:44Z</time>
      </trkpt>
      <trkpt lat="43.74417" lon="6.6735">
        <ele>1434.6</ele>
        <time>2024-05-26T11:41:45Z</time>
      </trkpt>
      <trkpt lat="43.74418" lon="6.6735">
        <ele>1434.4</ele>
        <time>2024-05-26T11:41:46Z</time>
      </trkpt>
      <trkpt lat="43.7442" lon="6.67349">
        <ele>1434.3</ele>
        <time>2024-05-26T11:41:47Z</time>
      </trkpt>
      <trkpt lat="43.7442" lon="6.67349">
        <ele>1434.1</ele>
        <time>2024-05-26T11:41:48Z</time>
      </trkpt>
      <trkpt lat="43.74421" lon="6.67348">
        <ele>1434</ele>
        <time>2024-05-26T11:41:49Z</time>
      </trkpt>
      <trkpt lat="43.74422" lon="6.67347">
        <ele>1433.7</ele>
        <time>2024-05-26T11:41:50Z</time>
      </trkpt>
      <trkpt lat="43.74423" lon="6.67347">
        <ele>1433.5</ele>
        <time>2024-05-26T11:41:51Z</time>
      </trkpt>
      <trkpt lat="43.74423" lon="6.67347">
        <ele>1433.3</ele>
        <time>2024-05-26T11:41:52Z</time>
      </trkpt>
      <trkpt lat="43.74424" lon="6.67347">
        <ele>1433.2</ele>
        <time>2024-05-26T11:41:53Z</time>
      </trkpt>
      <trkpt lat="43.74425" lon="6.67347">
        <ele>1433</ele>
        <time>2024-05-26T11:41:54Z</time>
      </trkpt>
      <trkpt lat="43.74426" lon="6.67347">
        <ele>1432.9</ele>
        <time>2024-05-26T11:41:55Z</time>
      </trkpt>
      <trkpt lat="43.74427" lon="6.67347">
        <ele>1432.8</ele>
        <time>2024-05-26T11:41:56Z</time>
      </trkpt>
      <trkpt lat="43.74427" lon="6.67347">
        <ele>1432.6</ele>
        <time>2024-05-26T11:41:57Z</time>
      </trkpt>
      <trkpt lat="43.74428" lon="6.67347">
        <ele>1432.4</ele>
        <time>2024-05-26T11:41:58Z</time>
      </trkpt>
      <trkpt lat="43.74429" lon="6.67347">
        <ele>1432.2</ele>
        <time>2024-05-26T11:41:59Z</time>
      </trkpt>
      <trkpt lat="43.7443" lon="6.67347">
        <ele>1432</ele>
        <time>2024-05-26T11:42:00Z</time>
      </trkpt>
      <trkpt lat="43.74431" lon="6.67347">
        <ele>1431.8</ele>
        <time>2024-05-26T11:42:01Z</time>
      </trkpt>
      <trkpt lat="43.74431" lon="6.67347">
        <ele>1431.6</ele>
        <time>2024-05-26T11:42:02Z</time>
      </trkpt>
      <trkpt lat="43.74432" lon="6.67346">
        <ele>1431.5</ele>
        <time>2024-05-26T11:42:03Z</time>
      </trkpt>
      <trkpt lat="43.74432" lon="6.67346">
        <ele>1431.4</ele>
        <time>2024-05-26T11:42:04Z</time>
      </trkpt>
      <trkpt lat="43.74433" lon="6.67345">
        <ele>1431.2</ele>
        <time>2024-05-26T11:42:05Z</time>
      </trkpt>
      <trkpt lat="43.74433" lon="6.67345">
        <ele>1431</ele>
        <time>2024-05-26T11:42:06Z</time>
      </trkpt>
      <trkpt lat="43.74434" lon="6.67345">
        <ele>1430.9</ele>
        <time>2024-05-26T11:42:07Z</time>
      </trkpt>
      <trkpt lat="43.74435" lon="6.67344">
        <ele>1430.7</ele>
        <time>2024-05-26T11:42:08Z</time>
      </trkpt>
      <trkpt lat="43.74435" lon="6.67344">
        <ele>1430.6</ele>
        <time>2024-05-26T11:42:09Z</time>
      </trkpt>
      <trkpt lat="43.74436" lon="6.67344">
        <ele>1430.5</ele>
        <time>2024-05-26T11:42:10Z</time>
      </trkpt>
      <trkpt lat="43.74436" lon="6.67343">
        <ele>1430.4</ele>
        <time>2024-05-26T11:42:11Z</time>
      </trkpt>
      <trkpt lat="43.74436" lon="6.67343">
        <ele>1430.3</ele>
        <time>2024-05-26T11:42:12Z</time>
      </trkpt>
      <trkpt lat="43.74436" lon="6.67343">
        <ele>1430.2</ele>
        <time>2024-05-26T11:42:13Z</time>
      </trkpt>
      <trkpt lat="43.74436" lon="6.67343">
        <ele>1430.1</ele>
        <time>2024-05-26T11:42:14Z</time>
      </trkpt>
      <trkpt lat="43.74436" lon="6.67343">
        <ele>1430.1</ele>
        <time>2024-05-26T11:42:15Z</time>
      </trkpt>
      <trkpt lat="43.74436" lon="6.67343">
        <ele>1430</ele>
        <time>2024-05-26T11:42:16Z</time>
      </trkpt>
      <trkpt lat="43.74436" lon="6.67343">
        <ele>1430</ele>
        <time>2024-05-26T11:42:17Z</time>
      </trkpt>
      <trkpt lat="43.74436" lon="6.67344">
        <ele>1429.9</ele>
        <time>2024-05-26T11:42:18Z</time>
      </trkpt>
      <trkpt lat="43.74436" lon="6.67344">
        <ele>1429.8</ele>
        <time>2024-05-26T11:42:19Z</time>
      </trkpt>
      <trkpt lat="43.74437" lon="6.67344">
        <ele>1429.7</ele>
        <time>2024-05-26T11:42:20Z</time>
      </trkpt>
      <trkpt lat="43.74437" lon="6.67344">
        <ele>1429.6</ele>
        <time>2024-05-26T11:42:21Z</time>
      </trkpt>
      <trkpt lat="43.74438" lon="6.67344">
        <ele>1429.6</ele>
        <time>2024-05-26T11:42:22Z</time>
      </trkpt>
      <trkpt lat="43.74437" lon="6.67345">
        <ele>1429.5</ele>
        <time>2024-05-26T11:42:23Z</time>
      </trkpt>
      <trkpt lat="43.74437" lon="6.67345">
        <ele>1429.4</ele>
        <time>2024-05-26T11:42:24Z</time>
      </trkpt>
      <trkpt lat="43.74438" lon="6.67345">
        <ele>1429.3</ele>
        <time>2024-05-26T11:42:25Z</time>
      </trkpt>
      <trkpt lat="43.74438" lon="6.67345">
        <ele>1429.2</ele>
        <time>2024-05-26T11:42:26Z</time>
      </trkpt>
      <trkpt lat="43.74438" lon="6.67345">
        <ele>1429.1</ele>
        <time>2024-05-26T11:42:27Z</time>
      </trkpt>
      <trkpt lat="43.74438" lon="6.67345">
        <ele>1429</ele>
        <time>2024-05-26T11:42:28Z</time>
      </trkpt>
      <trkpt lat="43.74438" lon="6.67346">
        <ele>1429</ele>
        <time>2024-05-26T11:42:29Z</time>
      </trkpt>
      <trkpt lat="43.74438" lon="6.67346">
        <ele>1428.9</ele>
        <time>2024-05-26T11:42:30Z</time>
      </trkpt>
      <trkpt lat="43.74438" lon="6.67346">
        <ele>1428.7</ele>
        <time>2024-05-26T11:42:31Z</time>
      </trkpt>
      <trkpt lat="43.74438" lon="6.67346">
        <ele>1428.6</ele>
        <time>2024-05-26T11:42:32Z</time>
      </trkpt>
      <trkpt lat="43.74438" lon="6.67346">
        <ele>1428.5</ele>
        <time>2024-05-26T11:42:33Z</time>
      </trkpt>
      <trkpt lat="43.74438" lon="6.67346">
        <ele>1428.5</ele>
        <time>2024-05-26T11:42:34Z</time>
      </trkpt>
      <trkpt lat="43.74438" lon="6.67346">
        <ele>1428.4</ele>
        <time>2024-05-26T11:42:35Z</time>
      </trkpt>
      <trkpt lat="43.74438" lon="6.67347">
        <ele>1428.3</ele>
        <time>2024-05-26T11:42:36Z</time>
      </trkpt>
      <trkpt lat="43.74438" lon="6.67347">
        <ele>1428.3</ele>
        <time>2024-05-26T11:42:37Z</time>
      </trkpt>
      <trkpt lat="43.74438" lon="6.67347">
        <ele>1428.3</ele>
        <time>2024-05-26T11:42:38Z</time>
      </trkpt>
      <trkpt lat="43.74438" lon="6.67347">
        <ele>1428.3</ele>
        <time>2024-05-26T11:42:39Z</time>
      </trkpt>
      <trkpt lat="43.74438" lon="6.67347">
        <ele>1428.4</ele>
        <time>2024-05-26T11:42:40Z</time>
      </trkpt>
      <trkpt lat="43.74438" lon="6.67347">
        <ele>1428.4</ele>
        <time>2024-05-26T11:42:41Z</time>
      </trkpt>
      <trkpt lat="43.74438" lon="6.67347">
        <ele>1428.4</ele>
        <time>2024-05-26T11:42:42Z</time>
      </trkpt>
      <trkpt lat="43.74438" lon="6.67347">
        <ele>1428.4</ele>
        <time>2024-05-26T11:42:43Z</time>
      </trkpt>
      <trkpt lat="43.74438" lon="6.67347">
        <ele>1428.5</ele>
        <time>2024-05-26T11:42:44Z</time>
      </trkpt>
      <trkpt lat="43.74438" lon="6.67347">
        <ele>1428.5</ele>
        <time>2024-05-26T11:42:45Z</time>
      </trkpt>
      <trkpt lat="43.74438" lon="6.67348">
        <ele>1428.5</ele>
        <time>2024-05-26T11:42:46Z</time>
      </trkpt>
      <trkpt lat="43.74438" lon="6.67348">
        <ele>1428.4</ele>
        <time>2024-05-26T11:42:47Z</time>
      </trkpt>
      <trkpt lat="43.74438" lon="6.67348">
        <ele>1428.4</ele>
        <time>2024-05-26T11:42:48Z</time>
      </trkpt>
      <trkpt lat="43.74438" lon="6.67348">
        <ele>1428.4</ele>
        <time>2024-05-26T11:42:49Z</time>
      </trkpt>
      <trkpt lat="43.74438" lon="6.67349">
        <ele>1428.4</ele>
        <time>2024-05-26T11:42:50Z</time>
      </trkpt>
      <trkpt lat="43.74438" lon="6.67349">
        <ele>1428.4</ele>
        <time>2024-05-26T11:42:51Z</time>
      </trkpt>
      <trkpt lat="43.74438" lon="6.67349">
        <ele>1428.5</ele>
        <time>2024-05-26T11:42:52Z</time>
      </trkpt>
      <trkpt lat="43.74438" lon="6.67349">
        <ele>1428.5</ele>
        <time>2024-05-26T11:42:53Z</time>
      </trkpt>
      <trkpt lat="43.74438" lon="6.67349">
        <ele>1428.5</ele>
        <time>2024-05-26T11:42:54Z</time>
      </trkpt>
      <trkpt lat="43.74439" lon="6.67349">
        <ele>1428.5</ele>
        <time>2024-05-26T11:42:55Z</time>
      </trkpt>
      <trkpt lat="43.74439" lon="6.67349">
        <ele>1428.5</ele>
        <time>2024-05-26T11:42:56Z</time>
      </trkpt>
      <trkpt lat="43.74439" lon="6.67349">
        <ele>1428.5</ele>
        <time>2024-05-26T11:42:57Z</time>
      </trkpt>
      <trkpt lat="43.74439" lon="6.67349">
        <ele>1428.5</ele>
        <time>2024-05-26T11:42:58Z</time>
      </trkpt>
      <trkpt lat="43.74439" lon="6.67349">
        <ele>1428.6</ele>
        <time>2024-05-26T11:42:59Z</time>
      </trkpt>
      <trkpt lat="43.74439" lon="6.67349">
        <ele>1428.7</ele>
        <time>2024-05-26T11:43:00Z</time>
      </trkpt>
      <trkpt lat="43.74439" lon="6.67349">
        <ele>1428.8</ele>
        <time>2024-05-26T11:43:01Z</time>
      </trkpt>
      <trkpt lat="43.74439" lon="6.6735">
        <ele>1428.8</ele>
        <time>2024-05-26T11:43:02Z</time>
      </trkpt>
      <trkpt lat="43.74439" lon="6.67349">
        <ele>1428.9</ele>
        <time>2024-05-26T11:43:03Z</time>
      </trkpt>
      <trkpt lat="43.74439" lon="6.6735">
        <ele>1428.8</ele>
        <time>2024-05-26T11:43:04Z</time>
      </trkpt>
      <trkpt lat="43.74439" lon="6.6735">
        <ele>1428.8</ele>
        <time>2024-05-26T11:43:05Z</time>
      </trkpt>
      <trkpt lat="43.74439" lon="6.67349">
        <ele>1428.8</ele>
        <time>2024-05-26T11:43:06Z</time>
      </trkpt>
      <trkpt lat="43.7444" lon="6.6735">
        <ele>1428.8</ele>
        <time>2024-05-26T11:43:07Z</time>
      </trkpt>
      <trkpt lat="43.7444" lon="6.67351">
        <ele>1428.8</ele>
        <time>2024-05-26T11:43:08Z</time>
      </trkpt>
      <trkpt lat="43.74441" lon="6.67351">
        <ele>1428.8</ele>
        <time>2024-05-26T11:43:09Z</time>
      </trkpt>
      <trkpt lat="43.74441" lon="6.67352">
        <ele>1428.5</ele>
        <time>2024-05-26T11:43:10Z</time>
      </trkpt>
      <trkpt lat="43.74442" lon="6.67353">
        <ele>1428.4</ele>
        <time>2024-05-26T11:43:11Z</time>
      </trkpt>
      <trkpt lat="43.74442" lon="6.67353">
        <ele>1428.2</ele>
        <time>2024-05-26T11:43:12Z</time>
      </trkpt>
      <trkpt lat="43.74443" lon="6.67353">
        <ele>1428.1</ele>
        <time>2024-05-26T11:43:13Z</time>
      </trkpt>
      <trkpt lat="43.74443" lon="6.67355">
        <ele>1428</ele>
        <time>2024-05-26T11:43:14Z</time>
      </trkpt>
      <trkpt lat="43.74444" lon="6.67356">
        <ele>1428</ele>
        <time>2024-05-26T11:43:15Z</time>
      </trkpt>
      <trkpt lat="43.74444" lon="6.67356">
        <ele>1427.9</ele>
        <time>2024-05-26T11:43:16Z</time>
      </trkpt>
      <trkpt lat="43.74445" lon="6.67356">
        <ele>1427.7</ele>
        <time>2024-05-26T11:43:17Z</time>
      </trkpt>
      <trkpt lat="43.74446" lon="6.67357">
        <ele>1427.3</ele>
        <time>2024-05-26T11:43:18Z</time>
      </trkpt>
      <trkpt lat="43.74446" lon="6.67357">
        <ele>1427</ele>
        <time>2024-05-26T11:43:19Z</time>
      </trkpt>
      <trkpt lat="43.74447" lon="6.67357">
        <ele>1426.8</ele>
        <time>2024-05-26T11:43:20Z</time>
      </trkpt>
      <trkpt lat="43.74448" lon="6.67358">
        <ele>1426.5</ele>
        <time>2024-05-26T11:43:21Z</time>
      </trkpt>
      <trkpt lat="43.74448" lon="6.67358">
        <ele>1426.3</ele>
        <time>2024-05-26T11:43:22Z</time>
      </trkpt>
      <trkpt lat="43.74449" lon="6.67358">
        <ele>1426.1</ele>
        <time>2024-05-26T11:43:23Z</time>
      </trkpt>
      <trkpt lat="43.7445" lon="6.67358">
        <ele>1425.9</ele>
        <time>2024-05-26T11:43:24Z</time>
      </trkpt>
      <trkpt lat="43.7445" lon="6.67358">
        <ele>1425.6</ele>
        <time>2024-05-26T11:43:25Z</time>
      </trkpt>
      <trkpt lat="43.74451" lon="6.67357">
        <ele>1425.3</ele>
        <time>2024-05-26T11:43:26Z</time>
      </trkpt>
      <trkpt lat="43.74452" lon="6.67358">
        <ele>1425.1</ele>
        <time>2024-05-26T11:43:27Z</time>
      </trkpt>
      <trkpt lat="43.74453" lon="6.67359">
        <ele>1424.8</ele>
        <time>2024-05-26T11:43:28Z</time>
      </trkpt>
      <trkpt lat="43.74453" lon="6.6736">
        <ele>1424.5</ele>
        <time>2024-05-26T11:43:29Z</time>
      </trkpt>
      <trkpt lat="43.74454" lon="6.6736">
        <ele>1424.2</ele>
        <time>2024-05-26T11:43:30Z</time>
      </trkpt>
      <trkpt lat="43.74455" lon="6.67361">
        <ele>1423.9</ele>
        <time>2024-05-26T11:43:31Z</time>
      </trkpt>
      <trkpt lat="43.74455" lon="6.67362">
        <ele>1423.7</ele>
        <time>2024-05-26T11:43:32Z</time>
      </trkpt>
      <trkpt lat="43.74456" lon="6.67363">
        <ele>1423.5</ele>
        <time>2024-05-26T11:43:33Z</time>
      </trkpt>
      <trkpt lat="43.74457" lon="6.67364">
        <ele>1423.3</ele>
        <time>2024-05-26T11:43:34Z</time>
      </trkpt>
      <trkpt lat="43.74458" lon="6.67365">
        <ele>1423.1</ele>
        <time>2024-05-26T11:43:35Z</time>
      </trkpt>
      <trkpt lat="43.74458" lon="6.67366">
        <ele>1422.8</ele>
        <time>2024-05-26T11:43:36Z</time>
      </trkpt>
      <trkpt lat="43.74458" lon="6.67367">
        <ele>1422.6</ele>
        <time>2024-05-26T11:43:37Z</time>
      </trkpt>
      <trkpt lat="43.74458" lon="6.67368">
        <ele>1422.3</ele>
        <time>2024-05-26T11:43:38Z</time>
      </trkpt>
      <trkpt lat="43.74458" lon="6.67369">
        <ele>1422</ele>
        <time>2024-05-26T11:43:39Z</time>
      </trkpt>
      <trkpt lat="43.74458" lon="6.6737">
        <ele>1421.7</ele>
        <time>2024-05-26T11:43:40Z</time>
      </trkpt>
      <trkpt lat="43.74459" lon="6.67371">
        <ele>1421.5</ele>
        <time>2024-05-26T11:43:41Z</time>
      </trkpt>
      <trkpt lat="43.74461" lon="6.67372">
        <ele>1421.3</ele>
        <time>2024-05-26T11:43:42Z</time>
      </trkpt>
      <trkpt lat="43.74463" lon="6.67371">
        <ele>1420.9</ele>
        <time>2024-05-26T11:43:43Z</time>
      </trkpt>
      <trkpt lat="43.74464" lon="6.67372">
        <ele>1420.6</ele>
        <time>2024-05-26T11:43:44Z</time>
      </trkpt>
      <trkpt lat="43.74464" lon="6.67371">
        <ele>1420.3</ele>
        <time>2024-05-26T11:43:45Z</time>
      </trkpt>
      <trkpt lat="43.74466" lon="6.67371">
        <ele>1420</ele>
        <time>2024-05-26T11:43:46Z</time>
      </trkpt>
      <trkpt lat="43.74467" lon="6.6737">
        <ele>1419.7</ele>
        <time>2024-05-26T11:43:47Z</time>
      </trkpt>
      <trkpt lat="43.74468" lon="6.6737">
        <ele>1419.4</ele>
        <time>2024-05-26T11:43:48Z</time>
      </trkpt>
      <trkpt lat="43.7447" lon="6.6737">
        <ele>1419.1</ele>
        <time>2024-05-26T11:43:49Z</time>
      </trkpt>
      <trkpt lat="43.74471" lon="6.67369">
        <ele>1418.9</ele>
        <time>2024-05-26T11:43:50Z</time>
      </trkpt>
      <trkpt lat="43.74473" lon="6.67368">
        <ele>1418.6</ele>
        <time>2024-05-26T11:43:51Z</time>
      </trkpt>
      <trkpt lat="43.74474" lon="6.67368">
        <ele>1418.3</ele>
        <time>2024-05-26T11:43:52Z</time>
      </trkpt>
      <trkpt lat="43.74475" lon="6.67366">
        <ele>1417.9</ele>
        <time>2024-05-26T11:43:53Z</time>
      </trkpt>
      <trkpt lat="43.74476" lon="6.67366">
        <ele>1417.6</ele>
        <time>2024-05-26T11:43:54Z</time>
      </trkpt>
      <trkpt lat="43.74478" lon="6.67365">
        <ele>1417.4</ele>
        <time>2024-05-26T11:43:55Z</time>
      </trkpt>
      <trkpt lat="43.74478" lon="6.67367">
        <ele>1417.2</ele>
        <time>2024-05-26T11:43:56Z</time>
      </trkpt>
      <trkpt lat="43.74478" lon="6.67366">
        <ele>1417.1</ele>
        <time>2024-05-26T11:43:57Z</time>
      </trkpt>
      <trkpt lat="43.74479" lon="6.67365">
        <ele>1416.9</ele>
        <time>2024-05-26T11:43:58Z</time>
      </trkpt>
      <trkpt lat="43.74479" lon="6.67365">
        <ele>1416.8</ele>
        <time>2024-05-26T11:43:59Z</time>
      </trkpt>
      <trkpt lat="43.7448" lon="6.67365">
        <ele>1416.7</ele>
        <time>2024-05-26T11:44:00Z</time>
      </trkpt>
      <trkpt lat="43.74481" lon="6.67364">
        <ele>1416.5</ele>
        <time>2024-05-26T11:44:01Z</time>
      </trkpt>
      <trkpt lat="43.74482" lon="6.67363">
        <ele>1416.4</ele>
        <time>2024-05-26T11:44:02Z</time>
      </trkpt>
      <trkpt lat="43.74482" lon="6.67364">
        <ele>1416.3</ele>
        <time>2024-05-26T11:44:03Z</time>
      </trkpt>
      <trkpt lat="43.74483" lon="6.67363">
        <ele>1416.1</ele>
        <time>2024-05-26T11:44:04Z</time>
      </trkpt>
      <trkpt lat="43.74484" lon="6.67363">
        <ele>1416</ele>
        <time>2024-05-26T11:44:05Z</time>
      </trkpt>
      <trkpt lat="43.74485" lon="6.67363">
        <ele>1416</ele>
        <time>2024-05-26T11:44:06Z</time>
      </trkpt>
      <trkpt lat="43.74486" lon="6.67362">
        <ele>1415.9</ele>
        <time>2024-05-26T11:44:07Z</time>
      </trkpt>
      <trkpt lat="43.74487" lon="6.67361">
        <ele>1415.8</ele>
        <time>2024-05-26T11:44:08Z</time>
      </trkpt>
      <trkpt lat="43.74488" lon="6.6736">
        <ele>1415.7</ele>
        <time>2024-05-26T11:44:09Z</time>
      </trkpt>
      <trkpt lat="43.74489" lon="6.6736">
        <ele>1415.7</ele>
        <time>2024-05-26T11:44:10Z</time>
      </trkpt>
      <trkpt lat="43.7449" lon="6.67359">
        <ele>1415.5</ele>
        <time>2024-05-26T11:44:11Z</time>
      </trkpt>
      <trkpt lat="43.7449" lon="6.67358">
        <ele>1415.4</ele>
        <time>2024-05-26T11:44:12Z</time>
      </trkpt>
      <trkpt lat="43.74491" lon="6.67357">
        <ele>1415.3</ele>
        <time>2024-05-26T11:44:13Z</time>
      </trkpt>
      <trkpt lat="43.74491" lon="6.67357">
        <ele>1415.2</ele>
        <time>2024-05-26T11:44:14Z</time>
      </trkpt>
      <trkpt lat="43.74492" lon="6.67357">
        <ele>1415.1</ele>
        <time>2024-05-26T11:44:15Z</time>
      </trkpt>
      <trkpt lat="43.74492" lon="6.67357">
        <ele>1415</ele>
        <time>2024-05-26T11:44:16Z</time>
      </trkpt>
      <trkpt lat="43.74493" lon="6.67356">
        <ele>1414.9</ele>
        <time>2024-05-26T11:44:17Z</time>
      </trkpt>
      <trkpt lat="43.74494" lon="6.67356">
        <ele>1414.7</ele>
        <time>2024-05-26T11:44:18Z</time>
      </trkpt>
      <trkpt lat="43.74494" lon="6.67355">
        <ele>1414.6</ele>
        <time>2024-05-26T11:44:19Z</time>
      </trkpt>
      <trkpt lat="43.74495" lon="6.67355">
        <ele>1414.4</ele>
        <time>2024-05-26T11:44:20Z</time>
      </trkpt>
      <trkpt lat="43.74496" lon="6.67355">
        <ele>1414.3</ele>
        <time>2024-05-26T11:44:21Z</time>
      </trkpt>
      <trkpt lat="43.74496" lon="6.67355">
        <ele>1414.2</ele>
        <time>2024-05-26T11:44:22Z</time>
      </trkpt>
      <trkpt lat="43.74498" lon="6.67353">
        <ele>1414.1</ele>
        <time>2024-05-26T11:44:23Z</time>
      </trkpt>
      <trkpt lat="43.74499" lon="6.67354">
        <ele>1413.9</ele>
        <time>2024-05-26T11:44:24Z</time>
      </trkpt>
      <trkpt lat="43.745" lon="6.67353">
        <ele>1413.8</ele>
        <time>2024-05-26T11:44:25Z</time>
      </trkpt>
      <trkpt lat="43.74501" lon="6.67352">
        <ele>1413.8</ele>
        <time>2024-05-26T11:44:26Z</time>
      </trkpt>
      <trkpt lat="43.74502" lon="6.67351">
        <ele>1413.6</ele>
        <time>2024-05-26T11:44:27Z</time>
      </trkpt>
      <trkpt lat="43.74503" lon="6.67351">
        <ele>1413.5</ele>
        <time>2024-05-26T11:44:28Z</time>
      </trkpt>
      <trkpt lat="43.74504" lon="6.6735">
        <ele>1413.4</ele>
        <time>2024-05-26T11:44:29Z</time>
      </trkpt>
      <trkpt lat="43.74504" lon="6.6735">
        <ele>1413.3</ele>
        <time>2024-05-26T11:44:30Z</time>
      </trkpt>
      <trkpt lat="43.74505" lon="6.6735">
        <ele>1413.3</ele>
        <time>2024-05-26T11:44:31Z</time>
      </trkpt>
      <trkpt lat="43.74505" lon="6.67349">
        <ele>1413.2</ele>
        <time>2024-05-26T11:44:32Z</time>
      </trkpt>
      <trkpt lat="43.74505" lon="6.67349">
        <ele>1413.2</ele>
        <time>2024-05-26T11:44:33Z</time>
      </trkpt>
      <trkpt lat="43.74505" lon="6.67349">
        <ele>1413.1</ele>
        <time>2024-05-26T11:44:34Z</time>
      </trkpt>
      <trkpt lat="43.74505" lon="6.67349">
        <ele>1413</ele>
        <time>2024-05-26T11:44:35Z</time>
      </trkpt>
      <trkpt lat="43.74505" lon="6.67348">
        <ele>1412.8</ele>
        <time>2024-05-26T11:44:36Z</time>
      </trkpt>
      <trkpt lat="43.74505" lon="6.67348">
        <ele>1412.7</ele>
        <time>2024-05-26T11:44:37Z</time>
      </trkpt>
      <trkpt lat="43.74505" lon="6.67348">
        <ele>1412.6</ele>
        <time>2024-05-26T11:44:38Z</time>
      </trkpt>
      <trkpt lat="43.74506" lon="6.67348">
        <ele>1412.4</ele>
        <time>2024-05-26T11:44:39Z</time>
      </trkpt>
      <trkpt lat="43.74507" lon="6.67348">
        <ele>1412.4</ele>
        <time>2024-05-26T11:44:40Z</time>
      </trkpt>
      <trkpt lat="43.74507" lon="6.67348">
        <ele>1412.2</ele>
        <time>2024-05-26T11:44:41Z</time>
      </trkpt>
      <trkpt lat="43.74507" lon="6.67348">
        <ele>1412.2</ele>
        <time>2024-05-26T11:44:42Z</time>
      </trkpt>
      <trkpt lat="43.74508" lon="6.67348">
        <ele>1412</ele>
        <time>2024-05-26T11:44:43Z</time>
      </trkpt>
      <trkpt lat="43.74509" lon="6.67348">
        <ele>1411.9</ele>
        <time>2024-05-26T11:44:44Z</time>
      </trkpt>
      <trkpt lat="43.74508" lon="6.67348">
        <ele>1411.7</ele>
        <time>2024-05-26T11:44:45Z</time>
      </trkpt>
      <trkpt lat="43.74508" lon="6.67348">
        <ele>1411.6</ele>
        <time>2024-05-26T11:44:46Z</time>
      </trkpt>
      <trkpt lat="43.74509" lon="6.67347">
        <ele>1411.5</ele>
        <time>2024-05-26T11:44:47Z</time>
      </trkpt>
      <trkpt lat="43.7451" lon="6.67346">
        <ele>1411.3</ele>
        <time>2024-05-26T11:44:48Z</time>
      </trkpt>
      <trkpt lat="43.74511" lon="6.67346">
        <ele>1411.2</ele>
        <time>2024-05-26T11:44:49Z</time>
      </trkpt>
      <trkpt lat="43.74511" lon="6.67346">
        <ele>1411</ele>
        <time>2024-05-26T11:44:50Z</time>
      </trkpt>
      <trkpt lat="43.74512" lon="6.67346">
        <ele>1410.7</ele>
        <time>2024-05-26T11:44:51Z</time>
      </trkpt>
      <trkpt lat="43.74513" lon="6.67346">
        <ele>1410.6</ele>
        <time>2024-05-26T11:44:52Z</time>
      </trkpt>
      <trkpt lat="43.74514" lon="6.67345">
        <ele>1410.5</ele>
        <time>2024-05-26T11:44:53Z</time>
      </trkpt>
      <trkpt lat="43.74514" lon="6.67345">
        <ele>1410.4</ele>
        <time>2024-05-26T11:44:54Z</time>
      </trkpt>
      <trkpt lat="43.74514" lon="6.67344">
        <ele>1410.3</ele>
        <time>2024-05-26T11:44:55Z</time>
      </trkpt>
      <trkpt lat="43.74515" lon="6.67345">
        <ele>1410.1</ele>
        <time>2024-05-26T11:44:56Z</time>
      </trkpt>
      <trkpt lat="43.74515" lon="6.67345">
        <ele>1410</ele>
        <time>2024-05-26T11:44:57Z</time>
      </trkpt>
      <trkpt lat="43.74515" lon="6.67345">
        <ele>1409.8</ele>
        <time>2024-05-26T11:44:58Z</time>
      </trkpt>
      <trkpt lat="43.74515" lon="6.67346">
        <ele>1409.7</ele>
        <time>2024-05-26T11:44:59Z</time>
      </trkpt>
      <trkpt lat="43.74515" lon="6.67346">
        <ele>1409.5</ele>
        <time>2024-05-26T11:45:00Z</time>
      </trkpt>
      <trkpt lat="43.74515" lon="6.67347">
        <ele>1409.3</ele>
        <time>2024-05-26T11:45:01Z</time>
      </trkpt>
      <trkpt lat="43.74516" lon="6.67347">
        <ele>1409.1</ele>
        <time>2024-05-26T11:45:02Z</time>
      </trkpt>
      <trkpt lat="43.74516" lon="6.67347">
        <ele>1408.9</ele>
        <time>2024-05-26T11:45:03Z</time>
      </trkpt>
      <trkpt lat="43.74517" lon="6.67348">
        <ele>1408.6</ele>
        <time>2024-05-26T11:45:04Z</time>
      </trkpt>
      <trkpt lat="43.74518" lon="6.67348">
        <ele>1408.3</ele>
        <time>2024-05-26T11:45:05Z</time>
      </trkpt>
      <trkpt lat="43.74519" lon="6.67348">
        <ele>1408.1</ele>
        <time>2024-05-26T11:45:06Z</time>
      </trkpt>
      <trkpt lat="43.74519" lon="6.67349">
        <ele>1407.9</ele>
        <time>2024-05-26T11:45:07Z</time>
      </trkpt>
      <trkpt lat="43.7452" lon="6.6735">
        <ele>1407.7</ele>
        <time>2024-05-26T11:45:08Z</time>
      </trkpt>
      <trkpt lat="43.74521" lon="6.6735">
        <ele>1407.5</ele>
        <time>2024-05-26T11:45:09Z</time>
      </trkpt>
      <trkpt lat="43.74521" lon="6.67351">
        <ele>1407.4</ele>
        <time>2024-05-26T11:45:10Z</time>
      </trkpt>
      <trkpt lat="43.74523" lon="6.67351">
        <ele>1407.2</ele>
        <time>2024-05-26T11:45:11Z</time>
      </trkpt>
      <trkpt lat="43.74524" lon="6.67351">
        <ele>1407</ele>
        <time>2024-05-26T11:45:12Z</time>
      </trkpt>
      <trkpt lat="43.74524" lon="6.67351">
        <ele>1406.9</ele>
        <time>2024-05-26T11:45:13Z</time>
      </trkpt>
      <trkpt lat="43.74525" lon="6.67352">
        <ele>1406.7</ele>
        <time>2024-05-26T11:45:14Z</time>
      </trkpt>
      <trkpt lat="43.74525" lon="6.67351">
        <ele>1406.5</ele>
        <time>2024-05-26T11:45:15Z</time>
      </trkpt>
      <trkpt lat="43.74526" lon="6.67351">
        <ele>1406.4</ele>
        <time>2024-05-26T11:45:16Z</time>
      </trkpt>
      <trkpt lat="43.74527" lon="6.67351">
        <ele>1406.2</ele>
        <time>2024-05-26T11:45:17Z</time>
      </trkpt>
      <trkpt lat="43.74529" lon="6.67352">
        <ele>1406.1</ele>
        <time>2024-05-26T11:45:18Z</time>
      </trkpt>
      <trkpt lat="43.7453" lon="6.67353">
        <ele>1406</ele>
        <time>2024-05-26T11:45:19Z</time>
      </trkpt>
      <trkpt lat="43.74531" lon="6.67354">
        <ele>1405.9</ele>
        <time>2024-05-26T11:45:20Z</time>
      </trkpt>
      <trkpt lat="43.74533" lon="6.67355">
        <ele>1405.8</ele>
        <time>2024-05-26T11:45:21Z</time>
      </trkpt>
      <trkpt lat="43.74534" lon="6.67356">
        <ele>1405.7</ele>
        <time>2024-05-26T11:45:22Z</time>
      </trkpt>
      <trkpt lat="43.74535" lon="6.67356">
        <ele>1405.6</ele>
        <time>2024-05-26T11:45:23Z</time>
      </trkpt>
      <trkpt lat="43.74536" lon="6.67357">
        <ele>1405.5</ele>
        <time>2024-05-26T11:45:24Z</time>
      </trkpt>
      <trkpt lat="43.74537" lon="6.67359">
        <ele>1405.4</ele>
        <time>2024-05-26T11:45:25Z</time>
      </trkpt>
      <trkpt lat="43.74537" lon="6.6736">
        <ele>1405.3</ele>
        <time>2024-05-26T11:45:26Z</time>
      </trkpt>
      <trkpt lat="43.74537" lon="6.67361">
        <ele>1405.2</ele>
        <time>2024-05-26T11:45:27Z</time>
      </trkpt>
      <trkpt lat="43.74538" lon="6.67362">
        <ele>1405.1</ele>
        <time>2024-05-26T11:45:28Z</time>
      </trkpt>
      <trkpt lat="43.74538" lon="6.67363">
        <ele>1405.1</ele>
        <time>2024-05-26T11:45:29Z</time>
      </trkpt>
      <trkpt lat="43.74539" lon="6.67364">
        <ele>1405</ele>
        <time>2024-05-26T11:45:30Z</time>
      </trkpt>
      <trkpt lat="43.74539" lon="6.67365">
        <ele>1405</ele>
        <time>2024-05-26T11:45:31Z</time>
      </trkpt>
      <trkpt lat="43.74539" lon="6.67365">
        <ele>1404.9</ele>
        <time>2024-05-26T11:45:32Z</time>
      </trkpt>
      <trkpt lat="43.74538" lon="6.67366">
        <ele>1404.8</ele>
        <time>2024-05-26T11:45:33Z</time>
      </trkpt>
      <trkpt lat="43.74537" lon="6.67367">
        <ele>1404.6</ele>
        <time>2024-05-26T11:45:34Z</time>
      </trkpt>
      <trkpt lat="43.74537" lon="6.67368">
        <ele>1404.5</ele>
        <time>2024-05-26T11:45:35Z</time>
      </trkpt>
      <trkpt lat="43.74538" lon="6.67369">
        <ele>1404.4</ele>
        <time>2024-05-26T11:45:36Z</time>
      </trkpt>
      <trkpt lat="43.74538" lon="6.67372">
        <ele>1404.3</ele>
        <time>2024-05-26T11:45:37Z</time>
      </trkpt>
      <trkpt lat="43.74537" lon="6.67373">
        <ele>1404.2</ele>
        <time>2024-05-26T11:45:38Z</time>
      </trkpt>
      <trkpt lat="43.74537" lon="6.67374">
        <ele>1404</ele>
        <time>2024-05-26T11:45:39Z</time>
      </trkpt>
      <trkpt lat="43.74536" lon="6.67375">
        <ele>1403.9</ele>
        <time>2024-05-26T11:45:40Z</time>
      </trkpt>
      <trkpt lat="43.74535" lon="6.67376">
        <ele>1403.8</ele>
        <time>2024-05-26T11:45:41Z</time>
      </trkpt>
      <trkpt lat="43.74535" lon="6.67377">
        <ele>1403.7</ele>
        <time>2024-05-26T11:45:42Z</time>
      </trkpt>
      <trkpt lat="43.74535" lon="6.67378">
        <ele>1403.6</ele>
        <time>2024-05-26T11:45:43Z</time>
      </trkpt>
      <trkpt lat="43.74533" lon="6.6738">
        <ele>1403.5</ele>
        <time>2024-05-26T11:45:44Z</time>
      </trkpt>
      <trkpt lat="43.74533" lon="6.67381">
        <ele>1403.5</ele>
        <time>2024-05-26T11:45:45Z</time>
      </trkpt>
      <trkpt lat="43.74532" lon="6.67384">
        <ele>1403.5</ele>
        <time>2024-05-26T11:45:46Z</time>
      </trkpt>
      <trkpt lat="43.74532" lon="6.67385">
        <ele>1403.4</ele>
        <time>2024-05-26T11:45:47Z</time>
      </trkpt>
      <trkpt lat="43.74532" lon="6.67387">
        <ele>1403.3</ele>
        <time>2024-05-26T11:45:48Z</time>
      </trkpt>
      <trkpt lat="43.74532" lon="6.67388">
        <ele>1403.3</ele>
        <time>2024-05-26T11:45:49Z</time>
      </trkpt>
      <trkpt lat="43.74531" lon="6.67389">
        <ele>1403.1</ele>
        <time>2024-05-26T11:45:50Z</time>
      </trkpt>
      <trkpt lat="43.7453" lon="6.6739">
        <ele>1403</ele>
        <time>2024-05-26T11:45:51Z</time>
      </trkpt>
      <trkpt lat="43.7453" lon="6.67392">
        <ele>1403</ele>
        <time>2024-05-26T11:45:52Z</time>
      </trkpt>
      <trkpt lat="43.74529" lon="6.67392">
        <ele>1402.9</ele>
        <time>2024-05-26T11:45:53Z</time>
      </trkpt>
      <trkpt lat="43.74529" lon="6.67393">
        <ele>1402.8</ele>
        <time>2024-05-26T11:45:54Z</time>
      </trkpt>
      <trkpt lat="43.7453" lon="6.67394">
        <ele>1402.7</ele>
        <time>2024-05-26T11:45:55Z</time>
      </trkpt>
      <trkpt lat="43.7453" lon="6.67395">
        <ele>1402.6</ele>
        <time>2024-05-26T11:45:56Z</time>
      </trkpt>
      <trkpt lat="43.74529" lon="6.67397">
        <ele>1402.5</ele>
        <time>2024-05-26T11:45:57Z</time>
      </trkpt>
      <trkpt lat="43.74529" lon="6.67399">
        <ele>1402.4</ele>
        <time>2024-05-26T11:45:58Z</time>
      </trkpt>
      <trkpt lat="43.74529" lon="6.674">
        <ele>1402.3</ele>
        <time>2024-05-26T11:45:59Z</time>
      </trkpt>
      <trkpt lat="43.74528" lon="6.67401">
        <ele>1402.3</ele>
        <time>2024-05-26T11:46:00Z</time>
      </trkpt>
      <trkpt lat="43.74528" lon="6.67402">
        <ele>1402.2</ele>
        <time>2024-05-26T11:46:01Z</time>
      </trkpt>
      <trkpt lat="43.74527" lon="6.67403">
        <ele>1402.1</ele>
        <time>2024-05-26T11:46:02Z</time>
      </trkpt>
      <trkpt lat="43.74527" lon="6.67405">
        <ele>1402</ele>
        <time>2024-05-26T11:46:03Z</time>
      </trkpt>
      <trkpt lat="43.74527" lon="6.67406">
        <ele>1401.9</ele>
        <time>2024-05-26T11:46:04Z</time>
      </trkpt>
      <trkpt lat="43.74526" lon="6.67408">
        <ele>1401.8</ele>
        <time>2024-05-26T11:46:05Z</time>
      </trkpt>
      <trkpt lat="43.74525" lon="6.67409">
        <ele>1401.8</ele>
        <time>2024-05-26T11:46:06Z</time>
      </trkpt>
      <trkpt lat="43.74526" lon="6.6741">
        <ele>1401.8</ele>
        <time>2024-05-26T11:46:07Z</time>
      </trkpt>
      <trkpt lat="43.74525" lon="6.67411">
        <ele>1401.7</ele>
        <time>2024-05-26T11:46:08Z</time>
      </trkpt>
      <trkpt lat="43.74525" lon="6.67412">
        <ele>1401.6</ele>
        <time>2024-05-26T11:46:09Z</time>
      </trkpt>
      <trkpt lat="43.74525" lon="6.67413">
        <ele>1401.5</ele>
        <time>2024-05-26T11:46:10Z</time>
      </trkpt>
      <trkpt lat="43.74525" lon="6.67415">
        <ele>1401.4</ele>
        <time>2024-05-26T11:46:11Z</time>
      </trkpt>
      <trkpt lat="43.74525" lon="6.67416">
        <ele>1401.4</ele>
        <time>2024-05-26T11:46:12Z</time>
      </trkpt>
      <trkpt lat="43.74525" lon="6.67417">
        <ele>1401.3</ele>
        <time>2024-05-26T11:46:13Z</time>
      </trkpt>
      <trkpt lat="43.74525" lon="6.67417">
        <ele>1401.2</ele>
        <time>2024-05-26T11:46:14Z</time>
      </trkpt>
      <trkpt lat="43.74525" lon="6.67418">
        <ele>1401.1</ele>
        <time>2024-05-26T11:46:15Z</time>
      </trkpt>
      <trkpt lat="43.74524" lon="6.67419">
        <ele>1401</ele>
        <time>2024-05-26T11:46:16Z</time>
      </trkpt>
      <trkpt lat="43.74524" lon="6.67419">
        <ele>1401</ele>
        <time>2024-05-26T11:46:17Z</time>
      </trkpt>
      <trkpt lat="43.74524" lon="6.6742">
        <ele>1400.7</ele>
        <time>2024-05-26T11:46:18Z</time>
      </trkpt>
      <trkpt lat="43.74524" lon="6.67421">
        <ele>1400.7</ele>
        <time>2024-05-26T11:46:19Z</time>
      </trkpt>
      <trkpt lat="43.74524" lon="6.67422">
        <ele>1400.6</ele>
        <time>2024-05-26T11:46:20Z</time>
      </trkpt>
      <trkpt lat="43.74523" lon="6.67423">
        <ele>1400.5</ele>
        <time>2024-05-26T11:46:21Z</time>
      </trkpt>
      <trkpt lat="43.74524" lon="6.67424">
        <ele>1400.4</ele>
        <time>2024-05-26T11:46:22Z</time>
      </trkpt>
      <trkpt lat="43.74524" lon="6.67424">
        <ele>1400.2</ele>
        <time>2024-05-26T11:46:23Z</time>
      </trkpt>
      <trkpt lat="43.74524" lon="6.67425">
        <ele>1400.1</ele>
        <time>2024-05-26T11:46:24Z</time>
      </trkpt>
      <trkpt lat="43.74524" lon="6.67426">
        <ele>1400</ele>
        <time>2024-05-26T11:46:25Z</time>
      </trkpt>
      <trkpt lat="43.74523" lon="6.67427">
        <ele>1399.9</ele>
        <time>2024-05-26T11:46:26Z</time>
      </trkpt>
      <trkpt lat="43.74522" lon="6.67428">
        <ele>1399.7</ele>
        <time>2024-05-26T11:46:27Z</time>
      </trkpt>
      <trkpt lat="43.74522" lon="6.67428">
        <ele>1399.6</ele>
        <time>2024-05-26T11:46:28Z</time>
      </trkpt>
      <trkpt lat="43.74521" lon="6.67429">
        <ele>1399.4</ele>
        <time>2024-05-26T11:46:29Z</time>
      </trkpt>
      <trkpt lat="43.7452" lon="6.67429">
        <ele>1399.4</ele>
        <time>2024-05-26T11:46:30Z</time>
      </trkpt>
      <trkpt lat="43.7452" lon="6.6743">
        <ele>1399.3</ele>
        <time>2024-05-26T11:46:31Z</time>
      </trkpt>
      <trkpt lat="43.74519" lon="6.67431">
        <ele>1399.3</ele>
        <time>2024-05-26T11:46:32Z</time>
      </trkpt>
      <trkpt lat="43.74518" lon="6.67432">
        <ele>1399.1</ele>
        <time>2024-05-26T11:46:33Z</time>
      </trkpt>
      <trkpt lat="43.74518" lon="6.67434">
        <ele>1399</ele>
        <time>2024-05-26T11:46:34Z</time>
      </trkpt>
      <trkpt lat="43.74518" lon="6.67435">
        <ele>1398.9</ele>
        <time>2024-05-26T11:46:35Z</time>
      </trkpt>
      <trkpt lat="43.74516" lon="6.67437">
        <ele>1398.8</ele>
        <time>2024-05-26T11:46:36Z</time>
      </trkpt>
      <trkpt lat="43.74515" lon="6.67438">
        <ele>1398.6</ele>
        <time>2024-05-26T11:46:37Z</time>
      </trkpt>
      <trkpt lat="43.74515" lon="6.6744">
        <ele>1398.4</ele>
        <time>2024-05-26T11:46:38Z</time>
      </trkpt>
      <trkpt lat="43.74515" lon="6.67441">
        <ele>1398.2</ele>
        <time>2024-05-26T11:46:39Z</time>
      </trkpt>
      <trkpt lat="43.74515" lon="6.67442">
        <ele>1398</ele>
        <time>2024-05-26T11:46:40Z</time>
      </trkpt>
      <trkpt lat="43.74514" lon="6.67444">
        <ele>1397.8</ele>
        <time>2024-05-26T11:46:41Z</time>
      </trkpt>
      <trkpt lat="43.74514" lon="6.67446">
        <ele>1397.6</ele>
        <time>2024-05-26T11:46:42Z</time>
      </trkpt>
      <trkpt lat="43.74514" lon="6.67448">
        <ele>1397.4</ele>
        <time>2024-05-26T11:46:43Z</time>
      </trkpt>
      <trkpt lat="43.74514" lon="6.67448">
        <ele>1397.2</ele>
        <time>2024-05-26T11:46:44Z</time>
      </trkpt>
      <trkpt lat="43.74514" lon="6.67449">
        <ele>1397</ele>
        <time>2024-05-26T11:46:45Z</time>
      </trkpt>
      <trkpt lat="43.74514" lon="6.6745">
        <ele>1396.8</ele>
        <time>2024-05-26T11:46:46Z</time>
      </trkpt>
      <trkpt lat="43.74513" lon="6.67451">
        <ele>1396.7</ele>
        <time>2024-05-26T11:46:47Z</time>
      </trkpt>
      <trkpt lat="43.74513" lon="6.67451">
        <ele>1396.5</ele>
        <time>2024-05-26T11:46:48Z</time>
      </trkpt>
      <trkpt lat="43.74512" lon="6.67452">
        <ele>1396.3</ele>
        <time>2024-05-26T11:46:49Z</time>
      </trkpt>
      <trkpt lat="43.74512" lon="6.67453">
        <ele>1396.1</ele>
        <time>2024-05-26T11:46:50Z</time>
      </trkpt>
      <trkpt lat="43.74511" lon="6.67455">
        <ele>1395.9</ele>
        <time>2024-05-26T11:46:51Z</time>
      </trkpt>
      <trkpt lat="43.74512" lon="6.67456">
        <ele>1395.6</ele>
        <time>2024-05-26T11:46:52Z</time>
      </trkpt>
      <trkpt lat="43.74512" lon="6.67457">
        <ele>1395.4</ele>
        <time>2024-05-26T11:46:53Z</time>
      </trkpt>
      <trkpt lat="43.74513" lon="6.67458">
        <ele>1395.1</ele>
        <time>2024-05-26T11:46:54Z</time>
      </trkpt>
      <trkpt lat="43.74512" lon="6.67459">
        <ele>1394.8</ele>
        <time>2024-05-26T11:46:55Z</time>
      </trkpt>
      <trkpt lat="43.74513" lon="6.6746">
        <ele>1394.6</ele>
        <time>2024-05-26T11:46:56Z</time>
      </trkpt>
      <trkpt lat="43.74514" lon="6.67461">
        <ele>1394.4</ele>
        <time>2024-05-26T11:46:57Z</time>
      </trkpt>
      <trkpt lat="43.74514" lon="6.67464">
        <ele>1394.3</ele>
        <time>2024-05-26T11:46:58Z</time>
      </trkpt>
      <trkpt lat="43.74515" lon="6.67466">
        <ele>1394.1</ele>
        <time>2024-05-26T11:46:59Z</time>
      </trkpt>
      <trkpt lat="43.74515" lon="6.67466">
        <ele>1394</ele>
        <time>2024-05-26T11:47:00Z</time>
      </trkpt>
      <trkpt lat="43.74516" lon="6.67467">
        <ele>1393.9</ele>
        <time>2024-05-26T11:47:01Z</time>
      </trkpt>
      <trkpt lat="43.74516" lon="6.67468">
        <ele>1393.8</ele>
        <time>2024-05-26T11:47:02Z</time>
      </trkpt>
      <trkpt lat="43.74516" lon="6.67468">
        <ele>1393.7</ele>
        <time>2024-05-26T11:47:03Z</time>
      </trkpt>
      <trkpt lat="43.74517" lon="6.67469">
        <ele>1393.6</ele>
        <time>2024-05-26T11:47:04Z</time>
      </trkpt>
      <trkpt lat="43.74517" lon="6.6747">
        <ele>1393.4</ele>
        <time>2024-05-26T11:47:05Z</time>
      </trkpt>
      <trkpt lat="43.74518" lon="6.6747">
        <ele>1393.3</ele>
        <time>2024-05-26T11:47:06Z</time>
      </trkpt>
      <trkpt lat="43.74518" lon="6.67471">
        <ele>1393.2</ele>
        <time>2024-05-26T11:47:07Z</time>
      </trkpt>
      <trkpt lat="43.74518" lon="6.67471">
        <ele>1393</ele>
        <time>2024-05-26T11:47:08Z</time>
      </trkpt>
      <trkpt lat="43.74518" lon="6.67473">
        <ele>1393</ele>
        <time>2024-05-26T11:47:09Z</time>
      </trkpt>
      <trkpt lat="43.74519" lon="6.67473">
        <ele>1392.9</ele>
        <time>2024-05-26T11:47:10Z</time>
      </trkpt>
      <trkpt lat="43.74519" lon="6.67474">
        <ele>1392.7</ele>
        <time>2024-05-26T11:47:11Z</time>
      </trkpt>
      <trkpt lat="43.74519" lon="6.67474">
        <ele>1392.5</ele>
        <time>2024-05-26T11:47:12Z</time>
      </trkpt>
      <trkpt lat="43.7452" lon="6.67475">
        <ele>1392.3</ele>
        <time>2024-05-26T11:47:13Z</time>
      </trkpt>
      <trkpt lat="43.7452" lon="6.67475">
        <ele>1392.2</ele>
        <time>2024-05-26T11:47:14Z</time>
      </trkpt>
      <trkpt lat="43.74521" lon="6.67476">
        <ele>1392</ele>
        <time>2024-05-26T11:47:15Z</time>
      </trkpt>
      <trkpt lat="43.74521" lon="6.67477">
        <ele>1391.7</ele>
        <time>2024-05-26T11:47:16Z</time>
      </trkpt>
      <trkpt lat="43.74521" lon="6.67477">
        <ele>1391.5</ele>
        <time>2024-05-26T11:47:17Z</time>
      </trkpt>
      <trkpt lat="43.7452" lon="6.67478">
        <ele>1391.3</ele>
        <time>2024-05-26T11:47:18Z</time>
      </trkpt>
      <trkpt lat="43.7452" lon="6.67479">
        <ele>1391.2</ele>
        <time>2024-05-26T11:47:19Z</time>
      </trkpt>
      <trkpt lat="43.7452" lon="6.67479">
        <ele>1390.9</ele>
        <time>2024-05-26T11:47:20Z</time>
      </trkpt>
      <trkpt lat="43.7452" lon="6.67481">
        <ele>1390.6</ele>
        <time>2024-05-26T11:47:21Z</time>
      </trkpt>
      <trkpt lat="43.7452" lon="6.67482">
        <ele>1390.3</ele>
        <time>2024-05-26T11:47:22Z</time>
      </trkpt>
      <trkpt lat="43.74519" lon="6.67483">
        <ele>1390.1</ele>
        <time>2024-05-26T11:47:23Z</time>
      </trkpt>
      <trkpt lat="43.74518" lon="6.67485">
        <ele>1389.8</ele>
        <time>2024-05-26T11:47:24Z</time>
      </trkpt>
      <trkpt lat="43.74518" lon="6.67486">
        <ele>1389.6</ele>
        <time>2024-05-26T11:47:25Z</time>
      </trkpt>
      <trkpt lat="43.74518" lon="6.67488">
        <ele>1389.5</ele>
        <time>2024-05-26T11:47:26Z</time>
      </trkpt>
      <trkpt lat="43.74518" lon="6.67489">
        <ele>1389.3</ele>
        <time>2024-05-26T11:47:27Z</time>
      </trkpt>
      <trkpt lat="43.74518" lon="6.6749">
        <ele>1389.1</ele>
        <time>2024-05-26T11:47:28Z</time>
      </trkpt>
      <trkpt lat="43.74518" lon="6.67491">
        <ele>1388.7</ele>
        <time>2024-05-26T11:47:29Z</time>
      </trkpt>
      <trkpt lat="43.74519" lon="6.67493">
        <ele>1388.4</ele>
        <time>2024-05-26T11:47:30Z</time>
      </trkpt>
      <trkpt lat="43.74519" lon="6.67494">
        <ele>1388.2</ele>
        <time>2024-05-26T11:47:31Z</time>
      </trkpt>
      <trkpt lat="43.74519" lon="6.67494">
        <ele>1387.9</ele>
        <time>2024-05-26T11:47:32Z</time>
      </trkpt>
      <trkpt lat="43.7452" lon="6.67496">
        <ele>1387.7</ele>
        <time>2024-05-26T11:47:33Z</time>
      </trkpt>
      <trkpt lat="43.74521" lon="6.67497">
        <ele>1387.7</ele>
        <time>2024-05-26T11:47:34Z</time>
      </trkpt>
      <trkpt lat="43.74521" lon="6.67498">
        <ele>1387.6</ele>
        <time>2024-05-26T11:47:35Z</time>
      </trkpt>
      <trkpt lat="43.74522" lon="6.67499">
        <ele>1387.5</ele>
        <time>2024-05-26T11:47:36Z</time>
      </trkpt>
      <trkpt lat="43.74522" lon="6.675">
        <ele>1387.4</ele>
        <time>2024-05-26T11:47:37Z</time>
      </trkpt>
      <trkpt lat="43.74522" lon="6.67501">
        <ele>1387.3</ele>
        <time>2024-05-26T11:47:38Z</time>
      </trkpt>
      <trkpt lat="43.74522" lon="6.67501">
        <ele>1387.2</ele>
        <time>2024-05-26T11:47:39Z</time>
      </trkpt>
      <trkpt lat="43.74522" lon="6.67503">
        <ele>1387.1</ele>
        <time>2024-05-26T11:47:40Z</time>
      </trkpt>
      <trkpt lat="43.74524" lon="6.67505">
        <ele>1387</ele>
        <time>2024-05-26T11:47:41Z</time>
      </trkpt>
      <trkpt lat="43.74525" lon="6.67506">
        <ele>1387</ele>
        <time>2024-05-26T11:47:42Z</time>
      </trkpt>
      <trkpt lat="43.74526" lon="6.67507">
        <ele>1386.9</ele>
        <time>2024-05-26T11:47:43Z</time>
      </trkpt>
      <trkpt lat="43.74527" lon="6.67508">
        <ele>1386.8</ele>
        <time>2024-05-26T11:47:44Z</time>
      </trkpt>
      <trkpt lat="43.74527" lon="6.67508">
        <ele>1386.6</ele>
        <time>2024-05-26T11:47:45Z</time>
      </trkpt>
      <trkpt lat="43.74528" lon="6.67508">
        <ele>1386.5</ele>
        <time>2024-05-26T11:47:46Z</time>
      </trkpt>
      <trkpt lat="43.74527" lon="6.67509">
        <ele>1386.3</ele>
        <time>2024-05-26T11:47:47Z</time>
      </trkpt>
      <trkpt lat="43.74527" lon="6.6751">
        <ele>1386.2</ele>
        <time>2024-05-26T11:47:48Z</time>
      </trkpt>
      <trkpt lat="43.74527" lon="6.67511">
        <ele>1386</ele>
        <time>2024-05-26T11:47:49Z</time>
      </trkpt>
      <trkpt lat="43.74527" lon="6.67512">
        <ele>1385.7</ele>
        <time>2024-05-26T11:47:50Z</time>
      </trkpt>
      <trkpt lat="43.74526" lon="6.67512">
        <ele>1385.5</ele>
        <time>2024-05-26T11:47:51Z</time>
      </trkpt>
      <trkpt lat="43.74525" lon="6.67513">
        <ele>1385.3</ele>
        <time>2024-05-26T11:47:52Z</time>
      </trkpt>
      <trkpt lat="43.74525" lon="6.67513">
        <ele>1385.2</ele>
        <time>2024-05-26T11:47:53Z</time>
      </trkpt>
      <trkpt lat="43.74524" lon="6.67514">
        <ele>1385</ele>
        <time>2024-05-26T11:47:54Z</time>
      </trkpt>
      <trkpt lat="43.74524" lon="6.67514">
        <ele>1384.9</ele>
        <time>2024-05-26T11:47:55Z</time>
      </trkpt>
      <trkpt lat="43.74525" lon="6.67514">
        <ele>1384.8</ele>
        <time>2024-05-26T11:47:56Z</time>
      </trkpt>
      <trkpt lat="43.74525" lon="6.67515">
        <ele>1384.7</ele>
        <time>2024-05-26T11:47:57Z</time>
      </trkpt>
      <trkpt lat="43.74525" lon="6.67515">
        <ele>1384.4</ele>
        <time>2024-05-26T11:47:58Z</time>
      </trkpt>
      <trkpt lat="43.74526" lon="6.67515">
        <ele>1384.2</ele>
        <time>2024-05-26T11:47:59Z</time>
      </trkpt>
      <trkpt lat="43.74526" lon="6.67517">
        <ele>1384</ele>
        <time>2024-05-26T11:48:00Z</time>
      </trkpt>
      <trkpt lat="43.74526" lon="6.67517">
        <ele>1383.8</ele>
        <time>2024-05-26T11:48:01Z</time>
      </trkpt>
      <trkpt lat="43.74526" lon="6.67518">
        <ele>1383.6</ele>
        <time>2024-05-26T11:48:02Z</time>
      </trkpt>
      <trkpt lat="43.74526" lon="6.67519">
        <ele>1383.4</ele>
        <time>2024-05-26T11:48:03Z</time>
      </trkpt>
      <trkpt lat="43.74526" lon="6.6752">
        <ele>1383.3</ele>
        <time>2024-05-26T11:48:04Z</time>
      </trkpt>
      <trkpt lat="43.74526" lon="6.67521">
        <ele>1383.1</ele>
        <time>2024-05-26T11:48:05Z</time>
      </trkpt>
      <trkpt lat="43.74527" lon="6.67521">
        <ele>1382.8</ele>
        <time>2024-05-26T11:48:06Z</time>
      </trkpt>
      <trkpt lat="43.74527" lon="6.67524">
        <ele>1382.6</ele>
        <time>2024-05-26T11:48:07Z</time>
      </trkpt>
      <trkpt lat="43.74527" lon="6.67524">
        <ele>1382.5</ele>
        <time>2024-05-26T11:48:08Z</time>
      </trkpt>
      <trkpt lat="43.74527" lon="6.67525">
        <ele>1382.2</ele>
        <time>2024-05-26T11:48:09Z</time>
      </trkpt>
      <trkpt lat="43.74527" lon="6.67525">
        <ele>1382.1</ele>
        <time>2024-05-26T11:48:10Z</time>
      </trkpt>
      <trkpt lat="43.74527" lon="6.67526">
        <ele>1382</ele>
        <time>2024-05-26T11:48:11Z</time>
      </trkpt>
      <trkpt lat="43.74527" lon="6.67527">
        <ele>1381.8</ele>
        <time>2024-05-26T11:48:12Z</time>
      </trkpt>
      <trkpt lat="43.74527" lon="6.67529">
        <ele>1381.6</ele>
        <time>2024-05-26T11:48:13Z</time>
      </trkpt>
      <trkpt lat="43.74527" lon="6.6753">
        <ele>1381.5</ele>
        <time>2024-05-26T11:48:14Z</time>
      </trkpt>
      <trkpt lat="43.74528" lon="6.6753">
        <ele>1381.2</ele>
        <time>2024-05-26T11:48:15Z</time>
      </trkpt>
      <trkpt lat="43.74528" lon="6.67531">
        <ele>1381.1</ele>
        <time>2024-05-26T11:48:16Z</time>
      </trkpt>
      <trkpt lat="43.74528" lon="6.67531">
        <ele>1380.9</ele>
        <time>2024-05-26T11:48:17Z</time>
      </trkpt>
      <trkpt lat="43.74528" lon="6.67532">
        <ele>1380.7</ele>
        <time>2024-05-26T11:48:18Z</time>
      </trkpt>
      <trkpt lat="43.74529" lon="6.67532">
        <ele>1380.6</ele>
        <time>2024-05-26T11:48:19Z</time>
      </trkpt>
      <trkpt lat="43.74528" lon="6.67534">
        <ele>1380.5</ele>
        <time>2024-05-26T11:48:20Z</time>
      </trkpt>
      <trkpt lat="43.74528" lon="6.67535">
        <ele>1380.3</ele>
        <time>2024-05-26T11:48:21Z</time>
      </trkpt>
      <trkpt lat="43.74529" lon="6.67535">
        <ele>1380.2</ele>
        <time>2024-05-26T11:48:22Z</time>
      </trkpt>
      <trkpt lat="43.74529" lon="6.67536">
        <ele>1380.2</ele>
        <time>2024-05-26T11:48:23Z</time>
      </trkpt>
      <trkpt lat="43.74529" lon="6.67536">
        <ele>1380</ele>
        <time>2024-05-26T11:48:24Z</time>
      </trkpt>
      <trkpt lat="43.74529" lon="6.67536">
        <ele>1379.8</ele>
        <time>2024-05-26T11:48:25Z</time>
      </trkpt>
      <trkpt lat="43.74529" lon="6.67536">
        <ele>1379.7</ele>
        <time>2024-05-26T11:48:26Z</time>
      </trkpt>
      <trkpt lat="43.74529" lon="6.67537">
        <ele>1379.6</ele>
        <time>2024-05-26T11:48:27Z</time>
      </trkpt>
      <trkpt lat="43.74529" lon="6.67537">
        <ele>1379.5</ele>
        <time>2024-05-26T11:48:28Z</time>
      </trkpt>
      <trkpt lat="43.7453" lon="6.67538">
        <ele>1379.4</ele>
        <time>2024-05-26T11:48:29Z</time>
      </trkpt>
      <trkpt lat="43.7453" lon="6.67539">
        <ele>1379.3</ele>
        <time>2024-05-26T11:48:30Z</time>
      </trkpt>
      <trkpt lat="43.7453" lon="6.6754">
        <ele>1379.2</ele>
        <time>2024-05-26T11:48:31Z</time>
      </trkpt>
      <trkpt lat="43.74531" lon="6.6754">
        <ele>1379</ele>
        <time>2024-05-26T11:48:32Z</time>
      </trkpt>
      <trkpt lat="43.74531" lon="6.6754">
        <ele>1378.8</ele>
        <time>2024-05-26T11:48:33Z</time>
      </trkpt>
      <trkpt lat="43.74531" lon="6.6754">
        <ele>1378.6</ele>
        <time>2024-05-26T11:48:34Z</time>
      </trkpt>
      <trkpt lat="43.74532" lon="6.67541">
        <ele>1378.5</ele>
        <time>2024-05-26T11:48:35Z</time>
      </trkpt>
      <trkpt lat="43.74532" lon="6.67541">
        <ele>1378.4</ele>
        <time>2024-05-26T11:48:36Z</time>
      </trkpt>
      <trkpt lat="43.74532" lon="6.67542">
        <ele>1378.3</ele>
        <time>2024-05-26T11:48:37Z</time>
      </trkpt>
      <trkpt lat="43.74532" lon="6.67543">
        <ele>1378.2</ele>
        <time>2024-05-26T11:48:38Z</time>
      </trkpt>
      <trkpt lat="43.74533" lon="6.67544">
        <ele>1378.1</ele>
        <time>2024-05-26T11:48:39Z</time>
      </trkpt>
      <trkpt lat="43.74533" lon="6.67544">
        <ele>1378</ele>
        <time>2024-05-26T11:48:40Z</time>
      </trkpt>
      <trkpt lat="43.74533" lon="6.67545">
        <ele>1378</ele>
        <time>2024-05-26T11:48:41Z</time>
      </trkpt>
      <trkpt lat="43.74533" lon="6.67546">
        <ele>1377.8</ele>
        <time>2024-05-26T11:48:42Z</time>
      </trkpt>
      <trkpt lat="43.74532" lon="6.67547">
        <ele>1377.6</ele>
        <time>2024-05-26T11:48:43Z</time>
      </trkpt>
      <trkpt lat="43.74533" lon="6.67548">
        <ele>1377.3</ele>
        <time>2024-05-26T11:48:44Z</time>
      </trkpt>
      <trkpt lat="43.74533" lon="6.67549">
        <ele>1377.2</ele>
        <time>2024-05-26T11:48:45Z</time>
      </trkpt>
      <trkpt lat="43.74533" lon="6.67549">
        <ele>1377.1</ele>
        <time>2024-05-26T11:48:46Z</time>
      </trkpt>
      <trkpt lat="43.74534" lon="6.6755">
        <ele>1377</ele>
        <time>2024-05-26T11:48:47Z</time>
      </trkpt>
      <trkpt lat="43.74534" lon="6.6755">
        <ele>1376.8</ele>
        <time>2024-05-26T11:48:48Z</time>
      </trkpt>
      <trkpt lat="43.74534" lon="6.67551">
        <ele>1376.7</ele>
        <time>2024-05-26T11:48:49Z</time>
      </trkpt>
      <trkpt lat="43.74534" lon="6.67552">
        <ele>1376.5</ele>
        <time>2024-05-26T11:48:50Z</time>
      </trkpt>
      <trkpt lat="43.74534" lon="6.67553">
        <ele>1376.4</ele>
        <time>2024-05-26T11:48:51Z</time>
      </trkpt>
      <trkpt lat="43.74533" lon="6.67554">
        <ele>1376.3</ele>
        <time>2024-05-26T11:48:52Z</time>
      </trkpt>
      <trkpt lat="43.74533" lon="6.67555">
        <ele>1376.2</ele>
        <time>2024-05-26T11:48:53Z</time>
      </trkpt>
      <trkpt lat="43.74534" lon="6.67555">
        <ele>1376.1</ele>
        <time>2024-05-26T11:48:54Z</time>
      </trkpt>
      <trkpt lat="43.74534" lon="6.67555">
        <ele>1376</ele>
        <time>2024-05-26T11:48:55Z</time>
      </trkpt>
      <trkpt lat="43.74534" lon="6.67556">
        <ele>1375.7</ele>
        <time>2024-05-26T11:48:56Z</time>
      </trkpt>
      <trkpt lat="43.74534" lon="6.67557">
        <ele>1375.5</ele>
        <time>2024-05-26T11:48:57Z</time>
      </trkpt>
      <trkpt lat="43.74534" lon="6.67559">
        <ele>1375.3</ele>
        <time>2024-05-26T11:48:58Z</time>
      </trkpt>
      <trkpt lat="43.74534" lon="6.67559">
        <ele>1375.2</ele>
        <time>2024-05-26T11:48:59Z</time>
      </trkpt>
      <trkpt lat="43.74535" lon="6.67559">
        <ele>1375.1</ele>
        <time>2024-05-26T11:49:00Z</time>
      </trkpt>
      <trkpt lat="43.74534" lon="6.6756">
        <ele>1374.9</ele>
        <time>2024-05-26T11:49:01Z</time>
      </trkpt>
      <trkpt lat="43.74534" lon="6.6756">
        <ele>1374.8</ele>
        <time>2024-05-26T11:49:02Z</time>
      </trkpt>
      <trkpt lat="43.74534" lon="6.6756">
        <ele>1374.6</ele>
        <time>2024-05-26T11:49:03Z</time>
      </trkpt>
      <trkpt lat="43.74535" lon="6.67561">
        <ele>1374.5</ele>
        <time>2024-05-26T11:49:04Z</time>
      </trkpt>
      <trkpt lat="43.74535" lon="6.67562">
        <ele>1374.3</ele>
        <time>2024-05-26T11:49:05Z</time>
      </trkpt>
      <trkpt lat="43.74535" lon="6.67564">
        <ele>1374.2</ele>
        <time>2024-05-26T11:49:06Z</time>
      </trkpt>
      <trkpt lat="43.74535" lon="6.67565">
        <ele>1374</ele>
        <time>2024-05-26T11:49:07Z</time>
      </trkpt>
      <trkpt lat="43.74535" lon="6.67566">
        <ele>1373.8</ele>
        <time>2024-05-26T11:49:08Z</time>
      </trkpt>
      <trkpt lat="43.74535" lon="6.67566">
        <ele>1373.8</ele>
        <time>2024-05-26T11:49:09Z</time>
      </trkpt>
      <trkpt lat="43.74535" lon="6.67567">
        <ele>1373.6</ele>
        <time>2024-05-26T11:49:10Z</time>
      </trkpt>
      <trkpt lat="43.74535" lon="6.67569">
        <ele>1373.4</ele>
        <time>2024-05-26T11:49:11Z</time>
      </trkpt>
      <trkpt lat="43.74534" lon="6.6757">
        <ele>1373.3</ele>
        <time>2024-05-26T11:49:12Z</time>
      </trkpt>
      <trkpt lat="43.74533" lon="6.67571">
        <ele>1373.2</ele>
        <time>2024-05-26T11:49:13Z</time>
      </trkpt>
      <trkpt lat="43.74533" lon="6.67571">
        <ele>1373.1</ele>
        <time>2024-05-26T11:49:14Z</time>
      </trkpt>
      <trkpt lat="43.74532" lon="6.67573">
        <ele>1372.9</ele>
        <time>2024-05-26T11:49:15Z</time>
      </trkpt>
      <trkpt lat="43.74532" lon="6.67574">
        <ele>1372.8</ele>
        <time>2024-05-26T11:49:16Z</time>
      </trkpt>
      <trkpt lat="43.74532" lon="6.67574">
        <ele>1372.7</ele>
        <time>2024-05-26T11:49:17Z</time>
      </trkpt>
      <trkpt lat="43.74531" lon="6.67575">
        <ele>1372.6</ele>
        <time>2024-05-26T11:49:18Z</time>
      </trkpt>
      <trkpt lat="43.74531" lon="6.67576">
        <ele>1372.5</ele>
        <time>2024-05-26T11:49:19Z</time>
      </trkpt>
      <trkpt lat="43.74531" lon="6.67576">
        <ele>1372.4</ele>
        <time>2024-05-26T11:49:20Z</time>
      </trkpt>
      <trkpt lat="43.74531" lon="6.67577">
        <ele>1372.3</ele>
        <time>2024-05-26T11:49:21Z</time>
      </trkpt>
      <trkpt lat="43.74531" lon="6.67578">
        <ele>1372.2</ele>
        <time>2024-05-26T11:49:22Z</time>
      </trkpt>
      <trkpt lat="43.74531" lon="6.6758">
        <ele>1372.1</ele>
        <time>2024-05-26T11:49:23Z</time>
      </trkpt>
      <trkpt lat="43.74531" lon="6.6758">
        <ele>1372</ele>
        <time>2024-05-26T11:49:24Z</time>
      </trkpt>
      <trkpt lat="43.74531" lon="6.67581">
        <ele>1371.8</ele>
        <time>2024-05-26T11:49:25Z</time>
      </trkpt>
      <trkpt lat="43.7453" lon="6.67582">
        <ele>1371.7</ele>
        <time>2024-05-26T11:49:26Z</time>
      </trkpt>
      <trkpt lat="43.7453" lon="6.67583">
        <ele>1371.5</ele>
        <time>2024-05-26T11:49:27Z</time>
      </trkpt>
      <trkpt lat="43.7453" lon="6.67584">
        <ele>1371.4</ele>
        <time>2024-05-26T11:49:28Z</time>
      </trkpt>
      <trkpt lat="43.74529" lon="6.67584">
        <ele>1371.3</ele>
        <time>2024-05-26T11:49:29Z</time>
      </trkpt>
      <trkpt lat="43.74529" lon="6.67584">
        <ele>1371.2</ele>
        <time>2024-05-26T11:49:30Z</time>
      </trkpt>
      <trkpt lat="43.7453" lon="6.67585">
        <ele>1371.1</ele>
        <time>2024-05-26T11:49:31Z</time>
      </trkpt>
      <trkpt lat="43.74529" lon="6.67586">
        <ele>1371</ele>
        <time>2024-05-26T11:49:32Z</time>
      </trkpt>
      <trkpt lat="43.74529" lon="6.67587">
        <ele>1370.9</ele>
        <time>2024-05-26T11:49:33Z</time>
      </trkpt>
      <trkpt lat="43.74529" lon="6.67588">
        <ele>1370.8</ele>
        <time>2024-05-26T11:49:34Z</time>
      </trkpt>
      <trkpt lat="43.74528" lon="6.67589">
        <ele>1370.7</ele>
        <time>2024-05-26T11:49:35Z</time>
      </trkpt>
      <trkpt lat="43.74527" lon="6.6759">
        <ele>1370.9</ele>
        <time>2024-05-26T11:49:36Z</time>
      </trkpt>
      <trkpt lat="43.74526" lon="6.67591">
        <ele>1370.8</ele>
        <time>2024-05-26T11:49:37Z</time>
      </trkpt>
      <trkpt lat="43.74526" lon="6.67592">
        <ele>1370.7</ele>
        <time>2024-05-26T11:49:38Z</time>
      </trkpt>
      <trkpt lat="43.74526" lon="6.67593">
        <ele>1370.5</ele>
        <time>2024-05-26T11:49:39Z</time>
      </trkpt>
      <trkpt lat="43.74526" lon="6.67595">
        <ele>1370.4</ele>
        <time>2024-05-26T11:49:40Z</time>
      </trkpt>
      <trkpt lat="43.74525" lon="6.67597">
        <ele>1370.2</ele>
        <time>2024-05-26T11:49:41Z</time>
      </trkpt>
      <trkpt lat="43.74524" lon="6.67598">
        <ele>1370.1</ele>
        <time>2024-05-26T11:49:42Z</time>
      </trkpt>
      <trkpt lat="43.74524" lon="6.676">
        <ele>1370</ele>
        <time>2024-05-26T11:49:43Z</time>
      </trkpt>
      <trkpt lat="43.74522" lon="6.67601">
        <ele>1369.8</ele>
        <time>2024-05-26T11:49:44Z</time>
      </trkpt>
      <trkpt lat="43.74521" lon="6.67602">
        <ele>1369.6</ele>
        <time>2024-05-26T11:49:45Z</time>
      </trkpt>
      <trkpt lat="43.74521" lon="6.67603">
        <ele>1369.4</ele>
        <time>2024-05-26T11:49:46Z</time>
      </trkpt>
      <trkpt lat="43.7452" lon="6.67603">
        <ele>1369.2</ele>
        <time>2024-05-26T11:49:47Z</time>
      </trkpt>
      <trkpt lat="43.74519" lon="6.67605">
        <ele>1369</ele>
        <time>2024-05-26T11:49:48Z</time>
      </trkpt>
      <trkpt lat="43.74518" lon="6.67607">
        <ele>1368.9</ele>
        <time>2024-05-26T11:49:49Z</time>
      </trkpt>
      <trkpt lat="43.74517" lon="6.67608">
        <ele>1368.9</ele>
        <time>2024-05-26T11:49:50Z</time>
      </trkpt>
      <trkpt lat="43.74517" lon="6.67609">
        <ele>1368.8</ele>
        <time>2024-05-26T11:49:51Z</time>
      </trkpt>
      <trkpt lat="43.74516" lon="6.6761">
        <ele>1368.8</ele>
        <time>2024-05-26T11:49:52Z</time>
      </trkpt>
      <trkpt lat="43.74515" lon="6.6761">
        <ele>1368.6</ele>
        <time>2024-05-26T11:49:53Z</time>
      </trkpt>
      <trkpt lat="43.74515" lon="6.6761">
        <ele>1368.6</ele>
        <time>2024-05-26T11:49:54Z</time>
      </trkpt>
      <trkpt lat="43.74514" lon="6.67611">
        <ele>1368.5</ele>
        <time>2024-05-26T11:49:55Z</time>
      </trkpt>
      <trkpt lat="43.74514" lon="6.67611">
        <ele>1368.4</ele>
        <time>2024-05-26T11:49:56Z</time>
      </trkpt>
      <trkpt lat="43.74514" lon="6.67612">
        <ele>1368.3</ele>
        <time>2024-05-26T11:49:57Z</time>
      </trkpt>
      <trkpt lat="43.74513" lon="6.67613">
        <ele>1368.1</ele>
        <time>2024-05-26T11:49:58Z</time>
      </trkpt>
      <trkpt lat="43.74513" lon="6.67614">
        <ele>1368</ele>
        <time>2024-05-26T11:49:59Z</time>
      </trkpt>
      <trkpt lat="43.74513" lon="6.67615">
        <ele>1367.9</ele>
        <time>2024-05-26T11:50:00Z</time>
      </trkpt>
      <trkpt lat="43.74512" lon="6.67616">
        <ele>1367.7</ele>
        <time>2024-05-26T11:50:01Z</time>
      </trkpt>
      <trkpt lat="43.74512" lon="6.67616">
        <ele>1367.6</ele>
        <time>2024-05-26T11:50:02Z</time>
      </trkpt>
      <trkpt lat="43.74512" lon="6.67617">
        <ele>1367.5</ele>
        <time>2024-05-26T11:50:03Z</time>
      </trkpt>
      <trkpt lat="43.74512" lon="6.67618">
        <ele>1367.3</ele>
        <time>2024-05-26T11:50:04Z</time>
      </trkpt>
      <trkpt lat="43.74512" lon="6.67618">
        <ele>1367.2</ele>
        <time>2024-05-26T11:50:05Z</time>
      </trkpt>
      <trkpt lat="43.74511" lon="6.67619">
        <ele>1367.1</ele>
        <time>2024-05-26T11:50:06Z</time>
      </trkpt>
      <trkpt lat="43.74511" lon="6.6762">
        <ele>1367</ele>
        <time>2024-05-26T11:50:07Z</time>
      </trkpt>
      <trkpt lat="43.74511" lon="6.67621">
        <ele>1366.9</ele>
        <time>2024-05-26T11:50:08Z</time>
      </trkpt>
      <trkpt lat="43.7451" lon="6.67622">
        <ele>1366.8</ele>
        <time>2024-05-26T11:50:09Z</time>
      </trkpt>
      <trkpt lat="43.7451" lon="6.67624">
        <ele>1366.7</ele>
        <time>2024-05-26T11:50:10Z</time>
      </trkpt>
      <trkpt lat="43.74509" lon="6.67625">
        <ele>1366.5</ele>
        <time>2024-05-26T11:50:11Z</time>
      </trkpt>
      <trkpt lat="43.74508" lon="6.67626">
        <ele>1366.3</ele>
        <time>2024-05-26T11:50:12Z</time>
      </trkpt>
      <trkpt lat="43.74508" lon="6.67628">
        <ele>1366.2</ele>
        <time>2024-05-26T11:50:13Z</time>
      </trkpt>
      <trkpt lat="43.74509" lon="6.67629">
        <ele>1366</ele>
        <time>2024-05-26T11:50:14Z</time>
      </trkpt>
      <trkpt lat="43.74509" lon="6.6763">
        <ele>1365.9</ele>
        <time>2024-05-26T11:50:15Z</time>
      </trkpt>
      <trkpt lat="43.74508" lon="6.67631">
        <ele>1365.7</ele>
        <time>2024-05-26T11:50:16Z</time>
      </trkpt>
      <trkpt lat="43.74508" lon="6.67632">
        <ele>1365.5</ele>
        <time>2024-05-26T11:50:17Z</time>
      </trkpt>
      <trkpt lat="43.74507" lon="6.67633">
        <ele>1365.4</ele>
        <time>2024-05-26T11:50:18Z</time>
      </trkpt>
      <trkpt lat="43.74507" lon="6.67634">
        <ele>1365.3</ele>
        <time>2024-05-26T11:50:19Z</time>
      </trkpt>
      <trkpt lat="43.74506" lon="6.67635">
        <ele>1365.1</ele>
        <time>2024-05-26T11:50:20Z</time>
      </trkpt>
      <trkpt lat="43.74506" lon="6.67636">
        <ele>1364.9</ele>
        <time>2024-05-26T11:50:21Z</time>
      </trkpt>
      <trkpt lat="43.74505" lon="6.67637">
        <ele>1364.7</ele>
        <time>2024-05-26T11:50:22Z</time>
      </trkpt>
      <trkpt lat="43.74505" lon="6.67637">
        <ele>1364.6</ele>
        <time>2024-05-26T11:50:23Z</time>
      </trkpt>
      <trkpt lat="43.74504" lon="6.67638">
        <ele>1364.5</ele>
        <time>2024-05-26T11:50:24Z</time>
      </trkpt>
      <trkpt lat="43.74504" lon="6.67639">
        <ele>1364.4</ele>
        <time>2024-05-26T11:50:25Z</time>
      </trkpt>
      <trkpt lat="43.74503" lon="6.6764">
        <ele>1364.3</ele>
        <time>2024-05-26T11:50:26Z</time>
      </trkpt>
      <trkpt lat="43.74503" lon="6.67641">
        <ele>1364</ele>
        <time>2024-05-26T11:50:27Z</time>
      </trkpt>
      <trkpt lat="43.74502" lon="6.67643">
        <ele>1363.8</ele>
        <time>2024-05-26T11:50:28Z</time>
      </trkpt>
      <trkpt lat="43.74502" lon="6.67645">
        <ele>1363.6</ele>
        <time>2024-05-26T11:50:29Z</time>
      </trkpt>
      <trkpt lat="43.74501" lon="6.67647">
        <ele>1363.5</ele>
        <time>2024-05-26T11:50:30Z</time>
      </trkpt>
      <trkpt lat="43.745" lon="6.67648">
        <ele>1363.4</ele>
        <time>2024-05-26T11:50:31Z</time>
      </trkpt>
      <trkpt lat="43.745" lon="6.67649">
        <ele>1363.2</ele>
        <time>2024-05-26T11:50:32Z</time>
      </trkpt>
      <trkpt lat="43.74499" lon="6.67649">
        <ele>1363.1</ele>
        <time>2024-05-26T11:50:33Z</time>
      </trkpt>
      <trkpt lat="43.74498" lon="6.6765">
        <ele>1362.9</ele>
        <time>2024-05-26T11:50:34Z</time>
      </trkpt>
      <trkpt lat="43.74498" lon="6.67652">
        <ele>1362.7</ele>
        <time>2024-05-26T11:50:35Z</time>
      </trkpt>
      <trkpt lat="43.74497" lon="6.67654">
        <ele>1362.5</ele>
        <time>2024-05-26T11:50:36Z</time>
      </trkpt>
      <trkpt lat="43.74497" lon="6.67655">
        <ele>1362.3</ele>
        <time>2024-05-26T11:50:37Z</time>
      </trkpt>
      <trkpt lat="43.74496" lon="6.67656">
        <ele>1362.1</ele>
        <time>2024-05-26T11:50:38Z</time>
      </trkpt>
      <trkpt lat="43.74495" lon="6.67657">
        <ele>1361.9</ele>
        <time>2024-05-26T11:50:39Z</time>
      </trkpt>
      <trkpt lat="43.74494" lon="6.67658">
        <ele>1361.8</ele>
        <time>2024-05-26T11:50:40Z</time>
      </trkpt>
      <trkpt lat="43.74494" lon="6.67659">
        <ele>1361.6</ele>
        <time>2024-05-26T11:50:41Z</time>
      </trkpt>
      <trkpt lat="43.74493" lon="6.6766">
        <ele>1361.4</ele>
        <time>2024-05-26T11:50:42Z</time>
      </trkpt>
      <trkpt lat="43.74493" lon="6.6766">
        <ele>1361.2</ele>
        <time>2024-05-26T11:50:43Z</time>
      </trkpt>
      <trkpt lat="43.74492" lon="6.67661">
        <ele>1361.1</ele>
        <time>2024-05-26T11:50:44Z</time>
      </trkpt>
      <trkpt lat="43.74492" lon="6.67662">
        <ele>1360.9</ele>
        <time>2024-05-26T11:50:45Z</time>
      </trkpt>
      <trkpt lat="43.74491" lon="6.67664">
        <ele>1360.6</ele>
        <time>2024-05-26T11:50:46Z</time>
      </trkpt>
      <trkpt lat="43.74491" lon="6.67664">
        <ele>1360.6</ele>
        <time>2024-05-26T11:50:47Z</time>
      </trkpt>
      <trkpt lat="43.74491" lon="6.67665">
        <ele>1360.4</ele>
        <time>2024-05-26T11:50:48Z</time>
      </trkpt>
      <trkpt lat="43.7449" lon="6.67666">
        <ele>1360.2</ele>
        <time>2024-05-26T11:50:49Z</time>
      </trkpt>
      <trkpt lat="43.74489" lon="6.67668">
        <ele>1360</ele>
        <time>2024-05-26T11:50:50Z</time>
      </trkpt>
      <trkpt lat="43.74488" lon="6.67668">
        <ele>1359.8</ele>
        <time>2024-05-26T11:50:51Z</time>
      </trkpt>
      <trkpt lat="43.74488" lon="6.6767">
        <ele>1359.6</ele>
        <time>2024-05-26T11:50:52Z</time>
      </trkpt>
      <trkpt lat="43.74487" lon="6.67671">
        <ele>1359.4</ele>
        <time>2024-05-26T11:50:53Z</time>
      </trkpt>
      <trkpt lat="43.74486" lon="6.67673">
        <ele>1359.2</ele>
        <time>2024-05-26T11:50:54Z</time>
      </trkpt>
      <trkpt lat="43.74486" lon="6.67673">
        <ele>1359</ele>
        <time>2024-05-26T11:50:55Z</time>
      </trkpt>
      <trkpt lat="43.74485" lon="6.67674">
        <ele>1358.8</ele>
        <time>2024-05-26T11:50:56Z</time>
      </trkpt>
      <trkpt lat="43.74484" lon="6.67675">
        <ele>1358.7</ele>
        <time>2024-05-26T11:50:57Z</time>
      </trkpt>
      <trkpt lat="43.74484" lon="6.67676">
        <ele>1358.6</ele>
        <time>2024-05-26T11:50:58Z</time>
      </trkpt>
      <trkpt lat="43.74483" lon="6.67678">
        <ele>1358.4</ele>
        <time>2024-05-26T11:50:59Z</time>
      </trkpt>
      <trkpt lat="43.74482" lon="6.67679">
        <ele>1358.2</ele>
        <time>2024-05-26T11:51:00Z</time>
      </trkpt>
      <trkpt lat="43.74481" lon="6.67681">
        <ele>1358.2</ele>
        <time>2024-05-26T11:51:01Z</time>
      </trkpt>
      <trkpt lat="43.74478" lon="6.67681">
        <ele>1358.1</ele>
        <time>2024-05-26T11:51:02Z</time>
      </trkpt>
      <trkpt lat="43.74477" lon="6.67682">
        <ele>1358.1</ele>
        <time>2024-05-26T11:51:03Z</time>
      </trkpt>
      <trkpt lat="43.74476" lon="6.67683">
        <ele>1357.9</ele>
        <time>2024-05-26T11:51:04Z</time>
      </trkpt>
      <trkpt lat="43.74476" lon="6.67684">
        <ele>1357.7</ele>
        <time>2024-05-26T11:51:05Z</time>
      </trkpt>
      <trkpt lat="43.74476" lon="6.67686">
        <ele>1357.4</ele>
        <time>2024-05-26T11:51:06Z</time>
      </trkpt>
      <trkpt lat="43.74476" lon="6.67686">
        <ele>1357.2</ele>
        <time>2024-05-26T11:51:07Z</time>
      </trkpt>
      <trkpt lat="43.74475" lon="6.67687">
        <ele>1357</ele>
        <time>2024-05-26T11:51:08Z</time>
      </trkpt>
      <trkpt lat="43.74475" lon="6.67688">
        <ele>1356.9</ele>
        <time>2024-05-26T11:51:09Z</time>
      </trkpt>
      <trkpt lat="43.74475" lon="6.6769">
        <ele>1356.8</ele>
        <time>2024-05-26T11:51:10Z</time>
      </trkpt>
      <trkpt lat="43.74475" lon="6.6769">
        <ele>1356.5</ele>
        <time>2024-05-26T11:51:11Z</time>
      </trkpt>
      <trkpt lat="43.74474" lon="6.67692">
        <ele>1356.3</ele>
        <time>2024-05-26T11:51:12Z</time>
      </trkpt>
      <trkpt lat="43.74473" lon="6.67693">
        <ele>1356.2</ele>
        <time>2024-05-26T11:51:13Z</time>
      </trkpt>
      <trkpt lat="43.74472" lon="6.67694">
        <ele>1356</ele>
        <time>2024-05-26T11:51:14Z</time>
      </trkpt>
      <trkpt lat="43.74472" lon="6.67694">
        <ele>1355.8</ele>
        <time>2024-05-26T11:51:15Z</time>
      </trkpt>
      <trkpt lat="43.74472" lon="6.67695">
        <ele>1355.5</ele>
        <time>2024-05-26T11:51:16Z</time>
      </trkpt>
      <trkpt lat="43.74471" lon="6.67696">
        <ele>1355.4</ele>
        <time>2024-05-26T11:51:17Z</time>
      </trkpt>
      <trkpt lat="43.74471" lon="6.67697">
        <ele>1355.2</ele>
        <time>2024-05-26T11:51:18Z</time>
      </trkpt>
      <trkpt lat="43.7447" lon="6.67699">
        <ele>1355.1</ele>
        <time>2024-05-26T11:51:19Z</time>
      </trkpt>
      <trkpt lat="43.7447" lon="6.67699">
        <ele>1355</ele>
        <time>2024-05-26T11:51:20Z</time>
      </trkpt>
      <trkpt lat="43.74469" lon="6.677">
        <ele>1354.8</ele>
        <time>2024-05-26T11:51:21Z</time>
      </trkpt>
      <trkpt lat="43.74469" lon="6.67701">
        <ele>1354.6</ele>
        <time>2024-05-26T11:51:22Z</time>
      </trkpt>
      <trkpt lat="43.74467" lon="6.67702">
        <ele>1354.4</ele>
        <time>2024-05-26T11:51:23Z</time>
      </trkpt>
      <trkpt lat="43.74466" lon="6.67702">
        <ele>1354.3</ele>
        <time>2024-05-26T11:51:24Z</time>
      </trkpt>
      <trkpt lat="43.74466" lon="6.67703">
        <ele>1354.2</ele>
        <time>2024-05-26T11:51:25Z</time>
      </trkpt>
      <trkpt lat="43.74465" lon="6.67704">
        <ele>1354.1</ele>
        <time>2024-05-26T11:51:26Z</time>
      </trkpt>
      <trkpt lat="43.74465" lon="6.67704">
        <ele>1353.9</ele>
        <time>2024-05-26T11:51:27Z</time>
      </trkpt>
      <trkpt lat="43.74464" lon="6.67705">
        <ele>1353.8</ele>
        <time>2024-05-26T11:51:28Z</time>
      </trkpt>
      <trkpt lat="43.74464" lon="6.67705">
        <ele>1353.5</ele>
        <time>2024-05-26T11:51:29Z</time>
      </trkpt>
      <trkpt lat="43.74463" lon="6.67706">
        <ele>1353.3</ele>
        <time>2024-05-26T11:51:30Z</time>
      </trkpt>
      <trkpt lat="43.74463" lon="6.67707">
        <ele>1353.1</ele>
        <time>2024-05-26T11:51:31Z</time>
      </trkpt>
      <trkpt lat="43.74462" lon="6.67709">
        <ele>1353</ele>
        <time>2024-05-26T11:51:32Z</time>
      </trkpt>
      <trkpt lat="43.74462" lon="6.6771">
        <ele>1352.9</ele>
        <time>2024-05-26T11:51:33Z</time>
      </trkpt>
      <trkpt lat="43.74462" lon="6.67711">
        <ele>1352.7</ele>
        <time>2024-05-26T11:51:34Z</time>
      </trkpt>
      <trkpt lat="43.74462" lon="6.67712">
        <ele>1352.5</ele>
        <time>2024-05-26T11:51:35Z</time>
      </trkpt>
      <trkpt lat="43.74461" lon="6.67712">
        <ele>1352.4</ele>
        <time>2024-05-26T11:51:36Z</time>
      </trkpt>
      <trkpt lat="43.74461" lon="6.67713">
        <ele>1352.2</ele>
        <time>2024-05-26T11:51:37Z</time>
      </trkpt>
      <trkpt lat="43.7446" lon="6.67714">
        <ele>1352</ele>
        <time>2024-05-26T11:51:38Z</time>
      </trkpt>
      <trkpt lat="43.7446" lon="6.67715">
        <ele>1351.8</ele>
        <time>2024-05-26T11:51:39Z</time>
      </trkpt>
      <trkpt lat="43.7446" lon="6.67716">
        <ele>1351.6</ele>
        <time>2024-05-26T11:51:40Z</time>
      </trkpt>
      <trkpt lat="43.7446" lon="6.67718">
        <ele>1351.5</ele>
        <time>2024-05-26T11:51:41Z</time>
      </trkpt>
      <trkpt lat="43.74459" lon="6.67721">
        <ele>1351.2</ele>
        <time>2024-05-26T11:51:42Z</time>
      </trkpt>
      <trkpt lat="43.74459" lon="6.67723">
        <ele>1351.1</ele>
        <time>2024-05-26T11:51:43Z</time>
      </trkpt>
      <trkpt lat="43.74459" lon="6.67723">
        <ele>1350.9</ele>
        <time>2024-05-26T11:51:44Z</time>
      </trkpt>
      <trkpt lat="43.74458" lon="6.67724">
        <ele>1350.7</ele>
        <time>2024-05-26T11:51:45Z</time>
      </trkpt>
      <trkpt lat="43.74458" lon="6.67726">
        <ele>1350.4</ele>
        <time>2024-05-26T11:51:46Z</time>
      </trkpt>
      <trkpt lat="43.74457" lon="6.67728">
        <ele>1350.2</ele>
        <time>2024-05-26T11:51:47Z</time>
      </trkpt>
      <trkpt lat="43.74457" lon="6.6773">
        <ele>1350</ele>
        <time>2024-05-26T11:51:48Z</time>
      </trkpt>
      <trkpt lat="43.74456" lon="6.67732">
        <ele>1349.8</ele>
        <time>2024-05-26T11:51:49Z</time>
      </trkpt>
      <trkpt lat="43.74456" lon="6.67734">
        <ele>1349.6</ele>
        <time>2024-05-26T11:51:50Z</time>
      </trkpt>
      <trkpt lat="43.74455" lon="6.67735">
        <ele>1349.4</ele>
        <time>2024-05-26T11:51:51Z</time>
      </trkpt>
      <trkpt lat="43.74455" lon="6.67735">
        <ele>1349.2</ele>
        <time>2024-05-26T11:51:52Z</time>
      </trkpt>
      <trkpt lat="43.74454" lon="6.67737">
        <ele>1348.9</ele>
        <time>2024-05-26T11:51:53Z</time>
      </trkpt>
      <trkpt lat="43.74454" lon="6.67738">
        <ele>1348.7</ele>
        <time>2024-05-26T11:51:54Z</time>
      </trkpt>
      <trkpt lat="43.74454" lon="6.6774">
        <ele>1348.6</ele>
        <time>2024-05-26T11:51:55Z</time>
      </trkpt>
      <trkpt lat="43.74452" lon="6.67741">
        <ele>1348.6</ele>
        <time>2024-05-26T11:51:56Z</time>
      </trkpt>
      <trkpt lat="43.74451" lon="6.67741">
        <ele>1348.5</ele>
        <time>2024-05-26T11:51:57Z</time>
      </trkpt>
      <trkpt lat="43.74451" lon="6.67743">
        <ele>1348.4</ele>
        <time>2024-05-26T11:51:58Z</time>
      </trkpt>
      <trkpt lat="43.7445" lon="6.67744">
        <ele>1348.2</ele>
        <time>2024-05-26T11:51:59Z</time>
      </trkpt>
      <trkpt lat="43.7445" lon="6.67744">
        <ele>1348.2</ele>
        <time>2024-05-26T11:52:00Z</time>
      </trkpt>
      <trkpt lat="43.74449" lon="6.67745">
        <ele>1348.1</ele>
        <time>2024-05-26T11:52:01Z</time>
      </trkpt>
      <trkpt lat="43.74448" lon="6.67746">
        <ele>1348</ele>
        <time>2024-05-26T11:52:02Z</time>
      </trkpt>
      <trkpt lat="43.74448" lon="6.67747">
        <ele>1347.8</ele>
        <time>2024-05-26T11:52:03Z</time>
      </trkpt>
      <trkpt lat="43.74446" lon="6.67748">
        <ele>1347.7</ele>
        <time>2024-05-26T11:52:04Z</time>
      </trkpt>
      <trkpt lat="43.74446" lon="6.67749">
        <ele>1347.7</ele>
        <time>2024-05-26T11:52:05Z</time>
      </trkpt>
      <trkpt lat="43.74446" lon="6.6775">
        <ele>1347.6</ele>
        <time>2024-05-26T11:52:06Z</time>
      </trkpt>
      <trkpt lat="43.74446" lon="6.6775">
        <ele>1347.5</ele>
        <time>2024-05-26T11:52:07Z</time>
      </trkpt>
      <trkpt lat="43.74444" lon="6.67751">
        <ele>1347.4</ele>
        <time>2024-05-26T11:52:08Z</time>
      </trkpt>
      <trkpt lat="43.74444" lon="6.67752">
        <ele>1347.4</ele>
        <time>2024-05-26T11:52:09Z</time>
      </trkpt>
      <trkpt lat="43.74443" lon="6.67754">
        <ele>1347.3</ele>
        <time>2024-05-26T11:52:10Z</time>
      </trkpt>
      <trkpt lat="43.74441" lon="6.67755">
        <ele>1347.3</ele>
        <time>2024-05-26T11:52:11Z</time>
      </trkpt>
      <trkpt lat="43.74441" lon="6.67756">
        <ele>1347.3</ele>
        <time>2024-05-26T11:52:12Z</time>
      </trkpt>
      <trkpt lat="43.7444" lon="6.67757">
        <ele>1347.1</ele>
        <time>2024-05-26T11:52:13Z</time>
      </trkpt>
      <trkpt lat="43.74441" lon="6.67758">
        <ele>1347.1</ele>
        <time>2024-05-26T11:52:14Z</time>
      </trkpt>
      <trkpt lat="43.7444" lon="6.6776">
        <ele>1347</ele>
        <time>2024-05-26T11:52:15Z</time>
      </trkpt>
      <trkpt lat="43.7444" lon="6.67761">
        <ele>1346.9</ele>
        <time>2024-05-26T11:52:16Z</time>
      </trkpt>
      <trkpt lat="43.74439" lon="6.67762">
        <ele>1346.7</ele>
        <time>2024-05-26T11:52:17Z</time>
      </trkpt>
      <trkpt lat="43.74439" lon="6.67763">
        <ele>1346.6</ele>
        <time>2024-05-26T11:52:18Z</time>
      </trkpt>
      <trkpt lat="43.74439" lon="6.67764">
        <ele>1346.5</ele>
        <time>2024-05-26T11:52:19Z</time>
      </trkpt>
      <trkpt lat="43.74438" lon="6.67764">
        <ele>1346.4</ele>
        <time>2024-05-26T11:52:20Z</time>
      </trkpt>
      <trkpt lat="43.74438" lon="6.67765">
        <ele>1346.3</ele>
        <time>2024-05-26T11:52:21Z</time>
      </trkpt>
      <trkpt lat="43.74437" lon="6.67766">
        <ele>1346</ele>
        <time>2024-05-26T11:52:22Z</time>
      </trkpt>
      <trkpt lat="43.74437" lon="6.67767">
        <ele>1345.8</ele>
        <time>2024-05-26T11:52:23Z</time>
      </trkpt>
      <trkpt lat="43.74437" lon="6.67768">
        <ele>1345.6</ele>
        <time>2024-05-26T11:52:24Z</time>
      </trkpt>
      <trkpt lat="43.74436" lon="6.67768">
        <ele>1345.5</ele>
        <time>2024-05-26T11:52:25Z</time>
      </trkpt>
      <trkpt lat="43.74436" lon="6.67769">
        <ele>1345.4</ele>
        <time>2024-05-26T11:52:26Z</time>
      </trkpt>
      <trkpt lat="43.74435" lon="6.6777">
        <ele>1345.3</ele>
        <time>2024-05-26T11:52:27Z</time>
      </trkpt>
      <trkpt lat="43.74435" lon="6.67771">
        <ele>1345.1</ele>
        <time>2024-05-26T11:52:28Z</time>
      </trkpt>
      <trkpt lat="43.74434" lon="6.67773">
        <ele>1344.9</ele>
        <time>2024-05-26T11:52:29Z</time>
      </trkpt>
      <trkpt lat="43.74433" lon="6.67774">
        <ele>1344.7</ele>
        <time>2024-05-26T11:52:30Z</time>
      </trkpt>
      <trkpt lat="43.74433" lon="6.67777">
        <ele>1344.6</ele>
        <time>2024-05-26T11:52:31Z</time>
      </trkpt>
      <trkpt lat="43.74434" lon="6.67778">
        <ele>1344.4</ele>
        <time>2024-05-26T11:52:32Z</time>
      </trkpt>
      <trkpt lat="43.74433" lon="6.6778">
        <ele>1344.2</ele>
        <time>2024-05-26T11:52:33Z</time>
      </trkpt>
      <trkpt lat="43.74433" lon="6.67781">
        <ele>1344</ele>
        <time>2024-05-26T11:52:34Z</time>
      </trkpt>
      <trkpt lat="43.74432" lon="6.67782">
        <ele>1343.7</ele>
        <time>2024-05-26T11:52:35Z</time>
      </trkpt>
      <trkpt lat="43.74431" lon="6.67784">
        <ele>1343.4</ele>
        <time>2024-05-26T11:52:36Z</time>
      </trkpt>
      <trkpt lat="43.7443" lon="6.67785">
        <ele>1343.2</ele>
        <time>2024-05-26T11:52:37Z</time>
      </trkpt>
      <trkpt lat="43.7443" lon="6.67786">
        <ele>1343</ele>
        <time>2024-05-26T11:52:38Z</time>
      </trkpt>
      <trkpt lat="43.74429" lon="6.67787">
        <ele>1342.8</ele>
        <time>2024-05-26T11:52:39Z</time>
      </trkpt>
      <trkpt lat="43.74428" lon="6.67788">
        <ele>1342.4</ele>
        <time>2024-05-26T11:52:40Z</time>
      </trkpt>
      <trkpt lat="43.74427" lon="6.67788">
        <ele>1342.2</ele>
        <time>2024-05-26T11:52:41Z</time>
      </trkpt>
      <trkpt lat="43.74426" lon="6.67789">
        <ele>1342.1</ele>
        <time>2024-05-26T11:52:42Z</time>
      </trkpt>
      <trkpt lat="43.74426" lon="6.67791">
        <ele>1342</ele>
        <time>2024-05-26T11:52:43Z</time>
      </trkpt>
      <trkpt lat="43.74425" lon="6.67794">
        <ele>1341.8</ele>
        <time>2024-05-26T11:52:44Z</time>
      </trkpt>
      <trkpt lat="43.74425" lon="6.67795">
        <ele>1341.7</ele>
        <time>2024-05-26T11:52:45Z</time>
      </trkpt>
      <trkpt lat="43.74425" lon="6.67796">
        <ele>1341.6</ele>
        <time>2024-05-26T11:52:46Z</time>
      </trkpt>
      <trkpt lat="43.74425" lon="6.67797">
        <ele>1341.5</ele>
        <time>2024-05-26T11:52:47Z</time>
      </trkpt>
      <trkpt lat="43.74426" lon="6.67798">
        <ele>1341.2</ele>
        <time>2024-05-26T11:52:48Z</time>
      </trkpt>
      <trkpt lat="43.74426" lon="6.67799">
        <ele>1341</ele>
        <time>2024-05-26T11:52:49Z</time>
      </trkpt>
      <trkpt lat="43.74426" lon="6.678">
        <ele>1340.7</ele>
        <time>2024-05-26T11:52:50Z</time>
      </trkpt>
      <trkpt lat="43.74427" lon="6.67801">
        <ele>1340.5</ele>
        <time>2024-05-26T11:52:51Z</time>
      </trkpt>
      <trkpt lat="43.74426" lon="6.67803">
        <ele>1340.3</ele>
        <time>2024-05-26T11:52:52Z</time>
      </trkpt>
      <trkpt lat="43.74427" lon="6.67804">
        <ele>1340.1</ele>
        <time>2024-05-26T11:52:53Z</time>
      </trkpt>
      <trkpt lat="43.74427" lon="6.67805">
        <ele>1339.7</ele>
        <time>2024-05-26T11:52:54Z</time>
      </trkpt>
      <trkpt lat="43.74427" lon="6.67806">
        <ele>1339.5</ele>
        <time>2024-05-26T11:52:55Z</time>
      </trkpt>
      <trkpt lat="43.74428" lon="6.67807">
        <ele>1339.2</ele>
        <time>2024-05-26T11:52:56Z</time>
      </trkpt>
      <trkpt lat="43.74428" lon="6.67808">
        <ele>1339</ele>
        <time>2024-05-26T11:52:57Z</time>
      </trkpt>
      <trkpt lat="43.74429" lon="6.67808">
        <ele>1338.8</ele>
        <time>2024-05-26T11:52:58Z</time>
      </trkpt>
      <trkpt lat="43.74429" lon="6.67809">
        <ele>1338.5</ele>
        <time>2024-05-26T11:52:59Z</time>
      </trkpt>
      <trkpt lat="43.74429" lon="6.6781">
        <ele>1338.2</ele>
        <time>2024-05-26T11:53:00Z</time>
      </trkpt>
      <trkpt lat="43.74429" lon="6.67811">
        <ele>1338</ele>
        <time>2024-05-26T11:53:01Z</time>
      </trkpt>
      <trkpt lat="43.74428" lon="6.67812">
        <ele>1337.8</ele>
        <time>2024-05-26T11:53:02Z</time>
      </trkpt>
      <trkpt lat="43.74428" lon="6.67813">
        <ele>1337.6</ele>
        <time>2024-05-26T11:53:03Z</time>
      </trkpt>
      <trkpt lat="43.74428" lon="6.67814">
        <ele>1337.5</ele>
        <time>2024-05-26T11:53:04Z</time>
      </trkpt>
      <trkpt lat="43.74428" lon="6.67815">
        <ele>1337.3</ele>
        <time>2024-05-26T11:53:05Z</time>
      </trkpt>
      <trkpt lat="43.74428" lon="6.67815">
        <ele>1337</ele>
        <time>2024-05-26T11:53:06Z</time>
      </trkpt>
      <trkpt lat="43.74427" lon="6.67817">
        <ele>1336.8</ele>
        <time>2024-05-26T11:53:07Z</time>
      </trkpt>
      <trkpt lat="43.74427" lon="6.67818">
        <ele>1336.6</ele>
        <time>2024-05-26T11:53:08Z</time>
      </trkpt>
      <trkpt lat="43.74427" lon="6.6782">
        <ele>1336.3</ele>
        <time>2024-05-26T11:53:09Z</time>
      </trkpt>
      <trkpt lat="43.74427" lon="6.67821">
        <ele>1335.9</ele>
        <time>2024-05-26T11:53:10Z</time>
      </trkpt>
      <trkpt lat="43.74427" lon="6.67822">
        <ele>1335.6</ele>
        <time>2024-05-26T11:53:11Z</time>
      </trkpt>
      <trkpt lat="43.74426" lon="6.67822">
        <ele>1335.3</ele>
        <time>2024-05-26T11:53:12Z</time>
      </trkpt>
      <trkpt lat="43.74426" lon="6.67823">
        <ele>1335.1</ele>
        <time>2024-05-26T11:53:13Z</time>
      </trkpt>
      <trkpt lat="43.74426" lon="6.67823">
        <ele>1334.9</ele>
        <time>2024-05-26T11:53:14Z</time>
      </trkpt>
      <trkpt lat="43.74426" lon="6.67823">
        <ele>1334.7</ele>
        <time>2024-05-26T11:53:15Z</time>
      </trkpt>
      <trkpt lat="43.74426" lon="6.67822">
        <ele>1334.5</ele>
        <time>2024-05-26T11:53:16Z</time>
      </trkpt>
      <trkpt lat="43.74426" lon="6.67823">
        <ele>1334.4</ele>
        <time>2024-05-26T11:53:17Z</time>
      </trkpt>
      <trkpt lat="43.74426" lon="6.67824">
        <ele>1334.3</ele>
        <time>2024-05-26T11:53:18Z</time>
      </trkpt>
      <trkpt lat="43.74426" lon="6.67825">
        <ele>1334.1</ele>
        <time>2024-05-26T11:53:19Z</time>
      </trkpt>
      <trkpt lat="43.74425" lon="6.67826">
        <ele>1333.9</ele>
        <time>2024-05-26T11:53:20Z</time>
      </trkpt>
      <trkpt lat="43.74425" lon="6.67827">
        <ele>1333.8</ele>
        <time>2024-05-26T11:53:21Z</time>
      </trkpt>
      <trkpt lat="43.74425" lon="6.67828">
        <ele>1333.8</ele>
        <time>2024-05-26T11:53:22Z</time>
      </trkpt>
      <trkpt lat="43.74425" lon="6.67829">
        <ele>1333.7</ele>
        <time>2024-05-26T11:53:23Z</time>
      </trkpt>
      <trkpt lat="43.74424" lon="6.67829">
        <ele>1333.6</ele>
        <time>2024-05-26T11:53:24Z</time>
      </trkpt>
      <trkpt lat="43.74424" lon="6.6783">
        <ele>1333.5</ele>
        <time>2024-05-26T11:53:25Z</time>
      </trkpt>
      <trkpt lat="43.74424" lon="6.6783">
        <ele>1333.4</ele>
        <time>2024-05-26T11:53:26Z</time>
      </trkpt>
      <trkpt lat="43.74424" lon="6.67831">
        <ele>1333.3</ele>
        <time>2024-05-26T11:53:27Z</time>
      </trkpt>
      <trkpt lat="43.74424" lon="6.67831">
        <ele>1333.2</ele>
        <time>2024-05-26T11:53:28Z</time>
      </trkpt>
      <trkpt lat="43.74425" lon="6.67832">
        <ele>1333</ele>
        <time>2024-05-26T11:53:29Z</time>
      </trkpt>
      <trkpt lat="43.74424" lon="6.67832">
        <ele>1332.9</ele>
        <time>2024-05-26T11:53:30Z</time>
      </trkpt>
      <trkpt lat="43.74424" lon="6.67834">
        <ele>1332.7</ele>
        <time>2024-05-26T11:53:31Z</time>
      </trkpt>
      <trkpt lat="43.74424" lon="6.67835">
        <ele>1332.5</ele>
        <time>2024-05-26T11:53:32Z</time>
      </trkpt>
      <trkpt lat="43.74424" lon="6.67835">
        <ele>1332.2</ele>
        <time>2024-05-26T11:53:33Z</time>
      </trkpt>
      <trkpt lat="43.74423" lon="6.67837">
        <ele>1332.1</ele>
        <time>2024-05-26T11:53:34Z</time>
      </trkpt>
      <trkpt lat="43.74422" lon="6.67839">
        <ele>1331.9</ele>
        <time>2024-05-26T11:53:35Z</time>
      </trkpt>
      <trkpt lat="43.74422" lon="6.6784">
        <ele>1331.7</ele>
        <time>2024-05-26T11:53:36Z</time>
      </trkpt>
      <trkpt lat="43.74422" lon="6.67841">
        <ele>1331.5</ele>
        <time>2024-05-26T11:53:37Z</time>
      </trkpt>
      <trkpt lat="43.74422" lon="6.67842">
        <ele>1331.3</ele>
        <time>2024-05-26T11:53:38Z</time>
      </trkpt>
      <trkpt lat="43.74422" lon="6.67843">
        <ele>1331.1</ele>
        <time>2024-05-26T11:53:39Z</time>
      </trkpt>
      <trkpt lat="43.74422" lon="6.67844">
        <ele>1331</ele>
        <time>2024-05-26T11:53:40Z</time>
      </trkpt>
      <trkpt lat="43.74421" lon="6.67845">
        <ele>1330.8</ele>
        <time>2024-05-26T11:53:41Z</time>
      </trkpt>
      <trkpt lat="43.7442" lon="6.67847">
        <ele>1330.6</ele>
        <time>2024-05-26T11:53:42Z</time>
      </trkpt>
      <trkpt lat="43.7442" lon="6.67848">
        <ele>1330.4</ele>
        <time>2024-05-26T11:53:43Z</time>
      </trkpt>
      <trkpt lat="43.7442" lon="6.67848">
        <ele>1330.2</ele>
        <time>2024-05-26T11:53:44Z</time>
      </trkpt>
      <trkpt lat="43.74419" lon="6.67849">
        <ele>1330</ele>
        <time>2024-05-26T11:53:45Z</time>
      </trkpt>
      <trkpt lat="43.74419" lon="6.6785">
        <ele>1329.9</ele>
        <time>2024-05-26T11:53:46Z</time>
      </trkpt>
      <trkpt lat="43.74419" lon="6.67851">
        <ele>1329.8</ele>
        <time>2024-05-26T11:53:47Z</time>
      </trkpt>
      <trkpt lat="43.74418" lon="6.67852">
        <ele>1329.5</ele>
        <time>2024-05-26T11:53:48Z</time>
      </trkpt>
      <trkpt lat="43.74417" lon="6.67853">
        <ele>1329.4</ele>
        <time>2024-05-26T11:53:49Z</time>
      </trkpt>
      <trkpt lat="43.74417" lon="6.67853">
        <ele>1329.1</ele>
        <time>2024-05-26T11:53:50Z</time>
      </trkpt>
      <trkpt lat="43.74416" lon="6.67853">
        <ele>1328.9</ele>
        <time>2024-05-26T11:53:51Z</time>
      </trkpt>
      <trkpt lat="43.74415" lon="6.67853">
        <ele>1328.8</ele>
        <time>2024-05-26T11:53:52Z</time>
      </trkpt>
      <trkpt lat="43.74414" lon="6.67853">
        <ele>1328.6</ele>
        <time>2024-05-26T11:53:53Z</time>
      </trkpt>
      <trkpt lat="43.74413" lon="6.67854">
        <ele>1328.5</ele>
        <time>2024-05-26T11:53:54Z</time>
      </trkpt>
      <trkpt lat="43.74412" lon="6.67855">
        <ele>1328.4</ele>
        <time>2024-05-26T11:53:55Z</time>
      </trkpt>
      <trkpt lat="43.74412" lon="6.67857">
        <ele>1328.4</ele>
        <time>2024-05-26T11:53:56Z</time>
      </trkpt>
      <trkpt lat="43.74412" lon="6.67857">
        <ele>1328.3</ele>
        <time>2024-05-26T11:53:57Z</time>
      </trkpt>
      <trkpt lat="43.74411" lon="6.67858">
        <ele>1328.2</ele>
        <time>2024-05-26T11:53:58Z</time>
      </trkpt>
      <trkpt lat="43.74411" lon="6.67858">
        <ele>1328.1</ele>
        <time>2024-05-26T11:53:59Z</time>
      </trkpt>
      <trkpt lat="43.7441" lon="6.67859">
        <ele>1328</ele>
        <time>2024-05-26T11:54:00Z</time>
      </trkpt>
      <trkpt lat="43.74409" lon="6.6786">
        <ele>1327.9</ele>
        <time>2024-05-26T11:54:01Z</time>
      </trkpt>
      <trkpt lat="43.74408" lon="6.67861">
        <ele>1327.8</ele>
        <time>2024-05-26T11:54:02Z</time>
      </trkpt>
      <trkpt lat="43.74408" lon="6.67862">
        <ele>1327.7</ele>
        <time>2024-05-26T11:54:03Z</time>
      </trkpt>
      <trkpt lat="43.74407" lon="6.67863">
        <ele>1327.6</ele>
        <time>2024-05-26T11:54:04Z</time>
      </trkpt>
      <trkpt lat="43.74407" lon="6.67863">
        <ele>1327.4</ele>
        <time>2024-05-26T11:54:05Z</time>
      </trkpt>
      <trkpt lat="43.74406" lon="6.67863">
        <ele>1327.2</ele>
        <time>2024-05-26T11:54:06Z</time>
      </trkpt>
      <trkpt lat="43.74406" lon="6.67864">
        <ele>1327</ele>
        <time>2024-05-26T11:54:07Z</time>
      </trkpt>
      <trkpt lat="43.74406" lon="6.67865">
        <ele>1326.9</ele>
        <time>2024-05-26T11:54:08Z</time>
      </trkpt>
      <trkpt lat="43.74405" lon="6.67866">
        <ele>1326.8</ele>
        <time>2024-05-26T11:54:09Z</time>
      </trkpt>
      <trkpt lat="43.74404" lon="6.67867">
        <ele>1326.6</ele>
        <time>2024-05-26T11:54:10Z</time>
      </trkpt>
      <trkpt lat="43.74404" lon="6.67867">
        <ele>1326.4</ele>
        <time>2024-05-26T11:54:11Z</time>
      </trkpt>
      <trkpt lat="43.74403" lon="6.67868">
        <ele>1326.2</ele>
        <time>2024-05-26T11:54:12Z</time>
      </trkpt>
      <trkpt lat="43.74403" lon="6.67868">
        <ele>1326.1</ele>
        <time>2024-05-26T11:54:13Z</time>
      </trkpt>
      <trkpt lat="43.74402" lon="6.67869">
        <ele>1325.9</ele>
        <time>2024-05-26T11:54:14Z</time>
      </trkpt>
      <trkpt lat="43.74401" lon="6.67869">
        <ele>1325.8</ele>
        <time>2024-05-26T11:54:15Z</time>
      </trkpt>
      <trkpt lat="43.744" lon="6.67871">
        <ele>1325.6</ele>
        <time>2024-05-26T11:54:16Z</time>
      </trkpt>
      <trkpt lat="43.744" lon="6.67872">
        <ele>1325.5</ele>
        <time>2024-05-26T11:54:17Z</time>
      </trkpt>
      <trkpt lat="43.74399" lon="6.67873">
        <ele>1325.3</ele>
        <time>2024-05-26T11:54:18Z</time>
      </trkpt>
      <trkpt lat="43.74399" lon="6.67874">
        <ele>1325.1</ele>
        <time>2024-05-26T11:54:19Z</time>
      </trkpt>
      <trkpt lat="43.74398" lon="6.67876">
        <ele>1324.8</ele>
        <time>2024-05-26T11:54:20Z</time>
      </trkpt>
      <trkpt lat="43.74398" lon="6.67876">
        <ele>1324.6</ele>
        <time>2024-05-26T11:54:21Z</time>
      </trkpt>
      <trkpt lat="43.74399" lon="6.67876">
        <ele>1324.4</ele>
        <time>2024-05-26T11:54:22Z</time>
      </trkpt>
      <trkpt lat="43.74399" lon="6.67877">
        <ele>1324.2</ele>
        <time>2024-05-26T11:54:23Z</time>
      </trkpt>
      <trkpt lat="43.74399" lon="6.67877">
        <ele>1324</ele>
        <time>2024-05-26T11:54:24Z</time>
      </trkpt>
      <trkpt lat="43.74399" lon="6.67878">
        <ele>1323.8</ele>
        <time>2024-05-26T11:54:25Z</time>
      </trkpt>
      <trkpt lat="43.74398" lon="6.67879">
        <ele>1323.6</ele>
        <time>2024-05-26T11:54:26Z</time>
      </trkpt>
      <trkpt lat="43.74399" lon="6.67881">
        <ele>1323.4</ele>
        <time>2024-05-26T11:54:27Z</time>
      </trkpt>
      <trkpt lat="43.74398" lon="6.67881">
        <ele>1323.2</ele>
        <time>2024-05-26T11:54:28Z</time>
      </trkpt>
      <trkpt lat="43.74398" lon="6.67882">
        <ele>1323</ele>
        <time>2024-05-26T11:54:29Z</time>
      </trkpt>
      <trkpt lat="43.74398" lon="6.67883">
        <ele>1322.8</ele>
        <time>2024-05-26T11:54:30Z</time>
      </trkpt>
      <trkpt lat="43.74398" lon="6.67884">
        <ele>1322.6</ele>
        <time>2024-05-26T11:54:31Z</time>
      </trkpt>
      <trkpt lat="43.74398" lon="6.67885">
        <ele>1322.4</ele>
        <time>2024-05-26T11:54:32Z</time>
      </trkpt>
      <trkpt lat="43.74397" lon="6.67886">
        <ele>1322.1</ele>
        <time>2024-05-26T11:54:33Z</time>
      </trkpt>
      <trkpt lat="43.74397" lon="6.67887">
        <ele>1321.9</ele>
        <time>2024-05-26T11:54:34Z</time>
      </trkpt>
      <trkpt lat="43.74398" lon="6.67887">
        <ele>1321.6</ele>
        <time>2024-05-26T11:54:35Z</time>
      </trkpt>
      <trkpt lat="43.74397" lon="6.67888">
        <ele>1321.4</ele>
        <time>2024-05-26T11:54:36Z</time>
      </trkpt>
      <trkpt lat="43.74397" lon="6.6789">
        <ele>1321.2</ele>
        <time>2024-05-26T11:54:37Z</time>
      </trkpt>
      <trkpt lat="43.74397" lon="6.6789">
        <ele>1321</ele>
        <time>2024-05-26T11:54:38Z</time>
      </trkpt>
      <trkpt lat="43.74397" lon="6.67891">
        <ele>1320.8</ele>
        <time>2024-05-26T11:54:39Z</time>
      </trkpt>
      <trkpt lat="43.74397" lon="6.67893">
        <ele>1320.6</ele>
        <time>2024-05-26T11:54:40Z</time>
      </trkpt>
      <trkpt lat="43.74397" lon="6.67894">
        <ele>1320.3</ele>
        <time>2024-05-26T11:54:41Z</time>
      </trkpt>
      <trkpt lat="43.74397" lon="6.67895">
        <ele>1320</ele>
        <time>2024-05-26T11:54:42Z</time>
      </trkpt>
      <trkpt lat="43.74397" lon="6.67896">
        <ele>1319.8</ele>
        <time>2024-05-26T11:54:43Z</time>
      </trkpt>
      <trkpt lat="43.74397" lon="6.67897">
        <ele>1319.6</ele>
        <time>2024-05-26T11:54:44Z</time>
      </trkpt>
      <trkpt lat="43.74396" lon="6.67898">
        <ele>1319.3</ele>
        <time>2024-05-26T11:54:45Z</time>
      </trkpt>
      <trkpt lat="43.74396" lon="6.67899">
        <ele>1319.1</ele>
        <time>2024-05-26T11:54:46Z</time>
      </trkpt>
      <trkpt lat="43.74396" lon="6.67899">
        <ele>1318.9</ele>
        <time>2024-05-26T11:54:47Z</time>
      </trkpt>
      <trkpt lat="43.74396" lon="6.679">
        <ele>1318.7</ele>
        <time>2024-05-26T11:54:48Z</time>
      </trkpt>
      <trkpt lat="43.74396" lon="6.67901">
        <ele>1318.6</ele>
        <time>2024-05-26T11:54:49Z</time>
      </trkpt>
      <trkpt lat="43.74396" lon="6.67903">
        <ele>1318.4</ele>
        <time>2024-05-26T11:54:50Z</time>
      </trkpt>
      <trkpt lat="43.74395" lon="6.67904">
        <ele>1318.2</ele>
        <time>2024-05-26T11:54:51Z</time>
      </trkpt>
      <trkpt lat="43.74395" lon="6.67905">
        <ele>1318</ele>
        <time>2024-05-26T11:54:52Z</time>
      </trkpt>
      <trkpt lat="43.74394" lon="6.67907">
        <ele>1317.9</ele>
        <time>2024-05-26T11:54:53Z</time>
      </trkpt>
      <trkpt lat="43.74394" lon="6.67908">
        <ele>1317.6</ele>
        <time>2024-05-26T11:54:54Z</time>
      </trkpt>
      <trkpt lat="43.74394" lon="6.67909">
        <ele>1317.5</ele>
        <time>2024-05-26T11:54:55Z</time>
      </trkpt>
      <trkpt lat="43.74394" lon="6.6791">
        <ele>1317.3</ele>
        <time>2024-05-26T11:54:56Z</time>
      </trkpt>
      <trkpt lat="43.74393" lon="6.67912">
        <ele>1317.1</ele>
        <time>2024-05-26T11:54:57Z</time>
      </trkpt>
      <trkpt lat="43.74393" lon="6.67913">
        <ele>1316.9</ele>
        <time>2024-05-26T11:54:58Z</time>
      </trkpt>
      <trkpt lat="43.74392" lon="6.67914">
        <ele>1316.8</ele>
        <time>2024-05-26T11:54:59Z</time>
      </trkpt>
      <trkpt lat="43.74392" lon="6.67915">
        <ele>1316.6</ele>
        <time>2024-05-26T11:55:00Z</time>
      </trkpt>
      <trkpt lat="43.74392" lon="6.67916">
        <ele>1316.6</ele>
        <time>2024-05-26T11:55:01Z</time>
      </trkpt>
      <trkpt lat="43.74391" lon="6.67917">
        <ele>1316.5</ele>
        <time>2024-05-26T11:55:02Z</time>
      </trkpt>
      <trkpt lat="43.7439" lon="6.67918">
        <ele>1316.4</ele>
        <time>2024-05-26T11:55:03Z</time>
      </trkpt>
      <trkpt lat="43.7439" lon="6.67919">
        <ele>1316.3</ele>
        <time>2024-05-26T11:55:04Z</time>
      </trkpt>
      <trkpt lat="43.7439" lon="6.6792">
        <ele>1316.1</ele>
        <time>2024-05-26T11:55:05Z</time>
      </trkpt>
      <trkpt lat="43.74389" lon="6.67921">
        <ele>1316</ele>
        <time>2024-05-26T11:55:06Z</time>
      </trkpt>
      <trkpt lat="43.74389" lon="6.67922">
        <ele>1315.8</ele>
        <time>2024-05-26T11:55:07Z</time>
      </trkpt>
      <trkpt lat="43.74388" lon="6.67923">
        <ele>1315.7</ele>
        <time>2024-05-26T11:55:08Z</time>
      </trkpt>
      <trkpt lat="43.74388" lon="6.67925">
        <ele>1315.5</ele>
        <time>2024-05-26T11:55:09Z</time>
      </trkpt>
      <trkpt lat="43.74387" lon="6.67926">
        <ele>1315.3</ele>
        <time>2024-05-26T11:55:10Z</time>
      </trkpt>
      <trkpt lat="43.74387" lon="6.67927">
        <ele>1315.1</ele>
        <time>2024-05-26T11:55:11Z</time>
      </trkpt>
      <trkpt lat="43.74387" lon="6.67928">
        <ele>1315</ele>
        <time>2024-05-26T11:55:12Z</time>
      </trkpt>
      <trkpt lat="43.74386" lon="6.6793">
        <ele>1314.9</ele>
        <time>2024-05-26T11:55:13Z</time>
      </trkpt>
      <trkpt lat="43.74386" lon="6.67931">
        <ele>1314.9</ele>
        <time>2024-05-26T11:55:14Z</time>
      </trkpt>
      <trkpt lat="43.74385" lon="6.67932">
        <ele>1314.9</ele>
        <time>2024-05-26T11:55:15Z</time>
      </trkpt>
      <trkpt lat="43.74385" lon="6.67933">
        <ele>1314.9</ele>
        <time>2024-05-26T11:55:16Z</time>
      </trkpt>
      <trkpt lat="43.74384" lon="6.67935">
        <ele>1314.8</ele>
        <time>2024-05-26T11:55:17Z</time>
      </trkpt>
      <trkpt lat="43.74384" lon="6.67935">
        <ele>1314.8</ele>
        <time>2024-05-26T11:55:18Z</time>
      </trkpt>
      <trkpt lat="43.74383" lon="6.67936">
        <ele>1314.8</ele>
        <time>2024-05-26T11:55:19Z</time>
      </trkpt>
      <trkpt lat="43.74383" lon="6.67937">
        <ele>1314.8</ele>
        <time>2024-05-26T11:55:20Z</time>
      </trkpt>
      <trkpt lat="43.74382" lon="6.67937">
        <ele>1314.8</ele>
        <time>2024-05-26T11:55:21Z</time>
      </trkpt>
      <trkpt lat="43.74381" lon="6.67938">
        <ele>1314.7</ele>
        <time>2024-05-26T11:55:22Z</time>
      </trkpt>
      <trkpt lat="43.7438" lon="6.67939">
        <ele>1314.6</ele>
        <time>2024-05-26T11:55:23Z</time>
      </trkpt>
      <trkpt lat="43.7438" lon="6.6794">
        <ele>1314.5</ele>
        <time>2024-05-26T11:55:24Z</time>
      </trkpt>
      <trkpt lat="43.7438" lon="6.67941">
        <ele>1314.4</ele>
        <time>2024-05-26T11:55:25Z</time>
      </trkpt>
      <trkpt lat="43.74379" lon="6.67941">
        <ele>1314.3</ele>
        <time>2024-05-26T11:55:26Z</time>
      </trkpt>
      <trkpt lat="43.74379" lon="6.67942">
        <ele>1314.2</ele>
        <time>2024-05-26T11:55:27Z</time>
      </trkpt>
      <trkpt lat="43.74378" lon="6.67943">
        <ele>1314.1</ele>
        <time>2024-05-26T11:55:28Z</time>
      </trkpt>
      <trkpt lat="43.74378" lon="6.67945">
        <ele>1314</ele>
        <time>2024-05-26T11:55:29Z</time>
      </trkpt>
      <trkpt lat="43.74378" lon="6.67946">
        <ele>1313.8</ele>
        <time>2024-05-26T11:55:30Z</time>
      </trkpt>
      <trkpt lat="43.74378" lon="6.67946">
        <ele>1313.6</ele>
        <time>2024-05-26T11:55:31Z</time>
      </trkpt>
      <trkpt lat="43.74378" lon="6.67947">
        <ele>1313.5</ele>
        <time>2024-05-26T11:55:32Z</time>
      </trkpt>
      <trkpt lat="43.74378" lon="6.67948">
        <ele>1313.4</ele>
        <time>2024-05-26T11:55:33Z</time>
      </trkpt>
      <trkpt lat="43.74378" lon="6.67948">
        <ele>1313.2</ele>
        <time>2024-05-26T11:55:34Z</time>
      </trkpt>
      <trkpt lat="43.74378" lon="6.67948">
        <ele>1313</ele>
        <time>2024-05-26T11:55:35Z</time>
      </trkpt>
      <trkpt lat="43.74378" lon="6.67948">
        <ele>1312.9</ele>
        <time>2024-05-26T11:55:36Z</time>
      </trkpt>
      <trkpt lat="43.74378" lon="6.67948">
        <ele>1312.7</ele>
        <time>2024-05-26T11:55:37Z</time>
      </trkpt>
      <trkpt lat="43.74378" lon="6.67948">
        <ele>1312.6</ele>
        <time>2024-05-26T11:55:38Z</time>
      </trkpt>
      <trkpt lat="43.74378" lon="6.67948">
        <ele>1312.5</ele>
        <time>2024-05-26T11:55:39Z</time>
      </trkpt>
      <trkpt lat="43.74378" lon="6.67948">
        <ele>1312.4</ele>
        <time>2024-05-26T11:55:40Z</time>
      </trkpt>
      <trkpt lat="43.74378" lon="6.67948">
        <ele>1312.4</ele>
        <time>2024-05-26T11:55:41Z</time>
      </trkpt>
      <trkpt lat="43.74378" lon="6.67948">
        <ele>1312.4</ele>
        <time>2024-05-26T11:55:42Z</time>
      </trkpt>
      <trkpt lat="43.74378" lon="6.67948">
        <ele>1312.4</ele>
        <time>2024-05-26T11:55:43Z</time>
      </trkpt>
      <trkpt lat="43.74378" lon="6.67947">
        <ele>1312.4</ele>
        <time>2024-05-26T11:55:44Z</time>
      </trkpt>
      <trkpt lat="43.74378" lon="6.67947">
        <ele>1312.4</ele>
        <time>2024-05-26T11:55:45Z</time>
      </trkpt>
      <trkpt lat="43.74378" lon="6.67947">
        <ele>1312.4</ele>
        <time>2024-05-26T11:55:46Z</time>
      </trkpt>
      <trkpt lat="43.74378" lon="6.67947">
        <ele>1312.3</ele>
        <time>2024-05-26T11:55:47Z</time>
      </trkpt>
      <trkpt lat="43.74378" lon="6.67948">
        <ele>1312.2</ele>
        <time>2024-05-26T11:55:48Z</time>
      </trkpt>
      <trkpt lat="43.74378" lon="6.67948">
        <ele>1312.2</ele>
        <time>2024-05-26T11:55:49Z</time>
      </trkpt>
      <trkpt lat="43.74377" lon="6.67949">
        <ele>1312.1</ele>
        <time>2024-05-26T11:55:50Z</time>
      </trkpt>
      <trkpt lat="43.74377" lon="6.6795">
        <ele>1312.1</ele>
        <time>2024-05-26T11:55:51Z</time>
      </trkpt>
      <trkpt lat="43.74377" lon="6.6795">
        <ele>1312.1</ele>
        <time>2024-05-26T11:55:52Z</time>
      </trkpt>
      <trkpt lat="43.74377" lon="6.6795">
        <ele>1312</ele>
        <time>2024-05-26T11:55:53Z</time>
      </trkpt>
      <trkpt lat="43.74377" lon="6.6795">
        <ele>1311.9</ele>
        <time>2024-05-26T11:55:54Z</time>
      </trkpt>
      <trkpt lat="43.74377" lon="6.6795">
        <ele>1312</ele>
        <time>2024-05-26T11:55:55Z</time>
      </trkpt>
      <trkpt lat="43.74377" lon="6.6795">
        <ele>1312</ele>
        <time>2024-05-26T11:55:56Z</time>
      </trkpt>
      <trkpt lat="43.74377" lon="6.67951">
        <ele>1312</ele>
        <time>2024-05-26T11:55:57Z</time>
      </trkpt>
      <trkpt lat="43.74377" lon="6.67951">
        <ele>1311.9</ele>
        <time>2024-05-26T11:55:58Z</time>
      </trkpt>
      <trkpt lat="43.74377" lon="6.67951">
        <ele>1311.8</ele>
        <time>2024-05-26T11:55:59Z</time>
      </trkpt>
      <trkpt lat="43.74377" lon="6.67951">
        <ele>1311.8</ele>
        <time>2024-05-26T11:56:00Z</time>
      </trkpt>
      <trkpt lat="43.74377" lon="6.67951">
        <ele>1311.8</ele>
        <time>2024-05-26T11:56:01Z</time>
      </trkpt>
      <trkpt lat="43.74377" lon="6.67951">
        <ele>1311.7</ele>
        <time>2024-05-26T11:56:02Z</time>
      </trkpt>
      <trkpt lat="43.74377" lon="6.67951">
        <ele>1311.7</ele>
        <time>2024-05-26T11:56:03Z</time>
      </trkpt>
      <trkpt lat="43.74377" lon="6.67951">
        <ele>1311.7</ele>
        <time>2024-05-26T11:56:04Z</time>
      </trkpt>
      <trkpt lat="43.74377" lon="6.67951">
        <ele>1311.8</ele>
        <time>2024-05-26T11:56:05Z</time>
      </trkpt>
      <trkpt lat="43.74377" lon="6.67951">
        <ele>1311.8</ele>
        <time>2024-05-26T11:56:06Z</time>
      </trkpt>
      <trkpt lat="43.74377" lon="6.67951">
        <ele>1311.8</ele>
        <time>2024-05-26T11:56:07Z</time>
      </trkpt>
      <trkpt lat="43.74377" lon="6.67951">
        <ele>1311.8</ele>
        <time>2024-05-26T11:56:08Z</time>
      </trkpt>
      <trkpt lat="43.74377" lon="6.67951">
        <ele>1311.9</ele>
        <time>2024-05-26T11:56:09Z</time>
      </trkpt>
      <trkpt lat="43.74377" lon="6.67951">
        <ele>1311.9</ele>
        <time>2024-05-26T11:56:10Z</time>
      </trkpt>
      <trkpt lat="43.74377" lon="6.67951">
        <ele>1311.9</ele>
        <time>2024-05-26T11:56:11Z</time>
      </trkpt>
      <trkpt lat="43.74377" lon="6.67951">
        <ele>1311.9</ele>
        <time>2024-05-26T11:56:12Z</time>
      </trkpt>
      <trkpt lat="43.74376" lon="6.67951">
        <ele>1311.9</ele>
        <time>2024-05-26T11:56:13Z</time>
      </trkpt>
      <trkpt lat="43.74376" lon="6.67951">
        <ele>1311.9</ele>
        <time>2024-05-26T11:56:14Z</time>
      </trkpt>
      <trkpt lat="43.74376" lon="6.67952">
        <ele>1311.9</ele>
        <time>2024-05-26T11:56:15Z</time>
      </trkpt>
      <trkpt lat="43.74376" lon="6.67953">
        <ele>1311.9</ele>
        <time>2024-05-26T11:56:16Z</time>
      </trkpt>
      <trkpt lat="43.74376" lon="6.67953">
        <ele>1311.9</ele>
        <time>2024-05-26T11:56:17Z</time>
      </trkpt>
      <trkpt lat="43.74376" lon="6.67954">
        <ele>1311.8</ele>
        <time>2024-05-26T11:56:18Z</time>
      </trkpt>
      <trkpt lat="43.74375" lon="6.67955">
        <ele>1311.8</ele>
        <time>2024-05-26T11:56:19Z</time>
      </trkpt>
      <trkpt lat="43.74375" lon="6.67955">
        <ele>1311.7</ele>
        <time>2024-05-26T11:56:20Z</time>
      </trkpt>
      <trkpt lat="43.74375" lon="6.67956">
        <ele>1311.7</ele>
        <time>2024-05-26T11:56:21Z</time>
      </trkpt>
      <trkpt lat="43.74374" lon="6.67956">
        <ele>1311.6</ele>
        <time>2024-05-26T11:56:22Z</time>
      </trkpt>
      <trkpt lat="43.74374" lon="6.67956">
        <ele>1311.6</ele>
        <time>2024-05-26T11:56:23Z</time>
      </trkpt>
      <trkpt lat="43.74374" lon="6.67956">
        <ele>1311.5</ele>
        <time>2024-05-26T11:56:24Z</time>
      </trkpt>
      <trkpt lat="43.74374" lon="6.67956">
        <ele>1311.5</ele>
        <time>2024-05-26T11:56:25Z</time>
      </trkpt>
      <trkpt lat="43.74374" lon="6.67956">
        <ele>1311.5</ele>
        <time>2024-05-26T11:56:26Z</time>
      </trkpt>
      <trkpt lat="43.74375" lon="6.67956">
        <ele>1311.5</ele>
        <time>2024-05-26T11:56:27Z</time>
      </trkpt>
      <trkpt lat="43.74375" lon="6.67956">
        <ele>1311.5</ele>
        <time>2024-05-26T11:56:28Z</time>
      </trkpt>
      <trkpt lat="43.74375" lon="6.67956">
        <ele>1311.5</ele>
        <time>2024-05-26T11:56:29Z</time>
      </trkpt>
      <trkpt lat="43.74375" lon="6.67956">
        <ele>1311.5</ele>
        <time>2024-05-26T11:56:30Z</time>
      </trkpt>
      <trkpt lat="43.74375" lon="6.67956">
        <ele>1311.5</ele>
        <time>2024-05-26T11:56:31Z</time>
      </trkpt>
      <trkpt lat="43.74375" lon="6.67956">
        <ele>1311.5</ele>
        <time>2024-05-26T11:56:32Z</time>
      </trkpt>
      <trkpt lat="43.74375" lon="6.67956">
        <ele>1311.5</ele>
        <time>2024-05-26T11:56:33Z</time>
      </trkpt>
      <trkpt lat="43.74375" lon="6.67956">
        <ele>1311.5</ele>
        <time>2024-05-26T11:56:34Z</time>
      </trkpt>
      <trkpt lat="43.74375" lon="6.67956">
        <ele>1311.5</ele>
        <time>2024-05-26T11:56:35Z</time>
      </trkpt>
      <trkpt lat="43.74375" lon="6.67956">
        <ele>1311.5</ele>
        <time>2024-05-26T11:56:36Z</time>
      </trkpt>
      <trkpt lat="43.74375" lon="6.67956">
        <ele>1311.5</ele>
        <time>2024-05-26T11:56:37Z</time>
      </trkpt>
      <trkpt lat="43.74375" lon="6.67956">
        <ele>1311.5</ele>
        <time>2024-05-26T11:56:38Z</time>
      </trkpt>
      <trkpt lat="43.74375" lon="6.67956">
        <ele>1311.5</ele>
        <time>2024-05-26T11:56:39Z</time>
      </trkpt>
      <trkpt lat="43.74375" lon="6.67956">
        <ele>1311.5</ele>
        <time>2024-05-26T11:56:40Z</time>
      </trkpt>
      <trkpt lat="43.74375" lon="6.67957">
        <ele>1311.5</ele>
        <time>2024-05-26T11:56:41Z</time>
      </trkpt>
      <trkpt lat="43.74375" lon="6.67957">
        <ele>1311.5</ele>
        <time>2024-05-26T11:56:42Z</time>
      </trkpt>
      <trkpt lat="43.74375" lon="6.67957">
        <ele>1311.5</ele>
        <time>2024-05-26T11:56:43Z</time>
      </trkpt>
      <trkpt lat="43.74375" lon="6.67957">
        <ele>1311.5</ele>
        <time>2024-05-26T11:56:44Z</time>
      </trkpt>
      <trkpt lat="43.74375" lon="6.67956">
        <ele>1311.5</ele>
        <time>2024-05-26T11:56:45Z</time>
      </trkpt>
      <trkpt lat="43.74375" lon="6.67956">
        <ele>1311.5</ele>
        <time>2024-05-26T11:56:46Z</time>
      </trkpt>
      <trkpt lat="43.74375" lon="6.67956">
        <ele>1311.5</ele>
        <time>2024-05-26T11:56:47Z</time>
      </trkpt>
      <trkpt lat="43.74375" lon="6.67956">
        <ele>1311.4</ele>
        <time>2024-05-26T11:56:48Z</time>
      </trkpt>
      <trkpt lat="43.74375" lon="6.67956">
        <ele>1311.4</ele>
        <time>2024-05-26T11:56:49Z</time>
      </trkpt>
      <trkpt lat="43.74375" lon="6.67957">
        <ele>1311.4</ele>
        <time>2024-05-26T11:56:50Z</time>
      </trkpt>
      <trkpt lat="43.74375" lon="6.67957">
        <ele>1311.4</ele>
        <time>2024-05-26T11:56:51Z</time>
      </trkpt>
      <trkpt lat="43.74375" lon="6.67957">
        <ele>1311.4</ele>
        <time>2024-05-26T11:56:52Z</time>
      </trkpt>
      <trkpt lat="43.74375" lon="6.67957">
        <ele>1311.4</ele>
        <time>2024-05-26T11:56:53Z</time>
      </trkpt>
      <trkpt lat="43.74375" lon="6.67957">
        <ele>1311.4</ele>
        <time>2024-05-26T11:56:54Z</time>
      </trkpt>
      <trkpt lat="43.74376" lon="6.67957">
        <ele>1311.4</ele>
        <time>2024-05-26T11:56:55Z</time>
      </trkpt>
      <trkpt lat="43.74376" lon="6.67957">
        <ele>1311.4</ele>
        <time>2024-05-26T11:56:56Z</time>
      </trkpt>
      <trkpt lat="43.74376" lon="6.67957">
        <ele>1311.4</ele>
        <time>2024-05-26T11:56:57Z</time>
      </trkpt>
      <trkpt lat="43.74376" lon="6.67957">
        <ele>1311.4</ele>
        <time>2024-05-26T11:56:58Z</time>
      </trkpt>
      <trkpt lat="43.74376" lon="6.67957">
        <ele>1311.5</ele>
        <time>2024-05-26T11:56:59Z</time>
      </trkpt>
      <trkpt lat="43.74376" lon="6.67957">
        <ele>1311.6</ele>
        <time>2024-05-26T11:57:00Z</time>
      </trkpt>
      <trkpt lat="43.74376" lon="6.67957">
        <ele>1311.6</ele>
        <time>2024-05-26T11:57:01Z</time>
      </trkpt>
      <trkpt lat="43.74376" lon="6.67957">
        <ele>1311.5</ele>
        <time>2024-05-26T11:57:02Z</time>
      </trkpt>
      <trkpt lat="43.74376" lon="6.67957">
        <ele>1311.5</ele>
        <time>2024-05-26T11:57:03Z</time>
      </trkpt>
      <trkpt lat="43.74376" lon="6.67957">
        <ele>1311.4</ele>
        <time>2024-05-26T11:57:04Z</time>
      </trkpt>
      <trkpt lat="43.74376" lon="6.67957">
        <ele>1311.3</ele>
        <time>2024-05-26T11:57:05Z</time>
      </trkpt>
      <trkpt lat="43.74376" lon="6.67957">
        <ele>1311.3</ele>
        <time>2024-05-26T11:57:06Z</time>
      </trkpt>
      <trkpt lat="43.74377" lon="6.67956">
        <ele>1311.3</ele>
        <time>2024-05-26T11:57:07Z</time>
      </trkpt>
      <trkpt lat="43.74377" lon="6.67956">
        <ele>1311.4</ele>
        <time>2024-05-26T11:57:08Z</time>
      </trkpt>
      <trkpt lat="43.74377" lon="6.67956">
        <ele>1311.4</ele>
        <time>2024-05-26T11:57:09Z</time>
      </trkpt>
      <trkpt lat="43.74377" lon="6.67956">
        <ele>1311.4</ele>
        <time>2024-05-26T11:57:10Z</time>
      </trkpt>
      <trkpt lat="43.74377" lon="6.67956">
        <ele>1311.5</ele>
        <time>2024-05-26T11:57:11Z</time>
      </trkpt>
      <trkpt lat="43.74377" lon="6.67955">
        <ele>1311.5</ele>
        <time>2024-05-26T11:57:12Z</time>
      </trkpt>
      <trkpt lat="43.74378" lon="6.67955">
        <ele>1311.6</ele>
        <time>2024-05-26T11:57:13Z</time>
      </trkpt>
      <trkpt lat="43.74378" lon="6.67955">
        <ele>1311.7</ele>
        <time>2024-05-26T11:57:14Z</time>
      </trkpt>
      <trkpt lat="43.74378" lon="6.67955">
        <ele>1311.7</ele>
        <time>2024-05-26T11:57:15Z</time>
      </trkpt>
      <trkpt lat="43.74378" lon="6.67955">
        <ele>1311.6</ele>
        <time>2024-05-26T11:57:16Z</time>
      </trkpt>
      <trkpt lat="43.74378" lon="6.67955">
        <ele>1311.5</ele>
        <time>2024-05-26T11:57:17Z</time>
      </trkpt>
      <trkpt lat="43.74378" lon="6.67955">
        <ele>1311.5</ele>
        <time>2024-05-26T11:57:18Z</time>
      </trkpt>
      <trkpt lat="43.74378" lon="6.67954">
        <ele>1311.4</ele>
        <time>2024-05-26T11:57:19Z</time>
      </trkpt>
      <trkpt lat="43.74378" lon="6.67954">
        <ele>1311.4</ele>
        <time>2024-05-26T11:57:20Z</time>
      </trkpt>
      <trkpt lat="43.74378" lon="6.67954">
        <ele>1311.4</ele>
        <time>2024-05-26T11:57:21Z</time>
      </trkpt>
      <trkpt lat="43.74378" lon="6.67954">
        <ele>1311.4</ele>
        <time>2024-05-26T11:57:22Z</time>
      </trkpt>
      <trkpt lat="43.74378" lon="6.67954">
        <ele>1311.4</ele>
        <time>2024-05-26T11:57:23Z</time>
      </trkpt>
      <trkpt lat="43.74378" lon="6.67954">
        <ele>1311.5</ele>
        <time>2024-05-26T11:57:24Z</time>
      </trkpt>
      <trkpt lat="43.74378" lon="6.67954">
        <ele>1311.5</ele>
        <time>2024-05-26T11:57:25Z</time>
      </trkpt>
      <trkpt lat="43.74377" lon="6.67954">
        <ele>1311.6</ele>
        <time>2024-05-26T11:57:26Z</time>
      </trkpt>
      <trkpt lat="43.74377" lon="6.67954">
        <ele>1311.7</ele>
        <time>2024-05-26T11:57:27Z</time>
      </trkpt>
      <trkpt lat="43.74377" lon="6.67954">
        <ele>1311.8</ele>
        <time>2024-05-26T11:57:28Z</time>
      </trkpt>
      <trkpt lat="43.74377" lon="6.67954">
        <ele>1311.9</ele>
        <time>2024-05-26T11:57:29Z</time>
      </trkpt>
      <trkpt lat="43.74377" lon="6.67954">
        <ele>1312</ele>
        <time>2024-05-26T11:57:30Z</time>
      </trkpt>
      <trkpt lat="43.74377" lon="6.67954">
        <ele>1312</ele>
        <time>2024-05-26T11:57:31Z</time>
      </trkpt>
      <trkpt lat="43.74376" lon="6.67955">
        <ele>1312</ele>
        <time>2024-05-26T11:57:32Z</time>
      </trkpt>
      <trkpt lat="43.74376" lon="6.67955">
        <ele>1312</ele>
        <time>2024-05-26T11:57:33Z</time>
      </trkpt>
      <trkpt lat="43.74376" lon="6.67955">
        <ele>1312.1</ele>
        <time>2024-05-26T11:57:34Z</time>
      </trkpt>
      <trkpt lat="43.74376" lon="6.67955">
        <ele>1312.1</ele>
        <time>2024-05-26T11:57:35Z</time>
      </trkpt>
      <trkpt lat="43.74376" lon="6.67955">
        <ele>1312.2</ele>
        <time>2024-05-26T11:57:36Z</time>
      </trkpt>
      <trkpt lat="43.74376" lon="6.67955">
        <ele>1312.2</ele>
        <time>2024-05-26T11:57:37Z</time>
      </trkpt>
      <trkpt lat="43.74376" lon="6.67955">
        <ele>1312.2</ele>
        <time>2024-05-26T11:57:38Z</time>
      </trkpt>
      <trkpt lat="43.74376" lon="6.67955">
        <ele>1312.3</ele>
        <time>2024-05-26T11:57:39Z</time>
      </trkpt>
      <trkpt lat="43.74376" lon="6.67955">
        <ele>1312.2</ele>
        <time>2024-05-26T11:57:40Z</time>
      </trkpt>
      <trkpt lat="43.74376" lon="6.67956">
        <ele>1312.2</ele>
        <time>2024-05-26T11:57:41Z</time>
      </trkpt>
      <trkpt lat="43.74376" lon="6.67956">
        <ele>1312.1</ele>
        <time>2024-05-26T11:57:42Z</time>
      </trkpt>
      <trkpt lat="43.74376" lon="6.67956">
        <ele>1311.9</ele>
        <time>2024-05-26T11:57:43Z</time>
      </trkpt>
      <trkpt lat="43.74375" lon="6.67956">
        <ele>1311.8</ele>
        <time>2024-05-26T11:57:44Z</time>
      </trkpt>
      <trkpt lat="43.74375" lon="6.67956">
        <ele>1311.8</ele>
        <time>2024-05-26T11:57:45Z</time>
      </trkpt>
      <trkpt lat="43.74375" lon="6.67956">
        <ele>1311.7</ele>
        <time>2024-05-26T11:57:46Z</time>
      </trkpt>
      <trkpt lat="43.74375" lon="6.67956">
        <ele>1311.7</ele>
        <time>2024-05-26T11:57:47Z</time>
      </trkpt>
      <trkpt lat="43.74375" lon="6.67956">
        <ele>1311.6</ele>
        <time>2024-05-26T11:57:48Z</time>
      </trkpt>
      <trkpt lat="43.74375" lon="6.67956">
        <ele>1311.6</ele>
        <time>2024-05-26T11:57:49Z</time>
      </trkpt>
      <trkpt lat="43.74375" lon="6.67956">
        <ele>1311.7</ele>
        <time>2024-05-26T11:57:50Z</time>
      </trkpt>
      <trkpt lat="43.74375" lon="6.67956">
        <ele>1311.8</ele>
        <time>2024-05-26T11:57:51Z</time>
      </trkpt>
      <trkpt lat="43.74375" lon="6.67956">
        <ele>1311.8</ele>
        <time>2024-05-26T11:57:52Z</time>
      </trkpt>
      <trkpt lat="43.74375" lon="6.67956">
        <ele>1311.9</ele>
        <time>2024-05-26T11:57:53Z</time>
      </trkpt>
      <trkpt lat="43.74375" lon="6.67956">
        <ele>1311.9</ele>
        <time>2024-05-26T11:57:54Z</time>
      </trkpt>
      <trkpt lat="43.74375" lon="6.67956">
        <ele>1312</ele>
        <time>2024-05-26T11:57:55Z</time>
      </trkpt>
      <trkpt lat="43.74374" lon="6.67956">
        <ele>1312.2</ele>
        <time>2024-05-26T11:57:56Z</time>
      </trkpt>
      <trkpt lat="43.74374" lon="6.67956">
        <ele>1312.2</ele>
        <time>2024-05-26T11:57:57Z</time>
      </trkpt>
      <trkpt lat="43.74374" lon="6.67956">
        <ele>1312.2</ele>
        <time>2024-05-26T11:57:58Z</time>
      </trkpt>
      <trkpt lat="43.74374" lon="6.67956">
        <ele>1312.2</ele>
        <time>2024-05-26T11:57:59Z</time>
      </trkpt>
      <trkpt lat="43.74373" lon="6.67956">
        <ele>1312.3</ele>
        <time>2024-05-26T11:58:00Z</time>
      </trkpt>
      <trkpt lat="43.74372" lon="6.67957">
        <ele>1312.3</ele>
        <time>2024-05-26T11:58:01Z</time>
      </trkpt>
      <trkpt lat="43.74371" lon="6.67957">
        <ele>1312.4</ele>
        <time>2024-05-26T11:58:02Z</time>
      </trkpt>
      <trkpt lat="43.7437" lon="6.67957">
        <ele>1312.5</ele>
        <time>2024-05-26T11:58:03Z</time>
      </trkpt>
      <trkpt lat="43.74369" lon="6.67958">
        <ele>1312.5</ele>
        <time>2024-05-26T11:58:04Z</time>
      </trkpt>
      <trkpt lat="43.74369" lon="6.67959">
        <ele>1312.5</ele>
        <time>2024-05-26T11:58:05Z</time>
      </trkpt>
      <trkpt lat="43.74367" lon="6.67959">
        <ele>1312.5</ele>
        <time>2024-05-26T11:58:06Z</time>
      </trkpt>
      <trkpt lat="43.74366" lon="6.67959">
        <ele>1312.5</ele>
        <time>2024-05-26T11:58:07Z</time>
      </trkpt>
      <trkpt lat="43.74365" lon="6.6796">
        <ele>1312.6</ele>
        <time>2024-05-26T11:58:08Z</time>
      </trkpt>
      <trkpt lat="43.74364" lon="6.6796">
        <ele>1312.6</ele>
        <time>2024-05-26T11:58:09Z</time>
      </trkpt>
      <trkpt lat="43.74363" lon="6.6796">
        <ele>1312.8</ele>
        <time>2024-05-26T11:58:10Z</time>
      </trkpt>
      <trkpt lat="43.74362" lon="6.6796">
        <ele>1312.9</ele>
        <time>2024-05-26T11:58:11Z</time>
      </trkpt>
      <trkpt lat="43.74362" lon="6.6796">
        <ele>1313</ele>
        <time>2024-05-26T11:58:12Z</time>
      </trkpt>
      <trkpt lat="43.74361" lon="6.6796">
        <ele>1313.1</ele>
        <time>2024-05-26T11:58:13Z</time>
      </trkpt>
      <trkpt lat="43.7436" lon="6.67961">
        <ele>1313.2</ele>
        <time>2024-05-26T11:58:14Z</time>
      </trkpt>
      <trkpt lat="43.7436" lon="6.67961">
        <ele>1313.3</ele>
        <time>2024-05-26T11:58:15Z</time>
      </trkpt>
      <trkpt lat="43.74359" lon="6.67961">
        <ele>1313.3</ele>
        <time>2024-05-26T11:58:16Z</time>
      </trkpt>
      <trkpt lat="43.74358" lon="6.67961">
        <ele>1313.4</ele>
        <time>2024-05-26T11:58:17Z</time>
      </trkpt>
      <trkpt lat="43.74358" lon="6.67962">
        <ele>1313.5</ele>
        <time>2024-05-26T11:58:18Z</time>
      </trkpt>
      <trkpt lat="43.74357" lon="6.67962">
        <ele>1313.5</ele>
        <time>2024-05-26T11:58:19Z</time>
      </trkpt>
      <trkpt lat="43.74357" lon="6.67962">
        <ele>1313.6</ele>
        <time>2024-05-26T11:58:20Z</time>
      </trkpt>
      <trkpt lat="43.74356" lon="6.67962">
        <ele>1313.6</ele>
        <time>2024-05-26T11:58:21Z</time>
      </trkpt>
      <trkpt lat="43.74355" lon="6.67962">
        <ele>1313.7</ele>
        <time>2024-05-26T11:58:22Z</time>
      </trkpt>
      <trkpt lat="43.74354" lon="6.67962">
        <ele>1313.8</ele>
        <time>2024-05-26T11:58:23Z</time>
      </trkpt>
      <trkpt lat="43.74354" lon="6.67963">
        <ele>1314</ele>
        <time>2024-05-26T11:58:24Z</time>
      </trkpt>
      <trkpt lat="43.74353" lon="6.67963">
        <ele>1314.1</ele>
        <time>2024-05-26T11:58:25Z</time>
      </trkpt>
      <trkpt lat="43.74352" lon="6.67963">
        <ele>1314.2</ele>
        <time>2024-05-26T11:58:26Z</time>
      </trkpt>
      <trkpt lat="43.74351" lon="6.67963">
        <ele>1314.4</ele>
        <time>2024-05-26T11:58:27Z</time>
      </trkpt>
      <trkpt lat="43.7435" lon="6.67964">
        <ele>1314.6</ele>
        <time>2024-05-26T11:58:28Z</time>
      </trkpt>
      <trkpt lat="43.7435" lon="6.67964">
        <ele>1314.7</ele>
        <time>2024-05-26T11:58:29Z</time>
      </trkpt>
      <trkpt lat="43.74349" lon="6.67965">
        <ele>1314.8</ele>
        <time>2024-05-26T11:58:30Z</time>
      </trkpt>
      <trkpt lat="43.74348" lon="6.67965">
        <ele>1314.9</ele>
        <time>2024-05-26T11:58:31Z</time>
      </trkpt>
      <trkpt lat="43.74348" lon="6.67966">
        <ele>1315</ele>
        <time>2024-05-26T11:58:32Z</time>
      </trkpt>
      <trkpt lat="43.74347" lon="6.67966">
        <ele>1315.2</ele>
        <time>2024-05-26T11:58:33Z</time>
      </trkpt>
      <trkpt lat="43.74346" lon="6.67967">
        <ele>1315.3</ele>
        <time>2024-05-26T11:58:34Z</time>
      </trkpt>
      <trkpt lat="43.74345" lon="6.67967">
        <ele>1315.5</ele>
        <time>2024-05-26T11:58:35Z</time>
      </trkpt>
      <trkpt lat="43.74344" lon="6.67968">
        <ele>1315.7</ele>
        <time>2024-05-26T11:58:36Z</time>
      </trkpt>
      <trkpt lat="43.74343" lon="6.67968">
        <ele>1315.9</ele>
        <time>2024-05-26T11:58:37Z</time>
      </trkpt>
      <trkpt lat="43.74343" lon="6.67969">
        <ele>1316</ele>
        <time>2024-05-26T11:58:38Z</time>
      </trkpt>
      <trkpt lat="43.74341" lon="6.67968">
        <ele>1316.2</ele>
        <time>2024-05-26T11:58:39Z</time>
      </trkpt>
      <trkpt lat="43.74341" lon="6.67969">
        <ele>1316.3</ele>
        <time>2024-05-26T11:58:40Z</time>
      </trkpt>
      <trkpt lat="43.74341" lon="6.67969">
        <ele>1316.3</ele>
        <time>2024-05-26T11:58:41Z</time>
      </trkpt>
      <trkpt lat="43.7434" lon="6.6797">
        <ele>1316.4</ele>
        <time>2024-05-26T11:58:42Z</time>
      </trkpt>
      <trkpt lat="43.74339" lon="6.6797">
        <ele>1316.4</ele>
        <time>2024-05-26T11:58:43Z</time>
      </trkpt>
      <trkpt lat="43.74338" lon="6.67971">
        <ele>1316.5</ele>
        <time>2024-05-26T11:58:44Z</time>
      </trkpt>
      <trkpt lat="43.74337" lon="6.67971">
        <ele>1316.5</ele>
        <time>2024-05-26T11:58:45Z</time>
      </trkpt>
      <trkpt lat="43.74336" lon="6.67971">
        <ele>1316.6</ele>
        <time>2024-05-26T11:58:46Z</time>
      </trkpt>
      <trkpt lat="43.74335" lon="6.67971">
        <ele>1316.8</ele>
        <time>2024-05-26T11:58:47Z</time>
      </trkpt>
      <trkpt lat="43.74335" lon="6.67971">
        <ele>1316.9</ele>
        <time>2024-05-26T11:58:48Z</time>
      </trkpt>
      <trkpt lat="43.74335" lon="6.67972">
        <ele>1317</ele>
        <time>2024-05-26T11:58:49Z</time>
      </trkpt>
      <trkpt lat="43.74334" lon="6.67972">
        <ele>1317.1</ele>
        <time>2024-05-26T11:58:50Z</time>
      </trkpt>
      <trkpt lat="43.74333" lon="6.67972">
        <ele>1317.2</ele>
        <time>2024-05-26T11:58:51Z</time>
      </trkpt>
      <trkpt lat="43.74332" lon="6.67973">
        <ele>1317.2</ele>
        <time>2024-05-26T11:58:52Z</time>
      </trkpt>
      <trkpt lat="43.74332" lon="6.67974">
        <ele>1317.2</ele>
        <time>2024-05-26T11:58:53Z</time>
      </trkpt>
      <trkpt lat="43.74331" lon="6.67975">
        <ele>1317.3</ele>
        <time>2024-05-26T11:58:54Z</time>
      </trkpt>
      <trkpt lat="43.7433" lon="6.67975">
        <ele>1317.4</ele>
        <time>2024-05-26T11:58:55Z</time>
      </trkpt>
      <trkpt lat="43.74329" lon="6.67975">
        <ele>1317.5</ele>
        <time>2024-05-26T11:58:56Z</time>
      </trkpt>
      <trkpt lat="43.74328" lon="6.67975">
        <ele>1317.5</ele>
        <time>2024-05-26T11:58:57Z</time>
      </trkpt>
      <trkpt lat="43.74327" lon="6.67975">
        <ele>1317.6</ele>
        <time>2024-05-26T11:58:58Z</time>
      </trkpt>
      <trkpt lat="43.74326" lon="6.67975">
        <ele>1317.7</ele>
        <time>2024-05-26T11:58:59Z</time>
      </trkpt>
      <trkpt lat="43.74326" lon="6.67975">
        <ele>1317.8</ele>
        <time>2024-05-26T11:59:00Z</time>
      </trkpt>
      <trkpt lat="43.74326" lon="6.67974">
        <ele>1317.9</ele>
        <time>2024-05-26T11:59:01Z</time>
      </trkpt>
      <trkpt lat="43.74325" lon="6.67974">
        <ele>1317.9</ele>
        <time>2024-05-26T11:59:02Z</time>
      </trkpt>
      <trkpt lat="43.74325" lon="6.67975">
        <ele>1317.9</ele>
        <time>2024-05-26T11:59:03Z</time>
      </trkpt>
      <trkpt lat="43.74325" lon="6.67975">
        <ele>1318</ele>
        <time>2024-05-26T11:59:04Z</time>
      </trkpt>
      <trkpt lat="43.74324" lon="6.67975">
        <ele>1318</ele>
        <time>2024-05-26T11:59:05Z</time>
      </trkpt>
      <trkpt lat="43.74323" lon="6.67975">
        <ele>1318.1</ele>
        <time>2024-05-26T11:59:06Z</time>
      </trkpt>
      <trkpt lat="43.74322" lon="6.67976">
        <ele>1318.1</ele>
        <time>2024-05-26T11:59:07Z</time>
      </trkpt>
      <trkpt lat="43.74322" lon="6.67976">
        <ele>1318.1</ele>
        <time>2024-05-26T11:59:08Z</time>
      </trkpt>
      <trkpt lat="43.74322" lon="6.67977">
        <ele>1318.2</ele>
        <time>2024-05-26T11:59:09Z</time>
      </trkpt>
      <trkpt lat="43.74321" lon="6.67977">
        <ele>1318.2</ele>
        <time>2024-05-26T11:59:10Z</time>
      </trkpt>
      <trkpt lat="43.7432" lon="6.67977">
        <ele>1318.3</ele>
        <time>2024-05-26T11:59:11Z</time>
      </trkpt>
      <trkpt lat="43.74319" lon="6.67978">
        <ele>1318.5</ele>
        <time>2024-05-26T11:59:12Z</time>
      </trkpt>
      <trkpt lat="43.74319" lon="6.67978">
        <ele>1318.6</ele>
        <time>2024-05-26T11:59:13Z</time>
      </trkpt>
      <trkpt lat="43.74318" lon="6.67977">
        <ele>1318.7</ele>
        <time>2024-05-26T11:59:14Z</time>
      </trkpt>
      <trkpt lat="43.74317" lon="6.67978">
        <ele>1318.8</ele>
        <time>2024-05-26T11:59:15Z</time>
      </trkpt>
      <trkpt lat="43.74316" lon="6.67979">
        <ele>1318.9</ele>
        <time>2024-05-26T11:59:16Z</time>
      </trkpt>
      <trkpt lat="43.74315" lon="6.67979">
        <ele>1319</ele>
        <time>2024-05-26T11:59:17Z</time>
      </trkpt>
      <trkpt lat="43.74314" lon="6.67979">
        <ele>1319.3</ele>
        <time>2024-05-26T11:59:18Z</time>
      </trkpt>
      <trkpt lat="43.74313" lon="6.67981">
        <ele>1319.4</ele>
        <time>2024-05-26T11:59:19Z</time>
      </trkpt>
      <trkpt lat="43.74312" lon="6.67981">
        <ele>1319.5</ele>
        <time>2024-05-26T11:59:20Z</time>
      </trkpt>
      <trkpt lat="43.74311" lon="6.67982">
        <ele>1319.6</ele>
        <time>2024-05-26T11:59:21Z</time>
      </trkpt>
      <trkpt lat="43.74311" lon="6.67983">
        <ele>1319.7</ele>
        <time>2024-05-26T11:59:22Z</time>
      </trkpt>
      <trkpt lat="43.7431" lon="6.67983">
        <ele>1319.7</ele>
        <time>2024-05-26T11:59:23Z</time>
      </trkpt>
      <trkpt lat="43.74309" lon="6.67984">
        <ele>1319.8</ele>
        <time>2024-05-26T11:59:24Z</time>
      </trkpt>
      <trkpt lat="43.74308" lon="6.67985">
        <ele>1319.8</ele>
        <time>2024-05-26T11:59:25Z</time>
      </trkpt>
      <trkpt lat="43.74307" lon="6.67986">
        <ele>1319.9</ele>
        <time>2024-05-26T11:59:26Z</time>
      </trkpt>
      <trkpt lat="43.74306" lon="6.67986">
        <ele>1320.1</ele>
        <time>2024-05-26T11:59:27Z</time>
      </trkpt>
      <trkpt lat="43.74305" lon="6.67986">
        <ele>1320.4</ele>
        <time>2024-05-26T11:59:28Z</time>
      </trkpt>
      <trkpt lat="43.74304" lon="6.67986">
        <ele>1320.6</ele>
        <time>2024-05-26T11:59:29Z</time>
      </trkpt>
      <trkpt lat="43.74303" lon="6.67986">
        <ele>1320.7</ele>
        <time>2024-05-26T11:59:30Z</time>
      </trkpt>
      <trkpt lat="43.74302" lon="6.67987">
        <ele>1320.9</ele>
        <time>2024-05-26T11:59:31Z</time>
      </trkpt>
      <trkpt lat="43.74302" lon="6.67987">
        <ele>1321</ele>
        <time>2024-05-26T11:59:32Z</time>
      </trkpt>
      <trkpt lat="43.74301" lon="6.67988">
        <ele>1321.1</ele>
        <time>2024-05-26T11:59:33Z</time>
      </trkpt>
      <trkpt lat="43.743" lon="6.67989">
        <ele>1321.2</ele>
        <time>2024-05-26T11:59:34Z</time>
      </trkpt>
      <trkpt lat="43.74299" lon="6.6799">
        <ele>1321.2</ele>
        <time>2024-05-26T11:59:35Z</time>
      </trkpt>
      <trkpt lat="43.74298" lon="6.67991">
        <ele>1321.4</ele>
        <time>2024-05-26T11:59:36Z</time>
      </trkpt>
      <trkpt lat="43.74296" lon="6.67992">
        <ele>1321.5</ele>
        <time>2024-05-26T11:59:37Z</time>
      </trkpt>
      <trkpt lat="43.74295" lon="6.67992">
        <ele>1321.7</ele>
        <time>2024-05-26T11:59:38Z</time>
      </trkpt>
      <trkpt lat="43.74294" lon="6.67993">
        <ele>1321.8</ele>
        <time>2024-05-26T11:59:39Z</time>
      </trkpt>
      <trkpt lat="43.74292" lon="6.67994">
        <ele>1322</ele>
        <time>2024-05-26T11:59:40Z</time>
      </trkpt>
      <trkpt lat="43.74291" lon="6.67994">
        <ele>1322.1</ele>
        <time>2024-05-26T11:59:41Z</time>
      </trkpt>
      <trkpt lat="43.7429" lon="6.67996">
        <ele>1322.2</ele>
        <time>2024-05-26T11:59:42Z</time>
      </trkpt>
      <trkpt lat="43.74289" lon="6.67996">
        <ele>1322.3</ele>
        <time>2024-05-26T11:59:43Z</time>
      </trkpt>
      <trkpt lat="43.74287" lon="6.67997">
        <ele>1322.4</ele>
        <time>2024-05-26T11:59:44Z</time>
      </trkpt>
      <trkpt lat="43.74286" lon="6.67997">
        <ele>1322.7</ele>
        <time>2024-05-26T11:59:45Z</time>
      </trkpt>
      <trkpt lat="43.74285" lon="6.67998">
        <ele>1322.8</ele>
        <time>2024-05-26T11:59:46Z</time>
      </trkpt>
      <trkpt lat="43.74285" lon="6.67999">
        <ele>1322.9</ele>
        <time>2024-05-26T11:59:47Z</time>
      </trkpt>
      <trkpt lat="43.74284" lon="6.68">
        <ele>1323</ele>
        <time>2024-05-26T11:59:48Z</time>
      </trkpt>
      <trkpt lat="43.74282" lon="6.68001">
        <ele>1323.2</ele>
        <time>2024-05-26T11:59:49Z</time>
      </trkpt>
      <trkpt lat="43.74281" lon="6.68001">
        <ele>1323.3</ele>
        <time>2024-05-26T11:59:50Z</time>
      </trkpt>
      <trkpt lat="43.74279" lon="6.68002">
        <ele>1323.5</ele>
        <time>2024-05-26T11:59:51Z</time>
      </trkpt>
      <trkpt lat="43.74278" lon="6.68003">
        <ele>1323.7</ele>
        <time>2024-05-26T11:59:52Z</time>
      </trkpt>
      <trkpt lat="43.74276" lon="6.68003">
        <ele>1323.8</ele>
        <time>2024-05-26T11:59:53Z</time>
      </trkpt>
      <trkpt lat="43.74275" lon="6.68004">
        <ele>1323.9</ele>
        <time>2024-05-26T11:59:54Z</time>
      </trkpt>
      <trkpt lat="43.74274" lon="6.68004">
        <ele>1324</ele>
        <time>2024-05-26T11:59:55Z</time>
      </trkpt>
      <trkpt lat="43.74273" lon="6.68004">
        <ele>1324</ele>
        <time>2024-05-26T11:59:56Z</time>
      </trkpt>
      <trkpt lat="43.74272" lon="6.68005">
        <ele>1324.1</ele>
        <time>2024-05-26T11:59:57Z</time>
      </trkpt>
      <trkpt lat="43.74272" lon="6.68006">
        <ele>1324.2</ele>
        <time>2024-05-26T11:59:58Z</time>
      </trkpt>
      <trkpt lat="43.74271" lon="6.68008">
        <ele>1324.2</ele>
        <time>2024-05-26T11:59:59Z</time>
      </trkpt>
      <trkpt lat="43.7427" lon="6.68009">
        <ele>1324.4</ele>
        <time>2024-05-26T12:00:00Z</time>
      </trkpt>
      <trkpt lat="43.74268" lon="6.6801">
        <ele>1324.6</ele>
        <time>2024-05-26T12:00:01Z</time>
      </trkpt>
      <trkpt lat="43.74267" lon="6.68011">
        <ele>1324.7</ele>
        <time>2024-05-26T12:00:02Z</time>
      </trkpt>
      <trkpt lat="43.74264" lon="6.68012">
        <ele>1324.8</ele>
        <time>2024-05-26T12:00:03Z</time>
      </trkpt>
      <trkpt lat="43.74264" lon="6.68013">
        <ele>1324.9</ele>
        <time>2024-05-26T12:00:04Z</time>
      </trkpt>
      <trkpt lat="43.74263" lon="6.68014">
        <ele>1325</ele>
        <time>2024-05-26T12:00:05Z</time>
      </trkpt>
      <trkpt lat="43.74262" lon="6.68014">
        <ele>1325.1</ele>
        <time>2024-05-26T12:00:06Z</time>
      </trkpt>
      <trkpt lat="43.74261" lon="6.68014">
        <ele>1325.2</ele>
        <time>2024-05-26T12:00:07Z</time>
      </trkpt>
      <trkpt lat="43.74261" lon="6.68014">
        <ele>1325.3</ele>
        <time>2024-05-26T12:00:08Z</time>
      </trkpt>
      <trkpt lat="43.7426" lon="6.68015">
        <ele>1325.4</ele>
        <time>2024-05-26T12:00:09Z</time>
      </trkpt>
      <trkpt lat="43.74258" lon="6.68016">
        <ele>1325.6</ele>
        <time>2024-05-26T12:00:10Z</time>
      </trkpt>
      <trkpt lat="43.74257" lon="6.68016">
        <ele>1325.7</ele>
        <time>2024-05-26T12:00:11Z</time>
      </trkpt>
      <trkpt lat="43.74256" lon="6.68017">
        <ele>1325.7</ele>
        <time>2024-05-26T12:00:12Z</time>
      </trkpt>
      <trkpt lat="43.74256" lon="6.68017">
        <ele>1325.9</ele>
        <time>2024-05-26T12:00:13Z</time>
      </trkpt>
      <trkpt lat="43.74255" lon="6.68019">
        <ele>1325.9</ele>
        <time>2024-05-26T12:00:14Z</time>
      </trkpt>
      <trkpt lat="43.74254" lon="6.68019">
        <ele>1326.1</ele>
        <time>2024-05-26T12:00:15Z</time>
      </trkpt>
      <trkpt lat="43.74253" lon="6.68019">
        <ele>1326.2</ele>
        <time>2024-05-26T12:00:16Z</time>
      </trkpt>
      <trkpt lat="43.74253" lon="6.68021">
        <ele>1326.2</ele>
        <time>2024-05-26T12:00:17Z</time>
      </trkpt>
      <trkpt lat="43.74252" lon="6.68022">
        <ele>1326.3</ele>
        <time>2024-05-26T12:00:18Z</time>
      </trkpt>
      <trkpt lat="43.74252" lon="6.68023">
        <ele>1326.4</ele>
        <time>2024-05-26T12:00:19Z</time>
      </trkpt>
      <trkpt lat="43.7425" lon="6.68024">
        <ele>1326.5</ele>
        <time>2024-05-26T12:00:20Z</time>
      </trkpt>
      <trkpt lat="43.74249" lon="6.68024">
        <ele>1326.8</ele>
        <time>2024-05-26T12:00:21Z</time>
      </trkpt>
      <trkpt lat="43.74249" lon="6.68024">
        <ele>1327</ele>
        <time>2024-05-26T12:00:22Z</time>
      </trkpt>
      <trkpt lat="43.74248" lon="6.68025">
        <ele>1327.1</ele>
        <time>2024-05-26T12:00:23Z</time>
      </trkpt>
      <trkpt lat="43.74247" lon="6.68026">
        <ele>1327.2</ele>
        <time>2024-05-26T12:00:24Z</time>
      </trkpt>
      <trkpt lat="43.74246" lon="6.68026">
        <ele>1327.2</ele>
        <time>2024-05-26T12:00:25Z</time>
      </trkpt>
      <trkpt lat="43.74244" lon="6.68026">
        <ele>1327.3</ele>
        <time>2024-05-26T12:00:26Z</time>
      </trkpt>
      <trkpt lat="43.74243" lon="6.68026">
        <ele>1327.4</ele>
        <time>2024-05-26T12:00:27Z</time>
      </trkpt>
      <trkpt lat="43.74242" lon="6.68026">
        <ele>1327.5</ele>
        <time>2024-05-26T12:00:28Z</time>
      </trkpt>
      <trkpt lat="43.74241" lon="6.68026">
        <ele>1327.6</ele>
        <time>2024-05-26T12:00:29Z</time>
      </trkpt>
      <trkpt lat="43.7424" lon="6.68027">
        <ele>1327.8</ele>
        <time>2024-05-26T12:00:30Z</time>
      </trkpt>
      <trkpt lat="43.7424" lon="6.68027">
        <ele>1327.9</ele>
        <time>2024-05-26T12:00:31Z</time>
      </trkpt>
      <trkpt lat="43.74239" lon="6.68027">
        <ele>1328</ele>
        <time>2024-05-26T12:00:32Z</time>
      </trkpt>
      <trkpt lat="43.74239" lon="6.68027">
        <ele>1328.1</ele>
        <time>2024-05-26T12:00:33Z</time>
      </trkpt>
      <trkpt lat="43.74238" lon="6.68027">
        <ele>1328.2</ele>
        <time>2024-05-26T12:00:34Z</time>
      </trkpt>
      <trkpt lat="43.74238" lon="6.68027">
        <ele>1328.4</ele>
        <time>2024-05-26T12:00:35Z</time>
      </trkpt>
      <trkpt lat="43.74237" lon="6.68028">
        <ele>1328.4</ele>
        <time>2024-05-26T12:00:36Z</time>
      </trkpt>
      <trkpt lat="43.74236" lon="6.68027">
        <ele>1328.5</ele>
        <time>2024-05-26T12:00:37Z</time>
      </trkpt>
      <trkpt lat="43.74235" lon="6.68028">
        <ele>1328.7</ele>
        <time>2024-05-26T12:00:38Z</time>
      </trkpt>
      <trkpt lat="43.74234" lon="6.68028">
        <ele>1328.8</ele>
        <time>2024-05-26T12:00:39Z</time>
      </trkpt>
      <trkpt lat="43.74233" lon="6.68028">
        <ele>1328.9</ele>
        <time>2024-05-26T12:00:40Z</time>
      </trkpt>
      <trkpt lat="43.74232" lon="6.68029">
        <ele>1329</ele>
        <time>2024-05-26T12:00:41Z</time>
      </trkpt>
      <trkpt lat="43.74231" lon="6.68029">
        <ele>1329.1</ele>
        <time>2024-05-26T12:00:42Z</time>
      </trkpt>
      <trkpt lat="43.7423" lon="6.6803">
        <ele>1329.1</ele>
        <time>2024-05-26T12:00:43Z</time>
      </trkpt>
      <trkpt lat="43.74228" lon="6.6803">
        <ele>1329.2</ele>
        <time>2024-05-26T12:00:44Z</time>
      </trkpt>
      <trkpt lat="43.74228" lon="6.68029">
        <ele>1329.5</ele>
        <time>2024-05-26T12:00:45Z</time>
      </trkpt>
      <trkpt lat="43.74227" lon="6.68029">
        <ele>1329.6</ele>
        <time>2024-05-26T12:00:46Z</time>
      </trkpt>
      <trkpt lat="43.74226" lon="6.68029">
        <ele>1329.7</ele>
        <time>2024-05-26T12:00:47Z</time>
      </trkpt>
      <trkpt lat="43.74225" lon="6.68029">
        <ele>1329.9</ele>
        <time>2024-05-26T12:00:48Z</time>
      </trkpt>
      <trkpt lat="43.74225" lon="6.68029">
        <ele>1330</ele>
        <time>2024-05-26T12:00:49Z</time>
      </trkpt>
      <trkpt lat="43.74224" lon="6.68029">
        <ele>1330.1</ele>
        <time>2024-05-26T12:00:50Z</time>
      </trkpt>
      <trkpt lat="43.74223" lon="6.68029">
        <ele>1330.3</ele>
        <time>2024-05-26T12:00:51Z</time>
      </trkpt>
      <trkpt lat="43.74222" lon="6.6803">
        <ele>1330.4</ele>
        <time>2024-05-26T12:00:52Z</time>
      </trkpt>
      <trkpt lat="43.7422" lon="6.6803">
        <ele>1330.4</ele>
        <time>2024-05-26T12:00:53Z</time>
      </trkpt>
      <trkpt lat="43.74219" lon="6.68029">
        <ele>1330.4</ele>
        <time>2024-05-26T12:00:54Z</time>
      </trkpt>
      <trkpt lat="43.74218" lon="6.68029">
        <ele>1330.5</ele>
        <time>2024-05-26T12:00:55Z</time>
      </trkpt>
      <trkpt lat="43.74217" lon="6.6803">
        <ele>1330.6</ele>
        <time>2024-05-26T12:00:56Z</time>
      </trkpt>
      <trkpt lat="43.74216" lon="6.6803">
        <ele>1330.7</ele>
        <time>2024-05-26T12:00:57Z</time>
      </trkpt>
      <trkpt lat="43.74215" lon="6.6803">
        <ele>1330.8</ele>
        <time>2024-05-26T12:00:58Z</time>
      </trkpt>
      <trkpt lat="43.74214" lon="6.6803">
        <ele>1331</ele>
        <time>2024-05-26T12:00:59Z</time>
      </trkpt>
      <trkpt lat="43.74213" lon="6.6803">
        <ele>1331.2</ele>
        <time>2024-05-26T12:01:00Z</time>
      </trkpt>
      <trkpt lat="43.74212" lon="6.68031">
        <ele>1331.3</ele>
        <time>2024-05-26T12:01:01Z</time>
      </trkpt>
      <trkpt lat="43.74212" lon="6.68031">
        <ele>1331.5</ele>
        <time>2024-05-26T12:01:02Z</time>
      </trkpt>
      <trkpt lat="43.7421" lon="6.68032">
        <ele>1331.6</ele>
        <time>2024-05-26T12:01:03Z</time>
      </trkpt>
      <trkpt lat="43.74209" lon="6.68032">
        <ele>1331.7</ele>
        <time>2024-05-26T12:01:04Z</time>
      </trkpt>
      <trkpt lat="43.74209" lon="6.68032">
        <ele>1331.9</ele>
        <time>2024-05-26T12:01:05Z</time>
      </trkpt>
      <trkpt lat="43.74208" lon="6.68032">
        <ele>1332</ele>
        <time>2024-05-26T12:01:06Z</time>
      </trkpt>
      <trkpt lat="43.74206" lon="6.68033">
        <ele>1332.1</ele>
        <time>2024-05-26T12:01:07Z</time>
      </trkpt>
      <trkpt lat="43.74205" lon="6.68033">
        <ele>1332.1</ele>
        <time>2024-05-26T12:01:08Z</time>
      </trkpt>
      <trkpt lat="43.74204" lon="6.68034">
        <ele>1332.1</ele>
        <time>2024-05-26T12:01:09Z</time>
      </trkpt>
      <trkpt lat="43.74203" lon="6.68033">
        <ele>1332.1</ele>
        <time>2024-05-26T12:01:10Z</time>
      </trkpt>
      <trkpt lat="43.74202" lon="6.68034">
        <ele>1332.2</ele>
        <time>2024-05-26T12:01:11Z</time>
      </trkpt>
      <trkpt lat="43.74202" lon="6.68035">
        <ele>1332.2</ele>
        <time>2024-05-26T12:01:12Z</time>
      </trkpt>
      <trkpt lat="43.74201" lon="6.68035">
        <ele>1332.2</ele>
        <time>2024-05-26T12:01:13Z</time>
      </trkpt>
      <trkpt lat="43.74201" lon="6.68036">
        <ele>1332.3</ele>
        <time>2024-05-26T12:01:14Z</time>
      </trkpt>
      <trkpt lat="43.742" lon="6.68036">
        <ele>1332.3</ele>
        <time>2024-05-26T12:01:15Z</time>
      </trkpt>
      <trkpt lat="43.74199" lon="6.68036">
        <ele>1332.3</ele>
        <time>2024-05-26T12:01:16Z</time>
      </trkpt>
      <trkpt lat="43.74198" lon="6.68036">
        <ele>1332.4</ele>
        <time>2024-05-26T12:01:17Z</time>
      </trkpt>
      <trkpt lat="43.74197" lon="6.68037">
        <ele>1332.5</ele>
        <time>2024-05-26T12:01:18Z</time>
      </trkpt>
      <trkpt lat="43.74196" lon="6.68038">
        <ele>1332.5</ele>
        <time>2024-05-26T12:01:19Z</time>
      </trkpt>
      <trkpt lat="43.74195" lon="6.68039">
        <ele>1332.6</ele>
        <time>2024-05-26T12:01:20Z</time>
      </trkpt>
      <trkpt lat="43.74195" lon="6.6804">
        <ele>1332.7</ele>
        <time>2024-05-26T12:01:21Z</time>
      </trkpt>
      <trkpt lat="43.74195" lon="6.68042">
        <ele>1332.7</ele>
        <time>2024-05-26T12:01:22Z</time>
      </trkpt>
      <trkpt lat="43.74194" lon="6.68043">
        <ele>1332.7</ele>
        <time>2024-05-26T12:01:23Z</time>
      </trkpt>
      <trkpt lat="43.74194" lon="6.68045">
        <ele>1332.8</ele>
        <time>2024-05-26T12:01:24Z</time>
      </trkpt>
      <trkpt lat="43.74192" lon="6.68045">
        <ele>1332.8</ele>
        <time>2024-05-26T12:01:25Z</time>
      </trkpt>
      <trkpt lat="43.74191" lon="6.68046">
        <ele>1332.8</ele>
        <time>2024-05-26T12:01:26Z</time>
      </trkpt>
      <trkpt lat="43.7419" lon="6.68047">
        <ele>1332.8</ele>
        <time>2024-05-26T12:01:27Z</time>
      </trkpt>
      <trkpt lat="43.74189" lon="6.68048">
        <ele>1332.8</ele>
        <time>2024-05-26T12:01:28Z</time>
      </trkpt>
      <trkpt lat="43.74189" lon="6.68049">
        <ele>1332.9</ele>
        <time>2024-05-26T12:01:29Z</time>
      </trkpt>
      <trkpt lat="43.74188" lon="6.6805">
        <ele>1332.9</ele>
        <time>2024-05-26T12:01:30Z</time>
      </trkpt>
      <trkpt lat="43.74188" lon="6.68051">
        <ele>1332.9</ele>
        <time>2024-05-26T12:01:31Z</time>
      </trkpt>
      <trkpt lat="43.74187" lon="6.68051">
        <ele>1333</ele>
        <time>2024-05-26T12:01:32Z</time>
      </trkpt>
      <trkpt lat="43.74186" lon="6.68052">
        <ele>1333</ele>
        <time>2024-05-26T12:01:33Z</time>
      </trkpt>
      <trkpt lat="43.74185" lon="6.68052">
        <ele>1333.1</ele>
        <time>2024-05-26T12:01:34Z</time>
      </trkpt>
      <trkpt lat="43.74184" lon="6.68052">
        <ele>1333.2</ele>
        <time>2024-05-26T12:01:35Z</time>
      </trkpt>
      <trkpt lat="43.74183" lon="6.68052">
        <ele>1333.3</ele>
        <time>2024-05-26T12:01:36Z</time>
      </trkpt>
      <trkpt lat="43.74182" lon="6.68053">
        <ele>1333.4</ele>
        <time>2024-05-26T12:01:37Z</time>
      </trkpt>
      <trkpt lat="43.74181" lon="6.68053">
        <ele>1333.5</ele>
        <time>2024-05-26T12:01:38Z</time>
      </trkpt>
      <trkpt lat="43.7418" lon="6.68054">
        <ele>1333.7</ele>
        <time>2024-05-26T12:01:39Z</time>
      </trkpt>
      <trkpt lat="43.7418" lon="6.68055">
        <ele>1333.9</ele>
        <time>2024-05-26T12:01:40Z</time>
      </trkpt>
      <trkpt lat="43.74179" lon="6.68056">
        <ele>1334</ele>
        <time>2024-05-26T12:01:41Z</time>
      </trkpt>
      <trkpt lat="43.74178" lon="6.68057">
        <ele>1334</ele>
        <time>2024-05-26T12:01:42Z</time>
      </trkpt>
      <trkpt lat="43.74177" lon="6.68057">
        <ele>1334.1</ele>
        <time>2024-05-26T12:01:43Z</time>
      </trkpt>
      <trkpt lat="43.74176" lon="6.68057">
        <ele>1334.2</ele>
        <time>2024-05-26T12:01:44Z</time>
      </trkpt>
      <trkpt lat="43.74176" lon="6.68058">
        <ele>1334.1</ele>
        <time>2024-05-26T12:01:45Z</time>
      </trkpt>
      <trkpt lat="43.74175" lon="6.68058">
        <ele>1334.1</ele>
        <time>2024-05-26T12:01:46Z</time>
      </trkpt>
      <trkpt lat="43.74174" lon="6.68058">
        <ele>1334.2</ele>
        <time>2024-05-26T12:01:47Z</time>
      </trkpt>
      <trkpt lat="43.74173" lon="6.68058">
        <ele>1334.3</ele>
        <time>2024-05-26T12:01:48Z</time>
      </trkpt>
      <trkpt lat="43.74172" lon="6.68057">
        <ele>1334.4</ele>
        <time>2024-05-26T12:01:49Z</time>
      </trkpt>
      <trkpt lat="43.74172" lon="6.68057">
        <ele>1334.5</ele>
        <time>2024-05-26T12:01:50Z</time>
      </trkpt>
      <trkpt lat="43.74172" lon="6.68057">
        <ele>1334.6</ele>
        <time>2024-05-26T12:01:51Z</time>
      </trkpt>
      <trkpt lat="43.74171" lon="6.68057">
        <ele>1334.6</ele>
        <time>2024-05-26T12:01:52Z</time>
      </trkpt>
      <trkpt lat="43.7417" lon="6.68057">
        <ele>1334.6</ele>
        <time>2024-05-26T12:01:53Z</time>
      </trkpt>
      <trkpt lat="43.7417" lon="6.68056">
        <ele>1334.6</ele>
        <time>2024-05-26T12:01:54Z</time>
      </trkpt>
      <trkpt lat="43.74169" lon="6.68056">
        <ele>1334.7</ele>
        <time>2024-05-26T12:01:55Z</time>
      </trkpt>
      <trkpt lat="43.74168" lon="6.68056">
        <ele>1334.8</ele>
        <time>2024-05-26T12:01:56Z</time>
      </trkpt>
      <trkpt lat="43.74167" lon="6.68055">
        <ele>1334.9</ele>
        <time>2024-05-26T12:01:57Z</time>
      </trkpt>
      <trkpt lat="43.74166" lon="6.68055">
        <ele>1335</ele>
        <time>2024-05-26T12:01:58Z</time>
      </trkpt>
      <trkpt lat="43.74165" lon="6.68054">
        <ele>1335</ele>
        <time>2024-05-26T12:01:59Z</time>
      </trkpt>
      <trkpt lat="43.74164" lon="6.68054">
        <ele>1335.1</ele>
        <time>2024-05-26T12:02:00Z</time>
      </trkpt>
      <trkpt lat="43.74164" lon="6.68053">
        <ele>1335.1</ele>
        <time>2024-05-26T12:02:01Z</time>
      </trkpt>
      <trkpt lat="43.74163" lon="6.68052">
        <ele>1335.2</ele>
        <time>2024-05-26T12:02:02Z</time>
      </trkpt>
      <trkpt lat="43.74162" lon="6.68052">
        <ele>1335.2</ele>
        <time>2024-05-26T12:02:03Z</time>
      </trkpt>
      <trkpt lat="43.74161" lon="6.68051">
        <ele>1335.3</ele>
        <time>2024-05-26T12:02:04Z</time>
      </trkpt>
      <trkpt lat="43.74161" lon="6.68051">
        <ele>1335.5</ele>
        <time>2024-05-26T12:02:05Z</time>
      </trkpt>
      <trkpt lat="43.7416" lon="6.6805">
        <ele>1335.6</ele>
        <time>2024-05-26T12:02:06Z</time>
      </trkpt>
      <trkpt lat="43.7416" lon="6.6805">
        <ele>1335.8</ele>
        <time>2024-05-26T12:02:07Z</time>
      </trkpt>
      <trkpt lat="43.74159" lon="6.6805">
        <ele>1335.9</ele>
        <time>2024-05-26T12:02:08Z</time>
      </trkpt>
      <trkpt lat="43.74159" lon="6.6805">
        <ele>1336</ele>
        <time>2024-05-26T12:02:09Z</time>
      </trkpt>
      <trkpt lat="43.74158" lon="6.6805">
        <ele>1336.1</ele>
        <time>2024-05-26T12:02:10Z</time>
      </trkpt>
      <trkpt lat="43.74157" lon="6.68049">
        <ele>1336.4</ele>
        <time>2024-05-26T12:02:11Z</time>
      </trkpt>
      <trkpt lat="43.74156" lon="6.68049">
        <ele>1336.5</ele>
        <time>2024-05-26T12:02:12Z</time>
      </trkpt>
      <trkpt lat="43.74155" lon="6.68049">
        <ele>1336.5</ele>
        <time>2024-05-26T12:02:13Z</time>
      </trkpt>
      <trkpt lat="43.74154" lon="6.68049">
        <ele>1336.8</ele>
        <time>2024-05-26T12:02:14Z</time>
      </trkpt>
      <trkpt lat="43.74153" lon="6.68049">
        <ele>1337</ele>
        <time>2024-05-26T12:02:15Z</time>
      </trkpt>
      <trkpt lat="43.74152" lon="6.68049">
        <ele>1337.1</ele>
        <time>2024-05-26T12:02:16Z</time>
      </trkpt>
      <trkpt lat="43.74151" lon="6.68049">
        <ele>1337.2</ele>
        <time>2024-05-26T12:02:17Z</time>
      </trkpt>
      <trkpt lat="43.74149" lon="6.6805">
        <ele>1337.3</ele>
        <time>2024-05-26T12:02:18Z</time>
      </trkpt>
      <trkpt lat="43.74148" lon="6.68051">
        <ele>1337.4</ele>
        <time>2024-05-26T12:02:19Z</time>
      </trkpt>
      <trkpt lat="43.74148" lon="6.68051">
        <ele>1337.6</ele>
        <time>2024-05-26T12:02:20Z</time>
      </trkpt>
      <trkpt lat="43.74147" lon="6.68052">
        <ele>1337.6</ele>
        <time>2024-05-26T12:02:21Z</time>
      </trkpt>
      <trkpt lat="43.74146" lon="6.68053">
        <ele>1337.7</ele>
        <time>2024-05-26T12:02:22Z</time>
      </trkpt>
      <trkpt lat="43.74146" lon="6.68053">
        <ele>1337.9</ele>
        <time>2024-05-26T12:02:23Z</time>
      </trkpt>
      <trkpt lat="43.74145" lon="6.68054">
        <ele>1338</ele>
        <time>2024-05-26T12:02:24Z</time>
      </trkpt>
      <trkpt lat="43.74144" lon="6.68055">
        <ele>1338.1</ele>
        <time>2024-05-26T12:02:25Z</time>
      </trkpt>
      <trkpt lat="43.74144" lon="6.68056">
        <ele>1338.1</ele>
        <time>2024-05-26T12:02:26Z</time>
      </trkpt>
      <trkpt lat="43.74143" lon="6.68058">
        <ele>1338.2</ele>
        <time>2024-05-26T12:02:27Z</time>
      </trkpt>
      <trkpt lat="43.74142" lon="6.68059">
        <ele>1338.2</ele>
        <time>2024-05-26T12:02:28Z</time>
      </trkpt>
      <trkpt lat="43.74141" lon="6.68061">
        <ele>1338.2</ele>
        <time>2024-05-26T12:02:29Z</time>
      </trkpt>
      <trkpt lat="43.7414" lon="6.68063">
        <ele>1338.2</ele>
        <time>2024-05-26T12:02:30Z</time>
      </trkpt>
      <trkpt lat="43.7414" lon="6.68064">
        <ele>1338.2</ele>
        <time>2024-05-26T12:02:31Z</time>
      </trkpt>
      <trkpt lat="43.7414" lon="6.68066">
        <ele>1338.2</ele>
        <time>2024-05-26T12:02:32Z</time>
      </trkpt>
      <trkpt lat="43.74139" lon="6.68067">
        <ele>1338.2</ele>
        <time>2024-05-26T12:02:33Z</time>
      </trkpt>
      <trkpt lat="43.74139" lon="6.68069">
        <ele>1338.1</ele>
        <time>2024-05-26T12:02:34Z</time>
      </trkpt>
      <trkpt lat="43.74139" lon="6.6807">
        <ele>1338.1</ele>
        <time>2024-05-26T12:02:35Z</time>
      </trkpt>
      <trkpt lat="43.74139" lon="6.68073">
        <ele>1338.2</ele>
        <time>2024-05-26T12:02:36Z</time>
      </trkpt>
      <trkpt lat="43.74139" lon="6.68074">
        <ele>1338.2</ele>
        <time>2024-05-26T12:02:37Z</time>
      </trkpt>
      <trkpt lat="43.74139" lon="6.68076">
        <ele>1338.2</ele>
        <time>2024-05-26T12:02:38Z</time>
      </trkpt>
      <trkpt lat="43.74139" lon="6.68077">
        <ele>1338.2</ele>
        <time>2024-05-26T12:02:39Z</time>
      </trkpt>
      <trkpt lat="43.74138" lon="6.68078">
        <ele>1338.1</ele>
        <time>2024-05-26T12:02:40Z</time>
      </trkpt>
      <trkpt lat="43.74138" lon="6.68079">
        <ele>1338.1</ele>
        <time>2024-05-26T12:02:41Z</time>
      </trkpt>
      <trkpt lat="43.74138" lon="6.68081">
        <ele>1338.1</ele>
        <time>2024-05-26T12:02:42Z</time>
      </trkpt>
      <trkpt lat="43.74138" lon="6.68082">
        <ele>1338.1</ele>
        <time>2024-05-26T12:02:43Z</time>
      </trkpt>
      <trkpt lat="43.74138" lon="6.68084">
        <ele>1338.1</ele>
        <time>2024-05-26T12:02:44Z</time>
      </trkpt>
      <trkpt lat="43.74139" lon="6.68085">
        <ele>1338</ele>
        <time>2024-05-26T12:02:45Z</time>
      </trkpt>
      <trkpt lat="43.74139" lon="6.68086">
        <ele>1338</ele>
        <time>2024-05-26T12:02:46Z</time>
      </trkpt>
      <trkpt lat="43.74139" lon="6.68087">
        <ele>1337.8</ele>
        <time>2024-05-26T12:02:47Z</time>
      </trkpt>
      <trkpt lat="43.74139" lon="6.68088">
        <ele>1337.8</ele>
        <time>2024-05-26T12:02:48Z</time>
      </trkpt>
      <trkpt lat="43.74139" lon="6.68089">
        <ele>1337.8</ele>
        <time>2024-05-26T12:02:49Z</time>
      </trkpt>
      <trkpt lat="43.74139" lon="6.68091">
        <ele>1337.6</ele>
        <time>2024-05-26T12:02:50Z</time>
      </trkpt>
      <trkpt lat="43.74139" lon="6.68091">
        <ele>1337.5</ele>
        <time>2024-05-26T12:02:51Z</time>
      </trkpt>
      <trkpt lat="43.74139" lon="6.68092">
        <ele>1337.4</ele>
        <time>2024-05-26T12:02:52Z</time>
      </trkpt>
      <trkpt lat="43.74139" lon="6.68093">
        <ele>1337.2</ele>
        <time>2024-05-26T12:02:53Z</time>
      </trkpt>
      <trkpt lat="43.74138" lon="6.68094">
        <ele>1337.1</ele>
        <time>2024-05-26T12:02:54Z</time>
      </trkpt>
      <trkpt lat="43.74138" lon="6.68095">
        <ele>1337.1</ele>
        <time>2024-05-26T12:02:55Z</time>
      </trkpt>
      <trkpt lat="43.74138" lon="6.68096">
        <ele>1337</ele>
        <time>2024-05-26T12:02:56Z</time>
      </trkpt>
      <trkpt lat="43.74138" lon="6.68098">
        <ele>1336.9</ele>
        <time>2024-05-26T12:02:57Z</time>
      </trkpt>
      <trkpt lat="43.74138" lon="6.68099">
        <ele>1336.8</ele>
        <time>2024-05-26T12:02:58Z</time>
      </trkpt>
      <trkpt lat="43.74139" lon="6.681">
        <ele>1336.7</ele>
        <time>2024-05-26T12:02:59Z</time>
      </trkpt>
      <trkpt lat="43.74139" lon="6.68101">
        <ele>1336.5</ele>
        <time>2024-05-26T12:03:00Z</time>
      </trkpt>
      <trkpt lat="43.7414" lon="6.68102">
        <ele>1336.3</ele>
        <time>2024-05-26T12:03:01Z</time>
      </trkpt>
      <trkpt lat="43.7414" lon="6.68103">
        <ele>1336.2</ele>
        <time>2024-05-26T12:03:02Z</time>
      </trkpt>
      <trkpt lat="43.7414" lon="6.68104">
        <ele>1336.1</ele>
        <time>2024-05-26T12:03:03Z</time>
      </trkpt>
      <trkpt lat="43.7414" lon="6.68105">
        <ele>1336</ele>
        <time>2024-05-26T12:03:04Z</time>
      </trkpt>
      <trkpt lat="43.7414" lon="6.68106">
        <ele>1336</ele>
        <time>2024-05-26T12:03:05Z</time>
      </trkpt>
      <trkpt lat="43.74141" lon="6.68107">
        <ele>1335.8</ele>
        <time>2024-05-26T12:03:06Z</time>
      </trkpt>
      <trkpt lat="43.74141" lon="6.68108">
        <ele>1335.6</ele>
        <time>2024-05-26T12:03:07Z</time>
      </trkpt>
      <trkpt lat="43.74141" lon="6.68109">
        <ele>1335.6</ele>
        <time>2024-05-26T12:03:08Z</time>
      </trkpt>
      <trkpt lat="43.74141" lon="6.6811">
        <ele>1335.5</ele>
        <time>2024-05-26T12:03:09Z</time>
      </trkpt>
      <trkpt lat="43.74141" lon="6.68112">
        <ele>1335.5</ele>
        <time>2024-05-26T12:03:10Z</time>
      </trkpt>
      <trkpt lat="43.74141" lon="6.68113">
        <ele>1335.4</ele>
        <time>2024-05-26T12:03:11Z</time>
      </trkpt>
      <trkpt lat="43.74141" lon="6.68115">
        <ele>1335.4</ele>
        <time>2024-05-26T12:03:12Z</time>
      </trkpt>
      <trkpt lat="43.74141" lon="6.68116">
        <ele>1335.3</ele>
        <time>2024-05-26T12:03:13Z</time>
      </trkpt>
      <trkpt lat="43.74142" lon="6.68116">
        <ele>1335.3</ele>
        <time>2024-05-26T12:03:14Z</time>
      </trkpt>
      <trkpt lat="43.74142" lon="6.68117">
        <ele>1335.2</ele>
        <time>2024-05-26T12:03:15Z</time>
      </trkpt>
      <trkpt lat="43.74142" lon="6.68118">
        <ele>1335.2</ele>
        <time>2024-05-26T12:03:16Z</time>
      </trkpt>
      <trkpt lat="43.74142" lon="6.6812">
        <ele>1335.2</ele>
        <time>2024-05-26T12:03:17Z</time>
      </trkpt>
      <trkpt lat="43.74143" lon="6.68121">
        <ele>1335.2</ele>
        <time>2024-05-26T12:03:18Z</time>
      </trkpt>
      <trkpt lat="43.74144" lon="6.68122">
        <ele>1335.2</ele>
        <time>2024-05-26T12:03:19Z</time>
      </trkpt>
      <trkpt lat="43.74144" lon="6.68123">
        <ele>1335.1</ele>
        <time>2024-05-26T12:03:20Z</time>
      </trkpt>
      <trkpt lat="43.74144" lon="6.68125">
        <ele>1335.1</ele>
        <time>2024-05-26T12:03:21Z</time>
      </trkpt>
      <trkpt lat="43.74144" lon="6.68126">
        <ele>1335</ele>
        <time>2024-05-26T12:03:22Z</time>
      </trkpt>
      <trkpt lat="43.74144" lon="6.68128">
        <ele>1334.9</ele>
        <time>2024-05-26T12:03:23Z</time>
      </trkpt>
      <trkpt lat="43.74144" lon="6.68129">
        <ele>1334.9</ele>
        <time>2024-05-26T12:03:24Z</time>
      </trkpt>
      <trkpt lat="43.74144" lon="6.6813">
        <ele>1334.8</ele>
        <time>2024-05-26T12:03:25Z</time>
      </trkpt>
      <trkpt lat="43.74143" lon="6.68132">
        <ele>1334.7</ele>
        <time>2024-05-26T12:03:26Z</time>
      </trkpt>
      <trkpt lat="43.74143" lon="6.68133">
        <ele>1334.6</ele>
        <time>2024-05-26T12:03:27Z</time>
      </trkpt>
      <trkpt lat="43.74143" lon="6.68134">
        <ele>1334.5</ele>
        <time>2024-05-26T12:03:28Z</time>
      </trkpt>
      <trkpt lat="43.74142" lon="6.68135">
        <ele>1334.4</ele>
        <time>2024-05-26T12:03:29Z</time>
      </trkpt>
      <trkpt lat="43.74142" lon="6.68135">
        <ele>1334.2</ele>
        <time>2024-05-26T12:03:30Z</time>
      </trkpt>
      <trkpt lat="43.74142" lon="6.68135">
        <ele>1334.1</ele>
        <time>2024-05-26T12:03:31Z</time>
      </trkpt>
      <trkpt lat="43.74141" lon="6.68135">
        <ele>1334.2</ele>
        <time>2024-05-26T12:03:32Z</time>
      </trkpt>
      <trkpt lat="43.74141" lon="6.68136">
        <ele>1334.2</ele>
        <time>2024-05-26T12:03:33Z</time>
      </trkpt>
      <trkpt lat="43.7414" lon="6.68137">
        <ele>1334.2</ele>
        <time>2024-05-26T12:03:34Z</time>
      </trkpt>
      <trkpt lat="43.74139" lon="6.68137">
        <ele>1334</ele>
        <time>2024-05-26T12:03:35Z</time>
      </trkpt>
      <trkpt lat="43.74139" lon="6.68137">
        <ele>1333.9</ele>
        <time>2024-05-26T12:03:36Z</time>
      </trkpt>
      <trkpt lat="43.74139" lon="6.68137">
        <ele>1334</ele>
        <time>2024-05-26T12:03:37Z</time>
      </trkpt>
      <trkpt lat="43.74139" lon="6.68137">
        <ele>1334</ele>
        <time>2024-05-26T12:03:38Z</time>
      </trkpt>
      <trkpt lat="43.74139" lon="6.68137">
        <ele>1334</ele>
        <time>2024-05-26T12:03:39Z</time>
      </trkpt>
      <trkpt lat="43.74139" lon="6.68137">
        <ele>1334</ele>
        <time>2024-05-26T12:03:40Z</time>
      </trkpt>
      <trkpt lat="43.74139" lon="6.68137">
        <ele>1334</ele>
        <time>2024-05-26T12:03:41Z</time>
      </trkpt>
      <trkpt lat="43.74139" lon="6.68137">
        <ele>1334</ele>
        <time>2024-05-26T12:03:42Z</time>
      </trkpt>
      <trkpt lat="43.74139" lon="6.68138">
        <ele>1334</ele>
        <time>2024-05-26T12:03:43Z</time>
      </trkpt>
      <trkpt lat="43.7414" lon="6.68139">
        <ele>1334</ele>
        <time>2024-05-26T12:03:44Z</time>
      </trkpt>
      <trkpt lat="43.7414" lon="6.6814">
        <ele>1334.1</ele>
        <time>2024-05-26T12:03:45Z</time>
      </trkpt>
      <trkpt lat="43.7414" lon="6.6814">
        <ele>1334.1</ele>
        <time>2024-05-26T12:03:46Z</time>
      </trkpt>
      <trkpt lat="43.7414" lon="6.6814">
        <ele>1334</ele>
        <time>2024-05-26T12:03:47Z</time>
      </trkpt>
      <trkpt lat="43.7414" lon="6.6814">
        <ele>1333.9</ele>
        <time>2024-05-26T12:03:48Z</time>
      </trkpt>
      <trkpt lat="43.7414" lon="6.6814">
        <ele>1333.8</ele>
        <time>2024-05-26T12:03:49Z</time>
      </trkpt>
      <trkpt lat="43.7414" lon="6.6814">
        <ele>1333.9</ele>
        <time>2024-05-26T12:03:50Z</time>
      </trkpt>
      <trkpt lat="43.7414" lon="6.6814">
        <ele>1333.9</ele>
        <time>2024-05-26T12:03:51Z</time>
      </trkpt>
      <trkpt lat="43.7414" lon="6.6814">
        <ele>1334</ele>
        <time>2024-05-26T12:03:52Z</time>
      </trkpt>
      <trkpt lat="43.7414" lon="6.6814">
        <ele>1333.9</ele>
        <time>2024-05-26T12:03:53Z</time>
      </trkpt>
      <trkpt lat="43.7414" lon="6.68141">
        <ele>1333.9</ele>
        <time>2024-05-26T12:03:54Z</time>
      </trkpt>
      <trkpt lat="43.7414" lon="6.68141">
        <ele>1333.9</ele>
        <time>2024-05-26T12:03:55Z</time>
      </trkpt>
      <trkpt lat="43.7414" lon="6.68141">
        <ele>1333.9</ele>
        <time>2024-05-26T12:03:56Z</time>
      </trkpt>
      <trkpt lat="43.7414" lon="6.68141">
        <ele>1333.8</ele>
        <time>2024-05-26T12:03:57Z</time>
      </trkpt>
      <trkpt lat="43.7414" lon="6.68141">
        <ele>1333.8</ele>
        <time>2024-05-26T12:03:58Z</time>
      </trkpt>
      <trkpt lat="43.7414" lon="6.68141">
        <ele>1333.8</ele>
        <time>2024-05-26T12:03:59Z</time>
      </trkpt>
      <trkpt lat="43.7414" lon="6.68141">
        <ele>1333.7</ele>
        <time>2024-05-26T12:04:00Z</time>
      </trkpt>
      <trkpt lat="43.74139" lon="6.68141">
        <ele>1333.7</ele>
        <time>2024-05-26T12:04:01Z</time>
      </trkpt>
      <trkpt lat="43.74139" lon="6.6814">
        <ele>1333.7</ele>
        <time>2024-05-26T12:04:02Z</time>
      </trkpt>
      <trkpt lat="43.74139" lon="6.6814">
        <ele>1332.8</ele>
        <time>2024-05-26T12:04:03Z</time>
      </trkpt>
      <trkpt lat="43.74139" lon="6.6814">
        <ele>1333</ele>
        <time>2024-05-26T12:04:04Z</time>
      </trkpt>
      <trkpt lat="43.74138" lon="6.68141">
        <ele>1332.8</ele>
        <time>2024-05-26T12:04:05Z</time>
      </trkpt>
      <trkpt lat="43.74139" lon="6.68141">
        <ele>1332.9</ele>
        <time>2024-05-26T12:04:06Z</time>
      </trkpt>
      <trkpt lat="43.74138" lon="6.68142">
        <ele>1333</ele>
        <time>2024-05-26T12:04:07Z</time>
      </trkpt>
      <trkpt lat="43.74138" lon="6.68142">
        <ele>1333</ele>
        <time>2024-05-26T12:04:08Z</time>
      </trkpt>
      <trkpt lat="43.74138" lon="6.68142">
        <ele>1333.1</ele>
        <time>2024-05-26T12:04:09Z</time>
      </trkpt>
      <trkpt lat="43.74139" lon="6.68142">
        <ele>1333.2</ele>
        <time>2024-05-26T12:04:10Z</time>
      </trkpt>
      <trkpt lat="43.74139" lon="6.68143">
        <ele>1333.3</ele>
        <time>2024-05-26T12:04:11Z</time>
      </trkpt>
      <trkpt lat="43.74139" lon="6.68143">
        <ele>1333.4</ele>
        <time>2024-05-26T12:04:12Z</time>
      </trkpt>
      <trkpt lat="43.7414" lon="6.68143">
        <ele>1333.4</ele>
        <time>2024-05-26T12:04:13Z</time>
      </trkpt>
      <trkpt lat="43.7414" lon="6.68143">
        <ele>1333.6</ele>
        <time>2024-05-26T12:04:14Z</time>
      </trkpt>
      <trkpt lat="43.7414" lon="6.68143">
        <ele>1333.7</ele>
        <time>2024-05-26T12:04:15Z</time>
      </trkpt>
      <trkpt lat="43.7414" lon="6.68143">
        <ele>1333.8</ele>
        <time>2024-05-26T12:04:16Z</time>
      </trkpt>
      <trkpt lat="43.7414" lon="6.68143">
        <ele>1333.8</ele>
        <time>2024-05-26T12:04:17Z</time>
      </trkpt>
      <trkpt lat="43.7414" lon="6.68143">
        <ele>1333.8</ele>
        <time>2024-05-26T12:04:18Z</time>
      </trkpt>
      <trkpt lat="43.74141" lon="6.68143">
        <ele>1333.9</ele>
        <time>2024-05-26T12:04:19Z</time>
      </trkpt>
      <trkpt lat="43.7414" lon="6.68143">
        <ele>1333.9</ele>
        <time>2024-05-26T12:04:20Z</time>
      </trkpt>
      <trkpt lat="43.7414" lon="6.68143">
        <ele>1333.9</ele>
        <time>2024-05-26T12:04:21Z</time>
      </trkpt>
      <trkpt lat="43.7414" lon="6.68143">
        <ele>1334.1</ele>
        <time>2024-05-26T12:04:22Z</time>
      </trkpt>
      <trkpt lat="43.7414" lon="6.68143">
        <ele>1333.9</ele>
        <time>2024-05-26T12:04:23Z</time>
      </trkpt>
      <trkpt lat="43.74141" lon="6.68143">
        <ele>1333.9</ele>
        <time>2024-05-26T12:04:24Z</time>
      </trkpt>
      <trkpt lat="43.7414" lon="6.68143">
        <ele>1333.9</ele>
        <time>2024-05-26T12:04:25Z</time>
      </trkpt>
      <trkpt lat="43.74141" lon="6.68144">
        <ele>1333.7</ele>
        <time>2024-05-26T12:04:26Z</time>
      </trkpt>
      <trkpt lat="43.74141" lon="6.68144">
        <ele>1333.7</ele>
        <time>2024-05-26T12:04:27Z</time>
      </trkpt>
      <trkpt lat="43.74141" lon="6.68145">
        <ele>1333.5</ele>
        <time>2024-05-26T12:04:28Z</time>
      </trkpt>
      <trkpt lat="43.74141" lon="6.68145">
        <ele>1333.4</ele>
        <time>2024-05-26T12:04:29Z</time>
      </trkpt>
      <trkpt lat="43.74141" lon="6.68145">
        <ele>1333.4</ele>
        <time>2024-05-26T12:04:30Z</time>
      </trkpt>
      <trkpt lat="43.74141" lon="6.68146">
        <ele>1333.4</ele>
        <time>2024-05-26T12:04:31Z</time>
      </trkpt>
      <trkpt lat="43.74141" lon="6.68146">
        <ele>1333.4</ele>
        <time>2024-05-26T12:04:32Z</time>
      </trkpt>
      <trkpt lat="43.74141" lon="6.68145">
        <ele>1333.4</ele>
        <time>2024-05-26T12:04:33Z</time>
      </trkpt>
      <trkpt lat="43.74141" lon="6.68146">
        <ele>1333.4</ele>
        <time>2024-05-26T12:04:34Z</time>
      </trkpt>
      <trkpt lat="43.74141" lon="6.68146">
        <ele>1333.4</ele>
        <time>2024-05-26T12:04:35Z</time>
      </trkpt>
      <trkpt lat="43.74142" lon="6.68146">
        <ele>1333.4</ele>
        <time>2024-05-26T12:04:36Z</time>
      </trkpt>
      <trkpt lat="43.74142" lon="6.68146">
        <ele>1333.5</ele>
        <time>2024-05-26T12:04:37Z</time>
      </trkpt>
      <trkpt lat="43.74142" lon="6.68146">
        <ele>1333.5</ele>
        <time>2024-05-26T12:04:38Z</time>
      </trkpt>
      <trkpt lat="43.74142" lon="6.68146">
        <ele>1333.5</ele>
        <time>2024-05-26T12:04:39Z</time>
      </trkpt>
      <trkpt lat="43.74142" lon="6.68146">
        <ele>1333.4</ele>
        <time>2024-05-26T12:04:40Z</time>
      </trkpt>
      <trkpt lat="43.74142" lon="6.68146">
        <ele>1333.4</ele>
        <time>2024-05-26T12:04:41Z</time>
      </trkpt>
      <trkpt lat="43.74142" lon="6.68146">
        <ele>1333.4</ele>
        <time>2024-05-26T12:04:42Z</time>
      </trkpt>
      <trkpt lat="43.74142" lon="6.68146">
        <ele>1333.4</ele>
        <time>2024-05-26T12:04:43Z</time>
      </trkpt>
      <trkpt lat="43.74142" lon="6.68145">
        <ele>1333.3</ele>
        <time>2024-05-26T12:04:44Z</time>
      </trkpt>
      <trkpt lat="43.74142" lon="6.68145">
        <ele>1333.4</ele>
        <time>2024-05-26T12:04:45Z</time>
      </trkpt>
      <trkpt lat="43.74142" lon="6.68145">
        <ele>1333.3</ele>
        <time>2024-05-26T12:04:46Z</time>
      </trkpt>
      <trkpt lat="43.74142" lon="6.68145">
        <ele>1333.3</ele>
        <time>2024-05-26T12:04:47Z</time>
      </trkpt>
      <trkpt lat="43.74142" lon="6.68145">
        <ele>1333.3</ele>
        <time>2024-05-26T12:04:48Z</time>
      </trkpt>
      <trkpt lat="43.74142" lon="6.68145">
        <ele>1333.3</ele>
        <time>2024-05-26T12:04:49Z</time>
      </trkpt>
      <trkpt lat="43.74142" lon="6.68145">
        <ele>1333.3</ele>
        <time>2024-05-26T12:04:50Z</time>
      </trkpt>
      <trkpt lat="43.74142" lon="6.68145">
        <ele>1333.3</ele>
        <time>2024-05-26T12:04:51Z</time>
      </trkpt>
      <trkpt lat="43.74142" lon="6.68145">
        <ele>1333.4</ele>
        <time>2024-05-26T12:04:52Z</time>
      </trkpt>
      <trkpt lat="43.74142" lon="6.68145">
        <ele>1333.5</ele>
        <time>2024-05-26T12:04:53Z</time>
      </trkpt>
      <trkpt lat="43.74142" lon="6.68146">
        <ele>1333.6</ele>
        <time>2024-05-26T12:04:54Z</time>
      </trkpt>
      <trkpt lat="43.74142" lon="6.68146">
        <ele>1333.6</ele>
        <time>2024-05-26T12:04:55Z</time>
      </trkpt>
      <trkpt lat="43.74142" lon="6.68146">
        <ele>1333.6</ele>
        <time>2024-05-26T12:04:56Z</time>
      </trkpt>
      <trkpt lat="43.74142" lon="6.68146">
        <ele>1333.5</ele>
        <time>2024-05-26T12:04:57Z</time>
      </trkpt>
      <trkpt lat="43.74142" lon="6.68146">
        <ele>1333.5</ele>
        <time>2024-05-26T12:04:58Z</time>
      </trkpt>
      <trkpt lat="43.74142" lon="6.68146">
        <ele>1333.5</ele>
        <time>2024-05-26T12:04:59Z</time>
      </trkpt>
      <trkpt lat="43.74142" lon="6.68146">
        <ele>1333.5</ele>
        <time>2024-05-26T12:05:00Z</time>
      </trkpt>
      <trkpt lat="43.74142" lon="6.68146">
        <ele>1333.4</ele>
        <time>2024-05-26T12:05:01Z</time>
      </trkpt>
      <trkpt lat="43.74142" lon="6.68146">
        <ele>1333.4</ele>
        <time>2024-05-26T12:05:02Z</time>
      </trkpt>
      <trkpt lat="43.74142" lon="6.68145">
        <ele>1333.4</ele>
        <time>2024-05-26T12:05:03Z</time>
      </trkpt>
      <trkpt lat="43.74142" lon="6.68145">
        <ele>1333.6</ele>
        <time>2024-05-26T12:05:04Z</time>
      </trkpt>
      <trkpt lat="43.74141" lon="6.68145">
        <ele>1333.7</ele>
        <time>2024-05-26T12:05:05Z</time>
      </trkpt>
      <trkpt lat="43.74141" lon="6.68145">
        <ele>1333.7</ele>
        <time>2024-05-26T12:05:06Z</time>
      </trkpt>
      <trkpt lat="43.7414" lon="6.68145">
        <ele>1333.7</ele>
        <time>2024-05-26T12:05:07Z</time>
      </trkpt>
      <trkpt lat="43.7414" lon="6.68146">
        <ele>1333.7</ele>
        <time>2024-05-26T12:05:08Z</time>
      </trkpt>
      <trkpt lat="43.7414" lon="6.68146">
        <ele>1333.7</ele>
        <time>2024-05-26T12:05:09Z</time>
      </trkpt>
      <trkpt lat="43.7414" lon="6.68146">
        <ele>1333.6</ele>
        <time>2024-05-26T12:05:10Z</time>
      </trkpt>
      <trkpt lat="43.7414" lon="6.68147">
        <ele>1333.6</ele>
        <time>2024-05-26T12:05:11Z</time>
      </trkpt>
      <trkpt lat="43.7414" lon="6.68147">
        <ele>1333.5</ele>
        <time>2024-05-26T12:05:12Z</time>
      </trkpt>
      <trkpt lat="43.7414" lon="6.68148">
        <ele>1333.4</ele>
        <time>2024-05-26T12:05:13Z</time>
      </trkpt>
      <trkpt lat="43.74141" lon="6.68149">
        <ele>1333.2</ele>
        <time>2024-05-26T12:05:14Z</time>
      </trkpt>
      <trkpt lat="43.74141" lon="6.6815">
        <ele>1333.2</ele>
        <time>2024-05-26T12:05:15Z</time>
      </trkpt>
      <trkpt lat="43.74142" lon="6.68151">
        <ele>1333.2</ele>
        <time>2024-05-26T12:05:16Z</time>
      </trkpt>
      <trkpt lat="43.74142" lon="6.68151">
        <ele>1333</ele>
        <time>2024-05-26T12:05:17Z</time>
      </trkpt>
      <trkpt lat="43.74143" lon="6.68152">
        <ele>1332.8</ele>
        <time>2024-05-26T12:05:18Z</time>
      </trkpt>
      <trkpt lat="43.74143" lon="6.68153">
        <ele>1332.7</ele>
        <time>2024-05-26T12:05:19Z</time>
      </trkpt>
      <trkpt lat="43.74143" lon="6.68154">
        <ele>1332.5</ele>
        <time>2024-05-26T12:05:20Z</time>
      </trkpt>
      <trkpt lat="43.74143" lon="6.68155">
        <ele>1332.3</ele>
        <time>2024-05-26T12:05:21Z</time>
      </trkpt>
      <trkpt lat="43.74143" lon="6.68156">
        <ele>1332.2</ele>
        <time>2024-05-26T12:05:22Z</time>
      </trkpt>
      <trkpt lat="43.74143" lon="6.68156">
        <ele>1332</ele>
        <time>2024-05-26T12:05:23Z</time>
      </trkpt>
      <trkpt lat="43.74143" lon="6.68157">
        <ele>1331.9</ele>
        <time>2024-05-26T12:05:24Z</time>
      </trkpt>
      <trkpt lat="43.74142" lon="6.68158">
        <ele>1331.7</ele>
        <time>2024-05-26T12:05:25Z</time>
      </trkpt>
      <trkpt lat="43.74142" lon="6.6816">
        <ele>1331.5</ele>
        <time>2024-05-26T12:05:26Z</time>
      </trkpt>
      <trkpt lat="43.74141" lon="6.6816">
        <ele>1331.3</ele>
        <time>2024-05-26T12:05:27Z</time>
      </trkpt>
      <trkpt lat="43.74141" lon="6.68161">
        <ele>1331</ele>
        <time>2024-05-26T12:05:28Z</time>
      </trkpt>
      <trkpt lat="43.74141" lon="6.68162">
        <ele>1330.8</ele>
        <time>2024-05-26T12:05:29Z</time>
      </trkpt>
      <trkpt lat="43.74141" lon="6.68163">
        <ele>1330.6</ele>
        <time>2024-05-26T12:05:30Z</time>
      </trkpt>
      <trkpt lat="43.7414" lon="6.68162">
        <ele>1330.5</ele>
        <time>2024-05-26T12:05:31Z</time>
      </trkpt>
      <trkpt lat="43.7414" lon="6.68162">
        <ele>1330.2</ele>
        <time>2024-05-26T12:05:32Z</time>
      </trkpt>
      <trkpt lat="43.74139" lon="6.68162">
        <ele>1330.1</ele>
        <time>2024-05-26T12:05:33Z</time>
      </trkpt>
      <trkpt lat="43.74139" lon="6.68162">
        <ele>1329.9</ele>
        <time>2024-05-26T12:05:34Z</time>
      </trkpt>
      <trkpt lat="43.74139" lon="6.68162">
        <ele>1329.9</ele>
        <time>2024-05-26T12:05:35Z</time>
      </trkpt>
      <trkpt lat="43.74139" lon="6.68162">
        <ele>1329.7</ele>
        <time>2024-05-26T12:05:36Z</time>
      </trkpt>
      <trkpt lat="43.7414" lon="6.68162">
        <ele>1329.6</ele>
        <time>2024-05-26T12:05:37Z</time>
      </trkpt>
      <trkpt lat="43.74139" lon="6.68162">
        <ele>1329.6</ele>
        <time>2024-05-26T12:05:38Z</time>
      </trkpt>
      <trkpt lat="43.74139" lon="6.68162">
        <ele>1329.6</ele>
        <time>2024-05-26T12:05:39Z</time>
      </trkpt>
      <trkpt lat="43.74138" lon="6.68161">
        <ele>1329.4</ele>
        <time>2024-05-26T12:05:40Z</time>
      </trkpt>
      <trkpt lat="43.74138" lon="6.68161">
        <ele>1329.3</ele>
        <time>2024-05-26T12:05:41Z</time>
      </trkpt>
      <trkpt lat="43.74137" lon="6.68161">
        <ele>1329.2</ele>
        <time>2024-05-26T12:05:42Z</time>
      </trkpt>
      <trkpt lat="43.74137" lon="6.68162">
        <ele>1329.1</ele>
        <time>2024-05-26T12:05:43Z</time>
      </trkpt>
      <trkpt lat="43.74137" lon="6.68162">
        <ele>1328.9</ele>
        <time>2024-05-26T12:05:44Z</time>
      </trkpt>
      <trkpt lat="43.74137" lon="6.68161">
        <ele>1329</ele>
        <time>2024-05-26T12:05:45Z</time>
      </trkpt>
      <trkpt lat="43.74137" lon="6.68161">
        <ele>1328.9</ele>
        <time>2024-05-26T12:05:46Z</time>
      </trkpt>
      <trkpt lat="43.74137" lon="6.68161">
        <ele>1328.7</ele>
        <time>2024-05-26T12:05:47Z</time>
      </trkpt>
      <trkpt lat="43.74137" lon="6.68161">
        <ele>1328.6</ele>
        <time>2024-05-26T12:05:48Z</time>
      </trkpt>
      <trkpt lat="43.74136" lon="6.68161">
        <ele>1328.6</ele>
        <time>2024-05-26T12:05:49Z</time>
      </trkpt>
      <trkpt lat="43.74137" lon="6.6816">
        <ele>1328.7</ele>
        <time>2024-05-26T12:05:50Z</time>
      </trkpt>
      <trkpt lat="43.74136" lon="6.6816">
        <ele>1328.9</ele>
        <time>2024-05-26T12:05:51Z</time>
      </trkpt>
      <trkpt lat="43.74136" lon="6.6816">
        <ele>1328.9</ele>
        <time>2024-05-26T12:05:52Z</time>
      </trkpt>
      <trkpt lat="43.74136" lon="6.6816">
        <ele>1328.9</ele>
        <time>2024-05-26T12:05:53Z</time>
      </trkpt>
      <trkpt lat="43.74136" lon="6.6816">
        <ele>1328.9</ele>
        <time>2024-05-26T12:05:54Z</time>
      </trkpt>
      <trkpt lat="43.74136" lon="6.6816">
        <ele>1328.7</ele>
        <time>2024-05-26T12:05:55Z</time>
      </trkpt>
      <trkpt lat="43.74136" lon="6.6816">
        <ele>1328.7</ele>
        <time>2024-05-26T12:05:56Z</time>
      </trkpt>
      <trkpt lat="43.74136" lon="6.6816">
        <ele>1328.6</ele>
        <time>2024-05-26T12:05:57Z</time>
      </trkpt>
      <trkpt lat="43.74136" lon="6.6816">
        <ele>1328.6</ele>
        <time>2024-05-26T12:05:58Z</time>
      </trkpt>
      <trkpt lat="43.74136" lon="6.6816">
        <ele>1328.5</ele>
        <time>2024-05-26T12:05:59Z</time>
      </trkpt>
      <trkpt lat="43.74136" lon="6.6816">
        <ele>1328.4</ele>
        <time>2024-05-26T12:06:00Z</time>
      </trkpt>
      <trkpt lat="43.74136" lon="6.6816">
        <ele>1328.3</ele>
        <time>2024-05-26T12:06:01Z</time>
      </trkpt>
      <trkpt lat="43.74136" lon="6.6816">
        <ele>1328.3</ele>
        <time>2024-05-26T12:06:02Z</time>
      </trkpt>
      <trkpt lat="43.74136" lon="6.6816">
        <ele>1328.2</ele>
        <time>2024-05-26T12:06:03Z</time>
      </trkpt>
      <trkpt lat="43.74136" lon="6.68159">
        <ele>1328.1</ele>
        <time>2024-05-26T12:06:04Z</time>
      </trkpt>
      <trkpt lat="43.74136" lon="6.68158">
        <ele>1328.1</ele>
        <time>2024-05-26T12:06:05Z</time>
      </trkpt>
      <trkpt lat="43.74136" lon="6.68157">
        <ele>1328</ele>
        <time>2024-05-26T12:06:06Z</time>
      </trkpt>
      <trkpt lat="43.74136" lon="6.68156">
        <ele>1328</ele>
        <time>2024-05-26T12:06:07Z</time>
      </trkpt>
      <trkpt lat="43.74135" lon="6.68156">
        <ele>1328</ele>
        <time>2024-05-26T12:06:08Z</time>
      </trkpt>
      <trkpt lat="43.74135" lon="6.68156">
        <ele>1328</ele>
        <time>2024-05-26T12:06:09Z</time>
      </trkpt>
      <trkpt lat="43.74135" lon="6.68156">
        <ele>1328.1</ele>
        <time>2024-05-26T12:06:10Z</time>
      </trkpt>
      <trkpt lat="43.74135" lon="6.68155">
        <ele>1328</ele>
        <time>2024-05-26T12:06:11Z</time>
      </trkpt>
      <trkpt lat="43.74135" lon="6.68155">
        <ele>1328</ele>
        <time>2024-05-26T12:06:12Z</time>
      </trkpt>
      <trkpt lat="43.74135" lon="6.68155">
        <ele>1328.1</ele>
        <time>2024-05-26T12:06:13Z</time>
      </trkpt>
      <trkpt lat="43.74135" lon="6.68155">
        <ele>1328.2</ele>
        <time>2024-05-26T12:06:14Z</time>
      </trkpt>
      <trkpt lat="43.74135" lon="6.68155">
        <ele>1328.2</ele>
        <time>2024-05-26T12:06:15Z</time>
      </trkpt>
      <trkpt lat="43.74135" lon="6.68155">
        <ele>1328.2</ele>
        <time>2024-05-26T12:06:16Z</time>
      </trkpt>
      <trkpt lat="43.74135" lon="6.68155">
        <ele>1328.3</ele>
        <time>2024-05-26T12:06:17Z</time>
      </trkpt>
      <trkpt lat="43.74135" lon="6.68155">
        <ele>1328.3</ele>
        <time>2024-05-26T12:06:18Z</time>
      </trkpt>
      <trkpt lat="43.74135" lon="6.68155">
        <ele>1328.4</ele>
        <time>2024-05-26T12:06:19Z</time>
      </trkpt>
      <trkpt lat="43.74136" lon="6.68155">
        <ele>1328.4</ele>
        <time>2024-05-26T12:06:20Z</time>
      </trkpt>
      <trkpt lat="43.74136" lon="6.68155">
        <ele>1328.3</ele>
        <time>2024-05-26T12:06:21Z</time>
      </trkpt>
      <trkpt lat="43.74136" lon="6.68155">
        <ele>1328.4</ele>
        <time>2024-05-26T12:06:22Z</time>
      </trkpt>
      <trkpt lat="43.74136" lon="6.68155">
        <ele>1328.3</ele>
        <time>2024-05-26T12:06:23Z</time>
      </trkpt>
      <trkpt lat="43.74136" lon="6.68155">
        <ele>1328.2</ele>
        <time>2024-05-26T12:06:24Z</time>
      </trkpt>
      <trkpt lat="43.74136" lon="6.68155">
        <ele>1328.2</ele>
        <time>2024-05-26T12:06:25Z</time>
      </trkpt>
      <trkpt lat="43.74136" lon="6.68154">
        <ele>1328.1</ele>
        <time>2024-05-26T12:06:26Z</time>
      </trkpt>
      <trkpt lat="43.74135" lon="6.68154">
        <ele>1328</ele>
        <time>2024-05-26T12:06:27Z</time>
      </trkpt>
      <trkpt lat="43.74135" lon="6.68154">
        <ele>1327.9</ele>
        <time>2024-05-26T12:06:28Z</time>
      </trkpt>
      <trkpt lat="43.74135" lon="6.68154">
        <ele>1327.9</ele>
        <time>2024-05-26T12:06:29Z</time>
      </trkpt>
      <trkpt lat="43.74135" lon="6.68154">
        <ele>1328</ele>
        <time>2024-05-26T12:06:30Z</time>
      </trkpt>
      <trkpt lat="43.74135" lon="6.68154">
        <ele>1328</ele>
        <time>2024-05-26T12:06:31Z</time>
      </trkpt>
      <trkpt lat="43.74135" lon="6.68154">
        <ele>1328</ele>
        <time>2024-05-26T12:06:32Z</time>
      </trkpt>
      <trkpt lat="43.74135" lon="6.68154">
        <ele>1328</ele>
        <time>2024-05-26T12:06:33Z</time>
      </trkpt>
      <trkpt lat="43.74135" lon="6.68154">
        <ele>1328</ele>
        <time>2024-05-26T12:06:34Z</time>
      </trkpt>
      <trkpt lat="43.74135" lon="6.68154">
        <ele>1328.1</ele>
        <time>2024-05-26T12:06:35Z</time>
      </trkpt>
      <trkpt lat="43.74135" lon="6.68154">
        <ele>1328.3</ele>
        <time>2024-05-26T12:06:36Z</time>
      </trkpt>
      <trkpt lat="43.74135" lon="6.68154">
        <ele>1328.4</ele>
        <time>2024-05-26T12:06:37Z</time>
      </trkpt>
      <trkpt lat="43.74135" lon="6.68154">
        <ele>1328.4</ele>
        <time>2024-05-26T12:06:38Z</time>
      </trkpt>
      <trkpt lat="43.74135" lon="6.68154">
        <ele>1328.3</ele>
        <time>2024-05-26T12:06:39Z</time>
      </trkpt>
      <trkpt lat="43.74135" lon="6.68154">
        <ele>1328.3</ele>
        <time>2024-05-26T12:06:40Z</time>
      </trkpt>
      <trkpt lat="43.74135" lon="6.68154">
        <ele>1328.3</ele>
        <time>2024-05-26T12:06:41Z</time>
      </trkpt>
      <trkpt lat="43.74135" lon="6.68154">
        <ele>1328.2</ele>
        <time>2024-05-26T12:06:42Z</time>
      </trkpt>
      <trkpt lat="43.74135" lon="6.68154">
        <ele>1328.2</ele>
        <time>2024-05-26T12:06:43Z</time>
      </trkpt>
      <trkpt lat="43.74135" lon="6.68154">
        <ele>1328.1</ele>
        <time>2024-05-26T12:06:44Z</time>
      </trkpt>
      <trkpt lat="43.74135" lon="6.68155">
        <ele>1328</ele>
        <time>2024-05-26T12:06:45Z</time>
      </trkpt>
      <trkpt lat="43.74135" lon="6.68155">
        <ele>1328.1</ele>
        <time>2024-05-26T12:06:46Z</time>
      </trkpt>
      <trkpt lat="43.74135" lon="6.68156">
        <ele>1328.1</ele>
        <time>2024-05-26T12:06:47Z</time>
      </trkpt>
      <trkpt lat="43.74136" lon="6.68156">
        <ele>1328.1</ele>
        <time>2024-05-26T12:06:48Z</time>
      </trkpt>
      <trkpt lat="43.74136" lon="6.68157">
        <ele>1328.1</ele>
        <time>2024-05-26T12:06:49Z</time>
      </trkpt>
      <trkpt lat="43.74136" lon="6.68157">
        <ele>1328.2</ele>
        <time>2024-05-26T12:06:50Z</time>
      </trkpt>
      <trkpt lat="43.74136" lon="6.68157">
        <ele>1328.3</ele>
        <time>2024-05-26T12:06:51Z</time>
      </trkpt>
      <trkpt lat="43.74136" lon="6.68157">
        <ele>1328.2</ele>
        <time>2024-05-26T12:06:52Z</time>
      </trkpt>
      <trkpt lat="43.74137" lon="6.68158">
        <ele>1328.2</ele>
        <time>2024-05-26T12:06:53Z</time>
      </trkpt>
      <trkpt lat="43.74137" lon="6.68159">
        <ele>1328.3</ele>
        <time>2024-05-26T12:06:54Z</time>
      </trkpt>
      <trkpt lat="43.74138" lon="6.6816">
        <ele>1328.2</ele>
        <time>2024-05-26T12:06:55Z</time>
      </trkpt>
      <trkpt lat="43.74138" lon="6.6816">
        <ele>1328.3</ele>
        <time>2024-05-26T12:06:56Z</time>
      </trkpt>
      <trkpt lat="43.74139" lon="6.68161">
        <ele>1328.3</ele>
        <time>2024-05-26T12:06:57Z</time>
      </trkpt>
      <trkpt lat="43.7414" lon="6.68161">
        <ele>1328.3</ele>
        <time>2024-05-26T12:06:58Z</time>
      </trkpt>
      <trkpt lat="43.7414" lon="6.68161">
        <ele>1328.4</ele>
        <time>2024-05-26T12:06:59Z</time>
      </trkpt>
      <trkpt lat="43.74141" lon="6.68161">
        <ele>1328.4</ele>
        <time>2024-05-26T12:07:00Z</time>
      </trkpt>
      <trkpt lat="43.74142" lon="6.68162">
        <ele>1328.5</ele>
        <time>2024-05-26T12:07:01Z</time>
      </trkpt>
      <trkpt lat="43.74142" lon="6.68162">
        <ele>1328.6</ele>
        <time>2024-05-26T12:07:02Z</time>
      </trkpt>
      <trkpt lat="43.74143" lon="6.68162">
        <ele>1328.7</ele>
        <time>2024-05-26T12:07:03Z</time>
      </trkpt>
      <trkpt lat="43.74143" lon="6.68162">
        <ele>1328.8</ele>
        <time>2024-05-26T12:07:04Z</time>
      </trkpt>
      <trkpt lat="43.74143" lon="6.68162">
        <ele>1328.9</ele>
        <time>2024-05-26T12:07:05Z</time>
      </trkpt>
      <trkpt lat="43.74143" lon="6.68162">
        <ele>1328.9</ele>
        <time>2024-05-26T12:07:06Z</time>
      </trkpt>
      <trkpt lat="43.74143" lon="6.68162">
        <ele>1329</ele>
        <time>2024-05-26T12:07:07Z</time>
      </trkpt>
      <trkpt lat="43.74143" lon="6.68162">
        <ele>1329.1</ele>
        <time>2024-05-26T12:07:08Z</time>
      </trkpt>
      <trkpt lat="43.74143" lon="6.68162">
        <ele>1329.1</ele>
        <time>2024-05-26T12:07:09Z</time>
      </trkpt>
      <trkpt lat="43.74144" lon="6.68163">
        <ele>1329.1</ele>
        <time>2024-05-26T12:07:10Z</time>
      </trkpt>
      <trkpt lat="43.74144" lon="6.68163">
        <ele>1329.2</ele>
        <time>2024-05-26T12:07:11Z</time>
      </trkpt>
      <trkpt lat="43.74144" lon="6.68163">
        <ele>1329.4</ele>
        <time>2024-05-26T12:07:12Z</time>
      </trkpt>
      <trkpt lat="43.74145" lon="6.68163">
        <ele>1329.5</ele>
        <time>2024-05-26T12:07:13Z</time>
      </trkpt>
      <trkpt lat="43.74145" lon="6.68163">
        <ele>1329.6</ele>
        <time>2024-05-26T12:07:14Z</time>
      </trkpt>
      <trkpt lat="43.74145" lon="6.68163">
        <ele>1329.7</ele>
        <time>2024-05-26T12:07:15Z</time>
      </trkpt>
      <trkpt lat="43.74145" lon="6.68163">
        <ele>1329.8</ele>
        <time>2024-05-26T12:07:16Z</time>
      </trkpt>
      <trkpt lat="43.74145" lon="6.68163">
        <ele>1329.8</ele>
        <time>2024-05-26T12:07:17Z</time>
      </trkpt>
      <trkpt lat="43.74145" lon="6.68163">
        <ele>1329.9</ele>
        <time>2024-05-26T12:07:18Z</time>
      </trkpt>
      <trkpt lat="43.74145" lon="6.68163">
        <ele>1330</ele>
        <time>2024-05-26T12:07:19Z</time>
      </trkpt>
      <trkpt lat="43.74145" lon="6.68163">
        <ele>1330.1</ele>
        <time>2024-05-26T12:07:20Z</time>
      </trkpt>
      <trkpt lat="43.74145" lon="6.68163">
        <ele>1330.1</ele>
        <time>2024-05-26T12:07:21Z</time>
      </trkpt>
      <trkpt lat="43.74145" lon="6.68163">
        <ele>1330.2</ele>
        <time>2024-05-26T12:07:22Z</time>
      </trkpt>
      <trkpt lat="43.74146" lon="6.68162">
        <ele>1330.3</ele>
        <time>2024-05-26T12:07:23Z</time>
      </trkpt>
      <trkpt lat="43.74146" lon="6.68162">
        <ele>1330.5</ele>
        <time>2024-05-26T12:07:24Z</time>
      </trkpt>
      <trkpt lat="43.74146" lon="6.68162">
        <ele>1330.6</ele>
        <time>2024-05-26T12:07:25Z</time>
      </trkpt>
      <trkpt lat="43.74146" lon="6.68162">
        <ele>1330.8</ele>
        <time>2024-05-26T12:07:26Z</time>
      </trkpt>
      <trkpt lat="43.74146" lon="6.68162">
        <ele>1330.9</ele>
        <time>2024-05-26T12:07:27Z</time>
      </trkpt>
      <trkpt lat="43.74146" lon="6.68161">
        <ele>1331</ele>
        <time>2024-05-26T12:07:28Z</time>
      </trkpt>
      <trkpt lat="43.74147" lon="6.68161">
        <ele>1331.1</ele>
        <time>2024-05-26T12:07:29Z</time>
      </trkpt>
      <trkpt lat="43.74147" lon="6.68161">
        <ele>1331.2</ele>
        <time>2024-05-26T12:07:30Z</time>
      </trkpt>
      <trkpt lat="43.74147" lon="6.68161">
        <ele>1331.2</ele>
        <time>2024-05-26T12:07:31Z</time>
      </trkpt>
      <trkpt lat="43.74147" lon="6.68161">
        <ele>1331.3</ele>
        <time>2024-05-26T12:07:32Z</time>
      </trkpt>
      <trkpt lat="43.74147" lon="6.68161">
        <ele>1331.4</ele>
        <time>2024-05-26T12:07:33Z</time>
      </trkpt>
      <trkpt lat="43.74147" lon="6.68161">
        <ele>1331.4</ele>
        <time>2024-05-26T12:07:34Z</time>
      </trkpt>
      <trkpt lat="43.74147" lon="6.68162">
        <ele>1331.4</ele>
        <time>2024-05-26T12:07:35Z</time>
      </trkpt>
      <trkpt lat="43.74148" lon="6.68162">
        <ele>1331.4</ele>
        <time>2024-05-26T12:07:36Z</time>
      </trkpt>
      <trkpt lat="43.74148" lon="6.68162">
        <ele>1331.3</ele>
        <time>2024-05-26T12:07:37Z</time>
      </trkpt>
      <trkpt lat="43.74149" lon="6.68162">
        <ele>1331.3</ele>
        <time>2024-05-26T12:07:38Z</time>
      </trkpt>
      <trkpt lat="43.74149" lon="6.68162">
        <ele>1331.1</ele>
        <time>2024-05-26T12:07:39Z</time>
      </trkpt>
      <trkpt lat="43.7415" lon="6.68162">
        <ele>1331</ele>
        <time>2024-05-26T12:07:40Z</time>
      </trkpt>
      <trkpt lat="43.7415" lon="6.68163">
        <ele>1331</ele>
        <time>2024-05-26T12:07:41Z</time>
      </trkpt>
      <trkpt lat="43.74151" lon="6.68164">
        <ele>1330.9</ele>
        <time>2024-05-26T12:07:42Z</time>
      </trkpt>
      <trkpt lat="43.74151" lon="6.68164">
        <ele>1330.8</ele>
        <time>2024-05-26T12:07:43Z</time>
      </trkpt>
      <trkpt lat="43.74151" lon="6.68164">
        <ele>1330.8</ele>
        <time>2024-05-26T12:07:44Z</time>
      </trkpt>
      <trkpt lat="43.74151" lon="6.68165">
        <ele>1330.9</ele>
        <time>2024-05-26T12:07:45Z</time>
      </trkpt>
      <trkpt lat="43.74151" lon="6.68165">
        <ele>1331</ele>
        <time>2024-05-26T12:07:46Z</time>
      </trkpt>
      <trkpt lat="43.74152" lon="6.68165">
        <ele>1331.1</ele>
        <time>2024-05-26T12:07:47Z</time>
      </trkpt>
      <trkpt lat="43.74152" lon="6.68165">
        <ele>1331.1</ele>
        <time>2024-05-26T12:07:48Z</time>
      </trkpt>
      <trkpt lat="43.74153" lon="6.68165">
        <ele>1331.2</ele>
        <time>2024-05-26T12:07:49Z</time>
      </trkpt>
      <trkpt lat="43.74153" lon="6.68165">
        <ele>1331.3</ele>
        <time>2024-05-26T12:07:50Z</time>
      </trkpt>
      <trkpt lat="43.74154" lon="6.68165">
        <ele>1331.5</ele>
        <time>2024-05-26T12:07:51Z</time>
      </trkpt>
      <trkpt lat="43.74154" lon="6.68165">
        <ele>1331.6</ele>
        <time>2024-05-26T12:07:52Z</time>
      </trkpt>
      <trkpt lat="43.74155" lon="6.68165">
        <ele>1331.6</ele>
        <time>2024-05-26T12:07:53Z</time>
      </trkpt>
      <trkpt lat="43.74156" lon="6.68165">
        <ele>1331.5</ele>
        <time>2024-05-26T12:07:54Z</time>
      </trkpt>
      <trkpt lat="43.74157" lon="6.68165">
        <ele>1331.5</ele>
        <time>2024-05-26T12:07:55Z</time>
      </trkpt>
      <trkpt lat="43.74157" lon="6.68164">
        <ele>1331.4</ele>
        <time>2024-05-26T12:07:56Z</time>
      </trkpt>
      <trkpt lat="43.74158" lon="6.68164">
        <ele>1331.3</ele>
        <time>2024-05-26T12:07:57Z</time>
      </trkpt>
      <trkpt lat="43.74158" lon="6.68164">
        <ele>1331.2</ele>
        <time>2024-05-26T12:07:58Z</time>
      </trkpt>
      <trkpt lat="43.74159" lon="6.68164">
        <ele>1331.2</ele>
        <time>2024-05-26T12:07:59Z</time>
      </trkpt>
      <trkpt lat="43.74159" lon="6.68166">
        <ele>1331.2</ele>
        <time>2024-05-26T12:08:00Z</time>
      </trkpt>
      <trkpt lat="43.74159" lon="6.68166">
        <ele>1331.1</ele>
        <time>2024-05-26T12:08:01Z</time>
      </trkpt>
      <trkpt lat="43.74159" lon="6.68166">
        <ele>1331.1</ele>
        <time>2024-05-26T12:08:02Z</time>
      </trkpt>
      <trkpt lat="43.74159" lon="6.68166">
        <ele>1331.1</ele>
        <time>2024-05-26T12:08:03Z</time>
      </trkpt>
      <trkpt lat="43.74159" lon="6.68167">
        <ele>1331</ele>
        <time>2024-05-26T12:08:04Z</time>
      </trkpt>
      <trkpt lat="43.74159" lon="6.68167">
        <ele>1330.8</ele>
        <time>2024-05-26T12:08:05Z</time>
      </trkpt>
      <trkpt lat="43.74159" lon="6.68168">
        <ele>1330.6</ele>
        <time>2024-05-26T12:08:06Z</time>
      </trkpt>
      <trkpt lat="43.74158" lon="6.6817">
        <ele>1330.5</ele>
        <time>2024-05-26T12:08:07Z</time>
      </trkpt>
      <trkpt lat="43.74159" lon="6.68171">
        <ele>1330.4</ele>
        <time>2024-05-26T12:08:08Z</time>
      </trkpt>
      <trkpt lat="43.74159" lon="6.68172">
        <ele>1330.3</ele>
        <time>2024-05-26T12:08:09Z</time>
      </trkpt>
      <trkpt lat="43.74159" lon="6.68172">
        <ele>1330.2</ele>
        <time>2024-05-26T12:08:10Z</time>
      </trkpt>
      <trkpt lat="43.7416" lon="6.68172">
        <ele>1330.2</ele>
        <time>2024-05-26T12:08:11Z</time>
      </trkpt>
      <trkpt lat="43.7416" lon="6.68172">
        <ele>1330.2</ele>
        <time>2024-05-26T12:08:12Z</time>
      </trkpt>
      <trkpt lat="43.7416" lon="6.68173">
        <ele>1330.3</ele>
        <time>2024-05-26T12:08:13Z</time>
      </trkpt>
      <trkpt lat="43.7416" lon="6.68174">
        <ele>1330.2</ele>
        <time>2024-05-26T12:08:14Z</time>
      </trkpt>
      <trkpt lat="43.74159" lon="6.68175">
        <ele>1330</ele>
        <time>2024-05-26T12:08:15Z</time>
      </trkpt>
      <trkpt lat="43.7416" lon="6.68175">
        <ele>1329.9</ele>
        <time>2024-05-26T12:08:16Z</time>
      </trkpt>
      <trkpt lat="43.7416" lon="6.68176">
        <ele>1329.9</ele>
        <time>2024-05-26T12:08:17Z</time>
      </trkpt>
      <trkpt lat="43.7416" lon="6.68176">
        <ele>1330</ele>
        <time>2024-05-26T12:08:18Z</time>
      </trkpt>
      <trkpt lat="43.7416" lon="6.68177">
        <ele>1330</ele>
        <time>2024-05-26T12:08:19Z</time>
      </trkpt>
      <trkpt lat="43.74159" lon="6.68178">
        <ele>1330.1</ele>
        <time>2024-05-26T12:08:20Z</time>
      </trkpt>
      <trkpt lat="43.7416" lon="6.68179">
        <ele>1330.2</ele>
        <time>2024-05-26T12:08:21Z</time>
      </trkpt>
      <trkpt lat="43.7416" lon="6.68178">
        <ele>1330.2</ele>
        <time>2024-05-26T12:08:22Z</time>
      </trkpt>
      <trkpt lat="43.74159" lon="6.68179">
        <ele>1330.1</ele>
        <time>2024-05-26T12:08:23Z</time>
      </trkpt>
      <trkpt lat="43.74159" lon="6.68179">
        <ele>1330.1</ele>
        <time>2024-05-26T12:08:24Z</time>
      </trkpt>
      <trkpt lat="43.74158" lon="6.68179">
        <ele>1330.1</ele>
        <time>2024-05-26T12:08:25Z</time>
      </trkpt>
      <trkpt lat="43.74157" lon="6.6818">
        <ele>1330.1</ele>
        <time>2024-05-26T12:08:26Z</time>
      </trkpt>
      <trkpt lat="43.74157" lon="6.6818">
        <ele>1330.1</ele>
        <time>2024-05-26T12:08:27Z</time>
      </trkpt>
      <trkpt lat="43.74157" lon="6.6818">
        <ele>1330.1</ele>
        <time>2024-05-26T12:08:28Z</time>
      </trkpt>
      <trkpt lat="43.74156" lon="6.6818">
        <ele>1330.2</ele>
        <time>2024-05-26T12:08:29Z</time>
      </trkpt>
      <trkpt lat="43.74156" lon="6.6818">
        <ele>1330.3</ele>
        <time>2024-05-26T12:08:30Z</time>
      </trkpt>
      <trkpt lat="43.74156" lon="6.6818">
        <ele>1330.4</ele>
        <time>2024-05-26T12:08:31Z</time>
      </trkpt>
      <trkpt lat="43.74155" lon="6.6818">
        <ele>1330.4</ele>
        <time>2024-05-26T12:08:32Z</time>
      </trkpt>
      <trkpt lat="43.74155" lon="6.6818">
        <ele>1330.6</ele>
        <time>2024-05-26T12:08:33Z</time>
      </trkpt>
      <trkpt lat="43.74154" lon="6.68181">
        <ele>1330.8</ele>
        <time>2024-05-26T12:08:34Z</time>
      </trkpt>
      <trkpt lat="43.74153" lon="6.68181">
        <ele>1330.9</ele>
        <time>2024-05-26T12:08:35Z</time>
      </trkpt>
      <trkpt lat="43.74152" lon="6.68181">
        <ele>1330.9</ele>
        <time>2024-05-26T12:08:36Z</time>
      </trkpt>
      <trkpt lat="43.74152" lon="6.68182">
        <ele>1330.9</ele>
        <time>2024-05-26T12:08:37Z</time>
      </trkpt>
      <trkpt lat="43.74152" lon="6.68182">
        <ele>1331</ele>
        <time>2024-05-26T12:08:38Z</time>
      </trkpt>
      <trkpt lat="43.74152" lon="6.68182">
        <ele>1331</ele>
        <time>2024-05-26T12:08:39Z</time>
      </trkpt>
      <trkpt lat="43.74152" lon="6.68182">
        <ele>1331.1</ele>
        <time>2024-05-26T12:08:40Z</time>
      </trkpt>
      <trkpt lat="43.74153" lon="6.68183">
        <ele>1331.2</ele>
        <time>2024-05-26T12:08:41Z</time>
      </trkpt>
      <trkpt lat="43.74153" lon="6.68184">
        <ele>1331.4</ele>
        <time>2024-05-26T12:08:42Z</time>
      </trkpt>
      <trkpt lat="43.74153" lon="6.68184">
        <ele>1331.6</ele>
        <time>2024-05-26T12:08:43Z</time>
      </trkpt>
      <trkpt lat="43.74154" lon="6.68184">
        <ele>1331.8</ele>
        <time>2024-05-26T12:08:44Z</time>
      </trkpt>
      <trkpt lat="43.74154" lon="6.68185">
        <ele>1332.1</ele>
        <time>2024-05-26T12:08:45Z</time>
      </trkpt>
      <trkpt lat="43.74153" lon="6.68185">
        <ele>1332.3</ele>
        <time>2024-05-26T12:08:46Z</time>
      </trkpt>
      <trkpt lat="43.74153" lon="6.68186">
        <ele>1332.5</ele>
        <time>2024-05-26T12:08:47Z</time>
      </trkpt>
      <trkpt lat="43.74153" lon="6.68186">
        <ele>1332.8</ele>
        <time>2024-05-26T12:08:48Z</time>
      </trkpt>
      <trkpt lat="43.74153" lon="6.68187">
        <ele>1333</ele>
        <time>2024-05-26T12:08:49Z</time>
      </trkpt>
      <trkpt lat="43.74153" lon="6.68188">
        <ele>1333.2</ele>
        <time>2024-05-26T12:08:50Z</time>
      </trkpt>
      <trkpt lat="43.74153" lon="6.68188">
        <ele>1333.2</ele>
        <time>2024-05-26T12:08:51Z</time>
      </trkpt>
      <trkpt lat="43.74152" lon="6.68188">
        <ele>1333.2</ele>
        <time>2024-05-26T12:08:52Z</time>
      </trkpt>
      <trkpt lat="43.74152" lon="6.68188">
        <ele>1333.1</ele>
        <time>2024-05-26T12:08:53Z</time>
      </trkpt>
      <trkpt lat="43.74151" lon="6.68188">
        <ele>1333.1</ele>
        <time>2024-05-26T12:08:54Z</time>
      </trkpt>
      <trkpt lat="43.7415" lon="6.68187">
        <ele>1333</ele>
        <time>2024-05-26T12:08:55Z</time>
      </trkpt>
      <trkpt lat="43.7415" lon="6.68187">
        <ele>1333.1</ele>
        <time>2024-05-26T12:08:56Z</time>
      </trkpt>
      <trkpt lat="43.74149" lon="6.68188">
        <ele>1333.2</ele>
        <time>2024-05-26T12:08:57Z</time>
      </trkpt>
      <trkpt lat="43.74149" lon="6.68188">
        <ele>1333.3</ele>
        <time>2024-05-26T12:08:58Z</time>
      </trkpt>
      <trkpt lat="43.74149" lon="6.68188">
        <ele>1332.6</ele>
        <time>2024-05-26T12:08:59Z</time>
      </trkpt>
      <trkpt lat="43.74148" lon="6.68189">
        <ele>1332.9</ele>
        <time>2024-05-26T12:09:00Z</time>
      </trkpt>
      <trkpt lat="43.74149" lon="6.6819">
        <ele>1333.2</ele>
        <time>2024-05-26T12:09:01Z</time>
      </trkpt>
      <trkpt lat="43.74149" lon="6.6819">
        <ele>1333.4</ele>
        <time>2024-05-26T12:09:02Z</time>
      </trkpt>
      <trkpt lat="43.74149" lon="6.6819">
        <ele>1333.6</ele>
        <time>2024-05-26T12:09:03Z</time>
      </trkpt>
      <trkpt lat="43.74148" lon="6.6819">
        <ele>1333.7</ele>
        <time>2024-05-26T12:09:04Z</time>
      </trkpt>
      <trkpt lat="43.74148" lon="6.6819">
        <ele>1333.7</ele>
        <time>2024-05-26T12:09:05Z</time>
      </trkpt>
      <trkpt lat="43.74148" lon="6.68191">
        <ele>1333.8</ele>
        <time>2024-05-26T12:09:06Z</time>
      </trkpt>
      <trkpt lat="43.74147" lon="6.68191">
        <ele>1333.8</ele>
        <time>2024-05-26T12:09:07Z</time>
      </trkpt>
      <trkpt lat="43.74148" lon="6.68192">
        <ele>1333.8</ele>
        <time>2024-05-26T12:09:08Z</time>
      </trkpt>
      <trkpt lat="43.74147" lon="6.68192">
        <ele>1333.9</ele>
        <time>2024-05-26T12:09:09Z</time>
      </trkpt>
      <trkpt lat="43.74147" lon="6.68192">
        <ele>1333.9</ele>
        <time>2024-05-26T12:09:10Z</time>
      </trkpt>
      <trkpt lat="43.74147" lon="6.68193">
        <ele>1334</ele>
        <time>2024-05-26T12:09:11Z</time>
      </trkpt>
      <trkpt lat="43.74147" lon="6.68194">
        <ele>1334</ele>
        <time>2024-05-26T12:09:12Z</time>
      </trkpt>
      <trkpt lat="43.74146" lon="6.68194">
        <ele>1334</ele>
        <time>2024-05-26T12:09:13Z</time>
      </trkpt>
      <trkpt lat="43.74146" lon="6.68194">
        <ele>1334.1</ele>
        <time>2024-05-26T12:09:14Z</time>
      </trkpt>
      <trkpt lat="43.74146" lon="6.68194">
        <ele>1334</ele>
        <time>2024-05-26T12:09:15Z</time>
      </trkpt>
      <trkpt lat="43.74146" lon="6.68194">
        <ele>1334</ele>
        <time>2024-05-26T12:09:16Z</time>
      </trkpt>
      <trkpt lat="43.74145" lon="6.68194">
        <ele>1334</ele>
        <time>2024-05-26T12:09:17Z</time>
      </trkpt>
      <trkpt lat="43.74145" lon="6.68194">
        <ele>1334</ele>
        <time>2024-05-26T12:09:18Z</time>
      </trkpt>
      <trkpt lat="43.74145" lon="6.68194">
        <ele>1333.9</ele>
        <time>2024-05-26T12:09:19Z</time>
      </trkpt>
      <trkpt lat="43.74145" lon="6.68194">
        <ele>1333.9</ele>
        <time>2024-05-26T12:09:20Z</time>
      </trkpt>
      <trkpt lat="43.74145" lon="6.68194">
        <ele>1333.9</ele>
        <time>2024-05-26T12:09:21Z</time>
      </trkpt>
      <trkpt lat="43.74145" lon="6.68194">
        <ele>1333.9</ele>
        <time>2024-05-26T12:09:22Z</time>
      </trkpt>
      <trkpt lat="43.74145" lon="6.68194">
        <ele>1334</ele>
        <time>2024-05-26T12:09:23Z</time>
      </trkpt>
      <trkpt lat="43.74145" lon="6.68194">
        <ele>1334</ele>
        <time>2024-05-26T12:09:24Z</time>
      </trkpt>
      <trkpt lat="43.74145" lon="6.68195">
        <ele>1334.1</ele>
        <time>2024-05-26T12:09:25Z</time>
      </trkpt>
      <trkpt lat="43.74146" lon="6.68195">
        <ele>1334.1</ele>
        <time>2024-05-26T12:09:26Z</time>
      </trkpt>
      <trkpt lat="43.74147" lon="6.68195">
        <ele>1334.2</ele>
        <time>2024-05-26T12:09:27Z</time>
      </trkpt>
      <trkpt lat="43.74146" lon="6.68196">
        <ele>1334.2</ele>
        <time>2024-05-26T12:09:28Z</time>
      </trkpt>
      <trkpt lat="43.74146" lon="6.68196">
        <ele>1334.1</ele>
        <time>2024-05-26T12:09:29Z</time>
      </trkpt>
      <trkpt lat="43.74146" lon="6.68196">
        <ele>1334</ele>
        <time>2024-05-26T12:09:30Z</time>
      </trkpt>
      <trkpt lat="43.74146" lon="6.68197">
        <ele>1333.9</ele>
        <time>2024-05-26T12:09:31Z</time>
      </trkpt>
      <trkpt lat="43.74146" lon="6.68197">
        <ele>1333.8</ele>
        <time>2024-05-26T12:09:32Z</time>
      </trkpt>
      <trkpt lat="43.74145" lon="6.68198">
        <ele>1333.7</ele>
        <time>2024-05-26T12:09:33Z</time>
      </trkpt>
      <trkpt lat="43.74145" lon="6.68198">
        <ele>1333.6</ele>
        <time>2024-05-26T12:09:34Z</time>
      </trkpt>
      <trkpt lat="43.74146" lon="6.68198">
        <ele>1333.6</ele>
        <time>2024-05-26T12:09:35Z</time>
      </trkpt>
      <trkpt lat="43.74146" lon="6.68198">
        <ele>1333.5</ele>
        <time>2024-05-26T12:09:36Z</time>
      </trkpt>
      <trkpt lat="43.74146" lon="6.68198">
        <ele>1333.4</ele>
        <time>2024-05-26T12:09:37Z</time>
      </trkpt>
      <trkpt lat="43.74146" lon="6.68198">
        <ele>1333.4</ele>
        <time>2024-05-26T12:09:38Z</time>
      </trkpt>
      <trkpt lat="43.74147" lon="6.68199">
        <ele>1333.3</ele>
        <time>2024-05-26T12:09:39Z</time>
      </trkpt>
      <trkpt lat="43.74147" lon="6.68199">
        <ele>1333.3</ele>
        <time>2024-05-26T12:09:40Z</time>
      </trkpt>
      <trkpt lat="43.74147" lon="6.68199">
        <ele>1333.3</ele>
        <time>2024-05-26T12:09:41Z</time>
      </trkpt>
      <trkpt lat="43.74147" lon="6.68199">
        <ele>1333.3</ele>
        <time>2024-05-26T12:09:42Z</time>
      </trkpt>
      <trkpt lat="43.74147" lon="6.68199">
        <ele>1333.3</ele>
        <time>2024-05-26T12:09:43Z</time>
      </trkpt>
      <trkpt lat="43.74147" lon="6.68199">
        <ele>1333.3</ele>
        <time>2024-05-26T12:09:44Z</time>
      </trkpt>
      <trkpt lat="43.74147" lon="6.68199">
        <ele>1333.3</ele>
        <time>2024-05-26T12:09:45Z</time>
      </trkpt>
      <trkpt lat="43.74147" lon="6.682">
        <ele>1333.3</ele>
        <time>2024-05-26T12:09:46Z</time>
      </trkpt>
      <trkpt lat="43.74147" lon="6.682">
        <ele>1333.3</ele>
        <time>2024-05-26T12:09:47Z</time>
      </trkpt>
      <trkpt lat="43.74147" lon="6.68201">
        <ele>1333.1</ele>
        <time>2024-05-26T12:09:48Z</time>
      </trkpt>
      <trkpt lat="43.74147" lon="6.68201">
        <ele>1332.9</ele>
        <time>2024-05-26T12:09:49Z</time>
      </trkpt>
      <trkpt lat="43.74146" lon="6.68202">
        <ele>1332.8</ele>
        <time>2024-05-26T12:09:50Z</time>
      </trkpt>
      <trkpt lat="43.74146" lon="6.68202">
        <ele>1332.7</ele>
        <time>2024-05-26T12:09:51Z</time>
      </trkpt>
      <trkpt lat="43.74146" lon="6.68202">
        <ele>1332.6</ele>
        <time>2024-05-26T12:09:52Z</time>
      </trkpt>
      <trkpt lat="43.74146" lon="6.68203">
        <ele>1332.3</ele>
        <time>2024-05-26T12:09:53Z</time>
      </trkpt>
      <trkpt lat="43.74146" lon="6.68203">
        <ele>1332.1</ele>
        <time>2024-05-26T12:09:54Z</time>
      </trkpt>
      <trkpt lat="43.74146" lon="6.68203">
        <ele>1331.9</ele>
        <time>2024-05-26T12:09:55Z</time>
      </trkpt>
      <trkpt lat="43.74146" lon="6.68204">
        <ele>1331.7</ele>
        <time>2024-05-26T12:09:56Z</time>
      </trkpt>
      <trkpt lat="43.74146" lon="6.68204">
        <ele>1331.5</ele>
        <time>2024-05-26T12:09:57Z</time>
      </trkpt>
      <trkpt lat="43.74146" lon="6.68204">
        <ele>1331.3</ele>
        <time>2024-05-26T12:09:58Z</time>
      </trkpt>
      <trkpt lat="43.74147" lon="6.68204">
        <ele>1331.1</ele>
        <time>2024-05-26T12:09:59Z</time>
      </trkpt>
      <trkpt lat="43.74147" lon="6.68204">
        <ele>1331</ele>
        <time>2024-05-26T12:10:00Z</time>
      </trkpt>
      <trkpt lat="43.74147" lon="6.68204">
        <ele>1330.9</ele>
        <time>2024-05-26T12:10:01Z</time>
      </trkpt>
      <trkpt lat="43.74147" lon="6.68204">
        <ele>1330.7</ele>
        <time>2024-05-26T12:10:02Z</time>
      </trkpt>
      <trkpt lat="43.74147" lon="6.68204">
        <ele>1330.7</ele>
        <time>2024-05-26T12:10:03Z</time>
      </trkpt>
      <trkpt lat="43.74147" lon="6.68204">
        <ele>1330.6</ele>
        <time>2024-05-26T12:10:04Z</time>
      </trkpt>
      <trkpt lat="43.74147" lon="6.68204">
        <ele>1330.6</ele>
        <time>2024-05-26T12:10:05Z</time>
      </trkpt>
      <trkpt lat="43.74147" lon="6.68204">
        <ele>1330.6</ele>
        <time>2024-05-26T12:10:06Z</time>
      </trkpt>
      <trkpt lat="43.74147" lon="6.68204">
        <ele>1330.6</ele>
        <time>2024-05-26T12:10:07Z</time>
      </trkpt>
      <trkpt lat="43.74147" lon="6.68204">
        <ele>1330.6</ele>
        <time>2024-05-26T12:10:08Z</time>
      </trkpt>
      <trkpt lat="43.74147" lon="6.68205">
        <ele>1330.5</ele>
        <time>2024-05-26T12:10:09Z</time>
      </trkpt>
      <trkpt lat="43.74146" lon="6.68206">
        <ele>1330.6</ele>
        <time>2024-05-26T12:10:10Z</time>
      </trkpt>
      <trkpt lat="43.74146" lon="6.68207">
        <ele>1330.5</ele>
        <time>2024-05-26T12:10:11Z</time>
      </trkpt>
      <trkpt lat="43.74146" lon="6.68207">
        <ele>1330.5</ele>
        <time>2024-05-26T12:10:12Z</time>
      </trkpt>
      <trkpt lat="43.74147" lon="6.68207">
        <ele>1330.3</ele>
        <time>2024-05-26T12:10:13Z</time>
      </trkpt>
      <trkpt lat="43.74146" lon="6.68208">
        <ele>1330.3</ele>
        <time>2024-05-26T12:10:14Z</time>
      </trkpt>
      <trkpt lat="43.74146" lon="6.68209">
        <ele>1330.1</ele>
        <time>2024-05-26T12:10:15Z</time>
      </trkpt>
      <trkpt lat="43.74146" lon="6.68209">
        <ele>1329.8</ele>
        <time>2024-05-26T12:10:16Z</time>
      </trkpt>
      <trkpt lat="43.74146" lon="6.68209">
        <ele>1329.6</ele>
        <time>2024-05-26T12:10:17Z</time>
      </trkpt>
      <trkpt lat="43.74146" lon="6.68209">
        <ele>1329.5</ele>
        <time>2024-05-26T12:10:18Z</time>
      </trkpt>
      <trkpt lat="43.74145" lon="6.68209">
        <ele>1329.4</ele>
        <time>2024-05-26T12:10:19Z</time>
      </trkpt>
      <trkpt lat="43.74145" lon="6.68209">
        <ele>1329.3</ele>
        <time>2024-05-26T12:10:20Z</time>
      </trkpt>
      <trkpt lat="43.74145" lon="6.68209">
        <ele>1329.2</ele>
        <time>2024-05-26T12:10:21Z</time>
      </trkpt>
      <trkpt lat="43.74145" lon="6.6821">
        <ele>1329.1</ele>
        <time>2024-05-26T12:10:22Z</time>
      </trkpt>
      <trkpt lat="43.74145" lon="6.68211">
        <ele>1329.1</ele>
        <time>2024-05-26T12:10:23Z</time>
      </trkpt>
      <trkpt lat="43.74146" lon="6.68211">
        <ele>1329.1</ele>
        <time>2024-05-26T12:10:24Z</time>
      </trkpt>
      <trkpt lat="43.74146" lon="6.68212">
        <ele>1329</ele>
        <time>2024-05-26T12:10:25Z</time>
      </trkpt>
      <trkpt lat="43.74147" lon="6.68212">
        <ele>1328.9</ele>
        <time>2024-05-26T12:10:26Z</time>
      </trkpt>
      <trkpt lat="43.74147" lon="6.68212">
        <ele>1328.8</ele>
        <time>2024-05-26T12:10:27Z</time>
      </trkpt>
      <trkpt lat="43.74147" lon="6.68213">
        <ele>1328.7</ele>
        <time>2024-05-26T12:10:28Z</time>
      </trkpt>
      <trkpt lat="43.74146" lon="6.68215">
        <ele>1328.5</ele>
        <time>2024-05-26T12:10:29Z</time>
      </trkpt>
      <trkpt lat="43.74146" lon="6.68216">
        <ele>1328.3</ele>
        <time>2024-05-26T12:10:30Z</time>
      </trkpt>
      <trkpt lat="43.74146" lon="6.68218">
        <ele>1328.1</ele>
        <time>2024-05-26T12:10:31Z</time>
      </trkpt>
      <trkpt lat="43.74146" lon="6.6822">
        <ele>1327.9</ele>
        <time>2024-05-26T12:10:32Z</time>
      </trkpt>
      <trkpt lat="43.74146" lon="6.68221">
        <ele>1327.8</ele>
        <time>2024-05-26T12:10:33Z</time>
      </trkpt>
      <trkpt lat="43.74147" lon="6.68222">
        <ele>1327.6</ele>
        <time>2024-05-26T12:10:34Z</time>
      </trkpt>
      <trkpt lat="43.74147" lon="6.68223">
        <ele>1327.4</ele>
        <time>2024-05-26T12:10:35Z</time>
      </trkpt>
      <trkpt lat="43.74147" lon="6.68222">
        <ele>1327.3</ele>
        <time>2024-05-26T12:10:36Z</time>
      </trkpt>
      <trkpt lat="43.74147" lon="6.68222">
        <ele>1327.2</ele>
        <time>2024-05-26T12:10:37Z</time>
      </trkpt>
      <trkpt lat="43.74147" lon="6.68222">
        <ele>1327.1</ele>
        <time>2024-05-26T12:10:38Z</time>
      </trkpt>
      <trkpt lat="43.74148" lon="6.68222">
        <ele>1327</ele>
        <time>2024-05-26T12:10:39Z</time>
      </trkpt>
      <trkpt lat="43.74148" lon="6.68222">
        <ele>1326.9</ele>
        <time>2024-05-26T12:10:40Z</time>
      </trkpt>
      <trkpt lat="43.74148" lon="6.68222">
        <ele>1326.9</ele>
        <time>2024-05-26T12:10:41Z</time>
      </trkpt>
      <trkpt lat="43.74148" lon="6.68222">
        <ele>1326.9</ele>
        <time>2024-05-26T12:10:42Z</time>
      </trkpt>
      <trkpt lat="43.74147" lon="6.68223">
        <ele>1326.9</ele>
        <time>2024-05-26T12:10:43Z</time>
      </trkpt>
      <trkpt lat="43.74147" lon="6.68223">
        <ele>1326.8</ele>
        <time>2024-05-26T12:10:44Z</time>
      </trkpt>
      <trkpt lat="43.74146" lon="6.68224">
        <ele>1326.8</ele>
        <time>2024-05-26T12:10:45Z</time>
      </trkpt>
      <trkpt lat="43.74146" lon="6.68225">
        <ele>1326.8</ele>
        <time>2024-05-26T12:10:46Z</time>
      </trkpt>
      <trkpt lat="43.74146" lon="6.68226">
        <ele>1326.8</ele>
        <time>2024-05-26T12:10:47Z</time>
      </trkpt>
      <trkpt lat="43.74146" lon="6.68226">
        <ele>1326.7</ele>
        <time>2024-05-26T12:10:48Z</time>
      </trkpt>
      <trkpt lat="43.74146" lon="6.68227">
        <ele>1326.7</ele>
        <time>2024-05-26T12:10:49Z</time>
      </trkpt>
      <trkpt lat="43.74146" lon="6.68228">
        <ele>1326.7</ele>
        <time>2024-05-26T12:10:50Z</time>
      </trkpt>
      <trkpt lat="43.74146" lon="6.68229">
        <ele>1326.6</ele>
        <time>2024-05-26T12:10:51Z</time>
      </trkpt>
      <trkpt lat="43.74146" lon="6.6823">
        <ele>1326.6</ele>
        <time>2024-05-26T12:10:52Z</time>
      </trkpt>
      <trkpt lat="43.74146" lon="6.68231">
        <ele>1326.5</ele>
        <time>2024-05-26T12:10:53Z</time>
      </trkpt>
      <trkpt lat="43.74146" lon="6.68232">
        <ele>1326.3</ele>
        <time>2024-05-26T12:10:54Z</time>
      </trkpt>
      <trkpt lat="43.74146" lon="6.68232">
        <ele>1326.5</ele>
        <time>2024-05-26T12:10:55Z</time>
      </trkpt>
      <trkpt lat="43.74146" lon="6.68233">
        <ele>1326.5</ele>
        <time>2024-05-26T12:10:56Z</time>
      </trkpt>
      <trkpt lat="43.74146" lon="6.68233">
        <ele>1326.5</ele>
        <time>2024-05-26T12:10:57Z</time>
      </trkpt>
      <trkpt lat="43.74146" lon="6.68233">
        <ele>1326.4</ele>
        <time>2024-05-26T12:10:58Z</time>
      </trkpt>
      <trkpt lat="43.74146" lon="6.68233">
        <ele>1326.5</ele>
        <time>2024-05-26T12:10:59Z</time>
      </trkpt>
      <trkpt lat="43.74146" lon="6.68234">
        <ele>1326.5</ele>
        <time>2024-05-26T12:11:00Z</time>
      </trkpt>
      <trkpt lat="43.74146" lon="6.68235">
        <ele>1326.3</ele>
        <time>2024-05-26T12:11:01Z</time>
      </trkpt>
      <trkpt lat="43.74146" lon="6.68235">
        <ele>1326.1</ele>
        <time>2024-05-26T12:11:02Z</time>
      </trkpt>
      <trkpt lat="43.74145" lon="6.68235">
        <ele>1325.8</ele>
        <time>2024-05-26T12:11:03Z</time>
      </trkpt>
      <trkpt lat="43.74146" lon="6.68236">
        <ele>1325.9</ele>
        <time>2024-05-26T12:11:04Z</time>
      </trkpt>
      <trkpt lat="43.74146" lon="6.68236">
        <ele>1325.9</ele>
        <time>2024-05-26T12:11:05Z</time>
      </trkpt>
      <trkpt lat="43.74146" lon="6.68236">
        <ele>1325.7</ele>
        <time>2024-05-26T12:11:06Z</time>
      </trkpt>
      <trkpt lat="43.74146" lon="6.68237">
        <ele>1325.6</ele>
        <time>2024-05-26T12:11:07Z</time>
      </trkpt>
      <trkpt lat="43.74146" lon="6.68237">
        <ele>1325.6</ele>
        <time>2024-05-26T12:11:08Z</time>
      </trkpt>
      <trkpt lat="43.74146" lon="6.68237">
        <ele>1325.1</ele>
        <time>2024-05-26T12:11:09Z</time>
      </trkpt>
      <trkpt lat="43.74146" lon="6.68238">
        <ele>1325</ele>
        <time>2024-05-26T12:11:10Z</time>
      </trkpt>
      <trkpt lat="43.74146" lon="6.68238">
        <ele>1324.9</ele>
        <time>2024-05-26T12:11:11Z</time>
      </trkpt>
      <trkpt lat="43.74146" lon="6.68238">
        <ele>1324.9</ele>
        <time>2024-05-26T12:11:12Z</time>
      </trkpt>
      <trkpt lat="43.74146" lon="6.68238">
        <ele>1324.9</ele>
        <time>2024-05-26T12:11:13Z</time>
      </trkpt>
      <trkpt lat="43.74146" lon="6.68238">
        <ele>1324.9</ele>
        <time>2024-05-26T12:11:14Z</time>
      </trkpt>
      <trkpt lat="43.74146" lon="6.68238">
        <ele>1324.9</ele>
        <time>2024-05-26T12:11:15Z</time>
      </trkpt>
      <trkpt lat="43.74146" lon="6.68238">
        <ele>1324.8</ele>
        <time>2024-05-26T12:11:16Z</time>
      </trkpt>
      <trkpt lat="43.74146" lon="6.68239">
        <ele>1324.7</ele>
        <time>2024-05-26T12:11:17Z</time>
      </trkpt>
      <trkpt lat="43.74146" lon="6.6824">
        <ele>1324.6</ele>
        <time>2024-05-26T12:11:18Z</time>
      </trkpt>
      <trkpt lat="43.74146" lon="6.6824">
        <ele>1324.5</ele>
        <time>2024-05-26T12:11:19Z</time>
      </trkpt>
      <trkpt lat="43.74146" lon="6.68241">
        <ele>1324.5</ele>
        <time>2024-05-26T12:11:20Z</time>
      </trkpt>
      <trkpt lat="43.74146" lon="6.68242">
        <ele>1324.4</ele>
        <time>2024-05-26T12:11:21Z</time>
      </trkpt>
      <trkpt lat="43.74146" lon="6.68242">
        <ele>1324.3</ele>
        <time>2024-05-26T12:11:22Z</time>
      </trkpt>
      <trkpt lat="43.74146" lon="6.68243">
        <ele>1324.3</ele>
        <time>2024-05-26T12:11:23Z</time>
      </trkpt>
      <trkpt lat="43.74146" lon="6.68245">
        <ele>1324.2</ele>
        <time>2024-05-26T12:11:24Z</time>
      </trkpt>
      <trkpt lat="43.74146" lon="6.68246">
        <ele>1323.9</ele>
        <time>2024-05-26T12:11:25Z</time>
      </trkpt>
      <trkpt lat="43.74146" lon="6.68246">
        <ele>1323.9</ele>
        <time>2024-05-26T12:11:26Z</time>
      </trkpt>
      <trkpt lat="43.74147" lon="6.68246">
        <ele>1323.8</ele>
        <time>2024-05-26T12:11:27Z</time>
      </trkpt>
      <trkpt lat="43.74147" lon="6.68246">
        <ele>1323.8</ele>
        <time>2024-05-26T12:11:28Z</time>
      </trkpt>
      <trkpt lat="43.74148" lon="6.68246">
        <ele>1323.7</ele>
        <time>2024-05-26T12:11:29Z</time>
      </trkpt>
      <trkpt lat="43.74149" lon="6.68246">
        <ele>1323.5</ele>
        <time>2024-05-26T12:11:30Z</time>
      </trkpt>
      <trkpt lat="43.74149" lon="6.68246">
        <ele>1323.4</ele>
        <time>2024-05-26T12:11:31Z</time>
      </trkpt>
      <trkpt lat="43.74149" lon="6.68246">
        <ele>1323.2</ele>
        <time>2024-05-26T12:11:32Z</time>
      </trkpt>
      <trkpt lat="43.74149" lon="6.68248">
        <ele>1322.9</ele>
        <time>2024-05-26T12:11:33Z</time>
      </trkpt>
      <trkpt lat="43.74149" lon="6.68249">
        <ele>1322.8</ele>
        <time>2024-05-26T12:11:34Z</time>
      </trkpt>
      <trkpt lat="43.74149" lon="6.6825">
        <ele>1322.6</ele>
        <time>2024-05-26T12:11:35Z</time>
      </trkpt>
      <trkpt lat="43.74149" lon="6.6825">
        <ele>1322.4</ele>
        <time>2024-05-26T12:11:36Z</time>
      </trkpt>
      <trkpt lat="43.74149" lon="6.6825">
        <ele>1322.2</ele>
        <time>2024-05-26T12:11:37Z</time>
      </trkpt>
      <trkpt lat="43.74149" lon="6.6825">
        <ele>1322</ele>
        <time>2024-05-26T12:11:38Z</time>
      </trkpt>
      <trkpt lat="43.74149" lon="6.6825">
        <ele>1321.8</ele>
        <time>2024-05-26T12:11:39Z</time>
      </trkpt>
      <trkpt lat="43.74149" lon="6.6825">
        <ele>1321.6</ele>
        <time>2024-05-26T12:11:40Z</time>
      </trkpt>
      <trkpt lat="43.74149" lon="6.6825">
        <ele>1321.5</ele>
        <time>2024-05-26T12:11:41Z</time>
      </trkpt>
      <trkpt lat="43.74149" lon="6.6825">
        <ele>1321.3</ele>
        <time>2024-05-26T12:11:42Z</time>
      </trkpt>
      <trkpt lat="43.74149" lon="6.6825">
        <ele>1321.3</ele>
        <time>2024-05-26T12:11:43Z</time>
      </trkpt>
      <trkpt lat="43.74149" lon="6.6825">
        <ele>1321.2</ele>
        <time>2024-05-26T12:11:44Z</time>
      </trkpt>
      <trkpt lat="43.74149" lon="6.6825">
        <ele>1321.1</ele>
        <time>2024-05-26T12:11:45Z</time>
      </trkpt>
      <trkpt lat="43.74149" lon="6.68251">
        <ele>1321.1</ele>
        <time>2024-05-26T12:11:46Z</time>
      </trkpt>
      <trkpt lat="43.74149" lon="6.68251">
        <ele>1321</ele>
        <time>2024-05-26T12:11:47Z</time>
      </trkpt>
      <trkpt lat="43.74149" lon="6.68251">
        <ele>1321.1</ele>
        <time>2024-05-26T12:11:48Z</time>
      </trkpt>
      <trkpt lat="43.74149" lon="6.68251">
        <ele>1321.2</ele>
        <time>2024-05-26T12:11:49Z</time>
      </trkpt>
      <trkpt lat="43.7415" lon="6.68251">
        <ele>1321.2</ele>
        <time>2024-05-26T12:11:50Z</time>
      </trkpt>
      <trkpt lat="43.7415" lon="6.68251">
        <ele>1321.2</ele>
        <time>2024-05-26T12:11:51Z</time>
      </trkpt>
      <trkpt lat="43.7415" lon="6.68251">
        <ele>1321.2</ele>
        <time>2024-05-26T12:11:52Z</time>
      </trkpt>
      <trkpt lat="43.7415" lon="6.68251">
        <ele>1321.2</ele>
        <time>2024-05-26T12:11:53Z</time>
      </trkpt>
      <trkpt lat="43.7415" lon="6.68252">
        <ele>1321.2</ele>
        <time>2024-05-26T12:11:54Z</time>
      </trkpt>
      <trkpt lat="43.74151" lon="6.68252">
        <ele>1321.2</ele>
        <time>2024-05-26T12:11:55Z</time>
      </trkpt>
      <trkpt lat="43.74151" lon="6.68252">
        <ele>1321.2</ele>
        <time>2024-05-26T12:11:56Z</time>
      </trkpt>
      <trkpt lat="43.74151" lon="6.68251">
        <ele>1321.2</ele>
        <time>2024-05-26T12:11:57Z</time>
      </trkpt>
      <trkpt lat="43.74151" lon="6.68251">
        <ele>1321.1</ele>
        <time>2024-05-26T12:11:58Z</time>
      </trkpt>
      <trkpt lat="43.74151" lon="6.68251">
        <ele>1321.1</ele>
        <time>2024-05-26T12:11:59Z</time>
      </trkpt>
      <trkpt lat="43.74151" lon="6.68251">
        <ele>1321.3</ele>
        <time>2024-05-26T12:12:00Z</time>
      </trkpt>
      <trkpt lat="43.74151" lon="6.68251">
        <ele>1321.4</ele>
        <time>2024-05-26T12:12:01Z</time>
      </trkpt>
      <trkpt lat="43.74151" lon="6.68251">
        <ele>1321.4</ele>
        <time>2024-05-26T12:12:02Z</time>
      </trkpt>
      <trkpt lat="43.74151" lon="6.68251">
        <ele>1321.5</ele>
        <time>2024-05-26T12:12:03Z</time>
      </trkpt>
      <trkpt lat="43.74151" lon="6.68251">
        <ele>1321.6</ele>
        <time>2024-05-26T12:12:04Z</time>
      </trkpt>
      <trkpt lat="43.74151" lon="6.68251">
        <ele>1321.6</ele>
        <time>2024-05-26T12:12:05Z</time>
      </trkpt>
      <trkpt lat="43.74151" lon="6.68251">
        <ele>1321.7</ele>
        <time>2024-05-26T12:12:06Z</time>
      </trkpt>
      <trkpt lat="43.74151" lon="6.68251">
        <ele>1321.7</ele>
        <time>2024-05-26T12:12:07Z</time>
      </trkpt>
      <trkpt lat="43.74151" lon="6.68253">
        <ele>1321.6</ele>
        <time>2024-05-26T12:12:08Z</time>
      </trkpt>
      <trkpt lat="43.7415" lon="6.68254">
        <ele>1321.5</ele>
        <time>2024-05-26T12:12:09Z</time>
      </trkpt>
      <trkpt lat="43.7415" lon="6.68256">
        <ele>1321.4</ele>
        <time>2024-05-26T12:12:10Z</time>
      </trkpt>
      <trkpt lat="43.7415" lon="6.68256">
        <ele>1321.3</ele>
        <time>2024-05-26T12:12:11Z</time>
      </trkpt>
      <trkpt lat="43.74151" lon="6.68257">
        <ele>1321.2</ele>
        <time>2024-05-26T12:12:12Z</time>
      </trkpt>
      <trkpt lat="43.74151" lon="6.68258">
        <ele>1321.1</ele>
        <time>2024-05-26T12:12:13Z</time>
      </trkpt>
      <trkpt lat="43.74152" lon="6.6826">
        <ele>1320.9</ele>
        <time>2024-05-26T12:12:14Z</time>
      </trkpt>
      <trkpt lat="43.74152" lon="6.6826">
        <ele>1320.7</ele>
        <time>2024-05-26T12:12:15Z</time>
      </trkpt>
      <trkpt lat="43.74151" lon="6.68261">
        <ele>1320.6</ele>
        <time>2024-05-26T12:12:16Z</time>
      </trkpt>
      <trkpt lat="43.74151" lon="6.68262">
        <ele>1320.5</ele>
        <time>2024-05-26T12:12:17Z</time>
      </trkpt>
      <trkpt lat="43.74151" lon="6.68262">
        <ele>1320.5</ele>
        <time>2024-05-26T12:12:18Z</time>
      </trkpt>
      <trkpt lat="43.74151" lon="6.68262">
        <ele>1320.5</ele>
        <time>2024-05-26T12:12:19Z</time>
      </trkpt>
      <trkpt lat="43.74151" lon="6.68261">
        <ele>1320.5</ele>
        <time>2024-05-26T12:12:20Z</time>
      </trkpt>
      <trkpt lat="43.7415" lon="6.68262">
        <ele>1320.4</ele>
        <time>2024-05-26T12:12:21Z</time>
      </trkpt>
      <trkpt lat="43.7415" lon="6.68262">
        <ele>1320.4</ele>
        <time>2024-05-26T12:12:22Z</time>
      </trkpt>
      <trkpt lat="43.7415" lon="6.68263">
        <ele>1320.4</ele>
        <time>2024-05-26T12:12:23Z</time>
      </trkpt>
      <trkpt lat="43.74149" lon="6.68264">
        <ele>1320.3</ele>
        <time>2024-05-26T12:12:24Z</time>
      </trkpt>
      <trkpt lat="43.74149" lon="6.68264">
        <ele>1320.2</ele>
        <time>2024-05-26T12:12:25Z</time>
      </trkpt>
      <trkpt lat="43.74148" lon="6.68264">
        <ele>1320.1</ele>
        <time>2024-05-26T12:12:26Z</time>
      </trkpt>
      <trkpt lat="43.74148" lon="6.68265">
        <ele>1320.1</ele>
        <time>2024-05-26T12:12:27Z</time>
      </trkpt>
      <trkpt lat="43.74147" lon="6.68265">
        <ele>1320.1</ele>
        <time>2024-05-26T12:12:28Z</time>
      </trkpt>
      <trkpt lat="43.74147" lon="6.68266">
        <ele>1320.1</ele>
        <time>2024-05-26T12:12:29Z</time>
      </trkpt>
      <trkpt lat="43.74146" lon="6.68266">
        <ele>1320.1</ele>
        <time>2024-05-26T12:12:30Z</time>
      </trkpt>
      <trkpt lat="43.74146" lon="6.68267">
        <ele>1320.1</ele>
        <time>2024-05-26T12:12:31Z</time>
      </trkpt>
      <trkpt lat="43.74146" lon="6.68268">
        <ele>1320.2</ele>
        <time>2024-05-26T12:12:32Z</time>
      </trkpt>
      <trkpt lat="43.74146" lon="6.68269">
        <ele>1320.2</ele>
        <time>2024-05-26T12:12:33Z</time>
      </trkpt>
      <trkpt lat="43.74146" lon="6.68269">
        <ele>1320.2</ele>
        <time>2024-05-26T12:12:34Z</time>
      </trkpt>
      <trkpt lat="43.74146" lon="6.6827">
        <ele>1320.2</ele>
        <time>2024-05-26T12:12:35Z</time>
      </trkpt>
      <trkpt lat="43.74146" lon="6.6827">
        <ele>1320.2</ele>
        <time>2024-05-26T12:12:36Z</time>
      </trkpt>
      <trkpt lat="43.74146" lon="6.68271">
        <ele>1320.3</ele>
        <time>2024-05-26T12:12:37Z</time>
      </trkpt>
      <trkpt lat="43.74145" lon="6.6827">
        <ele>1320.5</ele>
        <time>2024-05-26T12:12:38Z</time>
      </trkpt>
      <trkpt lat="43.74146" lon="6.6827">
        <ele>1320.6</ele>
        <time>2024-05-26T12:12:39Z</time>
      </trkpt>
      <trkpt lat="43.74146" lon="6.6827">
        <ele>1320.7</ele>
        <time>2024-05-26T12:12:40Z</time>
      </trkpt>
      <trkpt lat="43.74146" lon="6.6827">
        <ele>1320.7</ele>
        <time>2024-05-26T12:12:41Z</time>
      </trkpt>
      <trkpt lat="43.74146" lon="6.6827">
        <ele>1320.8</ele>
        <time>2024-05-26T12:12:42Z</time>
      </trkpt>
      <trkpt lat="43.74145" lon="6.6827">
        <ele>1321</ele>
        <time>2024-05-26T12:12:43Z</time>
      </trkpt>
      <trkpt lat="43.74146" lon="6.6827">
        <ele>1321.1</ele>
        <time>2024-05-26T12:12:44Z</time>
      </trkpt>
      <trkpt lat="43.74146" lon="6.6827">
        <ele>1321.1</ele>
        <time>2024-05-26T12:12:45Z</time>
      </trkpt>
      <trkpt lat="43.74146" lon="6.68269">
        <ele>1321.1</ele>
        <time>2024-05-26T12:12:46Z</time>
      </trkpt>
      <trkpt lat="43.74146" lon="6.68269">
        <ele>1321.1</ele>
        <time>2024-05-26T12:12:47Z</time>
      </trkpt>
      <trkpt lat="43.74146" lon="6.68269">
        <ele>1321</ele>
        <time>2024-05-26T12:12:48Z</time>
      </trkpt>
      <trkpt lat="43.74146" lon="6.68269">
        <ele>1321</ele>
        <time>2024-05-26T12:12:49Z</time>
      </trkpt>
      <trkpt lat="43.74146" lon="6.68269">
        <ele>1321.2</ele>
        <time>2024-05-26T12:12:50Z</time>
      </trkpt>
      <trkpt lat="43.74146" lon="6.68269">
        <ele>1321.2</ele>
        <time>2024-05-26T12:12:51Z</time>
      </trkpt>
      <trkpt lat="43.74146" lon="6.68268">
        <ele>1321.2</ele>
        <time>2024-05-26T12:12:52Z</time>
      </trkpt>
      <trkpt lat="43.74147" lon="6.68267">
        <ele>1321.4</ele>
        <time>2024-05-26T12:12:53Z</time>
      </trkpt>
      <trkpt lat="43.74147" lon="6.68266">
        <ele>1321.4</ele>
        <time>2024-05-26T12:12:54Z</time>
      </trkpt>
      <trkpt lat="43.74147" lon="6.68266">
        <ele>1321.3</ele>
        <time>2024-05-26T12:12:55Z</time>
      </trkpt>
      <trkpt lat="43.74146" lon="6.68266">
        <ele>1321</ele>
        <time>2024-05-26T12:12:56Z</time>
      </trkpt>
      <trkpt lat="43.74146" lon="6.68266">
        <ele>1320.8</ele>
        <time>2024-05-26T12:12:57Z</time>
      </trkpt>
      <trkpt lat="43.74145" lon="6.68266">
        <ele>1320.7</ele>
        <time>2024-05-26T12:12:58Z</time>
      </trkpt>
      <trkpt lat="43.74145" lon="6.68266">
        <ele>1320.6</ele>
        <time>2024-05-26T12:12:59Z</time>
      </trkpt>
      <trkpt lat="43.74145" lon="6.68266">
        <ele>1320.5</ele>
        <time>2024-05-26T12:13:00Z</time>
      </trkpt>
      <trkpt lat="43.74145" lon="6.68266">
        <ele>1320.5</ele>
        <time>2024-05-26T12:13:01Z</time>
      </trkpt>
      <trkpt lat="43.74145" lon="6.68267">
        <ele>1320.4</ele>
        <time>2024-05-26T12:13:02Z</time>
      </trkpt>
      <trkpt lat="43.74145" lon="6.68267">
        <ele>1320.4</ele>
        <time>2024-05-26T12:13:03Z</time>
      </trkpt>
      <trkpt lat="43.74145" lon="6.68266">
        <ele>1320.4</ele>
        <time>2024-05-26T12:13:04Z</time>
      </trkpt>
      <trkpt lat="43.74145" lon="6.68266">
        <ele>1320.3</ele>
        <time>2024-05-26T12:13:05Z</time>
      </trkpt>
      <trkpt lat="43.74145" lon="6.68266">
        <ele>1320.3</ele>
        <time>2024-05-26T12:13:06Z</time>
      </trkpt>
      <trkpt lat="43.74145" lon="6.68266">
        <ele>1320.2</ele>
        <time>2024-05-26T12:13:07Z</time>
      </trkpt>
      <trkpt lat="43.74145" lon="6.68266">
        <ele>1320.1</ele>
        <time>2024-05-26T12:13:08Z</time>
      </trkpt>
      <trkpt lat="43.74145" lon="6.68266">
        <ele>1320.1</ele>
        <time>2024-05-26T12:13:09Z</time>
      </trkpt>
      <trkpt lat="43.74145" lon="6.68266">
        <ele>1320.2</ele>
        <time>2024-05-26T12:13:10Z</time>
      </trkpt>
      <trkpt lat="43.74145" lon="6.68266">
        <ele>1320.1</ele>
        <time>2024-05-26T12:13:11Z</time>
      </trkpt>
      <trkpt lat="43.74145" lon="6.68266">
        <ele>1320.1</ele>
        <time>2024-05-26T12:13:12Z</time>
      </trkpt>
      <trkpt lat="43.74145" lon="6.68266">
        <ele>1320.1</ele>
        <time>2024-05-26T12:13:13Z</time>
      </trkpt>
      <trkpt lat="43.74145" lon="6.68266">
        <ele>1320.3</ele>
        <time>2024-05-26T12:13:14Z</time>
      </trkpt>
      <trkpt lat="43.74145" lon="6.68266">
        <ele>1320.4</ele>
        <time>2024-05-26T12:13:15Z</time>
      </trkpt>
      <trkpt lat="43.74145" lon="6.68266">
        <ele>1320.4</ele>
        <time>2024-05-26T12:13:16Z</time>
      </trkpt>
      <trkpt lat="43.74145" lon="6.68266">
        <ele>1320.4</ele>
        <time>2024-05-26T12:13:17Z</time>
      </trkpt>
      <trkpt lat="43.74145" lon="6.68266">
        <ele>1320.4</ele>
        <time>2024-05-26T12:13:18Z</time>
      </trkpt>
      <trkpt lat="43.74145" lon="6.68267">
        <ele>1320.4</ele>
        <time>2024-05-26T12:13:19Z</time>
      </trkpt>
      <trkpt lat="43.74145" lon="6.68267">
        <ele>1320.3</ele>
        <time>2024-05-26T12:13:20Z</time>
      </trkpt>
      <trkpt lat="43.74145" lon="6.68267">
        <ele>1320.3</ele>
        <time>2024-05-26T12:13:21Z</time>
      </trkpt>
      <trkpt lat="43.74145" lon="6.68267">
        <ele>1320.2</ele>
        <time>2024-05-26T12:13:22Z</time>
      </trkpt>
      <trkpt lat="43.74145" lon="6.68268">
        <ele>1320.3</ele>
        <time>2024-05-26T12:13:23Z</time>
      </trkpt>
      <trkpt lat="43.74145" lon="6.68269">
        <ele>1320.4</ele>
        <time>2024-05-26T12:13:24Z</time>
      </trkpt>
      <trkpt lat="43.74145" lon="6.6827">
        <ele>1320.5</ele>
        <time>2024-05-26T12:13:25Z</time>
      </trkpt>
      <trkpt lat="43.74145" lon="6.68271">
        <ele>1320.5</ele>
        <time>2024-05-26T12:13:26Z</time>
      </trkpt>
      <trkpt lat="43.74145" lon="6.68272">
        <ele>1320.5</ele>
        <time>2024-05-26T12:13:27Z</time>
      </trkpt>
      <trkpt lat="43.74145" lon="6.68273">
        <ele>1320.5</ele>
        <time>2024-05-26T12:13:28Z</time>
      </trkpt>
      <trkpt lat="43.74145" lon="6.68274">
        <ele>1320.5</ele>
        <time>2024-05-26T12:13:29Z</time>
      </trkpt>
      <trkpt lat="43.74145" lon="6.68275">
        <ele>1320.4</ele>
        <time>2024-05-26T12:13:30Z</time>
      </trkpt>
      <trkpt lat="43.74145" lon="6.68276">
        <ele>1320.2</ele>
        <time>2024-05-26T12:13:31Z</time>
      </trkpt>
      <trkpt lat="43.74145" lon="6.68276">
        <ele>1319.9</ele>
        <time>2024-05-26T12:13:32Z</time>
      </trkpt>
      <trkpt lat="43.74145" lon="6.68276">
        <ele>1319.7</ele>
        <time>2024-05-26T12:13:33Z</time>
      </trkpt>
      <trkpt lat="43.74145" lon="6.68277">
        <ele>1319.7</ele>
        <time>2024-05-26T12:13:34Z</time>
      </trkpt>
      <trkpt lat="43.74145" lon="6.68277">
        <ele>1319.6</ele>
        <time>2024-05-26T12:13:35Z</time>
      </trkpt>
      <trkpt lat="43.74145" lon="6.68277">
        <ele>1319.5</ele>
        <time>2024-05-26T12:13:36Z</time>
      </trkpt>
      <trkpt lat="43.74145" lon="6.68277">
        <ele>1319.4</ele>
        <time>2024-05-26T12:13:37Z</time>
      </trkpt>
      <trkpt lat="43.74145" lon="6.68278">
        <ele>1319.3</ele>
        <time>2024-05-26T12:13:38Z</time>
      </trkpt>
      <trkpt lat="43.74145" lon="6.68278">
        <ele>1319.3</ele>
        <time>2024-05-26T12:13:39Z</time>
      </trkpt>
      <trkpt lat="43.74144" lon="6.68279">
        <ele>1319.3</ele>
        <time>2024-05-26T12:13:40Z</time>
      </trkpt>
      <trkpt lat="43.74145" lon="6.68279">
        <ele>1319.3</ele>
        <time>2024-05-26T12:13:41Z</time>
      </trkpt>
      <trkpt lat="43.74144" lon="6.6828">
        <ele>1319.3</ele>
        <time>2024-05-26T12:13:42Z</time>
      </trkpt>
      <trkpt lat="43.74144" lon="6.6828">
        <ele>1319.4</ele>
        <time>2024-05-26T12:13:43Z</time>
      </trkpt>
      <trkpt lat="43.74145" lon="6.68281">
        <ele>1319.4</ele>
        <time>2024-05-26T12:13:44Z</time>
      </trkpt>
      <trkpt lat="43.74145" lon="6.68282">
        <ele>1319.4</ele>
        <time>2024-05-26T12:13:45Z</time>
      </trkpt>
      <trkpt lat="43.74145" lon="6.68282">
        <ele>1319.3</ele>
        <time>2024-05-26T12:13:46Z</time>
      </trkpt>
      <trkpt lat="43.74145" lon="6.68282">
        <ele>1319.2</ele>
        <time>2024-05-26T12:13:47Z</time>
      </trkpt>
      <trkpt lat="43.74145" lon="6.68282">
        <ele>1319.1</ele>
        <time>2024-05-26T12:13:48Z</time>
      </trkpt>
      <trkpt lat="43.74144" lon="6.68283">
        <ele>1319</ele>
        <time>2024-05-26T12:13:49Z</time>
      </trkpt>
      <trkpt lat="43.74144" lon="6.68283">
        <ele>1319</ele>
        <time>2024-05-26T12:13:50Z</time>
      </trkpt>
      <trkpt lat="43.74144" lon="6.68284">
        <ele>1319</ele>
        <time>2024-05-26T12:13:51Z</time>
      </trkpt>
      <trkpt lat="43.74144" lon="6.68284">
        <ele>1319</ele>
        <time>2024-05-26T12:13:52Z</time>
      </trkpt>
      <trkpt lat="43.74144" lon="6.68284">
        <ele>1318.9</ele>
        <time>2024-05-26T12:13:53Z</time>
      </trkpt>
      <trkpt lat="43.74144" lon="6.68285">
        <ele>1318.9</ele>
        <time>2024-05-26T12:13:54Z</time>
      </trkpt>
      <trkpt lat="43.74145" lon="6.68285">
        <ele>1318.8</ele>
        <time>2024-05-26T12:13:55Z</time>
      </trkpt>
      <trkpt lat="43.74145" lon="6.68286">
        <ele>1318.8</ele>
        <time>2024-05-26T12:13:56Z</time>
      </trkpt>
      <trkpt lat="43.74145" lon="6.68286">
        <ele>1318.7</ele>
        <time>2024-05-26T12:13:57Z</time>
      </trkpt>
      <trkpt lat="43.74145" lon="6.68286">
        <ele>1318.8</ele>
        <time>2024-05-26T12:13:58Z</time>
      </trkpt>
      <trkpt lat="43.74145" lon="6.68285">
        <ele>1318.8</ele>
        <time>2024-05-26T12:13:59Z</time>
      </trkpt>
      <trkpt lat="43.74145" lon="6.68285">
        <ele>1318.8</ele>
        <time>2024-05-26T12:14:00Z</time>
      </trkpt>
      <trkpt lat="43.74145" lon="6.68285">
        <ele>1318.8</ele>
        <time>2024-05-26T12:14:01Z</time>
      </trkpt>
      <trkpt lat="43.74145" lon="6.68285">
        <ele>1318.8</ele>
        <time>2024-05-26T12:14:02Z</time>
      </trkpt>
      <trkpt lat="43.74145" lon="6.68285">
        <ele>1318.7</ele>
        <time>2024-05-26T12:14:03Z</time>
      </trkpt>
      <trkpt lat="43.74146" lon="6.68286">
        <ele>1318.8</ele>
        <time>2024-05-26T12:14:04Z</time>
      </trkpt>
      <trkpt lat="43.74146" lon="6.68286">
        <ele>1318.8</ele>
        <time>2024-05-26T12:14:05Z</time>
      </trkpt>
      <trkpt lat="43.74146" lon="6.68287">
        <ele>1318.9</ele>
        <time>2024-05-26T12:14:06Z</time>
      </trkpt>
      <trkpt lat="43.74146" lon="6.68287">
        <ele>1319</ele>
        <time>2024-05-26T12:14:07Z</time>
      </trkpt>
      <trkpt lat="43.74146" lon="6.68287">
        <ele>1319</ele>
        <time>2024-05-26T12:14:08Z</time>
      </trkpt>
      <trkpt lat="43.74146" lon="6.68287">
        <ele>1318.9</ele>
        <time>2024-05-26T12:14:09Z</time>
      </trkpt>
      <trkpt lat="43.74146" lon="6.68287">
        <ele>1319</ele>
        <time>2024-05-26T12:14:10Z</time>
      </trkpt>
      <trkpt lat="43.74146" lon="6.68287">
        <ele>1319</ele>
        <time>2024-05-26T12:14:11Z</time>
      </trkpt>
      <trkpt lat="43.74146" lon="6.68287">
        <ele>1319</ele>
        <time>2024-05-26T12:14:12Z</time>
      </trkpt>
      <trkpt lat="43.74146" lon="6.68287">
        <ele>1319</ele>
        <time>2024-05-26T12:14:13Z</time>
      </trkpt>
      <trkpt lat="43.74146" lon="6.68287">
        <ele>1319</ele>
        <time>2024-05-26T12:14:14Z</time>
      </trkpt>
      <trkpt lat="43.74146" lon="6.68287">
        <ele>1318.9</ele>
        <time>2024-05-26T12:14:15Z</time>
      </trkpt>
      <trkpt lat="43.74146" lon="6.68287">
        <ele>1319</ele>
        <time>2024-05-26T12:14:16Z</time>
      </trkpt>
      <trkpt lat="43.74146" lon="6.68287">
        <ele>1319</ele>
        <time>2024-05-26T12:14:17Z</time>
      </trkpt>
      <trkpt lat="43.74146" lon="6.68287">
        <ele>1319</ele>
        <time>2024-05-26T12:14:18Z</time>
      </trkpt>
      <trkpt lat="43.74147" lon="6.68287">
        <ele>1319</ele>
        <time>2024-05-26T12:14:19Z</time>
      </trkpt>
      <trkpt lat="43.74147" lon="6.68286">
        <ele>1318.9</ele>
        <time>2024-05-26T12:14:20Z</time>
      </trkpt>
      <trkpt lat="43.74147" lon="6.68286">
        <ele>1318.9</ele>
        <time>2024-05-26T12:14:21Z</time>
      </trkpt>
      <trkpt lat="43.74147" lon="6.68286">
        <ele>1319</ele>
        <time>2024-05-26T12:14:22Z</time>
      </trkpt>
      <trkpt lat="43.74147" lon="6.68287">
        <ele>1319</ele>
        <time>2024-05-26T12:14:23Z</time>
      </trkpt>
      <trkpt lat="43.74147" lon="6.68287">
        <ele>1319</ele>
        <time>2024-05-26T12:14:24Z</time>
      </trkpt>
      <trkpt lat="43.74148" lon="6.68287">
        <ele>1319.1</ele>
        <time>2024-05-26T12:14:25Z</time>
      </trkpt>
      <trkpt lat="43.74147" lon="6.68287">
        <ele>1319.1</ele>
        <time>2024-05-26T12:14:26Z</time>
      </trkpt>
      <trkpt lat="43.74148" lon="6.68287">
        <ele>1319.1</ele>
        <time>2024-05-26T12:14:27Z</time>
      </trkpt>
      <trkpt lat="43.74148" lon="6.68287">
        <ele>1319.1</ele>
        <time>2024-05-26T12:14:28Z</time>
      </trkpt>
      <trkpt lat="43.74148" lon="6.68287">
        <ele>1319.1</ele>
        <time>2024-05-26T12:14:29Z</time>
      </trkpt>
      <trkpt lat="43.74148" lon="6.68287">
        <ele>1319.1</ele>
        <time>2024-05-26T12:14:30Z</time>
      </trkpt>
      <trkpt lat="43.74148" lon="6.68287">
        <ele>1319.1</ele>
        <time>2024-05-26T12:14:31Z</time>
      </trkpt>
      <trkpt lat="43.74149" lon="6.68287">
        <ele>1319.1</ele>
        <time>2024-05-26T12:14:32Z</time>
      </trkpt>
      <trkpt lat="43.74149" lon="6.68287">
        <ele>1319.1</ele>
        <time>2024-05-26T12:14:33Z</time>
      </trkpt>
      <trkpt lat="43.74149" lon="6.68287">
        <ele>1319.1</ele>
        <time>2024-05-26T12:14:34Z</time>
      </trkpt>
      <trkpt lat="43.74149" lon="6.68287">
        <ele>1319.2</ele>
        <time>2024-05-26T12:14:35Z</time>
      </trkpt>
      <trkpt lat="43.74149" lon="6.68287">
        <ele>1319.2</ele>
        <time>2024-05-26T12:14:36Z</time>
      </trkpt>
      <trkpt lat="43.74149" lon="6.68287">
        <ele>1319.1</ele>
        <time>2024-05-26T12:14:37Z</time>
      </trkpt>
      <trkpt lat="43.74149" lon="6.68288">
        <ele>1319</ele>
        <time>2024-05-26T12:14:38Z</time>
      </trkpt>
      <trkpt lat="43.74149" lon="6.68287">
        <ele>1318.9</ele>
        <time>2024-05-26T12:14:39Z</time>
      </trkpt>
      <trkpt lat="43.7415" lon="6.68288">
        <ele>1318.9</ele>
        <time>2024-05-26T12:14:40Z</time>
      </trkpt>
      <trkpt lat="43.7415" lon="6.68288">
        <ele>1318.9</ele>
        <time>2024-05-26T12:14:41Z</time>
      </trkpt>
      <trkpt lat="43.7415" lon="6.68288">
        <ele>1318.9</ele>
        <time>2024-05-26T12:14:42Z</time>
      </trkpt>
      <trkpt lat="43.7415" lon="6.68288">
        <ele>1318.9</ele>
        <time>2024-05-26T12:14:43Z</time>
      </trkpt>
      <trkpt lat="43.7415" lon="6.68289">
        <ele>1318.9</ele>
        <time>2024-05-26T12:14:44Z</time>
      </trkpt>
      <trkpt lat="43.74151" lon="6.68288">
        <ele>1318.8</ele>
        <time>2024-05-26T12:14:45Z</time>
      </trkpt>
      <trkpt lat="43.74151" lon="6.68288">
        <ele>1318.8</ele>
        <time>2024-05-26T12:14:46Z</time>
      </trkpt>
      <trkpt lat="43.74151" lon="6.68288">
        <ele>1318.8</ele>
        <time>2024-05-26T12:14:47Z</time>
      </trkpt>
      <trkpt lat="43.74151" lon="6.68288">
        <ele>1318.7</ele>
        <time>2024-05-26T12:14:48Z</time>
      </trkpt>
      <trkpt lat="43.74151" lon="6.68288">
        <ele>1318.6</ele>
        <time>2024-05-26T12:14:49Z</time>
      </trkpt>
      <trkpt lat="43.74151" lon="6.68288">
        <ele>1318.6</ele>
        <time>2024-05-26T12:14:50Z</time>
      </trkpt>
      <trkpt lat="43.74151" lon="6.68288">
        <ele>1318.6</ele>
        <time>2024-05-26T12:14:51Z</time>
      </trkpt>
      <trkpt lat="43.74151" lon="6.68288">
        <ele>1318.6</ele>
        <time>2024-05-26T12:14:52Z</time>
      </trkpt>
      <trkpt lat="43.74151" lon="6.68288">
        <ele>1318.6</ele>
        <time>2024-05-26T12:14:53Z</time>
      </trkpt>
      <trkpt lat="43.74151" lon="6.68288">
        <ele>1318.6</ele>
        <time>2024-05-26T12:14:54Z</time>
      </trkpt>
      <trkpt lat="43.7415" lon="6.68287">
        <ele>1318.6</ele>
        <time>2024-05-26T12:14:55Z</time>
      </trkpt>
      <trkpt lat="43.7415" lon="6.68287">
        <ele>1318.6</ele>
        <time>2024-05-26T12:14:56Z</time>
      </trkpt>
      <trkpt lat="43.7415" lon="6.68287">
        <ele>1318.6</ele>
        <time>2024-05-26T12:14:57Z</time>
      </trkpt>
      <trkpt lat="43.74149" lon="6.68287">
        <ele>1318.6</ele>
        <time>2024-05-26T12:14:58Z</time>
      </trkpt>
      <trkpt lat="43.74149" lon="6.68286">
        <ele>1318.6</ele>
        <time>2024-05-26T12:14:59Z</time>
      </trkpt>
      <trkpt lat="43.74149" lon="6.68286">
        <ele>1318.5</ele>
        <time>2024-05-26T12:15:00Z</time>
      </trkpt>
      <trkpt lat="43.74149" lon="6.68286">
        <ele>1318.5</ele>
        <time>2024-05-26T12:15:01Z</time>
      </trkpt>
      <trkpt lat="43.74149" lon="6.68287">
        <ele>1318.5</ele>
        <time>2024-05-26T12:15:02Z</time>
      </trkpt>
      <trkpt lat="43.74149" lon="6.68287">
        <ele>1318.4</ele>
        <time>2024-05-26T12:15:03Z</time>
      </trkpt>
      <trkpt lat="43.7415" lon="6.68287">
        <ele>1318.4</ele>
        <time>2024-05-26T12:15:04Z</time>
      </trkpt>
      <trkpt lat="43.7415" lon="6.68287">
        <ele>1318.4</ele>
        <time>2024-05-26T12:15:05Z</time>
      </trkpt>
      <trkpt lat="43.7415" lon="6.68287">
        <ele>1318.4</ele>
        <time>2024-05-26T12:15:06Z</time>
      </trkpt>
      <trkpt lat="43.7415" lon="6.68287">
        <ele>1318.3</ele>
        <time>2024-05-26T12:15:07Z</time>
      </trkpt>
      <trkpt lat="43.74151" lon="6.68287">
        <ele>1318.3</ele>
        <time>2024-05-26T12:15:08Z</time>
      </trkpt>
      <trkpt lat="43.74151" lon="6.68285">
        <ele>1318.4</ele>
        <time>2024-05-26T12:15:09Z</time>
      </trkpt>
      <trkpt lat="43.7415" lon="6.68285">
        <ele>1318.5</ele>
        <time>2024-05-26T12:15:10Z</time>
      </trkpt>
      <trkpt lat="43.7415" lon="6.68285">
        <ele>1318.5</ele>
        <time>2024-05-26T12:15:11Z</time>
      </trkpt>
      <trkpt lat="43.7415" lon="6.68285">
        <ele>1318.6</ele>
        <time>2024-05-26T12:15:12Z</time>
      </trkpt>
      <trkpt lat="43.7415" lon="6.68285">
        <ele>1318.6</ele>
        <time>2024-05-26T12:15:13Z</time>
      </trkpt>
      <trkpt lat="43.7415" lon="6.68285">
        <ele>1318.6</ele>
        <time>2024-05-26T12:15:14Z</time>
      </trkpt>
      <trkpt lat="43.7415" lon="6.68284">
        <ele>1318.6</ele>
        <time>2024-05-26T12:15:15Z</time>
      </trkpt>
      <trkpt lat="43.7415" lon="6.68284">
        <ele>1318.6</ele>
        <time>2024-05-26T12:15:16Z</time>
      </trkpt>
      <trkpt lat="43.7415" lon="6.68285">
        <ele>1318.5</ele>
        <time>2024-05-26T12:15:17Z</time>
      </trkpt>
      <trkpt lat="43.7415" lon="6.68285">
        <ele>1318.6</ele>
        <time>2024-05-26T12:15:18Z</time>
      </trkpt>
      <trkpt lat="43.7415" lon="6.68285">
        <ele>1318.5</ele>
        <time>2024-05-26T12:15:19Z</time>
      </trkpt>
      <trkpt lat="43.7415" lon="6.68285">
        <ele>1318.5</ele>
        <time>2024-05-26T12:15:20Z</time>
      </trkpt>
      <trkpt lat="43.7415" lon="6.68285">
        <ele>1318.5</ele>
        <time>2024-05-26T12:15:21Z</time>
      </trkpt>
      <trkpt lat="43.7415" lon="6.68285">
        <ele>1318.5</ele>
        <time>2024-05-26T12:15:22Z</time>
      </trkpt>
      <trkpt lat="43.7415" lon="6.68284">
        <ele>1318.4</ele>
        <time>2024-05-26T12:15:23Z</time>
      </trkpt>
      <trkpt lat="43.7415" lon="6.68284">
        <ele>1318.4</ele>
        <time>2024-05-26T12:15:24Z</time>
      </trkpt>
      <trkpt lat="43.7415" lon="6.68284">
        <ele>1318.3</ele>
        <time>2024-05-26T12:15:25Z</time>
      </trkpt>
      <trkpt lat="43.7415" lon="6.68284">
        <ele>1318.3</ele>
        <time>2024-05-26T12:15:26Z</time>
      </trkpt>
      <trkpt lat="43.74151" lon="6.68284">
        <ele>1318.2</ele>
        <time>2024-05-26T12:15:27Z</time>
      </trkpt>
      <trkpt lat="43.74151" lon="6.68284">
        <ele>1318.1</ele>
        <time>2024-05-26T12:15:28Z</time>
      </trkpt>
      <trkpt lat="43.74151" lon="6.68283">
        <ele>1318.1</ele>
        <time>2024-05-26T12:15:29Z</time>
      </trkpt>
      <trkpt lat="43.74152" lon="6.68283">
        <ele>1318</ele>
        <time>2024-05-26T12:15:30Z</time>
      </trkpt>
      <trkpt lat="43.74152" lon="6.68282">
        <ele>1318</ele>
        <time>2024-05-26T12:15:31Z</time>
      </trkpt>
      <trkpt lat="43.74151" lon="6.68281">
        <ele>1317.9</ele>
        <time>2024-05-26T12:15:32Z</time>
      </trkpt>
      <trkpt lat="43.74151" lon="6.68281">
        <ele>1317.9</ele>
        <time>2024-05-26T12:15:33Z</time>
      </trkpt>
      <trkpt lat="43.74151" lon="6.68281">
        <ele>1317.9</ele>
        <time>2024-05-26T12:15:34Z</time>
      </trkpt>
      <trkpt lat="43.74151" lon="6.68281">
        <ele>1317.9</ele>
        <time>2024-05-26T12:15:35Z</time>
      </trkpt>
      <trkpt lat="43.7415" lon="6.68281">
        <ele>1317.9</ele>
        <time>2024-05-26T12:15:36Z</time>
      </trkpt>
      <trkpt lat="43.7415" lon="6.6828">
        <ele>1317.9</ele>
        <time>2024-05-26T12:15:37Z</time>
      </trkpt>
      <trkpt lat="43.7415" lon="6.68281">
        <ele>1318</ele>
        <time>2024-05-26T12:15:38Z</time>
      </trkpt>
      <trkpt lat="43.7415" lon="6.68281">
        <ele>1318.1</ele>
        <time>2024-05-26T12:15:39Z</time>
      </trkpt>
      <trkpt lat="43.7415" lon="6.68281">
        <ele>1318.1</ele>
        <time>2024-05-26T12:15:40Z</time>
      </trkpt>
      <trkpt lat="43.7415" lon="6.68281">
        <ele>1318.1</ele>
        <time>2024-05-26T12:15:41Z</time>
      </trkpt>
      <trkpt lat="43.7415" lon="6.68281">
        <ele>1318.2</ele>
        <time>2024-05-26T12:15:42Z</time>
      </trkpt>
      <trkpt lat="43.7415" lon="6.68281">
        <ele>1318.2</ele>
        <time>2024-05-26T12:15:43Z</time>
      </trkpt>
      <trkpt lat="43.74149" lon="6.68281">
        <ele>1318.2</ele>
        <time>2024-05-26T12:15:44Z</time>
      </trkpt>
      <trkpt lat="43.74149" lon="6.6828">
        <ele>1318.2</ele>
        <time>2024-05-26T12:15:45Z</time>
      </trkpt>
      <trkpt lat="43.74149" lon="6.6828">
        <ele>1318.2</ele>
        <time>2024-05-26T12:15:46Z</time>
      </trkpt>
      <trkpt lat="43.74149" lon="6.6828">
        <ele>1318.2</ele>
        <time>2024-05-26T12:15:47Z</time>
      </trkpt>
      <trkpt lat="43.74149" lon="6.6828">
        <ele>1318.2</ele>
        <time>2024-05-26T12:15:48Z</time>
      </trkpt>
      <trkpt lat="43.74149" lon="6.6828">
        <ele>1318.1</ele>
        <time>2024-05-26T12:15:49Z</time>
      </trkpt>
      <trkpt lat="43.74149" lon="6.6828">
        <ele>1318.2</ele>
        <time>2024-05-26T12:15:50Z</time>
      </trkpt>
      <trkpt lat="43.74149" lon="6.6828">
        <ele>1318.2</ele>
        <time>2024-05-26T12:15:51Z</time>
      </trkpt>
      <trkpt lat="43.74149" lon="6.6828">
        <ele>1318.1</ele>
        <time>2024-05-26T12:15:52Z</time>
      </trkpt>
      <trkpt lat="43.74149" lon="6.6828">
        <ele>1318.1</ele>
        <time>2024-05-26T12:15:53Z</time>
      </trkpt>
      <trkpt lat="43.74149" lon="6.6828">
        <ele>1318.1</ele>
        <time>2024-05-26T12:15:54Z</time>
      </trkpt>
      <trkpt lat="43.74149" lon="6.6828">
        <ele>1318.1</ele>
        <time>2024-05-26T12:15:55Z</time>
      </trkpt>
      <trkpt lat="43.7415" lon="6.6828">
        <ele>1318.2</ele>
        <time>2024-05-26T12:15:56Z</time>
      </trkpt>
      <trkpt lat="43.7415" lon="6.6828">
        <ele>1318.2</ele>
        <time>2024-05-26T12:15:57Z</time>
      </trkpt>
      <trkpt lat="43.7415" lon="6.6828">
        <ele>1318.2</ele>
        <time>2024-05-26T12:15:58Z</time>
      </trkpt>
      <trkpt lat="43.74149" lon="6.6828">
        <ele>1318.1</ele>
        <time>2024-05-26T12:15:59Z</time>
      </trkpt>
      <trkpt lat="43.74149" lon="6.6828">
        <ele>1318.1</ele>
        <time>2024-05-26T12:16:00Z</time>
      </trkpt>
      <trkpt lat="43.74149" lon="6.6828">
        <ele>1318.1</ele>
        <time>2024-05-26T12:16:01Z</time>
      </trkpt>
      <trkpt lat="43.74149" lon="6.6828">
        <ele>1318.1</ele>
        <time>2024-05-26T12:16:02Z</time>
      </trkpt>
      <trkpt lat="43.74149" lon="6.6828">
        <ele>1318.1</ele>
        <time>2024-05-26T12:16:03Z</time>
      </trkpt>
      <trkpt lat="43.74149" lon="6.6828">
        <ele>1318.2</ele>
        <time>2024-05-26T12:16:04Z</time>
      </trkpt>
      <trkpt lat="43.74149" lon="6.6828">
        <ele>1318.2</ele>
        <time>2024-05-26T12:16:05Z</time>
      </trkpt>
      <trkpt lat="43.74148" lon="6.6828">
        <ele>1318.2</ele>
        <time>2024-05-26T12:16:06Z</time>
      </trkpt>
      <trkpt lat="43.74148" lon="6.6828">
        <ele>1318.2</ele>
        <time>2024-05-26T12:16:07Z</time>
      </trkpt>
      <trkpt lat="43.74148" lon="6.6828">
        <ele>1318.2</ele>
        <time>2024-05-26T12:16:08Z</time>
      </trkpt>
      <trkpt lat="43.74148" lon="6.6828">
        <ele>1318.2</ele>
        <time>2024-05-26T12:16:09Z</time>
      </trkpt>
      <trkpt lat="43.74148" lon="6.6828">
        <ele>1318.2</ele>
        <time>2024-05-26T12:16:10Z</time>
      </trkpt>
      <trkpt lat="43.74148" lon="6.68279">
        <ele>1318.3</ele>
        <time>2024-05-26T12:16:11Z</time>
      </trkpt>
      <trkpt lat="43.74148" lon="6.68279">
        <ele>1318.3</ele>
        <time>2024-05-26T12:16:12Z</time>
      </trkpt>
      <trkpt lat="43.74148" lon="6.68279">
        <ele>1318.2</ele>
        <time>2024-05-26T12:16:13Z</time>
      </trkpt>
      <trkpt lat="43.74148" lon="6.68279">
        <ele>1318.2</ele>
        <time>2024-05-26T12:16:14Z</time>
      </trkpt>
      <trkpt lat="43.74148" lon="6.68279">
        <ele>1318.2</ele>
        <time>2024-05-26T12:16:15Z</time>
      </trkpt>
      <trkpt lat="43.74148" lon="6.68278">
        <ele>1318.2</ele>
        <time>2024-05-26T12:16:16Z</time>
      </trkpt>
      <trkpt lat="43.74148" lon="6.68278">
        <ele>1318.2</ele>
        <time>2024-05-26T12:16:17Z</time>
      </trkpt>
      <trkpt lat="43.74148" lon="6.68278">
        <ele>1318.2</ele>
        <time>2024-05-26T12:16:18Z</time>
      </trkpt>
      <trkpt lat="43.74148" lon="6.68278">
        <ele>1318.2</ele>
        <time>2024-05-26T12:16:19Z</time>
      </trkpt>
      <trkpt lat="43.74148" lon="6.68278">
        <ele>1318.2</ele>
        <time>2024-05-26T12:16:20Z</time>
      </trkpt>
      <trkpt lat="43.74147" lon="6.68278">
        <ele>1318.2</ele>
        <time>2024-05-26T12:16:21Z</time>
      </trkpt>
      <trkpt lat="43.74147" lon="6.68278">
        <ele>1318.1</ele>
        <time>2024-05-26T12:16:22Z</time>
      </trkpt>
      <trkpt lat="43.74147" lon="6.68278">
        <ele>1318.1</ele>
        <time>2024-05-26T12:16:23Z</time>
      </trkpt>
      <trkpt lat="43.74147" lon="6.68278">
        <ele>1318.1</ele>
        <time>2024-05-26T12:16:24Z</time>
      </trkpt>
      <trkpt lat="43.74147" lon="6.68279">
        <ele>1318</ele>
        <time>2024-05-26T12:16:25Z</time>
      </trkpt>
      <trkpt lat="43.74147" lon="6.68279">
        <ele>1318</ele>
        <time>2024-05-26T12:16:26Z</time>
      </trkpt>
      <trkpt lat="43.74147" lon="6.68279">
        <ele>1318</ele>
        <time>2024-05-26T12:16:27Z</time>
      </trkpt>
      <trkpt lat="43.74147" lon="6.68279">
        <ele>1318</ele>
        <time>2024-05-26T12:16:28Z</time>
      </trkpt>
      <trkpt lat="43.74147" lon="6.68279">
        <ele>1318</ele>
        <time>2024-05-26T12:16:29Z</time>
      </trkpt>
      <trkpt lat="43.74147" lon="6.68279">
        <ele>1318</ele>
        <time>2024-05-26T12:16:30Z</time>
      </trkpt>
      <trkpt lat="43.74147" lon="6.68279">
        <ele>1317.9</ele>
        <time>2024-05-26T12:16:31Z</time>
      </trkpt>
      <trkpt lat="43.74147" lon="6.68279">
        <ele>1317.9</ele>
        <time>2024-05-26T12:16:32Z</time>
      </trkpt>
      <trkpt lat="43.74147" lon="6.68279">
        <ele>1317.9</ele>
        <time>2024-05-26T12:16:33Z</time>
      </trkpt>
      <trkpt lat="43.74147" lon="6.6828">
        <ele>1317.8</ele>
        <time>2024-05-26T12:16:34Z</time>
      </trkpt>
      <trkpt lat="43.74147" lon="6.68279">
        <ele>1317.7</ele>
        <time>2024-05-26T12:16:35Z</time>
      </trkpt>
      <trkpt lat="43.74147" lon="6.6828">
        <ele>1317.7</ele>
        <time>2024-05-26T12:16:36Z</time>
      </trkpt>
      <trkpt lat="43.74146" lon="6.6828">
        <ele>1317.8</ele>
        <time>2024-05-26T12:16:37Z</time>
      </trkpt>
      <trkpt lat="43.74146" lon="6.6828">
        <ele>1317.8</ele>
        <time>2024-05-26T12:16:38Z</time>
      </trkpt>
      <trkpt lat="43.74146" lon="6.68281">
        <ele>1317.8</ele>
        <time>2024-05-26T12:16:39Z</time>
      </trkpt>
      <trkpt lat="43.74146" lon="6.68281">
        <ele>1317.8</ele>
        <time>2024-05-26T12:16:40Z</time>
      </trkpt>
      <trkpt lat="43.74146" lon="6.68281">
        <ele>1317.9</ele>
        <time>2024-05-26T12:16:41Z</time>
      </trkpt>
      <trkpt lat="43.74145" lon="6.68281">
        <ele>1317.9</ele>
        <time>2024-05-26T12:16:42Z</time>
      </trkpt>
      <trkpt lat="43.74145" lon="6.68281">
        <ele>1318</ele>
        <time>2024-05-26T12:16:43Z</time>
      </trkpt>
      <trkpt lat="43.74145" lon="6.68281">
        <ele>1318.1</ele>
        <time>2024-05-26T12:16:44Z</time>
      </trkpt>
      <trkpt lat="43.74145" lon="6.68282">
        <ele>1318.1</ele>
        <time>2024-05-26T12:16:45Z</time>
      </trkpt>
      <trkpt lat="43.74145" lon="6.68282">
        <ele>1318.1</ele>
        <time>2024-05-26T12:16:46Z</time>
      </trkpt>
      <trkpt lat="43.74145" lon="6.68282">
        <ele>1318.1</ele>
        <time>2024-05-26T12:16:47Z</time>
      </trkpt>
      <trkpt lat="43.74145" lon="6.68282">
        <ele>1318.1</ele>
        <time>2024-05-26T12:16:48Z</time>
      </trkpt>
      <trkpt lat="43.74145" lon="6.68282">
        <ele>1318.1</ele>
        <time>2024-05-26T12:16:49Z</time>
      </trkpt>
      <trkpt lat="43.74145" lon="6.68282">
        <ele>1318.2</ele>
        <time>2024-05-26T12:16:50Z</time>
      </trkpt>
      <trkpt lat="43.74145" lon="6.68282">
        <ele>1318.2</ele>
        <time>2024-05-26T12:16:51Z</time>
      </trkpt>
      <trkpt lat="43.74145" lon="6.68282">
        <ele>1318.2</ele>
        <time>2024-05-26T12:16:52Z</time>
      </trkpt>
      <trkpt lat="43.74145" lon="6.68283">
        <ele>1318.2</ele>
        <time>2024-05-26T12:16:53Z</time>
      </trkpt>
      <trkpt lat="43.74145" lon="6.68283">
        <ele>1318.2</ele>
        <time>2024-05-26T12:16:54Z</time>
      </trkpt>
      <trkpt lat="43.74145" lon="6.6828">
        <ele>1318.3</ele>
        <time>2024-05-26T12:16:55Z</time>
      </trkpt>
      <trkpt lat="43.74145" lon="6.6828">
        <ele>1318.4</ele>
        <time>2024-05-26T12:16:56Z</time>
      </trkpt>
      <trkpt lat="43.74145" lon="6.6828">
        <ele>1318.6</ele>
        <time>2024-05-26T12:16:57Z</time>
      </trkpt>
      <trkpt lat="43.74145" lon="6.68281">
        <ele>1318.7</ele>
        <time>2024-05-26T12:16:58Z</time>
      </trkpt>
      <trkpt lat="43.74145" lon="6.68281">
        <ele>1319</ele>
        <time>2024-05-26T12:16:59Z</time>
      </trkpt>
      <trkpt lat="43.74145" lon="6.6828">
        <ele>1319.2</ele>
        <time>2024-05-26T12:17:00Z</time>
      </trkpt>
      <trkpt lat="43.74144" lon="6.6828">
        <ele>1319.3</ele>
        <time>2024-05-26T12:17:01Z</time>
      </trkpt>
      <trkpt lat="43.74144" lon="6.6828">
        <ele>1319.3</ele>
        <time>2024-05-26T12:17:02Z</time>
      </trkpt>
      <trkpt lat="43.74144" lon="6.68279">
        <ele>1319.4</ele>
        <time>2024-05-26T12:17:03Z</time>
      </trkpt>
      <trkpt lat="43.74144" lon="6.6828">
        <ele>1319.2</ele>
        <time>2024-05-26T12:17:04Z</time>
      </trkpt>
      <trkpt lat="43.74144" lon="6.6828">
        <ele>1319.2</ele>
        <time>2024-05-26T12:17:05Z</time>
      </trkpt>
      <trkpt lat="43.74144" lon="6.68279">
        <ele>1319.1</ele>
        <time>2024-05-26T12:17:06Z</time>
      </trkpt>
      <trkpt lat="43.74144" lon="6.68279">
        <ele>1319.2</ele>
        <time>2024-05-26T12:17:07Z</time>
      </trkpt>
      <trkpt lat="43.74144" lon="6.68279">
        <ele>1319.2</ele>
        <time>2024-05-26T12:17:08Z</time>
      </trkpt>
      <trkpt lat="43.74143" lon="6.68279">
        <ele>1319.2</ele>
        <time>2024-05-26T12:17:09Z</time>
      </trkpt>
      <trkpt lat="43.74143" lon="6.68279">
        <ele>1319.2</ele>
        <time>2024-05-26T12:17:10Z</time>
      </trkpt>
      <trkpt lat="43.74144" lon="6.68279">
        <ele>1319.2</ele>
        <time>2024-05-26T12:17:11Z</time>
      </trkpt>
      <trkpt lat="43.74144" lon="6.68279">
        <ele>1319.2</ele>
        <time>2024-05-26T12:17:12Z</time>
      </trkpt>
      <trkpt lat="43.74143" lon="6.68279">
        <ele>1319.3</ele>
        <time>2024-05-26T12:17:13Z</time>
      </trkpt>
      <trkpt lat="43.74143" lon="6.68279">
        <ele>1319.3</ele>
        <time>2024-05-26T12:17:14Z</time>
      </trkpt>
      <trkpt lat="43.74143" lon="6.6828">
        <ele>1319.3</ele>
        <time>2024-05-26T12:17:15Z</time>
      </trkpt>
      <trkpt lat="43.74143" lon="6.68279">
        <ele>1319.3</ele>
        <time>2024-05-26T12:17:16Z</time>
      </trkpt>
      <trkpt lat="43.74143" lon="6.6828">
        <ele>1319.4</ele>
        <time>2024-05-26T12:17:17Z</time>
      </trkpt>
      <trkpt lat="43.74143" lon="6.6828">
        <ele>1319.4</ele>
        <time>2024-05-26T12:17:18Z</time>
      </trkpt>
      <trkpt lat="43.74143" lon="6.6828">
        <ele>1319.4</ele>
        <time>2024-05-26T12:17:19Z</time>
      </trkpt>
      <trkpt lat="43.74143" lon="6.68281">
        <ele>1319.3</ele>
        <time>2024-05-26T12:17:20Z</time>
      </trkpt>
      <trkpt lat="43.74143" lon="6.6828">
        <ele>1319.2</ele>
        <time>2024-05-26T12:17:21Z</time>
      </trkpt>
      <trkpt lat="43.74143" lon="6.68281">
        <ele>1319.1</ele>
        <time>2024-05-26T12:17:22Z</time>
      </trkpt>
      <trkpt lat="43.74143" lon="6.68281">
        <ele>1319.1</ele>
        <time>2024-05-26T12:17:23Z</time>
      </trkpt>
      <trkpt lat="43.74143" lon="6.68281">
        <ele>1319</ele>
        <time>2024-05-26T12:17:24Z</time>
      </trkpt>
      <trkpt lat="43.74143" lon="6.68281">
        <ele>1319</ele>
        <time>2024-05-26T12:17:25Z</time>
      </trkpt>
      <trkpt lat="43.74143" lon="6.68281">
        <ele>1319.1</ele>
        <time>2024-05-26T12:17:26Z</time>
      </trkpt>
      <trkpt lat="43.74143" lon="6.68281">
        <ele>1319.2</ele>
        <time>2024-05-26T12:17:27Z</time>
      </trkpt>
      <trkpt lat="43.74143" lon="6.6828">
        <ele>1319.2</ele>
        <time>2024-05-26T12:17:28Z</time>
      </trkpt>
      <trkpt lat="43.74143" lon="6.68279">
        <ele>1319.3</ele>
        <time>2024-05-26T12:17:29Z</time>
      </trkpt>
      <trkpt lat="43.74143" lon="6.68279">
        <ele>1319.3</ele>
        <time>2024-05-26T12:17:30Z</time>
      </trkpt>
      <trkpt lat="43.74143" lon="6.68278">
        <ele>1319.3</ele>
        <time>2024-05-26T12:17:31Z</time>
      </trkpt>
      <trkpt lat="43.74143" lon="6.68279">
        <ele>1319.3</ele>
        <time>2024-05-26T12:17:32Z</time>
      </trkpt>
      <trkpt lat="43.74143" lon="6.68279">
        <ele>1319.2</ele>
        <time>2024-05-26T12:17:33Z</time>
      </trkpt>
      <trkpt lat="43.74143" lon="6.6828">
        <ele>1319.2</ele>
        <time>2024-05-26T12:17:34Z</time>
      </trkpt>
      <trkpt lat="43.74142" lon="6.6828">
        <ele>1319.2</ele>
        <time>2024-05-26T12:17:35Z</time>
      </trkpt>
      <trkpt lat="43.74142" lon="6.6828">
        <ele>1319.2</ele>
        <time>2024-05-26T12:17:36Z</time>
      </trkpt>
      <trkpt lat="43.74142" lon="6.6828">
        <ele>1319.2</ele>
        <time>2024-05-26T12:17:37Z</time>
      </trkpt>
      <trkpt lat="43.74142" lon="6.6828">
        <ele>1319.1</ele>
        <time>2024-05-26T12:17:38Z</time>
      </trkpt>
      <trkpt lat="43.74142" lon="6.6828">
        <ele>1319.1</ele>
        <time>2024-05-26T12:17:39Z</time>
      </trkpt>
      <trkpt lat="43.74142" lon="6.6828">
        <ele>1319.1</ele>
        <time>2024-05-26T12:17:40Z</time>
      </trkpt>
      <trkpt lat="43.74142" lon="6.6828">
        <ele>1319</ele>
        <time>2024-05-26T12:17:41Z</time>
      </trkpt>
      <trkpt lat="43.74142" lon="6.6828">
        <ele>1319</ele>
        <time>2024-05-26T12:17:42Z</time>
      </trkpt>
      <trkpt lat="43.74142" lon="6.6828">
        <ele>1319</ele>
        <time>2024-05-26T12:17:43Z</time>
      </trkpt>
      <trkpt lat="43.74142" lon="6.6828">
        <ele>1319</ele>
        <time>2024-05-26T12:17:44Z</time>
      </trkpt>
      <trkpt lat="43.74142" lon="6.6828">
        <ele>1319</ele>
        <time>2024-05-26T12:17:45Z</time>
      </trkpt>
      <trkpt lat="43.74142" lon="6.68279">
        <ele>1319</ele>
        <time>2024-05-26T12:17:46Z</time>
      </trkpt>
      <trkpt lat="43.74142" lon="6.68279">
        <ele>1319.1</ele>
        <time>2024-05-26T12:17:47Z</time>
      </trkpt>
      <trkpt lat="43.74142" lon="6.68279">
        <ele>1319.1</ele>
        <time>2024-05-26T12:17:48Z</time>
      </trkpt>
      <trkpt lat="43.74142" lon="6.68279">
        <ele>1319.1</ele>
        <time>2024-05-26T12:17:49Z</time>
      </trkpt>
      <trkpt lat="43.74142" lon="6.68279">
        <ele>1319.1</ele>
        <time>2024-05-26T12:17:50Z</time>
      </trkpt>
      <trkpt lat="43.74142" lon="6.68279">
        <ele>1319</ele>
        <time>2024-05-26T12:17:51Z</time>
      </trkpt>
      <trkpt lat="43.74142" lon="6.68279">
        <ele>1318.9</ele>
        <time>2024-05-26T12:17:52Z</time>
      </trkpt>
      <trkpt lat="43.74142" lon="6.6828">
        <ele>1318.9</ele>
        <time>2024-05-26T12:17:53Z</time>
      </trkpt>
      <trkpt lat="43.74143" lon="6.6828">
        <ele>1319</ele>
        <time>2024-05-26T12:17:54Z</time>
      </trkpt>
      <trkpt lat="43.74143" lon="6.6828">
        <ele>1319</ele>
        <time>2024-05-26T12:17:55Z</time>
      </trkpt>
      <trkpt lat="43.74142" lon="6.6828">
        <ele>1319</ele>
        <time>2024-05-26T12:17:56Z</time>
      </trkpt>
      <trkpt lat="43.74142" lon="6.6828">
        <ele>1319.1</ele>
        <time>2024-05-26T12:17:57Z</time>
      </trkpt>
      <trkpt lat="43.74142" lon="6.6828">
        <ele>1318.9</ele>
        <time>2024-05-26T12:17:58Z</time>
      </trkpt>
      <trkpt lat="43.74142" lon="6.6828">
        <ele>1318.9</ele>
        <time>2024-05-26T12:17:59Z</time>
      </trkpt>
      <trkpt lat="43.74142" lon="6.6828">
        <ele>1318.9</ele>
        <time>2024-05-26T12:18:00Z</time>
      </trkpt>
      <trkpt lat="43.74142" lon="6.6828">
        <ele>1319</ele>
        <time>2024-05-26T12:18:01Z</time>
      </trkpt>
      <trkpt lat="43.74142" lon="6.6828">
        <ele>1319</ele>
        <time>2024-05-26T12:18:02Z</time>
      </trkpt>
      <trkpt lat="43.74142" lon="6.6828">
        <ele>1319</ele>
        <time>2024-05-26T12:18:03Z</time>
      </trkpt>
      <trkpt lat="43.74142" lon="6.6828">
        <ele>1319.1</ele>
        <time>2024-05-26T12:18:04Z</time>
      </trkpt>
      <trkpt lat="43.74142" lon="6.6828">
        <ele>1319.1</ele>
        <time>2024-05-26T12:18:05Z</time>
      </trkpt>
      <trkpt lat="43.74142" lon="6.6828">
        <ele>1319</ele>
        <time>2024-05-26T12:18:06Z</time>
      </trkpt>
      <trkpt lat="43.74142" lon="6.6828">
        <ele>1318.9</ele>
        <time>2024-05-26T12:18:07Z</time>
      </trkpt>
      <trkpt lat="43.74142" lon="6.6828">
        <ele>1318.9</ele>
        <time>2024-05-26T12:18:08Z</time>
      </trkpt>
      <trkpt lat="43.74142" lon="6.68281">
        <ele>1318.9</ele>
        <time>2024-05-26T12:18:09Z</time>
      </trkpt>
      <trkpt lat="43.74142" lon="6.6828">
        <ele>1318.9</ele>
        <time>2024-05-26T12:18:10Z</time>
      </trkpt>
      <trkpt lat="43.74142" lon="6.6828">
        <ele>1318.9</ele>
        <time>2024-05-26T12:18:11Z</time>
      </trkpt>
      <trkpt lat="43.74142" lon="6.6828">
        <ele>1318.9</ele>
        <time>2024-05-26T12:18:12Z</time>
      </trkpt>
      <trkpt lat="43.74142" lon="6.6828">
        <ele>1318.9</ele>
        <time>2024-05-26T12:18:13Z</time>
      </trkpt>
      <trkpt lat="43.74142" lon="6.6828">
        <ele>1318.8</ele>
        <time>2024-05-26T12:18:14Z</time>
      </trkpt>
      <trkpt lat="43.74142" lon="6.6828">
        <ele>1318.8</ele>
        <time>2024-05-26T12:18:15Z</time>
      </trkpt>
      <trkpt lat="43.74142" lon="6.6828">
        <ele>1318.7</ele>
        <time>2024-05-26T12:18:16Z</time>
      </trkpt>
      <trkpt lat="43.74142" lon="6.6828">
        <ele>1318.8</ele>
        <time>2024-05-26T12:18:17Z</time>
      </trkpt>
      <trkpt lat="43.74142" lon="6.6828">
        <ele>1318.7</ele>
        <time>2024-05-26T12:18:18Z</time>
      </trkpt>
      <trkpt lat="43.74142" lon="6.6828">
        <ele>1318.7</ele>
        <time>2024-05-26T12:18:19Z</time>
      </trkpt>
      <trkpt lat="43.74142" lon="6.6828">
        <ele>1318.7</ele>
        <time>2024-05-26T12:18:20Z</time>
      </trkpt>
      <trkpt lat="43.74142" lon="6.68281">
        <ele>1318.7</ele>
        <time>2024-05-26T12:18:21Z</time>
      </trkpt>
      <trkpt lat="43.74142" lon="6.68281">
        <ele>1318.7</ele>
        <time>2024-05-26T12:18:22Z</time>
      </trkpt>
      <trkpt lat="43.74142" lon="6.68281">
        <ele>1318.7</ele>
        <time>2024-05-26T12:18:23Z</time>
      </trkpt>
      <trkpt lat="43.74142" lon="6.68281">
        <ele>1318.7</ele>
        <time>2024-05-26T12:18:24Z</time>
      </trkpt>
      <trkpt lat="43.74142" lon="6.68281">
        <ele>1318.7</ele>
        <time>2024-05-26T12:18:25Z</time>
      </trkpt>
      <trkpt lat="43.74142" lon="6.68281">
        <ele>1318.7</ele>
        <time>2024-05-26T12:18:26Z</time>
      </trkpt>
      <trkpt lat="43.74142" lon="6.68281">
        <ele>1318.7</ele>
        <time>2024-05-26T12:18:27Z</time>
      </trkpt>
      <trkpt lat="43.74142" lon="6.68281">
        <ele>1318.7</ele>
        <time>2024-05-26T12:18:28Z</time>
      </trkpt>
      <trkpt lat="43.74142" lon="6.68281">
        <ele>1318.7</ele>
        <time>2024-05-26T12:18:29Z</time>
      </trkpt>
      <trkpt lat="43.74142" lon="6.68281">
        <ele>1318.7</ele>
        <time>2024-05-26T12:18:30Z</time>
      </trkpt>
      <trkpt lat="43.74142" lon="6.68282">
        <ele>1318.7</ele>
        <time>2024-05-26T12:18:31Z</time>
      </trkpt>
      <trkpt lat="43.74142" lon="6.68282">
        <ele>1318.7</ele>
        <time>2024-05-26T12:18:32Z</time>
      </trkpt>
      <trkpt lat="43.74142" lon="6.68282">
        <ele>1318.7</ele>
        <time>2024-05-26T12:18:33Z</time>
      </trkpt>
      <trkpt lat="43.74142" lon="6.68282">
        <ele>1318.7</ele>
        <time>2024-05-26T12:18:34Z</time>
      </trkpt>
      <trkpt lat="43.74142" lon="6.68282">
        <ele>1318.7</ele>
        <time>2024-05-26T12:18:35Z</time>
      </trkpt>
      <trkpt lat="43.74142" lon="6.68282">
        <ele>1318.8</ele>
        <time>2024-05-26T12:18:36Z</time>
      </trkpt>
      <trkpt lat="43.74141" lon="6.68282">
        <ele>1318.8</ele>
        <time>2024-05-26T12:18:37Z</time>
      </trkpt>
      <trkpt lat="43.74142" lon="6.68282">
        <ele>1318.8</ele>
        <time>2024-05-26T12:18:38Z</time>
      </trkpt>
      <trkpt lat="43.74142" lon="6.68282">
        <ele>1318.8</ele>
        <time>2024-05-26T12:18:39Z</time>
      </trkpt>
      <trkpt lat="43.74142" lon="6.68282">
        <ele>1318.8</ele>
        <time>2024-05-26T12:18:40Z</time>
      </trkpt>
      <trkpt lat="43.74142" lon="6.68282">
        <ele>1318.9</ele>
        <time>2024-05-26T12:18:41Z</time>
      </trkpt>
      <trkpt lat="43.74142" lon="6.68282">
        <ele>1319</ele>
        <time>2024-05-26T12:18:42Z</time>
      </trkpt>
      <trkpt lat="43.74142" lon="6.68282">
        <ele>1319</ele>
        <time>2024-05-26T12:18:43Z</time>
      </trkpt>
      <trkpt lat="43.74142" lon="6.68283">
        <ele>1319</ele>
        <time>2024-05-26T12:18:44Z</time>
      </trkpt>
      <trkpt lat="43.74142" lon="6.68283">
        <ele>1319</ele>
        <time>2024-05-26T12:18:45Z</time>
      </trkpt>
      <trkpt lat="43.74142" lon="6.68283">
        <ele>1319</ele>
        <time>2024-05-26T12:18:46Z</time>
      </trkpt>
      <trkpt lat="43.74142" lon="6.68283">
        <ele>1319</ele>
        <time>2024-05-26T12:18:47Z</time>
      </trkpt>
      <trkpt lat="43.74142" lon="6.68283">
        <ele>1319</ele>
        <time>2024-05-26T12:18:48Z</time>
      </trkpt>
      <trkpt lat="43.74142" lon="6.68283">
        <ele>1319.1</ele>
        <time>2024-05-26T12:18:49Z</time>
      </trkpt>
      <trkpt lat="43.74142" lon="6.68283">
        <ele>1319.1</ele>
        <time>2024-05-26T12:18:50Z</time>
      </trkpt>
      <trkpt lat="43.74142" lon="6.68284">
        <ele>1319.1</ele>
        <time>2024-05-26T12:18:51Z</time>
      </trkpt>
      <trkpt lat="43.74142" lon="6.68284">
        <ele>1319.1</ele>
        <time>2024-05-26T12:18:52Z</time>
      </trkpt>
      <trkpt lat="43.74142" lon="6.68284">
        <ele>1319.1</ele>
        <time>2024-05-26T12:18:53Z</time>
      </trkpt>
      <trkpt lat="43.74142" lon="6.68284">
        <ele>1319.2</ele>
        <time>2024-05-26T12:18:54Z</time>
      </trkpt>
      <trkpt lat="43.74142" lon="6.68284">
        <ele>1319.2</ele>
        <time>2024-05-26T12:18:55Z</time>
      </trkpt>
      <trkpt lat="43.74142" lon="6.68284">
        <ele>1319.2</ele>
        <time>2024-05-26T12:18:56Z</time>
      </trkpt>
      <trkpt lat="43.74142" lon="6.68284">
        <ele>1319.2</ele>
        <time>2024-05-26T12:18:57Z</time>
      </trkpt>
      <trkpt lat="43.74142" lon="6.68284">
        <ele>1319.2</ele>
        <time>2024-05-26T12:18:58Z</time>
      </trkpt>
      <trkpt lat="43.74142" lon="6.68284">
        <ele>1319.2</ele>
        <time>2024-05-26T12:18:59Z</time>
      </trkpt>
      <trkpt lat="43.74142" lon="6.68284">
        <ele>1319.1</ele>
        <time>2024-05-26T12:19:00Z</time>
      </trkpt>
      <trkpt lat="43.74142" lon="6.68284">
        <ele>1319.2</ele>
        <time>2024-05-26T12:19:01Z</time>
      </trkpt>
      <trkpt lat="43.74142" lon="6.68284">
        <ele>1319.1</ele>
        <time>2024-05-26T12:19:02Z</time>
      </trkpt>
      <trkpt lat="43.74142" lon="6.68284">
        <ele>1319.1</ele>
        <time>2024-05-26T12:19:03Z</time>
      </trkpt>
      <trkpt lat="43.74142" lon="6.68284">
        <ele>1319.1</ele>
        <time>2024-05-26T12:19:04Z</time>
      </trkpt>
      <trkpt lat="43.74142" lon="6.68284">
        <ele>1319.1</ele>
        <time>2024-05-26T12:19:05Z</time>
      </trkpt>
      <trkpt lat="43.74142" lon="6.68284">
        <ele>1319</ele>
        <time>2024-05-26T12:19:06Z</time>
      </trkpt>
      <trkpt lat="43.74142" lon="6.68284">
        <ele>1318.9</ele>
        <time>2024-05-26T12:19:07Z</time>
      </trkpt>
      <trkpt lat="43.74142" lon="6.68284">
        <ele>1319</ele>
        <time>2024-05-26T12:19:08Z</time>
      </trkpt>
      <trkpt lat="43.74142" lon="6.68284">
        <ele>1319</ele>
        <time>2024-05-26T12:19:09Z</time>
      </trkpt>
      <trkpt lat="43.74142" lon="6.68284">
        <ele>1318.9</ele>
        <time>2024-05-26T12:19:10Z</time>
      </trkpt>
      <trkpt lat="43.74142" lon="6.68284">
        <ele>1318.9</ele>
        <time>2024-05-26T12:19:11Z</time>
      </trkpt>
      <trkpt lat="43.74142" lon="6.68284">
        <ele>1318.9</ele>
        <time>2024-05-26T12:19:12Z</time>
      </trkpt>
      <trkpt lat="43.74142" lon="6.68284">
        <ele>1318.9</ele>
        <time>2024-05-26T12:19:13Z</time>
      </trkpt>
      <trkpt lat="43.74142" lon="6.68284">
        <ele>1318.9</ele>
        <time>2024-05-26T12:19:14Z</time>
      </trkpt>
      <trkpt lat="43.74142" lon="6.68284">
        <ele>1318.9</ele>
        <time>2024-05-26T12:19:15Z</time>
      </trkpt>
      <trkpt lat="43.74142" lon="6.68284">
        <ele>1318.8</ele>
        <time>2024-05-26T12:19:16Z</time>
      </trkpt>
      <trkpt lat="43.74142" lon="6.68284">
        <ele>1318.7</ele>
        <time>2024-05-26T12:19:17Z</time>
      </trkpt>
      <trkpt lat="43.74142" lon="6.68284">
        <ele>1318.6</ele>
        <time>2024-05-26T12:19:18Z</time>
      </trkpt>
      <trkpt lat="43.74142" lon="6.68284">
        <ele>1318.6</ele>
        <time>2024-05-26T12:19:19Z</time>
      </trkpt>
      <trkpt lat="43.74142" lon="6.68284">
        <ele>1318.6</ele>
        <time>2024-05-26T12:19:20Z</time>
      </trkpt>
      <trkpt lat="43.74142" lon="6.68284">
        <ele>1318.6</ele>
        <time>2024-05-26T12:19:21Z</time>
      </trkpt>
      <trkpt lat="43.74142" lon="6.68284">
        <ele>1318.6</ele>
        <time>2024-05-26T12:19:22Z</time>
      </trkpt>
      <trkpt lat="43.74142" lon="6.68284">
        <ele>1318.6</ele>
        <time>2024-05-26T12:19:23Z</time>
      </trkpt>
      <trkpt lat="43.74142" lon="6.68284">
        <ele>1318.6</ele>
        <time>2024-05-26T12:19:24Z</time>
      </trkpt>
      <trkpt lat="43.74142" lon="6.68284">
        <ele>1318.6</ele>
        <time>2024-05-26T12:19:25Z</time>
      </trkpt>
      <trkpt lat="43.74142" lon="6.68284">
        <ele>1318.6</ele>
        <time>2024-05-26T12:19:26Z</time>
      </trkpt>
      <trkpt lat="43.74142" lon="6.68284">
        <ele>1318.6</ele>
        <time>2024-05-26T12:19:27Z</time>
      </trkpt>
      <trkpt lat="43.74142" lon="6.68284">
        <ele>1318.6</ele>
        <time>2024-05-26T12:19:28Z</time>
      </trkpt>
      <trkpt lat="43.74142" lon="6.68285">
        <ele>1318.7</ele>
        <time>2024-05-26T12:19:29Z</time>
      </trkpt>
      <trkpt lat="43.74142" lon="6.68285">
        <ele>1318.7</ele>
        <time>2024-05-26T12:19:30Z</time>
      </trkpt>
      <trkpt lat="43.74142" lon="6.68285">
        <ele>1318.7</ele>
        <time>2024-05-26T12:19:31Z</time>
      </trkpt>
      <trkpt lat="43.74142" lon="6.68285">
        <ele>1318.8</ele>
        <time>2024-05-26T12:19:32Z</time>
      </trkpt>
      <trkpt lat="43.74142" lon="6.68285">
        <ele>1318.8</ele>
        <time>2024-05-26T12:19:33Z</time>
      </trkpt>
      <trkpt lat="43.74142" lon="6.68285">
        <ele>1318.9</ele>
        <time>2024-05-26T12:19:34Z</time>
      </trkpt>
      <trkpt lat="43.74142" lon="6.68285">
        <ele>1318.9</ele>
        <time>2024-05-26T12:19:35Z</time>
      </trkpt>
      <trkpt lat="43.74142" lon="6.68286">
        <ele>1318.8</ele>
        <time>2024-05-26T12:19:36Z</time>
      </trkpt>
      <trkpt lat="43.74142" lon="6.68286">
        <ele>1318.9</ele>
        <time>2024-05-26T12:19:37Z</time>
      </trkpt>
      <trkpt lat="43.74142" lon="6.68286">
        <ele>1318.9</ele>
        <time>2024-05-26T12:19:38Z</time>
      </trkpt>
      <trkpt lat="43.74142" lon="6.68286">
        <ele>1319</ele>
        <time>2024-05-26T12:19:39Z</time>
      </trkpt>
      <trkpt lat="43.74142" lon="6.68286">
        <ele>1319</ele>
        <time>2024-05-26T12:19:40Z</time>
      </trkpt>
      <trkpt lat="43.74142" lon="6.68286">
        <ele>1319</ele>
        <time>2024-05-26T12:19:41Z</time>
      </trkpt>
      <trkpt lat="43.74142" lon="6.68286">
        <ele>1319</ele>
        <time>2024-05-26T12:19:42Z</time>
      </trkpt>
      <trkpt lat="43.74142" lon="6.68286">
        <ele>1319.1</ele>
        <time>2024-05-26T12:19:43Z</time>
      </trkpt>
      <trkpt lat="43.74141" lon="6.68286">
        <ele>1319</ele>
        <time>2024-05-26T12:19:44Z</time>
      </trkpt>
      <trkpt lat="43.74141" lon="6.68286">
        <ele>1319</ele>
        <time>2024-05-26T12:19:45Z</time>
      </trkpt>
      <trkpt lat="43.74141" lon="6.68286">
        <ele>1319.1</ele>
        <time>2024-05-26T12:19:46Z</time>
      </trkpt>
      <trkpt lat="43.74141" lon="6.68286">
        <ele>1319.2</ele>
        <time>2024-05-26T12:19:47Z</time>
      </trkpt>
      <trkpt lat="43.74141" lon="6.68286">
        <ele>1319.3</ele>
        <time>2024-05-26T12:19:48Z</time>
      </trkpt>
      <trkpt lat="43.74141" lon="6.68287">
        <ele>1319.3</ele>
        <time>2024-05-26T12:19:49Z</time>
      </trkpt>
      <trkpt lat="43.74141" lon="6.68287">
        <ele>1319.3</ele>
        <time>2024-05-26T12:19:50Z</time>
      </trkpt>
      <trkpt lat="43.74141" lon="6.68287">
        <ele>1319.3</ele>
        <time>2024-05-26T12:19:51Z</time>
      </trkpt>
      <trkpt lat="43.74141" lon="6.68287">
        <ele>1319.3</ele>
        <time>2024-05-26T12:19:52Z</time>
      </trkpt>
      <trkpt lat="43.74141" lon="6.68287">
        <ele>1319.2</ele>
        <time>2024-05-26T12:19:53Z</time>
      </trkpt>
      <trkpt lat="43.74141" lon="6.68287">
        <ele>1319.3</ele>
        <time>2024-05-26T12:19:54Z</time>
      </trkpt>
      <trkpt lat="43.74141" lon="6.68287">
        <ele>1319.2</ele>
        <time>2024-05-26T12:19:55Z</time>
      </trkpt>
      <trkpt lat="43.74141" lon="6.68287">
        <ele>1319.2</ele>
        <time>2024-05-26T12:19:56Z</time>
      </trkpt>
      <trkpt lat="43.74141" lon="6.68287">
        <ele>1319.2</ele>
        <time>2024-05-26T12:19:57Z</time>
      </trkpt>
      <trkpt lat="43.74141" lon="6.68287">
        <ele>1319.1</ele>
        <time>2024-05-26T12:19:58Z</time>
      </trkpt>
      <trkpt lat="43.74141" lon="6.68287">
        <ele>1319.1</ele>
        <time>2024-05-26T12:19:59Z</time>
      </trkpt>
      <trkpt lat="43.74141" lon="6.68287">
        <ele>1319</ele>
        <time>2024-05-26T12:20:00Z</time>
      </trkpt>
      <trkpt lat="43.74141" lon="6.68287">
        <ele>1319</ele>
        <time>2024-05-26T12:20:01Z</time>
      </trkpt>
      <trkpt lat="43.74141" lon="6.68287">
        <ele>1318.9</ele>
        <time>2024-05-26T12:20:02Z</time>
      </trkpt>
      <trkpt lat="43.74141" lon="6.68287">
        <ele>1318.9</ele>
        <time>2024-05-26T12:20:03Z</time>
      </trkpt>
      <trkpt lat="43.74142" lon="6.68287">
        <ele>1318.9</ele>
        <time>2024-05-26T12:20:04Z</time>
      </trkpt>
      <trkpt lat="43.74142" lon="6.68287">
        <ele>1319</ele>
        <time>2024-05-26T12:20:05Z</time>
      </trkpt>
      <trkpt lat="43.74142" lon="6.68287">
        <ele>1319</ele>
        <time>2024-05-26T12:20:06Z</time>
      </trkpt>
      <trkpt lat="43.74142" lon="6.68287">
        <ele>1319</ele>
        <time>2024-05-26T12:20:07Z</time>
      </trkpt>
      <trkpt lat="43.74141" lon="6.68288">
        <ele>1319</ele>
        <time>2024-05-26T12:20:08Z</time>
      </trkpt>
      <trkpt lat="43.74141" lon="6.68288">
        <ele>1319</ele>
        <time>2024-05-26T12:20:09Z</time>
      </trkpt>
      <trkpt lat="43.74141" lon="6.68288">
        <ele>1318.9</ele>
        <time>2024-05-26T12:20:10Z</time>
      </trkpt>
      <trkpt lat="43.74141" lon="6.68288">
        <ele>1318.9</ele>
        <time>2024-05-26T12:20:11Z</time>
      </trkpt>
      <trkpt lat="43.74141" lon="6.68288">
        <ele>1318.9</ele>
        <time>2024-05-26T12:20:12Z</time>
      </trkpt>
      <trkpt lat="43.74141" lon="6.68288">
        <ele>1318.8</ele>
        <time>2024-05-26T12:20:13Z</time>
      </trkpt>
      <trkpt lat="43.74141" lon="6.68288">
        <ele>1318.9</ele>
        <time>2024-05-26T12:20:14Z</time>
      </trkpt>
      <trkpt lat="43.74141" lon="6.68288">
        <ele>1318.9</ele>
        <time>2024-05-26T12:20:15Z</time>
      </trkpt>
      <trkpt lat="43.74141" lon="6.68288">
        <ele>1319</ele>
        <time>2024-05-26T12:20:16Z</time>
      </trkpt>
      <trkpt lat="43.74141" lon="6.68288">
        <ele>1319.1</ele>
        <time>2024-05-26T12:20:17Z</time>
      </trkpt>
      <trkpt lat="43.74141" lon="6.68289">
        <ele>1319.1</ele>
        <time>2024-05-26T12:20:18Z</time>
      </trkpt>
      <trkpt lat="43.74141" lon="6.68289">
        <ele>1319.2</ele>
        <time>2024-05-26T12:20:19Z</time>
      </trkpt>
      <trkpt lat="43.74141" lon="6.68289">
        <ele>1319.3</ele>
        <time>2024-05-26T12:20:20Z</time>
      </trkpt>
      <trkpt lat="43.74141" lon="6.68289">
        <ele>1319.3</ele>
        <time>2024-05-26T12:20:21Z</time>
      </trkpt>
      <trkpt lat="43.74141" lon="6.68289">
        <ele>1319.3</ele>
        <time>2024-05-26T12:20:22Z</time>
      </trkpt>
      <trkpt lat="43.74141" lon="6.68289">
        <ele>1319.3</ele>
        <time>2024-05-26T12:20:23Z</time>
      </trkpt>
      <trkpt lat="43.74141" lon="6.68289">
        <ele>1319.3</ele>
        <time>2024-05-26T12:20:24Z</time>
      </trkpt>
      <trkpt lat="43.74141" lon="6.68289">
        <ele>1319.3</ele>
        <time>2024-05-26T12:20:25Z</time>
      </trkpt>
      <trkpt lat="43.74141" lon="6.68289">
        <ele>1319.4</ele>
        <time>2024-05-26T12:20:26Z</time>
      </trkpt>
      <trkpt lat="43.74141" lon="6.68289">
        <ele>1319.4</ele>
        <time>2024-05-26T12:20:27Z</time>
      </trkpt>
      <trkpt lat="43.74141" lon="6.68289">
        <ele>1319.5</ele>
        <time>2024-05-26T12:20:28Z</time>
      </trkpt>
      <trkpt lat="43.74141" lon="6.68289">
        <ele>1319.5</ele>
        <time>2024-05-26T12:20:29Z</time>
      </trkpt>
      <trkpt lat="43.74141" lon="6.68289">
        <ele>1319.4</ele>
        <time>2024-05-26T12:20:30Z</time>
      </trkpt>
      <trkpt lat="43.74141" lon="6.68289">
        <ele>1319.4</ele>
        <time>2024-05-26T12:20:31Z</time>
      </trkpt>
      <trkpt lat="43.74141" lon="6.68289">
        <ele>1319.3</ele>
        <time>2024-05-26T12:20:32Z</time>
      </trkpt>
      <trkpt lat="43.74141" lon="6.68289">
        <ele>1319.2</ele>
        <time>2024-05-26T12:20:33Z</time>
      </trkpt>
      <trkpt lat="43.74141" lon="6.68289">
        <ele>1319.2</ele>
        <time>2024-05-26T12:20:34Z</time>
      </trkpt>
      <trkpt lat="43.74141" lon="6.68289">
        <ele>1319.2</ele>
        <time>2024-05-26T12:20:35Z</time>
      </trkpt>
      <trkpt lat="43.74141" lon="6.68289">
        <ele>1319.1</ele>
        <time>2024-05-26T12:20:36Z</time>
      </trkpt>
      <trkpt lat="43.74141" lon="6.68289">
        <ele>1319.1</ele>
        <time>2024-05-26T12:20:37Z</time>
      </trkpt>
      <trkpt lat="43.74141" lon="6.68289">
        <ele>1319.1</ele>
        <time>2024-05-26T12:20:38Z</time>
      </trkpt>
      <trkpt lat="43.74141" lon="6.68289">
        <ele>1319.1</ele>
        <time>2024-05-26T12:20:39Z</time>
      </trkpt>
      <trkpt lat="43.74141" lon="6.68289">
        <ele>1319</ele>
        <time>2024-05-26T12:20:40Z</time>
      </trkpt>
      <trkpt lat="43.74141" lon="6.68289">
        <ele>1319</ele>
        <time>2024-05-26T12:20:41Z</time>
      </trkpt>
      <trkpt lat="43.74141" lon="6.68289">
        <ele>1319.1</ele>
        <time>2024-05-26T12:20:42Z</time>
      </trkpt>
      <trkpt lat="43.74141" lon="6.68289">
        <ele>1319.1</ele>
        <time>2024-05-26T12:20:43Z</time>
      </trkpt>
      <trkpt lat="43.74141" lon="6.68289">
        <ele>1319.1</ele>
        <time>2024-05-26T12:20:44Z</time>
      </trkpt>
      <trkpt lat="43.74141" lon="6.68289">
        <ele>1319.1</ele>
        <time>2024-05-26T12:20:45Z</time>
      </trkpt>
      <trkpt lat="43.74141" lon="6.68289">
        <ele>1319.1</ele>
        <time>2024-05-26T12:20:46Z</time>
      </trkpt>
      <trkpt lat="43.74141" lon="6.68289">
        <ele>1319.1</ele>
        <time>2024-05-26T12:20:47Z</time>
      </trkpt>
      <trkpt lat="43.74141" lon="6.68289">
        <ele>1319.2</ele>
        <time>2024-05-26T12:20:48Z</time>
      </trkpt>
      <trkpt lat="43.74141" lon="6.68289">
        <ele>1319.2</ele>
        <time>2024-05-26T12:20:49Z</time>
      </trkpt>
      <trkpt lat="43.74141" lon="6.68289">
        <ele>1319.3</ele>
        <time>2024-05-26T12:20:50Z</time>
      </trkpt>
      <trkpt lat="43.74141" lon="6.68289">
        <ele>1319.4</ele>
        <time>2024-05-26T12:20:51Z</time>
      </trkpt>
      <trkpt lat="43.74141" lon="6.68289">
        <ele>1319.4</ele>
        <time>2024-05-26T12:20:52Z</time>
      </trkpt>
      <trkpt lat="43.74141" lon="6.68289">
        <ele>1319.4</ele>
        <time>2024-05-26T12:20:53Z</time>
      </trkpt>
      <trkpt lat="43.74141" lon="6.68289">
        <ele>1319.4</ele>
        <time>2024-05-26T12:20:54Z</time>
      </trkpt>
      <trkpt lat="43.74141" lon="6.68289">
        <ele>1319.4</ele>
        <time>2024-05-26T12:20:55Z</time>
      </trkpt>
      <trkpt lat="43.74141" lon="6.68289">
        <ele>1319.4</ele>
        <time>2024-05-26T12:20:56Z</time>
      </trkpt>
      <trkpt lat="43.74141" lon="6.68289">
        <ele>1319.3</ele>
        <time>2024-05-26T12:20:57Z</time>
      </trkpt>
      <trkpt lat="43.74141" lon="6.68289">
        <ele>1319.3</ele>
        <time>2024-05-26T12:20:58Z</time>
      </trkpt>
      <trkpt lat="43.74141" lon="6.68289">
        <ele>1319.3</ele>
        <time>2024-05-26T12:20:59Z</time>
      </trkpt>
      <trkpt lat="43.74141" lon="6.68289">
        <ele>1319.3</ele>
        <time>2024-05-26T12:21:00Z</time>
      </trkpt>
      <trkpt lat="43.74141" lon="6.68288">
        <ele>1319.3</ele>
        <time>2024-05-26T12:21:01Z</time>
      </trkpt>
      <trkpt lat="43.74141" lon="6.68288">
        <ele>1319.4</ele>
        <time>2024-05-26T12:21:02Z</time>
      </trkpt>
      <trkpt lat="43.74141" lon="6.68286">
        <ele>1319.3</ele>
        <time>2024-05-26T12:21:03Z</time>
      </trkpt>
      <trkpt lat="43.74141" lon="6.68286">
        <ele>1319.3</ele>
        <time>2024-05-26T12:21:04Z</time>
      </trkpt>
      <trkpt lat="43.74141" lon="6.68285">
        <ele>1319.1</ele>
        <time>2024-05-26T12:21:05Z</time>
      </trkpt>
      <trkpt lat="43.7414" lon="6.68284">
        <ele>1319.1</ele>
        <time>2024-05-26T12:21:06Z</time>
      </trkpt>
      <trkpt lat="43.7414" lon="6.68283">
        <ele>1319.1</ele>
        <time>2024-05-26T12:21:07Z</time>
      </trkpt>
      <trkpt lat="43.7414" lon="6.68282">
        <ele>1319.2</ele>
        <time>2024-05-26T12:21:08Z</time>
      </trkpt>
      <trkpt lat="43.7414" lon="6.68281">
        <ele>1319.3</ele>
        <time>2024-05-26T12:21:09Z</time>
      </trkpt>
      <trkpt lat="43.74141" lon="6.6828">
        <ele>1319.4</ele>
        <time>2024-05-26T12:21:10Z</time>
      </trkpt>
      <trkpt lat="43.74141" lon="6.68279">
        <ele>1319.4</ele>
        <time>2024-05-26T12:21:11Z</time>
      </trkpt>
      <trkpt lat="43.74142" lon="6.68278">
        <ele>1319.6</ele>
        <time>2024-05-26T12:21:12Z</time>
      </trkpt>
      <trkpt lat="43.74142" lon="6.68277">
        <ele>1319.7</ele>
        <time>2024-05-26T12:21:13Z</time>
      </trkpt>
      <trkpt lat="43.74143" lon="6.68277">
        <ele>1319.9</ele>
        <time>2024-05-26T12:21:14Z</time>
      </trkpt>
      <trkpt lat="43.74144" lon="6.68276">
        <ele>1320</ele>
        <time>2024-05-26T12:21:15Z</time>
      </trkpt>
      <trkpt lat="43.74144" lon="6.68274">
        <ele>1320.1</ele>
        <time>2024-05-26T12:21:16Z</time>
      </trkpt>
      <trkpt lat="43.74145" lon="6.68273">
        <ele>1320.2</ele>
        <time>2024-05-26T12:21:17Z</time>
      </trkpt>
      <trkpt lat="43.74145" lon="6.68273">
        <ele>1320.1</ele>
        <time>2024-05-26T12:21:18Z</time>
      </trkpt>
      <trkpt lat="43.74146" lon="6.68273">
        <ele>1320</ele>
        <time>2024-05-26T12:21:19Z</time>
      </trkpt>
      <trkpt lat="43.74146" lon="6.68272">
        <ele>1320</ele>
        <time>2024-05-26T12:21:20Z</time>
      </trkpt>
      <trkpt lat="43.74147" lon="6.68271">
        <ele>1319.9</ele>
        <time>2024-05-26T12:21:21Z</time>
      </trkpt>
      <trkpt lat="43.74148" lon="6.6827">
        <ele>1319.9</ele>
        <time>2024-05-26T12:21:22Z</time>
      </trkpt>
      <trkpt lat="43.74148" lon="6.68269">
        <ele>1319.9</ele>
        <time>2024-05-26T12:21:23Z</time>
      </trkpt>
      <trkpt lat="43.74148" lon="6.68268">
        <ele>1320</ele>
        <time>2024-05-26T12:21:24Z</time>
      </trkpt>
      <trkpt lat="43.74149" lon="6.68266">
        <ele>1319.9</ele>
        <time>2024-05-26T12:21:25Z</time>
      </trkpt>
      <trkpt lat="43.74149" lon="6.68265">
        <ele>1320.1</ele>
        <time>2024-05-26T12:21:26Z</time>
      </trkpt>
      <trkpt lat="43.74149" lon="6.68263">
        <ele>1320.2</ele>
        <time>2024-05-26T12:21:27Z</time>
      </trkpt>
      <trkpt lat="43.74149" lon="6.68262">
        <ele>1320.1</ele>
        <time>2024-05-26T12:21:28Z</time>
      </trkpt>
      <trkpt lat="43.74148" lon="6.68261">
        <ele>1320.2</ele>
        <time>2024-05-26T12:21:29Z</time>
      </trkpt>
      <trkpt lat="43.74148" lon="6.6826">
        <ele>1320.2</ele>
        <time>2024-05-26T12:21:30Z</time>
      </trkpt>
      <trkpt lat="43.74148" lon="6.68259">
        <ele>1320.2</ele>
        <time>2024-05-26T12:21:31Z</time>
      </trkpt>
      <trkpt lat="43.74148" lon="6.68258">
        <ele>1320.4</ele>
        <time>2024-05-26T12:21:32Z</time>
      </trkpt>
      <trkpt lat="43.74148" lon="6.68256">
        <ele>1320.5</ele>
        <time>2024-05-26T12:21:33Z</time>
      </trkpt>
      <trkpt lat="43.74149" lon="6.68255">
        <ele>1320.6</ele>
        <time>2024-05-26T12:21:34Z</time>
      </trkpt>
      <trkpt lat="43.74149" lon="6.68254">
        <ele>1320.6</ele>
        <time>2024-05-26T12:21:35Z</time>
      </trkpt>
      <trkpt lat="43.74149" lon="6.68253">
        <ele>1320.7</ele>
        <time>2024-05-26T12:21:36Z</time>
      </trkpt>
      <trkpt lat="43.74149" lon="6.68252">
        <ele>1320.8</ele>
        <time>2024-05-26T12:21:37Z</time>
      </trkpt>
      <trkpt lat="43.74149" lon="6.68251">
        <ele>1320.9</ele>
        <time>2024-05-26T12:21:38Z</time>
      </trkpt>
      <trkpt lat="43.74149" lon="6.6825">
        <ele>1321</ele>
        <time>2024-05-26T12:21:39Z</time>
      </trkpt>
      <trkpt lat="43.74149" lon="6.68249">
        <ele>1321.2</ele>
        <time>2024-05-26T12:21:40Z</time>
      </trkpt>
      <trkpt lat="43.74149" lon="6.68249">
        <ele>1321.3</ele>
        <time>2024-05-26T12:21:41Z</time>
      </trkpt>
      <trkpt lat="43.74149" lon="6.68247">
        <ele>1321.4</ele>
        <time>2024-05-26T12:21:42Z</time>
      </trkpt>
      <trkpt lat="43.74149" lon="6.68246">
        <ele>1321.5</ele>
        <time>2024-05-26T12:21:43Z</time>
      </trkpt>
      <trkpt lat="43.74149" lon="6.68245">
        <ele>1321.7</ele>
        <time>2024-05-26T12:21:44Z</time>
      </trkpt>
      <trkpt lat="43.74149" lon="6.68245">
        <ele>1321.9</ele>
        <time>2024-05-26T12:21:45Z</time>
      </trkpt>
      <trkpt lat="43.74149" lon="6.68244">
        <ele>1322.1</ele>
        <time>2024-05-26T12:21:46Z</time>
      </trkpt>
      <trkpt lat="43.74149" lon="6.68244">
        <ele>1322.3</ele>
        <time>2024-05-26T12:21:47Z</time>
      </trkpt>
      <trkpt lat="43.74148" lon="6.68243">
        <ele>1322.5</ele>
        <time>2024-05-26T12:21:48Z</time>
      </trkpt>
      <trkpt lat="43.74148" lon="6.68242">
        <ele>1322.6</ele>
        <time>2024-05-26T12:21:49Z</time>
      </trkpt>
      <trkpt lat="43.74148" lon="6.68242">
        <ele>1322.9</ele>
        <time>2024-05-26T12:21:50Z</time>
      </trkpt>
      <trkpt lat="43.74148" lon="6.68241">
        <ele>1323</ele>
        <time>2024-05-26T12:21:51Z</time>
      </trkpt>
      <trkpt lat="43.74149" lon="6.68241">
        <ele>1323</ele>
        <time>2024-05-26T12:21:52Z</time>
      </trkpt>
      <trkpt lat="43.74149" lon="6.6824">
        <ele>1323.2</ele>
        <time>2024-05-26T12:21:53Z</time>
      </trkpt>
      <trkpt lat="43.74149" lon="6.68239">
        <ele>1323.4</ele>
        <time>2024-05-26T12:21:54Z</time>
      </trkpt>
      <trkpt lat="43.74149" lon="6.68239">
        <ele>1323.5</ele>
        <time>2024-05-26T12:21:55Z</time>
      </trkpt>
      <trkpt lat="43.74149" lon="6.68238">
        <ele>1323.7</ele>
        <time>2024-05-26T12:21:56Z</time>
      </trkpt>
      <trkpt lat="43.74148" lon="6.68238">
        <ele>1323.8</ele>
        <time>2024-05-26T12:21:57Z</time>
      </trkpt>
      <trkpt lat="43.74148" lon="6.68238">
        <ele>1323.9</ele>
        <time>2024-05-26T12:21:58Z</time>
      </trkpt>
      <trkpt lat="43.74148" lon="6.68238">
        <ele>1324.1</ele>
        <time>2024-05-26T12:21:59Z</time>
      </trkpt>
      <trkpt lat="43.74148" lon="6.68238">
        <ele>1324.5</ele>
        <time>2024-05-26T12:22:00Z</time>
      </trkpt>
      <trkpt lat="43.74147" lon="6.68237">
        <ele>1324.7</ele>
        <time>2024-05-26T12:22:01Z</time>
      </trkpt>
      <trkpt lat="43.74147" lon="6.68236">
        <ele>1324.9</ele>
        <time>2024-05-26T12:22:02Z</time>
      </trkpt>
      <trkpt lat="43.74147" lon="6.68235">
        <ele>1325.1</ele>
        <time>2024-05-26T12:22:03Z</time>
      </trkpt>
      <trkpt lat="43.74147" lon="6.68234">
        <ele>1325.3</ele>
        <time>2024-05-26T12:22:04Z</time>
      </trkpt>
      <trkpt lat="43.74147" lon="6.68233">
        <ele>1325.5</ele>
        <time>2024-05-26T12:22:05Z</time>
      </trkpt>
      <trkpt lat="43.74147" lon="6.68233">
        <ele>1325.7</ele>
        <time>2024-05-26T12:22:06Z</time>
      </trkpt>
      <trkpt lat="43.74147" lon="6.68232">
        <ele>1325.8</ele>
        <time>2024-05-26T12:22:07Z</time>
      </trkpt>
      <trkpt lat="43.74147" lon="6.68231">
        <ele>1326.1</ele>
        <time>2024-05-26T12:22:08Z</time>
      </trkpt>
      <trkpt lat="43.74147" lon="6.68231">
        <ele>1326.3</ele>
        <time>2024-05-26T12:22:09Z</time>
      </trkpt>
      <trkpt lat="43.74147" lon="6.68231">
        <ele>1326.5</ele>
        <time>2024-05-26T12:22:10Z</time>
      </trkpt>
      <trkpt lat="43.74147" lon="6.68231">
        <ele>1326.6</ele>
        <time>2024-05-26T12:22:11Z</time>
      </trkpt>
      <trkpt lat="43.74147" lon="6.68231">
        <ele>1326.7</ele>
        <time>2024-05-26T12:22:12Z</time>
      </trkpt>
      <trkpt lat="43.74148" lon="6.68231">
        <ele>1326.8</ele>
        <time>2024-05-26T12:22:13Z</time>
      </trkpt>
      <trkpt lat="43.74148" lon="6.68231">
        <ele>1326.8</ele>
        <time>2024-05-26T12:22:14Z</time>
      </trkpt>
      <trkpt lat="43.74148" lon="6.68231">
        <ele>1326.9</ele>
        <time>2024-05-26T12:22:15Z</time>
      </trkpt>
      <trkpt lat="43.74148" lon="6.68231">
        <ele>1327</ele>
        <time>2024-05-26T12:22:16Z</time>
      </trkpt>
      <trkpt lat="43.74148" lon="6.6823">
        <ele>1327</ele>
        <time>2024-05-26T12:22:17Z</time>
      </trkpt>
      <trkpt lat="43.74148" lon="6.68229">
        <ele>1327</ele>
        <time>2024-05-26T12:22:18Z</time>
      </trkpt>
      <trkpt lat="43.74149" lon="6.68228">
        <ele>1326.9</ele>
        <time>2024-05-26T12:22:19Z</time>
      </trkpt>
      <trkpt lat="43.74148" lon="6.68227">
        <ele>1326.8</ele>
        <time>2024-05-26T12:22:20Z</time>
      </trkpt>
      <trkpt lat="43.74149" lon="6.68226">
        <ele>1326.8</ele>
        <time>2024-05-26T12:22:21Z</time>
      </trkpt>
      <trkpt lat="43.74149" lon="6.68225">
        <ele>1326.8</ele>
        <time>2024-05-26T12:22:22Z</time>
      </trkpt>
      <trkpt lat="43.74149" lon="6.68225">
        <ele>1326.9</ele>
        <time>2024-05-26T12:22:23Z</time>
      </trkpt>
      <trkpt lat="43.74149" lon="6.68225">
        <ele>1327.1</ele>
        <time>2024-05-26T12:22:24Z</time>
      </trkpt>
      <trkpt lat="43.74149" lon="6.68225">
        <ele>1327.2</ele>
        <time>2024-05-26T12:22:25Z</time>
      </trkpt>
      <trkpt lat="43.74149" lon="6.68225">
        <ele>1327.3</ele>
        <time>2024-05-26T12:22:26Z</time>
      </trkpt>
      <trkpt lat="43.74149" lon="6.68225">
        <ele>1327.5</ele>
        <time>2024-05-26T12:22:27Z</time>
      </trkpt>
      <trkpt lat="43.74149" lon="6.68225">
        <ele>1327.6</ele>
        <time>2024-05-26T12:22:28Z</time>
      </trkpt>
      <trkpt lat="43.74149" lon="6.68225">
        <ele>1327.7</ele>
        <time>2024-05-26T12:22:29Z</time>
      </trkpt>
      <trkpt lat="43.74149" lon="6.68225">
        <ele>1327.7</ele>
        <time>2024-05-26T12:22:30Z</time>
      </trkpt>
      <trkpt lat="43.7415" lon="6.68224">
        <ele>1327.8</ele>
        <time>2024-05-26T12:22:31Z</time>
      </trkpt>
      <trkpt lat="43.7415" lon="6.68224">
        <ele>1327.8</ele>
        <time>2024-05-26T12:22:32Z</time>
      </trkpt>
      <trkpt lat="43.7415" lon="6.68224">
        <ele>1327.8</ele>
        <time>2024-05-26T12:22:33Z</time>
      </trkpt>
      <trkpt lat="43.7415" lon="6.68224">
        <ele>1327.7</ele>
        <time>2024-05-26T12:22:34Z</time>
      </trkpt>
      <trkpt lat="43.7415" lon="6.68224">
        <ele>1327.7</ele>
        <time>2024-05-26T12:22:35Z</time>
      </trkpt>
      <trkpt lat="43.7415" lon="6.68224">
        <ele>1327.8</ele>
        <time>2024-05-26T12:22:36Z</time>
      </trkpt>
      <trkpt lat="43.74151" lon="6.68224">
        <ele>1327.9</ele>
        <time>2024-05-26T12:22:37Z</time>
      </trkpt>
      <trkpt lat="43.74151" lon="6.68224">
        <ele>1327.9</ele>
        <time>2024-05-26T12:22:38Z</time>
      </trkpt>
      <trkpt lat="43.74151" lon="6.68224">
        <ele>1327.9</ele>
        <time>2024-05-26T12:22:39Z</time>
      </trkpt>
      <trkpt lat="43.74152" lon="6.68224">
        <ele>1327.9</ele>
        <time>2024-05-26T12:22:40Z</time>
      </trkpt>
      <trkpt lat="43.74152" lon="6.68224">
        <ele>1327.8</ele>
        <time>2024-05-26T12:22:41Z</time>
      </trkpt>
      <trkpt lat="43.74152" lon="6.68224">
        <ele>1327.8</ele>
        <time>2024-05-26T12:22:42Z</time>
      </trkpt>
      <trkpt lat="43.74152" lon="6.68224">
        <ele>1327.8</ele>
        <time>2024-05-26T12:22:43Z</time>
      </trkpt>
      <trkpt lat="43.74152" lon="6.68224">
        <ele>1327.7</ele>
        <time>2024-05-26T12:22:44Z</time>
      </trkpt>
      <trkpt lat="43.74152" lon="6.68224">
        <ele>1327.7</ele>
        <time>2024-05-26T12:22:45Z</time>
      </trkpt>
      <trkpt lat="43.74152" lon="6.68224">
        <ele>1327.7</ele>
        <time>2024-05-26T12:22:46Z</time>
      </trkpt>
      <trkpt lat="43.74153" lon="6.68224">
        <ele>1327.8</ele>
        <time>2024-05-26T12:22:47Z</time>
      </trkpt>
      <trkpt lat="43.74153" lon="6.68223">
        <ele>1327.8</ele>
        <time>2024-05-26T12:22:48Z</time>
      </trkpt>
      <trkpt lat="43.74153" lon="6.68221">
        <ele>1327.8</ele>
        <time>2024-05-26T12:22:49Z</time>
      </trkpt>
      <trkpt lat="43.74153" lon="6.6822">
        <ele>1327.6</ele>
        <time>2024-05-26T12:22:50Z</time>
      </trkpt>
      <trkpt lat="43.74153" lon="6.68218">
        <ele>1327.4</ele>
        <time>2024-05-26T12:22:51Z</time>
      </trkpt>
      <trkpt lat="43.74152" lon="6.68217">
        <ele>1327.4</ele>
        <time>2024-05-26T12:22:52Z</time>
      </trkpt>
      <trkpt lat="43.74152" lon="6.68216">
        <ele>1327.3</ele>
        <time>2024-05-26T12:22:53Z</time>
      </trkpt>
      <trkpt lat="43.74152" lon="6.68216">
        <ele>1327.4</ele>
        <time>2024-05-26T12:22:54Z</time>
      </trkpt>
      <trkpt lat="43.74152" lon="6.68215">
        <ele>1327.4</ele>
        <time>2024-05-26T12:22:55Z</time>
      </trkpt>
      <trkpt lat="43.74152" lon="6.68214">
        <ele>1327.5</ele>
        <time>2024-05-26T12:22:56Z</time>
      </trkpt>
      <trkpt lat="43.74151" lon="6.68214">
        <ele>1327.8</ele>
        <time>2024-05-26T12:22:57Z</time>
      </trkpt>
      <trkpt lat="43.74151" lon="6.68213">
        <ele>1328</ele>
        <time>2024-05-26T12:22:58Z</time>
      </trkpt>
      <trkpt lat="43.74151" lon="6.68213">
        <ele>1328.2</ele>
        <time>2024-05-26T12:22:59Z</time>
      </trkpt>
      <trkpt lat="43.7415" lon="6.68213">
        <ele>1328.3</ele>
        <time>2024-05-26T12:23:00Z</time>
      </trkpt>
      <trkpt lat="43.7415" lon="6.68212">
        <ele>1328.4</ele>
        <time>2024-05-26T12:23:01Z</time>
      </trkpt>
      <trkpt lat="43.7415" lon="6.68212">
        <ele>1328.5</ele>
        <time>2024-05-26T12:23:02Z</time>
      </trkpt>
      <trkpt lat="43.7415" lon="6.68211">
        <ele>1328.6</ele>
        <time>2024-05-26T12:23:03Z</time>
      </trkpt>
      <trkpt lat="43.74149" lon="6.68211">
        <ele>1328.7</ele>
        <time>2024-05-26T12:23:04Z</time>
      </trkpt>
      <trkpt lat="43.74149" lon="6.68211">
        <ele>1329</ele>
        <time>2024-05-26T12:23:05Z</time>
      </trkpt>
      <trkpt lat="43.74149" lon="6.68211">
        <ele>1329.2</ele>
        <time>2024-05-26T12:23:06Z</time>
      </trkpt>
      <trkpt lat="43.74149" lon="6.6821">
        <ele>1329.3</ele>
        <time>2024-05-26T12:23:07Z</time>
      </trkpt>
      <trkpt lat="43.74149" lon="6.6821">
        <ele>1329.6</ele>
        <time>2024-05-26T12:23:08Z</time>
      </trkpt>
      <trkpt lat="43.74149" lon="6.6821">
        <ele>1329.7</ele>
        <time>2024-05-26T12:23:09Z</time>
      </trkpt>
      <trkpt lat="43.74149" lon="6.68209">
        <ele>1329.9</ele>
        <time>2024-05-26T12:23:10Z</time>
      </trkpt>
      <trkpt lat="43.7415" lon="6.68208">
        <ele>1330.1</ele>
        <time>2024-05-26T12:23:11Z</time>
      </trkpt>
      <trkpt lat="43.7415" lon="6.68207">
        <ele>1330.3</ele>
        <time>2024-05-26T12:23:12Z</time>
      </trkpt>
      <trkpt lat="43.7415" lon="6.68207">
        <ele>1330.6</ele>
        <time>2024-05-26T12:23:13Z</time>
      </trkpt>
      <trkpt lat="43.7415" lon="6.68206">
        <ele>1330.8</ele>
        <time>2024-05-26T12:23:14Z</time>
      </trkpt>
      <trkpt lat="43.7415" lon="6.68206">
        <ele>1331</ele>
        <time>2024-05-26T12:23:15Z</time>
      </trkpt>
      <trkpt lat="43.7415" lon="6.68206">
        <ele>1331.1</ele>
        <time>2024-05-26T12:23:16Z</time>
      </trkpt>
      <trkpt lat="43.7415" lon="6.68205">
        <ele>1331.3</ele>
        <time>2024-05-26T12:23:17Z</time>
      </trkpt>
      <trkpt lat="43.7415" lon="6.68204">
        <ele>1331.5</ele>
        <time>2024-05-26T12:23:18Z</time>
      </trkpt>
      <trkpt lat="43.7415" lon="6.68204">
        <ele>1331.7</ele>
        <time>2024-05-26T12:23:19Z</time>
      </trkpt>
      <trkpt lat="43.7415" lon="6.68203">
        <ele>1331.9</ele>
        <time>2024-05-26T12:23:20Z</time>
      </trkpt>
      <trkpt lat="43.7415" lon="6.68203">
        <ele>1332</ele>
        <time>2024-05-26T12:23:21Z</time>
      </trkpt>
      <trkpt lat="43.7415" lon="6.68202">
        <ele>1332.2</ele>
        <time>2024-05-26T12:23:22Z</time>
      </trkpt>
      <trkpt lat="43.7415" lon="6.68201">
        <ele>1332.4</ele>
        <time>2024-05-26T12:23:23Z</time>
      </trkpt>
      <trkpt lat="43.7415" lon="6.68201">
        <ele>1332.5</ele>
        <time>2024-05-26T12:23:24Z</time>
      </trkpt>
      <trkpt lat="43.7415" lon="6.682">
        <ele>1332.7</ele>
        <time>2024-05-26T12:23:25Z</time>
      </trkpt>
      <trkpt lat="43.74151" lon="6.682">
        <ele>1332.9</ele>
        <time>2024-05-26T12:23:26Z</time>
      </trkpt>
      <trkpt lat="43.74151" lon="6.68199">
        <ele>1333.1</ele>
        <time>2024-05-26T12:23:27Z</time>
      </trkpt>
      <trkpt lat="43.74151" lon="6.68199">
        <ele>1333.3</ele>
        <time>2024-05-26T12:23:28Z</time>
      </trkpt>
      <trkpt lat="43.74152" lon="6.68199">
        <ele>1333.4</ele>
        <time>2024-05-26T12:23:29Z</time>
      </trkpt>
      <trkpt lat="43.74152" lon="6.68199">
        <ele>1333.6</ele>
        <time>2024-05-26T12:23:30Z</time>
      </trkpt>
      <trkpt lat="43.74152" lon="6.68198">
        <ele>1333.7</ele>
        <time>2024-05-26T12:23:31Z</time>
      </trkpt>
      <trkpt lat="43.74152" lon="6.68198">
        <ele>1333.8</ele>
        <time>2024-05-26T12:23:32Z</time>
      </trkpt>
      <trkpt lat="43.74152" lon="6.68199">
        <ele>1333.9</ele>
        <time>2024-05-26T12:23:33Z</time>
      </trkpt>
      <trkpt lat="43.74153" lon="6.68199">
        <ele>1333.9</ele>
        <time>2024-05-26T12:23:34Z</time>
      </trkpt>
      <trkpt lat="43.74153" lon="6.68199">
        <ele>1333.9</ele>
        <time>2024-05-26T12:23:35Z</time>
      </trkpt>
      <trkpt lat="43.74154" lon="6.68199">
        <ele>1333.9</ele>
        <time>2024-05-26T12:23:36Z</time>
      </trkpt>
      <trkpt lat="43.74154" lon="6.682">
        <ele>1334</ele>
        <time>2024-05-26T12:23:37Z</time>
      </trkpt>
      <trkpt lat="43.74154" lon="6.682">
        <ele>1334</ele>
        <time>2024-05-26T12:23:38Z</time>
      </trkpt>
      <trkpt lat="43.74155" lon="6.68199">
        <ele>1334.1</ele>
        <time>2024-05-26T12:23:39Z</time>
      </trkpt>
      <trkpt lat="43.74155" lon="6.68199">
        <ele>1334.1</ele>
        <time>2024-05-26T12:23:40Z</time>
      </trkpt>
      <trkpt lat="43.74155" lon="6.68198">
        <ele>1334.1</ele>
        <time>2024-05-26T12:23:41Z</time>
      </trkpt>
      <trkpt lat="43.74155" lon="6.68198">
        <ele>1334.1</ele>
        <time>2024-05-26T12:23:42Z</time>
      </trkpt>
      <trkpt lat="43.74155" lon="6.68197">
        <ele>1334</ele>
        <time>2024-05-26T12:23:43Z</time>
      </trkpt>
      <trkpt lat="43.74156" lon="6.68196">
        <ele>1334</ele>
        <time>2024-05-26T12:23:44Z</time>
      </trkpt>
      <trkpt lat="43.74156" lon="6.68196">
        <ele>1334.1</ele>
        <time>2024-05-26T12:23:45Z</time>
      </trkpt>
      <trkpt lat="43.74156" lon="6.68195">
        <ele>1334.1</ele>
        <time>2024-05-26T12:23:46Z</time>
      </trkpt>
      <trkpt lat="43.74156" lon="6.68195">
        <ele>1334.1</ele>
        <time>2024-05-26T12:23:47Z</time>
      </trkpt>
      <trkpt lat="43.74156" lon="6.68195">
        <ele>1334.1</ele>
        <time>2024-05-26T12:23:48Z</time>
      </trkpt>
      <trkpt lat="43.74156" lon="6.68195">
        <ele>1334.1</ele>
        <time>2024-05-26T12:23:49Z</time>
      </trkpt>
      <trkpt lat="43.74156" lon="6.68195">
        <ele>1334.1</ele>
        <time>2024-05-26T12:23:50Z</time>
      </trkpt>
      <trkpt lat="43.74156" lon="6.68195">
        <ele>1334.1</ele>
        <time>2024-05-26T12:23:51Z</time>
      </trkpt>
      <trkpt lat="43.74156" lon="6.68194">
        <ele>1334.1</ele>
        <time>2024-05-26T12:23:52Z</time>
      </trkpt>
      <trkpt lat="43.74156" lon="6.68194">
        <ele>1334</ele>
        <time>2024-05-26T12:23:53Z</time>
      </trkpt>
      <trkpt lat="43.74156" lon="6.68193">
        <ele>1334</ele>
        <time>2024-05-26T12:23:54Z</time>
      </trkpt>
      <trkpt lat="43.74155" lon="6.68193">
        <ele>1333.9</ele>
        <time>2024-05-26T12:23:55Z</time>
      </trkpt>
      <trkpt lat="43.74155" lon="6.68193">
        <ele>1333.7</ele>
        <time>2024-05-26T12:23:56Z</time>
      </trkpt>
      <trkpt lat="43.74155" lon="6.68192">
        <ele>1333.7</ele>
        <time>2024-05-26T12:23:57Z</time>
      </trkpt>
      <trkpt lat="43.74155" lon="6.68192">
        <ele>1333.6</ele>
        <time>2024-05-26T12:23:58Z</time>
      </trkpt>
      <trkpt lat="43.74155" lon="6.68192">
        <ele>1333.4</ele>
        <time>2024-05-26T12:23:59Z</time>
      </trkpt>
      <trkpt lat="43.74155" lon="6.68191">
        <ele>1333.3</ele>
        <time>2024-05-26T12:24:00Z</time>
      </trkpt>
      <trkpt lat="43.74155" lon="6.68191">
        <ele>1333.2</ele>
        <time>2024-05-26T12:24:01Z</time>
      </trkpt>
      <trkpt lat="43.74155" lon="6.68191">
        <ele>1333.1</ele>
        <time>2024-05-26T12:24:02Z</time>
      </trkpt>
      <trkpt lat="43.74155" lon="6.68191">
        <ele>1333</ele>
        <time>2024-05-26T12:24:03Z</time>
      </trkpt>
      <trkpt lat="43.74156" lon="6.68191">
        <ele>1332.9</ele>
        <time>2024-05-26T12:24:04Z</time>
      </trkpt>
      <trkpt lat="43.74156" lon="6.68191">
        <ele>1332.9</ele>
        <time>2024-05-26T12:24:05Z</time>
      </trkpt>
      <trkpt lat="43.74156" lon="6.68191">
        <ele>1332.8</ele>
        <time>2024-05-26T12:24:06Z</time>
      </trkpt>
      <trkpt lat="43.74156" lon="6.68191">
        <ele>1332.7</ele>
        <time>2024-05-26T12:24:07Z</time>
      </trkpt>
      <trkpt lat="43.74156" lon="6.68191">
        <ele>1332.6</ele>
        <time>2024-05-26T12:24:08Z</time>
      </trkpt>
      <trkpt lat="43.74156" lon="6.68191">
        <ele>1332.5</ele>
        <time>2024-05-26T12:24:09Z</time>
      </trkpt>
      <trkpt lat="43.74157" lon="6.6819">
        <ele>1332.3</ele>
        <time>2024-05-26T12:24:10Z</time>
      </trkpt>
      <trkpt lat="43.74157" lon="6.6819">
        <ele>1332.2</ele>
        <time>2024-05-26T12:24:11Z</time>
      </trkpt>
      <trkpt lat="43.74157" lon="6.6819">
        <ele>1332.1</ele>
        <time>2024-05-26T12:24:12Z</time>
      </trkpt>
      <trkpt lat="43.74157" lon="6.6819">
        <ele>1331.9</ele>
        <time>2024-05-26T12:24:13Z</time>
      </trkpt>
      <trkpt lat="43.74158" lon="6.68189">
        <ele>1331.7</ele>
        <time>2024-05-26T12:24:14Z</time>
      </trkpt>
      <trkpt lat="43.74158" lon="6.68188">
        <ele>1331.6</ele>
        <time>2024-05-26T12:24:15Z</time>
      </trkpt>
      <trkpt lat="43.74158" lon="6.68188">
        <ele>1331.5</ele>
        <time>2024-05-26T12:24:16Z</time>
      </trkpt>
      <trkpt lat="43.74158" lon="6.68187">
        <ele>1331.4</ele>
        <time>2024-05-26T12:24:17Z</time>
      </trkpt>
      <trkpt lat="43.74158" lon="6.68188">
        <ele>1331.4</ele>
        <time>2024-05-26T12:24:18Z</time>
      </trkpt>
      <trkpt lat="43.74158" lon="6.68188">
        <ele>1331.3</ele>
        <time>2024-05-26T12:24:19Z</time>
      </trkpt>
      <trkpt lat="43.74158" lon="6.68188">
        <ele>1331.3</ele>
        <time>2024-05-26T12:24:20Z</time>
      </trkpt>
      <trkpt lat="43.74158" lon="6.68188">
        <ele>1331.2</ele>
        <time>2024-05-26T12:24:21Z</time>
      </trkpt>
      <trkpt lat="43.74158" lon="6.68187">
        <ele>1331.2</ele>
        <time>2024-05-26T12:24:22Z</time>
      </trkpt>
      <trkpt lat="43.74158" lon="6.68187">
        <ele>1331.1</ele>
        <time>2024-05-26T12:24:23Z</time>
      </trkpt>
      <trkpt lat="43.74158" lon="6.68186">
        <ele>1331</ele>
        <time>2024-05-26T12:24:24Z</time>
      </trkpt>
      <trkpt lat="43.74159" lon="6.68186">
        <ele>1330.9</ele>
        <time>2024-05-26T12:24:25Z</time>
      </trkpt>
      <trkpt lat="43.74159" lon="6.68185">
        <ele>1330.9</ele>
        <time>2024-05-26T12:24:26Z</time>
      </trkpt>
      <trkpt lat="43.74159" lon="6.68184">
        <ele>1331</ele>
        <time>2024-05-26T12:24:27Z</time>
      </trkpt>
      <trkpt lat="43.74159" lon="6.68183">
        <ele>1331</ele>
        <time>2024-05-26T12:24:28Z</time>
      </trkpt>
      <trkpt lat="43.74159" lon="6.68183">
        <ele>1330.9</ele>
        <time>2024-05-26T12:24:29Z</time>
      </trkpt>
      <trkpt lat="43.74159" lon="6.68182">
        <ele>1330.9</ele>
        <time>2024-05-26T12:24:30Z</time>
      </trkpt>
      <trkpt lat="43.74158" lon="6.6818">
        <ele>1330.9</ele>
        <time>2024-05-26T12:24:31Z</time>
      </trkpt>
      <trkpt lat="43.74158" lon="6.68179">
        <ele>1330.8</ele>
        <time>2024-05-26T12:24:32Z</time>
      </trkpt>
      <trkpt lat="43.74159" lon="6.68178">
        <ele>1330.7</ele>
        <time>2024-05-26T12:24:33Z</time>
      </trkpt>
      <trkpt lat="43.74159" lon="6.68177">
        <ele>1330.7</ele>
        <time>2024-05-26T12:24:34Z</time>
      </trkpt>
      <trkpt lat="43.74159" lon="6.68176">
        <ele>1330.7</ele>
        <time>2024-05-26T12:24:35Z</time>
      </trkpt>
      <trkpt lat="43.74159" lon="6.68175">
        <ele>1330.7</ele>
        <time>2024-05-26T12:24:36Z</time>
      </trkpt>
      <trkpt lat="43.74158" lon="6.68174">
        <ele>1330.7</ele>
        <time>2024-05-26T12:24:37Z</time>
      </trkpt>
      <trkpt lat="43.74158" lon="6.68172">
        <ele>1330.8</ele>
        <time>2024-05-26T12:24:38Z</time>
      </trkpt>
      <trkpt lat="43.74158" lon="6.68171">
        <ele>1330.8</ele>
        <time>2024-05-26T12:24:39Z</time>
      </trkpt>
      <trkpt lat="43.74158" lon="6.68171">
        <ele>1330.8</ele>
        <time>2024-05-26T12:24:40Z</time>
      </trkpt>
      <trkpt lat="43.74158" lon="6.68171">
        <ele>1330.7</ele>
        <time>2024-05-26T12:24:41Z</time>
      </trkpt>
      <trkpt lat="43.74159" lon="6.6817">
        <ele>1330.9</ele>
        <time>2024-05-26T12:24:42Z</time>
      </trkpt>
      <trkpt lat="43.74159" lon="6.68169">
        <ele>1331.1</ele>
        <time>2024-05-26T12:24:43Z</time>
      </trkpt>
      <trkpt lat="43.74159" lon="6.68167">
        <ele>1331.1</ele>
        <time>2024-05-26T12:24:44Z</time>
      </trkpt>
      <trkpt lat="43.74159" lon="6.68166">
        <ele>1331.2</ele>
        <time>2024-05-26T12:24:45Z</time>
      </trkpt>
      <trkpt lat="43.74158" lon="6.68166">
        <ele>1331.2</ele>
        <time>2024-05-26T12:24:46Z</time>
      </trkpt>
      <trkpt lat="43.74158" lon="6.68166">
        <ele>1331.4</ele>
        <time>2024-05-26T12:24:47Z</time>
      </trkpt>
      <trkpt lat="43.74157" lon="6.68166">
        <ele>1331.5</ele>
        <time>2024-05-26T12:24:48Z</time>
      </trkpt>
      <trkpt lat="43.74157" lon="6.68165">
        <ele>1331.6</ele>
        <time>2024-05-26T12:24:49Z</time>
      </trkpt>
      <trkpt lat="43.74157" lon="6.68165">
        <ele>1331.7</ele>
        <time>2024-05-26T12:24:50Z</time>
      </trkpt>
      <trkpt lat="43.74156" lon="6.68165">
        <ele>1331.9</ele>
        <time>2024-05-26T12:24:51Z</time>
      </trkpt>
      <trkpt lat="43.74156" lon="6.68165">
        <ele>1332</ele>
        <time>2024-05-26T12:24:52Z</time>
      </trkpt>
      <trkpt lat="43.74156" lon="6.68165">
        <ele>1332.1</ele>
        <time>2024-05-26T12:24:53Z</time>
      </trkpt>
      <trkpt lat="43.74157" lon="6.68164">
        <ele>1332.2</ele>
        <time>2024-05-26T12:24:54Z</time>
      </trkpt>
      <trkpt lat="43.74157" lon="6.68164">
        <ele>1332.3</ele>
        <time>2024-05-26T12:24:55Z</time>
      </trkpt>
      <trkpt lat="43.74157" lon="6.68164">
        <ele>1332.4</ele>
        <time>2024-05-26T12:24:56Z</time>
      </trkpt>
      <trkpt lat="43.74157" lon="6.68163">
        <ele>1332.4</ele>
        <time>2024-05-26T12:24:57Z</time>
      </trkpt>
      <trkpt lat="43.74157" lon="6.68164">
        <ele>1332.5</ele>
        <time>2024-05-26T12:24:58Z</time>
      </trkpt>
      <trkpt lat="43.74156" lon="6.68163">
        <ele>1332.5</ele>
        <time>2024-05-26T12:24:59Z</time>
      </trkpt>
      <trkpt lat="43.74156" lon="6.68163">
        <ele>1332.3</ele>
        <time>2024-05-26T12:25:00Z</time>
      </trkpt>
      <trkpt lat="43.74156" lon="6.68163">
        <ele>1332.4</ele>
        <time>2024-05-26T12:25:01Z</time>
      </trkpt>
      <trkpt lat="43.74156" lon="6.68163">
        <ele>1332.5</ele>
        <time>2024-05-26T12:25:02Z</time>
      </trkpt>
      <trkpt lat="43.74155" lon="6.68163">
        <ele>1332.4</ele>
        <time>2024-05-26T12:25:03Z</time>
      </trkpt>
      <trkpt lat="43.74155" lon="6.68164">
        <ele>1332.3</ele>
        <time>2024-05-26T12:25:04Z</time>
      </trkpt>
      <trkpt lat="43.74155" lon="6.68164">
        <ele>1332.2</ele>
        <time>2024-05-26T12:25:05Z</time>
      </trkpt>
      <trkpt lat="43.74155" lon="6.68164">
        <ele>1332.2</ele>
        <time>2024-05-26T12:25:06Z</time>
      </trkpt>
      <trkpt lat="43.74155" lon="6.68164">
        <ele>1332</ele>
        <time>2024-05-26T12:25:07Z</time>
      </trkpt>
      <trkpt lat="43.74154" lon="6.68164">
        <ele>1331.8</ele>
        <time>2024-05-26T12:25:08Z</time>
      </trkpt>
      <trkpt lat="43.74154" lon="6.68164">
        <ele>1331.7</ele>
        <time>2024-05-26T12:25:09Z</time>
      </trkpt>
      <trkpt lat="43.74155" lon="6.68163">
        <ele>1331.6</ele>
        <time>2024-05-26T12:25:10Z</time>
      </trkpt>
      <trkpt lat="43.74155" lon="6.68163">
        <ele>1331.5</ele>
        <time>2024-05-26T12:25:11Z</time>
      </trkpt>
      <trkpt lat="43.74155" lon="6.68162">
        <ele>1331.5</ele>
        <time>2024-05-26T12:25:12Z</time>
      </trkpt>
      <trkpt lat="43.74154" lon="6.68162">
        <ele>1331.5</ele>
        <time>2024-05-26T12:25:13Z</time>
      </trkpt>
      <trkpt lat="43.74154" lon="6.68162">
        <ele>1331.5</ele>
        <time>2024-05-26T12:25:14Z</time>
      </trkpt>
      <trkpt lat="43.74153" lon="6.68162">
        <ele>1331.6</ele>
        <time>2024-05-26T12:25:15Z</time>
      </trkpt>
      <trkpt lat="43.74153" lon="6.68162">
        <ele>1331.8</ele>
        <time>2024-05-26T12:25:16Z</time>
      </trkpt>
      <trkpt lat="43.74152" lon="6.68162">
        <ele>1331.8</ele>
        <time>2024-05-26T12:25:17Z</time>
      </trkpt>
      <trkpt lat="43.74152" lon="6.68161">
        <ele>1331.8</ele>
        <time>2024-05-26T12:25:18Z</time>
      </trkpt>
      <trkpt lat="43.74152" lon="6.68161">
        <ele>1331.9</ele>
        <time>2024-05-26T12:25:19Z</time>
      </trkpt>
      <trkpt lat="43.74152" lon="6.68161">
        <ele>1332</ele>
        <time>2024-05-26T12:25:20Z</time>
      </trkpt>
      <trkpt lat="43.74152" lon="6.6816">
        <ele>1332.1</ele>
        <time>2024-05-26T12:25:21Z</time>
      </trkpt>
      <trkpt lat="43.74153" lon="6.6816">
        <ele>1332.3</ele>
        <time>2024-05-26T12:25:22Z</time>
      </trkpt>
      <trkpt lat="43.74153" lon="6.68158">
        <ele>1332.4</ele>
        <time>2024-05-26T12:25:23Z</time>
      </trkpt>
      <trkpt lat="43.74153" lon="6.68157">
        <ele>1332.6</ele>
        <time>2024-05-26T12:25:24Z</time>
      </trkpt>
      <trkpt lat="43.74153" lon="6.68156">
        <ele>1332.7</ele>
        <time>2024-05-26T12:25:25Z</time>
      </trkpt>
      <trkpt lat="43.74153" lon="6.68155">
        <ele>1332.8</ele>
        <time>2024-05-26T12:25:26Z</time>
      </trkpt>
      <trkpt lat="43.74152" lon="6.68154">
        <ele>1332.8</ele>
        <time>2024-05-26T12:25:27Z</time>
      </trkpt>
      <trkpt lat="43.74152" lon="6.68153">
        <ele>1333</ele>
        <time>2024-05-26T12:25:28Z</time>
      </trkpt>
      <trkpt lat="43.74152" lon="6.68152">
        <ele>1333.1</ele>
        <time>2024-05-26T12:25:29Z</time>
      </trkpt>
      <trkpt lat="43.74151" lon="6.68151">
        <ele>1333.2</ele>
        <time>2024-05-26T12:25:30Z</time>
      </trkpt>
      <trkpt lat="43.74151" lon="6.68149">
        <ele>1333.5</ele>
        <time>2024-05-26T12:25:31Z</time>
      </trkpt>
      <trkpt lat="43.74151" lon="6.68148">
        <ele>1333.6</ele>
        <time>2024-05-26T12:25:32Z</time>
      </trkpt>
      <trkpt lat="43.7415" lon="6.68147">
        <ele>1333.8</ele>
        <time>2024-05-26T12:25:33Z</time>
      </trkpt>
      <trkpt lat="43.74149" lon="6.68147">
        <ele>1333.9</ele>
        <time>2024-05-26T12:25:34Z</time>
      </trkpt>
      <trkpt lat="43.74148" lon="6.68146">
        <ele>1334</ele>
        <time>2024-05-26T12:25:35Z</time>
      </trkpt>
      <trkpt lat="43.74149" lon="6.68145">
        <ele>1334.1</ele>
        <time>2024-05-26T12:25:36Z</time>
      </trkpt>
      <trkpt lat="43.74149" lon="6.68144">
        <ele>1334.2</ele>
        <time>2024-05-26T12:25:37Z</time>
      </trkpt>
      <trkpt lat="43.74148" lon="6.68143">
        <ele>1334.3</ele>
        <time>2024-05-26T12:25:38Z</time>
      </trkpt>
      <trkpt lat="43.74149" lon="6.68143">
        <ele>1334.4</ele>
        <time>2024-05-26T12:25:39Z</time>
      </trkpt>
      <trkpt lat="43.74149" lon="6.68142">
        <ele>1334.5</ele>
        <time>2024-05-26T12:25:40Z</time>
      </trkpt>
      <trkpt lat="43.74149" lon="6.68142">
        <ele>1334.6</ele>
        <time>2024-05-26T12:25:41Z</time>
      </trkpt>
      <trkpt lat="43.74149" lon="6.68142">
        <ele>1334.7</ele>
        <time>2024-05-26T12:25:42Z</time>
      </trkpt>
      <trkpt lat="43.74149" lon="6.68142">
        <ele>1334.7</ele>
        <time>2024-05-26T12:25:43Z</time>
      </trkpt>
      <trkpt lat="43.74149" lon="6.68142">
        <ele>1334.7</ele>
        <time>2024-05-26T12:25:44Z</time>
      </trkpt>
      <trkpt lat="43.74149" lon="6.68142">
        <ele>1334.9</ele>
        <time>2024-05-26T12:25:45Z</time>
      </trkpt>
      <trkpt lat="43.74149" lon="6.68142">
        <ele>1335</ele>
        <time>2024-05-26T12:25:46Z</time>
      </trkpt>
      <trkpt lat="43.74149" lon="6.68142">
        <ele>1335.1</ele>
        <time>2024-05-26T12:25:47Z</time>
      </trkpt>
      <trkpt lat="43.7415" lon="6.68142">
        <ele>1335.1</ele>
        <time>2024-05-26T12:25:48Z</time>
      </trkpt>
      <trkpt lat="43.7415" lon="6.68142">
        <ele>1335.2</ele>
        <time>2024-05-26T12:25:49Z</time>
      </trkpt>
      <trkpt lat="43.7415" lon="6.68142">
        <ele>1335.2</ele>
        <time>2024-05-26T12:25:50Z</time>
      </trkpt>
      <trkpt lat="43.74149" lon="6.68142">
        <ele>1335.3</ele>
        <time>2024-05-26T12:25:51Z</time>
      </trkpt>
      <trkpt lat="43.74149" lon="6.68142">
        <ele>1335.3</ele>
        <time>2024-05-26T12:25:52Z</time>
      </trkpt>
      <trkpt lat="43.74149" lon="6.68142">
        <ele>1335.3</ele>
        <time>2024-05-26T12:25:53Z</time>
      </trkpt>
      <trkpt lat="43.74149" lon="6.68142">
        <ele>1335.3</ele>
        <time>2024-05-26T12:25:54Z</time>
      </trkpt>
      <trkpt lat="43.74149" lon="6.68143">
        <ele>1335.3</ele>
        <time>2024-05-26T12:25:55Z</time>
      </trkpt>
      <trkpt lat="43.74149" lon="6.68143">
        <ele>1335.3</ele>
        <time>2024-05-26T12:25:56Z</time>
      </trkpt>
      <trkpt lat="43.74149" lon="6.68143">
        <ele>1335.3</ele>
        <time>2024-05-26T12:25:57Z</time>
      </trkpt>
      <trkpt lat="43.74149" lon="6.68143">
        <ele>1335.3</ele>
        <time>2024-05-26T12:25:58Z</time>
      </trkpt>
      <trkpt lat="43.7415" lon="6.68143">
        <ele>1335.2</ele>
        <time>2024-05-26T12:25:59Z</time>
      </trkpt>
      <trkpt lat="43.7415" lon="6.68143">
        <ele>1335.1</ele>
        <time>2024-05-26T12:26:00Z</time>
      </trkpt>
      <trkpt lat="43.7415" lon="6.68143">
        <ele>1335.1</ele>
        <time>2024-05-26T12:26:01Z</time>
      </trkpt>
      <trkpt lat="43.74149" lon="6.68143">
        <ele>1335.1</ele>
        <time>2024-05-26T12:26:02Z</time>
      </trkpt>
      <trkpt lat="43.74149" lon="6.68143">
        <ele>1335.1</ele>
        <time>2024-05-26T12:26:03Z</time>
      </trkpt>
      <trkpt lat="43.74149" lon="6.68143">
        <ele>1335.2</ele>
        <time>2024-05-26T12:26:04Z</time>
      </trkpt>
      <trkpt lat="43.74149" lon="6.68143">
        <ele>1335.1</ele>
        <time>2024-05-26T12:26:05Z</time>
      </trkpt>
      <trkpt lat="43.74149" lon="6.68143">
        <ele>1335.1</ele>
        <time>2024-05-26T12:26:06Z</time>
      </trkpt>
      <trkpt lat="43.74149" lon="6.68143">
        <ele>1335.1</ele>
        <time>2024-05-26T12:26:07Z</time>
      </trkpt>
      <trkpt lat="43.74149" lon="6.68143">
        <ele>1335.2</ele>
        <time>2024-05-26T12:26:08Z</time>
      </trkpt>
      <trkpt lat="43.74149" lon="6.68143">
        <ele>1335.2</ele>
        <time>2024-05-26T12:26:09Z</time>
      </trkpt>
      <trkpt lat="43.74149" lon="6.68142">
        <ele>1335.2</ele>
        <time>2024-05-26T12:26:10Z</time>
      </trkpt>
      <trkpt lat="43.74149" lon="6.68142">
        <ele>1335.2</ele>
        <time>2024-05-26T12:26:11Z</time>
      </trkpt>
      <trkpt lat="43.74149" lon="6.68142">
        <ele>1335.2</ele>
        <time>2024-05-26T12:26:12Z</time>
      </trkpt>
      <trkpt lat="43.74149" lon="6.68142">
        <ele>1335.2</ele>
        <time>2024-05-26T12:26:13Z</time>
      </trkpt>
      <trkpt lat="43.74149" lon="6.68142">
        <ele>1335.1</ele>
        <time>2024-05-26T12:26:14Z</time>
      </trkpt>
      <trkpt lat="43.74149" lon="6.68142">
        <ele>1335.1</ele>
        <time>2024-05-26T12:26:15Z</time>
      </trkpt>
      <trkpt lat="43.74149" lon="6.68142">
        <ele>1335.1</ele>
        <time>2024-05-26T12:26:16Z</time>
      </trkpt>
      <trkpt lat="43.74149" lon="6.68142">
        <ele>1335.1</ele>
        <time>2024-05-26T12:26:17Z</time>
      </trkpt>
      <trkpt lat="43.74149" lon="6.68142">
        <ele>1335</ele>
        <time>2024-05-26T12:26:18Z</time>
      </trkpt>
      <trkpt lat="43.74148" lon="6.68141">
        <ele>1335</ele>
        <time>2024-05-26T12:26:19Z</time>
      </trkpt>
      <trkpt lat="43.74148" lon="6.68141">
        <ele>1334.9</ele>
        <time>2024-05-26T12:26:20Z</time>
      </trkpt>
      <trkpt lat="43.74148" lon="6.6814">
        <ele>1334.8</ele>
        <time>2024-05-26T12:26:21Z</time>
      </trkpt>
      <trkpt lat="43.74147" lon="6.6814">
        <ele>1334.9</ele>
        <time>2024-05-26T12:26:22Z</time>
      </trkpt>
      <trkpt lat="43.74148" lon="6.6814">
        <ele>1334.9</ele>
        <time>2024-05-26T12:26:23Z</time>
      </trkpt>
      <trkpt lat="43.74148" lon="6.68139">
        <ele>1334.9</ele>
        <time>2024-05-26T12:26:24Z</time>
      </trkpt>
      <trkpt lat="43.74148" lon="6.68139">
        <ele>1334.9</ele>
        <time>2024-05-26T12:26:25Z</time>
      </trkpt>
      <trkpt lat="43.74147" lon="6.68139">
        <ele>1335</ele>
        <time>2024-05-26T12:26:26Z</time>
      </trkpt>
      <trkpt lat="43.74147" lon="6.68139">
        <ele>1335.1</ele>
        <time>2024-05-26T12:26:27Z</time>
      </trkpt>
      <trkpt lat="43.74147" lon="6.68139">
        <ele>1335.2</ele>
        <time>2024-05-26T12:26:28Z</time>
      </trkpt>
      <trkpt lat="43.74147" lon="6.68139">
        <ele>1335.2</ele>
        <time>2024-05-26T12:26:29Z</time>
      </trkpt>
      <trkpt lat="43.74147" lon="6.68139">
        <ele>1335.2</ele>
        <time>2024-05-26T12:26:30Z</time>
      </trkpt>
      <trkpt lat="43.74147" lon="6.68138">
        <ele>1335.2</ele>
        <time>2024-05-26T12:26:31Z</time>
      </trkpt>
      <trkpt lat="43.74147" lon="6.68138">
        <ele>1335.2</ele>
        <time>2024-05-26T12:26:32Z</time>
      </trkpt>
      <trkpt lat="43.74147" lon="6.68138">
        <ele>1335.3</ele>
        <time>2024-05-26T12:26:33Z</time>
      </trkpt>
      <trkpt lat="43.74147" lon="6.68138">
        <ele>1335.3</ele>
        <time>2024-05-26T12:26:34Z</time>
      </trkpt>
      <trkpt lat="43.74147" lon="6.68138">
        <ele>1335.3</ele>
        <time>2024-05-26T12:26:35Z</time>
      </trkpt>
      <trkpt lat="43.74147" lon="6.68138">
        <ele>1335.3</ele>
        <time>2024-05-26T12:26:36Z</time>
      </trkpt>
      <trkpt lat="43.74147" lon="6.68138">
        <ele>1335.3</ele>
        <time>2024-05-26T12:26:37Z</time>
      </trkpt>
      <trkpt lat="43.74147" lon="6.68138">
        <ele>1335.4</ele>
        <time>2024-05-26T12:26:38Z</time>
      </trkpt>
      <trkpt lat="43.74147" lon="6.68138">
        <ele>1335.4</ele>
        <time>2024-05-26T12:26:39Z</time>
      </trkpt>
      <trkpt lat="43.74147" lon="6.68138">
        <ele>1335.4</ele>
        <time>2024-05-26T12:26:40Z</time>
      </trkpt>
      <trkpt lat="43.74147" lon="6.68138">
        <ele>1335.4</ele>
        <time>2024-05-26T12:26:41Z</time>
      </trkpt>
      <trkpt lat="43.74147" lon="6.68138">
        <ele>1335.4</ele>
        <time>2024-05-26T12:26:42Z</time>
      </trkpt>
      <trkpt lat="43.74147" lon="6.68139">
        <ele>1335.4</ele>
        <time>2024-05-26T12:26:43Z</time>
      </trkpt>
      <trkpt lat="43.74147" lon="6.68139">
        <ele>1335.4</ele>
        <time>2024-05-26T12:26:44Z</time>
      </trkpt>
      <trkpt lat="43.74147" lon="6.68138">
        <ele>1335.4</ele>
        <time>2024-05-26T12:26:45Z</time>
      </trkpt>
      <trkpt lat="43.74147" lon="6.68138">
        <ele>1335.4</ele>
        <time>2024-05-26T12:26:46Z</time>
      </trkpt>
      <trkpt lat="43.74147" lon="6.68138">
        <ele>1335.4</ele>
        <time>2024-05-26T12:26:47Z</time>
      </trkpt>
      <trkpt lat="43.74147" lon="6.68138">
        <ele>1335.4</ele>
        <time>2024-05-26T12:26:48Z</time>
      </trkpt>
      <trkpt lat="43.74147" lon="6.68138">
        <ele>1335.3</ele>
        <time>2024-05-26T12:26:49Z</time>
      </trkpt>
      <trkpt lat="43.74147" lon="6.68138">
        <ele>1335.3</ele>
        <time>2024-05-26T12:26:50Z</time>
      </trkpt>
      <trkpt lat="43.74147" lon="6.68137">
        <ele>1335.4</ele>
        <time>2024-05-26T12:26:51Z</time>
      </trkpt>
      <trkpt lat="43.74147" lon="6.68137">
        <ele>1335.4</ele>
        <time>2024-05-26T12:26:52Z</time>
      </trkpt>
      <trkpt lat="43.74147" lon="6.68137">
        <ele>1335.4</ele>
        <time>2024-05-26T12:26:53Z</time>
      </trkpt>
      <trkpt lat="43.74147" lon="6.68137">
        <ele>1335.4</ele>
        <time>2024-05-26T12:26:54Z</time>
      </trkpt>
      <trkpt lat="43.74147" lon="6.68136">
        <ele>1335.4</ele>
        <time>2024-05-26T12:26:55Z</time>
      </trkpt>
      <trkpt lat="43.74147" lon="6.68136">
        <ele>1335.4</ele>
        <time>2024-05-26T12:26:56Z</time>
      </trkpt>
      <trkpt lat="43.74147" lon="6.68136">
        <ele>1335.5</ele>
        <time>2024-05-26T12:26:57Z</time>
      </trkpt>
      <trkpt lat="43.74147" lon="6.68136">
        <ele>1335.4</ele>
        <time>2024-05-26T12:26:58Z</time>
      </trkpt>
      <trkpt lat="43.74147" lon="6.68136">
        <ele>1335.4</ele>
        <time>2024-05-26T12:26:59Z</time>
      </trkpt>
      <trkpt lat="43.74147" lon="6.68136">
        <ele>1335.3</ele>
        <time>2024-05-26T12:27:00Z</time>
      </trkpt>
      <trkpt lat="43.74147" lon="6.68136">
        <ele>1335.4</ele>
        <time>2024-05-26T12:27:01Z</time>
      </trkpt>
      <trkpt lat="43.74147" lon="6.68136">
        <ele>1335.5</ele>
        <time>2024-05-26T12:27:02Z</time>
      </trkpt>
      <trkpt lat="43.74146" lon="6.68136">
        <ele>1335.4</ele>
        <time>2024-05-26T12:27:03Z</time>
      </trkpt>
      <trkpt lat="43.74146" lon="6.68136">
        <ele>1335.4</ele>
        <time>2024-05-26T12:27:04Z</time>
      </trkpt>
      <trkpt lat="43.74146" lon="6.68136">
        <ele>1335.4</ele>
        <time>2024-05-26T12:27:05Z</time>
      </trkpt>
      <trkpt lat="43.74146" lon="6.68136">
        <ele>1335.4</ele>
        <time>2024-05-26T12:27:06Z</time>
      </trkpt>
      <trkpt lat="43.74146" lon="6.68136">
        <ele>1335.5</ele>
        <time>2024-05-26T12:27:07Z</time>
      </trkpt>
      <trkpt lat="43.74146" lon="6.68136">
        <ele>1335.5</ele>
        <time>2024-05-26T12:27:08Z</time>
      </trkpt>
      <trkpt lat="43.74146" lon="6.68136">
        <ele>1335.5</ele>
        <time>2024-05-26T12:27:09Z</time>
      </trkpt>
      <trkpt lat="43.74146" lon="6.68136">
        <ele>1335.5</ele>
        <time>2024-05-26T12:27:10Z</time>
      </trkpt>
      <trkpt lat="43.74145" lon="6.68136">
        <ele>1335.5</ele>
        <time>2024-05-26T12:27:11Z</time>
      </trkpt>
      <trkpt lat="43.74145" lon="6.68136">
        <ele>1335.4</ele>
        <time>2024-05-26T12:27:12Z</time>
      </trkpt>
      <trkpt lat="43.74145" lon="6.68136">
        <ele>1335.3</ele>
        <time>2024-05-26T12:27:13Z</time>
      </trkpt>
      <trkpt lat="43.74145" lon="6.68136">
        <ele>1335.4</ele>
        <time>2024-05-26T12:27:14Z</time>
      </trkpt>
      <trkpt lat="43.74145" lon="6.68136">
        <ele>1335.4</ele>
        <time>2024-05-26T12:27:15Z</time>
      </trkpt>
      <trkpt lat="43.74145" lon="6.68136">
        <ele>1335.4</ele>
        <time>2024-05-26T12:27:16Z</time>
      </trkpt>
      <trkpt lat="43.74145" lon="6.68136">
        <ele>1335.5</ele>
        <time>2024-05-26T12:27:17Z</time>
      </trkpt>
      <trkpt lat="43.74145" lon="6.68136">
        <ele>1335.5</ele>
        <time>2024-05-26T12:27:18Z</time>
      </trkpt>
      <trkpt lat="43.74145" lon="6.68136">
        <ele>1335.5</ele>
        <time>2024-05-26T12:27:19Z</time>
      </trkpt>
      <trkpt lat="43.74145" lon="6.68135">
        <ele>1335.6</ele>
        <time>2024-05-26T12:27:20Z</time>
      </trkpt>
      <trkpt lat="43.74145" lon="6.68135">
        <ele>1335.6</ele>
        <time>2024-05-26T12:27:21Z</time>
      </trkpt>
      <trkpt lat="43.74145" lon="6.68135">
        <ele>1335.6</ele>
        <time>2024-05-26T12:27:22Z</time>
      </trkpt>
      <trkpt lat="43.74145" lon="6.68135">
        <ele>1335.6</ele>
        <time>2024-05-26T12:27:23Z</time>
      </trkpt>
      <trkpt lat="43.74145" lon="6.68135">
        <ele>1335.6</ele>
        <time>2024-05-26T12:27:24Z</time>
      </trkpt>
      <trkpt lat="43.74144" lon="6.68135">
        <ele>1335.6</ele>
        <time>2024-05-26T12:27:25Z</time>
      </trkpt>
      <trkpt lat="43.74144" lon="6.68135">
        <ele>1335.6</ele>
        <time>2024-05-26T12:27:26Z</time>
      </trkpt>
      <trkpt lat="43.74143" lon="6.68136">
        <ele>1335.5</ele>
        <time>2024-05-26T12:27:27Z</time>
      </trkpt>
      <trkpt lat="43.74142" lon="6.68137">
        <ele>1335.5</ele>
        <time>2024-05-26T12:27:28Z</time>
      </trkpt>
      <trkpt lat="43.74141" lon="6.68137">
        <ele>1335.5</ele>
        <time>2024-05-26T12:27:29Z</time>
      </trkpt>
      <trkpt lat="43.74141" lon="6.68138">
        <ele>1335.5</ele>
        <time>2024-05-26T12:27:30Z</time>
      </trkpt>
      <trkpt lat="43.7414" lon="6.68139">
        <ele>1335.5</ele>
        <time>2024-05-26T12:27:31Z</time>
      </trkpt>
      <trkpt lat="43.7414" lon="6.6814">
        <ele>1335.4</ele>
        <time>2024-05-26T12:27:32Z</time>
      </trkpt>
      <trkpt lat="43.7414" lon="6.68141">
        <ele>1335.4</ele>
        <time>2024-05-26T12:27:33Z</time>
      </trkpt>
      <trkpt lat="43.7414" lon="6.68141">
        <ele>1335.4</ele>
        <time>2024-05-26T12:27:34Z</time>
      </trkpt>
      <trkpt lat="43.7414" lon="6.68141">
        <ele>1335.3</ele>
        <time>2024-05-26T12:27:35Z</time>
      </trkpt>
      <trkpt lat="43.7414" lon="6.68141">
        <ele>1335.3</ele>
        <time>2024-05-26T12:27:36Z</time>
      </trkpt>
      <trkpt lat="43.7414" lon="6.6814">
        <ele>1335.2</ele>
        <time>2024-05-26T12:27:37Z</time>
      </trkpt>
      <trkpt lat="43.7414" lon="6.6814">
        <ele>1335.2</ele>
        <time>2024-05-26T12:27:38Z</time>
      </trkpt>
      <trkpt lat="43.7414" lon="6.6814">
        <ele>1335.1</ele>
        <time>2024-05-26T12:27:39Z</time>
      </trkpt>
      <trkpt lat="43.7414" lon="6.6814">
        <ele>1335.1</ele>
        <time>2024-05-26T12:27:40Z</time>
      </trkpt>
      <trkpt lat="43.7414" lon="6.6814">
        <ele>1335.1</ele>
        <time>2024-05-26T12:27:41Z</time>
      </trkpt>
      <trkpt lat="43.7414" lon="6.6814">
        <ele>1335</ele>
        <time>2024-05-26T12:27:42Z</time>
      </trkpt>
      <trkpt lat="43.7414" lon="6.6814">
        <ele>1335.1</ele>
        <time>2024-05-26T12:27:43Z</time>
      </trkpt>
      <trkpt lat="43.7414" lon="6.6814">
        <ele>1335.1</ele>
        <time>2024-05-26T12:27:44Z</time>
      </trkpt>
      <trkpt lat="43.7414" lon="6.6814">
        <ele>1335.1</ele>
        <time>2024-05-26T12:27:45Z</time>
      </trkpt>
      <trkpt lat="43.7414" lon="6.6814">
        <ele>1335</ele>
        <time>2024-05-26T12:27:46Z</time>
      </trkpt>
      <trkpt lat="43.7414" lon="6.6814">
        <ele>1335</ele>
        <time>2024-05-26T12:27:47Z</time>
      </trkpt>
      <trkpt lat="43.7414" lon="6.6814">
        <ele>1335</ele>
        <time>2024-05-26T12:27:48Z</time>
      </trkpt>
      <trkpt lat="43.7414" lon="6.6814">
        <ele>1335</ele>
        <time>2024-05-26T12:27:49Z</time>
      </trkpt>
      <trkpt lat="43.74141" lon="6.6814">
        <ele>1335</ele>
        <time>2024-05-26T12:27:50Z</time>
      </trkpt>
      <trkpt lat="43.74141" lon="6.6814">
        <ele>1334.9</ele>
        <time>2024-05-26T12:27:51Z</time>
      </trkpt>
      <trkpt lat="43.74142" lon="6.6814">
        <ele>1334.9</ele>
        <time>2024-05-26T12:27:52Z</time>
      </trkpt>
      <trkpt lat="43.74142" lon="6.6814">
        <ele>1334.9</ele>
        <time>2024-05-26T12:27:53Z</time>
      </trkpt>
      <trkpt lat="43.74143" lon="6.68139">
        <ele>1334.9</ele>
        <time>2024-05-26T12:27:54Z</time>
      </trkpt>
      <trkpt lat="43.74143" lon="6.68139">
        <ele>1334.9</ele>
        <time>2024-05-26T12:27:55Z</time>
      </trkpt>
      <trkpt lat="43.74144" lon="6.68139">
        <ele>1334.9</ele>
        <time>2024-05-26T12:27:56Z</time>
      </trkpt>
      <trkpt lat="43.74144" lon="6.68139">
        <ele>1334.9</ele>
        <time>2024-05-26T12:27:57Z</time>
      </trkpt>
      <trkpt lat="43.74144" lon="6.68139">
        <ele>1334.9</ele>
        <time>2024-05-26T12:27:58Z</time>
      </trkpt>
      <trkpt lat="43.74145" lon="6.6814">
        <ele>1334.9</ele>
        <time>2024-05-26T12:27:59Z</time>
      </trkpt>
      <trkpt lat="43.74145" lon="6.6814">
        <ele>1334.9</ele>
        <time>2024-05-26T12:28:00Z</time>
      </trkpt>
      <trkpt lat="43.74145" lon="6.6814">
        <ele>1334.9</ele>
        <time>2024-05-26T12:28:01Z</time>
      </trkpt>
      <trkpt lat="43.74145" lon="6.6814">
        <ele>1334.9</ele>
        <time>2024-05-26T12:28:02Z</time>
      </trkpt>
      <trkpt lat="43.74146" lon="6.6814">
        <ele>1334.9</ele>
        <time>2024-05-26T12:28:03Z</time>
      </trkpt>
      <trkpt lat="43.74146" lon="6.6814">
        <ele>1335</ele>
        <time>2024-05-26T12:28:04Z</time>
      </trkpt>
      <trkpt lat="43.74146" lon="6.68141">
        <ele>1335</ele>
        <time>2024-05-26T12:28:05Z</time>
      </trkpt>
      <trkpt lat="43.74146" lon="6.68141">
        <ele>1335</ele>
        <time>2024-05-26T12:28:06Z</time>
      </trkpt>
      <trkpt lat="43.74146" lon="6.68141">
        <ele>1335</ele>
        <time>2024-05-26T12:28:07Z</time>
      </trkpt>
      <trkpt lat="43.74146" lon="6.68141">
        <ele>1335</ele>
        <time>2024-05-26T12:28:08Z</time>
      </trkpt>
      <trkpt lat="43.74146" lon="6.68141">
        <ele>1335</ele>
        <time>2024-05-26T12:28:09Z</time>
      </trkpt>
      <trkpt lat="43.74146" lon="6.68141">
        <ele>1335</ele>
        <time>2024-05-26T12:28:10Z</time>
      </trkpt>
      <trkpt lat="43.74146" lon="6.6814">
        <ele>1335</ele>
        <time>2024-05-26T12:28:11Z</time>
      </trkpt>
      <trkpt lat="43.74146" lon="6.6814">
        <ele>1335</ele>
        <time>2024-05-26T12:28:12Z</time>
      </trkpt>
      <trkpt lat="43.74146" lon="6.6814">
        <ele>1335</ele>
        <time>2024-05-26T12:28:13Z</time>
      </trkpt>
      <trkpt lat="43.74145" lon="6.6814">
        <ele>1335.1</ele>
        <time>2024-05-26T12:28:14Z</time>
      </trkpt>
      <trkpt lat="43.74145" lon="6.6814">
        <ele>1335.1</ele>
        <time>2024-05-26T12:28:15Z</time>
      </trkpt>
      <trkpt lat="43.74145" lon="6.6814">
        <ele>1335.1</ele>
        <time>2024-05-26T12:28:16Z</time>
      </trkpt>
      <trkpt lat="43.74145" lon="6.6814">
        <ele>1335.1</ele>
        <time>2024-05-26T12:28:17Z</time>
      </trkpt>
      <trkpt lat="43.74146" lon="6.6814">
        <ele>1335.2</ele>
        <time>2024-05-26T12:28:18Z</time>
      </trkpt>
      <trkpt lat="43.74146" lon="6.6814">
        <ele>1335.3</ele>
        <time>2024-05-26T12:28:19Z</time>
      </trkpt>
      <trkpt lat="43.74146" lon="6.6814">
        <ele>1335.3</ele>
        <time>2024-05-26T12:28:20Z</time>
      </trkpt>
      <trkpt lat="43.74146" lon="6.6814">
        <ele>1335.4</ele>
        <time>2024-05-26T12:28:21Z</time>
      </trkpt>
      <trkpt lat="43.74146" lon="6.6814">
        <ele>1335.4</ele>
        <time>2024-05-26T12:28:22Z</time>
      </trkpt>
      <trkpt lat="43.74146" lon="6.6814">
        <ele>1335.4</ele>
        <time>2024-05-26T12:28:23Z</time>
      </trkpt>
      <trkpt lat="43.74146" lon="6.6814">
        <ele>1335.4</ele>
        <time>2024-05-26T12:28:24Z</time>
      </trkpt>
      <trkpt lat="43.74146" lon="6.6814">
        <ele>1335.4</ele>
        <time>2024-05-26T12:28:25Z</time>
      </trkpt>
      <trkpt lat="43.74146" lon="6.6814">
        <ele>1335.3</ele>
        <time>2024-05-26T12:28:26Z</time>
      </trkpt>
      <trkpt lat="43.74146" lon="6.6814">
        <ele>1335.3</ele>
        <time>2024-05-26T12:28:27Z</time>
      </trkpt>
      <trkpt lat="43.74146" lon="6.6814">
        <ele>1335.3</ele>
        <time>2024-05-26T12:28:28Z</time>
      </trkpt>
      <trkpt lat="43.74146" lon="6.6814">
        <ele>1335.4</ele>
        <time>2024-05-26T12:28:29Z</time>
      </trkpt>
      <trkpt lat="43.74146" lon="6.6814">
        <ele>1335.4</ele>
        <time>2024-05-26T12:28:30Z</time>
      </trkpt>
      <trkpt lat="43.74146" lon="6.6814">
        <ele>1335.5</ele>
        <time>2024-05-26T12:28:31Z</time>
      </trkpt>
      <trkpt lat="43.74146" lon="6.68141">
        <ele>1335.5</ele>
        <time>2024-05-26T12:28:32Z</time>
      </trkpt>
      <trkpt lat="43.74146" lon="6.68141">
        <ele>1335.5</ele>
        <time>2024-05-26T12:28:33Z</time>
      </trkpt>
      <trkpt lat="43.74146" lon="6.68141">
        <ele>1335.5</ele>
        <time>2024-05-26T12:28:34Z</time>
      </trkpt>
      <trkpt lat="43.74146" lon="6.68141">
        <ele>1335.5</ele>
        <time>2024-05-26T12:28:35Z</time>
      </trkpt>
      <trkpt lat="43.74146" lon="6.68141">
        <ele>1335.4</ele>
        <time>2024-05-26T12:28:36Z</time>
      </trkpt>
      <trkpt lat="43.74146" lon="6.68141">
        <ele>1335.4</ele>
        <time>2024-05-26T12:28:37Z</time>
      </trkpt>
      <trkpt lat="43.74146" lon="6.68141">
        <ele>1335.4</ele>
        <time>2024-05-26T12:28:38Z</time>
      </trkpt>
      <trkpt lat="43.74146" lon="6.68141">
        <ele>1335.4</ele>
        <time>2024-05-26T12:28:39Z</time>
      </trkpt>
      <trkpt lat="43.74146" lon="6.68141">
        <ele>1335.4</ele>
        <time>2024-05-26T12:28:40Z</time>
      </trkpt>
      <trkpt lat="43.74146" lon="6.68141">
        <ele>1335.4</ele>
        <time>2024-05-26T12:28:41Z</time>
      </trkpt>
      <trkpt lat="43.74146" lon="6.68141">
        <ele>1335.3</ele>
        <time>2024-05-26T12:28:42Z</time>
      </trkpt>
      <trkpt lat="43.74146" lon="6.68141">
        <ele>1335.3</ele>
        <time>2024-05-26T12:28:43Z</time>
      </trkpt>
      <trkpt lat="43.74146" lon="6.68141">
        <ele>1335.3</ele>
        <time>2024-05-26T12:28:44Z</time>
      </trkpt>
      <trkpt lat="43.74146" lon="6.68141">
        <ele>1335.4</ele>
        <time>2024-05-26T12:28:45Z</time>
      </trkpt>
      <trkpt lat="43.74146" lon="6.68141">
        <ele>1335.4</ele>
        <time>2024-05-26T12:28:46Z</time>
      </trkpt>
      <trkpt lat="43.74146" lon="6.68141">
        <ele>1335.4</ele>
        <time>2024-05-26T12:28:47Z</time>
      </trkpt>
      <trkpt lat="43.74146" lon="6.68141">
        <ele>1335.3</ele>
        <time>2024-05-26T12:28:48Z</time>
      </trkpt>
      <trkpt lat="43.74146" lon="6.68141">
        <ele>1335.2</ele>
        <time>2024-05-26T12:28:49Z</time>
      </trkpt>
      <trkpt lat="43.74146" lon="6.68141">
        <ele>1335.2</ele>
        <time>2024-05-26T12:28:50Z</time>
      </trkpt>
      <trkpt lat="43.74146" lon="6.68141">
        <ele>1335.2</ele>
        <time>2024-05-26T12:28:51Z</time>
      </trkpt>
      <trkpt lat="43.74146" lon="6.68141">
        <ele>1335.2</ele>
        <time>2024-05-26T12:28:52Z</time>
      </trkpt>
      <trkpt lat="43.74146" lon="6.68141">
        <ele>1335.2</ele>
        <time>2024-05-26T12:28:53Z</time>
      </trkpt>
      <trkpt lat="43.74146" lon="6.68141">
        <ele>1335.2</ele>
        <time>2024-05-26T12:28:54Z</time>
      </trkpt>
      <trkpt lat="43.74146" lon="6.68141">
        <ele>1335.2</ele>
        <time>2024-05-26T12:28:55Z</time>
      </trkpt>
      <trkpt lat="43.74146" lon="6.68141">
        <ele>1335.1</ele>
        <time>2024-05-26T12:28:56Z</time>
      </trkpt>
      <trkpt lat="43.74147" lon="6.68141">
        <ele>1335.1</ele>
        <time>2024-05-26T12:28:57Z</time>
      </trkpt>
      <trkpt lat="43.74147" lon="6.68141">
        <ele>1335.1</ele>
        <time>2024-05-26T12:28:58Z</time>
      </trkpt>
      <trkpt lat="43.74147" lon="6.6814">
        <ele>1335</ele>
        <time>2024-05-26T12:28:59Z</time>
      </trkpt>
      <trkpt lat="43.74147" lon="6.6814">
        <ele>1335</ele>
        <time>2024-05-26T12:29:00Z</time>
      </trkpt>
      <trkpt lat="43.74147" lon="6.6814">
        <ele>1335</ele>
        <time>2024-05-26T12:29:01Z</time>
      </trkpt>
      <trkpt lat="43.74147" lon="6.6814">
        <ele>1334.9</ele>
        <time>2024-05-26T12:29:02Z</time>
      </trkpt>
      <trkpt lat="43.74147" lon="6.6814">
        <ele>1334.9</ele>
        <time>2024-05-26T12:29:03Z</time>
      </trkpt>
      <trkpt lat="43.74147" lon="6.6814">
        <ele>1334.9</ele>
        <time>2024-05-26T12:29:04Z</time>
      </trkpt>
      <trkpt lat="43.74147" lon="6.6814">
        <ele>1334.8</ele>
        <time>2024-05-26T12:29:05Z</time>
      </trkpt>
      <trkpt lat="43.74147" lon="6.6814">
        <ele>1334.8</ele>
        <time>2024-05-26T12:29:06Z</time>
      </trkpt>
      <trkpt lat="43.74147" lon="6.6814">
        <ele>1334.8</ele>
        <time>2024-05-26T12:29:07Z</time>
      </trkpt>
      <trkpt lat="43.74147" lon="6.6814">
        <ele>1334.7</ele>
        <time>2024-05-26T12:29:08Z</time>
      </trkpt>
      <trkpt lat="43.74146" lon="6.6814">
        <ele>1334.8</ele>
        <time>2024-05-26T12:29:09Z</time>
      </trkpt>
      <trkpt lat="43.74145" lon="6.68141">
        <ele>1334.8</ele>
        <time>2024-05-26T12:29:10Z</time>
      </trkpt>
      <trkpt lat="43.74144" lon="6.68142">
        <ele>1334.8</ele>
        <time>2024-05-26T12:29:11Z</time>
      </trkpt>
      <trkpt lat="43.74143" lon="6.68142">
        <ele>1334.8</ele>
        <time>2024-05-26T12:29:12Z</time>
      </trkpt>
      <trkpt lat="43.74142" lon="6.68142">
        <ele>1334.8</ele>
        <time>2024-05-26T12:29:13Z</time>
      </trkpt>
      <trkpt lat="43.74141" lon="6.68143">
        <ele>1334.8</ele>
        <time>2024-05-26T12:29:14Z</time>
      </trkpt>
      <trkpt lat="43.74141" lon="6.68144">
        <ele>1334.8</ele>
        <time>2024-05-26T12:29:15Z</time>
      </trkpt>
      <trkpt lat="43.74141" lon="6.68145">
        <ele>1334.8</ele>
        <time>2024-05-26T12:29:16Z</time>
      </trkpt>
      <trkpt lat="43.74141" lon="6.68145">
        <ele>1334.8</ele>
        <time>2024-05-26T12:29:17Z</time>
      </trkpt>
      <trkpt lat="43.74141" lon="6.68144">
        <ele>1334.9</ele>
        <time>2024-05-26T12:29:18Z</time>
      </trkpt>
      <trkpt lat="43.74141" lon="6.68143">
        <ele>1335</ele>
        <time>2024-05-26T12:29:19Z</time>
      </trkpt>
      <trkpt lat="43.74142" lon="6.68143">
        <ele>1335.1</ele>
        <time>2024-05-26T12:29:20Z</time>
      </trkpt>
      <trkpt lat="43.74142" lon="6.68142">
        <ele>1335.1</ele>
        <time>2024-05-26T12:29:21Z</time>
      </trkpt>
      <trkpt lat="43.74143" lon="6.68142">
        <ele>1335.1</ele>
        <time>2024-05-26T12:29:22Z</time>
      </trkpt>
      <trkpt lat="43.74144" lon="6.68142">
        <ele>1335.2</ele>
        <time>2024-05-26T12:29:23Z</time>
      </trkpt>
      <trkpt lat="43.74145" lon="6.68141">
        <ele>1335.3</ele>
        <time>2024-05-26T12:29:24Z</time>
      </trkpt>
      <trkpt lat="43.74145" lon="6.6814">
        <ele>1335.4</ele>
        <time>2024-05-26T12:29:25Z</time>
      </trkpt>
      <trkpt lat="43.74146" lon="6.68139">
        <ele>1335.3</ele>
        <time>2024-05-26T12:29:26Z</time>
      </trkpt>
      <trkpt lat="43.74146" lon="6.68138">
        <ele>1335.2</ele>
        <time>2024-05-26T12:29:27Z</time>
      </trkpt>
      <trkpt lat="43.74146" lon="6.68138">
        <ele>1335.2</ele>
        <time>2024-05-26T12:29:28Z</time>
      </trkpt>
      <trkpt lat="43.74147" lon="6.68137">
        <ele>1335.3</ele>
        <time>2024-05-26T12:29:29Z</time>
      </trkpt>
      <trkpt lat="43.74147" lon="6.68136">
        <ele>1335.3</ele>
        <time>2024-05-26T12:29:30Z</time>
      </trkpt>
      <trkpt lat="43.74147" lon="6.68135">
        <ele>1335.3</ele>
        <time>2024-05-26T12:29:31Z</time>
      </trkpt>
      <trkpt lat="43.74146" lon="6.68134">
        <ele>1335.4</ele>
        <time>2024-05-26T12:29:32Z</time>
      </trkpt>
      <trkpt lat="43.74146" lon="6.68134">
        <ele>1335.5</ele>
        <time>2024-05-26T12:29:33Z</time>
      </trkpt>
      <trkpt lat="43.74147" lon="6.68133">
        <ele>1335.5</ele>
        <time>2024-05-26T12:29:34Z</time>
      </trkpt>
      <trkpt lat="43.74147" lon="6.68133">
        <ele>1335.5</ele>
        <time>2024-05-26T12:29:35Z</time>
      </trkpt>
      <trkpt lat="43.74146" lon="6.68132">
        <ele>1335.6</ele>
        <time>2024-05-26T12:29:36Z</time>
      </trkpt>
      <trkpt lat="43.74147" lon="6.68132">
        <ele>1335.6</ele>
        <time>2024-05-26T12:29:37Z</time>
      </trkpt>
      <trkpt lat="43.74147" lon="6.68131">
        <ele>1335.6</ele>
        <time>2024-05-26T12:29:38Z</time>
      </trkpt>
      <trkpt lat="43.74147" lon="6.6813">
        <ele>1335.7</ele>
        <time>2024-05-26T12:29:39Z</time>
      </trkpt>
      <trkpt lat="43.74146" lon="6.68129">
        <ele>1335.8</ele>
        <time>2024-05-26T12:29:40Z</time>
      </trkpt>
      <trkpt lat="43.74146" lon="6.68129">
        <ele>1336</ele>
        <time>2024-05-26T12:29:41Z</time>
      </trkpt>
      <trkpt lat="43.74146" lon="6.68128">
        <ele>1335.9</ele>
        <time>2024-05-26T12:29:42Z</time>
      </trkpt>
      <trkpt lat="43.74145" lon="6.68127">
        <ele>1335.9</ele>
        <time>2024-05-26T12:29:43Z</time>
      </trkpt>
      <trkpt lat="43.74145" lon="6.68125">
        <ele>1335.9</ele>
        <time>2024-05-26T12:29:44Z</time>
      </trkpt>
      <trkpt lat="43.74145" lon="6.68125">
        <ele>1335.9</ele>
        <time>2024-05-26T12:29:45Z</time>
      </trkpt>
      <trkpt lat="43.74144" lon="6.68124">
        <ele>1336</ele>
        <time>2024-05-26T12:29:46Z</time>
      </trkpt>
      <trkpt lat="43.74144" lon="6.68123">
        <ele>1336</ele>
        <time>2024-05-26T12:29:47Z</time>
      </trkpt>
      <trkpt lat="43.74143" lon="6.68122">
        <ele>1336</ele>
        <time>2024-05-26T12:29:48Z</time>
      </trkpt>
      <trkpt lat="43.74143" lon="6.68121">
        <ele>1336.1</ele>
        <time>2024-05-26T12:29:49Z</time>
      </trkpt>
      <trkpt lat="43.74143" lon="6.6812">
        <ele>1336.3</ele>
        <time>2024-05-26T12:29:50Z</time>
      </trkpt>
      <trkpt lat="43.74143" lon="6.68119">
        <ele>1336.5</ele>
        <time>2024-05-26T12:29:51Z</time>
      </trkpt>
      <trkpt lat="43.74142" lon="6.68118">
        <ele>1336.5</ele>
        <time>2024-05-26T12:29:52Z</time>
      </trkpt>
      <trkpt lat="43.74142" lon="6.68117">
        <ele>1336.6</ele>
        <time>2024-05-26T12:29:53Z</time>
      </trkpt>
      <trkpt lat="43.74143" lon="6.68116">
        <ele>1336.6</ele>
        <time>2024-05-26T12:29:54Z</time>
      </trkpt>
      <trkpt lat="43.74143" lon="6.68114">
        <ele>1336.6</ele>
        <time>2024-05-26T12:29:55Z</time>
      </trkpt>
      <trkpt lat="43.74143" lon="6.68113">
        <ele>1336.6</ele>
        <time>2024-05-26T12:29:56Z</time>
      </trkpt>
      <trkpt lat="43.74143" lon="6.68112">
        <ele>1336.5</ele>
        <time>2024-05-26T12:29:57Z</time>
      </trkpt>
      <trkpt lat="43.74143" lon="6.68111">
        <ele>1336.6</ele>
        <time>2024-05-26T12:29:58Z</time>
      </trkpt>
      <trkpt lat="43.74143" lon="6.6811">
        <ele>1336.9</ele>
        <time>2024-05-26T12:29:59Z</time>
      </trkpt>
      <trkpt lat="43.74143" lon="6.68109">
        <ele>1336.9</ele>
        <time>2024-05-26T12:30:00Z</time>
      </trkpt>
      <trkpt lat="43.74143" lon="6.68108">
        <ele>1337</ele>
        <time>2024-05-26T12:30:01Z</time>
      </trkpt>
      <trkpt lat="43.74142" lon="6.68107">
        <ele>1337.1</ele>
        <time>2024-05-26T12:30:02Z</time>
      </trkpt>
      <trkpt lat="43.74142" lon="6.68106">
        <ele>1337.2</ele>
        <time>2024-05-26T12:30:03Z</time>
      </trkpt>
      <trkpt lat="43.74142" lon="6.68105">
        <ele>1337.4</ele>
        <time>2024-05-26T12:30:04Z</time>
      </trkpt>
      <trkpt lat="43.74142" lon="6.68104">
        <ele>1337.5</ele>
        <time>2024-05-26T12:30:05Z</time>
      </trkpt>
      <trkpt lat="43.74142" lon="6.68103">
        <ele>1337.6</ele>
        <time>2024-05-26T12:30:06Z</time>
      </trkpt>
      <trkpt lat="43.74141" lon="6.68102">
        <ele>1337.8</ele>
        <time>2024-05-26T12:30:07Z</time>
      </trkpt>
      <trkpt lat="43.74141" lon="6.68101">
        <ele>1337.9</ele>
        <time>2024-05-26T12:30:08Z</time>
      </trkpt>
      <trkpt lat="43.74141" lon="6.68099">
        <ele>1338.3</ele>
        <time>2024-05-26T12:30:09Z</time>
      </trkpt>
      <trkpt lat="43.7414" lon="6.68098">
        <ele>1338.4</ele>
        <time>2024-05-26T12:30:10Z</time>
      </trkpt>
      <trkpt lat="43.74139" lon="6.68097">
        <ele>1338.6</ele>
        <time>2024-05-26T12:30:11Z</time>
      </trkpt>
      <trkpt lat="43.74139" lon="6.68096">
        <ele>1338.7</ele>
        <time>2024-05-26T12:30:12Z</time>
      </trkpt>
      <trkpt lat="43.74138" lon="6.68095">
        <ele>1338.9</ele>
        <time>2024-05-26T12:30:13Z</time>
      </trkpt>
      <trkpt lat="43.74138" lon="6.68095">
        <ele>1339</ele>
        <time>2024-05-26T12:30:14Z</time>
      </trkpt>
      <trkpt lat="43.74137" lon="6.68093">
        <ele>1339.1</ele>
        <time>2024-05-26T12:30:15Z</time>
      </trkpt>
      <trkpt lat="43.74137" lon="6.68092">
        <ele>1339.2</ele>
        <time>2024-05-26T12:30:16Z</time>
      </trkpt>
      <trkpt lat="43.74137" lon="6.68091">
        <ele>1339.2</ele>
        <time>2024-05-26T12:30:17Z</time>
      </trkpt>
      <trkpt lat="43.74136" lon="6.6809">
        <ele>1339.4</ele>
        <time>2024-05-26T12:30:18Z</time>
      </trkpt>
      <trkpt lat="43.74137" lon="6.68089">
        <ele>1339.5</ele>
        <time>2024-05-26T12:30:19Z</time>
      </trkpt>
      <trkpt lat="43.74136" lon="6.68088">
        <ele>1339.6</ele>
        <time>2024-05-26T12:30:20Z</time>
      </trkpt>
      <trkpt lat="43.74135" lon="6.68088">
        <ele>1339.9</ele>
        <time>2024-05-26T12:30:21Z</time>
      </trkpt>
      <trkpt lat="43.74135" lon="6.68088">
        <ele>1340.1</ele>
        <time>2024-05-26T12:30:22Z</time>
      </trkpt>
      <trkpt lat="43.74135" lon="6.68088">
        <ele>1340.2</ele>
        <time>2024-05-26T12:30:23Z</time>
      </trkpt>
      <trkpt lat="43.74135" lon="6.68088">
        <ele>1340.3</ele>
        <time>2024-05-26T12:30:24Z</time>
      </trkpt>
      <trkpt lat="43.74134" lon="6.68088">
        <ele>1340.4</ele>
        <time>2024-05-26T12:30:25Z</time>
      </trkpt>
      <trkpt lat="43.74134" lon="6.68088">
        <ele>1340.5</ele>
        <time>2024-05-26T12:30:26Z</time>
      </trkpt>
      <trkpt lat="43.74133" lon="6.68088">
        <ele>1340.6</ele>
        <time>2024-05-26T12:30:27Z</time>
      </trkpt>
      <trkpt lat="43.74133" lon="6.68089">
        <ele>1340.7</ele>
        <time>2024-05-26T12:30:28Z</time>
      </trkpt>
      <trkpt lat="43.74134" lon="6.68089">
        <ele>1340.8</ele>
        <time>2024-05-26T12:30:29Z</time>
      </trkpt>
      <trkpt lat="43.74134" lon="6.68089">
        <ele>1340.8</ele>
        <time>2024-05-26T12:30:30Z</time>
      </trkpt>
      <trkpt lat="43.74134" lon="6.68089">
        <ele>1340.6</ele>
        <time>2024-05-26T12:30:31Z</time>
      </trkpt>
      <trkpt lat="43.74133" lon="6.68089">
        <ele>1340.6</ele>
        <time>2024-05-26T12:30:32Z</time>
      </trkpt>
      <trkpt lat="43.74133" lon="6.68089">
        <ele>1340.6</ele>
        <time>2024-05-26T12:30:33Z</time>
      </trkpt>
      <trkpt lat="43.74134" lon="6.68089">
        <ele>1340.5</ele>
        <time>2024-05-26T12:30:34Z</time>
      </trkpt>
      <trkpt lat="43.74134" lon="6.68089">
        <ele>1340.5</ele>
        <time>2024-05-26T12:30:35Z</time>
      </trkpt>
      <trkpt lat="43.74134" lon="6.68088">
        <ele>1340.5</ele>
        <time>2024-05-26T12:30:36Z</time>
      </trkpt>
      <trkpt lat="43.74134" lon="6.68088">
        <ele>1340.5</ele>
        <time>2024-05-26T12:30:37Z</time>
      </trkpt>
      <trkpt lat="43.74134" lon="6.68088">
        <ele>1340.4</ele>
        <time>2024-05-26T12:30:38Z</time>
      </trkpt>
      <trkpt lat="43.74134" lon="6.68088">
        <ele>1340.5</ele>
        <time>2024-05-26T12:30:39Z</time>
      </trkpt>
      <trkpt lat="43.74134" lon="6.68088">
        <ele>1340.5</ele>
        <time>2024-05-26T12:30:40Z</time>
      </trkpt>
      <trkpt lat="43.74134" lon="6.68088">
        <ele>1340.6</ele>
        <time>2024-05-26T12:30:41Z</time>
      </trkpt>
      <trkpt lat="43.74133" lon="6.68088">
        <ele>1340.5</ele>
        <time>2024-05-26T12:30:42Z</time>
      </trkpt>
      <trkpt lat="43.74133" lon="6.68088">
        <ele>1340.5</ele>
        <time>2024-05-26T12:30:43Z</time>
      </trkpt>
      <trkpt lat="43.74133" lon="6.68088">
        <ele>1340.5</ele>
        <time>2024-05-26T12:30:44Z</time>
      </trkpt>
      <trkpt lat="43.74133" lon="6.68088">
        <ele>1340.5</ele>
        <time>2024-05-26T12:30:45Z</time>
      </trkpt>
      <trkpt lat="43.74133" lon="6.68087">
        <ele>1340.5</ele>
        <time>2024-05-26T12:30:46Z</time>
      </trkpt>
      <trkpt lat="43.74133" lon="6.68086">
        <ele>1340.5</ele>
        <time>2024-05-26T12:30:47Z</time>
      </trkpt>
      <trkpt lat="43.74133" lon="6.68085">
        <ele>1340.6</ele>
        <time>2024-05-26T12:30:48Z</time>
      </trkpt>
      <trkpt lat="43.74134" lon="6.68085">
        <ele>1340.6</ele>
        <time>2024-05-26T12:30:49Z</time>
      </trkpt>
      <trkpt lat="43.74134" lon="6.68084">
        <ele>1340.7</ele>
        <time>2024-05-26T12:30:50Z</time>
      </trkpt>
      <trkpt lat="43.74134" lon="6.68084">
        <ele>1340.8</ele>
        <time>2024-05-26T12:30:51Z</time>
      </trkpt>
      <trkpt lat="43.74133" lon="6.68084">
        <ele>1341</ele>
        <time>2024-05-26T12:30:52Z</time>
      </trkpt>
      <trkpt lat="43.74133" lon="6.68084">
        <ele>1341</ele>
        <time>2024-05-26T12:30:53Z</time>
      </trkpt>
      <trkpt lat="43.74133" lon="6.68084">
        <ele>1341</ele>
        <time>2024-05-26T12:30:54Z</time>
      </trkpt>
      <trkpt lat="43.74133" lon="6.68085">
        <ele>1341</ele>
        <time>2024-05-26T12:30:55Z</time>
      </trkpt>
      <trkpt lat="43.74134" lon="6.68085">
        <ele>1341</ele>
        <time>2024-05-26T12:30:56Z</time>
      </trkpt>
      <trkpt lat="43.74134" lon="6.68085">
        <ele>1341.1</ele>
        <time>2024-05-26T12:30:57Z</time>
      </trkpt>
      <trkpt lat="43.74134" lon="6.68085">
        <ele>1341.1</ele>
        <time>2024-05-26T12:30:58Z</time>
      </trkpt>
      <trkpt lat="43.74134" lon="6.68085">
        <ele>1341.1</ele>
        <time>2024-05-26T12:30:59Z</time>
      </trkpt>
      <trkpt lat="43.74134" lon="6.68085">
        <ele>1341.1</ele>
        <time>2024-05-26T12:31:00Z</time>
      </trkpt>
      <trkpt lat="43.74134" lon="6.68084">
        <ele>1341.1</ele>
        <time>2024-05-26T12:31:01Z</time>
      </trkpt>
      <trkpt lat="43.74134" lon="6.68084">
        <ele>1341.1</ele>
        <time>2024-05-26T12:31:02Z</time>
      </trkpt>
      <trkpt lat="43.74134" lon="6.68083">
        <ele>1341.2</ele>
        <time>2024-05-26T12:31:03Z</time>
      </trkpt>
      <trkpt lat="43.74135" lon="6.68082">
        <ele>1341.2</ele>
        <time>2024-05-26T12:31:04Z</time>
      </trkpt>
      <trkpt lat="43.74135" lon="6.68081">
        <ele>1341.3</ele>
        <time>2024-05-26T12:31:05Z</time>
      </trkpt>
      <trkpt lat="43.74136" lon="6.6808">
        <ele>1341.3</ele>
        <time>2024-05-26T12:31:06Z</time>
      </trkpt>
      <trkpt lat="43.74137" lon="6.68079">
        <ele>1341.2</ele>
        <time>2024-05-26T12:31:07Z</time>
      </trkpt>
      <trkpt lat="43.74137" lon="6.68078">
        <ele>1341.2</ele>
        <time>2024-05-26T12:31:08Z</time>
      </trkpt>
      <trkpt lat="43.74137" lon="6.68076">
        <ele>1341.2</ele>
        <time>2024-05-26T12:31:09Z</time>
      </trkpt>
      <trkpt lat="43.74138" lon="6.68075">
        <ele>1341.2</ele>
        <time>2024-05-26T12:31:10Z</time>
      </trkpt>
      <trkpt lat="43.74138" lon="6.68073">
        <ele>1341.2</ele>
        <time>2024-05-26T12:31:11Z</time>
      </trkpt>
      <trkpt lat="43.74139" lon="6.68072">
        <ele>1341.1</ele>
        <time>2024-05-26T12:31:12Z</time>
      </trkpt>
      <trkpt lat="43.74139" lon="6.6807">
        <ele>1341.1</ele>
        <time>2024-05-26T12:31:13Z</time>
      </trkpt>
      <trkpt lat="43.7414" lon="6.68069">
        <ele>1341.1</ele>
        <time>2024-05-26T12:31:14Z</time>
      </trkpt>
      <trkpt lat="43.74141" lon="6.68068">
        <ele>1341.2</ele>
        <time>2024-05-26T12:31:15Z</time>
      </trkpt>
      <trkpt lat="43.74142" lon="6.68067">
        <ele>1341.2</ele>
        <time>2024-05-26T12:31:16Z</time>
      </trkpt>
      <trkpt lat="43.74142" lon="6.68065">
        <ele>1341.2</ele>
        <time>2024-05-26T12:31:17Z</time>
      </trkpt>
      <trkpt lat="43.74143" lon="6.68063">
        <ele>1341.2</ele>
        <time>2024-05-26T12:31:18Z</time>
      </trkpt>
      <trkpt lat="43.74143" lon="6.68062">
        <ele>1341.2</ele>
        <time>2024-05-26T12:31:19Z</time>
      </trkpt>
      <trkpt lat="43.74144" lon="6.68061">
        <ele>1341.1</ele>
        <time>2024-05-26T12:31:20Z</time>
      </trkpt>
      <trkpt lat="43.74145" lon="6.68061">
        <ele>1341</ele>
        <time>2024-05-26T12:31:21Z</time>
      </trkpt>
      <trkpt lat="43.74146" lon="6.6806">
        <ele>1341</ele>
        <time>2024-05-26T12:31:22Z</time>
      </trkpt>
      <trkpt lat="43.74147" lon="6.68059">
        <ele>1341</ele>
        <time>2024-05-26T12:31:23Z</time>
      </trkpt>
      <trkpt lat="43.74148" lon="6.68059">
        <ele>1340.9</ele>
        <time>2024-05-26T12:31:24Z</time>
      </trkpt>
      <trkpt lat="43.74149" lon="6.68059">
        <ele>1340.9</ele>
        <time>2024-05-26T12:31:25Z</time>
      </trkpt>
      <trkpt lat="43.7415" lon="6.68059">
        <ele>1340.8</ele>
        <time>2024-05-26T12:31:26Z</time>
      </trkpt>
      <trkpt lat="43.74151" lon="6.68059">
        <ele>1340.8</ele>
        <time>2024-05-26T12:31:27Z</time>
      </trkpt>
      <trkpt lat="43.74152" lon="6.68059">
        <ele>1340.7</ele>
        <time>2024-05-26T12:31:28Z</time>
      </trkpt>
      <trkpt lat="43.74152" lon="6.68059">
        <ele>1340.7</ele>
        <time>2024-05-26T12:31:29Z</time>
      </trkpt>
      <trkpt lat="43.74153" lon="6.68059">
        <ele>1340.7</ele>
        <time>2024-05-26T12:31:30Z</time>
      </trkpt>
      <trkpt lat="43.74154" lon="6.68059">
        <ele>1340.6</ele>
        <time>2024-05-26T12:31:31Z</time>
      </trkpt>
      <trkpt lat="43.74154" lon="6.68059">
        <ele>1340.6</ele>
        <time>2024-05-26T12:31:32Z</time>
      </trkpt>
      <trkpt lat="43.74155" lon="6.68059">
        <ele>1340.5</ele>
        <time>2024-05-26T12:31:33Z</time>
      </trkpt>
      <trkpt lat="43.74155" lon="6.68059">
        <ele>1340.4</ele>
        <time>2024-05-26T12:31:34Z</time>
      </trkpt>
      <trkpt lat="43.74155" lon="6.68059">
        <ele>1340.4</ele>
        <time>2024-05-26T12:31:35Z</time>
      </trkpt>
      <trkpt lat="43.74155" lon="6.68059">
        <ele>1340.5</ele>
        <time>2024-05-26T12:31:36Z</time>
      </trkpt>
      <trkpt lat="43.74155" lon="6.68059">
        <ele>1340.5</ele>
        <time>2024-05-26T12:31:37Z</time>
      </trkpt>
      <trkpt lat="43.74155" lon="6.68059">
        <ele>1340.5</ele>
        <time>2024-05-26T12:31:38Z</time>
      </trkpt>
      <trkpt lat="43.74156" lon="6.68058">
        <ele>1340.4</ele>
        <time>2024-05-26T12:31:39Z</time>
      </trkpt>
      <trkpt lat="43.74156" lon="6.68058">
        <ele>1340.3</ele>
        <time>2024-05-26T12:31:40Z</time>
      </trkpt>
      <trkpt lat="43.74156" lon="6.68058">
        <ele>1340.2</ele>
        <time>2024-05-26T12:31:41Z</time>
      </trkpt>
      <trkpt lat="43.74156" lon="6.68058">
        <ele>1340.2</ele>
        <time>2024-05-26T12:31:42Z</time>
      </trkpt>
      <trkpt lat="43.74156" lon="6.68058">
        <ele>1340.1</ele>
        <time>2024-05-26T12:31:43Z</time>
      </trkpt>
      <trkpt lat="43.74156" lon="6.68058">
        <ele>1340.1</ele>
        <time>2024-05-26T12:31:44Z</time>
      </trkpt>
      <trkpt lat="43.74156" lon="6.68058">
        <ele>1340</ele>
        <time>2024-05-26T12:31:45Z</time>
      </trkpt>
      <trkpt lat="43.74156" lon="6.68058">
        <ele>1340</ele>
        <time>2024-05-26T12:31:46Z</time>
      </trkpt>
      <trkpt lat="43.74156" lon="6.68058">
        <ele>1340</ele>
        <time>2024-05-26T12:31:47Z</time>
      </trkpt>
      <trkpt lat="43.74157" lon="6.68058">
        <ele>1340</ele>
        <time>2024-05-26T12:31:48Z</time>
      </trkpt>
      <trkpt lat="43.74157" lon="6.68058">
        <ele>1340</ele>
        <time>2024-05-26T12:31:49Z</time>
      </trkpt>
      <trkpt lat="43.74157" lon="6.68058">
        <ele>1340</ele>
        <time>2024-05-26T12:31:50Z</time>
      </trkpt>
      <trkpt lat="43.74157" lon="6.68058">
        <ele>1340.1</ele>
        <time>2024-05-26T12:31:51Z</time>
      </trkpt>
      <trkpt lat="43.74157" lon="6.68058">
        <ele>1340.1</ele>
        <time>2024-05-26T12:31:52Z</time>
      </trkpt>
      <trkpt lat="43.74157" lon="6.68058">
        <ele>1340.1</ele>
        <time>2024-05-26T12:31:53Z</time>
      </trkpt>
      <trkpt lat="43.74157" lon="6.68058">
        <ele>1340</ele>
        <time>2024-05-26T12:31:54Z</time>
      </trkpt>
      <trkpt lat="43.74157" lon="6.68058">
        <ele>1340</ele>
        <time>2024-05-26T12:31:55Z</time>
      </trkpt>
      <trkpt lat="43.74157" lon="6.68058">
        <ele>1340</ele>
        <time>2024-05-26T12:31:56Z</time>
      </trkpt>
      <trkpt lat="43.74157" lon="6.68058">
        <ele>1340.1</ele>
        <time>2024-05-26T12:31:57Z</time>
      </trkpt>
      <trkpt lat="43.74156" lon="6.68058">
        <ele>1340.1</ele>
        <time>2024-05-26T12:31:58Z</time>
      </trkpt>
      <trkpt lat="43.74157" lon="6.68058">
        <ele>1340.1</ele>
        <time>2024-05-26T12:31:59Z</time>
      </trkpt>
      <trkpt lat="43.74157" lon="6.68058">
        <ele>1340.1</ele>
        <time>2024-05-26T12:32:00Z</time>
      </trkpt>
      <trkpt lat="43.74157" lon="6.68058">
        <ele>1340.1</ele>
        <time>2024-05-26T12:32:01Z</time>
      </trkpt>
      <trkpt lat="43.74157" lon="6.68058">
        <ele>1340</ele>
        <time>2024-05-26T12:32:02Z</time>
      </trkpt>
      <trkpt lat="43.74157" lon="6.68058">
        <ele>1340</ele>
        <time>2024-05-26T12:32:03Z</time>
      </trkpt>
      <trkpt lat="43.74157" lon="6.68058">
        <ele>1339.9</ele>
        <time>2024-05-26T12:32:04Z</time>
      </trkpt>
      <trkpt lat="43.74157" lon="6.68057">
        <ele>1339.9</ele>
        <time>2024-05-26T12:32:05Z</time>
      </trkpt>
      <trkpt lat="43.74157" lon="6.68057">
        <ele>1339.9</ele>
        <time>2024-05-26T12:32:06Z</time>
      </trkpt>
      <trkpt lat="43.74157" lon="6.68057">
        <ele>1339.9</ele>
        <time>2024-05-26T12:32:07Z</time>
      </trkpt>
      <trkpt lat="43.74157" lon="6.68058">
        <ele>1339.9</ele>
        <time>2024-05-26T12:32:08Z</time>
      </trkpt>
      <trkpt lat="43.74157" lon="6.68058">
        <ele>1340</ele>
        <time>2024-05-26T12:32:09Z</time>
      </trkpt>
      <trkpt lat="43.74157" lon="6.68058">
        <ele>1340</ele>
        <time>2024-05-26T12:32:10Z</time>
      </trkpt>
      <trkpt lat="43.74156" lon="6.68059">
        <ele>1340</ele>
        <time>2024-05-26T12:32:11Z</time>
      </trkpt>
      <trkpt lat="43.74156" lon="6.68058">
        <ele>1340</ele>
        <time>2024-05-26T12:32:12Z</time>
      </trkpt>
      <trkpt lat="43.74156" lon="6.68058">
        <ele>1340</ele>
        <time>2024-05-26T12:32:13Z</time>
      </trkpt>
      <trkpt lat="43.74156" lon="6.68058">
        <ele>1340</ele>
        <time>2024-05-26T12:32:14Z</time>
      </trkpt>
      <trkpt lat="43.74156" lon="6.68058">
        <ele>1340</ele>
        <time>2024-05-26T12:32:15Z</time>
      </trkpt>
      <trkpt lat="43.74156" lon="6.68058">
        <ele>1339.9</ele>
        <time>2024-05-26T12:32:16Z</time>
      </trkpt>
      <trkpt lat="43.74156" lon="6.68058">
        <ele>1339.9</ele>
        <time>2024-05-26T12:32:17Z</time>
      </trkpt>
      <trkpt lat="43.74155" lon="6.68059">
        <ele>1339.9</ele>
        <time>2024-05-26T12:32:18Z</time>
      </trkpt>
      <trkpt lat="43.74155" lon="6.68059">
        <ele>1339.9</ele>
        <time>2024-05-26T12:32:19Z</time>
      </trkpt>
      <trkpt lat="43.74155" lon="6.68059">
        <ele>1339.9</ele>
        <time>2024-05-26T12:32:20Z</time>
      </trkpt>
      <trkpt lat="43.74155" lon="6.68059">
        <ele>1339.9</ele>
        <time>2024-05-26T12:32:21Z</time>
      </trkpt>
      <trkpt lat="43.74155" lon="6.68059">
        <ele>1339.9</ele>
        <time>2024-05-26T12:32:22Z</time>
      </trkpt>
      <trkpt lat="43.74154" lon="6.68059">
        <ele>1340</ele>
        <time>2024-05-26T12:32:23Z</time>
      </trkpt>
      <trkpt lat="43.74154" lon="6.68059">
        <ele>1340</ele>
        <time>2024-05-26T12:32:24Z</time>
      </trkpt>
      <trkpt lat="43.74154" lon="6.6806">
        <ele>1340.1</ele>
        <time>2024-05-26T12:32:25Z</time>
      </trkpt>
      <trkpt lat="43.74154" lon="6.6806">
        <ele>1340.1</ele>
        <time>2024-05-26T12:32:26Z</time>
      </trkpt>
      <trkpt lat="43.74154" lon="6.68059">
        <ele>1340</ele>
        <time>2024-05-26T12:32:27Z</time>
      </trkpt>
      <trkpt lat="43.74153" lon="6.68059">
        <ele>1340</ele>
        <time>2024-05-26T12:32:28Z</time>
      </trkpt>
      <trkpt lat="43.74154" lon="6.68058">
        <ele>1340.1</ele>
        <time>2024-05-26T12:32:29Z</time>
      </trkpt>
      <trkpt lat="43.74154" lon="6.68058">
        <ele>1340.1</ele>
        <time>2024-05-26T12:32:30Z</time>
      </trkpt>
      <trkpt lat="43.74154" lon="6.68058">
        <ele>1340.1</ele>
        <time>2024-05-26T12:32:31Z</time>
      </trkpt>
      <trkpt lat="43.74154" lon="6.68058">
        <ele>1340.2</ele>
        <time>2024-05-26T12:32:32Z</time>
      </trkpt>
      <trkpt lat="43.74154" lon="6.68057">
        <ele>1340.2</ele>
        <time>2024-05-26T12:32:33Z</time>
      </trkpt>
      <trkpt lat="43.74154" lon="6.68057">
        <ele>1340.2</ele>
        <time>2024-05-26T12:32:34Z</time>
      </trkpt>
      <trkpt lat="43.74154" lon="6.68057">
        <ele>1340.2</ele>
        <time>2024-05-26T12:32:35Z</time>
      </trkpt>
      <trkpt lat="43.74154" lon="6.68057">
        <ele>1340.2</ele>
        <time>2024-05-26T12:32:36Z</time>
      </trkpt>
      <trkpt lat="43.74154" lon="6.68056">
        <ele>1340.1</ele>
        <time>2024-05-26T12:32:37Z</time>
      </trkpt>
      <trkpt lat="43.74153" lon="6.68056">
        <ele>1340.1</ele>
        <time>2024-05-26T12:32:38Z</time>
      </trkpt>
      <trkpt lat="43.74153" lon="6.68056">
        <ele>1340.1</ele>
        <time>2024-05-26T12:32:39Z</time>
      </trkpt>
      <trkpt lat="43.74153" lon="6.68055">
        <ele>1340</ele>
        <time>2024-05-26T12:32:40Z</time>
      </trkpt>
      <trkpt lat="43.74153" lon="6.68055">
        <ele>1339.9</ele>
        <time>2024-05-26T12:32:41Z</time>
      </trkpt>
      <trkpt lat="43.74153" lon="6.68055">
        <ele>1339.9</ele>
        <time>2024-05-26T12:32:42Z</time>
      </trkpt>
      <trkpt lat="43.74153" lon="6.68055">
        <ele>1339.9</ele>
        <time>2024-05-26T12:32:43Z</time>
      </trkpt>
      <trkpt lat="43.74153" lon="6.68055">
        <ele>1339.8</ele>
        <time>2024-05-26T12:32:44Z</time>
      </trkpt>
      <trkpt lat="43.74153" lon="6.68055">
        <ele>1339.8</ele>
        <time>2024-05-26T12:32:45Z</time>
      </trkpt>
      <trkpt lat="43.74154" lon="6.68055">
        <ele>1339.8</ele>
        <time>2024-05-26T12:32:46Z</time>
      </trkpt>
      <trkpt lat="43.74153" lon="6.68055">
        <ele>1339.8</ele>
        <time>2024-05-26T12:32:47Z</time>
      </trkpt>
      <trkpt lat="43.74153" lon="6.68055">
        <ele>1339.8</ele>
        <time>2024-05-26T12:32:48Z</time>
      </trkpt>
      <trkpt lat="43.74153" lon="6.68055">
        <ele>1339.8</ele>
        <time>2024-05-26T12:32:49Z</time>
      </trkpt>
      <trkpt lat="43.74153" lon="6.68055">
        <ele>1339.8</ele>
        <time>2024-05-26T12:32:50Z</time>
      </trkpt>
      <trkpt lat="43.74153" lon="6.68055">
        <ele>1339.8</ele>
        <time>2024-05-26T12:32:51Z</time>
      </trkpt>
      <trkpt lat="43.74153" lon="6.68055">
        <ele>1339.7</ele>
        <time>2024-05-26T12:32:52Z</time>
      </trkpt>
      <trkpt lat="43.74154" lon="6.68055">
        <ele>1339.6</ele>
        <time>2024-05-26T12:32:53Z</time>
      </trkpt>
      <trkpt lat="43.74154" lon="6.68055">
        <ele>1339.7</ele>
        <time>2024-05-26T12:32:54Z</time>
      </trkpt>
      <trkpt lat="43.74154" lon="6.68055">
        <ele>1339.7</ele>
        <time>2024-05-26T12:32:55Z</time>
      </trkpt>
      <trkpt lat="43.74154" lon="6.68055">
        <ele>1339.7</ele>
        <time>2024-05-26T12:32:56Z</time>
      </trkpt>
      <trkpt lat="43.74154" lon="6.68055">
        <ele>1339.7</ele>
        <time>2024-05-26T12:32:57Z</time>
      </trkpt>
      <trkpt lat="43.74154" lon="6.68055">
        <ele>1339.8</ele>
        <time>2024-05-26T12:32:58Z</time>
      </trkpt>
      <trkpt lat="43.74154" lon="6.68055">
        <ele>1339.8</ele>
        <time>2024-05-26T12:32:59Z</time>
      </trkpt>
      <trkpt lat="43.74154" lon="6.68054">
        <ele>1339.9</ele>
        <time>2024-05-26T12:33:00Z</time>
      </trkpt>
      <trkpt lat="43.74154" lon="6.68054">
        <ele>1340</ele>
        <time>2024-05-26T12:33:01Z</time>
      </trkpt>
      <trkpt lat="43.74154" lon="6.68054">
        <ele>1340</ele>
        <time>2024-05-26T12:33:02Z</time>
      </trkpt>
      <trkpt lat="43.74154" lon="6.68054">
        <ele>1340</ele>
        <time>2024-05-26T12:33:03Z</time>
      </trkpt>
      <trkpt lat="43.74154" lon="6.68054">
        <ele>1340</ele>
        <time>2024-05-26T12:33:04Z</time>
      </trkpt>
      <trkpt lat="43.74154" lon="6.68053">
        <ele>1340</ele>
        <time>2024-05-26T12:33:05Z</time>
      </trkpt>
      <trkpt lat="43.74154" lon="6.68052">
        <ele>1340</ele>
        <time>2024-05-26T12:33:06Z</time>
      </trkpt>
      <trkpt lat="43.74154" lon="6.68052">
        <ele>1340</ele>
        <time>2024-05-26T12:33:07Z</time>
      </trkpt>
      <trkpt lat="43.74154" lon="6.68051">
        <ele>1339.9</ele>
        <time>2024-05-26T12:33:08Z</time>
      </trkpt>
      <trkpt lat="43.74155" lon="6.68051">
        <ele>1339.9</ele>
        <time>2024-05-26T12:33:09Z</time>
      </trkpt>
      <trkpt lat="43.74155" lon="6.6805">
        <ele>1339.7</ele>
        <time>2024-05-26T12:33:10Z</time>
      </trkpt>
      <trkpt lat="43.74155" lon="6.6805">
        <ele>1339.7</ele>
        <time>2024-05-26T12:33:11Z</time>
      </trkpt>
      <trkpt lat="43.74155" lon="6.6805">
        <ele>1339.6</ele>
        <time>2024-05-26T12:33:12Z</time>
      </trkpt>
      <trkpt lat="43.74155" lon="6.6805">
        <ele>1339.5</ele>
        <time>2024-05-26T12:33:13Z</time>
      </trkpt>
      <trkpt lat="43.74155" lon="6.6805">
        <ele>1339.4</ele>
        <time>2024-05-26T12:33:14Z</time>
      </trkpt>
      <trkpt lat="43.74155" lon="6.6805">
        <ele>1339.3</ele>
        <time>2024-05-26T12:33:15Z</time>
      </trkpt>
      <trkpt lat="43.74155" lon="6.68049">
        <ele>1339.3</ele>
        <time>2024-05-26T12:33:16Z</time>
      </trkpt>
      <trkpt lat="43.74155" lon="6.68049">
        <ele>1339.2</ele>
        <time>2024-05-26T12:33:17Z</time>
      </trkpt>
      <trkpt lat="43.74156" lon="6.6805">
        <ele>1339.1</ele>
        <time>2024-05-26T12:33:18Z</time>
      </trkpt>
      <trkpt lat="43.74156" lon="6.6805">
        <ele>1339.1</ele>
        <time>2024-05-26T12:33:19Z</time>
      </trkpt>
      <trkpt lat="43.74156" lon="6.6805">
        <ele>1339</ele>
        <time>2024-05-26T12:33:20Z</time>
      </trkpt>
      <trkpt lat="43.74156" lon="6.6805">
        <ele>1339</ele>
        <time>2024-05-26T12:33:21Z</time>
      </trkpt>
      <trkpt lat="43.74156" lon="6.6805">
        <ele>1339</ele>
        <time>2024-05-26T12:33:22Z</time>
      </trkpt>
      <trkpt lat="43.74156" lon="6.6805">
        <ele>1339</ele>
        <time>2024-05-26T12:33:23Z</time>
      </trkpt>
      <trkpt lat="43.74156" lon="6.6805">
        <ele>1339</ele>
        <time>2024-05-26T12:33:24Z</time>
      </trkpt>
      <trkpt lat="43.74156" lon="6.6805">
        <ele>1339</ele>
        <time>2024-05-26T12:33:25Z</time>
      </trkpt>
      <trkpt lat="43.74156" lon="6.6805">
        <ele>1339</ele>
        <time>2024-05-26T12:33:26Z</time>
      </trkpt>
      <trkpt lat="43.74156" lon="6.6805">
        <ele>1339</ele>
        <time>2024-05-26T12:33:27Z</time>
      </trkpt>
      <trkpt lat="43.74156" lon="6.6805">
        <ele>1339</ele>
        <time>2024-05-26T12:33:28Z</time>
      </trkpt>
      <trkpt lat="43.74156" lon="6.6805">
        <ele>1339</ele>
        <time>2024-05-26T12:33:29Z</time>
      </trkpt>
      <trkpt lat="43.74155" lon="6.6805">
        <ele>1339</ele>
        <time>2024-05-26T12:33:30Z</time>
      </trkpt>
      <trkpt lat="43.74156" lon="6.6805">
        <ele>1339</ele>
        <time>2024-05-26T12:33:31Z</time>
      </trkpt>
      <trkpt lat="43.74155" lon="6.6805">
        <ele>1339.1</ele>
        <time>2024-05-26T12:33:32Z</time>
      </trkpt>
      <trkpt lat="43.74156" lon="6.6805">
        <ele>1339.1</ele>
        <time>2024-05-26T12:33:33Z</time>
      </trkpt>
      <trkpt lat="43.74156" lon="6.6805">
        <ele>1339.2</ele>
        <time>2024-05-26T12:33:34Z</time>
      </trkpt>
      <trkpt lat="43.74156" lon="6.68049">
        <ele>1339.2</ele>
        <time>2024-05-26T12:33:35Z</time>
      </trkpt>
      <trkpt lat="43.74156" lon="6.68049">
        <ele>1339.2</ele>
        <time>2024-05-26T12:33:36Z</time>
      </trkpt>
      <trkpt lat="43.74157" lon="6.68049">
        <ele>1339.2</ele>
        <time>2024-05-26T12:33:37Z</time>
      </trkpt>
      <trkpt lat="43.74157" lon="6.68049">
        <ele>1339.2</ele>
        <time>2024-05-26T12:33:38Z</time>
      </trkpt>
      <trkpt lat="43.74157" lon="6.68049">
        <ele>1339.2</ele>
        <time>2024-05-26T12:33:39Z</time>
      </trkpt>
      <trkpt lat="43.74157" lon="6.68049">
        <ele>1339.2</ele>
        <time>2024-05-26T12:33:40Z</time>
      </trkpt>
      <trkpt lat="43.74158" lon="6.68049">
        <ele>1339.2</ele>
        <time>2024-05-26T12:33:41Z</time>
      </trkpt>
      <trkpt lat="43.74158" lon="6.68048">
        <ele>1339.2</ele>
        <time>2024-05-26T12:33:42Z</time>
      </trkpt>
      <trkpt lat="43.74158" lon="6.68048">
        <ele>1339.2</ele>
        <time>2024-05-26T12:33:43Z</time>
      </trkpt>
      <trkpt lat="43.74158" lon="6.68048">
        <ele>1339.2</ele>
        <time>2024-05-26T12:33:44Z</time>
      </trkpt>
      <trkpt lat="43.74158" lon="6.68048">
        <ele>1339.2</ele>
        <time>2024-05-26T12:33:45Z</time>
      </trkpt>
      <trkpt lat="43.74158" lon="6.68048">
        <ele>1339.1</ele>
        <time>2024-05-26T12:33:46Z</time>
      </trkpt>
      <trkpt lat="43.74158" lon="6.68048">
        <ele>1339.2</ele>
        <time>2024-05-26T12:33:47Z</time>
      </trkpt>
      <trkpt lat="43.74159" lon="6.68048">
        <ele>1339.2</ele>
        <time>2024-05-26T12:33:48Z</time>
      </trkpt>
      <trkpt lat="43.74159" lon="6.68048">
        <ele>1339.2</ele>
        <time>2024-05-26T12:33:49Z</time>
      </trkpt>
      <trkpt lat="43.74159" lon="6.68047">
        <ele>1339.2</ele>
        <time>2024-05-26T12:33:50Z</time>
      </trkpt>
      <trkpt lat="43.74159" lon="6.68047">
        <ele>1339.2</ele>
        <time>2024-05-26T12:33:51Z</time>
      </trkpt>
      <trkpt lat="43.74159" lon="6.68047">
        <ele>1339.2</ele>
        <time>2024-05-26T12:33:52Z</time>
      </trkpt>
      <trkpt lat="43.74159" lon="6.68047">
        <ele>1339.2</ele>
        <time>2024-05-26T12:33:53Z</time>
      </trkpt>
      <trkpt lat="43.74159" lon="6.68047">
        <ele>1339.1</ele>
        <time>2024-05-26T12:33:54Z</time>
      </trkpt>
      <trkpt lat="43.74159" lon="6.68046">
        <ele>1339.1</ele>
        <time>2024-05-26T12:33:55Z</time>
      </trkpt>
      <trkpt lat="43.74159" lon="6.68046">
        <ele>1339.1</ele>
        <time>2024-05-26T12:33:56Z</time>
      </trkpt>
      <trkpt lat="43.74159" lon="6.68046">
        <ele>1339</ele>
        <time>2024-05-26T12:33:57Z</time>
      </trkpt>
      <trkpt lat="43.74159" lon="6.68046">
        <ele>1339</ele>
        <time>2024-05-26T12:33:58Z</time>
      </trkpt>
      <trkpt lat="43.74159" lon="6.68046">
        <ele>1339.1</ele>
        <time>2024-05-26T12:33:59Z</time>
      </trkpt>
      <trkpt lat="43.74159" lon="6.68046">
        <ele>1339.1</ele>
        <time>2024-05-26T12:34:00Z</time>
      </trkpt>
      <trkpt lat="43.74159" lon="6.68045">
        <ele>1339</ele>
        <time>2024-05-26T12:34:01Z</time>
      </trkpt>
      <trkpt lat="43.74158" lon="6.68045">
        <ele>1339.1</ele>
        <time>2024-05-26T12:34:02Z</time>
      </trkpt>
      <trkpt lat="43.74158" lon="6.68045">
        <ele>1339.1</ele>
        <time>2024-05-26T12:34:03Z</time>
      </trkpt>
      <trkpt lat="43.74158" lon="6.68045">
        <ele>1339.1</ele>
        <time>2024-05-26T12:34:04Z</time>
      </trkpt>
      <trkpt lat="43.74158" lon="6.68045">
        <ele>1339.1</ele>
        <time>2024-05-26T12:34:05Z</time>
      </trkpt>
      <trkpt lat="43.74157" lon="6.68045">
        <ele>1339.1</ele>
        <time>2024-05-26T12:34:06Z</time>
      </trkpt>
      <trkpt lat="43.74157" lon="6.68044">
        <ele>1339</ele>
        <time>2024-05-26T12:34:07Z</time>
      </trkpt>
      <trkpt lat="43.74157" lon="6.68044">
        <ele>1339.1</ele>
        <time>2024-05-26T12:34:08Z</time>
      </trkpt>
      <trkpt lat="43.74157" lon="6.68044">
        <ele>1339</ele>
        <time>2024-05-26T12:34:09Z</time>
      </trkpt>
      <trkpt lat="43.74157" lon="6.68044">
        <ele>1338.9</ele>
        <time>2024-05-26T12:34:10Z</time>
      </trkpt>
      <trkpt lat="43.74156" lon="6.68044">
        <ele>1339</ele>
        <time>2024-05-26T12:34:11Z</time>
      </trkpt>
      <trkpt lat="43.74156" lon="6.68044">
        <ele>1339.1</ele>
        <time>2024-05-26T12:34:12Z</time>
      </trkpt>
      <trkpt lat="43.74156" lon="6.68044">
        <ele>1339.1</ele>
        <time>2024-05-26T12:34:13Z</time>
      </trkpt>
      <trkpt lat="43.74156" lon="6.68044">
        <ele>1339.1</ele>
        <time>2024-05-26T12:34:14Z</time>
      </trkpt>
      <trkpt lat="43.74156" lon="6.68044">
        <ele>1339.2</ele>
        <time>2024-05-26T12:34:15Z</time>
      </trkpt>
      <trkpt lat="43.74157" lon="6.68044">
        <ele>1339.2</ele>
        <time>2024-05-26T12:34:16Z</time>
      </trkpt>
      <trkpt lat="43.74157" lon="6.68044">
        <ele>1339.1</ele>
        <time>2024-05-26T12:34:17Z</time>
      </trkpt>
      <trkpt lat="43.74157" lon="6.68044">
        <ele>1339</ele>
        <time>2024-05-26T12:34:18Z</time>
      </trkpt>
      <trkpt lat="43.74157" lon="6.68044">
        <ele>1338.9</ele>
        <time>2024-05-26T12:34:19Z</time>
      </trkpt>
      <trkpt lat="43.74157" lon="6.68044">
        <ele>1338.9</ele>
        <time>2024-05-26T12:34:20Z</time>
      </trkpt>
      <trkpt lat="43.74157" lon="6.68044">
        <ele>1338.8</ele>
        <time>2024-05-26T12:34:21Z</time>
      </trkpt>
      <trkpt lat="43.74157" lon="6.68044">
        <ele>1338.8</ele>
        <time>2024-05-26T12:34:22Z</time>
      </trkpt>
      <trkpt lat="43.74157" lon="6.68044">
        <ele>1338.8</ele>
        <time>2024-05-26T12:34:23Z</time>
      </trkpt>
      <trkpt lat="43.74157" lon="6.68045">
        <ele>1338.7</ele>
        <time>2024-05-26T12:34:24Z</time>
      </trkpt>
      <trkpt lat="43.74157" lon="6.68045">
        <ele>1338.7</ele>
        <time>2024-05-26T12:34:25Z</time>
      </trkpt>
      <trkpt lat="43.74157" lon="6.68045">
        <ele>1338.7</ele>
        <time>2024-05-26T12:34:26Z</time>
      </trkpt>
      <trkpt lat="43.74157" lon="6.68045">
        <ele>1338.7</ele>
        <time>2024-05-26T12:34:27Z</time>
      </trkpt>
      <trkpt lat="43.74157" lon="6.68045">
        <ele>1338.7</ele>
        <time>2024-05-26T12:34:28Z</time>
      </trkpt>
      <trkpt lat="43.74157" lon="6.68045">
        <ele>1338.7</ele>
        <time>2024-05-26T12:34:29Z</time>
      </trkpt>
      <trkpt lat="43.74157" lon="6.68045">
        <ele>1338.7</ele>
        <time>2024-05-26T12:34:30Z</time>
      </trkpt>
      <trkpt lat="43.74157" lon="6.68045">
        <ele>1338.7</ele>
        <time>2024-05-26T12:34:31Z</time>
      </trkpt>
      <trkpt lat="43.74157" lon="6.68045">
        <ele>1338.8</ele>
        <time>2024-05-26T12:34:32Z</time>
      </trkpt>
      <trkpt lat="43.74157" lon="6.68045">
        <ele>1338.9</ele>
        <time>2024-05-26T12:34:33Z</time>
      </trkpt>
      <trkpt lat="43.74157" lon="6.68045">
        <ele>1338.9</ele>
        <time>2024-05-26T12:34:34Z</time>
      </trkpt>
      <trkpt lat="43.74157" lon="6.68045">
        <ele>1339</ele>
        <time>2024-05-26T12:34:35Z</time>
      </trkpt>
      <trkpt lat="43.74157" lon="6.68046">
        <ele>1339.1</ele>
        <time>2024-05-26T12:34:36Z</time>
      </trkpt>
      <trkpt lat="43.74157" lon="6.68046">
        <ele>1339.2</ele>
        <time>2024-05-26T12:34:37Z</time>
      </trkpt>
      <trkpt lat="43.74157" lon="6.68046">
        <ele>1339.2</ele>
        <time>2024-05-26T12:34:38Z</time>
      </trkpt>
      <trkpt lat="43.74157" lon="6.68046">
        <ele>1339.2</ele>
        <time>2024-05-26T12:34:39Z</time>
      </trkpt>
      <trkpt lat="43.74157" lon="6.68046">
        <ele>1339.2</ele>
        <time>2024-05-26T12:34:40Z</time>
      </trkpt>
      <trkpt lat="43.74157" lon="6.68046">
        <ele>1339.2</ele>
        <time>2024-05-26T12:34:41Z</time>
      </trkpt>
      <trkpt lat="43.74157" lon="6.68046">
        <ele>1339.2</ele>
        <time>2024-05-26T12:34:42Z</time>
      </trkpt>
      <trkpt lat="43.74157" lon="6.68046">
        <ele>1339.2</ele>
        <time>2024-05-26T12:34:43Z</time>
      </trkpt>
      <trkpt lat="43.74157" lon="6.68046">
        <ele>1339.2</ele>
        <time>2024-05-26T12:34:44Z</time>
      </trkpt>
      <trkpt lat="43.74158" lon="6.68047">
        <ele>1339.2</ele>
        <time>2024-05-26T12:34:45Z</time>
      </trkpt>
      <trkpt lat="43.74158" lon="6.68047">
        <ele>1339.3</ele>
        <time>2024-05-26T12:34:46Z</time>
      </trkpt>
      <trkpt lat="43.74158" lon="6.68048">
        <ele>1339.3</ele>
        <time>2024-05-26T12:34:47Z</time>
      </trkpt>
      <trkpt lat="43.74158" lon="6.68049">
        <ele>1339.4</ele>
        <time>2024-05-26T12:34:48Z</time>
      </trkpt>
      <trkpt lat="43.74159" lon="6.6805">
        <ele>1339.3</ele>
        <time>2024-05-26T12:34:49Z</time>
      </trkpt>
      <trkpt lat="43.74159" lon="6.6805">
        <ele>1339.2</ele>
        <time>2024-05-26T12:34:50Z</time>
      </trkpt>
      <trkpt lat="43.7416" lon="6.68052">
        <ele>1339.1</ele>
        <time>2024-05-26T12:34:51Z</time>
      </trkpt>
      <trkpt lat="43.7416" lon="6.68053">
        <ele>1339</ele>
        <time>2024-05-26T12:34:52Z</time>
      </trkpt>
      <trkpt lat="43.74161" lon="6.68053">
        <ele>1338.9</ele>
        <time>2024-05-26T12:34:53Z</time>
      </trkpt>
      <trkpt lat="43.74161" lon="6.68054">
        <ele>1338.8</ele>
        <time>2024-05-26T12:34:54Z</time>
      </trkpt>
      <trkpt lat="43.74162" lon="6.68055">
        <ele>1338.7</ele>
        <time>2024-05-26T12:34:55Z</time>
      </trkpt>
      <trkpt lat="43.74163" lon="6.68056">
        <ele>1338.6</ele>
        <time>2024-05-26T12:34:56Z</time>
      </trkpt>
      <trkpt lat="43.74163" lon="6.68057">
        <ele>1338.6</ele>
        <time>2024-05-26T12:34:57Z</time>
      </trkpt>
      <trkpt lat="43.74164" lon="6.68057">
        <ele>1338.4</ele>
        <time>2024-05-26T12:34:58Z</time>
      </trkpt>
      <trkpt lat="43.74165" lon="6.68058">
        <ele>1338.3</ele>
        <time>2024-05-26T12:34:59Z</time>
      </trkpt>
      <trkpt lat="43.74166" lon="6.68059">
        <ele>1338.1</ele>
        <time>2024-05-26T12:35:00Z</time>
      </trkpt>
      <trkpt lat="43.74167" lon="6.68059">
        <ele>1338.1</ele>
        <time>2024-05-26T12:35:01Z</time>
      </trkpt>
      <trkpt lat="43.74167" lon="6.6806">
        <ele>1337.9</ele>
        <time>2024-05-26T12:35:02Z</time>
      </trkpt>
      <trkpt lat="43.74169" lon="6.6806">
        <ele>1337.6</ele>
        <time>2024-05-26T12:35:03Z</time>
      </trkpt>
      <trkpt lat="43.74169" lon="6.68061">
        <ele>1337.7</ele>
        <time>2024-05-26T12:35:04Z</time>
      </trkpt>
      <trkpt lat="43.7417" lon="6.68062">
        <ele>1337.5</ele>
        <time>2024-05-26T12:35:05Z</time>
      </trkpt>
      <trkpt lat="43.7417" lon="6.68062">
        <ele>1337.3</ele>
        <time>2024-05-26T12:35:06Z</time>
      </trkpt>
      <trkpt lat="43.74171" lon="6.68063">
        <ele>1337.1</ele>
        <time>2024-05-26T12:35:07Z</time>
      </trkpt>
      <trkpt lat="43.74172" lon="6.68063">
        <ele>1337</ele>
        <time>2024-05-26T12:35:08Z</time>
      </trkpt>
      <trkpt lat="43.74173" lon="6.68064">
        <ele>1336.8</ele>
        <time>2024-05-26T12:35:09Z</time>
      </trkpt>
      <trkpt lat="43.74174" lon="6.68065">
        <ele>1336.7</ele>
        <time>2024-05-26T12:35:10Z</time>
      </trkpt>
      <trkpt lat="43.74174" lon="6.68065">
        <ele>1336.5</ele>
        <time>2024-05-26T12:35:11Z</time>
      </trkpt>
      <trkpt lat="43.74175" lon="6.68065">
        <ele>1336.5</ele>
        <time>2024-05-26T12:35:12Z</time>
      </trkpt>
      <trkpt lat="43.74176" lon="6.68065">
        <ele>1336.4</ele>
        <time>2024-05-26T12:35:13Z</time>
      </trkpt>
      <trkpt lat="43.74177" lon="6.68066">
        <ele>1336.3</ele>
        <time>2024-05-26T12:35:14Z</time>
      </trkpt>
      <trkpt lat="43.74178" lon="6.68065">
        <ele>1336.2</ele>
        <time>2024-05-26T12:35:15Z</time>
      </trkpt>
      <trkpt lat="43.74179" lon="6.68065">
        <ele>1336</ele>
        <time>2024-05-26T12:35:16Z</time>
      </trkpt>
      <trkpt lat="43.7418" lon="6.68064">
        <ele>1335.9</ele>
        <time>2024-05-26T12:35:17Z</time>
      </trkpt>
      <trkpt lat="43.74182" lon="6.68064">
        <ele>1335.8</ele>
        <time>2024-05-26T12:35:18Z</time>
      </trkpt>
      <trkpt lat="43.74183" lon="6.68064">
        <ele>1335.7</ele>
        <time>2024-05-26T12:35:19Z</time>
      </trkpt>
      <trkpt lat="43.74183" lon="6.68064">
        <ele>1335.4</ele>
        <time>2024-05-26T12:35:20Z</time>
      </trkpt>
      <trkpt lat="43.74184" lon="6.68063">
        <ele>1335.2</ele>
        <time>2024-05-26T12:35:21Z</time>
      </trkpt>
      <trkpt lat="43.74184" lon="6.68062">
        <ele>1335.1</ele>
        <time>2024-05-26T12:35:22Z</time>
      </trkpt>
      <trkpt lat="43.74184" lon="6.68061">
        <ele>1335.1</ele>
        <time>2024-05-26T12:35:23Z</time>
      </trkpt>
      <trkpt lat="43.74185" lon="6.6806">
        <ele>1335</ele>
        <time>2024-05-26T12:35:24Z</time>
      </trkpt>
      <trkpt lat="43.74185" lon="6.68059">
        <ele>1334.9</ele>
        <time>2024-05-26T12:35:25Z</time>
      </trkpt>
      <trkpt lat="43.74186" lon="6.68058">
        <ele>1334.8</ele>
        <time>2024-05-26T12:35:26Z</time>
      </trkpt>
      <trkpt lat="43.74186" lon="6.68057">
        <ele>1334.7</ele>
        <time>2024-05-26T12:35:27Z</time>
      </trkpt>
      <trkpt lat="43.74187" lon="6.68056">
        <ele>1334.6</ele>
        <time>2024-05-26T12:35:28Z</time>
      </trkpt>
      <trkpt lat="43.74187" lon="6.68055">
        <ele>1334.5</ele>
        <time>2024-05-26T12:35:29Z</time>
      </trkpt>
      <trkpt lat="43.74187" lon="6.68055">
        <ele>1334.5</ele>
        <time>2024-05-26T12:35:30Z</time>
      </trkpt>
      <trkpt lat="43.74187" lon="6.68054">
        <ele>1334.4</ele>
        <time>2024-05-26T12:35:31Z</time>
      </trkpt>
      <trkpt lat="43.74188" lon="6.68054">
        <ele>1334.5</ele>
        <time>2024-05-26T12:35:32Z</time>
      </trkpt>
      <trkpt lat="43.7419" lon="6.68053">
        <ele>1334.5</ele>
        <time>2024-05-26T12:35:33Z</time>
      </trkpt>
      <trkpt lat="43.74191" lon="6.68052">
        <ele>1334.5</ele>
        <time>2024-05-26T12:35:34Z</time>
      </trkpt>
      <trkpt lat="43.74193" lon="6.6805">
        <ele>1334.5</ele>
        <time>2024-05-26T12:35:35Z</time>
      </trkpt>
      <trkpt lat="43.74194" lon="6.68049">
        <ele>1334.4</ele>
        <time>2024-05-26T12:35:36Z</time>
      </trkpt>
      <trkpt lat="43.74195" lon="6.68049">
        <ele>1334.4</ele>
        <time>2024-05-26T12:35:37Z</time>
      </trkpt>
      <trkpt lat="43.74196" lon="6.68049">
        <ele>1334.3</ele>
        <time>2024-05-26T12:35:38Z</time>
      </trkpt>
      <trkpt lat="43.74197" lon="6.68047">
        <ele>1334.2</ele>
        <time>2024-05-26T12:35:39Z</time>
      </trkpt>
      <trkpt lat="43.74198" lon="6.68047">
        <ele>1334.1</ele>
        <time>2024-05-26T12:35:40Z</time>
      </trkpt>
      <trkpt lat="43.74199" lon="6.68047">
        <ele>1334</ele>
        <time>2024-05-26T12:35:41Z</time>
      </trkpt>
      <trkpt lat="43.74201" lon="6.68047">
        <ele>1333.9</ele>
        <time>2024-05-26T12:35:42Z</time>
      </trkpt>
      <trkpt lat="43.74202" lon="6.68047">
        <ele>1333.9</ele>
        <time>2024-05-26T12:35:43Z</time>
      </trkpt>
      <trkpt lat="43.74203" lon="6.68046">
        <ele>1333.8</ele>
        <time>2024-05-26T12:35:44Z</time>
      </trkpt>
      <trkpt lat="43.74203" lon="6.68047">
        <ele>1333.7</ele>
        <time>2024-05-26T12:35:45Z</time>
      </trkpt>
      <trkpt lat="43.74204" lon="6.68047">
        <ele>1333.6</ele>
        <time>2024-05-26T12:35:46Z</time>
      </trkpt>
      <trkpt lat="43.74205" lon="6.68047">
        <ele>1333.5</ele>
        <time>2024-05-26T12:35:47Z</time>
      </trkpt>
      <trkpt lat="43.74207" lon="6.68047">
        <ele>1333.4</ele>
        <time>2024-05-26T12:35:48Z</time>
      </trkpt>
      <trkpt lat="43.74207" lon="6.68047">
        <ele>1333.3</ele>
        <time>2024-05-26T12:35:49Z</time>
      </trkpt>
      <trkpt lat="43.74208" lon="6.68047">
        <ele>1333.3</ele>
        <time>2024-05-26T12:35:50Z</time>
      </trkpt>
      <trkpt lat="43.7421" lon="6.68048">
        <ele>1333.2</ele>
        <time>2024-05-26T12:35:51Z</time>
      </trkpt>
      <trkpt lat="43.74211" lon="6.68047">
        <ele>1333.1</ele>
        <time>2024-05-26T12:35:52Z</time>
      </trkpt>
      <trkpt lat="43.74213" lon="6.68046">
        <ele>1333</ele>
        <time>2024-05-26T12:35:53Z</time>
      </trkpt>
      <trkpt lat="43.74215" lon="6.68047">
        <ele>1332.9</ele>
        <time>2024-05-26T12:35:54Z</time>
      </trkpt>
      <trkpt lat="43.74216" lon="6.68047">
        <ele>1332.9</ele>
        <time>2024-05-26T12:35:55Z</time>
      </trkpt>
      <trkpt lat="43.74217" lon="6.68047">
        <ele>1332.7</ele>
        <time>2024-05-26T12:35:56Z</time>
      </trkpt>
      <trkpt lat="43.74218" lon="6.68048">
        <ele>1332.6</ele>
        <time>2024-05-26T12:35:57Z</time>
      </trkpt>
      <trkpt lat="43.74218" lon="6.68047">
        <ele>1332.5</ele>
        <time>2024-05-26T12:35:58Z</time>
      </trkpt>
      <trkpt lat="43.74219" lon="6.68047">
        <ele>1332.3</ele>
        <time>2024-05-26T12:35:59Z</time>
      </trkpt>
      <trkpt lat="43.74219" lon="6.68047">
        <ele>1332.2</ele>
        <time>2024-05-26T12:36:00Z</time>
      </trkpt>
      <trkpt lat="43.74221" lon="6.68046">
        <ele>1332.2</ele>
        <time>2024-05-26T12:36:01Z</time>
      </trkpt>
      <trkpt lat="43.74222" lon="6.68046">
        <ele>1332.1</ele>
        <time>2024-05-26T12:36:02Z</time>
      </trkpt>
      <trkpt lat="43.74224" lon="6.68045">
        <ele>1331.9</ele>
        <time>2024-05-26T12:36:03Z</time>
      </trkpt>
      <trkpt lat="43.74225" lon="6.68046">
        <ele>1331.8</ele>
        <time>2024-05-26T12:36:04Z</time>
      </trkpt>
      <trkpt lat="43.74227" lon="6.68046">
        <ele>1331.6</ele>
        <time>2024-05-26T12:36:05Z</time>
      </trkpt>
      <trkpt lat="43.74228" lon="6.68046">
        <ele>1331.5</ele>
        <time>2024-05-26T12:36:06Z</time>
      </trkpt>
      <trkpt lat="43.74229" lon="6.68045">
        <ele>1331.4</ele>
        <time>2024-05-26T12:36:07Z</time>
      </trkpt>
      <trkpt lat="43.7423" lon="6.68045">
        <ele>1331.3</ele>
        <time>2024-05-26T12:36:08Z</time>
      </trkpt>
      <trkpt lat="43.7423" lon="6.68045">
        <ele>1331.2</ele>
        <time>2024-05-26T12:36:09Z</time>
      </trkpt>
      <trkpt lat="43.74231" lon="6.68045">
        <ele>1330.9</ele>
        <time>2024-05-26T12:36:10Z</time>
      </trkpt>
      <trkpt lat="43.74233" lon="6.68046">
        <ele>1330.7</ele>
        <time>2024-05-26T12:36:11Z</time>
      </trkpt>
      <trkpt lat="43.74234" lon="6.68046">
        <ele>1330.5</ele>
        <time>2024-05-26T12:36:12Z</time>
      </trkpt>
      <trkpt lat="43.74235" lon="6.68046">
        <ele>1330.4</ele>
        <time>2024-05-26T12:36:13Z</time>
      </trkpt>
      <trkpt lat="43.74236" lon="6.68047">
        <ele>1330.2</ele>
        <time>2024-05-26T12:36:14Z</time>
      </trkpt>
      <trkpt lat="43.74238" lon="6.68046">
        <ele>1330.1</ele>
        <time>2024-05-26T12:36:15Z</time>
      </trkpt>
      <trkpt lat="43.74239" lon="6.68046">
        <ele>1330</ele>
        <time>2024-05-26T12:36:16Z</time>
      </trkpt>
      <trkpt lat="43.7424" lon="6.68046">
        <ele>1329.8</ele>
        <time>2024-05-26T12:36:17Z</time>
      </trkpt>
      <trkpt lat="43.74241" lon="6.68045">
        <ele>1329.8</ele>
        <time>2024-05-26T12:36:18Z</time>
      </trkpt>
      <trkpt lat="43.74242" lon="6.68045">
        <ele>1329.6</ele>
        <time>2024-05-26T12:36:19Z</time>
      </trkpt>
      <trkpt lat="43.74243" lon="6.68045">
        <ele>1329.5</ele>
        <time>2024-05-26T12:36:20Z</time>
      </trkpt>
      <trkpt lat="43.74244" lon="6.68045">
        <ele>1329.3</ele>
        <time>2024-05-26T12:36:21Z</time>
      </trkpt>
      <trkpt lat="43.74245" lon="6.68045">
        <ele>1329.1</ele>
        <time>2024-05-26T12:36:22Z</time>
      </trkpt>
      <trkpt lat="43.74246" lon="6.68045">
        <ele>1328.8</ele>
        <time>2024-05-26T12:36:23Z</time>
      </trkpt>
      <trkpt lat="43.74247" lon="6.68045">
        <ele>1328.6</ele>
        <time>2024-05-26T12:36:24Z</time>
      </trkpt>
      <trkpt lat="43.74248" lon="6.68045">
        <ele>1328.4</ele>
        <time>2024-05-26T12:36:25Z</time>
      </trkpt>
      <trkpt lat="43.74249" lon="6.68045">
        <ele>1328.2</ele>
        <time>2024-05-26T12:36:26Z</time>
      </trkpt>
      <trkpt lat="43.7425" lon="6.68044">
        <ele>1328.1</ele>
        <time>2024-05-26T12:36:27Z</time>
      </trkpt>
      <trkpt lat="43.74251" lon="6.68043">
        <ele>1328</ele>
        <time>2024-05-26T12:36:28Z</time>
      </trkpt>
      <trkpt lat="43.74252" lon="6.68042">
        <ele>1327.9</ele>
        <time>2024-05-26T12:36:29Z</time>
      </trkpt>
      <trkpt lat="43.74253" lon="6.68041">
        <ele>1327.7</ele>
        <time>2024-05-26T12:36:30Z</time>
      </trkpt>
      <trkpt lat="43.74254" lon="6.68039">
        <ele>1327.5</ele>
        <time>2024-05-26T12:36:31Z</time>
      </trkpt>
      <trkpt lat="43.74255" lon="6.68038">
        <ele>1327.4</ele>
        <time>2024-05-26T12:36:32Z</time>
      </trkpt>
      <trkpt lat="43.74256" lon="6.68038">
        <ele>1327.2</ele>
        <time>2024-05-26T12:36:33Z</time>
      </trkpt>
      <trkpt lat="43.74257" lon="6.68038">
        <ele>1327</ele>
        <time>2024-05-26T12:36:34Z</time>
      </trkpt>
      <trkpt lat="43.74257" lon="6.68037">
        <ele>1326.8</ele>
        <time>2024-05-26T12:36:35Z</time>
      </trkpt>
      <trkpt lat="43.74258" lon="6.68036">
        <ele>1326.7</ele>
        <time>2024-05-26T12:36:36Z</time>
      </trkpt>
      <trkpt lat="43.74259" lon="6.68036">
        <ele>1326.7</ele>
        <time>2024-05-26T12:36:37Z</time>
      </trkpt>
      <trkpt lat="43.7426" lon="6.68035">
        <ele>1326.7</ele>
        <time>2024-05-26T12:36:38Z</time>
      </trkpt>
      <trkpt lat="43.74261" lon="6.68033">
        <ele>1326.5</ele>
        <time>2024-05-26T12:36:39Z</time>
      </trkpt>
      <trkpt lat="43.74263" lon="6.68032">
        <ele>1326.4</ele>
        <time>2024-05-26T12:36:40Z</time>
      </trkpt>
      <trkpt lat="43.74264" lon="6.68032">
        <ele>1326.3</ele>
        <time>2024-05-26T12:36:41Z</time>
      </trkpt>
      <trkpt lat="43.74265" lon="6.68032">
        <ele>1326</ele>
        <time>2024-05-26T12:36:42Z</time>
      </trkpt>
      <trkpt lat="43.74266" lon="6.68031">
        <ele>1325.9</ele>
        <time>2024-05-26T12:36:43Z</time>
      </trkpt>
      <trkpt lat="43.74266" lon="6.6803">
        <ele>1325.8</ele>
        <time>2024-05-26T12:36:44Z</time>
      </trkpt>
      <trkpt lat="43.74267" lon="6.68029">
        <ele>1325.7</ele>
        <time>2024-05-26T12:36:45Z</time>
      </trkpt>
      <trkpt lat="43.74268" lon="6.68028">
        <ele>1325.6</ele>
        <time>2024-05-26T12:36:46Z</time>
      </trkpt>
      <trkpt lat="43.74269" lon="6.68027">
        <ele>1325.4</ele>
        <time>2024-05-26T12:36:47Z</time>
      </trkpt>
      <trkpt lat="43.7427" lon="6.68026">
        <ele>1325.3</ele>
        <time>2024-05-26T12:36:48Z</time>
      </trkpt>
      <trkpt lat="43.7427" lon="6.68025">
        <ele>1325.1</ele>
        <time>2024-05-26T12:36:49Z</time>
      </trkpt>
      <trkpt lat="43.74271" lon="6.68024">
        <ele>1325</ele>
        <time>2024-05-26T12:36:50Z</time>
      </trkpt>
      <trkpt lat="43.74272" lon="6.68022">
        <ele>1324.8</ele>
        <time>2024-05-26T12:36:51Z</time>
      </trkpt>
      <trkpt lat="43.74273" lon="6.68022">
        <ele>1324.7</ele>
        <time>2024-05-26T12:36:52Z</time>
      </trkpt>
      <trkpt lat="43.74274" lon="6.68021">
        <ele>1324.5</ele>
        <time>2024-05-26T12:36:53Z</time>
      </trkpt>
      <trkpt lat="43.74274" lon="6.68019">
        <ele>1324.4</ele>
        <time>2024-05-26T12:36:54Z</time>
      </trkpt>
      <trkpt lat="43.74275" lon="6.68019">
        <ele>1324.3</ele>
        <time>2024-05-26T12:36:55Z</time>
      </trkpt>
      <trkpt lat="43.74276" lon="6.68018">
        <ele>1324.2</ele>
        <time>2024-05-26T12:36:56Z</time>
      </trkpt>
      <trkpt lat="43.74277" lon="6.68018">
        <ele>1324.1</ele>
        <time>2024-05-26T12:36:57Z</time>
      </trkpt>
      <trkpt lat="43.74278" lon="6.68017">
        <ele>1324</ele>
        <time>2024-05-26T12:36:58Z</time>
      </trkpt>
      <trkpt lat="43.7428" lon="6.68016">
        <ele>1323.9</ele>
        <time>2024-05-26T12:36:59Z</time>
      </trkpt>
      <trkpt lat="43.7428" lon="6.68016">
        <ele>1323.8</ele>
        <time>2024-05-26T12:37:00Z</time>
      </trkpt>
      <trkpt lat="43.74281" lon="6.68015">
        <ele>1323.7</ele>
        <time>2024-05-26T12:37:01Z</time>
      </trkpt>
      <trkpt lat="43.74282" lon="6.68014">
        <ele>1323.6</ele>
        <time>2024-05-26T12:37:02Z</time>
      </trkpt>
      <trkpt lat="43.74283" lon="6.68012">
        <ele>1323.5</ele>
        <time>2024-05-26T12:37:03Z</time>
      </trkpt>
      <trkpt lat="43.74284" lon="6.68012">
        <ele>1323.4</ele>
        <time>2024-05-26T12:37:04Z</time>
      </trkpt>
      <trkpt lat="43.74285" lon="6.68011">
        <ele>1323.3</ele>
        <time>2024-05-26T12:37:05Z</time>
      </trkpt>
      <trkpt lat="43.74286" lon="6.68011">
        <ele>1323.1</ele>
        <time>2024-05-26T12:37:06Z</time>
      </trkpt>
      <trkpt lat="43.74287" lon="6.6801">
        <ele>1323</ele>
        <time>2024-05-26T12:37:07Z</time>
      </trkpt>
      <trkpt lat="43.74287" lon="6.68009">
        <ele>1322.9</ele>
        <time>2024-05-26T12:37:08Z</time>
      </trkpt>
      <trkpt lat="43.74288" lon="6.68009">
        <ele>1322.9</ele>
        <time>2024-05-26T12:37:09Z</time>
      </trkpt>
      <trkpt lat="43.74289" lon="6.68009">
        <ele>1322.8</ele>
        <time>2024-05-26T12:37:10Z</time>
      </trkpt>
      <trkpt lat="43.74289" lon="6.68008">
        <ele>1322.7</ele>
        <time>2024-05-26T12:37:11Z</time>
      </trkpt>
      <trkpt lat="43.7429" lon="6.68007">
        <ele>1322.6</ele>
        <time>2024-05-26T12:37:12Z</time>
      </trkpt>
      <trkpt lat="43.74291" lon="6.68007">
        <ele>1322.4</ele>
        <time>2024-05-26T12:37:13Z</time>
      </trkpt>
      <trkpt lat="43.74292" lon="6.68006">
        <ele>1322.3</ele>
        <time>2024-05-26T12:37:14Z</time>
      </trkpt>
      <trkpt lat="43.74293" lon="6.68006">
        <ele>1322.2</ele>
        <time>2024-05-26T12:37:15Z</time>
      </trkpt>
      <trkpt lat="43.74294" lon="6.68005">
        <ele>1321.9</ele>
        <time>2024-05-26T12:37:16Z</time>
      </trkpt>
      <trkpt lat="43.74294" lon="6.68005">
        <ele>1321.7</ele>
        <time>2024-05-26T12:37:17Z</time>
      </trkpt>
      <trkpt lat="43.74295" lon="6.68005">
        <ele>1321.6</ele>
        <time>2024-05-26T12:37:18Z</time>
      </trkpt>
      <trkpt lat="43.74296" lon="6.68005">
        <ele>1321.4</ele>
        <time>2024-05-26T12:37:19Z</time>
      </trkpt>
      <trkpt lat="43.74297" lon="6.68005">
        <ele>1321.2</ele>
        <time>2024-05-26T12:37:20Z</time>
      </trkpt>
      <trkpt lat="43.74298" lon="6.68004">
        <ele>1321</ele>
        <time>2024-05-26T12:37:21Z</time>
      </trkpt>
      <trkpt lat="43.74299" lon="6.68003">
        <ele>1320.8</ele>
        <time>2024-05-26T12:37:22Z</time>
      </trkpt>
      <trkpt lat="43.74301" lon="6.68004">
        <ele>1320.6</ele>
        <time>2024-05-26T12:37:23Z</time>
      </trkpt>
      <trkpt lat="43.74302" lon="6.68003">
        <ele>1320.4</ele>
        <time>2024-05-26T12:37:24Z</time>
      </trkpt>
      <trkpt lat="43.74303" lon="6.68003">
        <ele>1320.3</ele>
        <time>2024-05-26T12:37:25Z</time>
      </trkpt>
      <trkpt lat="43.74304" lon="6.68003">
        <ele>1320.1</ele>
        <time>2024-05-26T12:37:26Z</time>
      </trkpt>
      <trkpt lat="43.74305" lon="6.68002">
        <ele>1319.9</ele>
        <time>2024-05-26T12:37:27Z</time>
      </trkpt>
      <trkpt lat="43.74305" lon="6.68002">
        <ele>1319.8</ele>
        <time>2024-05-26T12:37:28Z</time>
      </trkpt>
      <trkpt lat="43.74306" lon="6.68001">
        <ele>1319.7</ele>
        <time>2024-05-26T12:37:29Z</time>
      </trkpt>
      <trkpt lat="43.74307" lon="6.68001">
        <ele>1319.5</ele>
        <time>2024-05-26T12:37:30Z</time>
      </trkpt>
      <trkpt lat="43.74308" lon="6.68001">
        <ele>1319.4</ele>
        <time>2024-05-26T12:37:31Z</time>
      </trkpt>
      <trkpt lat="43.74309" lon="6.68">
        <ele>1319.3</ele>
        <time>2024-05-26T12:37:32Z</time>
      </trkpt>
      <trkpt lat="43.7431" lon="6.68">
        <ele>1319.2</ele>
        <time>2024-05-26T12:37:33Z</time>
      </trkpt>
      <trkpt lat="43.74312" lon="6.68">
        <ele>1319.1</ele>
        <time>2024-05-26T12:37:34Z</time>
      </trkpt>
      <trkpt lat="43.74313" lon="6.68">
        <ele>1319.1</ele>
        <time>2024-05-26T12:37:35Z</time>
      </trkpt>
      <trkpt lat="43.74314" lon="6.67999">
        <ele>1319.1</ele>
        <time>2024-05-26T12:37:36Z</time>
      </trkpt>
      <trkpt lat="43.74315" lon="6.67999">
        <ele>1318.9</ele>
        <time>2024-05-26T12:37:37Z</time>
      </trkpt>
      <trkpt lat="43.74315" lon="6.67998">
        <ele>1318.8</ele>
        <time>2024-05-26T12:37:38Z</time>
      </trkpt>
      <trkpt lat="43.74317" lon="6.67997">
        <ele>1318.6</ele>
        <time>2024-05-26T12:37:39Z</time>
      </trkpt>
      <trkpt lat="43.74318" lon="6.67997">
        <ele>1318.5</ele>
        <time>2024-05-26T12:37:40Z</time>
      </trkpt>
      <trkpt lat="43.7432" lon="6.67997">
        <ele>1318.4</ele>
        <time>2024-05-26T12:37:41Z</time>
      </trkpt>
      <trkpt lat="43.74321" lon="6.67996">
        <ele>1318.4</ele>
        <time>2024-05-26T12:37:42Z</time>
      </trkpt>
      <trkpt lat="43.74322" lon="6.67995">
        <ele>1318.3</ele>
        <time>2024-05-26T12:37:43Z</time>
      </trkpt>
      <trkpt lat="43.74323" lon="6.67994">
        <ele>1318.1</ele>
        <time>2024-05-26T12:37:44Z</time>
      </trkpt>
      <trkpt lat="43.74324" lon="6.67993">
        <ele>1318</ele>
        <time>2024-05-26T12:37:45Z</time>
      </trkpt>
      <trkpt lat="43.74325" lon="6.6799">
        <ele>1317.9</ele>
        <time>2024-05-26T12:37:46Z</time>
      </trkpt>
      <trkpt lat="43.74327" lon="6.67989">
        <ele>1317.8</ele>
        <time>2024-05-26T12:37:47Z</time>
      </trkpt>
      <trkpt lat="43.74328" lon="6.67988">
        <ele>1317.7</ele>
        <time>2024-05-26T12:37:48Z</time>
      </trkpt>
      <trkpt lat="43.74329" lon="6.67988">
        <ele>1317.6</ele>
        <time>2024-05-26T12:37:49Z</time>
      </trkpt>
      <trkpt lat="43.74331" lon="6.67988">
        <ele>1317.5</ele>
        <time>2024-05-26T12:37:50Z</time>
      </trkpt>
      <trkpt lat="43.74332" lon="6.67987">
        <ele>1317.4</ele>
        <time>2024-05-26T12:37:51Z</time>
      </trkpt>
      <trkpt lat="43.74334" lon="6.67987">
        <ele>1317.2</ele>
        <time>2024-05-26T12:37:52Z</time>
      </trkpt>
      <trkpt lat="43.74334" lon="6.67986">
        <ele>1317.1</ele>
        <time>2024-05-26T12:37:53Z</time>
      </trkpt>
      <trkpt lat="43.74336" lon="6.67985">
        <ele>1316.9</ele>
        <time>2024-05-26T12:37:54Z</time>
      </trkpt>
      <trkpt lat="43.74337" lon="6.67985">
        <ele>1316.8</ele>
        <time>2024-05-26T12:37:55Z</time>
      </trkpt>
      <trkpt lat="43.74338" lon="6.67985">
        <ele>1316.7</ele>
        <time>2024-05-26T12:37:56Z</time>
      </trkpt>
      <trkpt lat="43.74339" lon="6.67984">
        <ele>1316.6</ele>
        <time>2024-05-26T12:37:57Z</time>
      </trkpt>
      <trkpt lat="43.7434" lon="6.67983">
        <ele>1316.4</ele>
        <time>2024-05-26T12:37:58Z</time>
      </trkpt>
      <trkpt lat="43.7434" lon="6.67982">
        <ele>1316.3</ele>
        <time>2024-05-26T12:37:59Z</time>
      </trkpt>
      <trkpt lat="43.74341" lon="6.67981">
        <ele>1316.2</ele>
        <time>2024-05-26T12:38:00Z</time>
      </trkpt>
      <trkpt lat="43.74343" lon="6.67981">
        <ele>1316.2</ele>
        <time>2024-05-26T12:38:01Z</time>
      </trkpt>
      <trkpt lat="43.74344" lon="6.67981">
        <ele>1316.1</ele>
        <time>2024-05-26T12:38:02Z</time>
      </trkpt>
      <trkpt lat="43.74345" lon="6.6798">
        <ele>1316</ele>
        <time>2024-05-26T12:38:03Z</time>
      </trkpt>
      <trkpt lat="43.74346" lon="6.6798">
        <ele>1315.8</ele>
        <time>2024-05-26T12:38:04Z</time>
      </trkpt>
      <trkpt lat="43.74348" lon="6.67979">
        <ele>1315.7</ele>
        <time>2024-05-26T12:38:05Z</time>
      </trkpt>
      <trkpt lat="43.74348" lon="6.67979">
        <ele>1315.5</ele>
        <time>2024-05-26T12:38:06Z</time>
      </trkpt>
      <trkpt lat="43.7435" lon="6.67978">
        <ele>1315.3</ele>
        <time>2024-05-26T12:38:07Z</time>
      </trkpt>
      <trkpt lat="43.7435" lon="6.67978">
        <ele>1315.2</ele>
        <time>2024-05-26T12:38:08Z</time>
      </trkpt>
      <trkpt lat="43.74351" lon="6.67977">
        <ele>1315.1</ele>
        <time>2024-05-26T12:38:09Z</time>
      </trkpt>
      <trkpt lat="43.74352" lon="6.67977">
        <ele>1314.9</ele>
        <time>2024-05-26T12:38:10Z</time>
      </trkpt>
      <trkpt lat="43.74354" lon="6.67976">
        <ele>1314.8</ele>
        <time>2024-05-26T12:38:11Z</time>
      </trkpt>
      <trkpt lat="43.74355" lon="6.67976">
        <ele>1314.7</ele>
        <time>2024-05-26T12:38:12Z</time>
      </trkpt>
      <trkpt lat="43.74356" lon="6.67976">
        <ele>1314.6</ele>
        <time>2024-05-26T12:38:13Z</time>
      </trkpt>
      <trkpt lat="43.74358" lon="6.67976">
        <ele>1314.5</ele>
        <time>2024-05-26T12:38:14Z</time>
      </trkpt>
      <trkpt lat="43.74359" lon="6.67975">
        <ele>1314.5</ele>
        <time>2024-05-26T12:38:15Z</time>
      </trkpt>
      <trkpt lat="43.7436" lon="6.67975">
        <ele>1314.5</ele>
        <time>2024-05-26T12:38:16Z</time>
      </trkpt>
      <trkpt lat="43.7436" lon="6.67974">
        <ele>1314.5</ele>
        <time>2024-05-26T12:38:17Z</time>
      </trkpt>
      <trkpt lat="43.74362" lon="6.67974">
        <ele>1314.4</ele>
        <time>2024-05-26T12:38:18Z</time>
      </trkpt>
      <trkpt lat="43.74363" lon="6.67974">
        <ele>1314.3</ele>
        <time>2024-05-26T12:38:19Z</time>
      </trkpt>
      <trkpt lat="43.74364" lon="6.67973">
        <ele>1314.3</ele>
        <time>2024-05-26T12:38:20Z</time>
      </trkpt>
      <trkpt lat="43.74365" lon="6.67973">
        <ele>1314.2</ele>
        <time>2024-05-26T12:38:21Z</time>
      </trkpt>
      <trkpt lat="43.74366" lon="6.67972">
        <ele>1314.2</ele>
        <time>2024-05-26T12:38:22Z</time>
      </trkpt>
      <trkpt lat="43.74367" lon="6.67972">
        <ele>1314.1</ele>
        <time>2024-05-26T12:38:23Z</time>
      </trkpt>
      <trkpt lat="43.74368" lon="6.67971">
        <ele>1313.9</ele>
        <time>2024-05-26T12:38:24Z</time>
      </trkpt>
      <trkpt lat="43.74369" lon="6.67971">
        <ele>1313.7</ele>
        <time>2024-05-26T12:38:25Z</time>
      </trkpt>
      <trkpt lat="43.7437" lon="6.67971">
        <ele>1313.5</ele>
        <time>2024-05-26T12:38:26Z</time>
      </trkpt>
      <trkpt lat="43.74371" lon="6.6797">
        <ele>1313.4</ele>
        <time>2024-05-26T12:38:27Z</time>
      </trkpt>
      <trkpt lat="43.74371" lon="6.67969">
        <ele>1313.2</ele>
        <time>2024-05-26T12:38:28Z</time>
      </trkpt>
      <trkpt lat="43.74372" lon="6.67969">
        <ele>1313</ele>
        <time>2024-05-26T12:38:29Z</time>
      </trkpt>
      <trkpt lat="43.74373" lon="6.67969">
        <ele>1313.1</ele>
        <time>2024-05-26T12:38:30Z</time>
      </trkpt>
      <trkpt lat="43.74374" lon="6.67968">
        <ele>1313</ele>
        <time>2024-05-26T12:38:31Z</time>
      </trkpt>
      <trkpt lat="43.74375" lon="6.67968">
        <ele>1312.9</ele>
        <time>2024-05-26T12:38:32Z</time>
      </trkpt>
      <trkpt lat="43.74375" lon="6.67968">
        <ele>1312.9</ele>
        <time>2024-05-26T12:38:33Z</time>
      </trkpt>
      <trkpt lat="43.74376" lon="6.67968">
        <ele>1312.8</ele>
        <time>2024-05-26T12:38:34Z</time>
      </trkpt>
      <trkpt lat="43.74377" lon="6.67968">
        <ele>1312.7</ele>
        <time>2024-05-26T12:38:35Z</time>
      </trkpt>
      <trkpt lat="43.74377" lon="6.67968">
        <ele>1312.7</ele>
        <time>2024-05-26T12:38:36Z</time>
      </trkpt>
      <trkpt lat="43.74378" lon="6.67968">
        <ele>1312.7</ele>
        <time>2024-05-26T12:38:37Z</time>
      </trkpt>
      <trkpt lat="43.74378" lon="6.67968">
        <ele>1312.7</ele>
        <time>2024-05-26T12:38:38Z</time>
      </trkpt>
      <trkpt lat="43.74377" lon="6.67967">
        <ele>1312.6</ele>
        <time>2024-05-26T12:38:39Z</time>
      </trkpt>
      <trkpt lat="43.74377" lon="6.67967">
        <ele>1312.4</ele>
        <time>2024-05-26T12:38:40Z</time>
      </trkpt>
      <trkpt lat="43.74377" lon="6.67967">
        <ele>1312.3</ele>
        <time>2024-05-26T12:38:41Z</time>
      </trkpt>
      <trkpt lat="43.74378" lon="6.67967">
        <ele>1312.3</ele>
        <time>2024-05-26T12:38:42Z</time>
      </trkpt>
      <trkpt lat="43.74377" lon="6.67967">
        <ele>1312.3</ele>
        <time>2024-05-26T12:38:43Z</time>
      </trkpt>
      <trkpt lat="43.74377" lon="6.67967">
        <ele>1312.3</ele>
        <time>2024-05-26T12:38:44Z</time>
      </trkpt>
      <trkpt lat="43.74377" lon="6.67967">
        <ele>1312.2</ele>
        <time>2024-05-26T12:38:45Z</time>
      </trkpt>
      <trkpt lat="43.74376" lon="6.67967">
        <ele>1312.2</ele>
        <time>2024-05-26T12:38:46Z</time>
      </trkpt>
      <trkpt lat="43.74377" lon="6.67968">
        <ele>1312.1</ele>
        <time>2024-05-26T12:38:47Z</time>
      </trkpt>
      <trkpt lat="43.74376" lon="6.67968">
        <ele>1312</ele>
        <time>2024-05-26T12:38:48Z</time>
      </trkpt>
      <trkpt lat="43.74376" lon="6.67969">
        <ele>1311.8</ele>
        <time>2024-05-26T12:38:49Z</time>
      </trkpt>
      <trkpt lat="43.74375" lon="6.67969">
        <ele>1311.6</ele>
        <time>2024-05-26T12:38:50Z</time>
      </trkpt>
      <trkpt lat="43.74375" lon="6.67969">
        <ele>1311.4</ele>
        <time>2024-05-26T12:38:51Z</time>
      </trkpt>
      <trkpt lat="43.74373" lon="6.6797">
        <ele>1311.3</ele>
        <time>2024-05-26T12:38:52Z</time>
      </trkpt>
      <trkpt lat="43.74373" lon="6.6797">
        <ele>1311.1</ele>
        <time>2024-05-26T12:38:53Z</time>
      </trkpt>
      <trkpt lat="43.74372" lon="6.67971">
        <ele>1311</ele>
        <time>2024-05-26T12:38:54Z</time>
      </trkpt>
      <trkpt lat="43.74372" lon="6.67972">
        <ele>1310.8</ele>
        <time>2024-05-26T12:38:55Z</time>
      </trkpt>
      <trkpt lat="43.74371" lon="6.67972">
        <ele>1310.7</ele>
        <time>2024-05-26T12:38:56Z</time>
      </trkpt>
      <trkpt lat="43.74371" lon="6.67972">
        <ele>1310.4</ele>
        <time>2024-05-26T12:38:57Z</time>
      </trkpt>
      <trkpt lat="43.74371" lon="6.67973">
        <ele>1310.2</ele>
        <time>2024-05-26T12:38:58Z</time>
      </trkpt>
      <trkpt lat="43.74371" lon="6.67974">
        <ele>1310.1</ele>
        <time>2024-05-26T12:38:59Z</time>
      </trkpt>
      <trkpt lat="43.7437" lon="6.67974">
        <ele>1310</ele>
        <time>2024-05-26T12:39:00Z</time>
      </trkpt>
      <trkpt lat="43.7437" lon="6.67975">
        <ele>1309.8</ele>
        <time>2024-05-26T12:39:01Z</time>
      </trkpt>
      <trkpt lat="43.7437" lon="6.67975">
        <ele>1309.7</ele>
        <time>2024-05-26T12:39:02Z</time>
      </trkpt>
      <trkpt lat="43.7437" lon="6.67976">
        <ele>1309.6</ele>
        <time>2024-05-26T12:39:03Z</time>
      </trkpt>
      <trkpt lat="43.7437" lon="6.67976">
        <ele>1309.6</ele>
        <time>2024-05-26T12:39:04Z</time>
      </trkpt>
      <trkpt lat="43.7437" lon="6.67977">
        <ele>1309.5</ele>
        <time>2024-05-26T12:39:05Z</time>
      </trkpt>
      <trkpt lat="43.7437" lon="6.67977">
        <ele>1309.4</ele>
        <time>2024-05-26T12:39:06Z</time>
      </trkpt>
      <trkpt lat="43.74369" lon="6.67977">
        <ele>1309.2</ele>
        <time>2024-05-26T12:39:07Z</time>
      </trkpt>
      <trkpt lat="43.74369" lon="6.67978">
        <ele>1309.1</ele>
        <time>2024-05-26T12:39:08Z</time>
      </trkpt>
      <trkpt lat="43.74368" lon="6.67978">
        <ele>1309</ele>
        <time>2024-05-26T12:39:09Z</time>
      </trkpt>
      <trkpt lat="43.74368" lon="6.67979">
        <ele>1308.8</ele>
        <time>2024-05-26T12:39:10Z</time>
      </trkpt>
      <trkpt lat="43.74367" lon="6.6798">
        <ele>1308.7</ele>
        <time>2024-05-26T12:39:11Z</time>
      </trkpt>
      <trkpt lat="43.74367" lon="6.67981">
        <ele>1308.6</ele>
        <time>2024-05-26T12:39:12Z</time>
      </trkpt>
      <trkpt lat="43.74367" lon="6.67982">
        <ele>1308.5</ele>
        <time>2024-05-26T12:39:13Z</time>
      </trkpt>
      <trkpt lat="43.74366" lon="6.67983">
        <ele>1308.4</ele>
        <time>2024-05-26T12:39:14Z</time>
      </trkpt>
      <trkpt lat="43.74366" lon="6.67984">
        <ele>1308.2</ele>
        <time>2024-05-26T12:39:15Z</time>
      </trkpt>
      <trkpt lat="43.74367" lon="6.67984">
        <ele>1307.9</ele>
        <time>2024-05-26T12:39:16Z</time>
      </trkpt>
      <trkpt lat="43.74366" lon="6.67985">
        <ele>1307.7</ele>
        <time>2024-05-26T12:39:17Z</time>
      </trkpt>
      <trkpt lat="43.74367" lon="6.67986">
        <ele>1307.5</ele>
        <time>2024-05-26T12:39:18Z</time>
      </trkpt>
      <trkpt lat="43.74367" lon="6.67987">
        <ele>1307.4</ele>
        <time>2024-05-26T12:39:19Z</time>
      </trkpt>
      <trkpt lat="43.74367" lon="6.67989">
        <ele>1307.2</ele>
        <time>2024-05-26T12:39:20Z</time>
      </trkpt>
      <trkpt lat="43.74366" lon="6.67989">
        <ele>1306.9</ele>
        <time>2024-05-26T12:39:21Z</time>
      </trkpt>
      <trkpt lat="43.74366" lon="6.67989">
        <ele>1306.8</ele>
        <time>2024-05-26T12:39:22Z</time>
      </trkpt>
      <trkpt lat="43.74366" lon="6.6799">
        <ele>1306.7</ele>
        <time>2024-05-26T12:39:23Z</time>
      </trkpt>
      <trkpt lat="43.74366" lon="6.67991">
        <ele>1306.6</ele>
        <time>2024-05-26T12:39:24Z</time>
      </trkpt>
      <trkpt lat="43.74366" lon="6.67992">
        <ele>1306.4</ele>
        <time>2024-05-26T12:39:25Z</time>
      </trkpt>
      <trkpt lat="43.74365" lon="6.67993">
        <ele>1306.3</ele>
        <time>2024-05-26T12:39:26Z</time>
      </trkpt>
      <trkpt lat="43.74365" lon="6.67994">
        <ele>1306.1</ele>
        <time>2024-05-26T12:39:27Z</time>
      </trkpt>
      <trkpt lat="43.74365" lon="6.67995">
        <ele>1305.9</ele>
        <time>2024-05-26T12:39:28Z</time>
      </trkpt>
      <trkpt lat="43.74365" lon="6.67995">
        <ele>1305.7</ele>
        <time>2024-05-26T12:39:29Z</time>
      </trkpt>
      <trkpt lat="43.74364" lon="6.67995">
        <ele>1305.5</ele>
        <time>2024-05-26T12:39:30Z</time>
      </trkpt>
      <trkpt lat="43.74364" lon="6.67996">
        <ele>1305.4</ele>
        <time>2024-05-26T12:39:31Z</time>
      </trkpt>
      <trkpt lat="43.74364" lon="6.67997">
        <ele>1305.2</ele>
        <time>2024-05-26T12:39:32Z</time>
      </trkpt>
      <trkpt lat="43.74364" lon="6.67998">
        <ele>1305</ele>
        <time>2024-05-26T12:39:33Z</time>
      </trkpt>
      <trkpt lat="43.74364" lon="6.67999">
        <ele>1304.8</ele>
        <time>2024-05-26T12:39:34Z</time>
      </trkpt>
      <trkpt lat="43.74364" lon="6.68">
        <ele>1304.7</ele>
        <time>2024-05-26T12:39:35Z</time>
      </trkpt>
      <trkpt lat="43.74364" lon="6.68001">
        <ele>1304.5</ele>
        <time>2024-05-26T12:39:36Z</time>
      </trkpt>
      <trkpt lat="43.74363" lon="6.68002">
        <ele>1304.4</ele>
        <time>2024-05-26T12:39:37Z</time>
      </trkpt>
      <trkpt lat="43.74363" lon="6.68002">
        <ele>1304.3</ele>
        <time>2024-05-26T12:39:38Z</time>
      </trkpt>
      <trkpt lat="43.74362" lon="6.68004">
        <ele>1303.9</ele>
        <time>2024-05-26T12:39:39Z</time>
      </trkpt>
      <trkpt lat="43.74361" lon="6.68005">
        <ele>1303.7</ele>
        <time>2024-05-26T12:39:40Z</time>
      </trkpt>
      <trkpt lat="43.74361" lon="6.68005">
        <ele>1303.5</ele>
        <time>2024-05-26T12:39:41Z</time>
      </trkpt>
      <trkpt lat="43.74361" lon="6.68006">
        <ele>1303.2</ele>
        <time>2024-05-26T12:39:42Z</time>
      </trkpt>
      <trkpt lat="43.74361" lon="6.68006">
        <ele>1303</ele>
        <time>2024-05-26T12:39:43Z</time>
      </trkpt>
      <trkpt lat="43.7436" lon="6.68007">
        <ele>1302.9</ele>
        <time>2024-05-26T12:39:44Z</time>
      </trkpt>
      <trkpt lat="43.74359" lon="6.68008">
        <ele>1302.7</ele>
        <time>2024-05-26T12:39:45Z</time>
      </trkpt>
      <trkpt lat="43.74358" lon="6.68009">
        <ele>1302.5</ele>
        <time>2024-05-26T12:39:46Z</time>
      </trkpt>
      <trkpt lat="43.74358" lon="6.6801">
        <ele>1302.3</ele>
        <time>2024-05-26T12:39:47Z</time>
      </trkpt>
      <trkpt lat="43.74357" lon="6.68012">
        <ele>1302.1</ele>
        <time>2024-05-26T12:39:48Z</time>
      </trkpt>
      <trkpt lat="43.74357" lon="6.68013">
        <ele>1301.9</ele>
        <time>2024-05-26T12:39:49Z</time>
      </trkpt>
      <trkpt lat="43.74357" lon="6.68014">
        <ele>1301.7</ele>
        <time>2024-05-26T12:39:50Z</time>
      </trkpt>
      <trkpt lat="43.74357" lon="6.68014">
        <ele>1301.4</ele>
        <time>2024-05-26T12:39:51Z</time>
      </trkpt>
      <trkpt lat="43.74357" lon="6.68014">
        <ele>1301.2</ele>
        <time>2024-05-26T12:39:52Z</time>
      </trkpt>
      <trkpt lat="43.74357" lon="6.68015">
        <ele>1301.1</ele>
        <time>2024-05-26T12:39:53Z</time>
      </trkpt>
      <trkpt lat="43.74356" lon="6.68016">
        <ele>1301</ele>
        <time>2024-05-26T12:39:54Z</time>
      </trkpt>
      <trkpt lat="43.74356" lon="6.68017">
        <ele>1300.9</ele>
        <time>2024-05-26T12:39:55Z</time>
      </trkpt>
      <trkpt lat="43.74356" lon="6.68017">
        <ele>1300.8</ele>
        <time>2024-05-26T12:39:56Z</time>
      </trkpt>
      <trkpt lat="43.74357" lon="6.68019">
        <ele>1300.7</ele>
        <time>2024-05-26T12:39:57Z</time>
      </trkpt>
      <trkpt lat="43.74357" lon="6.68021">
        <ele>1300.5</ele>
        <time>2024-05-26T12:39:58Z</time>
      </trkpt>
      <trkpt lat="43.74357" lon="6.68021">
        <ele>1300.4</ele>
        <time>2024-05-26T12:39:59Z</time>
      </trkpt>
      <trkpt lat="43.74357" lon="6.68022">
        <ele>1300.3</ele>
        <time>2024-05-26T12:40:00Z</time>
      </trkpt>
      <trkpt lat="43.74356" lon="6.68023">
        <ele>1300.1</ele>
        <time>2024-05-26T12:40:01Z</time>
      </trkpt>
      <trkpt lat="43.74356" lon="6.68024">
        <ele>1300</ele>
        <time>2024-05-26T12:40:02Z</time>
      </trkpt>
      <trkpt lat="43.74356" lon="6.68025">
        <ele>1299.8</ele>
        <time>2024-05-26T12:40:03Z</time>
      </trkpt>
      <trkpt lat="43.74356" lon="6.68026">
        <ele>1299.7</ele>
        <time>2024-05-26T12:40:04Z</time>
      </trkpt>
      <trkpt lat="43.74356" lon="6.68026">
        <ele>1299.6</ele>
        <time>2024-05-26T12:40:05Z</time>
      </trkpt>
      <trkpt lat="43.74355" lon="6.68027">
        <ele>1299.6</ele>
        <time>2024-05-26T12:40:06Z</time>
      </trkpt>
      <trkpt lat="43.74355" lon="6.68028">
        <ele>1299.4</ele>
        <time>2024-05-26T12:40:07Z</time>
      </trkpt>
      <trkpt lat="43.74355" lon="6.68029">
        <ele>1299.3</ele>
        <time>2024-05-26T12:40:08Z</time>
      </trkpt>
      <trkpt lat="43.74354" lon="6.68029">
        <ele>1299.2</ele>
        <time>2024-05-26T12:40:09Z</time>
      </trkpt>
      <trkpt lat="43.74354" lon="6.6803">
        <ele>1299</ele>
        <time>2024-05-26T12:40:10Z</time>
      </trkpt>
      <trkpt lat="43.74353" lon="6.68031">
        <ele>1298.9</ele>
        <time>2024-05-26T12:40:11Z</time>
      </trkpt>
      <trkpt lat="43.74353" lon="6.68032">
        <ele>1298.7</ele>
        <time>2024-05-26T12:40:12Z</time>
      </trkpt>
      <trkpt lat="43.74352" lon="6.68033">
        <ele>1298.6</ele>
        <time>2024-05-26T12:40:13Z</time>
      </trkpt>
      <trkpt lat="43.74353" lon="6.68034">
        <ele>1298.3</ele>
        <time>2024-05-26T12:40:14Z</time>
      </trkpt>
      <trkpt lat="43.74353" lon="6.68034">
        <ele>1298.2</ele>
        <time>2024-05-26T12:40:15Z</time>
      </trkpt>
      <trkpt lat="43.74353" lon="6.68035">
        <ele>1298</ele>
        <time>2024-05-26T12:40:16Z</time>
      </trkpt>
      <trkpt lat="43.74352" lon="6.68035">
        <ele>1297.8</ele>
        <time>2024-05-26T12:40:17Z</time>
      </trkpt>
      <trkpt lat="43.74353" lon="6.68036">
        <ele>1297.6</ele>
        <time>2024-05-26T12:40:18Z</time>
      </trkpt>
      <trkpt lat="43.74352" lon="6.68036">
        <ele>1297.4</ele>
        <time>2024-05-26T12:40:19Z</time>
      </trkpt>
      <trkpt lat="43.74351" lon="6.68037">
        <ele>1297.3</ele>
        <time>2024-05-26T12:40:20Z</time>
      </trkpt>
      <trkpt lat="43.74352" lon="6.68038">
        <ele>1297.3</ele>
        <time>2024-05-26T12:40:21Z</time>
      </trkpt>
      <trkpt lat="43.74351" lon="6.68039">
        <ele>1297.1</ele>
        <time>2024-05-26T12:40:22Z</time>
      </trkpt>
      <trkpt lat="43.74351" lon="6.68039">
        <ele>1297</ele>
        <time>2024-05-26T12:40:23Z</time>
      </trkpt>
      <trkpt lat="43.7435" lon="6.6804">
        <ele>1296.8</ele>
        <time>2024-05-26T12:40:24Z</time>
      </trkpt>
      <trkpt lat="43.7435" lon="6.68041">
        <ele>1296.6</ele>
        <time>2024-05-26T12:40:25Z</time>
      </trkpt>
      <trkpt lat="43.74349" lon="6.68042">
        <ele>1296.6</ele>
        <time>2024-05-26T12:40:26Z</time>
      </trkpt>
      <trkpt lat="43.74349" lon="6.68043">
        <ele>1296.5</ele>
        <time>2024-05-26T12:40:27Z</time>
      </trkpt>
      <trkpt lat="43.74349" lon="6.68044">
        <ele>1296.4</ele>
        <time>2024-05-26T12:40:28Z</time>
      </trkpt>
      <trkpt lat="43.74348" lon="6.68045">
        <ele>1296.2</ele>
        <time>2024-05-26T12:40:29Z</time>
      </trkpt>
      <trkpt lat="43.74348" lon="6.68046">
        <ele>1296</ele>
        <time>2024-05-26T12:40:30Z</time>
      </trkpt>
      <trkpt lat="43.74347" lon="6.68047">
        <ele>1295.8</ele>
        <time>2024-05-26T12:40:31Z</time>
      </trkpt>
      <trkpt lat="43.74347" lon="6.68048">
        <ele>1295.8</ele>
        <time>2024-05-26T12:40:32Z</time>
      </trkpt>
      <trkpt lat="43.74347" lon="6.68049">
        <ele>1295.6</ele>
        <time>2024-05-26T12:40:33Z</time>
      </trkpt>
      <trkpt lat="43.74346" lon="6.6805">
        <ele>1295.5</ele>
        <time>2024-05-26T12:40:34Z</time>
      </trkpt>
      <trkpt lat="43.74346" lon="6.68051">
        <ele>1295.3</ele>
        <time>2024-05-26T12:40:35Z</time>
      </trkpt>
      <trkpt lat="43.74345" lon="6.68051">
        <ele>1295.2</ele>
        <time>2024-05-26T12:40:36Z</time>
      </trkpt>
      <trkpt lat="43.74344" lon="6.68052">
        <ele>1295.1</ele>
        <time>2024-05-26T12:40:37Z</time>
      </trkpt>
      <trkpt lat="43.74344" lon="6.68052">
        <ele>1295</ele>
        <time>2024-05-26T12:40:38Z</time>
      </trkpt>
      <trkpt lat="43.74343" lon="6.68053">
        <ele>1294.9</ele>
        <time>2024-05-26T12:40:39Z</time>
      </trkpt>
      <trkpt lat="43.74343" lon="6.68054">
        <ele>1294.7</ele>
        <time>2024-05-26T12:40:40Z</time>
      </trkpt>
      <trkpt lat="43.74342" lon="6.68055">
        <ele>1294.6</ele>
        <time>2024-05-26T12:40:41Z</time>
      </trkpt>
      <trkpt lat="43.74343" lon="6.68057">
        <ele>1294.5</ele>
        <time>2024-05-26T12:40:42Z</time>
      </trkpt>
      <trkpt lat="43.74343" lon="6.68058">
        <ele>1294.5</ele>
        <time>2024-05-26T12:40:43Z</time>
      </trkpt>
      <trkpt lat="43.74342" lon="6.68059">
        <ele>1294.4</ele>
        <time>2024-05-26T12:40:44Z</time>
      </trkpt>
      <trkpt lat="43.74342" lon="6.68059">
        <ele>1294.1</ele>
        <time>2024-05-26T12:40:45Z</time>
      </trkpt>
      <trkpt lat="43.74342" lon="6.6806">
        <ele>1294</ele>
        <time>2024-05-26T12:40:46Z</time>
      </trkpt>
      <trkpt lat="43.74341" lon="6.68061">
        <ele>1293.8</ele>
        <time>2024-05-26T12:40:47Z</time>
      </trkpt>
      <trkpt lat="43.74341" lon="6.68063">
        <ele>1293.7</ele>
        <time>2024-05-26T12:40:48Z</time>
      </trkpt>
      <trkpt lat="43.74341" lon="6.68064">
        <ele>1293.7</ele>
        <time>2024-05-26T12:40:49Z</time>
      </trkpt>
      <trkpt lat="43.74341" lon="6.68065">
        <ele>1293.7</ele>
        <time>2024-05-26T12:40:50Z</time>
      </trkpt>
      <trkpt lat="43.74341" lon="6.68066">
        <ele>1293.7</ele>
        <time>2024-05-26T12:40:51Z</time>
      </trkpt>
      <trkpt lat="43.74341" lon="6.68067">
        <ele>1293.6</ele>
        <time>2024-05-26T12:40:52Z</time>
      </trkpt>
      <trkpt lat="43.7434" lon="6.68068">
        <ele>1293.4</ele>
        <time>2024-05-26T12:40:53Z</time>
      </trkpt>
      <trkpt lat="43.74339" lon="6.68069">
        <ele>1293.3</ele>
        <time>2024-05-26T12:40:54Z</time>
      </trkpt>
      <trkpt lat="43.74338" lon="6.6807">
        <ele>1293.2</ele>
        <time>2024-05-26T12:40:55Z</time>
      </trkpt>
      <trkpt lat="43.74338" lon="6.68071">
        <ele>1293.2</ele>
        <time>2024-05-26T12:40:56Z</time>
      </trkpt>
      <trkpt lat="43.74338" lon="6.68072">
        <ele>1293</ele>
        <time>2024-05-26T12:40:57Z</time>
      </trkpt>
      <trkpt lat="43.74337" lon="6.68073">
        <ele>1292.9</ele>
        <time>2024-05-26T12:40:58Z</time>
      </trkpt>
      <trkpt lat="43.74336" lon="6.68074">
        <ele>1292.8</ele>
        <time>2024-05-26T12:40:59Z</time>
      </trkpt>
      <trkpt lat="43.74335" lon="6.68075">
        <ele>1292.8</ele>
        <time>2024-05-26T12:41:00Z</time>
      </trkpt>
      <trkpt lat="43.74335" lon="6.68076">
        <ele>1292.6</ele>
        <time>2024-05-26T12:41:01Z</time>
      </trkpt>
      <trkpt lat="43.74334" lon="6.68076">
        <ele>1292.5</ele>
        <time>2024-05-26T12:41:02Z</time>
      </trkpt>
      <trkpt lat="43.74333" lon="6.68077">
        <ele>1292.3</ele>
        <time>2024-05-26T12:41:03Z</time>
      </trkpt>
      <trkpt lat="43.74333" lon="6.68078">
        <ele>1292.1</ele>
        <time>2024-05-26T12:41:04Z</time>
      </trkpt>
      <trkpt lat="43.74332" lon="6.68078">
        <ele>1292</ele>
        <time>2024-05-26T12:41:05Z</time>
      </trkpt>
      <trkpt lat="43.74331" lon="6.68079">
        <ele>1291.8</ele>
        <time>2024-05-26T12:41:06Z</time>
      </trkpt>
      <trkpt lat="43.74331" lon="6.6808">
        <ele>1291.6</ele>
        <time>2024-05-26T12:41:07Z</time>
      </trkpt>
      <trkpt lat="43.7433" lon="6.68081">
        <ele>1291.5</ele>
        <time>2024-05-26T12:41:08Z</time>
      </trkpt>
      <trkpt lat="43.74329" lon="6.68082">
        <ele>1291.3</ele>
        <time>2024-05-26T12:41:09Z</time>
      </trkpt>
      <trkpt lat="43.74329" lon="6.68084">
        <ele>1291.2</ele>
        <time>2024-05-26T12:41:10Z</time>
      </trkpt>
      <trkpt lat="43.74328" lon="6.68085">
        <ele>1291</ele>
        <time>2024-05-26T12:41:11Z</time>
      </trkpt>
      <trkpt lat="43.74327" lon="6.68085">
        <ele>1290.9</ele>
        <time>2024-05-26T12:41:12Z</time>
      </trkpt>
      <trkpt lat="43.74327" lon="6.68087">
        <ele>1290.8</ele>
        <time>2024-05-26T12:41:13Z</time>
      </trkpt>
      <trkpt lat="43.74327" lon="6.68089">
        <ele>1290.7</ele>
        <time>2024-05-26T12:41:14Z</time>
      </trkpt>
      <trkpt lat="43.74327" lon="6.68089">
        <ele>1290.6</ele>
        <time>2024-05-26T12:41:15Z</time>
      </trkpt>
      <trkpt lat="43.74327" lon="6.68091">
        <ele>1290.4</ele>
        <time>2024-05-26T12:41:16Z</time>
      </trkpt>
      <trkpt lat="43.74327" lon="6.68091">
        <ele>1290.2</ele>
        <time>2024-05-26T12:41:17Z</time>
      </trkpt>
      <trkpt lat="43.74326" lon="6.68092">
        <ele>1290.1</ele>
        <time>2024-05-26T12:41:18Z</time>
      </trkpt>
      <trkpt lat="43.74326" lon="6.68094">
        <ele>1289.9</ele>
        <time>2024-05-26T12:41:19Z</time>
      </trkpt>
      <trkpt lat="43.74326" lon="6.68094">
        <ele>1289.8</ele>
        <time>2024-05-26T12:41:20Z</time>
      </trkpt>
      <trkpt lat="43.74325" lon="6.68096">
        <ele>1289.6</ele>
        <time>2024-05-26T12:41:21Z</time>
      </trkpt>
      <trkpt lat="43.74325" lon="6.68097">
        <ele>1289.5</ele>
        <time>2024-05-26T12:41:22Z</time>
      </trkpt>
      <trkpt lat="43.74325" lon="6.68098">
        <ele>1289.5</ele>
        <time>2024-05-26T12:41:23Z</time>
      </trkpt>
      <trkpt lat="43.74324" lon="6.68099">
        <ele>1289.4</ele>
        <time>2024-05-26T12:41:24Z</time>
      </trkpt>
      <trkpt lat="43.74324" lon="6.681">
        <ele>1289.4</ele>
        <time>2024-05-26T12:41:25Z</time>
      </trkpt>
      <trkpt lat="43.74323" lon="6.68101">
        <ele>1289.3</ele>
        <time>2024-05-26T12:41:26Z</time>
      </trkpt>
      <trkpt lat="43.74323" lon="6.68101">
        <ele>1289.2</ele>
        <time>2024-05-26T12:41:27Z</time>
      </trkpt>
      <trkpt lat="43.74322" lon="6.68102">
        <ele>1289.2</ele>
        <time>2024-05-26T12:41:28Z</time>
      </trkpt>
      <trkpt lat="43.74322" lon="6.68102">
        <ele>1289.1</ele>
        <time>2024-05-26T12:41:29Z</time>
      </trkpt>
      <trkpt lat="43.74322" lon="6.68103">
        <ele>1289</ele>
        <time>2024-05-26T12:41:30Z</time>
      </trkpt>
      <trkpt lat="43.74322" lon="6.68104">
        <ele>1288.9</ele>
        <time>2024-05-26T12:41:31Z</time>
      </trkpt>
      <trkpt lat="43.74322" lon="6.68104">
        <ele>1288.8</ele>
        <time>2024-05-26T12:41:32Z</time>
      </trkpt>
      <trkpt lat="43.74322" lon="6.68105">
        <ele>1288.7</ele>
        <time>2024-05-26T12:41:33Z</time>
      </trkpt>
      <trkpt lat="43.74321" lon="6.68107">
        <ele>1288.5</ele>
        <time>2024-05-26T12:41:34Z</time>
      </trkpt>
      <trkpt lat="43.74321" lon="6.68108">
        <ele>1288.3</ele>
        <time>2024-05-26T12:41:35Z</time>
      </trkpt>
      <trkpt lat="43.74321" lon="6.68109">
        <ele>1288.2</ele>
        <time>2024-05-26T12:41:36Z</time>
      </trkpt>
      <trkpt lat="43.7432" lon="6.68111">
        <ele>1288.1</ele>
        <time>2024-05-26T12:41:37Z</time>
      </trkpt>
      <trkpt lat="43.7432" lon="6.68112">
        <ele>1287.9</ele>
        <time>2024-05-26T12:41:38Z</time>
      </trkpt>
      <trkpt lat="43.74319" lon="6.68113">
        <ele>1287.8</ele>
        <time>2024-05-26T12:41:39Z</time>
      </trkpt>
      <trkpt lat="43.74319" lon="6.68114">
        <ele>1287.7</ele>
        <time>2024-05-26T12:41:40Z</time>
      </trkpt>
      <trkpt lat="43.74318" lon="6.68114">
        <ele>1287.5</ele>
        <time>2024-05-26T12:41:41Z</time>
      </trkpt>
      <trkpt lat="43.74318" lon="6.68115">
        <ele>1287.4</ele>
        <time>2024-05-26T12:41:42Z</time>
      </trkpt>
      <trkpt lat="43.74319" lon="6.68117">
        <ele>1287.3</ele>
        <time>2024-05-26T12:41:43Z</time>
      </trkpt>
      <trkpt lat="43.74318" lon="6.68118">
        <ele>1287.2</ele>
        <time>2024-05-26T12:41:44Z</time>
      </trkpt>
      <trkpt lat="43.74318" lon="6.68119">
        <ele>1287.1</ele>
        <time>2024-05-26T12:41:45Z</time>
      </trkpt>
      <trkpt lat="43.74318" lon="6.6812">
        <ele>1287.1</ele>
        <time>2024-05-26T12:41:46Z</time>
      </trkpt>
      <trkpt lat="43.74317" lon="6.68121">
        <ele>1287</ele>
        <time>2024-05-26T12:41:47Z</time>
      </trkpt>
      <trkpt lat="43.74317" lon="6.68122">
        <ele>1287</ele>
        <time>2024-05-26T12:41:48Z</time>
      </trkpt>
      <trkpt lat="43.74317" lon="6.68123">
        <ele>1287</ele>
        <time>2024-05-26T12:41:49Z</time>
      </trkpt>
      <trkpt lat="43.74316" lon="6.68124">
        <ele>1286.8</ele>
        <time>2024-05-26T12:41:50Z</time>
      </trkpt>
      <trkpt lat="43.74315" lon="6.68125">
        <ele>1286.5</ele>
        <time>2024-05-26T12:41:51Z</time>
      </trkpt>
      <trkpt lat="43.74315" lon="6.68126">
        <ele>1286.4</ele>
        <time>2024-05-26T12:41:52Z</time>
      </trkpt>
      <trkpt lat="43.74315" lon="6.68127">
        <ele>1286.3</ele>
        <time>2024-05-26T12:41:53Z</time>
      </trkpt>
      <trkpt lat="43.74315" lon="6.68128">
        <ele>1286</ele>
        <time>2024-05-26T12:41:54Z</time>
      </trkpt>
      <trkpt lat="43.74315" lon="6.68129">
        <ele>1285.9</ele>
        <time>2024-05-26T12:41:55Z</time>
      </trkpt>
      <trkpt lat="43.74315" lon="6.6813">
        <ele>1285.8</ele>
        <time>2024-05-26T12:41:56Z</time>
      </trkpt>
      <trkpt lat="43.74315" lon="6.68131">
        <ele>1285.6</ele>
        <time>2024-05-26T12:41:57Z</time>
      </trkpt>
      <trkpt lat="43.74316" lon="6.68132">
        <ele>1285.5</ele>
        <time>2024-05-26T12:41:58Z</time>
      </trkpt>
      <trkpt lat="43.74316" lon="6.68132">
        <ele>1285.3</ele>
        <time>2024-05-26T12:41:59Z</time>
      </trkpt>
      <trkpt lat="43.74315" lon="6.68132">
        <ele>1285.2</ele>
        <time>2024-05-26T12:42:00Z</time>
      </trkpt>
      <trkpt lat="43.74315" lon="6.68133">
        <ele>1285.1</ele>
        <time>2024-05-26T12:42:01Z</time>
      </trkpt>
      <trkpt lat="43.74316" lon="6.68134">
        <ele>1284.8</ele>
        <time>2024-05-26T12:42:02Z</time>
      </trkpt>
      <trkpt lat="43.74315" lon="6.68135">
        <ele>1284.6</ele>
        <time>2024-05-26T12:42:03Z</time>
      </trkpt>
      <trkpt lat="43.74315" lon="6.68135">
        <ele>1284.5</ele>
        <time>2024-05-26T12:42:04Z</time>
      </trkpt>
      <trkpt lat="43.74315" lon="6.68136">
        <ele>1284.3</ele>
        <time>2024-05-26T12:42:05Z</time>
      </trkpt>
      <trkpt lat="43.74315" lon="6.68136">
        <ele>1284.2</ele>
        <time>2024-05-26T12:42:06Z</time>
      </trkpt>
      <trkpt lat="43.74315" lon="6.68137">
        <ele>1284.1</ele>
        <time>2024-05-26T12:42:07Z</time>
      </trkpt>
      <trkpt lat="43.74314" lon="6.68138">
        <ele>1283.9</ele>
        <time>2024-05-26T12:42:08Z</time>
      </trkpt>
      <trkpt lat="43.74314" lon="6.68138">
        <ele>1283.7</ele>
        <time>2024-05-26T12:42:09Z</time>
      </trkpt>
      <trkpt lat="43.74313" lon="6.68139">
        <ele>1283.5</ele>
        <time>2024-05-26T12:42:10Z</time>
      </trkpt>
      <trkpt lat="43.74313" lon="6.6814">
        <ele>1283.3</ele>
        <time>2024-05-26T12:42:11Z</time>
      </trkpt>
      <trkpt lat="43.74313" lon="6.68141">
        <ele>1283.1</ele>
        <time>2024-05-26T12:42:12Z</time>
      </trkpt>
      <trkpt lat="43.74312" lon="6.68142">
        <ele>1283</ele>
        <time>2024-05-26T12:42:13Z</time>
      </trkpt>
      <trkpt lat="43.74312" lon="6.68142">
        <ele>1283</ele>
        <time>2024-05-26T12:42:14Z</time>
      </trkpt>
      <trkpt lat="43.74312" lon="6.68143">
        <ele>1283</ele>
        <time>2024-05-26T12:42:15Z</time>
      </trkpt>
      <trkpt lat="43.74312" lon="6.68143">
        <ele>1282.9</ele>
        <time>2024-05-26T12:42:16Z</time>
      </trkpt>
      <trkpt lat="43.74312" lon="6.68143">
        <ele>1282.9</ele>
        <time>2024-05-26T12:42:17Z</time>
      </trkpt>
      <trkpt lat="43.74312" lon="6.68144">
        <ele>1282.8</ele>
        <time>2024-05-26T12:42:18Z</time>
      </trkpt>
      <trkpt lat="43.74311" lon="6.68145">
        <ele>1282.7</ele>
        <time>2024-05-26T12:42:19Z</time>
      </trkpt>
      <trkpt lat="43.74311" lon="6.68146">
        <ele>1282.5</ele>
        <time>2024-05-26T12:42:20Z</time>
      </trkpt>
      <trkpt lat="43.7431" lon="6.68146">
        <ele>1282.1</ele>
        <time>2024-05-26T12:42:21Z</time>
      </trkpt>
      <trkpt lat="43.74309" lon="6.68147">
        <ele>1281.8</ele>
        <time>2024-05-26T12:42:22Z</time>
      </trkpt>
      <trkpt lat="43.74309" lon="6.68148">
        <ele>1281.6</ele>
        <time>2024-05-26T12:42:23Z</time>
      </trkpt>
      <trkpt lat="43.74308" lon="6.68149">
        <ele>1281.4</ele>
        <time>2024-05-26T12:42:24Z</time>
      </trkpt>
      <trkpt lat="43.74308" lon="6.68149">
        <ele>1281.3</ele>
        <time>2024-05-26T12:42:25Z</time>
      </trkpt>
      <trkpt lat="43.74308" lon="6.6815">
        <ele>1281.2</ele>
        <time>2024-05-26T12:42:26Z</time>
      </trkpt>
      <trkpt lat="43.74308" lon="6.68151">
        <ele>1281</ele>
        <time>2024-05-26T12:42:27Z</time>
      </trkpt>
      <trkpt lat="43.74307" lon="6.68151">
        <ele>1280.9</ele>
        <time>2024-05-26T12:42:28Z</time>
      </trkpt>
      <trkpt lat="43.74307" lon="6.68152">
        <ele>1280.7</ele>
        <time>2024-05-26T12:42:29Z</time>
      </trkpt>
      <trkpt lat="43.74306" lon="6.68152">
        <ele>1280.6</ele>
        <time>2024-05-26T12:42:30Z</time>
      </trkpt>
      <trkpt lat="43.74306" lon="6.68152">
        <ele>1280.3</ele>
        <time>2024-05-26T12:42:31Z</time>
      </trkpt>
      <trkpt lat="43.74305" lon="6.68153">
        <ele>1280.1</ele>
        <time>2024-05-26T12:42:32Z</time>
      </trkpt>
      <trkpt lat="43.74305" lon="6.68154">
        <ele>1279.9</ele>
        <time>2024-05-26T12:42:33Z</time>
      </trkpt>
      <trkpt lat="43.74304" lon="6.68155">
        <ele>1279.7</ele>
        <time>2024-05-26T12:42:34Z</time>
      </trkpt>
      <trkpt lat="43.74304" lon="6.68156">
        <ele>1279.6</ele>
        <time>2024-05-26T12:42:35Z</time>
      </trkpt>
      <trkpt lat="43.74304" lon="6.68156">
        <ele>1279.5</ele>
        <time>2024-05-26T12:42:36Z</time>
      </trkpt>
      <trkpt lat="43.74303" lon="6.68157">
        <ele>1279.3</ele>
        <time>2024-05-26T12:42:37Z</time>
      </trkpt>
      <trkpt lat="43.74303" lon="6.68158">
        <ele>1279.3</ele>
        <time>2024-05-26T12:42:38Z</time>
      </trkpt>
      <trkpt lat="43.74304" lon="6.6816">
        <ele>1279.2</ele>
        <time>2024-05-26T12:42:39Z</time>
      </trkpt>
      <trkpt lat="43.74304" lon="6.6816">
        <ele>1279.2</ele>
        <time>2024-05-26T12:42:40Z</time>
      </trkpt>
      <trkpt lat="43.74303" lon="6.68162">
        <ele>1279.2</ele>
        <time>2024-05-26T12:42:41Z</time>
      </trkpt>
      <trkpt lat="43.74302" lon="6.68162">
        <ele>1279.2</ele>
        <time>2024-05-26T12:42:42Z</time>
      </trkpt>
      <trkpt lat="43.74301" lon="6.68163">
        <ele>1279</ele>
        <time>2024-05-26T12:42:43Z</time>
      </trkpt>
      <trkpt lat="43.743" lon="6.68164">
        <ele>1278.9</ele>
        <time>2024-05-26T12:42:44Z</time>
      </trkpt>
      <trkpt lat="43.743" lon="6.68164">
        <ele>1278.8</ele>
        <time>2024-05-26T12:42:45Z</time>
      </trkpt>
      <trkpt lat="43.743" lon="6.68166">
        <ele>1278.6</ele>
        <time>2024-05-26T12:42:46Z</time>
      </trkpt>
      <trkpt lat="43.74299" lon="6.68167">
        <ele>1278.3</ele>
        <time>2024-05-26T12:42:47Z</time>
      </trkpt>
      <trkpt lat="43.74299" lon="6.68168">
        <ele>1278.2</ele>
        <time>2024-05-26T12:42:48Z</time>
      </trkpt>
      <trkpt lat="43.74299" lon="6.68169">
        <ele>1278</ele>
        <time>2024-05-26T12:42:49Z</time>
      </trkpt>
      <trkpt lat="43.74299" lon="6.6817">
        <ele>1277.8</ele>
        <time>2024-05-26T12:42:50Z</time>
      </trkpt>
      <trkpt lat="43.74299" lon="6.68171">
        <ele>1277.6</ele>
        <time>2024-05-26T12:42:51Z</time>
      </trkpt>
      <trkpt lat="43.74299" lon="6.68172">
        <ele>1277.5</ele>
        <time>2024-05-26T12:42:52Z</time>
      </trkpt>
      <trkpt lat="43.74298" lon="6.68173">
        <ele>1277.4</ele>
        <time>2024-05-26T12:42:53Z</time>
      </trkpt>
      <trkpt lat="43.74298" lon="6.68174">
        <ele>1277.3</ele>
        <time>2024-05-26T12:42:54Z</time>
      </trkpt>
      <trkpt lat="43.74298" lon="6.68175">
        <ele>1277.2</ele>
        <time>2024-05-26T12:42:55Z</time>
      </trkpt>
      <trkpt lat="43.74297" lon="6.68175">
        <ele>1277.1</ele>
        <time>2024-05-26T12:42:56Z</time>
      </trkpt>
      <trkpt lat="43.74297" lon="6.68176">
        <ele>1277.1</ele>
        <time>2024-05-26T12:42:57Z</time>
      </trkpt>
      <trkpt lat="43.74296" lon="6.68176">
        <ele>1277</ele>
        <time>2024-05-26T12:42:58Z</time>
      </trkpt>
      <trkpt lat="43.74295" lon="6.68177">
        <ele>1276.8</ele>
        <time>2024-05-26T12:42:59Z</time>
      </trkpt>
      <trkpt lat="43.74295" lon="6.68178">
        <ele>1276.7</ele>
        <time>2024-05-26T12:43:00Z</time>
      </trkpt>
      <trkpt lat="43.74294" lon="6.68179">
        <ele>1276.5</ele>
        <time>2024-05-26T12:43:01Z</time>
      </trkpt>
      <trkpt lat="43.74293" lon="6.6818">
        <ele>1276.4</ele>
        <time>2024-05-26T12:43:02Z</time>
      </trkpt>
      <trkpt lat="43.74293" lon="6.68181">
        <ele>1276.4</ele>
        <time>2024-05-26T12:43:03Z</time>
      </trkpt>
      <trkpt lat="43.74292" lon="6.6818">
        <ele>1276.3</ele>
        <time>2024-05-26T12:43:04Z</time>
      </trkpt>
      <trkpt lat="43.74291" lon="6.68181">
        <ele>1276.3</ele>
        <time>2024-05-26T12:43:05Z</time>
      </trkpt>
      <trkpt lat="43.74291" lon="6.68182">
        <ele>1276.2</ele>
        <time>2024-05-26T12:43:06Z</time>
      </trkpt>
      <trkpt lat="43.74291" lon="6.68183">
        <ele>1276.2</ele>
        <time>2024-05-26T12:43:07Z</time>
      </trkpt>
      <trkpt lat="43.7429" lon="6.68185">
        <ele>1276.1</ele>
        <time>2024-05-26T12:43:08Z</time>
      </trkpt>
      <trkpt lat="43.74289" lon="6.68186">
        <ele>1276.1</ele>
        <time>2024-05-26T12:43:09Z</time>
      </trkpt>
      <trkpt lat="43.74289" lon="6.68187">
        <ele>1276.1</ele>
        <time>2024-05-26T12:43:10Z</time>
      </trkpt>
      <trkpt lat="43.74289" lon="6.68188">
        <ele>1275.9</ele>
        <time>2024-05-26T12:43:11Z</time>
      </trkpt>
      <trkpt lat="43.74289" lon="6.68189">
        <ele>1275.9</ele>
        <time>2024-05-26T12:43:12Z</time>
      </trkpt>
      <trkpt lat="43.74288" lon="6.68189">
        <ele>1275.8</ele>
        <time>2024-05-26T12:43:13Z</time>
      </trkpt>
      <trkpt lat="43.74288" lon="6.68191">
        <ele>1275.7</ele>
        <time>2024-05-26T12:43:14Z</time>
      </trkpt>
      <trkpt lat="43.74288" lon="6.68192">
        <ele>1275.6</ele>
        <time>2024-05-26T12:43:15Z</time>
      </trkpt>
      <trkpt lat="43.74288" lon="6.68192">
        <ele>1275.5</ele>
        <time>2024-05-26T12:43:16Z</time>
      </trkpt>
      <trkpt lat="43.74288" lon="6.68194">
        <ele>1275.3</ele>
        <time>2024-05-26T12:43:17Z</time>
      </trkpt>
      <trkpt lat="43.74288" lon="6.68195">
        <ele>1275.2</ele>
        <time>2024-05-26T12:43:18Z</time>
      </trkpt>
      <trkpt lat="43.74288" lon="6.68196">
        <ele>1275.1</ele>
        <time>2024-05-26T12:43:19Z</time>
      </trkpt>
      <trkpt lat="43.74287" lon="6.68197">
        <ele>1275</ele>
        <time>2024-05-26T12:43:20Z</time>
      </trkpt>
      <trkpt lat="43.74287" lon="6.68198">
        <ele>1274.9</ele>
        <time>2024-05-26T12:43:21Z</time>
      </trkpt>
      <trkpt lat="43.74287" lon="6.68199">
        <ele>1274.7</ele>
        <time>2024-05-26T12:43:22Z</time>
      </trkpt>
      <trkpt lat="43.74286" lon="6.682">
        <ele>1274.5</ele>
        <time>2024-05-26T12:43:23Z</time>
      </trkpt>
      <trkpt lat="43.74286" lon="6.68201">
        <ele>1274.4</ele>
        <time>2024-05-26T12:43:24Z</time>
      </trkpt>
      <trkpt lat="43.74285" lon="6.68203">
        <ele>1274.3</ele>
        <time>2024-05-26T12:43:25Z</time>
      </trkpt>
      <trkpt lat="43.74285" lon="6.68204">
        <ele>1274.1</ele>
        <time>2024-05-26T12:43:26Z</time>
      </trkpt>
      <trkpt lat="43.74283" lon="6.68205">
        <ele>1274</ele>
        <time>2024-05-26T12:43:27Z</time>
      </trkpt>
      <trkpt lat="43.74283" lon="6.68207">
        <ele>1273.9</ele>
        <time>2024-05-26T12:43:28Z</time>
      </trkpt>
      <trkpt lat="43.74282" lon="6.68208">
        <ele>1273.8</ele>
        <time>2024-05-26T12:43:29Z</time>
      </trkpt>
      <trkpt lat="43.74282" lon="6.68209">
        <ele>1273.7</ele>
        <time>2024-05-26T12:43:30Z</time>
      </trkpt>
      <trkpt lat="43.74282" lon="6.68211">
        <ele>1273.6</ele>
        <time>2024-05-26T12:43:31Z</time>
      </trkpt>
      <trkpt lat="43.74281" lon="6.68212">
        <ele>1273.5</ele>
        <time>2024-05-26T12:43:32Z</time>
      </trkpt>
      <trkpt lat="43.74281" lon="6.68213">
        <ele>1273.5</ele>
        <time>2024-05-26T12:43:33Z</time>
      </trkpt>
      <trkpt lat="43.74281" lon="6.68214">
        <ele>1273.5</ele>
        <time>2024-05-26T12:43:34Z</time>
      </trkpt>
      <trkpt lat="43.7428" lon="6.68214">
        <ele>1273.4</ele>
        <time>2024-05-26T12:43:35Z</time>
      </trkpt>
      <trkpt lat="43.7428" lon="6.68215">
        <ele>1273.3</ele>
        <time>2024-05-26T12:43:36Z</time>
      </trkpt>
      <trkpt lat="43.74279" lon="6.68215">
        <ele>1273.1</ele>
        <time>2024-05-26T12:43:37Z</time>
      </trkpt>
      <trkpt lat="43.74279" lon="6.68217">
        <ele>1273</ele>
        <time>2024-05-26T12:43:38Z</time>
      </trkpt>
      <trkpt lat="43.74278" lon="6.68218">
        <ele>1272.8</ele>
        <time>2024-05-26T12:43:39Z</time>
      </trkpt>
      <trkpt lat="43.74278" lon="6.68219">
        <ele>1272.7</ele>
        <time>2024-05-26T12:43:40Z</time>
      </trkpt>
      <trkpt lat="43.74278" lon="6.6822">
        <ele>1272.5</ele>
        <time>2024-05-26T12:43:41Z</time>
      </trkpt>
      <trkpt lat="43.74278" lon="6.68222">
        <ele>1272.4</ele>
        <time>2024-05-26T12:43:42Z</time>
      </trkpt>
      <trkpt lat="43.74277" lon="6.68222">
        <ele>1272.4</ele>
        <time>2024-05-26T12:43:43Z</time>
      </trkpt>
      <trkpt lat="43.74277" lon="6.68223">
        <ele>1272.3</ele>
        <time>2024-05-26T12:43:44Z</time>
      </trkpt>
      <trkpt lat="43.74277" lon="6.68225">
        <ele>1272.2</ele>
        <time>2024-05-26T12:43:45Z</time>
      </trkpt>
      <trkpt lat="43.74277" lon="6.68226">
        <ele>1272.1</ele>
        <time>2024-05-26T12:43:46Z</time>
      </trkpt>
      <trkpt lat="43.74276" lon="6.68228">
        <ele>1271.9</ele>
        <time>2024-05-26T12:43:47Z</time>
      </trkpt>
      <trkpt lat="43.74276" lon="6.68229">
        <ele>1271.8</ele>
        <time>2024-05-26T12:43:48Z</time>
      </trkpt>
      <trkpt lat="43.74276" lon="6.6823">
        <ele>1271.7</ele>
        <time>2024-05-26T12:43:49Z</time>
      </trkpt>
      <trkpt lat="43.74276" lon="6.6823">
        <ele>1271.6</ele>
        <time>2024-05-26T12:43:50Z</time>
      </trkpt>
      <trkpt lat="43.74275" lon="6.68231">
        <ele>1271.4</ele>
        <time>2024-05-26T12:43:51Z</time>
      </trkpt>
      <trkpt lat="43.74274" lon="6.68231">
        <ele>1271.2</ele>
        <time>2024-05-26T12:43:52Z</time>
      </trkpt>
      <trkpt lat="43.74273" lon="6.68232">
        <ele>1271.1</ele>
        <time>2024-05-26T12:43:53Z</time>
      </trkpt>
      <trkpt lat="43.74272" lon="6.68233">
        <ele>1271</ele>
        <time>2024-05-26T12:43:54Z</time>
      </trkpt>
      <trkpt lat="43.74272" lon="6.68234">
        <ele>1270.9</ele>
        <time>2024-05-26T12:43:55Z</time>
      </trkpt>
      <trkpt lat="43.74272" lon="6.68236">
        <ele>1270.9</ele>
        <time>2024-05-26T12:43:56Z</time>
      </trkpt>
      <trkpt lat="43.74272" lon="6.68237">
        <ele>1270.7</ele>
        <time>2024-05-26T12:43:57Z</time>
      </trkpt>
      <trkpt lat="43.74271" lon="6.68238">
        <ele>1270.6</ele>
        <time>2024-05-26T12:43:58Z</time>
      </trkpt>
      <trkpt lat="43.74271" lon="6.68239">
        <ele>1270.6</ele>
        <time>2024-05-26T12:43:59Z</time>
      </trkpt>
      <trkpt lat="43.74271" lon="6.6824">
        <ele>1270.5</ele>
        <time>2024-05-26T12:44:00Z</time>
      </trkpt>
      <trkpt lat="43.74271" lon="6.6824">
        <ele>1270.4</ele>
        <time>2024-05-26T12:44:01Z</time>
      </trkpt>
      <trkpt lat="43.74271" lon="6.68241">
        <ele>1270.4</ele>
        <time>2024-05-26T12:44:02Z</time>
      </trkpt>
      <trkpt lat="43.74271" lon="6.68242">
        <ele>1270.4</ele>
        <time>2024-05-26T12:44:03Z</time>
      </trkpt>
      <trkpt lat="43.74271" lon="6.68243">
        <ele>1270.3</ele>
        <time>2024-05-26T12:44:04Z</time>
      </trkpt>
      <trkpt lat="43.74271" lon="6.68244">
        <ele>1270.2</ele>
        <time>2024-05-26T12:44:05Z</time>
      </trkpt>
      <trkpt lat="43.7427" lon="6.68245">
        <ele>1270.1</ele>
        <time>2024-05-26T12:44:06Z</time>
      </trkpt>
      <trkpt lat="43.7427" lon="6.68246">
        <ele>1270</ele>
        <time>2024-05-26T12:44:07Z</time>
      </trkpt>
      <trkpt lat="43.74269" lon="6.68247">
        <ele>1269.9</ele>
        <time>2024-05-26T12:44:08Z</time>
      </trkpt>
      <trkpt lat="43.74269" lon="6.68248">
        <ele>1269.8</ele>
        <time>2024-05-26T12:44:09Z</time>
      </trkpt>
      <trkpt lat="43.74269" lon="6.6825">
        <ele>1269.6</ele>
        <time>2024-05-26T12:44:10Z</time>
      </trkpt>
      <trkpt lat="43.74268" lon="6.68252">
        <ele>1269.4</ele>
        <time>2024-05-26T12:44:11Z</time>
      </trkpt>
      <trkpt lat="43.74268" lon="6.68253">
        <ele>1269.3</ele>
        <time>2024-05-26T12:44:12Z</time>
      </trkpt>
      <trkpt lat="43.74268" lon="6.68254">
        <ele>1269.1</ele>
        <time>2024-05-26T12:44:13Z</time>
      </trkpt>
      <trkpt lat="43.74268" lon="6.68256">
        <ele>1269</ele>
        <time>2024-05-26T12:44:14Z</time>
      </trkpt>
      <trkpt lat="43.74268" lon="6.68258">
        <ele>1268.9</ele>
        <time>2024-05-26T12:44:15Z</time>
      </trkpt>
      <trkpt lat="43.74267" lon="6.68258">
        <ele>1268.9</ele>
        <time>2024-05-26T12:44:16Z</time>
      </trkpt>
      <trkpt lat="43.74266" lon="6.68259">
        <ele>1268.8</ele>
        <time>2024-05-26T12:44:17Z</time>
      </trkpt>
      <trkpt lat="43.74266" lon="6.6826">
        <ele>1268.8</ele>
        <time>2024-05-26T12:44:18Z</time>
      </trkpt>
      <trkpt lat="43.74266" lon="6.68261">
        <ele>1268.8</ele>
        <time>2024-05-26T12:44:19Z</time>
      </trkpt>
      <trkpt lat="43.74266" lon="6.68262">
        <ele>1268.6</ele>
        <time>2024-05-26T12:44:20Z</time>
      </trkpt>
      <trkpt lat="43.74266" lon="6.68263">
        <ele>1268.4</ele>
        <time>2024-05-26T12:44:21Z</time>
      </trkpt>
      <trkpt lat="43.74266" lon="6.68265">
        <ele>1268.2</ele>
        <time>2024-05-26T12:44:22Z</time>
      </trkpt>
      <trkpt lat="43.74266" lon="6.68266">
        <ele>1268</ele>
        <time>2024-05-26T12:44:23Z</time>
      </trkpt>
      <trkpt lat="43.74265" lon="6.68266">
        <ele>1267.8</ele>
        <time>2024-05-26T12:44:24Z</time>
      </trkpt>
      <trkpt lat="43.74264" lon="6.68267">
        <ele>1267.6</ele>
        <time>2024-05-26T12:44:25Z</time>
      </trkpt>
      <trkpt lat="43.74264" lon="6.68268">
        <ele>1267.4</ele>
        <time>2024-05-26T12:44:26Z</time>
      </trkpt>
      <trkpt lat="43.74263" lon="6.68269">
        <ele>1267.3</ele>
        <time>2024-05-26T12:44:27Z</time>
      </trkpt>
      <trkpt lat="43.74264" lon="6.68269">
        <ele>1267.2</ele>
        <time>2024-05-26T12:44:28Z</time>
      </trkpt>
      <trkpt lat="43.74263" lon="6.6827">
        <ele>1267.1</ele>
        <time>2024-05-26T12:44:29Z</time>
      </trkpt>
      <trkpt lat="43.74263" lon="6.68271">
        <ele>1267</ele>
        <time>2024-05-26T12:44:30Z</time>
      </trkpt>
      <trkpt lat="43.74263" lon="6.68272">
        <ele>1266.9</ele>
        <time>2024-05-26T12:44:31Z</time>
      </trkpt>
      <trkpt lat="43.74263" lon="6.68272">
        <ele>1266.8</ele>
        <time>2024-05-26T12:44:32Z</time>
      </trkpt>
      <trkpt lat="43.74263" lon="6.68273">
        <ele>1266.7</ele>
        <time>2024-05-26T12:44:33Z</time>
      </trkpt>
      <trkpt lat="43.74262" lon="6.68274">
        <ele>1266.5</ele>
        <time>2024-05-26T12:44:34Z</time>
      </trkpt>
      <trkpt lat="43.74262" lon="6.68275">
        <ele>1266.4</ele>
        <time>2024-05-26T12:44:35Z</time>
      </trkpt>
      <trkpt lat="43.74262" lon="6.68276">
        <ele>1266.2</ele>
        <time>2024-05-26T12:44:36Z</time>
      </trkpt>
      <trkpt lat="43.74261" lon="6.68277">
        <ele>1266.1</ele>
        <time>2024-05-26T12:44:37Z</time>
      </trkpt>
      <trkpt lat="43.74261" lon="6.68279">
        <ele>1266</ele>
        <time>2024-05-26T12:44:38Z</time>
      </trkpt>
      <trkpt lat="43.74261" lon="6.6828">
        <ele>1265.8</ele>
        <time>2024-05-26T12:44:39Z</time>
      </trkpt>
      <trkpt lat="43.74261" lon="6.68281">
        <ele>1265.6</ele>
        <time>2024-05-26T12:44:40Z</time>
      </trkpt>
      <trkpt lat="43.7426" lon="6.68282">
        <ele>1265.5</ele>
        <time>2024-05-26T12:44:41Z</time>
      </trkpt>
      <trkpt lat="43.7426" lon="6.68283">
        <ele>1265.4</ele>
        <time>2024-05-26T12:44:42Z</time>
      </trkpt>
      <trkpt lat="43.7426" lon="6.68285">
        <ele>1265.3</ele>
        <time>2024-05-26T12:44:43Z</time>
      </trkpt>
      <trkpt lat="43.74259" lon="6.68287">
        <ele>1265.1</ele>
        <time>2024-05-26T12:44:44Z</time>
      </trkpt>
      <trkpt lat="43.74259" lon="6.68289">
        <ele>1265</ele>
        <time>2024-05-26T12:44:45Z</time>
      </trkpt>
      <trkpt lat="43.74259" lon="6.6829">
        <ele>1264.8</ele>
        <time>2024-05-26T12:44:46Z</time>
      </trkpt>
      <trkpt lat="43.74258" lon="6.68292">
        <ele>1264.6</ele>
        <time>2024-05-26T12:44:47Z</time>
      </trkpt>
      <trkpt lat="43.74258" lon="6.68293">
        <ele>1264.5</ele>
        <time>2024-05-26T12:44:48Z</time>
      </trkpt>
      <trkpt lat="43.74258" lon="6.68294">
        <ele>1264.4</ele>
        <time>2024-05-26T12:44:49Z</time>
      </trkpt>
      <trkpt lat="43.74256" lon="6.68295">
        <ele>1264.3</ele>
        <time>2024-05-26T12:44:50Z</time>
      </trkpt>
      <trkpt lat="43.74255" lon="6.68296">
        <ele>1264.2</ele>
        <time>2024-05-26T12:44:51Z</time>
      </trkpt>
      <trkpt lat="43.74255" lon="6.68296">
        <ele>1264.1</ele>
        <time>2024-05-26T12:44:52Z</time>
      </trkpt>
      <trkpt lat="43.74254" lon="6.68296">
        <ele>1264.1</ele>
        <time>2024-05-26T12:44:53Z</time>
      </trkpt>
      <trkpt lat="43.74254" lon="6.68297">
        <ele>1264</ele>
        <time>2024-05-26T12:44:54Z</time>
      </trkpt>
      <trkpt lat="43.74254" lon="6.68298">
        <ele>1263.9</ele>
        <time>2024-05-26T12:44:55Z</time>
      </trkpt>
      <trkpt lat="43.74253" lon="6.68299">
        <ele>1263.8</ele>
        <time>2024-05-26T12:44:56Z</time>
      </trkpt>
      <trkpt lat="43.74253" lon="6.683">
        <ele>1263.7</ele>
        <time>2024-05-26T12:44:57Z</time>
      </trkpt>
      <trkpt lat="43.74252" lon="6.68302">
        <ele>1263.5</ele>
        <time>2024-05-26T12:44:58Z</time>
      </trkpt>
      <trkpt lat="43.74253" lon="6.68303">
        <ele>1263.4</ele>
        <time>2024-05-26T12:44:59Z</time>
      </trkpt>
      <trkpt lat="43.74254" lon="6.68304">
        <ele>1263.2</ele>
        <time>2024-05-26T12:45:00Z</time>
      </trkpt>
      <trkpt lat="43.74253" lon="6.68305">
        <ele>1263.1</ele>
        <time>2024-05-26T12:45:01Z</time>
      </trkpt>
      <trkpt lat="43.74254" lon="6.68306">
        <ele>1263</ele>
        <time>2024-05-26T12:45:02Z</time>
      </trkpt>
      <trkpt lat="43.74254" lon="6.68307">
        <ele>1262.8</ele>
        <time>2024-05-26T12:45:03Z</time>
      </trkpt>
      <trkpt lat="43.74253" lon="6.68308">
        <ele>1262.6</ele>
        <time>2024-05-26T12:45:04Z</time>
      </trkpt>
      <trkpt lat="43.74252" lon="6.68308">
        <ele>1262.4</ele>
        <time>2024-05-26T12:45:05Z</time>
      </trkpt>
      <trkpt lat="43.74251" lon="6.68309">
        <ele>1262.2</ele>
        <time>2024-05-26T12:45:06Z</time>
      </trkpt>
      <trkpt lat="43.74252" lon="6.68311">
        <ele>1262</ele>
        <time>2024-05-26T12:45:07Z</time>
      </trkpt>
      <trkpt lat="43.74252" lon="6.68311">
        <ele>1261.9</ele>
        <time>2024-05-26T12:45:08Z</time>
      </trkpt>
      <trkpt lat="43.74251" lon="6.68312">
        <ele>1261.7</ele>
        <time>2024-05-26T12:45:09Z</time>
      </trkpt>
      <trkpt lat="43.74252" lon="6.68314">
        <ele>1261.5</ele>
        <time>2024-05-26T12:45:10Z</time>
      </trkpt>
      <trkpt lat="43.74252" lon="6.68315">
        <ele>1261.3</ele>
        <time>2024-05-26T12:45:11Z</time>
      </trkpt>
      <trkpt lat="43.74252" lon="6.68316">
        <ele>1261.2</ele>
        <time>2024-05-26T12:45:12Z</time>
      </trkpt>
      <trkpt lat="43.74252" lon="6.68317">
        <ele>1261</ele>
        <time>2024-05-26T12:45:13Z</time>
      </trkpt>
      <trkpt lat="43.74252" lon="6.68317">
        <ele>1260.9</ele>
        <time>2024-05-26T12:45:14Z</time>
      </trkpt>
      <trkpt lat="43.74252" lon="6.68318">
        <ele>1260.8</ele>
        <time>2024-05-26T12:45:15Z</time>
      </trkpt>
      <trkpt lat="43.74252" lon="6.68318">
        <ele>1260.7</ele>
        <time>2024-05-26T12:45:16Z</time>
      </trkpt>
      <trkpt lat="43.74252" lon="6.68319">
        <ele>1260.5</ele>
        <time>2024-05-26T12:45:17Z</time>
      </trkpt>
      <trkpt lat="43.74251" lon="6.68319">
        <ele>1260.5</ele>
        <time>2024-05-26T12:45:18Z</time>
      </trkpt>
      <trkpt lat="43.7425" lon="6.68319">
        <ele>1260.4</ele>
        <time>2024-05-26T12:45:19Z</time>
      </trkpt>
      <trkpt lat="43.7425" lon="6.6832">
        <ele>1260.3</ele>
        <time>2024-05-26T12:45:20Z</time>
      </trkpt>
      <trkpt lat="43.74249" lon="6.68321">
        <ele>1260.2</ele>
        <time>2024-05-26T12:45:21Z</time>
      </trkpt>
      <trkpt lat="43.74249" lon="6.68322">
        <ele>1260.1</ele>
        <time>2024-05-26T12:45:22Z</time>
      </trkpt>
      <trkpt lat="43.74249" lon="6.68323">
        <ele>1260</ele>
        <time>2024-05-26T12:45:23Z</time>
      </trkpt>
      <trkpt lat="43.74248" lon="6.68324">
        <ele>1259.8</ele>
        <time>2024-05-26T12:45:24Z</time>
      </trkpt>
      <trkpt lat="43.74248" lon="6.68325">
        <ele>1259.6</ele>
        <time>2024-05-26T12:45:25Z</time>
      </trkpt>
      <trkpt lat="43.74248" lon="6.68326">
        <ele>1259.5</ele>
        <time>2024-05-26T12:45:26Z</time>
      </trkpt>
      <trkpt lat="43.74248" lon="6.68327">
        <ele>1259.2</ele>
        <time>2024-05-26T12:45:27Z</time>
      </trkpt>
      <trkpt lat="43.74248" lon="6.68328">
        <ele>1259</ele>
        <time>2024-05-26T12:45:28Z</time>
      </trkpt>
      <trkpt lat="43.74248" lon="6.68329">
        <ele>1258.9</ele>
        <time>2024-05-26T12:45:29Z</time>
      </trkpt>
      <trkpt lat="43.74248" lon="6.68331">
        <ele>1258.6</ele>
        <time>2024-05-26T12:45:30Z</time>
      </trkpt>
      <trkpt lat="43.74248" lon="6.68331">
        <ele>1258.4</ele>
        <time>2024-05-26T12:45:31Z</time>
      </trkpt>
      <trkpt lat="43.74247" lon="6.68332">
        <ele>1258.2</ele>
        <time>2024-05-26T12:45:32Z</time>
      </trkpt>
      <trkpt lat="43.74247" lon="6.68332">
        <ele>1258.1</ele>
        <time>2024-05-26T12:45:33Z</time>
      </trkpt>
      <trkpt lat="43.74247" lon="6.68332">
        <ele>1257.8</ele>
        <time>2024-05-26T12:45:34Z</time>
      </trkpt>
      <trkpt lat="43.74247" lon="6.68333">
        <ele>1257.6</ele>
        <time>2024-05-26T12:45:35Z</time>
      </trkpt>
      <trkpt lat="43.74248" lon="6.68334">
        <ele>1257.6</ele>
        <time>2024-05-26T12:45:36Z</time>
      </trkpt>
      <trkpt lat="43.74247" lon="6.68335">
        <ele>1257.5</ele>
        <time>2024-05-26T12:45:37Z</time>
      </trkpt>
      <trkpt lat="43.74248" lon="6.68336">
        <ele>1257.3</ele>
        <time>2024-05-26T12:45:38Z</time>
      </trkpt>
      <trkpt lat="43.74248" lon="6.68336">
        <ele>1257.2</ele>
        <time>2024-05-26T12:45:39Z</time>
      </trkpt>
      <trkpt lat="43.74248" lon="6.68337">
        <ele>1257.1</ele>
        <time>2024-05-26T12:45:40Z</time>
      </trkpt>
      <trkpt lat="43.74247" lon="6.68337">
        <ele>1257</ele>
        <time>2024-05-26T12:45:41Z</time>
      </trkpt>
      <trkpt lat="43.74247" lon="6.68337">
        <ele>1256.8</ele>
        <time>2024-05-26T12:45:42Z</time>
      </trkpt>
      <trkpt lat="43.74246" lon="6.68339">
        <ele>1256.7</ele>
        <time>2024-05-26T12:45:43Z</time>
      </trkpt>
      <trkpt lat="43.74246" lon="6.6834">
        <ele>1256.6</ele>
        <time>2024-05-26T12:45:44Z</time>
      </trkpt>
      <trkpt lat="43.74245" lon="6.6834">
        <ele>1256.5</ele>
        <time>2024-05-26T12:45:45Z</time>
      </trkpt>
      <trkpt lat="43.74245" lon="6.68341">
        <ele>1256.4</ele>
        <time>2024-05-26T12:45:46Z</time>
      </trkpt>
      <trkpt lat="43.74245" lon="6.68341">
        <ele>1256.3</ele>
        <time>2024-05-26T12:45:47Z</time>
      </trkpt>
      <trkpt lat="43.74244" lon="6.68341">
        <ele>1256.2</ele>
        <time>2024-05-26T12:45:48Z</time>
      </trkpt>
      <trkpt lat="43.74244" lon="6.68342">
        <ele>1256</ele>
        <time>2024-05-26T12:45:49Z</time>
      </trkpt>
      <trkpt lat="43.74244" lon="6.68343">
        <ele>1255.8</ele>
        <time>2024-05-26T12:45:50Z</time>
      </trkpt>
      <trkpt lat="43.74243" lon="6.68344">
        <ele>1255.6</ele>
        <time>2024-05-26T12:45:51Z</time>
      </trkpt>
      <trkpt lat="43.74243" lon="6.68345">
        <ele>1255.4</ele>
        <time>2024-05-26T12:45:52Z</time>
      </trkpt>
      <trkpt lat="43.74243" lon="6.68346">
        <ele>1255.3</ele>
        <time>2024-05-26T12:45:53Z</time>
      </trkpt>
      <trkpt lat="43.74242" lon="6.68347">
        <ele>1255</ele>
        <time>2024-05-26T12:45:54Z</time>
      </trkpt>
      <trkpt lat="43.74242" lon="6.68349">
        <ele>1254.9</ele>
        <time>2024-05-26T12:45:55Z</time>
      </trkpt>
      <trkpt lat="43.74242" lon="6.6835">
        <ele>1254.7</ele>
        <time>2024-05-26T12:45:56Z</time>
      </trkpt>
      <trkpt lat="43.74241" lon="6.68351">
        <ele>1254.6</ele>
        <time>2024-05-26T12:45:57Z</time>
      </trkpt>
      <trkpt lat="43.74241" lon="6.68352">
        <ele>1254.5</ele>
        <time>2024-05-26T12:45:58Z</time>
      </trkpt>
      <trkpt lat="43.74239" lon="6.68352">
        <ele>1254.4</ele>
        <time>2024-05-26T12:45:59Z</time>
      </trkpt>
      <trkpt lat="43.74239" lon="6.68353">
        <ele>1254.2</ele>
        <time>2024-05-26T12:46:00Z</time>
      </trkpt>
      <trkpt lat="43.74239" lon="6.68354">
        <ele>1254.1</ele>
        <time>2024-05-26T12:46:01Z</time>
      </trkpt>
      <trkpt lat="43.74239" lon="6.68355">
        <ele>1254</ele>
        <time>2024-05-26T12:46:02Z</time>
      </trkpt>
      <trkpt lat="43.74239" lon="6.68356">
        <ele>1253.8</ele>
        <time>2024-05-26T12:46:03Z</time>
      </trkpt>
      <trkpt lat="43.74238" lon="6.68356">
        <ele>1253.7</ele>
        <time>2024-05-26T12:46:04Z</time>
      </trkpt>
      <trkpt lat="43.74238" lon="6.68356">
        <ele>1253.5</ele>
        <time>2024-05-26T12:46:05Z</time>
      </trkpt>
      <trkpt lat="43.74238" lon="6.68357">
        <ele>1253.3</ele>
        <time>2024-05-26T12:46:06Z</time>
      </trkpt>
      <trkpt lat="43.74236" lon="6.68357">
        <ele>1253.2</ele>
        <time>2024-05-26T12:46:07Z</time>
      </trkpt>
      <trkpt lat="43.74236" lon="6.68358">
        <ele>1253</ele>
        <time>2024-05-26T12:46:08Z</time>
      </trkpt>
      <trkpt lat="43.74236" lon="6.68359">
        <ele>1252.9</ele>
        <time>2024-05-26T12:46:09Z</time>
      </trkpt>
      <trkpt lat="43.74236" lon="6.6836">
        <ele>1252.8</ele>
        <time>2024-05-26T12:46:10Z</time>
      </trkpt>
      <trkpt lat="43.74235" lon="6.68361">
        <ele>1252.7</ele>
        <time>2024-05-26T12:46:11Z</time>
      </trkpt>
      <trkpt lat="43.74235" lon="6.68362">
        <ele>1252.5</ele>
        <time>2024-05-26T12:46:12Z</time>
      </trkpt>
      <trkpt lat="43.74236" lon="6.68363">
        <ele>1252.3</ele>
        <time>2024-05-26T12:46:13Z</time>
      </trkpt>
      <trkpt lat="43.74235" lon="6.68363">
        <ele>1252.1</ele>
        <time>2024-05-26T12:46:14Z</time>
      </trkpt>
      <trkpt lat="43.74235" lon="6.68364">
        <ele>1251.8</ele>
        <time>2024-05-26T12:46:15Z</time>
      </trkpt>
      <trkpt lat="43.74235" lon="6.68365">
        <ele>1251.7</ele>
        <time>2024-05-26T12:46:16Z</time>
      </trkpt>
      <trkpt lat="43.74235" lon="6.68366">
        <ele>1251.5</ele>
        <time>2024-05-26T12:46:17Z</time>
      </trkpt>
      <trkpt lat="43.74234" lon="6.68367">
        <ele>1251.3</ele>
        <time>2024-05-26T12:46:18Z</time>
      </trkpt>
      <trkpt lat="43.74234" lon="6.68367">
        <ele>1251</ele>
        <time>2024-05-26T12:46:19Z</time>
      </trkpt>
      <trkpt lat="43.74233" lon="6.68368">
        <ele>1250.8</ele>
        <time>2024-05-26T12:46:20Z</time>
      </trkpt>
      <trkpt lat="43.74232" lon="6.68369">
        <ele>1250.6</ele>
        <time>2024-05-26T12:46:21Z</time>
      </trkpt>
      <trkpt lat="43.74231" lon="6.6837">
        <ele>1250.4</ele>
        <time>2024-05-26T12:46:22Z</time>
      </trkpt>
      <trkpt lat="43.74231" lon="6.6837">
        <ele>1250.2</ele>
        <time>2024-05-26T12:46:23Z</time>
      </trkpt>
      <trkpt lat="43.74231" lon="6.68372">
        <ele>1250.1</ele>
        <time>2024-05-26T12:46:24Z</time>
      </trkpt>
      <trkpt lat="43.7423" lon="6.68372">
        <ele>1250</ele>
        <time>2024-05-26T12:46:25Z</time>
      </trkpt>
      <trkpt lat="43.74229" lon="6.68373">
        <ele>1249.8</ele>
        <time>2024-05-26T12:46:26Z</time>
      </trkpt>
      <trkpt lat="43.74229" lon="6.68374">
        <ele>1249.6</ele>
        <time>2024-05-26T12:46:27Z</time>
      </trkpt>
      <trkpt lat="43.74228" lon="6.68374">
        <ele>1249.5</ele>
        <time>2024-05-26T12:46:28Z</time>
      </trkpt>
      <trkpt lat="43.74227" lon="6.68377">
        <ele>1249.3</ele>
        <time>2024-05-26T12:46:29Z</time>
      </trkpt>
      <trkpt lat="43.74227" lon="6.68378">
        <ele>1249.1</ele>
        <time>2024-05-26T12:46:30Z</time>
      </trkpt>
      <trkpt lat="43.74227" lon="6.6838">
        <ele>1248.9</ele>
        <time>2024-05-26T12:46:31Z</time>
      </trkpt>
      <trkpt lat="43.74227" lon="6.68381">
        <ele>1248.8</ele>
        <time>2024-05-26T12:46:32Z</time>
      </trkpt>
      <trkpt lat="43.74226" lon="6.68383">
        <ele>1248.5</ele>
        <time>2024-05-26T12:46:33Z</time>
      </trkpt>
      <trkpt lat="43.74226" lon="6.68384">
        <ele>1248.4</ele>
        <time>2024-05-26T12:46:34Z</time>
      </trkpt>
      <trkpt lat="43.74225" lon="6.68386">
        <ele>1248.2</ele>
        <time>2024-05-26T12:46:35Z</time>
      </trkpt>
      <trkpt lat="43.74225" lon="6.68387">
        <ele>1248</ele>
        <time>2024-05-26T12:46:36Z</time>
      </trkpt>
      <trkpt lat="43.74226" lon="6.68388">
        <ele>1247.9</ele>
        <time>2024-05-26T12:46:37Z</time>
      </trkpt>
      <trkpt lat="43.74226" lon="6.68389">
        <ele>1247.8</ele>
        <time>2024-05-26T12:46:38Z</time>
      </trkpt>
      <trkpt lat="43.74225" lon="6.6839">
        <ele>1247.7</ele>
        <time>2024-05-26T12:46:39Z</time>
      </trkpt>
      <trkpt lat="43.74224" lon="6.68391">
        <ele>1247.6</ele>
        <time>2024-05-26T12:46:40Z</time>
      </trkpt>
      <trkpt lat="43.74224" lon="6.68393">
        <ele>1247.4</ele>
        <time>2024-05-26T12:46:41Z</time>
      </trkpt>
      <trkpt lat="43.74224" lon="6.68394">
        <ele>1247.2</ele>
        <time>2024-05-26T12:46:42Z</time>
      </trkpt>
      <trkpt lat="43.74224" lon="6.68395">
        <ele>1246.9</ele>
        <time>2024-05-26T12:46:43Z</time>
      </trkpt>
      <trkpt lat="43.74223" lon="6.68396">
        <ele>1246.8</ele>
        <time>2024-05-26T12:46:44Z</time>
      </trkpt>
      <trkpt lat="43.74223" lon="6.68397">
        <ele>1246.7</ele>
        <time>2024-05-26T12:46:45Z</time>
      </trkpt>
      <trkpt lat="43.74222" lon="6.68397">
        <ele>1246.6</ele>
        <time>2024-05-26T12:46:46Z</time>
      </trkpt>
      <trkpt lat="43.74223" lon="6.68397">
        <ele>1246.5</ele>
        <time>2024-05-26T12:46:47Z</time>
      </trkpt>
      <trkpt lat="43.74224" lon="6.68399">
        <ele>1246.5</ele>
        <time>2024-05-26T12:46:48Z</time>
      </trkpt>
      <trkpt lat="43.74223" lon="6.684">
        <ele>1246.4</ele>
        <time>2024-05-26T12:46:49Z</time>
      </trkpt>
      <trkpt lat="43.74222" lon="6.68402">
        <ele>1246.2</ele>
        <time>2024-05-26T12:46:50Z</time>
      </trkpt>
      <trkpt lat="43.74222" lon="6.68403">
        <ele>1246</ele>
        <time>2024-05-26T12:46:51Z</time>
      </trkpt>
      <trkpt lat="43.74223" lon="6.68405">
        <ele>1245.8</ele>
        <time>2024-05-26T12:46:52Z</time>
      </trkpt>
      <trkpt lat="43.74222" lon="6.68406">
        <ele>1245.6</ele>
        <time>2024-05-26T12:46:53Z</time>
      </trkpt>
      <trkpt lat="43.74222" lon="6.68407">
        <ele>1245.4</ele>
        <time>2024-05-26T12:46:54Z</time>
      </trkpt>
      <trkpt lat="43.74221" lon="6.68407">
        <ele>1245.2</ele>
        <time>2024-05-26T12:46:55Z</time>
      </trkpt>
      <trkpt lat="43.74221" lon="6.68408">
        <ele>1245</ele>
        <time>2024-05-26T12:46:56Z</time>
      </trkpt>
      <trkpt lat="43.74221" lon="6.68409">
        <ele>1244.7</ele>
        <time>2024-05-26T12:46:57Z</time>
      </trkpt>
      <trkpt lat="43.74221" lon="6.6841">
        <ele>1244.6</ele>
        <time>2024-05-26T12:46:58Z</time>
      </trkpt>
      <trkpt lat="43.74221" lon="6.68411">
        <ele>1244.4</ele>
        <time>2024-05-26T12:46:59Z</time>
      </trkpt>
      <trkpt lat="43.7422" lon="6.68412">
        <ele>1244.3</ele>
        <time>2024-05-26T12:47:00Z</time>
      </trkpt>
      <trkpt lat="43.74219" lon="6.68413">
        <ele>1244.2</ele>
        <time>2024-05-26T12:47:01Z</time>
      </trkpt>
      <trkpt lat="43.74218" lon="6.68414">
        <ele>1244.1</ele>
        <time>2024-05-26T12:47:02Z</time>
      </trkpt>
      <trkpt lat="43.74219" lon="6.68415">
        <ele>1243.8</ele>
        <time>2024-05-26T12:47:03Z</time>
      </trkpt>
      <trkpt lat="43.74218" lon="6.68416">
        <ele>1243.6</ele>
        <time>2024-05-26T12:47:04Z</time>
      </trkpt>
      <trkpt lat="43.74218" lon="6.68417">
        <ele>1243.5</ele>
        <time>2024-05-26T12:47:05Z</time>
      </trkpt>
      <trkpt lat="43.74217" lon="6.68417">
        <ele>1243.3</ele>
        <time>2024-05-26T12:47:06Z</time>
      </trkpt>
      <trkpt lat="43.74216" lon="6.68418">
        <ele>1243.2</ele>
        <time>2024-05-26T12:47:07Z</time>
      </trkpt>
      <trkpt lat="43.74216" lon="6.68418">
        <ele>1243</ele>
        <time>2024-05-26T12:47:08Z</time>
      </trkpt>
      <trkpt lat="43.74216" lon="6.6842">
        <ele>1242.8</ele>
        <time>2024-05-26T12:47:09Z</time>
      </trkpt>
      <trkpt lat="43.74216" lon="6.68421">
        <ele>1242.6</ele>
        <time>2024-05-26T12:47:10Z</time>
      </trkpt>
      <trkpt lat="43.74216" lon="6.68422">
        <ele>1242.5</ele>
        <time>2024-05-26T12:47:11Z</time>
      </trkpt>
      <trkpt lat="43.74215" lon="6.68423">
        <ele>1242.3</ele>
        <time>2024-05-26T12:47:12Z</time>
      </trkpt>
      <trkpt lat="43.74216" lon="6.68424">
        <ele>1242</ele>
        <time>2024-05-26T12:47:13Z</time>
      </trkpt>
      <trkpt lat="43.74215" lon="6.68425">
        <ele>1241.8</ele>
        <time>2024-05-26T12:47:14Z</time>
      </trkpt>
      <trkpt lat="43.74214" lon="6.68426">
        <ele>1241.6</ele>
        <time>2024-05-26T12:47:15Z</time>
      </trkpt>
      <trkpt lat="43.74213" lon="6.68426">
        <ele>1241.4</ele>
        <time>2024-05-26T12:47:16Z</time>
      </trkpt>
      <trkpt lat="43.74213" lon="6.68427">
        <ele>1241.2</ele>
        <time>2024-05-26T12:47:17Z</time>
      </trkpt>
      <trkpt lat="43.74213" lon="6.68427">
        <ele>1241.2</ele>
        <time>2024-05-26T12:47:18Z</time>
      </trkpt>
      <trkpt lat="43.74213" lon="6.68428">
        <ele>1241</ele>
        <time>2024-05-26T12:47:19Z</time>
      </trkpt>
      <trkpt lat="43.74213" lon="6.68429">
        <ele>1240.7</ele>
        <time>2024-05-26T12:47:20Z</time>
      </trkpt>
      <trkpt lat="43.74212" lon="6.6843">
        <ele>1240.5</ele>
        <time>2024-05-26T12:47:21Z</time>
      </trkpt>
      <trkpt lat="43.74213" lon="6.68432">
        <ele>1240.4</ele>
        <time>2024-05-26T12:47:22Z</time>
      </trkpt>
      <trkpt lat="43.74213" lon="6.68433">
        <ele>1240.1</ele>
        <time>2024-05-26T12:47:23Z</time>
      </trkpt>
      <trkpt lat="43.74214" lon="6.68434">
        <ele>1239.8</ele>
        <time>2024-05-26T12:47:24Z</time>
      </trkpt>
      <trkpt lat="43.74213" lon="6.68435">
        <ele>1239.6</ele>
        <time>2024-05-26T12:47:25Z</time>
      </trkpt>
      <trkpt lat="43.74213" lon="6.68436">
        <ele>1239.4</ele>
        <time>2024-05-26T12:47:26Z</time>
      </trkpt>
      <trkpt lat="43.74213" lon="6.68437">
        <ele>1239.1</ele>
        <time>2024-05-26T12:47:27Z</time>
      </trkpt>
      <trkpt lat="43.74212" lon="6.68438">
        <ele>1239</ele>
        <time>2024-05-26T12:47:28Z</time>
      </trkpt>
      <trkpt lat="43.74212" lon="6.68439">
        <ele>1238.8</ele>
        <time>2024-05-26T12:47:29Z</time>
      </trkpt>
      <trkpt lat="43.74212" lon="6.6844">
        <ele>1238.6</ele>
        <time>2024-05-26T12:47:30Z</time>
      </trkpt>
      <trkpt lat="43.74211" lon="6.68441">
        <ele>1238.3</ele>
        <time>2024-05-26T12:47:31Z</time>
      </trkpt>
      <trkpt lat="43.7421" lon="6.68442">
        <ele>1238.2</ele>
        <time>2024-05-26T12:47:32Z</time>
      </trkpt>
      <trkpt lat="43.74208" lon="6.68443">
        <ele>1238</ele>
        <time>2024-05-26T12:47:33Z</time>
      </trkpt>
      <trkpt lat="43.74208" lon="6.68444">
        <ele>1237.9</ele>
        <time>2024-05-26T12:47:34Z</time>
      </trkpt>
      <trkpt lat="43.74207" lon="6.68445">
        <ele>1237.7</ele>
        <time>2024-05-26T12:47:35Z</time>
      </trkpt>
      <trkpt lat="43.74207" lon="6.68446">
        <ele>1237.4</ele>
        <time>2024-05-26T12:47:36Z</time>
      </trkpt>
      <trkpt lat="43.74207" lon="6.68447">
        <ele>1237.2</ele>
        <time>2024-05-26T12:47:37Z</time>
      </trkpt>
      <trkpt lat="43.74208" lon="6.68449">
        <ele>1237.1</ele>
        <time>2024-05-26T12:47:38Z</time>
      </trkpt>
      <trkpt lat="43.74209" lon="6.68451">
        <ele>1236.9</ele>
        <time>2024-05-26T12:47:39Z</time>
      </trkpt>
      <trkpt lat="43.7421" lon="6.68452">
        <ele>1236.8</ele>
        <time>2024-05-26T12:47:40Z</time>
      </trkpt>
      <trkpt lat="43.74212" lon="6.68454">
        <ele>1236.7</ele>
        <time>2024-05-26T12:47:41Z</time>
      </trkpt>
      <trkpt lat="43.74213" lon="6.68454">
        <ele>1236.6</ele>
        <time>2024-05-26T12:47:42Z</time>
      </trkpt>
      <trkpt lat="43.74214" lon="6.68455">
        <ele>1236.4</ele>
        <time>2024-05-26T12:47:43Z</time>
      </trkpt>
      <trkpt lat="43.74215" lon="6.68455">
        <ele>1236.2</ele>
        <time>2024-05-26T12:47:44Z</time>
      </trkpt>
      <trkpt lat="43.74217" lon="6.68455">
        <ele>1236.1</ele>
        <time>2024-05-26T12:47:45Z</time>
      </trkpt>
      <trkpt lat="43.74218" lon="6.68456">
        <ele>1235.9</ele>
        <time>2024-05-26T12:47:46Z</time>
      </trkpt>
      <trkpt lat="43.74219" lon="6.68456">
        <ele>1235.9</ele>
        <time>2024-05-26T12:47:47Z</time>
      </trkpt>
      <trkpt lat="43.7422" lon="6.68457">
        <ele>1235.8</ele>
        <time>2024-05-26T12:47:48Z</time>
      </trkpt>
      <trkpt lat="43.74221" lon="6.68457">
        <ele>1235.7</ele>
        <time>2024-05-26T12:47:49Z</time>
      </trkpt>
      <trkpt lat="43.74222" lon="6.68456">
        <ele>1235.5</ele>
        <time>2024-05-26T12:47:50Z</time>
      </trkpt>
      <trkpt lat="43.74223" lon="6.68455">
        <ele>1235.5</ele>
        <time>2024-05-26T12:47:51Z</time>
      </trkpt>
      <trkpt lat="43.74224" lon="6.68454">
        <ele>1235.5</ele>
        <time>2024-05-26T12:47:52Z</time>
      </trkpt>
      <trkpt lat="43.74225" lon="6.68453">
        <ele>1235.5</ele>
        <time>2024-05-26T12:47:53Z</time>
      </trkpt>
      <trkpt lat="43.74226" lon="6.68453">
        <ele>1235.4</ele>
        <time>2024-05-26T12:47:54Z</time>
      </trkpt>
      <trkpt lat="43.74227" lon="6.68452">
        <ele>1235.3</ele>
        <time>2024-05-26T12:47:55Z</time>
      </trkpt>
      <trkpt lat="43.74227" lon="6.68451">
        <ele>1235.2</ele>
        <time>2024-05-26T12:47:56Z</time>
      </trkpt>
      <trkpt lat="43.74228" lon="6.68452">
        <ele>1235.1</ele>
        <time>2024-05-26T12:47:57Z</time>
      </trkpt>
      <trkpt lat="43.74229" lon="6.68451">
        <ele>1235.1</ele>
        <time>2024-05-26T12:47:58Z</time>
      </trkpt>
      <trkpt lat="43.74231" lon="6.68451">
        <ele>1235</ele>
        <time>2024-05-26T12:47:59Z</time>
      </trkpt>
      <trkpt lat="43.74232" lon="6.68451">
        <ele>1235</ele>
        <time>2024-05-26T12:48:00Z</time>
      </trkpt>
      <trkpt lat="43.74233" lon="6.6845">
        <ele>1235</ele>
        <time>2024-05-26T12:48:01Z</time>
      </trkpt>
      <trkpt lat="43.74234" lon="6.6845">
        <ele>1234.9</ele>
        <time>2024-05-26T12:48:02Z</time>
      </trkpt>
      <trkpt lat="43.74236" lon="6.6845">
        <ele>1234.8</ele>
        <time>2024-05-26T12:48:03Z</time>
      </trkpt>
      <trkpt lat="43.74237" lon="6.68449">
        <ele>1234.7</ele>
        <time>2024-05-26T12:48:04Z</time>
      </trkpt>
      <trkpt lat="43.74237" lon="6.68449">
        <ele>1234.5</ele>
        <time>2024-05-26T12:48:05Z</time>
      </trkpt>
      <trkpt lat="43.74238" lon="6.68448">
        <ele>1234.4</ele>
        <time>2024-05-26T12:48:06Z</time>
      </trkpt>
      <trkpt lat="43.74239" lon="6.68448">
        <ele>1234.3</ele>
        <time>2024-05-26T12:48:07Z</time>
      </trkpt>
      <trkpt lat="43.7424" lon="6.68448">
        <ele>1234.1</ele>
        <time>2024-05-26T12:48:08Z</time>
      </trkpt>
      <trkpt lat="43.7424" lon="6.68448">
        <ele>1234</ele>
        <time>2024-05-26T12:48:09Z</time>
      </trkpt>
      <trkpt lat="43.74241" lon="6.68449">
        <ele>1233.9</ele>
        <time>2024-05-26T12:48:10Z</time>
      </trkpt>
      <trkpt lat="43.74242" lon="6.68449">
        <ele>1233.8</ele>
        <time>2024-05-26T12:48:11Z</time>
      </trkpt>
      <trkpt lat="43.74243" lon="6.68449">
        <ele>1233.6</ele>
        <time>2024-05-26T12:48:12Z</time>
      </trkpt>
      <trkpt lat="43.74244" lon="6.68449">
        <ele>1233.4</ele>
        <time>2024-05-26T12:48:13Z</time>
      </trkpt>
      <trkpt lat="43.74245" lon="6.68449">
        <ele>1233.1</ele>
        <time>2024-05-26T12:48:14Z</time>
      </trkpt>
      <trkpt lat="43.74245" lon="6.68449">
        <ele>1232.8</ele>
        <time>2024-05-26T12:48:15Z</time>
      </trkpt>
      <trkpt lat="43.74246" lon="6.68449">
        <ele>1232.6</ele>
        <time>2024-05-26T12:48:16Z</time>
      </trkpt>
      <trkpt lat="43.74247" lon="6.68449">
        <ele>1232.4</ele>
        <time>2024-05-26T12:48:17Z</time>
      </trkpt>
      <trkpt lat="43.74248" lon="6.68449">
        <ele>1232.1</ele>
        <time>2024-05-26T12:48:18Z</time>
      </trkpt>
      <trkpt lat="43.74249" lon="6.6845">
        <ele>1231.9</ele>
        <time>2024-05-26T12:48:19Z</time>
      </trkpt>
      <trkpt lat="43.74249" lon="6.68449">
        <ele>1231.6</ele>
        <time>2024-05-26T12:48:20Z</time>
      </trkpt>
      <trkpt lat="43.74251" lon="6.68449">
        <ele>1231.4</ele>
        <time>2024-05-26T12:48:21Z</time>
      </trkpt>
      <trkpt lat="43.74252" lon="6.68449">
        <ele>1231.2</ele>
        <time>2024-05-26T12:48:22Z</time>
      </trkpt>
      <trkpt lat="43.74253" lon="6.68448">
        <ele>1231.1</ele>
        <time>2024-05-26T12:48:23Z</time>
      </trkpt>
      <trkpt lat="43.74253" lon="6.68448">
        <ele>1230.9</ele>
        <time>2024-05-26T12:48:24Z</time>
      </trkpt>
      <trkpt lat="43.74254" lon="6.68448">
        <ele>1230.8</ele>
        <time>2024-05-26T12:48:25Z</time>
      </trkpt>
      <trkpt lat="43.74255" lon="6.68447">
        <ele>1230.5</ele>
        <time>2024-05-26T12:48:26Z</time>
      </trkpt>
      <trkpt lat="43.74255" lon="6.68447">
        <ele>1230.3</ele>
        <time>2024-05-26T12:48:27Z</time>
      </trkpt>
      <trkpt lat="43.74255" lon="6.68446">
        <ele>1230.1</ele>
        <time>2024-05-26T12:48:28Z</time>
      </trkpt>
      <trkpt lat="43.74256" lon="6.68447">
        <ele>1229.9</ele>
        <time>2024-05-26T12:48:29Z</time>
      </trkpt>
      <trkpt lat="43.74256" lon="6.68446">
        <ele>1229.6</ele>
        <time>2024-05-26T12:48:30Z</time>
      </trkpt>
      <trkpt lat="43.74256" lon="6.68446">
        <ele>1229.3</ele>
        <time>2024-05-26T12:48:31Z</time>
      </trkpt>
      <trkpt lat="43.74256" lon="6.68445">
        <ele>1229.2</ele>
        <time>2024-05-26T12:48:32Z</time>
      </trkpt>
      <trkpt lat="43.74257" lon="6.68445">
        <ele>1229</ele>
        <time>2024-05-26T12:48:33Z</time>
      </trkpt>
      <trkpt lat="43.74257" lon="6.68445">
        <ele>1228.8</ele>
        <time>2024-05-26T12:48:34Z</time>
      </trkpt>
      <trkpt lat="43.74257" lon="6.68445">
        <ele>1228.6</ele>
        <time>2024-05-26T12:48:35Z</time>
      </trkpt>
      <trkpt lat="43.74258" lon="6.68445">
        <ele>1228.4</ele>
        <time>2024-05-26T12:48:36Z</time>
      </trkpt>
      <trkpt lat="43.74259" lon="6.68446">
        <ele>1228.3</ele>
        <time>2024-05-26T12:48:37Z</time>
      </trkpt>
      <trkpt lat="43.74259" lon="6.68445">
        <ele>1228</ele>
        <time>2024-05-26T12:48:38Z</time>
      </trkpt>
      <trkpt lat="43.7426" lon="6.68444">
        <ele>1227.8</ele>
        <time>2024-05-26T12:48:39Z</time>
      </trkpt>
      <trkpt lat="43.7426" lon="6.68443">
        <ele>1227.6</ele>
        <time>2024-05-26T12:48:40Z</time>
      </trkpt>
      <trkpt lat="43.7426" lon="6.68443">
        <ele>1227.5</ele>
        <time>2024-05-26T12:48:41Z</time>
      </trkpt>
      <trkpt lat="43.74262" lon="6.68443">
        <ele>1227.3</ele>
        <time>2024-05-26T12:48:42Z</time>
      </trkpt>
      <trkpt lat="43.74263" lon="6.68442">
        <ele>1227.1</ele>
        <time>2024-05-26T12:48:43Z</time>
      </trkpt>
      <trkpt lat="43.74264" lon="6.68441">
        <ele>1226.9</ele>
        <time>2024-05-26T12:48:44Z</time>
      </trkpt>
      <trkpt lat="43.74266" lon="6.68441">
        <ele>1226.7</ele>
        <time>2024-05-26T12:48:45Z</time>
      </trkpt>
      <trkpt lat="43.74268" lon="6.68442">
        <ele>1226.4</ele>
        <time>2024-05-26T12:48:46Z</time>
      </trkpt>
      <trkpt lat="43.74269" lon="6.68441">
        <ele>1226.2</ele>
        <time>2024-05-26T12:48:47Z</time>
      </trkpt>
      <trkpt lat="43.74269" lon="6.68439">
        <ele>1226</ele>
        <time>2024-05-26T12:48:48Z</time>
      </trkpt>
      <trkpt lat="43.7427" lon="6.68438">
        <ele>1225.8</ele>
        <time>2024-05-26T12:48:49Z</time>
      </trkpt>
      <trkpt lat="43.74271" lon="6.68438">
        <ele>1225.6</ele>
        <time>2024-05-26T12:48:50Z</time>
      </trkpt>
      <trkpt lat="43.74271" lon="6.68437">
        <ele>1225.6</ele>
        <time>2024-05-26T12:48:51Z</time>
      </trkpt>
      <trkpt lat="43.74272" lon="6.68436">
        <ele>1225.5</ele>
        <time>2024-05-26T12:48:52Z</time>
      </trkpt>
      <trkpt lat="43.74273" lon="6.68436">
        <ele>1225.4</ele>
        <time>2024-05-26T12:48:53Z</time>
      </trkpt>
      <trkpt lat="43.74274" lon="6.68435">
        <ele>1225.3</ele>
        <time>2024-05-26T12:48:54Z</time>
      </trkpt>
      <trkpt lat="43.74276" lon="6.68435">
        <ele>1225.2</ele>
        <time>2024-05-26T12:48:55Z</time>
      </trkpt>
      <trkpt lat="43.74277" lon="6.68434">
        <ele>1225.1</ele>
        <time>2024-05-26T12:48:56Z</time>
      </trkpt>
      <trkpt lat="43.74278" lon="6.68433">
        <ele>1225</ele>
        <time>2024-05-26T12:48:57Z</time>
      </trkpt>
      <trkpt lat="43.74279" lon="6.68433">
        <ele>1225</ele>
        <time>2024-05-26T12:48:58Z</time>
      </trkpt>
      <trkpt lat="43.74281" lon="6.68433">
        <ele>1224.9</ele>
        <time>2024-05-26T12:48:59Z</time>
      </trkpt>
      <trkpt lat="43.74281" lon="6.68433">
        <ele>1224.7</ele>
        <time>2024-05-26T12:49:00Z</time>
      </trkpt>
      <trkpt lat="43.74283" lon="6.68434">
        <ele>1224.4</ele>
        <time>2024-05-26T12:49:01Z</time>
      </trkpt>
      <trkpt lat="43.74283" lon="6.68434">
        <ele>1224.2</ele>
        <time>2024-05-26T12:49:02Z</time>
      </trkpt>
      <trkpt lat="43.74284" lon="6.68434">
        <ele>1224</ele>
        <time>2024-05-26T12:49:03Z</time>
      </trkpt>
      <trkpt lat="43.74284" lon="6.68433">
        <ele>1223.9</ele>
        <time>2024-05-26T12:49:04Z</time>
      </trkpt>
      <trkpt lat="43.74284" lon="6.68433">
        <ele>1223.8</ele>
        <time>2024-05-26T12:49:05Z</time>
      </trkpt>
      <trkpt lat="43.74285" lon="6.68432">
        <ele>1223.6</ele>
        <time>2024-05-26T12:49:06Z</time>
      </trkpt>
      <trkpt lat="43.74285" lon="6.68432">
        <ele>1223.5</ele>
        <time>2024-05-26T12:49:07Z</time>
      </trkpt>
      <trkpt lat="43.74286" lon="6.68432">
        <ele>1223.4</ele>
        <time>2024-05-26T12:49:08Z</time>
      </trkpt>
      <trkpt lat="43.74286" lon="6.68431">
        <ele>1223.3</ele>
        <time>2024-05-26T12:49:09Z</time>
      </trkpt>
      <trkpt lat="43.74287" lon="6.68431">
        <ele>1223.2</ele>
        <time>2024-05-26T12:49:10Z</time>
      </trkpt>
      <trkpt lat="43.74287" lon="6.68429">
        <ele>1223.1</ele>
        <time>2024-05-26T12:49:11Z</time>
      </trkpt>
      <trkpt lat="43.74289" lon="6.68429">
        <ele>1222.9</ele>
        <time>2024-05-26T12:49:12Z</time>
      </trkpt>
      <trkpt lat="43.7429" lon="6.68427">
        <ele>1222.7</ele>
        <time>2024-05-26T12:49:13Z</time>
      </trkpt>
      <trkpt lat="43.74291" lon="6.68426">
        <ele>1222.6</ele>
        <time>2024-05-26T12:49:14Z</time>
      </trkpt>
      <trkpt lat="43.74291" lon="6.68426">
        <ele>1222.4</ele>
        <time>2024-05-26T12:49:15Z</time>
      </trkpt>
      <trkpt lat="43.74292" lon="6.68426">
        <ele>1222.3</ele>
        <time>2024-05-26T12:49:16Z</time>
      </trkpt>
      <trkpt lat="43.74292" lon="6.68426">
        <ele>1222.2</ele>
        <time>2024-05-26T12:49:17Z</time>
      </trkpt>
      <trkpt lat="43.74292" lon="6.68426">
        <ele>1222.1</ele>
        <time>2024-05-26T12:49:18Z</time>
      </trkpt>
      <trkpt lat="43.74292" lon="6.68425">
        <ele>1222</ele>
        <time>2024-05-26T12:49:19Z</time>
      </trkpt>
      <trkpt lat="43.74293" lon="6.68425">
        <ele>1221.9</ele>
        <time>2024-05-26T12:49:20Z</time>
      </trkpt>
      <trkpt lat="43.74294" lon="6.68425">
        <ele>1221.9</ele>
        <time>2024-05-26T12:49:21Z</time>
      </trkpt>
      <trkpt lat="43.74295" lon="6.68426">
        <ele>1221.8</ele>
        <time>2024-05-26T12:49:22Z</time>
      </trkpt>
      <trkpt lat="43.74296" lon="6.68426">
        <ele>1221.8</ele>
        <time>2024-05-26T12:49:23Z</time>
      </trkpt>
      <trkpt lat="43.74296" lon="6.68426">
        <ele>1221.6</ele>
        <time>2024-05-26T12:49:24Z</time>
      </trkpt>
      <trkpt lat="43.74296" lon="6.68426">
        <ele>1221.4</ele>
        <time>2024-05-26T12:49:25Z</time>
      </trkpt>
      <trkpt lat="43.74296" lon="6.68425">
        <ele>1221.4</ele>
        <time>2024-05-26T12:49:26Z</time>
      </trkpt>
      <trkpt lat="43.74297" lon="6.68425">
        <ele>1221.2</ele>
        <time>2024-05-26T12:49:27Z</time>
      </trkpt>
      <trkpt lat="43.74297" lon="6.68425">
        <ele>1221</ele>
        <time>2024-05-26T12:49:28Z</time>
      </trkpt>
      <trkpt lat="43.74298" lon="6.68426">
        <ele>1220.9</ele>
        <time>2024-05-26T12:49:29Z</time>
      </trkpt>
      <trkpt lat="43.74298" lon="6.68425">
        <ele>1220.8</ele>
        <time>2024-05-26T12:49:30Z</time>
      </trkpt>
      <trkpt lat="43.74298" lon="6.68425">
        <ele>1220.6</ele>
        <time>2024-05-26T12:49:31Z</time>
      </trkpt>
      <trkpt lat="43.74299" lon="6.68425">
        <ele>1220.5</ele>
        <time>2024-05-26T12:49:32Z</time>
      </trkpt>
      <trkpt lat="43.74299" lon="6.68424">
        <ele>1220.2</ele>
        <time>2024-05-26T12:49:33Z</time>
      </trkpt>
      <trkpt lat="43.743" lon="6.68424">
        <ele>1220</ele>
        <time>2024-05-26T12:49:34Z</time>
      </trkpt>
      <trkpt lat="43.743" lon="6.68422">
        <ele>1219.8</ele>
        <time>2024-05-26T12:49:35Z</time>
      </trkpt>
      <trkpt lat="43.743" lon="6.68422">
        <ele>1219.7</ele>
        <time>2024-05-26T12:49:36Z</time>
      </trkpt>
      <trkpt lat="43.74301" lon="6.68421">
        <ele>1219.4</ele>
        <time>2024-05-26T12:49:37Z</time>
      </trkpt>
      <trkpt lat="43.74302" lon="6.68421">
        <ele>1219.2</ele>
        <time>2024-05-26T12:49:38Z</time>
      </trkpt>
      <trkpt lat="43.74304" lon="6.68421">
        <ele>1219.2</ele>
        <time>2024-05-26T12:49:39Z</time>
      </trkpt>
      <trkpt lat="43.74304" lon="6.68421">
        <ele>1219.1</ele>
        <time>2024-05-26T12:49:40Z</time>
      </trkpt>
      <trkpt lat="43.74305" lon="6.6842">
        <ele>1218.9</ele>
        <time>2024-05-26T12:49:41Z</time>
      </trkpt>
      <trkpt lat="43.74306" lon="6.68421">
        <ele>1218.7</ele>
        <time>2024-05-26T12:49:42Z</time>
      </trkpt>
      <trkpt lat="43.74307" lon="6.6842">
        <ele>1218.5</ele>
        <time>2024-05-26T12:49:43Z</time>
      </trkpt>
      <trkpt lat="43.74308" lon="6.6842">
        <ele>1218.4</ele>
        <time>2024-05-26T12:49:44Z</time>
      </trkpt>
      <trkpt lat="43.74309" lon="6.6842">
        <ele>1218.3</ele>
        <time>2024-05-26T12:49:45Z</time>
      </trkpt>
      <trkpt lat="43.74309" lon="6.6842">
        <ele>1218.1</ele>
        <time>2024-05-26T12:49:46Z</time>
      </trkpt>
      <trkpt lat="43.74309" lon="6.68418">
        <ele>1217.9</ele>
        <time>2024-05-26T12:49:47Z</time>
      </trkpt>
      <trkpt lat="43.7431" lon="6.68418">
        <ele>1217.7</ele>
        <time>2024-05-26T12:49:48Z</time>
      </trkpt>
      <trkpt lat="43.7431" lon="6.68414">
        <ele>1217.5</ele>
        <time>2024-05-26T12:49:49Z</time>
      </trkpt>
      <trkpt lat="43.7431" lon="6.68414">
        <ele>1217.4</ele>
        <time>2024-05-26T12:49:50Z</time>
      </trkpt>
      <trkpt lat="43.74309" lon="6.68414">
        <ele>1217.2</ele>
        <time>2024-05-26T12:49:51Z</time>
      </trkpt>
      <trkpt lat="43.7431" lon="6.68414">
        <ele>1217</ele>
        <time>2024-05-26T12:49:52Z</time>
      </trkpt>
      <trkpt lat="43.7431" lon="6.68414">
        <ele>1216.7</ele>
        <time>2024-05-26T12:49:53Z</time>
      </trkpt>
      <trkpt lat="43.74309" lon="6.68414">
        <ele>1216.5</ele>
        <time>2024-05-26T12:49:54Z</time>
      </trkpt>
      <trkpt lat="43.7431" lon="6.68414">
        <ele>1216.3</ele>
        <time>2024-05-26T12:49:55Z</time>
      </trkpt>
      <trkpt lat="43.7431" lon="6.68415">
        <ele>1216.1</ele>
        <time>2024-05-26T12:49:56Z</time>
      </trkpt>
      <trkpt lat="43.7431" lon="6.68415">
        <ele>1215.9</ele>
        <time>2024-05-26T12:49:57Z</time>
      </trkpt>
      <trkpt lat="43.7431" lon="6.68415">
        <ele>1215.7</ele>
        <time>2024-05-26T12:49:58Z</time>
      </trkpt>
      <trkpt lat="43.74309" lon="6.68413">
        <ele>1215.5</ele>
        <time>2024-05-26T12:49:59Z</time>
      </trkpt>
      <trkpt lat="43.74309" lon="6.68413">
        <ele>1215.2</ele>
        <time>2024-05-26T12:50:00Z</time>
      </trkpt>
      <trkpt lat="43.74308" lon="6.68412">
        <ele>1215</ele>
        <time>2024-05-26T12:50:01Z</time>
      </trkpt>
      <trkpt lat="43.74306" lon="6.68412">
        <ele>1214.8</ele>
        <time>2024-05-26T12:50:02Z</time>
      </trkpt>
      <trkpt lat="43.74307" lon="6.68412">
        <ele>1214.6</ele>
        <time>2024-05-26T12:50:03Z</time>
      </trkpt>
      <trkpt lat="43.74305" lon="6.68413">
        <ele>1214.5</ele>
        <time>2024-05-26T12:50:04Z</time>
      </trkpt>
      <trkpt lat="43.74305" lon="6.68413">
        <ele>1214.3</ele>
        <time>2024-05-26T12:50:05Z</time>
      </trkpt>
      <trkpt lat="43.74304" lon="6.68413">
        <ele>1214.1</ele>
        <time>2024-05-26T12:50:06Z</time>
      </trkpt>
      <trkpt lat="43.74304" lon="6.68414">
        <ele>1213.9</ele>
        <time>2024-05-26T12:50:07Z</time>
      </trkpt>
      <trkpt lat="43.74304" lon="6.68415">
        <ele>1213.8</ele>
        <time>2024-05-26T12:50:08Z</time>
      </trkpt>
      <trkpt lat="43.74303" lon="6.68416">
        <ele>1213.7</ele>
        <time>2024-05-26T12:50:09Z</time>
      </trkpt>
      <trkpt lat="43.74305" lon="6.68417">
        <ele>1213.6</ele>
        <time>2024-05-26T12:50:10Z</time>
      </trkpt>
      <trkpt lat="43.74304" lon="6.68418">
        <ele>1213.5</ele>
        <time>2024-05-26T12:50:11Z</time>
      </trkpt>
      <trkpt lat="43.74304" lon="6.68419">
        <ele>1213.4</ele>
        <time>2024-05-26T12:50:12Z</time>
      </trkpt>
      <trkpt lat="43.74304" lon="6.6842">
        <ele>1213.3</ele>
        <time>2024-05-26T12:50:13Z</time>
      </trkpt>
      <trkpt lat="43.74304" lon="6.68421">
        <ele>1213.3</ele>
        <time>2024-05-26T12:50:14Z</time>
      </trkpt>
      <trkpt lat="43.74303" lon="6.68421">
        <ele>1213.1</ele>
        <time>2024-05-26T12:50:15Z</time>
      </trkpt>
      <trkpt lat="43.74303" lon="6.68422">
        <ele>1213.1</ele>
        <time>2024-05-26T12:50:16Z</time>
      </trkpt>
      <trkpt lat="43.74302" lon="6.68423">
        <ele>1212.9</ele>
        <time>2024-05-26T12:50:17Z</time>
      </trkpt>
      <trkpt lat="43.74302" lon="6.68423">
        <ele>1212.8</ele>
        <time>2024-05-26T12:50:18Z</time>
      </trkpt>
      <trkpt lat="43.74301" lon="6.68424">
        <ele>1212.6</ele>
        <time>2024-05-26T12:50:19Z</time>
      </trkpt>
      <trkpt lat="43.74301" lon="6.68425">
        <ele>1212.5</ele>
        <time>2024-05-26T12:50:20Z</time>
      </trkpt>
      <trkpt lat="43.743" lon="6.68425">
        <ele>1212.3</ele>
        <time>2024-05-26T12:50:21Z</time>
      </trkpt>
      <trkpt lat="43.743" lon="6.68426">
        <ele>1212.2</ele>
        <time>2024-05-26T12:50:22Z</time>
      </trkpt>
      <trkpt lat="43.743" lon="6.68426">
        <ele>1212</ele>
        <time>2024-05-26T12:50:23Z</time>
      </trkpt>
      <trkpt lat="43.743" lon="6.68427">
        <ele>1211.9</ele>
        <time>2024-05-26T12:50:24Z</time>
      </trkpt>
      <trkpt lat="43.743" lon="6.68428">
        <ele>1211.7</ele>
        <time>2024-05-26T12:50:25Z</time>
      </trkpt>
      <trkpt lat="43.74299" lon="6.68429">
        <ele>1211.5</ele>
        <time>2024-05-26T12:50:26Z</time>
      </trkpt>
      <trkpt lat="43.743" lon="6.6843">
        <ele>1211.3</ele>
        <time>2024-05-26T12:50:27Z</time>
      </trkpt>
      <trkpt lat="43.743" lon="6.68431">
        <ele>1211.2</ele>
        <time>2024-05-26T12:50:28Z</time>
      </trkpt>
      <trkpt lat="43.74301" lon="6.68432">
        <ele>1211.1</ele>
        <time>2024-05-26T12:50:29Z</time>
      </trkpt>
      <trkpt lat="43.743" lon="6.68433">
        <ele>1211</ele>
        <time>2024-05-26T12:50:30Z</time>
      </trkpt>
      <trkpt lat="43.74299" lon="6.68433">
        <ele>1210.8</ele>
        <time>2024-05-26T12:50:31Z</time>
      </trkpt>
      <trkpt lat="43.74298" lon="6.68435">
        <ele>1210.6</ele>
        <time>2024-05-26T12:50:32Z</time>
      </trkpt>
      <trkpt lat="43.74296" lon="6.68435">
        <ele>1210.5</ele>
        <time>2024-05-26T12:50:33Z</time>
      </trkpt>
      <trkpt lat="43.74296" lon="6.68436">
        <ele>1210.4</ele>
        <time>2024-05-26T12:50:34Z</time>
      </trkpt>
      <trkpt lat="43.74295" lon="6.68438">
        <ele>1210.3</ele>
        <time>2024-05-26T12:50:35Z</time>
      </trkpt>
      <trkpt lat="43.74295" lon="6.68439">
        <ele>1210.1</ele>
        <time>2024-05-26T12:50:36Z</time>
      </trkpt>
      <trkpt lat="43.74294" lon="6.6844">
        <ele>1209.9</ele>
        <time>2024-05-26T12:50:37Z</time>
      </trkpt>
      <trkpt lat="43.74294" lon="6.68442">
        <ele>1209.7</ele>
        <time>2024-05-26T12:50:38Z</time>
      </trkpt>
      <trkpt lat="43.74292" lon="6.68442">
        <ele>1209.5</ele>
        <time>2024-05-26T12:50:39Z</time>
      </trkpt>
      <trkpt lat="43.74293" lon="6.68445">
        <ele>1209.4</ele>
        <time>2024-05-26T12:50:40Z</time>
      </trkpt>
      <trkpt lat="43.74292" lon="6.68446">
        <ele>1209.2</ele>
        <time>2024-05-26T12:50:41Z</time>
      </trkpt>
      <trkpt lat="43.74292" lon="6.68448">
        <ele>1209</ele>
        <time>2024-05-26T12:50:42Z</time>
      </trkpt>
      <trkpt lat="43.74292" lon="6.68448">
        <ele>1208.9</ele>
        <time>2024-05-26T12:50:43Z</time>
      </trkpt>
      <trkpt lat="43.74291" lon="6.68449">
        <ele>1208.7</ele>
        <time>2024-05-26T12:50:44Z</time>
      </trkpt>
      <trkpt lat="43.7429" lon="6.68449">
        <ele>1208.6</ele>
        <time>2024-05-26T12:50:45Z</time>
      </trkpt>
      <trkpt lat="43.7429" lon="6.6845">
        <ele>1208.4</ele>
        <time>2024-05-26T12:50:46Z</time>
      </trkpt>
      <trkpt lat="43.7429" lon="6.68451">
        <ele>1208.2</ele>
        <time>2024-05-26T12:50:47Z</time>
      </trkpt>
      <trkpt lat="43.7429" lon="6.68452">
        <ele>1208.1</ele>
        <time>2024-05-26T12:50:48Z</time>
      </trkpt>
      <trkpt lat="43.7429" lon="6.68452">
        <ele>1208</ele>
        <time>2024-05-26T12:50:49Z</time>
      </trkpt>
      <trkpt lat="43.7429" lon="6.68452">
        <ele>1208</ele>
        <time>2024-05-26T12:50:50Z</time>
      </trkpt>
      <trkpt lat="43.74291" lon="6.68453">
        <ele>1207.8</ele>
        <time>2024-05-26T12:50:51Z</time>
      </trkpt>
      <trkpt lat="43.74288" lon="6.68453">
        <ele>1207.7</ele>
        <time>2024-05-26T12:50:52Z</time>
      </trkpt>
      <trkpt lat="43.74288" lon="6.68454">
        <ele>1207.5</ele>
        <time>2024-05-26T12:50:53Z</time>
      </trkpt>
      <trkpt lat="43.74288" lon="6.68454">
        <ele>1207.3</ele>
        <time>2024-05-26T12:50:54Z</time>
      </trkpt>
      <trkpt lat="43.74288" lon="6.68454">
        <ele>1207.2</ele>
        <time>2024-05-26T12:50:55Z</time>
      </trkpt>
      <trkpt lat="43.74288" lon="6.68455">
        <ele>1207.2</ele>
        <time>2024-05-26T12:50:56Z</time>
      </trkpt>
      <trkpt lat="43.74289" lon="6.68457">
        <ele>1207.2</ele>
        <time>2024-05-26T12:50:57Z</time>
      </trkpt>
      <trkpt lat="43.74289" lon="6.68458">
        <ele>1207</ele>
        <time>2024-05-26T12:50:58Z</time>
      </trkpt>
      <trkpt lat="43.74288" lon="6.6846">
        <ele>1206.9</ele>
        <time>2024-05-26T12:50:59Z</time>
      </trkpt>
      <trkpt lat="43.74288" lon="6.68461">
        <ele>1206.8</ele>
        <time>2024-05-26T12:51:00Z</time>
      </trkpt>
      <trkpt lat="43.74288" lon="6.68464">
        <ele>1206.7</ele>
        <time>2024-05-26T12:51:01Z</time>
      </trkpt>
      <trkpt lat="43.74288" lon="6.68465">
        <ele>1206.6</ele>
        <time>2024-05-26T12:51:02Z</time>
      </trkpt>
      <trkpt lat="43.74287" lon="6.68465">
        <ele>1206.4</ele>
        <time>2024-05-26T12:51:03Z</time>
      </trkpt>
      <trkpt lat="43.74286" lon="6.68465">
        <ele>1206.3</ele>
        <time>2024-05-26T12:51:04Z</time>
      </trkpt>
      <trkpt lat="43.74286" lon="6.68466">
        <ele>1206.2</ele>
        <time>2024-05-26T12:51:05Z</time>
      </trkpt>
      <trkpt lat="43.74287" lon="6.68468">
        <ele>1206.1</ele>
        <time>2024-05-26T12:51:06Z</time>
      </trkpt>
      <trkpt lat="43.74286" lon="6.68468">
        <ele>1206</ele>
        <time>2024-05-26T12:51:07Z</time>
      </trkpt>
      <trkpt lat="43.74284" lon="6.68469">
        <ele>1206</ele>
        <time>2024-05-26T12:51:08Z</time>
      </trkpt>
      <trkpt lat="43.74283" lon="6.6847">
        <ele>1206</ele>
        <time>2024-05-26T12:51:09Z</time>
      </trkpt>
      <trkpt lat="43.74283" lon="6.68471">
        <ele>1205.9</ele>
        <time>2024-05-26T12:51:10Z</time>
      </trkpt>
      <trkpt lat="43.74283" lon="6.68472">
        <ele>1205.8</ele>
        <time>2024-05-26T12:51:11Z</time>
      </trkpt>
      <trkpt lat="43.74281" lon="6.68473">
        <ele>1205.7</ele>
        <time>2024-05-26T12:51:12Z</time>
      </trkpt>
      <trkpt lat="43.74279" lon="6.68473">
        <ele>1205.6</ele>
        <time>2024-05-26T12:51:13Z</time>
      </trkpt>
      <trkpt lat="43.74277" lon="6.68474">
        <ele>1205.6</ele>
        <time>2024-05-26T12:51:14Z</time>
      </trkpt>
      <trkpt lat="43.74276" lon="6.68475">
        <ele>1205.5</ele>
        <time>2024-05-26T12:51:15Z</time>
      </trkpt>
      <trkpt lat="43.74275" lon="6.68476">
        <ele>1205.4</ele>
        <time>2024-05-26T12:51:16Z</time>
      </trkpt>
      <trkpt lat="43.74274" lon="6.68478">
        <ele>1205.4</ele>
        <time>2024-05-26T12:51:17Z</time>
      </trkpt>
      <trkpt lat="43.74273" lon="6.68479">
        <ele>1205.3</ele>
        <time>2024-05-26T12:51:18Z</time>
      </trkpt>
      <trkpt lat="43.74272" lon="6.6848">
        <ele>1205.1</ele>
        <time>2024-05-26T12:51:19Z</time>
      </trkpt>
      <trkpt lat="43.74271" lon="6.68481">
        <ele>1205.1</ele>
        <time>2024-05-26T12:51:20Z</time>
      </trkpt>
      <trkpt lat="43.7427" lon="6.68482">
        <ele>1204.9</ele>
        <time>2024-05-26T12:51:21Z</time>
      </trkpt>
      <trkpt lat="43.74271" lon="6.68484">
        <ele>1205</ele>
        <time>2024-05-26T12:51:22Z</time>
      </trkpt>
      <trkpt lat="43.74271" lon="6.68485">
        <ele>1205</ele>
        <time>2024-05-26T12:51:23Z</time>
      </trkpt>
      <trkpt lat="43.74271" lon="6.68487">
        <ele>1204.8</ele>
        <time>2024-05-26T12:51:24Z</time>
      </trkpt>
      <trkpt lat="43.74269" lon="6.68489">
        <ele>1204.7</ele>
        <time>2024-05-26T12:51:25Z</time>
      </trkpt>
      <trkpt lat="43.74268" lon="6.6849">
        <ele>1204.8</ele>
        <time>2024-05-26T12:51:26Z</time>
      </trkpt>
      <trkpt lat="43.74267" lon="6.68492">
        <ele>1204.6</ele>
        <time>2024-05-26T12:51:27Z</time>
      </trkpt>
      <trkpt lat="43.74266" lon="6.68493">
        <ele>1204.5</ele>
        <time>2024-05-26T12:51:28Z</time>
      </trkpt>
      <trkpt lat="43.74265" lon="6.68494">
        <ele>1204.3</ele>
        <time>2024-05-26T12:51:29Z</time>
      </trkpt>
      <trkpt lat="43.74264" lon="6.68494">
        <ele>1204.2</ele>
        <time>2024-05-26T12:51:30Z</time>
      </trkpt>
      <trkpt lat="43.74264" lon="6.68496">
        <ele>1204.1</ele>
        <time>2024-05-26T12:51:31Z</time>
      </trkpt>
      <trkpt lat="43.74263" lon="6.68497">
        <ele>1204</ele>
        <time>2024-05-26T12:51:32Z</time>
      </trkpt>
      <trkpt lat="43.74263" lon="6.68498">
        <ele>1203.9</ele>
        <time>2024-05-26T12:51:33Z</time>
      </trkpt>
      <trkpt lat="43.74262" lon="6.68499">
        <ele>1203.9</ele>
        <time>2024-05-26T12:51:34Z</time>
      </trkpt>
      <trkpt lat="43.74261" lon="6.685">
        <ele>1203.9</ele>
        <time>2024-05-26T12:51:35Z</time>
      </trkpt>
      <trkpt lat="43.74261" lon="6.68502">
        <ele>1203.9</ele>
        <time>2024-05-26T12:51:36Z</time>
      </trkpt>
      <trkpt lat="43.74261" lon="6.68504">
        <ele>1203.9</ele>
        <time>2024-05-26T12:51:37Z</time>
      </trkpt>
      <trkpt lat="43.74262" lon="6.68505">
        <ele>1203.8</ele>
        <time>2024-05-26T12:51:38Z</time>
      </trkpt>
      <trkpt lat="43.74262" lon="6.68506">
        <ele>1203.8</ele>
        <time>2024-05-26T12:51:39Z</time>
      </trkpt>
      <trkpt lat="43.74261" lon="6.68507">
        <ele>1203.7</ele>
        <time>2024-05-26T12:51:40Z</time>
      </trkpt>
      <trkpt lat="43.7426" lon="6.68508">
        <ele>1203.7</ele>
        <time>2024-05-26T12:51:41Z</time>
      </trkpt>
      <trkpt lat="43.7426" lon="6.6851">
        <ele>1203.7</ele>
        <time>2024-05-26T12:51:42Z</time>
      </trkpt>
      <trkpt lat="43.74259" lon="6.6851">
        <ele>1203.7</ele>
        <time>2024-05-26T12:51:43Z</time>
      </trkpt>
      <trkpt lat="43.74259" lon="6.68511">
        <ele>1203.6</ele>
        <time>2024-05-26T12:51:44Z</time>
      </trkpt>
      <trkpt lat="43.74258" lon="6.68512">
        <ele>1203.6</ele>
        <time>2024-05-26T12:51:45Z</time>
      </trkpt>
      <trkpt lat="43.74257" lon="6.68512">
        <ele>1203.5</ele>
        <time>2024-05-26T12:51:46Z</time>
      </trkpt>
      <trkpt lat="43.74257" lon="6.68514">
        <ele>1203.4</ele>
        <time>2024-05-26T12:51:47Z</time>
      </trkpt>
      <trkpt lat="43.74256" lon="6.68515">
        <ele>1203.3</ele>
        <time>2024-05-26T12:51:48Z</time>
      </trkpt>
      <trkpt lat="43.74255" lon="6.68516">
        <ele>1203.3</ele>
        <time>2024-05-26T12:51:49Z</time>
      </trkpt>
      <trkpt lat="43.74254" lon="6.68517">
        <ele>1203.3</ele>
        <time>2024-05-26T12:51:50Z</time>
      </trkpt>
      <trkpt lat="43.74254" lon="6.68518">
        <ele>1203.3</ele>
        <time>2024-05-26T12:51:51Z</time>
      </trkpt>
      <trkpt lat="43.74254" lon="6.68518">
        <ele>1203.2</ele>
        <time>2024-05-26T12:51:52Z</time>
      </trkpt>
      <trkpt lat="43.74253" lon="6.68519">
        <ele>1203.1</ele>
        <time>2024-05-26T12:51:53Z</time>
      </trkpt>
      <trkpt lat="43.74252" lon="6.68519">
        <ele>1202.9</ele>
        <time>2024-05-26T12:51:54Z</time>
      </trkpt>
      <trkpt lat="43.74252" lon="6.6852">
        <ele>1202.8</ele>
        <time>2024-05-26T12:51:55Z</time>
      </trkpt>
      <trkpt lat="43.74251" lon="6.68521">
        <ele>1202.7</ele>
        <time>2024-05-26T12:51:56Z</time>
      </trkpt>
      <trkpt lat="43.74251" lon="6.68522">
        <ele>1202.7</ele>
        <time>2024-05-26T12:51:57Z</time>
      </trkpt>
      <trkpt lat="43.74251" lon="6.68523">
        <ele>1202.6</ele>
        <time>2024-05-26T12:51:58Z</time>
      </trkpt>
      <trkpt lat="43.7425" lon="6.68523">
        <ele>1202.5</ele>
        <time>2024-05-26T12:51:59Z</time>
      </trkpt>
      <trkpt lat="43.7425" lon="6.68524">
        <ele>1202.4</ele>
        <time>2024-05-26T12:52:00Z</time>
      </trkpt>
      <trkpt lat="43.7425" lon="6.68525">
        <ele>1202.4</ele>
        <time>2024-05-26T12:52:01Z</time>
      </trkpt>
      <trkpt lat="43.7425" lon="6.68525">
        <ele>1202.3</ele>
        <time>2024-05-26T12:52:02Z</time>
      </trkpt>
      <trkpt lat="43.74249" lon="6.68526">
        <ele>1202.1</ele>
        <time>2024-05-26T12:52:03Z</time>
      </trkpt>
      <trkpt lat="43.74248" lon="6.68526">
        <ele>1201.9</ele>
        <time>2024-05-26T12:52:04Z</time>
      </trkpt>
      <trkpt lat="43.74248" lon="6.68526">
        <ele>1201.8</ele>
        <time>2024-05-26T12:52:05Z</time>
      </trkpt>
      <trkpt lat="43.74248" lon="6.68527">
        <ele>1201.7</ele>
        <time>2024-05-26T12:52:06Z</time>
      </trkpt>
      <trkpt lat="43.74248" lon="6.68528">
        <ele>1201.7</ele>
        <time>2024-05-26T12:52:07Z</time>
      </trkpt>
      <trkpt lat="43.74248" lon="6.68528">
        <ele>1201.6</ele>
        <time>2024-05-26T12:52:08Z</time>
      </trkpt>
      <trkpt lat="43.74247" lon="6.68529">
        <ele>1201.6</ele>
        <time>2024-05-26T12:52:09Z</time>
      </trkpt>
      <trkpt lat="43.74247" lon="6.68529">
        <ele>1201.5</ele>
        <time>2024-05-26T12:52:10Z</time>
      </trkpt>
      <trkpt lat="43.74247" lon="6.68529">
        <ele>1201.5</ele>
        <time>2024-05-26T12:52:11Z</time>
      </trkpt>
      <trkpt lat="43.74247" lon="6.68529">
        <ele>1201.4</ele>
        <time>2024-05-26T12:52:12Z</time>
      </trkpt>
      <trkpt lat="43.74247" lon="6.6853">
        <ele>1201.3</ele>
        <time>2024-05-26T12:52:13Z</time>
      </trkpt>
      <trkpt lat="43.74246" lon="6.6853">
        <ele>1201.2</ele>
        <time>2024-05-26T12:52:14Z</time>
      </trkpt>
      <trkpt lat="43.74246" lon="6.6853">
        <ele>1201.1</ele>
        <time>2024-05-26T12:52:15Z</time>
      </trkpt>
      <trkpt lat="43.74246" lon="6.68531">
        <ele>1201</ele>
        <time>2024-05-26T12:52:16Z</time>
      </trkpt>
      <trkpt lat="43.74247" lon="6.68532">
        <ele>1200.9</ele>
        <time>2024-05-26T12:52:17Z</time>
      </trkpt>
      <trkpt lat="43.74247" lon="6.68532">
        <ele>1200.9</ele>
        <time>2024-05-26T12:52:18Z</time>
      </trkpt>
      <trkpt lat="43.74247" lon="6.68533">
        <ele>1200.7</ele>
        <time>2024-05-26T12:52:19Z</time>
      </trkpt>
      <trkpt lat="43.74246" lon="6.68533">
        <ele>1200.6</ele>
        <time>2024-05-26T12:52:20Z</time>
      </trkpt>
      <trkpt lat="43.74245" lon="6.68534">
        <ele>1200.5</ele>
        <time>2024-05-26T12:52:21Z</time>
      </trkpt>
      <trkpt lat="43.74244" lon="6.68535">
        <ele>1200.3</ele>
        <time>2024-05-26T12:52:22Z</time>
      </trkpt>
      <trkpt lat="43.74244" lon="6.68536">
        <ele>1200.1</ele>
        <time>2024-05-26T12:52:23Z</time>
      </trkpt>
      <trkpt lat="43.74244" lon="6.68536">
        <ele>1199.9</ele>
        <time>2024-05-26T12:52:24Z</time>
      </trkpt>
      <trkpt lat="43.74243" lon="6.68537">
        <ele>1199.8</ele>
        <time>2024-05-26T12:52:25Z</time>
      </trkpt>
      <trkpt lat="43.74243" lon="6.68538">
        <ele>1199.6</ele>
        <time>2024-05-26T12:52:26Z</time>
      </trkpt>
      <trkpt lat="43.74243" lon="6.68539">
        <ele>1199.4</ele>
        <time>2024-05-26T12:52:27Z</time>
      </trkpt>
      <trkpt lat="43.74242" lon="6.6854">
        <ele>1199.3</ele>
        <time>2024-05-26T12:52:28Z</time>
      </trkpt>
      <trkpt lat="43.74241" lon="6.68541">
        <ele>1199.2</ele>
        <time>2024-05-26T12:52:29Z</time>
      </trkpt>
      <trkpt lat="43.74241" lon="6.68541">
        <ele>1199</ele>
        <time>2024-05-26T12:52:30Z</time>
      </trkpt>
      <trkpt lat="43.74241" lon="6.68543">
        <ele>1198.9</ele>
        <time>2024-05-26T12:52:31Z</time>
      </trkpt>
      <trkpt lat="43.74241" lon="6.68543">
        <ele>1198.9</ele>
        <time>2024-05-26T12:52:32Z</time>
      </trkpt>
      <trkpt lat="43.74241" lon="6.68544">
        <ele>1198.8</ele>
        <time>2024-05-26T12:52:33Z</time>
      </trkpt>
      <trkpt lat="43.7424" lon="6.68545">
        <ele>1198.6</ele>
        <time>2024-05-26T12:52:34Z</time>
      </trkpt>
      <trkpt lat="43.74239" lon="6.68546">
        <ele>1198.5</ele>
        <time>2024-05-26T12:52:35Z</time>
      </trkpt>
      <trkpt lat="43.74239" lon="6.68546">
        <ele>1198.3</ele>
        <time>2024-05-26T12:52:36Z</time>
      </trkpt>
      <trkpt lat="43.74239" lon="6.68547">
        <ele>1198.2</ele>
        <time>2024-05-26T12:52:37Z</time>
      </trkpt>
      <trkpt lat="43.74238" lon="6.68547">
        <ele>1198.1</ele>
        <time>2024-05-26T12:52:38Z</time>
      </trkpt>
      <trkpt lat="43.74238" lon="6.68548">
        <ele>1198</ele>
        <time>2024-05-26T12:52:39Z</time>
      </trkpt>
      <trkpt lat="43.74237" lon="6.68549">
        <ele>1197.9</ele>
        <time>2024-05-26T12:52:40Z</time>
      </trkpt>
      <trkpt lat="43.74236" lon="6.68549">
        <ele>1197.8</ele>
        <time>2024-05-26T12:52:41Z</time>
      </trkpt>
      <trkpt lat="43.74236" lon="6.6855">
        <ele>1197.7</ele>
        <time>2024-05-26T12:52:42Z</time>
      </trkpt>
      <trkpt lat="43.74235" lon="6.68551">
        <ele>1197.6</ele>
        <time>2024-05-26T12:52:43Z</time>
      </trkpt>
      <trkpt lat="43.74235" lon="6.68552">
        <ele>1197.4</ele>
        <time>2024-05-26T12:52:44Z</time>
      </trkpt>
      <trkpt lat="43.74234" lon="6.68553">
        <ele>1197.2</ele>
        <time>2024-05-26T12:52:45Z</time>
      </trkpt>
      <trkpt lat="43.74234" lon="6.68553">
        <ele>1197.1</ele>
        <time>2024-05-26T12:52:46Z</time>
      </trkpt>
      <trkpt lat="43.74233" lon="6.68554">
        <ele>1197</ele>
        <time>2024-05-26T12:52:47Z</time>
      </trkpt>
      <trkpt lat="43.74232" lon="6.68554">
        <ele>1196.8</ele>
        <time>2024-05-26T12:52:48Z</time>
      </trkpt>
      <trkpt lat="43.74231" lon="6.68555">
        <ele>1196.6</ele>
        <time>2024-05-26T12:52:49Z</time>
      </trkpt>
      <trkpt lat="43.74231" lon="6.68556">
        <ele>1196.5</ele>
        <time>2024-05-26T12:52:50Z</time>
      </trkpt>
      <trkpt lat="43.74231" lon="6.68557">
        <ele>1196.4</ele>
        <time>2024-05-26T12:52:51Z</time>
      </trkpt>
      <trkpt lat="43.7423" lon="6.68558">
        <ele>1196.4</ele>
        <time>2024-05-26T12:52:52Z</time>
      </trkpt>
      <trkpt lat="43.7423" lon="6.68558">
        <ele>1196.3</ele>
        <time>2024-05-26T12:52:53Z</time>
      </trkpt>
      <trkpt lat="43.74229" lon="6.68559">
        <ele>1196.2</ele>
        <time>2024-05-26T12:52:54Z</time>
      </trkpt>
      <trkpt lat="43.74228" lon="6.68559">
        <ele>1196.1</ele>
        <time>2024-05-26T12:52:55Z</time>
      </trkpt>
      <trkpt lat="43.74227" lon="6.6856">
        <ele>1196.1</ele>
        <time>2024-05-26T12:52:56Z</time>
      </trkpt>
      <trkpt lat="43.74226" lon="6.6856">
        <ele>1195.9</ele>
        <time>2024-05-26T12:52:57Z</time>
      </trkpt>
      <trkpt lat="43.74225" lon="6.6856">
        <ele>1195.8</ele>
        <time>2024-05-26T12:52:58Z</time>
      </trkpt>
      <trkpt lat="43.74224" lon="6.6856">
        <ele>1195.7</ele>
        <time>2024-05-26T12:52:59Z</time>
      </trkpt>
      <trkpt lat="43.74223" lon="6.6856">
        <ele>1195.5</ele>
        <time>2024-05-26T12:53:00Z</time>
      </trkpt>
      <trkpt lat="43.74222" lon="6.6856">
        <ele>1195.5</ele>
        <time>2024-05-26T12:53:01Z</time>
      </trkpt>
      <trkpt lat="43.74222" lon="6.6856">
        <ele>1195.4</ele>
        <time>2024-05-26T12:53:02Z</time>
      </trkpt>
      <trkpt lat="43.74221" lon="6.68561">
        <ele>1195.3</ele>
        <time>2024-05-26T12:53:03Z</time>
      </trkpt>
      <trkpt lat="43.7422" lon="6.68561">
        <ele>1195.3</ele>
        <time>2024-05-26T12:53:04Z</time>
      </trkpt>
      <trkpt lat="43.74219" lon="6.68561">
        <ele>1195.1</ele>
        <time>2024-05-26T12:53:05Z</time>
      </trkpt>
      <trkpt lat="43.74218" lon="6.68562">
        <ele>1195</ele>
        <time>2024-05-26T12:53:06Z</time>
      </trkpt>
      <trkpt lat="43.74216" lon="6.68562">
        <ele>1194.8</ele>
        <time>2024-05-26T12:53:07Z</time>
      </trkpt>
      <trkpt lat="43.74214" lon="6.68561">
        <ele>1194.7</ele>
        <time>2024-05-26T12:53:08Z</time>
      </trkpt>
      <trkpt lat="43.74214" lon="6.6856">
        <ele>1194.7</ele>
        <time>2024-05-26T12:53:09Z</time>
      </trkpt>
      <trkpt lat="43.74214" lon="6.68559">
        <ele>1194.7</ele>
        <time>2024-05-26T12:53:10Z</time>
      </trkpt>
      <trkpt lat="43.74212" lon="6.68559">
        <ele>1194.6</ele>
        <time>2024-05-26T12:53:11Z</time>
      </trkpt>
      <trkpt lat="43.74211" lon="6.68559">
        <ele>1194.5</ele>
        <time>2024-05-26T12:53:12Z</time>
      </trkpt>
      <trkpt lat="43.7421" lon="6.6856">
        <ele>1194.3</ele>
        <time>2024-05-26T12:53:13Z</time>
      </trkpt>
      <trkpt lat="43.74209" lon="6.6856">
        <ele>1194.3</ele>
        <time>2024-05-26T12:53:14Z</time>
      </trkpt>
      <trkpt lat="43.74208" lon="6.68561">
        <ele>1194.3</ele>
        <time>2024-05-26T12:53:15Z</time>
      </trkpt>
      <trkpt lat="43.74207" lon="6.68561">
        <ele>1194.3</ele>
        <time>2024-05-26T12:53:16Z</time>
      </trkpt>
      <trkpt lat="43.74206" lon="6.68561">
        <ele>1194.4</ele>
        <time>2024-05-26T12:53:17Z</time>
      </trkpt>
      <trkpt lat="43.74205" lon="6.68561">
        <ele>1194.5</ele>
        <time>2024-05-26T12:53:18Z</time>
      </trkpt>
      <trkpt lat="43.74203" lon="6.68561">
        <ele>1194.7</ele>
        <time>2024-05-26T12:53:19Z</time>
      </trkpt>
      <trkpt lat="43.74202" lon="6.68562">
        <ele>1194.8</ele>
        <time>2024-05-26T12:53:20Z</time>
      </trkpt>
      <trkpt lat="43.74201" lon="6.68562">
        <ele>1194.8</ele>
        <time>2024-05-26T12:53:21Z</time>
      </trkpt>
      <trkpt lat="43.742" lon="6.68562">
        <ele>1194.8</ele>
        <time>2024-05-26T12:53:22Z</time>
      </trkpt>
      <trkpt lat="43.74199" lon="6.68563">
        <ele>1194.9</ele>
        <time>2024-05-26T12:53:23Z</time>
      </trkpt>
      <trkpt lat="43.74199" lon="6.68562">
        <ele>1195</ele>
        <time>2024-05-26T12:53:24Z</time>
      </trkpt>
      <trkpt lat="43.74198" lon="6.68563">
        <ele>1195.1</ele>
        <time>2024-05-26T12:53:25Z</time>
      </trkpt>
      <trkpt lat="43.74197" lon="6.68563">
        <ele>1195.1</ele>
        <time>2024-05-26T12:53:26Z</time>
      </trkpt>
      <trkpt lat="43.74196" lon="6.68563">
        <ele>1195.2</ele>
        <time>2024-05-26T12:53:27Z</time>
      </trkpt>
      <trkpt lat="43.74195" lon="6.68563">
        <ele>1195.2</ele>
        <time>2024-05-26T12:53:28Z</time>
      </trkpt>
      <trkpt lat="43.74194" lon="6.68563">
        <ele>1195.3</ele>
        <time>2024-05-26T12:53:29Z</time>
      </trkpt>
      <trkpt lat="43.74192" lon="6.68564">
        <ele>1195.2</ele>
        <time>2024-05-26T12:53:30Z</time>
      </trkpt>
      <trkpt lat="43.74192" lon="6.68565">
        <ele>1195.1</ele>
        <time>2024-05-26T12:53:31Z</time>
      </trkpt>
      <trkpt lat="43.74191" lon="6.68565">
        <ele>1195</ele>
        <time>2024-05-26T12:53:32Z</time>
      </trkpt>
      <trkpt lat="43.7419" lon="6.68565">
        <ele>1195</ele>
        <time>2024-05-26T12:53:33Z</time>
      </trkpt>
      <trkpt lat="43.7419" lon="6.68565">
        <ele>1194.9</ele>
        <time>2024-05-26T12:53:34Z</time>
      </trkpt>
      <trkpt lat="43.74189" lon="6.68565">
        <ele>1194.9</ele>
        <time>2024-05-26T12:53:35Z</time>
      </trkpt>
      <trkpt lat="43.74188" lon="6.68565">
        <ele>1194.8</ele>
        <time>2024-05-26T12:53:36Z</time>
      </trkpt>
      <trkpt lat="43.74188" lon="6.68566">
        <ele>1194.7</ele>
        <time>2024-05-26T12:53:37Z</time>
      </trkpt>
      <trkpt lat="43.74187" lon="6.68566">
        <ele>1194.6</ele>
        <time>2024-05-26T12:53:38Z</time>
      </trkpt>
      <trkpt lat="43.74186" lon="6.68565">
        <ele>1194.5</ele>
        <time>2024-05-26T12:53:39Z</time>
      </trkpt>
      <trkpt lat="43.74185" lon="6.68565">
        <ele>1194.3</ele>
        <time>2024-05-26T12:53:40Z</time>
      </trkpt>
      <trkpt lat="43.74184" lon="6.68565">
        <ele>1194.1</ele>
        <time>2024-05-26T12:53:41Z</time>
      </trkpt>
      <trkpt lat="43.74184" lon="6.68565">
        <ele>1193.9</ele>
        <time>2024-05-26T12:53:42Z</time>
      </trkpt>
      <trkpt lat="43.74183" lon="6.68565">
        <ele>1193.7</ele>
        <time>2024-05-26T12:53:43Z</time>
      </trkpt>
      <trkpt lat="43.74183" lon="6.68565">
        <ele>1193.5</ele>
        <time>2024-05-26T12:53:44Z</time>
      </trkpt>
      <trkpt lat="43.74182" lon="6.68565">
        <ele>1193.3</ele>
        <time>2024-05-26T12:53:45Z</time>
      </trkpt>
      <trkpt lat="43.74182" lon="6.68564">
        <ele>1193.1</ele>
        <time>2024-05-26T12:53:46Z</time>
      </trkpt>
      <trkpt lat="43.74181" lon="6.68565">
        <ele>1192.8</ele>
        <time>2024-05-26T12:53:47Z</time>
      </trkpt>
      <trkpt lat="43.7418" lon="6.68564">
        <ele>1192.6</ele>
        <time>2024-05-26T12:53:48Z</time>
      </trkpt>
      <trkpt lat="43.74179" lon="6.68564">
        <ele>1192.5</ele>
        <time>2024-05-26T12:53:49Z</time>
      </trkpt>
      <trkpt lat="43.74178" lon="6.68564">
        <ele>1192.4</ele>
        <time>2024-05-26T12:53:50Z</time>
      </trkpt>
      <trkpt lat="43.74178" lon="6.68563">
        <ele>1192.2</ele>
        <time>2024-05-26T12:53:51Z</time>
      </trkpt>
      <trkpt lat="43.74177" lon="6.68563">
        <ele>1192</ele>
        <time>2024-05-26T12:53:52Z</time>
      </trkpt>
      <trkpt lat="43.74176" lon="6.68562">
        <ele>1191.9</ele>
        <time>2024-05-26T12:53:53Z</time>
      </trkpt>
      <trkpt lat="43.74175" lon="6.68561">
        <ele>1191.7</ele>
        <time>2024-05-26T12:53:54Z</time>
      </trkpt>
      <trkpt lat="43.74175" lon="6.68561">
        <ele>1191.5</ele>
        <time>2024-05-26T12:53:55Z</time>
      </trkpt>
      <trkpt lat="43.74174" lon="6.68561">
        <ele>1191.4</ele>
        <time>2024-05-26T12:53:56Z</time>
      </trkpt>
      <trkpt lat="43.74174" lon="6.6856">
        <ele>1191.3</ele>
        <time>2024-05-26T12:53:57Z</time>
      </trkpt>
      <trkpt lat="43.74173" lon="6.6856">
        <ele>1191.1</ele>
        <time>2024-05-26T12:53:58Z</time>
      </trkpt>
      <trkpt lat="43.74172" lon="6.68559">
        <ele>1191</ele>
        <time>2024-05-26T12:53:59Z</time>
      </trkpt>
      <trkpt lat="43.74171" lon="6.68559">
        <ele>1190.8</ele>
        <time>2024-05-26T12:54:00Z</time>
      </trkpt>
      <trkpt lat="43.7417" lon="6.68558">
        <ele>1190.6</ele>
        <time>2024-05-26T12:54:01Z</time>
      </trkpt>
      <trkpt lat="43.74169" lon="6.68557">
        <ele>1190.5</ele>
        <time>2024-05-26T12:54:02Z</time>
      </trkpt>
      <trkpt lat="43.74168" lon="6.68557">
        <ele>1190.3</ele>
        <time>2024-05-26T12:54:03Z</time>
      </trkpt>
      <trkpt lat="43.74168" lon="6.68557">
        <ele>1190.2</ele>
        <time>2024-05-26T12:54:04Z</time>
      </trkpt>
      <trkpt lat="43.74167" lon="6.68556">
        <ele>1190.1</ele>
        <time>2024-05-26T12:54:05Z</time>
      </trkpt>
      <trkpt lat="43.74166" lon="6.68555">
        <ele>1190</ele>
        <time>2024-05-26T12:54:06Z</time>
      </trkpt>
      <trkpt lat="43.74165" lon="6.68554">
        <ele>1189.9</ele>
        <time>2024-05-26T12:54:07Z</time>
      </trkpt>
      <trkpt lat="43.74164" lon="6.68553">
        <ele>1189.7</ele>
        <time>2024-05-26T12:54:08Z</time>
      </trkpt>
      <trkpt lat="43.74163" lon="6.68553">
        <ele>1189.6</ele>
        <time>2024-05-26T12:54:09Z</time>
      </trkpt>
      <trkpt lat="43.74161" lon="6.68553">
        <ele>1189.5</ele>
        <time>2024-05-26T12:54:10Z</time>
      </trkpt>
      <trkpt lat="43.7416" lon="6.68553">
        <ele>1189.4</ele>
        <time>2024-05-26T12:54:11Z</time>
      </trkpt>
      <trkpt lat="43.7416" lon="6.68553">
        <ele>1189.4</ele>
        <time>2024-05-26T12:54:12Z</time>
      </trkpt>
      <trkpt lat="43.74158" lon="6.68552">
        <ele>1189.3</ele>
        <time>2024-05-26T12:54:13Z</time>
      </trkpt>
      <trkpt lat="43.74157" lon="6.68552">
        <ele>1189.2</ele>
        <time>2024-05-26T12:54:14Z</time>
      </trkpt>
      <trkpt lat="43.74156" lon="6.68551">
        <ele>1189.1</ele>
        <time>2024-05-26T12:54:15Z</time>
      </trkpt>
      <trkpt lat="43.74154" lon="6.68551">
        <ele>1188.9</ele>
        <time>2024-05-26T12:54:16Z</time>
      </trkpt>
      <trkpt lat="43.74153" lon="6.6855">
        <ele>1188.9</ele>
        <time>2024-05-26T12:54:17Z</time>
      </trkpt>
      <trkpt lat="43.74153" lon="6.6855">
        <ele>1188.9</ele>
        <time>2024-05-26T12:54:18Z</time>
      </trkpt>
      <trkpt lat="43.74152" lon="6.6855">
        <ele>1188.9</ele>
        <time>2024-05-26T12:54:19Z</time>
      </trkpt>
      <trkpt lat="43.74151" lon="6.68549">
        <ele>1188.8</ele>
        <time>2024-05-26T12:54:20Z</time>
      </trkpt>
      <trkpt lat="43.7415" lon="6.68549">
        <ele>1188.8</ele>
        <time>2024-05-26T12:54:21Z</time>
      </trkpt>
      <trkpt lat="43.74148" lon="6.68548">
        <ele>1188.7</ele>
        <time>2024-05-26T12:54:22Z</time>
      </trkpt>
      <trkpt lat="43.74147" lon="6.68548">
        <ele>1188.6</ele>
        <time>2024-05-26T12:54:23Z</time>
      </trkpt>
      <trkpt lat="43.74146" lon="6.68547">
        <ele>1188.6</ele>
        <time>2024-05-26T12:54:24Z</time>
      </trkpt>
      <trkpt lat="43.74146" lon="6.68546">
        <ele>1188.5</ele>
        <time>2024-05-26T12:54:25Z</time>
      </trkpt>
      <trkpt lat="43.74144" lon="6.68546">
        <ele>1188.4</ele>
        <time>2024-05-26T12:54:26Z</time>
      </trkpt>
      <trkpt lat="43.74144" lon="6.68546">
        <ele>1188.3</ele>
        <time>2024-05-26T12:54:27Z</time>
      </trkpt>
      <trkpt lat="43.74143" lon="6.68546">
        <ele>1188.3</ele>
        <time>2024-05-26T12:54:28Z</time>
      </trkpt>
      <trkpt lat="43.74143" lon="6.68546">
        <ele>1188.1</ele>
        <time>2024-05-26T12:54:29Z</time>
      </trkpt>
      <trkpt lat="43.74142" lon="6.68546">
        <ele>1188</ele>
        <time>2024-05-26T12:54:30Z</time>
      </trkpt>
      <trkpt lat="43.74142" lon="6.68546">
        <ele>1187.9</ele>
        <time>2024-05-26T12:54:31Z</time>
      </trkpt>
      <trkpt lat="43.74141" lon="6.68546">
        <ele>1187.7</ele>
        <time>2024-05-26T12:54:32Z</time>
      </trkpt>
      <trkpt lat="43.7414" lon="6.68546">
        <ele>1187.6</ele>
        <time>2024-05-26T12:54:33Z</time>
      </trkpt>
      <trkpt lat="43.74139" lon="6.68546">
        <ele>1187.4</ele>
        <time>2024-05-26T12:54:34Z</time>
      </trkpt>
      <trkpt lat="43.74138" lon="6.68545">
        <ele>1187.3</ele>
        <time>2024-05-26T12:54:35Z</time>
      </trkpt>
      <trkpt lat="43.74138" lon="6.68545">
        <ele>1187.1</ele>
        <time>2024-05-26T12:54:36Z</time>
      </trkpt>
      <trkpt lat="43.74137" lon="6.68546">
        <ele>1187</ele>
        <time>2024-05-26T12:54:37Z</time>
      </trkpt>
      <trkpt lat="43.74136" lon="6.68545">
        <ele>1186.8</ele>
        <time>2024-05-26T12:54:38Z</time>
      </trkpt>
      <trkpt lat="43.74135" lon="6.68545">
        <ele>1186.6</ele>
        <time>2024-05-26T12:54:39Z</time>
      </trkpt>
      <trkpt lat="43.74134" lon="6.68545">
        <ele>1186.6</ele>
        <time>2024-05-26T12:54:40Z</time>
      </trkpt>
      <trkpt lat="43.74134" lon="6.68545">
        <ele>1186.6</ele>
        <time>2024-05-26T12:54:41Z</time>
      </trkpt>
      <trkpt lat="43.74133" lon="6.68545">
        <ele>1186.3</ele>
        <time>2024-05-26T12:54:42Z</time>
      </trkpt>
      <trkpt lat="43.74133" lon="6.68545">
        <ele>1186.1</ele>
        <time>2024-05-26T12:54:43Z</time>
      </trkpt>
      <trkpt lat="43.74132" lon="6.68545">
        <ele>1186</ele>
        <time>2024-05-26T12:54:44Z</time>
      </trkpt>
      <trkpt lat="43.74132" lon="6.68545">
        <ele>1185.9</ele>
        <time>2024-05-26T12:54:45Z</time>
      </trkpt>
      <trkpt lat="43.74131" lon="6.68545">
        <ele>1185.8</ele>
        <time>2024-05-26T12:54:46Z</time>
      </trkpt>
      <trkpt lat="43.7413" lon="6.68545">
        <ele>1185.6</ele>
        <time>2024-05-26T12:54:47Z</time>
      </trkpt>
      <trkpt lat="43.7413" lon="6.68545">
        <ele>1185.6</ele>
        <time>2024-05-26T12:54:48Z</time>
      </trkpt>
      <trkpt lat="43.7413" lon="6.68545">
        <ele>1185.5</ele>
        <time>2024-05-26T12:54:49Z</time>
      </trkpt>
      <trkpt lat="43.7413" lon="6.68545">
        <ele>1185.5</ele>
        <time>2024-05-26T12:54:50Z</time>
      </trkpt>
      <trkpt lat="43.74129" lon="6.68545">
        <ele>1185.5</ele>
        <time>2024-05-26T12:54:51Z</time>
      </trkpt>
      <trkpt lat="43.74129" lon="6.68545">
        <ele>1185.4</ele>
        <time>2024-05-26T12:54:52Z</time>
      </trkpt>
      <trkpt lat="43.74129" lon="6.68545">
        <ele>1185.2</ele>
        <time>2024-05-26T12:54:53Z</time>
      </trkpt>
      <trkpt lat="43.74129" lon="6.68545">
        <ele>1185.2</ele>
        <time>2024-05-26T12:54:54Z</time>
      </trkpt>
      <trkpt lat="43.74129" lon="6.68545">
        <ele>1185.2</ele>
        <time>2024-05-26T12:54:55Z</time>
      </trkpt>
      <trkpt lat="43.74129" lon="6.68545">
        <ele>1185.1</ele>
        <time>2024-05-26T12:54:56Z</time>
      </trkpt>
      <trkpt lat="43.74129" lon="6.68545">
        <ele>1185.1</ele>
        <time>2024-05-26T12:54:57Z</time>
      </trkpt>
      <trkpt lat="43.74129" lon="6.68545">
        <ele>1185</ele>
        <time>2024-05-26T12:54:58Z</time>
      </trkpt>
      <trkpt lat="43.74129" lon="6.68545">
        <ele>1185</ele>
        <time>2024-05-26T12:54:59Z</time>
      </trkpt>
      <trkpt lat="43.74129" lon="6.68546">
        <ele>1185.1</ele>
        <time>2024-05-26T12:55:00Z</time>
      </trkpt>
      <trkpt lat="43.74129" lon="6.68545">
        <ele>1185.1</ele>
        <time>2024-05-26T12:55:01Z</time>
      </trkpt>
      <trkpt lat="43.74129" lon="6.68545">
        <ele>1185.1</ele>
        <time>2024-05-26T12:55:02Z</time>
      </trkpt>
      <trkpt lat="43.7413" lon="6.68545">
        <ele>1185.1</ele>
        <time>2024-05-26T12:55:03Z</time>
      </trkpt>
      <trkpt lat="43.7413" lon="6.68546">
        <ele>1185.1</ele>
        <time>2024-05-26T12:55:04Z</time>
      </trkpt>
      <trkpt lat="43.7413" lon="6.68546">
        <ele>1185.2</ele>
        <time>2024-05-26T12:55:05Z</time>
      </trkpt>
      <trkpt lat="43.7413" lon="6.68546">
        <ele>1185.2</ele>
        <time>2024-05-26T12:55:06Z</time>
      </trkpt>
      <trkpt lat="43.7413" lon="6.68546">
        <ele>1185.2</ele>
        <time>2024-05-26T12:55:07Z</time>
      </trkpt>
      <trkpt lat="43.7413" lon="6.68546">
        <ele>1185.2</ele>
        <time>2024-05-26T12:55:08Z</time>
      </trkpt>
      <trkpt lat="43.7413" lon="6.68547">
        <ele>1185.2</ele>
        <time>2024-05-26T12:55:09Z</time>
      </trkpt>
      <trkpt lat="43.7413" lon="6.68547">
        <ele>1185.2</ele>
        <time>2024-05-26T12:55:10Z</time>
      </trkpt>
      <trkpt lat="43.7413" lon="6.68547">
        <ele>1185.2</ele>
        <time>2024-05-26T12:55:11Z</time>
      </trkpt>
      <trkpt lat="43.7413" lon="6.68547">
        <ele>1185.3</ele>
        <time>2024-05-26T12:55:12Z</time>
      </trkpt>
      <trkpt lat="43.7413" lon="6.68547">
        <ele>1185.3</ele>
        <time>2024-05-26T12:55:13Z</time>
      </trkpt>
      <trkpt lat="43.7413" lon="6.68547">
        <ele>1185.4</ele>
        <time>2024-05-26T12:55:14Z</time>
      </trkpt>
      <trkpt lat="43.7413" lon="6.68547">
        <ele>1185.4</ele>
        <time>2024-05-26T12:55:15Z</time>
      </trkpt>
      <trkpt lat="43.74129" lon="6.68547">
        <ele>1185.5</ele>
        <time>2024-05-26T12:55:16Z</time>
      </trkpt>
      <trkpt lat="43.74129" lon="6.68548">
        <ele>1185.5</ele>
        <time>2024-05-26T12:55:17Z</time>
      </trkpt>
      <trkpt lat="43.74129" lon="6.68548">
        <ele>1185.5</ele>
        <time>2024-05-26T12:55:18Z</time>
      </trkpt>
      <trkpt lat="43.74129" lon="6.68548">
        <ele>1185.4</ele>
        <time>2024-05-26T12:55:19Z</time>
      </trkpt>
      <trkpt lat="43.74128" lon="6.68548">
        <ele>1185.3</ele>
        <time>2024-05-26T12:55:20Z</time>
      </trkpt>
      <trkpt lat="43.74128" lon="6.68548">
        <ele>1185.3</ele>
        <time>2024-05-26T12:55:21Z</time>
      </trkpt>
      <trkpt lat="43.74128" lon="6.68548">
        <ele>1185.2</ele>
        <time>2024-05-26T12:55:22Z</time>
      </trkpt>
      <trkpt lat="43.74128" lon="6.68547">
        <ele>1185.3</ele>
        <time>2024-05-26T12:55:23Z</time>
      </trkpt>
      <trkpt lat="43.74128" lon="6.68548">
        <ele>1185.1</ele>
        <time>2024-05-26T12:55:24Z</time>
      </trkpt>
      <trkpt lat="43.74127" lon="6.68548">
        <ele>1185</ele>
        <time>2024-05-26T12:55:25Z</time>
      </trkpt>
      <trkpt lat="43.74127" lon="6.68548">
        <ele>1184.9</ele>
        <time>2024-05-26T12:55:26Z</time>
      </trkpt>
      <trkpt lat="43.74126" lon="6.68547">
        <ele>1184.7</ele>
        <time>2024-05-26T12:55:27Z</time>
      </trkpt>
      <trkpt lat="43.74126" lon="6.68547">
        <ele>1184.7</ele>
        <time>2024-05-26T12:55:28Z</time>
      </trkpt>
      <trkpt lat="43.74126" lon="6.68547">
        <ele>1184.8</ele>
        <time>2024-05-26T12:55:29Z</time>
      </trkpt>
      <trkpt lat="43.74125" lon="6.68547">
        <ele>1184.8</ele>
        <time>2024-05-26T12:55:30Z</time>
      </trkpt>
      <trkpt lat="43.74124" lon="6.68547">
        <ele>1184.8</ele>
        <time>2024-05-26T12:55:31Z</time>
      </trkpt>
      <trkpt lat="43.74124" lon="6.68547">
        <ele>1184.6</ele>
        <time>2024-05-26T12:55:32Z</time>
      </trkpt>
      <trkpt lat="43.74123" lon="6.68547">
        <ele>1184.5</ele>
        <time>2024-05-26T12:55:33Z</time>
      </trkpt>
      <trkpt lat="43.74122" lon="6.68547">
        <ele>1184.4</ele>
        <time>2024-05-26T12:55:34Z</time>
      </trkpt>
      <trkpt lat="43.74122" lon="6.68547">
        <ele>1184.3</ele>
        <time>2024-05-26T12:55:35Z</time>
      </trkpt>
      <trkpt lat="43.74121" lon="6.68547">
        <ele>1184.3</ele>
        <time>2024-05-26T12:55:36Z</time>
      </trkpt>
      <trkpt lat="43.74121" lon="6.68547">
        <ele>1184.2</ele>
        <time>2024-05-26T12:55:37Z</time>
      </trkpt>
      <trkpt lat="43.7412" lon="6.68546">
        <ele>1184.1</ele>
        <time>2024-05-26T12:55:38Z</time>
      </trkpt>
      <trkpt lat="43.74119" lon="6.68546">
        <ele>1183.9</ele>
        <time>2024-05-26T12:55:39Z</time>
      </trkpt>
      <trkpt lat="43.74118" lon="6.68546">
        <ele>1183.6</ele>
        <time>2024-05-26T12:55:40Z</time>
      </trkpt>
      <trkpt lat="43.74118" lon="6.68546">
        <ele>1183.4</ele>
        <time>2024-05-26T12:55:41Z</time>
      </trkpt>
      <trkpt lat="43.74117" lon="6.68546">
        <ele>1183.3</ele>
        <time>2024-05-26T12:55:42Z</time>
      </trkpt>
      <trkpt lat="43.74116" lon="6.68545">
        <ele>1183.2</ele>
        <time>2024-05-26T12:55:43Z</time>
      </trkpt>
      <trkpt lat="43.74116" lon="6.68544">
        <ele>1183.1</ele>
        <time>2024-05-26T12:55:44Z</time>
      </trkpt>
      <trkpt lat="43.74116" lon="6.68545">
        <ele>1182.9</ele>
        <time>2024-05-26T12:55:45Z</time>
      </trkpt>
      <trkpt lat="43.74115" lon="6.68545">
        <ele>1182.8</ele>
        <time>2024-05-26T12:55:46Z</time>
      </trkpt>
      <trkpt lat="43.74115" lon="6.68546">
        <ele>1182.7</ele>
        <time>2024-05-26T12:55:47Z</time>
      </trkpt>
      <trkpt lat="43.74114" lon="6.68546">
        <ele>1182.7</ele>
        <time>2024-05-26T12:55:48Z</time>
      </trkpt>
      <trkpt lat="43.74114" lon="6.68545">
        <ele>1182.4</ele>
        <time>2024-05-26T12:55:49Z</time>
      </trkpt>
      <trkpt lat="43.74113" lon="6.68546">
        <ele>1182.3</ele>
        <time>2024-05-26T12:55:50Z</time>
      </trkpt>
      <trkpt lat="43.74112" lon="6.68546">
        <ele>1182.1</ele>
        <time>2024-05-26T12:55:51Z</time>
      </trkpt>
      <trkpt lat="43.74111" lon="6.68546">
        <ele>1181.9</ele>
        <time>2024-05-26T12:55:52Z</time>
      </trkpt>
      <trkpt lat="43.74111" lon="6.68546">
        <ele>1181.8</ele>
        <time>2024-05-26T12:55:53Z</time>
      </trkpt>
      <trkpt lat="43.74111" lon="6.68547">
        <ele>1181.6</ele>
        <time>2024-05-26T12:55:54Z</time>
      </trkpt>
      <trkpt lat="43.7411" lon="6.68546">
        <ele>1181.5</ele>
        <time>2024-05-26T12:55:55Z</time>
      </trkpt>
      <trkpt lat="43.7411" lon="6.68545">
        <ele>1181.2</ele>
        <time>2024-05-26T12:55:56Z</time>
      </trkpt>
      <trkpt lat="43.74109" lon="6.68545">
        <ele>1181.1</ele>
        <time>2024-05-26T12:55:57Z</time>
      </trkpt>
      <trkpt lat="43.74108" lon="6.68545">
        <ele>1181.1</ele>
        <time>2024-05-26T12:55:58Z</time>
      </trkpt>
      <trkpt lat="43.74107" lon="6.68545">
        <ele>1181.1</ele>
        <time>2024-05-26T12:55:59Z</time>
      </trkpt>
      <trkpt lat="43.74106" lon="6.68545">
        <ele>1181</ele>
        <time>2024-05-26T12:56:00Z</time>
      </trkpt>
      <trkpt lat="43.74106" lon="6.68545">
        <ele>1180.9</ele>
        <time>2024-05-26T12:56:01Z</time>
      </trkpt>
      <trkpt lat="43.74105" lon="6.68544">
        <ele>1180.8</ele>
        <time>2024-05-26T12:56:02Z</time>
      </trkpt>
      <trkpt lat="43.74104" lon="6.68544">
        <ele>1180.6</ele>
        <time>2024-05-26T12:56:03Z</time>
      </trkpt>
      <trkpt lat="43.74102" lon="6.68543">
        <ele>1180.5</ele>
        <time>2024-05-26T12:56:04Z</time>
      </trkpt>
      <trkpt lat="43.74102" lon="6.68543">
        <ele>1180.3</ele>
        <time>2024-05-26T12:56:05Z</time>
      </trkpt>
      <trkpt lat="43.74101" lon="6.68544">
        <ele>1180.2</ele>
        <time>2024-05-26T12:56:06Z</time>
      </trkpt>
      <trkpt lat="43.741" lon="6.68543">
        <ele>1180</ele>
        <time>2024-05-26T12:56:07Z</time>
      </trkpt>
      <trkpt lat="43.74099" lon="6.68543">
        <ele>1179.8</ele>
        <time>2024-05-26T12:56:08Z</time>
      </trkpt>
      <trkpt lat="43.74098" lon="6.68543">
        <ele>1179.4</ele>
        <time>2024-05-26T12:56:09Z</time>
      </trkpt>
      <trkpt lat="43.74097" lon="6.68542">
        <ele>1179.3</ele>
        <time>2024-05-26T12:56:10Z</time>
      </trkpt>
      <trkpt lat="43.74097" lon="6.68543">
        <ele>1179.2</ele>
        <time>2024-05-26T12:56:11Z</time>
      </trkpt>
      <trkpt lat="43.74097" lon="6.68543">
        <ele>1179.1</ele>
        <time>2024-05-26T12:56:12Z</time>
      </trkpt>
      <trkpt lat="43.74097" lon="6.68543">
        <ele>1179</ele>
        <time>2024-05-26T12:56:13Z</time>
      </trkpt>
      <trkpt lat="43.74096" lon="6.68544">
        <ele>1178.9</ele>
        <time>2024-05-26T12:56:14Z</time>
      </trkpt>
      <trkpt lat="43.74095" lon="6.68544">
        <ele>1178.8</ele>
        <time>2024-05-26T12:56:15Z</time>
      </trkpt>
      <trkpt lat="43.74095" lon="6.68543">
        <ele>1178.5</ele>
        <time>2024-05-26T12:56:16Z</time>
      </trkpt>
      <trkpt lat="43.74094" lon="6.68543">
        <ele>1178.3</ele>
        <time>2024-05-26T12:56:17Z</time>
      </trkpt>
      <trkpt lat="43.74094" lon="6.68543">
        <ele>1178.2</ele>
        <time>2024-05-26T12:56:18Z</time>
      </trkpt>
      <trkpt lat="43.74094" lon="6.68543">
        <ele>1178</ele>
        <time>2024-05-26T12:56:19Z</time>
      </trkpt>
      <trkpt lat="43.74093" lon="6.68543">
        <ele>1177.8</ele>
        <time>2024-05-26T12:56:20Z</time>
      </trkpt>
      <trkpt lat="43.74093" lon="6.68544">
        <ele>1177.7</ele>
        <time>2024-05-26T12:56:21Z</time>
      </trkpt>
      <trkpt lat="43.74094" lon="6.68545">
        <ele>1177.4</ele>
        <time>2024-05-26T12:56:22Z</time>
      </trkpt>
      <trkpt lat="43.74093" lon="6.68547">
        <ele>1177.2</ele>
        <time>2024-05-26T12:56:23Z</time>
      </trkpt>
      <trkpt lat="43.74092" lon="6.68546">
        <ele>1177</ele>
        <time>2024-05-26T12:56:24Z</time>
      </trkpt>
      <trkpt lat="43.7409" lon="6.68547">
        <ele>1176.8</ele>
        <time>2024-05-26T12:56:25Z</time>
      </trkpt>
      <trkpt lat="43.7409" lon="6.68547">
        <ele>1176.6</ele>
        <time>2024-05-26T12:56:26Z</time>
      </trkpt>
      <trkpt lat="43.74089" lon="6.68546">
        <ele>1176.5</ele>
        <time>2024-05-26T12:56:27Z</time>
      </trkpt>
      <trkpt lat="43.74087" lon="6.68545">
        <ele>1176.3</ele>
        <time>2024-05-26T12:56:28Z</time>
      </trkpt>
      <trkpt lat="43.74087" lon="6.68545">
        <ele>1176</ele>
        <time>2024-05-26T12:56:29Z</time>
      </trkpt>
      <trkpt lat="43.74087" lon="6.68545">
        <ele>1175.8</ele>
        <time>2024-05-26T12:56:30Z</time>
      </trkpt>
      <trkpt lat="43.74086" lon="6.68545">
        <ele>1175.6</ele>
        <time>2024-05-26T12:56:31Z</time>
      </trkpt>
      <trkpt lat="43.74085" lon="6.68546">
        <ele>1175.4</ele>
        <time>2024-05-26T12:56:32Z</time>
      </trkpt>
      <trkpt lat="43.74084" lon="6.68546">
        <ele>1175.3</ele>
        <time>2024-05-26T12:56:33Z</time>
      </trkpt>
      <trkpt lat="43.74082" lon="6.68545">
        <ele>1175.2</ele>
        <time>2024-05-26T12:56:34Z</time>
      </trkpt>
      <trkpt lat="43.74081" lon="6.68546">
        <ele>1175.1</ele>
        <time>2024-05-26T12:56:35Z</time>
      </trkpt>
      <trkpt lat="43.7408" lon="6.68546">
        <ele>1174.8</ele>
        <time>2024-05-26T12:56:36Z</time>
      </trkpt>
      <trkpt lat="43.7408" lon="6.68546">
        <ele>1174.6</ele>
        <time>2024-05-26T12:56:37Z</time>
      </trkpt>
      <trkpt lat="43.74079" lon="6.68545">
        <ele>1174.5</ele>
        <time>2024-05-26T12:56:38Z</time>
      </trkpt>
      <trkpt lat="43.74079" lon="6.68545">
        <ele>1174.4</ele>
        <time>2024-05-26T12:56:39Z</time>
      </trkpt>
      <trkpt lat="43.74078" lon="6.68545">
        <ele>1174.3</ele>
        <time>2024-05-26T12:56:40Z</time>
      </trkpt>
      <trkpt lat="43.74078" lon="6.68545">
        <ele>1174.1</ele>
        <time>2024-05-26T12:56:41Z</time>
      </trkpt>
      <trkpt lat="43.74076" lon="6.68544">
        <ele>1174</ele>
        <time>2024-05-26T12:56:42Z</time>
      </trkpt>
      <trkpt lat="43.74075" lon="6.68544">
        <ele>1173.7</ele>
        <time>2024-05-26T12:56:43Z</time>
      </trkpt>
      <trkpt lat="43.74075" lon="6.68545">
        <ele>1173.5</ele>
        <time>2024-05-26T12:56:44Z</time>
      </trkpt>
      <trkpt lat="43.74074" lon="6.68545">
        <ele>1173.3</ele>
        <time>2024-05-26T12:56:45Z</time>
      </trkpt>
      <trkpt lat="43.74073" lon="6.68547">
        <ele>1173</ele>
        <time>2024-05-26T12:56:46Z</time>
      </trkpt>
      <trkpt lat="43.74072" lon="6.68547">
        <ele>1172.9</ele>
        <time>2024-05-26T12:56:47Z</time>
      </trkpt>
      <trkpt lat="43.74071" lon="6.68547">
        <ele>1172.6</ele>
        <time>2024-05-26T12:56:48Z</time>
      </trkpt>
      <trkpt lat="43.74071" lon="6.68547">
        <ele>1172.4</ele>
        <time>2024-05-26T12:56:49Z</time>
      </trkpt>
      <trkpt lat="43.7407" lon="6.68548">
        <ele>1172.2</ele>
        <time>2024-05-26T12:56:50Z</time>
      </trkpt>
      <trkpt lat="43.74068" lon="6.68547">
        <ele>1172.1</ele>
        <time>2024-05-26T12:56:51Z</time>
      </trkpt>
      <trkpt lat="43.74067" lon="6.68547">
        <ele>1171.9</ele>
        <time>2024-05-26T12:56:52Z</time>
      </trkpt>
      <trkpt lat="43.74067" lon="6.68547">
        <ele>1171.8</ele>
        <time>2024-05-26T12:56:53Z</time>
      </trkpt>
      <trkpt lat="43.74067" lon="6.68548">
        <ele>1171.4</ele>
        <time>2024-05-26T12:56:54Z</time>
      </trkpt>
      <trkpt lat="43.74066" lon="6.68548">
        <ele>1171.2</ele>
        <time>2024-05-26T12:56:55Z</time>
      </trkpt>
      <trkpt lat="43.74066" lon="6.68549">
        <ele>1171</ele>
        <time>2024-05-26T12:56:56Z</time>
      </trkpt>
      <trkpt lat="43.74066" lon="6.68548">
        <ele>1170.8</ele>
        <time>2024-05-26T12:56:57Z</time>
      </trkpt>
      <trkpt lat="43.74066" lon="6.68549">
        <ele>1170.6</ele>
        <time>2024-05-26T12:56:58Z</time>
      </trkpt>
      <trkpt lat="43.74064" lon="6.6855">
        <ele>1170.5</ele>
        <time>2024-05-26T12:56:59Z</time>
      </trkpt>
      <trkpt lat="43.74064" lon="6.6855">
        <ele>1170.4</ele>
        <time>2024-05-26T12:57:00Z</time>
      </trkpt>
      <trkpt lat="43.74063" lon="6.68551">
        <ele>1170.2</ele>
        <time>2024-05-26T12:57:01Z</time>
      </trkpt>
      <trkpt lat="43.74062" lon="6.68551">
        <ele>1170.2</ele>
        <time>2024-05-26T12:57:02Z</time>
      </trkpt>
      <trkpt lat="43.74061" lon="6.68551">
        <ele>1170</ele>
        <time>2024-05-26T12:57:03Z</time>
      </trkpt>
      <trkpt lat="43.74061" lon="6.68552">
        <ele>1169.9</ele>
        <time>2024-05-26T12:57:04Z</time>
      </trkpt>
      <trkpt lat="43.7406" lon="6.68553">
        <ele>1169.7</ele>
        <time>2024-05-26T12:57:05Z</time>
      </trkpt>
      <trkpt lat="43.74059" lon="6.68553">
        <ele>1169.6</ele>
        <time>2024-05-26T12:57:06Z</time>
      </trkpt>
      <trkpt lat="43.74057" lon="6.68554">
        <ele>1169.4</ele>
        <time>2024-05-26T12:57:07Z</time>
      </trkpt>
      <trkpt lat="43.74056" lon="6.68554">
        <ele>1169.3</ele>
        <time>2024-05-26T12:57:08Z</time>
      </trkpt>
      <trkpt lat="43.74055" lon="6.68554">
        <ele>1169.2</ele>
        <time>2024-05-26T12:57:09Z</time>
      </trkpt>
      <trkpt lat="43.74054" lon="6.68554">
        <ele>1169.1</ele>
        <time>2024-05-26T12:57:10Z</time>
      </trkpt>
      <trkpt lat="43.74053" lon="6.68554">
        <ele>1169</ele>
        <time>2024-05-26T12:57:11Z</time>
      </trkpt>
      <trkpt lat="43.74052" lon="6.68555">
        <ele>1168.9</ele>
        <time>2024-05-26T12:57:12Z</time>
      </trkpt>
      <trkpt lat="43.74051" lon="6.68556">
        <ele>1168.9</ele>
        <time>2024-05-26T12:57:13Z</time>
      </trkpt>
      <trkpt lat="43.7405" lon="6.68557">
        <ele>1168.7</ele>
        <time>2024-05-26T12:57:14Z</time>
      </trkpt>
      <trkpt lat="43.74048" lon="6.68557">
        <ele>1168.6</ele>
        <time>2024-05-26T12:57:15Z</time>
      </trkpt>
      <trkpt lat="43.74047" lon="6.68557">
        <ele>1168.5</ele>
        <time>2024-05-26T12:57:16Z</time>
      </trkpt>
      <trkpt lat="43.74046" lon="6.68558">
        <ele>1168.4</ele>
        <time>2024-05-26T12:57:17Z</time>
      </trkpt>
      <trkpt lat="43.74046" lon="6.68558">
        <ele>1168.4</ele>
        <time>2024-05-26T12:57:18Z</time>
      </trkpt>
      <trkpt lat="43.74045" lon="6.68558">
        <ele>1168.3</ele>
        <time>2024-05-26T12:57:19Z</time>
      </trkpt>
      <trkpt lat="43.74044" lon="6.68559">
        <ele>1168.2</ele>
        <time>2024-05-26T12:57:20Z</time>
      </trkpt>
      <trkpt lat="43.74042" lon="6.6856">
        <ele>1168.2</ele>
        <time>2024-05-26T12:57:21Z</time>
      </trkpt>
      <trkpt lat="43.74042" lon="6.68561">
        <ele>1168.1</ele>
        <time>2024-05-26T12:57:22Z</time>
      </trkpt>
      <trkpt lat="43.74041" lon="6.68562">
        <ele>1168</ele>
        <time>2024-05-26T12:57:23Z</time>
      </trkpt>
      <trkpt lat="43.7404" lon="6.68563">
        <ele>1168</ele>
        <time>2024-05-26T12:57:24Z</time>
      </trkpt>
      <trkpt lat="43.74039" lon="6.68563">
        <ele>1167.9</ele>
        <time>2024-05-26T12:57:25Z</time>
      </trkpt>
      <trkpt lat="43.74038" lon="6.68564">
        <ele>1167.8</ele>
        <time>2024-05-26T12:57:26Z</time>
      </trkpt>
      <trkpt lat="43.74037" lon="6.68564">
        <ele>1167.6</ele>
        <time>2024-05-26T12:57:27Z</time>
      </trkpt>
      <trkpt lat="43.74036" lon="6.68564">
        <ele>1167.6</ele>
        <time>2024-05-26T12:57:28Z</time>
      </trkpt>
      <trkpt lat="43.74036" lon="6.68565">
        <ele>1167.5</ele>
        <time>2024-05-26T12:57:29Z</time>
      </trkpt>
      <trkpt lat="43.74035" lon="6.68567">
        <ele>1167.4</ele>
        <time>2024-05-26T12:57:30Z</time>
      </trkpt>
      <trkpt lat="43.74035" lon="6.68567">
        <ele>1167.3</ele>
        <time>2024-05-26T12:57:31Z</time>
      </trkpt>
      <trkpt lat="43.74035" lon="6.68567">
        <ele>1167.2</ele>
        <time>2024-05-26T12:57:32Z</time>
      </trkpt>
      <trkpt lat="43.74034" lon="6.68566">
        <ele>1167.2</ele>
        <time>2024-05-26T12:57:33Z</time>
      </trkpt>
      <trkpt lat="43.74033" lon="6.68567">
        <ele>1167.2</ele>
        <time>2024-05-26T12:57:34Z</time>
      </trkpt>
      <trkpt lat="43.74033" lon="6.68567">
        <ele>1167.1</ele>
        <time>2024-05-26T12:57:35Z</time>
      </trkpt>
      <trkpt lat="43.74033" lon="6.68567">
        <ele>1167.1</ele>
        <time>2024-05-26T12:57:36Z</time>
      </trkpt>
      <trkpt lat="43.74033" lon="6.68566">
        <ele>1167.2</ele>
        <time>2024-05-26T12:57:37Z</time>
      </trkpt>
      <trkpt lat="43.74033" lon="6.68566">
        <ele>1167.2</ele>
        <time>2024-05-26T12:57:38Z</time>
      </trkpt>
      <trkpt lat="43.74033" lon="6.68566">
        <ele>1167.1</ele>
        <time>2024-05-26T12:57:39Z</time>
      </trkpt>
      <trkpt lat="43.74033" lon="6.68567">
        <ele>1167.2</ele>
        <time>2024-05-26T12:57:40Z</time>
      </trkpt>
      <trkpt lat="43.74033" lon="6.68568">
        <ele>1167.1</ele>
        <time>2024-05-26T12:57:41Z</time>
      </trkpt>
      <trkpt lat="43.74033" lon="6.68568">
        <ele>1167.1</ele>
        <time>2024-05-26T12:57:42Z</time>
      </trkpt>
      <trkpt lat="43.74032" lon="6.68568">
        <ele>1167.1</ele>
        <time>2024-05-26T12:57:43Z</time>
      </trkpt>
      <trkpt lat="43.74033" lon="6.68569">
        <ele>1167.1</ele>
        <time>2024-05-26T12:57:44Z</time>
      </trkpt>
      <trkpt lat="43.74033" lon="6.68569">
        <ele>1167.1</ele>
        <time>2024-05-26T12:57:45Z</time>
      </trkpt>
      <trkpt lat="43.74033" lon="6.6857">
        <ele>1167.1</ele>
        <time>2024-05-26T12:57:46Z</time>
      </trkpt>
      <trkpt lat="43.74033" lon="6.6857">
        <ele>1167.1</ele>
        <time>2024-05-26T12:57:47Z</time>
      </trkpt>
      <trkpt lat="43.74033" lon="6.6857">
        <ele>1167.1</ele>
        <time>2024-05-26T12:57:48Z</time>
      </trkpt>
      <trkpt lat="43.74032" lon="6.6857">
        <ele>1167.1</ele>
        <time>2024-05-26T12:57:49Z</time>
      </trkpt>
      <trkpt lat="43.7403" lon="6.6857">
        <ele>1166.5</ele>
        <time>2024-05-26T12:57:50Z</time>
      </trkpt>
      <trkpt lat="43.74031" lon="6.68571">
        <ele>1166.7</ele>
        <time>2024-05-26T12:57:51Z</time>
      </trkpt>
      <trkpt lat="43.74031" lon="6.68572">
        <ele>1166.8</ele>
        <time>2024-05-26T12:57:52Z</time>
      </trkpt>
      <trkpt lat="43.7403" lon="6.68572">
        <ele>1166.9</ele>
        <time>2024-05-26T12:57:53Z</time>
      </trkpt>
      <trkpt lat="43.7403" lon="6.68573">
        <ele>1167</ele>
        <time>2024-05-26T12:57:54Z</time>
      </trkpt>
      <trkpt lat="43.7403" lon="6.68573">
        <ele>1167.1</ele>
        <time>2024-05-26T12:57:55Z</time>
      </trkpt>
      <trkpt lat="43.7403" lon="6.68573">
        <ele>1167.2</ele>
        <time>2024-05-26T12:57:56Z</time>
      </trkpt>
      <trkpt lat="43.7403" lon="6.68573">
        <ele>1167.3</ele>
        <time>2024-05-26T12:57:57Z</time>
      </trkpt>
      <trkpt lat="43.7403" lon="6.68573">
        <ele>1167.3</ele>
        <time>2024-05-26T12:57:58Z</time>
      </trkpt>
      <trkpt lat="43.74031" lon="6.68573">
        <ele>1167.3</ele>
        <time>2024-05-26T12:57:59Z</time>
      </trkpt>
      <trkpt lat="43.74031" lon="6.68574">
        <ele>1167.3</ele>
        <time>2024-05-26T12:58:00Z</time>
      </trkpt>
      <trkpt lat="43.74031" lon="6.68575">
        <ele>1167.3</ele>
        <time>2024-05-26T12:58:01Z</time>
      </trkpt>
      <trkpt lat="43.74032" lon="6.68575">
        <ele>1167.3</ele>
        <time>2024-05-26T12:58:02Z</time>
      </trkpt>
      <trkpt lat="43.74032" lon="6.68575">
        <ele>1167.4</ele>
        <time>2024-05-26T12:58:03Z</time>
      </trkpt>
      <trkpt lat="43.74032" lon="6.68575">
        <ele>1167.5</ele>
        <time>2024-05-26T12:58:04Z</time>
      </trkpt>
      <trkpt lat="43.74032" lon="6.68575">
        <ele>1167.5</ele>
        <time>2024-05-26T12:58:05Z</time>
      </trkpt>
      <trkpt lat="43.74032" lon="6.68576">
        <ele>1167.6</ele>
        <time>2024-05-26T12:58:06Z</time>
      </trkpt>
      <trkpt lat="43.74032" lon="6.68576">
        <ele>1167.5</ele>
        <time>2024-05-26T12:58:07Z</time>
      </trkpt>
      <trkpt lat="43.74032" lon="6.68576">
        <ele>1167.5</ele>
        <time>2024-05-26T12:58:08Z</time>
      </trkpt>
      <trkpt lat="43.74031" lon="6.68577">
        <ele>1167.5</ele>
        <time>2024-05-26T12:58:09Z</time>
      </trkpt>
      <trkpt lat="43.74031" lon="6.68576">
        <ele>1167.5</ele>
        <time>2024-05-26T12:58:10Z</time>
      </trkpt>
      <trkpt lat="43.74031" lon="6.68577">
        <ele>1167.6</ele>
        <time>2024-05-26T12:58:11Z</time>
      </trkpt>
      <trkpt lat="43.74031" lon="6.68577">
        <ele>1167.6</ele>
        <time>2024-05-26T12:58:12Z</time>
      </trkpt>
      <trkpt lat="43.74031" lon="6.68575">
        <ele>1167.6</ele>
        <time>2024-05-26T12:58:13Z</time>
      </trkpt>
      <trkpt lat="43.74031" lon="6.68575">
        <ele>1167.7</ele>
        <time>2024-05-26T12:58:14Z</time>
      </trkpt>
      <trkpt lat="43.74031" lon="6.68575">
        <ele>1167.7</ele>
        <time>2024-05-26T12:58:15Z</time>
      </trkpt>
      <trkpt lat="43.74031" lon="6.68575">
        <ele>1167.8</ele>
        <time>2024-05-26T12:58:16Z</time>
      </trkpt>
      <trkpt lat="43.74032" lon="6.68575">
        <ele>1167.9</ele>
        <time>2024-05-26T12:58:17Z</time>
      </trkpt>
      <trkpt lat="43.74032" lon="6.68575">
        <ele>1167.9</ele>
        <time>2024-05-26T12:58:18Z</time>
      </trkpt>
      <trkpt lat="43.74032" lon="6.68575">
        <ele>1167.8</ele>
        <time>2024-05-26T12:58:19Z</time>
      </trkpt>
      <trkpt lat="43.74032" lon="6.68575">
        <ele>1167.8</ele>
        <time>2024-05-26T12:58:20Z</time>
      </trkpt>
      <trkpt lat="43.74032" lon="6.68576">
        <ele>1167.9</ele>
        <time>2024-05-26T12:58:21Z</time>
      </trkpt>
      <trkpt lat="43.74032" lon="6.68576">
        <ele>1167.9</ele>
        <time>2024-05-26T12:58:22Z</time>
      </trkpt>
      <trkpt lat="43.74032" lon="6.68576">
        <ele>1167.9</ele>
        <time>2024-05-26T12:58:23Z</time>
      </trkpt>
      <trkpt lat="43.74032" lon="6.68576">
        <ele>1168</ele>
        <time>2024-05-26T12:58:24Z</time>
      </trkpt>
      <trkpt lat="43.74032" lon="6.68576">
        <ele>1168.1</ele>
        <time>2024-05-26T12:58:25Z</time>
      </trkpt>
      <trkpt lat="43.74032" lon="6.68576">
        <ele>1168.2</ele>
        <time>2024-05-26T12:58:26Z</time>
      </trkpt>
      <trkpt lat="43.74032" lon="6.68576">
        <ele>1168.2</ele>
        <time>2024-05-26T12:58:27Z</time>
      </trkpt>
      <trkpt lat="43.74032" lon="6.68576">
        <ele>1168.2</ele>
        <time>2024-05-26T12:58:28Z</time>
      </trkpt>
      <trkpt lat="43.74032" lon="6.68576">
        <ele>1168.3</ele>
        <time>2024-05-26T12:58:29Z</time>
      </trkpt>
      <trkpt lat="43.74032" lon="6.68576">
        <ele>1168.3</ele>
        <time>2024-05-26T12:58:30Z</time>
      </trkpt>
      <trkpt lat="43.74032" lon="6.68577">
        <ele>1168.3</ele>
        <time>2024-05-26T12:58:31Z</time>
      </trkpt>
      <trkpt lat="43.74032" lon="6.68577">
        <ele>1168.3</ele>
        <time>2024-05-26T12:58:32Z</time>
      </trkpt>
      <trkpt lat="43.74032" lon="6.68577">
        <ele>1168.3</ele>
        <time>2024-05-26T12:58:33Z</time>
      </trkpt>
      <trkpt lat="43.74032" lon="6.68577">
        <ele>1168.3</ele>
        <time>2024-05-26T12:58:34Z</time>
      </trkpt>
      <trkpt lat="43.74032" lon="6.68578">
        <ele>1168.3</ele>
        <time>2024-05-26T12:58:35Z</time>
      </trkpt>
      <trkpt lat="43.74032" lon="6.68578">
        <ele>1168.2</ele>
        <time>2024-05-26T12:58:36Z</time>
      </trkpt>
      <trkpt lat="43.74032" lon="6.68578">
        <ele>1168.2</ele>
        <time>2024-05-26T12:58:37Z</time>
      </trkpt>
      <trkpt lat="43.74032" lon="6.68578">
        <ele>1168.1</ele>
        <time>2024-05-26T12:58:38Z</time>
      </trkpt>
      <trkpt lat="43.74032" lon="6.68579">
        <ele>1168.1</ele>
        <time>2024-05-26T12:58:39Z</time>
      </trkpt>
      <trkpt lat="43.74032" lon="6.68579">
        <ele>1168</ele>
        <time>2024-05-26T12:58:40Z</time>
      </trkpt>
      <trkpt lat="43.74032" lon="6.68579">
        <ele>1168</ele>
        <time>2024-05-26T12:58:41Z</time>
      </trkpt>
      <trkpt lat="43.74031" lon="6.68578">
        <ele>1168.1</ele>
        <time>2024-05-26T12:58:42Z</time>
      </trkpt>
      <trkpt lat="43.74031" lon="6.68578">
        <ele>1168.1</ele>
        <time>2024-05-26T12:58:43Z</time>
      </trkpt>
      <trkpt lat="43.74031" lon="6.68578">
        <ele>1168.1</ele>
        <time>2024-05-26T12:58:44Z</time>
      </trkpt>
      <trkpt lat="43.74031" lon="6.68578">
        <ele>1168.1</ele>
        <time>2024-05-26T12:58:45Z</time>
      </trkpt>
      <trkpt lat="43.74032" lon="6.68579">
        <ele>1168.1</ele>
        <time>2024-05-26T12:58:46Z</time>
      </trkpt>
      <trkpt lat="43.74032" lon="6.68579">
        <ele>1168.1</ele>
        <time>2024-05-26T12:58:47Z</time>
      </trkpt>
      <trkpt lat="43.74032" lon="6.68579">
        <ele>1168</ele>
        <time>2024-05-26T12:58:48Z</time>
      </trkpt>
      <trkpt lat="43.74032" lon="6.68579">
        <ele>1168</ele>
        <time>2024-05-26T12:58:49Z</time>
      </trkpt>
      <trkpt lat="43.74032" lon="6.68579">
        <ele>1168</ele>
        <time>2024-05-26T12:58:50Z</time>
      </trkpt>
      <trkpt lat="43.74032" lon="6.6858">
        <ele>1168.1</ele>
        <time>2024-05-26T12:58:51Z</time>
      </trkpt>
      <trkpt lat="43.74032" lon="6.6858">
        <ele>1168.1</ele>
        <time>2024-05-26T12:58:52Z</time>
      </trkpt>
      <trkpt lat="43.74032" lon="6.6858">
        <ele>1168</ele>
        <time>2024-05-26T12:58:53Z</time>
      </trkpt>
      <trkpt lat="43.74032" lon="6.6858">
        <ele>1168</ele>
        <time>2024-05-26T12:58:54Z</time>
      </trkpt>
      <trkpt lat="43.74032" lon="6.68581">
        <ele>1167.9</ele>
        <time>2024-05-26T12:58:55Z</time>
      </trkpt>
      <trkpt lat="43.74032" lon="6.68581">
        <ele>1167.9</ele>
        <time>2024-05-26T12:58:56Z</time>
      </trkpt>
      <trkpt lat="43.74031" lon="6.6858">
        <ele>1167.8</ele>
        <time>2024-05-26T12:58:57Z</time>
      </trkpt>
      <trkpt lat="43.74031" lon="6.6858">
        <ele>1167.8</ele>
        <time>2024-05-26T12:58:58Z</time>
      </trkpt>
      <trkpt lat="43.74031" lon="6.6858">
        <ele>1167.8</ele>
        <time>2024-05-26T12:58:59Z</time>
      </trkpt>
      <trkpt lat="43.74031" lon="6.6858">
        <ele>1167.8</ele>
        <time>2024-05-26T12:59:00Z</time>
      </trkpt>
      <trkpt lat="43.74031" lon="6.6858">
        <ele>1168</ele>
        <time>2024-05-26T12:59:01Z</time>
      </trkpt>
      <trkpt lat="43.74031" lon="6.6858">
        <ele>1168</ele>
        <time>2024-05-26T12:59:02Z</time>
      </trkpt>
      <trkpt lat="43.74031" lon="6.6858">
        <ele>1168.1</ele>
        <time>2024-05-26T12:59:03Z</time>
      </trkpt>
      <trkpt lat="43.74032" lon="6.6858">
        <ele>1168</ele>
        <time>2024-05-26T12:59:04Z</time>
      </trkpt>
      <trkpt lat="43.74032" lon="6.6858">
        <ele>1168</ele>
        <time>2024-05-26T12:59:05Z</time>
      </trkpt>
      <trkpt lat="43.74032" lon="6.6858">
        <ele>1167.9</ele>
        <time>2024-05-26T12:59:06Z</time>
      </trkpt>
      <trkpt lat="43.74032" lon="6.6858">
        <ele>1167.8</ele>
        <time>2024-05-26T12:59:07Z</time>
      </trkpt>
      <trkpt lat="43.74031" lon="6.6858">
        <ele>1167.8</ele>
        <time>2024-05-26T12:59:08Z</time>
      </trkpt>
      <trkpt lat="43.74032" lon="6.6858">
        <ele>1167.8</ele>
        <time>2024-05-26T12:59:09Z</time>
      </trkpt>
      <trkpt lat="43.74031" lon="6.6858">
        <ele>1167.8</ele>
        <time>2024-05-26T12:59:10Z</time>
      </trkpt>
      <trkpt lat="43.74031" lon="6.68579">
        <ele>1167.6</ele>
        <time>2024-05-26T12:59:11Z</time>
      </trkpt>
      <trkpt lat="43.74032" lon="6.6858">
        <ele>1167.8</ele>
        <time>2024-05-26T12:59:12Z</time>
      </trkpt>
      <trkpt lat="43.74032" lon="6.68579">
        <ele>1167.9</ele>
        <time>2024-05-26T12:59:13Z</time>
      </trkpt>
      <trkpt lat="43.74032" lon="6.6858">
        <ele>1167.9</ele>
        <time>2024-05-26T12:59:14Z</time>
      </trkpt>
      <trkpt lat="43.74032" lon="6.6858">
        <ele>1168</ele>
        <time>2024-05-26T12:59:15Z</time>
      </trkpt>
      <trkpt lat="43.74033" lon="6.6858">
        <ele>1167.9</ele>
        <time>2024-05-26T12:59:16Z</time>
      </trkpt>
      <trkpt lat="43.74033" lon="6.68579">
        <ele>1167.9</ele>
        <time>2024-05-26T12:59:17Z</time>
      </trkpt>
      <trkpt lat="43.74032" lon="6.6858">
        <ele>1167.9</ele>
        <time>2024-05-26T12:59:18Z</time>
      </trkpt>
      <trkpt lat="43.74033" lon="6.6858">
        <ele>1167.9</ele>
        <time>2024-05-26T12:59:19Z</time>
      </trkpt>
      <trkpt lat="43.74033" lon="6.6858">
        <ele>1167.9</ele>
        <time>2024-05-26T12:59:20Z</time>
      </trkpt>
      <trkpt lat="43.74033" lon="6.68579">
        <ele>1168</ele>
        <time>2024-05-26T12:59:21Z</time>
      </trkpt>
      <trkpt lat="43.74033" lon="6.68579">
        <ele>1167.9</ele>
        <time>2024-05-26T12:59:22Z</time>
      </trkpt>
      <trkpt lat="43.74032" lon="6.68579">
        <ele>1167.9</ele>
        <time>2024-05-26T12:59:23Z</time>
      </trkpt>
      <trkpt lat="43.74032" lon="6.68579">
        <ele>1167.9</ele>
        <time>2024-05-26T12:59:24Z</time>
      </trkpt>
      <trkpt lat="43.74032" lon="6.68579">
        <ele>1168</ele>
        <time>2024-05-26T12:59:25Z</time>
      </trkpt>
      <trkpt lat="43.74032" lon="6.68579">
        <ele>1168</ele>
        <time>2024-05-26T12:59:26Z</time>
      </trkpt>
      <trkpt lat="43.74032" lon="6.68579">
        <ele>1168</ele>
        <time>2024-05-26T12:59:27Z</time>
      </trkpt>
      <trkpt lat="43.74032" lon="6.68579">
        <ele>1168</ele>
        <time>2024-05-26T12:59:28Z</time>
      </trkpt>
      <trkpt lat="43.74032" lon="6.68579">
        <ele>1168</ele>
        <time>2024-05-26T12:59:29Z</time>
      </trkpt>
      <trkpt lat="43.74031" lon="6.68579">
        <ele>1168</ele>
        <time>2024-05-26T12:59:30Z</time>
      </trkpt>
      <trkpt lat="43.74031" lon="6.68579">
        <ele>1168</ele>
        <time>2024-05-26T12:59:31Z</time>
      </trkpt>
      <trkpt lat="43.74031" lon="6.68579">
        <ele>1167.9</ele>
        <time>2024-05-26T12:59:32Z</time>
      </trkpt>
      <trkpt lat="43.74031" lon="6.68579">
        <ele>1167.9</ele>
        <time>2024-05-26T12:59:33Z</time>
      </trkpt>
      <trkpt lat="43.74031" lon="6.68579">
        <ele>1167.9</ele>
        <time>2024-05-26T12:59:34Z</time>
      </trkpt>
      <trkpt lat="43.74031" lon="6.68579">
        <ele>1167.9</ele>
        <time>2024-05-26T12:59:35Z</time>
      </trkpt>
      <trkpt lat="43.7403" lon="6.68579">
        <ele>1167.8</ele>
        <time>2024-05-26T12:59:36Z</time>
      </trkpt>
      <trkpt lat="43.7403" lon="6.68579">
        <ele>1167.8</ele>
        <time>2024-05-26T12:59:37Z</time>
      </trkpt>
      <trkpt lat="43.7403" lon="6.68579">
        <ele>1167.8</ele>
        <time>2024-05-26T12:59:38Z</time>
      </trkpt>
      <trkpt lat="43.7403" lon="6.68579">
        <ele>1167.8</ele>
        <time>2024-05-26T12:59:39Z</time>
      </trkpt>
      <trkpt lat="43.7403" lon="6.68579">
        <ele>1167.9</ele>
        <time>2024-05-26T12:59:40Z</time>
      </trkpt>
      <trkpt lat="43.74029" lon="6.68579">
        <ele>1167.8</ele>
        <time>2024-05-26T12:59:41Z</time>
      </trkpt>
      <trkpt lat="43.74029" lon="6.68579">
        <ele>1167.7</ele>
        <time>2024-05-26T12:59:42Z</time>
      </trkpt>
      <trkpt lat="43.74029" lon="6.68579">
        <ele>1167.7</ele>
        <time>2024-05-26T12:59:43Z</time>
      </trkpt>
      <trkpt lat="43.74029" lon="6.68579">
        <ele>1167.8</ele>
        <time>2024-05-26T12:59:44Z</time>
      </trkpt>
      <trkpt lat="43.74029" lon="6.6858">
        <ele>1167.8</ele>
        <time>2024-05-26T12:59:45Z</time>
      </trkpt>
      <trkpt lat="43.74029" lon="6.6858">
        <ele>1167.8</ele>
        <time>2024-05-26T12:59:46Z</time>
      </trkpt>
      <trkpt lat="43.74029" lon="6.6858">
        <ele>1167.8</ele>
        <time>2024-05-26T12:59:47Z</time>
      </trkpt>
      <trkpt lat="43.74029" lon="6.6858">
        <ele>1167.9</ele>
        <time>2024-05-26T12:59:48Z</time>
      </trkpt>
      <trkpt lat="43.74029" lon="6.6858">
        <ele>1167.9</ele>
        <time>2024-05-26T12:59:49Z</time>
      </trkpt>
      <trkpt lat="43.74029" lon="6.68579">
        <ele>1167.9</ele>
        <time>2024-05-26T12:59:50Z</time>
      </trkpt>
      <trkpt lat="43.74029" lon="6.68579">
        <ele>1167.9</ele>
        <time>2024-05-26T12:59:51Z</time>
      </trkpt>
      <trkpt lat="43.74029" lon="6.68579">
        <ele>1167.9</ele>
        <time>2024-05-26T12:59:52Z</time>
      </trkpt>
      <trkpt lat="43.74029" lon="6.68579">
        <ele>1167.9</ele>
        <time>2024-05-26T12:59:53Z</time>
      </trkpt>
      <trkpt lat="43.74029" lon="6.68579">
        <ele>1168</ele>
        <time>2024-05-26T12:59:54Z</time>
      </trkpt>
      <trkpt lat="43.74029" lon="6.68578">
        <ele>1168</ele>
        <time>2024-05-26T12:59:55Z</time>
      </trkpt>
      <trkpt lat="43.74029" lon="6.68578">
        <ele>1167.9</ele>
        <time>2024-05-26T12:59:56Z</time>
      </trkpt>
      <trkpt lat="43.74029" lon="6.68577">
        <ele>1167.9</ele>
        <time>2024-05-26T12:59:57Z</time>
      </trkpt>
      <trkpt lat="43.74029" lon="6.68577">
        <ele>1167.9</ele>
        <time>2024-05-26T12:59:58Z</time>
      </trkpt>
      <trkpt lat="43.74029" lon="6.68578">
        <ele>1167.9</ele>
        <time>2024-05-26T12:59:59Z</time>
      </trkpt>
      <trkpt lat="43.74029" lon="6.68578">
        <ele>1167.9</ele>
        <time>2024-05-26T13:00:00Z</time>
      </trkpt>
      <trkpt lat="43.74029" lon="6.68578">
        <ele>1167.9</ele>
        <time>2024-05-26T13:00:01Z</time>
      </trkpt>
      <trkpt lat="43.74029" lon="6.68578">
        <ele>1167.9</ele>
        <time>2024-05-26T13:00:02Z</time>
      </trkpt>
      <trkpt lat="43.74029" lon="6.68577">
        <ele>1167.9</ele>
        <time>2024-05-26T13:00:03Z</time>
      </trkpt>
      <trkpt lat="43.74028" lon="6.68577">
        <ele>1167.9</ele>
        <time>2024-05-26T13:00:04Z</time>
      </trkpt>
      <trkpt lat="43.74028" lon="6.68577">
        <ele>1167.9</ele>
        <time>2024-05-26T13:00:05Z</time>
      </trkpt>
      <trkpt lat="43.74028" lon="6.68577">
        <ele>1167.9</ele>
        <time>2024-05-26T13:00:06Z</time>
      </trkpt>
      <trkpt lat="43.74029" lon="6.68577">
        <ele>1167.8</ele>
        <time>2024-05-26T13:00:07Z</time>
      </trkpt>
      <trkpt lat="43.74028" lon="6.68577">
        <ele>1167.9</ele>
        <time>2024-05-26T13:00:08Z</time>
      </trkpt>
      <trkpt lat="43.74028" lon="6.68577">
        <ele>1167.9</ele>
        <time>2024-05-26T13:00:09Z</time>
      </trkpt>
      <trkpt lat="43.74028" lon="6.68577">
        <ele>1167.8</ele>
        <time>2024-05-26T13:00:10Z</time>
      </trkpt>
      <trkpt lat="43.74028" lon="6.68576">
        <ele>1167.7</ele>
        <time>2024-05-26T13:00:11Z</time>
      </trkpt>
      <trkpt lat="43.74028" lon="6.68576">
        <ele>1167.8</ele>
        <time>2024-05-26T13:00:12Z</time>
      </trkpt>
      <trkpt lat="43.74028" lon="6.68577">
        <ele>1167.8</ele>
        <time>2024-05-26T13:00:13Z</time>
      </trkpt>
      <trkpt lat="43.74028" lon="6.68577">
        <ele>1167.8</ele>
        <time>2024-05-26T13:00:14Z</time>
      </trkpt>
      <trkpt lat="43.74028" lon="6.68577">
        <ele>1167.8</ele>
        <time>2024-05-26T13:00:15Z</time>
      </trkpt>
      <trkpt lat="43.74028" lon="6.68577">
        <ele>1167.7</ele>
        <time>2024-05-26T13:00:16Z</time>
      </trkpt>
      <trkpt lat="43.74028" lon="6.68577">
        <ele>1167.7</ele>
        <time>2024-05-26T13:00:17Z</time>
      </trkpt>
      <trkpt lat="43.74028" lon="6.68577">
        <ele>1167.7</ele>
        <time>2024-05-26T13:00:18Z</time>
      </trkpt>
      <trkpt lat="43.74028" lon="6.68576">
        <ele>1167.7</ele>
        <time>2024-05-26T13:00:19Z</time>
      </trkpt>
      <trkpt lat="43.74028" lon="6.68576">
        <ele>1167.8</ele>
        <time>2024-05-26T13:00:20Z</time>
      </trkpt>
      <trkpt lat="43.74028" lon="6.68576">
        <ele>1167.8</ele>
        <time>2024-05-26T13:00:21Z</time>
      </trkpt>
      <trkpt lat="43.74027" lon="6.68575">
        <ele>1167.8</ele>
        <time>2024-05-26T13:00:22Z</time>
      </trkpt>
      <trkpt lat="43.74027" lon="6.68575">
        <ele>1167.8</ele>
        <time>2024-05-26T13:00:23Z</time>
      </trkpt>
      <trkpt lat="43.74027" lon="6.68574">
        <ele>1167.8</ele>
        <time>2024-05-26T13:00:24Z</time>
      </trkpt>
      <trkpt lat="43.74026" lon="6.68574">
        <ele>1167.9</ele>
        <time>2024-05-26T13:00:25Z</time>
      </trkpt>
      <trkpt lat="43.74026" lon="6.68574">
        <ele>1167.8</ele>
        <time>2024-05-26T13:00:26Z</time>
      </trkpt>
      <trkpt lat="43.74026" lon="6.68573">
        <ele>1167.8</ele>
        <time>2024-05-26T13:00:27Z</time>
      </trkpt>
      <trkpt lat="43.74026" lon="6.68573">
        <ele>1167.8</ele>
        <time>2024-05-26T13:00:28Z</time>
      </trkpt>
      <trkpt lat="43.74026" lon="6.68573">
        <ele>1167.8</ele>
        <time>2024-05-26T13:00:29Z</time>
      </trkpt>
      <trkpt lat="43.74026" lon="6.68573">
        <ele>1167.8</ele>
        <time>2024-05-26T13:00:30Z</time>
      </trkpt>
      <trkpt lat="43.74026" lon="6.68572">
        <ele>1167.8</ele>
        <time>2024-05-26T13:00:31Z</time>
      </trkpt>
      <trkpt lat="43.74026" lon="6.68572">
        <ele>1167.8</ele>
        <time>2024-05-26T13:00:32Z</time>
      </trkpt>
      <trkpt lat="43.74026" lon="6.68572">
        <ele>1167.8</ele>
        <time>2024-05-26T13:00:33Z</time>
      </trkpt>
      <trkpt lat="43.74026" lon="6.68573">
        <ele>1167.8</ele>
        <time>2024-05-26T13:00:34Z</time>
      </trkpt>
      <trkpt lat="43.74026" lon="6.68573">
        <ele>1167.7</ele>
        <time>2024-05-26T13:00:35Z</time>
      </trkpt>
      <trkpt lat="43.74026" lon="6.68572">
        <ele>1167.8</ele>
        <time>2024-05-26T13:00:36Z</time>
      </trkpt>
      <trkpt lat="43.74026" lon="6.68572">
        <ele>1167.8</ele>
        <time>2024-05-26T13:00:37Z</time>
      </trkpt>
      <trkpt lat="43.74026" lon="6.68572">
        <ele>1167.9</ele>
        <time>2024-05-26T13:00:38Z</time>
      </trkpt>
      <trkpt lat="43.74026" lon="6.68572">
        <ele>1167.8</ele>
        <time>2024-05-26T13:00:39Z</time>
      </trkpt>
      <trkpt lat="43.74026" lon="6.68571">
        <ele>1167.8</ele>
        <time>2024-05-26T13:00:40Z</time>
      </trkpt>
      <trkpt lat="43.74026" lon="6.68571">
        <ele>1167.8</ele>
        <time>2024-05-26T13:00:41Z</time>
      </trkpt>
      <trkpt lat="43.74026" lon="6.68572">
        <ele>1167.7</ele>
        <time>2024-05-26T13:00:42Z</time>
      </trkpt>
      <trkpt lat="43.74026" lon="6.68572">
        <ele>1167.6</ele>
        <time>2024-05-26T13:00:43Z</time>
      </trkpt>
      <trkpt lat="43.74027" lon="6.68572">
        <ele>1167.6</ele>
        <time>2024-05-26T13:00:44Z</time>
      </trkpt>
      <trkpt lat="43.74027" lon="6.68572">
        <ele>1167.6</ele>
        <time>2024-05-26T13:00:45Z</time>
      </trkpt>
      <trkpt lat="43.74027" lon="6.68572">
        <ele>1167.4</ele>
        <time>2024-05-26T13:00:46Z</time>
      </trkpt>
      <trkpt lat="43.74027" lon="6.68572">
        <ele>1167.3</ele>
        <time>2024-05-26T13:00:47Z</time>
      </trkpt>
      <trkpt lat="43.74027" lon="6.68572">
        <ele>1167.5</ele>
        <time>2024-05-26T13:00:48Z</time>
      </trkpt>
      <trkpt lat="43.74027" lon="6.68572">
        <ele>1167.5</ele>
        <time>2024-05-26T13:00:49Z</time>
      </trkpt>
      <trkpt lat="43.74027" lon="6.68572">
        <ele>1167.6</ele>
        <time>2024-05-26T13:00:50Z</time>
      </trkpt>
      <trkpt lat="43.74027" lon="6.68572">
        <ele>1167.6</ele>
        <time>2024-05-26T13:00:51Z</time>
      </trkpt>
      <trkpt lat="43.74028" lon="6.68572">
        <ele>1167.6</ele>
        <time>2024-05-26T13:00:52Z</time>
      </trkpt>
      <trkpt lat="43.74028" lon="6.68572">
        <ele>1167.6</ele>
        <time>2024-05-26T13:00:53Z</time>
      </trkpt>
      <trkpt lat="43.74028" lon="6.68572">
        <ele>1167.5</ele>
        <time>2024-05-26T13:00:54Z</time>
      </trkpt>
      <trkpt lat="43.74028" lon="6.68572">
        <ele>1167.5</ele>
        <time>2024-05-26T13:00:55Z</time>
      </trkpt>
      <trkpt lat="43.74028" lon="6.68572">
        <ele>1167.5</ele>
        <time>2024-05-26T13:00:56Z</time>
      </trkpt>
      <trkpt lat="43.74028" lon="6.68572">
        <ele>1167.5</ele>
        <time>2024-05-26T13:00:57Z</time>
      </trkpt>
      <trkpt lat="43.74029" lon="6.68572">
        <ele>1167.5</ele>
        <time>2024-05-26T13:00:58Z</time>
      </trkpt>
      <trkpt lat="43.74029" lon="6.68572">
        <ele>1167.4</ele>
        <time>2024-05-26T13:00:59Z</time>
      </trkpt>
      <trkpt lat="43.74029" lon="6.68572">
        <ele>1167.3</ele>
        <time>2024-05-26T13:01:00Z</time>
      </trkpt>
      <trkpt lat="43.74029" lon="6.68572">
        <ele>1167.2</ele>
        <time>2024-05-26T13:01:01Z</time>
      </trkpt>
      <trkpt lat="43.74029" lon="6.68573">
        <ele>1167.2</ele>
        <time>2024-05-26T13:01:02Z</time>
      </trkpt>
      <trkpt lat="43.74029" lon="6.68573">
        <ele>1167.3</ele>
        <time>2024-05-26T13:01:03Z</time>
      </trkpt>
      <trkpt lat="43.7403" lon="6.68573">
        <ele>1167.3</ele>
        <time>2024-05-26T13:01:04Z</time>
      </trkpt>
      <trkpt lat="43.7403" lon="6.68573">
        <ele>1167.4</ele>
        <time>2024-05-26T13:01:05Z</time>
      </trkpt>
      <trkpt lat="43.7403" lon="6.68573">
        <ele>1167.4</ele>
        <time>2024-05-26T13:01:06Z</time>
      </trkpt>
      <trkpt lat="43.7403" lon="6.68573">
        <ele>1167.4</ele>
        <time>2024-05-26T13:01:07Z</time>
      </trkpt>
      <trkpt lat="43.7403" lon="6.68573">
        <ele>1167.4</ele>
        <time>2024-05-26T13:01:08Z</time>
      </trkpt>
      <trkpt lat="43.7403" lon="6.68573">
        <ele>1167.4</ele>
        <time>2024-05-26T13:01:09Z</time>
      </trkpt>
      <trkpt lat="43.7403" lon="6.68573">
        <ele>1167.4</ele>
        <time>2024-05-26T13:01:10Z</time>
      </trkpt>
      <trkpt lat="43.74031" lon="6.68574">
        <ele>1167.4</ele>
        <time>2024-05-26T13:01:11Z</time>
      </trkpt>
      <trkpt lat="43.74031" lon="6.68574">
        <ele>1167.5</ele>
        <time>2024-05-26T13:01:12Z</time>
      </trkpt>
      <trkpt lat="43.74031" lon="6.68574">
        <ele>1167.6</ele>
        <time>2024-05-26T13:01:13Z</time>
      </trkpt>
      <trkpt lat="43.74031" lon="6.68574">
        <ele>1167.6</ele>
        <time>2024-05-26T13:01:14Z</time>
      </trkpt>
      <trkpt lat="43.74031" lon="6.68574">
        <ele>1167.6</ele>
        <time>2024-05-26T13:01:15Z</time>
      </trkpt>
      <trkpt lat="43.74031" lon="6.68574">
        <ele>1167.6</ele>
        <time>2024-05-26T13:01:16Z</time>
      </trkpt>
      <trkpt lat="43.74031" lon="6.68574">
        <ele>1167.7</ele>
        <time>2024-05-26T13:01:17Z</time>
      </trkpt>
      <trkpt lat="43.74031" lon="6.68574">
        <ele>1167.7</ele>
        <time>2024-05-26T13:01:18Z</time>
      </trkpt>
      <trkpt lat="43.74031" lon="6.68574">
        <ele>1167.7</ele>
        <time>2024-05-26T13:01:19Z</time>
      </trkpt>
      <trkpt lat="43.74031" lon="6.68574">
        <ele>1167.7</ele>
        <time>2024-05-26T13:01:20Z</time>
      </trkpt>
      <trkpt lat="43.74031" lon="6.68574">
        <ele>1167.8</ele>
        <time>2024-05-26T13:01:21Z</time>
      </trkpt>
      <trkpt lat="43.74031" lon="6.68574">
        <ele>1167.8</ele>
        <time>2024-05-26T13:01:22Z</time>
      </trkpt>
      <trkpt lat="43.74032" lon="6.68574">
        <ele>1167.8</ele>
        <time>2024-05-26T13:01:23Z</time>
      </trkpt>
      <trkpt lat="43.74032" lon="6.68574">
        <ele>1167.8</ele>
        <time>2024-05-26T13:01:24Z</time>
      </trkpt>
      <trkpt lat="43.74032" lon="6.68575">
        <ele>1167.9</ele>
        <time>2024-05-26T13:01:25Z</time>
      </trkpt>
      <trkpt lat="43.74032" lon="6.68575">
        <ele>1167.8</ele>
        <time>2024-05-26T13:01:26Z</time>
      </trkpt>
      <trkpt lat="43.74032" lon="6.68575">
        <ele>1167.9</ele>
        <time>2024-05-26T13:01:27Z</time>
      </trkpt>
      <trkpt lat="43.74032" lon="6.68575">
        <ele>1167.9</ele>
        <time>2024-05-26T13:01:28Z</time>
      </trkpt>
      <trkpt lat="43.74032" lon="6.68575">
        <ele>1167.9</ele>
        <time>2024-05-26T13:01:29Z</time>
      </trkpt>
      <trkpt lat="43.74032" lon="6.68575">
        <ele>1167.9</ele>
        <time>2024-05-26T13:01:30Z</time>
      </trkpt>
      <trkpt lat="43.74032" lon="6.68575">
        <ele>1167.9</ele>
        <time>2024-05-26T13:01:31Z</time>
      </trkpt>
      <trkpt lat="43.74032" lon="6.68575">
        <ele>1167.9</ele>
        <time>2024-05-26T13:01:32Z</time>
      </trkpt>
      <trkpt lat="43.74032" lon="6.68574">
        <ele>1167.9</ele>
        <time>2024-05-26T13:01:33Z</time>
      </trkpt>
      <trkpt lat="43.74032" lon="6.68574">
        <ele>1167.9</ele>
        <time>2024-05-26T13:01:34Z</time>
      </trkpt>
      <trkpt lat="43.74032" lon="6.68574">
        <ele>1168</ele>
        <time>2024-05-26T13:01:35Z</time>
      </trkpt>
      <trkpt lat="43.74032" lon="6.68574">
        <ele>1168.1</ele>
        <time>2024-05-26T13:01:36Z</time>
      </trkpt>
      <trkpt lat="43.74032" lon="6.68574">
        <ele>1168.1</ele>
        <time>2024-05-26T13:01:37Z</time>
      </trkpt>
      <trkpt lat="43.74032" lon="6.68574">
        <ele>1168.2</ele>
        <time>2024-05-26T13:01:38Z</time>
      </trkpt>
      <trkpt lat="43.74032" lon="6.68574">
        <ele>1168.2</ele>
        <time>2024-05-26T13:01:39Z</time>
      </trkpt>
      <trkpt lat="43.74032" lon="6.68575">
        <ele>1168.2</ele>
        <time>2024-05-26T13:01:40Z</time>
      </trkpt>
      <trkpt lat="43.74031" lon="6.68574">
        <ele>1168.2</ele>
        <time>2024-05-26T13:01:41Z</time>
      </trkpt>
      <trkpt lat="43.74031" lon="6.68574">
        <ele>1168.2</ele>
        <time>2024-05-26T13:01:42Z</time>
      </trkpt>
      <trkpt lat="43.74031" lon="6.68573">
        <ele>1168.2</ele>
        <time>2024-05-26T13:01:43Z</time>
      </trkpt>
      <trkpt lat="43.74031" lon="6.68574">
        <ele>1168.1</ele>
        <time>2024-05-26T13:01:44Z</time>
      </trkpt>
      <trkpt lat="43.74031" lon="6.68573">
        <ele>1168.1</ele>
        <time>2024-05-26T13:01:45Z</time>
      </trkpt>
      <trkpt lat="43.74031" lon="6.68573">
        <ele>1168.1</ele>
        <time>2024-05-26T13:01:46Z</time>
      </trkpt>
      <trkpt lat="43.74031" lon="6.68574">
        <ele>1168</ele>
        <time>2024-05-26T13:01:47Z</time>
      </trkpt>
      <trkpt lat="43.74032" lon="6.68574">
        <ele>1168</ele>
        <time>2024-05-26T13:01:48Z</time>
      </trkpt>
      <trkpt lat="43.74032" lon="6.68574">
        <ele>1168</ele>
        <time>2024-05-26T13:01:49Z</time>
      </trkpt>
      <trkpt lat="43.74032" lon="6.68574">
        <ele>1167.9</ele>
        <time>2024-05-26T13:01:50Z</time>
      </trkpt>
      <trkpt lat="43.74032" lon="6.68574">
        <ele>1167.8</ele>
        <time>2024-05-26T13:01:51Z</time>
      </trkpt>
      <trkpt lat="43.74032" lon="6.68574">
        <ele>1167.7</ele>
        <time>2024-05-26T13:01:52Z</time>
      </trkpt>
      <trkpt lat="43.74031" lon="6.68574">
        <ele>1167.7</ele>
        <time>2024-05-26T13:01:53Z</time>
      </trkpt>
      <trkpt lat="43.74032" lon="6.68574">
        <ele>1167.7</ele>
        <time>2024-05-26T13:01:54Z</time>
      </trkpt>
      <trkpt lat="43.74032" lon="6.68574">
        <ele>1167.7</ele>
        <time>2024-05-26T13:01:55Z</time>
      </trkpt>
      <trkpt lat="43.74032" lon="6.68574">
        <ele>1167.7</ele>
        <time>2024-05-26T13:01:56Z</time>
      </trkpt>
      <trkpt lat="43.74032" lon="6.68573">
        <ele>1167.7</ele>
        <time>2024-05-26T13:01:57Z</time>
      </trkpt>
      <trkpt lat="43.74032" lon="6.68573">
        <ele>1167.7</ele>
        <time>2024-05-26T13:01:58Z</time>
      </trkpt>
      <trkpt lat="43.74032" lon="6.68573">
        <ele>1167.7</ele>
        <time>2024-05-26T13:01:59Z</time>
      </trkpt>
      <trkpt lat="43.74032" lon="6.68573">
        <ele>1167.7</ele>
        <time>2024-05-26T13:02:00Z</time>
      </trkpt>
      <trkpt lat="43.74032" lon="6.68572">
        <ele>1167.7</ele>
        <time>2024-05-26T13:02:01Z</time>
      </trkpt>
      <trkpt lat="43.74031" lon="6.68572">
        <ele>1167.7</ele>
        <time>2024-05-26T13:02:02Z</time>
      </trkpt>
      <trkpt lat="43.7403" lon="6.68571">
        <ele>1167.8</ele>
        <time>2024-05-26T13:02:03Z</time>
      </trkpt>
      <trkpt lat="43.7403" lon="6.68571">
        <ele>1167.9</ele>
        <time>2024-05-26T13:02:04Z</time>
      </trkpt>
      <trkpt lat="43.74031" lon="6.68571">
        <ele>1168.1</ele>
        <time>2024-05-26T13:02:05Z</time>
      </trkpt>
      <trkpt lat="43.7403" lon="6.68571">
        <ele>1168.1</ele>
        <time>2024-05-26T13:02:06Z</time>
      </trkpt>
      <trkpt lat="43.7403" lon="6.68572">
        <ele>1168.2</ele>
        <time>2024-05-26T13:02:07Z</time>
      </trkpt>
      <trkpt lat="43.7403" lon="6.68571">
        <ele>1168.3</ele>
        <time>2024-05-26T13:02:08Z</time>
      </trkpt>
      <trkpt lat="43.74029" lon="6.68571">
        <ele>1168.4</ele>
        <time>2024-05-26T13:02:09Z</time>
      </trkpt>
      <trkpt lat="43.74028" lon="6.68571">
        <ele>1168.5</ele>
        <time>2024-05-26T13:02:10Z</time>
      </trkpt>
      <trkpt lat="43.74028" lon="6.68571">
        <ele>1168.6</ele>
        <time>2024-05-26T13:02:11Z</time>
      </trkpt>
      <trkpt lat="43.74028" lon="6.68571">
        <ele>1168.6</ele>
        <time>2024-05-26T13:02:12Z</time>
      </trkpt>
      <trkpt lat="43.74027" lon="6.68572">
        <ele>1168.6</ele>
        <time>2024-05-26T13:02:13Z</time>
      </trkpt>
      <trkpt lat="43.74027" lon="6.68572">
        <ele>1168.7</ele>
        <time>2024-05-26T13:02:14Z</time>
      </trkpt>
      <trkpt lat="43.74027" lon="6.68572">
        <ele>1168.7</ele>
        <time>2024-05-26T13:02:15Z</time>
      </trkpt>
      <trkpt lat="43.74027" lon="6.68572">
        <ele>1168.7</ele>
        <time>2024-05-26T13:02:16Z</time>
      </trkpt>
      <trkpt lat="43.74027" lon="6.68573">
        <ele>1168.7</ele>
        <time>2024-05-26T13:02:17Z</time>
      </trkpt>
      <trkpt lat="43.74027" lon="6.68573">
        <ele>1168.8</ele>
        <time>2024-05-26T13:02:18Z</time>
      </trkpt>
      <trkpt lat="43.74027" lon="6.68573">
        <ele>1168.8</ele>
        <time>2024-05-26T13:02:19Z</time>
      </trkpt>
      <trkpt lat="43.74026" lon="6.68573">
        <ele>1168.8</ele>
        <time>2024-05-26T13:02:20Z</time>
      </trkpt>
      <trkpt lat="43.74026" lon="6.68573">
        <ele>1168.9</ele>
        <time>2024-05-26T13:02:21Z</time>
      </trkpt>
      <trkpt lat="43.74026" lon="6.68574">
        <ele>1168.9</ele>
        <time>2024-05-26T13:02:22Z</time>
      </trkpt>
      <trkpt lat="43.74027" lon="6.68574">
        <ele>1168.9</ele>
        <time>2024-05-26T13:02:23Z</time>
      </trkpt>
      <trkpt lat="43.74027" lon="6.68574">
        <ele>1168.8</ele>
        <time>2024-05-26T13:02:24Z</time>
      </trkpt>
      <trkpt lat="43.74027" lon="6.68574">
        <ele>1168.7</ele>
        <time>2024-05-26T13:02:25Z</time>
      </trkpt>
      <trkpt lat="43.74026" lon="6.68575">
        <ele>1168.7</ele>
        <time>2024-05-26T13:02:26Z</time>
      </trkpt>
      <trkpt lat="43.74026" lon="6.68574">
        <ele>1168.8</ele>
        <time>2024-05-26T13:02:27Z</time>
      </trkpt>
      <trkpt lat="43.74026" lon="6.68574">
        <ele>1168.8</ele>
        <time>2024-05-26T13:02:28Z</time>
      </trkpt>
      <trkpt lat="43.74026" lon="6.68574">
        <ele>1168.7</ele>
        <time>2024-05-26T13:02:29Z</time>
      </trkpt>
      <trkpt lat="43.74026" lon="6.68574">
        <ele>1168.7</ele>
        <time>2024-05-26T13:02:30Z</time>
      </trkpt>
      <trkpt lat="43.74026" lon="6.68574">
        <ele>1168.8</ele>
        <time>2024-05-26T13:02:31Z</time>
      </trkpt>
      <trkpt lat="43.74026" lon="6.68573">
        <ele>1168.9</ele>
        <time>2024-05-26T13:02:32Z</time>
      </trkpt>
      <trkpt lat="43.74026" lon="6.68572">
        <ele>1168.9</ele>
        <time>2024-05-26T13:02:33Z</time>
      </trkpt>
      <trkpt lat="43.74026" lon="6.68571">
        <ele>1169.1</ele>
        <time>2024-05-26T13:02:34Z</time>
      </trkpt>
      <trkpt lat="43.74026" lon="6.68571">
        <ele>1169.3</ele>
        <time>2024-05-26T13:02:35Z</time>
      </trkpt>
      <trkpt lat="43.74027" lon="6.6857">
        <ele>1169.4</ele>
        <time>2024-05-26T13:02:36Z</time>
      </trkpt>
      <trkpt lat="43.74027" lon="6.68569">
        <ele>1169.6</ele>
        <time>2024-05-26T13:02:37Z</time>
      </trkpt>
      <trkpt lat="43.74027" lon="6.68569">
        <ele>1169.8</ele>
        <time>2024-05-26T13:02:38Z</time>
      </trkpt>
      <trkpt lat="43.74028" lon="6.68569">
        <ele>1170</ele>
        <time>2024-05-26T13:02:39Z</time>
      </trkpt>
      <trkpt lat="43.74027" lon="6.68568">
        <ele>1170.2</ele>
        <time>2024-05-26T13:02:40Z</time>
      </trkpt>
      <trkpt lat="43.74028" lon="6.68568">
        <ele>1170.4</ele>
        <time>2024-05-26T13:02:41Z</time>
      </trkpt>
      <trkpt lat="43.74028" lon="6.68567">
        <ele>1170.6</ele>
        <time>2024-05-26T13:02:42Z</time>
      </trkpt>
      <trkpt lat="43.74028" lon="6.68567">
        <ele>1170.8</ele>
        <time>2024-05-26T13:02:43Z</time>
      </trkpt>
      <trkpt lat="43.74028" lon="6.68567">
        <ele>1171</ele>
        <time>2024-05-26T13:02:44Z</time>
      </trkpt>
      <trkpt lat="43.74028" lon="6.68566">
        <ele>1171.1</ele>
        <time>2024-05-26T13:02:45Z</time>
      </trkpt>
      <trkpt lat="43.74028" lon="6.68565">
        <ele>1171.2</ele>
        <time>2024-05-26T13:02:46Z</time>
      </trkpt>
      <trkpt lat="43.74027" lon="6.68564">
        <ele>1171.3</ele>
        <time>2024-05-26T13:02:47Z</time>
      </trkpt>
      <trkpt lat="43.74028" lon="6.68564">
        <ele>1171.6</ele>
        <time>2024-05-26T13:02:48Z</time>
      </trkpt>
      <trkpt lat="43.74028" lon="6.68563">
        <ele>1171.7</ele>
        <time>2024-05-26T13:02:49Z</time>
      </trkpt>
      <trkpt lat="43.74028" lon="6.68563">
        <ele>1171.9</ele>
        <time>2024-05-26T13:02:50Z</time>
      </trkpt>
      <trkpt lat="43.74028" lon="6.68562">
        <ele>1172.1</ele>
        <time>2024-05-26T13:02:51Z</time>
      </trkpt>
      <trkpt lat="43.74029" lon="6.68561">
        <ele>1172.2</ele>
        <time>2024-05-26T13:02:52Z</time>
      </trkpt>
      <trkpt lat="43.74029" lon="6.68561">
        <ele>1172.3</ele>
        <time>2024-05-26T13:02:53Z</time>
      </trkpt>
      <trkpt lat="43.74029" lon="6.6856">
        <ele>1172.4</ele>
        <time>2024-05-26T13:02:54Z</time>
      </trkpt>
      <trkpt lat="43.74029" lon="6.6856">
        <ele>1172.5</ele>
        <time>2024-05-26T13:02:55Z</time>
      </trkpt>
      <trkpt lat="43.74029" lon="6.68559">
        <ele>1172.6</ele>
        <time>2024-05-26T13:02:56Z</time>
      </trkpt>
      <trkpt lat="43.74029" lon="6.68559">
        <ele>1172.6</ele>
        <time>2024-05-26T13:02:57Z</time>
      </trkpt>
      <trkpt lat="43.74028" lon="6.68559">
        <ele>1172.6</ele>
        <time>2024-05-26T13:02:58Z</time>
      </trkpt>
      <trkpt lat="43.74028" lon="6.68559">
        <ele>1172.7</ele>
        <time>2024-05-26T13:02:59Z</time>
      </trkpt>
      <trkpt lat="43.74028" lon="6.68559">
        <ele>1172.7</ele>
        <time>2024-05-26T13:03:00Z</time>
      </trkpt>
      <trkpt lat="43.74029" lon="6.68558">
        <ele>1172.9</ele>
        <time>2024-05-26T13:03:01Z</time>
      </trkpt>
      <trkpt lat="43.74029" lon="6.68558">
        <ele>1173</ele>
        <time>2024-05-26T13:03:02Z</time>
      </trkpt>
      <trkpt lat="43.74029" lon="6.68557">
        <ele>1173.1</ele>
        <time>2024-05-26T13:03:03Z</time>
      </trkpt>
      <trkpt lat="43.74029" lon="6.68557">
        <ele>1173.4</ele>
        <time>2024-05-26T13:03:04Z</time>
      </trkpt>
      <trkpt lat="43.74029" lon="6.68556">
        <ele>1173.5</ele>
        <time>2024-05-26T13:03:05Z</time>
      </trkpt>
      <trkpt lat="43.7403" lon="6.68556">
        <ele>1173.5</ele>
        <time>2024-05-26T13:03:06Z</time>
      </trkpt>
      <trkpt lat="43.7403" lon="6.68556">
        <ele>1173.6</ele>
        <time>2024-05-26T13:03:07Z</time>
      </trkpt>
      <trkpt lat="43.7403" lon="6.68556">
        <ele>1173.7</ele>
        <time>2024-05-26T13:03:08Z</time>
      </trkpt>
      <trkpt lat="43.7403" lon="6.68555">
        <ele>1173.8</ele>
        <time>2024-05-26T13:03:09Z</time>
      </trkpt>
      <trkpt lat="43.7403" lon="6.68555">
        <ele>1173.8</ele>
        <time>2024-05-26T13:03:10Z</time>
      </trkpt>
      <trkpt lat="43.7403" lon="6.68555">
        <ele>1173.9</ele>
        <time>2024-05-26T13:03:11Z</time>
      </trkpt>
      <trkpt lat="43.74029" lon="6.68554">
        <ele>1174.1</ele>
        <time>2024-05-26T13:03:12Z</time>
      </trkpt>
      <trkpt lat="43.74029" lon="6.68553">
        <ele>1174.2</ele>
        <time>2024-05-26T13:03:13Z</time>
      </trkpt>
      <trkpt lat="43.74029" lon="6.68553">
        <ele>1174.2</ele>
        <time>2024-05-26T13:03:14Z</time>
      </trkpt>
      <trkpt lat="43.74029" lon="6.68553">
        <ele>1174.4</ele>
        <time>2024-05-26T13:03:15Z</time>
      </trkpt>
      <trkpt lat="43.74029" lon="6.68553">
        <ele>1174.6</ele>
        <time>2024-05-26T13:03:16Z</time>
      </trkpt>
      <trkpt lat="43.74029" lon="6.68553">
        <ele>1174.7</ele>
        <time>2024-05-26T13:03:17Z</time>
      </trkpt>
      <trkpt lat="43.74029" lon="6.68553">
        <ele>1174.9</ele>
        <time>2024-05-26T13:03:18Z</time>
      </trkpt>
      <trkpt lat="43.74029" lon="6.68553">
        <ele>1175</ele>
        <time>2024-05-26T13:03:19Z</time>
      </trkpt>
      <trkpt lat="43.74029" lon="6.68553">
        <ele>1175</ele>
        <time>2024-05-26T13:03:20Z</time>
      </trkpt>
      <trkpt lat="43.74029" lon="6.68553">
        <ele>1175.1</ele>
        <time>2024-05-26T13:03:21Z</time>
      </trkpt>
      <trkpt lat="43.74029" lon="6.68553">
        <ele>1175.2</ele>
        <time>2024-05-26T13:03:22Z</time>
      </trkpt>
      <trkpt lat="43.7403" lon="6.68552">
        <ele>1175.2</ele>
        <time>2024-05-26T13:03:23Z</time>
      </trkpt>
      <trkpt lat="43.7403" lon="6.68551">
        <ele>1175.2</ele>
        <time>2024-05-26T13:03:24Z</time>
      </trkpt>
      <trkpt lat="43.7403" lon="6.68551">
        <ele>1175.2</ele>
        <time>2024-05-26T13:03:25Z</time>
      </trkpt>
      <trkpt lat="43.74029" lon="6.6855">
        <ele>1175.3</ele>
        <time>2024-05-26T13:03:26Z</time>
      </trkpt>
      <trkpt lat="43.74029" lon="6.6855">
        <ele>1175.3</ele>
        <time>2024-05-26T13:03:27Z</time>
      </trkpt>
      <trkpt lat="43.74029" lon="6.6855">
        <ele>1175.4</ele>
        <time>2024-05-26T13:03:28Z</time>
      </trkpt>
      <trkpt lat="43.74029" lon="6.6855">
        <ele>1175.4</ele>
        <time>2024-05-26T13:03:29Z</time>
      </trkpt>
      <trkpt lat="43.74029" lon="6.68549">
        <ele>1175.6</ele>
        <time>2024-05-26T13:03:30Z</time>
      </trkpt>
      <trkpt lat="43.74029" lon="6.68549">
        <ele>1175.6</ele>
        <time>2024-05-26T13:03:31Z</time>
      </trkpt>
      <trkpt lat="43.74028" lon="6.68548">
        <ele>1175.7</ele>
        <time>2024-05-26T13:03:32Z</time>
      </trkpt>
      <trkpt lat="43.74028" lon="6.68548">
        <ele>1175.8</ele>
        <time>2024-05-26T13:03:33Z</time>
      </trkpt>
      <trkpt lat="43.74028" lon="6.68548">
        <ele>1175.9</ele>
        <time>2024-05-26T13:03:34Z</time>
      </trkpt>
      <trkpt lat="43.74028" lon="6.68547">
        <ele>1176</ele>
        <time>2024-05-26T13:03:35Z</time>
      </trkpt>
      <trkpt lat="43.74027" lon="6.68546">
        <ele>1176.1</ele>
        <time>2024-05-26T13:03:36Z</time>
      </trkpt>
      <trkpt lat="43.74027" lon="6.68545">
        <ele>1176.2</ele>
        <time>2024-05-26T13:03:37Z</time>
      </trkpt>
      <trkpt lat="43.74027" lon="6.68544">
        <ele>1176.3</ele>
        <time>2024-05-26T13:03:38Z</time>
      </trkpt>
      <trkpt lat="43.74026" lon="6.68544">
        <ele>1176.3</ele>
        <time>2024-05-26T13:03:39Z</time>
      </trkpt>
      <trkpt lat="43.74026" lon="6.68544">
        <ele>1176.4</ele>
        <time>2024-05-26T13:03:40Z</time>
      </trkpt>
      <trkpt lat="43.74025" lon="6.68543">
        <ele>1176.5</ele>
        <time>2024-05-26T13:03:41Z</time>
      </trkpt>
      <trkpt lat="43.74025" lon="6.68543">
        <ele>1176.6</ele>
        <time>2024-05-26T13:03:42Z</time>
      </trkpt>
      <trkpt lat="43.74024" lon="6.68543">
        <ele>1176.7</ele>
        <time>2024-05-26T13:03:43Z</time>
      </trkpt>
      <trkpt lat="43.74023" lon="6.68542">
        <ele>1176.7</ele>
        <time>2024-05-26T13:03:44Z</time>
      </trkpt>
      <trkpt lat="43.74021" lon="6.68542">
        <ele>1176.8</ele>
        <time>2024-05-26T13:03:45Z</time>
      </trkpt>
      <trkpt lat="43.7402" lon="6.68541">
        <ele>1176.9</ele>
        <time>2024-05-26T13:03:46Z</time>
      </trkpt>
      <trkpt lat="43.74019" lon="6.6854">
        <ele>1177</ele>
        <time>2024-05-26T13:03:47Z</time>
      </trkpt>
      <trkpt lat="43.74019" lon="6.68539">
        <ele>1177.1</ele>
        <time>2024-05-26T13:03:48Z</time>
      </trkpt>
      <trkpt lat="43.74018" lon="6.68539">
        <ele>1177.3</ele>
        <time>2024-05-26T13:03:49Z</time>
      </trkpt>
      <trkpt lat="43.74018" lon="6.68539">
        <ele>1177.4</ele>
        <time>2024-05-26T13:03:50Z</time>
      </trkpt>
      <trkpt lat="43.74017" lon="6.68538">
        <ele>1177.5</ele>
        <time>2024-05-26T13:03:51Z</time>
      </trkpt>
      <trkpt lat="43.74017" lon="6.68538">
        <ele>1177.6</ele>
        <time>2024-05-26T13:03:52Z</time>
      </trkpt>
      <trkpt lat="43.74017" lon="6.68538">
        <ele>1177.8</ele>
        <time>2024-05-26T13:03:53Z</time>
      </trkpt>
      <trkpt lat="43.74017" lon="6.68539">
        <ele>1177.9</ele>
        <time>2024-05-26T13:03:54Z</time>
      </trkpt>
      <trkpt lat="43.74017" lon="6.68539">
        <ele>1178</ele>
        <time>2024-05-26T13:03:55Z</time>
      </trkpt>
      <trkpt lat="43.74017" lon="6.68539">
        <ele>1178</ele>
        <time>2024-05-26T13:03:56Z</time>
      </trkpt>
      <trkpt lat="43.74017" lon="6.68538">
        <ele>1178.1</ele>
        <time>2024-05-26T13:03:57Z</time>
      </trkpt>
      <trkpt lat="43.74017" lon="6.68537">
        <ele>1178.1</ele>
        <time>2024-05-26T13:03:58Z</time>
      </trkpt>
      <trkpt lat="43.74017" lon="6.68536">
        <ele>1178.1</ele>
        <time>2024-05-26T13:03:59Z</time>
      </trkpt>
      <trkpt lat="43.74017" lon="6.68535">
        <ele>1178.1</ele>
        <time>2024-05-26T13:04:00Z</time>
      </trkpt>
      <trkpt lat="43.74016" lon="6.68535">
        <ele>1178.2</ele>
        <time>2024-05-26T13:04:01Z</time>
      </trkpt>
      <trkpt lat="43.74016" lon="6.68535">
        <ele>1178.2</ele>
        <time>2024-05-26T13:04:02Z</time>
      </trkpt>
      <trkpt lat="43.74016" lon="6.68535">
        <ele>1178.2</ele>
        <time>2024-05-26T13:04:03Z</time>
      </trkpt>
      <trkpt lat="43.74015" lon="6.68534">
        <ele>1178.3</ele>
        <time>2024-05-26T13:04:04Z</time>
      </trkpt>
      <trkpt lat="43.74015" lon="6.68534">
        <ele>1178.3</ele>
        <time>2024-05-26T13:04:05Z</time>
      </trkpt>
      <trkpt lat="43.74015" lon="6.68533">
        <ele>1178.3</ele>
        <time>2024-05-26T13:04:06Z</time>
      </trkpt>
      <trkpt lat="43.74015" lon="6.68532">
        <ele>1178.4</ele>
        <time>2024-05-26T13:04:07Z</time>
      </trkpt>
      <trkpt lat="43.74015" lon="6.68532">
        <ele>1178.5</ele>
        <time>2024-05-26T13:04:08Z</time>
      </trkpt>
      <trkpt lat="43.74015" lon="6.68531">
        <ele>1178.6</ele>
        <time>2024-05-26T13:04:09Z</time>
      </trkpt>
      <trkpt lat="43.74015" lon="6.68531">
        <ele>1178.7</ele>
        <time>2024-05-26T13:04:10Z</time>
      </trkpt>
      <trkpt lat="43.74015" lon="6.6853">
        <ele>1178.8</ele>
        <time>2024-05-26T13:04:11Z</time>
      </trkpt>
      <trkpt lat="43.74015" lon="6.6853">
        <ele>1178.9</ele>
        <time>2024-05-26T13:04:12Z</time>
      </trkpt>
      <trkpt lat="43.74014" lon="6.6853">
        <ele>1179</ele>
        <time>2024-05-26T13:04:13Z</time>
      </trkpt>
      <trkpt lat="43.74015" lon="6.68529">
        <ele>1179.1</ele>
        <time>2024-05-26T13:04:14Z</time>
      </trkpt>
      <trkpt lat="43.74014" lon="6.68528">
        <ele>1179.2</ele>
        <time>2024-05-26T13:04:15Z</time>
      </trkpt>
      <trkpt lat="43.74014" lon="6.68528">
        <ele>1179.3</ele>
        <time>2024-05-26T13:04:16Z</time>
      </trkpt>
      <trkpt lat="43.74014" lon="6.68528">
        <ele>1179.4</ele>
        <time>2024-05-26T13:04:17Z</time>
      </trkpt>
      <trkpt lat="43.74014" lon="6.68527">
        <ele>1179.5</ele>
        <time>2024-05-26T13:04:18Z</time>
      </trkpt>
      <trkpt lat="43.74014" lon="6.68527">
        <ele>1179.6</ele>
        <time>2024-05-26T13:04:19Z</time>
      </trkpt>
      <trkpt lat="43.74014" lon="6.68527">
        <ele>1179.6</ele>
        <time>2024-05-26T13:04:20Z</time>
      </trkpt>
      <trkpt lat="43.74014" lon="6.68526">
        <ele>1179.6</ele>
        <time>2024-05-26T13:04:21Z</time>
      </trkpt>
      <trkpt lat="43.74014" lon="6.68527">
        <ele>1179.6</ele>
        <time>2024-05-26T13:04:22Z</time>
      </trkpt>
      <trkpt lat="43.74014" lon="6.68527">
        <ele>1179.6</ele>
        <time>2024-05-26T13:04:23Z</time>
      </trkpt>
      <trkpt lat="43.74014" lon="6.68525">
        <ele>1179.7</ele>
        <time>2024-05-26T13:04:24Z</time>
      </trkpt>
      <trkpt lat="43.74015" lon="6.68524">
        <ele>1179.8</ele>
        <time>2024-05-26T13:04:25Z</time>
      </trkpt>
      <trkpt lat="43.74015" lon="6.68524">
        <ele>1179.8</ele>
        <time>2024-05-26T13:04:26Z</time>
      </trkpt>
      <trkpt lat="43.74015" lon="6.68523">
        <ele>1179.9</ele>
        <time>2024-05-26T13:04:27Z</time>
      </trkpt>
      <trkpt lat="43.74015" lon="6.68522">
        <ele>1180</ele>
        <time>2024-05-26T13:04:28Z</time>
      </trkpt>
      <trkpt lat="43.74015" lon="6.68521">
        <ele>1180</ele>
        <time>2024-05-26T13:04:29Z</time>
      </trkpt>
      <trkpt lat="43.74015" lon="6.6852">
        <ele>1180.1</ele>
        <time>2024-05-26T13:04:30Z</time>
      </trkpt>
      <trkpt lat="43.74015" lon="6.68519">
        <ele>1180.2</ele>
        <time>2024-05-26T13:04:31Z</time>
      </trkpt>
      <trkpt lat="43.74015" lon="6.68518">
        <ele>1180.3</ele>
        <time>2024-05-26T13:04:32Z</time>
      </trkpt>
      <trkpt lat="43.74015" lon="6.68516">
        <ele>1180.4</ele>
        <time>2024-05-26T13:04:33Z</time>
      </trkpt>
      <trkpt lat="43.74015" lon="6.68516">
        <ele>1180.6</ele>
        <time>2024-05-26T13:04:34Z</time>
      </trkpt>
      <trkpt lat="43.74016" lon="6.68515">
        <ele>1180.7</ele>
        <time>2024-05-26T13:04:35Z</time>
      </trkpt>
      <trkpt lat="43.74016" lon="6.68515">
        <ele>1180.8</ele>
        <time>2024-05-26T13:04:36Z</time>
      </trkpt>
      <trkpt lat="43.74017" lon="6.68514">
        <ele>1180.9</ele>
        <time>2024-05-26T13:04:37Z</time>
      </trkpt>
      <trkpt lat="43.74018" lon="6.68514">
        <ele>1181.1</ele>
        <time>2024-05-26T13:04:38Z</time>
      </trkpt>
      <trkpt lat="43.74018" lon="6.68512">
        <ele>1181.3</ele>
        <time>2024-05-26T13:04:39Z</time>
      </trkpt>
      <trkpt lat="43.74018" lon="6.68512">
        <ele>1181.4</ele>
        <time>2024-05-26T13:04:40Z</time>
      </trkpt>
      <trkpt lat="43.74018" lon="6.68512">
        <ele>1181.6</ele>
        <time>2024-05-26T13:04:41Z</time>
      </trkpt>
      <trkpt lat="43.74018" lon="6.68511">
        <ele>1181.7</ele>
        <time>2024-05-26T13:04:42Z</time>
      </trkpt>
      <trkpt lat="43.74018" lon="6.6851">
        <ele>1181.9</ele>
        <time>2024-05-26T13:04:43Z</time>
      </trkpt>
      <trkpt lat="43.74018" lon="6.6851">
        <ele>1182.2</ele>
        <time>2024-05-26T13:04:44Z</time>
      </trkpt>
      <trkpt lat="43.74019" lon="6.68509">
        <ele>1182.4</ele>
        <time>2024-05-26T13:04:45Z</time>
      </trkpt>
      <trkpt lat="43.74019" lon="6.68509">
        <ele>1182.7</ele>
        <time>2024-05-26T13:04:46Z</time>
      </trkpt>
      <trkpt lat="43.7402" lon="6.68508">
        <ele>1182.9</ele>
        <time>2024-05-26T13:04:47Z</time>
      </trkpt>
      <trkpt lat="43.7402" lon="6.68508">
        <ele>1183.1</ele>
        <time>2024-05-26T13:04:48Z</time>
      </trkpt>
      <trkpt lat="43.7402" lon="6.68507">
        <ele>1183.3</ele>
        <time>2024-05-26T13:04:49Z</time>
      </trkpt>
      <trkpt lat="43.7402" lon="6.68507">
        <ele>1183.5</ele>
        <time>2024-05-26T13:04:50Z</time>
      </trkpt>
      <trkpt lat="43.74021" lon="6.68507">
        <ele>1183.7</ele>
        <time>2024-05-26T13:04:51Z</time>
      </trkpt>
      <trkpt lat="43.74021" lon="6.68506">
        <ele>1183.9</ele>
        <time>2024-05-26T13:04:52Z</time>
      </trkpt>
      <trkpt lat="43.74021" lon="6.68506">
        <ele>1184.1</ele>
        <time>2024-05-26T13:04:53Z</time>
      </trkpt>
      <trkpt lat="43.74021" lon="6.68506">
        <ele>1184.2</ele>
        <time>2024-05-26T13:04:54Z</time>
      </trkpt>
      <trkpt lat="43.74021" lon="6.68506">
        <ele>1184.4</ele>
        <time>2024-05-26T13:04:55Z</time>
      </trkpt>
      <trkpt lat="43.74021" lon="6.68505">
        <ele>1184.6</ele>
        <time>2024-05-26T13:04:56Z</time>
      </trkpt>
      <trkpt lat="43.74021" lon="6.68505">
        <ele>1185</ele>
        <time>2024-05-26T13:04:57Z</time>
      </trkpt>
      <trkpt lat="43.74022" lon="6.68504">
        <ele>1185.2</ele>
        <time>2024-05-26T13:04:58Z</time>
      </trkpt>
      <trkpt lat="43.74022" lon="6.68504">
        <ele>1185.4</ele>
        <time>2024-05-26T13:04:59Z</time>
      </trkpt>
      <trkpt lat="43.74022" lon="6.68505">
        <ele>1185.6</ele>
        <time>2024-05-26T13:05:00Z</time>
      </trkpt>
      <trkpt lat="43.74023" lon="6.68503">
        <ele>1185.8</ele>
        <time>2024-05-26T13:05:01Z</time>
      </trkpt>
      <trkpt lat="43.74023" lon="6.68501">
        <ele>1185.9</ele>
        <time>2024-05-26T13:05:02Z</time>
      </trkpt>
      <trkpt lat="43.74023" lon="6.68502">
        <ele>1186.1</ele>
        <time>2024-05-26T13:05:03Z</time>
      </trkpt>
      <trkpt lat="43.74023" lon="6.68502">
        <ele>1186.3</ele>
        <time>2024-05-26T13:05:04Z</time>
      </trkpt>
      <trkpt lat="43.74024" lon="6.68501">
        <ele>1186.5</ele>
        <time>2024-05-26T13:05:05Z</time>
      </trkpt>
      <trkpt lat="43.74024" lon="6.68501">
        <ele>1186.6</ele>
        <time>2024-05-26T13:05:06Z</time>
      </trkpt>
      <trkpt lat="43.74025" lon="6.685">
        <ele>1186.9</ele>
        <time>2024-05-26T13:05:07Z</time>
      </trkpt>
      <trkpt lat="43.74025" lon="6.68498">
        <ele>1187.1</ele>
        <time>2024-05-26T13:05:08Z</time>
      </trkpt>
      <trkpt lat="43.74025" lon="6.68498">
        <ele>1187.3</ele>
        <time>2024-05-26T13:05:09Z</time>
      </trkpt>
      <trkpt lat="43.74025" lon="6.68497">
        <ele>1187.5</ele>
        <time>2024-05-26T13:05:10Z</time>
      </trkpt>
      <trkpt lat="43.74025" lon="6.68495">
        <ele>1187.7</ele>
        <time>2024-05-26T13:05:11Z</time>
      </trkpt>
      <trkpt lat="43.74026" lon="6.68494">
        <ele>1187.9</ele>
        <time>2024-05-26T13:05:12Z</time>
      </trkpt>
      <trkpt lat="43.74026" lon="6.68493">
        <ele>1188.1</ele>
        <time>2024-05-26T13:05:13Z</time>
      </trkpt>
      <trkpt lat="43.74026" lon="6.68492">
        <ele>1188.3</ele>
        <time>2024-05-26T13:05:14Z</time>
      </trkpt>
      <trkpt lat="43.74025" lon="6.68489">
        <ele>1188.5</ele>
        <time>2024-05-26T13:05:15Z</time>
      </trkpt>
      <trkpt lat="43.74025" lon="6.68489">
        <ele>1188.7</ele>
        <time>2024-05-26T13:05:16Z</time>
      </trkpt>
      <trkpt lat="43.74026" lon="6.68489">
        <ele>1189</ele>
        <time>2024-05-26T13:05:17Z</time>
      </trkpt>
      <trkpt lat="43.74026" lon="6.6849">
        <ele>1189.1</ele>
        <time>2024-05-26T13:05:18Z</time>
      </trkpt>
      <trkpt lat="43.74025" lon="6.6849">
        <ele>1189.3</ele>
        <time>2024-05-26T13:05:19Z</time>
      </trkpt>
      <trkpt lat="43.74026" lon="6.68489">
        <ele>1189.4</ele>
        <time>2024-05-26T13:05:20Z</time>
      </trkpt>
      <trkpt lat="43.74026" lon="6.68489">
        <ele>1189.5</ele>
        <time>2024-05-26T13:05:21Z</time>
      </trkpt>
      <trkpt lat="43.74026" lon="6.68488">
        <ele>1189.6</ele>
        <time>2024-05-26T13:05:22Z</time>
      </trkpt>
      <trkpt lat="43.74026" lon="6.68487">
        <ele>1189.7</ele>
        <time>2024-05-26T13:05:23Z</time>
      </trkpt>
      <trkpt lat="43.74027" lon="6.68486">
        <ele>1189.9</ele>
        <time>2024-05-26T13:05:24Z</time>
      </trkpt>
      <trkpt lat="43.74027" lon="6.68485">
        <ele>1189.9</ele>
        <time>2024-05-26T13:05:25Z</time>
      </trkpt>
      <trkpt lat="43.74027" lon="6.68484">
        <ele>1190</ele>
        <time>2024-05-26T13:05:26Z</time>
      </trkpt>
      <trkpt lat="43.74027" lon="6.68484">
        <ele>1190.2</ele>
        <time>2024-05-26T13:05:27Z</time>
      </trkpt>
      <trkpt lat="43.74027" lon="6.68483">
        <ele>1190.3</ele>
        <time>2024-05-26T13:05:28Z</time>
      </trkpt>
      <trkpt lat="43.74028" lon="6.68482">
        <ele>1190.5</ele>
        <time>2024-05-26T13:05:29Z</time>
      </trkpt>
      <trkpt lat="43.74028" lon="6.68482">
        <ele>1190.6</ele>
        <time>2024-05-26T13:05:30Z</time>
      </trkpt>
      <trkpt lat="43.74027" lon="6.68481">
        <ele>1190.8</ele>
        <time>2024-05-26T13:05:31Z</time>
      </trkpt>
      <trkpt lat="43.74027" lon="6.68481">
        <ele>1190.9</ele>
        <time>2024-05-26T13:05:32Z</time>
      </trkpt>
      <trkpt lat="43.74027" lon="6.6848">
        <ele>1191</ele>
        <time>2024-05-26T13:05:33Z</time>
      </trkpt>
      <trkpt lat="43.74027" lon="6.6848">
        <ele>1191.1</ele>
        <time>2024-05-26T13:05:34Z</time>
      </trkpt>
      <trkpt lat="43.74027" lon="6.68479">
        <ele>1191.2</ele>
        <time>2024-05-26T13:05:35Z</time>
      </trkpt>
      <trkpt lat="43.74027" lon="6.68479">
        <ele>1191.4</ele>
        <time>2024-05-26T13:05:36Z</time>
      </trkpt>
      <trkpt lat="43.74028" lon="6.68478">
        <ele>1191.4</ele>
        <time>2024-05-26T13:05:37Z</time>
      </trkpt>
      <trkpt lat="43.74028" lon="6.68478">
        <ele>1191.5</ele>
        <time>2024-05-26T13:05:38Z</time>
      </trkpt>
      <trkpt lat="43.74028" lon="6.68478">
        <ele>1191.6</ele>
        <time>2024-05-26T13:05:39Z</time>
      </trkpt>
      <trkpt lat="43.74028" lon="6.68478">
        <ele>1191.7</ele>
        <time>2024-05-26T13:05:40Z</time>
      </trkpt>
      <trkpt lat="43.74029" lon="6.68478">
        <ele>1191.8</ele>
        <time>2024-05-26T13:05:41Z</time>
      </trkpt>
      <trkpt lat="43.74029" lon="6.68476">
        <ele>1191.9</ele>
        <time>2024-05-26T13:05:42Z</time>
      </trkpt>
      <trkpt lat="43.74029" lon="6.68475">
        <ele>1192</ele>
        <time>2024-05-26T13:05:43Z</time>
      </trkpt>
      <trkpt lat="43.7403" lon="6.68474">
        <ele>1192.1</ele>
        <time>2024-05-26T13:05:44Z</time>
      </trkpt>
      <trkpt lat="43.7403" lon="6.68472">
        <ele>1192.3</ele>
        <time>2024-05-26T13:05:45Z</time>
      </trkpt>
      <trkpt lat="43.7403" lon="6.68471">
        <ele>1192.4</ele>
        <time>2024-05-26T13:05:46Z</time>
      </trkpt>
      <trkpt lat="43.7403" lon="6.68471">
        <ele>1192.6</ele>
        <time>2024-05-26T13:05:47Z</time>
      </trkpt>
      <trkpt lat="43.7403" lon="6.6847">
        <ele>1192.8</ele>
        <time>2024-05-26T13:05:48Z</time>
      </trkpt>
      <trkpt lat="43.7403" lon="6.6847">
        <ele>1192.9</ele>
        <time>2024-05-26T13:05:49Z</time>
      </trkpt>
      <trkpt lat="43.7403" lon="6.6847">
        <ele>1193.2</ele>
        <time>2024-05-26T13:05:50Z</time>
      </trkpt>
      <trkpt lat="43.7403" lon="6.68471">
        <ele>1193.4</ele>
        <time>2024-05-26T13:05:51Z</time>
      </trkpt>
      <trkpt lat="43.7403" lon="6.68471">
        <ele>1193.7</ele>
        <time>2024-05-26T13:05:52Z</time>
      </trkpt>
      <trkpt lat="43.7403" lon="6.6847">
        <ele>1194</ele>
        <time>2024-05-26T13:05:53Z</time>
      </trkpt>
      <trkpt lat="43.7403" lon="6.6847">
        <ele>1194.3</ele>
        <time>2024-05-26T13:05:54Z</time>
      </trkpt>
      <trkpt lat="43.7403" lon="6.68469">
        <ele>1194.4</ele>
        <time>2024-05-26T13:05:55Z</time>
      </trkpt>
      <trkpt lat="43.74029" lon="6.68469">
        <ele>1194.6</ele>
        <time>2024-05-26T13:05:56Z</time>
      </trkpt>
      <trkpt lat="43.74029" lon="6.68468">
        <ele>1194.8</ele>
        <time>2024-05-26T13:05:57Z</time>
      </trkpt>
      <trkpt lat="43.74028" lon="6.68467">
        <ele>1194.9</ele>
        <time>2024-05-26T13:05:58Z</time>
      </trkpt>
      <trkpt lat="43.74028" lon="6.68466">
        <ele>1195</ele>
        <time>2024-05-26T13:05:59Z</time>
      </trkpt>
      <trkpt lat="43.74027" lon="6.68466">
        <ele>1195.1</ele>
        <time>2024-05-26T13:06:00Z</time>
      </trkpt>
      <trkpt lat="43.74027" lon="6.68464">
        <ele>1195</ele>
        <time>2024-05-26T13:06:01Z</time>
      </trkpt>
      <trkpt lat="43.74027" lon="6.68463">
        <ele>1195.1</ele>
        <time>2024-05-26T13:06:02Z</time>
      </trkpt>
      <trkpt lat="43.74027" lon="6.68463">
        <ele>1195.3</ele>
        <time>2024-05-26T13:06:03Z</time>
      </trkpt>
      <trkpt lat="43.74027" lon="6.68462">
        <ele>1195.5</ele>
        <time>2024-05-26T13:06:04Z</time>
      </trkpt>
      <trkpt lat="43.74027" lon="6.68462">
        <ele>1195.7</ele>
        <time>2024-05-26T13:06:05Z</time>
      </trkpt>
      <trkpt lat="43.74027" lon="6.68461">
        <ele>1195.9</ele>
        <time>2024-05-26T13:06:06Z</time>
      </trkpt>
      <trkpt lat="43.74027" lon="6.6846">
        <ele>1196.1</ele>
        <time>2024-05-26T13:06:07Z</time>
      </trkpt>
      <trkpt lat="43.74026" lon="6.6846">
        <ele>1196.2</ele>
        <time>2024-05-26T13:06:08Z</time>
      </trkpt>
      <trkpt lat="43.74026" lon="6.6846">
        <ele>1196.3</ele>
        <time>2024-05-26T13:06:09Z</time>
      </trkpt>
      <trkpt lat="43.74026" lon="6.6846">
        <ele>1196.4</ele>
        <time>2024-05-26T13:06:10Z</time>
      </trkpt>
      <trkpt lat="43.74026" lon="6.6846">
        <ele>1196.6</ele>
        <time>2024-05-26T13:06:11Z</time>
      </trkpt>
      <trkpt lat="43.74027" lon="6.68459">
        <ele>1196.7</ele>
        <time>2024-05-26T13:06:12Z</time>
      </trkpt>
      <trkpt lat="43.74026" lon="6.68459">
        <ele>1196.8</ele>
        <time>2024-05-26T13:06:13Z</time>
      </trkpt>
      <trkpt lat="43.74026" lon="6.68458">
        <ele>1196.9</ele>
        <time>2024-05-26T13:06:14Z</time>
      </trkpt>
      <trkpt lat="43.74027" lon="6.68457">
        <ele>1196.9</ele>
        <time>2024-05-26T13:06:15Z</time>
      </trkpt>
      <trkpt lat="43.74026" lon="6.68456">
        <ele>1197.1</ele>
        <time>2024-05-26T13:06:16Z</time>
      </trkpt>
      <trkpt lat="43.74027" lon="6.68455">
        <ele>1197.2</ele>
        <time>2024-05-26T13:06:17Z</time>
      </trkpt>
      <trkpt lat="43.74027" lon="6.68453">
        <ele>1197.4</ele>
        <time>2024-05-26T13:06:18Z</time>
      </trkpt>
      <trkpt lat="43.74027" lon="6.68452">
        <ele>1197.5</ele>
        <time>2024-05-26T13:06:19Z</time>
      </trkpt>
      <trkpt lat="43.74027" lon="6.68452">
        <ele>1197.7</ele>
        <time>2024-05-26T13:06:20Z</time>
      </trkpt>
      <trkpt lat="43.74026" lon="6.6845">
        <ele>1197.9</ele>
        <time>2024-05-26T13:06:21Z</time>
      </trkpt>
      <trkpt lat="43.74026" lon="6.68449">
        <ele>1198</ele>
        <time>2024-05-26T13:06:22Z</time>
      </trkpt>
      <trkpt lat="43.74027" lon="6.68448">
        <ele>1198.2</ele>
        <time>2024-05-26T13:06:23Z</time>
      </trkpt>
      <trkpt lat="43.74026" lon="6.68448">
        <ele>1198.4</ele>
        <time>2024-05-26T13:06:24Z</time>
      </trkpt>
      <trkpt lat="43.74026" lon="6.68448">
        <ele>1198.7</ele>
        <time>2024-05-26T13:06:25Z</time>
      </trkpt>
      <trkpt lat="43.74026" lon="6.68447">
        <ele>1198.8</ele>
        <time>2024-05-26T13:06:26Z</time>
      </trkpt>
      <trkpt lat="43.74026" lon="6.68445">
        <ele>1198.9</ele>
        <time>2024-05-26T13:06:27Z</time>
      </trkpt>
      <trkpt lat="43.74026" lon="6.68444">
        <ele>1199.1</ele>
        <time>2024-05-26T13:06:28Z</time>
      </trkpt>
      <trkpt lat="43.74026" lon="6.68444">
        <ele>1199.1</ele>
        <time>2024-05-26T13:06:29Z</time>
      </trkpt>
      <trkpt lat="43.74025" lon="6.68443">
        <ele>1199.4</ele>
        <time>2024-05-26T13:06:30Z</time>
      </trkpt>
      <trkpt lat="43.74025" lon="6.68443">
        <ele>1199.5</ele>
        <time>2024-05-26T13:06:31Z</time>
      </trkpt>
      <trkpt lat="43.74025" lon="6.68442">
        <ele>1199.6</ele>
        <time>2024-05-26T13:06:32Z</time>
      </trkpt>
      <trkpt lat="43.74025" lon="6.68442">
        <ele>1199.7</ele>
        <time>2024-05-26T13:06:33Z</time>
      </trkpt>
      <trkpt lat="43.74025" lon="6.68442">
        <ele>1199.9</ele>
        <time>2024-05-26T13:06:34Z</time>
      </trkpt>
      <trkpt lat="43.74025" lon="6.68441">
        <ele>1200.1</ele>
        <time>2024-05-26T13:06:35Z</time>
      </trkpt>
      <trkpt lat="43.74025" lon="6.6844">
        <ele>1200.3</ele>
        <time>2024-05-26T13:06:36Z</time>
      </trkpt>
      <trkpt lat="43.74025" lon="6.68438">
        <ele>1200.4</ele>
        <time>2024-05-26T13:06:37Z</time>
      </trkpt>
      <trkpt lat="43.74025" lon="6.68437">
        <ele>1200.5</ele>
        <time>2024-05-26T13:06:38Z</time>
      </trkpt>
      <trkpt lat="43.74025" lon="6.68436">
        <ele>1200.7</ele>
        <time>2024-05-26T13:06:39Z</time>
      </trkpt>
      <trkpt lat="43.74024" lon="6.68435">
        <ele>1200.6</ele>
        <time>2024-05-26T13:06:40Z</time>
      </trkpt>
      <trkpt lat="43.74024" lon="6.68434">
        <ele>1200.7</ele>
        <time>2024-05-26T13:06:41Z</time>
      </trkpt>
      <trkpt lat="43.74024" lon="6.68433">
        <ele>1200.8</ele>
        <time>2024-05-26T13:06:42Z</time>
      </trkpt>
      <trkpt lat="43.74024" lon="6.68432">
        <ele>1201.1</ele>
        <time>2024-05-26T13:06:43Z</time>
      </trkpt>
      <trkpt lat="43.74023" lon="6.68432">
        <ele>1201.2</ele>
        <time>2024-05-26T13:06:44Z</time>
      </trkpt>
      <trkpt lat="43.74024" lon="6.68431">
        <ele>1201.4</ele>
        <time>2024-05-26T13:06:45Z</time>
      </trkpt>
      <trkpt lat="43.74023" lon="6.6843">
        <ele>1201.5</ele>
        <time>2024-05-26T13:06:46Z</time>
      </trkpt>
      <trkpt lat="43.74023" lon="6.6843">
        <ele>1201.6</ele>
        <time>2024-05-26T13:06:47Z</time>
      </trkpt>
      <trkpt lat="43.74023" lon="6.68429">
        <ele>1201.7</ele>
        <time>2024-05-26T13:06:48Z</time>
      </trkpt>
      <trkpt lat="43.74023" lon="6.68428">
        <ele>1201.8</ele>
        <time>2024-05-26T13:06:49Z</time>
      </trkpt>
      <trkpt lat="43.74023" lon="6.68427">
        <ele>1201.9</ele>
        <time>2024-05-26T13:06:50Z</time>
      </trkpt>
      <trkpt lat="43.74023" lon="6.68426">
        <ele>1202</ele>
        <time>2024-05-26T13:06:51Z</time>
      </trkpt>
      <trkpt lat="43.74023" lon="6.68425">
        <ele>1202.1</ele>
        <time>2024-05-26T13:06:52Z</time>
      </trkpt>
      <trkpt lat="43.74023" lon="6.68424">
        <ele>1202.3</ele>
        <time>2024-05-26T13:06:53Z</time>
      </trkpt>
      <trkpt lat="43.74022" lon="6.68424">
        <ele>1202.5</ele>
        <time>2024-05-26T13:06:54Z</time>
      </trkpt>
      <trkpt lat="43.74022" lon="6.68423">
        <ele>1202.7</ele>
        <time>2024-05-26T13:06:55Z</time>
      </trkpt>
      <trkpt lat="43.74021" lon="6.68423">
        <ele>1202.9</ele>
        <time>2024-05-26T13:06:56Z</time>
      </trkpt>
      <trkpt lat="43.74021" lon="6.68423">
        <ele>1203.1</ele>
        <time>2024-05-26T13:06:57Z</time>
      </trkpt>
      <trkpt lat="43.7402" lon="6.68423">
        <ele>1203.2</ele>
        <time>2024-05-26T13:06:58Z</time>
      </trkpt>
      <trkpt lat="43.7402" lon="6.68422">
        <ele>1203.4</ele>
        <time>2024-05-26T13:06:59Z</time>
      </trkpt>
      <trkpt lat="43.74021" lon="6.68422">
        <ele>1203.5</ele>
        <time>2024-05-26T13:07:00Z</time>
      </trkpt>
      <trkpt lat="43.7402" lon="6.68421">
        <ele>1203.8</ele>
        <time>2024-05-26T13:07:01Z</time>
      </trkpt>
      <trkpt lat="43.7402" lon="6.6842">
        <ele>1203.9</ele>
        <time>2024-05-26T13:07:02Z</time>
      </trkpt>
      <trkpt lat="43.7402" lon="6.6842">
        <ele>1204.1</ele>
        <time>2024-05-26T13:07:03Z</time>
      </trkpt>
      <trkpt lat="43.7402" lon="6.68419">
        <ele>1204.3</ele>
        <time>2024-05-26T13:07:04Z</time>
      </trkpt>
      <trkpt lat="43.7402" lon="6.68419">
        <ele>1204.5</ele>
        <time>2024-05-26T13:07:05Z</time>
      </trkpt>
      <trkpt lat="43.74019" lon="6.68418">
        <ele>1204.7</ele>
        <time>2024-05-26T13:07:06Z</time>
      </trkpt>
      <trkpt lat="43.74019" lon="6.68418">
        <ele>1204.8</ele>
        <time>2024-05-26T13:07:07Z</time>
      </trkpt>
      <trkpt lat="43.74019" lon="6.68417">
        <ele>1205</ele>
        <time>2024-05-26T13:07:08Z</time>
      </trkpt>
      <trkpt lat="43.74018" lon="6.68417">
        <ele>1205.2</ele>
        <time>2024-05-26T13:07:09Z</time>
      </trkpt>
      <trkpt lat="43.74019" lon="6.68416">
        <ele>1205.4</ele>
        <time>2024-05-26T13:07:10Z</time>
      </trkpt>
      <trkpt lat="43.74019" lon="6.68416">
        <ele>1205.6</ele>
        <time>2024-05-26T13:07:11Z</time>
      </trkpt>
      <trkpt lat="43.74019" lon="6.68415">
        <ele>1205.7</ele>
        <time>2024-05-26T13:07:12Z</time>
      </trkpt>
      <trkpt lat="43.74019" lon="6.68415">
        <ele>1205.8</ele>
        <time>2024-05-26T13:07:13Z</time>
      </trkpt>
      <trkpt lat="43.74018" lon="6.68415">
        <ele>1206</ele>
        <time>2024-05-26T13:07:14Z</time>
      </trkpt>
      <trkpt lat="43.74018" lon="6.68414">
        <ele>1206.2</ele>
        <time>2024-05-26T13:07:15Z</time>
      </trkpt>
      <trkpt lat="43.74018" lon="6.68414">
        <ele>1206.4</ele>
        <time>2024-05-26T13:07:16Z</time>
      </trkpt>
      <trkpt lat="43.74018" lon="6.68413">
        <ele>1206.6</ele>
        <time>2024-05-26T13:07:17Z</time>
      </trkpt>
      <trkpt lat="43.74017" lon="6.68412">
        <ele>1206.8</ele>
        <time>2024-05-26T13:07:18Z</time>
      </trkpt>
      <trkpt lat="43.74017" lon="6.68412">
        <ele>1206.9</ele>
        <time>2024-05-26T13:07:19Z</time>
      </trkpt>
      <trkpt lat="43.74017" lon="6.68412">
        <ele>1207.1</ele>
        <time>2024-05-26T13:07:20Z</time>
      </trkpt>
      <trkpt lat="43.74017" lon="6.68411">
        <ele>1207.2</ele>
        <time>2024-05-26T13:07:21Z</time>
      </trkpt>
      <trkpt lat="43.74017" lon="6.6841">
        <ele>1207.3</ele>
        <time>2024-05-26T13:07:22Z</time>
      </trkpt>
      <trkpt lat="43.74017" lon="6.6841">
        <ele>1207.4</ele>
        <time>2024-05-26T13:07:23Z</time>
      </trkpt>
      <trkpt lat="43.74017" lon="6.6841">
        <ele>1207.6</ele>
        <time>2024-05-26T13:07:24Z</time>
      </trkpt>
      <trkpt lat="43.74017" lon="6.68409">
        <ele>1207.8</ele>
        <time>2024-05-26T13:07:25Z</time>
      </trkpt>
      <trkpt lat="43.74017" lon="6.68409">
        <ele>1207.9</ele>
        <time>2024-05-26T13:07:26Z</time>
      </trkpt>
      <trkpt lat="43.74017" lon="6.68408">
        <ele>1208</ele>
        <time>2024-05-26T13:07:27Z</time>
      </trkpt>
      <trkpt lat="43.74017" lon="6.68407">
        <ele>1208.2</ele>
        <time>2024-05-26T13:07:28Z</time>
      </trkpt>
      <trkpt lat="43.74017" lon="6.68407">
        <ele>1208.3</ele>
        <time>2024-05-26T13:07:29Z</time>
      </trkpt>
      <trkpt lat="43.74017" lon="6.68406">
        <ele>1208.5</ele>
        <time>2024-05-26T13:07:30Z</time>
      </trkpt>
      <trkpt lat="43.74017" lon="6.68406">
        <ele>1208.6</ele>
        <time>2024-05-26T13:07:31Z</time>
      </trkpt>
      <trkpt lat="43.74017" lon="6.68406">
        <ele>1208.5</ele>
        <time>2024-05-26T13:07:32Z</time>
      </trkpt>
      <trkpt lat="43.74017" lon="6.68406">
        <ele>1208.7</ele>
        <time>2024-05-26T13:07:33Z</time>
      </trkpt>
      <trkpt lat="43.74017" lon="6.68406">
        <ele>1208.7</ele>
        <time>2024-05-26T13:07:34Z</time>
      </trkpt>
      <trkpt lat="43.74017" lon="6.68406">
        <ele>1208.8</ele>
        <time>2024-05-26T13:07:35Z</time>
      </trkpt>
      <trkpt lat="43.74017" lon="6.68406">
        <ele>1208.9</ele>
        <time>2024-05-26T13:07:36Z</time>
      </trkpt>
      <trkpt lat="43.74017" lon="6.68405">
        <ele>1208.9</ele>
        <time>2024-05-26T13:07:37Z</time>
      </trkpt>
      <trkpt lat="43.74017" lon="6.68405">
        <ele>1208.9</ele>
        <time>2024-05-26T13:07:38Z</time>
      </trkpt>
      <trkpt lat="43.74017" lon="6.68404">
        <ele>1208.9</ele>
        <time>2024-05-26T13:07:39Z</time>
      </trkpt>
      <trkpt lat="43.74017" lon="6.68404">
        <ele>1208.9</ele>
        <time>2024-05-26T13:07:40Z</time>
      </trkpt>
      <trkpt lat="43.74017" lon="6.68404">
        <ele>1208.9</ele>
        <time>2024-05-26T13:07:41Z</time>
      </trkpt>
      <trkpt lat="43.74017" lon="6.68404">
        <ele>1209</ele>
        <time>2024-05-26T13:07:42Z</time>
      </trkpt>
      <trkpt lat="43.74017" lon="6.68404">
        <ele>1209.1</ele>
        <time>2024-05-26T13:07:43Z</time>
      </trkpt>
      <trkpt lat="43.74017" lon="6.68404">
        <ele>1209.1</ele>
        <time>2024-05-26T13:07:44Z</time>
      </trkpt>
      <trkpt lat="43.74016" lon="6.68404">
        <ele>1209.1</ele>
        <time>2024-05-26T13:07:45Z</time>
      </trkpt>
      <trkpt lat="43.74016" lon="6.68404">
        <ele>1209.1</ele>
        <time>2024-05-26T13:07:46Z</time>
      </trkpt>
      <trkpt lat="43.74016" lon="6.68404">
        <ele>1209</ele>
        <time>2024-05-26T13:07:47Z</time>
      </trkpt>
      <trkpt lat="43.74016" lon="6.68404">
        <ele>1209</ele>
        <time>2024-05-26T13:07:48Z</time>
      </trkpt>
      <trkpt lat="43.74015" lon="6.68405">
        <ele>1209</ele>
        <time>2024-05-26T13:07:49Z</time>
      </trkpt>
      <trkpt lat="43.74015" lon="6.68405">
        <ele>1208.9</ele>
        <time>2024-05-26T13:07:50Z</time>
      </trkpt>
      <trkpt lat="43.74015" lon="6.68405">
        <ele>1208.9</ele>
        <time>2024-05-26T13:07:51Z</time>
      </trkpt>
      <trkpt lat="43.74015" lon="6.68405">
        <ele>1209</ele>
        <time>2024-05-26T13:07:52Z</time>
      </trkpt>
      <trkpt lat="43.74015" lon="6.68405">
        <ele>1209.1</ele>
        <time>2024-05-26T13:07:53Z</time>
      </trkpt>
      <trkpt lat="43.74015" lon="6.68405">
        <ele>1209.1</ele>
        <time>2024-05-26T13:07:54Z</time>
      </trkpt>
      <trkpt lat="43.74015" lon="6.68405">
        <ele>1209.2</ele>
        <time>2024-05-26T13:07:55Z</time>
      </trkpt>
      <trkpt lat="43.74015" lon="6.68405">
        <ele>1209.2</ele>
        <time>2024-05-26T13:07:56Z</time>
      </trkpt>
      <trkpt lat="43.74015" lon="6.68405">
        <ele>1209.2</ele>
        <time>2024-05-26T13:07:57Z</time>
      </trkpt>
      <trkpt lat="43.74015" lon="6.68406">
        <ele>1209.2</ele>
        <time>2024-05-26T13:07:58Z</time>
      </trkpt>
      <trkpt lat="43.74014" lon="6.68406">
        <ele>1209.2</ele>
        <time>2024-05-26T13:07:59Z</time>
      </trkpt>
      <trkpt lat="43.74014" lon="6.68406">
        <ele>1209.3</ele>
        <time>2024-05-26T13:08:00Z</time>
      </trkpt>
      <trkpt lat="43.74014" lon="6.68406">
        <ele>1209.3</ele>
        <time>2024-05-26T13:08:01Z</time>
      </trkpt>
      <trkpt lat="43.74014" lon="6.68406">
        <ele>1209.3</ele>
        <time>2024-05-26T13:08:02Z</time>
      </trkpt>
      <trkpt lat="43.74014" lon="6.68406">
        <ele>1209.3</ele>
        <time>2024-05-26T13:08:03Z</time>
      </trkpt>
      <trkpt lat="43.74014" lon="6.68406">
        <ele>1209.3</ele>
        <time>2024-05-26T13:08:04Z</time>
      </trkpt>
      <trkpt lat="43.74014" lon="6.68406">
        <ele>1209.3</ele>
        <time>2024-05-26T13:08:05Z</time>
      </trkpt>
      <trkpt lat="43.74014" lon="6.68406">
        <ele>1209.3</ele>
        <time>2024-05-26T13:08:06Z</time>
      </trkpt>
      <trkpt lat="43.74014" lon="6.68407">
        <ele>1209.3</ele>
        <time>2024-05-26T13:08:07Z</time>
      </trkpt>
      <trkpt lat="43.74014" lon="6.68407">
        <ele>1209.2</ele>
        <time>2024-05-26T13:08:08Z</time>
      </trkpt>
      <trkpt lat="43.74014" lon="6.68407">
        <ele>1209.3</ele>
        <time>2024-05-26T13:08:09Z</time>
      </trkpt>
      <trkpt lat="43.74014" lon="6.68407">
        <ele>1209.4</ele>
        <time>2024-05-26T13:08:10Z</time>
      </trkpt>
      <trkpt lat="43.74014" lon="6.68407">
        <ele>1209.3</ele>
        <time>2024-05-26T13:08:11Z</time>
      </trkpt>
      <trkpt lat="43.74014" lon="6.68407">
        <ele>1209.2</ele>
        <time>2024-05-26T13:08:12Z</time>
      </trkpt>
      <trkpt lat="43.74014" lon="6.68407">
        <ele>1209.2</ele>
        <time>2024-05-26T13:08:13Z</time>
      </trkpt>
      <trkpt lat="43.74014" lon="6.68407">
        <ele>1209.2</ele>
        <time>2024-05-26T13:08:14Z</time>
      </trkpt>
      <trkpt lat="43.74014" lon="6.68407">
        <ele>1209.2</ele>
        <time>2024-05-26T13:08:15Z</time>
      </trkpt>
      <trkpt lat="43.74014" lon="6.68407">
        <ele>1209.2</ele>
        <time>2024-05-26T13:08:16Z</time>
      </trkpt>
      <trkpt lat="43.74014" lon="6.68406">
        <ele>1209.2</ele>
        <time>2024-05-26T13:08:17Z</time>
      </trkpt>
      <trkpt lat="43.74014" lon="6.68406">
        <ele>1209.3</ele>
        <time>2024-05-26T13:08:18Z</time>
      </trkpt>
      <trkpt lat="43.74014" lon="6.68406">
        <ele>1209.2</ele>
        <time>2024-05-26T13:08:19Z</time>
      </trkpt>
      <trkpt lat="43.74014" lon="6.68406">
        <ele>1209.2</ele>
        <time>2024-05-26T13:08:20Z</time>
      </trkpt>
      <trkpt lat="43.74015" lon="6.68406">
        <ele>1209.2</ele>
        <time>2024-05-26T13:08:21Z</time>
      </trkpt>
      <trkpt lat="43.74015" lon="6.68406">
        <ele>1209.1</ele>
        <time>2024-05-26T13:08:22Z</time>
      </trkpt>
      <trkpt lat="43.74015" lon="6.68406">
        <ele>1209.1</ele>
        <time>2024-05-26T13:08:23Z</time>
      </trkpt>
      <trkpt lat="43.74015" lon="6.68405">
        <ele>1209</ele>
        <time>2024-05-26T13:08:24Z</time>
      </trkpt>
      <trkpt lat="43.74015" lon="6.68405">
        <ele>1209</ele>
        <time>2024-05-26T13:08:25Z</time>
      </trkpt>
      <trkpt lat="43.74015" lon="6.68405">
        <ele>1208.9</ele>
        <time>2024-05-26T13:08:26Z</time>
      </trkpt>
      <trkpt lat="43.74015" lon="6.68405">
        <ele>1208.9</ele>
        <time>2024-05-26T13:08:27Z</time>
      </trkpt>
      <trkpt lat="43.74015" lon="6.68405">
        <ele>1208.9</ele>
        <time>2024-05-26T13:08:28Z</time>
      </trkpt>
      <trkpt lat="43.74016" lon="6.68405">
        <ele>1208.9</ele>
        <time>2024-05-26T13:08:29Z</time>
      </trkpt>
      <trkpt lat="43.74016" lon="6.68405">
        <ele>1209</ele>
        <time>2024-05-26T13:08:30Z</time>
      </trkpt>
      <trkpt lat="43.74016" lon="6.68405">
        <ele>1209</ele>
        <time>2024-05-26T13:08:31Z</time>
      </trkpt>
      <trkpt lat="43.74016" lon="6.68404">
        <ele>1209</ele>
        <time>2024-05-26T13:08:32Z</time>
      </trkpt>
      <trkpt lat="43.74016" lon="6.68404">
        <ele>1209.1</ele>
        <time>2024-05-26T13:08:33Z</time>
      </trkpt>
      <trkpt lat="43.74016" lon="6.68404">
        <ele>1209.1</ele>
        <time>2024-05-26T13:08:34Z</time>
      </trkpt>
      <trkpt lat="43.74017" lon="6.68404">
        <ele>1209.2</ele>
        <time>2024-05-26T13:08:35Z</time>
      </trkpt>
      <trkpt lat="43.74017" lon="6.68404">
        <ele>1209.2</ele>
        <time>2024-05-26T13:08:36Z</time>
      </trkpt>
      <trkpt lat="43.74017" lon="6.68404">
        <ele>1209.2</ele>
        <time>2024-05-26T13:08:37Z</time>
      </trkpt>
      <trkpt lat="43.74016" lon="6.68404">
        <ele>1209.2</ele>
        <time>2024-05-26T13:08:38Z</time>
      </trkpt>
      <trkpt lat="43.74017" lon="6.68404">
        <ele>1209.1</ele>
        <time>2024-05-26T13:08:39Z</time>
      </trkpt>
      <trkpt lat="43.74017" lon="6.68404">
        <ele>1209.1</ele>
        <time>2024-05-26T13:08:40Z</time>
      </trkpt>
      <trkpt lat="43.74017" lon="6.68404">
        <ele>1209</ele>
        <time>2024-05-26T13:08:41Z</time>
      </trkpt>
      <trkpt lat="43.74018" lon="6.68403">
        <ele>1209</ele>
        <time>2024-05-26T13:08:42Z</time>
      </trkpt>
      <trkpt lat="43.74018" lon="6.68403">
        <ele>1209</ele>
        <time>2024-05-26T13:08:43Z</time>
      </trkpt>
      <trkpt lat="43.74018" lon="6.68403">
        <ele>1209</ele>
        <time>2024-05-26T13:08:44Z</time>
      </trkpt>
      <trkpt lat="43.74018" lon="6.68403">
        <ele>1209</ele>
        <time>2024-05-26T13:08:45Z</time>
      </trkpt>
      <trkpt lat="43.74018" lon="6.68403">
        <ele>1208.9</ele>
        <time>2024-05-26T13:08:46Z</time>
      </trkpt>
      <trkpt lat="43.74018" lon="6.68403">
        <ele>1209</ele>
        <time>2024-05-26T13:08:47Z</time>
      </trkpt>
      <trkpt lat="43.74018" lon="6.68402">
        <ele>1209</ele>
        <time>2024-05-26T13:08:48Z</time>
      </trkpt>
      <trkpt lat="43.74018" lon="6.68402">
        <ele>1209.1</ele>
        <time>2024-05-26T13:08:49Z</time>
      </trkpt>
      <trkpt lat="43.74017" lon="6.68401">
        <ele>1209.1</ele>
        <time>2024-05-26T13:08:50Z</time>
      </trkpt>
      <trkpt lat="43.74017" lon="6.684">
        <ele>1209.1</ele>
        <time>2024-05-26T13:08:51Z</time>
      </trkpt>
      <trkpt lat="43.74016" lon="6.68399">
        <ele>1209.2</ele>
        <time>2024-05-26T13:08:52Z</time>
      </trkpt>
      <trkpt lat="43.74016" lon="6.68398">
        <ele>1209.2</ele>
        <time>2024-05-26T13:08:53Z</time>
      </trkpt>
      <trkpt lat="43.74016" lon="6.68397">
        <ele>1209.3</ele>
        <time>2024-05-26T13:08:54Z</time>
      </trkpt>
      <trkpt lat="43.74016" lon="6.68396">
        <ele>1209.4</ele>
        <time>2024-05-26T13:08:55Z</time>
      </trkpt>
      <trkpt lat="43.74016" lon="6.68396">
        <ele>1209.5</ele>
        <time>2024-05-26T13:08:56Z</time>
      </trkpt>
      <trkpt lat="43.74016" lon="6.68395">
        <ele>1209.6</ele>
        <time>2024-05-26T13:08:57Z</time>
      </trkpt>
      <trkpt lat="43.74015" lon="6.68394">
        <ele>1209.7</ele>
        <time>2024-05-26T13:08:58Z</time>
      </trkpt>
      <trkpt lat="43.74016" lon="6.68394">
        <ele>1209.8</ele>
        <time>2024-05-26T13:08:59Z</time>
      </trkpt>
      <trkpt lat="43.74015" lon="6.68393">
        <ele>1209.8</ele>
        <time>2024-05-26T13:09:00Z</time>
      </trkpt>
      <trkpt lat="43.74015" lon="6.68393">
        <ele>1209.9</ele>
        <time>2024-05-26T13:09:01Z</time>
      </trkpt>
      <trkpt lat="43.74015" lon="6.68392">
        <ele>1209.9</ele>
        <time>2024-05-26T13:09:02Z</time>
      </trkpt>
      <trkpt lat="43.74014" lon="6.68391">
        <ele>1210</ele>
        <time>2024-05-26T13:09:03Z</time>
      </trkpt>
      <trkpt lat="43.74014" lon="6.68391">
        <ele>1210.1</ele>
        <time>2024-05-26T13:09:04Z</time>
      </trkpt>
      <trkpt lat="43.74014" lon="6.6839">
        <ele>1210.3</ele>
        <time>2024-05-26T13:09:05Z</time>
      </trkpt>
      <trkpt lat="43.74014" lon="6.68389">
        <ele>1210.5</ele>
        <time>2024-05-26T13:09:06Z</time>
      </trkpt>
      <trkpt lat="43.74014" lon="6.68389">
        <ele>1210.7</ele>
        <time>2024-05-26T13:09:07Z</time>
      </trkpt>
      <trkpt lat="43.74014" lon="6.68388">
        <ele>1210.8</ele>
        <time>2024-05-26T13:09:08Z</time>
      </trkpt>
      <trkpt lat="43.74014" lon="6.68387">
        <ele>1210.9</ele>
        <time>2024-05-26T13:09:09Z</time>
      </trkpt>
      <trkpt lat="43.74014" lon="6.68386">
        <ele>1211</ele>
        <time>2024-05-26T13:09:10Z</time>
      </trkpt>
      <trkpt lat="43.74014" lon="6.68386">
        <ele>1211.2</ele>
        <time>2024-05-26T13:09:11Z</time>
      </trkpt>
      <trkpt lat="43.74014" lon="6.68385">
        <ele>1211.3</ele>
        <time>2024-05-26T13:09:12Z</time>
      </trkpt>
      <trkpt lat="43.74014" lon="6.68385">
        <ele>1211.4</ele>
        <time>2024-05-26T13:09:13Z</time>
      </trkpt>
      <trkpt lat="43.74015" lon="6.68384">
        <ele>1211.6</ele>
        <time>2024-05-26T13:09:14Z</time>
      </trkpt>
      <trkpt lat="43.74015" lon="6.68382">
        <ele>1211.8</ele>
        <time>2024-05-26T13:09:15Z</time>
      </trkpt>
      <trkpt lat="43.74015" lon="6.68381">
        <ele>1211.9</ele>
        <time>2024-05-26T13:09:16Z</time>
      </trkpt>
      <trkpt lat="43.74015" lon="6.6838">
        <ele>1212.1</ele>
        <time>2024-05-26T13:09:17Z</time>
      </trkpt>
      <trkpt lat="43.74015" lon="6.68379">
        <ele>1212.3</ele>
        <time>2024-05-26T13:09:18Z</time>
      </trkpt>
      <trkpt lat="43.74015" lon="6.68379">
        <ele>1212.4</ele>
        <time>2024-05-26T13:09:19Z</time>
      </trkpt>
      <trkpt lat="43.74016" lon="6.68378">
        <ele>1212.6</ele>
        <time>2024-05-26T13:09:20Z</time>
      </trkpt>
      <trkpt lat="43.74016" lon="6.68377">
        <ele>1212.7</ele>
        <time>2024-05-26T13:09:21Z</time>
      </trkpt>
      <trkpt lat="43.74016" lon="6.68377">
        <ele>1212.8</ele>
        <time>2024-05-26T13:09:22Z</time>
      </trkpt>
      <trkpt lat="43.74016" lon="6.68376">
        <ele>1212.9</ele>
        <time>2024-05-26T13:09:23Z</time>
      </trkpt>
      <trkpt lat="43.74016" lon="6.68374">
        <ele>1213.1</ele>
        <time>2024-05-26T13:09:24Z</time>
      </trkpt>
      <trkpt lat="43.74016" lon="6.68374">
        <ele>1213.3</ele>
        <time>2024-05-26T13:09:25Z</time>
      </trkpt>
      <trkpt lat="43.74016" lon="6.68373">
        <ele>1213.4</ele>
        <time>2024-05-26T13:09:26Z</time>
      </trkpt>
      <trkpt lat="43.74016" lon="6.68372">
        <ele>1213.7</ele>
        <time>2024-05-26T13:09:27Z</time>
      </trkpt>
      <trkpt lat="43.74016" lon="6.68371">
        <ele>1213.8</ele>
        <time>2024-05-26T13:09:28Z</time>
      </trkpt>
      <trkpt lat="43.74015" lon="6.6837">
        <ele>1214</ele>
        <time>2024-05-26T13:09:29Z</time>
      </trkpt>
      <trkpt lat="43.74016" lon="6.68369">
        <ele>1214.2</ele>
        <time>2024-05-26T13:09:30Z</time>
      </trkpt>
      <trkpt lat="43.74016" lon="6.68368">
        <ele>1214.4</ele>
        <time>2024-05-26T13:09:31Z</time>
      </trkpt>
      <trkpt lat="43.74016" lon="6.68367">
        <ele>1214.5</ele>
        <time>2024-05-26T13:09:32Z</time>
      </trkpt>
      <trkpt lat="43.74016" lon="6.68366">
        <ele>1214.5</ele>
        <time>2024-05-26T13:09:33Z</time>
      </trkpt>
      <trkpt lat="43.74016" lon="6.68366">
        <ele>1214.7</ele>
        <time>2024-05-26T13:09:34Z</time>
      </trkpt>
      <trkpt lat="43.74017" lon="6.68365">
        <ele>1214.9</ele>
        <time>2024-05-26T13:09:35Z</time>
      </trkpt>
      <trkpt lat="43.74017" lon="6.68364">
        <ele>1215.1</ele>
        <time>2024-05-26T13:09:36Z</time>
      </trkpt>
      <trkpt lat="43.74018" lon="6.68363">
        <ele>1215.2</ele>
        <time>2024-05-26T13:09:37Z</time>
      </trkpt>
      <trkpt lat="43.74017" lon="6.68363">
        <ele>1215.5</ele>
        <time>2024-05-26T13:09:38Z</time>
      </trkpt>
      <trkpt lat="43.74017" lon="6.68362">
        <ele>1215.6</ele>
        <time>2024-05-26T13:09:39Z</time>
      </trkpt>
      <trkpt lat="43.74018" lon="6.68362">
        <ele>1215.8</ele>
        <time>2024-05-26T13:09:40Z</time>
      </trkpt>
      <trkpt lat="43.74018" lon="6.68361">
        <ele>1215.9</ele>
        <time>2024-05-26T13:09:41Z</time>
      </trkpt>
      <trkpt lat="43.74018" lon="6.6836">
        <ele>1216</ele>
        <time>2024-05-26T13:09:42Z</time>
      </trkpt>
      <trkpt lat="43.74018" lon="6.68359">
        <ele>1216.1</ele>
        <time>2024-05-26T13:09:43Z</time>
      </trkpt>
      <trkpt lat="43.74019" lon="6.68359">
        <ele>1216.2</ele>
        <time>2024-05-26T13:09:44Z</time>
      </trkpt>
      <trkpt lat="43.74019" lon="6.68358">
        <ele>1216.2</ele>
        <time>2024-05-26T13:09:45Z</time>
      </trkpt>
      <trkpt lat="43.7402" lon="6.68357">
        <ele>1216.4</ele>
        <time>2024-05-26T13:09:46Z</time>
      </trkpt>
      <trkpt lat="43.7402" lon="6.68357">
        <ele>1216.7</ele>
        <time>2024-05-26T13:09:47Z</time>
      </trkpt>
      <trkpt lat="43.74021" lon="6.68356">
        <ele>1217</ele>
        <time>2024-05-26T13:09:48Z</time>
      </trkpt>
      <trkpt lat="43.74021" lon="6.68356">
        <ele>1217.2</ele>
        <time>2024-05-26T13:09:49Z</time>
      </trkpt>
      <trkpt lat="43.74021" lon="6.68355">
        <ele>1217.4</ele>
        <time>2024-05-26T13:09:50Z</time>
      </trkpt>
      <trkpt lat="43.74021" lon="6.68354">
        <ele>1217.5</ele>
        <time>2024-05-26T13:09:51Z</time>
      </trkpt>
      <trkpt lat="43.74022" lon="6.68354">
        <ele>1217.7</ele>
        <time>2024-05-26T13:09:52Z</time>
      </trkpt>
      <trkpt lat="43.74022" lon="6.68354">
        <ele>1217.9</ele>
        <time>2024-05-26T13:09:53Z</time>
      </trkpt>
      <trkpt lat="43.74022" lon="6.68353">
        <ele>1218.1</ele>
        <time>2024-05-26T13:09:54Z</time>
      </trkpt>
      <trkpt lat="43.74022" lon="6.68352">
        <ele>1218.3</ele>
        <time>2024-05-26T13:09:55Z</time>
      </trkpt>
      <trkpt lat="43.74022" lon="6.68352">
        <ele>1218.5</ele>
        <time>2024-05-26T13:09:56Z</time>
      </trkpt>
      <trkpt lat="43.74022" lon="6.68352">
        <ele>1218.6</ele>
        <time>2024-05-26T13:09:57Z</time>
      </trkpt>
      <trkpt lat="43.74022" lon="6.68351">
        <ele>1218.8</ele>
        <time>2024-05-26T13:09:58Z</time>
      </trkpt>
      <trkpt lat="43.74023" lon="6.68351">
        <ele>1218.9</ele>
        <time>2024-05-26T13:09:59Z</time>
      </trkpt>
      <trkpt lat="43.74023" lon="6.6835">
        <ele>1219</ele>
        <time>2024-05-26T13:10:00Z</time>
      </trkpt>
      <trkpt lat="43.74023" lon="6.6835">
        <ele>1219.1</ele>
        <time>2024-05-26T13:10:01Z</time>
      </trkpt>
      <trkpt lat="43.74024" lon="6.68349">
        <ele>1219.2</ele>
        <time>2024-05-26T13:10:02Z</time>
      </trkpt>
      <trkpt lat="43.74024" lon="6.68348">
        <ele>1219.2</ele>
        <time>2024-05-26T13:10:03Z</time>
      </trkpt>
      <trkpt lat="43.74024" lon="6.68347">
        <ele>1219.4</ele>
        <time>2024-05-26T13:10:04Z</time>
      </trkpt>
      <trkpt lat="43.74024" lon="6.68346">
        <ele>1219.5</ele>
        <time>2024-05-26T13:10:05Z</time>
      </trkpt>
      <trkpt lat="43.74024" lon="6.68345">
        <ele>1219.7</ele>
        <time>2024-05-26T13:10:06Z</time>
      </trkpt>
      <trkpt lat="43.74024" lon="6.68344">
        <ele>1219.8</ele>
        <time>2024-05-26T13:10:07Z</time>
      </trkpt>
      <trkpt lat="43.74024" lon="6.68343">
        <ele>1219.9</ele>
        <time>2024-05-26T13:10:08Z</time>
      </trkpt>
      <trkpt lat="43.74025" lon="6.68343">
        <ele>1220.2</ele>
        <time>2024-05-26T13:10:09Z</time>
      </trkpt>
      <trkpt lat="43.74025" lon="6.68342">
        <ele>1220.4</ele>
        <time>2024-05-26T13:10:10Z</time>
      </trkpt>
      <trkpt lat="43.74024" lon="6.68341">
        <ele>1220.5</ele>
        <time>2024-05-26T13:10:11Z</time>
      </trkpt>
      <trkpt lat="43.74024" lon="6.68341">
        <ele>1220.6</ele>
        <time>2024-05-26T13:10:12Z</time>
      </trkpt>
      <trkpt lat="43.74024" lon="6.6834">
        <ele>1220.7</ele>
        <time>2024-05-26T13:10:13Z</time>
      </trkpt>
      <trkpt lat="43.74025" lon="6.68339">
        <ele>1220.8</ele>
        <time>2024-05-26T13:10:14Z</time>
      </trkpt>
      <trkpt lat="43.74025" lon="6.68339">
        <ele>1220.9</ele>
        <time>2024-05-26T13:10:15Z</time>
      </trkpt>
      <trkpt lat="43.74025" lon="6.68338">
        <ele>1221</ele>
        <time>2024-05-26T13:10:16Z</time>
      </trkpt>
      <trkpt lat="43.74025" lon="6.68338">
        <ele>1221.2</ele>
        <time>2024-05-26T13:10:17Z</time>
      </trkpt>
      <trkpt lat="43.74025" lon="6.68337">
        <ele>1221.4</ele>
        <time>2024-05-26T13:10:18Z</time>
      </trkpt>
      <trkpt lat="43.74024" lon="6.68336">
        <ele>1221.6</ele>
        <time>2024-05-26T13:10:19Z</time>
      </trkpt>
      <trkpt lat="43.74024" lon="6.68336">
        <ele>1221.8</ele>
        <time>2024-05-26T13:10:20Z</time>
      </trkpt>
      <trkpt lat="43.74023" lon="6.68336">
        <ele>1222</ele>
        <time>2024-05-26T13:10:21Z</time>
      </trkpt>
      <trkpt lat="43.74023" lon="6.68336">
        <ele>1222.1</ele>
        <time>2024-05-26T13:10:22Z</time>
      </trkpt>
      <trkpt lat="43.74023" lon="6.68335">
        <ele>1222.2</ele>
        <time>2024-05-26T13:10:23Z</time>
      </trkpt>
      <trkpt lat="43.74024" lon="6.68334">
        <ele>1222.4</ele>
        <time>2024-05-26T13:10:24Z</time>
      </trkpt>
      <trkpt lat="43.74023" lon="6.68334">
        <ele>1222.6</ele>
        <time>2024-05-26T13:10:25Z</time>
      </trkpt>
      <trkpt lat="43.74023" lon="6.68334">
        <ele>1222.7</ele>
        <time>2024-05-26T13:10:26Z</time>
      </trkpt>
      <trkpt lat="43.74022" lon="6.68333">
        <ele>1222.8</ele>
        <time>2024-05-26T13:10:27Z</time>
      </trkpt>
      <trkpt lat="43.74022" lon="6.68333">
        <ele>1223.1</ele>
        <time>2024-05-26T13:10:28Z</time>
      </trkpt>
      <trkpt lat="43.74021" lon="6.68332">
        <ele>1223.3</ele>
        <time>2024-05-26T13:10:29Z</time>
      </trkpt>
      <trkpt lat="43.74021" lon="6.68331">
        <ele>1223.4</ele>
        <time>2024-05-26T13:10:30Z</time>
      </trkpt>
      <trkpt lat="43.74021" lon="6.6833">
        <ele>1223.6</ele>
        <time>2024-05-26T13:10:31Z</time>
      </trkpt>
      <trkpt lat="43.7402" lon="6.68329">
        <ele>1223.7</ele>
        <time>2024-05-26T13:10:32Z</time>
      </trkpt>
      <trkpt lat="43.7402" lon="6.68329">
        <ele>1223.9</ele>
        <time>2024-05-26T13:10:33Z</time>
      </trkpt>
      <trkpt lat="43.7402" lon="6.68328">
        <ele>1224.1</ele>
        <time>2024-05-26T13:10:34Z</time>
      </trkpt>
      <trkpt lat="43.74018" lon="6.68327">
        <ele>1224.3</ele>
        <time>2024-05-26T13:10:35Z</time>
      </trkpt>
      <trkpt lat="43.74018" lon="6.68326">
        <ele>1224.5</ele>
        <time>2024-05-26T13:10:36Z</time>
      </trkpt>
      <trkpt lat="43.74017" lon="6.68325">
        <ele>1224.7</ele>
        <time>2024-05-26T13:10:37Z</time>
      </trkpt>
      <trkpt lat="43.74017" lon="6.68324">
        <ele>1224.8</ele>
        <time>2024-05-26T13:10:38Z</time>
      </trkpt>
      <trkpt lat="43.74016" lon="6.68324">
        <ele>1224.8</ele>
        <time>2024-05-26T13:10:39Z</time>
      </trkpt>
      <trkpt lat="43.74015" lon="6.68324">
        <ele>1224.8</ele>
        <time>2024-05-26T13:10:40Z</time>
      </trkpt>
      <trkpt lat="43.74015" lon="6.68325">
        <ele>1224.9</ele>
        <time>2024-05-26T13:10:41Z</time>
      </trkpt>
      <trkpt lat="43.74015" lon="6.68324">
        <ele>1225</ele>
        <time>2024-05-26T13:10:42Z</time>
      </trkpt>
      <trkpt lat="43.74015" lon="6.68324">
        <ele>1225.1</ele>
        <time>2024-05-26T13:10:43Z</time>
      </trkpt>
      <trkpt lat="43.74014" lon="6.68323">
        <ele>1225.1</ele>
        <time>2024-05-26T13:10:44Z</time>
      </trkpt>
      <trkpt lat="43.74014" lon="6.68322">
        <ele>1225.2</ele>
        <time>2024-05-26T13:10:45Z</time>
      </trkpt>
      <trkpt lat="43.74013" lon="6.68322">
        <ele>1225.3</ele>
        <time>2024-05-26T13:10:46Z</time>
      </trkpt>
      <trkpt lat="43.74013" lon="6.68321">
        <ele>1225.4</ele>
        <time>2024-05-26T13:10:47Z</time>
      </trkpt>
      <trkpt lat="43.74012" lon="6.6832">
        <ele>1225.4</ele>
        <time>2024-05-26T13:10:48Z</time>
      </trkpt>
      <trkpt lat="43.74011" lon="6.6832">
        <ele>1225.5</ele>
        <time>2024-05-26T13:10:49Z</time>
      </trkpt>
      <trkpt lat="43.7401" lon="6.68319">
        <ele>1225.5</ele>
        <time>2024-05-26T13:10:50Z</time>
      </trkpt>
      <trkpt lat="43.7401" lon="6.68318">
        <ele>1225.5</ele>
        <time>2024-05-26T13:10:51Z</time>
      </trkpt>
      <trkpt lat="43.7401" lon="6.68317">
        <ele>1225.6</ele>
        <time>2024-05-26T13:10:52Z</time>
      </trkpt>
      <trkpt lat="43.7401" lon="6.68316">
        <ele>1225.7</ele>
        <time>2024-05-26T13:10:53Z</time>
      </trkpt>
      <trkpt lat="43.74009" lon="6.68314">
        <ele>1225.7</ele>
        <time>2024-05-26T13:10:54Z</time>
      </trkpt>
      <trkpt lat="43.74009" lon="6.68313">
        <ele>1225.7</ele>
        <time>2024-05-26T13:10:55Z</time>
      </trkpt>
      <trkpt lat="43.74009" lon="6.68312">
        <ele>1225.6</ele>
        <time>2024-05-26T13:10:56Z</time>
      </trkpt>
      <trkpt lat="43.74008" lon="6.68311">
        <ele>1225.7</ele>
        <time>2024-05-26T13:10:57Z</time>
      </trkpt>
      <trkpt lat="43.74009" lon="6.68311">
        <ele>1225.8</ele>
        <time>2024-05-26T13:10:58Z</time>
      </trkpt>
      <trkpt lat="43.74008" lon="6.68309">
        <ele>1225.8</ele>
        <time>2024-05-26T13:10:59Z</time>
      </trkpt>
      <trkpt lat="43.74008" lon="6.68309">
        <ele>1225.7</ele>
        <time>2024-05-26T13:11:00Z</time>
      </trkpt>
      <trkpt lat="43.74007" lon="6.68309">
        <ele>1225.6</ele>
        <time>2024-05-26T13:11:01Z</time>
      </trkpt>
      <trkpt lat="43.74005" lon="6.68307">
        <ele>1225.7</ele>
        <time>2024-05-26T13:11:02Z</time>
      </trkpt>
      <trkpt lat="43.74005" lon="6.68306">
        <ele>1225.8</ele>
        <time>2024-05-26T13:11:03Z</time>
      </trkpt>
      <trkpt lat="43.74004" lon="6.68304">
        <ele>1225.8</ele>
        <time>2024-05-26T13:11:04Z</time>
      </trkpt>
      <trkpt lat="43.74003" lon="6.68303">
        <ele>1225.7</ele>
        <time>2024-05-26T13:11:05Z</time>
      </trkpt>
      <trkpt lat="43.74003" lon="6.68302">
        <ele>1225.7</ele>
        <time>2024-05-26T13:11:06Z</time>
      </trkpt>
      <trkpt lat="43.74003" lon="6.683">
        <ele>1225.6</ele>
        <time>2024-05-26T13:11:07Z</time>
      </trkpt>
      <trkpt lat="43.74002" lon="6.68299">
        <ele>1225.6</ele>
        <time>2024-05-26T13:11:08Z</time>
      </trkpt>
      <trkpt lat="43.74002" lon="6.68298">
        <ele>1225.6</ele>
        <time>2024-05-26T13:11:09Z</time>
      </trkpt>
      <trkpt lat="43.74001" lon="6.68297">
        <ele>1225.5</ele>
        <time>2024-05-26T13:11:10Z</time>
      </trkpt>
      <trkpt lat="43.74" lon="6.68296">
        <ele>1225.5</ele>
        <time>2024-05-26T13:11:11Z</time>
      </trkpt>
      <trkpt lat="43.73999" lon="6.68295">
        <ele>1225.4</ele>
        <time>2024-05-26T13:11:12Z</time>
      </trkpt>
      <trkpt lat="43.73998" lon="6.68294">
        <ele>1225.4</ele>
        <time>2024-05-26T13:11:13Z</time>
      </trkpt>
      <trkpt lat="43.73999" lon="6.68293">
        <ele>1225.3</ele>
        <time>2024-05-26T13:11:14Z</time>
      </trkpt>
      <trkpt lat="43.73999" lon="6.68293">
        <ele>1225.2</ele>
        <time>2024-05-26T13:11:15Z</time>
      </trkpt>
      <trkpt lat="43.73999" lon="6.68292">
        <ele>1225.2</ele>
        <time>2024-05-26T13:11:16Z</time>
      </trkpt>
      <trkpt lat="43.73998" lon="6.68292">
        <ele>1225.2</ele>
        <time>2024-05-26T13:11:17Z</time>
      </trkpt>
      <trkpt lat="43.73998" lon="6.68291">
        <ele>1225.2</ele>
        <time>2024-05-26T13:11:18Z</time>
      </trkpt>
      <trkpt lat="43.73999" lon="6.68291">
        <ele>1225.2</ele>
        <time>2024-05-26T13:11:19Z</time>
      </trkpt>
      <trkpt lat="43.73999" lon="6.68291">
        <ele>1225.2</ele>
        <time>2024-05-26T13:11:20Z</time>
      </trkpt>
      <trkpt lat="43.73999" lon="6.68291">
        <ele>1225.2</ele>
        <time>2024-05-26T13:11:21Z</time>
      </trkpt>
      <trkpt lat="43.73999" lon="6.6829">
        <ele>1225.2</ele>
        <time>2024-05-26T13:11:22Z</time>
      </trkpt>
      <trkpt lat="43.74" lon="6.6829">
        <ele>1225.2</ele>
        <time>2024-05-26T13:11:23Z</time>
      </trkpt>
      <trkpt lat="43.74" lon="6.68289">
        <ele>1225.2</ele>
        <time>2024-05-26T13:11:24Z</time>
      </trkpt>
      <trkpt lat="43.73999" lon="6.68289">
        <ele>1225.1</ele>
        <time>2024-05-26T13:11:25Z</time>
      </trkpt>
      <trkpt lat="43.73999" lon="6.68288">
        <ele>1225.1</ele>
        <time>2024-05-26T13:11:26Z</time>
      </trkpt>
      <trkpt lat="43.73998" lon="6.68288">
        <ele>1225.1</ele>
        <time>2024-05-26T13:11:27Z</time>
      </trkpt>
      <trkpt lat="43.73998" lon="6.68288">
        <ele>1225.1</ele>
        <time>2024-05-26T13:11:28Z</time>
      </trkpt>
      <trkpt lat="43.73998" lon="6.68288">
        <ele>1225.1</ele>
        <time>2024-05-26T13:11:29Z</time>
      </trkpt>
      <trkpt lat="43.73998" lon="6.68288">
        <ele>1225.1</ele>
        <time>2024-05-26T13:11:30Z</time>
      </trkpt>
      <trkpt lat="43.73998" lon="6.68288">
        <ele>1225</ele>
        <time>2024-05-26T13:11:31Z</time>
      </trkpt>
      <trkpt lat="43.73998" lon="6.68288">
        <ele>1225</ele>
        <time>2024-05-26T13:11:32Z</time>
      </trkpt>
      <trkpt lat="43.73998" lon="6.68289">
        <ele>1225</ele>
        <time>2024-05-26T13:11:33Z</time>
      </trkpt>
      <trkpt lat="43.73998" lon="6.68289">
        <ele>1224.9</ele>
        <time>2024-05-26T13:11:34Z</time>
      </trkpt>
      <trkpt lat="43.73998" lon="6.68289">
        <ele>1224.9</ele>
        <time>2024-05-26T13:11:35Z</time>
      </trkpt>
      <trkpt lat="43.73997" lon="6.68289">
        <ele>1224.8</ele>
        <time>2024-05-26T13:11:36Z</time>
      </trkpt>
      <trkpt lat="43.73997" lon="6.68289">
        <ele>1224.8</ele>
        <time>2024-05-26T13:11:37Z</time>
      </trkpt>
      <trkpt lat="43.73997" lon="6.68288">
        <ele>1224.8</ele>
        <time>2024-05-26T13:11:38Z</time>
      </trkpt>
      <trkpt lat="43.73997" lon="6.68289">
        <ele>1224.8</ele>
        <time>2024-05-26T13:11:39Z</time>
      </trkpt>
      <trkpt lat="43.73996" lon="6.6829">
        <ele>1224.8</ele>
        <time>2024-05-26T13:11:40Z</time>
      </trkpt>
      <trkpt lat="43.73996" lon="6.6829">
        <ele>1225</ele>
        <time>2024-05-26T13:11:41Z</time>
      </trkpt>
      <trkpt lat="43.73996" lon="6.6829">
        <ele>1225</ele>
        <time>2024-05-26T13:11:42Z</time>
      </trkpt>
      <trkpt lat="43.73996" lon="6.6829">
        <ele>1225.1</ele>
        <time>2024-05-26T13:11:43Z</time>
      </trkpt>
      <trkpt lat="43.73995" lon="6.6829">
        <ele>1225.1</ele>
        <time>2024-05-26T13:11:44Z</time>
      </trkpt>
      <trkpt lat="43.73995" lon="6.6829">
        <ele>1225.2</ele>
        <time>2024-05-26T13:11:45Z</time>
      </trkpt>
      <trkpt lat="43.73995" lon="6.6829">
        <ele>1225.2</ele>
        <time>2024-05-26T13:11:46Z</time>
      </trkpt>
      <trkpt lat="43.73995" lon="6.6829">
        <ele>1225.2</ele>
        <time>2024-05-26T13:11:47Z</time>
      </trkpt>
      <trkpt lat="43.73995" lon="6.6829">
        <ele>1225.2</ele>
        <time>2024-05-26T13:11:48Z</time>
      </trkpt>
      <trkpt lat="43.73995" lon="6.6829">
        <ele>1225.2</ele>
        <time>2024-05-26T13:11:49Z</time>
      </trkpt>
      <trkpt lat="43.73995" lon="6.6829">
        <ele>1225.2</ele>
        <time>2024-05-26T13:11:50Z</time>
      </trkpt>
      <trkpt lat="43.73995" lon="6.6829">
        <ele>1225.2</ele>
        <time>2024-05-26T13:11:51Z</time>
      </trkpt>
      <trkpt lat="43.73995" lon="6.6829">
        <ele>1225.2</ele>
        <time>2024-05-26T13:11:52Z</time>
      </trkpt>
      <trkpt lat="43.73995" lon="6.6829">
        <ele>1225.2</ele>
        <time>2024-05-26T13:11:53Z</time>
      </trkpt>
      <trkpt lat="43.73995" lon="6.6829">
        <ele>1225.1</ele>
        <time>2024-05-26T13:11:54Z</time>
      </trkpt>
      <trkpt lat="43.73995" lon="6.6829">
        <ele>1225.2</ele>
        <time>2024-05-26T13:11:55Z</time>
      </trkpt>
      <trkpt lat="43.73995" lon="6.6829">
        <ele>1225.1</ele>
        <time>2024-05-26T13:11:56Z</time>
      </trkpt>
      <trkpt lat="43.73995" lon="6.6829">
        <ele>1225.1</ele>
        <time>2024-05-26T13:11:57Z</time>
      </trkpt>
      <trkpt lat="43.73995" lon="6.6829">
        <ele>1225</ele>
        <time>2024-05-26T13:11:58Z</time>
      </trkpt>
      <trkpt lat="43.73995" lon="6.6829">
        <ele>1225.2</ele>
        <time>2024-05-26T13:11:59Z</time>
      </trkpt>
      <trkpt lat="43.73995" lon="6.6829">
        <ele>1225.2</ele>
        <time>2024-05-26T13:12:00Z</time>
      </trkpt>
      <trkpt lat="43.73995" lon="6.6829">
        <ele>1225.3</ele>
        <time>2024-05-26T13:12:01Z</time>
      </trkpt>
      <trkpt lat="43.73995" lon="6.68291">
        <ele>1225.3</ele>
        <time>2024-05-26T13:12:02Z</time>
      </trkpt>
      <trkpt lat="43.73995" lon="6.68291">
        <ele>1225.2</ele>
        <time>2024-05-26T13:12:03Z</time>
      </trkpt>
      <trkpt lat="43.73995" lon="6.68291">
        <ele>1225.2</ele>
        <time>2024-05-26T13:12:04Z</time>
      </trkpt>
      <trkpt lat="43.73995" lon="6.6829">
        <ele>1225.2</ele>
        <time>2024-05-26T13:12:05Z</time>
      </trkpt>
      <trkpt lat="43.73995" lon="6.6829">
        <ele>1225.2</ele>
        <time>2024-05-26T13:12:06Z</time>
      </trkpt>
      <trkpt lat="43.73995" lon="6.6829">
        <ele>1225.1</ele>
        <time>2024-05-26T13:12:07Z</time>
      </trkpt>
      <trkpt lat="43.73995" lon="6.68289">
        <ele>1225.2</ele>
        <time>2024-05-26T13:12:08Z</time>
      </trkpt>
      <trkpt lat="43.73995" lon="6.68289">
        <ele>1225.2</ele>
        <time>2024-05-26T13:12:09Z</time>
      </trkpt>
      <trkpt lat="43.73995" lon="6.68289">
        <ele>1225.1</ele>
        <time>2024-05-26T13:12:10Z</time>
      </trkpt>
      <trkpt lat="43.73995" lon="6.68289">
        <ele>1225</ele>
        <time>2024-05-26T13:12:11Z</time>
      </trkpt>
      <trkpt lat="43.73995" lon="6.68289">
        <ele>1224.9</ele>
        <time>2024-05-26T13:12:12Z</time>
      </trkpt>
      <trkpt lat="43.73995" lon="6.68289">
        <ele>1225</ele>
        <time>2024-05-26T13:12:13Z</time>
      </trkpt>
      <trkpt lat="43.73995" lon="6.68289">
        <ele>1225</ele>
        <time>2024-05-26T13:12:14Z</time>
      </trkpt>
      <trkpt lat="43.73995" lon="6.68288">
        <ele>1225.1</ele>
        <time>2024-05-26T13:12:15Z</time>
      </trkpt>
      <trkpt lat="43.73995" lon="6.68288">
        <ele>1225.2</ele>
        <time>2024-05-26T13:12:16Z</time>
      </trkpt>
      <trkpt lat="43.73995" lon="6.68287">
        <ele>1225.2</ele>
        <time>2024-05-26T13:12:17Z</time>
      </trkpt>
      <trkpt lat="43.73995" lon="6.68287">
        <ele>1225.2</ele>
        <time>2024-05-26T13:12:18Z</time>
      </trkpt>
      <trkpt lat="43.73995" lon="6.68287">
        <ele>1225.2</ele>
        <time>2024-05-26T13:12:19Z</time>
      </trkpt>
      <trkpt lat="43.73995" lon="6.68287">
        <ele>1225.2</ele>
        <time>2024-05-26T13:12:20Z</time>
      </trkpt>
      <trkpt lat="43.73995" lon="6.68287">
        <ele>1225.2</ele>
        <time>2024-05-26T13:12:21Z</time>
      </trkpt>
      <trkpt lat="43.73994" lon="6.68287">
        <ele>1225.1</ele>
        <time>2024-05-26T13:12:22Z</time>
      </trkpt>
      <trkpt lat="43.73994" lon="6.68287">
        <ele>1225.1</ele>
        <time>2024-05-26T13:12:23Z</time>
      </trkpt>
      <trkpt lat="43.73994" lon="6.68287">
        <ele>1225</ele>
        <time>2024-05-26T13:12:24Z</time>
      </trkpt>
      <trkpt lat="43.73994" lon="6.68287">
        <ele>1225</ele>
        <time>2024-05-26T13:12:25Z</time>
      </trkpt>
      <trkpt lat="43.73994" lon="6.68287">
        <ele>1225</ele>
        <time>2024-05-26T13:12:26Z</time>
      </trkpt>
      <trkpt lat="43.73994" lon="6.68287">
        <ele>1225</ele>
        <time>2024-05-26T13:12:27Z</time>
      </trkpt>
      <trkpt lat="43.73994" lon="6.68287">
        <ele>1225</ele>
        <time>2024-05-26T13:12:28Z</time>
      </trkpt>
      <trkpt lat="43.73994" lon="6.68287">
        <ele>1225.1</ele>
        <time>2024-05-26T13:12:29Z</time>
      </trkpt>
      <trkpt lat="43.73994" lon="6.68287">
        <ele>1225.1</ele>
        <time>2024-05-26T13:12:30Z</time>
      </trkpt>
      <trkpt lat="43.73993" lon="6.68288">
        <ele>1225</ele>
        <time>2024-05-26T13:12:31Z</time>
      </trkpt>
      <trkpt lat="43.73993" lon="6.68288">
        <ele>1225.1</ele>
        <time>2024-05-26T13:12:32Z</time>
      </trkpt>
      <trkpt lat="43.73993" lon="6.68288">
        <ele>1225.1</ele>
        <time>2024-05-26T13:12:33Z</time>
      </trkpt>
      <trkpt lat="43.73992" lon="6.68288">
        <ele>1225.1</ele>
        <time>2024-05-26T13:12:34Z</time>
      </trkpt>
      <trkpt lat="43.73992" lon="6.68288">
        <ele>1225.1</ele>
        <time>2024-05-26T13:12:35Z</time>
      </trkpt>
      <trkpt lat="43.73991" lon="6.68288">
        <ele>1225.1</ele>
        <time>2024-05-26T13:12:36Z</time>
      </trkpt>
      <trkpt lat="43.73991" lon="6.68288">
        <ele>1225</ele>
        <time>2024-05-26T13:12:37Z</time>
      </trkpt>
      <trkpt lat="43.73991" lon="6.68288">
        <ele>1225</ele>
        <time>2024-05-26T13:12:38Z</time>
      </trkpt>
      <trkpt lat="43.73991" lon="6.68288">
        <ele>1224.9</ele>
        <time>2024-05-26T13:12:39Z</time>
      </trkpt>
      <trkpt lat="43.73991" lon="6.68288">
        <ele>1224.9</ele>
        <time>2024-05-26T13:12:40Z</time>
      </trkpt>
      <trkpt lat="43.73992" lon="6.68287">
        <ele>1224.8</ele>
        <time>2024-05-26T13:12:41Z</time>
      </trkpt>
      <trkpt lat="43.73992" lon="6.68287">
        <ele>1224.8</ele>
        <time>2024-05-26T13:12:42Z</time>
      </trkpt>
      <trkpt lat="43.73992" lon="6.68287">
        <ele>1224.7</ele>
        <time>2024-05-26T13:12:43Z</time>
      </trkpt>
      <trkpt lat="43.73992" lon="6.68287">
        <ele>1224.7</ele>
        <time>2024-05-26T13:12:44Z</time>
      </trkpt>
      <trkpt lat="43.73992" lon="6.68287">
        <ele>1224.7</ele>
        <time>2024-05-26T13:12:45Z</time>
      </trkpt>
      <trkpt lat="43.73992" lon="6.68286">
        <ele>1224.7</ele>
        <time>2024-05-26T13:12:46Z</time>
      </trkpt>
      <trkpt lat="43.73992" lon="6.68286">
        <ele>1224.7</ele>
        <time>2024-05-26T13:12:47Z</time>
      </trkpt>
      <trkpt lat="43.73993" lon="6.68286">
        <ele>1224.7</ele>
        <time>2024-05-26T13:12:48Z</time>
      </trkpt>
      <trkpt lat="43.73993" lon="6.68286">
        <ele>1224.7</ele>
        <time>2024-05-26T13:12:49Z</time>
      </trkpt>
      <trkpt lat="43.73993" lon="6.68285">
        <ele>1224.7</ele>
        <time>2024-05-26T13:12:50Z</time>
      </trkpt>
      <trkpt lat="43.73993" lon="6.68285">
        <ele>1224.7</ele>
        <time>2024-05-26T13:12:51Z</time>
      </trkpt>
      <trkpt lat="43.73993" lon="6.68285">
        <ele>1224.7</ele>
        <time>2024-05-26T13:12:52Z</time>
      </trkpt>
      <trkpt lat="43.73993" lon="6.68284">
        <ele>1224.7</ele>
        <time>2024-05-26T13:12:53Z</time>
      </trkpt>
      <trkpt lat="43.73994" lon="6.68284">
        <ele>1224.7</ele>
        <time>2024-05-26T13:12:54Z</time>
      </trkpt>
      <trkpt lat="43.73994" lon="6.68284">
        <ele>1224.7</ele>
        <time>2024-05-26T13:12:55Z</time>
      </trkpt>
      <trkpt lat="43.73994" lon="6.68283">
        <ele>1224.7</ele>
        <time>2024-05-26T13:12:56Z</time>
      </trkpt>
      <trkpt lat="43.73995" lon="6.68284">
        <ele>1224.8</ele>
        <time>2024-05-26T13:12:57Z</time>
      </trkpt>
      <trkpt lat="43.73995" lon="6.68284">
        <ele>1224.9</ele>
        <time>2024-05-26T13:12:58Z</time>
      </trkpt>
      <trkpt lat="43.73995" lon="6.68284">
        <ele>1224.8</ele>
        <time>2024-05-26T13:12:59Z</time>
      </trkpt>
      <trkpt lat="43.73996" lon="6.68284">
        <ele>1224.8</ele>
        <time>2024-05-26T13:13:00Z</time>
      </trkpt>
      <trkpt lat="43.73996" lon="6.68284">
        <ele>1224.8</ele>
        <time>2024-05-26T13:13:01Z</time>
      </trkpt>
      <trkpt lat="43.73996" lon="6.68284">
        <ele>1224.8</ele>
        <time>2024-05-26T13:13:02Z</time>
      </trkpt>
      <trkpt lat="43.73997" lon="6.68285">
        <ele>1224.8</ele>
        <time>2024-05-26T13:13:03Z</time>
      </trkpt>
      <trkpt lat="43.73997" lon="6.68285">
        <ele>1224.9</ele>
        <time>2024-05-26T13:13:04Z</time>
      </trkpt>
      <trkpt lat="43.73997" lon="6.68285">
        <ele>1224.9</ele>
        <time>2024-05-26T13:13:05Z</time>
      </trkpt>
      <trkpt lat="43.73997" lon="6.68286">
        <ele>1224.9</ele>
        <time>2024-05-26T13:13:06Z</time>
      </trkpt>
      <trkpt lat="43.73997" lon="6.68286">
        <ele>1224.9</ele>
        <time>2024-05-26T13:13:07Z</time>
      </trkpt>
      <trkpt lat="43.73998" lon="6.68285">
        <ele>1224.9</ele>
        <time>2024-05-26T13:13:08Z</time>
      </trkpt>
      <trkpt lat="43.73998" lon="6.68285">
        <ele>1224.9</ele>
        <time>2024-05-26T13:13:09Z</time>
      </trkpt>
      <trkpt lat="43.73998" lon="6.68285">
        <ele>1224.9</ele>
        <time>2024-05-26T13:13:10Z</time>
      </trkpt>
      <trkpt lat="43.73998" lon="6.68285">
        <ele>1224.9</ele>
        <time>2024-05-26T13:13:11Z</time>
      </trkpt>
      <trkpt lat="43.73998" lon="6.68285">
        <ele>1224.9</ele>
        <time>2024-05-26T13:13:12Z</time>
      </trkpt>
      <trkpt lat="43.73999" lon="6.68284">
        <ele>1224.9</ele>
        <time>2024-05-26T13:13:13Z</time>
      </trkpt>
      <trkpt lat="43.73999" lon="6.68284">
        <ele>1224.8</ele>
        <time>2024-05-26T13:13:14Z</time>
      </trkpt>
      <trkpt lat="43.73999" lon="6.68284">
        <ele>1224.8</ele>
        <time>2024-05-26T13:13:15Z</time>
      </trkpt>
      <trkpt lat="43.73999" lon="6.68284">
        <ele>1224.8</ele>
        <time>2024-05-26T13:13:16Z</time>
      </trkpt>
      <trkpt lat="43.73999" lon="6.68284">
        <ele>1224.7</ele>
        <time>2024-05-26T13:13:17Z</time>
      </trkpt>
      <trkpt lat="43.73999" lon="6.68284">
        <ele>1224.7</ele>
        <time>2024-05-26T13:13:18Z</time>
      </trkpt>
      <trkpt lat="43.73999" lon="6.68284">
        <ele>1224.7</ele>
        <time>2024-05-26T13:13:19Z</time>
      </trkpt>
      <trkpt lat="43.73999" lon="6.68284">
        <ele>1224.6</ele>
        <time>2024-05-26T13:13:20Z</time>
      </trkpt>
      <trkpt lat="43.73999" lon="6.68284">
        <ele>1224.6</ele>
        <time>2024-05-26T13:13:21Z</time>
      </trkpt>
      <trkpt lat="43.73999" lon="6.68284">
        <ele>1224.6</ele>
        <time>2024-05-26T13:13:22Z</time>
      </trkpt>
      <trkpt lat="43.73999" lon="6.68284">
        <ele>1224.6</ele>
        <time>2024-05-26T13:13:23Z</time>
      </trkpt>
      <trkpt lat="43.74" lon="6.68284">
        <ele>1224.6</ele>
        <time>2024-05-26T13:13:24Z</time>
      </trkpt>
      <trkpt lat="43.74" lon="6.68284">
        <ele>1224.6</ele>
        <time>2024-05-26T13:13:25Z</time>
      </trkpt>
      <trkpt lat="43.74" lon="6.68284">
        <ele>1224.6</ele>
        <time>2024-05-26T13:13:26Z</time>
      </trkpt>
      <trkpt lat="43.74" lon="6.68284">
        <ele>1224.6</ele>
        <time>2024-05-26T13:13:27Z</time>
      </trkpt>
      <trkpt lat="43.74001" lon="6.68284">
        <ele>1224.6</ele>
        <time>2024-05-26T13:13:28Z</time>
      </trkpt>
      <trkpt lat="43.74002" lon="6.68284">
        <ele>1224.5</ele>
        <time>2024-05-26T13:13:29Z</time>
      </trkpt>
      <trkpt lat="43.74003" lon="6.68283">
        <ele>1224.5</ele>
        <time>2024-05-26T13:13:30Z</time>
      </trkpt>
      <trkpt lat="43.74004" lon="6.68282">
        <ele>1224.6</ele>
        <time>2024-05-26T13:13:31Z</time>
      </trkpt>
      <trkpt lat="43.74004" lon="6.68281">
        <ele>1224.7</ele>
        <time>2024-05-26T13:13:32Z</time>
      </trkpt>
      <trkpt lat="43.74004" lon="6.68279">
        <ele>1224.8</ele>
        <time>2024-05-26T13:13:33Z</time>
      </trkpt>
      <trkpt lat="43.74003" lon="6.68278">
        <ele>1224.9</ele>
        <time>2024-05-26T13:13:34Z</time>
      </trkpt>
      <trkpt lat="43.74003" lon="6.68278">
        <ele>1224.9</ele>
        <time>2024-05-26T13:13:35Z</time>
      </trkpt>
      <trkpt lat="43.74004" lon="6.68277">
        <ele>1225</ele>
        <time>2024-05-26T13:13:36Z</time>
      </trkpt>
      <trkpt lat="43.74004" lon="6.68276">
        <ele>1225.1</ele>
        <time>2024-05-26T13:13:37Z</time>
      </trkpt>
      <trkpt lat="43.74005" lon="6.68275">
        <ele>1225.2</ele>
        <time>2024-05-26T13:13:38Z</time>
      </trkpt>
      <trkpt lat="43.74005" lon="6.68275">
        <ele>1225.3</ele>
        <time>2024-05-26T13:13:39Z</time>
      </trkpt>
      <trkpt lat="43.74005" lon="6.68274">
        <ele>1225.4</ele>
        <time>2024-05-26T13:13:40Z</time>
      </trkpt>
      <trkpt lat="43.74005" lon="6.68273">
        <ele>1225.4</ele>
        <time>2024-05-26T13:13:41Z</time>
      </trkpt>
      <trkpt lat="43.74005" lon="6.68272">
        <ele>1225.4</ele>
        <time>2024-05-26T13:13:42Z</time>
      </trkpt>
      <trkpt lat="43.74005" lon="6.68271">
        <ele>1225.4</ele>
        <time>2024-05-26T13:13:43Z</time>
      </trkpt>
      <trkpt lat="43.74006" lon="6.6827">
        <ele>1225.4</ele>
        <time>2024-05-26T13:13:44Z</time>
      </trkpt>
      <trkpt lat="43.74005" lon="6.68269">
        <ele>1225.4</ele>
        <time>2024-05-26T13:13:45Z</time>
      </trkpt>
      <trkpt lat="43.74005" lon="6.68269">
        <ele>1225.4</ele>
        <time>2024-05-26T13:13:46Z</time>
      </trkpt>
      <trkpt lat="43.74004" lon="6.68269">
        <ele>1225.4</ele>
        <time>2024-05-26T13:13:47Z</time>
      </trkpt>
      <trkpt lat="43.74004" lon="6.68269">
        <ele>1225.4</ele>
        <time>2024-05-26T13:13:48Z</time>
      </trkpt>
      <trkpt lat="43.74004" lon="6.68269">
        <ele>1225.4</ele>
        <time>2024-05-26T13:13:49Z</time>
      </trkpt>
      <trkpt lat="43.74003" lon="6.68269">
        <ele>1225.4</ele>
        <time>2024-05-26T13:13:50Z</time>
      </trkpt>
      <trkpt lat="43.74003" lon="6.68269">
        <ele>1225.4</ele>
        <time>2024-05-26T13:13:51Z</time>
      </trkpt>
      <trkpt lat="43.74003" lon="6.68269">
        <ele>1225.4</ele>
        <time>2024-05-26T13:13:52Z</time>
      </trkpt>
      <trkpt lat="43.74003" lon="6.68269">
        <ele>1225.4</ele>
        <time>2024-05-26T13:13:53Z</time>
      </trkpt>
      <trkpt lat="43.74003" lon="6.68269">
        <ele>1225.4</ele>
        <time>2024-05-26T13:13:54Z</time>
      </trkpt>
      <trkpt lat="43.74003" lon="6.68269">
        <ele>1225.4</ele>
        <time>2024-05-26T13:13:55Z</time>
      </trkpt>
      <trkpt lat="43.74002" lon="6.6827">
        <ele>1225.4</ele>
        <time>2024-05-26T13:13:56Z</time>
      </trkpt>
      <trkpt lat="43.74002" lon="6.6827">
        <ele>1225.4</ele>
        <time>2024-05-26T13:13:57Z</time>
      </trkpt>
      <trkpt lat="43.74002" lon="6.6827">
        <ele>1225.4</ele>
        <time>2024-05-26T13:13:58Z</time>
      </trkpt>
      <trkpt lat="43.74003" lon="6.68269">
        <ele>1225.4</ele>
        <time>2024-05-26T13:13:59Z</time>
      </trkpt>
      <trkpt lat="43.74002" lon="6.68267">
        <ele>1225.5</ele>
        <time>2024-05-26T13:14:00Z</time>
      </trkpt>
      <trkpt lat="43.74002" lon="6.68266">
        <ele>1225.4</ele>
        <time>2024-05-26T13:14:01Z</time>
      </trkpt>
      <trkpt lat="43.74001" lon="6.68264">
        <ele>1225.4</ele>
        <time>2024-05-26T13:14:02Z</time>
      </trkpt>
      <trkpt lat="43.74001" lon="6.68263">
        <ele>1225.5</ele>
        <time>2024-05-26T13:14:03Z</time>
      </trkpt>
      <trkpt lat="43.74" lon="6.68261">
        <ele>1225.5</ele>
        <time>2024-05-26T13:14:04Z</time>
      </trkpt>
      <trkpt lat="43.74" lon="6.6826">
        <ele>1225.5</ele>
        <time>2024-05-26T13:14:05Z</time>
      </trkpt>
      <trkpt lat="43.73999" lon="6.68258">
        <ele>1225.4</ele>
        <time>2024-05-26T13:14:06Z</time>
      </trkpt>
      <trkpt lat="43.73998" lon="6.68257">
        <ele>1225.3</ele>
        <time>2024-05-26T13:14:07Z</time>
      </trkpt>
      <trkpt lat="43.73997" lon="6.68255">
        <ele>1225.4</ele>
        <time>2024-05-26T13:14:08Z</time>
      </trkpt>
      <trkpt lat="43.73996" lon="6.68253">
        <ele>1225.3</ele>
        <time>2024-05-26T13:14:09Z</time>
      </trkpt>
      <trkpt lat="43.73995" lon="6.68252">
        <ele>1225.2</ele>
        <time>2024-05-26T13:14:10Z</time>
      </trkpt>
      <trkpt lat="43.73995" lon="6.6825">
        <ele>1225.2</ele>
        <time>2024-05-26T13:14:11Z</time>
      </trkpt>
      <trkpt lat="43.73995" lon="6.6825">
        <ele>1225.2</ele>
        <time>2024-05-26T13:14:12Z</time>
      </trkpt>
      <trkpt lat="43.73995" lon="6.68249">
        <ele>1225.1</ele>
        <time>2024-05-26T13:14:13Z</time>
      </trkpt>
      <trkpt lat="43.73995" lon="6.68249">
        <ele>1225.1</ele>
        <time>2024-05-26T13:14:14Z</time>
      </trkpt>
      <trkpt lat="43.73995" lon="6.6825">
        <ele>1225.1</ele>
        <time>2024-05-26T13:14:15Z</time>
      </trkpt>
      <trkpt lat="43.73994" lon="6.68249">
        <ele>1225.1</ele>
        <time>2024-05-26T13:14:16Z</time>
      </trkpt>
      <trkpt lat="43.73995" lon="6.68248">
        <ele>1225.1</ele>
        <time>2024-05-26T13:14:17Z</time>
      </trkpt>
      <trkpt lat="43.73995" lon="6.68248">
        <ele>1225</ele>
        <time>2024-05-26T13:14:18Z</time>
      </trkpt>
      <trkpt lat="43.73995" lon="6.68248">
        <ele>1225</ele>
        <time>2024-05-26T13:14:19Z</time>
      </trkpt>
      <trkpt lat="43.73995" lon="6.68248">
        <ele>1225</ele>
        <time>2024-05-26T13:14:20Z</time>
      </trkpt>
      <trkpt lat="43.73994" lon="6.68247">
        <ele>1224.9</ele>
        <time>2024-05-26T13:14:21Z</time>
      </trkpt>
      <trkpt lat="43.73993" lon="6.68247">
        <ele>1224.9</ele>
        <time>2024-05-26T13:14:22Z</time>
      </trkpt>
      <trkpt lat="43.73993" lon="6.68246">
        <ele>1224.9</ele>
        <time>2024-05-26T13:14:23Z</time>
      </trkpt>
      <trkpt lat="43.73993" lon="6.68246">
        <ele>1224.9</ele>
        <time>2024-05-26T13:14:24Z</time>
      </trkpt>
      <trkpt lat="43.73993" lon="6.68244">
        <ele>1224.8</ele>
        <time>2024-05-26T13:14:25Z</time>
      </trkpt>
      <trkpt lat="43.73993" lon="6.68244">
        <ele>1224.8</ele>
        <time>2024-05-26T13:14:26Z</time>
      </trkpt>
      <trkpt lat="43.73993" lon="6.68244">
        <ele>1224.9</ele>
        <time>2024-05-26T13:14:27Z</time>
      </trkpt>
      <trkpt lat="43.73993" lon="6.68244">
        <ele>1224.8</ele>
        <time>2024-05-26T13:14:28Z</time>
      </trkpt>
      <trkpt lat="43.73993" lon="6.68243">
        <ele>1224.8</ele>
        <time>2024-05-26T13:14:29Z</time>
      </trkpt>
      <trkpt lat="43.73992" lon="6.68242">
        <ele>1224.8</ele>
        <time>2024-05-26T13:14:30Z</time>
      </trkpt>
      <trkpt lat="43.73992" lon="6.68243">
        <ele>1224.8</ele>
        <time>2024-05-26T13:14:31Z</time>
      </trkpt>
      <trkpt lat="43.73992" lon="6.68242">
        <ele>1224.9</ele>
        <time>2024-05-26T13:14:32Z</time>
      </trkpt>
      <trkpt lat="43.73992" lon="6.68242">
        <ele>1224.9</ele>
        <time>2024-05-26T13:14:33Z</time>
      </trkpt>
      <trkpt lat="43.73991" lon="6.68242">
        <ele>1225</ele>
        <time>2024-05-26T13:14:34Z</time>
      </trkpt>
      <trkpt lat="43.73991" lon="6.68241">
        <ele>1225.1</ele>
        <time>2024-05-26T13:14:35Z</time>
      </trkpt>
      <trkpt lat="43.73991" lon="6.68241">
        <ele>1225.1</ele>
        <time>2024-05-26T13:14:36Z</time>
      </trkpt>
      <trkpt lat="43.7399" lon="6.6824">
        <ele>1225</ele>
        <time>2024-05-26T13:14:37Z</time>
      </trkpt>
      <trkpt lat="43.7399" lon="6.68239">
        <ele>1225</ele>
        <time>2024-05-26T13:14:38Z</time>
      </trkpt>
      <trkpt lat="43.7399" lon="6.68238">
        <ele>1225</ele>
        <time>2024-05-26T13:14:39Z</time>
      </trkpt>
      <trkpt lat="43.73989" lon="6.68238">
        <ele>1225</ele>
        <time>2024-05-26T13:14:40Z</time>
      </trkpt>
      <trkpt lat="43.73988" lon="6.68237">
        <ele>1224.9</ele>
        <time>2024-05-26T13:14:41Z</time>
      </trkpt>
      <trkpt lat="43.73988" lon="6.68237">
        <ele>1224.9</ele>
        <time>2024-05-26T13:14:42Z</time>
      </trkpt>
      <trkpt lat="43.73989" lon="6.68236">
        <ele>1224.9</ele>
        <time>2024-05-26T13:14:43Z</time>
      </trkpt>
      <trkpt lat="43.73988" lon="6.68236">
        <ele>1224.9</ele>
        <time>2024-05-26T13:14:44Z</time>
      </trkpt>
      <trkpt lat="43.73988" lon="6.68236">
        <ele>1224.9</ele>
        <time>2024-05-26T13:14:45Z</time>
      </trkpt>
      <trkpt lat="43.73988" lon="6.68235">
        <ele>1224.8</ele>
        <time>2024-05-26T13:14:46Z</time>
      </trkpt>
      <trkpt lat="43.73987" lon="6.68233">
        <ele>1224.8</ele>
        <time>2024-05-26T13:14:47Z</time>
      </trkpt>
      <trkpt lat="43.73987" lon="6.68233">
        <ele>1224.7</ele>
        <time>2024-05-26T13:14:48Z</time>
      </trkpt>
      <trkpt lat="43.73986" lon="6.68232">
        <ele>1224.7</ele>
        <time>2024-05-26T13:14:49Z</time>
      </trkpt>
      <trkpt lat="43.73986" lon="6.68231">
        <ele>1224.7</ele>
        <time>2024-05-26T13:14:50Z</time>
      </trkpt>
      <trkpt lat="43.73985" lon="6.6823">
        <ele>1224.7</ele>
        <time>2024-05-26T13:14:51Z</time>
      </trkpt>
      <trkpt lat="43.73985" lon="6.68229">
        <ele>1224.6</ele>
        <time>2024-05-26T13:14:52Z</time>
      </trkpt>
      <trkpt lat="43.73984" lon="6.68228">
        <ele>1224.6</ele>
        <time>2024-05-26T13:14:53Z</time>
      </trkpt>
      <trkpt lat="43.73984" lon="6.68227">
        <ele>1224.6</ele>
        <time>2024-05-26T13:14:54Z</time>
      </trkpt>
      <trkpt lat="43.73984" lon="6.68226">
        <ele>1224.6</ele>
        <time>2024-05-26T13:14:55Z</time>
      </trkpt>
      <trkpt lat="43.73984" lon="6.68225">
        <ele>1224.6</ele>
        <time>2024-05-26T13:14:56Z</time>
      </trkpt>
      <trkpt lat="43.73984" lon="6.68224">
        <ele>1224.5</ele>
        <time>2024-05-26T13:14:57Z</time>
      </trkpt>
      <trkpt lat="43.73984" lon="6.68222">
        <ele>1224.4</ele>
        <time>2024-05-26T13:14:58Z</time>
      </trkpt>
      <trkpt lat="43.73983" lon="6.68221">
        <ele>1224.4</ele>
        <time>2024-05-26T13:14:59Z</time>
      </trkpt>
      <trkpt lat="43.73983" lon="6.6822">
        <ele>1224.3</ele>
        <time>2024-05-26T13:15:00Z</time>
      </trkpt>
      <trkpt lat="43.73983" lon="6.68218">
        <ele>1224.3</ele>
        <time>2024-05-26T13:15:01Z</time>
      </trkpt>
      <trkpt lat="43.73983" lon="6.68217">
        <ele>1224.3</ele>
        <time>2024-05-26T13:15:02Z</time>
      </trkpt>
      <trkpt lat="43.73983" lon="6.68216">
        <ele>1224.3</ele>
        <time>2024-05-26T13:15:03Z</time>
      </trkpt>
      <trkpt lat="43.73983" lon="6.68215">
        <ele>1224.3</ele>
        <time>2024-05-26T13:15:04Z</time>
      </trkpt>
      <trkpt lat="43.73982" lon="6.68214">
        <ele>1224.3</ele>
        <time>2024-05-26T13:15:05Z</time>
      </trkpt>
      <trkpt lat="43.73982" lon="6.68213">
        <ele>1224.3</ele>
        <time>2024-05-26T13:15:06Z</time>
      </trkpt>
      <trkpt lat="43.73982" lon="6.68212">
        <ele>1224.2</ele>
        <time>2024-05-26T13:15:07Z</time>
      </trkpt>
      <trkpt lat="43.73982" lon="6.68211">
        <ele>1224.2</ele>
        <time>2024-05-26T13:15:08Z</time>
      </trkpt>
      <trkpt lat="43.73981" lon="6.6821">
        <ele>1224.1</ele>
        <time>2024-05-26T13:15:09Z</time>
      </trkpt>
      <trkpt lat="43.73981" lon="6.68209">
        <ele>1224</ele>
        <time>2024-05-26T13:15:10Z</time>
      </trkpt>
      <trkpt lat="43.7398" lon="6.68208">
        <ele>1224</ele>
        <time>2024-05-26T13:15:11Z</time>
      </trkpt>
      <trkpt lat="43.73979" lon="6.68207">
        <ele>1223.9</ele>
        <time>2024-05-26T13:15:12Z</time>
      </trkpt>
      <trkpt lat="43.73978" lon="6.68206">
        <ele>1223.9</ele>
        <time>2024-05-26T13:15:13Z</time>
      </trkpt>
      <trkpt lat="43.73976" lon="6.68204">
        <ele>1223.8</ele>
        <time>2024-05-26T13:15:14Z</time>
      </trkpt>
      <trkpt lat="43.73976" lon="6.68203">
        <ele>1223.7</ele>
        <time>2024-05-26T13:15:15Z</time>
      </trkpt>
      <trkpt lat="43.73975" lon="6.68202">
        <ele>1223.9</ele>
        <time>2024-05-26T13:15:16Z</time>
      </trkpt>
      <trkpt lat="43.73975" lon="6.68201">
        <ele>1223.7</ele>
        <time>2024-05-26T13:15:17Z</time>
      </trkpt>
      <trkpt lat="43.73975" lon="6.68199">
        <ele>1223.6</ele>
        <time>2024-05-26T13:15:18Z</time>
      </trkpt>
      <trkpt lat="43.73974" lon="6.68199">
        <ele>1217.4</ele>
        <time>2024-05-26T13:15:19Z</time>
      </trkpt>
      <trkpt lat="43.73973" lon="6.68198">
        <ele>1218.6</ele>
        <time>2024-05-26T13:15:20Z</time>
      </trkpt>
      <trkpt lat="43.73972" lon="6.68197">
        <ele>1219.6</ele>
        <time>2024-05-26T13:15:21Z</time>
      </trkpt>
      <trkpt lat="43.73971" lon="6.68195">
        <ele>1220.4</ele>
        <time>2024-05-26T13:15:22Z</time>
      </trkpt>
      <trkpt lat="43.73971" lon="6.68194">
        <ele>1221.1</ele>
        <time>2024-05-26T13:15:23Z</time>
      </trkpt>
      <trkpt lat="43.73971" lon="6.68193">
        <ele>1221.6</ele>
        <time>2024-05-26T13:15:24Z</time>
      </trkpt>
      <trkpt lat="43.7397" lon="6.68192">
        <ele>1222.2</ele>
        <time>2024-05-26T13:15:25Z</time>
      </trkpt>
      <trkpt lat="43.73969" lon="6.68191">
        <ele>1222.6</ele>
        <time>2024-05-26T13:15:26Z</time>
      </trkpt>
      <trkpt lat="43.73968" lon="6.6819">
        <ele>1223</ele>
        <time>2024-05-26T13:15:27Z</time>
      </trkpt>
      <trkpt lat="43.73967" lon="6.68189">
        <ele>1223.2</ele>
        <time>2024-05-26T13:15:28Z</time>
      </trkpt>
      <trkpt lat="43.73966" lon="6.68189">
        <ele>1223.3</ele>
        <time>2024-05-26T13:15:29Z</time>
      </trkpt>
      <trkpt lat="43.73966" lon="6.68189">
        <ele>1223.5</ele>
        <time>2024-05-26T13:15:30Z</time>
      </trkpt>
      <trkpt lat="43.73966" lon="6.68188">
        <ele>1223.7</ele>
        <time>2024-05-26T13:15:31Z</time>
      </trkpt>
      <trkpt lat="43.73965" lon="6.68187">
        <ele>1223.8</ele>
        <time>2024-05-26T13:15:32Z</time>
      </trkpt>
      <trkpt lat="43.73965" lon="6.68186">
        <ele>1223.9</ele>
        <time>2024-05-26T13:15:33Z</time>
      </trkpt>
      <trkpt lat="43.73964" lon="6.68186">
        <ele>1224</ele>
        <time>2024-05-26T13:15:34Z</time>
      </trkpt>
      <trkpt lat="43.73963" lon="6.68185">
        <ele>1224</ele>
        <time>2024-05-26T13:15:35Z</time>
      </trkpt>
      <trkpt lat="43.73963" lon="6.68185">
        <ele>1224</ele>
        <time>2024-05-26T13:15:36Z</time>
      </trkpt>
      <trkpt lat="43.73963" lon="6.68186">
        <ele>1224.1</ele>
        <time>2024-05-26T13:15:37Z</time>
      </trkpt>
      <trkpt lat="43.73963" lon="6.68185">
        <ele>1224</ele>
        <time>2024-05-26T13:15:38Z</time>
      </trkpt>
      <trkpt lat="43.73962" lon="6.68185">
        <ele>1224</ele>
        <time>2024-05-26T13:15:39Z</time>
      </trkpt>
      <trkpt lat="43.73962" lon="6.68185">
        <ele>1224</ele>
        <time>2024-05-26T13:15:40Z</time>
      </trkpt>
      <trkpt lat="43.73962" lon="6.68184">
        <ele>1224</ele>
        <time>2024-05-26T13:15:41Z</time>
      </trkpt>
      <trkpt lat="43.73961" lon="6.68185">
        <ele>1224</ele>
        <time>2024-05-26T13:15:42Z</time>
      </trkpt>
      <trkpt lat="43.73962" lon="6.68186">
        <ele>1223.9</ele>
        <time>2024-05-26T13:15:43Z</time>
      </trkpt>
      <trkpt lat="43.73962" lon="6.68186">
        <ele>1223.9</ele>
        <time>2024-05-26T13:15:44Z</time>
      </trkpt>
      <trkpt lat="43.73961" lon="6.68185">
        <ele>1223.9</ele>
        <time>2024-05-26T13:15:45Z</time>
      </trkpt>
      <trkpt lat="43.73961" lon="6.68185">
        <ele>1223.8</ele>
        <time>2024-05-26T13:15:46Z</time>
      </trkpt>
      <trkpt lat="43.73961" lon="6.68184">
        <ele>1224</ele>
        <time>2024-05-26T13:15:47Z</time>
      </trkpt>
      <trkpt lat="43.73961" lon="6.68184">
        <ele>1224</ele>
        <time>2024-05-26T13:15:48Z</time>
      </trkpt>
      <trkpt lat="43.73961" lon="6.68184">
        <ele>1224.1</ele>
        <time>2024-05-26T13:15:49Z</time>
      </trkpt>
      <trkpt lat="43.73961" lon="6.68184">
        <ele>1224.2</ele>
        <time>2024-05-26T13:15:50Z</time>
      </trkpt>
      <trkpt lat="43.73961" lon="6.68183">
        <ele>1224.2</ele>
        <time>2024-05-26T13:15:51Z</time>
      </trkpt>
      <trkpt lat="43.73961" lon="6.68183">
        <ele>1224.2</ele>
        <time>2024-05-26T13:15:52Z</time>
      </trkpt>
      <trkpt lat="43.73961" lon="6.68183">
        <ele>1224.2</ele>
        <time>2024-05-26T13:15:53Z</time>
      </trkpt>
      <trkpt lat="43.73961" lon="6.68182">
        <ele>1224.2</ele>
        <time>2024-05-26T13:15:54Z</time>
      </trkpt>
      <trkpt lat="43.73961" lon="6.68182">
        <ele>1224.2</ele>
        <time>2024-05-26T13:15:55Z</time>
      </trkpt>
      <trkpt lat="43.73961" lon="6.68181">
        <ele>1224.2</ele>
        <time>2024-05-26T13:15:56Z</time>
      </trkpt>
      <trkpt lat="43.73961" lon="6.68181">
        <ele>1224.1</ele>
        <time>2024-05-26T13:15:57Z</time>
      </trkpt>
      <trkpt lat="43.73961" lon="6.68181">
        <ele>1224.1</ele>
        <time>2024-05-26T13:15:58Z</time>
      </trkpt>
      <trkpt lat="43.73961" lon="6.68181">
        <ele>1224.1</ele>
        <time>2024-05-26T13:15:59Z</time>
      </trkpt>
      <trkpt lat="43.73961" lon="6.6818">
        <ele>1224</ele>
        <time>2024-05-26T13:16:00Z</time>
      </trkpt>
      <trkpt lat="43.73961" lon="6.68181">
        <ele>1224</ele>
        <time>2024-05-26T13:16:01Z</time>
      </trkpt>
      <trkpt lat="43.73961" lon="6.68181">
        <ele>1224</ele>
        <time>2024-05-26T13:16:02Z</time>
      </trkpt>
      <trkpt lat="43.73961" lon="6.68181">
        <ele>1224</ele>
        <time>2024-05-26T13:16:03Z</time>
      </trkpt>
      <trkpt lat="43.73961" lon="6.68181">
        <ele>1224</ele>
        <time>2024-05-26T13:16:04Z</time>
      </trkpt>
      <trkpt lat="43.73962" lon="6.68181">
        <ele>1224</ele>
        <time>2024-05-26T13:16:05Z</time>
      </trkpt>
      <trkpt lat="43.73962" lon="6.68181">
        <ele>1224</ele>
        <time>2024-05-26T13:16:06Z</time>
      </trkpt>
      <trkpt lat="43.73962" lon="6.68181">
        <ele>1224</ele>
        <time>2024-05-26T13:16:07Z</time>
      </trkpt>
      <trkpt lat="43.73962" lon="6.68181">
        <ele>1224</ele>
        <time>2024-05-26T13:16:08Z</time>
      </trkpt>
      <trkpt lat="43.73962" lon="6.68181">
        <ele>1224.1</ele>
        <time>2024-05-26T13:16:09Z</time>
      </trkpt>
      <trkpt lat="43.73962" lon="6.68181">
        <ele>1224.1</ele>
        <time>2024-05-26T13:16:10Z</time>
      </trkpt>
      <trkpt lat="43.73962" lon="6.68181">
        <ele>1224.1</ele>
        <time>2024-05-26T13:16:11Z</time>
      </trkpt>
      <trkpt lat="43.73962" lon="6.68181">
        <ele>1224.1</ele>
        <time>2024-05-26T13:16:12Z</time>
      </trkpt>
      <trkpt lat="43.73962" lon="6.68181">
        <ele>1224.2</ele>
        <time>2024-05-26T13:16:13Z</time>
      </trkpt>
      <trkpt lat="43.73962" lon="6.68181">
        <ele>1224.3</ele>
        <time>2024-05-26T13:16:14Z</time>
      </trkpt>
      <trkpt lat="43.73962" lon="6.68181">
        <ele>1224.3</ele>
        <time>2024-05-26T13:16:15Z</time>
      </trkpt>
      <trkpt lat="43.73962" lon="6.68181">
        <ele>1224.4</ele>
        <time>2024-05-26T13:16:16Z</time>
      </trkpt>
      <trkpt lat="43.73962" lon="6.68181">
        <ele>1224.4</ele>
        <time>2024-05-26T13:16:17Z</time>
      </trkpt>
      <trkpt lat="43.73961" lon="6.68181">
        <ele>1224.4</ele>
        <time>2024-05-26T13:16:18Z</time>
      </trkpt>
      <trkpt lat="43.73961" lon="6.68181">
        <ele>1224.4</ele>
        <time>2024-05-26T13:16:19Z</time>
      </trkpt>
      <trkpt lat="43.73961" lon="6.68181">
        <ele>1224.5</ele>
        <time>2024-05-26T13:16:20Z</time>
      </trkpt>
      <trkpt lat="43.73961" lon="6.68181">
        <ele>1224.4</ele>
        <time>2024-05-26T13:16:21Z</time>
      </trkpt>
      <trkpt lat="43.73961" lon="6.68181">
        <ele>1224.5</ele>
        <time>2024-05-26T13:16:22Z</time>
      </trkpt>
      <trkpt lat="43.7396" lon="6.68181">
        <ele>1224.4</ele>
        <time>2024-05-26T13:16:23Z</time>
      </trkpt>
      <trkpt lat="43.7396" lon="6.68181">
        <ele>1224.4</ele>
        <time>2024-05-26T13:16:24Z</time>
      </trkpt>
      <trkpt lat="43.7396" lon="6.68181">
        <ele>1224.4</ele>
        <time>2024-05-26T13:16:25Z</time>
      </trkpt>
      <trkpt lat="43.7396" lon="6.68181">
        <ele>1224.4</ele>
        <time>2024-05-26T13:16:26Z</time>
      </trkpt>
      <trkpt lat="43.7396" lon="6.68181">
        <ele>1224.4</ele>
        <time>2024-05-26T13:16:27Z</time>
      </trkpt>
      <trkpt lat="43.73959" lon="6.68181">
        <ele>1224.4</ele>
        <time>2024-05-26T13:16:28Z</time>
      </trkpt>
      <trkpt lat="43.73959" lon="6.68181">
        <ele>1224.3</ele>
        <time>2024-05-26T13:16:29Z</time>
      </trkpt>
      <trkpt lat="43.73959" lon="6.68181">
        <ele>1224.3</ele>
        <time>2024-05-26T13:16:30Z</time>
      </trkpt>
      <trkpt lat="43.73959" lon="6.68181">
        <ele>1224.3</ele>
        <time>2024-05-26T13:16:31Z</time>
      </trkpt>
      <trkpt lat="43.73958" lon="6.68181">
        <ele>1224.3</ele>
        <time>2024-05-26T13:16:32Z</time>
      </trkpt>
      <trkpt lat="43.73958" lon="6.68181">
        <ele>1224.3</ele>
        <time>2024-05-26T13:16:33Z</time>
      </trkpt>
      <trkpt lat="43.73958" lon="6.68181">
        <ele>1224.3</ele>
        <time>2024-05-26T13:16:34Z</time>
      </trkpt>
      <trkpt lat="43.73958" lon="6.68181">
        <ele>1224.3</ele>
        <time>2024-05-26T13:16:35Z</time>
      </trkpt>
      <trkpt lat="43.73958" lon="6.68181">
        <ele>1224.4</ele>
        <time>2024-05-26T13:16:36Z</time>
      </trkpt>
      <trkpt lat="43.73958" lon="6.6818">
        <ele>1224.4</ele>
        <time>2024-05-26T13:16:37Z</time>
      </trkpt>
      <trkpt lat="43.73957" lon="6.6818">
        <ele>1224.4</ele>
        <time>2024-05-26T13:16:38Z</time>
      </trkpt>
      <trkpt lat="43.73957" lon="6.68179">
        <ele>1224.4</ele>
        <time>2024-05-26T13:16:39Z</time>
      </trkpt>
      <trkpt lat="43.73956" lon="6.68178">
        <ele>1224.4</ele>
        <time>2024-05-26T13:16:40Z</time>
      </trkpt>
      <trkpt lat="43.73955" lon="6.68177">
        <ele>1224.4</ele>
        <time>2024-05-26T13:16:41Z</time>
      </trkpt>
      <trkpt lat="43.73954" lon="6.68177">
        <ele>1224.4</ele>
        <time>2024-05-26T13:16:42Z</time>
      </trkpt>
      <trkpt lat="43.73954" lon="6.68177">
        <ele>1224.3</ele>
        <time>2024-05-26T13:16:43Z</time>
      </trkpt>
      <trkpt lat="43.73953" lon="6.68176">
        <ele>1224.3</ele>
        <time>2024-05-26T13:16:44Z</time>
      </trkpt>
      <trkpt lat="43.73952" lon="6.68176">
        <ele>1224.2</ele>
        <time>2024-05-26T13:16:45Z</time>
      </trkpt>
      <trkpt lat="43.73951" lon="6.68175">
        <ele>1224.2</ele>
        <time>2024-05-26T13:16:46Z</time>
      </trkpt>
      <trkpt lat="43.7395" lon="6.68174">
        <ele>1224.1</ele>
        <time>2024-05-26T13:16:47Z</time>
      </trkpt>
      <trkpt lat="43.7395" lon="6.68174">
        <ele>1224</ele>
        <time>2024-05-26T13:16:48Z</time>
      </trkpt>
      <trkpt lat="43.73949" lon="6.68173">
        <ele>1223.8</ele>
        <time>2024-05-26T13:16:49Z</time>
      </trkpt>
      <trkpt lat="43.73949" lon="6.68172">
        <ele>1223.7</ele>
        <time>2024-05-26T13:16:50Z</time>
      </trkpt>
      <trkpt lat="43.73948" lon="6.68171">
        <ele>1223.6</ele>
        <time>2024-05-26T13:16:51Z</time>
      </trkpt>
      <trkpt lat="43.73947" lon="6.68171">
        <ele>1223.6</ele>
        <time>2024-05-26T13:16:52Z</time>
      </trkpt>
      <trkpt lat="43.73947" lon="6.6817">
        <ele>1223.5</ele>
        <time>2024-05-26T13:16:53Z</time>
      </trkpt>
      <trkpt lat="43.73946" lon="6.68169">
        <ele>1223.4</ele>
        <time>2024-05-26T13:16:54Z</time>
      </trkpt>
      <trkpt lat="43.73946" lon="6.68169">
        <ele>1223.4</ele>
        <time>2024-05-26T13:16:55Z</time>
      </trkpt>
      <trkpt lat="43.73946" lon="6.68169">
        <ele>1223.3</ele>
        <time>2024-05-26T13:16:56Z</time>
      </trkpt>
      <trkpt lat="43.73945" lon="6.68169">
        <ele>1223.2</ele>
        <time>2024-05-26T13:16:57Z</time>
      </trkpt>
      <trkpt lat="43.73945" lon="6.68168">
        <ele>1223.2</ele>
        <time>2024-05-26T13:16:58Z</time>
      </trkpt>
      <trkpt lat="43.73944" lon="6.68167">
        <ele>1223.1</ele>
        <time>2024-05-26T13:16:59Z</time>
      </trkpt>
      <trkpt lat="43.73943" lon="6.68167">
        <ele>1223.1</ele>
        <time>2024-05-26T13:17:00Z</time>
      </trkpt>
      <trkpt lat="43.73943" lon="6.68166">
        <ele>1223.1</ele>
        <time>2024-05-26T13:17:01Z</time>
      </trkpt>
      <trkpt lat="43.73942" lon="6.68166">
        <ele>1223.1</ele>
        <time>2024-05-26T13:17:02Z</time>
      </trkpt>
      <trkpt lat="43.73942" lon="6.68165">
        <ele>1223.1</ele>
        <time>2024-05-26T13:17:03Z</time>
      </trkpt>
      <trkpt lat="43.73941" lon="6.68164">
        <ele>1223.1</ele>
        <time>2024-05-26T13:17:04Z</time>
      </trkpt>
      <trkpt lat="43.7394" lon="6.68163">
        <ele>1223.1</ele>
        <time>2024-05-26T13:17:05Z</time>
      </trkpt>
      <trkpt lat="43.7394" lon="6.68162">
        <ele>1223</ele>
        <time>2024-05-26T13:17:06Z</time>
      </trkpt>
      <trkpt lat="43.73939" lon="6.68162">
        <ele>1222.9</ele>
        <time>2024-05-26T13:17:07Z</time>
      </trkpt>
      <trkpt lat="43.73939" lon="6.6816">
        <ele>1222.7</ele>
        <time>2024-05-26T13:17:08Z</time>
      </trkpt>
      <trkpt lat="43.73937" lon="6.68159">
        <ele>1222.6</ele>
        <time>2024-05-26T13:17:09Z</time>
      </trkpt>
      <trkpt lat="43.73936" lon="6.68158">
        <ele>1222.4</ele>
        <time>2024-05-26T13:17:10Z</time>
      </trkpt>
      <trkpt lat="43.73935" lon="6.68158">
        <ele>1222.3</ele>
        <time>2024-05-26T13:17:11Z</time>
      </trkpt>
      <trkpt lat="43.73934" lon="6.68158">
        <ele>1222.2</ele>
        <time>2024-05-26T13:17:12Z</time>
      </trkpt>
      <trkpt lat="43.73934" lon="6.68157">
        <ele>1222</ele>
        <time>2024-05-26T13:17:13Z</time>
      </trkpt>
      <trkpt lat="43.73934" lon="6.68156">
        <ele>1221.9</ele>
        <time>2024-05-26T13:17:14Z</time>
      </trkpt>
      <trkpt lat="43.73933" lon="6.68155">
        <ele>1221.7</ele>
        <time>2024-05-26T13:17:15Z</time>
      </trkpt>
      <trkpt lat="43.73932" lon="6.68153">
        <ele>1221.4</ele>
        <time>2024-05-26T13:17:16Z</time>
      </trkpt>
      <trkpt lat="43.73931" lon="6.68152">
        <ele>1221.3</ele>
        <time>2024-05-26T13:17:17Z</time>
      </trkpt>
      <trkpt lat="43.7393" lon="6.68151">
        <ele>1221.1</ele>
        <time>2024-05-26T13:17:18Z</time>
      </trkpt>
      <trkpt lat="43.73929" lon="6.6815">
        <ele>1221</ele>
        <time>2024-05-26T13:17:19Z</time>
      </trkpt>
      <trkpt lat="43.73928" lon="6.68149">
        <ele>1220.9</ele>
        <time>2024-05-26T13:17:20Z</time>
      </trkpt>
      <trkpt lat="43.73928" lon="6.68148">
        <ele>1220.9</ele>
        <time>2024-05-26T13:17:21Z</time>
      </trkpt>
      <trkpt lat="43.73927" lon="6.68148">
        <ele>1220.7</ele>
        <time>2024-05-26T13:17:22Z</time>
      </trkpt>
      <trkpt lat="43.73926" lon="6.68147">
        <ele>1220.5</ele>
        <time>2024-05-26T13:17:23Z</time>
      </trkpt>
      <trkpt lat="43.73925" lon="6.68146">
        <ele>1220.4</ele>
        <time>2024-05-26T13:17:24Z</time>
      </trkpt>
      <trkpt lat="43.73925" lon="6.68145">
        <ele>1220.3</ele>
        <time>2024-05-26T13:17:25Z</time>
      </trkpt>
      <trkpt lat="43.73924" lon="6.68145">
        <ele>1220.2</ele>
        <time>2024-05-26T13:17:26Z</time>
      </trkpt>
      <trkpt lat="43.73924" lon="6.68144">
        <ele>1220.2</ele>
        <time>2024-05-26T13:17:27Z</time>
      </trkpt>
      <trkpt lat="43.73923" lon="6.68143">
        <ele>1220.1</ele>
        <time>2024-05-26T13:17:28Z</time>
      </trkpt>
      <trkpt lat="43.73923" lon="6.68142">
        <ele>1220</ele>
        <time>2024-05-26T13:17:29Z</time>
      </trkpt>
      <trkpt lat="43.73922" lon="6.68141">
        <ele>1219.9</ele>
        <time>2024-05-26T13:17:30Z</time>
      </trkpt>
      <trkpt lat="43.73921" lon="6.6814">
        <ele>1219.9</ele>
        <time>2024-05-26T13:17:31Z</time>
      </trkpt>
      <trkpt lat="43.73921" lon="6.6814">
        <ele>1219.8</ele>
        <time>2024-05-26T13:17:32Z</time>
      </trkpt>
      <trkpt lat="43.7392" lon="6.68139">
        <ele>1219.6</ele>
        <time>2024-05-26T13:17:33Z</time>
      </trkpt>
      <trkpt lat="43.73919" lon="6.68138">
        <ele>1219.4</ele>
        <time>2024-05-26T13:17:34Z</time>
      </trkpt>
      <trkpt lat="43.73919" lon="6.68138">
        <ele>1219.3</ele>
        <time>2024-05-26T13:17:35Z</time>
      </trkpt>
      <trkpt lat="43.73918" lon="6.68139">
        <ele>1219.2</ele>
        <time>2024-05-26T13:17:36Z</time>
      </trkpt>
      <trkpt lat="43.73917" lon="6.68138">
        <ele>1218.8</ele>
        <time>2024-05-26T13:17:37Z</time>
      </trkpt>
      <trkpt lat="43.73916" lon="6.68139">
        <ele>1218.6</ele>
        <time>2024-05-26T13:17:38Z</time>
      </trkpt>
      <trkpt lat="43.73914" lon="6.68138">
        <ele>1218.5</ele>
        <time>2024-05-26T13:17:39Z</time>
      </trkpt>
      <trkpt lat="43.73913" lon="6.68138">
        <ele>1218.3</ele>
        <time>2024-05-26T13:17:40Z</time>
      </trkpt>
      <trkpt lat="43.73912" lon="6.68138">
        <ele>1218</ele>
        <time>2024-05-26T13:17:41Z</time>
      </trkpt>
      <trkpt lat="43.73911" lon="6.68138">
        <ele>1217.8</ele>
        <time>2024-05-26T13:17:42Z</time>
      </trkpt>
      <trkpt lat="43.7391" lon="6.68137">
        <ele>1217.6</ele>
        <time>2024-05-26T13:17:43Z</time>
      </trkpt>
      <trkpt lat="43.73908" lon="6.68137">
        <ele>1217.4</ele>
        <time>2024-05-26T13:17:44Z</time>
      </trkpt>
      <trkpt lat="43.73907" lon="6.68137">
        <ele>1217.3</ele>
        <time>2024-05-26T13:17:45Z</time>
      </trkpt>
      <trkpt lat="43.73906" lon="6.68137">
        <ele>1217.1</ele>
        <time>2024-05-26T13:17:46Z</time>
      </trkpt>
      <trkpt lat="43.73905" lon="6.68137">
        <ele>1217</ele>
        <time>2024-05-26T13:17:47Z</time>
      </trkpt>
      <trkpt lat="43.73904" lon="6.68137">
        <ele>1216.9</ele>
        <time>2024-05-26T13:17:48Z</time>
      </trkpt>
      <trkpt lat="43.73903" lon="6.68137">
        <ele>1216.7</ele>
        <time>2024-05-26T13:17:49Z</time>
      </trkpt>
      <trkpt lat="43.73902" lon="6.68137">
        <ele>1216.6</ele>
        <time>2024-05-26T13:17:50Z</time>
      </trkpt>
      <trkpt lat="43.739" lon="6.68137">
        <ele>1216.5</ele>
        <time>2024-05-26T13:17:51Z</time>
      </trkpt>
      <trkpt lat="43.739" lon="6.68138">
        <ele>1216.5</ele>
        <time>2024-05-26T13:17:52Z</time>
      </trkpt>
      <trkpt lat="43.73899" lon="6.68138">
        <ele>1216.3</ele>
        <time>2024-05-26T13:17:53Z</time>
      </trkpt>
      <trkpt lat="43.73897" lon="6.68138">
        <ele>1216</ele>
        <time>2024-05-26T13:17:54Z</time>
      </trkpt>
      <trkpt lat="43.73896" lon="6.68138">
        <ele>1215.8</ele>
        <time>2024-05-26T13:17:55Z</time>
      </trkpt>
      <trkpt lat="43.73895" lon="6.68139">
        <ele>1215.6</ele>
        <time>2024-05-26T13:17:56Z</time>
      </trkpt>
      <trkpt lat="43.73894" lon="6.68141">
        <ele>1215.5</ele>
        <time>2024-05-26T13:17:57Z</time>
      </trkpt>
      <trkpt lat="43.73893" lon="6.68141">
        <ele>1215.3</ele>
        <time>2024-05-26T13:17:58Z</time>
      </trkpt>
      <trkpt lat="43.73893" lon="6.68142">
        <ele>1215.2</ele>
        <time>2024-05-26T13:17:59Z</time>
      </trkpt>
      <trkpt lat="43.73892" lon="6.68143">
        <ele>1215.1</ele>
        <time>2024-05-26T13:18:00Z</time>
      </trkpt>
      <trkpt lat="43.73892" lon="6.68145">
        <ele>1214.9</ele>
        <time>2024-05-26T13:18:01Z</time>
      </trkpt>
      <trkpt lat="43.73891" lon="6.68147">
        <ele>1214.7</ele>
        <time>2024-05-26T13:18:02Z</time>
      </trkpt>
      <trkpt lat="43.73891" lon="6.68149">
        <ele>1214.5</ele>
        <time>2024-05-26T13:18:03Z</time>
      </trkpt>
      <trkpt lat="43.73891" lon="6.6815">
        <ele>1214.3</ele>
        <time>2024-05-26T13:18:04Z</time>
      </trkpt>
      <trkpt lat="43.73891" lon="6.68152">
        <ele>1214.1</ele>
        <time>2024-05-26T13:18:05Z</time>
      </trkpt>
      <trkpt lat="43.73891" lon="6.68153">
        <ele>1213.9</ele>
        <time>2024-05-26T13:18:06Z</time>
      </trkpt>
      <trkpt lat="43.7389" lon="6.68154">
        <ele>1213.9</ele>
        <time>2024-05-26T13:18:07Z</time>
      </trkpt>
      <trkpt lat="43.7389" lon="6.68156">
        <ele>1213.8</ele>
        <time>2024-05-26T13:18:08Z</time>
      </trkpt>
      <trkpt lat="43.7389" lon="6.68157">
        <ele>1213.6</ele>
        <time>2024-05-26T13:18:09Z</time>
      </trkpt>
      <trkpt lat="43.7389" lon="6.68159">
        <ele>1213.4</ele>
        <time>2024-05-26T13:18:10Z</time>
      </trkpt>
      <trkpt lat="43.7389" lon="6.68161">
        <ele>1213.2</ele>
        <time>2024-05-26T13:18:11Z</time>
      </trkpt>
      <trkpt lat="43.7389" lon="6.68162">
        <ele>1213</ele>
        <time>2024-05-26T13:18:12Z</time>
      </trkpt>
      <trkpt lat="43.7389" lon="6.68163">
        <ele>1212.9</ele>
        <time>2024-05-26T13:18:13Z</time>
      </trkpt>
      <trkpt lat="43.7389" lon="6.68164">
        <ele>1212.8</ele>
        <time>2024-05-26T13:18:14Z</time>
      </trkpt>
      <trkpt lat="43.73889" lon="6.68165">
        <ele>1212.6</ele>
        <time>2024-05-26T13:18:15Z</time>
      </trkpt>
      <trkpt lat="43.73888" lon="6.68167">
        <ele>1212.4</ele>
        <time>2024-05-26T13:18:16Z</time>
      </trkpt>
      <trkpt lat="43.73887" lon="6.68168">
        <ele>1212.3</ele>
        <time>2024-05-26T13:18:17Z</time>
      </trkpt>
      <trkpt lat="43.73886" lon="6.68168">
        <ele>1212.2</ele>
        <time>2024-05-26T13:18:18Z</time>
      </trkpt>
      <trkpt lat="43.73886" lon="6.68169">
        <ele>1212</ele>
        <time>2024-05-26T13:18:19Z</time>
      </trkpt>
      <trkpt lat="43.73886" lon="6.68169">
        <ele>1211.9</ele>
        <time>2024-05-26T13:18:20Z</time>
      </trkpt>
      <trkpt lat="43.73885" lon="6.68169">
        <ele>1211.8</ele>
        <time>2024-05-26T13:18:21Z</time>
      </trkpt>
      <trkpt lat="43.73884" lon="6.68169">
        <ele>1211.6</ele>
        <time>2024-05-26T13:18:22Z</time>
      </trkpt>
      <trkpt lat="43.73883" lon="6.6817">
        <ele>1211.4</ele>
        <time>2024-05-26T13:18:23Z</time>
      </trkpt>
      <trkpt lat="43.73882" lon="6.6817">
        <ele>1211.3</ele>
        <time>2024-05-26T13:18:24Z</time>
      </trkpt>
      <trkpt lat="43.73882" lon="6.68171">
        <ele>1211.1</ele>
        <time>2024-05-26T13:18:25Z</time>
      </trkpt>
      <trkpt lat="43.73881" lon="6.68171">
        <ele>1210.9</ele>
        <time>2024-05-26T13:18:26Z</time>
      </trkpt>
      <trkpt lat="43.7388" lon="6.68173">
        <ele>1210.8</ele>
        <time>2024-05-26T13:18:27Z</time>
      </trkpt>
      <trkpt lat="43.73879" lon="6.68173">
        <ele>1210.7</ele>
        <time>2024-05-26T13:18:28Z</time>
      </trkpt>
      <trkpt lat="43.73878" lon="6.68173">
        <ele>1210.6</ele>
        <time>2024-05-26T13:18:29Z</time>
      </trkpt>
      <trkpt lat="43.73877" lon="6.68173">
        <ele>1210.5</ele>
        <time>2024-05-26T13:18:30Z</time>
      </trkpt>
      <trkpt lat="43.73876" lon="6.68173">
        <ele>1210.3</ele>
        <time>2024-05-26T13:18:31Z</time>
      </trkpt>
      <trkpt lat="43.73875" lon="6.68173">
        <ele>1210.2</ele>
        <time>2024-05-26T13:18:32Z</time>
      </trkpt>
      <trkpt lat="43.73874" lon="6.68172">
        <ele>1210</ele>
        <time>2024-05-26T13:18:33Z</time>
      </trkpt>
      <trkpt lat="43.73872" lon="6.68172">
        <ele>1209.8</ele>
        <time>2024-05-26T13:18:34Z</time>
      </trkpt>
      <trkpt lat="43.73871" lon="6.68173">
        <ele>1209.8</ele>
        <time>2024-05-26T13:18:35Z</time>
      </trkpt>
      <trkpt lat="43.73869" lon="6.68172">
        <ele>1209.6</ele>
        <time>2024-05-26T13:18:36Z</time>
      </trkpt>
      <trkpt lat="43.73868" lon="6.68172">
        <ele>1209.5</ele>
        <time>2024-05-26T13:18:37Z</time>
      </trkpt>
      <trkpt lat="43.73867" lon="6.68173">
        <ele>1209.3</ele>
        <time>2024-05-26T13:18:38Z</time>
      </trkpt>
      <trkpt lat="43.73866" lon="6.68174">
        <ele>1209.2</ele>
        <time>2024-05-26T13:18:39Z</time>
      </trkpt>
      <trkpt lat="43.73866" lon="6.68174">
        <ele>1209.1</ele>
        <time>2024-05-26T13:18:40Z</time>
      </trkpt>
      <trkpt lat="43.73866" lon="6.68174">
        <ele>1209</ele>
        <time>2024-05-26T13:18:41Z</time>
      </trkpt>
      <trkpt lat="43.73864" lon="6.68174">
        <ele>1208.8</ele>
        <time>2024-05-26T13:18:42Z</time>
      </trkpt>
      <trkpt lat="43.73863" lon="6.68173">
        <ele>1208.5</ele>
        <time>2024-05-26T13:18:43Z</time>
      </trkpt>
      <trkpt lat="43.73862" lon="6.68173">
        <ele>1208.2</ele>
        <time>2024-05-26T13:18:44Z</time>
      </trkpt>
      <trkpt lat="43.73861" lon="6.68172">
        <ele>1208</ele>
        <time>2024-05-26T13:18:45Z</time>
      </trkpt>
      <trkpt lat="43.7386" lon="6.68172">
        <ele>1207.9</ele>
        <time>2024-05-26T13:18:46Z</time>
      </trkpt>
      <trkpt lat="43.7386" lon="6.68172">
        <ele>1207.8</ele>
        <time>2024-05-26T13:18:47Z</time>
      </trkpt>
      <trkpt lat="43.73859" lon="6.68172">
        <ele>1207.8</ele>
        <time>2024-05-26T13:18:48Z</time>
      </trkpt>
      <trkpt lat="43.73858" lon="6.68172">
        <ele>1207.6</ele>
        <time>2024-05-26T13:18:49Z</time>
      </trkpt>
      <trkpt lat="43.73858" lon="6.6817">
        <ele>1207.5</ele>
        <time>2024-05-26T13:18:50Z</time>
      </trkpt>
      <trkpt lat="43.73857" lon="6.68169">
        <ele>1207.4</ele>
        <time>2024-05-26T13:18:51Z</time>
      </trkpt>
      <trkpt lat="43.73856" lon="6.68168">
        <ele>1207.4</ele>
        <time>2024-05-26T13:18:52Z</time>
      </trkpt>
      <trkpt lat="43.73856" lon="6.68167">
        <ele>1207.3</ele>
        <time>2024-05-26T13:18:53Z</time>
      </trkpt>
      <trkpt lat="43.73854" lon="6.68166">
        <ele>1207.3</ele>
        <time>2024-05-26T13:18:54Z</time>
      </trkpt>
      <trkpt lat="43.73854" lon="6.68165">
        <ele>1207.3</ele>
        <time>2024-05-26T13:18:55Z</time>
      </trkpt>
      <trkpt lat="43.73853" lon="6.68164">
        <ele>1207.3</ele>
        <time>2024-05-26T13:18:56Z</time>
      </trkpt>
      <trkpt lat="43.73853" lon="6.68163">
        <ele>1207.4</ele>
        <time>2024-05-26T13:18:57Z</time>
      </trkpt>
      <trkpt lat="43.73853" lon="6.68162">
        <ele>1207.4</ele>
        <time>2024-05-26T13:18:58Z</time>
      </trkpt>
      <trkpt lat="43.73852" lon="6.68161">
        <ele>1207.5</ele>
        <time>2024-05-26T13:18:59Z</time>
      </trkpt>
      <trkpt lat="43.73851" lon="6.6816">
        <ele>1207.6</ele>
        <time>2024-05-26T13:19:00Z</time>
      </trkpt>
      <trkpt lat="43.7385" lon="6.68159">
        <ele>1207.6</ele>
        <time>2024-05-26T13:19:01Z</time>
      </trkpt>
      <trkpt lat="43.73849" lon="6.68159">
        <ele>1207.7</ele>
        <time>2024-05-26T13:19:02Z</time>
      </trkpt>
      <trkpt lat="43.73849" lon="6.68159">
        <ele>1207.8</ele>
        <time>2024-05-26T13:19:03Z</time>
      </trkpt>
      <trkpt lat="43.73848" lon="6.68158">
        <ele>1207.8</ele>
        <time>2024-05-26T13:19:04Z</time>
      </trkpt>
      <trkpt lat="43.73847" lon="6.68157">
        <ele>1207.8</ele>
        <time>2024-05-26T13:19:05Z</time>
      </trkpt>
      <trkpt lat="43.73847" lon="6.68156">
        <ele>1207.9</ele>
        <time>2024-05-26T13:19:06Z</time>
      </trkpt>
      <trkpt lat="43.73846" lon="6.68155">
        <ele>1207.9</ele>
        <time>2024-05-26T13:19:07Z</time>
      </trkpt>
      <trkpt lat="43.73846" lon="6.68154">
        <ele>1207.9</ele>
        <time>2024-05-26T13:19:08Z</time>
      </trkpt>
      <trkpt lat="43.73846" lon="6.68154">
        <ele>1207.9</ele>
        <time>2024-05-26T13:19:09Z</time>
      </trkpt>
      <trkpt lat="43.73845" lon="6.68154">
        <ele>1207.9</ele>
        <time>2024-05-26T13:19:10Z</time>
      </trkpt>
      <trkpt lat="43.73845" lon="6.68153">
        <ele>1208</ele>
        <time>2024-05-26T13:19:11Z</time>
      </trkpt>
      <trkpt lat="43.73844" lon="6.68153">
        <ele>1207.9</ele>
        <time>2024-05-26T13:19:12Z</time>
      </trkpt>
      <trkpt lat="43.73842" lon="6.68152">
        <ele>1207.9</ele>
        <time>2024-05-26T13:19:13Z</time>
      </trkpt>
      <trkpt lat="43.73841" lon="6.68151">
        <ele>1207.8</ele>
        <time>2024-05-26T13:19:14Z</time>
      </trkpt>
      <trkpt lat="43.7384" lon="6.68151">
        <ele>1207.7</ele>
        <time>2024-05-26T13:19:15Z</time>
      </trkpt>
      <trkpt lat="43.73839" lon="6.6815">
        <ele>1207.6</ele>
        <time>2024-05-26T13:19:16Z</time>
      </trkpt>
      <trkpt lat="43.73838" lon="6.6815">
        <ele>1207.6</ele>
        <time>2024-05-26T13:19:17Z</time>
      </trkpt>
      <trkpt lat="43.73838" lon="6.68149">
        <ele>1207.5</ele>
        <time>2024-05-26T13:19:18Z</time>
      </trkpt>
      <trkpt lat="43.73837" lon="6.68148">
        <ele>1207.4</ele>
        <time>2024-05-26T13:19:19Z</time>
      </trkpt>
      <trkpt lat="43.73837" lon="6.68148">
        <ele>1207.3</ele>
        <time>2024-05-26T13:19:20Z</time>
      </trkpt>
      <trkpt lat="43.73836" lon="6.68147">
        <ele>1207.2</ele>
        <time>2024-05-26T13:19:21Z</time>
      </trkpt>
      <trkpt lat="43.73835" lon="6.68147">
        <ele>1207.1</ele>
        <time>2024-05-26T13:19:22Z</time>
      </trkpt>
      <trkpt lat="43.73835" lon="6.68147">
        <ele>1207.1</ele>
        <time>2024-05-26T13:19:23Z</time>
      </trkpt>
      <trkpt lat="43.73834" lon="6.68146">
        <ele>1207</ele>
        <time>2024-05-26T13:19:24Z</time>
      </trkpt>
      <trkpt lat="43.73833" lon="6.68145">
        <ele>1207</ele>
        <time>2024-05-26T13:19:25Z</time>
      </trkpt>
      <trkpt lat="43.73832" lon="6.68144">
        <ele>1207</ele>
        <time>2024-05-26T13:19:26Z</time>
      </trkpt>
      <trkpt lat="43.73832" lon="6.68143">
        <ele>1207</ele>
        <time>2024-05-26T13:19:27Z</time>
      </trkpt>
      <trkpt lat="43.73831" lon="6.68143">
        <ele>1207</ele>
        <time>2024-05-26T13:19:28Z</time>
      </trkpt>
      <trkpt lat="43.7383" lon="6.68141">
        <ele>1207.1</ele>
        <time>2024-05-26T13:19:29Z</time>
      </trkpt>
      <trkpt lat="43.73829" lon="6.6814">
        <ele>1207.1</ele>
        <time>2024-05-26T13:19:30Z</time>
      </trkpt>
      <trkpt lat="43.73828" lon="6.6814">
        <ele>1207.2</ele>
        <time>2024-05-26T13:19:31Z</time>
      </trkpt>
      <trkpt lat="43.73827" lon="6.68138">
        <ele>1207.2</ele>
        <time>2024-05-26T13:19:32Z</time>
      </trkpt>
      <trkpt lat="43.73826" lon="6.68138">
        <ele>1207.2</ele>
        <time>2024-05-26T13:19:33Z</time>
      </trkpt>
      <trkpt lat="43.73825" lon="6.68137">
        <ele>1207.2</ele>
        <time>2024-05-26T13:19:34Z</time>
      </trkpt>
      <trkpt lat="43.73824" lon="6.68137">
        <ele>1207.1</ele>
        <time>2024-05-26T13:19:35Z</time>
      </trkpt>
      <trkpt lat="43.73824" lon="6.68136">
        <ele>1207.1</ele>
        <time>2024-05-26T13:19:36Z</time>
      </trkpt>
      <trkpt lat="43.73824" lon="6.68135">
        <ele>1207.1</ele>
        <time>2024-05-26T13:19:37Z</time>
      </trkpt>
      <trkpt lat="43.73824" lon="6.68135">
        <ele>1207</ele>
        <time>2024-05-26T13:19:38Z</time>
      </trkpt>
      <trkpt lat="43.73823" lon="6.68134">
        <ele>1207</ele>
        <time>2024-05-26T13:19:39Z</time>
      </trkpt>
      <trkpt lat="43.73823" lon="6.68134">
        <ele>1207</ele>
        <time>2024-05-26T13:19:40Z</time>
      </trkpt>
      <trkpt lat="43.73823" lon="6.68134">
        <ele>1207</ele>
        <time>2024-05-26T13:19:41Z</time>
      </trkpt>
      <trkpt lat="43.73823" lon="6.68134">
        <ele>1207</ele>
        <time>2024-05-26T13:19:42Z</time>
      </trkpt>
      <trkpt lat="43.73823" lon="6.68133">
        <ele>1207</ele>
        <time>2024-05-26T13:19:43Z</time>
      </trkpt>
      <trkpt lat="43.73823" lon="6.68133">
        <ele>1207</ele>
        <time>2024-05-26T13:19:44Z</time>
      </trkpt>
      <trkpt lat="43.73823" lon="6.68132">
        <ele>1207</ele>
        <time>2024-05-26T13:19:45Z</time>
      </trkpt>
      <trkpt lat="43.73821" lon="6.68132">
        <ele>1206.9</ele>
        <time>2024-05-26T13:19:46Z</time>
      </trkpt>
      <trkpt lat="43.7382" lon="6.68131">
        <ele>1206.9</ele>
        <time>2024-05-26T13:19:47Z</time>
      </trkpt>
      <trkpt lat="43.7382" lon="6.6813">
        <ele>1206.8</ele>
        <time>2024-05-26T13:19:48Z</time>
      </trkpt>
      <trkpt lat="43.73819" lon="6.6813">
        <ele>1206.8</ele>
        <time>2024-05-26T13:19:49Z</time>
      </trkpt>
      <trkpt lat="43.73819" lon="6.68128">
        <ele>1206.8</ele>
        <time>2024-05-26T13:19:50Z</time>
      </trkpt>
      <trkpt lat="43.73818" lon="6.68127">
        <ele>1206.8</ele>
        <time>2024-05-26T13:19:51Z</time>
      </trkpt>
      <trkpt lat="43.73818" lon="6.68126">
        <ele>1206.7</ele>
        <time>2024-05-26T13:19:52Z</time>
      </trkpt>
      <trkpt lat="43.73817" lon="6.68125">
        <ele>1206.7</ele>
        <time>2024-05-26T13:19:53Z</time>
      </trkpt>
      <trkpt lat="43.73817" lon="6.68124">
        <ele>1206.7</ele>
        <time>2024-05-26T13:19:54Z</time>
      </trkpt>
      <trkpt lat="43.73817" lon="6.68122">
        <ele>1206.6</ele>
        <time>2024-05-26T13:19:55Z</time>
      </trkpt>
      <trkpt lat="43.73816" lon="6.68122">
        <ele>1206.5</ele>
        <time>2024-05-26T13:19:56Z</time>
      </trkpt>
      <trkpt lat="43.73815" lon="6.68121">
        <ele>1206.4</ele>
        <time>2024-05-26T13:19:57Z</time>
      </trkpt>
      <trkpt lat="43.73814" lon="6.6812">
        <ele>1206.3</ele>
        <time>2024-05-26T13:19:58Z</time>
      </trkpt>
      <trkpt lat="43.73813" lon="6.68119">
        <ele>1206.3</ele>
        <time>2024-05-26T13:19:59Z</time>
      </trkpt>
      <trkpt lat="43.73813" lon="6.68118">
        <ele>1206.2</ele>
        <time>2024-05-26T13:20:00Z</time>
      </trkpt>
      <trkpt lat="43.73812" lon="6.68117">
        <ele>1206.1</ele>
        <time>2024-05-26T13:20:01Z</time>
      </trkpt>
      <trkpt lat="43.73811" lon="6.68116">
        <ele>1206.1</ele>
        <time>2024-05-26T13:20:02Z</time>
      </trkpt>
      <trkpt lat="43.73811" lon="6.68114">
        <ele>1205.9</ele>
        <time>2024-05-26T13:20:03Z</time>
      </trkpt>
      <trkpt lat="43.7381" lon="6.68113">
        <ele>1205.8</ele>
        <time>2024-05-26T13:20:04Z</time>
      </trkpt>
      <trkpt lat="43.73809" lon="6.68112">
        <ele>1205.8</ele>
        <time>2024-05-26T13:20:05Z</time>
      </trkpt>
      <trkpt lat="43.73808" lon="6.68111">
        <ele>1205.8</ele>
        <time>2024-05-26T13:20:06Z</time>
      </trkpt>
      <trkpt lat="43.73807" lon="6.68109">
        <ele>1205.7</ele>
        <time>2024-05-26T13:20:07Z</time>
      </trkpt>
      <trkpt lat="43.73806" lon="6.68109">
        <ele>1205.7</ele>
        <time>2024-05-26T13:20:08Z</time>
      </trkpt>
      <trkpt lat="43.73805" lon="6.68109">
        <ele>1205.7</ele>
        <time>2024-05-26T13:20:09Z</time>
      </trkpt>
      <trkpt lat="43.73805" lon="6.68108">
        <ele>1205.6</ele>
        <time>2024-05-26T13:20:10Z</time>
      </trkpt>
      <trkpt lat="43.73805" lon="6.68107">
        <ele>1205.6</ele>
        <time>2024-05-26T13:20:11Z</time>
      </trkpt>
      <trkpt lat="43.73805" lon="6.68106">
        <ele>1205.6</ele>
        <time>2024-05-26T13:20:12Z</time>
      </trkpt>
      <trkpt lat="43.73804" lon="6.68105">
        <ele>1205.7</ele>
        <time>2024-05-26T13:20:13Z</time>
      </trkpt>
      <trkpt lat="43.73804" lon="6.68103">
        <ele>1205.7</ele>
        <time>2024-05-26T13:20:14Z</time>
      </trkpt>
      <trkpt lat="43.73803" lon="6.68102">
        <ele>1205.7</ele>
        <time>2024-05-26T13:20:15Z</time>
      </trkpt>
      <trkpt lat="43.73802" lon="6.68101">
        <ele>1205.6</ele>
        <time>2024-05-26T13:20:16Z</time>
      </trkpt>
      <trkpt lat="43.73801" lon="6.681">
        <ele>1205.5</ele>
        <time>2024-05-26T13:20:17Z</time>
      </trkpt>
      <trkpt lat="43.738" lon="6.68099">
        <ele>1205.4</ele>
        <time>2024-05-26T13:20:18Z</time>
      </trkpt>
      <trkpt lat="43.738" lon="6.68098">
        <ele>1205.2</ele>
        <time>2024-05-26T13:20:19Z</time>
      </trkpt>
      <trkpt lat="43.73799" lon="6.68096">
        <ele>1205.1</ele>
        <time>2024-05-26T13:20:20Z</time>
      </trkpt>
      <trkpt lat="43.73798" lon="6.68095">
        <ele>1205</ele>
        <time>2024-05-26T13:20:21Z</time>
      </trkpt>
      <trkpt lat="43.73798" lon="6.68094">
        <ele>1204.8</ele>
        <time>2024-05-26T13:20:22Z</time>
      </trkpt>
      <trkpt lat="43.73798" lon="6.68092">
        <ele>1204.7</ele>
        <time>2024-05-26T13:20:23Z</time>
      </trkpt>
      <trkpt lat="43.73797" lon="6.68091">
        <ele>1204.6</ele>
        <time>2024-05-26T13:20:24Z</time>
      </trkpt>
      <trkpt lat="43.73797" lon="6.6809">
        <ele>1204.5</ele>
        <time>2024-05-26T13:20:25Z</time>
      </trkpt>
      <trkpt lat="43.73797" lon="6.68088">
        <ele>1204.5</ele>
        <time>2024-05-26T13:20:26Z</time>
      </trkpt>
      <trkpt lat="43.73796" lon="6.68087">
        <ele>1204.5</ele>
        <time>2024-05-26T13:20:27Z</time>
      </trkpt>
      <trkpt lat="43.73795" lon="6.68085">
        <ele>1204.5</ele>
        <time>2024-05-26T13:20:28Z</time>
      </trkpt>
      <trkpt lat="43.73794" lon="6.68084">
        <ele>1204.5</ele>
        <time>2024-05-26T13:20:29Z</time>
      </trkpt>
      <trkpt lat="43.73794" lon="6.68083">
        <ele>1204.3</ele>
        <time>2024-05-26T13:20:30Z</time>
      </trkpt>
      <trkpt lat="43.73793" lon="6.68082">
        <ele>1204.3</ele>
        <time>2024-05-26T13:20:31Z</time>
      </trkpt>
      <trkpt lat="43.73793" lon="6.68082">
        <ele>1204.2</ele>
        <time>2024-05-26T13:20:32Z</time>
      </trkpt>
      <trkpt lat="43.73793" lon="6.68081">
        <ele>1204.1</ele>
        <time>2024-05-26T13:20:33Z</time>
      </trkpt>
      <trkpt lat="43.73792" lon="6.6808">
        <ele>1204</ele>
        <time>2024-05-26T13:20:34Z</time>
      </trkpt>
      <trkpt lat="43.73792" lon="6.6808">
        <ele>1204</ele>
        <time>2024-05-26T13:20:35Z</time>
      </trkpt>
      <trkpt lat="43.73791" lon="6.68079">
        <ele>1203.9</ele>
        <time>2024-05-26T13:20:36Z</time>
      </trkpt>
      <trkpt lat="43.73791" lon="6.68078">
        <ele>1203.9</ele>
        <time>2024-05-26T13:20:37Z</time>
      </trkpt>
      <trkpt lat="43.73791" lon="6.68077">
        <ele>1203.9</ele>
        <time>2024-05-26T13:20:38Z</time>
      </trkpt>
      <trkpt lat="43.7379" lon="6.68077">
        <ele>1203.8</ele>
        <time>2024-05-26T13:20:39Z</time>
      </trkpt>
      <trkpt lat="43.7379" lon="6.68076">
        <ele>1203.8</ele>
        <time>2024-05-26T13:20:40Z</time>
      </trkpt>
      <trkpt lat="43.73789" lon="6.68075">
        <ele>1203.7</ele>
        <time>2024-05-26T13:20:41Z</time>
      </trkpt>
      <trkpt lat="43.73788" lon="6.68075">
        <ele>1203.8</ele>
        <time>2024-05-26T13:20:42Z</time>
      </trkpt>
      <trkpt lat="43.73787" lon="6.68074">
        <ele>1203.8</ele>
        <time>2024-05-26T13:20:43Z</time>
      </trkpt>
      <trkpt lat="43.73786" lon="6.68073">
        <ele>1203.8</ele>
        <time>2024-05-26T13:20:44Z</time>
      </trkpt>
      <trkpt lat="43.73786" lon="6.68072">
        <ele>1203.8</ele>
        <time>2024-05-26T13:20:45Z</time>
      </trkpt>
      <trkpt lat="43.73786" lon="6.68071">
        <ele>1203.8</ele>
        <time>2024-05-26T13:20:46Z</time>
      </trkpt>
      <trkpt lat="43.73785" lon="6.6807">
        <ele>1203.8</ele>
        <time>2024-05-26T13:20:47Z</time>
      </trkpt>
      <trkpt lat="43.73785" lon="6.68071">
        <ele>1203.9</ele>
        <time>2024-05-26T13:20:48Z</time>
      </trkpt>
      <trkpt lat="43.73785" lon="6.68071">
        <ele>1203.9</ele>
        <time>2024-05-26T13:20:49Z</time>
      </trkpt>
      <trkpt lat="43.73784" lon="6.68072">
        <ele>1203.8</ele>
        <time>2024-05-26T13:20:50Z</time>
      </trkpt>
      <trkpt lat="43.73784" lon="6.68072">
        <ele>1203.8</ele>
        <time>2024-05-26T13:20:51Z</time>
      </trkpt>
      <trkpt lat="43.73784" lon="6.68072">
        <ele>1203.8</ele>
        <time>2024-05-26T13:20:52Z</time>
      </trkpt>
      <trkpt lat="43.73783" lon="6.68073">
        <ele>1203.8</ele>
        <time>2024-05-26T13:20:53Z</time>
      </trkpt>
      <trkpt lat="43.73783" lon="6.68073">
        <ele>1203.8</ele>
        <time>2024-05-26T13:20:54Z</time>
      </trkpt>
      <trkpt lat="43.73783" lon="6.68073">
        <ele>1203.8</ele>
        <time>2024-05-26T13:20:55Z</time>
      </trkpt>
      <trkpt lat="43.73783" lon="6.68073">
        <ele>1203.8</ele>
        <time>2024-05-26T13:20:56Z</time>
      </trkpt>
      <trkpt lat="43.73783" lon="6.68072">
        <ele>1203.8</ele>
        <time>2024-05-26T13:20:57Z</time>
      </trkpt>
      <trkpt lat="43.73783" lon="6.68072">
        <ele>1203.8</ele>
        <time>2024-05-26T13:20:58Z</time>
      </trkpt>
      <trkpt lat="43.73783" lon="6.68072">
        <ele>1203.8</ele>
        <time>2024-05-26T13:20:59Z</time>
      </trkpt>
      <trkpt lat="43.73783" lon="6.68071">
        <ele>1203.8</ele>
        <time>2024-05-26T13:21:00Z</time>
      </trkpt>
      <trkpt lat="43.73783" lon="6.68071">
        <ele>1203.8</ele>
        <time>2024-05-26T13:21:01Z</time>
      </trkpt>
      <trkpt lat="43.73783" lon="6.68071">
        <ele>1203.7</ele>
        <time>2024-05-26T13:21:02Z</time>
      </trkpt>
      <trkpt lat="43.73783" lon="6.6807">
        <ele>1203.7</ele>
        <time>2024-05-26T13:21:03Z</time>
      </trkpt>
      <trkpt lat="43.73783" lon="6.6807">
        <ele>1203.7</ele>
        <time>2024-05-26T13:21:04Z</time>
      </trkpt>
      <trkpt lat="43.73783" lon="6.6807">
        <ele>1203.7</ele>
        <time>2024-05-26T13:21:05Z</time>
      </trkpt>
      <trkpt lat="43.73783" lon="6.6807">
        <ele>1203.7</ele>
        <time>2024-05-26T13:21:06Z</time>
      </trkpt>
      <trkpt lat="43.73783" lon="6.6807">
        <ele>1203.7</ele>
        <time>2024-05-26T13:21:07Z</time>
      </trkpt>
      <trkpt lat="43.73783" lon="6.6807">
        <ele>1203.7</ele>
        <time>2024-05-26T13:21:08Z</time>
      </trkpt>
      <trkpt lat="43.73783" lon="6.6807">
        <ele>1203.7</ele>
        <time>2024-05-26T13:21:09Z</time>
      </trkpt>
      <trkpt lat="43.73784" lon="6.6807">
        <ele>1203.8</ele>
        <time>2024-05-26T13:21:10Z</time>
      </trkpt>
      <trkpt lat="43.73784" lon="6.6807">
        <ele>1203.7</ele>
        <time>2024-05-26T13:21:11Z</time>
      </trkpt>
      <trkpt lat="43.73784" lon="6.6807">
        <ele>1203.8</ele>
        <time>2024-05-26T13:21:12Z</time>
      </trkpt>
      <trkpt lat="43.73784" lon="6.6807">
        <ele>1203.9</ele>
        <time>2024-05-26T13:21:13Z</time>
      </trkpt>
      <trkpt lat="43.73784" lon="6.6807">
        <ele>1203.9</ele>
        <time>2024-05-26T13:21:14Z</time>
      </trkpt>
      <trkpt lat="43.73784" lon="6.6807">
        <ele>1203.9</ele>
        <time>2024-05-26T13:21:15Z</time>
      </trkpt>
      <trkpt lat="43.73784" lon="6.6807">
        <ele>1203.9</ele>
        <time>2024-05-26T13:21:16Z</time>
      </trkpt>
      <trkpt lat="43.73784" lon="6.6807">
        <ele>1203.9</ele>
        <time>2024-05-26T13:21:17Z</time>
      </trkpt>
      <trkpt lat="43.73784" lon="6.6807">
        <ele>1203.9</ele>
        <time>2024-05-26T13:21:18Z</time>
      </trkpt>
      <trkpt lat="43.73784" lon="6.6807">
        <ele>1203.9</ele>
        <time>2024-05-26T13:21:19Z</time>
      </trkpt>
      <trkpt lat="43.73784" lon="6.68069">
        <ele>1203.9</ele>
        <time>2024-05-26T13:21:20Z</time>
      </trkpt>
      <trkpt lat="43.73784" lon="6.68069">
        <ele>1203.9</ele>
        <time>2024-05-26T13:21:21Z</time>
      </trkpt>
      <trkpt lat="43.73784" lon="6.6807">
        <ele>1203.8</ele>
        <time>2024-05-26T13:21:22Z</time>
      </trkpt>
      <trkpt lat="43.73784" lon="6.6807">
        <ele>1203.8</ele>
        <time>2024-05-26T13:21:23Z</time>
      </trkpt>
      <trkpt lat="43.73785" lon="6.6807">
        <ele>1203.9</ele>
        <time>2024-05-26T13:21:24Z</time>
      </trkpt>
      <trkpt lat="43.73785" lon="6.6807">
        <ele>1203.8</ele>
        <time>2024-05-26T13:21:25Z</time>
      </trkpt>
      <trkpt lat="43.73785" lon="6.6807">
        <ele>1203.8</ele>
        <time>2024-05-26T13:21:26Z</time>
      </trkpt>
      <trkpt lat="43.73785" lon="6.68069">
        <ele>1203.7</ele>
        <time>2024-05-26T13:21:27Z</time>
      </trkpt>
      <trkpt lat="43.73785" lon="6.68069">
        <ele>1203.8</ele>
        <time>2024-05-26T13:21:28Z</time>
      </trkpt>
      <trkpt lat="43.73785" lon="6.68069">
        <ele>1203.8</ele>
        <time>2024-05-26T13:21:29Z</time>
      </trkpt>
      <trkpt lat="43.73785" lon="6.68069">
        <ele>1203.8</ele>
        <time>2024-05-26T13:21:30Z</time>
      </trkpt>
      <trkpt lat="43.73785" lon="6.68069">
        <ele>1203.8</ele>
        <time>2024-05-26T13:21:31Z</time>
      </trkpt>
      <trkpt lat="43.73785" lon="6.68069">
        <ele>1203.8</ele>
        <time>2024-05-26T13:21:32Z</time>
      </trkpt>
      <trkpt lat="43.73785" lon="6.68069">
        <ele>1203.8</ele>
        <time>2024-05-26T13:21:33Z</time>
      </trkpt>
      <trkpt lat="43.73785" lon="6.68069">
        <ele>1203.8</ele>
        <time>2024-05-26T13:21:34Z</time>
      </trkpt>
      <trkpt lat="43.73786" lon="6.68068">
        <ele>1203.7</ele>
        <time>2024-05-26T13:21:35Z</time>
      </trkpt>
      <trkpt lat="43.73786" lon="6.68066">
        <ele>1203.6</ele>
        <time>2024-05-26T13:21:36Z</time>
      </trkpt>
      <trkpt lat="43.73785" lon="6.68065">
        <ele>1203.6</ele>
        <time>2024-05-26T13:21:37Z</time>
      </trkpt>
      <trkpt lat="43.73785" lon="6.68064">
        <ele>1203.6</ele>
        <time>2024-05-26T13:21:38Z</time>
      </trkpt>
      <trkpt lat="43.73784" lon="6.68063">
        <ele>1203.5</ele>
        <time>2024-05-26T13:21:39Z</time>
      </trkpt>
      <trkpt lat="43.73784" lon="6.68061">
        <ele>1203.6</ele>
        <time>2024-05-26T13:21:40Z</time>
      </trkpt>
      <trkpt lat="43.73783" lon="6.6806">
        <ele>1203.7</ele>
        <time>2024-05-26T13:21:41Z</time>
      </trkpt>
      <trkpt lat="43.73783" lon="6.68059">
        <ele>1203.7</ele>
        <time>2024-05-26T13:21:42Z</time>
      </trkpt>
      <trkpt lat="43.73782" lon="6.68057">
        <ele>1203.7</ele>
        <time>2024-05-26T13:21:43Z</time>
      </trkpt>
      <trkpt lat="43.73782" lon="6.68056">
        <ele>1203.6</ele>
        <time>2024-05-26T13:21:44Z</time>
      </trkpt>
      <trkpt lat="43.73781" lon="6.68055">
        <ele>1203.7</ele>
        <time>2024-05-26T13:21:45Z</time>
      </trkpt>
      <trkpt lat="43.73781" lon="6.68054">
        <ele>1203.7</ele>
        <time>2024-05-26T13:21:46Z</time>
      </trkpt>
      <trkpt lat="43.7378" lon="6.68053">
        <ele>1203.8</ele>
        <time>2024-05-26T13:21:47Z</time>
      </trkpt>
      <trkpt lat="43.7378" lon="6.68052">
        <ele>1203.8</ele>
        <time>2024-05-26T13:21:48Z</time>
      </trkpt>
      <trkpt lat="43.73779" lon="6.68051">
        <ele>1203.8</ele>
        <time>2024-05-26T13:21:49Z</time>
      </trkpt>
      <trkpt lat="43.73778" lon="6.68049">
        <ele>1203.8</ele>
        <time>2024-05-26T13:21:50Z</time>
      </trkpt>
      <trkpt lat="43.73778" lon="6.68048">
        <ele>1203.9</ele>
        <time>2024-05-26T13:21:51Z</time>
      </trkpt>
      <trkpt lat="43.73777" lon="6.68047">
        <ele>1203.9</ele>
        <time>2024-05-26T13:21:52Z</time>
      </trkpt>
      <trkpt lat="43.73777" lon="6.68046">
        <ele>1204</ele>
        <time>2024-05-26T13:21:53Z</time>
      </trkpt>
      <trkpt lat="43.73777" lon="6.68044">
        <ele>1204</ele>
        <time>2024-05-26T13:21:54Z</time>
      </trkpt>
      <trkpt lat="43.73776" lon="6.68043">
        <ele>1203.9</ele>
        <time>2024-05-26T13:21:55Z</time>
      </trkpt>
      <trkpt lat="43.73776" lon="6.68042">
        <ele>1203.9</ele>
        <time>2024-05-26T13:21:56Z</time>
      </trkpt>
      <trkpt lat="43.73775" lon="6.68041">
        <ele>1203.9</ele>
        <time>2024-05-26T13:21:57Z</time>
      </trkpt>
      <trkpt lat="43.73775" lon="6.6804">
        <ele>1203.9</ele>
        <time>2024-05-26T13:21:58Z</time>
      </trkpt>
      <trkpt lat="43.73775" lon="6.68039">
        <ele>1203.9</ele>
        <time>2024-05-26T13:21:59Z</time>
      </trkpt>
      <trkpt lat="43.73775" lon="6.68038">
        <ele>1204</ele>
        <time>2024-05-26T13:22:00Z</time>
      </trkpt>
      <trkpt lat="43.73774" lon="6.68036">
        <ele>1204</ele>
        <time>2024-05-26T13:22:01Z</time>
      </trkpt>
      <trkpt lat="43.73774" lon="6.68035">
        <ele>1204.1</ele>
        <time>2024-05-26T13:22:02Z</time>
      </trkpt>
      <trkpt lat="43.73773" lon="6.68034">
        <ele>1204.2</ele>
        <time>2024-05-26T13:22:03Z</time>
      </trkpt>
      <trkpt lat="43.73773" lon="6.68032">
        <ele>1204.3</ele>
        <time>2024-05-26T13:22:04Z</time>
      </trkpt>
      <trkpt lat="43.73772" lon="6.68031">
        <ele>1204.4</ele>
        <time>2024-05-26T13:22:05Z</time>
      </trkpt>
      <trkpt lat="43.73772" lon="6.6803">
        <ele>1204.5</ele>
        <time>2024-05-26T13:22:06Z</time>
      </trkpt>
      <trkpt lat="43.73772" lon="6.68029">
        <ele>1204.5</ele>
        <time>2024-05-26T13:22:07Z</time>
      </trkpt>
      <trkpt lat="43.73772" lon="6.68027">
        <ele>1204.5</ele>
        <time>2024-05-26T13:22:08Z</time>
      </trkpt>
      <trkpt lat="43.73772" lon="6.68026">
        <ele>1204.5</ele>
        <time>2024-05-26T13:22:09Z</time>
      </trkpt>
      <trkpt lat="43.73772" lon="6.68025">
        <ele>1204.5</ele>
        <time>2024-05-26T13:22:10Z</time>
      </trkpt>
      <trkpt lat="43.73772" lon="6.68024">
        <ele>1204.5</ele>
        <time>2024-05-26T13:22:11Z</time>
      </trkpt>
      <trkpt lat="43.73771" lon="6.68023">
        <ele>1204.5</ele>
        <time>2024-05-26T13:22:12Z</time>
      </trkpt>
      <trkpt lat="43.73771" lon="6.68022">
        <ele>1204.6</ele>
        <time>2024-05-26T13:22:13Z</time>
      </trkpt>
      <trkpt lat="43.73771" lon="6.68021">
        <ele>1204.6</ele>
        <time>2024-05-26T13:22:14Z</time>
      </trkpt>
      <trkpt lat="43.7377" lon="6.6802">
        <ele>1204.6</ele>
        <time>2024-05-26T13:22:15Z</time>
      </trkpt>
      <trkpt lat="43.73769" lon="6.68019">
        <ele>1204.6</ele>
        <time>2024-05-26T13:22:16Z</time>
      </trkpt>
      <trkpt lat="43.73768" lon="6.68018">
        <ele>1204.7</ele>
        <time>2024-05-26T13:22:17Z</time>
      </trkpt>
      <trkpt lat="43.73768" lon="6.68017">
        <ele>1204.8</ele>
        <time>2024-05-26T13:22:18Z</time>
      </trkpt>
      <trkpt lat="43.73768" lon="6.68015">
        <ele>1204.9</ele>
        <time>2024-05-26T13:22:19Z</time>
      </trkpt>
      <trkpt lat="43.73768" lon="6.68014">
        <ele>1205</ele>
        <time>2024-05-26T13:22:20Z</time>
      </trkpt>
      <trkpt lat="43.73767" lon="6.68012">
        <ele>1205.1</ele>
        <time>2024-05-26T13:22:21Z</time>
      </trkpt>
      <trkpt lat="43.73767" lon="6.6801">
        <ele>1205.2</ele>
        <time>2024-05-26T13:22:22Z</time>
      </trkpt>
      <trkpt lat="43.73767" lon="6.68009">
        <ele>1205.2</ele>
        <time>2024-05-26T13:22:23Z</time>
      </trkpt>
      <trkpt lat="43.73766" lon="6.68008">
        <ele>1205.2</ele>
        <time>2024-05-26T13:22:24Z</time>
      </trkpt>
      <trkpt lat="43.73766" lon="6.68006">
        <ele>1205.2</ele>
        <time>2024-05-26T13:22:25Z</time>
      </trkpt>
      <trkpt lat="43.73765" lon="6.68005">
        <ele>1205.2</ele>
        <time>2024-05-26T13:22:26Z</time>
      </trkpt>
      <trkpt lat="43.73765" lon="6.68003">
        <ele>1205.2</ele>
        <time>2024-05-26T13:22:27Z</time>
      </trkpt>
      <trkpt lat="43.73765" lon="6.68002">
        <ele>1205.2</ele>
        <time>2024-05-26T13:22:28Z</time>
      </trkpt>
      <trkpt lat="43.73764" lon="6.68">
        <ele>1205.3</ele>
        <time>2024-05-26T13:22:29Z</time>
      </trkpt>
      <trkpt lat="43.73764" lon="6.67999">
        <ele>1205.3</ele>
        <time>2024-05-26T13:22:30Z</time>
      </trkpt>
      <trkpt lat="43.73764" lon="6.67998">
        <ele>1205.3</ele>
        <time>2024-05-26T13:22:31Z</time>
      </trkpt>
      <trkpt lat="43.73763" lon="6.67996">
        <ele>1205.2</ele>
        <time>2024-05-26T13:22:32Z</time>
      </trkpt>
      <trkpt lat="43.73762" lon="6.67996">
        <ele>1205.2</ele>
        <time>2024-05-26T13:22:33Z</time>
      </trkpt>
      <trkpt lat="43.73762" lon="6.67995">
        <ele>1205.2</ele>
        <time>2024-05-26T13:22:34Z</time>
      </trkpt>
      <trkpt lat="43.73761" lon="6.67994">
        <ele>1205.2</ele>
        <time>2024-05-26T13:22:35Z</time>
      </trkpt>
      <trkpt lat="43.73761" lon="6.67992">
        <ele>1205.3</ele>
        <time>2024-05-26T13:22:36Z</time>
      </trkpt>
      <trkpt lat="43.73761" lon="6.67991">
        <ele>1205.3</ele>
        <time>2024-05-26T13:22:37Z</time>
      </trkpt>
      <trkpt lat="43.7376" lon="6.6799">
        <ele>1205.3</ele>
        <time>2024-05-26T13:22:38Z</time>
      </trkpt>
      <trkpt lat="43.7376" lon="6.67988">
        <ele>1205.3</ele>
        <time>2024-05-26T13:22:39Z</time>
      </trkpt>
      <trkpt lat="43.73759" lon="6.67987">
        <ele>1205.1</ele>
        <time>2024-05-26T13:22:40Z</time>
      </trkpt>
      <trkpt lat="43.73759" lon="6.67986">
        <ele>1205.2</ele>
        <time>2024-05-26T13:22:41Z</time>
      </trkpt>
      <trkpt lat="43.73758" lon="6.67986">
        <ele>1205.2</ele>
        <time>2024-05-26T13:22:42Z</time>
      </trkpt>
      <trkpt lat="43.73756" lon="6.67985">
        <ele>1205.2</ele>
        <time>2024-05-26T13:22:43Z</time>
      </trkpt>
      <trkpt lat="43.73755" lon="6.67985">
        <ele>1205</ele>
        <time>2024-05-26T13:22:44Z</time>
      </trkpt>
      <trkpt lat="43.73754" lon="6.67984">
        <ele>1204.9</ele>
        <time>2024-05-26T13:22:45Z</time>
      </trkpt>
      <trkpt lat="43.73754" lon="6.67983">
        <ele>1204.9</ele>
        <time>2024-05-26T13:22:46Z</time>
      </trkpt>
      <trkpt lat="43.73753" lon="6.67983">
        <ele>1204.8</ele>
        <time>2024-05-26T13:22:47Z</time>
      </trkpt>
      <trkpt lat="43.73752" lon="6.67981">
        <ele>1204.8</ele>
        <time>2024-05-26T13:22:48Z</time>
      </trkpt>
      <trkpt lat="43.73752" lon="6.6798">
        <ele>1204.8</ele>
        <time>2024-05-26T13:22:49Z</time>
      </trkpt>
      <trkpt lat="43.73751" lon="6.67979">
        <ele>1204.8</ele>
        <time>2024-05-26T13:22:50Z</time>
      </trkpt>
      <trkpt lat="43.73751" lon="6.67978">
        <ele>1204.8</ele>
        <time>2024-05-26T13:22:51Z</time>
      </trkpt>
      <trkpt lat="43.7375" lon="6.67977">
        <ele>1204.8</ele>
        <time>2024-05-26T13:22:52Z</time>
      </trkpt>
      <trkpt lat="43.73751" lon="6.67977">
        <ele>1205</ele>
        <time>2024-05-26T13:22:53Z</time>
      </trkpt>
      <trkpt lat="43.7375" lon="6.67975">
        <ele>1204.9</ele>
        <time>2024-05-26T13:22:54Z</time>
      </trkpt>
      <trkpt lat="43.7375" lon="6.67975">
        <ele>1204.9</ele>
        <time>2024-05-26T13:22:55Z</time>
      </trkpt>
      <trkpt lat="43.73749" lon="6.67974">
        <ele>1204.9</ele>
        <time>2024-05-26T13:22:56Z</time>
      </trkpt>
      <trkpt lat="43.73749" lon="6.67973">
        <ele>1204.9</ele>
        <time>2024-05-26T13:22:57Z</time>
      </trkpt>
      <trkpt lat="43.73749" lon="6.67972">
        <ele>1204.9</ele>
        <time>2024-05-26T13:22:58Z</time>
      </trkpt>
      <trkpt lat="43.73749" lon="6.6797">
        <ele>1204.9</ele>
        <time>2024-05-26T13:22:59Z</time>
      </trkpt>
      <trkpt lat="43.73749" lon="6.67969">
        <ele>1204.9</ele>
        <time>2024-05-26T13:23:00Z</time>
      </trkpt>
      <trkpt lat="43.73748" lon="6.67969">
        <ele>1204.8</ele>
        <time>2024-05-26T13:23:01Z</time>
      </trkpt>
      <trkpt lat="43.73748" lon="6.67968">
        <ele>1204.9</ele>
        <time>2024-05-26T13:23:02Z</time>
      </trkpt>
      <trkpt lat="43.73748" lon="6.67967">
        <ele>1205</ele>
        <time>2024-05-26T13:23:03Z</time>
      </trkpt>
      <trkpt lat="43.73747" lon="6.67966">
        <ele>1205.1</ele>
        <time>2024-05-26T13:23:04Z</time>
      </trkpt>
      <trkpt lat="43.73747" lon="6.67965">
        <ele>1205.2</ele>
        <time>2024-05-26T13:23:05Z</time>
      </trkpt>
      <trkpt lat="43.73747" lon="6.67965">
        <ele>1205.2</ele>
        <time>2024-05-26T13:23:06Z</time>
      </trkpt>
      <trkpt lat="43.73747" lon="6.67964">
        <ele>1205.3</ele>
        <time>2024-05-26T13:23:07Z</time>
      </trkpt>
      <trkpt lat="43.73747" lon="6.67964">
        <ele>1205.3</ele>
        <time>2024-05-26T13:23:08Z</time>
      </trkpt>
      <trkpt lat="43.73747" lon="6.67964">
        <ele>1205.3</ele>
        <time>2024-05-26T13:23:09Z</time>
      </trkpt>
      <trkpt lat="43.73747" lon="6.67964">
        <ele>1205.3</ele>
        <time>2024-05-26T13:23:10Z</time>
      </trkpt>
      <trkpt lat="43.73746" lon="6.67964">
        <ele>1205.3</ele>
        <time>2024-05-26T13:23:11Z</time>
      </trkpt>
      <trkpt lat="43.73746" lon="6.67964">
        <ele>1205.2</ele>
        <time>2024-05-26T13:23:12Z</time>
      </trkpt>
      <trkpt lat="43.73745" lon="6.67963">
        <ele>1205.2</ele>
        <time>2024-05-26T13:23:13Z</time>
      </trkpt>
      <trkpt lat="43.73744" lon="6.67962">
        <ele>1205.1</ele>
        <time>2024-05-26T13:23:14Z</time>
      </trkpt>
      <trkpt lat="43.73744" lon="6.67962">
        <ele>1205</ele>
        <time>2024-05-26T13:23:15Z</time>
      </trkpt>
      <trkpt lat="43.73743" lon="6.67961">
        <ele>1205</ele>
        <time>2024-05-26T13:23:16Z</time>
      </trkpt>
      <trkpt lat="43.73743" lon="6.6796">
        <ele>1204.9</ele>
        <time>2024-05-26T13:23:17Z</time>
      </trkpt>
      <trkpt lat="43.73743" lon="6.6796">
        <ele>1204.8</ele>
        <time>2024-05-26T13:23:18Z</time>
      </trkpt>
      <trkpt lat="43.73743" lon="6.67959">
        <ele>1204.8</ele>
        <time>2024-05-26T13:23:19Z</time>
      </trkpt>
      <trkpt lat="43.73743" lon="6.67958">
        <ele>1204.9</ele>
        <time>2024-05-26T13:23:20Z</time>
      </trkpt>
      <trkpt lat="43.73743" lon="6.67957">
        <ele>1204.9</ele>
        <time>2024-05-26T13:23:21Z</time>
      </trkpt>
      <trkpt lat="43.73742" lon="6.67956">
        <ele>1204.9</ele>
        <time>2024-05-26T13:23:22Z</time>
      </trkpt>
      <trkpt lat="43.73741" lon="6.67954">
        <ele>1204.8</ele>
        <time>2024-05-26T13:23:23Z</time>
      </trkpt>
      <trkpt lat="43.7374" lon="6.67953">
        <ele>1204.9</ele>
        <time>2024-05-26T13:23:24Z</time>
      </trkpt>
      <trkpt lat="43.7374" lon="6.67952">
        <ele>1204.9</ele>
        <time>2024-05-26T13:23:25Z</time>
      </trkpt>
      <trkpt lat="43.7374" lon="6.67949">
        <ele>1204.9</ele>
        <time>2024-05-26T13:23:26Z</time>
      </trkpt>
      <trkpt lat="43.73739" lon="6.67948">
        <ele>1205.1</ele>
        <time>2024-05-26T13:23:27Z</time>
      </trkpt>
      <trkpt lat="43.73739" lon="6.67947">
        <ele>1205.1</ele>
        <time>2024-05-26T13:23:28Z</time>
      </trkpt>
      <trkpt lat="43.73738" lon="6.67946">
        <ele>1205.2</ele>
        <time>2024-05-26T13:23:29Z</time>
      </trkpt>
      <trkpt lat="43.73737" lon="6.67945">
        <ele>1205.3</ele>
        <time>2024-05-26T13:23:30Z</time>
      </trkpt>
      <trkpt lat="43.73736" lon="6.67944">
        <ele>1205.4</ele>
        <time>2024-05-26T13:23:31Z</time>
      </trkpt>
      <trkpt lat="43.73735" lon="6.67942">
        <ele>1205.5</ele>
        <time>2024-05-26T13:23:32Z</time>
      </trkpt>
      <trkpt lat="43.73734" lon="6.67941">
        <ele>1205.5</ele>
        <time>2024-05-26T13:23:33Z</time>
      </trkpt>
      <trkpt lat="43.73734" lon="6.6794">
        <ele>1205.6</ele>
        <time>2024-05-26T13:23:34Z</time>
      </trkpt>
      <trkpt lat="43.73734" lon="6.6794">
        <ele>1205.5</ele>
        <time>2024-05-26T13:23:35Z</time>
      </trkpt>
      <trkpt lat="43.73733" lon="6.67938">
        <ele>1205.5</ele>
        <time>2024-05-26T13:23:36Z</time>
      </trkpt>
      <trkpt lat="43.73732" lon="6.67938">
        <ele>1205.5</ele>
        <time>2024-05-26T13:23:37Z</time>
      </trkpt>
      <trkpt lat="43.73731" lon="6.67937">
        <ele>1205.6</ele>
        <time>2024-05-26T13:23:38Z</time>
      </trkpt>
      <trkpt lat="43.73731" lon="6.67937">
        <ele>1205.6</ele>
        <time>2024-05-26T13:23:39Z</time>
      </trkpt>
      <trkpt lat="43.73729" lon="6.67936">
        <ele>1205.7</ele>
        <time>2024-05-26T13:23:40Z</time>
      </trkpt>
      <trkpt lat="43.73727" lon="6.67935">
        <ele>1205.7</ele>
        <time>2024-05-26T13:23:41Z</time>
      </trkpt>
      <trkpt lat="43.73726" lon="6.67936">
        <ele>1205.8</ele>
        <time>2024-05-26T13:23:42Z</time>
      </trkpt>
      <trkpt lat="43.73725" lon="6.67936">
        <ele>1205.8</ele>
        <time>2024-05-26T13:23:43Z</time>
      </trkpt>
      <trkpt lat="43.73724" lon="6.67936">
        <ele>1205.7</ele>
        <time>2024-05-26T13:23:44Z</time>
      </trkpt>
      <trkpt lat="43.73723" lon="6.67936">
        <ele>1205.7</ele>
        <time>2024-05-26T13:23:45Z</time>
      </trkpt>
      <trkpt lat="43.73722" lon="6.67936">
        <ele>1205.6</ele>
        <time>2024-05-26T13:23:46Z</time>
      </trkpt>
      <trkpt lat="43.73722" lon="6.67936">
        <ele>1205.6</ele>
        <time>2024-05-26T13:23:47Z</time>
      </trkpt>
      <trkpt lat="43.73721" lon="6.67936">
        <ele>1205.6</ele>
        <time>2024-05-26T13:23:48Z</time>
      </trkpt>
      <trkpt lat="43.73721" lon="6.67936">
        <ele>1205.5</ele>
        <time>2024-05-26T13:23:49Z</time>
      </trkpt>
      <trkpt lat="43.73721" lon="6.67937">
        <ele>1205.5</ele>
        <time>2024-05-26T13:23:50Z</time>
      </trkpt>
      <trkpt lat="43.73721" lon="6.67937">
        <ele>1205.5</ele>
        <time>2024-05-26T13:23:51Z</time>
      </trkpt>
      <trkpt lat="43.7372" lon="6.67936">
        <ele>1205.5</ele>
        <time>2024-05-26T13:23:52Z</time>
      </trkpt>
      <trkpt lat="43.7372" lon="6.67936">
        <ele>1205.4</ele>
        <time>2024-05-26T13:23:53Z</time>
      </trkpt>
      <trkpt lat="43.7372" lon="6.67936">
        <ele>1205.4</ele>
        <time>2024-05-26T13:23:54Z</time>
      </trkpt>
      <trkpt lat="43.7372" lon="6.67936">
        <ele>1205.4</ele>
        <time>2024-05-26T13:23:55Z</time>
      </trkpt>
      <trkpt lat="43.73719" lon="6.67936">
        <ele>1205.4</ele>
        <time>2024-05-26T13:23:56Z</time>
      </trkpt>
      <trkpt lat="43.73719" lon="6.67935">
        <ele>1205.4</ele>
        <time>2024-05-26T13:23:57Z</time>
      </trkpt>
      <trkpt lat="43.73719" lon="6.67935">
        <ele>1205.4</ele>
        <time>2024-05-26T13:23:58Z</time>
      </trkpt>
      <trkpt lat="43.73719" lon="6.67935">
        <ele>1205.3</ele>
        <time>2024-05-26T13:23:59Z</time>
      </trkpt>
      <trkpt lat="43.73718" lon="6.67935">
        <ele>1205.3</ele>
        <time>2024-05-26T13:24:00Z</time>
      </trkpt>
      <trkpt lat="43.73718" lon="6.67935">
        <ele>1205.2</ele>
        <time>2024-05-26T13:24:01Z</time>
      </trkpt>
      <trkpt lat="43.73718" lon="6.67934">
        <ele>1205.2</ele>
        <time>2024-05-26T13:24:02Z</time>
      </trkpt>
      <trkpt lat="43.73718" lon="6.67935">
        <ele>1205.2</ele>
        <time>2024-05-26T13:24:03Z</time>
      </trkpt>
      <trkpt lat="43.73717" lon="6.67935">
        <ele>1205.2</ele>
        <time>2024-05-26T13:24:04Z</time>
      </trkpt>
      <trkpt lat="43.73717" lon="6.67935">
        <ele>1205.2</ele>
        <time>2024-05-26T13:24:05Z</time>
      </trkpt>
      <trkpt lat="43.73717" lon="6.67934">
        <ele>1205.2</ele>
        <time>2024-05-26T13:24:06Z</time>
      </trkpt>
      <trkpt lat="43.73717" lon="6.67934">
        <ele>1205.1</ele>
        <time>2024-05-26T13:24:07Z</time>
      </trkpt>
      <trkpt lat="43.73716" lon="6.67934">
        <ele>1205.1</ele>
        <time>2024-05-26T13:24:08Z</time>
      </trkpt>
      <trkpt lat="43.73716" lon="6.67934">
        <ele>1205.1</ele>
        <time>2024-05-26T13:24:09Z</time>
      </trkpt>
      <trkpt lat="43.73716" lon="6.67935">
        <ele>1205.1</ele>
        <time>2024-05-26T13:24:10Z</time>
      </trkpt>
      <trkpt lat="43.73716" lon="6.67935">
        <ele>1205.1</ele>
        <time>2024-05-26T13:24:11Z</time>
      </trkpt>
      <trkpt lat="43.73715" lon="6.67934">
        <ele>1205.1</ele>
        <time>2024-05-26T13:24:12Z</time>
      </trkpt>
      <trkpt lat="43.73715" lon="6.67934">
        <ele>1205.1</ele>
        <time>2024-05-26T13:24:13Z</time>
      </trkpt>
      <trkpt lat="43.73715" lon="6.67934">
        <ele>1205.1</ele>
        <time>2024-05-26T13:24:14Z</time>
      </trkpt>
      <trkpt lat="43.73715" lon="6.67935">
        <ele>1205.1</ele>
        <time>2024-05-26T13:24:15Z</time>
      </trkpt>
      <trkpt lat="43.73715" lon="6.67935">
        <ele>1205</ele>
        <time>2024-05-26T13:24:16Z</time>
      </trkpt>
      <trkpt lat="43.73715" lon="6.67935">
        <ele>1205</ele>
        <time>2024-05-26T13:24:17Z</time>
      </trkpt>
      <trkpt lat="43.73714" lon="6.67935">
        <ele>1205</ele>
        <time>2024-05-26T13:24:18Z</time>
      </trkpt>
      <trkpt lat="43.73714" lon="6.67935">
        <ele>1205</ele>
        <time>2024-05-26T13:24:19Z</time>
      </trkpt>
      <trkpt lat="43.73714" lon="6.67936">
        <ele>1205</ele>
        <time>2024-05-26T13:24:20Z</time>
      </trkpt>
      <trkpt lat="43.73715" lon="6.67937">
        <ele>1205</ele>
        <time>2024-05-26T13:24:21Z</time>
      </trkpt>
      <trkpt lat="43.73714" lon="6.67937">
        <ele>1205.1</ele>
        <time>2024-05-26T13:24:22Z</time>
      </trkpt>
      <trkpt lat="43.73714" lon="6.67936">
        <ele>1205.1</ele>
        <time>2024-05-26T13:24:23Z</time>
      </trkpt>
      <trkpt lat="43.73714" lon="6.67935">
        <ele>1205.2</ele>
        <time>2024-05-26T13:24:24Z</time>
      </trkpt>
      <trkpt lat="43.73714" lon="6.67934">
        <ele>1205.3</ele>
        <time>2024-05-26T13:24:25Z</time>
      </trkpt>
      <trkpt lat="43.73714" lon="6.67934">
        <ele>1205.4</ele>
        <time>2024-05-26T13:24:26Z</time>
      </trkpt>
      <trkpt lat="43.73714" lon="6.67935">
        <ele>1205.4</ele>
        <time>2024-05-26T13:24:27Z</time>
      </trkpt>
      <trkpt lat="43.73714" lon="6.67934">
        <ele>1205.4</ele>
        <time>2024-05-26T13:24:28Z</time>
      </trkpt>
      <trkpt lat="43.73713" lon="6.67933">
        <ele>1205.4</ele>
        <time>2024-05-26T13:24:29Z</time>
      </trkpt>
      <trkpt lat="43.73713" lon="6.67931">
        <ele>1205.4</ele>
        <time>2024-05-26T13:24:30Z</time>
      </trkpt>
      <trkpt lat="43.73713" lon="6.6793">
        <ele>1205.3</ele>
        <time>2024-05-26T13:24:31Z</time>
      </trkpt>
      <trkpt lat="43.73713" lon="6.67928">
        <ele>1205.4</ele>
        <time>2024-05-26T13:24:32Z</time>
      </trkpt>
      <trkpt lat="43.73713" lon="6.67927">
        <ele>1205.4</ele>
        <time>2024-05-26T13:24:33Z</time>
      </trkpt>
      <trkpt lat="43.73712" lon="6.67926">
        <ele>1205.4</ele>
        <time>2024-05-26T13:24:34Z</time>
      </trkpt>
      <trkpt lat="43.73712" lon="6.67925">
        <ele>1205.4</ele>
        <time>2024-05-26T13:24:35Z</time>
      </trkpt>
      <trkpt lat="43.73712" lon="6.67924">
        <ele>1205.3</ele>
        <time>2024-05-26T13:24:36Z</time>
      </trkpt>
      <trkpt lat="43.73711" lon="6.67922">
        <ele>1205.3</ele>
        <time>2024-05-26T13:24:37Z</time>
      </trkpt>
      <trkpt lat="43.7371" lon="6.67921">
        <ele>1205.2</ele>
        <time>2024-05-26T13:24:38Z</time>
      </trkpt>
      <trkpt lat="43.7371" lon="6.67919">
        <ele>1205.2</ele>
        <time>2024-05-26T13:24:39Z</time>
      </trkpt>
      <trkpt lat="43.73709" lon="6.67916">
        <ele>1205.1</ele>
        <time>2024-05-26T13:24:40Z</time>
      </trkpt>
      <trkpt lat="43.73708" lon="6.67914">
        <ele>1205.2</ele>
        <time>2024-05-26T13:24:41Z</time>
      </trkpt>
      <trkpt lat="43.73707" lon="6.67912">
        <ele>1205.2</ele>
        <time>2024-05-26T13:24:42Z</time>
      </trkpt>
      <trkpt lat="43.73706" lon="6.67911">
        <ele>1205.2</ele>
        <time>2024-05-26T13:24:43Z</time>
      </trkpt>
      <trkpt lat="43.73705" lon="6.6791">
        <ele>1205.2</ele>
        <time>2024-05-26T13:24:44Z</time>
      </trkpt>
      <trkpt lat="43.73705" lon="6.6791">
        <ele>1205.2</ele>
        <time>2024-05-26T13:24:45Z</time>
      </trkpt>
      <trkpt lat="43.73705" lon="6.67908">
        <ele>1205.3</ele>
        <time>2024-05-26T13:24:46Z</time>
      </trkpt>
      <trkpt lat="43.73704" lon="6.67908">
        <ele>1205.3</ele>
        <time>2024-05-26T13:24:47Z</time>
      </trkpt>
      <trkpt lat="43.73703" lon="6.67907">
        <ele>1205.3</ele>
        <time>2024-05-26T13:24:48Z</time>
      </trkpt>
      <trkpt lat="43.73703" lon="6.67906">
        <ele>1205.5</ele>
        <time>2024-05-26T13:24:49Z</time>
      </trkpt>
      <trkpt lat="43.73703" lon="6.67905">
        <ele>1205.6</ele>
        <time>2024-05-26T13:24:50Z</time>
      </trkpt>
      <trkpt lat="43.73701" lon="6.67905">
        <ele>1205.8</ele>
        <time>2024-05-26T13:24:51Z</time>
      </trkpt>
      <trkpt lat="43.73701" lon="6.67904">
        <ele>1205.9</ele>
        <time>2024-05-26T13:24:52Z</time>
      </trkpt>
      <trkpt lat="43.737" lon="6.67903">
        <ele>1206</ele>
        <time>2024-05-26T13:24:53Z</time>
      </trkpt>
      <trkpt lat="43.737" lon="6.67902">
        <ele>1206.1</ele>
        <time>2024-05-26T13:24:54Z</time>
      </trkpt>
      <trkpt lat="43.73699" lon="6.67902">
        <ele>1206.3</ele>
        <time>2024-05-26T13:24:55Z</time>
      </trkpt>
      <trkpt lat="43.73698" lon="6.67901">
        <ele>1206.4</ele>
        <time>2024-05-26T13:24:56Z</time>
      </trkpt>
      <trkpt lat="43.73698" lon="6.679">
        <ele>1206.4</ele>
        <time>2024-05-26T13:24:57Z</time>
      </trkpt>
      <trkpt lat="43.73697" lon="6.67898">
        <ele>1206.4</ele>
        <time>2024-05-26T13:24:58Z</time>
      </trkpt>
      <trkpt lat="43.73696" lon="6.67896">
        <ele>1206.5</ele>
        <time>2024-05-26T13:24:59Z</time>
      </trkpt>
      <trkpt lat="43.73695" lon="6.67896">
        <ele>1206.7</ele>
        <time>2024-05-26T13:25:00Z</time>
      </trkpt>
      <trkpt lat="43.73695" lon="6.67894">
        <ele>1206.8</ele>
        <time>2024-05-26T13:25:01Z</time>
      </trkpt>
      <trkpt lat="43.73695" lon="6.67892">
        <ele>1206.9</ele>
        <time>2024-05-26T13:25:02Z</time>
      </trkpt>
      <trkpt lat="43.73695" lon="6.67891">
        <ele>1207</ele>
        <time>2024-05-26T13:25:03Z</time>
      </trkpt>
      <trkpt lat="43.73695" lon="6.6789">
        <ele>1207.1</ele>
        <time>2024-05-26T13:25:04Z</time>
      </trkpt>
      <trkpt lat="43.73694" lon="6.67889">
        <ele>1207.2</ele>
        <time>2024-05-26T13:25:05Z</time>
      </trkpt>
      <trkpt lat="43.73693" lon="6.67887">
        <ele>1207.3</ele>
        <time>2024-05-26T13:25:06Z</time>
      </trkpt>
      <trkpt lat="43.73692" lon="6.67887">
        <ele>1207.4</ele>
        <time>2024-05-26T13:25:07Z</time>
      </trkpt>
      <trkpt lat="43.73692" lon="6.67886">
        <ele>1207.5</ele>
        <time>2024-05-26T13:25:08Z</time>
      </trkpt>
      <trkpt lat="43.73691" lon="6.67885">
        <ele>1207.5</ele>
        <time>2024-05-26T13:25:09Z</time>
      </trkpt>
      <trkpt lat="43.7369" lon="6.67884">
        <ele>1207.6</ele>
        <time>2024-05-26T13:25:10Z</time>
      </trkpt>
      <trkpt lat="43.73689" lon="6.67884">
        <ele>1207.7</ele>
        <time>2024-05-26T13:25:11Z</time>
      </trkpt>
      <trkpt lat="43.73689" lon="6.67882">
        <ele>1207.9</ele>
        <time>2024-05-26T13:25:12Z</time>
      </trkpt>
      <trkpt lat="43.73688" lon="6.67881">
        <ele>1207.9</ele>
        <time>2024-05-26T13:25:13Z</time>
      </trkpt>
      <trkpt lat="43.73687" lon="6.67881">
        <ele>1208.1</ele>
        <time>2024-05-26T13:25:14Z</time>
      </trkpt>
      <trkpt lat="43.73686" lon="6.6788">
        <ele>1208.2</ele>
        <time>2024-05-26T13:25:15Z</time>
      </trkpt>
      <trkpt lat="43.73685" lon="6.67879">
        <ele>1208.2</ele>
        <time>2024-05-26T13:25:16Z</time>
      </trkpt>
      <trkpt lat="43.73684" lon="6.67878">
        <ele>1208.3</ele>
        <time>2024-05-26T13:25:17Z</time>
      </trkpt>
      <trkpt lat="43.73683" lon="6.67877">
        <ele>1208.4</ele>
        <time>2024-05-26T13:25:18Z</time>
      </trkpt>
      <trkpt lat="43.73683" lon="6.67876">
        <ele>1208.5</ele>
        <time>2024-05-26T13:25:19Z</time>
      </trkpt>
      <trkpt lat="43.73682" lon="6.67876">
        <ele>1208.5</ele>
        <time>2024-05-26T13:25:20Z</time>
      </trkpt>
      <trkpt lat="43.73681" lon="6.67876">
        <ele>1208.6</ele>
        <time>2024-05-26T13:25:21Z</time>
      </trkpt>
      <trkpt lat="43.7368" lon="6.67875">
        <ele>1208.7</ele>
        <time>2024-05-26T13:25:22Z</time>
      </trkpt>
      <trkpt lat="43.7368" lon="6.67874">
        <ele>1208.7</ele>
        <time>2024-05-26T13:25:23Z</time>
      </trkpt>
      <trkpt lat="43.73679" lon="6.67872">
        <ele>1208.8</ele>
        <time>2024-05-26T13:25:24Z</time>
      </trkpt>
      <trkpt lat="43.73678" lon="6.6787">
        <ele>1208.9</ele>
        <time>2024-05-26T13:25:25Z</time>
      </trkpt>
      <trkpt lat="43.73678" lon="6.6787">
        <ele>1209</ele>
        <time>2024-05-26T13:25:26Z</time>
      </trkpt>
      <trkpt lat="43.73678" lon="6.67869">
        <ele>1209.1</ele>
        <time>2024-05-26T13:25:27Z</time>
      </trkpt>
      <trkpt lat="43.73678" lon="6.67868">
        <ele>1209.3</ele>
        <time>2024-05-26T13:25:28Z</time>
      </trkpt>
      <trkpt lat="43.73679" lon="6.67868">
        <ele>1209.5</ele>
        <time>2024-05-26T13:25:29Z</time>
      </trkpt>
      <trkpt lat="43.73678" lon="6.67869">
        <ele>1209.8</ele>
        <time>2024-05-26T13:25:30Z</time>
      </trkpt>
      <trkpt lat="43.73679" lon="6.67869">
        <ele>1210</ele>
        <time>2024-05-26T13:25:31Z</time>
      </trkpt>
      <trkpt lat="43.73678" lon="6.67869">
        <ele>1210.3</ele>
        <time>2024-05-26T13:25:32Z</time>
      </trkpt>
      <trkpt lat="43.73679" lon="6.67869">
        <ele>1210.5</ele>
        <time>2024-05-26T13:25:33Z</time>
      </trkpt>
      <trkpt lat="43.73678" lon="6.67868">
        <ele>1210.6</ele>
        <time>2024-05-26T13:25:34Z</time>
      </trkpt>
      <trkpt lat="43.73678" lon="6.67869">
        <ele>1210.7</ele>
        <time>2024-05-26T13:25:35Z</time>
      </trkpt>
      <trkpt lat="43.73679" lon="6.67868">
        <ele>1210.9</ele>
        <time>2024-05-26T13:25:36Z</time>
      </trkpt>
      <trkpt lat="43.73679" lon="6.67866">
        <ele>1211</ele>
        <time>2024-05-26T13:25:37Z</time>
      </trkpt>
      <trkpt lat="43.7368" lon="6.67865">
        <ele>1211.1</ele>
        <time>2024-05-26T13:25:38Z</time>
      </trkpt>
      <trkpt lat="43.7368" lon="6.67864">
        <ele>1211.3</ele>
        <time>2024-05-26T13:25:39Z</time>
      </trkpt>
      <trkpt lat="43.73681" lon="6.67862">
        <ele>1211.4</ele>
        <time>2024-05-26T13:25:40Z</time>
      </trkpt>
      <trkpt lat="43.73681" lon="6.67861">
        <ele>1211.5</ele>
        <time>2024-05-26T13:25:41Z</time>
      </trkpt>
      <trkpt lat="43.73681" lon="6.6786">
        <ele>1211.7</ele>
        <time>2024-05-26T13:25:42Z</time>
      </trkpt>
      <trkpt lat="43.73681" lon="6.67858">
        <ele>1211.8</ele>
        <time>2024-05-26T13:25:43Z</time>
      </trkpt>
      <trkpt lat="43.73682" lon="6.67857">
        <ele>1211.9</ele>
        <time>2024-05-26T13:25:44Z</time>
      </trkpt>
      <trkpt lat="43.73682" lon="6.67856">
        <ele>1212</ele>
        <time>2024-05-26T13:25:45Z</time>
      </trkpt>
      <trkpt lat="43.73682" lon="6.67855">
        <ele>1212.1</ele>
        <time>2024-05-26T13:25:46Z</time>
      </trkpt>
      <trkpt lat="43.73683" lon="6.67854">
        <ele>1212.3</ele>
        <time>2024-05-26T13:25:47Z</time>
      </trkpt>
      <trkpt lat="43.73683" lon="6.67853">
        <ele>1212.5</ele>
        <time>2024-05-26T13:25:48Z</time>
      </trkpt>
      <trkpt lat="43.73684" lon="6.67852">
        <ele>1212.6</ele>
        <time>2024-05-26T13:25:49Z</time>
      </trkpt>
      <trkpt lat="43.73684" lon="6.67851">
        <ele>1212.8</ele>
        <time>2024-05-26T13:25:50Z</time>
      </trkpt>
      <trkpt lat="43.73685" lon="6.67849">
        <ele>1212.9</ele>
        <time>2024-05-26T13:25:51Z</time>
      </trkpt>
      <trkpt lat="43.73685" lon="6.67848">
        <ele>1213.1</ele>
        <time>2024-05-26T13:25:52Z</time>
      </trkpt>
      <trkpt lat="43.73686" lon="6.67848">
        <ele>1213.2</ele>
        <time>2024-05-26T13:25:53Z</time>
      </trkpt>
      <trkpt lat="43.73686" lon="6.67847">
        <ele>1213.4</ele>
        <time>2024-05-26T13:25:54Z</time>
      </trkpt>
      <trkpt lat="43.73686" lon="6.67847">
        <ele>1213.5</ele>
        <time>2024-05-26T13:25:55Z</time>
      </trkpt>
      <trkpt lat="43.73686" lon="6.67846">
        <ele>1213.7</ele>
        <time>2024-05-26T13:25:56Z</time>
      </trkpt>
      <trkpt lat="43.73687" lon="6.67845">
        <ele>1213.9</ele>
        <time>2024-05-26T13:25:57Z</time>
      </trkpt>
      <trkpt lat="43.73688" lon="6.67844">
        <ele>1214</ele>
        <time>2024-05-26T13:25:58Z</time>
      </trkpt>
      <trkpt lat="43.73688" lon="6.67844">
        <ele>1214.1</ele>
        <time>2024-05-26T13:25:59Z</time>
      </trkpt>
      <trkpt lat="43.73689" lon="6.67843">
        <ele>1214.2</ele>
        <time>2024-05-26T13:26:00Z</time>
      </trkpt>
      <trkpt lat="43.73689" lon="6.67842">
        <ele>1214.4</ele>
        <time>2024-05-26T13:26:01Z</time>
      </trkpt>
      <trkpt lat="43.7369" lon="6.67841">
        <ele>1214.6</ele>
        <time>2024-05-26T13:26:02Z</time>
      </trkpt>
      <trkpt lat="43.7369" lon="6.6784">
        <ele>1214.9</ele>
        <time>2024-05-26T13:26:03Z</time>
      </trkpt>
      <trkpt lat="43.7369" lon="6.67839">
        <ele>1215.1</ele>
        <time>2024-05-26T13:26:04Z</time>
      </trkpt>
      <trkpt lat="43.73691" lon="6.67838">
        <ele>1215.3</ele>
        <time>2024-05-26T13:26:05Z</time>
      </trkpt>
      <trkpt lat="43.73692" lon="6.67838">
        <ele>1215.4</ele>
        <time>2024-05-26T13:26:06Z</time>
      </trkpt>
      <trkpt lat="43.73692" lon="6.67838">
        <ele>1215.5</ele>
        <time>2024-05-26T13:26:07Z</time>
      </trkpt>
      <trkpt lat="43.73693" lon="6.67837">
        <ele>1215.6</ele>
        <time>2024-05-26T13:26:08Z</time>
      </trkpt>
      <trkpt lat="43.73694" lon="6.67836">
        <ele>1215.7</ele>
        <time>2024-05-26T13:26:09Z</time>
      </trkpt>
      <trkpt lat="43.73694" lon="6.67835">
        <ele>1215.9</ele>
        <time>2024-05-26T13:26:10Z</time>
      </trkpt>
      <trkpt lat="43.73695" lon="6.67833">
        <ele>1216</ele>
        <time>2024-05-26T13:26:11Z</time>
      </trkpt>
      <trkpt lat="43.73695" lon="6.67832">
        <ele>1216.1</ele>
        <time>2024-05-26T13:26:12Z</time>
      </trkpt>
      <trkpt lat="43.73696" lon="6.67831">
        <ele>1216.2</ele>
        <time>2024-05-26T13:26:13Z</time>
      </trkpt>
      <trkpt lat="43.73696" lon="6.6783">
        <ele>1216.4</ele>
        <time>2024-05-26T13:26:14Z</time>
      </trkpt>
      <trkpt lat="43.73697" lon="6.6783">
        <ele>1216.5</ele>
        <time>2024-05-26T13:26:15Z</time>
      </trkpt>
      <trkpt lat="43.73697" lon="6.67829">
        <ele>1216.8</ele>
        <time>2024-05-26T13:26:16Z</time>
      </trkpt>
      <trkpt lat="43.73698" lon="6.67828">
        <ele>1217.1</ele>
        <time>2024-05-26T13:26:17Z</time>
      </trkpt>
      <trkpt lat="43.73699" lon="6.67827">
        <ele>1217.3</ele>
        <time>2024-05-26T13:26:18Z</time>
      </trkpt>
      <trkpt lat="43.737" lon="6.67827">
        <ele>1217.5</ele>
        <time>2024-05-26T13:26:19Z</time>
      </trkpt>
      <trkpt lat="43.73701" lon="6.67826">
        <ele>1217.8</ele>
        <time>2024-05-26T13:26:20Z</time>
      </trkpt>
      <trkpt lat="43.73701" lon="6.67826">
        <ele>1218</ele>
        <time>2024-05-26T13:26:21Z</time>
      </trkpt>
      <trkpt lat="43.73702" lon="6.67825">
        <ele>1218.2</ele>
        <time>2024-05-26T13:26:22Z</time>
      </trkpt>
      <trkpt lat="43.73703" lon="6.67825">
        <ele>1218.4</ele>
        <time>2024-05-26T13:26:23Z</time>
      </trkpt>
      <trkpt lat="43.73705" lon="6.67824">
        <ele>1218.5</ele>
        <time>2024-05-26T13:26:24Z</time>
      </trkpt>
      <trkpt lat="43.73706" lon="6.67823">
        <ele>1218.7</ele>
        <time>2024-05-26T13:26:25Z</time>
      </trkpt>
      <trkpt lat="43.73706" lon="6.67822">
        <ele>1218.9</ele>
        <time>2024-05-26T13:26:26Z</time>
      </trkpt>
      <trkpt lat="43.73708" lon="6.67823">
        <ele>1219.1</ele>
        <time>2024-05-26T13:26:27Z</time>
      </trkpt>
      <trkpt lat="43.73709" lon="6.67823">
        <ele>1219.3</ele>
        <time>2024-05-26T13:26:28Z</time>
      </trkpt>
      <trkpt lat="43.7371" lon="6.67822">
        <ele>1219.4</ele>
        <time>2024-05-26T13:26:29Z</time>
      </trkpt>
      <trkpt lat="43.73711" lon="6.67822">
        <ele>1219.6</ele>
        <time>2024-05-26T13:26:30Z</time>
      </trkpt>
      <trkpt lat="43.73712" lon="6.67822">
        <ele>1219.8</ele>
        <time>2024-05-26T13:26:31Z</time>
      </trkpt>
      <trkpt lat="43.73712" lon="6.67822">
        <ele>1219.9</ele>
        <time>2024-05-26T13:26:32Z</time>
      </trkpt>
      <trkpt lat="43.73713" lon="6.67821">
        <ele>1220</ele>
        <time>2024-05-26T13:26:33Z</time>
      </trkpt>
      <trkpt lat="43.73713" lon="6.6782">
        <ele>1220.1</ele>
        <time>2024-05-26T13:26:34Z</time>
      </trkpt>
      <trkpt lat="43.73714" lon="6.67819">
        <ele>1220.2</ele>
        <time>2024-05-26T13:26:35Z</time>
      </trkpt>
      <trkpt lat="43.73715" lon="6.67817">
        <ele>1220.4</ele>
        <time>2024-05-26T13:26:36Z</time>
      </trkpt>
      <trkpt lat="43.73716" lon="6.67816">
        <ele>1220.5</ele>
        <time>2024-05-26T13:26:37Z</time>
      </trkpt>
      <trkpt lat="43.73717" lon="6.67816">
        <ele>1220.6</ele>
        <time>2024-05-26T13:26:38Z</time>
      </trkpt>
      <trkpt lat="43.73717" lon="6.67815">
        <ele>1220.8</ele>
        <time>2024-05-26T13:26:39Z</time>
      </trkpt>
      <trkpt lat="43.73717" lon="6.67814">
        <ele>1221</ele>
        <time>2024-05-26T13:26:40Z</time>
      </trkpt>
      <trkpt lat="43.73717" lon="6.67813">
        <ele>1221.2</ele>
        <time>2024-05-26T13:26:41Z</time>
      </trkpt>
      <trkpt lat="43.73718" lon="6.67812">
        <ele>1221.4</ele>
        <time>2024-05-26T13:26:42Z</time>
      </trkpt>
      <trkpt lat="43.73719" lon="6.6781">
        <ele>1221.6</ele>
        <time>2024-05-26T13:26:43Z</time>
      </trkpt>
      <trkpt lat="43.73719" lon="6.67809">
        <ele>1221.7</ele>
        <time>2024-05-26T13:26:44Z</time>
      </trkpt>
      <trkpt lat="43.7372" lon="6.67808">
        <ele>1221.9</ele>
        <time>2024-05-26T13:26:45Z</time>
      </trkpt>
      <trkpt lat="43.73721" lon="6.67807">
        <ele>1222</ele>
        <time>2024-05-26T13:26:46Z</time>
      </trkpt>
      <trkpt lat="43.73721" lon="6.67806">
        <ele>1222.1</ele>
        <time>2024-05-26T13:26:47Z</time>
      </trkpt>
      <trkpt lat="43.73722" lon="6.67805">
        <ele>1222.4</ele>
        <time>2024-05-26T13:26:48Z</time>
      </trkpt>
      <trkpt lat="43.73722" lon="6.67805">
        <ele>1222.5</ele>
        <time>2024-05-26T13:26:49Z</time>
      </trkpt>
      <trkpt lat="43.73723" lon="6.67804">
        <ele>1222.7</ele>
        <time>2024-05-26T13:26:50Z</time>
      </trkpt>
      <trkpt lat="43.73723" lon="6.67803">
        <ele>1222.9</ele>
        <time>2024-05-26T13:26:51Z</time>
      </trkpt>
      <trkpt lat="43.73724" lon="6.67803">
        <ele>1223</ele>
        <time>2024-05-26T13:26:52Z</time>
      </trkpt>
      <trkpt lat="43.73724" lon="6.67802">
        <ele>1223.2</ele>
        <time>2024-05-26T13:26:53Z</time>
      </trkpt>
      <trkpt lat="43.73725" lon="6.67801">
        <ele>1223.4</ele>
        <time>2024-05-26T13:26:54Z</time>
      </trkpt>
      <trkpt lat="43.73725" lon="6.67799">
        <ele>1223.6</ele>
        <time>2024-05-26T13:26:55Z</time>
      </trkpt>
      <trkpt lat="43.73726" lon="6.67798">
        <ele>1223.8</ele>
        <time>2024-05-26T13:26:56Z</time>
      </trkpt>
      <trkpt lat="43.73727" lon="6.67796">
        <ele>1224</ele>
        <time>2024-05-26T13:26:57Z</time>
      </trkpt>
      <trkpt lat="43.73727" lon="6.67795">
        <ele>1224.3</ele>
        <time>2024-05-26T13:26:58Z</time>
      </trkpt>
      <trkpt lat="43.73728" lon="6.67794">
        <ele>1224.5</ele>
        <time>2024-05-26T13:26:59Z</time>
      </trkpt>
      <trkpt lat="43.73729" lon="6.67793">
        <ele>1224.7</ele>
        <time>2024-05-26T13:27:00Z</time>
      </trkpt>
      <trkpt lat="43.73729" lon="6.67792">
        <ele>1224.8</ele>
        <time>2024-05-26T13:27:01Z</time>
      </trkpt>
      <trkpt lat="43.7373" lon="6.67792">
        <ele>1225.1</ele>
        <time>2024-05-26T13:27:02Z</time>
      </trkpt>
      <trkpt lat="43.73729" lon="6.67791">
        <ele>1225.3</ele>
        <time>2024-05-26T13:27:03Z</time>
      </trkpt>
      <trkpt lat="43.73729" lon="6.6779">
        <ele>1225.4</ele>
        <time>2024-05-26T13:27:04Z</time>
      </trkpt>
      <trkpt lat="43.7373" lon="6.6779">
        <ele>1225.6</ele>
        <time>2024-05-26T13:27:05Z</time>
      </trkpt>
      <trkpt lat="43.7373" lon="6.67789">
        <ele>1225.8</ele>
        <time>2024-05-26T13:27:06Z</time>
      </trkpt>
      <trkpt lat="43.7373" lon="6.67789">
        <ele>1226</ele>
        <time>2024-05-26T13:27:07Z</time>
      </trkpt>
      <trkpt lat="43.7373" lon="6.67789">
        <ele>1226.2</ele>
        <time>2024-05-26T13:27:08Z</time>
      </trkpt>
      <trkpt lat="43.7373" lon="6.6779">
        <ele>1226.4</ele>
        <time>2024-05-26T13:27:09Z</time>
      </trkpt>
      <trkpt lat="43.73731" lon="6.6779">
        <ele>1226.5</ele>
        <time>2024-05-26T13:27:10Z</time>
      </trkpt>
      <trkpt lat="43.73732" lon="6.6779">
        <ele>1226.7</ele>
        <time>2024-05-26T13:27:11Z</time>
      </trkpt>
      <trkpt lat="43.73732" lon="6.67789">
        <ele>1226.9</ele>
        <time>2024-05-26T13:27:12Z</time>
      </trkpt>
      <trkpt lat="43.73733" lon="6.67789">
        <ele>1227</ele>
        <time>2024-05-26T13:27:13Z</time>
      </trkpt>
      <trkpt lat="43.73734" lon="6.67788">
        <ele>1227.2</ele>
        <time>2024-05-26T13:27:14Z</time>
      </trkpt>
      <trkpt lat="43.73734" lon="6.67788">
        <ele>1227.4</ele>
        <time>2024-05-26T13:27:15Z</time>
      </trkpt>
      <trkpt lat="43.73735" lon="6.67786">
        <ele>1227.7</ele>
        <time>2024-05-26T13:27:16Z</time>
      </trkpt>
      <trkpt lat="43.73736" lon="6.67785">
        <ele>1227.8</ele>
        <time>2024-05-26T13:27:17Z</time>
      </trkpt>
      <trkpt lat="43.73736" lon="6.67783">
        <ele>1228</ele>
        <time>2024-05-26T13:27:18Z</time>
      </trkpt>
      <trkpt lat="43.73736" lon="6.67782">
        <ele>1228.1</ele>
        <time>2024-05-26T13:27:19Z</time>
      </trkpt>
      <trkpt lat="43.73737" lon="6.6778">
        <ele>1228.3</ele>
        <time>2024-05-26T13:27:20Z</time>
      </trkpt>
      <trkpt lat="43.73737" lon="6.67779">
        <ele>1228.6</ele>
        <time>2024-05-26T13:27:21Z</time>
      </trkpt>
      <trkpt lat="43.73738" lon="6.67778">
        <ele>1228.8</ele>
        <time>2024-05-26T13:27:22Z</time>
      </trkpt>
      <trkpt lat="43.73739" lon="6.67778">
        <ele>1229</ele>
        <time>2024-05-26T13:27:23Z</time>
      </trkpt>
      <trkpt lat="43.73739" lon="6.67777">
        <ele>1229.1</ele>
        <time>2024-05-26T13:27:24Z</time>
      </trkpt>
      <trkpt lat="43.7374" lon="6.67776">
        <ele>1229.3</ele>
        <time>2024-05-26T13:27:25Z</time>
      </trkpt>
      <trkpt lat="43.7374" lon="6.67775">
        <ele>1229.5</ele>
        <time>2024-05-26T13:27:26Z</time>
      </trkpt>
      <trkpt lat="43.73741" lon="6.67775">
        <ele>1229.6</ele>
        <time>2024-05-26T13:27:27Z</time>
      </trkpt>
      <trkpt lat="43.73741" lon="6.67774">
        <ele>1229.7</ele>
        <time>2024-05-26T13:27:28Z</time>
      </trkpt>
      <trkpt lat="43.73741" lon="6.67774">
        <ele>1229.9</ele>
        <time>2024-05-26T13:27:29Z</time>
      </trkpt>
      <trkpt lat="43.73741" lon="6.67774">
        <ele>1230.1</ele>
        <time>2024-05-26T13:27:30Z</time>
      </trkpt>
      <trkpt lat="43.73742" lon="6.67773">
        <ele>1230.2</ele>
        <time>2024-05-26T13:27:31Z</time>
      </trkpt>
      <trkpt lat="43.73742" lon="6.67773">
        <ele>1230.4</ele>
        <time>2024-05-26T13:27:32Z</time>
      </trkpt>
      <trkpt lat="43.73742" lon="6.67772">
        <ele>1230.5</ele>
        <time>2024-05-26T13:27:33Z</time>
      </trkpt>
      <trkpt lat="43.73743" lon="6.67772">
        <ele>1230.6</ele>
        <time>2024-05-26T13:27:34Z</time>
      </trkpt>
      <trkpt lat="43.73743" lon="6.67771">
        <ele>1230.7</ele>
        <time>2024-05-26T13:27:35Z</time>
      </trkpt>
      <trkpt lat="43.73744" lon="6.67771">
        <ele>1230.9</ele>
        <time>2024-05-26T13:27:36Z</time>
      </trkpt>
      <trkpt lat="43.73744" lon="6.6777">
        <ele>1230.9</ele>
        <time>2024-05-26T13:27:37Z</time>
      </trkpt>
      <trkpt lat="43.73744" lon="6.67769">
        <ele>1231.1</ele>
        <time>2024-05-26T13:27:38Z</time>
      </trkpt>
      <trkpt lat="43.73744" lon="6.67769">
        <ele>1231.2</ele>
        <time>2024-05-26T13:27:39Z</time>
      </trkpt>
      <trkpt lat="43.73744" lon="6.67768">
        <ele>1231.3</ele>
        <time>2024-05-26T13:27:40Z</time>
      </trkpt>
      <trkpt lat="43.73745" lon="6.67768">
        <ele>1231.6</ele>
        <time>2024-05-26T13:27:41Z</time>
      </trkpt>
      <trkpt lat="43.73745" lon="6.67768">
        <ele>1231.8</ele>
        <time>2024-05-26T13:27:42Z</time>
      </trkpt>
      <trkpt lat="43.73746" lon="6.67767">
        <ele>1232</ele>
        <time>2024-05-26T13:27:43Z</time>
      </trkpt>
      <trkpt lat="43.73746" lon="6.67767">
        <ele>1232.1</ele>
        <time>2024-05-26T13:27:44Z</time>
      </trkpt>
      <trkpt lat="43.73746" lon="6.67767">
        <ele>1232.2</ele>
        <time>2024-05-26T13:27:45Z</time>
      </trkpt>
      <trkpt lat="43.73747" lon="6.67766">
        <ele>1232.3</ele>
        <time>2024-05-26T13:27:46Z</time>
      </trkpt>
      <trkpt lat="43.73747" lon="6.67766">
        <ele>1232.4</ele>
        <time>2024-05-26T13:27:47Z</time>
      </trkpt>
      <trkpt lat="43.73747" lon="6.67766">
        <ele>1232.5</ele>
        <time>2024-05-26T13:27:48Z</time>
      </trkpt>
      <trkpt lat="43.73747" lon="6.67765">
        <ele>1232.6</ele>
        <time>2024-05-26T13:27:49Z</time>
      </trkpt>
      <trkpt lat="43.73748" lon="6.67765">
        <ele>1232.7</ele>
        <time>2024-05-26T13:27:50Z</time>
      </trkpt>
      <trkpt lat="43.73748" lon="6.67765">
        <ele>1232.8</ele>
        <time>2024-05-26T13:27:51Z</time>
      </trkpt>
      <trkpt lat="43.73748" lon="6.67765">
        <ele>1232.9</ele>
        <time>2024-05-26T13:27:52Z</time>
      </trkpt>
      <trkpt lat="43.73749" lon="6.67765">
        <ele>1233</ele>
        <time>2024-05-26T13:27:53Z</time>
      </trkpt>
      <trkpt lat="43.73749" lon="6.67765">
        <ele>1233.1</ele>
        <time>2024-05-26T13:27:54Z</time>
      </trkpt>
      <trkpt lat="43.73749" lon="6.67765">
        <ele>1233.2</ele>
        <time>2024-05-26T13:27:55Z</time>
      </trkpt>
      <trkpt lat="43.7375" lon="6.67764">
        <ele>1233.2</ele>
        <time>2024-05-26T13:27:56Z</time>
      </trkpt>
      <trkpt lat="43.73749" lon="6.67764">
        <ele>1233.4</ele>
        <time>2024-05-26T13:27:57Z</time>
      </trkpt>
      <trkpt lat="43.7375" lon="6.67763">
        <ele>1233.5</ele>
        <time>2024-05-26T13:27:58Z</time>
      </trkpt>
      <trkpt lat="43.7375" lon="6.67764">
        <ele>1233.6</ele>
        <time>2024-05-26T13:27:59Z</time>
      </trkpt>
      <trkpt lat="43.7375" lon="6.67763">
        <ele>1233.7</ele>
        <time>2024-05-26T13:28:00Z</time>
      </trkpt>
      <trkpt lat="43.7375" lon="6.67763">
        <ele>1233.8</ele>
        <time>2024-05-26T13:28:01Z</time>
      </trkpt>
      <trkpt lat="43.7375" lon="6.67763">
        <ele>1233.8</ele>
        <time>2024-05-26T13:28:02Z</time>
      </trkpt>
      <trkpt lat="43.73751" lon="6.67763">
        <ele>1234</ele>
        <time>2024-05-26T13:28:03Z</time>
      </trkpt>
      <trkpt lat="43.73751" lon="6.67762">
        <ele>1234.1</ele>
        <time>2024-05-26T13:28:04Z</time>
      </trkpt>
      <trkpt lat="43.73751" lon="6.67762">
        <ele>1234.3</ele>
        <time>2024-05-26T13:28:05Z</time>
      </trkpt>
      <trkpt lat="43.73751" lon="6.67762">
        <ele>1234.5</ele>
        <time>2024-05-26T13:28:06Z</time>
      </trkpt>
      <trkpt lat="43.73752" lon="6.67762">
        <ele>1234.6</ele>
        <time>2024-05-26T13:28:07Z</time>
      </trkpt>
      <trkpt lat="43.73752" lon="6.67762">
        <ele>1234.7</ele>
        <time>2024-05-26T13:28:08Z</time>
      </trkpt>
      <trkpt lat="43.73752" lon="6.67762">
        <ele>1234.9</ele>
        <time>2024-05-26T13:28:09Z</time>
      </trkpt>
      <trkpt lat="43.73753" lon="6.67763">
        <ele>1235.1</ele>
        <time>2024-05-26T13:28:10Z</time>
      </trkpt>
      <trkpt lat="43.73754" lon="6.67763">
        <ele>1235.4</ele>
        <time>2024-05-26T13:28:11Z</time>
      </trkpt>
      <trkpt lat="43.73754" lon="6.67762">
        <ele>1235.6</ele>
        <time>2024-05-26T13:28:12Z</time>
      </trkpt>
      <trkpt lat="43.73755" lon="6.67762">
        <ele>1235.7</ele>
        <time>2024-05-26T13:28:13Z</time>
      </trkpt>
      <trkpt lat="43.73755" lon="6.67762">
        <ele>1235.8</ele>
        <time>2024-05-26T13:28:14Z</time>
      </trkpt>
      <trkpt lat="43.73755" lon="6.67761">
        <ele>1236</ele>
        <time>2024-05-26T13:28:15Z</time>
      </trkpt>
      <trkpt lat="43.73756" lon="6.67761">
        <ele>1236.1</ele>
        <time>2024-05-26T13:28:16Z</time>
      </trkpt>
      <trkpt lat="43.73756" lon="6.67761">
        <ele>1236.1</ele>
        <time>2024-05-26T13:28:17Z</time>
      </trkpt>
      <trkpt lat="43.73756" lon="6.67761">
        <ele>1236.2</ele>
        <time>2024-05-26T13:28:18Z</time>
      </trkpt>
      <trkpt lat="43.73756" lon="6.67761">
        <ele>1236.4</ele>
        <time>2024-05-26T13:28:19Z</time>
      </trkpt>
      <trkpt lat="43.73756" lon="6.67761">
        <ele>1236.5</ele>
        <time>2024-05-26T13:28:20Z</time>
      </trkpt>
      <trkpt lat="43.73757" lon="6.67761">
        <ele>1236.5</ele>
        <time>2024-05-26T13:28:21Z</time>
      </trkpt>
      <trkpt lat="43.73757" lon="6.67761">
        <ele>1236.7</ele>
        <time>2024-05-26T13:28:22Z</time>
      </trkpt>
      <trkpt lat="43.73757" lon="6.67762">
        <ele>1236.8</ele>
        <time>2024-05-26T13:28:23Z</time>
      </trkpt>
      <trkpt lat="43.73757" lon="6.67762">
        <ele>1236.8</ele>
        <time>2024-05-26T13:28:24Z</time>
      </trkpt>
      <trkpt lat="43.73757" lon="6.67763">
        <ele>1236.9</ele>
        <time>2024-05-26T13:28:25Z</time>
      </trkpt>
      <trkpt lat="43.73758" lon="6.67763">
        <ele>1237</ele>
        <time>2024-05-26T13:28:26Z</time>
      </trkpt>
      <trkpt lat="43.73758" lon="6.67763">
        <ele>1237.1</ele>
        <time>2024-05-26T13:28:27Z</time>
      </trkpt>
      <trkpt lat="43.73758" lon="6.67763">
        <ele>1237.1</ele>
        <time>2024-05-26T13:28:28Z</time>
      </trkpt>
      <trkpt lat="43.73759" lon="6.67763">
        <ele>1237.2</ele>
        <time>2024-05-26T13:28:29Z</time>
      </trkpt>
      <trkpt lat="43.73759" lon="6.67763">
        <ele>1237.3</ele>
        <time>2024-05-26T13:28:30Z</time>
      </trkpt>
      <trkpt lat="43.73759" lon="6.67763">
        <ele>1237.4</ele>
        <time>2024-05-26T13:28:31Z</time>
      </trkpt>
      <trkpt lat="43.73759" lon="6.67762">
        <ele>1237.5</ele>
        <time>2024-05-26T13:28:32Z</time>
      </trkpt>
      <trkpt lat="43.73759" lon="6.67763">
        <ele>1237.6</ele>
        <time>2024-05-26T13:28:33Z</time>
      </trkpt>
      <trkpt lat="43.73759" lon="6.67764">
        <ele>1237.7</ele>
        <time>2024-05-26T13:28:34Z</time>
      </trkpt>
      <trkpt lat="43.7376" lon="6.67764">
        <ele>1237.8</ele>
        <time>2024-05-26T13:28:35Z</time>
      </trkpt>
      <trkpt lat="43.7376" lon="6.67764">
        <ele>1237.9</ele>
        <time>2024-05-26T13:28:36Z</time>
      </trkpt>
      <trkpt lat="43.73761" lon="6.67764">
        <ele>1238</ele>
        <time>2024-05-26T13:28:37Z</time>
      </trkpt>
      <trkpt lat="43.73761" lon="6.67765">
        <ele>1238.1</ele>
        <time>2024-05-26T13:28:38Z</time>
      </trkpt>
      <trkpt lat="43.73762" lon="6.67765">
        <ele>1238.3</ele>
        <time>2024-05-26T13:28:39Z</time>
      </trkpt>
      <trkpt lat="43.73763" lon="6.67765">
        <ele>1238.4</ele>
        <time>2024-05-26T13:28:40Z</time>
      </trkpt>
      <trkpt lat="43.73763" lon="6.67766">
        <ele>1238.6</ele>
        <time>2024-05-26T13:28:41Z</time>
      </trkpt>
      <trkpt lat="43.73763" lon="6.67766">
        <ele>1238.7</ele>
        <time>2024-05-26T13:28:42Z</time>
      </trkpt>
      <trkpt lat="43.73763" lon="6.67766">
        <ele>1238.8</ele>
        <time>2024-05-26T13:28:43Z</time>
      </trkpt>
      <trkpt lat="43.73763" lon="6.67766">
        <ele>1238.9</ele>
        <time>2024-05-26T13:28:44Z</time>
      </trkpt>
      <trkpt lat="43.73763" lon="6.67765">
        <ele>1239</ele>
        <time>2024-05-26T13:28:45Z</time>
      </trkpt>
      <trkpt lat="43.73763" lon="6.67765">
        <ele>1239</ele>
        <time>2024-05-26T13:28:46Z</time>
      </trkpt>
      <trkpt lat="43.73764" lon="6.67765">
        <ele>1239.2</ele>
        <time>2024-05-26T13:28:47Z</time>
      </trkpt>
      <trkpt lat="43.73764" lon="6.67765">
        <ele>1239.2</ele>
        <time>2024-05-26T13:28:48Z</time>
      </trkpt>
      <trkpt lat="43.73764" lon="6.67765">
        <ele>1239.3</ele>
        <time>2024-05-26T13:28:49Z</time>
      </trkpt>
      <trkpt lat="43.73764" lon="6.67765">
        <ele>1239.4</ele>
        <time>2024-05-26T13:28:50Z</time>
      </trkpt>
      <trkpt lat="43.73764" lon="6.67765">
        <ele>1239.4</ele>
        <time>2024-05-26T13:28:51Z</time>
      </trkpt>
      <trkpt lat="43.73764" lon="6.67765">
        <ele>1239.3</ele>
        <time>2024-05-26T13:28:52Z</time>
      </trkpt>
      <trkpt lat="43.73765" lon="6.67764">
        <ele>1239.4</ele>
        <time>2024-05-26T13:28:53Z</time>
      </trkpt>
      <trkpt lat="43.73764" lon="6.67765">
        <ele>1239.5</ele>
        <time>2024-05-26T13:28:54Z</time>
      </trkpt>
      <trkpt lat="43.73764" lon="6.67765">
        <ele>1239.6</ele>
        <time>2024-05-26T13:28:55Z</time>
      </trkpt>
      <trkpt lat="43.73764" lon="6.67765">
        <ele>1239.6</ele>
        <time>2024-05-26T13:28:56Z</time>
      </trkpt>
      <trkpt lat="43.73764" lon="6.67765">
        <ele>1239.7</ele>
        <time>2024-05-26T13:28:57Z</time>
      </trkpt>
      <trkpt lat="43.73764" lon="6.67764">
        <ele>1239.8</ele>
        <time>2024-05-26T13:28:58Z</time>
      </trkpt>
      <trkpt lat="43.73764" lon="6.67764">
        <ele>1239.9</ele>
        <time>2024-05-26T13:28:59Z</time>
      </trkpt>
      <trkpt lat="43.73765" lon="6.67764">
        <ele>1239.9</ele>
        <time>2024-05-26T13:29:00Z</time>
      </trkpt>
      <trkpt lat="43.73766" lon="6.67764">
        <ele>1239.9</ele>
        <time>2024-05-26T13:29:01Z</time>
      </trkpt>
      <trkpt lat="43.73766" lon="6.67764">
        <ele>1240</ele>
        <time>2024-05-26T13:29:02Z</time>
      </trkpt>
      <trkpt lat="43.73767" lon="6.67764">
        <ele>1240</ele>
        <time>2024-05-26T13:29:03Z</time>
      </trkpt>
      <trkpt lat="43.73768" lon="6.67764">
        <ele>1240.1</ele>
        <time>2024-05-26T13:29:04Z</time>
      </trkpt>
      <trkpt lat="43.73768" lon="6.67765">
        <ele>1240.1</ele>
        <time>2024-05-26T13:29:05Z</time>
      </trkpt>
      <trkpt lat="43.73769" lon="6.67765">
        <ele>1240.1</ele>
        <time>2024-05-26T13:29:06Z</time>
      </trkpt>
      <trkpt lat="43.73769" lon="6.67765">
        <ele>1240.2</ele>
        <time>2024-05-26T13:29:07Z</time>
      </trkpt>
      <trkpt lat="43.7377" lon="6.67765">
        <ele>1240.2</ele>
        <time>2024-05-26T13:29:08Z</time>
      </trkpt>
      <trkpt lat="43.7377" lon="6.67765">
        <ele>1240.3</ele>
        <time>2024-05-26T13:29:09Z</time>
      </trkpt>
      <trkpt lat="43.73771" lon="6.67765">
        <ele>1240.4</ele>
        <time>2024-05-26T13:29:10Z</time>
      </trkpt>
      <trkpt lat="43.73771" lon="6.67765">
        <ele>1240.5</ele>
        <time>2024-05-26T13:29:11Z</time>
      </trkpt>
      <trkpt lat="43.73771" lon="6.67765">
        <ele>1240.5</ele>
        <time>2024-05-26T13:29:12Z</time>
      </trkpt>
      <trkpt lat="43.73771" lon="6.67764">
        <ele>1240.4</ele>
        <time>2024-05-26T13:29:13Z</time>
      </trkpt>
      <trkpt lat="43.73771" lon="6.67764">
        <ele>1240.4</ele>
        <time>2024-05-26T13:29:14Z</time>
      </trkpt>
      <trkpt lat="43.73771" lon="6.67764">
        <ele>1240.4</ele>
        <time>2024-05-26T13:29:15Z</time>
      </trkpt>
      <trkpt lat="43.73771" lon="6.67765">
        <ele>1240.4</ele>
        <time>2024-05-26T13:29:16Z</time>
      </trkpt>
      <trkpt lat="43.73772" lon="6.67765">
        <ele>1240.4</ele>
        <time>2024-05-26T13:29:17Z</time>
      </trkpt>
      <trkpt lat="43.73772" lon="6.67765">
        <ele>1240.3</ele>
        <time>2024-05-26T13:29:18Z</time>
      </trkpt>
      <trkpt lat="43.73773" lon="6.67766">
        <ele>1240.4</ele>
        <time>2024-05-26T13:29:19Z</time>
      </trkpt>
      <trkpt lat="43.73773" lon="6.67765">
        <ele>1240.5</ele>
        <time>2024-05-26T13:29:20Z</time>
      </trkpt>
      <trkpt lat="43.73773" lon="6.67766">
        <ele>1240.5</ele>
        <time>2024-05-26T13:29:21Z</time>
      </trkpt>
      <trkpt lat="43.73773" lon="6.67766">
        <ele>1240.6</ele>
        <time>2024-05-26T13:29:22Z</time>
      </trkpt>
      <trkpt lat="43.73774" lon="6.67767">
        <ele>1240.7</ele>
        <time>2024-05-26T13:29:23Z</time>
      </trkpt>
      <trkpt lat="43.73774" lon="6.67767">
        <ele>1240.9</ele>
        <time>2024-05-26T13:29:24Z</time>
      </trkpt>
      <trkpt lat="43.73775" lon="6.67768">
        <ele>1241</ele>
        <time>2024-05-26T13:29:25Z</time>
      </trkpt>
      <trkpt lat="43.73775" lon="6.67768">
        <ele>1241.1</ele>
        <time>2024-05-26T13:29:26Z</time>
      </trkpt>
      <trkpt lat="43.73776" lon="6.67768">
        <ele>1241.2</ele>
        <time>2024-05-26T13:29:27Z</time>
      </trkpt>
      <trkpt lat="43.73776" lon="6.67769">
        <ele>1241.4</ele>
        <time>2024-05-26T13:29:28Z</time>
      </trkpt>
      <trkpt lat="43.73776" lon="6.67769">
        <ele>1241.5</ele>
        <time>2024-05-26T13:29:29Z</time>
      </trkpt>
      <trkpt lat="43.73777" lon="6.6777">
        <ele>1241.6</ele>
        <time>2024-05-26T13:29:30Z</time>
      </trkpt>
      <trkpt lat="43.73777" lon="6.6777">
        <ele>1241.8</ele>
        <time>2024-05-26T13:29:31Z</time>
      </trkpt>
      <trkpt lat="43.73777" lon="6.67771">
        <ele>1241.9</ele>
        <time>2024-05-26T13:29:32Z</time>
      </trkpt>
      <trkpt lat="43.73777" lon="6.67772">
        <ele>1242.1</ele>
        <time>2024-05-26T13:29:33Z</time>
      </trkpt>
      <trkpt lat="43.73778" lon="6.67772">
        <ele>1242.2</ele>
        <time>2024-05-26T13:29:34Z</time>
      </trkpt>
      <trkpt lat="43.73778" lon="6.67773">
        <ele>1242.4</ele>
        <time>2024-05-26T13:29:35Z</time>
      </trkpt>
      <trkpt lat="43.73779" lon="6.67774">
        <ele>1242.5</ele>
        <time>2024-05-26T13:29:36Z</time>
      </trkpt>
      <trkpt lat="43.73779" lon="6.67774">
        <ele>1242.7</ele>
        <time>2024-05-26T13:29:37Z</time>
      </trkpt>
      <trkpt lat="43.7378" lon="6.67774">
        <ele>1242.9</ele>
        <time>2024-05-26T13:29:38Z</time>
      </trkpt>
      <trkpt lat="43.73781" lon="6.67774">
        <ele>1242.9</ele>
        <time>2024-05-26T13:29:39Z</time>
      </trkpt>
      <trkpt lat="43.7378" lon="6.67774">
        <ele>1243</ele>
        <time>2024-05-26T13:29:40Z</time>
      </trkpt>
      <trkpt lat="43.73781" lon="6.67775">
        <ele>1243.1</ele>
        <time>2024-05-26T13:29:41Z</time>
      </trkpt>
      <trkpt lat="43.73781" lon="6.67775">
        <ele>1243.1</ele>
        <time>2024-05-26T13:29:42Z</time>
      </trkpt>
      <trkpt lat="43.73781" lon="6.67775">
        <ele>1243.2</ele>
        <time>2024-05-26T13:29:43Z</time>
      </trkpt>
      <trkpt lat="43.73782" lon="6.67775">
        <ele>1243.3</ele>
        <time>2024-05-26T13:29:44Z</time>
      </trkpt>
      <trkpt lat="43.73782" lon="6.67775">
        <ele>1243.4</ele>
        <time>2024-05-26T13:29:45Z</time>
      </trkpt>
      <trkpt lat="43.73783" lon="6.67776">
        <ele>1243.6</ele>
        <time>2024-05-26T13:29:46Z</time>
      </trkpt>
      <trkpt lat="43.73783" lon="6.67776">
        <ele>1243.6</ele>
        <time>2024-05-26T13:29:47Z</time>
      </trkpt>
      <trkpt lat="43.73783" lon="6.67777">
        <ele>1243.7</ele>
        <time>2024-05-26T13:29:48Z</time>
      </trkpt>
      <trkpt lat="43.73783" lon="6.67777">
        <ele>1243.7</ele>
        <time>2024-05-26T13:29:49Z</time>
      </trkpt>
      <trkpt lat="43.73783" lon="6.67777">
        <ele>1243.8</ele>
        <time>2024-05-26T13:29:50Z</time>
      </trkpt>
      <trkpt lat="43.73784" lon="6.67778">
        <ele>1243.8</ele>
        <time>2024-05-26T13:29:51Z</time>
      </trkpt>
      <trkpt lat="43.73784" lon="6.67778">
        <ele>1243.9</ele>
        <time>2024-05-26T13:29:52Z</time>
      </trkpt>
      <trkpt lat="43.73784" lon="6.67778">
        <ele>1243.9</ele>
        <time>2024-05-26T13:29:53Z</time>
      </trkpt>
      <trkpt lat="43.73784" lon="6.67778">
        <ele>1243.8</ele>
        <time>2024-05-26T13:29:54Z</time>
      </trkpt>
      <trkpt lat="43.73784" lon="6.67779">
        <ele>1243.9</ele>
        <time>2024-05-26T13:29:55Z</time>
      </trkpt>
      <trkpt lat="43.73785" lon="6.67779">
        <ele>1243.9</ele>
        <time>2024-05-26T13:29:56Z</time>
      </trkpt>
      <trkpt lat="43.73785" lon="6.6778">
        <ele>1244</ele>
        <time>2024-05-26T13:29:57Z</time>
      </trkpt>
      <trkpt lat="43.73785" lon="6.6778">
        <ele>1244</ele>
        <time>2024-05-26T13:29:58Z</time>
      </trkpt>
      <trkpt lat="43.73786" lon="6.67781">
        <ele>1244.1</ele>
        <time>2024-05-26T13:29:59Z</time>
      </trkpt>
      <trkpt lat="43.73786" lon="6.67782">
        <ele>1244.1</ele>
        <time>2024-05-26T13:30:00Z</time>
      </trkpt>
      <trkpt lat="43.73786" lon="6.67782">
        <ele>1244.2</ele>
        <time>2024-05-26T13:30:01Z</time>
      </trkpt>
      <trkpt lat="43.73787" lon="6.67782">
        <ele>1244.3</ele>
        <time>2024-05-26T13:30:02Z</time>
      </trkpt>
      <trkpt lat="43.73787" lon="6.67783">
        <ele>1244.4</ele>
        <time>2024-05-26T13:30:03Z</time>
      </trkpt>
      <trkpt lat="43.73788" lon="6.67783">
        <ele>1244.4</ele>
        <time>2024-05-26T13:30:04Z</time>
      </trkpt>
      <trkpt lat="43.73788" lon="6.67783">
        <ele>1244.5</ele>
        <time>2024-05-26T13:30:05Z</time>
      </trkpt>
      <trkpt lat="43.73788" lon="6.67782">
        <ele>1244.6</ele>
        <time>2024-05-26T13:30:06Z</time>
      </trkpt>
      <trkpt lat="43.73788" lon="6.67783">
        <ele>1244.6</ele>
        <time>2024-05-26T13:30:07Z</time>
      </trkpt>
      <trkpt lat="43.73788" lon="6.67783">
        <ele>1244.6</ele>
        <time>2024-05-26T13:30:08Z</time>
      </trkpt>
      <trkpt lat="43.73788" lon="6.67783">
        <ele>1244.6</ele>
        <time>2024-05-26T13:30:09Z</time>
      </trkpt>
      <trkpt lat="43.73788" lon="6.67783">
        <ele>1244.7</ele>
        <time>2024-05-26T13:30:10Z</time>
      </trkpt>
      <trkpt lat="43.73788" lon="6.67783">
        <ele>1244.7</ele>
        <time>2024-05-26T13:30:11Z</time>
      </trkpt>
      <trkpt lat="43.73789" lon="6.67783">
        <ele>1244.7</ele>
        <time>2024-05-26T13:30:12Z</time>
      </trkpt>
      <trkpt lat="43.73789" lon="6.67783">
        <ele>1244.6</ele>
        <time>2024-05-26T13:30:13Z</time>
      </trkpt>
      <trkpt lat="43.73789" lon="6.67783">
        <ele>1244.6</ele>
        <time>2024-05-26T13:30:14Z</time>
      </trkpt>
      <trkpt lat="43.73789" lon="6.67783">
        <ele>1244.5</ele>
        <time>2024-05-26T13:30:15Z</time>
      </trkpt>
      <trkpt lat="43.73789" lon="6.67783">
        <ele>1244.5</ele>
        <time>2024-05-26T13:30:16Z</time>
      </trkpt>
      <trkpt lat="43.73789" lon="6.67783">
        <ele>1244.5</ele>
        <time>2024-05-26T13:30:17Z</time>
      </trkpt>
      <trkpt lat="43.73789" lon="6.67783">
        <ele>1244.5</ele>
        <time>2024-05-26T13:30:18Z</time>
      </trkpt>
      <trkpt lat="43.73789" lon="6.67783">
        <ele>1244.6</ele>
        <time>2024-05-26T13:30:19Z</time>
      </trkpt>
      <trkpt lat="43.73789" lon="6.67783">
        <ele>1244.6</ele>
        <time>2024-05-26T13:30:20Z</time>
      </trkpt>
      <trkpt lat="43.73789" lon="6.67784">
        <ele>1244.6</ele>
        <time>2024-05-26T13:30:21Z</time>
      </trkpt>
      <trkpt lat="43.73789" lon="6.67784">
        <ele>1244.7</ele>
        <time>2024-05-26T13:30:22Z</time>
      </trkpt>
      <trkpt lat="43.7379" lon="6.67783">
        <ele>1244.7</ele>
        <time>2024-05-26T13:30:23Z</time>
      </trkpt>
      <trkpt lat="43.7379" lon="6.67784">
        <ele>1244.7</ele>
        <time>2024-05-26T13:30:24Z</time>
      </trkpt>
      <trkpt lat="43.7379" lon="6.67784">
        <ele>1244.8</ele>
        <time>2024-05-26T13:30:25Z</time>
      </trkpt>
      <trkpt lat="43.7379" lon="6.67785">
        <ele>1244.9</ele>
        <time>2024-05-26T13:30:26Z</time>
      </trkpt>
      <trkpt lat="43.7379" lon="6.67786">
        <ele>1245</ele>
        <time>2024-05-26T13:30:27Z</time>
      </trkpt>
      <trkpt lat="43.7379" lon="6.67787">
        <ele>1245.1</ele>
        <time>2024-05-26T13:30:28Z</time>
      </trkpt>
      <trkpt lat="43.73791" lon="6.67787">
        <ele>1245.3</ele>
        <time>2024-05-26T13:30:29Z</time>
      </trkpt>
      <trkpt lat="43.73791" lon="6.67787">
        <ele>1245.4</ele>
        <time>2024-05-26T13:30:30Z</time>
      </trkpt>
      <trkpt lat="43.7379" lon="6.67787">
        <ele>1245.5</ele>
        <time>2024-05-26T13:30:31Z</time>
      </trkpt>
      <trkpt lat="43.7379" lon="6.67787">
        <ele>1245.6</ele>
        <time>2024-05-26T13:30:32Z</time>
      </trkpt>
      <trkpt lat="43.73791" lon="6.67788">
        <ele>1245.7</ele>
        <time>2024-05-26T13:30:33Z</time>
      </trkpt>
      <trkpt lat="43.73791" lon="6.67788">
        <ele>1245.8</ele>
        <time>2024-05-26T13:30:34Z</time>
      </trkpt>
      <trkpt lat="43.73791" lon="6.67788">
        <ele>1246</ele>
        <time>2024-05-26T13:30:35Z</time>
      </trkpt>
      <trkpt lat="43.73792" lon="6.67789">
        <ele>1246</ele>
        <time>2024-05-26T13:30:36Z</time>
      </trkpt>
      <trkpt lat="43.73793" lon="6.67789">
        <ele>1246.1</ele>
        <time>2024-05-26T13:30:37Z</time>
      </trkpt>
      <trkpt lat="43.73793" lon="6.6779">
        <ele>1246.2</ele>
        <time>2024-05-26T13:30:38Z</time>
      </trkpt>
      <trkpt lat="43.73793" lon="6.6779">
        <ele>1246.2</ele>
        <time>2024-05-26T13:30:39Z</time>
      </trkpt>
      <trkpt lat="43.73793" lon="6.67791">
        <ele>1246.4</ele>
        <time>2024-05-26T13:30:40Z</time>
      </trkpt>
      <trkpt lat="43.73793" lon="6.67791">
        <ele>1246.5</ele>
        <time>2024-05-26T13:30:41Z</time>
      </trkpt>
      <trkpt lat="43.73793" lon="6.67791">
        <ele>1246.6</ele>
        <time>2024-05-26T13:30:42Z</time>
      </trkpt>
      <trkpt lat="43.73794" lon="6.67791">
        <ele>1246.6</ele>
        <time>2024-05-26T13:30:43Z</time>
      </trkpt>
      <trkpt lat="43.73794" lon="6.67791">
        <ele>1246.7</ele>
        <time>2024-05-26T13:30:44Z</time>
      </trkpt>
      <trkpt lat="43.73794" lon="6.67792">
        <ele>1246.7</ele>
        <time>2024-05-26T13:30:45Z</time>
      </trkpt>
      <trkpt lat="43.73794" lon="6.67792">
        <ele>1246.8</ele>
        <time>2024-05-26T13:30:46Z</time>
      </trkpt>
      <trkpt lat="43.73795" lon="6.67793">
        <ele>1246.9</ele>
        <time>2024-05-26T13:30:47Z</time>
      </trkpt>
      <trkpt lat="43.73795" lon="6.67793">
        <ele>1246.9</ele>
        <time>2024-05-26T13:30:48Z</time>
      </trkpt>
      <trkpt lat="43.73796" lon="6.67794">
        <ele>1247.1</ele>
        <time>2024-05-26T13:30:49Z</time>
      </trkpt>
      <trkpt lat="43.73797" lon="6.67795">
        <ele>1247.3</ele>
        <time>2024-05-26T13:30:50Z</time>
      </trkpt>
      <trkpt lat="43.73797" lon="6.67796">
        <ele>1247.4</ele>
        <time>2024-05-26T13:30:51Z</time>
      </trkpt>
      <trkpt lat="43.73797" lon="6.67796">
        <ele>1247.5</ele>
        <time>2024-05-26T13:30:52Z</time>
      </trkpt>
      <trkpt lat="43.73797" lon="6.67797">
        <ele>1247.7</ele>
        <time>2024-05-26T13:30:53Z</time>
      </trkpt>
      <trkpt lat="43.73798" lon="6.67798">
        <ele>1247.8</ele>
        <time>2024-05-26T13:30:54Z</time>
      </trkpt>
      <trkpt lat="43.73798" lon="6.67799">
        <ele>1248</ele>
        <time>2024-05-26T13:30:55Z</time>
      </trkpt>
      <trkpt lat="43.73798" lon="6.67799">
        <ele>1248.1</ele>
        <time>2024-05-26T13:30:56Z</time>
      </trkpt>
      <trkpt lat="43.73799" lon="6.67799">
        <ele>1248.3</ele>
        <time>2024-05-26T13:30:57Z</time>
      </trkpt>
      <trkpt lat="43.73799" lon="6.678">
        <ele>1248.4</ele>
        <time>2024-05-26T13:30:58Z</time>
      </trkpt>
      <trkpt lat="43.738" lon="6.678">
        <ele>1248.5</ele>
        <time>2024-05-26T13:30:59Z</time>
      </trkpt>
      <trkpt lat="43.738" lon="6.67801">
        <ele>1248.7</ele>
        <time>2024-05-26T13:31:00Z</time>
      </trkpt>
      <trkpt lat="43.73801" lon="6.67801">
        <ele>1248.9</ele>
        <time>2024-05-26T13:31:01Z</time>
      </trkpt>
      <trkpt lat="43.73801" lon="6.67802">
        <ele>1249.1</ele>
        <time>2024-05-26T13:31:02Z</time>
      </trkpt>
      <trkpt lat="43.73802" lon="6.67803">
        <ele>1249.3</ele>
        <time>2024-05-26T13:31:03Z</time>
      </trkpt>
      <trkpt lat="43.73802" lon="6.67803">
        <ele>1249.4</ele>
        <time>2024-05-26T13:31:04Z</time>
      </trkpt>
      <trkpt lat="43.73803" lon="6.67804">
        <ele>1249.6</ele>
        <time>2024-05-26T13:31:05Z</time>
      </trkpt>
      <trkpt lat="43.73803" lon="6.67805">
        <ele>1249.7</ele>
        <time>2024-05-26T13:31:06Z</time>
      </trkpt>
      <trkpt lat="43.73804" lon="6.67806">
        <ele>1249.8</ele>
        <time>2024-05-26T13:31:07Z</time>
      </trkpt>
      <trkpt lat="43.73804" lon="6.67807">
        <ele>1249.9</ele>
        <time>2024-05-26T13:31:08Z</time>
      </trkpt>
      <trkpt lat="43.73804" lon="6.67807">
        <ele>1249.9</ele>
        <time>2024-05-26T13:31:09Z</time>
      </trkpt>
      <trkpt lat="43.73804" lon="6.67808">
        <ele>1250.1</ele>
        <time>2024-05-26T13:31:10Z</time>
      </trkpt>
      <trkpt lat="43.73805" lon="6.67809">
        <ele>1250.1</ele>
        <time>2024-05-26T13:31:11Z</time>
      </trkpt>
      <trkpt lat="43.73805" lon="6.67809">
        <ele>1250.2</ele>
        <time>2024-05-26T13:31:12Z</time>
      </trkpt>
      <trkpt lat="43.73805" lon="6.67809">
        <ele>1250.3</ele>
        <time>2024-05-26T13:31:13Z</time>
      </trkpt>
      <trkpt lat="43.73806" lon="6.6781">
        <ele>1250.4</ele>
        <time>2024-05-26T13:31:14Z</time>
      </trkpt>
      <trkpt lat="43.73806" lon="6.6781">
        <ele>1250.7</ele>
        <time>2024-05-26T13:31:15Z</time>
      </trkpt>
      <trkpt lat="43.73806" lon="6.6781">
        <ele>1250.8</ele>
        <time>2024-05-26T13:31:16Z</time>
      </trkpt>
      <trkpt lat="43.73806" lon="6.6781">
        <ele>1251</ele>
        <time>2024-05-26T13:31:17Z</time>
      </trkpt>
      <trkpt lat="43.73806" lon="6.6781">
        <ele>1251.2</ele>
        <time>2024-05-26T13:31:18Z</time>
      </trkpt>
      <trkpt lat="43.73806" lon="6.6781">
        <ele>1251.2</ele>
        <time>2024-05-26T13:31:19Z</time>
      </trkpt>
      <trkpt lat="43.73806" lon="6.6781">
        <ele>1251.2</ele>
        <time>2024-05-26T13:31:20Z</time>
      </trkpt>
      <trkpt lat="43.73806" lon="6.6781">
        <ele>1251.3</ele>
        <time>2024-05-26T13:31:21Z</time>
      </trkpt>
      <trkpt lat="43.73806" lon="6.6781">
        <ele>1251.3</ele>
        <time>2024-05-26T13:31:22Z</time>
      </trkpt>
      <trkpt lat="43.73806" lon="6.67811">
        <ele>1251.4</ele>
        <time>2024-05-26T13:31:23Z</time>
      </trkpt>
      <trkpt lat="43.73806" lon="6.67811">
        <ele>1251.3</ele>
        <time>2024-05-26T13:31:24Z</time>
      </trkpt>
      <trkpt lat="43.73806" lon="6.67811">
        <ele>1251.3</ele>
        <time>2024-05-26T13:31:25Z</time>
      </trkpt>
      <trkpt lat="43.73806" lon="6.67811">
        <ele>1251.4</ele>
        <time>2024-05-26T13:31:26Z</time>
      </trkpt>
      <trkpt lat="43.73806" lon="6.67811">
        <ele>1251.4</ele>
        <time>2024-05-26T13:31:27Z</time>
      </trkpt>
      <trkpt lat="43.73806" lon="6.67811">
        <ele>1251.5</ele>
        <time>2024-05-26T13:31:28Z</time>
      </trkpt>
      <trkpt lat="43.73806" lon="6.67811">
        <ele>1251.5</ele>
        <time>2024-05-26T13:31:29Z</time>
      </trkpt>
      <trkpt lat="43.73806" lon="6.67811">
        <ele>1251.5</ele>
        <time>2024-05-26T13:31:30Z</time>
      </trkpt>
      <trkpt lat="43.73806" lon="6.67811">
        <ele>1251.5</ele>
        <time>2024-05-26T13:31:31Z</time>
      </trkpt>
      <trkpt lat="43.73806" lon="6.67811">
        <ele>1251.5</ele>
        <time>2024-05-26T13:31:32Z</time>
      </trkpt>
      <trkpt lat="43.73806" lon="6.67812">
        <ele>1251.5</ele>
        <time>2024-05-26T13:31:33Z</time>
      </trkpt>
      <trkpt lat="43.73806" lon="6.67812">
        <ele>1251.5</ele>
        <time>2024-05-26T13:31:34Z</time>
      </trkpt>
      <trkpt lat="43.73806" lon="6.67812">
        <ele>1251.5</ele>
        <time>2024-05-26T13:31:35Z</time>
      </trkpt>
      <trkpt lat="43.73806" lon="6.67812">
        <ele>1251.5</ele>
        <time>2024-05-26T13:31:36Z</time>
      </trkpt>
      <trkpt lat="43.73806" lon="6.67812">
        <ele>1251.5</ele>
        <time>2024-05-26T13:31:37Z</time>
      </trkpt>
      <trkpt lat="43.73806" lon="6.67812">
        <ele>1251.4</ele>
        <time>2024-05-26T13:31:38Z</time>
      </trkpt>
      <trkpt lat="43.73806" lon="6.67812">
        <ele>1251.4</ele>
        <time>2024-05-26T13:31:39Z</time>
      </trkpt>
      <trkpt lat="43.73806" lon="6.67813">
        <ele>1251.3</ele>
        <time>2024-05-26T13:31:40Z</time>
      </trkpt>
      <trkpt lat="43.73806" lon="6.67813">
        <ele>1251.3</ele>
        <time>2024-05-26T13:31:41Z</time>
      </trkpt>
      <trkpt lat="43.73807" lon="6.67813">
        <ele>1251.4</ele>
        <time>2024-05-26T13:31:42Z</time>
      </trkpt>
      <trkpt lat="43.73807" lon="6.67813">
        <ele>1251.3</ele>
        <time>2024-05-26T13:31:43Z</time>
      </trkpt>
      <trkpt lat="43.73807" lon="6.67813">
        <ele>1251.3</ele>
        <time>2024-05-26T13:31:44Z</time>
      </trkpt>
      <trkpt lat="43.73808" lon="6.67813">
        <ele>1251.2</ele>
        <time>2024-05-26T13:31:45Z</time>
      </trkpt>
      <trkpt lat="43.73808" lon="6.67813">
        <ele>1251.2</ele>
        <time>2024-05-26T13:31:46Z</time>
      </trkpt>
      <trkpt lat="43.73808" lon="6.67813">
        <ele>1251.2</ele>
        <time>2024-05-26T13:31:47Z</time>
      </trkpt>
      <trkpt lat="43.73808" lon="6.67813">
        <ele>1251.2</ele>
        <time>2024-05-26T13:31:48Z</time>
      </trkpt>
      <trkpt lat="43.73809" lon="6.67813">
        <ele>1251.3</ele>
        <time>2024-05-26T13:31:49Z</time>
      </trkpt>
      <trkpt lat="43.73809" lon="6.67814">
        <ele>1251.5</ele>
        <time>2024-05-26T13:31:50Z</time>
      </trkpt>
      <trkpt lat="43.73809" lon="6.67814">
        <ele>1251.6</ele>
        <time>2024-05-26T13:31:51Z</time>
      </trkpt>
      <trkpt lat="43.73809" lon="6.67814">
        <ele>1251.7</ele>
        <time>2024-05-26T13:31:52Z</time>
      </trkpt>
      <trkpt lat="43.73809" lon="6.67814">
        <ele>1251.7</ele>
        <time>2024-05-26T13:31:53Z</time>
      </trkpt>
      <trkpt lat="43.73809" lon="6.67815">
        <ele>1251.7</ele>
        <time>2024-05-26T13:31:54Z</time>
      </trkpt>
      <trkpt lat="43.73809" lon="6.67815">
        <ele>1251.7</ele>
        <time>2024-05-26T13:31:55Z</time>
      </trkpt>
      <trkpt lat="43.7381" lon="6.67815">
        <ele>1251.7</ele>
        <time>2024-05-26T13:31:56Z</time>
      </trkpt>
      <trkpt lat="43.7381" lon="6.67815">
        <ele>1251.7</ele>
        <time>2024-05-26T13:31:57Z</time>
      </trkpt>
      <trkpt lat="43.73811" lon="6.67816">
        <ele>1251.9</ele>
        <time>2024-05-26T13:31:58Z</time>
      </trkpt>
      <trkpt lat="43.73811" lon="6.67816">
        <ele>1252</ele>
        <time>2024-05-26T13:31:59Z</time>
      </trkpt>
      <trkpt lat="43.73811" lon="6.67816">
        <ele>1252.1</ele>
        <time>2024-05-26T13:32:00Z</time>
      </trkpt>
      <trkpt lat="43.73811" lon="6.67816">
        <ele>1252.3</ele>
        <time>2024-05-26T13:32:01Z</time>
      </trkpt>
      <trkpt lat="43.73812" lon="6.67816">
        <ele>1252.4</ele>
        <time>2024-05-26T13:32:02Z</time>
      </trkpt>
      <trkpt lat="43.73812" lon="6.67817">
        <ele>1252.5</ele>
        <time>2024-05-26T13:32:03Z</time>
      </trkpt>
      <trkpt lat="43.73812" lon="6.67817">
        <ele>1252.6</ele>
        <time>2024-05-26T13:32:04Z</time>
      </trkpt>
      <trkpt lat="43.73812" lon="6.67817">
        <ele>1252.7</ele>
        <time>2024-05-26T13:32:05Z</time>
      </trkpt>
      <trkpt lat="43.73812" lon="6.67817">
        <ele>1252.8</ele>
        <time>2024-05-26T13:32:06Z</time>
      </trkpt>
      <trkpt lat="43.73813" lon="6.67817">
        <ele>1252.9</ele>
        <time>2024-05-26T13:32:07Z</time>
      </trkpt>
      <trkpt lat="43.73813" lon="6.67817">
        <ele>1253</ele>
        <time>2024-05-26T13:32:08Z</time>
      </trkpt>
      <trkpt lat="43.73813" lon="6.67817">
        <ele>1253</ele>
        <time>2024-05-26T13:32:09Z</time>
      </trkpt>
      <trkpt lat="43.73813" lon="6.67818">
        <ele>1253.1</ele>
        <time>2024-05-26T13:32:10Z</time>
      </trkpt>
      <trkpt lat="43.73813" lon="6.67818">
        <ele>1253.2</ele>
        <time>2024-05-26T13:32:11Z</time>
      </trkpt>
      <trkpt lat="43.73814" lon="6.67819">
        <ele>1253.2</ele>
        <time>2024-05-26T13:32:12Z</time>
      </trkpt>
      <trkpt lat="43.73814" lon="6.6782">
        <ele>1253.2</ele>
        <time>2024-05-26T13:32:13Z</time>
      </trkpt>
      <trkpt lat="43.73814" lon="6.67821">
        <ele>1253.3</ele>
        <time>2024-05-26T13:32:14Z</time>
      </trkpt>
      <trkpt lat="43.73814" lon="6.67821">
        <ele>1253.4</ele>
        <time>2024-05-26T13:32:15Z</time>
      </trkpt>
      <trkpt lat="43.73814" lon="6.67822">
        <ele>1253.5</ele>
        <time>2024-05-26T13:32:16Z</time>
      </trkpt>
      <trkpt lat="43.73815" lon="6.67823">
        <ele>1253.5</ele>
        <time>2024-05-26T13:32:17Z</time>
      </trkpt>
      <trkpt lat="43.73815" lon="6.67823">
        <ele>1253.7</ele>
        <time>2024-05-26T13:32:18Z</time>
      </trkpt>
      <trkpt lat="43.73815" lon="6.67823">
        <ele>1253.8</ele>
        <time>2024-05-26T13:32:19Z</time>
      </trkpt>
      <trkpt lat="43.73816" lon="6.67824">
        <ele>1253.8</ele>
        <time>2024-05-26T13:32:20Z</time>
      </trkpt>
      <trkpt lat="43.73816" lon="6.67823">
        <ele>1253.9</ele>
        <time>2024-05-26T13:32:21Z</time>
      </trkpt>
      <trkpt lat="43.73817" lon="6.67824">
        <ele>1253.9</ele>
        <time>2024-05-26T13:32:22Z</time>
      </trkpt>
      <trkpt lat="43.73817" lon="6.67824">
        <ele>1254</ele>
        <time>2024-05-26T13:32:23Z</time>
      </trkpt>
      <trkpt lat="43.73818" lon="6.67823">
        <ele>1254</ele>
        <time>2024-05-26T13:32:24Z</time>
      </trkpt>
      <trkpt lat="43.73818" lon="6.67823">
        <ele>1254</ele>
        <time>2024-05-26T13:32:25Z</time>
      </trkpt>
      <trkpt lat="43.73819" lon="6.67822">
        <ele>1254.1</ele>
        <time>2024-05-26T13:32:26Z</time>
      </trkpt>
      <trkpt lat="43.73819" lon="6.67822">
        <ele>1254.2</ele>
        <time>2024-05-26T13:32:27Z</time>
      </trkpt>
      <trkpt lat="43.7382" lon="6.67822">
        <ele>1254.3</ele>
        <time>2024-05-26T13:32:28Z</time>
      </trkpt>
      <trkpt lat="43.73821" lon="6.67822">
        <ele>1254.6</ele>
        <time>2024-05-26T13:32:29Z</time>
      </trkpt>
      <trkpt lat="43.73822" lon="6.67821">
        <ele>1254.8</ele>
        <time>2024-05-26T13:32:30Z</time>
      </trkpt>
      <trkpt lat="43.73823" lon="6.67821">
        <ele>1255</ele>
        <time>2024-05-26T13:32:31Z</time>
      </trkpt>
      <trkpt lat="43.73823" lon="6.67821">
        <ele>1255.2</ele>
        <time>2024-05-26T13:32:32Z</time>
      </trkpt>
      <trkpt lat="43.73824" lon="6.67821">
        <ele>1255.4</ele>
        <time>2024-05-26T13:32:33Z</time>
      </trkpt>
      <trkpt lat="43.73824" lon="6.67821">
        <ele>1255.5</ele>
        <time>2024-05-26T13:32:34Z</time>
      </trkpt>
      <trkpt lat="43.73824" lon="6.67821">
        <ele>1255.7</ele>
        <time>2024-05-26T13:32:35Z</time>
      </trkpt>
      <trkpt lat="43.73824" lon="6.67821">
        <ele>1255.8</ele>
        <time>2024-05-26T13:32:36Z</time>
      </trkpt>
      <trkpt lat="43.73825" lon="6.67821">
        <ele>1255.9</ele>
        <time>2024-05-26T13:32:37Z</time>
      </trkpt>
      <trkpt lat="43.73825" lon="6.6782">
        <ele>1256</ele>
        <time>2024-05-26T13:32:38Z</time>
      </trkpt>
      <trkpt lat="43.73826" lon="6.6782">
        <ele>1256.1</ele>
        <time>2024-05-26T13:32:39Z</time>
      </trkpt>
      <trkpt lat="43.73826" lon="6.6782">
        <ele>1256.1</ele>
        <time>2024-05-26T13:32:40Z</time>
      </trkpt>
      <trkpt lat="43.73827" lon="6.67819">
        <ele>1256.1</ele>
        <time>2024-05-26T13:32:41Z</time>
      </trkpt>
      <trkpt lat="43.73827" lon="6.67818">
        <ele>1256.1</ele>
        <time>2024-05-26T13:32:42Z</time>
      </trkpt>
      <trkpt lat="43.73828" lon="6.67816">
        <ele>1256.1</ele>
        <time>2024-05-26T13:32:43Z</time>
      </trkpt>
      <trkpt lat="43.73828" lon="6.67816">
        <ele>1256.2</ele>
        <time>2024-05-26T13:32:44Z</time>
      </trkpt>
      <trkpt lat="43.73829" lon="6.67815">
        <ele>1256.2</ele>
        <time>2024-05-26T13:32:45Z</time>
      </trkpt>
      <trkpt lat="43.7383" lon="6.67814">
        <ele>1256.2</ele>
        <time>2024-05-26T13:32:46Z</time>
      </trkpt>
      <trkpt lat="43.7383" lon="6.67813">
        <ele>1256.3</ele>
        <time>2024-05-26T13:32:47Z</time>
      </trkpt>
      <trkpt lat="43.7383" lon="6.67813">
        <ele>1256.3</ele>
        <time>2024-05-26T13:32:48Z</time>
      </trkpt>
      <trkpt lat="43.7383" lon="6.67812">
        <ele>1256.3</ele>
        <time>2024-05-26T13:32:49Z</time>
      </trkpt>
      <trkpt lat="43.73831" lon="6.67812">
        <ele>1256.4</ele>
        <time>2024-05-26T13:32:50Z</time>
      </trkpt>
      <trkpt lat="43.73832" lon="6.67811">
        <ele>1256.4</ele>
        <time>2024-05-26T13:32:51Z</time>
      </trkpt>
      <trkpt lat="43.73832" lon="6.67811">
        <ele>1256.4</ele>
        <time>2024-05-26T13:32:52Z</time>
      </trkpt>
      <trkpt lat="43.73833" lon="6.6781">
        <ele>1256.5</ele>
        <time>2024-05-26T13:32:53Z</time>
      </trkpt>
      <trkpt lat="43.73833" lon="6.67809">
        <ele>1256.6</ele>
        <time>2024-05-26T13:32:54Z</time>
      </trkpt>
      <trkpt lat="43.73834" lon="6.67809">
        <ele>1256.9</ele>
        <time>2024-05-26T13:32:55Z</time>
      </trkpt>
      <trkpt lat="43.73834" lon="6.67808">
        <ele>1256.9</ele>
        <time>2024-05-26T13:32:56Z</time>
      </trkpt>
      <trkpt lat="43.73834" lon="6.67808">
        <ele>1257.1</ele>
        <time>2024-05-26T13:32:57Z</time>
      </trkpt>
      <trkpt lat="43.73835" lon="6.67808">
        <ele>1257.2</ele>
        <time>2024-05-26T13:32:58Z</time>
      </trkpt>
      <trkpt lat="43.73835" lon="6.67808">
        <ele>1257.4</ele>
        <time>2024-05-26T13:32:59Z</time>
      </trkpt>
      <trkpt lat="43.73835" lon="6.67808">
        <ele>1257.6</ele>
        <time>2024-05-26T13:33:00Z</time>
      </trkpt>
      <trkpt lat="43.73836" lon="6.67807">
        <ele>1257.9</ele>
        <time>2024-05-26T13:33:01Z</time>
      </trkpt>
      <trkpt lat="43.73836" lon="6.67806">
        <ele>1258.1</ele>
        <time>2024-05-26T13:33:02Z</time>
      </trkpt>
      <trkpt lat="43.73835" lon="6.67806">
        <ele>1258.3</ele>
        <time>2024-05-26T13:33:03Z</time>
      </trkpt>
      <trkpt lat="43.73835" lon="6.67803">
        <ele>1258.5</ele>
        <time>2024-05-26T13:33:04Z</time>
      </trkpt>
      <trkpt lat="43.73836" lon="6.67802">
        <ele>1258.7</ele>
        <time>2024-05-26T13:33:05Z</time>
      </trkpt>
      <trkpt lat="43.73836" lon="6.67801">
        <ele>1258.9</ele>
        <time>2024-05-26T13:33:06Z</time>
      </trkpt>
      <trkpt lat="43.73836" lon="6.678">
        <ele>1259.2</ele>
        <time>2024-05-26T13:33:07Z</time>
      </trkpt>
      <trkpt lat="43.73837" lon="6.67798">
        <ele>1259.4</ele>
        <time>2024-05-26T13:33:08Z</time>
      </trkpt>
      <trkpt lat="43.73837" lon="6.67797">
        <ele>1259.6</ele>
        <time>2024-05-26T13:33:09Z</time>
      </trkpt>
      <trkpt lat="43.73838" lon="6.67797">
        <ele>1259.7</ele>
        <time>2024-05-26T13:33:10Z</time>
      </trkpt>
      <trkpt lat="43.73838" lon="6.67796">
        <ele>1259.7</ele>
        <time>2024-05-26T13:33:11Z</time>
      </trkpt>
      <trkpt lat="43.73839" lon="6.67795">
        <ele>1259.9</ele>
        <time>2024-05-26T13:33:12Z</time>
      </trkpt>
      <trkpt lat="43.73839" lon="6.67795">
        <ele>1260</ele>
        <time>2024-05-26T13:33:13Z</time>
      </trkpt>
      <trkpt lat="43.7384" lon="6.67794">
        <ele>1260.1</ele>
        <time>2024-05-26T13:33:14Z</time>
      </trkpt>
      <trkpt lat="43.73839" lon="6.67793">
        <ele>1260.1</ele>
        <time>2024-05-26T13:33:15Z</time>
      </trkpt>
      <trkpt lat="43.73839" lon="6.67792">
        <ele>1260.1</ele>
        <time>2024-05-26T13:33:16Z</time>
      </trkpt>
      <trkpt lat="43.73839" lon="6.67791">
        <ele>1260.2</ele>
        <time>2024-05-26T13:33:17Z</time>
      </trkpt>
      <trkpt lat="43.73839" lon="6.6779">
        <ele>1260.3</ele>
        <time>2024-05-26T13:33:18Z</time>
      </trkpt>
      <trkpt lat="43.73839" lon="6.67789">
        <ele>1260.3</ele>
        <time>2024-05-26T13:33:19Z</time>
      </trkpt>
      <trkpt lat="43.73839" lon="6.67788">
        <ele>1260.4</ele>
        <time>2024-05-26T13:33:20Z</time>
      </trkpt>
      <trkpt lat="43.73838" lon="6.67786">
        <ele>1260.5</ele>
        <time>2024-05-26T13:33:21Z</time>
      </trkpt>
      <trkpt lat="43.73838" lon="6.67785">
        <ele>1260.7</ele>
        <time>2024-05-26T13:33:22Z</time>
      </trkpt>
      <trkpt lat="43.73839" lon="6.67784">
        <ele>1260.8</ele>
        <time>2024-05-26T13:33:23Z</time>
      </trkpt>
      <trkpt lat="43.73839" lon="6.67783">
        <ele>1260.9</ele>
        <time>2024-05-26T13:33:24Z</time>
      </trkpt>
      <trkpt lat="43.73839" lon="6.67782">
        <ele>1260.9</ele>
        <time>2024-05-26T13:33:25Z</time>
      </trkpt>
      <trkpt lat="43.73839" lon="6.67781">
        <ele>1261.1</ele>
        <time>2024-05-26T13:33:26Z</time>
      </trkpt>
      <trkpt lat="43.73839" lon="6.67779">
        <ele>1261.2</ele>
        <time>2024-05-26T13:33:27Z</time>
      </trkpt>
      <trkpt lat="43.73839" lon="6.67777">
        <ele>1261.3</ele>
        <time>2024-05-26T13:33:28Z</time>
      </trkpt>
      <trkpt lat="43.7384" lon="6.67776">
        <ele>1261.5</ele>
        <time>2024-05-26T13:33:29Z</time>
      </trkpt>
      <trkpt lat="43.7384" lon="6.67775">
        <ele>1261.6</ele>
        <time>2024-05-26T13:33:30Z</time>
      </trkpt>
      <trkpt lat="43.7384" lon="6.67775">
        <ele>1261.7</ele>
        <time>2024-05-26T13:33:31Z</time>
      </trkpt>
      <trkpt lat="43.7384" lon="6.67774">
        <ele>1261.9</ele>
        <time>2024-05-26T13:33:32Z</time>
      </trkpt>
      <trkpt lat="43.73841" lon="6.67774">
        <ele>1262.1</ele>
        <time>2024-05-26T13:33:33Z</time>
      </trkpt>
      <trkpt lat="43.73841" lon="6.67773">
        <ele>1262.2</ele>
        <time>2024-05-26T13:33:34Z</time>
      </trkpt>
      <trkpt lat="43.73841" lon="6.67772">
        <ele>1262.4</ele>
        <time>2024-05-26T13:33:35Z</time>
      </trkpt>
      <trkpt lat="43.73842" lon="6.67771">
        <ele>1262.5</ele>
        <time>2024-05-26T13:33:36Z</time>
      </trkpt>
      <trkpt lat="43.73842" lon="6.67771">
        <ele>1262.6</ele>
        <time>2024-05-26T13:33:37Z</time>
      </trkpt>
      <trkpt lat="43.73842" lon="6.67771">
        <ele>1262.7</ele>
        <time>2024-05-26T13:33:38Z</time>
      </trkpt>
      <trkpt lat="43.73843" lon="6.6777">
        <ele>1262.8</ele>
        <time>2024-05-26T13:33:39Z</time>
      </trkpt>
      <trkpt lat="43.73843" lon="6.67769">
        <ele>1262.9</ele>
        <time>2024-05-26T13:33:40Z</time>
      </trkpt>
      <trkpt lat="43.73844" lon="6.67769">
        <ele>1263</ele>
        <time>2024-05-26T13:33:41Z</time>
      </trkpt>
      <trkpt lat="43.73844" lon="6.67768">
        <ele>1263.2</ele>
        <time>2024-05-26T13:33:42Z</time>
      </trkpt>
      <trkpt lat="43.73845" lon="6.67768">
        <ele>1263.4</ele>
        <time>2024-05-26T13:33:43Z</time>
      </trkpt>
      <trkpt lat="43.73845" lon="6.67766">
        <ele>1263.5</ele>
        <time>2024-05-26T13:33:44Z</time>
      </trkpt>
      <trkpt lat="43.73845" lon="6.67765">
        <ele>1263.5</ele>
        <time>2024-05-26T13:33:45Z</time>
      </trkpt>
      <trkpt lat="43.73846" lon="6.67764">
        <ele>1263.6</ele>
        <time>2024-05-26T13:33:46Z</time>
      </trkpt>
      <trkpt lat="43.73846" lon="6.67762">
        <ele>1263.7</ele>
        <time>2024-05-26T13:33:47Z</time>
      </trkpt>
      <trkpt lat="43.73846" lon="6.67761">
        <ele>1263.9</ele>
        <time>2024-05-26T13:33:48Z</time>
      </trkpt>
      <trkpt lat="43.73846" lon="6.67759">
        <ele>1264</ele>
        <time>2024-05-26T13:33:49Z</time>
      </trkpt>
      <trkpt lat="43.73845" lon="6.67758">
        <ele>1264.2</ele>
        <time>2024-05-26T13:33:50Z</time>
      </trkpt>
      <trkpt lat="43.73845" lon="6.67757">
        <ele>1264.3</ele>
        <time>2024-05-26T13:33:51Z</time>
      </trkpt>
      <trkpt lat="43.73845" lon="6.67756">
        <ele>1264.4</ele>
        <time>2024-05-26T13:33:52Z</time>
      </trkpt>
      <trkpt lat="43.73845" lon="6.67756">
        <ele>1264.6</ele>
        <time>2024-05-26T13:33:53Z</time>
      </trkpt>
      <trkpt lat="43.73845" lon="6.67754">
        <ele>1264.8</ele>
        <time>2024-05-26T13:33:54Z</time>
      </trkpt>
      <trkpt lat="43.73845" lon="6.67754">
        <ele>1264.9</ele>
        <time>2024-05-26T13:33:55Z</time>
      </trkpt>
      <trkpt lat="43.73845" lon="6.67754">
        <ele>1265.1</ele>
        <time>2024-05-26T13:33:56Z</time>
      </trkpt>
      <trkpt lat="43.73845" lon="6.67753">
        <ele>1265.1</ele>
        <time>2024-05-26T13:33:57Z</time>
      </trkpt>
      <trkpt lat="43.73845" lon="6.67753">
        <ele>1265.1</ele>
        <time>2024-05-26T13:33:58Z</time>
      </trkpt>
      <trkpt lat="43.73845" lon="6.67752">
        <ele>1265.3</ele>
        <time>2024-05-26T13:33:59Z</time>
      </trkpt>
      <trkpt lat="43.73845" lon="6.67751">
        <ele>1265.5</ele>
        <time>2024-05-26T13:34:00Z</time>
      </trkpt>
      <trkpt lat="43.73845" lon="6.6775">
        <ele>1265.7</ele>
        <time>2024-05-26T13:34:01Z</time>
      </trkpt>
      <trkpt lat="43.73845" lon="6.67749">
        <ele>1265.9</ele>
        <time>2024-05-26T13:34:02Z</time>
      </trkpt>
      <trkpt lat="43.73845" lon="6.67749">
        <ele>1266.1</ele>
        <time>2024-05-26T13:34:03Z</time>
      </trkpt>
      <trkpt lat="43.73845" lon="6.67748">
        <ele>1266.3</ele>
        <time>2024-05-26T13:34:04Z</time>
      </trkpt>
      <trkpt lat="43.73845" lon="6.67748">
        <ele>1266.5</ele>
        <time>2024-05-26T13:34:05Z</time>
      </trkpt>
      <trkpt lat="43.73846" lon="6.67747">
        <ele>1266.7</ele>
        <time>2024-05-26T13:34:06Z</time>
      </trkpt>
      <trkpt lat="43.73846" lon="6.67745">
        <ele>1266.9</ele>
        <time>2024-05-26T13:34:07Z</time>
      </trkpt>
      <trkpt lat="43.73847" lon="6.67745">
        <ele>1267.1</ele>
        <time>2024-05-26T13:34:08Z</time>
      </trkpt>
      <trkpt lat="43.73846" lon="6.67744">
        <ele>1267.3</ele>
        <time>2024-05-26T13:34:09Z</time>
      </trkpt>
      <trkpt lat="43.73847" lon="6.67743">
        <ele>1267.4</ele>
        <time>2024-05-26T13:34:10Z</time>
      </trkpt>
      <trkpt lat="43.73847" lon="6.67742">
        <ele>1267.6</ele>
        <time>2024-05-26T13:34:11Z</time>
      </trkpt>
      <trkpt lat="43.73847" lon="6.67742">
        <ele>1267.7</ele>
        <time>2024-05-26T13:34:12Z</time>
      </trkpt>
      <trkpt lat="43.73847" lon="6.67741">
        <ele>1267.8</ele>
        <time>2024-05-26T13:34:13Z</time>
      </trkpt>
      <trkpt lat="43.73847" lon="6.6774">
        <ele>1267.9</ele>
        <time>2024-05-26T13:34:14Z</time>
      </trkpt>
      <trkpt lat="43.73847" lon="6.6774">
        <ele>1268</ele>
        <time>2024-05-26T13:34:15Z</time>
      </trkpt>
      <trkpt lat="43.73847" lon="6.67739">
        <ele>1268.1</ele>
        <time>2024-05-26T13:34:16Z</time>
      </trkpt>
      <trkpt lat="43.73847" lon="6.67738">
        <ele>1268.2</ele>
        <time>2024-05-26T13:34:17Z</time>
      </trkpt>
      <trkpt lat="43.73847" lon="6.67738">
        <ele>1268.4</ele>
        <time>2024-05-26T13:34:18Z</time>
      </trkpt>
      <trkpt lat="43.73847" lon="6.67737">
        <ele>1268.6</ele>
        <time>2024-05-26T13:34:19Z</time>
      </trkpt>
      <trkpt lat="43.73847" lon="6.67737">
        <ele>1268.7</ele>
        <time>2024-05-26T13:34:20Z</time>
      </trkpt>
      <trkpt lat="43.73847" lon="6.67736">
        <ele>1268.8</ele>
        <time>2024-05-26T13:34:21Z</time>
      </trkpt>
      <trkpt lat="43.73847" lon="6.67735">
        <ele>1269</ele>
        <time>2024-05-26T13:34:22Z</time>
      </trkpt>
      <trkpt lat="43.73847" lon="6.67735">
        <ele>1269.1</ele>
        <time>2024-05-26T13:34:23Z</time>
      </trkpt>
      <trkpt lat="43.73847" lon="6.67735">
        <ele>1269.4</ele>
        <time>2024-05-26T13:34:24Z</time>
      </trkpt>
      <trkpt lat="43.73846" lon="6.67734">
        <ele>1269.6</ele>
        <time>2024-05-26T13:34:25Z</time>
      </trkpt>
      <trkpt lat="43.73846" lon="6.67734">
        <ele>1269.8</ele>
        <time>2024-05-26T13:34:26Z</time>
      </trkpt>
      <trkpt lat="43.73846" lon="6.67733">
        <ele>1269.9</ele>
        <time>2024-05-26T13:34:27Z</time>
      </trkpt>
      <trkpt lat="43.73846" lon="6.67733">
        <ele>1270.1</ele>
        <time>2024-05-26T13:34:28Z</time>
      </trkpt>
      <trkpt lat="43.73846" lon="6.67732">
        <ele>1270.2</ele>
        <time>2024-05-26T13:34:29Z</time>
      </trkpt>
      <trkpt lat="43.73846" lon="6.67732">
        <ele>1270.4</ele>
        <time>2024-05-26T13:34:30Z</time>
      </trkpt>
      <trkpt lat="43.73846" lon="6.67731">
        <ele>1270.5</ele>
        <time>2024-05-26T13:34:31Z</time>
      </trkpt>
      <trkpt lat="43.73846" lon="6.67729">
        <ele>1270.7</ele>
        <time>2024-05-26T13:34:32Z</time>
      </trkpt>
      <trkpt lat="43.73846" lon="6.67728">
        <ele>1271</ele>
        <time>2024-05-26T13:34:33Z</time>
      </trkpt>
      <trkpt lat="43.73846" lon="6.67727">
        <ele>1271.1</ele>
        <time>2024-05-26T13:34:34Z</time>
      </trkpt>
      <trkpt lat="43.73846" lon="6.67726">
        <ele>1271.3</ele>
        <time>2024-05-26T13:34:35Z</time>
      </trkpt>
      <trkpt lat="43.73846" lon="6.67725">
        <ele>1271.4</ele>
        <time>2024-05-26T13:34:36Z</time>
      </trkpt>
      <trkpt lat="43.73846" lon="6.67725">
        <ele>1271.5</ele>
        <time>2024-05-26T13:34:37Z</time>
      </trkpt>
      <trkpt lat="43.73846" lon="6.67724">
        <ele>1271.6</ele>
        <time>2024-05-26T13:34:38Z</time>
      </trkpt>
      <trkpt lat="43.73846" lon="6.67723">
        <ele>1271.7</ele>
        <time>2024-05-26T13:34:39Z</time>
      </trkpt>
      <trkpt lat="43.73846" lon="6.67722">
        <ele>1271.9</ele>
        <time>2024-05-26T13:34:40Z</time>
      </trkpt>
      <trkpt lat="43.73846" lon="6.67722">
        <ele>1272.1</ele>
        <time>2024-05-26T13:34:41Z</time>
      </trkpt>
      <trkpt lat="43.73846" lon="6.67721">
        <ele>1272.1</ele>
        <time>2024-05-26T13:34:42Z</time>
      </trkpt>
      <trkpt lat="43.73846" lon="6.6772">
        <ele>1272.3</ele>
        <time>2024-05-26T13:34:43Z</time>
      </trkpt>
      <trkpt lat="43.73846" lon="6.67719">
        <ele>1272.5</ele>
        <time>2024-05-26T13:34:44Z</time>
      </trkpt>
      <trkpt lat="43.73846" lon="6.67719">
        <ele>1272.8</ele>
        <time>2024-05-26T13:34:45Z</time>
      </trkpt>
      <trkpt lat="43.73845" lon="6.67719">
        <ele>1272.9</ele>
        <time>2024-05-26T13:34:46Z</time>
      </trkpt>
      <trkpt lat="43.73845" lon="6.67719">
        <ele>1273</ele>
        <time>2024-05-26T13:34:47Z</time>
      </trkpt>
      <trkpt lat="43.73845" lon="6.67718">
        <ele>1273</ele>
        <time>2024-05-26T13:34:48Z</time>
      </trkpt>
      <trkpt lat="43.73845" lon="6.67716">
        <ele>1273.1</ele>
        <time>2024-05-26T13:34:49Z</time>
      </trkpt>
      <trkpt lat="43.73845" lon="6.67716">
        <ele>1273.2</ele>
        <time>2024-05-26T13:34:50Z</time>
      </trkpt>
      <trkpt lat="43.73845" lon="6.67715">
        <ele>1273.4</ele>
        <time>2024-05-26T13:34:51Z</time>
      </trkpt>
      <trkpt lat="43.73845" lon="6.67715">
        <ele>1273.5</ele>
        <time>2024-05-26T13:34:52Z</time>
      </trkpt>
      <trkpt lat="43.73845" lon="6.67714">
        <ele>1273.5</ele>
        <time>2024-05-26T13:34:53Z</time>
      </trkpt>
      <trkpt lat="43.73845" lon="6.67713">
        <ele>1273.7</ele>
        <time>2024-05-26T13:34:54Z</time>
      </trkpt>
      <trkpt lat="43.73845" lon="6.67713">
        <ele>1273.9</ele>
        <time>2024-05-26T13:34:55Z</time>
      </trkpt>
      <trkpt lat="43.73845" lon="6.67711">
        <ele>1274</ele>
        <time>2024-05-26T13:34:56Z</time>
      </trkpt>
      <trkpt lat="43.73845" lon="6.6771">
        <ele>1274.2</ele>
        <time>2024-05-26T13:34:57Z</time>
      </trkpt>
      <trkpt lat="43.73845" lon="6.67709">
        <ele>1274.4</ele>
        <time>2024-05-26T13:34:58Z</time>
      </trkpt>
      <trkpt lat="43.73845" lon="6.67708">
        <ele>1274.6</ele>
        <time>2024-05-26T13:34:59Z</time>
      </trkpt>
      <trkpt lat="43.73845" lon="6.67707">
        <ele>1274.7</ele>
        <time>2024-05-26T13:35:00Z</time>
      </trkpt>
      <trkpt lat="43.73845" lon="6.67706">
        <ele>1274.9</ele>
        <time>2024-05-26T13:35:01Z</time>
      </trkpt>
      <trkpt lat="43.73844" lon="6.67705">
        <ele>1275.1</ele>
        <time>2024-05-26T13:35:02Z</time>
      </trkpt>
      <trkpt lat="43.73844" lon="6.67704">
        <ele>1275.3</ele>
        <time>2024-05-26T13:35:03Z</time>
      </trkpt>
      <trkpt lat="43.73844" lon="6.67704">
        <ele>1275.5</ele>
        <time>2024-05-26T13:35:04Z</time>
      </trkpt>
      <trkpt lat="43.73844" lon="6.67703">
        <ele>1275.7</ele>
        <time>2024-05-26T13:35:05Z</time>
      </trkpt>
      <trkpt lat="43.73844" lon="6.67703">
        <ele>1275.8</ele>
        <time>2024-05-26T13:35:06Z</time>
      </trkpt>
      <trkpt lat="43.73844" lon="6.67702">
        <ele>1276</ele>
        <time>2024-05-26T13:35:07Z</time>
      </trkpt>
      <trkpt lat="43.73843" lon="6.67702">
        <ele>1276.2</ele>
        <time>2024-05-26T13:35:08Z</time>
      </trkpt>
      <trkpt lat="43.73843" lon="6.67702">
        <ele>1276.3</ele>
        <time>2024-05-26T13:35:09Z</time>
      </trkpt>
      <trkpt lat="43.73843" lon="6.67701">
        <ele>1276.4</ele>
        <time>2024-05-26T13:35:10Z</time>
      </trkpt>
      <trkpt lat="43.73843" lon="6.67701">
        <ele>1276.5</ele>
        <time>2024-05-26T13:35:11Z</time>
      </trkpt>
      <trkpt lat="43.73843" lon="6.677">
        <ele>1276.7</ele>
        <time>2024-05-26T13:35:12Z</time>
      </trkpt>
      <trkpt lat="43.73843" lon="6.677">
        <ele>1276.8</ele>
        <time>2024-05-26T13:35:13Z</time>
      </trkpt>
      <trkpt lat="43.73843" lon="6.677">
        <ele>1276.9</ele>
        <time>2024-05-26T13:35:14Z</time>
      </trkpt>
      <trkpt lat="43.73843" lon="6.67699">
        <ele>1277</ele>
        <time>2024-05-26T13:35:15Z</time>
      </trkpt>
      <trkpt lat="43.73843" lon="6.67699">
        <ele>1277.1</ele>
        <time>2024-05-26T13:35:16Z</time>
      </trkpt>
      <trkpt lat="43.73843" lon="6.67699">
        <ele>1277.2</ele>
        <time>2024-05-26T13:35:17Z</time>
      </trkpt>
      <trkpt lat="43.73843" lon="6.67698">
        <ele>1277.3</ele>
        <time>2024-05-26T13:35:18Z</time>
      </trkpt>
      <trkpt lat="43.73843" lon="6.67698">
        <ele>1277.3</ele>
        <time>2024-05-26T13:35:19Z</time>
      </trkpt>
      <trkpt lat="43.73843" lon="6.67697">
        <ele>1277.4</ele>
        <time>2024-05-26T13:35:20Z</time>
      </trkpt>
      <trkpt lat="43.73843" lon="6.67697">
        <ele>1277.6</ele>
        <time>2024-05-26T13:35:21Z</time>
      </trkpt>
      <trkpt lat="43.73843" lon="6.67696">
        <ele>1277.8</ele>
        <time>2024-05-26T13:35:22Z</time>
      </trkpt>
      <trkpt lat="43.73843" lon="6.67696">
        <ele>1278</ele>
        <time>2024-05-26T13:35:23Z</time>
      </trkpt>
      <trkpt lat="43.73843" lon="6.67695">
        <ele>1278.2</ele>
        <time>2024-05-26T13:35:24Z</time>
      </trkpt>
      <trkpt lat="43.73843" lon="6.67695">
        <ele>1278.4</ele>
        <time>2024-05-26T13:35:25Z</time>
      </trkpt>
      <trkpt lat="43.73843" lon="6.67695">
        <ele>1278.6</ele>
        <time>2024-05-26T13:35:26Z</time>
      </trkpt>
      <trkpt lat="43.73843" lon="6.67694">
        <ele>1278.8</ele>
        <time>2024-05-26T13:35:27Z</time>
      </trkpt>
      <trkpt lat="43.73843" lon="6.67694">
        <ele>1278.9</ele>
        <time>2024-05-26T13:35:28Z</time>
      </trkpt>
      <trkpt lat="43.73843" lon="6.67693">
        <ele>1279.1</ele>
        <time>2024-05-26T13:35:29Z</time>
      </trkpt>
      <trkpt lat="43.73843" lon="6.67693">
        <ele>1279.1</ele>
        <time>2024-05-26T13:35:30Z</time>
      </trkpt>
      <trkpt lat="43.73843" lon="6.67692">
        <ele>1279.3</ele>
        <time>2024-05-26T13:35:31Z</time>
      </trkpt>
      <trkpt lat="43.73843" lon="6.67692">
        <ele>1279.5</ele>
        <time>2024-05-26T13:35:32Z</time>
      </trkpt>
      <trkpt lat="43.73843" lon="6.67692">
        <ele>1279.6</ele>
        <time>2024-05-26T13:35:33Z</time>
      </trkpt>
      <trkpt lat="43.73843" lon="6.67691">
        <ele>1279.8</ele>
        <time>2024-05-26T13:35:34Z</time>
      </trkpt>
      <trkpt lat="43.73844" lon="6.67691">
        <ele>1280</ele>
        <time>2024-05-26T13:35:35Z</time>
      </trkpt>
      <trkpt lat="43.73843" lon="6.67691">
        <ele>1280.2</ele>
        <time>2024-05-26T13:35:36Z</time>
      </trkpt>
      <trkpt lat="43.73843" lon="6.6769">
        <ele>1280.4</ele>
        <time>2024-05-26T13:35:37Z</time>
      </trkpt>
      <trkpt lat="43.73843" lon="6.6769">
        <ele>1280.7</ele>
        <time>2024-05-26T13:35:38Z</time>
      </trkpt>
      <trkpt lat="43.73843" lon="6.67689">
        <ele>1280.9</ele>
        <time>2024-05-26T13:35:39Z</time>
      </trkpt>
      <trkpt lat="43.73843" lon="6.67688">
        <ele>1281.1</ele>
        <time>2024-05-26T13:35:40Z</time>
      </trkpt>
      <trkpt lat="43.73843" lon="6.67688">
        <ele>1281.3</ele>
        <time>2024-05-26T13:35:41Z</time>
      </trkpt>
      <trkpt lat="43.73842" lon="6.67687">
        <ele>1281.5</ele>
        <time>2024-05-26T13:35:42Z</time>
      </trkpt>
      <trkpt lat="43.73842" lon="6.67687">
        <ele>1281.7</ele>
        <time>2024-05-26T13:35:43Z</time>
      </trkpt>
      <trkpt lat="43.73842" lon="6.67686">
        <ele>1281.8</ele>
        <time>2024-05-26T13:35:44Z</time>
      </trkpt>
      <trkpt lat="43.73842" lon="6.67686">
        <ele>1281.9</ele>
        <time>2024-05-26T13:35:45Z</time>
      </trkpt>
      <trkpt lat="43.73842" lon="6.67686">
        <ele>1282</ele>
        <time>2024-05-26T13:35:46Z</time>
      </trkpt>
      <trkpt lat="43.73843" lon="6.67685">
        <ele>1282.1</ele>
        <time>2024-05-26T13:35:47Z</time>
      </trkpt>
      <trkpt lat="43.73843" lon="6.67685">
        <ele>1282.3</ele>
        <time>2024-05-26T13:35:48Z</time>
      </trkpt>
      <trkpt lat="43.73843" lon="6.67685">
        <ele>1282.5</ele>
        <time>2024-05-26T13:35:49Z</time>
      </trkpt>
      <trkpt lat="43.73843" lon="6.67685">
        <ele>1282.7</ele>
        <time>2024-05-26T13:35:50Z</time>
      </trkpt>
      <trkpt lat="43.73843" lon="6.67685">
        <ele>1282.9</ele>
        <time>2024-05-26T13:35:51Z</time>
      </trkpt>
      <trkpt lat="43.73843" lon="6.67684">
        <ele>1283.1</ele>
        <time>2024-05-26T13:35:52Z</time>
      </trkpt>
      <trkpt lat="43.73843" lon="6.67683">
        <ele>1283.3</ele>
        <time>2024-05-26T13:35:53Z</time>
      </trkpt>
      <trkpt lat="43.73843" lon="6.67682">
        <ele>1283.5</ele>
        <time>2024-05-26T13:35:54Z</time>
      </trkpt>
      <trkpt lat="43.73843" lon="6.67682">
        <ele>1283.6</ele>
        <time>2024-05-26T13:35:55Z</time>
      </trkpt>
      <trkpt lat="43.73843" lon="6.67681">
        <ele>1283.8</ele>
        <time>2024-05-26T13:35:56Z</time>
      </trkpt>
      <trkpt lat="43.73843" lon="6.6768">
        <ele>1283.9</ele>
        <time>2024-05-26T13:35:57Z</time>
      </trkpt>
      <trkpt lat="43.73842" lon="6.67679">
        <ele>1284</ele>
        <time>2024-05-26T13:35:58Z</time>
      </trkpt>
      <trkpt lat="43.73842" lon="6.67678">
        <ele>1284.2</ele>
        <time>2024-05-26T13:35:59Z</time>
      </trkpt>
      <trkpt lat="43.73842" lon="6.67677">
        <ele>1284.3</ele>
        <time>2024-05-26T13:36:00Z</time>
      </trkpt>
      <trkpt lat="43.73841" lon="6.67676">
        <ele>1284.4</ele>
        <time>2024-05-26T13:36:01Z</time>
      </trkpt>
      <trkpt lat="43.73841" lon="6.67676">
        <ele>1284.4</ele>
        <time>2024-05-26T13:36:02Z</time>
      </trkpt>
      <trkpt lat="43.73841" lon="6.67675">
        <ele>1284.5</ele>
        <time>2024-05-26T13:36:03Z</time>
      </trkpt>
      <trkpt lat="43.73841" lon="6.67674">
        <ele>1284.5</ele>
        <time>2024-05-26T13:36:04Z</time>
      </trkpt>
      <trkpt lat="43.73842" lon="6.67673">
        <ele>1284.6</ele>
        <time>2024-05-26T13:36:05Z</time>
      </trkpt>
      <trkpt lat="43.73842" lon="6.67673">
        <ele>1284.6</ele>
        <time>2024-05-26T13:36:06Z</time>
      </trkpt>
      <trkpt lat="43.73841" lon="6.67672">
        <ele>1284.7</ele>
        <time>2024-05-26T13:36:07Z</time>
      </trkpt>
      <trkpt lat="43.73841" lon="6.67671">
        <ele>1284.9</ele>
        <time>2024-05-26T13:36:08Z</time>
      </trkpt>
      <trkpt lat="43.7384" lon="6.6767">
        <ele>1285</ele>
        <time>2024-05-26T13:36:09Z</time>
      </trkpt>
      <trkpt lat="43.7384" lon="6.67669">
        <ele>1285.1</ele>
        <time>2024-05-26T13:36:10Z</time>
      </trkpt>
      <trkpt lat="43.7384" lon="6.67668">
        <ele>1285.2</ele>
        <time>2024-05-26T13:36:11Z</time>
      </trkpt>
      <trkpt lat="43.7384" lon="6.67667">
        <ele>1285.3</ele>
        <time>2024-05-26T13:36:12Z</time>
      </trkpt>
      <trkpt lat="43.73839" lon="6.67666">
        <ele>1285.4</ele>
        <time>2024-05-26T13:36:13Z</time>
      </trkpt>
      <trkpt lat="43.73839" lon="6.67665">
        <ele>1285.5</ele>
        <time>2024-05-26T13:36:14Z</time>
      </trkpt>
      <trkpt lat="43.73839" lon="6.67664">
        <ele>1285.6</ele>
        <time>2024-05-26T13:36:15Z</time>
      </trkpt>
      <trkpt lat="43.73838" lon="6.67663">
        <ele>1285.7</ele>
        <time>2024-05-26T13:36:16Z</time>
      </trkpt>
      <trkpt lat="43.73838" lon="6.67663">
        <ele>1285.8</ele>
        <time>2024-05-26T13:36:17Z</time>
      </trkpt>
      <trkpt lat="43.73837" lon="6.67662">
        <ele>1285.8</ele>
        <time>2024-05-26T13:36:18Z</time>
      </trkpt>
      <trkpt lat="43.73836" lon="6.67661">
        <ele>1285.9</ele>
        <time>2024-05-26T13:36:19Z</time>
      </trkpt>
      <trkpt lat="43.73835" lon="6.6766">
        <ele>1285.9</ele>
        <time>2024-05-26T13:36:20Z</time>
      </trkpt>
      <trkpt lat="43.73835" lon="6.67659">
        <ele>1285.9</ele>
        <time>2024-05-26T13:36:21Z</time>
      </trkpt>
      <trkpt lat="43.73834" lon="6.67658">
        <ele>1285.9</ele>
        <time>2024-05-26T13:36:22Z</time>
      </trkpt>
      <trkpt lat="43.73833" lon="6.67657">
        <ele>1286.1</ele>
        <time>2024-05-26T13:36:23Z</time>
      </trkpt>
      <trkpt lat="43.73832" lon="6.67656">
        <ele>1286.2</ele>
        <time>2024-05-26T13:36:24Z</time>
      </trkpt>
      <trkpt lat="43.73832" lon="6.67656">
        <ele>1286.3</ele>
        <time>2024-05-26T13:36:25Z</time>
      </trkpt>
      <trkpt lat="43.73831" lon="6.67655">
        <ele>1286.3</ele>
        <time>2024-05-26T13:36:26Z</time>
      </trkpt>
      <trkpt lat="43.73831" lon="6.67655">
        <ele>1286.4</ele>
        <time>2024-05-26T13:36:27Z</time>
      </trkpt>
      <trkpt lat="43.7383" lon="6.67654">
        <ele>1286.5</ele>
        <time>2024-05-26T13:36:28Z</time>
      </trkpt>
      <trkpt lat="43.73829" lon="6.67654">
        <ele>1286.6</ele>
        <time>2024-05-26T13:36:29Z</time>
      </trkpt>
      <trkpt lat="43.73828" lon="6.67654">
        <ele>1286.6</ele>
        <time>2024-05-26T13:36:30Z</time>
      </trkpt>
      <trkpt lat="43.73828" lon="6.67653">
        <ele>1286.8</ele>
        <time>2024-05-26T13:36:31Z</time>
      </trkpt>
      <trkpt lat="43.73828" lon="6.67653">
        <ele>1286.8</ele>
        <time>2024-05-26T13:36:32Z</time>
      </trkpt>
      <trkpt lat="43.73828" lon="6.67653">
        <ele>1286.9</ele>
        <time>2024-05-26T13:36:33Z</time>
      </trkpt>
      <trkpt lat="43.73827" lon="6.67653">
        <ele>1287.1</ele>
        <time>2024-05-26T13:36:34Z</time>
      </trkpt>
      <trkpt lat="43.73826" lon="6.67653">
        <ele>1287.3</ele>
        <time>2024-05-26T13:36:35Z</time>
      </trkpt>
      <trkpt lat="43.73825" lon="6.67652">
        <ele>1287.3</ele>
        <time>2024-05-26T13:36:36Z</time>
      </trkpt>
      <trkpt lat="43.73825" lon="6.67652">
        <ele>1287.4</ele>
        <time>2024-05-26T13:36:37Z</time>
      </trkpt>
      <trkpt lat="43.73824" lon="6.67652">
        <ele>1287.5</ele>
        <time>2024-05-26T13:36:38Z</time>
      </trkpt>
      <trkpt lat="43.73824" lon="6.67651">
        <ele>1287.5</ele>
        <time>2024-05-26T13:36:39Z</time>
      </trkpt>
      <trkpt lat="43.73823" lon="6.67651">
        <ele>1287.7</ele>
        <time>2024-05-26T13:36:40Z</time>
      </trkpt>
      <trkpt lat="43.73823" lon="6.6765">
        <ele>1287.8</ele>
        <time>2024-05-26T13:36:41Z</time>
      </trkpt>
      <trkpt lat="43.73823" lon="6.6765">
        <ele>1287.9</ele>
        <time>2024-05-26T13:36:42Z</time>
      </trkpt>
      <trkpt lat="43.73823" lon="6.6765">
        <ele>1288</ele>
        <time>2024-05-26T13:36:43Z</time>
      </trkpt>
      <trkpt lat="43.73823" lon="6.67649">
        <ele>1288.1</ele>
        <time>2024-05-26T13:36:44Z</time>
      </trkpt>
      <trkpt lat="43.73822" lon="6.67649">
        <ele>1288.1</ele>
        <time>2024-05-26T13:36:45Z</time>
      </trkpt>
      <trkpt lat="43.73822" lon="6.67648">
        <ele>1288.1</ele>
        <time>2024-05-26T13:36:46Z</time>
      </trkpt>
      <trkpt lat="43.73821" lon="6.67648">
        <ele>1288.2</ele>
        <time>2024-05-26T13:36:47Z</time>
      </trkpt>
      <trkpt lat="43.73821" lon="6.67647">
        <ele>1288.4</ele>
        <time>2024-05-26T13:36:48Z</time>
      </trkpt>
      <trkpt lat="43.73821" lon="6.67646">
        <ele>1288.5</ele>
        <time>2024-05-26T13:36:49Z</time>
      </trkpt>
      <trkpt lat="43.73821" lon="6.67646">
        <ele>1288.7</ele>
        <time>2024-05-26T13:36:50Z</time>
      </trkpt>
      <trkpt lat="43.73821" lon="6.67645">
        <ele>1288.7</ele>
        <time>2024-05-26T13:36:51Z</time>
      </trkpt>
      <trkpt lat="43.73821" lon="6.67644">
        <ele>1288.8</ele>
        <time>2024-05-26T13:36:52Z</time>
      </trkpt>
      <trkpt lat="43.73821" lon="6.67643">
        <ele>1289</ele>
        <time>2024-05-26T13:36:53Z</time>
      </trkpt>
      <trkpt lat="43.7382" lon="6.67642">
        <ele>1289.2</ele>
        <time>2024-05-26T13:36:54Z</time>
      </trkpt>
      <trkpt lat="43.7382" lon="6.67641">
        <ele>1289.4</ele>
        <time>2024-05-26T13:36:55Z</time>
      </trkpt>
      <trkpt lat="43.73819" lon="6.6764">
        <ele>1289.5</ele>
        <time>2024-05-26T13:36:56Z</time>
      </trkpt>
      <trkpt lat="43.73819" lon="6.67639">
        <ele>1289.6</ele>
        <time>2024-05-26T13:36:57Z</time>
      </trkpt>
      <trkpt lat="43.73819" lon="6.67638">
        <ele>1289.7</ele>
        <time>2024-05-26T13:36:58Z</time>
      </trkpt>
      <trkpt lat="43.73818" lon="6.67637">
        <ele>1289.8</ele>
        <time>2024-05-26T13:36:59Z</time>
      </trkpt>
      <trkpt lat="43.73818" lon="6.67636">
        <ele>1289.9</ele>
        <time>2024-05-26T13:37:00Z</time>
      </trkpt>
      <trkpt lat="43.73817" lon="6.67635">
        <ele>1289.9</ele>
        <time>2024-05-26T13:37:01Z</time>
      </trkpt>
      <trkpt lat="43.73817" lon="6.67634">
        <ele>1290</ele>
        <time>2024-05-26T13:37:02Z</time>
      </trkpt>
      <trkpt lat="43.73816" lon="6.67634">
        <ele>1290.2</ele>
        <time>2024-05-26T13:37:03Z</time>
      </trkpt>
      <trkpt lat="43.73816" lon="6.67634">
        <ele>1290.3</ele>
        <time>2024-05-26T13:37:04Z</time>
      </trkpt>
      <trkpt lat="43.73815" lon="6.67634">
        <ele>1290.4</ele>
        <time>2024-05-26T13:37:05Z</time>
      </trkpt>
      <trkpt lat="43.73815" lon="6.67633">
        <ele>1290.6</ele>
        <time>2024-05-26T13:37:06Z</time>
      </trkpt>
      <trkpt lat="43.73814" lon="6.67633">
        <ele>1290.7</ele>
        <time>2024-05-26T13:37:07Z</time>
      </trkpt>
      <trkpt lat="43.73813" lon="6.67633">
        <ele>1290.9</ele>
        <time>2024-05-26T13:37:08Z</time>
      </trkpt>
      <trkpt lat="43.73812" lon="6.67632">
        <ele>1291</ele>
        <time>2024-05-26T13:37:09Z</time>
      </trkpt>
      <trkpt lat="43.73812" lon="6.67632">
        <ele>1291.1</ele>
        <time>2024-05-26T13:37:10Z</time>
      </trkpt>
      <trkpt lat="43.73811" lon="6.67632">
        <ele>1291.2</ele>
        <time>2024-05-26T13:37:11Z</time>
      </trkpt>
      <trkpt lat="43.7381" lon="6.67632">
        <ele>1291.3</ele>
        <time>2024-05-26T13:37:12Z</time>
      </trkpt>
      <trkpt lat="43.7381" lon="6.67632">
        <ele>1291.4</ele>
        <time>2024-05-26T13:37:13Z</time>
      </trkpt>
      <trkpt lat="43.7381" lon="6.67632">
        <ele>1291.5</ele>
        <time>2024-05-26T13:37:14Z</time>
      </trkpt>
      <trkpt lat="43.7381" lon="6.67632">
        <ele>1291.5</ele>
        <time>2024-05-26T13:37:15Z</time>
      </trkpt>
      <trkpt lat="43.73809" lon="6.67632">
        <ele>1291.5</ele>
        <time>2024-05-26T13:37:16Z</time>
      </trkpt>
      <trkpt lat="43.73809" lon="6.67632">
        <ele>1291.6</ele>
        <time>2024-05-26T13:37:17Z</time>
      </trkpt>
      <trkpt lat="43.73809" lon="6.67632">
        <ele>1291.6</ele>
        <time>2024-05-26T13:37:18Z</time>
      </trkpt>
      <trkpt lat="43.73809" lon="6.67633">
        <ele>1291.6</ele>
        <time>2024-05-26T13:37:19Z</time>
      </trkpt>
      <trkpt lat="43.73808" lon="6.67633">
        <ele>1291.5</ele>
        <time>2024-05-26T13:37:20Z</time>
      </trkpt>
      <trkpt lat="43.73807" lon="6.67633">
        <ele>1291.5</ele>
        <time>2024-05-26T13:37:21Z</time>
      </trkpt>
      <trkpt lat="43.73806" lon="6.67633">
        <ele>1291.5</ele>
        <time>2024-05-26T13:37:22Z</time>
      </trkpt>
      <trkpt lat="43.73806" lon="6.67634">
        <ele>1291.5</ele>
        <time>2024-05-26T13:37:23Z</time>
      </trkpt>
      <trkpt lat="43.73806" lon="6.67633">
        <ele>1291.6</ele>
        <time>2024-05-26T13:37:24Z</time>
      </trkpt>
      <trkpt lat="43.73805" lon="6.67632">
        <ele>1291.7</ele>
        <time>2024-05-26T13:37:25Z</time>
      </trkpt>
      <trkpt lat="43.73805" lon="6.67632">
        <ele>1291.8</ele>
        <time>2024-05-26T13:37:26Z</time>
      </trkpt>
      <trkpt lat="43.73804" lon="6.67632">
        <ele>1291.9</ele>
        <time>2024-05-26T13:37:27Z</time>
      </trkpt>
      <trkpt lat="43.73804" lon="6.67631">
        <ele>1292</ele>
        <time>2024-05-26T13:37:28Z</time>
      </trkpt>
      <trkpt lat="43.73803" lon="6.67632">
        <ele>1292.1</ele>
        <time>2024-05-26T13:37:29Z</time>
      </trkpt>
      <trkpt lat="43.73803" lon="6.67632">
        <ele>1292.2</ele>
        <time>2024-05-26T13:37:30Z</time>
      </trkpt>
      <trkpt lat="43.73803" lon="6.67631">
        <ele>1292.3</ele>
        <time>2024-05-26T13:37:31Z</time>
      </trkpt>
      <trkpt lat="43.73803" lon="6.67631">
        <ele>1292.3</ele>
        <time>2024-05-26T13:37:32Z</time>
      </trkpt>
      <trkpt lat="43.73802" lon="6.67632">
        <ele>1292.3</ele>
        <time>2024-05-26T13:37:33Z</time>
      </trkpt>
      <trkpt lat="43.73802" lon="6.67631">
        <ele>1292.3</ele>
        <time>2024-05-26T13:37:34Z</time>
      </trkpt>
      <trkpt lat="43.73802" lon="6.67631">
        <ele>1292.3</ele>
        <time>2024-05-26T13:37:35Z</time>
      </trkpt>
      <trkpt lat="43.73802" lon="6.67631">
        <ele>1292.3</ele>
        <time>2024-05-26T13:37:36Z</time>
      </trkpt>
      <trkpt lat="43.73802" lon="6.67631">
        <ele>1292.3</ele>
        <time>2024-05-26T13:37:37Z</time>
      </trkpt>
      <trkpt lat="43.73802" lon="6.67631">
        <ele>1292.3</ele>
        <time>2024-05-26T13:37:38Z</time>
      </trkpt>
      <trkpt lat="43.73801" lon="6.67631">
        <ele>1292.3</ele>
        <time>2024-05-26T13:37:39Z</time>
      </trkpt>
      <trkpt lat="43.73801" lon="6.67631">
        <ele>1292.3</ele>
        <time>2024-05-26T13:37:40Z</time>
      </trkpt>
      <trkpt lat="43.73801" lon="6.67631">
        <ele>1292.4</ele>
        <time>2024-05-26T13:37:41Z</time>
      </trkpt>
      <trkpt lat="43.73801" lon="6.67631">
        <ele>1292.3</ele>
        <time>2024-05-26T13:37:42Z</time>
      </trkpt>
      <trkpt lat="43.73801" lon="6.67631">
        <ele>1292.3</ele>
        <time>2024-05-26T13:37:43Z</time>
      </trkpt>
      <trkpt lat="43.73801" lon="6.67631">
        <ele>1292.3</ele>
        <time>2024-05-26T13:37:44Z</time>
      </trkpt>
      <trkpt lat="43.73801" lon="6.67631">
        <ele>1292.3</ele>
        <time>2024-05-26T13:37:45Z</time>
      </trkpt>
      <trkpt lat="43.73801" lon="6.67631">
        <ele>1292.2</ele>
        <time>2024-05-26T13:37:46Z</time>
      </trkpt>
      <trkpt lat="43.73801" lon="6.67631">
        <ele>1292.2</ele>
        <time>2024-05-26T13:37:47Z</time>
      </trkpt>
      <trkpt lat="43.73801" lon="6.67631">
        <ele>1292.2</ele>
        <time>2024-05-26T13:37:48Z</time>
      </trkpt>
      <trkpt lat="43.73801" lon="6.67631">
        <ele>1292.3</ele>
        <time>2024-05-26T13:37:49Z</time>
      </trkpt>
      <trkpt lat="43.738" lon="6.67631">
        <ele>1292.4</ele>
        <time>2024-05-26T13:37:50Z</time>
      </trkpt>
      <trkpt lat="43.738" lon="6.67631">
        <ele>1292.4</ele>
        <time>2024-05-26T13:37:51Z</time>
      </trkpt>
      <trkpt lat="43.738" lon="6.67631">
        <ele>1292.5</ele>
        <time>2024-05-26T13:37:52Z</time>
      </trkpt>
      <trkpt lat="43.738" lon="6.67631">
        <ele>1292.5</ele>
        <time>2024-05-26T13:37:53Z</time>
      </trkpt>
      <trkpt lat="43.738" lon="6.67631">
        <ele>1292.5</ele>
        <time>2024-05-26T13:37:54Z</time>
      </trkpt>
      <trkpt lat="43.738" lon="6.67631">
        <ele>1292.5</ele>
        <time>2024-05-26T13:37:55Z</time>
      </trkpt>
      <trkpt lat="43.738" lon="6.67631">
        <ele>1292.5</ele>
        <time>2024-05-26T13:37:56Z</time>
      </trkpt>
      <trkpt lat="43.738" lon="6.67631">
        <ele>1292.5</ele>
        <time>2024-05-26T13:37:57Z</time>
      </trkpt>
      <trkpt lat="43.738" lon="6.67631">
        <ele>1292.5</ele>
        <time>2024-05-26T13:37:58Z</time>
      </trkpt>
      <trkpt lat="43.738" lon="6.67631">
        <ele>1292.5</ele>
        <time>2024-05-26T13:37:59Z</time>
      </trkpt>
      <trkpt lat="43.738" lon="6.67631">
        <ele>1292.5</ele>
        <time>2024-05-26T13:38:00Z</time>
      </trkpt>
      <trkpt lat="43.738" lon="6.67631">
        <ele>1292.4</ele>
        <time>2024-05-26T13:38:01Z</time>
      </trkpt>
      <trkpt lat="43.73799" lon="6.67631">
        <ele>1292.4</ele>
        <time>2024-05-26T13:38:02Z</time>
      </trkpt>
      <trkpt lat="43.73799" lon="6.67631">
        <ele>1292.3</ele>
        <time>2024-05-26T13:38:03Z</time>
      </trkpt>
      <trkpt lat="43.73799" lon="6.67631">
        <ele>1292.3</ele>
        <time>2024-05-26T13:38:04Z</time>
      </trkpt>
      <trkpt lat="43.73799" lon="6.67631">
        <ele>1292.3</ele>
        <time>2024-05-26T13:38:05Z</time>
      </trkpt>
      <trkpt lat="43.73799" lon="6.67631">
        <ele>1292.3</ele>
        <time>2024-05-26T13:38:06Z</time>
      </trkpt>
      <trkpt lat="43.73799" lon="6.67631">
        <ele>1292.3</ele>
        <time>2024-05-26T13:38:07Z</time>
      </trkpt>
      <trkpt lat="43.73799" lon="6.67631">
        <ele>1292.3</ele>
        <time>2024-05-26T13:38:08Z</time>
      </trkpt>
      <trkpt lat="43.73799" lon="6.67631">
        <ele>1292.3</ele>
        <time>2024-05-26T13:38:09Z</time>
      </trkpt>
      <trkpt lat="43.73799" lon="6.67631">
        <ele>1292.3</ele>
        <time>2024-05-26T13:38:10Z</time>
      </trkpt>
      <trkpt lat="43.73799" lon="6.67631">
        <ele>1292.4</ele>
        <time>2024-05-26T13:38:11Z</time>
      </trkpt>
      <trkpt lat="43.73799" lon="6.67631">
        <ele>1292.4</ele>
        <time>2024-05-26T13:38:12Z</time>
      </trkpt>
      <trkpt lat="43.73799" lon="6.67631">
        <ele>1292.4</ele>
        <time>2024-05-26T13:38:13Z</time>
      </trkpt>
      <trkpt lat="43.73799" lon="6.67631">
        <ele>1292.4</ele>
        <time>2024-05-26T13:38:14Z</time>
      </trkpt>
      <trkpt lat="43.73799" lon="6.67631">
        <ele>1292.4</ele>
        <time>2024-05-26T13:38:15Z</time>
      </trkpt>
      <trkpt lat="43.73799" lon="6.67631">
        <ele>1292.5</ele>
        <time>2024-05-26T13:38:16Z</time>
      </trkpt>
      <trkpt lat="43.73799" lon="6.67631">
        <ele>1292.4</ele>
        <time>2024-05-26T13:38:17Z</time>
      </trkpt>
      <trkpt lat="43.73799" lon="6.67631">
        <ele>1292.4</ele>
        <time>2024-05-26T13:38:18Z</time>
      </trkpt>
      <trkpt lat="43.73799" lon="6.67631">
        <ele>1292.4</ele>
        <time>2024-05-26T13:38:19Z</time>
      </trkpt>
      <trkpt lat="43.73799" lon="6.67631">
        <ele>1292.4</ele>
        <time>2024-05-26T13:38:20Z</time>
      </trkpt>
      <trkpt lat="43.73799" lon="6.67631">
        <ele>1292.4</ele>
        <time>2024-05-26T13:38:21Z</time>
      </trkpt>
      <trkpt lat="43.73799" lon="6.67631">
        <ele>1292.3</ele>
        <time>2024-05-26T13:38:22Z</time>
      </trkpt>
      <trkpt lat="43.73799" lon="6.67631">
        <ele>1292.4</ele>
        <time>2024-05-26T13:38:23Z</time>
      </trkpt>
      <trkpt lat="43.73799" lon="6.67631">
        <ele>1292.4</ele>
        <time>2024-05-26T13:38:24Z</time>
      </trkpt>
      <trkpt lat="43.73799" lon="6.6763">
        <ele>1292.4</ele>
        <time>2024-05-26T13:38:25Z</time>
      </trkpt>
      <trkpt lat="43.73799" lon="6.6763">
        <ele>1292.4</ele>
        <time>2024-05-26T13:38:26Z</time>
      </trkpt>
      <trkpt lat="43.73799" lon="6.67631">
        <ele>1292.3</ele>
        <time>2024-05-26T13:38:27Z</time>
      </trkpt>
      <trkpt lat="43.73799" lon="6.67631">
        <ele>1292.4</ele>
        <time>2024-05-26T13:38:28Z</time>
      </trkpt>
      <trkpt lat="43.73799" lon="6.67631">
        <ele>1292.4</ele>
        <time>2024-05-26T13:38:29Z</time>
      </trkpt>
      <trkpt lat="43.73798" lon="6.67631">
        <ele>1292.4</ele>
        <time>2024-05-26T13:38:30Z</time>
      </trkpt>
      <trkpt lat="43.73798" lon="6.67631">
        <ele>1292.5</ele>
        <time>2024-05-26T13:38:31Z</time>
      </trkpt>
      <trkpt lat="43.73798" lon="6.67631">
        <ele>1292.5</ele>
        <time>2024-05-26T13:38:32Z</time>
      </trkpt>
      <trkpt lat="43.73798" lon="6.67631">
        <ele>1292.7</ele>
        <time>2024-05-26T13:38:33Z</time>
      </trkpt>
      <trkpt lat="43.73798" lon="6.67631">
        <ele>1292.7</ele>
        <time>2024-05-26T13:38:34Z</time>
      </trkpt>
      <trkpt lat="43.73798" lon="6.67631">
        <ele>1292.7</ele>
        <time>2024-05-26T13:38:35Z</time>
      </trkpt>
      <trkpt lat="43.73798" lon="6.67631">
        <ele>1292.7</ele>
        <time>2024-05-26T13:38:36Z</time>
      </trkpt>
      <trkpt lat="43.73798" lon="6.67631">
        <ele>1292.7</ele>
        <time>2024-05-26T13:38:37Z</time>
      </trkpt>
      <trkpt lat="43.73798" lon="6.67631">
        <ele>1292.8</ele>
        <time>2024-05-26T13:38:38Z</time>
      </trkpt>
      <trkpt lat="43.73798" lon="6.67631">
        <ele>1292.8</ele>
        <time>2024-05-26T13:38:39Z</time>
      </trkpt>
      <trkpt lat="43.73798" lon="6.67631">
        <ele>1292.9</ele>
        <time>2024-05-26T13:38:40Z</time>
      </trkpt>
      <trkpt lat="43.73798" lon="6.67631">
        <ele>1292.8</ele>
        <time>2024-05-26T13:38:41Z</time>
      </trkpt>
      <trkpt lat="43.73798" lon="6.67631">
        <ele>1292.7</ele>
        <time>2024-05-26T13:38:42Z</time>
      </trkpt>
      <trkpt lat="43.73798" lon="6.67631">
        <ele>1292.7</ele>
        <time>2024-05-26T13:38:43Z</time>
      </trkpt>
      <trkpt lat="43.73798" lon="6.67631">
        <ele>1292.7</ele>
        <time>2024-05-26T13:38:44Z</time>
      </trkpt>
      <trkpt lat="43.73798" lon="6.67631">
        <ele>1292.8</ele>
        <time>2024-05-26T13:38:45Z</time>
      </trkpt>
      <trkpt lat="43.73798" lon="6.67631">
        <ele>1292.8</ele>
        <time>2024-05-26T13:38:46Z</time>
      </trkpt>
      <trkpt lat="43.73798" lon="6.6763">
        <ele>1292.9</ele>
        <time>2024-05-26T13:38:47Z</time>
      </trkpt>
      <trkpt lat="43.73798" lon="6.6763">
        <ele>1292.9</ele>
        <time>2024-05-26T13:38:48Z</time>
      </trkpt>
      <trkpt lat="43.73798" lon="6.6763">
        <ele>1292.9</ele>
        <time>2024-05-26T13:38:49Z</time>
      </trkpt>
      <trkpt lat="43.73798" lon="6.6763">
        <ele>1292.9</ele>
        <time>2024-05-26T13:38:50Z</time>
      </trkpt>
      <trkpt lat="43.73798" lon="6.6763">
        <ele>1292.9</ele>
        <time>2024-05-26T13:38:51Z</time>
      </trkpt>
      <trkpt lat="43.73798" lon="6.6763">
        <ele>1293</ele>
        <time>2024-05-26T13:38:52Z</time>
      </trkpt>
      <trkpt lat="43.73798" lon="6.6763">
        <ele>1293</ele>
        <time>2024-05-26T13:38:53Z</time>
      </trkpt>
      <trkpt lat="43.73798" lon="6.6763">
        <ele>1293</ele>
        <time>2024-05-26T13:38:54Z</time>
      </trkpt>
      <trkpt lat="43.73798" lon="6.6763">
        <ele>1292.9</ele>
        <time>2024-05-26T13:38:55Z</time>
      </trkpt>
      <trkpt lat="43.73798" lon="6.6763">
        <ele>1293</ele>
        <time>2024-05-26T13:38:56Z</time>
      </trkpt>
      <trkpt lat="43.73798" lon="6.6763">
        <ele>1293</ele>
        <time>2024-05-26T13:38:57Z</time>
      </trkpt>
      <trkpt lat="43.73798" lon="6.6763">
        <ele>1293</ele>
        <time>2024-05-26T13:38:58Z</time>
      </trkpt>
      <trkpt lat="43.73798" lon="6.6763">
        <ele>1293.1</ele>
        <time>2024-05-26T13:38:59Z</time>
      </trkpt>
      <trkpt lat="43.73798" lon="6.6763">
        <ele>1293.1</ele>
        <time>2024-05-26T13:39:00Z</time>
      </trkpt>
      <trkpt lat="43.73798" lon="6.6763">
        <ele>1293.1</ele>
        <time>2024-05-26T13:39:01Z</time>
      </trkpt>
      <trkpt lat="43.73798" lon="6.6763">
        <ele>1293.1</ele>
        <time>2024-05-26T13:39:02Z</time>
      </trkpt>
      <trkpt lat="43.73798" lon="6.6763">
        <ele>1293.1</ele>
        <time>2024-05-26T13:39:03Z</time>
      </trkpt>
      <trkpt lat="43.73798" lon="6.6763">
        <ele>1293.1</ele>
        <time>2024-05-26T13:39:04Z</time>
      </trkpt>
      <trkpt lat="43.73798" lon="6.6763">
        <ele>1293.1</ele>
        <time>2024-05-26T13:39:05Z</time>
      </trkpt>
      <trkpt lat="43.73798" lon="6.67631">
        <ele>1293.2</ele>
        <time>2024-05-26T13:39:06Z</time>
      </trkpt>
      <trkpt lat="43.73798" lon="6.67631">
        <ele>1293.2</ele>
        <time>2024-05-26T13:39:07Z</time>
      </trkpt>
      <trkpt lat="43.73798" lon="6.67631">
        <ele>1293.1</ele>
        <time>2024-05-26T13:39:08Z</time>
      </trkpt>
      <trkpt lat="43.73798" lon="6.67631">
        <ele>1293.1</ele>
        <time>2024-05-26T13:39:09Z</time>
      </trkpt>
      <trkpt lat="43.73798" lon="6.67631">
        <ele>1293.1</ele>
        <time>2024-05-26T13:39:10Z</time>
      </trkpt>
      <trkpt lat="43.73798" lon="6.67631">
        <ele>1293.1</ele>
        <time>2024-05-26T13:39:11Z</time>
      </trkpt>
      <trkpt lat="43.73798" lon="6.67631">
        <ele>1293.1</ele>
        <time>2024-05-26T13:39:12Z</time>
      </trkpt>
      <trkpt lat="43.73798" lon="6.67632">
        <ele>1293.2</ele>
        <time>2024-05-26T13:39:13Z</time>
      </trkpt>
      <trkpt lat="43.73797" lon="6.67632">
        <ele>1293.2</ele>
        <time>2024-05-26T13:39:14Z</time>
      </trkpt>
      <trkpt lat="43.73797" lon="6.67632">
        <ele>1293.3</ele>
        <time>2024-05-26T13:39:15Z</time>
      </trkpt>
      <trkpt lat="43.73797" lon="6.67632">
        <ele>1293.2</ele>
        <time>2024-05-26T13:39:16Z</time>
      </trkpt>
      <trkpt lat="43.73797" lon="6.67632">
        <ele>1293.2</ele>
        <time>2024-05-26T13:39:17Z</time>
      </trkpt>
      <trkpt lat="43.73797" lon="6.67632">
        <ele>1293.2</ele>
        <time>2024-05-26T13:39:18Z</time>
      </trkpt>
      <trkpt lat="43.73797" lon="6.67632">
        <ele>1293.1</ele>
        <time>2024-05-26T13:39:19Z</time>
      </trkpt>
      <trkpt lat="43.73797" lon="6.67632">
        <ele>1293.1</ele>
        <time>2024-05-26T13:39:20Z</time>
      </trkpt>
      <trkpt lat="43.73797" lon="6.67632">
        <ele>1293.1</ele>
        <time>2024-05-26T13:39:21Z</time>
      </trkpt>
      <trkpt lat="43.73797" lon="6.67632">
        <ele>1293.2</ele>
        <time>2024-05-26T13:39:22Z</time>
      </trkpt>
      <trkpt lat="43.73797" lon="6.67632">
        <ele>1293.1</ele>
        <time>2024-05-26T13:39:23Z</time>
      </trkpt>
      <trkpt lat="43.73797" lon="6.67632">
        <ele>1293</ele>
        <time>2024-05-26T13:39:24Z</time>
      </trkpt>
      <trkpt lat="43.73797" lon="6.67632">
        <ele>1293</ele>
        <time>2024-05-26T13:39:25Z</time>
      </trkpt>
      <trkpt lat="43.73796" lon="6.67633">
        <ele>1293</ele>
        <time>2024-05-26T13:39:26Z</time>
      </trkpt>
      <trkpt lat="43.73796" lon="6.67633">
        <ele>1293</ele>
        <time>2024-05-26T13:39:27Z</time>
      </trkpt>
      <trkpt lat="43.73796" lon="6.67633">
        <ele>1293</ele>
        <time>2024-05-26T13:39:28Z</time>
      </trkpt>
      <trkpt lat="43.73796" lon="6.67633">
        <ele>1293</ele>
        <time>2024-05-26T13:39:29Z</time>
      </trkpt>
      <trkpt lat="43.73796" lon="6.67633">
        <ele>1292.9</ele>
        <time>2024-05-26T13:39:30Z</time>
      </trkpt>
      <trkpt lat="43.73796" lon="6.67633">
        <ele>1292.9</ele>
        <time>2024-05-26T13:39:31Z</time>
      </trkpt>
      <trkpt lat="43.73796" lon="6.67633">
        <ele>1292.9</ele>
        <time>2024-05-26T13:39:32Z</time>
      </trkpt>
      <trkpt lat="43.73796" lon="6.67632">
        <ele>1292.9</ele>
        <time>2024-05-26T13:39:33Z</time>
      </trkpt>
      <trkpt lat="43.73796" lon="6.67631">
        <ele>1292.9</ele>
        <time>2024-05-26T13:39:34Z</time>
      </trkpt>
      <trkpt lat="43.73795" lon="6.67631">
        <ele>1292.9</ele>
        <time>2024-05-26T13:39:35Z</time>
      </trkpt>
      <trkpt lat="43.73794" lon="6.67631">
        <ele>1293</ele>
        <time>2024-05-26T13:39:36Z</time>
      </trkpt>
      <trkpt lat="43.73793" lon="6.6763">
        <ele>1293.1</ele>
        <time>2024-05-26T13:39:37Z</time>
      </trkpt>
      <trkpt lat="43.73793" lon="6.6763">
        <ele>1293.1</ele>
        <time>2024-05-26T13:39:38Z</time>
      </trkpt>
      <trkpt lat="43.73792" lon="6.67629">
        <ele>1293.1</ele>
        <time>2024-05-26T13:39:39Z</time>
      </trkpt>
      <trkpt lat="43.73792" lon="6.67628">
        <ele>1293</ele>
        <time>2024-05-26T13:39:40Z</time>
      </trkpt>
      <trkpt lat="43.73791" lon="6.67628">
        <ele>1293.1</ele>
        <time>2024-05-26T13:39:41Z</time>
      </trkpt>
      <trkpt lat="43.73791" lon="6.67628">
        <ele>1293.1</ele>
        <time>2024-05-26T13:39:42Z</time>
      </trkpt>
      <trkpt lat="43.7379" lon="6.67627">
        <ele>1293.3</ele>
        <time>2024-05-26T13:39:43Z</time>
      </trkpt>
      <trkpt lat="43.7379" lon="6.67626">
        <ele>1293.4</ele>
        <time>2024-05-26T13:39:44Z</time>
      </trkpt>
      <trkpt lat="43.73789" lon="6.67626">
        <ele>1293.5</ele>
        <time>2024-05-26T13:39:45Z</time>
      </trkpt>
      <trkpt lat="43.73788" lon="6.67625">
        <ele>1293.5</ele>
        <time>2024-05-26T13:39:46Z</time>
      </trkpt>
      <trkpt lat="43.73788" lon="6.67624">
        <ele>1293.6</ele>
        <time>2024-05-26T13:39:47Z</time>
      </trkpt>
      <trkpt lat="43.73787" lon="6.67623">
        <ele>1293.7</ele>
        <time>2024-05-26T13:39:48Z</time>
      </trkpt>
      <trkpt lat="43.73786" lon="6.67623">
        <ele>1293.8</ele>
        <time>2024-05-26T13:39:49Z</time>
      </trkpt>
      <trkpt lat="43.73786" lon="6.67622">
        <ele>1293.9</ele>
        <time>2024-05-26T13:39:50Z</time>
      </trkpt>
      <trkpt lat="43.73785" lon="6.67621">
        <ele>1294</ele>
        <time>2024-05-26T13:39:51Z</time>
      </trkpt>
      <trkpt lat="43.73784" lon="6.67621">
        <ele>1294.1</ele>
        <time>2024-05-26T13:39:52Z</time>
      </trkpt>
      <trkpt lat="43.73783" lon="6.6762">
        <ele>1294.2</ele>
        <time>2024-05-26T13:39:53Z</time>
      </trkpt>
      <trkpt lat="43.73783" lon="6.6762">
        <ele>1294.3</ele>
        <time>2024-05-26T13:39:54Z</time>
      </trkpt>
      <trkpt lat="43.73782" lon="6.67619">
        <ele>1294.4</ele>
        <time>2024-05-26T13:39:55Z</time>
      </trkpt>
      <trkpt lat="43.73781" lon="6.67618">
        <ele>1294.5</ele>
        <time>2024-05-26T13:39:56Z</time>
      </trkpt>
      <trkpt lat="43.73781" lon="6.67617">
        <ele>1294.6</ele>
        <time>2024-05-26T13:39:57Z</time>
      </trkpt>
      <trkpt lat="43.73781" lon="6.67615">
        <ele>1294.7</ele>
        <time>2024-05-26T13:39:58Z</time>
      </trkpt>
      <trkpt lat="43.7378" lon="6.67614">
        <ele>1294.8</ele>
        <time>2024-05-26T13:39:59Z</time>
      </trkpt>
      <trkpt lat="43.7378" lon="6.67613">
        <ele>1294.8</ele>
        <time>2024-05-26T13:40:00Z</time>
      </trkpt>
      <trkpt lat="43.7378" lon="6.67611">
        <ele>1294.9</ele>
        <time>2024-05-26T13:40:01Z</time>
      </trkpt>
      <trkpt lat="43.73779" lon="6.6761">
        <ele>1294.9</ele>
        <time>2024-05-26T13:40:02Z</time>
      </trkpt>
      <trkpt lat="43.73779" lon="6.67609">
        <ele>1295</ele>
        <time>2024-05-26T13:40:03Z</time>
      </trkpt>
      <trkpt lat="43.73779" lon="6.67608">
        <ele>1295.2</ele>
        <time>2024-05-26T13:40:04Z</time>
      </trkpt>
      <trkpt lat="43.73779" lon="6.67606">
        <ele>1295.3</ele>
        <time>2024-05-26T13:40:05Z</time>
      </trkpt>
      <trkpt lat="43.73779" lon="6.67605">
        <ele>1295.4</ele>
        <time>2024-05-26T13:40:06Z</time>
      </trkpt>
      <trkpt lat="43.73779" lon="6.67604">
        <ele>1295.6</ele>
        <time>2024-05-26T13:40:07Z</time>
      </trkpt>
      <trkpt lat="43.73779" lon="6.67603">
        <ele>1295.6</ele>
        <time>2024-05-26T13:40:08Z</time>
      </trkpt>
      <trkpt lat="43.73779" lon="6.67603">
        <ele>1295.7</ele>
        <time>2024-05-26T13:40:09Z</time>
      </trkpt>
      <trkpt lat="43.7378" lon="6.67603">
        <ele>1295.8</ele>
        <time>2024-05-26T13:40:10Z</time>
      </trkpt>
      <trkpt lat="43.7378" lon="6.67603">
        <ele>1295.9</ele>
        <time>2024-05-26T13:40:11Z</time>
      </trkpt>
      <trkpt lat="43.7378" lon="6.67602">
        <ele>1296</ele>
        <time>2024-05-26T13:40:12Z</time>
      </trkpt>
      <trkpt lat="43.7378" lon="6.67602">
        <ele>1296.1</ele>
        <time>2024-05-26T13:40:13Z</time>
      </trkpt>
      <trkpt lat="43.7378" lon="6.67603">
        <ele>1296.2</ele>
        <time>2024-05-26T13:40:14Z</time>
      </trkpt>
      <trkpt lat="43.7378" lon="6.67603">
        <ele>1296.3</ele>
        <time>2024-05-26T13:40:15Z</time>
      </trkpt>
      <trkpt lat="43.7378" lon="6.67603">
        <ele>1296.4</ele>
        <time>2024-05-26T13:40:16Z</time>
      </trkpt>
      <trkpt lat="43.7378" lon="6.67603">
        <ele>1296.4</ele>
        <time>2024-05-26T13:40:17Z</time>
      </trkpt>
      <trkpt lat="43.7378" lon="6.67603">
        <ele>1296.4</ele>
        <time>2024-05-26T13:40:18Z</time>
      </trkpt>
      <trkpt lat="43.7378" lon="6.67603">
        <ele>1296.3</ele>
        <time>2024-05-26T13:40:19Z</time>
      </trkpt>
      <trkpt lat="43.73779" lon="6.67603">
        <ele>1296.3</ele>
        <time>2024-05-26T13:40:20Z</time>
      </trkpt>
      <trkpt lat="43.73779" lon="6.67603">
        <ele>1296.3</ele>
        <time>2024-05-26T13:40:21Z</time>
      </trkpt>
      <trkpt lat="43.73779" lon="6.67603">
        <ele>1296.3</ele>
        <time>2024-05-26T13:40:22Z</time>
      </trkpt>
      <trkpt lat="43.73779" lon="6.67603">
        <ele>1296.1</ele>
        <time>2024-05-26T13:40:23Z</time>
      </trkpt>
      <trkpt lat="43.7378" lon="6.67602">
        <ele>1296.2</ele>
        <time>2024-05-26T13:40:24Z</time>
      </trkpt>
      <trkpt lat="43.7378" lon="6.67601">
        <ele>1296.2</ele>
        <time>2024-05-26T13:40:25Z</time>
      </trkpt>
      <trkpt lat="43.7378" lon="6.676">
        <ele>1296.3</ele>
        <time>2024-05-26T13:40:26Z</time>
      </trkpt>
      <trkpt lat="43.7378" lon="6.67599">
        <ele>1296.3</ele>
        <time>2024-05-26T13:40:27Z</time>
      </trkpt>
      <trkpt lat="43.7378" lon="6.67599">
        <ele>1296.3</ele>
        <time>2024-05-26T13:40:28Z</time>
      </trkpt>
      <trkpt lat="43.7378" lon="6.67598">
        <ele>1296.3</ele>
        <time>2024-05-26T13:40:29Z</time>
      </trkpt>
      <trkpt lat="43.7378" lon="6.67597">
        <ele>1296.5</ele>
        <time>2024-05-26T13:40:30Z</time>
      </trkpt>
      <trkpt lat="43.73779" lon="6.67596">
        <ele>1296.6</ele>
        <time>2024-05-26T13:40:31Z</time>
      </trkpt>
      <trkpt lat="43.73779" lon="6.67595">
        <ele>1296.6</ele>
        <time>2024-05-26T13:40:32Z</time>
      </trkpt>
      <trkpt lat="43.73779" lon="6.67595">
        <ele>1296.6</ele>
        <time>2024-05-26T13:40:33Z</time>
      </trkpt>
      <trkpt lat="43.73779" lon="6.67595">
        <ele>1296.7</ele>
        <time>2024-05-26T13:40:34Z</time>
      </trkpt>
      <trkpt lat="43.73779" lon="6.67595">
        <ele>1296.6</ele>
        <time>2024-05-26T13:40:35Z</time>
      </trkpt>
      <trkpt lat="43.73779" lon="6.67595">
        <ele>1296.6</ele>
        <time>2024-05-26T13:40:36Z</time>
      </trkpt>
      <trkpt lat="43.73779" lon="6.67595">
        <ele>1296.6</ele>
        <time>2024-05-26T13:40:37Z</time>
      </trkpt>
      <trkpt lat="43.73779" lon="6.67595">
        <ele>1296.7</ele>
        <time>2024-05-26T13:40:38Z</time>
      </trkpt>
      <trkpt lat="43.73779" lon="6.67594">
        <ele>1296.6</ele>
        <time>2024-05-26T13:40:39Z</time>
      </trkpt>
      <trkpt lat="43.73779" lon="6.67593">
        <ele>1296.6</ele>
        <time>2024-05-26T13:40:40Z</time>
      </trkpt>
      <trkpt lat="43.73779" lon="6.67593">
        <ele>1296.5</ele>
        <time>2024-05-26T13:40:41Z</time>
      </trkpt>
      <trkpt lat="43.73779" lon="6.67593">
        <ele>1296.6</ele>
        <time>2024-05-26T13:40:42Z</time>
      </trkpt>
      <trkpt lat="43.73779" lon="6.67593">
        <ele>1296.6</ele>
        <time>2024-05-26T13:40:43Z</time>
      </trkpt>
      <trkpt lat="43.73779" lon="6.67593">
        <ele>1296.6</ele>
        <time>2024-05-26T13:40:44Z</time>
      </trkpt>
      <trkpt lat="43.73779" lon="6.67593">
        <ele>1296.5</ele>
        <time>2024-05-26T13:40:45Z</time>
      </trkpt>
      <trkpt lat="43.73779" lon="6.67593">
        <ele>1296.6</ele>
        <time>2024-05-26T13:40:46Z</time>
      </trkpt>
      <trkpt lat="43.73779" lon="6.67593">
        <ele>1296.8</ele>
        <time>2024-05-26T13:40:47Z</time>
      </trkpt>
      <trkpt lat="43.73779" lon="6.67593">
        <ele>1296.8</ele>
        <time>2024-05-26T13:40:48Z</time>
      </trkpt>
      <trkpt lat="43.73779" lon="6.67593">
        <ele>1296.8</ele>
        <time>2024-05-26T13:40:49Z</time>
      </trkpt>
      <trkpt lat="43.73779" lon="6.67593">
        <ele>1296.9</ele>
        <time>2024-05-26T13:40:50Z</time>
      </trkpt>
      <trkpt lat="43.73779" lon="6.67593">
        <ele>1296.9</ele>
        <time>2024-05-26T13:40:51Z</time>
      </trkpt>
      <trkpt lat="43.73779" lon="6.67593">
        <ele>1297.2</ele>
        <time>2024-05-26T13:40:52Z</time>
      </trkpt>
      <trkpt lat="43.73779" lon="6.67593">
        <ele>1297.2</ele>
        <time>2024-05-26T13:40:53Z</time>
      </trkpt>
      <trkpt lat="43.73779" lon="6.67593">
        <ele>1297.2</ele>
        <time>2024-05-26T13:40:54Z</time>
      </trkpt>
      <trkpt lat="43.73779" lon="6.67593">
        <ele>1297.2</ele>
        <time>2024-05-26T13:40:55Z</time>
      </trkpt>
      <trkpt lat="43.7378" lon="6.67593">
        <ele>1297.1</ele>
        <time>2024-05-26T13:40:56Z</time>
      </trkpt>
      <trkpt lat="43.7378" lon="6.67593">
        <ele>1297.1</ele>
        <time>2024-05-26T13:40:57Z</time>
      </trkpt>
      <trkpt lat="43.7378" lon="6.67593">
        <ele>1297</ele>
        <time>2024-05-26T13:40:58Z</time>
      </trkpt>
      <trkpt lat="43.7378" lon="6.67593">
        <ele>1297.1</ele>
        <time>2024-05-26T13:40:59Z</time>
      </trkpt>
      <trkpt lat="43.7378" lon="6.67593">
        <ele>1297.1</ele>
        <time>2024-05-26T13:41:00Z</time>
      </trkpt>
      <trkpt lat="43.7378" lon="6.67593">
        <ele>1297.2</ele>
        <time>2024-05-26T13:41:01Z</time>
      </trkpt>
      <trkpt lat="43.7378" lon="6.67592">
        <ele>1297.2</ele>
        <time>2024-05-26T13:41:02Z</time>
      </trkpt>
      <trkpt lat="43.7378" lon="6.67592">
        <ele>1297.1</ele>
        <time>2024-05-26T13:41:03Z</time>
      </trkpt>
      <trkpt lat="43.7378" lon="6.67591">
        <ele>1297.2</ele>
        <time>2024-05-26T13:41:04Z</time>
      </trkpt>
      <trkpt lat="43.7378" lon="6.6759">
        <ele>1297.2</ele>
        <time>2024-05-26T13:41:05Z</time>
      </trkpt>
      <trkpt lat="43.73779" lon="6.67589">
        <ele>1297.2</ele>
        <time>2024-05-26T13:41:06Z</time>
      </trkpt>
      <trkpt lat="43.73779" lon="6.67588">
        <ele>1297.2</ele>
        <time>2024-05-26T13:41:07Z</time>
      </trkpt>
      <trkpt lat="43.73778" lon="6.67588">
        <ele>1297.3</ele>
        <time>2024-05-26T13:41:08Z</time>
      </trkpt>
      <trkpt lat="43.73779" lon="6.67588">
        <ele>1297.3</ele>
        <time>2024-05-26T13:41:09Z</time>
      </trkpt>
      <trkpt lat="43.73778" lon="6.67587">
        <ele>1297.3</ele>
        <time>2024-05-26T13:41:10Z</time>
      </trkpt>
      <trkpt lat="43.73778" lon="6.67586">
        <ele>1297.3</ele>
        <time>2024-05-26T13:41:11Z</time>
      </trkpt>
      <trkpt lat="43.73778" lon="6.67586">
        <ele>1297.4</ele>
        <time>2024-05-26T13:41:12Z</time>
      </trkpt>
      <trkpt lat="43.73778" lon="6.67586">
        <ele>1297.3</ele>
        <time>2024-05-26T13:41:13Z</time>
      </trkpt>
      <trkpt lat="43.73778" lon="6.67586">
        <ele>1297</ele>
        <time>2024-05-26T13:41:14Z</time>
      </trkpt>
      <trkpt lat="43.73777" lon="6.67584">
        <ele>1297.1</ele>
        <time>2024-05-26T13:41:15Z</time>
      </trkpt>
      <trkpt lat="43.73777" lon="6.67584">
        <ele>1297.2</ele>
        <time>2024-05-26T13:41:16Z</time>
      </trkpt>
      <trkpt lat="43.73777" lon="6.67583">
        <ele>1297.2</ele>
        <time>2024-05-26T13:41:17Z</time>
      </trkpt>
      <trkpt lat="43.73776" lon="6.67583">
        <ele>1297.1</ele>
        <time>2024-05-26T13:41:18Z</time>
      </trkpt>
      <trkpt lat="43.73776" lon="6.67582">
        <ele>1297.2</ele>
        <time>2024-05-26T13:41:19Z</time>
      </trkpt>
      <trkpt lat="43.73776" lon="6.67581">
        <ele>1297.2</ele>
        <time>2024-05-26T13:41:20Z</time>
      </trkpt>
      <trkpt lat="43.73775" lon="6.6758">
        <ele>1297.2</ele>
        <time>2024-05-26T13:41:21Z</time>
      </trkpt>
      <trkpt lat="43.73775" lon="6.67579">
        <ele>1297.2</ele>
        <time>2024-05-26T13:41:22Z</time>
      </trkpt>
      <trkpt lat="43.73774" lon="6.67578">
        <ele>1296.8</ele>
        <time>2024-05-26T13:41:23Z</time>
      </trkpt>
      <trkpt lat="43.73774" lon="6.67577">
        <ele>1296.8</ele>
        <time>2024-05-26T13:41:24Z</time>
      </trkpt>
      <trkpt lat="43.73773" lon="6.67576">
        <ele>1296.8</ele>
        <time>2024-05-26T13:41:25Z</time>
      </trkpt>
      <trkpt lat="43.73773" lon="6.67576">
        <ele>1296.8</ele>
        <time>2024-05-26T13:41:26Z</time>
      </trkpt>
      <trkpt lat="43.73772" lon="6.67575">
        <ele>1296.8</ele>
        <time>2024-05-26T13:41:27Z</time>
      </trkpt>
      <trkpt lat="43.73772" lon="6.67574">
        <ele>1296.8</ele>
        <time>2024-05-26T13:41:28Z</time>
      </trkpt>
      <trkpt lat="43.73771" lon="6.67574">
        <ele>1296.8</ele>
        <time>2024-05-26T13:41:29Z</time>
      </trkpt>
      <trkpt lat="43.73771" lon="6.67573">
        <ele>1296.8</ele>
        <time>2024-05-26T13:41:30Z</time>
      </trkpt>
      <trkpt lat="43.73771" lon="6.67572">
        <ele>1296.7</ele>
        <time>2024-05-26T13:41:31Z</time>
      </trkpt>
      <trkpt lat="43.7377" lon="6.67571">
        <ele>1296.7</ele>
        <time>2024-05-26T13:41:32Z</time>
      </trkpt>
      <trkpt lat="43.7377" lon="6.6757">
        <ele>1296.7</ele>
        <time>2024-05-26T13:41:33Z</time>
      </trkpt>
      <trkpt lat="43.73769" lon="6.67569">
        <ele>1296.6</ele>
        <time>2024-05-26T13:41:34Z</time>
      </trkpt>
      <trkpt lat="43.73769" lon="6.67567">
        <ele>1296.5</ele>
        <time>2024-05-26T13:41:35Z</time>
      </trkpt>
      <trkpt lat="43.73769" lon="6.67566">
        <ele>1296.5</ele>
        <time>2024-05-26T13:41:36Z</time>
      </trkpt>
      <trkpt lat="43.73768" lon="6.67565">
        <ele>1296.5</ele>
        <time>2024-05-26T13:41:37Z</time>
      </trkpt>
      <trkpt lat="43.73768" lon="6.67563">
        <ele>1296.5</ele>
        <time>2024-05-26T13:41:38Z</time>
      </trkpt>
      <trkpt lat="43.73767" lon="6.67562">
        <ele>1296.5</ele>
        <time>2024-05-26T13:41:39Z</time>
      </trkpt>
      <trkpt lat="43.73767" lon="6.67561">
        <ele>1296.4</ele>
        <time>2024-05-26T13:41:40Z</time>
      </trkpt>
      <trkpt lat="43.73766" lon="6.67559">
        <ele>1296.4</ele>
        <time>2024-05-26T13:41:41Z</time>
      </trkpt>
      <trkpt lat="43.73766" lon="6.67558">
        <ele>1296.5</ele>
        <time>2024-05-26T13:41:42Z</time>
      </trkpt>
      <trkpt lat="43.73766" lon="6.67557">
        <ele>1296.6</ele>
        <time>2024-05-26T13:41:43Z</time>
      </trkpt>
      <trkpt lat="43.73766" lon="6.67556">
        <ele>1296.6</ele>
        <time>2024-05-26T13:41:44Z</time>
      </trkpt>
      <trkpt lat="43.73765" lon="6.67555">
        <ele>1296.7</ele>
        <time>2024-05-26T13:41:45Z</time>
      </trkpt>
      <trkpt lat="43.73765" lon="6.67554">
        <ele>1296.7</ele>
        <time>2024-05-26T13:41:46Z</time>
      </trkpt>
      <trkpt lat="43.73765" lon="6.67552">
        <ele>1296.7</ele>
        <time>2024-05-26T13:41:47Z</time>
      </trkpt>
      <trkpt lat="43.73765" lon="6.67551">
        <ele>1296.6</ele>
        <time>2024-05-26T13:41:48Z</time>
      </trkpt>
      <trkpt lat="43.73764" lon="6.67549">
        <ele>1296.5</ele>
        <time>2024-05-26T13:41:49Z</time>
      </trkpt>
      <trkpt lat="43.73764" lon="6.67548">
        <ele>1296.5</ele>
        <time>2024-05-26T13:41:50Z</time>
      </trkpt>
      <trkpt lat="43.73763" lon="6.67547">
        <ele>1296.5</ele>
        <time>2024-05-26T13:41:51Z</time>
      </trkpt>
      <trkpt lat="43.73763" lon="6.67546">
        <ele>1296.5</ele>
        <time>2024-05-26T13:41:52Z</time>
      </trkpt>
      <trkpt lat="43.73763" lon="6.67544">
        <ele>1296.5</ele>
        <time>2024-05-26T13:41:53Z</time>
      </trkpt>
      <trkpt lat="43.73763" lon="6.67543">
        <ele>1296.4</ele>
        <time>2024-05-26T13:41:54Z</time>
      </trkpt>
      <trkpt lat="43.73763" lon="6.67542">
        <ele>1296.4</ele>
        <time>2024-05-26T13:41:55Z</time>
      </trkpt>
      <trkpt lat="43.73762" lon="6.67541">
        <ele>1296.4</ele>
        <time>2024-05-26T13:41:56Z</time>
      </trkpt>
      <trkpt lat="43.73762" lon="6.6754">
        <ele>1296.4</ele>
        <time>2024-05-26T13:41:57Z</time>
      </trkpt>
      <trkpt lat="43.73761" lon="6.67538">
        <ele>1296.4</ele>
        <time>2024-05-26T13:41:58Z</time>
      </trkpt>
      <trkpt lat="43.7376" lon="6.67537">
        <ele>1296.2</ele>
        <time>2024-05-26T13:41:59Z</time>
      </trkpt>
      <trkpt lat="43.73759" lon="6.67537">
        <ele>1296.2</ele>
        <time>2024-05-26T13:42:00Z</time>
      </trkpt>
      <trkpt lat="43.73758" lon="6.67536">
        <ele>1296.1</ele>
        <time>2024-05-26T13:42:01Z</time>
      </trkpt>
      <trkpt lat="43.73757" lon="6.67536">
        <ele>1296.1</ele>
        <time>2024-05-26T13:42:02Z</time>
      </trkpt>
      <trkpt lat="43.73756" lon="6.67535">
        <ele>1296</ele>
        <time>2024-05-26T13:42:03Z</time>
      </trkpt>
      <trkpt lat="43.73755" lon="6.67535">
        <ele>1295.9</ele>
        <time>2024-05-26T13:42:04Z</time>
      </trkpt>
      <trkpt lat="43.73754" lon="6.67535">
        <ele>1295.9</ele>
        <time>2024-05-26T13:42:05Z</time>
      </trkpt>
      <trkpt lat="43.73754" lon="6.67534">
        <ele>1295.7</ele>
        <time>2024-05-26T13:42:06Z</time>
      </trkpt>
      <trkpt lat="43.73753" lon="6.67533">
        <ele>1295.7</ele>
        <time>2024-05-26T13:42:07Z</time>
      </trkpt>
      <trkpt lat="43.73753" lon="6.67533">
        <ele>1295.6</ele>
        <time>2024-05-26T13:42:08Z</time>
      </trkpt>
      <trkpt lat="43.73752" lon="6.67532">
        <ele>1295.6</ele>
        <time>2024-05-26T13:42:09Z</time>
      </trkpt>
      <trkpt lat="43.73752" lon="6.67532">
        <ele>1295.5</ele>
        <time>2024-05-26T13:42:10Z</time>
      </trkpt>
      <trkpt lat="43.73751" lon="6.67532">
        <ele>1295.4</ele>
        <time>2024-05-26T13:42:11Z</time>
      </trkpt>
      <trkpt lat="43.73751" lon="6.67532">
        <ele>1295.4</ele>
        <time>2024-05-26T13:42:12Z</time>
      </trkpt>
      <trkpt lat="43.73751" lon="6.67532">
        <ele>1295.3</ele>
        <time>2024-05-26T13:42:13Z</time>
      </trkpt>
      <trkpt lat="43.73751" lon="6.67532">
        <ele>1295.3</ele>
        <time>2024-05-26T13:42:14Z</time>
      </trkpt>
      <trkpt lat="43.73751" lon="6.67532">
        <ele>1295.2</ele>
        <time>2024-05-26T13:42:15Z</time>
      </trkpt>
      <trkpt lat="43.73751" lon="6.67532">
        <ele>1295.2</ele>
        <time>2024-05-26T13:42:16Z</time>
      </trkpt>
      <trkpt lat="43.73751" lon="6.67533">
        <ele>1295.1</ele>
        <time>2024-05-26T13:42:17Z</time>
      </trkpt>
      <trkpt lat="43.73751" lon="6.67533">
        <ele>1295.1</ele>
        <time>2024-05-26T13:42:18Z</time>
      </trkpt>
      <trkpt lat="43.7375" lon="6.67532">
        <ele>1295.1</ele>
        <time>2024-05-26T13:42:19Z</time>
      </trkpt>
      <trkpt lat="43.7375" lon="6.67532">
        <ele>1295</ele>
        <time>2024-05-26T13:42:20Z</time>
      </trkpt>
      <trkpt lat="43.73749" lon="6.67533">
        <ele>1295</ele>
        <time>2024-05-26T13:42:21Z</time>
      </trkpt>
      <trkpt lat="43.73749" lon="6.67533">
        <ele>1295</ele>
        <time>2024-05-26T13:42:22Z</time>
      </trkpt>
      <trkpt lat="43.73748" lon="6.67533">
        <ele>1294.9</ele>
        <time>2024-05-26T13:42:23Z</time>
      </trkpt>
      <trkpt lat="43.73748" lon="6.67532">
        <ele>1294.9</ele>
        <time>2024-05-26T13:42:24Z</time>
      </trkpt>
      <trkpt lat="43.73747" lon="6.67532">
        <ele>1294.9</ele>
        <time>2024-05-26T13:42:25Z</time>
      </trkpt>
      <trkpt lat="43.73746" lon="6.67532">
        <ele>1294.9</ele>
        <time>2024-05-26T13:42:26Z</time>
      </trkpt>
      <trkpt lat="43.73746" lon="6.67532">
        <ele>1294.8</ele>
        <time>2024-05-26T13:42:27Z</time>
      </trkpt>
      <trkpt lat="43.73746" lon="6.67532">
        <ele>1294.8</ele>
        <time>2024-05-26T13:42:28Z</time>
      </trkpt>
      <trkpt lat="43.73746" lon="6.67532">
        <ele>1294.9</ele>
        <time>2024-05-26T13:42:29Z</time>
      </trkpt>
      <trkpt lat="43.73746" lon="6.67532">
        <ele>1294.8</ele>
        <time>2024-05-26T13:42:30Z</time>
      </trkpt>
      <trkpt lat="43.73746" lon="6.67532">
        <ele>1294.7</ele>
        <time>2024-05-26T13:42:31Z</time>
      </trkpt>
      <trkpt lat="43.73746" lon="6.67532">
        <ele>1294.7</ele>
        <time>2024-05-26T13:42:32Z</time>
      </trkpt>
      <trkpt lat="43.73746" lon="6.67532">
        <ele>1294.6</ele>
        <time>2024-05-26T13:42:33Z</time>
      </trkpt>
      <trkpt lat="43.73746" lon="6.67532">
        <ele>1294.6</ele>
        <time>2024-05-26T13:42:34Z</time>
      </trkpt>
      <trkpt lat="43.73745" lon="6.67532">
        <ele>1294.6</ele>
        <time>2024-05-26T13:42:35Z</time>
      </trkpt>
      <trkpt lat="43.73744" lon="6.67532">
        <ele>1294.6</ele>
        <time>2024-05-26T13:42:36Z</time>
      </trkpt>
      <trkpt lat="43.73744" lon="6.67533">
        <ele>1294.6</ele>
        <time>2024-05-26T13:42:37Z</time>
      </trkpt>
      <trkpt lat="43.73743" lon="6.67533">
        <ele>1294.6</ele>
        <time>2024-05-26T13:42:38Z</time>
      </trkpt>
      <trkpt lat="43.73742" lon="6.67532">
        <ele>1294.6</ele>
        <time>2024-05-26T13:42:39Z</time>
      </trkpt>
      <trkpt lat="43.73741" lon="6.67532">
        <ele>1294.6</ele>
        <time>2024-05-26T13:42:40Z</time>
      </trkpt>
      <trkpt lat="43.7374" lon="6.67531">
        <ele>1294.7</ele>
        <time>2024-05-26T13:42:41Z</time>
      </trkpt>
      <trkpt lat="43.73739" lon="6.67531">
        <ele>1294.7</ele>
        <time>2024-05-26T13:42:42Z</time>
      </trkpt>
      <trkpt lat="43.73738" lon="6.6753">
        <ele>1294.7</ele>
        <time>2024-05-26T13:42:43Z</time>
      </trkpt>
      <trkpt lat="43.73737" lon="6.6753">
        <ele>1294.7</ele>
        <time>2024-05-26T13:42:44Z</time>
      </trkpt>
      <trkpt lat="43.73736" lon="6.6753">
        <ele>1294.7</ele>
        <time>2024-05-26T13:42:45Z</time>
      </trkpt>
      <trkpt lat="43.73735" lon="6.67529">
        <ele>1294.7</ele>
        <time>2024-05-26T13:42:46Z</time>
      </trkpt>
      <trkpt lat="43.73734" lon="6.67528">
        <ele>1294.6</ele>
        <time>2024-05-26T13:42:47Z</time>
      </trkpt>
      <trkpt lat="43.73733" lon="6.67527">
        <ele>1294.5</ele>
        <time>2024-05-26T13:42:48Z</time>
      </trkpt>
      <trkpt lat="43.73732" lon="6.67526">
        <ele>1294.5</ele>
        <time>2024-05-26T13:42:49Z</time>
      </trkpt>
      <trkpt lat="43.7373" lon="6.67525">
        <ele>1294.4</ele>
        <time>2024-05-26T13:42:50Z</time>
      </trkpt>
      <trkpt lat="43.73729" lon="6.67525">
        <ele>1294.4</ele>
        <time>2024-05-26T13:42:51Z</time>
      </trkpt>
      <trkpt lat="43.73728" lon="6.67524">
        <ele>1294.2</ele>
        <time>2024-05-26T13:42:52Z</time>
      </trkpt>
      <trkpt lat="43.73727" lon="6.67524">
        <ele>1294.1</ele>
        <time>2024-05-26T13:42:53Z</time>
      </trkpt>
      <trkpt lat="43.73726" lon="6.67523">
        <ele>1294.2</ele>
        <time>2024-05-26T13:42:54Z</time>
      </trkpt>
      <trkpt lat="43.73725" lon="6.67522">
        <ele>1294.2</ele>
        <time>2024-05-26T13:42:55Z</time>
      </trkpt>
      <trkpt lat="43.73724" lon="6.67522">
        <ele>1294.2</ele>
        <time>2024-05-26T13:42:56Z</time>
      </trkpt>
      <trkpt lat="43.73723" lon="6.67521">
        <ele>1294.1</ele>
        <time>2024-05-26T13:42:57Z</time>
      </trkpt>
      <trkpt lat="43.73722" lon="6.6752">
        <ele>1294.1</ele>
        <time>2024-05-26T13:42:58Z</time>
      </trkpt>
      <trkpt lat="43.73721" lon="6.6752">
        <ele>1294</ele>
        <time>2024-05-26T13:42:59Z</time>
      </trkpt>
      <trkpt lat="43.73719" lon="6.67519">
        <ele>1293.9</ele>
        <time>2024-05-26T13:43:00Z</time>
      </trkpt>
      <trkpt lat="43.73718" lon="6.67518">
        <ele>1293.8</ele>
        <time>2024-05-26T13:43:01Z</time>
      </trkpt>
      <trkpt lat="43.73717" lon="6.67518">
        <ele>1293.8</ele>
        <time>2024-05-26T13:43:02Z</time>
      </trkpt>
      <trkpt lat="43.73716" lon="6.67517">
        <ele>1293.7</ele>
        <time>2024-05-26T13:43:03Z</time>
      </trkpt>
      <trkpt lat="43.73715" lon="6.67517">
        <ele>1293.6</ele>
        <time>2024-05-26T13:43:04Z</time>
      </trkpt>
      <trkpt lat="43.73714" lon="6.67516">
        <ele>1293.5</ele>
        <time>2024-05-26T13:43:05Z</time>
      </trkpt>
      <trkpt lat="43.73713" lon="6.67515">
        <ele>1293.5</ele>
        <time>2024-05-26T13:43:06Z</time>
      </trkpt>
      <trkpt lat="43.73712" lon="6.67514">
        <ele>1293.5</ele>
        <time>2024-05-26T13:43:07Z</time>
      </trkpt>
      <trkpt lat="43.73711" lon="6.67512">
        <ele>1293.4</ele>
        <time>2024-05-26T13:43:08Z</time>
      </trkpt>
      <trkpt lat="43.7371" lon="6.67511">
        <ele>1293.3</ele>
        <time>2024-05-26T13:43:09Z</time>
      </trkpt>
      <trkpt lat="43.73709" lon="6.6751">
        <ele>1293.3</ele>
        <time>2024-05-26T13:43:10Z</time>
      </trkpt>
      <trkpt lat="43.73708" lon="6.67509">
        <ele>1293.3</ele>
        <time>2024-05-26T13:43:11Z</time>
      </trkpt>
      <trkpt lat="43.73707" lon="6.67508">
        <ele>1293.2</ele>
        <time>2024-05-26T13:43:12Z</time>
      </trkpt>
      <trkpt lat="43.73706" lon="6.67507">
        <ele>1293.2</ele>
        <time>2024-05-26T13:43:13Z</time>
      </trkpt>
      <trkpt lat="43.73705" lon="6.67506">
        <ele>1293.4</ele>
        <time>2024-05-26T13:43:14Z</time>
      </trkpt>
      <trkpt lat="43.73704" lon="6.67505">
        <ele>1293.4</ele>
        <time>2024-05-26T13:43:15Z</time>
      </trkpt>
      <trkpt lat="43.73704" lon="6.67504">
        <ele>1293.4</ele>
        <time>2024-05-26T13:43:16Z</time>
      </trkpt>
      <trkpt lat="43.73703" lon="6.67502">
        <ele>1293.3</ele>
        <time>2024-05-26T13:43:17Z</time>
      </trkpt>
      <trkpt lat="43.73702" lon="6.67501">
        <ele>1293.3</ele>
        <time>2024-05-26T13:43:18Z</time>
      </trkpt>
      <trkpt lat="43.73701" lon="6.67499">
        <ele>1293.3</ele>
        <time>2024-05-26T13:43:19Z</time>
      </trkpt>
      <trkpt lat="43.73701" lon="6.67498">
        <ele>1293.3</ele>
        <time>2024-05-26T13:43:20Z</time>
      </trkpt>
      <trkpt lat="43.73701" lon="6.67497">
        <ele>1293.3</ele>
        <time>2024-05-26T13:43:21Z</time>
      </trkpt>
      <trkpt lat="43.737" lon="6.67496">
        <ele>1293.3</ele>
        <time>2024-05-26T13:43:22Z</time>
      </trkpt>
      <trkpt lat="43.737" lon="6.67494">
        <ele>1293.3</ele>
        <time>2024-05-26T13:43:23Z</time>
      </trkpt>
      <trkpt lat="43.737" lon="6.67493">
        <ele>1293.4</ele>
        <time>2024-05-26T13:43:24Z</time>
      </trkpt>
      <trkpt lat="43.737" lon="6.67492">
        <ele>1293.4</ele>
        <time>2024-05-26T13:43:25Z</time>
      </trkpt>
      <trkpt lat="43.73699" lon="6.67491">
        <ele>1293.5</ele>
        <time>2024-05-26T13:43:26Z</time>
      </trkpt>
      <trkpt lat="43.73699" lon="6.6749">
        <ele>1293.5</ele>
        <time>2024-05-26T13:43:27Z</time>
      </trkpt>
      <trkpt lat="43.73698" lon="6.6749">
        <ele>1293.5</ele>
        <time>2024-05-26T13:43:28Z</time>
      </trkpt>
      <trkpt lat="43.73698" lon="6.6749">
        <ele>1293.6</ele>
        <time>2024-05-26T13:43:29Z</time>
      </trkpt>
      <trkpt lat="43.73698" lon="6.6749">
        <ele>1293.6</ele>
        <time>2024-05-26T13:43:30Z</time>
      </trkpt>
      <trkpt lat="43.73698" lon="6.67489">
        <ele>1293.6</ele>
        <time>2024-05-26T13:43:31Z</time>
      </trkpt>
      <trkpt lat="43.73698" lon="6.67488">
        <ele>1293.7</ele>
        <time>2024-05-26T13:43:32Z</time>
      </trkpt>
      <trkpt lat="43.73698" lon="6.67487">
        <ele>1293.7</ele>
        <time>2024-05-26T13:43:33Z</time>
      </trkpt>
      <trkpt lat="43.73698" lon="6.67485">
        <ele>1293.7</ele>
        <time>2024-05-26T13:43:34Z</time>
      </trkpt>
      <trkpt lat="43.73698" lon="6.67484">
        <ele>1293.6</ele>
        <time>2024-05-26T13:43:35Z</time>
      </trkpt>
      <trkpt lat="43.73698" lon="6.67483">
        <ele>1293.6</ele>
        <time>2024-05-26T13:43:36Z</time>
      </trkpt>
      <trkpt lat="43.73699" lon="6.67481">
        <ele>1293.6</ele>
        <time>2024-05-26T13:43:37Z</time>
      </trkpt>
      <trkpt lat="43.73699" lon="6.6748">
        <ele>1293.5</ele>
        <time>2024-05-26T13:43:38Z</time>
      </trkpt>
      <trkpt lat="43.73699" lon="6.67478">
        <ele>1293.5</ele>
        <time>2024-05-26T13:43:39Z</time>
      </trkpt>
      <trkpt lat="43.73699" lon="6.67477">
        <ele>1293.4</ele>
        <time>2024-05-26T13:43:40Z</time>
      </trkpt>
      <trkpt lat="43.73699" lon="6.67476">
        <ele>1293.4</ele>
        <time>2024-05-26T13:43:41Z</time>
      </trkpt>
      <trkpt lat="43.73699" lon="6.67474">
        <ele>1293.3</ele>
        <time>2024-05-26T13:43:42Z</time>
      </trkpt>
      <trkpt lat="43.73699" lon="6.67472">
        <ele>1293.3</ele>
        <time>2024-05-26T13:43:43Z</time>
      </trkpt>
      <trkpt lat="43.73699" lon="6.67471">
        <ele>1293.2</ele>
        <time>2024-05-26T13:43:44Z</time>
      </trkpt>
      <trkpt lat="43.73699" lon="6.6747">
        <ele>1293.2</ele>
        <time>2024-05-26T13:43:45Z</time>
      </trkpt>
      <trkpt lat="43.73699" lon="6.67468">
        <ele>1293.2</ele>
        <time>2024-05-26T13:43:46Z</time>
      </trkpt>
      <trkpt lat="43.73699" lon="6.67467">
        <ele>1293.1</ele>
        <time>2024-05-26T13:43:47Z</time>
      </trkpt>
      <trkpt lat="43.73698" lon="6.67466">
        <ele>1293.1</ele>
        <time>2024-05-26T13:43:48Z</time>
      </trkpt>
      <trkpt lat="43.73698" lon="6.67464">
        <ele>1293</ele>
        <time>2024-05-26T13:43:49Z</time>
      </trkpt>
      <trkpt lat="43.73698" lon="6.67463">
        <ele>1292.9</ele>
        <time>2024-05-26T13:43:50Z</time>
      </trkpt>
      <trkpt lat="43.73697" lon="6.67461">
        <ele>1292.9</ele>
        <time>2024-05-26T13:43:51Z</time>
      </trkpt>
      <trkpt lat="43.73697" lon="6.6746">
        <ele>1292.8</ele>
        <time>2024-05-26T13:43:52Z</time>
      </trkpt>
      <trkpt lat="43.73696" lon="6.67459">
        <ele>1292.8</ele>
        <time>2024-05-26T13:43:53Z</time>
      </trkpt>
      <trkpt lat="43.73695" lon="6.67457">
        <ele>1292.7</ele>
        <time>2024-05-26T13:43:54Z</time>
      </trkpt>
      <trkpt lat="43.73695" lon="6.67456">
        <ele>1292.7</ele>
        <time>2024-05-26T13:43:55Z</time>
      </trkpt>
      <trkpt lat="43.73694" lon="6.67455">
        <ele>1292.6</ele>
        <time>2024-05-26T13:43:56Z</time>
      </trkpt>
      <trkpt lat="43.73694" lon="6.67454">
        <ele>1292.6</ele>
        <time>2024-05-26T13:43:57Z</time>
      </trkpt>
      <trkpt lat="43.73693" lon="6.67453">
        <ele>1292.6</ele>
        <time>2024-05-26T13:43:58Z</time>
      </trkpt>
      <trkpt lat="43.73693" lon="6.67451">
        <ele>1292.6</ele>
        <time>2024-05-26T13:43:59Z</time>
      </trkpt>
      <trkpt lat="43.73692" lon="6.6745">
        <ele>1292.6</ele>
        <time>2024-05-26T13:44:00Z</time>
      </trkpt>
      <trkpt lat="43.73691" lon="6.67448">
        <ele>1292.5</ele>
        <time>2024-05-26T13:44:01Z</time>
      </trkpt>
      <trkpt lat="43.7369" lon="6.67447">
        <ele>1292.5</ele>
        <time>2024-05-26T13:44:02Z</time>
      </trkpt>
      <trkpt lat="43.73689" lon="6.67446">
        <ele>1292.5</ele>
        <time>2024-05-26T13:44:03Z</time>
      </trkpt>
      <trkpt lat="43.73688" lon="6.67445">
        <ele>1292.5</ele>
        <time>2024-05-26T13:44:04Z</time>
      </trkpt>
      <trkpt lat="43.73687" lon="6.67443">
        <ele>1292.5</ele>
        <time>2024-05-26T13:44:05Z</time>
      </trkpt>
      <trkpt lat="43.73686" lon="6.67442">
        <ele>1292.5</ele>
        <time>2024-05-26T13:44:06Z</time>
      </trkpt>
      <trkpt lat="43.73686" lon="6.67441">
        <ele>1292.5</ele>
        <time>2024-05-26T13:44:07Z</time>
      </trkpt>
      <trkpt lat="43.73685" lon="6.6744">
        <ele>1292.5</ele>
        <time>2024-05-26T13:44:08Z</time>
      </trkpt>
      <trkpt lat="43.73685" lon="6.67438">
        <ele>1292.5</ele>
        <time>2024-05-26T13:44:09Z</time>
      </trkpt>
      <trkpt lat="43.73684" lon="6.67436">
        <ele>1292.6</ele>
        <time>2024-05-26T13:44:10Z</time>
      </trkpt>
      <trkpt lat="43.73683" lon="6.67435">
        <ele>1292.6</ele>
        <time>2024-05-26T13:44:11Z</time>
      </trkpt>
      <trkpt lat="43.73682" lon="6.67433">
        <ele>1292.6</ele>
        <time>2024-05-26T13:44:12Z</time>
      </trkpt>
      <trkpt lat="43.73681" lon="6.67432">
        <ele>1292.6</ele>
        <time>2024-05-26T13:44:13Z</time>
      </trkpt>
      <trkpt lat="43.73681" lon="6.67431">
        <ele>1292.6</ele>
        <time>2024-05-26T13:44:14Z</time>
      </trkpt>
      <trkpt lat="43.7368" lon="6.67429">
        <ele>1292.6</ele>
        <time>2024-05-26T13:44:15Z</time>
      </trkpt>
      <trkpt lat="43.73679" lon="6.67428">
        <ele>1292.6</ele>
        <time>2024-05-26T13:44:16Z</time>
      </trkpt>
      <trkpt lat="43.73679" lon="6.67427">
        <ele>1292.7</ele>
        <time>2024-05-26T13:44:17Z</time>
      </trkpt>
      <trkpt lat="43.73678" lon="6.67426">
        <ele>1292.7</ele>
        <time>2024-05-26T13:44:18Z</time>
      </trkpt>
      <trkpt lat="43.73678" lon="6.67425">
        <ele>1292.8</ele>
        <time>2024-05-26T13:44:19Z</time>
      </trkpt>
      <trkpt lat="43.73677" lon="6.67423">
        <ele>1292.8</ele>
        <time>2024-05-26T13:44:20Z</time>
      </trkpt>
      <trkpt lat="43.73677" lon="6.67422">
        <ele>1292.8</ele>
        <time>2024-05-26T13:44:21Z</time>
      </trkpt>
      <trkpt lat="43.73676" lon="6.67421">
        <ele>1292.9</ele>
        <time>2024-05-26T13:44:22Z</time>
      </trkpt>
      <trkpt lat="43.73676" lon="6.67419">
        <ele>1293</ele>
        <time>2024-05-26T13:44:23Z</time>
      </trkpt>
      <trkpt lat="43.73675" lon="6.67418">
        <ele>1293.1</ele>
        <time>2024-05-26T13:44:24Z</time>
      </trkpt>
      <trkpt lat="43.73674" lon="6.67417">
        <ele>1293.2</ele>
        <time>2024-05-26T13:44:25Z</time>
      </trkpt>
      <trkpt lat="43.73674" lon="6.67416">
        <ele>1293.2</ele>
        <time>2024-05-26T13:44:26Z</time>
      </trkpt>
      <trkpt lat="43.73673" lon="6.67415">
        <ele>1293.3</ele>
        <time>2024-05-26T13:44:27Z</time>
      </trkpt>
      <trkpt lat="43.73673" lon="6.67414">
        <ele>1293.3</ele>
        <time>2024-05-26T13:44:28Z</time>
      </trkpt>
      <trkpt lat="43.73672" lon="6.67413">
        <ele>1293.3</ele>
        <time>2024-05-26T13:44:29Z</time>
      </trkpt>
      <trkpt lat="43.73671" lon="6.67411">
        <ele>1293.4</ele>
        <time>2024-05-26T13:44:30Z</time>
      </trkpt>
      <trkpt lat="43.73671" lon="6.6741">
        <ele>1293.5</ele>
        <time>2024-05-26T13:44:31Z</time>
      </trkpt>
      <trkpt lat="43.73671" lon="6.67409">
        <ele>1293.6</ele>
        <time>2024-05-26T13:44:32Z</time>
      </trkpt>
      <trkpt lat="43.7367" lon="6.67407">
        <ele>1293.5</ele>
        <time>2024-05-26T13:44:33Z</time>
      </trkpt>
      <trkpt lat="43.73669" lon="6.67406">
        <ele>1293.5</ele>
        <time>2024-05-26T13:44:34Z</time>
      </trkpt>
      <trkpt lat="43.73668" lon="6.67405">
        <ele>1293.5</ele>
        <time>2024-05-26T13:44:35Z</time>
      </trkpt>
      <trkpt lat="43.73668" lon="6.67403">
        <ele>1293.5</ele>
        <time>2024-05-26T13:44:36Z</time>
      </trkpt>
      <trkpt lat="43.73668" lon="6.67402">
        <ele>1293.4</ele>
        <time>2024-05-26T13:44:37Z</time>
      </trkpt>
      <trkpt lat="43.73668" lon="6.674">
        <ele>1293.5</ele>
        <time>2024-05-26T13:44:38Z</time>
      </trkpt>
      <trkpt lat="43.73667" lon="6.67398">
        <ele>1293.5</ele>
        <time>2024-05-26T13:44:39Z</time>
      </trkpt>
      <trkpt lat="43.73667" lon="6.67397">
        <ele>1293.6</ele>
        <time>2024-05-26T13:44:40Z</time>
      </trkpt>
      <trkpt lat="43.73668" lon="6.67395">
        <ele>1293.7</ele>
        <time>2024-05-26T13:44:41Z</time>
      </trkpt>
      <trkpt lat="43.73668" lon="6.67394">
        <ele>1293.7</ele>
        <time>2024-05-26T13:44:42Z</time>
      </trkpt>
      <trkpt lat="43.73669" lon="6.67392">
        <ele>1293.7</ele>
        <time>2024-05-26T13:44:43Z</time>
      </trkpt>
      <trkpt lat="43.7367" lon="6.67391">
        <ele>1293.7</ele>
        <time>2024-05-26T13:44:44Z</time>
      </trkpt>
      <trkpt lat="43.73671" lon="6.6739">
        <ele>1293.6</ele>
        <time>2024-05-26T13:44:45Z</time>
      </trkpt>
      <trkpt lat="43.73672" lon="6.67389">
        <ele>1293.5</ele>
        <time>2024-05-26T13:44:46Z</time>
      </trkpt>
      <trkpt lat="43.73673" lon="6.67388">
        <ele>1293.4</ele>
        <time>2024-05-26T13:44:47Z</time>
      </trkpt>
      <trkpt lat="43.73674" lon="6.67388">
        <ele>1293.3</ele>
        <time>2024-05-26T13:44:48Z</time>
      </trkpt>
      <trkpt lat="43.73674" lon="6.67387">
        <ele>1293.3</ele>
        <time>2024-05-26T13:44:49Z</time>
      </trkpt>
      <trkpt lat="43.73674" lon="6.67386">
        <ele>1293.1</ele>
        <time>2024-05-26T13:44:50Z</time>
      </trkpt>
      <trkpt lat="43.73675" lon="6.67386">
        <ele>1292.9</ele>
        <time>2024-05-26T13:44:51Z</time>
      </trkpt>
      <trkpt lat="43.73676" lon="6.67385">
        <ele>1292.8</ele>
        <time>2024-05-26T13:44:52Z</time>
      </trkpt>
      <trkpt lat="43.73677" lon="6.67384">
        <ele>1292.6</ele>
        <time>2024-05-26T13:44:53Z</time>
      </trkpt>
      <trkpt lat="43.73677" lon="6.67382">
        <ele>1292.5</ele>
        <time>2024-05-26T13:44:54Z</time>
      </trkpt>
      <trkpt lat="43.73678" lon="6.6738">
        <ele>1292.3</ele>
        <time>2024-05-26T13:44:55Z</time>
      </trkpt>
      <trkpt lat="43.73678" lon="6.67379">
        <ele>1292.1</ele>
        <time>2024-05-26T13:44:56Z</time>
      </trkpt>
      <trkpt lat="43.73678" lon="6.67377">
        <ele>1292</ele>
        <time>2024-05-26T13:44:57Z</time>
      </trkpt>
      <trkpt lat="43.73679" lon="6.67375">
        <ele>1291.7</ele>
        <time>2024-05-26T13:44:58Z</time>
      </trkpt>
      <trkpt lat="43.73679" lon="6.67374">
        <ele>1291.6</ele>
        <time>2024-05-26T13:44:59Z</time>
      </trkpt>
      <trkpt lat="43.73679" lon="6.67373">
        <ele>1291.5</ele>
        <time>2024-05-26T13:45:00Z</time>
      </trkpt>
      <trkpt lat="43.7368" lon="6.67372">
        <ele>1291.4</ele>
        <time>2024-05-26T13:45:01Z</time>
      </trkpt>
      <trkpt lat="43.73681" lon="6.67371">
        <ele>1291.3</ele>
        <time>2024-05-26T13:45:02Z</time>
      </trkpt>
      <trkpt lat="43.73681" lon="6.6737">
        <ele>1291.1</ele>
        <time>2024-05-26T13:45:03Z</time>
      </trkpt>
      <trkpt lat="43.73682" lon="6.67369">
        <ele>1291</ele>
        <time>2024-05-26T13:45:04Z</time>
      </trkpt>
      <trkpt lat="43.73683" lon="6.67368">
        <ele>1290.7</ele>
        <time>2024-05-26T13:45:05Z</time>
      </trkpt>
      <trkpt lat="43.73683" lon="6.67366">
        <ele>1290.6</ele>
        <time>2024-05-26T13:45:06Z</time>
      </trkpt>
      <trkpt lat="43.73684" lon="6.67365">
        <ele>1290.4</ele>
        <time>2024-05-26T13:45:07Z</time>
      </trkpt>
      <trkpt lat="43.73684" lon="6.67363">
        <ele>1290.3</ele>
        <time>2024-05-26T13:45:08Z</time>
      </trkpt>
      <trkpt lat="43.73684" lon="6.67361">
        <ele>1290.2</ele>
        <time>2024-05-26T13:45:09Z</time>
      </trkpt>
      <trkpt lat="43.73684" lon="6.6736">
        <ele>1290.1</ele>
        <time>2024-05-26T13:45:10Z</time>
      </trkpt>
      <trkpt lat="43.73684" lon="6.67358">
        <ele>1290</ele>
        <time>2024-05-26T13:45:11Z</time>
      </trkpt>
      <trkpt lat="43.73684" lon="6.67356">
        <ele>1289.8</ele>
        <time>2024-05-26T13:45:12Z</time>
      </trkpt>
      <trkpt lat="43.73684" lon="6.67355">
        <ele>1289.6</ele>
        <time>2024-05-26T13:45:13Z</time>
      </trkpt>
      <trkpt lat="43.73684" lon="6.67354">
        <ele>1289.5</ele>
        <time>2024-05-26T13:45:14Z</time>
      </trkpt>
      <trkpt lat="43.73684" lon="6.67353">
        <ele>1289.4</ele>
        <time>2024-05-26T13:45:15Z</time>
      </trkpt>
      <trkpt lat="43.73684" lon="6.67352">
        <ele>1289.2</ele>
        <time>2024-05-26T13:45:16Z</time>
      </trkpt>
      <trkpt lat="43.73684" lon="6.67351">
        <ele>1289</ele>
        <time>2024-05-26T13:45:17Z</time>
      </trkpt>
      <trkpt lat="43.73684" lon="6.67351">
        <ele>1288.9</ele>
        <time>2024-05-26T13:45:18Z</time>
      </trkpt>
      <trkpt lat="43.73684" lon="6.6735">
        <ele>1288.8</ele>
        <time>2024-05-26T13:45:19Z</time>
      </trkpt>
      <trkpt lat="43.73684" lon="6.6735">
        <ele>1288.7</ele>
        <time>2024-05-26T13:45:20Z</time>
      </trkpt>
      <trkpt lat="43.73684" lon="6.6735">
        <ele>1288.6</ele>
        <time>2024-05-26T13:45:21Z</time>
      </trkpt>
      <trkpt lat="43.73684" lon="6.6735">
        <ele>1288.6</ele>
        <time>2024-05-26T13:45:22Z</time>
      </trkpt>
      <trkpt lat="43.73684" lon="6.6735">
        <ele>1288.4</ele>
        <time>2024-05-26T13:45:23Z</time>
      </trkpt>
      <trkpt lat="43.73684" lon="6.6735">
        <ele>1288.5</ele>
        <time>2024-05-26T13:45:24Z</time>
      </trkpt>
      <trkpt lat="43.73684" lon="6.6735">
        <ele>1288.5</ele>
        <time>2024-05-26T13:45:25Z</time>
      </trkpt>
      <trkpt lat="43.73684" lon="6.6735">
        <ele>1288.4</ele>
        <time>2024-05-26T13:45:26Z</time>
      </trkpt>
      <trkpt lat="43.73684" lon="6.6735">
        <ele>1288.3</ele>
        <time>2024-05-26T13:45:27Z</time>
      </trkpt>
      <trkpt lat="43.73684" lon="6.6735">
        <ele>1288.3</ele>
        <time>2024-05-26T13:45:28Z</time>
      </trkpt>
      <trkpt lat="43.73684" lon="6.67349">
        <ele>1288.3</ele>
        <time>2024-05-26T13:45:29Z</time>
      </trkpt>
      <trkpt lat="43.73684" lon="6.67348">
        <ele>1288.2</ele>
        <time>2024-05-26T13:45:30Z</time>
      </trkpt>
      <trkpt lat="43.73684" lon="6.67347">
        <ele>1288.2</ele>
        <time>2024-05-26T13:45:31Z</time>
      </trkpt>
      <trkpt lat="43.73684" lon="6.67345">
        <ele>1288.2</ele>
        <time>2024-05-26T13:45:32Z</time>
      </trkpt>
      <trkpt lat="43.73685" lon="6.67344">
        <ele>1288.2</ele>
        <time>2024-05-26T13:45:33Z</time>
      </trkpt>
      <trkpt lat="43.73684" lon="6.67343">
        <ele>1288.2</ele>
        <time>2024-05-26T13:45:34Z</time>
      </trkpt>
      <trkpt lat="43.73684" lon="6.67342">
        <ele>1288.1</ele>
        <time>2024-05-26T13:45:35Z</time>
      </trkpt>
      <trkpt lat="43.73685" lon="6.67341">
        <ele>1288</ele>
        <time>2024-05-26T13:45:36Z</time>
      </trkpt>
      <trkpt lat="43.73685" lon="6.6734">
        <ele>1287.9</ele>
        <time>2024-05-26T13:45:37Z</time>
      </trkpt>
      <trkpt lat="43.73685" lon="6.67339">
        <ele>1287.7</ele>
        <time>2024-05-26T13:45:38Z</time>
      </trkpt>
      <trkpt lat="43.73684" lon="6.67338">
        <ele>1287.6</ele>
        <time>2024-05-26T13:45:39Z</time>
      </trkpt>
      <trkpt lat="43.73684" lon="6.67337">
        <ele>1287.6</ele>
        <time>2024-05-26T13:45:40Z</time>
      </trkpt>
      <trkpt lat="43.73684" lon="6.67336">
        <ele>1287.4</ele>
        <time>2024-05-26T13:45:41Z</time>
      </trkpt>
      <trkpt lat="43.73684" lon="6.67335">
        <ele>1287.3</ele>
        <time>2024-05-26T13:45:42Z</time>
      </trkpt>
      <trkpt lat="43.73684" lon="6.67334">
        <ele>1287.2</ele>
        <time>2024-05-26T13:45:43Z</time>
      </trkpt>
      <trkpt lat="43.73683" lon="6.67333">
        <ele>1287.1</ele>
        <time>2024-05-26T13:45:44Z</time>
      </trkpt>
      <trkpt lat="43.73683" lon="6.67331">
        <ele>1287</ele>
        <time>2024-05-26T13:45:45Z</time>
      </trkpt>
      <trkpt lat="43.73683" lon="6.6733">
        <ele>1286.9</ele>
        <time>2024-05-26T13:45:46Z</time>
      </trkpt>
      <trkpt lat="43.73683" lon="6.67329">
        <ele>1286.8</ele>
        <time>2024-05-26T13:45:47Z</time>
      </trkpt>
      <trkpt lat="43.73682" lon="6.67327">
        <ele>1286.7</ele>
        <time>2024-05-26T13:45:48Z</time>
      </trkpt>
      <trkpt lat="43.73682" lon="6.67326">
        <ele>1286.6</ele>
        <time>2024-05-26T13:45:49Z</time>
      </trkpt>
      <trkpt lat="43.73682" lon="6.67325">
        <ele>1286.5</ele>
        <time>2024-05-26T13:45:50Z</time>
      </trkpt>
      <trkpt lat="43.73681" lon="6.67324">
        <ele>1286.5</ele>
        <time>2024-05-26T13:45:51Z</time>
      </trkpt>
      <trkpt lat="43.73681" lon="6.67322">
        <ele>1286.5</ele>
        <time>2024-05-26T13:45:52Z</time>
      </trkpt>
      <trkpt lat="43.73681" lon="6.67321">
        <ele>1286.5</ele>
        <time>2024-05-26T13:45:53Z</time>
      </trkpt>
      <trkpt lat="43.73681" lon="6.6732">
        <ele>1286.4</ele>
        <time>2024-05-26T13:45:54Z</time>
      </trkpt>
      <trkpt lat="43.73681" lon="6.67318">
        <ele>1286.3</ele>
        <time>2024-05-26T13:45:55Z</time>
      </trkpt>
      <trkpt lat="43.7368" lon="6.67317">
        <ele>1286.2</ele>
        <time>2024-05-26T13:45:56Z</time>
      </trkpt>
      <trkpt lat="43.7368" lon="6.67316">
        <ele>1286.1</ele>
        <time>2024-05-26T13:45:57Z</time>
      </trkpt>
      <trkpt lat="43.7368" lon="6.67315">
        <ele>1285.9</ele>
        <time>2024-05-26T13:45:58Z</time>
      </trkpt>
      <trkpt lat="43.7368" lon="6.67314">
        <ele>1285.8</ele>
        <time>2024-05-26T13:45:59Z</time>
      </trkpt>
      <trkpt lat="43.7368" lon="6.67313">
        <ele>1285.7</ele>
        <time>2024-05-26T13:46:00Z</time>
      </trkpt>
      <trkpt lat="43.7368" lon="6.67312">
        <ele>1285.6</ele>
        <time>2024-05-26T13:46:01Z</time>
      </trkpt>
      <trkpt lat="43.7368" lon="6.67311">
        <ele>1285.6</ele>
        <time>2024-05-26T13:46:02Z</time>
      </trkpt>
      <trkpt lat="43.7368" lon="6.6731">
        <ele>1285.5</ele>
        <time>2024-05-26T13:46:03Z</time>
      </trkpt>
      <trkpt lat="43.7368" lon="6.67309">
        <ele>1285.3</ele>
        <time>2024-05-26T13:46:04Z</time>
      </trkpt>
      <trkpt lat="43.7368" lon="6.67308">
        <ele>1285.3</ele>
        <time>2024-05-26T13:46:05Z</time>
      </trkpt>
      <trkpt lat="43.73681" lon="6.67306">
        <ele>1285.2</ele>
        <time>2024-05-26T13:46:06Z</time>
      </trkpt>
      <trkpt lat="43.73681" lon="6.67305">
        <ele>1285.1</ele>
        <time>2024-05-26T13:46:07Z</time>
      </trkpt>
      <trkpt lat="43.7368" lon="6.67304">
        <ele>1284.9</ele>
        <time>2024-05-26T13:46:08Z</time>
      </trkpt>
      <trkpt lat="43.7368" lon="6.67303">
        <ele>1284.8</ele>
        <time>2024-05-26T13:46:09Z</time>
      </trkpt>
      <trkpt lat="43.7368" lon="6.67302">
        <ele>1284.7</ele>
        <time>2024-05-26T13:46:10Z</time>
      </trkpt>
      <trkpt lat="43.7368" lon="6.673">
        <ele>1284.6</ele>
        <time>2024-05-26T13:46:11Z</time>
      </trkpt>
      <trkpt lat="43.7368" lon="6.67299">
        <ele>1284.4</ele>
        <time>2024-05-26T13:46:12Z</time>
      </trkpt>
      <trkpt lat="43.73679" lon="6.67298">
        <ele>1284.2</ele>
        <time>2024-05-26T13:46:13Z</time>
      </trkpt>
      <trkpt lat="43.73679" lon="6.67297">
        <ele>1284.1</ele>
        <time>2024-05-26T13:46:14Z</time>
      </trkpt>
      <trkpt lat="43.73679" lon="6.67296">
        <ele>1284</ele>
        <time>2024-05-26T13:46:15Z</time>
      </trkpt>
      <trkpt lat="43.73679" lon="6.67295">
        <ele>1283.9</ele>
        <time>2024-05-26T13:46:16Z</time>
      </trkpt>
      <trkpt lat="43.73679" lon="6.67294">
        <ele>1283.9</ele>
        <time>2024-05-26T13:46:17Z</time>
      </trkpt>
      <trkpt lat="43.73679" lon="6.67292">
        <ele>1283.8</ele>
        <time>2024-05-26T13:46:18Z</time>
      </trkpt>
      <trkpt lat="43.73679" lon="6.67291">
        <ele>1283.6</ele>
        <time>2024-05-26T13:46:19Z</time>
      </trkpt>
      <trkpt lat="43.73678" lon="6.67289">
        <ele>1283.5</ele>
        <time>2024-05-26T13:46:20Z</time>
      </trkpt>
      <trkpt lat="43.73678" lon="6.67288">
        <ele>1283.4</ele>
        <time>2024-05-26T13:46:21Z</time>
      </trkpt>
      <trkpt lat="43.73677" lon="6.67286">
        <ele>1283.2</ele>
        <time>2024-05-26T13:46:22Z</time>
      </trkpt>
      <trkpt lat="43.73677" lon="6.67285">
        <ele>1283.1</ele>
        <time>2024-05-26T13:46:23Z</time>
      </trkpt>
      <trkpt lat="43.73676" lon="6.67284">
        <ele>1283</ele>
        <time>2024-05-26T13:46:24Z</time>
      </trkpt>
      <trkpt lat="43.73676" lon="6.67283">
        <ele>1282.8</ele>
        <time>2024-05-26T13:46:25Z</time>
      </trkpt>
      <trkpt lat="43.73676" lon="6.67281">
        <ele>1282.6</ele>
        <time>2024-05-26T13:46:26Z</time>
      </trkpt>
      <trkpt lat="43.73675" lon="6.6728">
        <ele>1282.5</ele>
        <time>2024-05-26T13:46:27Z</time>
      </trkpt>
      <trkpt lat="43.73675" lon="6.67279">
        <ele>1282.4</ele>
        <time>2024-05-26T13:46:28Z</time>
      </trkpt>
      <trkpt lat="43.73675" lon="6.67277">
        <ele>1282.3</ele>
        <time>2024-05-26T13:46:29Z</time>
      </trkpt>
      <trkpt lat="43.73674" lon="6.67276">
        <ele>1282.2</ele>
        <time>2024-05-26T13:46:30Z</time>
      </trkpt>
      <trkpt lat="43.73674" lon="6.67275">
        <ele>1282.1</ele>
        <time>2024-05-26T13:46:31Z</time>
      </trkpt>
      <trkpt lat="43.73674" lon="6.67273">
        <ele>1282.1</ele>
        <time>2024-05-26T13:46:32Z</time>
      </trkpt>
      <trkpt lat="43.73674" lon="6.67272">
        <ele>1282</ele>
        <time>2024-05-26T13:46:33Z</time>
      </trkpt>
      <trkpt lat="43.73673" lon="6.6727">
        <ele>1282</ele>
        <time>2024-05-26T13:46:34Z</time>
      </trkpt>
      <trkpt lat="43.73673" lon="6.67269">
        <ele>1281.9</ele>
        <time>2024-05-26T13:46:35Z</time>
      </trkpt>
      <trkpt lat="43.73672" lon="6.67268">
        <ele>1281.9</ele>
        <time>2024-05-26T13:46:36Z</time>
      </trkpt>
      <trkpt lat="43.73672" lon="6.67266">
        <ele>1281.7</ele>
        <time>2024-05-26T13:46:37Z</time>
      </trkpt>
      <trkpt lat="43.73672" lon="6.67265">
        <ele>1281.5</ele>
        <time>2024-05-26T13:46:38Z</time>
      </trkpt>
      <trkpt lat="43.73672" lon="6.67263">
        <ele>1281.3</ele>
        <time>2024-05-26T13:46:39Z</time>
      </trkpt>
      <trkpt lat="43.73672" lon="6.67262">
        <ele>1281.2</ele>
        <time>2024-05-26T13:46:40Z</time>
      </trkpt>
      <trkpt lat="43.73671" lon="6.67261">
        <ele>1281</ele>
        <time>2024-05-26T13:46:41Z</time>
      </trkpt>
      <trkpt lat="43.73671" lon="6.67259">
        <ele>1280.8</ele>
        <time>2024-05-26T13:46:42Z</time>
      </trkpt>
      <trkpt lat="43.7367" lon="6.67258">
        <ele>1280.7</ele>
        <time>2024-05-26T13:46:43Z</time>
      </trkpt>
      <trkpt lat="43.7367" lon="6.67257">
        <ele>1280.7</ele>
        <time>2024-05-26T13:46:44Z</time>
      </trkpt>
      <trkpt lat="43.7367" lon="6.67256">
        <ele>1280.6</ele>
        <time>2024-05-26T13:46:45Z</time>
      </trkpt>
      <trkpt lat="43.7367" lon="6.67254">
        <ele>1280.6</ele>
        <time>2024-05-26T13:46:46Z</time>
      </trkpt>
      <trkpt lat="43.73669" lon="6.67253">
        <ele>1280.5</ele>
        <time>2024-05-26T13:46:47Z</time>
      </trkpt>
      <trkpt lat="43.73669" lon="6.67252">
        <ele>1280.4</ele>
        <time>2024-05-26T13:46:48Z</time>
      </trkpt>
      <trkpt lat="43.73668" lon="6.67251">
        <ele>1280.3</ele>
        <time>2024-05-26T13:46:49Z</time>
      </trkpt>
      <trkpt lat="43.73668" lon="6.6725">
        <ele>1280.2</ele>
        <time>2024-05-26T13:46:50Z</time>
      </trkpt>
      <trkpt lat="43.73668" lon="6.67249">
        <ele>1280.2</ele>
        <time>2024-05-26T13:46:51Z</time>
      </trkpt>
      <trkpt lat="43.73667" lon="6.67247">
        <ele>1280</ele>
        <time>2024-05-26T13:46:52Z</time>
      </trkpt>
      <trkpt lat="43.73667" lon="6.67246">
        <ele>1280</ele>
        <time>2024-05-26T13:46:53Z</time>
      </trkpt>
      <trkpt lat="43.73667" lon="6.67245">
        <ele>1279.9</ele>
        <time>2024-05-26T13:46:54Z</time>
      </trkpt>
      <trkpt lat="43.73666" lon="6.67244">
        <ele>1279.8</ele>
        <time>2024-05-26T13:46:55Z</time>
      </trkpt>
      <trkpt lat="43.73666" lon="6.67243">
        <ele>1279.7</ele>
        <time>2024-05-26T13:46:56Z</time>
      </trkpt>
      <trkpt lat="43.73665" lon="6.67242">
        <ele>1279.6</ele>
        <time>2024-05-26T13:46:57Z</time>
      </trkpt>
      <trkpt lat="43.73665" lon="6.67241">
        <ele>1279.6</ele>
        <time>2024-05-26T13:46:58Z</time>
      </trkpt>
      <trkpt lat="43.73665" lon="6.67239">
        <ele>1279.4</ele>
        <time>2024-05-26T13:46:59Z</time>
      </trkpt>
      <trkpt lat="43.73664" lon="6.67238">
        <ele>1279.2</ele>
        <time>2024-05-26T13:47:00Z</time>
      </trkpt>
      <trkpt lat="43.73664" lon="6.67237">
        <ele>1279</ele>
        <time>2024-05-26T13:47:01Z</time>
      </trkpt>
      <trkpt lat="43.73663" lon="6.67235">
        <ele>1278.9</ele>
        <time>2024-05-26T13:47:02Z</time>
      </trkpt>
      <trkpt lat="43.73663" lon="6.67234">
        <ele>1278.8</ele>
        <time>2024-05-26T13:47:03Z</time>
      </trkpt>
      <trkpt lat="43.73663" lon="6.67233">
        <ele>1278.8</ele>
        <time>2024-05-26T13:47:04Z</time>
      </trkpt>
      <trkpt lat="43.73663" lon="6.67231">
        <ele>1278.8</ele>
        <time>2024-05-26T13:47:05Z</time>
      </trkpt>
      <trkpt lat="43.73662" lon="6.6723">
        <ele>1278.7</ele>
        <time>2024-05-26T13:47:06Z</time>
      </trkpt>
      <trkpt lat="43.73662" lon="6.67229">
        <ele>1278.5</ele>
        <time>2024-05-26T13:47:07Z</time>
      </trkpt>
      <trkpt lat="43.73661" lon="6.67228">
        <ele>1278.4</ele>
        <time>2024-05-26T13:47:08Z</time>
      </trkpt>
      <trkpt lat="43.73661" lon="6.67227">
        <ele>1278.2</ele>
        <time>2024-05-26T13:47:09Z</time>
      </trkpt>
      <trkpt lat="43.73661" lon="6.67226">
        <ele>1278.1</ele>
        <time>2024-05-26T13:47:10Z</time>
      </trkpt>
      <trkpt lat="43.73661" lon="6.67225">
        <ele>1278</ele>
        <time>2024-05-26T13:47:11Z</time>
      </trkpt>
      <trkpt lat="43.73661" lon="6.67223">
        <ele>1278</ele>
        <time>2024-05-26T13:47:12Z</time>
      </trkpt>
      <trkpt lat="43.73661" lon="6.67222">
        <ele>1277.8</ele>
        <time>2024-05-26T13:47:13Z</time>
      </trkpt>
      <trkpt lat="43.7366" lon="6.67221">
        <ele>1277.6</ele>
        <time>2024-05-26T13:47:14Z</time>
      </trkpt>
      <trkpt lat="43.7366" lon="6.6722">
        <ele>1277.5</ele>
        <time>2024-05-26T13:47:15Z</time>
      </trkpt>
      <trkpt lat="43.7366" lon="6.67219">
        <ele>1277.5</ele>
        <time>2024-05-26T13:47:16Z</time>
      </trkpt>
      <trkpt lat="43.7366" lon="6.67218">
        <ele>1277.3</ele>
        <time>2024-05-26T13:47:17Z</time>
      </trkpt>
      <trkpt lat="43.73659" lon="6.67217">
        <ele>1277.1</ele>
        <time>2024-05-26T13:47:18Z</time>
      </trkpt>
      <trkpt lat="43.73659" lon="6.67215">
        <ele>1276.9</ele>
        <time>2024-05-26T13:47:19Z</time>
      </trkpt>
      <trkpt lat="43.73658" lon="6.67214">
        <ele>1276.7</ele>
        <time>2024-05-26T13:47:20Z</time>
      </trkpt>
      <trkpt lat="43.73658" lon="6.67213">
        <ele>1276.5</ele>
        <time>2024-05-26T13:47:21Z</time>
      </trkpt>
      <trkpt lat="43.73657" lon="6.67212">
        <ele>1276.4</ele>
        <time>2024-05-26T13:47:22Z</time>
      </trkpt>
      <trkpt lat="43.73657" lon="6.67211">
        <ele>1276.3</ele>
        <time>2024-05-26T13:47:23Z</time>
      </trkpt>
      <trkpt lat="43.73657" lon="6.6721">
        <ele>1276.2</ele>
        <time>2024-05-26T13:47:24Z</time>
      </trkpt>
      <trkpt lat="43.73657" lon="6.67208">
        <ele>1276.1</ele>
        <time>2024-05-26T13:47:25Z</time>
      </trkpt>
      <trkpt lat="43.73657" lon="6.67207">
        <ele>1275.8</ele>
        <time>2024-05-26T13:47:26Z</time>
      </trkpt>
      <trkpt lat="43.73657" lon="6.67205">
        <ele>1275.7</ele>
        <time>2024-05-26T13:47:27Z</time>
      </trkpt>
      <trkpt lat="43.73657" lon="6.67204">
        <ele>1275.5</ele>
        <time>2024-05-26T13:47:28Z</time>
      </trkpt>
      <trkpt lat="43.73656" lon="6.67202">
        <ele>1275.2</ele>
        <time>2024-05-26T13:47:29Z</time>
      </trkpt>
      <trkpt lat="43.73656" lon="6.67201">
        <ele>1275</ele>
        <time>2024-05-26T13:47:30Z</time>
      </trkpt>
      <trkpt lat="43.73656" lon="6.672">
        <ele>1274.8</ele>
        <time>2024-05-26T13:47:31Z</time>
      </trkpt>
      <trkpt lat="43.73656" lon="6.67199">
        <ele>1274.7</ele>
        <time>2024-05-26T13:47:32Z</time>
      </trkpt>
      <trkpt lat="43.73655" lon="6.67198">
        <ele>1274.6</ele>
        <time>2024-05-26T13:47:33Z</time>
      </trkpt>
      <trkpt lat="43.73655" lon="6.67196">
        <ele>1274.5</ele>
        <time>2024-05-26T13:47:34Z</time>
      </trkpt>
      <trkpt lat="43.73655" lon="6.67195">
        <ele>1274.3</ele>
        <time>2024-05-26T13:47:35Z</time>
      </trkpt>
      <trkpt lat="43.73654" lon="6.67194">
        <ele>1274.2</ele>
        <time>2024-05-26T13:47:36Z</time>
      </trkpt>
      <trkpt lat="43.73654" lon="6.67192">
        <ele>1274</ele>
        <time>2024-05-26T13:47:37Z</time>
      </trkpt>
      <trkpt lat="43.73654" lon="6.67191">
        <ele>1273.8</ele>
        <time>2024-05-26T13:47:38Z</time>
      </trkpt>
      <trkpt lat="43.73653" lon="6.6719">
        <ele>1273.7</ele>
        <time>2024-05-26T13:47:39Z</time>
      </trkpt>
      <trkpt lat="43.73653" lon="6.67188">
        <ele>1273.6</ele>
        <time>2024-05-26T13:47:40Z</time>
      </trkpt>
      <trkpt lat="43.73652" lon="6.67187">
        <ele>1273.4</ele>
        <time>2024-05-26T13:47:41Z</time>
      </trkpt>
      <trkpt lat="43.73652" lon="6.67186">
        <ele>1273.3</ele>
        <time>2024-05-26T13:47:42Z</time>
      </trkpt>
      <trkpt lat="43.73652" lon="6.67185">
        <ele>1273.1</ele>
        <time>2024-05-26T13:47:43Z</time>
      </trkpt>
      <trkpt lat="43.73652" lon="6.67183">
        <ele>1272.9</ele>
        <time>2024-05-26T13:47:44Z</time>
      </trkpt>
      <trkpt lat="43.73652" lon="6.67182">
        <ele>1272.7</ele>
        <time>2024-05-26T13:47:45Z</time>
      </trkpt>
      <trkpt lat="43.73651" lon="6.67181">
        <ele>1272.5</ele>
        <time>2024-05-26T13:47:46Z</time>
      </trkpt>
      <trkpt lat="43.73652" lon="6.6718">
        <ele>1272.2</ele>
        <time>2024-05-26T13:47:47Z</time>
      </trkpt>
      <trkpt lat="43.73652" lon="6.67179">
        <ele>1272</ele>
        <time>2024-05-26T13:47:48Z</time>
      </trkpt>
      <trkpt lat="43.73652" lon="6.67178">
        <ele>1271.8</ele>
        <time>2024-05-26T13:47:49Z</time>
      </trkpt>
      <trkpt lat="43.73652" lon="6.67176">
        <ele>1271.7</ele>
        <time>2024-05-26T13:47:50Z</time>
      </trkpt>
      <trkpt lat="43.73651" lon="6.67174">
        <ele>1271.5</ele>
        <time>2024-05-26T13:47:51Z</time>
      </trkpt>
      <trkpt lat="43.73651" lon="6.67174">
        <ele>1271.4</ele>
        <time>2024-05-26T13:47:52Z</time>
      </trkpt>
      <trkpt lat="43.7365" lon="6.67173">
        <ele>1271.2</ele>
        <time>2024-05-26T13:47:53Z</time>
      </trkpt>
      <trkpt lat="43.7365" lon="6.67173">
        <ele>1271.1</ele>
        <time>2024-05-26T13:47:54Z</time>
      </trkpt>
      <trkpt lat="43.73649" lon="6.67173">
        <ele>1271</ele>
        <time>2024-05-26T13:47:55Z</time>
      </trkpt>
      <trkpt lat="43.73649" lon="6.67172">
        <ele>1270.9</ele>
        <time>2024-05-26T13:47:56Z</time>
      </trkpt>
      <trkpt lat="43.73649" lon="6.67171">
        <ele>1270.9</ele>
        <time>2024-05-26T13:47:57Z</time>
      </trkpt>
      <trkpt lat="43.73648" lon="6.6717">
        <ele>1270.9</ele>
        <time>2024-05-26T13:47:58Z</time>
      </trkpt>
      <trkpt lat="43.73648" lon="6.67168">
        <ele>1270.8</ele>
        <time>2024-05-26T13:47:59Z</time>
      </trkpt>
      <trkpt lat="43.73649" lon="6.67167">
        <ele>1270.6</ele>
        <time>2024-05-26T13:48:00Z</time>
      </trkpt>
      <trkpt lat="43.73649" lon="6.67166">
        <ele>1270.5</ele>
        <time>2024-05-26T13:48:01Z</time>
      </trkpt>
      <trkpt lat="43.73649" lon="6.67165">
        <ele>1270.3</ele>
        <time>2024-05-26T13:48:02Z</time>
      </trkpt>
      <trkpt lat="43.73649" lon="6.67163">
        <ele>1270.2</ele>
        <time>2024-05-26T13:48:03Z</time>
      </trkpt>
      <trkpt lat="43.73649" lon="6.67161">
        <ele>1270.1</ele>
        <time>2024-05-26T13:48:04Z</time>
      </trkpt>
      <trkpt lat="43.73648" lon="6.6716">
        <ele>1269.9</ele>
        <time>2024-05-26T13:48:05Z</time>
      </trkpt>
      <trkpt lat="43.73648" lon="6.67158">
        <ele>1269.7</ele>
        <time>2024-05-26T13:48:06Z</time>
      </trkpt>
      <trkpt lat="43.73648" lon="6.67157">
        <ele>1269.6</ele>
        <time>2024-05-26T13:48:07Z</time>
      </trkpt>
      <trkpt lat="43.73647" lon="6.67156">
        <ele>1269.4</ele>
        <time>2024-05-26T13:48:08Z</time>
      </trkpt>
      <trkpt lat="43.73647" lon="6.67154">
        <ele>1269.3</ele>
        <time>2024-05-26T13:48:09Z</time>
      </trkpt>
      <trkpt lat="43.73647" lon="6.67153">
        <ele>1269</ele>
        <time>2024-05-26T13:48:10Z</time>
      </trkpt>
      <trkpt lat="43.73648" lon="6.67151">
        <ele>1268.8</ele>
        <time>2024-05-26T13:48:11Z</time>
      </trkpt>
      <trkpt lat="43.73648" lon="6.6715">
        <ele>1268.5</ele>
        <time>2024-05-26T13:48:12Z</time>
      </trkpt>
      <trkpt lat="43.73648" lon="6.67149">
        <ele>1268.3</ele>
        <time>2024-05-26T13:48:13Z</time>
      </trkpt>
      <trkpt lat="43.73648" lon="6.67148">
        <ele>1268</ele>
        <time>2024-05-26T13:48:14Z</time>
      </trkpt>
      <trkpt lat="43.73648" lon="6.67147">
        <ele>1267.8</ele>
        <time>2024-05-26T13:48:15Z</time>
      </trkpt>
      <trkpt lat="43.73648" lon="6.67146">
        <ele>1267.6</ele>
        <time>2024-05-26T13:48:16Z</time>
      </trkpt>
      <trkpt lat="43.73648" lon="6.67145">
        <ele>1267.3</ele>
        <time>2024-05-26T13:48:17Z</time>
      </trkpt>
      <trkpt lat="43.73649" lon="6.67143">
        <ele>1267</ele>
        <time>2024-05-26T13:48:18Z</time>
      </trkpt>
      <trkpt lat="43.73649" lon="6.67142">
        <ele>1266.7</ele>
        <time>2024-05-26T13:48:19Z</time>
      </trkpt>
      <trkpt lat="43.73648" lon="6.67141">
        <ele>1266.4</ele>
        <time>2024-05-26T13:48:20Z</time>
      </trkpt>
      <trkpt lat="43.73649" lon="6.6714">
        <ele>1266.2</ele>
        <time>2024-05-26T13:48:21Z</time>
      </trkpt>
      <trkpt lat="43.73648" lon="6.67138">
        <ele>1266</ele>
        <time>2024-05-26T13:48:22Z</time>
      </trkpt>
      <trkpt lat="43.73649" lon="6.67137">
        <ele>1265.8</ele>
        <time>2024-05-26T13:48:23Z</time>
      </trkpt>
      <trkpt lat="43.73649" lon="6.67135">
        <ele>1265.5</ele>
        <time>2024-05-26T13:48:24Z</time>
      </trkpt>
      <trkpt lat="43.73649" lon="6.67134">
        <ele>1265.3</ele>
        <time>2024-05-26T13:48:25Z</time>
      </trkpt>
      <trkpt lat="43.73649" lon="6.67133">
        <ele>1265.1</ele>
        <time>2024-05-26T13:48:26Z</time>
      </trkpt>
      <trkpt lat="43.7365" lon="6.67132">
        <ele>1264.9</ele>
        <time>2024-05-26T13:48:27Z</time>
      </trkpt>
      <trkpt lat="43.7365" lon="6.67131">
        <ele>1264.8</ele>
        <time>2024-05-26T13:48:28Z</time>
      </trkpt>
      <trkpt lat="43.7365" lon="6.6713">
        <ele>1264.6</ele>
        <time>2024-05-26T13:48:29Z</time>
      </trkpt>
      <trkpt lat="43.7365" lon="6.67128">
        <ele>1264.4</ele>
        <time>2024-05-26T13:48:30Z</time>
      </trkpt>
      <trkpt lat="43.7365" lon="6.67128">
        <ele>1264.2</ele>
        <time>2024-05-26T13:48:31Z</time>
      </trkpt>
      <trkpt lat="43.7365" lon="6.67126">
        <ele>1264.1</ele>
        <time>2024-05-26T13:48:32Z</time>
      </trkpt>
      <trkpt lat="43.73649" lon="6.67125">
        <ele>1263.8</ele>
        <time>2024-05-26T13:48:33Z</time>
      </trkpt>
      <trkpt lat="43.73649" lon="6.67124">
        <ele>1263.5</ele>
        <time>2024-05-26T13:48:34Z</time>
      </trkpt>
      <trkpt lat="43.73648" lon="6.67123">
        <ele>1263.3</ele>
        <time>2024-05-26T13:48:35Z</time>
      </trkpt>
      <trkpt lat="43.73648" lon="6.67121">
        <ele>1263</ele>
        <time>2024-05-26T13:48:36Z</time>
      </trkpt>
      <trkpt lat="43.73648" lon="6.6712">
        <ele>1262.8</ele>
        <time>2024-05-26T13:48:37Z</time>
      </trkpt>
      <trkpt lat="43.73648" lon="6.67118">
        <ele>1262.5</ele>
        <time>2024-05-26T13:48:38Z</time>
      </trkpt>
      <trkpt lat="43.73648" lon="6.67117">
        <ele>1262.3</ele>
        <time>2024-05-26T13:48:39Z</time>
      </trkpt>
      <trkpt lat="43.73649" lon="6.67115">
        <ele>1262.1</ele>
        <time>2024-05-26T13:48:40Z</time>
      </trkpt>
      <trkpt lat="43.7365" lon="6.67114">
        <ele>1261.9</ele>
        <time>2024-05-26T13:48:41Z</time>
      </trkpt>
      <trkpt lat="43.7365" lon="6.67112">
        <ele>1261.7</ele>
        <time>2024-05-26T13:48:42Z</time>
      </trkpt>
      <trkpt lat="43.7365" lon="6.67111">
        <ele>1261.5</ele>
        <time>2024-05-26T13:48:43Z</time>
      </trkpt>
      <trkpt lat="43.7365" lon="6.67109">
        <ele>1261.3</ele>
        <time>2024-05-26T13:48:44Z</time>
      </trkpt>
      <trkpt lat="43.7365" lon="6.67108">
        <ele>1261.1</ele>
        <time>2024-05-26T13:48:45Z</time>
      </trkpt>
      <trkpt lat="43.7365" lon="6.67107">
        <ele>1260.8</ele>
        <time>2024-05-26T13:48:46Z</time>
      </trkpt>
      <trkpt lat="43.73649" lon="6.67106">
        <ele>1260.6</ele>
        <time>2024-05-26T13:48:47Z</time>
      </trkpt>
      <trkpt lat="43.73649" lon="6.67105">
        <ele>1260.5</ele>
        <time>2024-05-26T13:48:48Z</time>
      </trkpt>
      <trkpt lat="43.73649" lon="6.67103">
        <ele>1260.2</ele>
        <time>2024-05-26T13:48:49Z</time>
      </trkpt>
      <trkpt lat="43.73648" lon="6.67102">
        <ele>1260</ele>
        <time>2024-05-26T13:48:50Z</time>
      </trkpt>
      <trkpt lat="43.73648" lon="6.671">
        <ele>1259.8</ele>
        <time>2024-05-26T13:48:51Z</time>
      </trkpt>
      <trkpt lat="43.73648" lon="6.67099">
        <ele>1259.7</ele>
        <time>2024-05-26T13:48:52Z</time>
      </trkpt>
      <trkpt lat="43.73648" lon="6.67097">
        <ele>1259.5</ele>
        <time>2024-05-26T13:48:53Z</time>
      </trkpt>
      <trkpt lat="43.73649" lon="6.67096">
        <ele>1259.4</ele>
        <time>2024-05-26T13:48:54Z</time>
      </trkpt>
      <trkpt lat="43.73649" lon="6.67095">
        <ele>1259.2</ele>
        <time>2024-05-26T13:48:55Z</time>
      </trkpt>
      <trkpt lat="43.73649" lon="6.67093">
        <ele>1259.1</ele>
        <time>2024-05-26T13:48:56Z</time>
      </trkpt>
      <trkpt lat="43.73649" lon="6.67092">
        <ele>1258.8</ele>
        <time>2024-05-26T13:48:57Z</time>
      </trkpt>
      <trkpt lat="43.73649" lon="6.6709">
        <ele>1258.6</ele>
        <time>2024-05-26T13:48:58Z</time>
      </trkpt>
      <trkpt lat="43.73649" lon="6.67089">
        <ele>1258.4</ele>
        <time>2024-05-26T13:48:59Z</time>
      </trkpt>
      <trkpt lat="43.73648" lon="6.67088">
        <ele>1258.1</ele>
        <time>2024-05-26T13:49:00Z</time>
      </trkpt>
      <trkpt lat="43.73648" lon="6.67087">
        <ele>1258</ele>
        <time>2024-05-26T13:49:01Z</time>
      </trkpt>
      <trkpt lat="43.73647" lon="6.67085">
        <ele>1257.8</ele>
        <time>2024-05-26T13:49:02Z</time>
      </trkpt>
      <trkpt lat="43.73647" lon="6.67084">
        <ele>1257.7</ele>
        <time>2024-05-26T13:49:03Z</time>
      </trkpt>
      <trkpt lat="43.73647" lon="6.67082">
        <ele>1257.5</ele>
        <time>2024-05-26T13:49:04Z</time>
      </trkpt>
      <trkpt lat="43.73647" lon="6.6708">
        <ele>1257.4</ele>
        <time>2024-05-26T13:49:05Z</time>
      </trkpt>
      <trkpt lat="43.73647" lon="6.67079">
        <ele>1257.3</ele>
        <time>2024-05-26T13:49:06Z</time>
      </trkpt>
      <trkpt lat="43.73647" lon="6.67078">
        <ele>1257.1</ele>
        <time>2024-05-26T13:49:07Z</time>
      </trkpt>
      <trkpt lat="43.73647" lon="6.67077">
        <ele>1257</ele>
        <time>2024-05-26T13:49:08Z</time>
      </trkpt>
      <trkpt lat="43.73647" lon="6.67076">
        <ele>1256.8</ele>
        <time>2024-05-26T13:49:09Z</time>
      </trkpt>
      <trkpt lat="43.73647" lon="6.67076">
        <ele>1256.7</ele>
        <time>2024-05-26T13:49:10Z</time>
      </trkpt>
      <trkpt lat="43.73646" lon="6.67075">
        <ele>1256.6</ele>
        <time>2024-05-26T13:49:11Z</time>
      </trkpt>
      <trkpt lat="43.73647" lon="6.67074">
        <ele>1256.4</ele>
        <time>2024-05-26T13:49:12Z</time>
      </trkpt>
      <trkpt lat="43.73646" lon="6.67073">
        <ele>1256.3</ele>
        <time>2024-05-26T13:49:13Z</time>
      </trkpt>
      <trkpt lat="43.73646" lon="6.67072">
        <ele>1256.2</ele>
        <time>2024-05-26T13:49:14Z</time>
      </trkpt>
      <trkpt lat="43.73646" lon="6.67071">
        <ele>1256.2</ele>
        <time>2024-05-26T13:49:15Z</time>
      </trkpt>
      <trkpt lat="43.73645" lon="6.6707">
        <ele>1256.1</ele>
        <time>2024-05-26T13:49:16Z</time>
      </trkpt>
      <trkpt lat="43.73645" lon="6.67069">
        <ele>1256</ele>
        <time>2024-05-26T13:49:17Z</time>
      </trkpt>
      <trkpt lat="43.73645" lon="6.67067">
        <ele>1256</ele>
        <time>2024-05-26T13:49:18Z</time>
      </trkpt>
      <trkpt lat="43.73645" lon="6.67066">
        <ele>1255.9</ele>
        <time>2024-05-26T13:49:19Z</time>
      </trkpt>
      <trkpt lat="43.73645" lon="6.67064">
        <ele>1255.8</ele>
        <time>2024-05-26T13:49:20Z</time>
      </trkpt>
      <trkpt lat="43.73645" lon="6.67063">
        <ele>1255.7</ele>
        <time>2024-05-26T13:49:21Z</time>
      </trkpt>
      <trkpt lat="43.73644" lon="6.67061">
        <ele>1255.6</ele>
        <time>2024-05-26T13:49:22Z</time>
      </trkpt>
      <trkpt lat="43.73645" lon="6.67059">
        <ele>1255.4</ele>
        <time>2024-05-26T13:49:23Z</time>
      </trkpt>
      <trkpt lat="43.73644" lon="6.67058">
        <ele>1255.2</ele>
        <time>2024-05-26T13:49:24Z</time>
      </trkpt>
      <trkpt lat="43.73644" lon="6.67056">
        <ele>1255</ele>
        <time>2024-05-26T13:49:25Z</time>
      </trkpt>
      <trkpt lat="43.73644" lon="6.67054">
        <ele>1254.8</ele>
        <time>2024-05-26T13:49:26Z</time>
      </trkpt>
      <trkpt lat="43.73644" lon="6.67052">
        <ele>1254.7</ele>
        <time>2024-05-26T13:49:27Z</time>
      </trkpt>
      <trkpt lat="43.73643" lon="6.67051">
        <ele>1254.6</ele>
        <time>2024-05-26T13:49:28Z</time>
      </trkpt>
      <trkpt lat="43.73643" lon="6.67049">
        <ele>1254.4</ele>
        <time>2024-05-26T13:49:29Z</time>
      </trkpt>
      <trkpt lat="43.73643" lon="6.67048">
        <ele>1254.3</ele>
        <time>2024-05-26T13:49:30Z</time>
      </trkpt>
      <trkpt lat="43.73642" lon="6.67047">
        <ele>1254</ele>
        <time>2024-05-26T13:49:31Z</time>
      </trkpt>
      <trkpt lat="43.73642" lon="6.67046">
        <ele>1253.7</ele>
        <time>2024-05-26T13:49:32Z</time>
      </trkpt>
      <trkpt lat="43.73642" lon="6.67045">
        <ele>1253.6</ele>
        <time>2024-05-26T13:49:33Z</time>
      </trkpt>
      <trkpt lat="43.73642" lon="6.67043">
        <ele>1253.4</ele>
        <time>2024-05-26T13:49:34Z</time>
      </trkpt>
      <trkpt lat="43.73642" lon="6.67042">
        <ele>1253.2</ele>
        <time>2024-05-26T13:49:35Z</time>
      </trkpt>
      <trkpt lat="43.73642" lon="6.6704">
        <ele>1253.1</ele>
        <time>2024-05-26T13:49:36Z</time>
      </trkpt>
      <trkpt lat="43.73642" lon="6.67039">
        <ele>1252.8</ele>
        <time>2024-05-26T13:49:37Z</time>
      </trkpt>
      <trkpt lat="43.73642" lon="6.67037">
        <ele>1252.6</ele>
        <time>2024-05-26T13:49:38Z</time>
      </trkpt>
      <trkpt lat="43.73642" lon="6.67036">
        <ele>1252.5</ele>
        <time>2024-05-26T13:49:39Z</time>
      </trkpt>
      <trkpt lat="43.73641" lon="6.67035">
        <ele>1252.2</ele>
        <time>2024-05-26T13:49:40Z</time>
      </trkpt>
      <trkpt lat="43.7364" lon="6.67033">
        <ele>1252</ele>
        <time>2024-05-26T13:49:41Z</time>
      </trkpt>
      <trkpt lat="43.7364" lon="6.67032">
        <ele>1251.9</ele>
        <time>2024-05-26T13:49:42Z</time>
      </trkpt>
      <trkpt lat="43.7364" lon="6.6703">
        <ele>1251.7</ele>
        <time>2024-05-26T13:49:43Z</time>
      </trkpt>
      <trkpt lat="43.7364" lon="6.67028">
        <ele>1251.5</ele>
        <time>2024-05-26T13:49:44Z</time>
      </trkpt>
      <trkpt lat="43.73639" lon="6.67026">
        <ele>1251.4</ele>
        <time>2024-05-26T13:49:45Z</time>
      </trkpt>
      <trkpt lat="43.73639" lon="6.67025">
        <ele>1251.2</ele>
        <time>2024-05-26T13:49:46Z</time>
      </trkpt>
      <trkpt lat="43.73639" lon="6.67024">
        <ele>1251</ele>
        <time>2024-05-26T13:49:47Z</time>
      </trkpt>
      <trkpt lat="43.73639" lon="6.67023">
        <ele>1250.9</ele>
        <time>2024-05-26T13:49:48Z</time>
      </trkpt>
      <trkpt lat="43.73638" lon="6.67021">
        <ele>1250.8</ele>
        <time>2024-05-26T13:49:49Z</time>
      </trkpt>
      <trkpt lat="43.73638" lon="6.6702">
        <ele>1250.6</ele>
        <time>2024-05-26T13:49:50Z</time>
      </trkpt>
      <trkpt lat="43.73637" lon="6.67019">
        <ele>1250.5</ele>
        <time>2024-05-26T13:49:51Z</time>
      </trkpt>
      <trkpt lat="43.73637" lon="6.67018">
        <ele>1250.4</ele>
        <time>2024-05-26T13:49:52Z</time>
      </trkpt>
      <trkpt lat="43.73637" lon="6.67017">
        <ele>1250.4</ele>
        <time>2024-05-26T13:49:53Z</time>
      </trkpt>
      <trkpt lat="43.73636" lon="6.67016">
        <ele>1250.2</ele>
        <time>2024-05-26T13:49:54Z</time>
      </trkpt>
      <trkpt lat="43.73636" lon="6.67014">
        <ele>1250.1</ele>
        <time>2024-05-26T13:49:55Z</time>
      </trkpt>
      <trkpt lat="43.73635" lon="6.67013">
        <ele>1250</ele>
        <time>2024-05-26T13:49:56Z</time>
      </trkpt>
      <trkpt lat="43.73634" lon="6.67012">
        <ele>1249.8</ele>
        <time>2024-05-26T13:49:57Z</time>
      </trkpt>
      <trkpt lat="43.73633" lon="6.67011">
        <ele>1249.7</ele>
        <time>2024-05-26T13:49:58Z</time>
      </trkpt>
      <trkpt lat="43.73633" lon="6.67009">
        <ele>1249.7</ele>
        <time>2024-05-26T13:49:59Z</time>
      </trkpt>
      <trkpt lat="43.73632" lon="6.67008">
        <ele>1249.6</ele>
        <time>2024-05-26T13:50:00Z</time>
      </trkpt>
      <trkpt lat="43.73631" lon="6.67007">
        <ele>1249.5</ele>
        <time>2024-05-26T13:50:01Z</time>
      </trkpt>
      <trkpt lat="43.73631" lon="6.67005">
        <ele>1249.4</ele>
        <time>2024-05-26T13:50:02Z</time>
      </trkpt>
      <trkpt lat="43.7363" lon="6.67004">
        <ele>1249.3</ele>
        <time>2024-05-26T13:50:03Z</time>
      </trkpt>
      <trkpt lat="43.7363" lon="6.67002">
        <ele>1249.2</ele>
        <time>2024-05-26T13:50:04Z</time>
      </trkpt>
      <trkpt lat="43.73629" lon="6.67001">
        <ele>1249.1</ele>
        <time>2024-05-26T13:50:05Z</time>
      </trkpt>
      <trkpt lat="43.73628" lon="6.67">
        <ele>1249</ele>
        <time>2024-05-26T13:50:06Z</time>
      </trkpt>
      <trkpt lat="43.73628" lon="6.66999">
        <ele>1249</ele>
        <time>2024-05-26T13:50:07Z</time>
      </trkpt>
      <trkpt lat="43.73627" lon="6.66998">
        <ele>1249</ele>
        <time>2024-05-26T13:50:08Z</time>
      </trkpt>
      <trkpt lat="43.73627" lon="6.66996">
        <ele>1248.9</ele>
        <time>2024-05-26T13:50:09Z</time>
      </trkpt>
      <trkpt lat="43.73626" lon="6.66995">
        <ele>1248.8</ele>
        <time>2024-05-26T13:50:10Z</time>
      </trkpt>
      <trkpt lat="43.73626" lon="6.66994">
        <ele>1248.7</ele>
        <time>2024-05-26T13:50:11Z</time>
      </trkpt>
      <trkpt lat="43.73626" lon="6.66993">
        <ele>1248.7</ele>
        <time>2024-05-26T13:50:12Z</time>
      </trkpt>
      <trkpt lat="43.73626" lon="6.66992">
        <ele>1248.7</ele>
        <time>2024-05-26T13:50:13Z</time>
      </trkpt>
      <trkpt lat="43.73625" lon="6.66991">
        <ele>1248.6</ele>
        <time>2024-05-26T13:50:14Z</time>
      </trkpt>
      <trkpt lat="43.73624" lon="6.66991">
        <ele>1248.6</ele>
        <time>2024-05-26T13:50:15Z</time>
      </trkpt>
      <trkpt lat="43.73624" lon="6.66989">
        <ele>1248.5</ele>
        <time>2024-05-26T13:50:16Z</time>
      </trkpt>
      <trkpt lat="43.73623" lon="6.66988">
        <ele>1248.4</ele>
        <time>2024-05-26T13:50:17Z</time>
      </trkpt>
      <trkpt lat="43.73623" lon="6.66988">
        <ele>1248.3</ele>
        <time>2024-05-26T13:50:18Z</time>
      </trkpt>
      <trkpt lat="43.73622" lon="6.66988">
        <ele>1248.2</ele>
        <time>2024-05-26T13:50:19Z</time>
      </trkpt>
      <trkpt lat="43.73623" lon="6.66988">
        <ele>1248.2</ele>
        <time>2024-05-26T13:50:20Z</time>
      </trkpt>
      <trkpt lat="43.73622" lon="6.66987">
        <ele>1248.2</ele>
        <time>2024-05-26T13:50:21Z</time>
      </trkpt>
      <trkpt lat="43.73622" lon="6.66986">
        <ele>1248.2</ele>
        <time>2024-05-26T13:50:22Z</time>
      </trkpt>
      <trkpt lat="43.73622" lon="6.66985">
        <ele>1248.1</ele>
        <time>2024-05-26T13:50:23Z</time>
      </trkpt>
      <trkpt lat="43.73622" lon="6.66984">
        <ele>1248.1</ele>
        <time>2024-05-26T13:50:24Z</time>
      </trkpt>
      <trkpt lat="43.73622" lon="6.66983">
        <ele>1248</ele>
        <time>2024-05-26T13:50:25Z</time>
      </trkpt>
      <trkpt lat="43.73622" lon="6.66982">
        <ele>1248</ele>
        <time>2024-05-26T13:50:26Z</time>
      </trkpt>
      <trkpt lat="43.7362" lon="6.6698">
        <ele>1248</ele>
        <time>2024-05-26T13:50:27Z</time>
      </trkpt>
      <trkpt lat="43.7362" lon="6.66979">
        <ele>1247.9</ele>
        <time>2024-05-26T13:50:28Z</time>
      </trkpt>
      <trkpt lat="43.7362" lon="6.66977">
        <ele>1247.9</ele>
        <time>2024-05-26T13:50:29Z</time>
      </trkpt>
      <trkpt lat="43.73619" lon="6.66976">
        <ele>1247.9</ele>
        <time>2024-05-26T13:50:30Z</time>
      </trkpt>
      <trkpt lat="43.73619" lon="6.66974">
        <ele>1247.9</ele>
        <time>2024-05-26T13:50:31Z</time>
      </trkpt>
      <trkpt lat="43.73618" lon="6.66973">
        <ele>1247.7</ele>
        <time>2024-05-26T13:50:32Z</time>
      </trkpt>
      <trkpt lat="43.73617" lon="6.66972">
        <ele>1247.6</ele>
        <time>2024-05-26T13:50:33Z</time>
      </trkpt>
      <trkpt lat="43.73616" lon="6.66972">
        <ele>1247.6</ele>
        <time>2024-05-26T13:50:34Z</time>
      </trkpt>
      <trkpt lat="43.73616" lon="6.6697">
        <ele>1247.5</ele>
        <time>2024-05-26T13:50:35Z</time>
      </trkpt>
      <trkpt lat="43.73615" lon="6.66969">
        <ele>1247.4</ele>
        <time>2024-05-26T13:50:36Z</time>
      </trkpt>
      <trkpt lat="43.73615" lon="6.66968">
        <ele>1247.3</ele>
        <time>2024-05-26T13:50:37Z</time>
      </trkpt>
      <trkpt lat="43.73615" lon="6.66966">
        <ele>1247.2</ele>
        <time>2024-05-26T13:50:38Z</time>
      </trkpt>
      <trkpt lat="43.73614" lon="6.66965">
        <ele>1247.1</ele>
        <time>2024-05-26T13:50:39Z</time>
      </trkpt>
      <trkpt lat="43.73612" lon="6.66963">
        <ele>1246.9</ele>
        <time>2024-05-26T13:50:40Z</time>
      </trkpt>
      <trkpt lat="43.73612" lon="6.66962">
        <ele>1246.7</ele>
        <time>2024-05-26T13:50:41Z</time>
      </trkpt>
      <trkpt lat="43.73611" lon="6.6696">
        <ele>1246.5</ele>
        <time>2024-05-26T13:50:42Z</time>
      </trkpt>
      <trkpt lat="43.7361" lon="6.66959">
        <ele>1246.3</ele>
        <time>2024-05-26T13:50:43Z</time>
      </trkpt>
      <trkpt lat="43.73609" lon="6.66958">
        <ele>1246.1</ele>
        <time>2024-05-26T13:50:44Z</time>
      </trkpt>
      <trkpt lat="43.73609" lon="6.66956">
        <ele>1246</ele>
        <time>2024-05-26T13:50:45Z</time>
      </trkpt>
      <trkpt lat="43.73608" lon="6.66955">
        <ele>1245.8</ele>
        <time>2024-05-26T13:50:46Z</time>
      </trkpt>
      <trkpt lat="43.73607" lon="6.66954">
        <ele>1245.6</ele>
        <time>2024-05-26T13:50:47Z</time>
      </trkpt>
      <trkpt lat="43.73607" lon="6.66953">
        <ele>1245.4</ele>
        <time>2024-05-26T13:50:48Z</time>
      </trkpt>
      <trkpt lat="43.73607" lon="6.66952">
        <ele>1245.2</ele>
        <time>2024-05-26T13:50:49Z</time>
      </trkpt>
      <trkpt lat="43.73606" lon="6.66951">
        <ele>1245.1</ele>
        <time>2024-05-26T13:50:50Z</time>
      </trkpt>
      <trkpt lat="43.73606" lon="6.6695">
        <ele>1244.9</ele>
        <time>2024-05-26T13:50:51Z</time>
      </trkpt>
      <trkpt lat="43.73606" lon="6.66949">
        <ele>1244.7</ele>
        <time>2024-05-26T13:50:52Z</time>
      </trkpt>
      <trkpt lat="43.73606" lon="6.66948">
        <ele>1244.5</ele>
        <time>2024-05-26T13:50:53Z</time>
      </trkpt>
      <trkpt lat="43.73606" lon="6.66947">
        <ele>1244.4</ele>
        <time>2024-05-26T13:50:54Z</time>
      </trkpt>
      <trkpt lat="43.73605" lon="6.66945">
        <ele>1244.3</ele>
        <time>2024-05-26T13:50:55Z</time>
      </trkpt>
      <trkpt lat="43.73605" lon="6.66944">
        <ele>1244.2</ele>
        <time>2024-05-26T13:50:56Z</time>
      </trkpt>
      <trkpt lat="43.73605" lon="6.66943">
        <ele>1244.1</ele>
        <time>2024-05-26T13:50:57Z</time>
      </trkpt>
      <trkpt lat="43.73605" lon="6.66942">
        <ele>1243.9</ele>
        <time>2024-05-26T13:50:58Z</time>
      </trkpt>
      <trkpt lat="43.73605" lon="6.66941">
        <ele>1243.8</ele>
        <time>2024-05-26T13:50:59Z</time>
      </trkpt>
      <trkpt lat="43.73604" lon="6.6694">
        <ele>1243.7</ele>
        <time>2024-05-26T13:51:00Z</time>
      </trkpt>
      <trkpt lat="43.73604" lon="6.66939">
        <ele>1243.7</ele>
        <time>2024-05-26T13:51:01Z</time>
      </trkpt>
      <trkpt lat="43.73604" lon="6.66938">
        <ele>1243.5</ele>
        <time>2024-05-26T13:51:02Z</time>
      </trkpt>
      <trkpt lat="43.73603" lon="6.66936">
        <ele>1243.4</ele>
        <time>2024-05-26T13:51:03Z</time>
      </trkpt>
      <trkpt lat="43.73603" lon="6.66935">
        <ele>1243.2</ele>
        <time>2024-05-26T13:51:04Z</time>
      </trkpt>
      <trkpt lat="43.73603" lon="6.66934">
        <ele>1243</ele>
        <time>2024-05-26T13:51:05Z</time>
      </trkpt>
      <trkpt lat="43.73603" lon="6.66933">
        <ele>1242.9</ele>
        <time>2024-05-26T13:51:06Z</time>
      </trkpt>
      <trkpt lat="43.73603" lon="6.66932">
        <ele>1242.7</ele>
        <time>2024-05-26T13:51:07Z</time>
      </trkpt>
      <trkpt lat="43.73603" lon="6.6693">
        <ele>1242.5</ele>
        <time>2024-05-26T13:51:08Z</time>
      </trkpt>
      <trkpt lat="43.73603" lon="6.66929">
        <ele>1242.3</ele>
        <time>2024-05-26T13:51:09Z</time>
      </trkpt>
      <trkpt lat="43.73602" lon="6.66928">
        <ele>1242</ele>
        <time>2024-05-26T13:51:10Z</time>
      </trkpt>
      <trkpt lat="43.73602" lon="6.66926">
        <ele>1241.8</ele>
        <time>2024-05-26T13:51:11Z</time>
      </trkpt>
      <trkpt lat="43.73602" lon="6.66925">
        <ele>1241.7</ele>
        <time>2024-05-26T13:51:12Z</time>
      </trkpt>
      <trkpt lat="43.73602" lon="6.66924">
        <ele>1241.5</ele>
        <time>2024-05-26T13:51:13Z</time>
      </trkpt>
      <trkpt lat="43.73602" lon="6.66923">
        <ele>1241.4</ele>
        <time>2024-05-26T13:51:14Z</time>
      </trkpt>
      <trkpt lat="43.73602" lon="6.66922">
        <ele>1241.3</ele>
        <time>2024-05-26T13:51:15Z</time>
      </trkpt>
      <trkpt lat="43.73602" lon="6.6692">
        <ele>1241.3</ele>
        <time>2024-05-26T13:51:16Z</time>
      </trkpt>
      <trkpt lat="43.73601" lon="6.66919">
        <ele>1241.2</ele>
        <time>2024-05-26T13:51:17Z</time>
      </trkpt>
      <trkpt lat="43.73601" lon="6.66918">
        <ele>1241.1</ele>
        <time>2024-05-26T13:51:18Z</time>
      </trkpt>
      <trkpt lat="43.736" lon="6.66917">
        <ele>1241</ele>
        <time>2024-05-26T13:51:19Z</time>
      </trkpt>
      <trkpt lat="43.736" lon="6.66916">
        <ele>1240.9</ele>
        <time>2024-05-26T13:51:20Z</time>
      </trkpt>
      <trkpt lat="43.73599" lon="6.66915">
        <ele>1240.7</ele>
        <time>2024-05-26T13:51:21Z</time>
      </trkpt>
      <trkpt lat="43.73599" lon="6.66913">
        <ele>1240.6</ele>
        <time>2024-05-26T13:51:22Z</time>
      </trkpt>
      <trkpt lat="43.73599" lon="6.66912">
        <ele>1240.4</ele>
        <time>2024-05-26T13:51:23Z</time>
      </trkpt>
      <trkpt lat="43.73599" lon="6.66911">
        <ele>1240.3</ele>
        <time>2024-05-26T13:51:24Z</time>
      </trkpt>
      <trkpt lat="43.73598" lon="6.6691">
        <ele>1240.3</ele>
        <time>2024-05-26T13:51:25Z</time>
      </trkpt>
      <trkpt lat="43.73598" lon="6.66908">
        <ele>1240.2</ele>
        <time>2024-05-26T13:51:26Z</time>
      </trkpt>
      <trkpt lat="43.73598" lon="6.66907">
        <ele>1240.1</ele>
        <time>2024-05-26T13:51:27Z</time>
      </trkpt>
      <trkpt lat="43.73597" lon="6.66906">
        <ele>1239.9</ele>
        <time>2024-05-26T13:51:28Z</time>
      </trkpt>
      <trkpt lat="43.73597" lon="6.66905">
        <ele>1239.8</ele>
        <time>2024-05-26T13:51:29Z</time>
      </trkpt>
      <trkpt lat="43.73596" lon="6.66903">
        <ele>1239.7</ele>
        <time>2024-05-26T13:51:30Z</time>
      </trkpt>
      <trkpt lat="43.73596" lon="6.66902">
        <ele>1239.6</ele>
        <time>2024-05-26T13:51:31Z</time>
      </trkpt>
      <trkpt lat="43.73596" lon="6.66901">
        <ele>1239.5</ele>
        <time>2024-05-26T13:51:32Z</time>
      </trkpt>
      <trkpt lat="43.73596" lon="6.669">
        <ele>1239.4</ele>
        <time>2024-05-26T13:51:33Z</time>
      </trkpt>
      <trkpt lat="43.73595" lon="6.66899">
        <ele>1239.3</ele>
        <time>2024-05-26T13:51:34Z</time>
      </trkpt>
      <trkpt lat="43.73595" lon="6.66898">
        <ele>1239.2</ele>
        <time>2024-05-26T13:51:35Z</time>
      </trkpt>
      <trkpt lat="43.73595" lon="6.66896">
        <ele>1239</ele>
        <time>2024-05-26T13:51:36Z</time>
      </trkpt>
      <trkpt lat="43.73595" lon="6.66895">
        <ele>1238.9</ele>
        <time>2024-05-26T13:51:37Z</time>
      </trkpt>
      <trkpt lat="43.73594" lon="6.66894">
        <ele>1238.7</ele>
        <time>2024-05-26T13:51:38Z</time>
      </trkpt>
      <trkpt lat="43.73594" lon="6.66893">
        <ele>1238.6</ele>
        <time>2024-05-26T13:51:39Z</time>
      </trkpt>
      <trkpt lat="43.73594" lon="6.66891">
        <ele>1238.5</ele>
        <time>2024-05-26T13:51:40Z</time>
      </trkpt>
      <trkpt lat="43.73594" lon="6.6689">
        <ele>1238.4</ele>
        <time>2024-05-26T13:51:41Z</time>
      </trkpt>
      <trkpt lat="43.73593" lon="6.66889">
        <ele>1238.3</ele>
        <time>2024-05-26T13:51:42Z</time>
      </trkpt>
      <trkpt lat="43.73593" lon="6.66887">
        <ele>1238.3</ele>
        <time>2024-05-26T13:51:43Z</time>
      </trkpt>
      <trkpt lat="43.73592" lon="6.66886">
        <ele>1238.2</ele>
        <time>2024-05-26T13:51:44Z</time>
      </trkpt>
      <trkpt lat="43.73592" lon="6.66885">
        <ele>1238.1</ele>
        <time>2024-05-26T13:51:45Z</time>
      </trkpt>
      <trkpt lat="43.73591" lon="6.66884">
        <ele>1238</ele>
        <time>2024-05-26T13:51:46Z</time>
      </trkpt>
      <trkpt lat="43.73591" lon="6.66882">
        <ele>1237.9</ele>
        <time>2024-05-26T13:51:47Z</time>
      </trkpt>
      <trkpt lat="43.7359" lon="6.66881">
        <ele>1237.8</ele>
        <time>2024-05-26T13:51:48Z</time>
      </trkpt>
      <trkpt lat="43.7359" lon="6.66879">
        <ele>1237.7</ele>
        <time>2024-05-26T13:51:49Z</time>
      </trkpt>
      <trkpt lat="43.7359" lon="6.66877">
        <ele>1237.6</ele>
        <time>2024-05-26T13:51:50Z</time>
      </trkpt>
      <trkpt lat="43.73589" lon="6.66876">
        <ele>1237.4</ele>
        <time>2024-05-26T13:51:51Z</time>
      </trkpt>
      <trkpt lat="43.73589" lon="6.66874">
        <ele>1237.3</ele>
        <time>2024-05-26T13:51:52Z</time>
      </trkpt>
      <trkpt lat="43.73588" lon="6.66873">
        <ele>1237.1</ele>
        <time>2024-05-26T13:51:53Z</time>
      </trkpt>
      <trkpt lat="43.73587" lon="6.66872">
        <ele>1237</ele>
        <time>2024-05-26T13:51:54Z</time>
      </trkpt>
      <trkpt lat="43.73587" lon="6.66871">
        <ele>1236.8</ele>
        <time>2024-05-26T13:51:55Z</time>
      </trkpt>
      <trkpt lat="43.73586" lon="6.66869">
        <ele>1236.6</ele>
        <time>2024-05-26T13:51:56Z</time>
      </trkpt>
      <trkpt lat="43.73586" lon="6.66868">
        <ele>1236.3</ele>
        <time>2024-05-26T13:51:57Z</time>
      </trkpt>
      <trkpt lat="43.73585" lon="6.66867">
        <ele>1236.1</ele>
        <time>2024-05-26T13:51:58Z</time>
      </trkpt>
      <trkpt lat="43.73585" lon="6.66866">
        <ele>1235.9</ele>
        <time>2024-05-26T13:51:59Z</time>
      </trkpt>
      <trkpt lat="43.73584" lon="6.66865">
        <ele>1235.6</ele>
        <time>2024-05-26T13:52:00Z</time>
      </trkpt>
      <trkpt lat="43.73584" lon="6.66864">
        <ele>1235.3</ele>
        <time>2024-05-26T13:52:01Z</time>
      </trkpt>
      <trkpt lat="43.73584" lon="6.66863">
        <ele>1235.1</ele>
        <time>2024-05-26T13:52:02Z</time>
      </trkpt>
      <trkpt lat="43.73583" lon="6.66862">
        <ele>1235</ele>
        <time>2024-05-26T13:52:03Z</time>
      </trkpt>
      <trkpt lat="43.73583" lon="6.6686">
        <ele>1234.9</ele>
        <time>2024-05-26T13:52:04Z</time>
      </trkpt>
      <trkpt lat="43.73582" lon="6.66859">
        <ele>1234.7</ele>
        <time>2024-05-26T13:52:05Z</time>
      </trkpt>
      <trkpt lat="43.73582" lon="6.66858">
        <ele>1234.6</ele>
        <time>2024-05-26T13:52:06Z</time>
      </trkpt>
      <trkpt lat="43.73581" lon="6.66857">
        <ele>1234.5</ele>
        <time>2024-05-26T13:52:07Z</time>
      </trkpt>
      <trkpt lat="43.73581" lon="6.66856">
        <ele>1234.5</ele>
        <time>2024-05-26T13:52:08Z</time>
      </trkpt>
      <trkpt lat="43.7358" lon="6.66855">
        <ele>1234.4</ele>
        <time>2024-05-26T13:52:09Z</time>
      </trkpt>
      <trkpt lat="43.7358" lon="6.66854">
        <ele>1234.3</ele>
        <time>2024-05-26T13:52:10Z</time>
      </trkpt>
      <trkpt lat="43.73579" lon="6.66853">
        <ele>1234.3</ele>
        <time>2024-05-26T13:52:11Z</time>
      </trkpt>
      <trkpt lat="43.73578" lon="6.66852">
        <ele>1234.3</ele>
        <time>2024-05-26T13:52:12Z</time>
      </trkpt>
      <trkpt lat="43.73578" lon="6.66851">
        <ele>1234.3</ele>
        <time>2024-05-26T13:52:13Z</time>
      </trkpt>
      <trkpt lat="43.73577" lon="6.6685">
        <ele>1234.3</ele>
        <time>2024-05-26T13:52:14Z</time>
      </trkpt>
      <trkpt lat="43.73577" lon="6.66848">
        <ele>1234.1</ele>
        <time>2024-05-26T13:52:15Z</time>
      </trkpt>
      <trkpt lat="43.73576" lon="6.66847">
        <ele>1234</ele>
        <time>2024-05-26T13:52:16Z</time>
      </trkpt>
      <trkpt lat="43.73576" lon="6.66845">
        <ele>1233.7</ele>
        <time>2024-05-26T13:52:17Z</time>
      </trkpt>
      <trkpt lat="43.73575" lon="6.66843">
        <ele>1233.5</ele>
        <time>2024-05-26T13:52:18Z</time>
      </trkpt>
      <trkpt lat="43.73575" lon="6.66842">
        <ele>1233.5</ele>
        <time>2024-05-26T13:52:19Z</time>
      </trkpt>
      <trkpt lat="43.73574" lon="6.66841">
        <ele>1233.3</ele>
        <time>2024-05-26T13:52:20Z</time>
      </trkpt>
      <trkpt lat="43.73573" lon="6.66839">
        <ele>1233.1</ele>
        <time>2024-05-26T13:52:21Z</time>
      </trkpt>
      <trkpt lat="43.73573" lon="6.66838">
        <ele>1233</ele>
        <time>2024-05-26T13:52:22Z</time>
      </trkpt>
      <trkpt lat="43.73572" lon="6.66837">
        <ele>1232.8</ele>
        <time>2024-05-26T13:52:23Z</time>
      </trkpt>
      <trkpt lat="43.73572" lon="6.66836">
        <ele>1232.7</ele>
        <time>2024-05-26T13:52:24Z</time>
      </trkpt>
      <trkpt lat="43.73571" lon="6.66835">
        <ele>1232.6</ele>
        <time>2024-05-26T13:52:25Z</time>
      </trkpt>
      <trkpt lat="43.73571" lon="6.66834">
        <ele>1232.4</ele>
        <time>2024-05-26T13:52:26Z</time>
      </trkpt>
      <trkpt lat="43.73571" lon="6.66833">
        <ele>1232.3</ele>
        <time>2024-05-26T13:52:27Z</time>
      </trkpt>
      <trkpt lat="43.73571" lon="6.66831">
        <ele>1232.1</ele>
        <time>2024-05-26T13:52:28Z</time>
      </trkpt>
      <trkpt lat="43.7357" lon="6.6683">
        <ele>1232</ele>
        <time>2024-05-26T13:52:29Z</time>
      </trkpt>
      <trkpt lat="43.7357" lon="6.66828">
        <ele>1231.8</ele>
        <time>2024-05-26T13:52:30Z</time>
      </trkpt>
      <trkpt lat="43.7357" lon="6.66827">
        <ele>1231.5</ele>
        <time>2024-05-26T13:52:31Z</time>
      </trkpt>
      <trkpt lat="43.73569" lon="6.66826">
        <ele>1231.3</ele>
        <time>2024-05-26T13:52:32Z</time>
      </trkpt>
      <trkpt lat="43.73569" lon="6.66824">
        <ele>1231.4</ele>
        <time>2024-05-26T13:52:33Z</time>
      </trkpt>
      <trkpt lat="43.73569" lon="6.66823">
        <ele>1231.2</ele>
        <time>2024-05-26T13:52:34Z</time>
      </trkpt>
      <trkpt lat="43.73568" lon="6.66822">
        <ele>1231</ele>
        <time>2024-05-26T13:52:35Z</time>
      </trkpt>
      <trkpt lat="43.73568" lon="6.66821">
        <ele>1230.8</ele>
        <time>2024-05-26T13:52:36Z</time>
      </trkpt>
      <trkpt lat="43.73568" lon="6.6682">
        <ele>1230.7</ele>
        <time>2024-05-26T13:52:37Z</time>
      </trkpt>
      <trkpt lat="43.73568" lon="6.66819">
        <ele>1230.4</ele>
        <time>2024-05-26T13:52:38Z</time>
      </trkpt>
      <trkpt lat="43.73568" lon="6.66818">
        <ele>1230.3</ele>
        <time>2024-05-26T13:52:39Z</time>
      </trkpt>
      <trkpt lat="43.73568" lon="6.66817">
        <ele>1230.1</ele>
        <time>2024-05-26T13:52:40Z</time>
      </trkpt>
      <trkpt lat="43.73568" lon="6.66817">
        <ele>1230</ele>
        <time>2024-05-26T13:52:41Z</time>
      </trkpt>
      <trkpt lat="43.73568" lon="6.66817">
        <ele>1229.9</ele>
        <time>2024-05-26T13:52:42Z</time>
      </trkpt>
      <trkpt lat="43.73568" lon="6.66816">
        <ele>1229.9</ele>
        <time>2024-05-26T13:52:43Z</time>
      </trkpt>
      <trkpt lat="43.73568" lon="6.66816">
        <ele>1229.8</ele>
        <time>2024-05-26T13:52:44Z</time>
      </trkpt>
      <trkpt lat="43.73568" lon="6.66815">
        <ele>1229.7</ele>
        <time>2024-05-26T13:52:45Z</time>
      </trkpt>
      <trkpt lat="43.73568" lon="6.66814">
        <ele>1229.6</ele>
        <time>2024-05-26T13:52:46Z</time>
      </trkpt>
      <trkpt lat="43.73567" lon="6.66813">
        <ele>1229.5</ele>
        <time>2024-05-26T13:52:47Z</time>
      </trkpt>
      <trkpt lat="43.73567" lon="6.66812">
        <ele>1229.5</ele>
        <time>2024-05-26T13:52:48Z</time>
      </trkpt>
      <trkpt lat="43.73567" lon="6.66811">
        <ele>1229.4</ele>
        <time>2024-05-26T13:52:49Z</time>
      </trkpt>
      <trkpt lat="43.73567" lon="6.6681">
        <ele>1229.3</ele>
        <time>2024-05-26T13:52:50Z</time>
      </trkpt>
      <trkpt lat="43.73567" lon="6.66809">
        <ele>1229.2</ele>
        <time>2024-05-26T13:52:51Z</time>
      </trkpt>
      <trkpt lat="43.73567" lon="6.66808">
        <ele>1229.1</ele>
        <time>2024-05-26T13:52:52Z</time>
      </trkpt>
      <trkpt lat="43.73566" lon="6.66807">
        <ele>1229</ele>
        <time>2024-05-26T13:52:53Z</time>
      </trkpt>
      <trkpt lat="43.73566" lon="6.66806">
        <ele>1228.9</ele>
        <time>2024-05-26T13:52:54Z</time>
      </trkpt>
      <trkpt lat="43.73566" lon="6.66805">
        <ele>1228.8</ele>
        <time>2024-05-26T13:52:55Z</time>
      </trkpt>
      <trkpt lat="43.73567" lon="6.66803">
        <ele>1228.7</ele>
        <time>2024-05-26T13:52:56Z</time>
      </trkpt>
      <trkpt lat="43.73567" lon="6.66803">
        <ele>1228.6</ele>
        <time>2024-05-26T13:52:57Z</time>
      </trkpt>
      <trkpt lat="43.73567" lon="6.66802">
        <ele>1228.6</ele>
        <time>2024-05-26T13:52:58Z</time>
      </trkpt>
      <trkpt lat="43.73567" lon="6.66802">
        <ele>1228.5</ele>
        <time>2024-05-26T13:52:59Z</time>
      </trkpt>
      <trkpt lat="43.73566" lon="6.66801">
        <ele>1228.4</ele>
        <time>2024-05-26T13:53:00Z</time>
      </trkpt>
      <trkpt lat="43.73567" lon="6.668">
        <ele>1228.3</ele>
        <time>2024-05-26T13:53:01Z</time>
      </trkpt>
      <trkpt lat="43.73566" lon="6.66799">
        <ele>1228.2</ele>
        <time>2024-05-26T13:53:02Z</time>
      </trkpt>
      <trkpt lat="43.73566" lon="6.66798">
        <ele>1228.2</ele>
        <time>2024-05-26T13:53:03Z</time>
      </trkpt>
      <trkpt lat="43.73565" lon="6.66797">
        <ele>1228.2</ele>
        <time>2024-05-26T13:53:04Z</time>
      </trkpt>
      <trkpt lat="43.73565" lon="6.66796">
        <ele>1228.2</ele>
        <time>2024-05-26T13:53:05Z</time>
      </trkpt>
      <trkpt lat="43.73565" lon="6.66794">
        <ele>1228.2</ele>
        <time>2024-05-26T13:53:06Z</time>
      </trkpt>
      <trkpt lat="43.73565" lon="6.66793">
        <ele>1228.1</ele>
        <time>2024-05-26T13:53:07Z</time>
      </trkpt>
      <trkpt lat="43.73565" lon="6.66791">
        <ele>1227.8</ele>
        <time>2024-05-26T13:53:08Z</time>
      </trkpt>
      <trkpt lat="43.73565" lon="6.6679">
        <ele>1227.8</ele>
        <time>2024-05-26T13:53:09Z</time>
      </trkpt>
      <trkpt lat="43.73564" lon="6.66789">
        <ele>1227.8</ele>
        <time>2024-05-26T13:53:10Z</time>
      </trkpt>
      <trkpt lat="43.73564" lon="6.66788">
        <ele>1227.7</ele>
        <time>2024-05-26T13:53:11Z</time>
      </trkpt>
      <trkpt lat="43.73564" lon="6.66788">
        <ele>1227.6</ele>
        <time>2024-05-26T13:53:12Z</time>
      </trkpt>
      <trkpt lat="43.73564" lon="6.66787">
        <ele>1227.6</ele>
        <time>2024-05-26T13:53:13Z</time>
      </trkpt>
      <trkpt lat="43.73564" lon="6.66786">
        <ele>1227.4</ele>
        <time>2024-05-26T13:53:14Z</time>
      </trkpt>
      <trkpt lat="43.73564" lon="6.66785">
        <ele>1227.3</ele>
        <time>2024-05-26T13:53:15Z</time>
      </trkpt>
      <trkpt lat="43.73564" lon="6.66784">
        <ele>1227.1</ele>
        <time>2024-05-26T13:53:16Z</time>
      </trkpt>
      <trkpt lat="43.73564" lon="6.66783">
        <ele>1227</ele>
        <time>2024-05-26T13:53:17Z</time>
      </trkpt>
      <trkpt lat="43.73564" lon="6.66782">
        <ele>1226.8</ele>
        <time>2024-05-26T13:53:18Z</time>
      </trkpt>
      <trkpt lat="43.73564" lon="6.66781">
        <ele>1226.7</ele>
        <time>2024-05-26T13:53:19Z</time>
      </trkpt>
      <trkpt lat="43.73564" lon="6.66779">
        <ele>1226.5</ele>
        <time>2024-05-26T13:53:20Z</time>
      </trkpt>
      <trkpt lat="43.73564" lon="6.66778">
        <ele>1226.3</ele>
        <time>2024-05-26T13:53:21Z</time>
      </trkpt>
      <trkpt lat="43.73564" lon="6.66776">
        <ele>1226.1</ele>
        <time>2024-05-26T13:53:22Z</time>
      </trkpt>
      <trkpt lat="43.73564" lon="6.66775">
        <ele>1225.9</ele>
        <time>2024-05-26T13:53:23Z</time>
      </trkpt>
      <trkpt lat="43.73563" lon="6.66774">
        <ele>1225.8</ele>
        <time>2024-05-26T13:53:24Z</time>
      </trkpt>
      <trkpt lat="43.73563" lon="6.66773">
        <ele>1225.6</ele>
        <time>2024-05-26T13:53:25Z</time>
      </trkpt>
      <trkpt lat="43.73563" lon="6.66771">
        <ele>1225.4</ele>
        <time>2024-05-26T13:53:26Z</time>
      </trkpt>
      <trkpt lat="43.73563" lon="6.6677">
        <ele>1225.1</ele>
        <time>2024-05-26T13:53:27Z</time>
      </trkpt>
      <trkpt lat="43.73563" lon="6.6677">
        <ele>1224.9</ele>
        <time>2024-05-26T13:53:28Z</time>
      </trkpt>
      <trkpt lat="43.73563" lon="6.66769">
        <ele>1224.7</ele>
        <time>2024-05-26T13:53:29Z</time>
      </trkpt>
      <trkpt lat="43.73563" lon="6.66768">
        <ele>1224.5</ele>
        <time>2024-05-26T13:53:30Z</time>
      </trkpt>
      <trkpt lat="43.73563" lon="6.66767">
        <ele>1224.5</ele>
        <time>2024-05-26T13:53:31Z</time>
      </trkpt>
      <trkpt lat="43.73562" lon="6.66766">
        <ele>1224.4</ele>
        <time>2024-05-26T13:53:32Z</time>
      </trkpt>
      <trkpt lat="43.73562" lon="6.66765">
        <ele>1224.4</ele>
        <time>2024-05-26T13:53:33Z</time>
      </trkpt>
      <trkpt lat="43.73562" lon="6.66764">
        <ele>1224.3</ele>
        <time>2024-05-26T13:53:34Z</time>
      </trkpt>
      <trkpt lat="43.73562" lon="6.66762">
        <ele>1224.1</ele>
        <time>2024-05-26T13:53:35Z</time>
      </trkpt>
      <trkpt lat="43.73562" lon="6.66761">
        <ele>1223.9</ele>
        <time>2024-05-26T13:53:36Z</time>
      </trkpt>
      <trkpt lat="43.73561" lon="6.6676">
        <ele>1223.7</ele>
        <time>2024-05-26T13:53:37Z</time>
      </trkpt>
      <trkpt lat="43.73561" lon="6.66758">
        <ele>1223.6</ele>
        <time>2024-05-26T13:53:38Z</time>
      </trkpt>
      <trkpt lat="43.7356" lon="6.66757">
        <ele>1223.5</ele>
        <time>2024-05-26T13:53:39Z</time>
      </trkpt>
      <trkpt lat="43.73559" lon="6.66756">
        <ele>1223.2</ele>
        <time>2024-05-26T13:53:40Z</time>
      </trkpt>
      <trkpt lat="43.73559" lon="6.66755">
        <ele>1223</ele>
        <time>2024-05-26T13:53:41Z</time>
      </trkpt>
      <trkpt lat="43.73559" lon="6.66753">
        <ele>1222.9</ele>
        <time>2024-05-26T13:53:42Z</time>
      </trkpt>
      <trkpt lat="43.73559" lon="6.66752">
        <ele>1222.7</ele>
        <time>2024-05-26T13:53:43Z</time>
      </trkpt>
      <trkpt lat="43.73558" lon="6.66752">
        <ele>1222.6</ele>
        <time>2024-05-26T13:53:44Z</time>
      </trkpt>
      <trkpt lat="43.73557" lon="6.66751">
        <ele>1222.4</ele>
        <time>2024-05-26T13:53:45Z</time>
      </trkpt>
      <trkpt lat="43.73557" lon="6.6675">
        <ele>1222.1</ele>
        <time>2024-05-26T13:53:46Z</time>
      </trkpt>
      <trkpt lat="43.73557" lon="6.66749">
        <ele>1222</ele>
        <time>2024-05-26T13:53:47Z</time>
      </trkpt>
      <trkpt lat="43.73557" lon="6.66748">
        <ele>1221.8</ele>
        <time>2024-05-26T13:53:48Z</time>
      </trkpt>
      <trkpt lat="43.73556" lon="6.66747">
        <ele>1221.7</ele>
        <time>2024-05-26T13:53:49Z</time>
      </trkpt>
      <trkpt lat="43.73556" lon="6.66745">
        <ele>1221.5</ele>
        <time>2024-05-26T13:53:50Z</time>
      </trkpt>
      <trkpt lat="43.73555" lon="6.66744">
        <ele>1221.4</ele>
        <time>2024-05-26T13:53:51Z</time>
      </trkpt>
      <trkpt lat="43.73555" lon="6.66742">
        <ele>1221.2</ele>
        <time>2024-05-26T13:53:52Z</time>
      </trkpt>
      <trkpt lat="43.73555" lon="6.6674">
        <ele>1221.1</ele>
        <time>2024-05-26T13:53:53Z</time>
      </trkpt>
      <trkpt lat="43.73554" lon="6.66739">
        <ele>1220.9</ele>
        <time>2024-05-26T13:53:54Z</time>
      </trkpt>
      <trkpt lat="43.73554" lon="6.66737">
        <ele>1220.8</ele>
        <time>2024-05-26T13:53:55Z</time>
      </trkpt>
      <trkpt lat="43.73553" lon="6.66736">
        <ele>1220.6</ele>
        <time>2024-05-26T13:53:56Z</time>
      </trkpt>
      <trkpt lat="43.73553" lon="6.66735">
        <ele>1220.5</ele>
        <time>2024-05-26T13:53:57Z</time>
      </trkpt>
      <trkpt lat="43.73552" lon="6.66733">
        <ele>1220.3</ele>
        <time>2024-05-26T13:53:58Z</time>
      </trkpt>
      <trkpt lat="43.73552" lon="6.66731">
        <ele>1220.1</ele>
        <time>2024-05-26T13:53:59Z</time>
      </trkpt>
      <trkpt lat="43.73552" lon="6.6673">
        <ele>1219.9</ele>
        <time>2024-05-26T13:54:00Z</time>
      </trkpt>
      <trkpt lat="43.73551" lon="6.66729">
        <ele>1219.7</ele>
        <time>2024-05-26T13:54:01Z</time>
      </trkpt>
      <trkpt lat="43.73551" lon="6.66728">
        <ele>1219.6</ele>
        <time>2024-05-26T13:54:02Z</time>
      </trkpt>
      <trkpt lat="43.73551" lon="6.66728">
        <ele>1219.4</ele>
        <time>2024-05-26T13:54:03Z</time>
      </trkpt>
      <trkpt lat="43.73551" lon="6.66726">
        <ele>1219.3</ele>
        <time>2024-05-26T13:54:04Z</time>
      </trkpt>
      <trkpt lat="43.7355" lon="6.66725">
        <ele>1219</ele>
        <time>2024-05-26T13:54:05Z</time>
      </trkpt>
      <trkpt lat="43.7355" lon="6.66723">
        <ele>1218.9</ele>
        <time>2024-05-26T13:54:06Z</time>
      </trkpt>
      <trkpt lat="43.7355" lon="6.66722">
        <ele>1218.7</ele>
        <time>2024-05-26T13:54:07Z</time>
      </trkpt>
      <trkpt lat="43.73549" lon="6.66721">
        <ele>1218.5</ele>
        <time>2024-05-26T13:54:08Z</time>
      </trkpt>
      <trkpt lat="43.73549" lon="6.66719">
        <ele>1218.4</ele>
        <time>2024-05-26T13:54:09Z</time>
      </trkpt>
      <trkpt lat="43.73549" lon="6.66718">
        <ele>1218.3</ele>
        <time>2024-05-26T13:54:10Z</time>
      </trkpt>
      <trkpt lat="43.73549" lon="6.66717">
        <ele>1218.1</ele>
        <time>2024-05-26T13:54:11Z</time>
      </trkpt>
      <trkpt lat="43.73549" lon="6.66715">
        <ele>1218</ele>
        <time>2024-05-26T13:54:12Z</time>
      </trkpt>
      <trkpt lat="43.73549" lon="6.66714">
        <ele>1217.8</ele>
        <time>2024-05-26T13:54:13Z</time>
      </trkpt>
      <trkpt lat="43.73548" lon="6.66713">
        <ele>1217.7</ele>
        <time>2024-05-26T13:54:14Z</time>
      </trkpt>
      <trkpt lat="43.73548" lon="6.66712">
        <ele>1217.5</ele>
        <time>2024-05-26T13:54:15Z</time>
      </trkpt>
      <trkpt lat="43.73548" lon="6.66711">
        <ele>1217.4</ele>
        <time>2024-05-26T13:54:16Z</time>
      </trkpt>
      <trkpt lat="43.73548" lon="6.6671">
        <ele>1217.3</ele>
        <time>2024-05-26T13:54:17Z</time>
      </trkpt>
      <trkpt lat="43.73549" lon="6.6671">
        <ele>1217.2</ele>
        <time>2024-05-26T13:54:18Z</time>
      </trkpt>
      <trkpt lat="43.73549" lon="6.66708">
        <ele>1217.1</ele>
        <time>2024-05-26T13:54:19Z</time>
      </trkpt>
      <trkpt lat="43.73548" lon="6.66707">
        <ele>1217</ele>
        <time>2024-05-26T13:54:20Z</time>
      </trkpt>
      <trkpt lat="43.73548" lon="6.66705">
        <ele>1216.9</ele>
        <time>2024-05-26T13:54:21Z</time>
      </trkpt>
      <trkpt lat="43.73547" lon="6.66704">
        <ele>1216.9</ele>
        <time>2024-05-26T13:54:22Z</time>
      </trkpt>
      <trkpt lat="43.73547" lon="6.66703">
        <ele>1216.7</ele>
        <time>2024-05-26T13:54:23Z</time>
      </trkpt>
      <trkpt lat="43.73547" lon="6.66701">
        <ele>1216.5</ele>
        <time>2024-05-26T13:54:24Z</time>
      </trkpt>
      <trkpt lat="43.73546" lon="6.667">
        <ele>1216.4</ele>
        <time>2024-05-26T13:54:25Z</time>
      </trkpt>
      <trkpt lat="43.73546" lon="6.66698">
        <ele>1216.4</ele>
        <time>2024-05-26T13:54:26Z</time>
      </trkpt>
      <trkpt lat="43.73546" lon="6.66696">
        <ele>1216.3</ele>
        <time>2024-05-26T13:54:27Z</time>
      </trkpt>
      <trkpt lat="43.73545" lon="6.66695">
        <ele>1216.2</ele>
        <time>2024-05-26T13:54:28Z</time>
      </trkpt>
      <trkpt lat="43.73544" lon="6.66693">
        <ele>1216.2</ele>
        <time>2024-05-26T13:54:29Z</time>
      </trkpt>
      <trkpt lat="43.73544" lon="6.66691">
        <ele>1216.1</ele>
        <time>2024-05-26T13:54:30Z</time>
      </trkpt>
      <trkpt lat="43.73543" lon="6.66689">
        <ele>1216.1</ele>
        <time>2024-05-26T13:54:31Z</time>
      </trkpt>
      <trkpt lat="43.73543" lon="6.66687">
        <ele>1216.1</ele>
        <time>2024-05-26T13:54:32Z</time>
      </trkpt>
      <trkpt lat="43.73542" lon="6.66686">
        <ele>1216</ele>
        <time>2024-05-26T13:54:33Z</time>
      </trkpt>
      <trkpt lat="43.73542" lon="6.66684">
        <ele>1216</ele>
        <time>2024-05-26T13:54:34Z</time>
      </trkpt>
      <trkpt lat="43.73541" lon="6.66683">
        <ele>1215.9</ele>
        <time>2024-05-26T13:54:35Z</time>
      </trkpt>
      <trkpt lat="43.73541" lon="6.66682">
        <ele>1215.8</ele>
        <time>2024-05-26T13:54:36Z</time>
      </trkpt>
      <trkpt lat="43.7354" lon="6.6668">
        <ele>1215.7</ele>
        <time>2024-05-26T13:54:37Z</time>
      </trkpt>
      <trkpt lat="43.7354" lon="6.66678">
        <ele>1215.6</ele>
        <time>2024-05-26T13:54:38Z</time>
      </trkpt>
      <trkpt lat="43.73539" lon="6.66677">
        <ele>1215.6</ele>
        <time>2024-05-26T13:54:39Z</time>
      </trkpt>
      <trkpt lat="43.73538" lon="6.66675">
        <ele>1215.5</ele>
        <time>2024-05-26T13:54:40Z</time>
      </trkpt>
      <trkpt lat="43.73538" lon="6.66673">
        <ele>1215.2</ele>
        <time>2024-05-26T13:54:41Z</time>
      </trkpt>
      <trkpt lat="43.73537" lon="6.66672">
        <ele>1215.1</ele>
        <time>2024-05-26T13:54:42Z</time>
      </trkpt>
      <trkpt lat="43.73536" lon="6.6667">
        <ele>1215.1</ele>
        <time>2024-05-26T13:54:43Z</time>
      </trkpt>
      <trkpt lat="43.73536" lon="6.66669">
        <ele>1215</ele>
        <time>2024-05-26T13:54:44Z</time>
      </trkpt>
      <trkpt lat="43.73535" lon="6.66668">
        <ele>1215</ele>
        <time>2024-05-26T13:54:45Z</time>
      </trkpt>
      <trkpt lat="43.73534" lon="6.66667">
        <ele>1214.9</ele>
        <time>2024-05-26T13:54:46Z</time>
      </trkpt>
      <trkpt lat="43.73533" lon="6.66665">
        <ele>1214.7</ele>
        <time>2024-05-26T13:54:47Z</time>
      </trkpt>
      <trkpt lat="43.73533" lon="6.66664">
        <ele>1214.6</ele>
        <time>2024-05-26T13:54:48Z</time>
      </trkpt>
      <trkpt lat="43.73533" lon="6.66662">
        <ele>1214.5</ele>
        <time>2024-05-26T13:54:49Z</time>
      </trkpt>
      <trkpt lat="43.73532" lon="6.66661">
        <ele>1214.4</ele>
        <time>2024-05-26T13:54:50Z</time>
      </trkpt>
      <trkpt lat="43.73532" lon="6.66659">
        <ele>1214.3</ele>
        <time>2024-05-26T13:54:51Z</time>
      </trkpt>
      <trkpt lat="43.73531" lon="6.66658">
        <ele>1214.3</ele>
        <time>2024-05-26T13:54:52Z</time>
      </trkpt>
      <trkpt lat="43.7353" lon="6.66656">
        <ele>1214.2</ele>
        <time>2024-05-26T13:54:53Z</time>
      </trkpt>
      <trkpt lat="43.7353" lon="6.66655">
        <ele>1214.2</ele>
        <time>2024-05-26T13:54:54Z</time>
      </trkpt>
      <trkpt lat="43.73529" lon="6.66654">
        <ele>1214.1</ele>
        <time>2024-05-26T13:54:55Z</time>
      </trkpt>
      <trkpt lat="43.73529" lon="6.66653">
        <ele>1214.1</ele>
        <time>2024-05-26T13:54:56Z</time>
      </trkpt>
      <trkpt lat="43.73529" lon="6.66652">
        <ele>1214</ele>
        <time>2024-05-26T13:54:57Z</time>
      </trkpt>
      <trkpt lat="43.73528" lon="6.6665">
        <ele>1213.9</ele>
        <time>2024-05-26T13:54:58Z</time>
      </trkpt>
      <trkpt lat="43.73527" lon="6.66649">
        <ele>1213.8</ele>
        <time>2024-05-26T13:54:59Z</time>
      </trkpt>
      <trkpt lat="43.73526" lon="6.66647">
        <ele>1213.7</ele>
        <time>2024-05-26T13:55:00Z</time>
      </trkpt>
      <trkpt lat="43.73526" lon="6.66645">
        <ele>1213.5</ele>
        <time>2024-05-26T13:55:01Z</time>
      </trkpt>
      <trkpt lat="43.73526" lon="6.66644">
        <ele>1213.4</ele>
        <time>2024-05-26T13:55:02Z</time>
      </trkpt>
      <trkpt lat="43.73525" lon="6.66643">
        <ele>1213.3</ele>
        <time>2024-05-26T13:55:03Z</time>
      </trkpt>
      <trkpt lat="43.73525" lon="6.66642">
        <ele>1213.4</ele>
        <time>2024-05-26T13:55:04Z</time>
      </trkpt>
      <trkpt lat="43.73525" lon="6.66641">
        <ele>1213.4</ele>
        <time>2024-05-26T13:55:05Z</time>
      </trkpt>
      <trkpt lat="43.73524" lon="6.66639">
        <ele>1213.3</ele>
        <time>2024-05-26T13:55:06Z</time>
      </trkpt>
      <trkpt lat="43.73524" lon="6.66638">
        <ele>1213.3</ele>
        <time>2024-05-26T13:55:07Z</time>
      </trkpt>
      <trkpt lat="43.73524" lon="6.66636">
        <ele>1213.3</ele>
        <time>2024-05-26T13:55:08Z</time>
      </trkpt>
      <trkpt lat="43.73523" lon="6.66635">
        <ele>1213.3</ele>
        <time>2024-05-26T13:55:09Z</time>
      </trkpt>
      <trkpt lat="43.73523" lon="6.66634">
        <ele>1213.3</ele>
        <time>2024-05-26T13:55:10Z</time>
      </trkpt>
      <trkpt lat="43.73522" lon="6.66634">
        <ele>1213.2</ele>
        <time>2024-05-26T13:55:11Z</time>
      </trkpt>
      <trkpt lat="43.73521" lon="6.66633">
        <ele>1213.2</ele>
        <time>2024-05-26T13:55:12Z</time>
      </trkpt>
      <trkpt lat="43.73521" lon="6.66631">
        <ele>1213.2</ele>
        <time>2024-05-26T13:55:13Z</time>
      </trkpt>
      <trkpt lat="43.73521" lon="6.6663">
        <ele>1213.1</ele>
        <time>2024-05-26T13:55:14Z</time>
      </trkpt>
      <trkpt lat="43.7352" lon="6.66628">
        <ele>1213</ele>
        <time>2024-05-26T13:55:15Z</time>
      </trkpt>
      <trkpt lat="43.7352" lon="6.66627">
        <ele>1213</ele>
        <time>2024-05-26T13:55:16Z</time>
      </trkpt>
      <trkpt lat="43.73519" lon="6.66625">
        <ele>1212.8</ele>
        <time>2024-05-26T13:55:17Z</time>
      </trkpt>
      <trkpt lat="43.73518" lon="6.66623">
        <ele>1212.7</ele>
        <time>2024-05-26T13:55:18Z</time>
      </trkpt>
      <trkpt lat="43.73518" lon="6.66621">
        <ele>1212.5</ele>
        <time>2024-05-26T13:55:19Z</time>
      </trkpt>
      <trkpt lat="43.73518" lon="6.66619">
        <ele>1212.5</ele>
        <time>2024-05-26T13:55:20Z</time>
      </trkpt>
      <trkpt lat="43.73517" lon="6.66618">
        <ele>1212.4</ele>
        <time>2024-05-26T13:55:21Z</time>
      </trkpt>
      <trkpt lat="43.73517" lon="6.66616">
        <ele>1212.3</ele>
        <time>2024-05-26T13:55:22Z</time>
      </trkpt>
      <trkpt lat="43.73517" lon="6.66614">
        <ele>1212.2</ele>
        <time>2024-05-26T13:55:23Z</time>
      </trkpt>
      <trkpt lat="43.73516" lon="6.66613">
        <ele>1212</ele>
        <time>2024-05-26T13:55:24Z</time>
      </trkpt>
      <trkpt lat="43.73516" lon="6.66612">
        <ele>1211.9</ele>
        <time>2024-05-26T13:55:25Z</time>
      </trkpt>
      <trkpt lat="43.73516" lon="6.66612">
        <ele>1211.8</ele>
        <time>2024-05-26T13:55:26Z</time>
      </trkpt>
      <trkpt lat="43.73516" lon="6.6661">
        <ele>1211.7</ele>
        <time>2024-05-26T13:55:27Z</time>
      </trkpt>
      <trkpt lat="43.73515" lon="6.66609">
        <ele>1211.6</ele>
        <time>2024-05-26T13:55:28Z</time>
      </trkpt>
      <trkpt lat="43.73515" lon="6.66607">
        <ele>1211.5</ele>
        <time>2024-05-26T13:55:29Z</time>
      </trkpt>
      <trkpt lat="43.73515" lon="6.66606">
        <ele>1211.4</ele>
        <time>2024-05-26T13:55:30Z</time>
      </trkpt>
      <trkpt lat="43.73514" lon="6.66604">
        <ele>1211.4</ele>
        <time>2024-05-26T13:55:31Z</time>
      </trkpt>
      <trkpt lat="43.73514" lon="6.66603">
        <ele>1211.3</ele>
        <time>2024-05-26T13:55:32Z</time>
      </trkpt>
      <trkpt lat="43.73514" lon="6.66602">
        <ele>1211</ele>
        <time>2024-05-26T13:55:33Z</time>
      </trkpt>
      <trkpt lat="43.73514" lon="6.66601">
        <ele>1211</ele>
        <time>2024-05-26T13:55:34Z</time>
      </trkpt>
      <trkpt lat="43.73514" lon="6.666">
        <ele>1210.8</ele>
        <time>2024-05-26T13:55:35Z</time>
      </trkpt>
      <trkpt lat="43.73513" lon="6.66598">
        <ele>1210.7</ele>
        <time>2024-05-26T13:55:36Z</time>
      </trkpt>
      <trkpt lat="43.73513" lon="6.66597">
        <ele>1210.6</ele>
        <time>2024-05-26T13:55:37Z</time>
      </trkpt>
      <trkpt lat="43.73513" lon="6.66595">
        <ele>1210.3</ele>
        <time>2024-05-26T13:55:38Z</time>
      </trkpt>
      <trkpt lat="43.73513" lon="6.66593">
        <ele>1210.2</ele>
        <time>2024-05-26T13:55:39Z</time>
      </trkpt>
      <trkpt lat="43.73513" lon="6.66593">
        <ele>1210</ele>
        <time>2024-05-26T13:55:40Z</time>
      </trkpt>
      <trkpt lat="43.73512" lon="6.66591">
        <ele>1209.8</ele>
        <time>2024-05-26T13:55:41Z</time>
      </trkpt>
      <trkpt lat="43.73512" lon="6.6659">
        <ele>1209.7</ele>
        <time>2024-05-26T13:55:42Z</time>
      </trkpt>
      <trkpt lat="43.73512" lon="6.66589">
        <ele>1209.5</ele>
        <time>2024-05-26T13:55:43Z</time>
      </trkpt>
      <trkpt lat="43.73511" lon="6.66588">
        <ele>1209.3</ele>
        <time>2024-05-26T13:55:44Z</time>
      </trkpt>
      <trkpt lat="43.73511" lon="6.66588">
        <ele>1209.2</ele>
        <time>2024-05-26T13:55:45Z</time>
      </trkpt>
      <trkpt lat="43.73511" lon="6.66587">
        <ele>1209.1</ele>
        <time>2024-05-26T13:55:46Z</time>
      </trkpt>
      <trkpt lat="43.73511" lon="6.66585">
        <ele>1209</ele>
        <time>2024-05-26T13:55:47Z</time>
      </trkpt>
      <trkpt lat="43.73511" lon="6.66584">
        <ele>1208.9</ele>
        <time>2024-05-26T13:55:48Z</time>
      </trkpt>
      <trkpt lat="43.73511" lon="6.66584">
        <ele>1208.8</ele>
        <time>2024-05-26T13:55:49Z</time>
      </trkpt>
      <trkpt lat="43.73511" lon="6.66583">
        <ele>1208.8</ele>
        <time>2024-05-26T13:55:50Z</time>
      </trkpt>
      <trkpt lat="43.73511" lon="6.66582">
        <ele>1208.8</ele>
        <time>2024-05-26T13:55:51Z</time>
      </trkpt>
      <trkpt lat="43.73511" lon="6.66582">
        <ele>1208.7</ele>
        <time>2024-05-26T13:55:52Z</time>
      </trkpt>
      <trkpt lat="43.73512" lon="6.66582">
        <ele>1208.6</ele>
        <time>2024-05-26T13:55:53Z</time>
      </trkpt>
      <trkpt lat="43.73512" lon="6.66581">
        <ele>1208.7</ele>
        <time>2024-05-26T13:55:54Z</time>
      </trkpt>
      <trkpt lat="43.73513" lon="6.6658">
        <ele>1208.7</ele>
        <time>2024-05-26T13:55:55Z</time>
      </trkpt>
      <trkpt lat="43.73514" lon="6.66578">
        <ele>1208.8</ele>
        <time>2024-05-26T13:55:56Z</time>
      </trkpt>
      <trkpt lat="43.73514" lon="6.66576">
        <ele>1208.8</ele>
        <time>2024-05-26T13:55:57Z</time>
      </trkpt>
      <trkpt lat="43.73515" lon="6.66574">
        <ele>1209</ele>
        <time>2024-05-26T13:55:58Z</time>
      </trkpt>
      <trkpt lat="43.73515" lon="6.66572">
        <ele>1209.1</ele>
        <time>2024-05-26T13:55:59Z</time>
      </trkpt>
      <trkpt lat="43.73515" lon="6.66571">
        <ele>1209.2</ele>
        <time>2024-05-26T13:56:00Z</time>
      </trkpt>
      <trkpt lat="43.73516" lon="6.66569">
        <ele>1209.3</ele>
        <time>2024-05-26T13:56:01Z</time>
      </trkpt>
      <trkpt lat="43.73516" lon="6.66568">
        <ele>1209.4</ele>
        <time>2024-05-26T13:56:02Z</time>
      </trkpt>
      <trkpt lat="43.73516" lon="6.66566">
        <ele>1209.6</ele>
        <time>2024-05-26T13:56:03Z</time>
      </trkpt>
      <trkpt lat="43.73516" lon="6.66564">
        <ele>1209.7</ele>
        <time>2024-05-26T13:56:04Z</time>
      </trkpt>
      <trkpt lat="43.73516" lon="6.66561">
        <ele>1209.8</ele>
        <time>2024-05-26T13:56:05Z</time>
      </trkpt>
      <trkpt lat="43.73516" lon="6.66558">
        <ele>1209.9</ele>
        <time>2024-05-26T13:56:06Z</time>
      </trkpt>
      <trkpt lat="43.73516" lon="6.66557">
        <ele>1209.9</ele>
        <time>2024-05-26T13:56:07Z</time>
      </trkpt>
      <trkpt lat="43.73516" lon="6.66555">
        <ele>1209.9</ele>
        <time>2024-05-26T13:56:08Z</time>
      </trkpt>
      <trkpt lat="43.73516" lon="6.66554">
        <ele>1210</ele>
        <time>2024-05-26T13:56:09Z</time>
      </trkpt>
      <trkpt lat="43.73515" lon="6.66553">
        <ele>1210</ele>
        <time>2024-05-26T13:56:10Z</time>
      </trkpt>
      <trkpt lat="43.73515" lon="6.66551">
        <ele>1210.1</ele>
        <time>2024-05-26T13:56:11Z</time>
      </trkpt>
      <trkpt lat="43.73515" lon="6.6655">
        <ele>1210.1</ele>
        <time>2024-05-26T13:56:12Z</time>
      </trkpt>
      <trkpt lat="43.73515" lon="6.66549">
        <ele>1210.1</ele>
        <time>2024-05-26T13:56:13Z</time>
      </trkpt>
      <trkpt lat="43.73515" lon="6.66548">
        <ele>1210.2</ele>
        <time>2024-05-26T13:56:14Z</time>
      </trkpt>
      <trkpt lat="43.73516" lon="6.66546">
        <ele>1210.3</ele>
        <time>2024-05-26T13:56:15Z</time>
      </trkpt>
      <trkpt lat="43.73516" lon="6.66545">
        <ele>1210.4</ele>
        <time>2024-05-26T13:56:16Z</time>
      </trkpt>
      <trkpt lat="43.73516" lon="6.66543">
        <ele>1210.5</ele>
        <time>2024-05-26T13:56:17Z</time>
      </trkpt>
      <trkpt lat="43.73517" lon="6.66541">
        <ele>1210.5</ele>
        <time>2024-05-26T13:56:18Z</time>
      </trkpt>
      <trkpt lat="43.73518" lon="6.6654">
        <ele>1210.5</ele>
        <time>2024-05-26T13:56:19Z</time>
      </trkpt>
      <trkpt lat="43.73518" lon="6.66538">
        <ele>1210.5</ele>
        <time>2024-05-26T13:56:20Z</time>
      </trkpt>
      <trkpt lat="43.73518" lon="6.66537">
        <ele>1210.5</ele>
        <time>2024-05-26T13:56:21Z</time>
      </trkpt>
      <trkpt lat="43.73518" lon="6.66535">
        <ele>1210.5</ele>
        <time>2024-05-26T13:56:22Z</time>
      </trkpt>
      <trkpt lat="43.73518" lon="6.66534">
        <ele>1210.6</ele>
        <time>2024-05-26T13:56:23Z</time>
      </trkpt>
      <trkpt lat="43.73518" lon="6.66533">
        <ele>1210.5</ele>
        <time>2024-05-26T13:56:24Z</time>
      </trkpt>
      <trkpt lat="43.73518" lon="6.66532">
        <ele>1210.6</ele>
        <time>2024-05-26T13:56:25Z</time>
      </trkpt>
      <trkpt lat="43.73518" lon="6.6653">
        <ele>1210.6</ele>
        <time>2024-05-26T13:56:26Z</time>
      </trkpt>
      <trkpt lat="43.73517" lon="6.66529">
        <ele>1210.5</ele>
        <time>2024-05-26T13:56:27Z</time>
      </trkpt>
      <trkpt lat="43.73517" lon="6.66528">
        <ele>1210.5</ele>
        <time>2024-05-26T13:56:28Z</time>
      </trkpt>
      <trkpt lat="43.73516" lon="6.66526">
        <ele>1210.5</ele>
        <time>2024-05-26T13:56:29Z</time>
      </trkpt>
      <trkpt lat="43.73516" lon="6.66525">
        <ele>1210.6</ele>
        <time>2024-05-26T13:56:30Z</time>
      </trkpt>
      <trkpt lat="43.73516" lon="6.66523">
        <ele>1210.6</ele>
        <time>2024-05-26T13:56:31Z</time>
      </trkpt>
      <trkpt lat="43.73517" lon="6.66522">
        <ele>1210.6</ele>
        <time>2024-05-26T13:56:32Z</time>
      </trkpt>
      <trkpt lat="43.73517" lon="6.6652">
        <ele>1210.6</ele>
        <time>2024-05-26T13:56:33Z</time>
      </trkpt>
      <trkpt lat="43.73517" lon="6.6652">
        <ele>1210.6</ele>
        <time>2024-05-26T13:56:34Z</time>
      </trkpt>
      <trkpt lat="43.73516" lon="6.6652">
        <ele>1210.7</ele>
        <time>2024-05-26T13:56:35Z</time>
      </trkpt>
      <trkpt lat="43.73517" lon="6.66519">
        <ele>1210.7</ele>
        <time>2024-05-26T13:56:36Z</time>
      </trkpt>
      <trkpt lat="43.73517" lon="6.66518">
        <ele>1210.8</ele>
        <time>2024-05-26T13:56:37Z</time>
      </trkpt>
      <trkpt lat="43.73517" lon="6.66516">
        <ele>1210.9</ele>
        <time>2024-05-26T13:56:38Z</time>
      </trkpt>
      <trkpt lat="43.73517" lon="6.66515">
        <ele>1211</ele>
        <time>2024-05-26T13:56:39Z</time>
      </trkpt>
      <trkpt lat="43.73517" lon="6.66514">
        <ele>1211</ele>
        <time>2024-05-26T13:56:40Z</time>
      </trkpt>
      <trkpt lat="43.73517" lon="6.66512">
        <ele>1211</ele>
        <time>2024-05-26T13:56:41Z</time>
      </trkpt>
      <trkpt lat="43.73517" lon="6.66512">
        <ele>1211.1</ele>
        <time>2024-05-26T13:56:42Z</time>
      </trkpt>
      <trkpt lat="43.73517" lon="6.6651">
        <ele>1211.1</ele>
        <time>2024-05-26T13:56:43Z</time>
      </trkpt>
      <trkpt lat="43.73517" lon="6.6651">
        <ele>1211.1</ele>
        <time>2024-05-26T13:56:44Z</time>
      </trkpt>
      <trkpt lat="43.73517" lon="6.66509">
        <ele>1211.1</ele>
        <time>2024-05-26T13:56:45Z</time>
      </trkpt>
      <trkpt lat="43.73518" lon="6.66508">
        <ele>1211.1</ele>
        <time>2024-05-26T13:56:46Z</time>
      </trkpt>
      <trkpt lat="43.73519" lon="6.66505">
        <ele>1211.2</ele>
        <time>2024-05-26T13:56:47Z</time>
      </trkpt>
      <trkpt lat="43.7352" lon="6.66502">
        <ele>1211.3</ele>
        <time>2024-05-26T13:56:48Z</time>
      </trkpt>
      <trkpt lat="43.73521" lon="6.665">
        <ele>1211.3</ele>
        <time>2024-05-26T13:56:49Z</time>
      </trkpt>
      <trkpt lat="43.73521" lon="6.66498">
        <ele>1211.4</ele>
        <time>2024-05-26T13:56:50Z</time>
      </trkpt>
      <trkpt lat="43.73522" lon="6.66496">
        <ele>1211.4</ele>
        <time>2024-05-26T13:56:51Z</time>
      </trkpt>
      <trkpt lat="43.73523" lon="6.66494">
        <ele>1211.4</ele>
        <time>2024-05-26T13:56:52Z</time>
      </trkpt>
      <trkpt lat="43.73523" lon="6.66492">
        <ele>1211.5</ele>
        <time>2024-05-26T13:56:53Z</time>
      </trkpt>
      <trkpt lat="43.73523" lon="6.6649">
        <ele>1211.6</ele>
        <time>2024-05-26T13:56:54Z</time>
      </trkpt>
      <trkpt lat="43.73523" lon="6.66488">
        <ele>1211.7</ele>
        <time>2024-05-26T13:56:55Z</time>
      </trkpt>
      <trkpt lat="43.73523" lon="6.66486">
        <ele>1211.8</ele>
        <time>2024-05-26T13:56:56Z</time>
      </trkpt>
      <trkpt lat="43.73523" lon="6.66484">
        <ele>1212</ele>
        <time>2024-05-26T13:56:57Z</time>
      </trkpt>
      <trkpt lat="43.73523" lon="6.66482">
        <ele>1212.1</ele>
        <time>2024-05-26T13:56:58Z</time>
      </trkpt>
      <trkpt lat="43.73524" lon="6.66481">
        <ele>1212.1</ele>
        <time>2024-05-26T13:56:59Z</time>
      </trkpt>
      <trkpt lat="43.73524" lon="6.66479">
        <ele>1212.1</ele>
        <time>2024-05-26T13:57:00Z</time>
      </trkpt>
      <trkpt lat="43.73523" lon="6.66477">
        <ele>1212.2</ele>
        <time>2024-05-26T13:57:01Z</time>
      </trkpt>
      <trkpt lat="43.73524" lon="6.66475">
        <ele>1212.2</ele>
        <time>2024-05-26T13:57:02Z</time>
      </trkpt>
      <trkpt lat="43.73524" lon="6.66474">
        <ele>1212.3</ele>
        <time>2024-05-26T13:57:03Z</time>
      </trkpt>
      <trkpt lat="43.73524" lon="6.66472">
        <ele>1212.4</ele>
        <time>2024-05-26T13:57:04Z</time>
      </trkpt>
      <trkpt lat="43.73525" lon="6.6647">
        <ele>1212.4</ele>
        <time>2024-05-26T13:57:05Z</time>
      </trkpt>
      <trkpt lat="43.73525" lon="6.66469">
        <ele>1212.5</ele>
        <time>2024-05-26T13:57:06Z</time>
      </trkpt>
      <trkpt lat="43.73525" lon="6.66467">
        <ele>1212.6</ele>
        <time>2024-05-26T13:57:07Z</time>
      </trkpt>
      <trkpt lat="43.73526" lon="6.66465">
        <ele>1212.8</ele>
        <time>2024-05-26T13:57:08Z</time>
      </trkpt>
      <trkpt lat="43.73526" lon="6.66463">
        <ele>1213</ele>
        <time>2024-05-26T13:57:09Z</time>
      </trkpt>
      <trkpt lat="43.73525" lon="6.66462">
        <ele>1212.9</ele>
        <time>2024-05-26T13:57:10Z</time>
      </trkpt>
      <trkpt lat="43.73526" lon="6.66461">
        <ele>1213</ele>
        <time>2024-05-26T13:57:11Z</time>
      </trkpt>
      <trkpt lat="43.73526" lon="6.66459">
        <ele>1213</ele>
        <time>2024-05-26T13:57:12Z</time>
      </trkpt>
      <trkpt lat="43.73527" lon="6.66457">
        <ele>1213</ele>
        <time>2024-05-26T13:57:13Z</time>
      </trkpt>
      <trkpt lat="43.73527" lon="6.66455">
        <ele>1213</ele>
        <time>2024-05-26T13:57:14Z</time>
      </trkpt>
      <trkpt lat="43.73528" lon="6.66454">
        <ele>1213.2</ele>
        <time>2024-05-26T13:57:15Z</time>
      </trkpt>
      <trkpt lat="43.73529" lon="6.66452">
        <ele>1213.2</ele>
        <time>2024-05-26T13:57:16Z</time>
      </trkpt>
      <trkpt lat="43.73529" lon="6.66451">
        <ele>1213.3</ele>
        <time>2024-05-26T13:57:17Z</time>
      </trkpt>
      <trkpt lat="43.7353" lon="6.6645">
        <ele>1213.4</ele>
        <time>2024-05-26T13:57:18Z</time>
      </trkpt>
      <trkpt lat="43.7353" lon="6.66449">
        <ele>1213.4</ele>
        <time>2024-05-26T13:57:19Z</time>
      </trkpt>
      <trkpt lat="43.7353" lon="6.66447">
        <ele>1213.5</ele>
        <time>2024-05-26T13:57:20Z</time>
      </trkpt>
      <trkpt lat="43.7353" lon="6.66446">
        <ele>1213.5</ele>
        <time>2024-05-26T13:57:21Z</time>
      </trkpt>
      <trkpt lat="43.7353" lon="6.66445">
        <ele>1213.6</ele>
        <time>2024-05-26T13:57:22Z</time>
      </trkpt>
      <trkpt lat="43.7353" lon="6.66443">
        <ele>1213.7</ele>
        <time>2024-05-26T13:57:23Z</time>
      </trkpt>
      <trkpt lat="43.73531" lon="6.66442">
        <ele>1213.7</ele>
        <time>2024-05-26T13:57:24Z</time>
      </trkpt>
      <trkpt lat="43.73531" lon="6.6644">
        <ele>1213.8</ele>
        <time>2024-05-26T13:57:25Z</time>
      </trkpt>
      <trkpt lat="43.73531" lon="6.66439">
        <ele>1213.9</ele>
        <time>2024-05-26T13:57:26Z</time>
      </trkpt>
      <trkpt lat="43.73531" lon="6.66437">
        <ele>1214</ele>
        <time>2024-05-26T13:57:27Z</time>
      </trkpt>
      <trkpt lat="43.73532" lon="6.66436">
        <ele>1214.1</ele>
        <time>2024-05-26T13:57:28Z</time>
      </trkpt>
      <trkpt lat="43.73532" lon="6.66435">
        <ele>1214.2</ele>
        <time>2024-05-26T13:57:29Z</time>
      </trkpt>
      <trkpt lat="43.73533" lon="6.66433">
        <ele>1214</ele>
        <time>2024-05-26T13:57:30Z</time>
      </trkpt>
      <trkpt lat="43.73533" lon="6.66432">
        <ele>1214.1</ele>
        <time>2024-05-26T13:57:31Z</time>
      </trkpt>
      <trkpt lat="43.73533" lon="6.6643">
        <ele>1214.2</ele>
        <time>2024-05-26T13:57:32Z</time>
      </trkpt>
      <trkpt lat="43.73533" lon="6.66428">
        <ele>1214.2</ele>
        <time>2024-05-26T13:57:33Z</time>
      </trkpt>
      <trkpt lat="43.73534" lon="6.66427">
        <ele>1214.3</ele>
        <time>2024-05-26T13:57:34Z</time>
      </trkpt>
      <trkpt lat="43.73534" lon="6.66426">
        <ele>1214.3</ele>
        <time>2024-05-26T13:57:35Z</time>
      </trkpt>
      <trkpt lat="43.73534" lon="6.66424">
        <ele>1214.4</ele>
        <time>2024-05-26T13:57:36Z</time>
      </trkpt>
      <trkpt lat="43.73535" lon="6.66423">
        <ele>1214.4</ele>
        <time>2024-05-26T13:57:37Z</time>
      </trkpt>
      <trkpt lat="43.73535" lon="6.66421">
        <ele>1214.5</ele>
        <time>2024-05-26T13:57:38Z</time>
      </trkpt>
      <trkpt lat="43.73535" lon="6.6642">
        <ele>1214.6</ele>
        <time>2024-05-26T13:57:39Z</time>
      </trkpt>
      <trkpt lat="43.73535" lon="6.66419">
        <ele>1214.6</ele>
        <time>2024-05-26T13:57:40Z</time>
      </trkpt>
      <trkpt lat="43.73535" lon="6.66417">
        <ele>1214.6</ele>
        <time>2024-05-26T13:57:41Z</time>
      </trkpt>
      <trkpt lat="43.73536" lon="6.66415">
        <ele>1214.6</ele>
        <time>2024-05-26T13:57:42Z</time>
      </trkpt>
      <trkpt lat="43.73536" lon="6.66412">
        <ele>1214.8</ele>
        <time>2024-05-26T13:57:43Z</time>
      </trkpt>
      <trkpt lat="43.73536" lon="6.6641">
        <ele>1214.9</ele>
        <time>2024-05-26T13:57:44Z</time>
      </trkpt>
      <trkpt lat="43.73537" lon="6.66408">
        <ele>1214.9</ele>
        <time>2024-05-26T13:57:45Z</time>
      </trkpt>
      <trkpt lat="43.73537" lon="6.66406">
        <ele>1214.9</ele>
        <time>2024-05-26T13:57:46Z</time>
      </trkpt>
      <trkpt lat="43.73537" lon="6.66405">
        <ele>1215</ele>
        <time>2024-05-26T13:57:47Z</time>
      </trkpt>
      <trkpt lat="43.73537" lon="6.66403">
        <ele>1215</ele>
        <time>2024-05-26T13:57:48Z</time>
      </trkpt>
      <trkpt lat="43.73537" lon="6.66402">
        <ele>1215</ele>
        <time>2024-05-26T13:57:49Z</time>
      </trkpt>
      <trkpt lat="43.73537" lon="6.664">
        <ele>1215</ele>
        <time>2024-05-26T13:57:50Z</time>
      </trkpt>
      <trkpt lat="43.73537" lon="6.66398">
        <ele>1215</ele>
        <time>2024-05-26T13:57:51Z</time>
      </trkpt>
      <trkpt lat="43.73538" lon="6.66397">
        <ele>1214.9</ele>
        <time>2024-05-26T13:57:52Z</time>
      </trkpt>
      <trkpt lat="43.73538" lon="6.66396">
        <ele>1214.9</ele>
        <time>2024-05-26T13:57:53Z</time>
      </trkpt>
      <trkpt lat="43.73538" lon="6.66394">
        <ele>1214.9</ele>
        <time>2024-05-26T13:57:54Z</time>
      </trkpt>
      <trkpt lat="43.73539" lon="6.66393">
        <ele>1214.8</ele>
        <time>2024-05-26T13:57:55Z</time>
      </trkpt>
      <trkpt lat="43.73539" lon="6.66391">
        <ele>1214.7</ele>
        <time>2024-05-26T13:57:56Z</time>
      </trkpt>
      <trkpt lat="43.7354" lon="6.6639">
        <ele>1214.7</ele>
        <time>2024-05-26T13:57:57Z</time>
      </trkpt>
      <trkpt lat="43.7354" lon="6.66389">
        <ele>1214.6</ele>
        <time>2024-05-26T13:57:58Z</time>
      </trkpt>
      <trkpt lat="43.73541" lon="6.66388">
        <ele>1214.5</ele>
        <time>2024-05-26T13:57:59Z</time>
      </trkpt>
      <trkpt lat="43.73541" lon="6.66386">
        <ele>1214.3</ele>
        <time>2024-05-26T13:58:00Z</time>
      </trkpt>
      <trkpt lat="43.73542" lon="6.66385">
        <ele>1214.3</ele>
        <time>2024-05-26T13:58:01Z</time>
      </trkpt>
      <trkpt lat="43.73542" lon="6.66383">
        <ele>1214.2</ele>
        <time>2024-05-26T13:58:02Z</time>
      </trkpt>
      <trkpt lat="43.73543" lon="6.66381">
        <ele>1214.1</ele>
        <time>2024-05-26T13:58:03Z</time>
      </trkpt>
      <trkpt lat="43.73543" lon="6.6638">
        <ele>1214</ele>
        <time>2024-05-26T13:58:04Z</time>
      </trkpt>
      <trkpt lat="43.73544" lon="6.66378">
        <ele>1213.9</ele>
        <time>2024-05-26T13:58:05Z</time>
      </trkpt>
      <trkpt lat="43.73545" lon="6.66377">
        <ele>1213.7</ele>
        <time>2024-05-26T13:58:06Z</time>
      </trkpt>
      <trkpt lat="43.73546" lon="6.66376">
        <ele>1213.6</ele>
        <time>2024-05-26T13:58:07Z</time>
      </trkpt>
      <trkpt lat="43.73546" lon="6.66374">
        <ele>1213.6</ele>
        <time>2024-05-26T13:58:08Z</time>
      </trkpt>
      <trkpt lat="43.73547" lon="6.66372">
        <ele>1213.7</ele>
        <time>2024-05-26T13:58:09Z</time>
      </trkpt>
      <trkpt lat="43.73547" lon="6.66371">
        <ele>1213.6</ele>
        <time>2024-05-26T13:58:10Z</time>
      </trkpt>
      <trkpt lat="43.73547" lon="6.66369">
        <ele>1213.6</ele>
        <time>2024-05-26T13:58:11Z</time>
      </trkpt>
      <trkpt lat="43.73548" lon="6.66368">
        <ele>1213.6</ele>
        <time>2024-05-26T13:58:12Z</time>
      </trkpt>
      <trkpt lat="43.73549" lon="6.66367">
        <ele>1213.7</ele>
        <time>2024-05-26T13:58:13Z</time>
      </trkpt>
      <trkpt lat="43.7355" lon="6.66365">
        <ele>1213.8</ele>
        <time>2024-05-26T13:58:14Z</time>
      </trkpt>
      <trkpt lat="43.7355" lon="6.66364">
        <ele>1213.8</ele>
        <time>2024-05-26T13:58:15Z</time>
      </trkpt>
      <trkpt lat="43.73551" lon="6.66363">
        <ele>1213.9</ele>
        <time>2024-05-26T13:58:16Z</time>
      </trkpt>
      <trkpt lat="43.73552" lon="6.66362">
        <ele>1214</ele>
        <time>2024-05-26T13:58:17Z</time>
      </trkpt>
      <trkpt lat="43.73552" lon="6.6636">
        <ele>1214.1</ele>
        <time>2024-05-26T13:58:18Z</time>
      </trkpt>
      <trkpt lat="43.73553" lon="6.66358">
        <ele>1214.2</ele>
        <time>2024-05-26T13:58:19Z</time>
      </trkpt>
      <trkpt lat="43.73553" lon="6.66357">
        <ele>1214.2</ele>
        <time>2024-05-26T13:58:20Z</time>
      </trkpt>
      <trkpt lat="43.73554" lon="6.66356">
        <ele>1214.2</ele>
        <time>2024-05-26T13:58:21Z</time>
      </trkpt>
      <trkpt lat="43.73555" lon="6.66355">
        <ele>1214.1</ele>
        <time>2024-05-26T13:58:22Z</time>
      </trkpt>
      <trkpt lat="43.73556" lon="6.66353">
        <ele>1214.1</ele>
        <time>2024-05-26T13:58:23Z</time>
      </trkpt>
      <trkpt lat="43.73556" lon="6.66352">
        <ele>1214.1</ele>
        <time>2024-05-26T13:58:24Z</time>
      </trkpt>
      <trkpt lat="43.73557" lon="6.6635">
        <ele>1214.2</ele>
        <time>2024-05-26T13:58:25Z</time>
      </trkpt>
      <trkpt lat="43.73557" lon="6.66349">
        <ele>1214.1</ele>
        <time>2024-05-26T13:58:26Z</time>
      </trkpt>
      <trkpt lat="43.73558" lon="6.66347">
        <ele>1214.1</ele>
        <time>2024-05-26T13:58:27Z</time>
      </trkpt>
      <trkpt lat="43.73558" lon="6.66346">
        <ele>1214.1</ele>
        <time>2024-05-26T13:58:28Z</time>
      </trkpt>
      <trkpt lat="43.73559" lon="6.66344">
        <ele>1214.1</ele>
        <time>2024-05-26T13:58:29Z</time>
      </trkpt>
      <trkpt lat="43.73559" lon="6.66343">
        <ele>1214.1</ele>
        <time>2024-05-26T13:58:30Z</time>
      </trkpt>
      <trkpt lat="43.7356" lon="6.66341">
        <ele>1214.1</ele>
        <time>2024-05-26T13:58:31Z</time>
      </trkpt>
      <trkpt lat="43.73559" lon="6.66339">
        <ele>1214.1</ele>
        <time>2024-05-26T13:58:32Z</time>
      </trkpt>
      <trkpt lat="43.73559" lon="6.66338">
        <ele>1214.1</ele>
        <time>2024-05-26T13:58:33Z</time>
      </trkpt>
      <trkpt lat="43.73559" lon="6.66336">
        <ele>1214.1</ele>
        <time>2024-05-26T13:58:34Z</time>
      </trkpt>
      <trkpt lat="43.73558" lon="6.66335">
        <ele>1214.1</ele>
        <time>2024-05-26T13:58:35Z</time>
      </trkpt>
      <trkpt lat="43.73558" lon="6.66334">
        <ele>1214</ele>
        <time>2024-05-26T13:58:36Z</time>
      </trkpt>
      <trkpt lat="43.73558" lon="6.66332">
        <ele>1213.9</ele>
        <time>2024-05-26T13:58:37Z</time>
      </trkpt>
      <trkpt lat="43.73558" lon="6.66331">
        <ele>1213.9</ele>
        <time>2024-05-26T13:58:38Z</time>
      </trkpt>
      <trkpt lat="43.73558" lon="6.66329">
        <ele>1213.8</ele>
        <time>2024-05-26T13:58:39Z</time>
      </trkpt>
      <trkpt lat="43.73558" lon="6.66328">
        <ele>1213.8</ele>
        <time>2024-05-26T13:58:40Z</time>
      </trkpt>
      <trkpt lat="43.73557" lon="6.66326">
        <ele>1213.7</ele>
        <time>2024-05-26T13:58:41Z</time>
      </trkpt>
      <trkpt lat="43.73557" lon="6.66324">
        <ele>1213.6</ele>
        <time>2024-05-26T13:58:42Z</time>
      </trkpt>
      <trkpt lat="43.73557" lon="6.66321">
        <ele>1213.6</ele>
        <time>2024-05-26T13:58:43Z</time>
      </trkpt>
      <trkpt lat="43.73557" lon="6.6632">
        <ele>1213.5</ele>
        <time>2024-05-26T13:58:44Z</time>
      </trkpt>
      <trkpt lat="43.73557" lon="6.66318">
        <ele>1213.5</ele>
        <time>2024-05-26T13:58:45Z</time>
      </trkpt>
      <trkpt lat="43.73557" lon="6.66316">
        <ele>1213.4</ele>
        <time>2024-05-26T13:58:46Z</time>
      </trkpt>
      <trkpt lat="43.73558" lon="6.66314">
        <ele>1213.3</ele>
        <time>2024-05-26T13:58:47Z</time>
      </trkpt>
      <trkpt lat="43.73558" lon="6.66313">
        <ele>1213.2</ele>
        <time>2024-05-26T13:58:48Z</time>
      </trkpt>
      <trkpt lat="43.73558" lon="6.66311">
        <ele>1213.1</ele>
        <time>2024-05-26T13:58:49Z</time>
      </trkpt>
      <trkpt lat="43.73559" lon="6.66311">
        <ele>1213</ele>
        <time>2024-05-26T13:58:50Z</time>
      </trkpt>
      <trkpt lat="43.73559" lon="6.6631">
        <ele>1212.9</ele>
        <time>2024-05-26T13:58:51Z</time>
      </trkpt>
      <trkpt lat="43.7356" lon="6.66308">
        <ele>1212.8</ele>
        <time>2024-05-26T13:58:52Z</time>
      </trkpt>
      <trkpt lat="43.7356" lon="6.66307">
        <ele>1212.7</ele>
        <time>2024-05-26T13:58:53Z</time>
      </trkpt>
      <trkpt lat="43.73561" lon="6.66306">
        <ele>1212.6</ele>
        <time>2024-05-26T13:58:54Z</time>
      </trkpt>
      <trkpt lat="43.73561" lon="6.66305">
        <ele>1212.6</ele>
        <time>2024-05-26T13:58:55Z</time>
      </trkpt>
      <trkpt lat="43.73561" lon="6.66303">
        <ele>1212.4</ele>
        <time>2024-05-26T13:58:56Z</time>
      </trkpt>
      <trkpt lat="43.73561" lon="6.66301">
        <ele>1212.3</ele>
        <time>2024-05-26T13:58:57Z</time>
      </trkpt>
      <trkpt lat="43.73561" lon="6.663">
        <ele>1212.2</ele>
        <time>2024-05-26T13:58:58Z</time>
      </trkpt>
      <trkpt lat="43.73562" lon="6.66298">
        <ele>1212.1</ele>
        <time>2024-05-26T13:58:59Z</time>
      </trkpt>
      <trkpt lat="43.73562" lon="6.66296">
        <ele>1211.9</ele>
        <time>2024-05-26T13:59:00Z</time>
      </trkpt>
      <trkpt lat="43.73564" lon="6.66294">
        <ele>1211.9</ele>
        <time>2024-05-26T13:59:01Z</time>
      </trkpt>
      <trkpt lat="43.73564" lon="6.66294">
        <ele>1211.7</ele>
        <time>2024-05-26T13:59:02Z</time>
      </trkpt>
      <trkpt lat="43.73565" lon="6.66292">
        <ele>1211.6</ele>
        <time>2024-05-26T13:59:03Z</time>
      </trkpt>
      <trkpt lat="43.73566" lon="6.6629">
        <ele>1211.5</ele>
        <time>2024-05-26T13:59:04Z</time>
      </trkpt>
      <trkpt lat="43.73565" lon="6.66289">
        <ele>1211.4</ele>
        <time>2024-05-26T13:59:05Z</time>
      </trkpt>
      <trkpt lat="43.73565" lon="6.66288">
        <ele>1211.3</ele>
        <time>2024-05-26T13:59:06Z</time>
      </trkpt>
      <trkpt lat="43.73564" lon="6.66285">
        <ele>1211.2</ele>
        <time>2024-05-26T13:59:07Z</time>
      </trkpt>
      <trkpt lat="43.73564" lon="6.66284">
        <ele>1211.2</ele>
        <time>2024-05-26T13:59:08Z</time>
      </trkpt>
      <trkpt lat="43.73564" lon="6.66283">
        <ele>1211.1</ele>
        <time>2024-05-26T13:59:09Z</time>
      </trkpt>
      <trkpt lat="43.73563" lon="6.66282">
        <ele>1211</ele>
        <time>2024-05-26T13:59:10Z</time>
      </trkpt>
      <trkpt lat="43.73563" lon="6.66282">
        <ele>1211</ele>
        <time>2024-05-26T13:59:11Z</time>
      </trkpt>
      <trkpt lat="43.73564" lon="6.66281">
        <ele>1211</ele>
        <time>2024-05-26T13:59:12Z</time>
      </trkpt>
      <trkpt lat="43.73564" lon="6.66279">
        <ele>1211</ele>
        <time>2024-05-26T13:59:13Z</time>
      </trkpt>
      <trkpt lat="43.73564" lon="6.66278">
        <ele>1210.9</ele>
        <time>2024-05-26T13:59:14Z</time>
      </trkpt>
      <trkpt lat="43.73564" lon="6.66278">
        <ele>1210.8</ele>
        <time>2024-05-26T13:59:15Z</time>
      </trkpt>
      <trkpt lat="43.73564" lon="6.66276">
        <ele>1210.7</ele>
        <time>2024-05-26T13:59:16Z</time>
      </trkpt>
      <trkpt lat="43.73563" lon="6.66273">
        <ele>1210.6</ele>
        <time>2024-05-26T13:59:17Z</time>
      </trkpt>
      <trkpt lat="43.73562" lon="6.66271">
        <ele>1210.5</ele>
        <time>2024-05-26T13:59:18Z</time>
      </trkpt>
      <trkpt lat="43.73561" lon="6.66268">
        <ele>1210.5</ele>
        <time>2024-05-26T13:59:19Z</time>
      </trkpt>
      <trkpt lat="43.73561" lon="6.66265">
        <ele>1210.5</ele>
        <time>2024-05-26T13:59:20Z</time>
      </trkpt>
      <trkpt lat="43.7356" lon="6.66263">
        <ele>1210.5</ele>
        <time>2024-05-26T13:59:21Z</time>
      </trkpt>
      <trkpt lat="43.7356" lon="6.66262">
        <ele>1210.4</ele>
        <time>2024-05-26T13:59:22Z</time>
      </trkpt>
      <trkpt lat="43.73559" lon="6.6626">
        <ele>1210.4</ele>
        <time>2024-05-26T13:59:23Z</time>
      </trkpt>
      <trkpt lat="43.73558" lon="6.66259">
        <ele>1210.3</ele>
        <time>2024-05-26T13:59:24Z</time>
      </trkpt>
      <trkpt lat="43.73557" lon="6.66256">
        <ele>1210.3</ele>
        <time>2024-05-26T13:59:25Z</time>
      </trkpt>
      <trkpt lat="43.73556" lon="6.66255">
        <ele>1210.2</ele>
        <time>2024-05-26T13:59:26Z</time>
      </trkpt>
      <trkpt lat="43.73556" lon="6.66252">
        <ele>1210.2</ele>
        <time>2024-05-26T13:59:27Z</time>
      </trkpt>
      <trkpt lat="43.73556" lon="6.66249">
        <ele>1210.2</ele>
        <time>2024-05-26T13:59:28Z</time>
      </trkpt>
      <trkpt lat="43.73555" lon="6.66248">
        <ele>1210.2</ele>
        <time>2024-05-26T13:59:29Z</time>
      </trkpt>
      <trkpt lat="43.73555" lon="6.66245">
        <ele>1210.2</ele>
        <time>2024-05-26T13:59:30Z</time>
      </trkpt>
      <trkpt lat="43.73555" lon="6.66244">
        <ele>1210.2</ele>
        <time>2024-05-26T13:59:31Z</time>
      </trkpt>
      <trkpt lat="43.73554" lon="6.66243">
        <ele>1210.3</ele>
        <time>2024-05-26T13:59:32Z</time>
      </trkpt>
      <trkpt lat="43.73554" lon="6.66242">
        <ele>1210.3</ele>
        <time>2024-05-26T13:59:33Z</time>
      </trkpt>
      <trkpt lat="43.73554" lon="6.66241">
        <ele>1210.4</ele>
        <time>2024-05-26T13:59:34Z</time>
      </trkpt>
      <trkpt lat="43.73554" lon="6.66239">
        <ele>1210.4</ele>
        <time>2024-05-26T13:59:35Z</time>
      </trkpt>
      <trkpt lat="43.73554" lon="6.66238">
        <ele>1210.3</ele>
        <time>2024-05-26T13:59:36Z</time>
      </trkpt>
      <trkpt lat="43.73555" lon="6.66236">
        <ele>1210.3</ele>
        <time>2024-05-26T13:59:37Z</time>
      </trkpt>
      <trkpt lat="43.73554" lon="6.66234">
        <ele>1210.3</ele>
        <time>2024-05-26T13:59:38Z</time>
      </trkpt>
      <trkpt lat="43.73555" lon="6.66234">
        <ele>1210.4</ele>
        <time>2024-05-26T13:59:39Z</time>
      </trkpt>
      <trkpt lat="43.73555" lon="6.66231">
        <ele>1210.5</ele>
        <time>2024-05-26T13:59:40Z</time>
      </trkpt>
      <trkpt lat="43.73555" lon="6.66229">
        <ele>1210.6</ele>
        <time>2024-05-26T13:59:41Z</time>
      </trkpt>
      <trkpt lat="43.73554" lon="6.66227">
        <ele>1210.7</ele>
        <time>2024-05-26T13:59:42Z</time>
      </trkpt>
      <trkpt lat="43.73554" lon="6.66225">
        <ele>1210.7</ele>
        <time>2024-05-26T13:59:43Z</time>
      </trkpt>
      <trkpt lat="43.73554" lon="6.66223">
        <ele>1210.7</ele>
        <time>2024-05-26T13:59:44Z</time>
      </trkpt>
      <trkpt lat="43.73555" lon="6.66221">
        <ele>1210.8</ele>
        <time>2024-05-26T13:59:45Z</time>
      </trkpt>
      <trkpt lat="43.73554" lon="6.66218">
        <ele>1210.8</ele>
        <time>2024-05-26T13:59:46Z</time>
      </trkpt>
      <trkpt lat="43.73554" lon="6.66217">
        <ele>1210.8</ele>
        <time>2024-05-26T13:59:47Z</time>
      </trkpt>
      <trkpt lat="43.73553" lon="6.66215">
        <ele>1210.8</ele>
        <time>2024-05-26T13:59:48Z</time>
      </trkpt>
      <trkpt lat="43.73553" lon="6.66213">
        <ele>1210.8</ele>
        <time>2024-05-26T13:59:49Z</time>
      </trkpt>
      <trkpt lat="43.73552" lon="6.66211">
        <ele>1210.7</ele>
        <time>2024-05-26T13:59:50Z</time>
      </trkpt>
      <trkpt lat="43.73552" lon="6.66209">
        <ele>1210.6</ele>
        <time>2024-05-26T13:59:51Z</time>
      </trkpt>
      <trkpt lat="43.73551" lon="6.66208">
        <ele>1210.5</ele>
        <time>2024-05-26T13:59:52Z</time>
      </trkpt>
      <trkpt lat="43.73551" lon="6.66207">
        <ele>1210.4</ele>
        <time>2024-05-26T13:59:53Z</time>
      </trkpt>
      <trkpt lat="43.7355" lon="6.66204">
        <ele>1210.4</ele>
        <time>2024-05-26T13:59:54Z</time>
      </trkpt>
      <trkpt lat="43.73548" lon="6.66203">
        <ele>1210.3</ele>
        <time>2024-05-26T13:59:55Z</time>
      </trkpt>
      <trkpt lat="43.73547" lon="6.66202">
        <ele>1210.2</ele>
        <time>2024-05-26T13:59:56Z</time>
      </trkpt>
      <trkpt lat="43.73547" lon="6.66201">
        <ele>1210.1</ele>
        <time>2024-05-26T13:59:57Z</time>
      </trkpt>
      <trkpt lat="43.73546" lon="6.662">
        <ele>1210.1</ele>
        <time>2024-05-26T13:59:58Z</time>
      </trkpt>
      <trkpt lat="43.73545" lon="6.66198">
        <ele>1210</ele>
        <time>2024-05-26T13:59:59Z</time>
      </trkpt>
      <trkpt lat="43.73545" lon="6.66197">
        <ele>1210.1</ele>
        <time>2024-05-26T14:00:00Z</time>
      </trkpt>
      <trkpt lat="43.73544" lon="6.66195">
        <ele>1210.1</ele>
        <time>2024-05-26T14:00:01Z</time>
      </trkpt>
      <trkpt lat="43.73543" lon="6.66195">
        <ele>1210.1</ele>
        <time>2024-05-26T14:00:02Z</time>
      </trkpt>
      <trkpt lat="43.73543" lon="6.66194">
        <ele>1210.2</ele>
        <time>2024-05-26T14:00:03Z</time>
      </trkpt>
      <trkpt lat="43.73542" lon="6.66192">
        <ele>1210.2</ele>
        <time>2024-05-26T14:00:04Z</time>
      </trkpt>
      <trkpt lat="43.73541" lon="6.66191">
        <ele>1210.1</ele>
        <time>2024-05-26T14:00:05Z</time>
      </trkpt>
      <trkpt lat="43.7354" lon="6.6619">
        <ele>1210.1</ele>
        <time>2024-05-26T14:00:06Z</time>
      </trkpt>
      <trkpt lat="43.7354" lon="6.66188">
        <ele>1210.1</ele>
        <time>2024-05-26T14:00:07Z</time>
      </trkpt>
      <trkpt lat="43.73539" lon="6.66187">
        <ele>1210.1</ele>
        <time>2024-05-26T14:00:08Z</time>
      </trkpt>
      <trkpt lat="43.73538" lon="6.66186">
        <ele>1210</ele>
        <time>2024-05-26T14:00:09Z</time>
      </trkpt>
      <trkpt lat="43.73537" lon="6.66185">
        <ele>1210.1</ele>
        <time>2024-05-26T14:00:10Z</time>
      </trkpt>
      <trkpt lat="43.73537" lon="6.66184">
        <ele>1210.1</ele>
        <time>2024-05-26T14:00:11Z</time>
      </trkpt>
      <trkpt lat="43.73536" lon="6.66184">
        <ele>1210.1</ele>
        <time>2024-05-26T14:00:12Z</time>
      </trkpt>
      <trkpt lat="43.73535" lon="6.66183">
        <ele>1210</ele>
        <time>2024-05-26T14:00:13Z</time>
      </trkpt>
      <trkpt lat="43.73535" lon="6.66181">
        <ele>1209.9</ele>
        <time>2024-05-26T14:00:14Z</time>
      </trkpt>
      <trkpt lat="43.73534" lon="6.66181">
        <ele>1209.9</ele>
        <time>2024-05-26T14:00:15Z</time>
      </trkpt>
      <trkpt lat="43.73533" lon="6.66179">
        <ele>1209.8</ele>
        <time>2024-05-26T14:00:16Z</time>
      </trkpt>
      <trkpt lat="43.73531" lon="6.66179">
        <ele>1209.8</ele>
        <time>2024-05-26T14:00:17Z</time>
      </trkpt>
      <trkpt lat="43.7353" lon="6.66178">
        <ele>1209.9</ele>
        <time>2024-05-26T14:00:18Z</time>
      </trkpt>
      <trkpt lat="43.7353" lon="6.66177">
        <ele>1209.8</ele>
        <time>2024-05-26T14:00:19Z</time>
      </trkpt>
      <trkpt lat="43.73529" lon="6.66176">
        <ele>1209.7</ele>
        <time>2024-05-26T14:00:20Z</time>
      </trkpt>
      <trkpt lat="43.73528" lon="6.66175">
        <ele>1209.8</ele>
        <time>2024-05-26T14:00:21Z</time>
      </trkpt>
      <trkpt lat="43.73527" lon="6.66174">
        <ele>1209.7</ele>
        <time>2024-05-26T14:00:22Z</time>
      </trkpt>
      <trkpt lat="43.73526" lon="6.66172">
        <ele>1209.7</ele>
        <time>2024-05-26T14:00:23Z</time>
      </trkpt>
      <trkpt lat="43.73525" lon="6.6617">
        <ele>1209.7</ele>
        <time>2024-05-26T14:00:24Z</time>
      </trkpt>
      <trkpt lat="43.73524" lon="6.66168">
        <ele>1209.6</ele>
        <time>2024-05-26T14:00:25Z</time>
      </trkpt>
      <trkpt lat="43.73524" lon="6.66167">
        <ele>1209.6</ele>
        <time>2024-05-26T14:00:26Z</time>
      </trkpt>
      <trkpt lat="43.73522" lon="6.66166">
        <ele>1209.6</ele>
        <time>2024-05-26T14:00:27Z</time>
      </trkpt>
      <trkpt lat="43.73522" lon="6.66164">
        <ele>1209.6</ele>
        <time>2024-05-26T14:00:28Z</time>
      </trkpt>
      <trkpt lat="43.73522" lon="6.66163">
        <ele>1209.6</ele>
        <time>2024-05-26T14:00:29Z</time>
      </trkpt>
      <trkpt lat="43.73522" lon="6.66161">
        <ele>1209.6</ele>
        <time>2024-05-26T14:00:30Z</time>
      </trkpt>
      <trkpt lat="43.73521" lon="6.66159">
        <ele>1209.6</ele>
        <time>2024-05-26T14:00:31Z</time>
      </trkpt>
      <trkpt lat="43.73521" lon="6.66158">
        <ele>1209.5</ele>
        <time>2024-05-26T14:00:32Z</time>
      </trkpt>
      <trkpt lat="43.73521" lon="6.66157">
        <ele>1209.5</ele>
        <time>2024-05-26T14:00:33Z</time>
      </trkpt>
      <trkpt lat="43.73521" lon="6.66155">
        <ele>1209.4</ele>
        <time>2024-05-26T14:00:34Z</time>
      </trkpt>
      <trkpt lat="43.73521" lon="6.66154">
        <ele>1209.5</ele>
        <time>2024-05-26T14:00:35Z</time>
      </trkpt>
      <trkpt lat="43.73521" lon="6.66153">
        <ele>1209.5</ele>
        <time>2024-05-26T14:00:36Z</time>
      </trkpt>
      <trkpt lat="43.73521" lon="6.66151">
        <ele>1209.5</ele>
        <time>2024-05-26T14:00:37Z</time>
      </trkpt>
      <trkpt lat="43.73521" lon="6.6615">
        <ele>1209.5</ele>
        <time>2024-05-26T14:00:38Z</time>
      </trkpt>
      <trkpt lat="43.73521" lon="6.66149">
        <ele>1209.5</ele>
        <time>2024-05-26T14:00:39Z</time>
      </trkpt>
      <trkpt lat="43.7352" lon="6.66146">
        <ele>1209.5</ele>
        <time>2024-05-26T14:00:40Z</time>
      </trkpt>
      <trkpt lat="43.7352" lon="6.66144">
        <ele>1209.5</ele>
        <time>2024-05-26T14:00:41Z</time>
      </trkpt>
      <trkpt lat="43.7352" lon="6.66143">
        <ele>1209.5</ele>
        <time>2024-05-26T14:00:42Z</time>
      </trkpt>
      <trkpt lat="43.7352" lon="6.66141">
        <ele>1209.5</ele>
        <time>2024-05-26T14:00:43Z</time>
      </trkpt>
      <trkpt lat="43.7352" lon="6.6614">
        <ele>1209.5</ele>
        <time>2024-05-26T14:00:44Z</time>
      </trkpt>
      <trkpt lat="43.7352" lon="6.66139">
        <ele>1209.3</ele>
        <time>2024-05-26T14:00:45Z</time>
      </trkpt>
      <trkpt lat="43.73519" lon="6.66138">
        <ele>1209.2</ele>
        <time>2024-05-26T14:00:46Z</time>
      </trkpt>
      <trkpt lat="43.73519" lon="6.66137">
        <ele>1209.2</ele>
        <time>2024-05-26T14:00:47Z</time>
      </trkpt>
      <trkpt lat="43.73519" lon="6.66135">
        <ele>1209.2</ele>
        <time>2024-05-26T14:00:48Z</time>
      </trkpt>
      <trkpt lat="43.73519" lon="6.66134">
        <ele>1209.3</ele>
        <time>2024-05-26T14:00:49Z</time>
      </trkpt>
      <trkpt lat="43.73519" lon="6.66132">
        <ele>1209.2</ele>
        <time>2024-05-26T14:00:50Z</time>
      </trkpt>
      <trkpt lat="43.73519" lon="6.6613">
        <ele>1209.3</ele>
        <time>2024-05-26T14:00:51Z</time>
      </trkpt>
      <trkpt lat="43.73518" lon="6.66128">
        <ele>1209.3</ele>
        <time>2024-05-26T14:00:52Z</time>
      </trkpt>
      <trkpt lat="43.73518" lon="6.66127">
        <ele>1209.4</ele>
        <time>2024-05-26T14:00:53Z</time>
      </trkpt>
      <trkpt lat="43.73518" lon="6.66126">
        <ele>1209.4</ele>
        <time>2024-05-26T14:00:54Z</time>
      </trkpt>
      <trkpt lat="43.73517" lon="6.66125">
        <ele>1209.5</ele>
        <time>2024-05-26T14:00:55Z</time>
      </trkpt>
      <trkpt lat="43.73517" lon="6.66123">
        <ele>1209.7</ele>
        <time>2024-05-26T14:00:56Z</time>
      </trkpt>
      <trkpt lat="43.73517" lon="6.66122">
        <ele>1209.8</ele>
        <time>2024-05-26T14:00:57Z</time>
      </trkpt>
      <trkpt lat="43.73516" lon="6.66121">
        <ele>1209.9</ele>
        <time>2024-05-26T14:00:58Z</time>
      </trkpt>
      <trkpt lat="43.73517" lon="6.66119">
        <ele>1210</ele>
        <time>2024-05-26T14:00:59Z</time>
      </trkpt>
      <trkpt lat="43.73516" lon="6.66118">
        <ele>1210.1</ele>
        <time>2024-05-26T14:01:00Z</time>
      </trkpt>
      <trkpt lat="43.73516" lon="6.66116">
        <ele>1210.2</ele>
        <time>2024-05-26T14:01:01Z</time>
      </trkpt>
      <trkpt lat="43.73516" lon="6.66114">
        <ele>1210.2</ele>
        <time>2024-05-26T14:01:02Z</time>
      </trkpt>
      <trkpt lat="43.73515" lon="6.66112">
        <ele>1210.3</ele>
        <time>2024-05-26T14:01:03Z</time>
      </trkpt>
      <trkpt lat="43.73515" lon="6.66111">
        <ele>1210.4</ele>
        <time>2024-05-26T14:01:04Z</time>
      </trkpt>
      <trkpt lat="43.73514" lon="6.6611">
        <ele>1210.4</ele>
        <time>2024-05-26T14:01:05Z</time>
      </trkpt>
      <trkpt lat="43.73514" lon="6.6611">
        <ele>1210.3</ele>
        <time>2024-05-26T14:01:06Z</time>
      </trkpt>
      <trkpt lat="43.73514" lon="6.66109">
        <ele>1210.3</ele>
        <time>2024-05-26T14:01:07Z</time>
      </trkpt>
      <trkpt lat="43.73513" lon="6.66107">
        <ele>1210.5</ele>
        <time>2024-05-26T14:01:08Z</time>
      </trkpt>
      <trkpt lat="43.73513" lon="6.66105">
        <ele>1210.5</ele>
        <time>2024-05-26T14:01:09Z</time>
      </trkpt>
      <trkpt lat="43.73513" lon="6.66103">
        <ele>1210.7</ele>
        <time>2024-05-26T14:01:10Z</time>
      </trkpt>
      <trkpt lat="43.73512" lon="6.66102">
        <ele>1210.7</ele>
        <time>2024-05-26T14:01:11Z</time>
      </trkpt>
      <trkpt lat="43.73511" lon="6.66099">
        <ele>1210.6</ele>
        <time>2024-05-26T14:01:12Z</time>
      </trkpt>
      <trkpt lat="43.7351" lon="6.66097">
        <ele>1210.7</ele>
        <time>2024-05-26T14:01:13Z</time>
      </trkpt>
      <trkpt lat="43.73509" lon="6.66095">
        <ele>1210.7</ele>
        <time>2024-05-26T14:01:14Z</time>
      </trkpt>
      <trkpt lat="43.73508" lon="6.66094">
        <ele>1210.7</ele>
        <time>2024-05-26T14:01:15Z</time>
      </trkpt>
      <trkpt lat="43.73507" lon="6.66092">
        <ele>1210.7</ele>
        <time>2024-05-26T14:01:16Z</time>
      </trkpt>
      <trkpt lat="43.73507" lon="6.66092">
        <ele>1210.7</ele>
        <time>2024-05-26T14:01:17Z</time>
      </trkpt>
      <trkpt lat="43.73506" lon="6.6609">
        <ele>1210.7</ele>
        <time>2024-05-26T14:01:18Z</time>
      </trkpt>
      <trkpt lat="43.73506" lon="6.66089">
        <ele>1210.7</ele>
        <time>2024-05-26T14:01:19Z</time>
      </trkpt>
      <trkpt lat="43.73504" lon="6.66088">
        <ele>1210.7</ele>
        <time>2024-05-26T14:01:20Z</time>
      </trkpt>
      <trkpt lat="43.73504" lon="6.66087">
        <ele>1210.7</ele>
        <time>2024-05-26T14:01:21Z</time>
      </trkpt>
      <trkpt lat="43.73504" lon="6.66085">
        <ele>1210.7</ele>
        <time>2024-05-26T14:01:22Z</time>
      </trkpt>
      <trkpt lat="43.73503" lon="6.66083">
        <ele>1210.9</ele>
        <time>2024-05-26T14:01:23Z</time>
      </trkpt>
      <trkpt lat="43.73504" lon="6.66081">
        <ele>1211</ele>
        <time>2024-05-26T14:01:24Z</time>
      </trkpt>
      <trkpt lat="43.73504" lon="6.6608">
        <ele>1211</ele>
        <time>2024-05-26T14:01:25Z</time>
      </trkpt>
      <trkpt lat="43.73504" lon="6.66079">
        <ele>1211</ele>
        <time>2024-05-26T14:01:26Z</time>
      </trkpt>
      <trkpt lat="43.73504" lon="6.66079">
        <ele>1211</ele>
        <time>2024-05-26T14:01:27Z</time>
      </trkpt>
      <trkpt lat="43.73504" lon="6.66079">
        <ele>1211.1</ele>
        <time>2024-05-26T14:01:28Z</time>
      </trkpt>
      <trkpt lat="43.73505" lon="6.66079">
        <ele>1211.1</ele>
        <time>2024-05-26T14:01:29Z</time>
      </trkpt>
      <trkpt lat="43.73505" lon="6.66079">
        <ele>1211.2</ele>
        <time>2024-05-26T14:01:30Z</time>
      </trkpt>
      <trkpt lat="43.73506" lon="6.6608">
        <ele>1211.3</ele>
        <time>2024-05-26T14:01:31Z</time>
      </trkpt>
      <trkpt lat="43.73506" lon="6.6608">
        <ele>1211.3</ele>
        <time>2024-05-26T14:01:32Z</time>
      </trkpt>
      <trkpt lat="43.73507" lon="6.6608">
        <ele>1211.3</ele>
        <time>2024-05-26T14:01:33Z</time>
      </trkpt>
      <trkpt lat="43.73508" lon="6.6608">
        <ele>1211.3</ele>
        <time>2024-05-26T14:01:34Z</time>
      </trkpt>
      <trkpt lat="43.73509" lon="6.6608">
        <ele>1211.4</ele>
        <time>2024-05-26T14:01:35Z</time>
      </trkpt>
      <trkpt lat="43.73509" lon="6.66079">
        <ele>1211.4</ele>
        <time>2024-05-26T14:01:36Z</time>
      </trkpt>
      <trkpt lat="43.7351" lon="6.66079">
        <ele>1211.5</ele>
        <time>2024-05-26T14:01:37Z</time>
      </trkpt>
      <trkpt lat="43.7351" lon="6.66079">
        <ele>1211.6</ele>
        <time>2024-05-26T14:01:38Z</time>
      </trkpt>
      <trkpt lat="43.73511" lon="6.66079">
        <ele>1211.6</ele>
        <time>2024-05-26T14:01:39Z</time>
      </trkpt>
      <trkpt lat="43.73512" lon="6.66079">
        <ele>1211.7</ele>
        <time>2024-05-26T14:01:40Z</time>
      </trkpt>
      <trkpt lat="43.73512" lon="6.66079">
        <ele>1211.8</ele>
        <time>2024-05-26T14:01:41Z</time>
      </trkpt>
      <trkpt lat="43.73512" lon="6.66079">
        <ele>1211.8</ele>
        <time>2024-05-26T14:01:42Z</time>
      </trkpt>
      <trkpt lat="43.73513" lon="6.66079">
        <ele>1211.9</ele>
        <time>2024-05-26T14:01:43Z</time>
      </trkpt>
      <trkpt lat="43.73513" lon="6.6608">
        <ele>1211.9</ele>
        <time>2024-05-26T14:01:44Z</time>
      </trkpt>
      <trkpt lat="43.73512" lon="6.6608">
        <ele>1212</ele>
        <time>2024-05-26T14:01:45Z</time>
      </trkpt>
      <trkpt lat="43.73512" lon="6.66081">
        <ele>1212</ele>
        <time>2024-05-26T14:01:46Z</time>
      </trkpt>
      <trkpt lat="43.73512" lon="6.66081">
        <ele>1212</ele>
        <time>2024-05-26T14:01:47Z</time>
      </trkpt>
      <trkpt lat="43.73512" lon="6.66081">
        <ele>1212.1</ele>
        <time>2024-05-26T14:01:48Z</time>
      </trkpt>
      <trkpt lat="43.73512" lon="6.66081">
        <ele>1212</ele>
        <time>2024-05-26T14:01:49Z</time>
      </trkpt>
      <trkpt lat="43.73513" lon="6.66081">
        <ele>1211.9</ele>
        <time>2024-05-26T14:01:50Z</time>
      </trkpt>
      <trkpt lat="43.73513" lon="6.66081">
        <ele>1211.8</ele>
        <time>2024-05-26T14:01:51Z</time>
      </trkpt>
      <trkpt lat="43.73513" lon="6.66081">
        <ele>1211.8</ele>
        <time>2024-05-26T14:01:52Z</time>
      </trkpt>
      <trkpt lat="43.73513" lon="6.66081">
        <ele>1211.7</ele>
        <time>2024-05-26T14:01:53Z</time>
      </trkpt>
      <trkpt lat="43.73513" lon="6.66082">
        <ele>1211.8</ele>
        <time>2024-05-26T14:01:54Z</time>
      </trkpt>
      <trkpt lat="43.73513" lon="6.66082">
        <ele>1211.8</ele>
        <time>2024-05-26T14:01:55Z</time>
      </trkpt>
      <trkpt lat="43.73513" lon="6.66082">
        <ele>1211.7</ele>
        <time>2024-05-26T14:01:56Z</time>
      </trkpt>
      <trkpt lat="43.73513" lon="6.66082">
        <ele>1211.6</ele>
        <time>2024-05-26T14:01:57Z</time>
      </trkpt>
      <trkpt lat="43.73513" lon="6.66082">
        <ele>1211.6</ele>
        <time>2024-05-26T14:01:58Z</time>
      </trkpt>
      <trkpt lat="43.73513" lon="6.66082">
        <ele>1211.5</ele>
        <time>2024-05-26T14:01:59Z</time>
      </trkpt>
      <trkpt lat="43.73513" lon="6.66082">
        <ele>1211.5</ele>
        <time>2024-05-26T14:02:00Z</time>
      </trkpt>
      <trkpt lat="43.73513" lon="6.66083">
        <ele>1211.5</ele>
        <time>2024-05-26T14:02:01Z</time>
      </trkpt>
      <trkpt lat="43.73513" lon="6.66083">
        <ele>1211.5</ele>
        <time>2024-05-26T14:02:02Z</time>
      </trkpt>
      <trkpt lat="43.73513" lon="6.66083">
        <ele>1211.5</ele>
        <time>2024-05-26T14:02:03Z</time>
      </trkpt>
      <trkpt lat="43.73513" lon="6.66083">
        <ele>1211.6</ele>
        <time>2024-05-26T14:02:04Z</time>
      </trkpt>
      <trkpt lat="43.73514" lon="6.66082">
        <ele>1211.6</ele>
        <time>2024-05-26T14:02:05Z</time>
      </trkpt>
      <trkpt lat="43.73514" lon="6.66081">
        <ele>1211.6</ele>
        <time>2024-05-26T14:02:06Z</time>
      </trkpt>
      <trkpt lat="43.73514" lon="6.6608">
        <ele>1211.6</ele>
        <time>2024-05-26T14:02:07Z</time>
      </trkpt>
      <trkpt lat="43.73514" lon="6.66079">
        <ele>1211.6</ele>
        <time>2024-05-26T14:02:08Z</time>
      </trkpt>
      <trkpt lat="43.73514" lon="6.66079">
        <ele>1211.7</ele>
        <time>2024-05-26T14:02:09Z</time>
      </trkpt>
      <trkpt lat="43.73514" lon="6.66079">
        <ele>1211.7</ele>
        <time>2024-05-26T14:02:10Z</time>
      </trkpt>
      <trkpt lat="43.73514" lon="6.66078">
        <ele>1211.7</ele>
        <time>2024-05-26T14:02:11Z</time>
      </trkpt>
      <trkpt lat="43.73514" lon="6.66078">
        <ele>1211.7</ele>
        <time>2024-05-26T14:02:12Z</time>
      </trkpt>
      <trkpt lat="43.73514" lon="6.66078">
        <ele>1211.7</ele>
        <time>2024-05-26T14:02:13Z</time>
      </trkpt>
      <trkpt lat="43.73514" lon="6.66077">
        <ele>1211.7</ele>
        <time>2024-05-26T14:02:14Z</time>
      </trkpt>
      <trkpt lat="43.73514" lon="6.66077">
        <ele>1211.7</ele>
        <time>2024-05-26T14:02:15Z</time>
      </trkpt>
      <trkpt lat="43.73514" lon="6.66076">
        <ele>1211.7</ele>
        <time>2024-05-26T14:02:16Z</time>
      </trkpt>
      <trkpt lat="43.73514" lon="6.66076">
        <ele>1211.7</ele>
        <time>2024-05-26T14:02:17Z</time>
      </trkpt>
      <trkpt lat="43.73514" lon="6.66076">
        <ele>1211.6</ele>
        <time>2024-05-26T14:02:18Z</time>
      </trkpt>
      <trkpt lat="43.73514" lon="6.66075">
        <ele>1211.6</ele>
        <time>2024-05-26T14:02:19Z</time>
      </trkpt>
      <trkpt lat="43.73514" lon="6.66075">
        <ele>1211.5</ele>
        <time>2024-05-26T14:02:20Z</time>
      </trkpt>
      <trkpt lat="43.73514" lon="6.66074">
        <ele>1211.5</ele>
        <time>2024-05-26T14:02:21Z</time>
      </trkpt>
      <trkpt lat="43.73515" lon="6.66074">
        <ele>1211.5</ele>
        <time>2024-05-26T14:02:22Z</time>
      </trkpt>
      <trkpt lat="43.73515" lon="6.66073">
        <ele>1211.5</ele>
        <time>2024-05-26T14:02:23Z</time>
      </trkpt>
      <trkpt lat="43.73515" lon="6.66073">
        <ele>1211.5</ele>
        <time>2024-05-26T14:02:24Z</time>
      </trkpt>
      <trkpt lat="43.73515" lon="6.66073">
        <ele>1211.6</ele>
        <time>2024-05-26T14:02:25Z</time>
      </trkpt>
      <trkpt lat="43.73515" lon="6.66073">
        <ele>1211.6</ele>
        <time>2024-05-26T14:02:26Z</time>
      </trkpt>
      <trkpt lat="43.73515" lon="6.66073">
        <ele>1211.6</ele>
        <time>2024-05-26T14:02:27Z</time>
      </trkpt>
      <trkpt lat="43.73515" lon="6.66072">
        <ele>1211.6</ele>
        <time>2024-05-26T14:02:28Z</time>
      </trkpt>
      <trkpt lat="43.73515" lon="6.66072">
        <ele>1211.6</ele>
        <time>2024-05-26T14:02:29Z</time>
      </trkpt>
      <trkpt lat="43.73515" lon="6.66073">
        <ele>1211.6</ele>
        <time>2024-05-26T14:02:30Z</time>
      </trkpt>
      <trkpt lat="43.73515" lon="6.66073">
        <ele>1211.6</ele>
        <time>2024-05-26T14:02:31Z</time>
      </trkpt>
      <trkpt lat="43.73515" lon="6.66073">
        <ele>1211.6</ele>
        <time>2024-05-26T14:02:32Z</time>
      </trkpt>
      <trkpt lat="43.73515" lon="6.66073">
        <ele>1211.7</ele>
        <time>2024-05-26T14:02:33Z</time>
      </trkpt>
      <trkpt lat="43.73515" lon="6.66073">
        <ele>1211.7</ele>
        <time>2024-05-26T14:02:34Z</time>
      </trkpt>
      <trkpt lat="43.73515" lon="6.66073">
        <ele>1211.7</ele>
        <time>2024-05-26T14:02:35Z</time>
      </trkpt>
      <trkpt lat="43.73515" lon="6.66073">
        <ele>1211.7</ele>
        <time>2024-05-26T14:02:36Z</time>
      </trkpt>
      <trkpt lat="43.73515" lon="6.66073">
        <ele>1211.7</ele>
        <time>2024-05-26T14:02:37Z</time>
      </trkpt>
      <trkpt lat="43.73515" lon="6.66073">
        <ele>1211.8</ele>
        <time>2024-05-26T14:02:38Z</time>
      </trkpt>
      <trkpt lat="43.73515" lon="6.66073">
        <ele>1211.7</ele>
        <time>2024-05-26T14:02:39Z</time>
      </trkpt>
      <trkpt lat="43.73515" lon="6.66073">
        <ele>1211.8</ele>
        <time>2024-05-26T14:02:40Z</time>
      </trkpt>
      <trkpt lat="43.73515" lon="6.66073">
        <ele>1211.7</ele>
        <time>2024-05-26T14:02:41Z</time>
      </trkpt>
      <trkpt lat="43.73515" lon="6.66073">
        <ele>1211.6</ele>
        <time>2024-05-26T14:02:42Z</time>
      </trkpt>
      <trkpt lat="43.73515" lon="6.66073">
        <ele>1211.6</ele>
        <time>2024-05-26T14:02:43Z</time>
      </trkpt>
      <trkpt lat="43.73515" lon="6.66074">
        <ele>1211.5</ele>
        <time>2024-05-26T14:02:44Z</time>
      </trkpt>
      <trkpt lat="43.73515" lon="6.66073">
        <ele>1211.5</ele>
        <time>2024-05-26T14:02:45Z</time>
      </trkpt>
      <trkpt lat="43.73515" lon="6.66073">
        <ele>1211.5</ele>
        <time>2024-05-26T14:02:46Z</time>
      </trkpt>
      <trkpt lat="43.73515" lon="6.66074">
        <ele>1211.5</ele>
        <time>2024-05-26T14:02:47Z</time>
      </trkpt>
      <trkpt lat="43.73515" lon="6.66074">
        <ele>1211.4</ele>
        <time>2024-05-26T14:02:48Z</time>
      </trkpt>
      <trkpt lat="43.73515" lon="6.66075">
        <ele>1211.4</ele>
        <time>2024-05-26T14:02:49Z</time>
      </trkpt>
      <trkpt lat="43.73515" lon="6.66075">
        <ele>1211.4</ele>
        <time>2024-05-26T14:02:50Z</time>
      </trkpt>
      <trkpt lat="43.73515" lon="6.66075">
        <ele>1211.4</ele>
        <time>2024-05-26T14:02:51Z</time>
      </trkpt>
      <trkpt lat="43.73515" lon="6.66075">
        <ele>1211.5</ele>
        <time>2024-05-26T14:02:52Z</time>
      </trkpt>
      <trkpt lat="43.73515" lon="6.66075">
        <ele>1211.5</ele>
        <time>2024-05-26T14:02:53Z</time>
      </trkpt>
      <trkpt lat="43.73515" lon="6.66075">
        <ele>1211.6</ele>
        <time>2024-05-26T14:02:54Z</time>
      </trkpt>
      <trkpt lat="43.73515" lon="6.66076">
        <ele>1211.6</ele>
        <time>2024-05-26T14:02:55Z</time>
      </trkpt>
      <trkpt lat="43.73516" lon="6.66076">
        <ele>1211.6</ele>
        <time>2024-05-26T14:02:56Z</time>
      </trkpt>
      <trkpt lat="43.73516" lon="6.66077">
        <ele>1211.6</ele>
        <time>2024-05-26T14:02:57Z</time>
      </trkpt>
      <trkpt lat="43.73515" lon="6.66077">
        <ele>1211.7</ele>
        <time>2024-05-26T14:02:58Z</time>
      </trkpt>
      <trkpt lat="43.73516" lon="6.66077">
        <ele>1211.7</ele>
        <time>2024-05-26T14:02:59Z</time>
      </trkpt>
      <trkpt lat="43.73516" lon="6.66076">
        <ele>1211.8</ele>
        <time>2024-05-26T14:03:00Z</time>
      </trkpt>
      <trkpt lat="43.73516" lon="6.66075">
        <ele>1211.7</ele>
        <time>2024-05-26T14:03:01Z</time>
      </trkpt>
      <trkpt lat="43.73516" lon="6.66075">
        <ele>1211.7</ele>
        <time>2024-05-26T14:03:02Z</time>
      </trkpt>
      <trkpt lat="43.73516" lon="6.66074">
        <ele>1211.7</ele>
        <time>2024-05-26T14:03:03Z</time>
      </trkpt>
      <trkpt lat="43.73516" lon="6.66074">
        <ele>1211.7</ele>
        <time>2024-05-26T14:03:04Z</time>
      </trkpt>
      <trkpt lat="43.73516" lon="6.66074">
        <ele>1211.7</ele>
        <time>2024-05-26T14:03:05Z</time>
      </trkpt>
      <trkpt lat="43.73516" lon="6.66074">
        <ele>1211.7</ele>
        <time>2024-05-26T14:03:06Z</time>
      </trkpt>
      <trkpt lat="43.73516" lon="6.66074">
        <ele>1211.7</ele>
        <time>2024-05-26T14:03:07Z</time>
      </trkpt>
      <trkpt lat="43.73516" lon="6.66074">
        <ele>1211.6</ele>
        <time>2024-05-26T14:03:08Z</time>
      </trkpt>
      <trkpt lat="43.73516" lon="6.66074">
        <ele>1211.5</ele>
        <time>2024-05-26T14:03:09Z</time>
      </trkpt>
      <trkpt lat="43.73516" lon="6.66074">
        <ele>1211.5</ele>
        <time>2024-05-26T14:03:10Z</time>
      </trkpt>
      <trkpt lat="43.73516" lon="6.66074">
        <ele>1211.6</ele>
        <time>2024-05-26T14:03:11Z</time>
      </trkpt>
      <trkpt lat="43.73516" lon="6.66074">
        <ele>1211.6</ele>
        <time>2024-05-26T14:03:12Z</time>
      </trkpt>
      <trkpt lat="43.73516" lon="6.66074">
        <ele>1211.6</ele>
        <time>2024-05-26T14:03:13Z</time>
      </trkpt>
      <trkpt lat="43.73515" lon="6.66074">
        <ele>1211.5</ele>
        <time>2024-05-26T14:03:14Z</time>
      </trkpt>
      <trkpt lat="43.73515" lon="6.66074">
        <ele>1211.5</ele>
        <time>2024-05-26T14:03:15Z</time>
      </trkpt>
      <trkpt lat="43.73515" lon="6.66074">
        <ele>1211.5</ele>
        <time>2024-05-26T14:03:16Z</time>
      </trkpt>
      <trkpt lat="43.73515" lon="6.66074">
        <ele>1211.4</ele>
        <time>2024-05-26T14:03:17Z</time>
      </trkpt>
      <trkpt lat="43.73515" lon="6.66074">
        <ele>1211.5</ele>
        <time>2024-05-26T14:03:18Z</time>
      </trkpt>
      <trkpt lat="43.73515" lon="6.66074">
        <ele>1211.6</ele>
        <time>2024-05-26T14:03:19Z</time>
      </trkpt>
      <trkpt lat="43.73515" lon="6.66074">
        <ele>1211.6</ele>
        <time>2024-05-26T14:03:20Z</time>
      </trkpt>
      <trkpt lat="43.73515" lon="6.66074">
        <ele>1211.6</ele>
        <time>2024-05-26T14:03:21Z</time>
      </trkpt>
      <trkpt lat="43.73515" lon="6.66074">
        <ele>1211.5</ele>
        <time>2024-05-26T14:03:22Z</time>
      </trkpt>
      <trkpt lat="43.73515" lon="6.66074">
        <ele>1211.5</ele>
        <time>2024-05-26T14:03:23Z</time>
      </trkpt>
      <trkpt lat="43.73514" lon="6.66074">
        <ele>1211.6</ele>
        <time>2024-05-26T14:03:24Z</time>
      </trkpt>
      <trkpt lat="43.73514" lon="6.66074">
        <ele>1211.6</ele>
        <time>2024-05-26T14:03:25Z</time>
      </trkpt>
      <trkpt lat="43.73514" lon="6.66074">
        <ele>1211.7</ele>
        <time>2024-05-26T14:03:26Z</time>
      </trkpt>
      <trkpt lat="43.73514" lon="6.66074">
        <ele>1211.7</ele>
        <time>2024-05-26T14:03:27Z</time>
      </trkpt>
      <trkpt lat="43.73514" lon="6.66074">
        <ele>1211.7</ele>
        <time>2024-05-26T14:03:28Z</time>
      </trkpt>
      <trkpt lat="43.73514" lon="6.66074">
        <ele>1211.7</ele>
        <time>2024-05-26T14:03:29Z</time>
      </trkpt>
      <trkpt lat="43.73514" lon="6.66075">
        <ele>1211.7</ele>
        <time>2024-05-26T14:03:30Z</time>
      </trkpt>
      <trkpt lat="43.73515" lon="6.66075">
        <ele>1211.7</ele>
        <time>2024-05-26T14:03:31Z</time>
      </trkpt>
      <trkpt lat="43.73515" lon="6.66075">
        <ele>1211.7</ele>
        <time>2024-05-26T14:03:32Z</time>
      </trkpt>
      <trkpt lat="43.73515" lon="6.66075">
        <ele>1211.7</ele>
        <time>2024-05-26T14:03:33Z</time>
      </trkpt>
      <trkpt lat="43.73515" lon="6.66075">
        <ele>1211.7</ele>
        <time>2024-05-26T14:03:34Z</time>
      </trkpt>
      <trkpt lat="43.73515" lon="6.66074">
        <ele>1211.7</ele>
        <time>2024-05-26T14:03:35Z</time>
      </trkpt>
      <trkpt lat="43.73515" lon="6.66074">
        <ele>1211.7</ele>
        <time>2024-05-26T14:03:36Z</time>
      </trkpt>
      <trkpt lat="43.73515" lon="6.66074">
        <ele>1211.7</ele>
        <time>2024-05-26T14:03:37Z</time>
      </trkpt>
      <trkpt lat="43.73515" lon="6.66074">
        <ele>1211.6</ele>
        <time>2024-05-26T14:03:38Z</time>
      </trkpt>
      <trkpt lat="43.73515" lon="6.66074">
        <ele>1211.5</ele>
        <time>2024-05-26T14:03:39Z</time>
      </trkpt>
      <trkpt lat="43.73516" lon="6.66074">
        <ele>1211.5</ele>
        <time>2024-05-26T14:03:40Z</time>
      </trkpt>
      <trkpt lat="43.73516" lon="6.66074">
        <ele>1211.5</ele>
        <time>2024-05-26T14:03:41Z</time>
      </trkpt>
      <trkpt lat="43.73517" lon="6.66075">
        <ele>1211.5</ele>
        <time>2024-05-26T14:03:42Z</time>
      </trkpt>
      <trkpt lat="43.73517" lon="6.66075">
        <ele>1211.4</ele>
        <time>2024-05-26T14:03:43Z</time>
      </trkpt>
      <trkpt lat="43.73518" lon="6.66075">
        <ele>1211.5</ele>
        <time>2024-05-26T14:03:44Z</time>
      </trkpt>
      <trkpt lat="43.73518" lon="6.66075">
        <ele>1211.7</ele>
        <time>2024-05-26T14:03:45Z</time>
      </trkpt>
      <trkpt lat="43.73518" lon="6.66075">
        <ele>1211.8</ele>
        <time>2024-05-26T14:03:46Z</time>
      </trkpt>
      <trkpt lat="43.73518" lon="6.66076">
        <ele>1211.9</ele>
        <time>2024-05-26T14:03:47Z</time>
      </trkpt>
      <trkpt lat="43.73519" lon="6.66076">
        <ele>1211.8</ele>
        <time>2024-05-26T14:03:48Z</time>
      </trkpt>
      <trkpt lat="43.73519" lon="6.66076">
        <ele>1211.7</ele>
        <time>2024-05-26T14:03:49Z</time>
      </trkpt>
      <trkpt lat="43.73519" lon="6.66076">
        <ele>1211.7</ele>
        <time>2024-05-26T14:03:50Z</time>
      </trkpt>
      <trkpt lat="43.73519" lon="6.66076">
        <ele>1211.7</ele>
        <time>2024-05-26T14:03:51Z</time>
      </trkpt>
      <trkpt lat="43.73519" lon="6.66076">
        <ele>1211.6</ele>
        <time>2024-05-26T14:03:52Z</time>
      </trkpt>
      <trkpt lat="43.7352" lon="6.66076">
        <ele>1211.5</ele>
        <time>2024-05-26T14:03:53Z</time>
      </trkpt>
      <trkpt lat="43.7352" lon="6.66077">
        <ele>1211.5</ele>
        <time>2024-05-26T14:03:54Z</time>
      </trkpt>
      <trkpt lat="43.7352" lon="6.66077">
        <ele>1211.6</ele>
        <time>2024-05-26T14:03:55Z</time>
      </trkpt>
      <trkpt lat="43.7352" lon="6.66077">
        <ele>1211.7</ele>
        <time>2024-05-26T14:03:56Z</time>
      </trkpt>
      <trkpt lat="43.7352" lon="6.66078">
        <ele>1211.6</ele>
        <time>2024-05-26T14:03:57Z</time>
      </trkpt>
      <trkpt lat="43.73521" lon="6.66078">
        <ele>1211.5</ele>
        <time>2024-05-26T14:03:58Z</time>
      </trkpt>
      <trkpt lat="43.73521" lon="6.66078">
        <ele>1211.5</ele>
        <time>2024-05-26T14:03:59Z</time>
      </trkpt>
      <trkpt lat="43.73521" lon="6.66077">
        <ele>1211.5</ele>
        <time>2024-05-26T14:04:00Z</time>
      </trkpt>
      <trkpt lat="43.7352" lon="6.66076">
        <ele>1211.6</ele>
        <time>2024-05-26T14:04:01Z</time>
      </trkpt>
      <trkpt lat="43.7352" lon="6.66076">
        <ele>1211.6</ele>
        <time>2024-05-26T14:04:02Z</time>
      </trkpt>
      <trkpt lat="43.73519" lon="6.66076">
        <ele>1211.7</ele>
        <time>2024-05-26T14:04:03Z</time>
      </trkpt>
      <trkpt lat="43.73519" lon="6.66076">
        <ele>1211.8</ele>
        <time>2024-05-26T14:04:04Z</time>
      </trkpt>
      <trkpt lat="43.73518" lon="6.66076">
        <ele>1211.9</ele>
        <time>2024-05-26T14:04:05Z</time>
      </trkpt>
      <trkpt lat="43.73518" lon="6.66075">
        <ele>1211.9</ele>
        <time>2024-05-26T14:04:06Z</time>
      </trkpt>
      <trkpt lat="43.73518" lon="6.66075">
        <ele>1212</ele>
        <time>2024-05-26T14:04:07Z</time>
      </trkpt>
      <trkpt lat="43.73518" lon="6.66074">
        <ele>1212</ele>
        <time>2024-05-26T14:04:08Z</time>
      </trkpt>
      <trkpt lat="43.73518" lon="6.66074">
        <ele>1212</ele>
        <time>2024-05-26T14:04:09Z</time>
      </trkpt>
      <trkpt lat="43.73518" lon="6.66074">
        <ele>1212.1</ele>
        <time>2024-05-26T14:04:10Z</time>
      </trkpt>
      <trkpt lat="43.73518" lon="6.66073">
        <ele>1212.1</ele>
        <time>2024-05-26T14:04:11Z</time>
      </trkpt>
      <trkpt lat="43.73518" lon="6.66073">
        <ele>1212.2</ele>
        <time>2024-05-26T14:04:12Z</time>
      </trkpt>
      <trkpt lat="43.73518" lon="6.66073">
        <ele>1212.3</ele>
        <time>2024-05-26T14:04:13Z</time>
      </trkpt>
      <trkpt lat="43.73518" lon="6.66073">
        <ele>1212.2</ele>
        <time>2024-05-26T14:04:14Z</time>
      </trkpt>
      <trkpt lat="43.73518" lon="6.66073">
        <ele>1212.2</ele>
        <time>2024-05-26T14:04:15Z</time>
      </trkpt>
      <trkpt lat="43.73517" lon="6.66072">
        <ele>1212.2</ele>
        <time>2024-05-26T14:04:16Z</time>
      </trkpt>
      <trkpt lat="43.73517" lon="6.66072">
        <ele>1212.2</ele>
        <time>2024-05-26T14:04:17Z</time>
      </trkpt>
      <trkpt lat="43.73517" lon="6.66072">
        <ele>1212.2</ele>
        <time>2024-05-26T14:04:18Z</time>
      </trkpt>
      <trkpt lat="43.73517" lon="6.66072">
        <ele>1212.2</ele>
        <time>2024-05-26T14:04:19Z</time>
      </trkpt>
      <trkpt lat="43.73516" lon="6.66072">
        <ele>1212.2</ele>
        <time>2024-05-26T14:04:20Z</time>
      </trkpt>
      <trkpt lat="43.73516" lon="6.66072">
        <ele>1212.2</ele>
        <time>2024-05-26T14:04:21Z</time>
      </trkpt>
      <trkpt lat="43.73516" lon="6.66072">
        <ele>1212.1</ele>
        <time>2024-05-26T14:04:22Z</time>
      </trkpt>
      <trkpt lat="43.73516" lon="6.66071">
        <ele>1212.1</ele>
        <time>2024-05-26T14:04:23Z</time>
      </trkpt>
      <trkpt lat="43.73516" lon="6.66071">
        <ele>1212</ele>
        <time>2024-05-26T14:04:24Z</time>
      </trkpt>
      <trkpt lat="43.73516" lon="6.66071">
        <ele>1211.9</ele>
        <time>2024-05-26T14:04:25Z</time>
      </trkpt>
      <trkpt lat="43.73516" lon="6.66071">
        <ele>1211.9</ele>
        <time>2024-05-26T14:04:26Z</time>
      </trkpt>
      <trkpt lat="43.73516" lon="6.66071">
        <ele>1211.9</ele>
        <time>2024-05-26T14:04:27Z</time>
      </trkpt>
      <trkpt lat="43.73516" lon="6.6607">
        <ele>1211.9</ele>
        <time>2024-05-26T14:04:28Z</time>
      </trkpt>
      <trkpt lat="43.73516" lon="6.6607">
        <ele>1211.8</ele>
        <time>2024-05-26T14:04:29Z</time>
      </trkpt>
      <trkpt lat="43.73516" lon="6.6607">
        <ele>1211.8</ele>
        <time>2024-05-26T14:04:30Z</time>
      </trkpt>
      <trkpt lat="43.73516" lon="6.6607">
        <ele>1211.8</ele>
        <time>2024-05-26T14:04:31Z</time>
      </trkpt>
      <trkpt lat="43.73516" lon="6.66069">
        <ele>1211.8</ele>
        <time>2024-05-26T14:04:32Z</time>
      </trkpt>
      <trkpt lat="43.73516" lon="6.66069">
        <ele>1211.7</ele>
        <time>2024-05-26T14:04:33Z</time>
      </trkpt>
      <trkpt lat="43.73516" lon="6.66068">
        <ele>1211.7</ele>
        <time>2024-05-26T14:04:34Z</time>
      </trkpt>
      <trkpt lat="43.73516" lon="6.66068">
        <ele>1211.7</ele>
        <time>2024-05-26T14:04:35Z</time>
      </trkpt>
      <trkpt lat="43.73516" lon="6.66068">
        <ele>1211.7</ele>
        <time>2024-05-26T14:04:36Z</time>
      </trkpt>
      <trkpt lat="43.73515" lon="6.66068">
        <ele>1211.8</ele>
        <time>2024-05-26T14:04:37Z</time>
      </trkpt>
      <trkpt lat="43.73515" lon="6.66069">
        <ele>1211.8</ele>
        <time>2024-05-26T14:04:38Z</time>
      </trkpt>
      <trkpt lat="43.73515" lon="6.6607">
        <ele>1211.8</ele>
        <time>2024-05-26T14:04:39Z</time>
      </trkpt>
      <trkpt lat="43.73514" lon="6.66071">
        <ele>1211.7</ele>
        <time>2024-05-26T14:04:40Z</time>
      </trkpt>
      <trkpt lat="43.73514" lon="6.66071">
        <ele>1211.7</ele>
        <time>2024-05-26T14:04:41Z</time>
      </trkpt>
      <trkpt lat="43.73514" lon="6.66071">
        <ele>1211.7</ele>
        <time>2024-05-26T14:04:42Z</time>
      </trkpt>
      <trkpt lat="43.73514" lon="6.66072">
        <ele>1211.7</ele>
        <time>2024-05-26T14:04:43Z</time>
      </trkpt>
      <trkpt lat="43.73514" lon="6.66072">
        <ele>1211.7</ele>
        <time>2024-05-26T14:04:44Z</time>
      </trkpt>
      <trkpt lat="43.73514" lon="6.66072">
        <ele>1211.7</ele>
        <time>2024-05-26T14:04:45Z</time>
      </trkpt>
      <trkpt lat="43.73514" lon="6.66072">
        <ele>1211.7</ele>
        <time>2024-05-26T14:04:46Z</time>
      </trkpt>
      <trkpt lat="43.73514" lon="6.66072">
        <ele>1211.7</ele>
        <time>2024-05-26T14:04:47Z</time>
      </trkpt>
      <trkpt lat="43.73515" lon="6.66073">
        <ele>1211.7</ele>
        <time>2024-05-26T14:04:48Z</time>
      </trkpt>
      <trkpt lat="43.73515" lon="6.66072">
        <ele>1211.7</ele>
        <time>2024-05-26T14:04:49Z</time>
      </trkpt>
      <trkpt lat="43.73515" lon="6.66073">
        <ele>1211.7</ele>
        <time>2024-05-26T14:04:50Z</time>
      </trkpt>
      <trkpt lat="43.73516" lon="6.66073">
        <ele>1211.7</ele>
        <time>2024-05-26T14:04:51Z</time>
      </trkpt>
      <trkpt lat="43.73515" lon="6.66073">
        <ele>1211.7</ele>
        <time>2024-05-26T14:04:52Z</time>
      </trkpt>
      <trkpt lat="43.73515" lon="6.66074">
        <ele>1211.8</ele>
        <time>2024-05-26T14:04:53Z</time>
      </trkpt>
      <trkpt lat="43.73515" lon="6.66075">
        <ele>1211.8</ele>
        <time>2024-05-26T14:04:54Z</time>
      </trkpt>
      <trkpt lat="43.73515" lon="6.66075">
        <ele>1211.7</ele>
        <time>2024-05-26T14:04:55Z</time>
      </trkpt>
      <trkpt lat="43.73515" lon="6.66075">
        <ele>1211.7</ele>
        <time>2024-05-26T14:04:56Z</time>
      </trkpt>
      <trkpt lat="43.73515" lon="6.66076">
        <ele>1211.6</ele>
        <time>2024-05-26T14:04:57Z</time>
      </trkpt>
      <trkpt lat="43.73515" lon="6.66076">
        <ele>1211.6</ele>
        <time>2024-05-26T14:04:58Z</time>
      </trkpt>
      <trkpt lat="43.73515" lon="6.66077">
        <ele>1211.6</ele>
        <time>2024-05-26T14:04:59Z</time>
      </trkpt>
      <trkpt lat="43.73514" lon="6.66077">
        <ele>1211.6</ele>
        <time>2024-05-26T14:05:00Z</time>
      </trkpt>
      <trkpt lat="43.73514" lon="6.66077">
        <ele>1211.6</ele>
        <time>2024-05-26T14:05:01Z</time>
      </trkpt>
      <trkpt lat="43.73514" lon="6.66077">
        <ele>1211.7</ele>
        <time>2024-05-26T14:05:02Z</time>
      </trkpt>
      <trkpt lat="43.73514" lon="6.66077">
        <ele>1211.7</ele>
        <time>2024-05-26T14:05:03Z</time>
      </trkpt>
      <trkpt lat="43.73514" lon="6.66077">
        <ele>1211.7</ele>
        <time>2024-05-26T14:05:04Z</time>
      </trkpt>
      <trkpt lat="43.73514" lon="6.66077">
        <ele>1211.7</ele>
        <time>2024-05-26T14:05:05Z</time>
      </trkpt>
      <trkpt lat="43.73514" lon="6.66077">
        <ele>1211.7</ele>
        <time>2024-05-26T14:05:06Z</time>
      </trkpt>
      <trkpt lat="43.73513" lon="6.66077">
        <ele>1211.7</ele>
        <time>2024-05-26T14:05:07Z</time>
      </trkpt>
      <trkpt lat="43.73513" lon="6.66077">
        <ele>1211.7</ele>
        <time>2024-05-26T14:05:08Z</time>
      </trkpt>
      <trkpt lat="43.73513" lon="6.66077">
        <ele>1211.7</ele>
        <time>2024-05-26T14:05:09Z</time>
      </trkpt>
      <trkpt lat="43.73513" lon="6.66077">
        <ele>1211.7</ele>
        <time>2024-05-26T14:05:10Z</time>
      </trkpt>
      <trkpt lat="43.73513" lon="6.66077">
        <ele>1211.7</ele>
        <time>2024-05-26T14:05:11Z</time>
      </trkpt>
      <trkpt lat="43.73513" lon="6.66077">
        <ele>1211.7</ele>
        <time>2024-05-26T14:05:12Z</time>
      </trkpt>
      <trkpt lat="43.73513" lon="6.66077">
        <ele>1211.7</ele>
        <time>2024-05-26T14:05:13Z</time>
      </trkpt>
      <trkpt lat="43.73514" lon="6.66077">
        <ele>1211.8</ele>
        <time>2024-05-26T14:05:14Z</time>
      </trkpt>
      <trkpt lat="43.73514" lon="6.66077">
        <ele>1211.8</ele>
        <time>2024-05-26T14:05:15Z</time>
      </trkpt>
      <trkpt lat="43.73515" lon="6.66077">
        <ele>1211.7</ele>
        <time>2024-05-26T14:05:16Z</time>
      </trkpt>
      <trkpt lat="43.73515" lon="6.66077">
        <ele>1211.7</ele>
        <time>2024-05-26T14:05:17Z</time>
      </trkpt>
      <trkpt lat="43.73515" lon="6.66076">
        <ele>1211.7</ele>
        <time>2024-05-26T14:05:18Z</time>
      </trkpt>
      <trkpt lat="43.73516" lon="6.66076">
        <ele>1211.8</ele>
        <time>2024-05-26T14:05:19Z</time>
      </trkpt>
      <trkpt lat="43.73516" lon="6.66075">
        <ele>1211.8</ele>
        <time>2024-05-26T14:05:20Z</time>
      </trkpt>
      <trkpt lat="43.73516" lon="6.66075">
        <ele>1211.8</ele>
        <time>2024-05-26T14:05:21Z</time>
      </trkpt>
      <trkpt lat="43.73516" lon="6.66075">
        <ele>1211.8</ele>
        <time>2024-05-26T14:05:22Z</time>
      </trkpt>
      <trkpt lat="43.73516" lon="6.66075">
        <ele>1211.8</ele>
        <time>2024-05-26T14:05:23Z</time>
      </trkpt>
      <trkpt lat="43.73516" lon="6.66075">
        <ele>1211.9</ele>
        <time>2024-05-26T14:05:24Z</time>
      </trkpt>
      <trkpt lat="43.73515" lon="6.66075">
        <ele>1211.8</ele>
        <time>2024-05-26T14:05:25Z</time>
      </trkpt>
      <trkpt lat="43.73515" lon="6.66076">
        <ele>1211.7</ele>
        <time>2024-05-26T14:05:26Z</time>
      </trkpt>
      <trkpt lat="43.73515" lon="6.66076">
        <ele>1211.6</ele>
        <time>2024-05-26T14:05:27Z</time>
      </trkpt>
      <trkpt lat="43.73515" lon="6.66076">
        <ele>1211.5</ele>
        <time>2024-05-26T14:05:28Z</time>
      </trkpt>
      <trkpt lat="43.73514" lon="6.66077">
        <ele>1211.5</ele>
        <time>2024-05-26T14:05:29Z</time>
      </trkpt>
      <trkpt lat="43.73514" lon="6.66077">
        <ele>1211.6</ele>
        <time>2024-05-26T14:05:30Z</time>
      </trkpt>
      <trkpt lat="43.73514" lon="6.66077">
        <ele>1211.6</ele>
        <time>2024-05-26T14:05:31Z</time>
      </trkpt>
      <trkpt lat="43.73513" lon="6.66078">
        <ele>1211.6</ele>
        <time>2024-05-26T14:05:32Z</time>
      </trkpt>
      <trkpt lat="43.73513" lon="6.66078">
        <ele>1211.6</ele>
        <time>2024-05-26T14:05:33Z</time>
      </trkpt>
      <trkpt lat="43.73512" lon="6.66078">
        <ele>1211.7</ele>
        <time>2024-05-26T14:05:34Z</time>
      </trkpt>
      <trkpt lat="43.73511" lon="6.66078">
        <ele>1211.7</ele>
        <time>2024-05-26T14:05:35Z</time>
      </trkpt>
      <trkpt lat="43.73511" lon="6.66078">
        <ele>1211.8</ele>
        <time>2024-05-26T14:05:36Z</time>
      </trkpt>
      <trkpt lat="43.73511" lon="6.66078">
        <ele>1211.8</ele>
        <time>2024-05-26T14:05:37Z</time>
      </trkpt>
      <trkpt lat="43.73511" lon="6.66077">
        <ele>1211.8</ele>
        <time>2024-05-26T14:05:38Z</time>
      </trkpt>
      <trkpt lat="43.73511" lon="6.66077">
        <ele>1211.8</ele>
        <time>2024-05-26T14:05:39Z</time>
      </trkpt>
      <trkpt lat="43.73511" lon="6.66076">
        <ele>1211.8</ele>
        <time>2024-05-26T14:05:40Z</time>
      </trkpt>
      <trkpt lat="43.73511" lon="6.66076">
        <ele>1211.8</ele>
        <time>2024-05-26T14:05:41Z</time>
      </trkpt>
      <trkpt lat="43.73511" lon="6.66077">
        <ele>1211.8</ele>
        <time>2024-05-26T14:05:42Z</time>
      </trkpt>
      <trkpt lat="43.73511" lon="6.66077">
        <ele>1211.8</ele>
        <time>2024-05-26T14:05:43Z</time>
      </trkpt>
      <trkpt lat="43.73511" lon="6.66077">
        <ele>1211.7</ele>
        <time>2024-05-26T14:05:44Z</time>
      </trkpt>
      <trkpt lat="43.73511" lon="6.66077">
        <ele>1211.7</ele>
        <time>2024-05-26T14:05:45Z</time>
      </trkpt>
      <trkpt lat="43.73511" lon="6.66077">
        <ele>1211.6</ele>
        <time>2024-05-26T14:05:46Z</time>
      </trkpt>
      <trkpt lat="43.73511" lon="6.66078">
        <ele>1211.5</ele>
        <time>2024-05-26T14:05:47Z</time>
      </trkpt>
      <trkpt lat="43.73511" lon="6.66078">
        <ele>1211.5</ele>
        <time>2024-05-26T14:05:48Z</time>
      </trkpt>
      <trkpt lat="43.7351" lon="6.66079">
        <ele>1211.5</ele>
        <time>2024-05-26T14:05:49Z</time>
      </trkpt>
      <trkpt lat="43.7351" lon="6.66079">
        <ele>1211.5</ele>
        <time>2024-05-26T14:05:50Z</time>
      </trkpt>
      <trkpt lat="43.7351" lon="6.66079">
        <ele>1211.5</ele>
        <time>2024-05-26T14:05:51Z</time>
      </trkpt>
      <trkpt lat="43.73511" lon="6.66079">
        <ele>1211.5</ele>
        <time>2024-05-26T14:05:52Z</time>
      </trkpt>
      <trkpt lat="43.73511" lon="6.66078">
        <ele>1211.5</ele>
        <time>2024-05-26T14:05:53Z</time>
      </trkpt>
      <trkpt lat="43.73511" lon="6.66078">
        <ele>1211.6</ele>
        <time>2024-05-26T14:05:54Z</time>
      </trkpt>
      <trkpt lat="43.73511" lon="6.66078">
        <ele>1211.6</ele>
        <time>2024-05-26T14:05:55Z</time>
      </trkpt>
      <trkpt lat="43.73511" lon="6.66078">
        <ele>1211.6</ele>
        <time>2024-05-26T14:05:56Z</time>
      </trkpt>
      <trkpt lat="43.73511" lon="6.66078">
        <ele>1211.6</ele>
        <time>2024-05-26T14:05:57Z</time>
      </trkpt>
      <trkpt lat="43.73511" lon="6.66078">
        <ele>1211.6</ele>
        <time>2024-05-26T14:05:58Z</time>
      </trkpt>
      <trkpt lat="43.73511" lon="6.66077">
        <ele>1211.6</ele>
        <time>2024-05-26T14:05:59Z</time>
      </trkpt>
      <trkpt lat="43.73511" lon="6.66077">
        <ele>1211.7</ele>
        <time>2024-05-26T14:06:00Z</time>
      </trkpt>
      <trkpt lat="43.73511" lon="6.66077">
        <ele>1211.8</ele>
        <time>2024-05-26T14:06:01Z</time>
      </trkpt>
      <trkpt lat="43.73511" lon="6.66076">
        <ele>1211.8</ele>
        <time>2024-05-26T14:06:02Z</time>
      </trkpt>
      <trkpt lat="43.73511" lon="6.66076">
        <ele>1211.9</ele>
        <time>2024-05-26T14:06:03Z</time>
      </trkpt>
      <trkpt lat="43.73511" lon="6.66076">
        <ele>1211.9</ele>
        <time>2024-05-26T14:06:04Z</time>
      </trkpt>
      <trkpt lat="43.73511" lon="6.66075">
        <ele>1211.9</ele>
        <time>2024-05-26T14:06:05Z</time>
      </trkpt>
      <trkpt lat="43.73511" lon="6.66075">
        <ele>1212</ele>
        <time>2024-05-26T14:06:06Z</time>
      </trkpt>
      <trkpt lat="43.73511" lon="6.66075">
        <ele>1212.1</ele>
        <time>2024-05-26T14:06:07Z</time>
      </trkpt>
      <trkpt lat="43.73511" lon="6.66075">
        <ele>1211.9</ele>
        <time>2024-05-26T14:06:08Z</time>
      </trkpt>
      <trkpt lat="43.73511" lon="6.66075">
        <ele>1211.9</ele>
        <time>2024-05-26T14:06:09Z</time>
      </trkpt>
      <trkpt lat="43.73512" lon="6.66075">
        <ele>1211.8</ele>
        <time>2024-05-26T14:06:10Z</time>
      </trkpt>
      <trkpt lat="43.73512" lon="6.66075">
        <ele>1211.8</ele>
        <time>2024-05-26T14:06:11Z</time>
      </trkpt>
      <trkpt lat="43.73512" lon="6.66075">
        <ele>1211.8</ele>
        <time>2024-05-26T14:06:12Z</time>
      </trkpt>
      <trkpt lat="43.73512" lon="6.66075">
        <ele>1211.9</ele>
        <time>2024-05-26T14:06:13Z</time>
      </trkpt>
      <trkpt lat="43.73512" lon="6.66075">
        <ele>1211.9</ele>
        <time>2024-05-26T14:06:14Z</time>
      </trkpt>
      <trkpt lat="43.73512" lon="6.66075">
        <ele>1211.9</ele>
        <time>2024-05-26T14:06:15Z</time>
      </trkpt>
      <trkpt lat="43.73512" lon="6.66075">
        <ele>1212</ele>
        <time>2024-05-26T14:06:16Z</time>
      </trkpt>
      <trkpt lat="43.73512" lon="6.66075">
        <ele>1212</ele>
        <time>2024-05-26T14:06:17Z</time>
      </trkpt>
      <trkpt lat="43.73512" lon="6.66075">
        <ele>1212</ele>
        <time>2024-05-26T14:06:18Z</time>
      </trkpt>
      <trkpt lat="43.73511" lon="6.66075">
        <ele>1212</ele>
        <time>2024-05-26T14:06:19Z</time>
      </trkpt>
      <trkpt lat="43.73511" lon="6.66075">
        <ele>1212</ele>
        <time>2024-05-26T14:06:20Z</time>
      </trkpt>
      <trkpt lat="43.73511" lon="6.66075">
        <ele>1212</ele>
        <time>2024-05-26T14:06:21Z</time>
      </trkpt>
      <trkpt lat="43.73511" lon="6.66075">
        <ele>1212.1</ele>
        <time>2024-05-26T14:06:22Z</time>
      </trkpt>
      <trkpt lat="43.73511" lon="6.66075">
        <ele>1212.1</ele>
        <time>2024-05-26T14:06:23Z</time>
      </trkpt>
      <trkpt lat="43.73511" lon="6.66075">
        <ele>1212.1</ele>
        <time>2024-05-26T14:06:24Z</time>
      </trkpt>
      <trkpt lat="43.7351" lon="6.66075">
        <ele>1212.1</ele>
        <time>2024-05-26T14:06:25Z</time>
      </trkpt>
      <trkpt lat="43.7351" lon="6.66075">
        <ele>1212</ele>
        <time>2024-05-26T14:06:26Z</time>
      </trkpt>
      <trkpt lat="43.7351" lon="6.66075">
        <ele>1212</ele>
        <time>2024-05-26T14:06:27Z</time>
      </trkpt>
      <trkpt lat="43.7351" lon="6.66075">
        <ele>1212</ele>
        <time>2024-05-26T14:06:28Z</time>
      </trkpt>
      <trkpt lat="43.7351" lon="6.66075">
        <ele>1211.9</ele>
        <time>2024-05-26T14:06:29Z</time>
      </trkpt>
      <trkpt lat="43.7351" lon="6.66075">
        <ele>1211.9</ele>
        <time>2024-05-26T14:06:30Z</time>
      </trkpt>
      <trkpt lat="43.7351" lon="6.66075">
        <ele>1211.8</ele>
        <time>2024-05-26T14:06:31Z</time>
      </trkpt>
      <trkpt lat="43.7351" lon="6.66075">
        <ele>1211.7</ele>
        <time>2024-05-26T14:06:32Z</time>
      </trkpt>
      <trkpt lat="43.7351" lon="6.66076">
        <ele>1211.6</ele>
        <time>2024-05-26T14:06:33Z</time>
      </trkpt>
      <trkpt lat="43.7351" lon="6.66076">
        <ele>1211.5</ele>
        <time>2024-05-26T14:06:34Z</time>
      </trkpt>
      <trkpt lat="43.7351" lon="6.66076">
        <ele>1211.6</ele>
        <time>2024-05-26T14:06:35Z</time>
      </trkpt>
      <trkpt lat="43.7351" lon="6.66076">
        <ele>1211.6</ele>
        <time>2024-05-26T14:06:36Z</time>
      </trkpt>
      <trkpt lat="43.7351" lon="6.66076">
        <ele>1211.6</ele>
        <time>2024-05-26T14:06:37Z</time>
      </trkpt>
      <trkpt lat="43.7351" lon="6.66076">
        <ele>1211.6</ele>
        <time>2024-05-26T14:06:38Z</time>
      </trkpt>
      <trkpt lat="43.7351" lon="6.66076">
        <ele>1211.7</ele>
        <time>2024-05-26T14:06:39Z</time>
      </trkpt>
      <trkpt lat="43.7351" lon="6.66076">
        <ele>1211.7</ele>
        <time>2024-05-26T14:06:40Z</time>
      </trkpt>
      <trkpt lat="43.7351" lon="6.66076">
        <ele>1211.7</ele>
        <time>2024-05-26T14:06:41Z</time>
      </trkpt>
      <trkpt lat="43.73509" lon="6.66076">
        <ele>1211.6</ele>
        <time>2024-05-26T14:06:42Z</time>
      </trkpt>
      <trkpt lat="43.73509" lon="6.66076">
        <ele>1211.6</ele>
        <time>2024-05-26T14:06:43Z</time>
      </trkpt>
      <trkpt lat="43.73509" lon="6.66075">
        <ele>1211.6</ele>
        <time>2024-05-26T14:06:44Z</time>
      </trkpt>
      <trkpt lat="43.73509" lon="6.66075">
        <ele>1211.7</ele>
        <time>2024-05-26T14:06:45Z</time>
      </trkpt>
      <trkpt lat="43.73509" lon="6.66075">
        <ele>1211.8</ele>
        <time>2024-05-26T14:06:46Z</time>
      </trkpt>
      <trkpt lat="43.73509" lon="6.66075">
        <ele>1211.8</ele>
        <time>2024-05-26T14:06:47Z</time>
      </trkpt>
      <trkpt lat="43.73509" lon="6.66075">
        <ele>1211.8</ele>
        <time>2024-05-26T14:06:48Z</time>
      </trkpt>
      <trkpt lat="43.73509" lon="6.66075">
        <ele>1211.8</ele>
        <time>2024-05-26T14:06:49Z</time>
      </trkpt>
      <trkpt lat="43.73509" lon="6.66075">
        <ele>1211.8</ele>
        <time>2024-05-26T14:06:50Z</time>
      </trkpt>
      <trkpt lat="43.73509" lon="6.66075">
        <ele>1211.7</ele>
        <time>2024-05-26T14:06:51Z</time>
      </trkpt>
      <trkpt lat="43.73509" lon="6.66075">
        <ele>1211.8</ele>
        <time>2024-05-26T14:06:52Z</time>
      </trkpt>
      <trkpt lat="43.73509" lon="6.66075">
        <ele>1211.8</ele>
        <time>2024-05-26T14:06:53Z</time>
      </trkpt>
      <trkpt lat="43.73509" lon="6.66076">
        <ele>1211.8</ele>
        <time>2024-05-26T14:06:54Z</time>
      </trkpt>
      <trkpt lat="43.7351" lon="6.66076">
        <ele>1211.8</ele>
        <time>2024-05-26T14:06:55Z</time>
      </trkpt>
      <trkpt lat="43.7351" lon="6.66076">
        <ele>1211.8</ele>
        <time>2024-05-26T14:06:56Z</time>
      </trkpt>
      <trkpt lat="43.7351" lon="6.66076">
        <ele>1211.9</ele>
        <time>2024-05-26T14:06:57Z</time>
      </trkpt>
      <trkpt lat="43.7351" lon="6.66076">
        <ele>1211.9</ele>
        <time>2024-05-26T14:06:58Z</time>
      </trkpt>
      <trkpt lat="43.7351" lon="6.66076">
        <ele>1211.9</ele>
        <time>2024-05-26T14:06:59Z</time>
      </trkpt>
      <trkpt lat="43.7351" lon="6.66075">
        <ele>1211.8</ele>
        <time>2024-05-26T14:07:00Z</time>
      </trkpt>
      <trkpt lat="43.7351" lon="6.66075">
        <ele>1211.7</ele>
        <time>2024-05-26T14:07:01Z</time>
      </trkpt>
      <trkpt lat="43.7351" lon="6.66075">
        <ele>1211.7</ele>
        <time>2024-05-26T14:07:02Z</time>
      </trkpt>
      <trkpt lat="43.7351" lon="6.66075">
        <ele>1211.7</ele>
        <time>2024-05-26T14:07:03Z</time>
      </trkpt>
      <trkpt lat="43.7351" lon="6.66075">
        <ele>1211.7</ele>
        <time>2024-05-26T14:07:04Z</time>
      </trkpt>
      <trkpt lat="43.7351" lon="6.66075">
        <ele>1211.7</ele>
        <time>2024-05-26T14:07:05Z</time>
      </trkpt>
      <trkpt lat="43.7351" lon="6.66075">
        <ele>1211.6</ele>
        <time>2024-05-26T14:07:06Z</time>
      </trkpt>
      <trkpt lat="43.73511" lon="6.66075">
        <ele>1211.6</ele>
        <time>2024-05-26T14:07:07Z</time>
      </trkpt>
      <trkpt lat="43.73511" lon="6.66075">
        <ele>1211.6</ele>
        <time>2024-05-26T14:07:08Z</time>
      </trkpt>
      <trkpt lat="43.7351" lon="6.66075">
        <ele>1211.7</ele>
        <time>2024-05-26T14:07:09Z</time>
      </trkpt>
      <trkpt lat="43.7351" lon="6.66075">
        <ele>1211.7</ele>
        <time>2024-05-26T14:07:10Z</time>
      </trkpt>
      <trkpt lat="43.73511" lon="6.66075">
        <ele>1211.7</ele>
        <time>2024-05-26T14:07:11Z</time>
      </trkpt>
      <trkpt lat="43.73511" lon="6.66075">
        <ele>1211.7</ele>
        <time>2024-05-26T14:07:12Z</time>
      </trkpt>
      <trkpt lat="43.73511" lon="6.66076">
        <ele>1211.7</ele>
        <time>2024-05-26T14:07:13Z</time>
      </trkpt>
      <trkpt lat="43.73511" lon="6.66076">
        <ele>1211.9</ele>
        <time>2024-05-26T14:07:14Z</time>
      </trkpt>
      <trkpt lat="43.73511" lon="6.66076">
        <ele>1212</ele>
        <time>2024-05-26T14:07:15Z</time>
      </trkpt>
      <trkpt lat="43.73511" lon="6.66076">
        <ele>1212.1</ele>
        <time>2024-05-26T14:07:16Z</time>
      </trkpt>
      <trkpt lat="43.73511" lon="6.66076">
        <ele>1212</ele>
        <time>2024-05-26T14:07:17Z</time>
      </trkpt>
      <trkpt lat="43.7351" lon="6.66076">
        <ele>1211.9</ele>
        <time>2024-05-26T14:07:18Z</time>
      </trkpt>
      <trkpt lat="43.7351" lon="6.66076">
        <ele>1211.9</ele>
        <time>2024-05-26T14:07:19Z</time>
      </trkpt>
      <trkpt lat="43.73511" lon="6.66076">
        <ele>1211.9</ele>
        <time>2024-05-26T14:07:20Z</time>
      </trkpt>
      <trkpt lat="43.73511" lon="6.66076">
        <ele>1211.9</ele>
        <time>2024-05-26T14:07:21Z</time>
      </trkpt>
      <trkpt lat="43.73511" lon="6.66076">
        <ele>1211.9</ele>
        <time>2024-05-26T14:07:22Z</time>
      </trkpt>
      <trkpt lat="43.73512" lon="6.66075">
        <ele>1212</ele>
        <time>2024-05-26T14:07:23Z</time>
      </trkpt>
      <trkpt lat="43.73513" lon="6.66073">
        <ele>1212.2</ele>
        <time>2024-05-26T14:07:24Z</time>
      </trkpt>
      <trkpt lat="43.73513" lon="6.66072">
        <ele>1212.1</ele>
        <time>2024-05-26T14:07:25Z</time>
      </trkpt>
      <trkpt lat="43.73513" lon="6.6607">
        <ele>1212.1</ele>
        <time>2024-05-26T14:07:26Z</time>
      </trkpt>
      <trkpt lat="43.73512" lon="6.6607">
        <ele>1212.1</ele>
        <time>2024-05-26T14:07:27Z</time>
      </trkpt>
      <trkpt lat="43.73511" lon="6.66069">
        <ele>1212</ele>
        <time>2024-05-26T14:07:28Z</time>
      </trkpt>
      <trkpt lat="43.73511" lon="6.66069">
        <ele>1212.1</ele>
        <time>2024-05-26T14:07:29Z</time>
      </trkpt>
      <trkpt lat="43.73511" lon="6.66069">
        <ele>1212.1</ele>
        <time>2024-05-26T14:07:30Z</time>
      </trkpt>
      <trkpt lat="43.73511" lon="6.66069">
        <ele>1212.1</ele>
        <time>2024-05-26T14:07:31Z</time>
      </trkpt>
      <trkpt lat="43.7351" lon="6.66069">
        <ele>1212</ele>
        <time>2024-05-26T14:07:32Z</time>
      </trkpt>
      <trkpt lat="43.7351" lon="6.66068">
        <ele>1212</ele>
        <time>2024-05-26T14:07:33Z</time>
      </trkpt>
      <trkpt lat="43.73509" lon="6.66066">
        <ele>1212.2</ele>
        <time>2024-05-26T14:07:34Z</time>
      </trkpt>
      <trkpt lat="43.73508" lon="6.66066">
        <ele>1212.2</ele>
        <time>2024-05-26T14:07:35Z</time>
      </trkpt>
      <trkpt lat="43.73506" lon="6.66065">
        <ele>1212.2</ele>
        <time>2024-05-26T14:07:36Z</time>
      </trkpt>
      <trkpt lat="43.73505" lon="6.66065">
        <ele>1212.2</ele>
        <time>2024-05-26T14:07:37Z</time>
      </trkpt>
      <trkpt lat="43.73504" lon="6.66064">
        <ele>1212.2</ele>
        <time>2024-05-26T14:07:38Z</time>
      </trkpt>
      <trkpt lat="43.73502" lon="6.66064">
        <ele>1212.1</ele>
        <time>2024-05-26T14:07:39Z</time>
      </trkpt>
      <trkpt lat="43.73501" lon="6.66064">
        <ele>1212</ele>
        <time>2024-05-26T14:07:40Z</time>
      </trkpt>
      <trkpt lat="43.735" lon="6.66063">
        <ele>1211.9</ele>
        <time>2024-05-26T14:07:41Z</time>
      </trkpt>
      <trkpt lat="43.73499" lon="6.66062">
        <ele>1211.8</ele>
        <time>2024-05-26T14:07:42Z</time>
      </trkpt>
      <trkpt lat="43.73498" lon="6.66062">
        <ele>1211.8</ele>
        <time>2024-05-26T14:07:43Z</time>
      </trkpt>
      <trkpt lat="43.73497" lon="6.66061">
        <ele>1211.7</ele>
        <time>2024-05-26T14:07:44Z</time>
      </trkpt>
      <trkpt lat="43.73496" lon="6.6606">
        <ele>1211.6</ele>
        <time>2024-05-26T14:07:45Z</time>
      </trkpt>
      <trkpt lat="43.73495" lon="6.66059">
        <ele>1211.4</ele>
        <time>2024-05-26T14:07:46Z</time>
      </trkpt>
      <trkpt lat="43.73493" lon="6.66057">
        <ele>1211.5</ele>
        <time>2024-05-26T14:07:47Z</time>
      </trkpt>
      <trkpt lat="43.73492" lon="6.66057">
        <ele>1211.5</ele>
        <time>2024-05-26T14:07:48Z</time>
      </trkpt>
      <trkpt lat="43.73491" lon="6.66056">
        <ele>1211.4</ele>
        <time>2024-05-26T14:07:49Z</time>
      </trkpt>
      <trkpt lat="43.7349" lon="6.66055">
        <ele>1211.4</ele>
        <time>2024-05-26T14:07:50Z</time>
      </trkpt>
      <trkpt lat="43.73488" lon="6.66054">
        <ele>1211.1</ele>
        <time>2024-05-26T14:07:51Z</time>
      </trkpt>
      <trkpt lat="43.73487" lon="6.66053">
        <ele>1211</ele>
        <time>2024-05-26T14:07:52Z</time>
      </trkpt>
      <trkpt lat="43.73486" lon="6.66052">
        <ele>1210.9</ele>
        <time>2024-05-26T14:07:53Z</time>
      </trkpt>
      <trkpt lat="43.73485" lon="6.66051">
        <ele>1210.8</ele>
        <time>2024-05-26T14:07:54Z</time>
      </trkpt>
      <trkpt lat="43.73484" lon="6.6605">
        <ele>1210.7</ele>
        <time>2024-05-26T14:07:55Z</time>
      </trkpt>
      <trkpt lat="43.73483" lon="6.66049">
        <ele>1210.7</ele>
        <time>2024-05-26T14:07:56Z</time>
      </trkpt>
      <trkpt lat="43.73483" lon="6.66048">
        <ele>1210.6</ele>
        <time>2024-05-26T14:07:57Z</time>
      </trkpt>
      <trkpt lat="43.73482" lon="6.66046">
        <ele>1210.5</ele>
        <time>2024-05-26T14:07:58Z</time>
      </trkpt>
      <trkpt lat="43.73482" lon="6.66045">
        <ele>1210.3</ele>
        <time>2024-05-26T14:07:59Z</time>
      </trkpt>
      <trkpt lat="43.73481" lon="6.66043">
        <ele>1210.1</ele>
        <time>2024-05-26T14:08:00Z</time>
      </trkpt>
      <trkpt lat="43.7348" lon="6.66043">
        <ele>1209.9</ele>
        <time>2024-05-26T14:08:01Z</time>
      </trkpt>
      <trkpt lat="43.73479" lon="6.66041">
        <ele>1209.8</ele>
        <time>2024-05-26T14:08:02Z</time>
      </trkpt>
      <trkpt lat="43.73479" lon="6.6604">
        <ele>1209.6</ele>
        <time>2024-05-26T14:08:03Z</time>
      </trkpt>
      <trkpt lat="43.73478" lon="6.66039">
        <ele>1209.4</ele>
        <time>2024-05-26T14:08:04Z</time>
      </trkpt>
      <trkpt lat="43.73477" lon="6.66038">
        <ele>1209.2</ele>
        <time>2024-05-26T14:08:05Z</time>
      </trkpt>
      <trkpt lat="43.73476" lon="6.66037">
        <ele>1209.1</ele>
        <time>2024-05-26T14:08:06Z</time>
      </trkpt>
      <trkpt lat="43.73475" lon="6.66035">
        <ele>1209</ele>
        <time>2024-05-26T14:08:07Z</time>
      </trkpt>
      <trkpt lat="43.73474" lon="6.66033">
        <ele>1208.8</ele>
        <time>2024-05-26T14:08:08Z</time>
      </trkpt>
      <trkpt lat="43.73473" lon="6.66031">
        <ele>1208.5</ele>
        <time>2024-05-26T14:08:09Z</time>
      </trkpt>
      <trkpt lat="43.73472" lon="6.66029">
        <ele>1208.4</ele>
        <time>2024-05-26T14:08:10Z</time>
      </trkpt>
      <trkpt lat="43.73471" lon="6.66028">
        <ele>1208.3</ele>
        <time>2024-05-26T14:08:11Z</time>
      </trkpt>
      <trkpt lat="43.7347" lon="6.66026">
        <ele>1208.2</ele>
        <time>2024-05-26T14:08:12Z</time>
      </trkpt>
      <trkpt lat="43.7347" lon="6.66025">
        <ele>1208.1</ele>
        <time>2024-05-26T14:08:13Z</time>
      </trkpt>
      <trkpt lat="43.73469" lon="6.66023">
        <ele>1207.9</ele>
        <time>2024-05-26T14:08:14Z</time>
      </trkpt>
      <trkpt lat="43.73468" lon="6.66022">
        <ele>1207.8</ele>
        <time>2024-05-26T14:08:15Z</time>
      </trkpt>
      <trkpt lat="43.73467" lon="6.66022">
        <ele>1207.8</ele>
        <time>2024-05-26T14:08:16Z</time>
      </trkpt>
      <trkpt lat="43.73466" lon="6.66021">
        <ele>1207.6</ele>
        <time>2024-05-26T14:08:17Z</time>
      </trkpt>
      <trkpt lat="43.73465" lon="6.6602">
        <ele>1207.4</ele>
        <time>2024-05-26T14:08:18Z</time>
      </trkpt>
      <trkpt lat="43.73464" lon="6.66019">
        <ele>1207.3</ele>
        <time>2024-05-26T14:08:19Z</time>
      </trkpt>
      <trkpt lat="43.73463" lon="6.66019">
        <ele>1207.1</ele>
        <time>2024-05-26T14:08:20Z</time>
      </trkpt>
      <trkpt lat="43.73462" lon="6.66018">
        <ele>1207.1</ele>
        <time>2024-05-26T14:08:21Z</time>
      </trkpt>
      <trkpt lat="43.73461" lon="6.66017">
        <ele>1206.9</ele>
        <time>2024-05-26T14:08:22Z</time>
      </trkpt>
      <trkpt lat="43.7346" lon="6.66016">
        <ele>1206.7</ele>
        <time>2024-05-26T14:08:23Z</time>
      </trkpt>
      <trkpt lat="43.73459" lon="6.66015">
        <ele>1206.5</ele>
        <time>2024-05-26T14:08:24Z</time>
      </trkpt>
      <trkpt lat="43.73459" lon="6.66014">
        <ele>1206.3</ele>
        <time>2024-05-26T14:08:25Z</time>
      </trkpt>
      <trkpt lat="43.73458" lon="6.66013">
        <ele>1206.1</ele>
        <time>2024-05-26T14:08:26Z</time>
      </trkpt>
      <trkpt lat="43.73457" lon="6.66011">
        <ele>1205.9</ele>
        <time>2024-05-26T14:08:27Z</time>
      </trkpt>
      <trkpt lat="43.73457" lon="6.6601">
        <ele>1205.6</ele>
        <time>2024-05-26T14:08:28Z</time>
      </trkpt>
      <trkpt lat="43.73455" lon="6.66009">
        <ele>1205.4</ele>
        <time>2024-05-26T14:08:29Z</time>
      </trkpt>
      <trkpt lat="43.73454" lon="6.66008">
        <ele>1205.3</ele>
        <time>2024-05-26T14:08:30Z</time>
      </trkpt>
      <trkpt lat="43.73453" lon="6.66007">
        <ele>1205.1</ele>
        <time>2024-05-26T14:08:31Z</time>
      </trkpt>
      <trkpt lat="43.73452" lon="6.66006">
        <ele>1205</ele>
        <time>2024-05-26T14:08:32Z</time>
      </trkpt>
      <trkpt lat="43.7345" lon="6.66006">
        <ele>1204.9</ele>
        <time>2024-05-26T14:08:33Z</time>
      </trkpt>
      <trkpt lat="43.73449" lon="6.66005">
        <ele>1204.8</ele>
        <time>2024-05-26T14:08:34Z</time>
      </trkpt>
      <trkpt lat="43.73448" lon="6.66005">
        <ele>1204.7</ele>
        <time>2024-05-26T14:08:35Z</time>
      </trkpt>
      <trkpt lat="43.73447" lon="6.66004">
        <ele>1204.6</ele>
        <time>2024-05-26T14:08:36Z</time>
      </trkpt>
      <trkpt lat="43.73446" lon="6.66004">
        <ele>1204.4</ele>
        <time>2024-05-26T14:08:37Z</time>
      </trkpt>
      <trkpt lat="43.73445" lon="6.66004">
        <ele>1204.2</ele>
        <time>2024-05-26T14:08:38Z</time>
      </trkpt>
      <trkpt lat="43.73443" lon="6.66004">
        <ele>1204</ele>
        <time>2024-05-26T14:08:39Z</time>
      </trkpt>
      <trkpt lat="43.73442" lon="6.66004">
        <ele>1203.7</ele>
        <time>2024-05-26T14:08:40Z</time>
      </trkpt>
      <trkpt lat="43.73441" lon="6.66004">
        <ele>1203.5</ele>
        <time>2024-05-26T14:08:41Z</time>
      </trkpt>
      <trkpt lat="43.7344" lon="6.66004">
        <ele>1203.3</ele>
        <time>2024-05-26T14:08:42Z</time>
      </trkpt>
      <trkpt lat="43.73439" lon="6.66004">
        <ele>1203.1</ele>
        <time>2024-05-26T14:08:43Z</time>
      </trkpt>
      <trkpt lat="43.73438" lon="6.66004">
        <ele>1202.8</ele>
        <time>2024-05-26T14:08:44Z</time>
      </trkpt>
      <trkpt lat="43.73437" lon="6.66004">
        <ele>1202.5</ele>
        <time>2024-05-26T14:08:45Z</time>
      </trkpt>
      <trkpt lat="43.73436" lon="6.66004">
        <ele>1202.2</ele>
        <time>2024-05-26T14:08:46Z</time>
      </trkpt>
      <trkpt lat="43.73435" lon="6.66004">
        <ele>1201.9</ele>
        <time>2024-05-26T14:08:47Z</time>
      </trkpt>
      <trkpt lat="43.73434" lon="6.66004">
        <ele>1201.7</ele>
        <time>2024-05-26T14:08:48Z</time>
      </trkpt>
      <trkpt lat="43.73434" lon="6.66003">
        <ele>1201.4</ele>
        <time>2024-05-26T14:08:49Z</time>
      </trkpt>
      <trkpt lat="43.73433" lon="6.66003">
        <ele>1201.3</ele>
        <time>2024-05-26T14:08:50Z</time>
      </trkpt>
      <trkpt lat="43.73432" lon="6.66003">
        <ele>1201</ele>
        <time>2024-05-26T14:08:51Z</time>
      </trkpt>
      <trkpt lat="43.73431" lon="6.66003">
        <ele>1200.8</ele>
        <time>2024-05-26T14:08:52Z</time>
      </trkpt>
      <trkpt lat="43.73431" lon="6.66003">
        <ele>1200.6</ele>
        <time>2024-05-26T14:08:53Z</time>
      </trkpt>
      <trkpt lat="43.7343" lon="6.66002">
        <ele>1200.4</ele>
        <time>2024-05-26T14:08:54Z</time>
      </trkpt>
      <trkpt lat="43.73429" lon="6.66002">
        <ele>1200.1</ele>
        <time>2024-05-26T14:08:55Z</time>
      </trkpt>
      <trkpt lat="43.73427" lon="6.66001">
        <ele>1199.9</ele>
        <time>2024-05-26T14:08:56Z</time>
      </trkpt>
      <trkpt lat="43.73426" lon="6.66">
        <ele>1199.7</ele>
        <time>2024-05-26T14:08:57Z</time>
      </trkpt>
      <trkpt lat="43.73426" lon="6.66">
        <ele>1199.6</ele>
        <time>2024-05-26T14:08:58Z</time>
      </trkpt>
      <trkpt lat="43.73425" lon="6.65999">
        <ele>1199.4</ele>
        <time>2024-05-26T14:08:59Z</time>
      </trkpt>
      <trkpt lat="43.73424" lon="6.65999">
        <ele>1199.2</ele>
        <time>2024-05-26T14:09:00Z</time>
      </trkpt>
      <trkpt lat="43.73424" lon="6.65998">
        <ele>1199</ele>
        <time>2024-05-26T14:09:01Z</time>
      </trkpt>
      <trkpt lat="43.73423" lon="6.65997">
        <ele>1198.9</ele>
        <time>2024-05-26T14:09:02Z</time>
      </trkpt>
      <trkpt lat="43.73423" lon="6.65996">
        <ele>1198.7</ele>
        <time>2024-05-26T14:09:03Z</time>
      </trkpt>
      <trkpt lat="43.73422" lon="6.65995">
        <ele>1198.6</ele>
        <time>2024-05-26T14:09:04Z</time>
      </trkpt>
      <trkpt lat="43.73421" lon="6.65994">
        <ele>1198.5</ele>
        <time>2024-05-26T14:09:05Z</time>
      </trkpt>
      <trkpt lat="43.73421" lon="6.65992">
        <ele>1198.4</ele>
        <time>2024-05-26T14:09:06Z</time>
      </trkpt>
      <trkpt lat="43.73421" lon="6.65991">
        <ele>1198.3</ele>
        <time>2024-05-26T14:09:07Z</time>
      </trkpt>
      <trkpt lat="43.7342" lon="6.6599">
        <ele>1198.2</ele>
        <time>2024-05-26T14:09:08Z</time>
      </trkpt>
      <trkpt lat="43.7342" lon="6.65988">
        <ele>1198</ele>
        <time>2024-05-26T14:09:09Z</time>
      </trkpt>
      <trkpt lat="43.7342" lon="6.65987">
        <ele>1197.9</ele>
        <time>2024-05-26T14:09:10Z</time>
      </trkpt>
      <trkpt lat="43.7342" lon="6.65986">
        <ele>1197.8</ele>
        <time>2024-05-26T14:09:11Z</time>
      </trkpt>
      <trkpt lat="43.7342" lon="6.65985">
        <ele>1197.7</ele>
        <time>2024-05-26T14:09:12Z</time>
      </trkpt>
      <trkpt lat="43.73421" lon="6.65984">
        <ele>1197.6</ele>
        <time>2024-05-26T14:09:13Z</time>
      </trkpt>
      <trkpt lat="43.73421" lon="6.65982">
        <ele>1197.6</ele>
        <time>2024-05-26T14:09:14Z</time>
      </trkpt>
      <trkpt lat="43.73421" lon="6.65981">
        <ele>1197.5</ele>
        <time>2024-05-26T14:09:15Z</time>
      </trkpt>
      <trkpt lat="43.73421" lon="6.6598">
        <ele>1197.3</ele>
        <time>2024-05-26T14:09:16Z</time>
      </trkpt>
      <trkpt lat="43.73421" lon="6.65978">
        <ele>1197.1</ele>
        <time>2024-05-26T14:09:17Z</time>
      </trkpt>
      <trkpt lat="43.73422" lon="6.65977">
        <ele>1197</ele>
        <time>2024-05-26T14:09:18Z</time>
      </trkpt>
      <trkpt lat="43.73422" lon="6.65975">
        <ele>1196.7</ele>
        <time>2024-05-26T14:09:19Z</time>
      </trkpt>
      <trkpt lat="43.73422" lon="6.65974">
        <ele>1196.6</ele>
        <time>2024-05-26T14:09:20Z</time>
      </trkpt>
      <trkpt lat="43.73422" lon="6.65973">
        <ele>1196.4</ele>
        <time>2024-05-26T14:09:21Z</time>
      </trkpt>
      <trkpt lat="43.73422" lon="6.65972">
        <ele>1196.3</ele>
        <time>2024-05-26T14:09:22Z</time>
      </trkpt>
      <trkpt lat="43.73423" lon="6.65971">
        <ele>1196</ele>
        <time>2024-05-26T14:09:23Z</time>
      </trkpt>
      <trkpt lat="43.73423" lon="6.6597">
        <ele>1195.9</ele>
        <time>2024-05-26T14:09:24Z</time>
      </trkpt>
      <trkpt lat="43.73423" lon="6.65968">
        <ele>1195.9</ele>
        <time>2024-05-26T14:09:25Z</time>
      </trkpt>
      <trkpt lat="43.73424" lon="6.65967">
        <ele>1195.7</ele>
        <time>2024-05-26T14:09:26Z</time>
      </trkpt>
      <trkpt lat="43.73424" lon="6.65966">
        <ele>1195.6</ele>
        <time>2024-05-26T14:09:27Z</time>
      </trkpt>
      <trkpt lat="43.73424" lon="6.65964">
        <ele>1195.5</ele>
        <time>2024-05-26T14:09:28Z</time>
      </trkpt>
      <trkpt lat="43.73424" lon="6.65963">
        <ele>1195.4</ele>
        <time>2024-05-26T14:09:29Z</time>
      </trkpt>
      <trkpt lat="43.73424" lon="6.65961">
        <ele>1195.4</ele>
        <time>2024-05-26T14:09:30Z</time>
      </trkpt>
      <trkpt lat="43.73425" lon="6.6596">
        <ele>1195.3</ele>
        <time>2024-05-26T14:09:31Z</time>
      </trkpt>
      <trkpt lat="43.73425" lon="6.65958">
        <ele>1195</ele>
        <time>2024-05-26T14:09:32Z</time>
      </trkpt>
      <trkpt lat="43.73425" lon="6.65956">
        <ele>1194.9</ele>
        <time>2024-05-26T14:09:33Z</time>
      </trkpt>
      <trkpt lat="43.73425" lon="6.65954">
        <ele>1194.8</ele>
        <time>2024-05-26T14:09:34Z</time>
      </trkpt>
      <trkpt lat="43.73425" lon="6.65953">
        <ele>1194.6</ele>
        <time>2024-05-26T14:09:35Z</time>
      </trkpt>
      <trkpt lat="43.73425" lon="6.65951">
        <ele>1194.6</ele>
        <time>2024-05-26T14:09:36Z</time>
      </trkpt>
      <trkpt lat="43.73425" lon="6.65949">
        <ele>1194.5</ele>
        <time>2024-05-26T14:09:37Z</time>
      </trkpt>
      <trkpt lat="43.73425" lon="6.65948">
        <ele>1194.5</ele>
        <time>2024-05-26T14:09:38Z</time>
      </trkpt>
      <trkpt lat="43.73425" lon="6.65947">
        <ele>1194.5</ele>
        <time>2024-05-26T14:09:39Z</time>
      </trkpt>
      <trkpt lat="43.73425" lon="6.65945">
        <ele>1194.5</ele>
        <time>2024-05-26T14:09:40Z</time>
      </trkpt>
      <trkpt lat="43.73425" lon="6.65944">
        <ele>1194.4</ele>
        <time>2024-05-26T14:09:41Z</time>
      </trkpt>
      <trkpt lat="43.73425" lon="6.65942">
        <ele>1194.4</ele>
        <time>2024-05-26T14:09:42Z</time>
      </trkpt>
      <trkpt lat="43.73425" lon="6.6594">
        <ele>1194.2</ele>
        <time>2024-05-26T14:09:43Z</time>
      </trkpt>
      <trkpt lat="43.73425" lon="6.65939">
        <ele>1194.1</ele>
        <time>2024-05-26T14:09:44Z</time>
      </trkpt>
      <trkpt lat="43.73425" lon="6.65937">
        <ele>1194</ele>
        <time>2024-05-26T14:09:45Z</time>
      </trkpt>
      <trkpt lat="43.73424" lon="6.65935">
        <ele>1193.9</ele>
        <time>2024-05-26T14:09:46Z</time>
      </trkpt>
      <trkpt lat="43.73424" lon="6.65934">
        <ele>1193.9</ele>
        <time>2024-05-26T14:09:47Z</time>
      </trkpt>
      <trkpt lat="43.73424" lon="6.65931">
        <ele>1193.8</ele>
        <time>2024-05-26T14:09:48Z</time>
      </trkpt>
      <trkpt lat="43.73424" lon="6.6593">
        <ele>1193.7</ele>
        <time>2024-05-26T14:09:49Z</time>
      </trkpt>
      <trkpt lat="43.73424" lon="6.65928">
        <ele>1193.6</ele>
        <time>2024-05-26T14:09:50Z</time>
      </trkpt>
      <trkpt lat="43.73424" lon="6.65927">
        <ele>1193.5</ele>
        <time>2024-05-26T14:09:51Z</time>
      </trkpt>
      <trkpt lat="43.73424" lon="6.65925">
        <ele>1193.4</ele>
        <time>2024-05-26T14:09:52Z</time>
      </trkpt>
      <trkpt lat="43.73424" lon="6.65923">
        <ele>1193.2</ele>
        <time>2024-05-26T14:09:53Z</time>
      </trkpt>
      <trkpt lat="43.73424" lon="6.65921">
        <ele>1193.2</ele>
        <time>2024-05-26T14:09:54Z</time>
      </trkpt>
      <trkpt lat="43.73424" lon="6.6592">
        <ele>1193.2</ele>
        <time>2024-05-26T14:09:55Z</time>
      </trkpt>
      <trkpt lat="43.73424" lon="6.65918">
        <ele>1193.1</ele>
        <time>2024-05-26T14:09:56Z</time>
      </trkpt>
      <trkpt lat="43.73424" lon="6.65917">
        <ele>1193.1</ele>
        <time>2024-05-26T14:09:57Z</time>
      </trkpt>
      <trkpt lat="43.73424" lon="6.65915">
        <ele>1193</ele>
        <time>2024-05-26T14:09:58Z</time>
      </trkpt>
      <trkpt lat="43.73424" lon="6.65913">
        <ele>1192.9</ele>
        <time>2024-05-26T14:09:59Z</time>
      </trkpt>
      <trkpt lat="43.73424" lon="6.65912">
        <ele>1192.9</ele>
        <time>2024-05-26T14:10:00Z</time>
      </trkpt>
      <trkpt lat="43.73425" lon="6.6591">
        <ele>1192.8</ele>
        <time>2024-05-26T14:10:01Z</time>
      </trkpt>
      <trkpt lat="43.73425" lon="6.65908">
        <ele>1192.7</ele>
        <time>2024-05-26T14:10:02Z</time>
      </trkpt>
      <trkpt lat="43.73425" lon="6.65907">
        <ele>1192.7</ele>
        <time>2024-05-26T14:10:03Z</time>
      </trkpt>
      <trkpt lat="43.73425" lon="6.65905">
        <ele>1192.6</ele>
        <time>2024-05-26T14:10:04Z</time>
      </trkpt>
      <trkpt lat="43.73425" lon="6.65904">
        <ele>1192.5</ele>
        <time>2024-05-26T14:10:05Z</time>
      </trkpt>
      <trkpt lat="43.73425" lon="6.65902">
        <ele>1192.4</ele>
        <time>2024-05-26T14:10:06Z</time>
      </trkpt>
      <trkpt lat="43.73425" lon="6.659">
        <ele>1192.4</ele>
        <time>2024-05-26T14:10:07Z</time>
      </trkpt>
      <trkpt lat="43.73424" lon="6.65898">
        <ele>1192.2</ele>
        <time>2024-05-26T14:10:08Z</time>
      </trkpt>
      <trkpt lat="43.73424" lon="6.65897">
        <ele>1192.1</ele>
        <time>2024-05-26T14:10:09Z</time>
      </trkpt>
      <trkpt lat="43.73424" lon="6.65896">
        <ele>1192</ele>
        <time>2024-05-26T14:10:10Z</time>
      </trkpt>
      <trkpt lat="43.73425" lon="6.65894">
        <ele>1191.9</ele>
        <time>2024-05-26T14:10:11Z</time>
      </trkpt>
      <trkpt lat="43.73425" lon="6.65893">
        <ele>1191.7</ele>
        <time>2024-05-26T14:10:12Z</time>
      </trkpt>
      <trkpt lat="43.73425" lon="6.65891">
        <ele>1191.6</ele>
        <time>2024-05-26T14:10:13Z</time>
      </trkpt>
      <trkpt lat="43.73425" lon="6.65889">
        <ele>1191.5</ele>
        <time>2024-05-26T14:10:14Z</time>
      </trkpt>
      <trkpt lat="43.73425" lon="6.65887">
        <ele>1191.4</ele>
        <time>2024-05-26T14:10:15Z</time>
      </trkpt>
      <trkpt lat="43.73425" lon="6.65885">
        <ele>1191.3</ele>
        <time>2024-05-26T14:10:16Z</time>
      </trkpt>
      <trkpt lat="43.73425" lon="6.65883">
        <ele>1191.3</ele>
        <time>2024-05-26T14:10:17Z</time>
      </trkpt>
      <trkpt lat="43.73425" lon="6.65882">
        <ele>1191.2</ele>
        <time>2024-05-26T14:10:18Z</time>
      </trkpt>
      <trkpt lat="43.73425" lon="6.6588">
        <ele>1191.2</ele>
        <time>2024-05-26T14:10:19Z</time>
      </trkpt>
      <trkpt lat="43.73425" lon="6.65878">
        <ele>1191.1</ele>
        <time>2024-05-26T14:10:20Z</time>
      </trkpt>
      <trkpt lat="43.73425" lon="6.65877">
        <ele>1191.1</ele>
        <time>2024-05-26T14:10:21Z</time>
      </trkpt>
      <trkpt lat="43.73425" lon="6.65876">
        <ele>1191</ele>
        <time>2024-05-26T14:10:22Z</time>
      </trkpt>
      <trkpt lat="43.73425" lon="6.65874">
        <ele>1190.9</ele>
        <time>2024-05-26T14:10:23Z</time>
      </trkpt>
      <trkpt lat="43.73426" lon="6.65873">
        <ele>1190.7</ele>
        <time>2024-05-26T14:10:24Z</time>
      </trkpt>
      <trkpt lat="43.73426" lon="6.65871">
        <ele>1190.6</ele>
        <time>2024-05-26T14:10:25Z</time>
      </trkpt>
      <trkpt lat="43.73426" lon="6.65869">
        <ele>1190.5</ele>
        <time>2024-05-26T14:10:26Z</time>
      </trkpt>
      <trkpt lat="43.73426" lon="6.65868">
        <ele>1190.4</ele>
        <time>2024-05-26T14:10:27Z</time>
      </trkpt>
      <trkpt lat="43.73426" lon="6.65866">
        <ele>1190.3</ele>
        <time>2024-05-26T14:10:28Z</time>
      </trkpt>
      <trkpt lat="43.73426" lon="6.65864">
        <ele>1190.2</ele>
        <time>2024-05-26T14:10:29Z</time>
      </trkpt>
      <trkpt lat="43.73426" lon="6.65863">
        <ele>1190.1</ele>
        <time>2024-05-26T14:10:30Z</time>
      </trkpt>
      <trkpt lat="43.73426" lon="6.65861">
        <ele>1189.9</ele>
        <time>2024-05-26T14:10:31Z</time>
      </trkpt>
      <trkpt lat="43.73426" lon="6.65859">
        <ele>1189.9</ele>
        <time>2024-05-26T14:10:32Z</time>
      </trkpt>
      <trkpt lat="43.73426" lon="6.65858">
        <ele>1189.6</ele>
        <time>2024-05-26T14:10:33Z</time>
      </trkpt>
      <trkpt lat="43.73426" lon="6.65856">
        <ele>1189.5</ele>
        <time>2024-05-26T14:10:34Z</time>
      </trkpt>
      <trkpt lat="43.73426" lon="6.65855">
        <ele>1189.3</ele>
        <time>2024-05-26T14:10:35Z</time>
      </trkpt>
      <trkpt lat="43.73427" lon="6.65853">
        <ele>1189.1</ele>
        <time>2024-05-26T14:10:36Z</time>
      </trkpt>
      <trkpt lat="43.73427" lon="6.65852">
        <ele>1188.9</ele>
        <time>2024-05-26T14:10:37Z</time>
      </trkpt>
      <trkpt lat="43.73427" lon="6.6585">
        <ele>1188.9</ele>
        <time>2024-05-26T14:10:38Z</time>
      </trkpt>
      <trkpt lat="43.73427" lon="6.65848">
        <ele>1188.8</ele>
        <time>2024-05-26T14:10:39Z</time>
      </trkpt>
      <trkpt lat="43.73427" lon="6.65847">
        <ele>1188.8</ele>
        <time>2024-05-26T14:10:40Z</time>
      </trkpt>
      <trkpt lat="43.73427" lon="6.65845">
        <ele>1188.7</ele>
        <time>2024-05-26T14:10:41Z</time>
      </trkpt>
      <trkpt lat="43.73427" lon="6.65843">
        <ele>1188.5</ele>
        <time>2024-05-26T14:10:42Z</time>
      </trkpt>
      <trkpt lat="43.73427" lon="6.65842">
        <ele>1188.4</ele>
        <time>2024-05-26T14:10:43Z</time>
      </trkpt>
      <trkpt lat="43.73427" lon="6.6584">
        <ele>1188.3</ele>
        <time>2024-05-26T14:10:44Z</time>
      </trkpt>
      <trkpt lat="43.73427" lon="6.65839">
        <ele>1188.2</ele>
        <time>2024-05-26T14:10:45Z</time>
      </trkpt>
      <trkpt lat="43.73427" lon="6.65837">
        <ele>1188.1</ele>
        <time>2024-05-26T14:10:46Z</time>
      </trkpt>
      <trkpt lat="43.73427" lon="6.65835">
        <ele>1188.1</ele>
        <time>2024-05-26T14:10:47Z</time>
      </trkpt>
      <trkpt lat="43.73427" lon="6.65834">
        <ele>1187.9</ele>
        <time>2024-05-26T14:10:48Z</time>
      </trkpt>
      <trkpt lat="43.73427" lon="6.65832">
        <ele>1187.8</ele>
        <time>2024-05-26T14:10:49Z</time>
      </trkpt>
      <trkpt lat="43.73427" lon="6.65831">
        <ele>1187.7</ele>
        <time>2024-05-26T14:10:50Z</time>
      </trkpt>
      <trkpt lat="43.73427" lon="6.6583">
        <ele>1187.5</ele>
        <time>2024-05-26T14:10:51Z</time>
      </trkpt>
      <trkpt lat="43.73428" lon="6.65828">
        <ele>1187.3</ele>
        <time>2024-05-26T14:10:52Z</time>
      </trkpt>
      <trkpt lat="43.73428" lon="6.65827">
        <ele>1187.2</ele>
        <time>2024-05-26T14:10:53Z</time>
      </trkpt>
      <trkpt lat="43.73429" lon="6.65825">
        <ele>1187.1</ele>
        <time>2024-05-26T14:10:54Z</time>
      </trkpt>
      <trkpt lat="43.73429" lon="6.65824">
        <ele>1187</ele>
        <time>2024-05-26T14:10:55Z</time>
      </trkpt>
      <trkpt lat="43.73429" lon="6.65823">
        <ele>1186.8</ele>
        <time>2024-05-26T14:10:56Z</time>
      </trkpt>
      <trkpt lat="43.73429" lon="6.65821">
        <ele>1186.7</ele>
        <time>2024-05-26T14:10:57Z</time>
      </trkpt>
      <trkpt lat="43.73429" lon="6.6582">
        <ele>1186.6</ele>
        <time>2024-05-26T14:10:58Z</time>
      </trkpt>
      <trkpt lat="43.73429" lon="6.65819">
        <ele>1186.5</ele>
        <time>2024-05-26T14:10:59Z</time>
      </trkpt>
      <trkpt lat="43.73429" lon="6.65817">
        <ele>1186.3</ele>
        <time>2024-05-26T14:11:00Z</time>
      </trkpt>
      <trkpt lat="43.73429" lon="6.65815">
        <ele>1186.2</ele>
        <time>2024-05-26T14:11:01Z</time>
      </trkpt>
      <trkpt lat="43.73429" lon="6.65814">
        <ele>1186</ele>
        <time>2024-05-26T14:11:02Z</time>
      </trkpt>
      <trkpt lat="43.73429" lon="6.65813">
        <ele>1185.9</ele>
        <time>2024-05-26T14:11:03Z</time>
      </trkpt>
      <trkpt lat="43.73429" lon="6.65812">
        <ele>1185.7</ele>
        <time>2024-05-26T14:11:04Z</time>
      </trkpt>
      <trkpt lat="43.73429" lon="6.65811">
        <ele>1185.6</ele>
        <time>2024-05-26T14:11:05Z</time>
      </trkpt>
      <trkpt lat="43.73429" lon="6.6581">
        <ele>1185.3</ele>
        <time>2024-05-26T14:11:06Z</time>
      </trkpt>
      <trkpt lat="43.73429" lon="6.65808">
        <ele>1185.2</ele>
        <time>2024-05-26T14:11:07Z</time>
      </trkpt>
      <trkpt lat="43.7343" lon="6.65807">
        <ele>1184.9</ele>
        <time>2024-05-26T14:11:08Z</time>
      </trkpt>
      <trkpt lat="43.7343" lon="6.65806">
        <ele>1184.7</ele>
        <time>2024-05-26T14:11:09Z</time>
      </trkpt>
      <trkpt lat="43.7343" lon="6.65804">
        <ele>1184.4</ele>
        <time>2024-05-26T14:11:10Z</time>
      </trkpt>
      <trkpt lat="43.73431" lon="6.65802">
        <ele>1184.2</ele>
        <time>2024-05-26T14:11:11Z</time>
      </trkpt>
      <trkpt lat="43.73431" lon="6.65801">
        <ele>1183.9</ele>
        <time>2024-05-26T14:11:12Z</time>
      </trkpt>
      <trkpt lat="43.73431" lon="6.65799">
        <ele>1183.7</ele>
        <time>2024-05-26T14:11:13Z</time>
      </trkpt>
      <trkpt lat="43.73431" lon="6.65797">
        <ele>1183.4</ele>
        <time>2024-05-26T14:11:14Z</time>
      </trkpt>
      <trkpt lat="43.73431" lon="6.65796">
        <ele>1183.2</ele>
        <time>2024-05-26T14:11:15Z</time>
      </trkpt>
      <trkpt lat="43.73431" lon="6.65794">
        <ele>1183</ele>
        <time>2024-05-26T14:11:16Z</time>
      </trkpt>
      <trkpt lat="43.73431" lon="6.65793">
        <ele>1182.7</ele>
        <time>2024-05-26T14:11:17Z</time>
      </trkpt>
      <trkpt lat="43.73431" lon="6.65792">
        <ele>1182.4</ele>
        <time>2024-05-26T14:11:18Z</time>
      </trkpt>
      <trkpt lat="43.7343" lon="6.6579">
        <ele>1182.2</ele>
        <time>2024-05-26T14:11:19Z</time>
      </trkpt>
      <trkpt lat="43.7343" lon="6.65789">
        <ele>1182</ele>
        <time>2024-05-26T14:11:20Z</time>
      </trkpt>
      <trkpt lat="43.7343" lon="6.65787">
        <ele>1181.8</ele>
        <time>2024-05-26T14:11:21Z</time>
      </trkpt>
      <trkpt lat="43.7343" lon="6.65786">
        <ele>1181.6</ele>
        <time>2024-05-26T14:11:22Z</time>
      </trkpt>
      <trkpt lat="43.7343" lon="6.65784">
        <ele>1181.4</ele>
        <time>2024-05-26T14:11:23Z</time>
      </trkpt>
      <trkpt lat="43.7343" lon="6.65783">
        <ele>1181.2</ele>
        <time>2024-05-26T14:11:24Z</time>
      </trkpt>
      <trkpt lat="43.7343" lon="6.65781">
        <ele>1181</ele>
        <time>2024-05-26T14:11:25Z</time>
      </trkpt>
      <trkpt lat="43.7343" lon="6.6578">
        <ele>1180.9</ele>
        <time>2024-05-26T14:11:26Z</time>
      </trkpt>
      <trkpt lat="43.7343" lon="6.65778">
        <ele>1180.7</ele>
        <time>2024-05-26T14:11:27Z</time>
      </trkpt>
      <trkpt lat="43.7343" lon="6.65777">
        <ele>1180.6</ele>
        <time>2024-05-26T14:11:28Z</time>
      </trkpt>
      <trkpt lat="43.7343" lon="6.65775">
        <ele>1180.5</ele>
        <time>2024-05-26T14:11:29Z</time>
      </trkpt>
      <trkpt lat="43.73429" lon="6.65773">
        <ele>1180.4</ele>
        <time>2024-05-26T14:11:30Z</time>
      </trkpt>
      <trkpt lat="43.7343" lon="6.65771">
        <ele>1180.3</ele>
        <time>2024-05-26T14:11:31Z</time>
      </trkpt>
      <trkpt lat="43.7343" lon="6.6577">
        <ele>1180.1</ele>
        <time>2024-05-26T14:11:32Z</time>
      </trkpt>
      <trkpt lat="43.7343" lon="6.65768">
        <ele>1179.9</ele>
        <time>2024-05-26T14:11:33Z</time>
      </trkpt>
      <trkpt lat="43.7343" lon="6.65767">
        <ele>1179.8</ele>
        <time>2024-05-26T14:11:34Z</time>
      </trkpt>
      <trkpt lat="43.7343" lon="6.65766">
        <ele>1179.7</ele>
        <time>2024-05-26T14:11:35Z</time>
      </trkpt>
      <trkpt lat="43.7343" lon="6.65764">
        <ele>1179.5</ele>
        <time>2024-05-26T14:11:36Z</time>
      </trkpt>
      <trkpt lat="43.7343" lon="6.65763">
        <ele>1179.4</ele>
        <time>2024-05-26T14:11:37Z</time>
      </trkpt>
      <trkpt lat="43.7343" lon="6.65761">
        <ele>1179.3</ele>
        <time>2024-05-26T14:11:38Z</time>
      </trkpt>
      <trkpt lat="43.7343" lon="6.65759">
        <ele>1179.2</ele>
        <time>2024-05-26T14:11:39Z</time>
      </trkpt>
      <trkpt lat="43.73429" lon="6.65757">
        <ele>1179</ele>
        <time>2024-05-26T14:11:40Z</time>
      </trkpt>
      <trkpt lat="43.73429" lon="6.65756">
        <ele>1178.9</ele>
        <time>2024-05-26T14:11:41Z</time>
      </trkpt>
      <trkpt lat="43.73429" lon="6.65754">
        <ele>1178.7</ele>
        <time>2024-05-26T14:11:42Z</time>
      </trkpt>
      <trkpt lat="43.73429" lon="6.65753">
        <ele>1178.6</ele>
        <time>2024-05-26T14:11:43Z</time>
      </trkpt>
      <trkpt lat="43.73428" lon="6.65751">
        <ele>1178.2</ele>
        <time>2024-05-26T14:11:44Z</time>
      </trkpt>
      <trkpt lat="43.73428" lon="6.65749">
        <ele>1178</ele>
        <time>2024-05-26T14:11:45Z</time>
      </trkpt>
      <trkpt lat="43.73428" lon="6.65748">
        <ele>1178</ele>
        <time>2024-05-26T14:11:46Z</time>
      </trkpt>
      <trkpt lat="43.73428" lon="6.65747">
        <ele>1177.8</ele>
        <time>2024-05-26T14:11:47Z</time>
      </trkpt>
      <trkpt lat="43.73428" lon="6.65746">
        <ele>1177.6</ele>
        <time>2024-05-26T14:11:48Z</time>
      </trkpt>
      <trkpt lat="43.73429" lon="6.65745">
        <ele>1177.6</ele>
        <time>2024-05-26T14:11:49Z</time>
      </trkpt>
      <trkpt lat="43.7343" lon="6.65744">
        <ele>1177.5</ele>
        <time>2024-05-26T14:11:50Z</time>
      </trkpt>
      <trkpt lat="43.7343" lon="6.65742">
        <ele>1177.4</ele>
        <time>2024-05-26T14:11:51Z</time>
      </trkpt>
      <trkpt lat="43.7343" lon="6.65741">
        <ele>1177.3</ele>
        <time>2024-05-26T14:11:52Z</time>
      </trkpt>
      <trkpt lat="43.7343" lon="6.65739">
        <ele>1177.1</ele>
        <time>2024-05-26T14:11:53Z</time>
      </trkpt>
      <trkpt lat="43.7343" lon="6.65737">
        <ele>1177</ele>
        <time>2024-05-26T14:11:54Z</time>
      </trkpt>
      <trkpt lat="43.7343" lon="6.65736">
        <ele>1176.9</ele>
        <time>2024-05-26T14:11:55Z</time>
      </trkpt>
      <trkpt lat="43.7343" lon="6.65734">
        <ele>1176.8</ele>
        <time>2024-05-26T14:11:56Z</time>
      </trkpt>
      <trkpt lat="43.7343" lon="6.65732">
        <ele>1176.6</ele>
        <time>2024-05-26T14:11:57Z</time>
      </trkpt>
      <trkpt lat="43.7343" lon="6.65731">
        <ele>1176.4</ele>
        <time>2024-05-26T14:11:58Z</time>
      </trkpt>
      <trkpt lat="43.7343" lon="6.65729">
        <ele>1176.3</ele>
        <time>2024-05-26T14:11:59Z</time>
      </trkpt>
      <trkpt lat="43.7343" lon="6.65727">
        <ele>1176</ele>
        <time>2024-05-26T14:12:00Z</time>
      </trkpt>
      <trkpt lat="43.73429" lon="6.65726">
        <ele>1175.8</ele>
        <time>2024-05-26T14:12:01Z</time>
      </trkpt>
      <trkpt lat="43.73429" lon="6.65725">
        <ele>1175.7</ele>
        <time>2024-05-26T14:12:02Z</time>
      </trkpt>
      <trkpt lat="43.73428" lon="6.65724">
        <ele>1175.5</ele>
        <time>2024-05-26T14:12:03Z</time>
      </trkpt>
      <trkpt lat="43.73428" lon="6.65721">
        <ele>1175.4</ele>
        <time>2024-05-26T14:12:04Z</time>
      </trkpt>
      <trkpt lat="43.73427" lon="6.65719">
        <ele>1175.2</ele>
        <time>2024-05-26T14:12:05Z</time>
      </trkpt>
      <trkpt lat="43.73427" lon="6.65717">
        <ele>1175</ele>
        <time>2024-05-26T14:12:06Z</time>
      </trkpt>
      <trkpt lat="43.73427" lon="6.65716">
        <ele>1174.9</ele>
        <time>2024-05-26T14:12:07Z</time>
      </trkpt>
      <trkpt lat="43.73427" lon="6.65714">
        <ele>1174.8</ele>
        <time>2024-05-26T14:12:08Z</time>
      </trkpt>
      <trkpt lat="43.73427" lon="6.65712">
        <ele>1174.7</ele>
        <time>2024-05-26T14:12:09Z</time>
      </trkpt>
      <trkpt lat="43.73426" lon="6.65711">
        <ele>1174.6</ele>
        <time>2024-05-26T14:12:10Z</time>
      </trkpt>
      <trkpt lat="43.73426" lon="6.6571">
        <ele>1174.6</ele>
        <time>2024-05-26T14:12:11Z</time>
      </trkpt>
      <trkpt lat="43.73425" lon="6.65709">
        <ele>1174.6</ele>
        <time>2024-05-26T14:12:12Z</time>
      </trkpt>
      <trkpt lat="43.73424" lon="6.65708">
        <ele>1174.5</ele>
        <time>2024-05-26T14:12:13Z</time>
      </trkpt>
      <trkpt lat="43.73424" lon="6.65706">
        <ele>1174.5</ele>
        <time>2024-05-26T14:12:14Z</time>
      </trkpt>
      <trkpt lat="43.73423" lon="6.65704">
        <ele>1174.5</ele>
        <time>2024-05-26T14:12:15Z</time>
      </trkpt>
      <trkpt lat="43.73423" lon="6.65702">
        <ele>1174.4</ele>
        <time>2024-05-26T14:12:16Z</time>
      </trkpt>
      <trkpt lat="43.73422" lon="6.65701">
        <ele>1174.4</ele>
        <time>2024-05-26T14:12:17Z</time>
      </trkpt>
      <trkpt lat="43.73422" lon="6.65699">
        <ele>1174.4</ele>
        <time>2024-05-26T14:12:18Z</time>
      </trkpt>
      <trkpt lat="43.73422" lon="6.65698">
        <ele>1174.4</ele>
        <time>2024-05-26T14:12:19Z</time>
      </trkpt>
      <trkpt lat="43.73422" lon="6.65697">
        <ele>1174.4</ele>
        <time>2024-05-26T14:12:20Z</time>
      </trkpt>
      <trkpt lat="43.73421" lon="6.65696">
        <ele>1174.3</ele>
        <time>2024-05-26T14:12:21Z</time>
      </trkpt>
      <trkpt lat="43.73421" lon="6.65694">
        <ele>1174.2</ele>
        <time>2024-05-26T14:12:22Z</time>
      </trkpt>
      <trkpt lat="43.7342" lon="6.65692">
        <ele>1174.1</ele>
        <time>2024-05-26T14:12:23Z</time>
      </trkpt>
      <trkpt lat="43.7342" lon="6.65691">
        <ele>1174</ele>
        <time>2024-05-26T14:12:24Z</time>
      </trkpt>
      <trkpt lat="43.73419" lon="6.65689">
        <ele>1173.8</ele>
        <time>2024-05-26T14:12:25Z</time>
      </trkpt>
      <trkpt lat="43.73419" lon="6.65688">
        <ele>1173.7</ele>
        <time>2024-05-26T14:12:26Z</time>
      </trkpt>
      <trkpt lat="43.73418" lon="6.65686">
        <ele>1173.5</ele>
        <time>2024-05-26T14:12:27Z</time>
      </trkpt>
      <trkpt lat="43.73418" lon="6.65684">
        <ele>1173.4</ele>
        <time>2024-05-26T14:12:28Z</time>
      </trkpt>
      <trkpt lat="43.73417" lon="6.65682">
        <ele>1173.4</ele>
        <time>2024-05-26T14:12:29Z</time>
      </trkpt>
      <trkpt lat="43.73416" lon="6.65681">
        <ele>1173.3</ele>
        <time>2024-05-26T14:12:30Z</time>
      </trkpt>
      <trkpt lat="43.73415" lon="6.6568">
        <ele>1173.2</ele>
        <time>2024-05-26T14:12:31Z</time>
      </trkpt>
      <trkpt lat="43.73415" lon="6.65679">
        <ele>1173.1</ele>
        <time>2024-05-26T14:12:32Z</time>
      </trkpt>
      <trkpt lat="43.73414" lon="6.65677">
        <ele>1173</ele>
        <time>2024-05-26T14:12:33Z</time>
      </trkpt>
      <trkpt lat="43.73413" lon="6.65675">
        <ele>1172.9</ele>
        <time>2024-05-26T14:12:34Z</time>
      </trkpt>
      <trkpt lat="43.73413" lon="6.65674">
        <ele>1172.9</ele>
        <time>2024-05-26T14:12:35Z</time>
      </trkpt>
      <trkpt lat="43.73412" lon="6.65672">
        <ele>1172.7</ele>
        <time>2024-05-26T14:12:36Z</time>
      </trkpt>
      <trkpt lat="43.73412" lon="6.65672">
        <ele>1172.5</ele>
        <time>2024-05-26T14:12:37Z</time>
      </trkpt>
      <trkpt lat="43.73412" lon="6.6567">
        <ele>1172.3</ele>
        <time>2024-05-26T14:12:38Z</time>
      </trkpt>
      <trkpt lat="43.73412" lon="6.65668">
        <ele>1172.2</ele>
        <time>2024-05-26T14:12:39Z</time>
      </trkpt>
      <trkpt lat="43.73411" lon="6.65667">
        <ele>1172.2</ele>
        <time>2024-05-26T14:12:40Z</time>
      </trkpt>
      <trkpt lat="43.7341" lon="6.65665">
        <ele>1172.1</ele>
        <time>2024-05-26T14:12:41Z</time>
      </trkpt>
      <trkpt lat="43.73409" lon="6.65664">
        <ele>1172</ele>
        <time>2024-05-26T14:12:42Z</time>
      </trkpt>
      <trkpt lat="43.73409" lon="6.65662">
        <ele>1171.9</ele>
        <time>2024-05-26T14:12:43Z</time>
      </trkpt>
      <trkpt lat="43.73408" lon="6.6566">
        <ele>1171.7</ele>
        <time>2024-05-26T14:12:44Z</time>
      </trkpt>
      <trkpt lat="43.73407" lon="6.65659">
        <ele>1171.4</ele>
        <time>2024-05-26T14:12:45Z</time>
      </trkpt>
      <trkpt lat="43.73406" lon="6.65657">
        <ele>1171.3</ele>
        <time>2024-05-26T14:12:46Z</time>
      </trkpt>
      <trkpt lat="43.73406" lon="6.65656">
        <ele>1171.2</ele>
        <time>2024-05-26T14:12:47Z</time>
      </trkpt>
      <trkpt lat="43.73406" lon="6.65654">
        <ele>1171.2</ele>
        <time>2024-05-26T14:12:48Z</time>
      </trkpt>
      <trkpt lat="43.73406" lon="6.65653">
        <ele>1171.2</ele>
        <time>2024-05-26T14:12:49Z</time>
      </trkpt>
      <trkpt lat="43.73405" lon="6.65652">
        <ele>1171.2</ele>
        <time>2024-05-26T14:12:50Z</time>
      </trkpt>
      <trkpt lat="43.73405" lon="6.6565">
        <ele>1171.1</ele>
        <time>2024-05-26T14:12:51Z</time>
      </trkpt>
      <trkpt lat="43.73405" lon="6.65649">
        <ele>1171.1</ele>
        <time>2024-05-26T14:12:52Z</time>
      </trkpt>
      <trkpt lat="43.73404" lon="6.65646">
        <ele>1170.9</ele>
        <time>2024-05-26T14:12:53Z</time>
      </trkpt>
      <trkpt lat="43.73404" lon="6.65645">
        <ele>1170.6</ele>
        <time>2024-05-26T14:12:54Z</time>
      </trkpt>
      <trkpt lat="43.73403" lon="6.65643">
        <ele>1170.5</ele>
        <time>2024-05-26T14:12:55Z</time>
      </trkpt>
      <trkpt lat="43.73403" lon="6.65641">
        <ele>1170.4</ele>
        <time>2024-05-26T14:12:56Z</time>
      </trkpt>
      <trkpt lat="43.73403" lon="6.6564">
        <ele>1170.3</ele>
        <time>2024-05-26T14:12:57Z</time>
      </trkpt>
      <trkpt lat="43.73402" lon="6.65638">
        <ele>1170.1</ele>
        <time>2024-05-26T14:12:58Z</time>
      </trkpt>
      <trkpt lat="43.73401" lon="6.65637">
        <ele>1170</ele>
        <time>2024-05-26T14:12:59Z</time>
      </trkpt>
      <trkpt lat="43.73401" lon="6.65635">
        <ele>1169.9</ele>
        <time>2024-05-26T14:13:00Z</time>
      </trkpt>
      <trkpt lat="43.73401" lon="6.65633">
        <ele>1169.9</ele>
        <time>2024-05-26T14:13:01Z</time>
      </trkpt>
      <trkpt lat="43.734" lon="6.65632">
        <ele>1169.8</ele>
        <time>2024-05-26T14:13:02Z</time>
      </trkpt>
      <trkpt lat="43.734" lon="6.6563">
        <ele>1169.7</ele>
        <time>2024-05-26T14:13:03Z</time>
      </trkpt>
      <trkpt lat="43.73399" lon="6.65628">
        <ele>1169.6</ele>
        <time>2024-05-26T14:13:04Z</time>
      </trkpt>
      <trkpt lat="43.73398" lon="6.65626">
        <ele>1169.6</ele>
        <time>2024-05-26T14:13:05Z</time>
      </trkpt>
      <trkpt lat="43.73397" lon="6.65624">
        <ele>1169.5</ele>
        <time>2024-05-26T14:13:06Z</time>
      </trkpt>
      <trkpt lat="43.73396" lon="6.65623">
        <ele>1169.5</ele>
        <time>2024-05-26T14:13:07Z</time>
      </trkpt>
      <trkpt lat="43.73395" lon="6.65621">
        <ele>1169.5</ele>
        <time>2024-05-26T14:13:08Z</time>
      </trkpt>
      <trkpt lat="43.73394" lon="6.65619">
        <ele>1169.4</ele>
        <time>2024-05-26T14:13:09Z</time>
      </trkpt>
      <trkpt lat="43.73393" lon="6.65617">
        <ele>1169.4</ele>
        <time>2024-05-26T14:13:10Z</time>
      </trkpt>
      <trkpt lat="43.73393" lon="6.65615">
        <ele>1169.3</ele>
        <time>2024-05-26T14:13:11Z</time>
      </trkpt>
      <trkpt lat="43.73392" lon="6.65614">
        <ele>1169.2</ele>
        <time>2024-05-26T14:13:12Z</time>
      </trkpt>
      <trkpt lat="43.73391" lon="6.65612">
        <ele>1169.2</ele>
        <time>2024-05-26T14:13:13Z</time>
      </trkpt>
      <trkpt lat="43.73389" lon="6.65611">
        <ele>1169.2</ele>
        <time>2024-05-26T14:13:14Z</time>
      </trkpt>
      <trkpt lat="43.73388" lon="6.65609">
        <ele>1169.2</ele>
        <time>2024-05-26T14:13:15Z</time>
      </trkpt>
      <trkpt lat="43.73388" lon="6.65607">
        <ele>1169.1</ele>
        <time>2024-05-26T14:13:16Z</time>
      </trkpt>
      <trkpt lat="43.73387" lon="6.65605">
        <ele>1169.1</ele>
        <time>2024-05-26T14:13:17Z</time>
      </trkpt>
      <trkpt lat="43.73386" lon="6.65604">
        <ele>1169.1</ele>
        <time>2024-05-26T14:13:18Z</time>
      </trkpt>
      <trkpt lat="43.73386" lon="6.65602">
        <ele>1169.2</ele>
        <time>2024-05-26T14:13:19Z</time>
      </trkpt>
      <trkpt lat="43.73385" lon="6.65601">
        <ele>1169.1</ele>
        <time>2024-05-26T14:13:20Z</time>
      </trkpt>
      <trkpt lat="43.73385" lon="6.65599">
        <ele>1169</ele>
        <time>2024-05-26T14:13:21Z</time>
      </trkpt>
      <trkpt lat="43.73384" lon="6.65598">
        <ele>1169</ele>
        <time>2024-05-26T14:13:22Z</time>
      </trkpt>
      <trkpt lat="43.73383" lon="6.65596">
        <ele>1169</ele>
        <time>2024-05-26T14:13:23Z</time>
      </trkpt>
      <trkpt lat="43.73383" lon="6.65594">
        <ele>1168.9</ele>
        <time>2024-05-26T14:13:24Z</time>
      </trkpt>
      <trkpt lat="43.73382" lon="6.65593">
        <ele>1168.9</ele>
        <time>2024-05-26T14:13:25Z</time>
      </trkpt>
      <trkpt lat="43.73381" lon="6.65591">
        <ele>1168.8</ele>
        <time>2024-05-26T14:13:26Z</time>
      </trkpt>
      <trkpt lat="43.73381" lon="6.6559">
        <ele>1168.6</ele>
        <time>2024-05-26T14:13:27Z</time>
      </trkpt>
      <trkpt lat="43.7338" lon="6.65589">
        <ele>1168.5</ele>
        <time>2024-05-26T14:13:28Z</time>
      </trkpt>
      <trkpt lat="43.7338" lon="6.65588">
        <ele>1168.4</ele>
        <time>2024-05-26T14:13:29Z</time>
      </trkpt>
      <trkpt lat="43.73379" lon="6.65586">
        <ele>1168.3</ele>
        <time>2024-05-26T14:13:30Z</time>
      </trkpt>
      <trkpt lat="43.73378" lon="6.65585">
        <ele>1168.2</ele>
        <time>2024-05-26T14:13:31Z</time>
      </trkpt>
      <trkpt lat="43.73377" lon="6.65583">
        <ele>1168.2</ele>
        <time>2024-05-26T14:13:32Z</time>
      </trkpt>
      <trkpt lat="43.73376" lon="6.65581">
        <ele>1168.1</ele>
        <time>2024-05-26T14:13:33Z</time>
      </trkpt>
      <trkpt lat="43.73376" lon="6.6558">
        <ele>1168.1</ele>
        <time>2024-05-26T14:13:34Z</time>
      </trkpt>
      <trkpt lat="43.73375" lon="6.65578">
        <ele>1167.9</ele>
        <time>2024-05-26T14:13:35Z</time>
      </trkpt>
      <trkpt lat="43.73374" lon="6.65577">
        <ele>1167.8</ele>
        <time>2024-05-26T14:13:36Z</time>
      </trkpt>
      <trkpt lat="43.73374" lon="6.65576">
        <ele>1167.7</ele>
        <time>2024-05-26T14:13:37Z</time>
      </trkpt>
      <trkpt lat="43.73373" lon="6.65575">
        <ele>1167.7</ele>
        <time>2024-05-26T14:13:38Z</time>
      </trkpt>
      <trkpt lat="43.73372" lon="6.65573">
        <ele>1167.7</ele>
        <time>2024-05-26T14:13:39Z</time>
      </trkpt>
      <trkpt lat="43.73372" lon="6.65572">
        <ele>1167.7</ele>
        <time>2024-05-26T14:13:40Z</time>
      </trkpt>
      <trkpt lat="43.73371" lon="6.6557">
        <ele>1167.7</ele>
        <time>2024-05-26T14:13:41Z</time>
      </trkpt>
      <trkpt lat="43.73371" lon="6.65568">
        <ele>1167.8</ele>
        <time>2024-05-26T14:13:42Z</time>
      </trkpt>
      <trkpt lat="43.73371" lon="6.65566">
        <ele>1167.8</ele>
        <time>2024-05-26T14:13:43Z</time>
      </trkpt>
      <trkpt lat="43.7337" lon="6.65565">
        <ele>1167.7</ele>
        <time>2024-05-26T14:13:44Z</time>
      </trkpt>
      <trkpt lat="43.7337" lon="6.65563">
        <ele>1167.7</ele>
        <time>2024-05-26T14:13:45Z</time>
      </trkpt>
      <trkpt lat="43.73369" lon="6.65562">
        <ele>1167.6</ele>
        <time>2024-05-26T14:13:46Z</time>
      </trkpt>
      <trkpt lat="43.73369" lon="6.65561">
        <ele>1167.5</ele>
        <time>2024-05-26T14:13:47Z</time>
      </trkpt>
      <trkpt lat="43.73369" lon="6.65559">
        <ele>1167.5</ele>
        <time>2024-05-26T14:13:48Z</time>
      </trkpt>
      <trkpt lat="43.73369" lon="6.65557">
        <ele>1167.4</ele>
        <time>2024-05-26T14:13:49Z</time>
      </trkpt>
      <trkpt lat="43.73369" lon="6.65556">
        <ele>1167.4</ele>
        <time>2024-05-26T14:13:50Z</time>
      </trkpt>
      <trkpt lat="43.73369" lon="6.65555">
        <ele>1167.3</ele>
        <time>2024-05-26T14:13:51Z</time>
      </trkpt>
      <trkpt lat="43.73369" lon="6.65553">
        <ele>1167.1</ele>
        <time>2024-05-26T14:13:52Z</time>
      </trkpt>
      <trkpt lat="43.73369" lon="6.65552">
        <ele>1167</ele>
        <time>2024-05-26T14:13:53Z</time>
      </trkpt>
      <trkpt lat="43.73369" lon="6.6555">
        <ele>1166.9</ele>
        <time>2024-05-26T14:13:54Z</time>
      </trkpt>
      <trkpt lat="43.73369" lon="6.65548">
        <ele>1166.7</ele>
        <time>2024-05-26T14:13:55Z</time>
      </trkpt>
      <trkpt lat="43.73369" lon="6.65547">
        <ele>1166.7</ele>
        <time>2024-05-26T14:13:56Z</time>
      </trkpt>
      <trkpt lat="43.73369" lon="6.65545">
        <ele>1166.6</ele>
        <time>2024-05-26T14:13:57Z</time>
      </trkpt>
      <trkpt lat="43.73369" lon="6.65544">
        <ele>1166.5</ele>
        <time>2024-05-26T14:13:58Z</time>
      </trkpt>
      <trkpt lat="43.73369" lon="6.65542">
        <ele>1166.4</ele>
        <time>2024-05-26T14:13:59Z</time>
      </trkpt>
      <trkpt lat="43.7337" lon="6.65541">
        <ele>1166.2</ele>
        <time>2024-05-26T14:14:00Z</time>
      </trkpt>
      <trkpt lat="43.7337" lon="6.65539">
        <ele>1166</ele>
        <time>2024-05-26T14:14:01Z</time>
      </trkpt>
      <trkpt lat="43.7337" lon="6.65538">
        <ele>1165.7</ele>
        <time>2024-05-26T14:14:02Z</time>
      </trkpt>
      <trkpt lat="43.7337" lon="6.65537">
        <ele>1165.4</ele>
        <time>2024-05-26T14:14:03Z</time>
      </trkpt>
      <trkpt lat="43.73371" lon="6.65536">
        <ele>1165.2</ele>
        <time>2024-05-26T14:14:04Z</time>
      </trkpt>
      <trkpt lat="43.73371" lon="6.65535">
        <ele>1165</ele>
        <time>2024-05-26T14:14:05Z</time>
      </trkpt>
      <trkpt lat="43.73371" lon="6.65534">
        <ele>1164.8</ele>
        <time>2024-05-26T14:14:06Z</time>
      </trkpt>
      <trkpt lat="43.73371" lon="6.65533">
        <ele>1164.6</ele>
        <time>2024-05-26T14:14:07Z</time>
      </trkpt>
      <trkpt lat="43.73372" lon="6.65532">
        <ele>1164.4</ele>
        <time>2024-05-26T14:14:08Z</time>
      </trkpt>
      <trkpt lat="43.73372" lon="6.65531">
        <ele>1164.2</ele>
        <time>2024-05-26T14:14:09Z</time>
      </trkpt>
      <trkpt lat="43.73373" lon="6.6553">
        <ele>1164</ele>
        <time>2024-05-26T14:14:10Z</time>
      </trkpt>
      <trkpt lat="43.73373" lon="6.65529">
        <ele>1163.8</ele>
        <time>2024-05-26T14:14:11Z</time>
      </trkpt>
      <trkpt lat="43.73374" lon="6.65528">
        <ele>1163.6</ele>
        <time>2024-05-26T14:14:12Z</time>
      </trkpt>
      <trkpt lat="43.73374" lon="6.65527">
        <ele>1163.4</ele>
        <time>2024-05-26T14:14:13Z</time>
      </trkpt>
      <trkpt lat="43.73375" lon="6.65526">
        <ele>1163.2</ele>
        <time>2024-05-26T14:14:14Z</time>
      </trkpt>
      <trkpt lat="43.73376" lon="6.65525">
        <ele>1163</ele>
        <time>2024-05-26T14:14:15Z</time>
      </trkpt>
      <trkpt lat="43.73376" lon="6.65525">
        <ele>1162.8</ele>
        <time>2024-05-26T14:14:16Z</time>
      </trkpt>
      <trkpt lat="43.73377" lon="6.65523">
        <ele>1162.5</ele>
        <time>2024-05-26T14:14:17Z</time>
      </trkpt>
      <trkpt lat="43.73377" lon="6.65521">
        <ele>1162.4</ele>
        <time>2024-05-26T14:14:18Z</time>
      </trkpt>
      <trkpt lat="43.73378" lon="6.6552">
        <ele>1162.3</ele>
        <time>2024-05-26T14:14:19Z</time>
      </trkpt>
      <trkpt lat="43.73378" lon="6.65519">
        <ele>1161.9</ele>
        <time>2024-05-26T14:14:20Z</time>
      </trkpt>
      <trkpt lat="43.73378" lon="6.65517">
        <ele>1161.7</ele>
        <time>2024-05-26T14:14:21Z</time>
      </trkpt>
      <trkpt lat="43.73379" lon="6.65515">
        <ele>1161.6</ele>
        <time>2024-05-26T14:14:22Z</time>
      </trkpt>
      <trkpt lat="43.73379" lon="6.65514">
        <ele>1161.5</ele>
        <time>2024-05-26T14:14:23Z</time>
      </trkpt>
      <trkpt lat="43.73379" lon="6.65512">
        <ele>1161.4</ele>
        <time>2024-05-26T14:14:24Z</time>
      </trkpt>
      <trkpt lat="43.73378" lon="6.6551">
        <ele>1161.3</ele>
        <time>2024-05-26T14:14:25Z</time>
      </trkpt>
      <trkpt lat="43.73377" lon="6.65509">
        <ele>1161.2</ele>
        <time>2024-05-26T14:14:26Z</time>
      </trkpt>
      <trkpt lat="43.73375" lon="6.65508">
        <ele>1161</ele>
        <time>2024-05-26T14:14:27Z</time>
      </trkpt>
      <trkpt lat="43.73374" lon="6.65506">
        <ele>1161</ele>
        <time>2024-05-26T14:14:28Z</time>
      </trkpt>
      <trkpt lat="43.73373" lon="6.65504">
        <ele>1160.8</ele>
        <time>2024-05-26T14:14:29Z</time>
      </trkpt>
      <trkpt lat="43.73373" lon="6.65502">
        <ele>1160.8</ele>
        <time>2024-05-26T14:14:30Z</time>
      </trkpt>
      <trkpt lat="43.73373" lon="6.655">
        <ele>1160.9</ele>
        <time>2024-05-26T14:14:31Z</time>
      </trkpt>
      <trkpt lat="43.73372" lon="6.65499">
        <ele>1160.9</ele>
        <time>2024-05-26T14:14:32Z</time>
      </trkpt>
      <trkpt lat="43.73371" lon="6.65497">
        <ele>1160.8</ele>
        <time>2024-05-26T14:14:33Z</time>
      </trkpt>
      <trkpt lat="43.7337" lon="6.65495">
        <ele>1160.8</ele>
        <time>2024-05-26T14:14:34Z</time>
      </trkpt>
      <trkpt lat="43.7337" lon="6.65494">
        <ele>1160.8</ele>
        <time>2024-05-26T14:14:35Z</time>
      </trkpt>
      <trkpt lat="43.73369" lon="6.65492">
        <ele>1160.7</ele>
        <time>2024-05-26T14:14:36Z</time>
      </trkpt>
      <trkpt lat="43.73369" lon="6.6549">
        <ele>1160.6</ele>
        <time>2024-05-26T14:14:37Z</time>
      </trkpt>
      <trkpt lat="43.73368" lon="6.65489">
        <ele>1160.6</ele>
        <time>2024-05-26T14:14:38Z</time>
      </trkpt>
      <trkpt lat="43.73367" lon="6.65487">
        <ele>1160.6</ele>
        <time>2024-05-26T14:14:39Z</time>
      </trkpt>
      <trkpt lat="43.73366" lon="6.65486">
        <ele>1160.5</ele>
        <time>2024-05-26T14:14:40Z</time>
      </trkpt>
      <trkpt lat="43.73365" lon="6.65484">
        <ele>1160.4</ele>
        <time>2024-05-26T14:14:41Z</time>
      </trkpt>
      <trkpt lat="43.73364" lon="6.65482">
        <ele>1160.5</ele>
        <time>2024-05-26T14:14:42Z</time>
      </trkpt>
      <trkpt lat="43.73363" lon="6.65481">
        <ele>1160.6</ele>
        <time>2024-05-26T14:14:43Z</time>
      </trkpt>
      <trkpt lat="43.73362" lon="6.65479">
        <ele>1160.6</ele>
        <time>2024-05-26T14:14:44Z</time>
      </trkpt>
      <trkpt lat="43.73362" lon="6.65478">
        <ele>1160.6</ele>
        <time>2024-05-26T14:14:45Z</time>
      </trkpt>
      <trkpt lat="43.73363" lon="6.65476">
        <ele>1160.5</ele>
        <time>2024-05-26T14:14:46Z</time>
      </trkpt>
      <trkpt lat="43.73363" lon="6.65474">
        <ele>1160.5</ele>
        <time>2024-05-26T14:14:47Z</time>
      </trkpt>
      <trkpt lat="43.73362" lon="6.65473">
        <ele>1160.4</ele>
        <time>2024-05-26T14:14:48Z</time>
      </trkpt>
      <trkpt lat="43.73361" lon="6.65471">
        <ele>1160.5</ele>
        <time>2024-05-26T14:14:49Z</time>
      </trkpt>
      <trkpt lat="43.73361" lon="6.65469">
        <ele>1160.5</ele>
        <time>2024-05-26T14:14:50Z</time>
      </trkpt>
      <trkpt lat="43.73361" lon="6.65467">
        <ele>1160.6</ele>
        <time>2024-05-26T14:14:51Z</time>
      </trkpt>
      <trkpt lat="43.73359" lon="6.65466">
        <ele>1160.7</ele>
        <time>2024-05-26T14:14:52Z</time>
      </trkpt>
      <trkpt lat="43.73359" lon="6.65464">
        <ele>1160.8</ele>
        <time>2024-05-26T14:14:53Z</time>
      </trkpt>
      <trkpt lat="43.73358" lon="6.65462">
        <ele>1160.8</ele>
        <time>2024-05-26T14:14:54Z</time>
      </trkpt>
      <trkpt lat="43.73358" lon="6.6546">
        <ele>1160.9</ele>
        <time>2024-05-26T14:14:55Z</time>
      </trkpt>
      <trkpt lat="43.73357" lon="6.65459">
        <ele>1160.8</ele>
        <time>2024-05-26T14:14:56Z</time>
      </trkpt>
      <trkpt lat="43.73356" lon="6.65458">
        <ele>1160.8</ele>
        <time>2024-05-26T14:14:57Z</time>
      </trkpt>
      <trkpt lat="43.73355" lon="6.65456">
        <ele>1160.8</ele>
        <time>2024-05-26T14:14:58Z</time>
      </trkpt>
      <trkpt lat="43.73355" lon="6.65454">
        <ele>1160.7</ele>
        <time>2024-05-26T14:14:59Z</time>
      </trkpt>
      <trkpt lat="43.73354" lon="6.65452">
        <ele>1160.7</ele>
        <time>2024-05-26T14:15:00Z</time>
      </trkpt>
      <trkpt lat="43.73354" lon="6.65451">
        <ele>1160.6</ele>
        <time>2024-05-26T14:15:01Z</time>
      </trkpt>
      <trkpt lat="43.73353" lon="6.6545">
        <ele>1160.4</ele>
        <time>2024-05-26T14:15:02Z</time>
      </trkpt>
      <trkpt lat="43.73351" lon="6.65449">
        <ele>1160.3</ele>
        <time>2024-05-26T14:15:03Z</time>
      </trkpt>
      <trkpt lat="43.7335" lon="6.65448">
        <ele>1160.2</ele>
        <time>2024-05-26T14:15:04Z</time>
      </trkpt>
      <trkpt lat="43.7335" lon="6.65446">
        <ele>1160.1</ele>
        <time>2024-05-26T14:15:05Z</time>
      </trkpt>
      <trkpt lat="43.73349" lon="6.65445">
        <ele>1160.1</ele>
        <time>2024-05-26T14:15:06Z</time>
      </trkpt>
      <trkpt lat="43.73348" lon="6.65443">
        <ele>1159.8</ele>
        <time>2024-05-26T14:15:07Z</time>
      </trkpt>
      <trkpt lat="43.73348" lon="6.65441">
        <ele>1159.7</ele>
        <time>2024-05-26T14:15:08Z</time>
      </trkpt>
      <trkpt lat="43.73347" lon="6.65439">
        <ele>1159.6</ele>
        <time>2024-05-26T14:15:09Z</time>
      </trkpt>
      <trkpt lat="43.73347" lon="6.65437">
        <ele>1159.5</ele>
        <time>2024-05-26T14:15:10Z</time>
      </trkpt>
      <trkpt lat="43.73346" lon="6.65436">
        <ele>1159.4</ele>
        <time>2024-05-26T14:15:11Z</time>
      </trkpt>
      <trkpt lat="43.73345" lon="6.65435">
        <ele>1159.3</ele>
        <time>2024-05-26T14:15:12Z</time>
      </trkpt>
      <trkpt lat="43.73344" lon="6.65433">
        <ele>1159.2</ele>
        <time>2024-05-26T14:15:13Z</time>
      </trkpt>
      <trkpt lat="43.73343" lon="6.65431">
        <ele>1159.2</ele>
        <time>2024-05-26T14:15:14Z</time>
      </trkpt>
      <trkpt lat="43.73343" lon="6.65429">
        <ele>1159.2</ele>
        <time>2024-05-26T14:15:15Z</time>
      </trkpt>
      <trkpt lat="43.73343" lon="6.65427">
        <ele>1159.3</ele>
        <time>2024-05-26T14:15:16Z</time>
      </trkpt>
      <trkpt lat="43.73344" lon="6.65425">
        <ele>1159.4</ele>
        <time>2024-05-26T14:15:17Z</time>
      </trkpt>
      <trkpt lat="43.73344" lon="6.65423">
        <ele>1159.4</ele>
        <time>2024-05-26T14:15:18Z</time>
      </trkpt>
      <trkpt lat="43.73344" lon="6.65421">
        <ele>1159.4</ele>
        <time>2024-05-26T14:15:19Z</time>
      </trkpt>
      <trkpt lat="43.73343" lon="6.6542">
        <ele>1159.6</ele>
        <time>2024-05-26T14:15:20Z</time>
      </trkpt>
      <trkpt lat="43.73343" lon="6.65418">
        <ele>1159.7</ele>
        <time>2024-05-26T14:15:21Z</time>
      </trkpt>
      <trkpt lat="43.73342" lon="6.65418">
        <ele>1159.8</ele>
        <time>2024-05-26T14:15:22Z</time>
      </trkpt>
      <trkpt lat="43.73341" lon="6.65417">
        <ele>1159.8</ele>
        <time>2024-05-26T14:15:23Z</time>
      </trkpt>
      <trkpt lat="43.7334" lon="6.65416">
        <ele>1159.9</ele>
        <time>2024-05-26T14:15:24Z</time>
      </trkpt>
      <trkpt lat="43.73339" lon="6.65414">
        <ele>1160</ele>
        <time>2024-05-26T14:15:25Z</time>
      </trkpt>
      <trkpt lat="43.73339" lon="6.65412">
        <ele>1160</ele>
        <time>2024-05-26T14:15:26Z</time>
      </trkpt>
      <trkpt lat="43.73338" lon="6.65411">
        <ele>1160.1</ele>
        <time>2024-05-26T14:15:27Z</time>
      </trkpt>
      <trkpt lat="43.73337" lon="6.65409">
        <ele>1160.1</ele>
        <time>2024-05-26T14:15:28Z</time>
      </trkpt>
      <trkpt lat="43.73336" lon="6.65407">
        <ele>1160.1</ele>
        <time>2024-05-26T14:15:29Z</time>
      </trkpt>
      <trkpt lat="43.73336" lon="6.65404">
        <ele>1160.1</ele>
        <time>2024-05-26T14:15:30Z</time>
      </trkpt>
      <trkpt lat="43.73336" lon="6.65402">
        <ele>1160.1</ele>
        <time>2024-05-26T14:15:31Z</time>
      </trkpt>
      <trkpt lat="43.73335" lon="6.65401">
        <ele>1160</ele>
        <time>2024-05-26T14:15:32Z</time>
      </trkpt>
      <trkpt lat="43.73335" lon="6.65399">
        <ele>1160</ele>
        <time>2024-05-26T14:15:33Z</time>
      </trkpt>
      <trkpt lat="43.73335" lon="6.65396">
        <ele>1160</ele>
        <time>2024-05-26T14:15:34Z</time>
      </trkpt>
      <trkpt lat="43.73333" lon="6.65396">
        <ele>1159.9</ele>
        <time>2024-05-26T14:15:35Z</time>
      </trkpt>
      <trkpt lat="43.73333" lon="6.65394">
        <ele>1159.9</ele>
        <time>2024-05-26T14:15:36Z</time>
      </trkpt>
      <trkpt lat="43.73332" lon="6.65393">
        <ele>1160.1</ele>
        <time>2024-05-26T14:15:37Z</time>
      </trkpt>
      <trkpt lat="43.73331" lon="6.65391">
        <ele>1160.1</ele>
        <time>2024-05-26T14:15:38Z</time>
      </trkpt>
      <trkpt lat="43.73331" lon="6.65389">
        <ele>1160.1</ele>
        <time>2024-05-26T14:15:39Z</time>
      </trkpt>
      <trkpt lat="43.7333" lon="6.65387">
        <ele>1160.1</ele>
        <time>2024-05-26T14:15:40Z</time>
      </trkpt>
      <trkpt lat="43.73329" lon="6.65386">
        <ele>1160.1</ele>
        <time>2024-05-26T14:15:41Z</time>
      </trkpt>
      <trkpt lat="43.73328" lon="6.65384">
        <ele>1160.1</ele>
        <time>2024-05-26T14:15:42Z</time>
      </trkpt>
      <trkpt lat="43.73327" lon="6.65383">
        <ele>1160.3</ele>
        <time>2024-05-26T14:15:43Z</time>
      </trkpt>
      <trkpt lat="43.73326" lon="6.65383">
        <ele>1160.3</ele>
        <time>2024-05-26T14:15:44Z</time>
      </trkpt>
      <trkpt lat="43.73326" lon="6.65384">
        <ele>1160.3</ele>
        <time>2024-05-26T14:15:45Z</time>
      </trkpt>
      <trkpt lat="43.73324" lon="6.65384">
        <ele>1160.2</ele>
        <time>2024-05-26T14:15:46Z</time>
      </trkpt>
      <trkpt lat="43.73324" lon="6.65382">
        <ele>1160.1</ele>
        <time>2024-05-26T14:15:47Z</time>
      </trkpt>
      <trkpt lat="43.73322" lon="6.65381">
        <ele>1160.1</ele>
        <time>2024-05-26T14:15:48Z</time>
      </trkpt>
      <trkpt lat="43.73322" lon="6.6538">
        <ele>1160.1</ele>
        <time>2024-05-26T14:15:49Z</time>
      </trkpt>
      <trkpt lat="43.73321" lon="6.65378">
        <ele>1160.2</ele>
        <time>2024-05-26T14:15:50Z</time>
      </trkpt>
      <trkpt lat="43.73321" lon="6.65377">
        <ele>1160.2</ele>
        <time>2024-05-26T14:15:51Z</time>
      </trkpt>
      <trkpt lat="43.7332" lon="6.65376">
        <ele>1160.2</ele>
        <time>2024-05-26T14:15:52Z</time>
      </trkpt>
      <trkpt lat="43.73319" lon="6.65374">
        <ele>1160.1</ele>
        <time>2024-05-26T14:15:53Z</time>
      </trkpt>
      <trkpt lat="43.73318" lon="6.65373">
        <ele>1160</ele>
        <time>2024-05-26T14:15:54Z</time>
      </trkpt>
      <trkpt lat="43.73318" lon="6.65372">
        <ele>1159.9</ele>
        <time>2024-05-26T14:15:55Z</time>
      </trkpt>
      <trkpt lat="43.73318" lon="6.65371">
        <ele>1159.9</ele>
        <time>2024-05-26T14:15:56Z</time>
      </trkpt>
      <trkpt lat="43.73317" lon="6.65372">
        <ele>1159.9</ele>
        <time>2024-05-26T14:15:57Z</time>
      </trkpt>
      <trkpt lat="43.73317" lon="6.65372">
        <ele>1159.9</ele>
        <time>2024-05-26T14:15:58Z</time>
      </trkpt>
      <trkpt lat="43.73317" lon="6.65372">
        <ele>1159.9</ele>
        <time>2024-05-26T14:15:59Z</time>
      </trkpt>
      <trkpt lat="43.73316" lon="6.65373">
        <ele>1159.9</ele>
        <time>2024-05-26T14:16:00Z</time>
      </trkpt>
      <trkpt lat="43.73316" lon="6.65373">
        <ele>1159.8</ele>
        <time>2024-05-26T14:16:01Z</time>
      </trkpt>
      <trkpt lat="43.73316" lon="6.65373">
        <ele>1159.8</ele>
        <time>2024-05-26T14:16:02Z</time>
      </trkpt>
      <trkpt lat="43.73316" lon="6.65373">
        <ele>1159.8</ele>
        <time>2024-05-26T14:16:03Z</time>
      </trkpt>
      <trkpt lat="43.73315" lon="6.65373">
        <ele>1159.8</ele>
        <time>2024-05-26T14:16:04Z</time>
      </trkpt>
      <trkpt lat="43.73315" lon="6.65373">
        <ele>1159.8</ele>
        <time>2024-05-26T14:16:05Z</time>
      </trkpt>
      <trkpt lat="43.73315" lon="6.65372">
        <ele>1159.7</ele>
        <time>2024-05-26T14:16:06Z</time>
      </trkpt>
      <trkpt lat="43.73314" lon="6.65371">
        <ele>1159.7</ele>
        <time>2024-05-26T14:16:07Z</time>
      </trkpt>
      <trkpt lat="43.73313" lon="6.65369">
        <ele>1159.8</ele>
        <time>2024-05-26T14:16:08Z</time>
      </trkpt>
      <trkpt lat="43.73313" lon="6.65368">
        <ele>1159.8</ele>
        <time>2024-05-26T14:16:09Z</time>
      </trkpt>
      <trkpt lat="43.73312" lon="6.65368">
        <ele>1159.7</ele>
        <time>2024-05-26T14:16:10Z</time>
      </trkpt>
      <trkpt lat="43.73311" lon="6.65366">
        <ele>1159.7</ele>
        <time>2024-05-26T14:16:11Z</time>
      </trkpt>
      <trkpt lat="43.7331" lon="6.65365">
        <ele>1159.6</ele>
        <time>2024-05-26T14:16:12Z</time>
      </trkpt>
      <trkpt lat="43.7331" lon="6.65364">
        <ele>1159.7</ele>
        <time>2024-05-26T14:16:13Z</time>
      </trkpt>
      <trkpt lat="43.73309" lon="6.65363">
        <ele>1159.6</ele>
        <time>2024-05-26T14:16:14Z</time>
      </trkpt>
      <trkpt lat="43.73308" lon="6.65362">
        <ele>1159.6</ele>
        <time>2024-05-26T14:16:15Z</time>
      </trkpt>
      <trkpt lat="43.73307" lon="6.65361">
        <ele>1159.6</ele>
        <time>2024-05-26T14:16:16Z</time>
      </trkpt>
      <trkpt lat="43.73307" lon="6.6536">
        <ele>1159.6</ele>
        <time>2024-05-26T14:16:17Z</time>
      </trkpt>
      <trkpt lat="43.73306" lon="6.65358">
        <ele>1159.6</ele>
        <time>2024-05-26T14:16:18Z</time>
      </trkpt>
      <trkpt lat="43.73306" lon="6.65357">
        <ele>1159.7</ele>
        <time>2024-05-26T14:16:19Z</time>
      </trkpt>
      <trkpt lat="43.73305" lon="6.65355">
        <ele>1159.6</ele>
        <time>2024-05-26T14:16:20Z</time>
      </trkpt>
      <trkpt lat="43.73304" lon="6.65354">
        <ele>1159.6</ele>
        <time>2024-05-26T14:16:21Z</time>
      </trkpt>
      <trkpt lat="43.73303" lon="6.65353">
        <ele>1159.5</ele>
        <time>2024-05-26T14:16:22Z</time>
      </trkpt>
      <trkpt lat="43.73302" lon="6.65352">
        <ele>1159.5</ele>
        <time>2024-05-26T14:16:23Z</time>
      </trkpt>
      <trkpt lat="43.73302" lon="6.6535">
        <ele>1159.5</ele>
        <time>2024-05-26T14:16:24Z</time>
      </trkpt>
      <trkpt lat="43.733" lon="6.6535">
        <ele>1159.5</ele>
        <time>2024-05-26T14:16:25Z</time>
      </trkpt>
      <trkpt lat="43.73299" lon="6.65349">
        <ele>1159.5</ele>
        <time>2024-05-26T14:16:26Z</time>
      </trkpt>
      <trkpt lat="43.73298" lon="6.65347">
        <ele>1159.5</ele>
        <time>2024-05-26T14:16:27Z</time>
      </trkpt>
      <trkpt lat="43.73298" lon="6.65346">
        <ele>1159.6</ele>
        <time>2024-05-26T14:16:28Z</time>
      </trkpt>
      <trkpt lat="43.73296" lon="6.65345">
        <ele>1159.5</ele>
        <time>2024-05-26T14:16:29Z</time>
      </trkpt>
      <trkpt lat="43.73295" lon="6.65345">
        <ele>1159.5</ele>
        <time>2024-05-26T14:16:30Z</time>
      </trkpt>
      <trkpt lat="43.73294" lon="6.65343">
        <ele>1159.5</ele>
        <time>2024-05-26T14:16:31Z</time>
      </trkpt>
      <trkpt lat="43.73294" lon="6.65342">
        <ele>1159.5</ele>
        <time>2024-05-26T14:16:32Z</time>
      </trkpt>
      <trkpt lat="43.73293" lon="6.65341">
        <ele>1159.4</ele>
        <time>2024-05-26T14:16:33Z</time>
      </trkpt>
      <trkpt lat="43.73292" lon="6.6534">
        <ele>1159.4</ele>
        <time>2024-05-26T14:16:34Z</time>
      </trkpt>
      <trkpt lat="43.73291" lon="6.65339">
        <ele>1159.4</ele>
        <time>2024-05-26T14:16:35Z</time>
      </trkpt>
      <trkpt lat="43.7329" lon="6.65338">
        <ele>1159.4</ele>
        <time>2024-05-26T14:16:36Z</time>
      </trkpt>
      <trkpt lat="43.73289" lon="6.65336">
        <ele>1159.4</ele>
        <time>2024-05-26T14:16:37Z</time>
      </trkpt>
      <trkpt lat="43.73289" lon="6.65335">
        <ele>1159.3</ele>
        <time>2024-05-26T14:16:38Z</time>
      </trkpt>
      <trkpt lat="43.73289" lon="6.65333">
        <ele>1159.3</ele>
        <time>2024-05-26T14:16:39Z</time>
      </trkpt>
      <trkpt lat="43.73288" lon="6.65332">
        <ele>1159.3</ele>
        <time>2024-05-26T14:16:40Z</time>
      </trkpt>
      <trkpt lat="43.73287" lon="6.65331">
        <ele>1159.3</ele>
        <time>2024-05-26T14:16:41Z</time>
      </trkpt>
      <trkpt lat="43.73286" lon="6.6533">
        <ele>1159.3</ele>
        <time>2024-05-26T14:16:42Z</time>
      </trkpt>
      <trkpt lat="43.73285" lon="6.65329">
        <ele>1159.3</ele>
        <time>2024-05-26T14:16:43Z</time>
      </trkpt>
      <trkpt lat="43.73284" lon="6.65327">
        <ele>1159.3</ele>
        <time>2024-05-26T14:16:44Z</time>
      </trkpt>
      <trkpt lat="43.73283" lon="6.65326">
        <ele>1159.2</ele>
        <time>2024-05-26T14:16:45Z</time>
      </trkpt>
      <trkpt lat="43.73283" lon="6.65324">
        <ele>1159.2</ele>
        <time>2024-05-26T14:16:46Z</time>
      </trkpt>
      <trkpt lat="43.73282" lon="6.65322">
        <ele>1159.1</ele>
        <time>2024-05-26T14:16:47Z</time>
      </trkpt>
      <trkpt lat="43.73282" lon="6.65321">
        <ele>1158.9</ele>
        <time>2024-05-26T14:16:48Z</time>
      </trkpt>
      <trkpt lat="43.73281" lon="6.65319">
        <ele>1159</ele>
        <time>2024-05-26T14:16:49Z</time>
      </trkpt>
      <trkpt lat="43.7328" lon="6.65318">
        <ele>1158.9</ele>
        <time>2024-05-26T14:16:50Z</time>
      </trkpt>
      <trkpt lat="43.7328" lon="6.65317">
        <ele>1158.9</ele>
        <time>2024-05-26T14:16:51Z</time>
      </trkpt>
      <trkpt lat="43.7328" lon="6.65315">
        <ele>1158.8</ele>
        <time>2024-05-26T14:16:52Z</time>
      </trkpt>
      <trkpt lat="43.73279" lon="6.65314">
        <ele>1158.7</ele>
        <time>2024-05-26T14:16:53Z</time>
      </trkpt>
      <trkpt lat="43.73279" lon="6.65312">
        <ele>1158.6</ele>
        <time>2024-05-26T14:16:54Z</time>
      </trkpt>
      <trkpt lat="43.73279" lon="6.6531">
        <ele>1158.5</ele>
        <time>2024-05-26T14:16:55Z</time>
      </trkpt>
      <trkpt lat="43.73278" lon="6.65309">
        <ele>1158.5</ele>
        <time>2024-05-26T14:16:56Z</time>
      </trkpt>
      <trkpt lat="43.73278" lon="6.65307">
        <ele>1158.4</ele>
        <time>2024-05-26T14:16:57Z</time>
      </trkpt>
      <trkpt lat="43.73278" lon="6.65305">
        <ele>1158.4</ele>
        <time>2024-05-26T14:16:58Z</time>
      </trkpt>
      <trkpt lat="43.73278" lon="6.65303">
        <ele>1158.3</ele>
        <time>2024-05-26T14:16:59Z</time>
      </trkpt>
      <trkpt lat="43.73278" lon="6.65301">
        <ele>1158.3</ele>
        <time>2024-05-26T14:17:00Z</time>
      </trkpt>
      <trkpt lat="43.73278" lon="6.65299">
        <ele>1158.2</ele>
        <time>2024-05-26T14:17:01Z</time>
      </trkpt>
      <trkpt lat="43.73278" lon="6.65297">
        <ele>1158.2</ele>
        <time>2024-05-26T14:17:02Z</time>
      </trkpt>
      <trkpt lat="43.73278" lon="6.65295">
        <ele>1158.1</ele>
        <time>2024-05-26T14:17:03Z</time>
      </trkpt>
      <trkpt lat="43.73277" lon="6.65293">
        <ele>1158</ele>
        <time>2024-05-26T14:17:04Z</time>
      </trkpt>
      <trkpt lat="43.73277" lon="6.65292">
        <ele>1158</ele>
        <time>2024-05-26T14:17:05Z</time>
      </trkpt>
      <trkpt lat="43.73276" lon="6.65291">
        <ele>1158.1</ele>
        <time>2024-05-26T14:17:06Z</time>
      </trkpt>
      <trkpt lat="43.73276" lon="6.65289">
        <ele>1158.2</ele>
        <time>2024-05-26T14:17:07Z</time>
      </trkpt>
      <trkpt lat="43.73276" lon="6.65287">
        <ele>1158.1</ele>
        <time>2024-05-26T14:17:08Z</time>
      </trkpt>
      <trkpt lat="43.73276" lon="6.65286">
        <ele>1158.2</ele>
        <time>2024-05-26T14:17:09Z</time>
      </trkpt>
      <trkpt lat="43.73276" lon="6.65284">
        <ele>1158.2</ele>
        <time>2024-05-26T14:17:10Z</time>
      </trkpt>
      <trkpt lat="43.73276" lon="6.65282">
        <ele>1158.3</ele>
        <time>2024-05-26T14:17:11Z</time>
      </trkpt>
      <trkpt lat="43.73276" lon="6.6528">
        <ele>1158.3</ele>
        <time>2024-05-26T14:17:12Z</time>
      </trkpt>
      <trkpt lat="43.73276" lon="6.65279">
        <ele>1158.4</ele>
        <time>2024-05-26T14:17:13Z</time>
      </trkpt>
      <trkpt lat="43.73276" lon="6.65277">
        <ele>1158.5</ele>
        <time>2024-05-26T14:17:14Z</time>
      </trkpt>
      <trkpt lat="43.73276" lon="6.65276">
        <ele>1158.5</ele>
        <time>2024-05-26T14:17:15Z</time>
      </trkpt>
      <trkpt lat="43.73275" lon="6.65274">
        <ele>1158.5</ele>
        <time>2024-05-26T14:17:16Z</time>
      </trkpt>
      <trkpt lat="43.73275" lon="6.65273">
        <ele>1158.5</ele>
        <time>2024-05-26T14:17:17Z</time>
      </trkpt>
      <trkpt lat="43.73275" lon="6.65271">
        <ele>1158.4</ele>
        <time>2024-05-26T14:17:18Z</time>
      </trkpt>
      <trkpt lat="43.73274" lon="6.6527">
        <ele>1158.4</ele>
        <time>2024-05-26T14:17:19Z</time>
      </trkpt>
      <trkpt lat="43.73274" lon="6.65268">
        <ele>1158.4</ele>
        <time>2024-05-26T14:17:20Z</time>
      </trkpt>
      <trkpt lat="43.73274" lon="6.65267">
        <ele>1158.4</ele>
        <time>2024-05-26T14:17:21Z</time>
      </trkpt>
      <trkpt lat="43.73274" lon="6.65265">
        <ele>1158.3</ele>
        <time>2024-05-26T14:17:22Z</time>
      </trkpt>
      <trkpt lat="43.73274" lon="6.65264">
        <ele>1158.4</ele>
        <time>2024-05-26T14:17:23Z</time>
      </trkpt>
      <trkpt lat="43.73274" lon="6.65262">
        <ele>1158.4</ele>
        <time>2024-05-26T14:17:24Z</time>
      </trkpt>
      <trkpt lat="43.73274" lon="6.6526">
        <ele>1158.4</ele>
        <time>2024-05-26T14:17:25Z</time>
      </trkpt>
      <trkpt lat="43.73274" lon="6.65258">
        <ele>1158.3</ele>
        <time>2024-05-26T14:17:26Z</time>
      </trkpt>
      <trkpt lat="43.73274" lon="6.65257">
        <ele>1158.4</ele>
        <time>2024-05-26T14:17:27Z</time>
      </trkpt>
      <trkpt lat="43.73274" lon="6.65255">
        <ele>1158.3</ele>
        <time>2024-05-26T14:17:28Z</time>
      </trkpt>
      <trkpt lat="43.73274" lon="6.65253">
        <ele>1158.3</ele>
        <time>2024-05-26T14:17:29Z</time>
      </trkpt>
      <trkpt lat="43.73273" lon="6.65252">
        <ele>1158.4</ele>
        <time>2024-05-26T14:17:30Z</time>
      </trkpt>
      <trkpt lat="43.73273" lon="6.6525">
        <ele>1158.4</ele>
        <time>2024-05-26T14:17:31Z</time>
      </trkpt>
      <trkpt lat="43.73272" lon="6.65248">
        <ele>1158.4</ele>
        <time>2024-05-26T14:17:32Z</time>
      </trkpt>
      <trkpt lat="43.73271" lon="6.65246">
        <ele>1158.3</ele>
        <time>2024-05-26T14:17:33Z</time>
      </trkpt>
      <trkpt lat="43.73271" lon="6.65244">
        <ele>1158.5</ele>
        <time>2024-05-26T14:17:34Z</time>
      </trkpt>
      <trkpt lat="43.7327" lon="6.65243">
        <ele>1158.6</ele>
        <time>2024-05-26T14:17:35Z</time>
      </trkpt>
      <trkpt lat="43.7327" lon="6.6524">
        <ele>1158.7</ele>
        <time>2024-05-26T14:17:36Z</time>
      </trkpt>
      <trkpt lat="43.73269" lon="6.65239">
        <ele>1158.6</ele>
        <time>2024-05-26T14:17:37Z</time>
      </trkpt>
      <trkpt lat="43.73268" lon="6.65236">
        <ele>1158.6</ele>
        <time>2024-05-26T14:17:38Z</time>
      </trkpt>
      <trkpt lat="43.73267" lon="6.65235">
        <ele>1158.6</ele>
        <time>2024-05-26T14:17:39Z</time>
      </trkpt>
      <trkpt lat="43.73266" lon="6.65233">
        <ele>1158.7</ele>
        <time>2024-05-26T14:17:40Z</time>
      </trkpt>
      <trkpt lat="43.73266" lon="6.65231">
        <ele>1158.7</ele>
        <time>2024-05-26T14:17:41Z</time>
      </trkpt>
      <trkpt lat="43.73265" lon="6.65229">
        <ele>1158.8</ele>
        <time>2024-05-26T14:17:42Z</time>
      </trkpt>
      <trkpt lat="43.73264" lon="6.65227">
        <ele>1158.8</ele>
        <time>2024-05-26T14:17:43Z</time>
      </trkpt>
      <trkpt lat="43.73264" lon="6.65225">
        <ele>1158.7</ele>
        <time>2024-05-26T14:17:44Z</time>
      </trkpt>
      <trkpt lat="43.73264" lon="6.65223">
        <ele>1158.7</ele>
        <time>2024-05-26T14:17:45Z</time>
      </trkpt>
      <trkpt lat="43.73265" lon="6.65221">
        <ele>1158.7</ele>
        <time>2024-05-26T14:17:46Z</time>
      </trkpt>
      <trkpt lat="43.73264" lon="6.65219">
        <ele>1158.7</ele>
        <time>2024-05-26T14:17:47Z</time>
      </trkpt>
      <trkpt lat="43.73263" lon="6.65218">
        <ele>1158.6</ele>
        <time>2024-05-26T14:17:48Z</time>
      </trkpt>
      <trkpt lat="43.73263" lon="6.65215">
        <ele>1158.6</ele>
        <time>2024-05-26T14:17:49Z</time>
      </trkpt>
      <trkpt lat="43.73263" lon="6.65213">
        <ele>1158.6</ele>
        <time>2024-05-26T14:17:50Z</time>
      </trkpt>
      <trkpt lat="43.73262" lon="6.65212">
        <ele>1158.5</ele>
        <time>2024-05-26T14:17:51Z</time>
      </trkpt>
      <trkpt lat="43.73262" lon="6.65209">
        <ele>1158.5</ele>
        <time>2024-05-26T14:17:52Z</time>
      </trkpt>
      <trkpt lat="43.73261" lon="6.65209">
        <ele>1158.5</ele>
        <time>2024-05-26T14:17:53Z</time>
      </trkpt>
      <trkpt lat="43.7326" lon="6.65207">
        <ele>1158.5</ele>
        <time>2024-05-26T14:17:54Z</time>
      </trkpt>
      <trkpt lat="43.7326" lon="6.65206">
        <ele>1158.5</ele>
        <time>2024-05-26T14:17:55Z</time>
      </trkpt>
      <trkpt lat="43.7326" lon="6.65204">
        <ele>1158.6</ele>
        <time>2024-05-26T14:17:56Z</time>
      </trkpt>
      <trkpt lat="43.7326" lon="6.65202">
        <ele>1158.6</ele>
        <time>2024-05-26T14:17:57Z</time>
      </trkpt>
      <trkpt lat="43.73259" lon="6.652">
        <ele>1158.6</ele>
        <time>2024-05-26T14:17:58Z</time>
      </trkpt>
      <trkpt lat="43.73259" lon="6.65198">
        <ele>1158.7</ele>
        <time>2024-05-26T14:17:59Z</time>
      </trkpt>
      <trkpt lat="43.73259" lon="6.65195">
        <ele>1158.6</ele>
        <time>2024-05-26T14:18:00Z</time>
      </trkpt>
      <trkpt lat="43.73259" lon="6.65194">
        <ele>1158.6</ele>
        <time>2024-05-26T14:18:01Z</time>
      </trkpt>
      <trkpt lat="43.73259" lon="6.6519">
        <ele>1158.6</ele>
        <time>2024-05-26T14:18:02Z</time>
      </trkpt>
      <trkpt lat="43.73258" lon="6.65189">
        <ele>1158.5</ele>
        <time>2024-05-26T14:18:03Z</time>
      </trkpt>
      <trkpt lat="43.73258" lon="6.65187">
        <ele>1158.5</ele>
        <time>2024-05-26T14:18:04Z</time>
      </trkpt>
      <trkpt lat="43.73257" lon="6.65185">
        <ele>1158.5</ele>
        <time>2024-05-26T14:18:05Z</time>
      </trkpt>
      <trkpt lat="43.73257" lon="6.65184">
        <ele>1158.5</ele>
        <time>2024-05-26T14:18:06Z</time>
      </trkpt>
      <trkpt lat="43.73255" lon="6.65183">
        <ele>1158.5</ele>
        <time>2024-05-26T14:18:07Z</time>
      </trkpt>
      <trkpt lat="43.73255" lon="6.65181">
        <ele>1158.4</ele>
        <time>2024-05-26T14:18:08Z</time>
      </trkpt>
      <trkpt lat="43.73254" lon="6.6518">
        <ele>1158.3</ele>
        <time>2024-05-26T14:18:09Z</time>
      </trkpt>
      <trkpt lat="43.73254" lon="6.65178">
        <ele>1158.3</ele>
        <time>2024-05-26T14:18:10Z</time>
      </trkpt>
      <trkpt lat="43.73254" lon="6.65177">
        <ele>1158.3</ele>
        <time>2024-05-26T14:18:11Z</time>
      </trkpt>
      <trkpt lat="43.73254" lon="6.65175">
        <ele>1158.4</ele>
        <time>2024-05-26T14:18:12Z</time>
      </trkpt>
      <trkpt lat="43.73253" lon="6.65174">
        <ele>1158.5</ele>
        <time>2024-05-26T14:18:13Z</time>
      </trkpt>
      <trkpt lat="43.73253" lon="6.65171">
        <ele>1158.4</ele>
        <time>2024-05-26T14:18:14Z</time>
      </trkpt>
      <trkpt lat="43.73253" lon="6.6517">
        <ele>1158.4</ele>
        <time>2024-05-26T14:18:15Z</time>
      </trkpt>
      <trkpt lat="43.73252" lon="6.65168">
        <ele>1158.4</ele>
        <time>2024-05-26T14:18:16Z</time>
      </trkpt>
      <trkpt lat="43.73252" lon="6.65167">
        <ele>1158.3</ele>
        <time>2024-05-26T14:18:17Z</time>
      </trkpt>
      <trkpt lat="43.73251" lon="6.65165">
        <ele>1158.3</ele>
        <time>2024-05-26T14:18:18Z</time>
      </trkpt>
      <trkpt lat="43.73251" lon="6.65164">
        <ele>1158.3</ele>
        <time>2024-05-26T14:18:19Z</time>
      </trkpt>
      <trkpt lat="43.73251" lon="6.65162">
        <ele>1158.4</ele>
        <time>2024-05-26T14:18:20Z</time>
      </trkpt>
      <trkpt lat="43.73251" lon="6.6516">
        <ele>1158.4</ele>
        <time>2024-05-26T14:18:21Z</time>
      </trkpt>
      <trkpt lat="43.73251" lon="6.65158">
        <ele>1158.4</ele>
        <time>2024-05-26T14:18:22Z</time>
      </trkpt>
      <trkpt lat="43.7325" lon="6.65157">
        <ele>1158.5</ele>
        <time>2024-05-26T14:18:23Z</time>
      </trkpt>
      <trkpt lat="43.7325" lon="6.65155">
        <ele>1158.4</ele>
        <time>2024-05-26T14:18:24Z</time>
      </trkpt>
      <trkpt lat="43.73249" lon="6.65154">
        <ele>1158.3</ele>
        <time>2024-05-26T14:18:25Z</time>
      </trkpt>
      <trkpt lat="43.73249" lon="6.65152">
        <ele>1158.5</ele>
        <time>2024-05-26T14:18:26Z</time>
      </trkpt>
      <trkpt lat="43.73249" lon="6.65151">
        <ele>1158.7</ele>
        <time>2024-05-26T14:18:27Z</time>
      </trkpt>
      <trkpt lat="43.73249" lon="6.65149">
        <ele>1158.8</ele>
        <time>2024-05-26T14:18:28Z</time>
      </trkpt>
      <trkpt lat="43.73249" lon="6.65148">
        <ele>1158.9</ele>
        <time>2024-05-26T14:18:29Z</time>
      </trkpt>
      <trkpt lat="43.73249" lon="6.65146">
        <ele>1159</ele>
        <time>2024-05-26T14:18:30Z</time>
      </trkpt>
      <trkpt lat="43.73249" lon="6.65145">
        <ele>1159.2</ele>
        <time>2024-05-26T14:18:31Z</time>
      </trkpt>
      <trkpt lat="43.73249" lon="6.65142">
        <ele>1159.3</ele>
        <time>2024-05-26T14:18:32Z</time>
      </trkpt>
      <trkpt lat="43.73249" lon="6.65141">
        <ele>1159.4</ele>
        <time>2024-05-26T14:18:33Z</time>
      </trkpt>
      <trkpt lat="43.73248" lon="6.6514">
        <ele>1159.5</ele>
        <time>2024-05-26T14:18:34Z</time>
      </trkpt>
      <trkpt lat="43.73248" lon="6.65138">
        <ele>1159.5</ele>
        <time>2024-05-26T14:18:35Z</time>
      </trkpt>
      <trkpt lat="43.73248" lon="6.65135">
        <ele>1159.6</ele>
        <time>2024-05-26T14:18:36Z</time>
      </trkpt>
      <trkpt lat="43.73248" lon="6.65133">
        <ele>1159.8</ele>
        <time>2024-05-26T14:18:37Z</time>
      </trkpt>
      <trkpt lat="43.73248" lon="6.6513">
        <ele>1159.9</ele>
        <time>2024-05-26T14:18:38Z</time>
      </trkpt>
      <trkpt lat="43.73247" lon="6.65128">
        <ele>1159.9</ele>
        <time>2024-05-26T14:18:39Z</time>
      </trkpt>
      <trkpt lat="43.73247" lon="6.65126">
        <ele>1159.9</ele>
        <time>2024-05-26T14:18:40Z</time>
      </trkpt>
      <trkpt lat="43.73246" lon="6.65123">
        <ele>1160</ele>
        <time>2024-05-26T14:18:41Z</time>
      </trkpt>
      <trkpt lat="43.73246" lon="6.65121">
        <ele>1160</ele>
        <time>2024-05-26T14:18:42Z</time>
      </trkpt>
      <trkpt lat="43.73246" lon="6.65119">
        <ele>1160.1</ele>
        <time>2024-05-26T14:18:43Z</time>
      </trkpt>
      <trkpt lat="43.73246" lon="6.65117">
        <ele>1160.2</ele>
        <time>2024-05-26T14:18:44Z</time>
      </trkpt>
      <trkpt lat="43.73245" lon="6.65116">
        <ele>1160.3</ele>
        <time>2024-05-26T14:18:45Z</time>
      </trkpt>
      <trkpt lat="43.73245" lon="6.65114">
        <ele>1160.3</ele>
        <time>2024-05-26T14:18:46Z</time>
      </trkpt>
      <trkpt lat="43.73245" lon="6.65112">
        <ele>1160.3</ele>
        <time>2024-05-26T14:18:47Z</time>
      </trkpt>
      <trkpt lat="43.73245" lon="6.6511">
        <ele>1160.3</ele>
        <time>2024-05-26T14:18:48Z</time>
      </trkpt>
      <trkpt lat="43.73245" lon="6.65108">
        <ele>1160.4</ele>
        <time>2024-05-26T14:18:49Z</time>
      </trkpt>
      <trkpt lat="43.73245" lon="6.65105">
        <ele>1160.4</ele>
        <time>2024-05-26T14:18:50Z</time>
      </trkpt>
      <trkpt lat="43.73245" lon="6.65104">
        <ele>1160.4</ele>
        <time>2024-05-26T14:18:51Z</time>
      </trkpt>
      <trkpt lat="43.73244" lon="6.65103">
        <ele>1160.4</ele>
        <time>2024-05-26T14:18:52Z</time>
      </trkpt>
      <trkpt lat="43.73243" lon="6.65101">
        <ele>1160.5</ele>
        <time>2024-05-26T14:18:53Z</time>
      </trkpt>
      <trkpt lat="43.73243" lon="6.65099">
        <ele>1160.6</ele>
        <time>2024-05-26T14:18:54Z</time>
      </trkpt>
      <trkpt lat="43.73243" lon="6.65098">
        <ele>1160.7</ele>
        <time>2024-05-26T14:18:55Z</time>
      </trkpt>
      <trkpt lat="43.73243" lon="6.65097">
        <ele>1160.8</ele>
        <time>2024-05-26T14:18:56Z</time>
      </trkpt>
      <trkpt lat="43.73244" lon="6.65094">
        <ele>1161</ele>
        <time>2024-05-26T14:18:57Z</time>
      </trkpt>
      <trkpt lat="43.73243" lon="6.65092">
        <ele>1161.1</ele>
        <time>2024-05-26T14:18:58Z</time>
      </trkpt>
      <trkpt lat="43.73243" lon="6.6509">
        <ele>1161.2</ele>
        <time>2024-05-26T14:18:59Z</time>
      </trkpt>
      <trkpt lat="43.73244" lon="6.65087">
        <ele>1161.3</ele>
        <time>2024-05-26T14:19:00Z</time>
      </trkpt>
      <trkpt lat="43.73244" lon="6.65085">
        <ele>1161.4</ele>
        <time>2024-05-26T14:19:01Z</time>
      </trkpt>
      <trkpt lat="43.73244" lon="6.65083">
        <ele>1161.4</ele>
        <time>2024-05-26T14:19:02Z</time>
      </trkpt>
      <trkpt lat="43.73244" lon="6.65081">
        <ele>1161.5</ele>
        <time>2024-05-26T14:19:03Z</time>
      </trkpt>
      <trkpt lat="43.73244" lon="6.6508">
        <ele>1161.5</ele>
        <time>2024-05-26T14:19:04Z</time>
      </trkpt>
      <trkpt lat="43.73245" lon="6.65078">
        <ele>1161.5</ele>
        <time>2024-05-26T14:19:05Z</time>
      </trkpt>
      <trkpt lat="43.73244" lon="6.65076">
        <ele>1161.8</ele>
        <time>2024-05-26T14:19:06Z</time>
      </trkpt>
      <trkpt lat="43.73244" lon="6.65076">
        <ele>1161.9</ele>
        <time>2024-05-26T14:19:07Z</time>
      </trkpt>
      <trkpt lat="43.73244" lon="6.65075">
        <ele>1161.8</ele>
        <time>2024-05-26T14:19:08Z</time>
      </trkpt>
      <trkpt lat="43.73244" lon="6.65075">
        <ele>1161.9</ele>
        <time>2024-05-26T14:19:09Z</time>
      </trkpt>
      <trkpt lat="43.73243" lon="6.65075">
        <ele>1162</ele>
        <time>2024-05-26T14:19:10Z</time>
      </trkpt>
      <trkpt lat="43.73243" lon="6.65075">
        <ele>1162</ele>
        <time>2024-05-26T14:19:11Z</time>
      </trkpt>
      <trkpt lat="43.73243" lon="6.65073">
        <ele>1162</ele>
        <time>2024-05-26T14:19:12Z</time>
      </trkpt>
      <trkpt lat="43.73242" lon="6.65072">
        <ele>1162.1</ele>
        <time>2024-05-26T14:19:13Z</time>
      </trkpt>
      <trkpt lat="43.73243" lon="6.6507">
        <ele>1162.1</ele>
        <time>2024-05-26T14:19:14Z</time>
      </trkpt>
      <trkpt lat="43.73242" lon="6.65069">
        <ele>1162.2</ele>
        <time>2024-05-26T14:19:15Z</time>
      </trkpt>
      <trkpt lat="43.73243" lon="6.65067">
        <ele>1162.3</ele>
        <time>2024-05-26T14:19:16Z</time>
      </trkpt>
      <trkpt lat="43.73241" lon="6.65064">
        <ele>1162.4</ele>
        <time>2024-05-26T14:19:17Z</time>
      </trkpt>
      <trkpt lat="43.73242" lon="6.65061">
        <ele>1162.5</ele>
        <time>2024-05-26T14:19:18Z</time>
      </trkpt>
      <trkpt lat="43.73242" lon="6.65059">
        <ele>1162.5</ele>
        <time>2024-05-26T14:19:19Z</time>
      </trkpt>
      <trkpt lat="43.73242" lon="6.65056">
        <ele>1162.5</ele>
        <time>2024-05-26T14:19:20Z</time>
      </trkpt>
      <trkpt lat="43.73242" lon="6.65054">
        <ele>1162.3</ele>
        <time>2024-05-26T14:19:21Z</time>
      </trkpt>
      <trkpt lat="43.73242" lon="6.65052">
        <ele>1162.2</ele>
        <time>2024-05-26T14:19:22Z</time>
      </trkpt>
      <trkpt lat="43.73242" lon="6.6505">
        <ele>1162.1</ele>
        <time>2024-05-26T14:19:23Z</time>
      </trkpt>
      <trkpt lat="43.73241" lon="6.65048">
        <ele>1162.1</ele>
        <time>2024-05-26T14:19:24Z</time>
      </trkpt>
      <trkpt lat="43.73241" lon="6.65047">
        <ele>1161.9</ele>
        <time>2024-05-26T14:19:25Z</time>
      </trkpt>
      <trkpt lat="43.73241" lon="6.65045">
        <ele>1161.6</ele>
        <time>2024-05-26T14:19:26Z</time>
      </trkpt>
      <trkpt lat="43.7324" lon="6.65043">
        <ele>1161.5</ele>
        <time>2024-05-26T14:19:27Z</time>
      </trkpt>
      <trkpt lat="43.7324" lon="6.6504">
        <ele>1161.3</ele>
        <time>2024-05-26T14:19:28Z</time>
      </trkpt>
      <trkpt lat="43.73239" lon="6.65039">
        <ele>1161.1</ele>
        <time>2024-05-26T14:19:29Z</time>
      </trkpt>
      <trkpt lat="43.7324" lon="6.65037">
        <ele>1160.9</ele>
        <time>2024-05-26T14:19:30Z</time>
      </trkpt>
      <trkpt lat="43.73239" lon="6.65034">
        <ele>1160.7</ele>
        <time>2024-05-26T14:19:31Z</time>
      </trkpt>
      <trkpt lat="43.73238" lon="6.65032">
        <ele>1160.5</ele>
        <time>2024-05-26T14:19:32Z</time>
      </trkpt>
      <trkpt lat="43.73237" lon="6.65031">
        <ele>1160.4</ele>
        <time>2024-05-26T14:19:33Z</time>
      </trkpt>
      <trkpt lat="43.73236" lon="6.65029">
        <ele>1160.3</ele>
        <time>2024-05-26T14:19:34Z</time>
      </trkpt>
      <trkpt lat="43.73235" lon="6.65028">
        <ele>1160.2</ele>
        <time>2024-05-26T14:19:35Z</time>
      </trkpt>
      <trkpt lat="43.73234" lon="6.65027">
        <ele>1160.1</ele>
        <time>2024-05-26T14:19:36Z</time>
      </trkpt>
      <trkpt lat="43.73234" lon="6.65025">
        <ele>1160</ele>
        <time>2024-05-26T14:19:37Z</time>
      </trkpt>
      <trkpt lat="43.73232" lon="6.65024">
        <ele>1159.9</ele>
        <time>2024-05-26T14:19:38Z</time>
      </trkpt>
      <trkpt lat="43.73232" lon="6.65022">
        <ele>1159.9</ele>
        <time>2024-05-26T14:19:39Z</time>
      </trkpt>
      <trkpt lat="43.73231" lon="6.65021">
        <ele>1159.8</ele>
        <time>2024-05-26T14:19:40Z</time>
      </trkpt>
      <trkpt lat="43.7323" lon="6.65019">
        <ele>1159.8</ele>
        <time>2024-05-26T14:19:41Z</time>
      </trkpt>
      <trkpt lat="43.73231" lon="6.65016">
        <ele>1159.7</ele>
        <time>2024-05-26T14:19:42Z</time>
      </trkpt>
      <trkpt lat="43.7323" lon="6.65015">
        <ele>1159.7</ele>
        <time>2024-05-26T14:19:43Z</time>
      </trkpt>
      <trkpt lat="43.7323" lon="6.65014">
        <ele>1159.6</ele>
        <time>2024-05-26T14:19:44Z</time>
      </trkpt>
      <trkpt lat="43.73229" lon="6.65013">
        <ele>1159.5</ele>
        <time>2024-05-26T14:19:45Z</time>
      </trkpt>
      <trkpt lat="43.73228" lon="6.65012">
        <ele>1159.4</ele>
        <time>2024-05-26T14:19:46Z</time>
      </trkpt>
      <trkpt lat="43.73228" lon="6.65009">
        <ele>1159.3</ele>
        <time>2024-05-26T14:19:47Z</time>
      </trkpt>
      <trkpt lat="43.73226" lon="6.65008">
        <ele>1159.3</ele>
        <time>2024-05-26T14:19:48Z</time>
      </trkpt>
      <trkpt lat="43.73226" lon="6.65006">
        <ele>1159.2</ele>
        <time>2024-05-26T14:19:49Z</time>
      </trkpt>
      <trkpt lat="43.73225" lon="6.65004">
        <ele>1159.2</ele>
        <time>2024-05-26T14:19:50Z</time>
      </trkpt>
      <trkpt lat="43.73224" lon="6.65004">
        <ele>1159.2</ele>
        <time>2024-05-26T14:19:51Z</time>
      </trkpt>
      <trkpt lat="43.73223" lon="6.65002">
        <ele>1159.1</ele>
        <time>2024-05-26T14:19:52Z</time>
      </trkpt>
      <trkpt lat="43.73224" lon="6.65">
        <ele>1159.1</ele>
        <time>2024-05-26T14:19:53Z</time>
      </trkpt>
      <trkpt lat="43.73223" lon="6.64998">
        <ele>1159</ele>
        <time>2024-05-26T14:19:54Z</time>
      </trkpt>
      <trkpt lat="43.73223" lon="6.64996">
        <ele>1159.1</ele>
        <time>2024-05-26T14:19:55Z</time>
      </trkpt>
      <trkpt lat="43.73223" lon="6.64995">
        <ele>1159.1</ele>
        <time>2024-05-26T14:19:56Z</time>
      </trkpt>
      <trkpt lat="43.73222" lon="6.64994">
        <ele>1159.1</ele>
        <time>2024-05-26T14:19:57Z</time>
      </trkpt>
      <trkpt lat="43.73222" lon="6.64992">
        <ele>1159.1</ele>
        <time>2024-05-26T14:19:58Z</time>
      </trkpt>
      <trkpt lat="43.73221" lon="6.64991">
        <ele>1159.1</ele>
        <time>2024-05-26T14:19:59Z</time>
      </trkpt>
      <trkpt lat="43.7322" lon="6.64989">
        <ele>1159</ele>
        <time>2024-05-26T14:20:00Z</time>
      </trkpt>
      <trkpt lat="43.7322" lon="6.64988">
        <ele>1159</ele>
        <time>2024-05-26T14:20:01Z</time>
      </trkpt>
      <trkpt lat="43.73219" lon="6.64987">
        <ele>1158.9</ele>
        <time>2024-05-26T14:20:02Z</time>
      </trkpt>
      <trkpt lat="43.73218" lon="6.64986">
        <ele>1158.8</ele>
        <time>2024-05-26T14:20:03Z</time>
      </trkpt>
      <trkpt lat="43.73217" lon="6.64985">
        <ele>1158.8</ele>
        <time>2024-05-26T14:20:04Z</time>
      </trkpt>
      <trkpt lat="43.73217" lon="6.64985">
        <ele>1158.7</ele>
        <time>2024-05-26T14:20:05Z</time>
      </trkpt>
      <trkpt lat="43.73217" lon="6.64982">
        <ele>1158.7</ele>
        <time>2024-05-26T14:20:06Z</time>
      </trkpt>
      <trkpt lat="43.73217" lon="6.6498">
        <ele>1158.6</ele>
        <time>2024-05-26T14:20:07Z</time>
      </trkpt>
      <trkpt lat="43.73216" lon="6.64979">
        <ele>1158.6</ele>
        <time>2024-05-26T14:20:08Z</time>
      </trkpt>
      <trkpt lat="43.73215" lon="6.64978">
        <ele>1158.6</ele>
        <time>2024-05-26T14:20:09Z</time>
      </trkpt>
      <trkpt lat="43.73215" lon="6.64977">
        <ele>1158.5</ele>
        <time>2024-05-26T14:20:10Z</time>
      </trkpt>
      <trkpt lat="43.73214" lon="6.64976">
        <ele>1158.4</ele>
        <time>2024-05-26T14:20:11Z</time>
      </trkpt>
      <trkpt lat="43.73213" lon="6.64976">
        <ele>1158.2</ele>
        <time>2024-05-26T14:20:12Z</time>
      </trkpt>
      <trkpt lat="43.73213" lon="6.64975">
        <ele>1158.1</ele>
        <time>2024-05-26T14:20:13Z</time>
      </trkpt>
      <trkpt lat="43.73212" lon="6.64974">
        <ele>1158</ele>
        <time>2024-05-26T14:20:14Z</time>
      </trkpt>
      <trkpt lat="43.73211" lon="6.64972">
        <ele>1158</ele>
        <time>2024-05-26T14:20:15Z</time>
      </trkpt>
      <trkpt lat="43.73212" lon="6.6497">
        <ele>1157.9</ele>
        <time>2024-05-26T14:20:16Z</time>
      </trkpt>
      <trkpt lat="43.73211" lon="6.64968">
        <ele>1157.8</ele>
        <time>2024-05-26T14:20:17Z</time>
      </trkpt>
      <trkpt lat="43.73211" lon="6.64966">
        <ele>1157.7</ele>
        <time>2024-05-26T14:20:18Z</time>
      </trkpt>
      <trkpt lat="43.73211" lon="6.64964">
        <ele>1157.7</ele>
        <time>2024-05-26T14:20:19Z</time>
      </trkpt>
      <trkpt lat="43.7321" lon="6.64964">
        <ele>1157.7</ele>
        <time>2024-05-26T14:20:20Z</time>
      </trkpt>
      <trkpt lat="43.73209" lon="6.64963">
        <ele>1157.8</ele>
        <time>2024-05-26T14:20:21Z</time>
      </trkpt>
      <trkpt lat="43.73209" lon="6.64961">
        <ele>1157.9</ele>
        <time>2024-05-26T14:20:22Z</time>
      </trkpt>
      <trkpt lat="43.73207" lon="6.6496">
        <ele>1158</ele>
        <time>2024-05-26T14:20:23Z</time>
      </trkpt>
      <trkpt lat="43.73206" lon="6.64958">
        <ele>1158</ele>
        <time>2024-05-26T14:20:24Z</time>
      </trkpt>
      <trkpt lat="43.73205" lon="6.64956">
        <ele>1158</ele>
        <time>2024-05-26T14:20:25Z</time>
      </trkpt>
      <trkpt lat="43.73204" lon="6.64956">
        <ele>1157.9</ele>
        <time>2024-05-26T14:20:26Z</time>
      </trkpt>
      <trkpt lat="43.73204" lon="6.64955">
        <ele>1157.8</ele>
        <time>2024-05-26T14:20:27Z</time>
      </trkpt>
      <trkpt lat="43.73204" lon="6.64953">
        <ele>1157.7</ele>
        <time>2024-05-26T14:20:28Z</time>
      </trkpt>
      <trkpt lat="43.73202" lon="6.64952">
        <ele>1157.5</ele>
        <time>2024-05-26T14:20:29Z</time>
      </trkpt>
      <trkpt lat="43.73202" lon="6.6495">
        <ele>1157.5</ele>
        <time>2024-05-26T14:20:30Z</time>
      </trkpt>
      <trkpt lat="43.73201" lon="6.6495">
        <ele>1157.4</ele>
        <time>2024-05-26T14:20:31Z</time>
      </trkpt>
      <trkpt lat="43.732" lon="6.64949">
        <ele>1157.4</ele>
        <time>2024-05-26T14:20:32Z</time>
      </trkpt>
      <trkpt lat="43.73199" lon="6.64947">
        <ele>1157.3</ele>
        <time>2024-05-26T14:20:33Z</time>
      </trkpt>
      <trkpt lat="43.73197" lon="6.64946">
        <ele>1157.2</ele>
        <time>2024-05-26T14:20:34Z</time>
      </trkpt>
      <trkpt lat="43.73197" lon="6.64945">
        <ele>1157.1</ele>
        <time>2024-05-26T14:20:35Z</time>
      </trkpt>
      <trkpt lat="43.73196" lon="6.64944">
        <ele>1157.1</ele>
        <time>2024-05-26T14:20:36Z</time>
      </trkpt>
      <trkpt lat="43.73195" lon="6.64942">
        <ele>1157</ele>
        <time>2024-05-26T14:20:37Z</time>
      </trkpt>
      <trkpt lat="43.73193" lon="6.64942">
        <ele>1157</ele>
        <time>2024-05-26T14:20:38Z</time>
      </trkpt>
      <trkpt lat="43.73192" lon="6.64942">
        <ele>1156.9</ele>
        <time>2024-05-26T14:20:39Z</time>
      </trkpt>
      <trkpt lat="43.7319" lon="6.64942">
        <ele>1156.9</ele>
        <time>2024-05-26T14:20:40Z</time>
      </trkpt>
      <trkpt lat="43.73189" lon="6.64941">
        <ele>1156.8</ele>
        <time>2024-05-26T14:20:41Z</time>
      </trkpt>
      <trkpt lat="43.73188" lon="6.64941">
        <ele>1156.7</ele>
        <time>2024-05-26T14:20:42Z</time>
      </trkpt>
      <trkpt lat="43.73187" lon="6.6494">
        <ele>1156.7</ele>
        <time>2024-05-26T14:20:43Z</time>
      </trkpt>
      <trkpt lat="43.73186" lon="6.6494">
        <ele>1156.7</ele>
        <time>2024-05-26T14:20:44Z</time>
      </trkpt>
      <trkpt lat="43.73185" lon="6.6494">
        <ele>1156.6</ele>
        <time>2024-05-26T14:20:45Z</time>
      </trkpt>
      <trkpt lat="43.73184" lon="6.64939">
        <ele>1156.6</ele>
        <time>2024-05-26T14:20:46Z</time>
      </trkpt>
      <trkpt lat="43.73183" lon="6.64938">
        <ele>1156.6</ele>
        <time>2024-05-26T14:20:47Z</time>
      </trkpt>
      <trkpt lat="43.73182" lon="6.64937">
        <ele>1156.6</ele>
        <time>2024-05-26T14:20:48Z</time>
      </trkpt>
      <trkpt lat="43.73181" lon="6.64937">
        <ele>1156.4</ele>
        <time>2024-05-26T14:20:49Z</time>
      </trkpt>
      <trkpt lat="43.73179" lon="6.64937">
        <ele>1156.4</ele>
        <time>2024-05-26T14:20:50Z</time>
      </trkpt>
      <trkpt lat="43.73178" lon="6.64936">
        <ele>1156.4</ele>
        <time>2024-05-26T14:20:51Z</time>
      </trkpt>
      <trkpt lat="43.73178" lon="6.64935">
        <ele>1156.4</ele>
        <time>2024-05-26T14:20:52Z</time>
      </trkpt>
      <trkpt lat="43.73177" lon="6.64934">
        <ele>1156.3</ele>
        <time>2024-05-26T14:20:53Z</time>
      </trkpt>
      <trkpt lat="43.73177" lon="6.64933">
        <ele>1156.4</ele>
        <time>2024-05-26T14:20:54Z</time>
      </trkpt>
      <trkpt lat="43.73176" lon="6.64932">
        <ele>1156.4</ele>
        <time>2024-05-26T14:20:55Z</time>
      </trkpt>
      <trkpt lat="43.73175" lon="6.64931">
        <ele>1156.2</ele>
        <time>2024-05-26T14:20:56Z</time>
      </trkpt>
      <trkpt lat="43.73174" lon="6.6493">
        <ele>1156.3</ele>
        <time>2024-05-26T14:20:57Z</time>
      </trkpt>
      <trkpt lat="43.73174" lon="6.64929">
        <ele>1156.2</ele>
        <time>2024-05-26T14:20:58Z</time>
      </trkpt>
      <trkpt lat="43.73173" lon="6.64928">
        <ele>1156.1</ele>
        <time>2024-05-26T14:20:59Z</time>
      </trkpt>
      <trkpt lat="43.73173" lon="6.64927">
        <ele>1156.1</ele>
        <time>2024-05-26T14:21:00Z</time>
      </trkpt>
      <trkpt lat="43.73172" lon="6.64925">
        <ele>1156.1</ele>
        <time>2024-05-26T14:21:01Z</time>
      </trkpt>
      <trkpt lat="43.73172" lon="6.64924">
        <ele>1156</ele>
        <time>2024-05-26T14:21:02Z</time>
      </trkpt>
      <trkpt lat="43.73171" lon="6.64922">
        <ele>1156</ele>
        <time>2024-05-26T14:21:03Z</time>
      </trkpt>
      <trkpt lat="43.7317" lon="6.64921">
        <ele>1156</ele>
        <time>2024-05-26T14:21:04Z</time>
      </trkpt>
      <trkpt lat="43.73169" lon="6.64919">
        <ele>1156.1</ele>
        <time>2024-05-26T14:21:05Z</time>
      </trkpt>
      <trkpt lat="43.73168" lon="6.64918">
        <ele>1156.2</ele>
        <time>2024-05-26T14:21:06Z</time>
      </trkpt>
      <trkpt lat="43.73167" lon="6.64917">
        <ele>1156.3</ele>
        <time>2024-05-26T14:21:07Z</time>
      </trkpt>
      <trkpt lat="43.73166" lon="6.64916">
        <ele>1156.3</ele>
        <time>2024-05-26T14:21:08Z</time>
      </trkpt>
      <trkpt lat="43.73165" lon="6.64915">
        <ele>1156.4</ele>
        <time>2024-05-26T14:21:09Z</time>
      </trkpt>
      <trkpt lat="43.73164" lon="6.64913">
        <ele>1156.4</ele>
        <time>2024-05-26T14:21:10Z</time>
      </trkpt>
      <trkpt lat="43.73163" lon="6.64912">
        <ele>1156.4</ele>
        <time>2024-05-26T14:21:11Z</time>
      </trkpt>
      <trkpt lat="43.73163" lon="6.64911">
        <ele>1156.4</ele>
        <time>2024-05-26T14:21:12Z</time>
      </trkpt>
      <trkpt lat="43.73162" lon="6.64911">
        <ele>1156.4</ele>
        <time>2024-05-26T14:21:13Z</time>
      </trkpt>
      <trkpt lat="43.73161" lon="6.6491">
        <ele>1156.3</ele>
        <time>2024-05-26T14:21:14Z</time>
      </trkpt>
      <trkpt lat="43.73161" lon="6.64909">
        <ele>1156.3</ele>
        <time>2024-05-26T14:21:15Z</time>
      </trkpt>
      <trkpt lat="43.7316" lon="6.64907">
        <ele>1156.3</ele>
        <time>2024-05-26T14:21:16Z</time>
      </trkpt>
      <trkpt lat="43.7316" lon="6.64906">
        <ele>1156.2</ele>
        <time>2024-05-26T14:21:17Z</time>
      </trkpt>
      <trkpt lat="43.7316" lon="6.64905">
        <ele>1156.1</ele>
        <time>2024-05-26T14:21:18Z</time>
      </trkpt>
      <trkpt lat="43.73159" lon="6.64904">
        <ele>1156.1</ele>
        <time>2024-05-26T14:21:19Z</time>
      </trkpt>
      <trkpt lat="43.73159" lon="6.64903">
        <ele>1156.1</ele>
        <time>2024-05-26T14:21:20Z</time>
      </trkpt>
      <trkpt lat="43.73159" lon="6.64901">
        <ele>1156</ele>
        <time>2024-05-26T14:21:21Z</time>
      </trkpt>
      <trkpt lat="43.73158" lon="6.649">
        <ele>1155.8</ele>
        <time>2024-05-26T14:21:22Z</time>
      </trkpt>
      <trkpt lat="43.73158" lon="6.64898">
        <ele>1155.5</ele>
        <time>2024-05-26T14:21:23Z</time>
      </trkpt>
      <trkpt lat="43.73157" lon="6.64897">
        <ele>1155.4</ele>
        <time>2024-05-26T14:21:24Z</time>
      </trkpt>
      <trkpt lat="43.73157" lon="6.64895">
        <ele>1155.2</ele>
        <time>2024-05-26T14:21:25Z</time>
      </trkpt>
      <trkpt lat="43.73157" lon="6.64894">
        <ele>1155.1</ele>
        <time>2024-05-26T14:21:26Z</time>
      </trkpt>
      <trkpt lat="43.73156" lon="6.64893">
        <ele>1154.8</ele>
        <time>2024-05-26T14:21:27Z</time>
      </trkpt>
      <trkpt lat="43.73156" lon="6.64891">
        <ele>1154.7</ele>
        <time>2024-05-26T14:21:28Z</time>
      </trkpt>
      <trkpt lat="43.73155" lon="6.64889">
        <ele>1154.6</ele>
        <time>2024-05-26T14:21:29Z</time>
      </trkpt>
      <trkpt lat="43.73154" lon="6.64888">
        <ele>1154.4</ele>
        <time>2024-05-26T14:21:30Z</time>
      </trkpt>
      <trkpt lat="43.73154" lon="6.64887">
        <ele>1154.3</ele>
        <time>2024-05-26T14:21:31Z</time>
      </trkpt>
      <trkpt lat="43.73154" lon="6.64884">
        <ele>1154.2</ele>
        <time>2024-05-26T14:21:32Z</time>
      </trkpt>
      <trkpt lat="43.73154" lon="6.64882">
        <ele>1154.1</ele>
        <time>2024-05-26T14:21:33Z</time>
      </trkpt>
      <trkpt lat="43.73154" lon="6.6488">
        <ele>1153.9</ele>
        <time>2024-05-26T14:21:34Z</time>
      </trkpt>
      <trkpt lat="43.73153" lon="6.64879">
        <ele>1153.6</ele>
        <time>2024-05-26T14:21:35Z</time>
      </trkpt>
      <trkpt lat="43.73153" lon="6.64878">
        <ele>1153.3</ele>
        <time>2024-05-26T14:21:36Z</time>
      </trkpt>
      <trkpt lat="43.73153" lon="6.64877">
        <ele>1153.1</ele>
        <time>2024-05-26T14:21:37Z</time>
      </trkpt>
      <trkpt lat="43.73152" lon="6.64875">
        <ele>1153</ele>
        <time>2024-05-26T14:21:38Z</time>
      </trkpt>
      <trkpt lat="43.73152" lon="6.64874">
        <ele>1152.8</ele>
        <time>2024-05-26T14:21:39Z</time>
      </trkpt>
      <trkpt lat="43.73152" lon="6.64871">
        <ele>1152.6</ele>
        <time>2024-05-26T14:21:40Z</time>
      </trkpt>
      <trkpt lat="43.73152" lon="6.64868">
        <ele>1152.5</ele>
        <time>2024-05-26T14:21:41Z</time>
      </trkpt>
      <trkpt lat="43.73152" lon="6.64866">
        <ele>1152.2</ele>
        <time>2024-05-26T14:21:42Z</time>
      </trkpt>
      <trkpt lat="43.7315" lon="6.64865">
        <ele>1151.9</ele>
        <time>2024-05-26T14:21:43Z</time>
      </trkpt>
      <trkpt lat="43.7315" lon="6.64864">
        <ele>1151.7</ele>
        <time>2024-05-26T14:21:44Z</time>
      </trkpt>
      <trkpt lat="43.73151" lon="6.64863">
        <ele>1151.6</ele>
        <time>2024-05-26T14:21:45Z</time>
      </trkpt>
      <trkpt lat="43.73151" lon="6.64861">
        <ele>1151.4</ele>
        <time>2024-05-26T14:21:46Z</time>
      </trkpt>
      <trkpt lat="43.7315" lon="6.6486">
        <ele>1151.2</ele>
        <time>2024-05-26T14:21:47Z</time>
      </trkpt>
      <trkpt lat="43.7315" lon="6.64859">
        <ele>1151.1</ele>
        <time>2024-05-26T14:21:48Z</time>
      </trkpt>
      <trkpt lat="43.7315" lon="6.64858">
        <ele>1150.9</ele>
        <time>2024-05-26T14:21:49Z</time>
      </trkpt>
      <trkpt lat="43.7315" lon="6.64857">
        <ele>1150.8</ele>
        <time>2024-05-26T14:21:50Z</time>
      </trkpt>
      <trkpt lat="43.7315" lon="6.64855">
        <ele>1150.8</ele>
        <time>2024-05-26T14:21:51Z</time>
      </trkpt>
      <trkpt lat="43.7315" lon="6.64853">
        <ele>1150.6</ele>
        <time>2024-05-26T14:21:52Z</time>
      </trkpt>
      <trkpt lat="43.7315" lon="6.64851">
        <ele>1150.5</ele>
        <time>2024-05-26T14:21:53Z</time>
      </trkpt>
      <trkpt lat="43.73149" lon="6.6485">
        <ele>1150.5</ele>
        <time>2024-05-26T14:21:54Z</time>
      </trkpt>
      <trkpt lat="43.73149" lon="6.64849">
        <ele>1150.3</ele>
        <time>2024-05-26T14:21:55Z</time>
      </trkpt>
      <trkpt lat="43.73148" lon="6.64848">
        <ele>1150.1</ele>
        <time>2024-05-26T14:21:56Z</time>
      </trkpt>
      <trkpt lat="43.73148" lon="6.64847">
        <ele>1150</ele>
        <time>2024-05-26T14:21:57Z</time>
      </trkpt>
      <trkpt lat="43.73149" lon="6.64846">
        <ele>1149.9</ele>
        <time>2024-05-26T14:21:58Z</time>
      </trkpt>
      <trkpt lat="43.73148" lon="6.64845">
        <ele>1149.7</ele>
        <time>2024-05-26T14:21:59Z</time>
      </trkpt>
      <trkpt lat="43.73149" lon="6.64843">
        <ele>1149.5</ele>
        <time>2024-05-26T14:22:00Z</time>
      </trkpt>
      <trkpt lat="43.73149" lon="6.64843">
        <ele>1149.3</ele>
        <time>2024-05-26T14:22:01Z</time>
      </trkpt>
      <trkpt lat="43.7315" lon="6.64841">
        <ele>1149.2</ele>
        <time>2024-05-26T14:22:02Z</time>
      </trkpt>
      <trkpt lat="43.7315" lon="6.64839">
        <ele>1149.1</ele>
        <time>2024-05-26T14:22:03Z</time>
      </trkpt>
      <trkpt lat="43.7315" lon="6.64838">
        <ele>1148.9</ele>
        <time>2024-05-26T14:22:04Z</time>
      </trkpt>
      <trkpt lat="43.7315" lon="6.64837">
        <ele>1148.8</ele>
        <time>2024-05-26T14:22:05Z</time>
      </trkpt>
      <trkpt lat="43.7315" lon="6.64836">
        <ele>1148.7</ele>
        <time>2024-05-26T14:22:06Z</time>
      </trkpt>
      <trkpt lat="43.7315" lon="6.64834">
        <ele>1148.6</ele>
        <time>2024-05-26T14:22:07Z</time>
      </trkpt>
      <trkpt lat="43.7315" lon="6.64832">
        <ele>1148.5</ele>
        <time>2024-05-26T14:22:08Z</time>
      </trkpt>
      <trkpt lat="43.7315" lon="6.64831">
        <ele>1148.5</ele>
        <time>2024-05-26T14:22:09Z</time>
      </trkpt>
      <trkpt lat="43.73149" lon="6.64828">
        <ele>1148.4</ele>
        <time>2024-05-26T14:22:10Z</time>
      </trkpt>
      <trkpt lat="43.73149" lon="6.64827">
        <ele>1148.3</ele>
        <time>2024-05-26T14:22:11Z</time>
      </trkpt>
      <trkpt lat="43.73149" lon="6.64826">
        <ele>1148.2</ele>
        <time>2024-05-26T14:22:12Z</time>
      </trkpt>
      <trkpt lat="43.73149" lon="6.64823">
        <ele>1148.1</ele>
        <time>2024-05-26T14:22:13Z</time>
      </trkpt>
      <trkpt lat="43.73148" lon="6.64821">
        <ele>1148.1</ele>
        <time>2024-05-26T14:22:14Z</time>
      </trkpt>
      <trkpt lat="43.73148" lon="6.6482">
        <ele>1148</ele>
        <time>2024-05-26T14:22:15Z</time>
      </trkpt>
      <trkpt lat="43.73148" lon="6.64818">
        <ele>1148</ele>
        <time>2024-05-26T14:22:16Z</time>
      </trkpt>
      <trkpt lat="43.73148" lon="6.64815">
        <ele>1147.9</ele>
        <time>2024-05-26T14:22:17Z</time>
      </trkpt>
      <trkpt lat="43.73147" lon="6.64813">
        <ele>1147.8</ele>
        <time>2024-05-26T14:22:18Z</time>
      </trkpt>
      <trkpt lat="43.73147" lon="6.64812">
        <ele>1147.7</ele>
        <time>2024-05-26T14:22:19Z</time>
      </trkpt>
      <trkpt lat="43.73147" lon="6.64811">
        <ele>1147.6</ele>
        <time>2024-05-26T14:22:20Z</time>
      </trkpt>
      <trkpt lat="43.73146" lon="6.64811">
        <ele>1147.4</ele>
        <time>2024-05-26T14:22:21Z</time>
      </trkpt>
      <trkpt lat="43.73145" lon="6.64811">
        <ele>1147.3</ele>
        <time>2024-05-26T14:22:22Z</time>
      </trkpt>
      <trkpt lat="43.73144" lon="6.64811">
        <ele>1147</ele>
        <time>2024-05-26T14:22:23Z</time>
      </trkpt>
      <trkpt lat="43.73144" lon="6.6481">
        <ele>1146.9</ele>
        <time>2024-05-26T14:22:24Z</time>
      </trkpt>
      <trkpt lat="43.73142" lon="6.64809">
        <ele>1146.8</ele>
        <time>2024-05-26T14:22:25Z</time>
      </trkpt>
      <trkpt lat="43.73142" lon="6.64808">
        <ele>1146.6</ele>
        <time>2024-05-26T14:22:26Z</time>
      </trkpt>
      <trkpt lat="43.73141" lon="6.64806">
        <ele>1146.4</ele>
        <time>2024-05-26T14:22:27Z</time>
      </trkpt>
      <trkpt lat="43.7314" lon="6.64805">
        <ele>1146</ele>
        <time>2024-05-26T14:22:28Z</time>
      </trkpt>
      <trkpt lat="43.7314" lon="6.64803">
        <ele>1145.8</ele>
        <time>2024-05-26T14:22:29Z</time>
      </trkpt>
      <trkpt lat="43.73138" lon="6.64803">
        <ele>1145.5</ele>
        <time>2024-05-26T14:22:30Z</time>
      </trkpt>
      <trkpt lat="43.73137" lon="6.64802">
        <ele>1145.3</ele>
        <time>2024-05-26T14:22:31Z</time>
      </trkpt>
      <trkpt lat="43.73137" lon="6.64801">
        <ele>1145.1</ele>
        <time>2024-05-26T14:22:32Z</time>
      </trkpt>
      <trkpt lat="43.73137" lon="6.64799">
        <ele>1145</ele>
        <time>2024-05-26T14:22:33Z</time>
      </trkpt>
      <trkpt lat="43.73136" lon="6.64798">
        <ele>1144.9</ele>
        <time>2024-05-26T14:22:34Z</time>
      </trkpt>
      <trkpt lat="43.73134" lon="6.64796">
        <ele>1144.7</ele>
        <time>2024-05-26T14:22:35Z</time>
      </trkpt>
      <trkpt lat="43.73134" lon="6.64793">
        <ele>1144.6</ele>
        <time>2024-05-26T14:22:36Z</time>
      </trkpt>
      <trkpt lat="43.73133" lon="6.64793">
        <ele>1144.4</ele>
        <time>2024-05-26T14:22:37Z</time>
      </trkpt>
      <trkpt lat="43.73132" lon="6.64792">
        <ele>1144.2</ele>
        <time>2024-05-26T14:22:38Z</time>
      </trkpt>
      <trkpt lat="43.73132" lon="6.64791">
        <ele>1144</ele>
        <time>2024-05-26T14:22:39Z</time>
      </trkpt>
      <trkpt lat="43.73132" lon="6.64789">
        <ele>1143.8</ele>
        <time>2024-05-26T14:22:40Z</time>
      </trkpt>
      <trkpt lat="43.73131" lon="6.64788">
        <ele>1143.6</ele>
        <time>2024-05-26T14:22:41Z</time>
      </trkpt>
      <trkpt lat="43.73131" lon="6.64786">
        <ele>1143.5</ele>
        <time>2024-05-26T14:22:42Z</time>
      </trkpt>
      <trkpt lat="43.7313" lon="6.64784">
        <ele>1143.3</ele>
        <time>2024-05-26T14:22:43Z</time>
      </trkpt>
      <trkpt lat="43.7313" lon="6.64783">
        <ele>1143.1</ele>
        <time>2024-05-26T14:22:44Z</time>
      </trkpt>
      <trkpt lat="43.73129" lon="6.64782">
        <ele>1143</ele>
        <time>2024-05-26T14:22:45Z</time>
      </trkpt>
      <trkpt lat="43.73129" lon="6.64781">
        <ele>1142.6</ele>
        <time>2024-05-26T14:22:46Z</time>
      </trkpt>
      <trkpt lat="43.73128" lon="6.64781">
        <ele>1142.4</ele>
        <time>2024-05-26T14:22:47Z</time>
      </trkpt>
      <trkpt lat="43.73127" lon="6.64779">
        <ele>1142.2</ele>
        <time>2024-05-26T14:22:48Z</time>
      </trkpt>
      <trkpt lat="43.73126" lon="6.64778">
        <ele>1142.1</ele>
        <time>2024-05-26T14:22:49Z</time>
      </trkpt>
      <trkpt lat="43.73125" lon="6.64777">
        <ele>1141.9</ele>
        <time>2024-05-26T14:22:50Z</time>
      </trkpt>
      <trkpt lat="43.73125" lon="6.64776">
        <ele>1141.7</ele>
        <time>2024-05-26T14:22:51Z</time>
      </trkpt>
      <trkpt lat="43.73125" lon="6.64774">
        <ele>1141.5</ele>
        <time>2024-05-26T14:22:52Z</time>
      </trkpt>
      <trkpt lat="43.73124" lon="6.64773">
        <ele>1141.3</ele>
        <time>2024-05-26T14:22:53Z</time>
      </trkpt>
      <trkpt lat="43.73124" lon="6.64771">
        <ele>1141.1</ele>
        <time>2024-05-26T14:22:54Z</time>
      </trkpt>
      <trkpt lat="43.73123" lon="6.6477">
        <ele>1141</ele>
        <time>2024-05-26T14:22:55Z</time>
      </trkpt>
      <trkpt lat="43.73121" lon="6.64769">
        <ele>1140.8</ele>
        <time>2024-05-26T14:22:56Z</time>
      </trkpt>
      <trkpt lat="43.7312" lon="6.64768">
        <ele>1140.8</ele>
        <time>2024-05-26T14:22:57Z</time>
      </trkpt>
      <trkpt lat="43.73118" lon="6.64769">
        <ele>1140.8</ele>
        <time>2024-05-26T14:22:58Z</time>
      </trkpt>
      <trkpt lat="43.73118" lon="6.64769">
        <ele>1140.8</ele>
        <time>2024-05-26T14:22:59Z</time>
      </trkpt>
      <trkpt lat="43.73117" lon="6.64769">
        <ele>1140.7</ele>
        <time>2024-05-26T14:23:00Z</time>
      </trkpt>
      <trkpt lat="43.73115" lon="6.64768">
        <ele>1140.7</ele>
        <time>2024-05-26T14:23:01Z</time>
      </trkpt>
      <trkpt lat="43.73114" lon="6.64767">
        <ele>1140.7</ele>
        <time>2024-05-26T14:23:02Z</time>
      </trkpt>
      <trkpt lat="43.73113" lon="6.64767">
        <ele>1140.7</ele>
        <time>2024-05-26T14:23:03Z</time>
      </trkpt>
      <trkpt lat="43.73111" lon="6.64766">
        <ele>1140.6</ele>
        <time>2024-05-26T14:23:04Z</time>
      </trkpt>
      <trkpt lat="43.73112" lon="6.64764">
        <ele>1140.6</ele>
        <time>2024-05-26T14:23:05Z</time>
      </trkpt>
      <trkpt lat="43.73111" lon="6.64762">
        <ele>1140.5</ele>
        <time>2024-05-26T14:23:06Z</time>
      </trkpt>
      <trkpt lat="43.7311" lon="6.64761">
        <ele>1140.4</ele>
        <time>2024-05-26T14:23:07Z</time>
      </trkpt>
      <trkpt lat="43.7311" lon="6.64759">
        <ele>1140.4</ele>
        <time>2024-05-26T14:23:08Z</time>
      </trkpt>
      <trkpt lat="43.7311" lon="6.64757">
        <ele>1140.3</ele>
        <time>2024-05-26T14:23:09Z</time>
      </trkpt>
      <trkpt lat="43.73108" lon="6.64756">
        <ele>1140.2</ele>
        <time>2024-05-26T14:23:10Z</time>
      </trkpt>
      <trkpt lat="43.73108" lon="6.64754">
        <ele>1140.1</ele>
        <time>2024-05-26T14:23:11Z</time>
      </trkpt>
      <trkpt lat="43.73108" lon="6.64752">
        <ele>1140.1</ele>
        <time>2024-05-26T14:23:12Z</time>
      </trkpt>
      <trkpt lat="43.73107" lon="6.64751">
        <ele>1140</ele>
        <time>2024-05-26T14:23:13Z</time>
      </trkpt>
      <trkpt lat="43.73107" lon="6.64749">
        <ele>1140</ele>
        <time>2024-05-26T14:23:14Z</time>
      </trkpt>
      <trkpt lat="43.73106" lon="6.64748">
        <ele>1140</ele>
        <time>2024-05-26T14:23:15Z</time>
      </trkpt>
      <trkpt lat="43.73106" lon="6.64746">
        <ele>1139.9</ele>
        <time>2024-05-26T14:23:16Z</time>
      </trkpt>
      <trkpt lat="43.73106" lon="6.64744">
        <ele>1139.9</ele>
        <time>2024-05-26T14:23:17Z</time>
      </trkpt>
      <trkpt lat="43.73105" lon="6.64743">
        <ele>1139.9</ele>
        <time>2024-05-26T14:23:18Z</time>
      </trkpt>
      <trkpt lat="43.73104" lon="6.64742">
        <ele>1139.9</ele>
        <time>2024-05-26T14:23:19Z</time>
      </trkpt>
      <trkpt lat="43.73103" lon="6.6474">
        <ele>1139.9</ele>
        <time>2024-05-26T14:23:20Z</time>
      </trkpt>
      <trkpt lat="43.73102" lon="6.64739">
        <ele>1139.9</ele>
        <time>2024-05-26T14:23:21Z</time>
      </trkpt>
      <trkpt lat="43.73101" lon="6.64739">
        <ele>1139.9</ele>
        <time>2024-05-26T14:23:22Z</time>
      </trkpt>
      <trkpt lat="43.73099" lon="6.64738">
        <ele>1139.9</ele>
        <time>2024-05-26T14:23:23Z</time>
      </trkpt>
      <trkpt lat="43.73099" lon="6.64736">
        <ele>1140</ele>
        <time>2024-05-26T14:23:24Z</time>
      </trkpt>
      <trkpt lat="43.73098" lon="6.64735">
        <ele>1140</ele>
        <time>2024-05-26T14:23:25Z</time>
      </trkpt>
      <trkpt lat="43.73097" lon="6.64734">
        <ele>1140.1</ele>
        <time>2024-05-26T14:23:26Z</time>
      </trkpt>
      <trkpt lat="43.73096" lon="6.64732">
        <ele>1140.1</ele>
        <time>2024-05-26T14:23:27Z</time>
      </trkpt>
      <trkpt lat="43.73096" lon="6.64731">
        <ele>1140.2</ele>
        <time>2024-05-26T14:23:28Z</time>
      </trkpt>
      <trkpt lat="43.73096" lon="6.64729">
        <ele>1140.2</ele>
        <time>2024-05-26T14:23:29Z</time>
      </trkpt>
      <trkpt lat="43.73095" lon="6.64728">
        <ele>1140.2</ele>
        <time>2024-05-26T14:23:30Z</time>
      </trkpt>
      <trkpt lat="43.73095" lon="6.64727">
        <ele>1140.2</ele>
        <time>2024-05-26T14:23:31Z</time>
      </trkpt>
      <trkpt lat="43.73094" lon="6.64724">
        <ele>1140.2</ele>
        <time>2024-05-26T14:23:32Z</time>
      </trkpt>
      <trkpt lat="43.73093" lon="6.64723">
        <ele>1140.2</ele>
        <time>2024-05-26T14:23:33Z</time>
      </trkpt>
      <trkpt lat="43.73093" lon="6.64721">
        <ele>1140.2</ele>
        <time>2024-05-26T14:23:34Z</time>
      </trkpt>
      <trkpt lat="43.73093" lon="6.6472">
        <ele>1140.1</ele>
        <time>2024-05-26T14:23:35Z</time>
      </trkpt>
      <trkpt lat="43.73092" lon="6.64718">
        <ele>1140.1</ele>
        <time>2024-05-26T14:23:36Z</time>
      </trkpt>
      <trkpt lat="43.73092" lon="6.64717">
        <ele>1140</ele>
        <time>2024-05-26T14:23:37Z</time>
      </trkpt>
      <trkpt lat="43.73092" lon="6.64715">
        <ele>1139.8</ele>
        <time>2024-05-26T14:23:38Z</time>
      </trkpt>
      <trkpt lat="43.73091" lon="6.64713">
        <ele>1139.7</ele>
        <time>2024-05-26T14:23:39Z</time>
      </trkpt>
      <trkpt lat="43.73091" lon="6.64711">
        <ele>1139.4</ele>
        <time>2024-05-26T14:23:40Z</time>
      </trkpt>
      <trkpt lat="43.73091" lon="6.64709">
        <ele>1139.3</ele>
        <time>2024-05-26T14:23:41Z</time>
      </trkpt>
      <trkpt lat="43.7309" lon="6.64707">
        <ele>1139.2</ele>
        <time>2024-05-26T14:23:42Z</time>
      </trkpt>
      <trkpt lat="43.7309" lon="6.64706">
        <ele>1139.1</ele>
        <time>2024-05-26T14:23:43Z</time>
      </trkpt>
      <trkpt lat="43.73089" lon="6.64705">
        <ele>1139</ele>
        <time>2024-05-26T14:23:44Z</time>
      </trkpt>
      <trkpt lat="43.73089" lon="6.64703">
        <ele>1138.9</ele>
        <time>2024-05-26T14:23:45Z</time>
      </trkpt>
      <trkpt lat="43.73088" lon="6.64702">
        <ele>1138.6</ele>
        <time>2024-05-26T14:23:46Z</time>
      </trkpt>
      <trkpt lat="43.73088" lon="6.647">
        <ele>1138.4</ele>
        <time>2024-05-26T14:23:47Z</time>
      </trkpt>
      <trkpt lat="43.73087" lon="6.64698">
        <ele>1138.3</ele>
        <time>2024-05-26T14:23:48Z</time>
      </trkpt>
      <trkpt lat="43.73086" lon="6.64697">
        <ele>1138.2</ele>
        <time>2024-05-26T14:23:49Z</time>
      </trkpt>
      <trkpt lat="43.73085" lon="6.64696">
        <ele>1137.9</ele>
        <time>2024-05-26T14:23:50Z</time>
      </trkpt>
      <trkpt lat="43.73084" lon="6.64695">
        <ele>1137.7</ele>
        <time>2024-05-26T14:23:51Z</time>
      </trkpt>
      <trkpt lat="43.73083" lon="6.64694">
        <ele>1137.5</ele>
        <time>2024-05-26T14:23:52Z</time>
      </trkpt>
      <trkpt lat="43.73082" lon="6.64693">
        <ele>1137.3</ele>
        <time>2024-05-26T14:23:53Z</time>
      </trkpt>
      <trkpt lat="43.73081" lon="6.64692">
        <ele>1137</ele>
        <time>2024-05-26T14:23:54Z</time>
      </trkpt>
      <trkpt lat="43.7308" lon="6.64691">
        <ele>1136.8</ele>
        <time>2024-05-26T14:23:55Z</time>
      </trkpt>
      <trkpt lat="43.73078" lon="6.6469">
        <ele>1136.6</ele>
        <time>2024-05-26T14:23:56Z</time>
      </trkpt>
      <trkpt lat="43.73077" lon="6.64689">
        <ele>1136.5</ele>
        <time>2024-05-26T14:23:57Z</time>
      </trkpt>
      <trkpt lat="43.73076" lon="6.64688">
        <ele>1136.3</ele>
        <time>2024-05-26T14:23:58Z</time>
      </trkpt>
      <trkpt lat="43.73075" lon="6.64688">
        <ele>1136.1</ele>
        <time>2024-05-26T14:23:59Z</time>
      </trkpt>
      <trkpt lat="43.73074" lon="6.64687">
        <ele>1135.8</ele>
        <time>2024-05-26T14:24:00Z</time>
      </trkpt>
      <trkpt lat="43.73073" lon="6.64686">
        <ele>1135.7</ele>
        <time>2024-05-26T14:24:01Z</time>
      </trkpt>
      <trkpt lat="43.73073" lon="6.64684">
        <ele>1135.6</ele>
        <time>2024-05-26T14:24:02Z</time>
      </trkpt>
      <trkpt lat="43.73072" lon="6.64683">
        <ele>1135.5</ele>
        <time>2024-05-26T14:24:03Z</time>
      </trkpt>
      <trkpt lat="43.7307" lon="6.64682">
        <ele>1135.2</ele>
        <time>2024-05-26T14:24:04Z</time>
      </trkpt>
      <trkpt lat="43.73068" lon="6.64683">
        <ele>1135</ele>
        <time>2024-05-26T14:24:05Z</time>
      </trkpt>
      <trkpt lat="43.73068" lon="6.64682">
        <ele>1134.8</ele>
        <time>2024-05-26T14:24:06Z</time>
      </trkpt>
      <trkpt lat="43.73067" lon="6.64681">
        <ele>1134.6</ele>
        <time>2024-05-26T14:24:07Z</time>
      </trkpt>
      <trkpt lat="43.73065" lon="6.64681">
        <ele>1134.4</ele>
        <time>2024-05-26T14:24:08Z</time>
      </trkpt>
      <trkpt lat="43.73063" lon="6.64681">
        <ele>1134.3</ele>
        <time>2024-05-26T14:24:09Z</time>
      </trkpt>
      <trkpt lat="43.73062" lon="6.64681">
        <ele>1134.1</ele>
        <time>2024-05-26T14:24:10Z</time>
      </trkpt>
      <trkpt lat="43.73059" lon="6.64682">
        <ele>1134.1</ele>
        <time>2024-05-26T14:24:11Z</time>
      </trkpt>
      <trkpt lat="43.73058" lon="6.64682">
        <ele>1134</ele>
        <time>2024-05-26T14:24:12Z</time>
      </trkpt>
      <trkpt lat="43.73057" lon="6.64681">
        <ele>1134</ele>
        <time>2024-05-26T14:24:13Z</time>
      </trkpt>
      <trkpt lat="43.73056" lon="6.6468">
        <ele>1133.9</ele>
        <time>2024-05-26T14:24:14Z</time>
      </trkpt>
      <trkpt lat="43.73056" lon="6.64678">
        <ele>1134</ele>
        <time>2024-05-26T14:24:15Z</time>
      </trkpt>
      <trkpt lat="43.73055" lon="6.64678">
        <ele>1133.9</ele>
        <time>2024-05-26T14:24:16Z</time>
      </trkpt>
      <trkpt lat="43.73054" lon="6.64677">
        <ele>1133.8</ele>
        <time>2024-05-26T14:24:17Z</time>
      </trkpt>
      <trkpt lat="43.73052" lon="6.64677">
        <ele>1133.7</ele>
        <time>2024-05-26T14:24:18Z</time>
      </trkpt>
      <trkpt lat="43.73052" lon="6.64676">
        <ele>1133.7</ele>
        <time>2024-05-26T14:24:19Z</time>
      </trkpt>
      <trkpt lat="43.73052" lon="6.64675">
        <ele>1133.6</ele>
        <time>2024-05-26T14:24:20Z</time>
      </trkpt>
      <trkpt lat="43.7305" lon="6.64675">
        <ele>1133.7</ele>
        <time>2024-05-26T14:24:21Z</time>
      </trkpt>
      <trkpt lat="43.73048" lon="6.64675">
        <ele>1133.5</ele>
        <time>2024-05-26T14:24:22Z</time>
      </trkpt>
      <trkpt lat="43.73046" lon="6.64673">
        <ele>1133.5</ele>
        <time>2024-05-26T14:24:23Z</time>
      </trkpt>
      <trkpt lat="43.73044" lon="6.64673">
        <ele>1133.6</ele>
        <time>2024-05-26T14:24:24Z</time>
      </trkpt>
      <trkpt lat="43.73042" lon="6.64673">
        <ele>1133.6</ele>
        <time>2024-05-26T14:24:25Z</time>
      </trkpt>
      <trkpt lat="43.7304" lon="6.64673">
        <ele>1133.6</ele>
        <time>2024-05-26T14:24:26Z</time>
      </trkpt>
      <trkpt lat="43.73039" lon="6.64674">
        <ele>1133.7</ele>
        <time>2024-05-26T14:24:27Z</time>
      </trkpt>
      <trkpt lat="43.73037" lon="6.64674">
        <ele>1133.7</ele>
        <time>2024-05-26T14:24:28Z</time>
      </trkpt>
      <trkpt lat="43.73036" lon="6.64673">
        <ele>1133.8</ele>
        <time>2024-05-26T14:24:29Z</time>
      </trkpt>
      <trkpt lat="43.73034" lon="6.64673">
        <ele>1133.9</ele>
        <time>2024-05-26T14:24:30Z</time>
      </trkpt>
      <trkpt lat="43.73034" lon="6.64672">
        <ele>1134</ele>
        <time>2024-05-26T14:24:31Z</time>
      </trkpt>
      <trkpt lat="43.73032" lon="6.64671">
        <ele>1134</ele>
        <time>2024-05-26T14:24:32Z</time>
      </trkpt>
      <trkpt lat="43.73031" lon="6.6467">
        <ele>1134.1</ele>
        <time>2024-05-26T14:24:33Z</time>
      </trkpt>
      <trkpt lat="43.7303" lon="6.64669">
        <ele>1134.1</ele>
        <time>2024-05-26T14:24:34Z</time>
      </trkpt>
      <trkpt lat="43.73029" lon="6.64669">
        <ele>1134.3</ele>
        <time>2024-05-26T14:24:35Z</time>
      </trkpt>
      <trkpt lat="43.73027" lon="6.64668">
        <ele>1134.4</ele>
        <time>2024-05-26T14:24:36Z</time>
      </trkpt>
      <trkpt lat="43.73026" lon="6.64667">
        <ele>1134.5</ele>
        <time>2024-05-26T14:24:37Z</time>
      </trkpt>
      <trkpt lat="43.73026" lon="6.64665">
        <ele>1134.6</ele>
        <time>2024-05-26T14:24:38Z</time>
      </trkpt>
      <trkpt lat="43.73025" lon="6.64664">
        <ele>1134.7</ele>
        <time>2024-05-26T14:24:39Z</time>
      </trkpt>
      <trkpt lat="43.73025" lon="6.64663">
        <ele>1134.7</ele>
        <time>2024-05-26T14:24:40Z</time>
      </trkpt>
      <trkpt lat="43.73024" lon="6.64662">
        <ele>1134.8</ele>
        <time>2024-05-26T14:24:41Z</time>
      </trkpt>
      <trkpt lat="43.73023" lon="6.6466">
        <ele>1134.8</ele>
        <time>2024-05-26T14:24:42Z</time>
      </trkpt>
      <trkpt lat="43.73022" lon="6.6466">
        <ele>1134.8</ele>
        <time>2024-05-26T14:24:43Z</time>
      </trkpt>
      <trkpt lat="43.73021" lon="6.64658">
        <ele>1135</ele>
        <time>2024-05-26T14:24:44Z</time>
      </trkpt>
      <trkpt lat="43.73021" lon="6.64657">
        <ele>1135.1</ele>
        <time>2024-05-26T14:24:45Z</time>
      </trkpt>
      <trkpt lat="43.7302" lon="6.64655">
        <ele>1135.2</ele>
        <time>2024-05-26T14:24:46Z</time>
      </trkpt>
      <trkpt lat="43.73019" lon="6.64654">
        <ele>1135.2</ele>
        <time>2024-05-26T14:24:47Z</time>
      </trkpt>
      <trkpt lat="43.73018" lon="6.64652">
        <ele>1135.3</ele>
        <time>2024-05-26T14:24:48Z</time>
      </trkpt>
      <trkpt lat="43.73017" lon="6.64652">
        <ele>1135.3</ele>
        <time>2024-05-26T14:24:49Z</time>
      </trkpt>
      <trkpt lat="43.73016" lon="6.64651">
        <ele>1135.4</ele>
        <time>2024-05-26T14:24:50Z</time>
      </trkpt>
      <trkpt lat="43.73016" lon="6.64651">
        <ele>1135.5</ele>
        <time>2024-05-26T14:24:51Z</time>
      </trkpt>
      <trkpt lat="43.73015" lon="6.6465">
        <ele>1135.6</ele>
        <time>2024-05-26T14:24:52Z</time>
      </trkpt>
      <trkpt lat="43.73013" lon="6.6465">
        <ele>1135.5</ele>
        <time>2024-05-26T14:24:53Z</time>
      </trkpt>
      <trkpt lat="43.73012" lon="6.6465">
        <ele>1135.5</ele>
        <time>2024-05-26T14:24:54Z</time>
      </trkpt>
      <trkpt lat="43.7301" lon="6.6465">
        <ele>1135.5</ele>
        <time>2024-05-26T14:24:55Z</time>
      </trkpt>
      <trkpt lat="43.73009" lon="6.64649">
        <ele>1135.5</ele>
        <time>2024-05-26T14:24:56Z</time>
      </trkpt>
      <trkpt lat="43.73008" lon="6.64649">
        <ele>1135.5</ele>
        <time>2024-05-26T14:24:57Z</time>
      </trkpt>
      <trkpt lat="43.73007" lon="6.64649">
        <ele>1135.4</ele>
        <time>2024-05-26T14:24:58Z</time>
      </trkpt>
      <trkpt lat="43.73006" lon="6.64649">
        <ele>1135.3</ele>
        <time>2024-05-26T14:24:59Z</time>
      </trkpt>
      <trkpt lat="43.73004" lon="6.64649">
        <ele>1135.2</ele>
        <time>2024-05-26T14:25:00Z</time>
      </trkpt>
      <trkpt lat="43.73003" lon="6.64648">
        <ele>1135.1</ele>
        <time>2024-05-26T14:25:01Z</time>
      </trkpt>
      <trkpt lat="43.73002" lon="6.64648">
        <ele>1135.1</ele>
        <time>2024-05-26T14:25:02Z</time>
      </trkpt>
      <trkpt lat="43.73001" lon="6.64647">
        <ele>1135.1</ele>
        <time>2024-05-26T14:25:03Z</time>
      </trkpt>
      <trkpt lat="43.73" lon="6.64647">
        <ele>1135</ele>
        <time>2024-05-26T14:25:04Z</time>
      </trkpt>
      <trkpt lat="43.72998" lon="6.64647">
        <ele>1135</ele>
        <time>2024-05-26T14:25:05Z</time>
      </trkpt>
      <trkpt lat="43.72997" lon="6.64646">
        <ele>1135</ele>
        <time>2024-05-26T14:25:06Z</time>
      </trkpt>
      <trkpt lat="43.72996" lon="6.64645">
        <ele>1134.8</ele>
        <time>2024-05-26T14:25:07Z</time>
      </trkpt>
      <trkpt lat="43.72995" lon="6.64644">
        <ele>1134.6</ele>
        <time>2024-05-26T14:25:08Z</time>
      </trkpt>
      <trkpt lat="43.72994" lon="6.64643">
        <ele>1134.5</ele>
        <time>2024-05-26T14:25:09Z</time>
      </trkpt>
      <trkpt lat="43.72992" lon="6.64643">
        <ele>1134.5</ele>
        <time>2024-05-26T14:25:10Z</time>
      </trkpt>
      <trkpt lat="43.72991" lon="6.64643">
        <ele>1134.5</ele>
        <time>2024-05-26T14:25:11Z</time>
      </trkpt>
      <trkpt lat="43.7299" lon="6.64643">
        <ele>1134.4</ele>
        <time>2024-05-26T14:25:12Z</time>
      </trkpt>
      <trkpt lat="43.72989" lon="6.64643">
        <ele>1134.4</ele>
        <time>2024-05-26T14:25:13Z</time>
      </trkpt>
      <trkpt lat="43.72988" lon="6.64643">
        <ele>1134.3</ele>
        <time>2024-05-26T14:25:14Z</time>
      </trkpt>
      <trkpt lat="43.72987" lon="6.64642">
        <ele>1134.3</ele>
        <time>2024-05-26T14:25:15Z</time>
      </trkpt>
      <trkpt lat="43.72986" lon="6.64641">
        <ele>1134.3</ele>
        <time>2024-05-26T14:25:16Z</time>
      </trkpt>
      <trkpt lat="43.72985" lon="6.64641">
        <ele>1134.2</ele>
        <time>2024-05-26T14:25:17Z</time>
      </trkpt>
      <trkpt lat="43.72983" lon="6.6464">
        <ele>1134.1</ele>
        <time>2024-05-26T14:25:18Z</time>
      </trkpt>
      <trkpt lat="43.72983" lon="6.64639">
        <ele>1134.1</ele>
        <time>2024-05-26T14:25:19Z</time>
      </trkpt>
      <trkpt lat="43.72982" lon="6.64638">
        <ele>1133.9</ele>
        <time>2024-05-26T14:25:20Z</time>
      </trkpt>
      <trkpt lat="43.72982" lon="6.64637">
        <ele>1133.8</ele>
        <time>2024-05-26T14:25:21Z</time>
      </trkpt>
      <trkpt lat="43.72981" lon="6.64636">
        <ele>1133.8</ele>
        <time>2024-05-26T14:25:22Z</time>
      </trkpt>
      <trkpt lat="43.72981" lon="6.64634">
        <ele>1133.6</ele>
        <time>2024-05-26T14:25:23Z</time>
      </trkpt>
      <trkpt lat="43.7298" lon="6.64634">
        <ele>1133.6</ele>
        <time>2024-05-26T14:25:24Z</time>
      </trkpt>
      <trkpt lat="43.7298" lon="6.64633">
        <ele>1133.6</ele>
        <time>2024-05-26T14:25:25Z</time>
      </trkpt>
      <trkpt lat="43.72979" lon="6.64632">
        <ele>1133.5</ele>
        <time>2024-05-26T14:25:26Z</time>
      </trkpt>
      <trkpt lat="43.72978" lon="6.64632">
        <ele>1133.4</ele>
        <time>2024-05-26T14:25:27Z</time>
      </trkpt>
      <trkpt lat="43.72977" lon="6.64631">
        <ele>1133.3</ele>
        <time>2024-05-26T14:25:28Z</time>
      </trkpt>
      <trkpt lat="43.72976" lon="6.64629">
        <ele>1133.2</ele>
        <time>2024-05-26T14:25:29Z</time>
      </trkpt>
      <trkpt lat="43.72975" lon="6.64628">
        <ele>1133.2</ele>
        <time>2024-05-26T14:25:30Z</time>
      </trkpt>
      <trkpt lat="43.72974" lon="6.64627">
        <ele>1133.1</ele>
        <time>2024-05-26T14:25:31Z</time>
      </trkpt>
      <trkpt lat="43.72973" lon="6.64625">
        <ele>1133</ele>
        <time>2024-05-26T14:25:32Z</time>
      </trkpt>
      <trkpt lat="43.72973" lon="6.64624">
        <ele>1133</ele>
        <time>2024-05-26T14:25:33Z</time>
      </trkpt>
      <trkpt lat="43.72971" lon="6.64624">
        <ele>1132.9</ele>
        <time>2024-05-26T14:25:34Z</time>
      </trkpt>
      <trkpt lat="43.7297" lon="6.64623">
        <ele>1132.8</ele>
        <time>2024-05-26T14:25:35Z</time>
      </trkpt>
      <trkpt lat="43.72969" lon="6.64623">
        <ele>1132.7</ele>
        <time>2024-05-26T14:25:36Z</time>
      </trkpt>
      <trkpt lat="43.72968" lon="6.64622">
        <ele>1132.6</ele>
        <time>2024-05-26T14:25:37Z</time>
      </trkpt>
      <trkpt lat="43.72967" lon="6.64621">
        <ele>1132.5</ele>
        <time>2024-05-26T14:25:38Z</time>
      </trkpt>
      <trkpt lat="43.72966" lon="6.6462">
        <ele>1132.4</ele>
        <time>2024-05-26T14:25:39Z</time>
      </trkpt>
      <trkpt lat="43.72966" lon="6.64618">
        <ele>1132.3</ele>
        <time>2024-05-26T14:25:40Z</time>
      </trkpt>
      <trkpt lat="43.72965" lon="6.64618">
        <ele>1132.3</ele>
        <time>2024-05-26T14:25:41Z</time>
      </trkpt>
      <trkpt lat="43.72965" lon="6.64616">
        <ele>1132.2</ele>
        <time>2024-05-26T14:25:42Z</time>
      </trkpt>
      <trkpt lat="43.72964" lon="6.64615">
        <ele>1132.1</ele>
        <time>2024-05-26T14:25:43Z</time>
      </trkpt>
      <trkpt lat="43.72962" lon="6.64614">
        <ele>1131.9</ele>
        <time>2024-05-26T14:25:44Z</time>
      </trkpt>
      <trkpt lat="43.72961" lon="6.64612">
        <ele>1131.8</ele>
        <time>2024-05-26T14:25:45Z</time>
      </trkpt>
      <trkpt lat="43.7296" lon="6.64611">
        <ele>1131.7</ele>
        <time>2024-05-26T14:25:46Z</time>
      </trkpt>
      <trkpt lat="43.7296" lon="6.6461">
        <ele>1131.4</ele>
        <time>2024-05-26T14:25:47Z</time>
      </trkpt>
      <trkpt lat="43.72958" lon="6.6461">
        <ele>1131.3</ele>
        <time>2024-05-26T14:25:48Z</time>
      </trkpt>
      <trkpt lat="43.72957" lon="6.64609">
        <ele>1131.1</ele>
        <time>2024-05-26T14:25:49Z</time>
      </trkpt>
      <trkpt lat="43.72956" lon="6.64608">
        <ele>1131</ele>
        <time>2024-05-26T14:25:50Z</time>
      </trkpt>
      <trkpt lat="43.72956" lon="6.64607">
        <ele>1130.8</ele>
        <time>2024-05-26T14:25:51Z</time>
      </trkpt>
      <trkpt lat="43.72955" lon="6.64606">
        <ele>1130.7</ele>
        <time>2024-05-26T14:25:52Z</time>
      </trkpt>
      <trkpt lat="43.72954" lon="6.64605">
        <ele>1130.6</ele>
        <time>2024-05-26T14:25:53Z</time>
      </trkpt>
      <trkpt lat="43.72953" lon="6.64604">
        <ele>1130.4</ele>
        <time>2024-05-26T14:25:54Z</time>
      </trkpt>
      <trkpt lat="43.72953" lon="6.64602">
        <ele>1130.2</ele>
        <time>2024-05-26T14:25:55Z</time>
      </trkpt>
      <trkpt lat="43.72952" lon="6.64601">
        <ele>1130</ele>
        <time>2024-05-26T14:25:56Z</time>
      </trkpt>
      <trkpt lat="43.72951" lon="6.64601">
        <ele>1129.9</ele>
        <time>2024-05-26T14:25:57Z</time>
      </trkpt>
      <trkpt lat="43.7295" lon="6.646">
        <ele>1129.7</ele>
        <time>2024-05-26T14:25:58Z</time>
      </trkpt>
      <trkpt lat="43.72949" lon="6.64598">
        <ele>1129.6</ele>
        <time>2024-05-26T14:25:59Z</time>
      </trkpt>
      <trkpt lat="43.72948" lon="6.64597">
        <ele>1129.4</ele>
        <time>2024-05-26T14:26:00Z</time>
      </trkpt>
      <trkpt lat="43.72947" lon="6.64596">
        <ele>1129.3</ele>
        <time>2024-05-26T14:26:01Z</time>
      </trkpt>
      <trkpt lat="43.72947" lon="6.64595">
        <ele>1129.2</ele>
        <time>2024-05-26T14:26:02Z</time>
      </trkpt>
      <trkpt lat="43.72946" lon="6.64594">
        <ele>1128.9</ele>
        <time>2024-05-26T14:26:03Z</time>
      </trkpt>
      <trkpt lat="43.72945" lon="6.64593">
        <ele>1128.8</ele>
        <time>2024-05-26T14:26:04Z</time>
      </trkpt>
      <trkpt lat="43.72944" lon="6.64592">
        <ele>1128.6</ele>
        <time>2024-05-26T14:26:05Z</time>
      </trkpt>
      <trkpt lat="43.72943" lon="6.64591">
        <ele>1128.5</ele>
        <time>2024-05-26T14:26:06Z</time>
      </trkpt>
      <trkpt lat="43.72942" lon="6.6459">
        <ele>1128.2</ele>
        <time>2024-05-26T14:26:07Z</time>
      </trkpt>
      <trkpt lat="43.72942" lon="6.64589">
        <ele>1128</ele>
        <time>2024-05-26T14:26:08Z</time>
      </trkpt>
      <trkpt lat="43.72941" lon="6.64588">
        <ele>1127.9</ele>
        <time>2024-05-26T14:26:09Z</time>
      </trkpt>
      <trkpt lat="43.7294" lon="6.64587">
        <ele>1127.7</ele>
        <time>2024-05-26T14:26:10Z</time>
      </trkpt>
      <trkpt lat="43.72939" lon="6.64585">
        <ele>1127.6</ele>
        <time>2024-05-26T14:26:11Z</time>
      </trkpt>
      <trkpt lat="43.72939" lon="6.64583">
        <ele>1127.4</ele>
        <time>2024-05-26T14:26:12Z</time>
      </trkpt>
      <trkpt lat="43.72938" lon="6.64582">
        <ele>1127.4</ele>
        <time>2024-05-26T14:26:13Z</time>
      </trkpt>
      <trkpt lat="43.72938" lon="6.64581">
        <ele>1127.2</ele>
        <time>2024-05-26T14:26:14Z</time>
      </trkpt>
      <trkpt lat="43.72937" lon="6.6458">
        <ele>1126.9</ele>
        <time>2024-05-26T14:26:15Z</time>
      </trkpt>
      <trkpt lat="43.72937" lon="6.64579">
        <ele>1126.9</ele>
        <time>2024-05-26T14:26:16Z</time>
      </trkpt>
      <trkpt lat="43.72936" lon="6.64578">
        <ele>1126.7</ele>
        <time>2024-05-26T14:26:17Z</time>
      </trkpt>
      <trkpt lat="43.72934" lon="6.64577">
        <ele>1126.5</ele>
        <time>2024-05-26T14:26:18Z</time>
      </trkpt>
      <trkpt lat="43.72933" lon="6.64575">
        <ele>1126.4</ele>
        <time>2024-05-26T14:26:19Z</time>
      </trkpt>
      <trkpt lat="43.72932" lon="6.64574">
        <ele>1126.2</ele>
        <time>2024-05-26T14:26:20Z</time>
      </trkpt>
      <trkpt lat="43.72932" lon="6.64573">
        <ele>1126</ele>
        <time>2024-05-26T14:26:21Z</time>
      </trkpt>
      <trkpt lat="43.72931" lon="6.64572">
        <ele>1125.8</ele>
        <time>2024-05-26T14:26:22Z</time>
      </trkpt>
      <trkpt lat="43.72931" lon="6.64571">
        <ele>1125.6</ele>
        <time>2024-05-26T14:26:23Z</time>
      </trkpt>
      <trkpt lat="43.7293" lon="6.6457">
        <ele>1125.5</ele>
        <time>2024-05-26T14:26:24Z</time>
      </trkpt>
      <trkpt lat="43.7293" lon="6.64569">
        <ele>1125.2</ele>
        <time>2024-05-26T14:26:25Z</time>
      </trkpt>
      <trkpt lat="43.72929" lon="6.64568">
        <ele>1125</ele>
        <time>2024-05-26T14:26:26Z</time>
      </trkpt>
      <trkpt lat="43.72929" lon="6.64567">
        <ele>1124.9</ele>
        <time>2024-05-26T14:26:27Z</time>
      </trkpt>
      <trkpt lat="43.72928" lon="6.64565">
        <ele>1124.6</ele>
        <time>2024-05-26T14:26:28Z</time>
      </trkpt>
      <trkpt lat="43.72928" lon="6.64564">
        <ele>1124.4</ele>
        <time>2024-05-26T14:26:29Z</time>
      </trkpt>
      <trkpt lat="43.72927" lon="6.64563">
        <ele>1124.3</ele>
        <time>2024-05-26T14:26:30Z</time>
      </trkpt>
      <trkpt lat="43.72927" lon="6.64562">
        <ele>1124.1</ele>
        <time>2024-05-26T14:26:31Z</time>
      </trkpt>
      <trkpt lat="43.72927" lon="6.6456">
        <ele>1123.8</ele>
        <time>2024-05-26T14:26:32Z</time>
      </trkpt>
      <trkpt lat="43.72926" lon="6.64559">
        <ele>1123.5</ele>
        <time>2024-05-26T14:26:33Z</time>
      </trkpt>
      <trkpt lat="43.72926" lon="6.64558">
        <ele>1123.2</ele>
        <time>2024-05-26T14:26:34Z</time>
      </trkpt>
      <trkpt lat="43.72925" lon="6.64556">
        <ele>1123</ele>
        <time>2024-05-26T14:26:35Z</time>
      </trkpt>
      <trkpt lat="43.72925" lon="6.64556">
        <ele>1122.8</ele>
        <time>2024-05-26T14:26:36Z</time>
      </trkpt>
      <trkpt lat="43.72925" lon="6.64555">
        <ele>1122.7</ele>
        <time>2024-05-26T14:26:37Z</time>
      </trkpt>
      <trkpt lat="43.72925" lon="6.64554">
        <ele>1122.5</ele>
        <time>2024-05-26T14:26:38Z</time>
      </trkpt>
      <trkpt lat="43.72925" lon="6.64552">
        <ele>1122.4</ele>
        <time>2024-05-26T14:26:39Z</time>
      </trkpt>
      <trkpt lat="43.72924" lon="6.64551">
        <ele>1122.3</ele>
        <time>2024-05-26T14:26:40Z</time>
      </trkpt>
      <trkpt lat="43.72924" lon="6.64549">
        <ele>1122</ele>
        <time>2024-05-26T14:26:41Z</time>
      </trkpt>
      <trkpt lat="43.72924" lon="6.64548">
        <ele>1121.8</ele>
        <time>2024-05-26T14:26:42Z</time>
      </trkpt>
      <trkpt lat="43.72924" lon="6.64547">
        <ele>1121.7</ele>
        <time>2024-05-26T14:26:43Z</time>
      </trkpt>
      <trkpt lat="43.72924" lon="6.64546">
        <ele>1121.5</ele>
        <time>2024-05-26T14:26:44Z</time>
      </trkpt>
      <trkpt lat="43.72924" lon="6.64544">
        <ele>1121.3</ele>
        <time>2024-05-26T14:26:45Z</time>
      </trkpt>
      <trkpt lat="43.72924" lon="6.64543">
        <ele>1121</ele>
        <time>2024-05-26T14:26:46Z</time>
      </trkpt>
      <trkpt lat="43.72924" lon="6.64541">
        <ele>1120.8</ele>
        <time>2024-05-26T14:26:47Z</time>
      </trkpt>
      <trkpt lat="43.72924" lon="6.6454">
        <ele>1120.5</ele>
        <time>2024-05-26T14:26:48Z</time>
      </trkpt>
      <trkpt lat="43.72924" lon="6.64539">
        <ele>1120.4</ele>
        <time>2024-05-26T14:26:49Z</time>
      </trkpt>
      <trkpt lat="43.72924" lon="6.64537">
        <ele>1120.1</ele>
        <time>2024-05-26T14:26:50Z</time>
      </trkpt>
      <trkpt lat="43.72923" lon="6.64536">
        <ele>1119.9</ele>
        <time>2024-05-26T14:26:51Z</time>
      </trkpt>
      <trkpt lat="43.72923" lon="6.64535">
        <ele>1119.7</ele>
        <time>2024-05-26T14:26:52Z</time>
      </trkpt>
      <trkpt lat="43.72923" lon="6.64534">
        <ele>1119.5</ele>
        <time>2024-05-26T14:26:53Z</time>
      </trkpt>
      <trkpt lat="43.72923" lon="6.64533">
        <ele>1119.3</ele>
        <time>2024-05-26T14:26:54Z</time>
      </trkpt>
      <trkpt lat="43.72924" lon="6.64531">
        <ele>1119.1</ele>
        <time>2024-05-26T14:26:55Z</time>
      </trkpt>
      <trkpt lat="43.72924" lon="6.6453">
        <ele>1119</ele>
        <time>2024-05-26T14:26:56Z</time>
      </trkpt>
      <trkpt lat="43.72924" lon="6.64528">
        <ele>1118.7</ele>
        <time>2024-05-26T14:26:57Z</time>
      </trkpt>
      <trkpt lat="43.72924" lon="6.64527">
        <ele>1118.4</ele>
        <time>2024-05-26T14:26:58Z</time>
      </trkpt>
      <trkpt lat="43.72925" lon="6.64525">
        <ele>1118.2</ele>
        <time>2024-05-26T14:26:59Z</time>
      </trkpt>
      <trkpt lat="43.72925" lon="6.64524">
        <ele>1117.9</ele>
        <time>2024-05-26T14:27:00Z</time>
      </trkpt>
      <trkpt lat="43.72926" lon="6.64522">
        <ele>1117.7</ele>
        <time>2024-05-26T14:27:01Z</time>
      </trkpt>
      <trkpt lat="43.72926" lon="6.64521">
        <ele>1117.4</ele>
        <time>2024-05-26T14:27:02Z</time>
      </trkpt>
      <trkpt lat="43.72926" lon="6.6452">
        <ele>1117.3</ele>
        <time>2024-05-26T14:27:03Z</time>
      </trkpt>
      <trkpt lat="43.72926" lon="6.64519">
        <ele>1117.1</ele>
        <time>2024-05-26T14:27:04Z</time>
      </trkpt>
      <trkpt lat="43.72927" lon="6.64517">
        <ele>1116.9</ele>
        <time>2024-05-26T14:27:05Z</time>
      </trkpt>
      <trkpt lat="43.72928" lon="6.64516">
        <ele>1116.6</ele>
        <time>2024-05-26T14:27:06Z</time>
      </trkpt>
      <trkpt lat="43.72928" lon="6.64515">
        <ele>1116.2</ele>
        <time>2024-05-26T14:27:07Z</time>
      </trkpt>
      <trkpt lat="43.72928" lon="6.64513">
        <ele>1115.9</ele>
        <time>2024-05-26T14:27:08Z</time>
      </trkpt>
      <trkpt lat="43.72929" lon="6.64512">
        <ele>1115.7</ele>
        <time>2024-05-26T14:27:09Z</time>
      </trkpt>
      <trkpt lat="43.7293" lon="6.6451">
        <ele>1115.5</ele>
        <time>2024-05-26T14:27:10Z</time>
      </trkpt>
      <trkpt lat="43.7293" lon="6.64509">
        <ele>1115.4</ele>
        <time>2024-05-26T14:27:11Z</time>
      </trkpt>
      <trkpt lat="43.7293" lon="6.64507">
        <ele>1115.1</ele>
        <time>2024-05-26T14:27:12Z</time>
      </trkpt>
      <trkpt lat="43.7293" lon="6.64506">
        <ele>1114.9</ele>
        <time>2024-05-26T14:27:13Z</time>
      </trkpt>
      <trkpt lat="43.7293" lon="6.64505">
        <ele>1114.8</ele>
        <time>2024-05-26T14:27:14Z</time>
      </trkpt>
      <trkpt lat="43.7293" lon="6.64504">
        <ele>1114.6</ele>
        <time>2024-05-26T14:27:15Z</time>
      </trkpt>
      <trkpt lat="43.72931" lon="6.64503">
        <ele>1114.4</ele>
        <time>2024-05-26T14:27:16Z</time>
      </trkpt>
      <trkpt lat="43.7293" lon="6.64502">
        <ele>1114.3</ele>
        <time>2024-05-26T14:27:17Z</time>
      </trkpt>
      <trkpt lat="43.7293" lon="6.64501">
        <ele>1114.1</ele>
        <time>2024-05-26T14:27:18Z</time>
      </trkpt>
      <trkpt lat="43.72931" lon="6.645">
        <ele>1113.8</ele>
        <time>2024-05-26T14:27:19Z</time>
      </trkpt>
      <trkpt lat="43.72931" lon="6.64499">
        <ele>1113.6</ele>
        <time>2024-05-26T14:27:20Z</time>
      </trkpt>
      <trkpt lat="43.72931" lon="6.64498">
        <ele>1113.3</ele>
        <time>2024-05-26T14:27:21Z</time>
      </trkpt>
      <trkpt lat="43.7293" lon="6.64497">
        <ele>1113.2</ele>
        <time>2024-05-26T14:27:22Z</time>
      </trkpt>
      <trkpt lat="43.72931" lon="6.64496">
        <ele>1113</ele>
        <time>2024-05-26T14:27:23Z</time>
      </trkpt>
      <trkpt lat="43.72931" lon="6.64495">
        <ele>1112.8</ele>
        <time>2024-05-26T14:27:24Z</time>
      </trkpt>
      <trkpt lat="43.72931" lon="6.64494">
        <ele>1112.6</ele>
        <time>2024-05-26T14:27:25Z</time>
      </trkpt>
      <trkpt lat="43.72932" lon="6.64492">
        <ele>1112.3</ele>
        <time>2024-05-26T14:27:26Z</time>
      </trkpt>
      <trkpt lat="43.72932" lon="6.64491">
        <ele>1112.1</ele>
        <time>2024-05-26T14:27:27Z</time>
      </trkpt>
      <trkpt lat="43.72932" lon="6.6449">
        <ele>1111.8</ele>
        <time>2024-05-26T14:27:28Z</time>
      </trkpt>
      <trkpt lat="43.72932" lon="6.64488">
        <ele>1111.5</ele>
        <time>2024-05-26T14:27:29Z</time>
      </trkpt>
      <trkpt lat="43.72932" lon="6.64486">
        <ele>1111.3</ele>
        <time>2024-05-26T14:27:30Z</time>
      </trkpt>
      <trkpt lat="43.72933" lon="6.64485">
        <ele>1111</ele>
        <time>2024-05-26T14:27:31Z</time>
      </trkpt>
      <trkpt lat="43.72933" lon="6.64483">
        <ele>1110.7</ele>
        <time>2024-05-26T14:27:32Z</time>
      </trkpt>
      <trkpt lat="43.72933" lon="6.64482">
        <ele>1110.5</ele>
        <time>2024-05-26T14:27:33Z</time>
      </trkpt>
      <trkpt lat="43.72933" lon="6.64481">
        <ele>1110.3</ele>
        <time>2024-05-26T14:27:34Z</time>
      </trkpt>
      <trkpt lat="43.72933" lon="6.64479">
        <ele>1110.1</ele>
        <time>2024-05-26T14:27:35Z</time>
      </trkpt>
      <trkpt lat="43.72933" lon="6.64478">
        <ele>1109.9</ele>
        <time>2024-05-26T14:27:36Z</time>
      </trkpt>
      <trkpt lat="43.72934" lon="6.64477">
        <ele>1109.6</ele>
        <time>2024-05-26T14:27:37Z</time>
      </trkpt>
      <trkpt lat="43.72934" lon="6.64476">
        <ele>1109.4</ele>
        <time>2024-05-26T14:27:38Z</time>
      </trkpt>
      <trkpt lat="43.72935" lon="6.64475">
        <ele>1109.2</ele>
        <time>2024-05-26T14:27:39Z</time>
      </trkpt>
      <trkpt lat="43.72936" lon="6.64474">
        <ele>1108.9</ele>
        <time>2024-05-26T14:27:40Z</time>
      </trkpt>
      <trkpt lat="43.72937" lon="6.64473">
        <ele>1108.8</ele>
        <time>2024-05-26T14:27:41Z</time>
      </trkpt>
      <trkpt lat="43.72937" lon="6.64472">
        <ele>1108.7</ele>
        <time>2024-05-26T14:27:42Z</time>
      </trkpt>
      <trkpt lat="43.72937" lon="6.64471">
        <ele>1108.4</ele>
        <time>2024-05-26T14:27:43Z</time>
      </trkpt>
      <trkpt lat="43.72939" lon="6.64469">
        <ele>1108.2</ele>
        <time>2024-05-26T14:27:44Z</time>
      </trkpt>
      <trkpt lat="43.72939" lon="6.64467">
        <ele>1108</ele>
        <time>2024-05-26T14:27:45Z</time>
      </trkpt>
      <trkpt lat="43.72939" lon="6.64466">
        <ele>1107.8</ele>
        <time>2024-05-26T14:27:46Z</time>
      </trkpt>
      <trkpt lat="43.7294" lon="6.64464">
        <ele>1107.6</ele>
        <time>2024-05-26T14:27:47Z</time>
      </trkpt>
      <trkpt lat="43.7294" lon="6.64463">
        <ele>1107.3</ele>
        <time>2024-05-26T14:27:48Z</time>
      </trkpt>
      <trkpt lat="43.72941" lon="6.64461">
        <ele>1107.2</ele>
        <time>2024-05-26T14:27:49Z</time>
      </trkpt>
      <trkpt lat="43.72941" lon="6.6446">
        <ele>1107</ele>
        <time>2024-05-26T14:27:50Z</time>
      </trkpt>
      <trkpt lat="43.72941" lon="6.64458">
        <ele>1106.8</ele>
        <time>2024-05-26T14:27:51Z</time>
      </trkpt>
      <trkpt lat="43.72942" lon="6.64457">
        <ele>1106.6</ele>
        <time>2024-05-26T14:27:52Z</time>
      </trkpt>
      <trkpt lat="43.72943" lon="6.64456">
        <ele>1106.4</ele>
        <time>2024-05-26T14:27:53Z</time>
      </trkpt>
      <trkpt lat="43.72943" lon="6.64454">
        <ele>1106.1</ele>
        <time>2024-05-26T14:27:54Z</time>
      </trkpt>
      <trkpt lat="43.72944" lon="6.64453">
        <ele>1105.8</ele>
        <time>2024-05-26T14:27:55Z</time>
      </trkpt>
      <trkpt lat="43.72944" lon="6.64451">
        <ele>1105.6</ele>
        <time>2024-05-26T14:27:56Z</time>
      </trkpt>
      <trkpt lat="43.72945" lon="6.6445">
        <ele>1105.3</ele>
        <time>2024-05-26T14:27:57Z</time>
      </trkpt>
      <trkpt lat="43.72945" lon="6.64449">
        <ele>1105.1</ele>
        <time>2024-05-26T14:27:58Z</time>
      </trkpt>
      <trkpt lat="43.72946" lon="6.64448">
        <ele>1104.9</ele>
        <time>2024-05-26T14:27:59Z</time>
      </trkpt>
      <trkpt lat="43.72946" lon="6.64447">
        <ele>1104.7</ele>
        <time>2024-05-26T14:28:00Z</time>
      </trkpt>
      <trkpt lat="43.72947" lon="6.64446">
        <ele>1104.6</ele>
        <time>2024-05-26T14:28:01Z</time>
      </trkpt>
      <trkpt lat="43.72948" lon="6.64444">
        <ele>1104.3</ele>
        <time>2024-05-26T14:28:02Z</time>
      </trkpt>
      <trkpt lat="43.72949" lon="6.64443">
        <ele>1104.1</ele>
        <time>2024-05-26T14:28:03Z</time>
      </trkpt>
      <trkpt lat="43.7295" lon="6.64443">
        <ele>1103.8</ele>
        <time>2024-05-26T14:28:04Z</time>
      </trkpt>
      <trkpt lat="43.72951" lon="6.64442">
        <ele>1103.6</ele>
        <time>2024-05-26T14:28:05Z</time>
      </trkpt>
      <trkpt lat="43.72952" lon="6.6444">
        <ele>1103.5</ele>
        <time>2024-05-26T14:28:06Z</time>
      </trkpt>
      <trkpt lat="43.72953" lon="6.6444">
        <ele>1103.4</ele>
        <time>2024-05-26T14:28:07Z</time>
      </trkpt>
      <trkpt lat="43.72954" lon="6.64439">
        <ele>1103.2</ele>
        <time>2024-05-26T14:28:08Z</time>
      </trkpt>
      <trkpt lat="43.72955" lon="6.64439">
        <ele>1103</ele>
        <time>2024-05-26T14:28:09Z</time>
      </trkpt>
      <trkpt lat="43.72956" lon="6.64438">
        <ele>1102.9</ele>
        <time>2024-05-26T14:28:10Z</time>
      </trkpt>
      <trkpt lat="43.72958" lon="6.64437">
        <ele>1102.7</ele>
        <time>2024-05-26T14:28:11Z</time>
      </trkpt>
      <trkpt lat="43.72959" lon="6.64436">
        <ele>1102.5</ele>
        <time>2024-05-26T14:28:12Z</time>
      </trkpt>
      <trkpt lat="43.7296" lon="6.64435">
        <ele>1102.2</ele>
        <time>2024-05-26T14:28:13Z</time>
      </trkpt>
      <trkpt lat="43.72962" lon="6.64434">
        <ele>1101.9</ele>
        <time>2024-05-26T14:28:14Z</time>
      </trkpt>
      <trkpt lat="43.72962" lon="6.64433">
        <ele>1101.6</ele>
        <time>2024-05-26T14:28:15Z</time>
      </trkpt>
      <trkpt lat="43.72963" lon="6.64433">
        <ele>1101.4</ele>
        <time>2024-05-26T14:28:16Z</time>
      </trkpt>
      <trkpt lat="43.72963" lon="6.64431">
        <ele>1101.2</ele>
        <time>2024-05-26T14:28:17Z</time>
      </trkpt>
      <trkpt lat="43.72963" lon="6.6443">
        <ele>1101</ele>
        <time>2024-05-26T14:28:18Z</time>
      </trkpt>
      <trkpt lat="43.72963" lon="6.64429">
        <ele>1100.8</ele>
        <time>2024-05-26T14:28:19Z</time>
      </trkpt>
      <trkpt lat="43.72964" lon="6.64429">
        <ele>1100.7</ele>
        <time>2024-05-26T14:28:20Z</time>
      </trkpt>
      <trkpt lat="43.72964" lon="6.64428">
        <ele>1100.6</ele>
        <time>2024-05-26T14:28:21Z</time>
      </trkpt>
      <trkpt lat="43.72964" lon="6.64426">
        <ele>1100.5</ele>
        <time>2024-05-26T14:28:22Z</time>
      </trkpt>
      <trkpt lat="43.72964" lon="6.64425">
        <ele>1100.4</ele>
        <time>2024-05-26T14:28:23Z</time>
      </trkpt>
      <trkpt lat="43.72964" lon="6.64424">
        <ele>1100.4</ele>
        <time>2024-05-26T14:28:24Z</time>
      </trkpt>
      <trkpt lat="43.72964" lon="6.64423">
        <ele>1100.2</ele>
        <time>2024-05-26T14:28:25Z</time>
      </trkpt>
      <trkpt lat="43.72964" lon="6.64422">
        <ele>1100.1</ele>
        <time>2024-05-26T14:28:26Z</time>
      </trkpt>
      <trkpt lat="43.72964" lon="6.64421">
        <ele>1100</ele>
        <time>2024-05-26T14:28:27Z</time>
      </trkpt>
      <trkpt lat="43.72964" lon="6.6442">
        <ele>1099.8</ele>
        <time>2024-05-26T14:28:28Z</time>
      </trkpt>
      <trkpt lat="43.72964" lon="6.64419">
        <ele>1099.7</ele>
        <time>2024-05-26T14:28:29Z</time>
      </trkpt>
      <trkpt lat="43.72964" lon="6.64418">
        <ele>1099.6</ele>
        <time>2024-05-26T14:28:30Z</time>
      </trkpt>
      <trkpt lat="43.72964" lon="6.64417">
        <ele>1099.4</ele>
        <time>2024-05-26T14:28:31Z</time>
      </trkpt>
      <trkpt lat="43.72964" lon="6.64417">
        <ele>1099.2</ele>
        <time>2024-05-26T14:28:32Z</time>
      </trkpt>
      <trkpt lat="43.72964" lon="6.64416">
        <ele>1099</ele>
        <time>2024-05-26T14:28:33Z</time>
      </trkpt>
      <trkpt lat="43.72964" lon="6.64415">
        <ele>1098.7</ele>
        <time>2024-05-26T14:28:34Z</time>
      </trkpt>
      <trkpt lat="43.72964" lon="6.64414">
        <ele>1098.4</ele>
        <time>2024-05-26T14:28:35Z</time>
      </trkpt>
      <trkpt lat="43.72964" lon="6.64412">
        <ele>1098</ele>
        <time>2024-05-26T14:28:36Z</time>
      </trkpt>
      <trkpt lat="43.72965" lon="6.6441">
        <ele>1097.7</ele>
        <time>2024-05-26T14:28:37Z</time>
      </trkpt>
      <trkpt lat="43.72964" lon="6.6441">
        <ele>1097.4</ele>
        <time>2024-05-26T14:28:38Z</time>
      </trkpt>
      <trkpt lat="43.72964" lon="6.64409">
        <ele>1097.3</ele>
        <time>2024-05-26T14:28:39Z</time>
      </trkpt>
      <trkpt lat="43.72963" lon="6.64407">
        <ele>1097</ele>
        <time>2024-05-26T14:28:40Z</time>
      </trkpt>
      <trkpt lat="43.72963" lon="6.64407">
        <ele>1096.7</ele>
        <time>2024-05-26T14:28:41Z</time>
      </trkpt>
      <trkpt lat="43.72963" lon="6.64407">
        <ele>1096.4</ele>
        <time>2024-05-26T14:28:42Z</time>
      </trkpt>
      <trkpt lat="43.72963" lon="6.64406">
        <ele>1096.2</ele>
        <time>2024-05-26T14:28:43Z</time>
      </trkpt>
      <trkpt lat="43.72963" lon="6.64406">
        <ele>1096</ele>
        <time>2024-05-26T14:28:44Z</time>
      </trkpt>
      <trkpt lat="43.72963" lon="6.64405">
        <ele>1095.8</ele>
        <time>2024-05-26T14:28:45Z</time>
      </trkpt>
      <trkpt lat="43.72963" lon="6.64403">
        <ele>1095.6</ele>
        <time>2024-05-26T14:28:46Z</time>
      </trkpt>
      <trkpt lat="43.72962" lon="6.64402">
        <ele>1095.4</ele>
        <time>2024-05-26T14:28:47Z</time>
      </trkpt>
      <trkpt lat="43.72962" lon="6.64401">
        <ele>1095.1</ele>
        <time>2024-05-26T14:28:48Z</time>
      </trkpt>
      <trkpt lat="43.72962" lon="6.644">
        <ele>1094.9</ele>
        <time>2024-05-26T14:28:49Z</time>
      </trkpt>
      <trkpt lat="43.72961" lon="6.64398">
        <ele>1094.6</ele>
        <time>2024-05-26T14:28:50Z</time>
      </trkpt>
      <trkpt lat="43.72961" lon="6.64397">
        <ele>1094.4</ele>
        <time>2024-05-26T14:28:51Z</time>
      </trkpt>
      <trkpt lat="43.72961" lon="6.64396">
        <ele>1094.3</ele>
        <time>2024-05-26T14:28:52Z</time>
      </trkpt>
      <trkpt lat="43.7296" lon="6.64396">
        <ele>1094.1</ele>
        <time>2024-05-26T14:28:53Z</time>
      </trkpt>
      <trkpt lat="43.7296" lon="6.64395">
        <ele>1093.8</ele>
        <time>2024-05-26T14:28:54Z</time>
      </trkpt>
      <trkpt lat="43.7296" lon="6.64394">
        <ele>1093.5</ele>
        <time>2024-05-26T14:28:55Z</time>
      </trkpt>
      <trkpt lat="43.72961" lon="6.64392">
        <ele>1093.3</ele>
        <time>2024-05-26T14:28:56Z</time>
      </trkpt>
      <trkpt lat="43.72961" lon="6.6439">
        <ele>1093.2</ele>
        <time>2024-05-26T14:28:57Z</time>
      </trkpt>
      <trkpt lat="43.72961" lon="6.64388">
        <ele>1093</ele>
        <time>2024-05-26T14:28:58Z</time>
      </trkpt>
      <trkpt lat="43.7296" lon="6.64387">
        <ele>1092.8</ele>
        <time>2024-05-26T14:28:59Z</time>
      </trkpt>
      <trkpt lat="43.7296" lon="6.64386">
        <ele>1092.1</ele>
        <time>2024-05-26T14:29:00Z</time>
      </trkpt>
      <trkpt lat="43.72959" lon="6.64384">
        <ele>1092</ele>
        <time>2024-05-26T14:29:01Z</time>
      </trkpt>
      <trkpt lat="43.72959" lon="6.64383">
        <ele>1091.8</ele>
        <time>2024-05-26T14:29:02Z</time>
      </trkpt>
      <trkpt lat="43.72958" lon="6.64382">
        <ele>1091.6</ele>
        <time>2024-05-26T14:29:03Z</time>
      </trkpt>
      <trkpt lat="43.72957" lon="6.64381">
        <ele>1091.4</ele>
        <time>2024-05-26T14:29:04Z</time>
      </trkpt>
      <trkpt lat="43.72957" lon="6.6438">
        <ele>1091.1</ele>
        <time>2024-05-26T14:29:05Z</time>
      </trkpt>
      <trkpt lat="43.72956" lon="6.64379">
        <ele>1090.9</ele>
        <time>2024-05-26T14:29:06Z</time>
      </trkpt>
      <trkpt lat="43.72956" lon="6.64378">
        <ele>1090.7</ele>
        <time>2024-05-26T14:29:07Z</time>
      </trkpt>
      <trkpt lat="43.72955" lon="6.64377">
        <ele>1090.4</ele>
        <time>2024-05-26T14:29:08Z</time>
      </trkpt>
      <trkpt lat="43.72954" lon="6.64376">
        <ele>1090.1</ele>
        <time>2024-05-26T14:29:09Z</time>
      </trkpt>
      <trkpt lat="43.72954" lon="6.64375">
        <ele>1089.9</ele>
        <time>2024-05-26T14:29:10Z</time>
      </trkpt>
      <trkpt lat="43.72955" lon="6.64373">
        <ele>1089.7</ele>
        <time>2024-05-26T14:29:11Z</time>
      </trkpt>
      <trkpt lat="43.72955" lon="6.64371">
        <ele>1089.5</ele>
        <time>2024-05-26T14:29:12Z</time>
      </trkpt>
      <trkpt lat="43.72956" lon="6.64368">
        <ele>1089.3</ele>
        <time>2024-05-26T14:29:13Z</time>
      </trkpt>
      <trkpt lat="43.72955" lon="6.64366">
        <ele>1089</ele>
        <time>2024-05-26T14:29:14Z</time>
      </trkpt>
      <trkpt lat="43.72954" lon="6.64365">
        <ele>1088.8</ele>
        <time>2024-05-26T14:29:15Z</time>
      </trkpt>
      <trkpt lat="43.72953" lon="6.64364">
        <ele>1088.6</ele>
        <time>2024-05-26T14:29:16Z</time>
      </trkpt>
      <trkpt lat="43.72953" lon="6.64362">
        <ele>1088.5</ele>
        <time>2024-05-26T14:29:17Z</time>
      </trkpt>
      <trkpt lat="43.72952" lon="6.64361">
        <ele>1088.3</ele>
        <time>2024-05-26T14:29:18Z</time>
      </trkpt>
      <trkpt lat="43.72951" lon="6.6436">
        <ele>1088.2</ele>
        <time>2024-05-26T14:29:19Z</time>
      </trkpt>
      <trkpt lat="43.7295" lon="6.64358">
        <ele>1088</ele>
        <time>2024-05-26T14:29:20Z</time>
      </trkpt>
      <trkpt lat="43.7295" lon="6.64357">
        <ele>1087.9</ele>
        <time>2024-05-26T14:29:21Z</time>
      </trkpt>
      <trkpt lat="43.7295" lon="6.64356">
        <ele>1087.7</ele>
        <time>2024-05-26T14:29:22Z</time>
      </trkpt>
      <trkpt lat="43.7295" lon="6.64354">
        <ele>1087.6</ele>
        <time>2024-05-26T14:29:23Z</time>
      </trkpt>
      <trkpt lat="43.7295" lon="6.64352">
        <ele>1087.4</ele>
        <time>2024-05-26T14:29:24Z</time>
      </trkpt>
      <trkpt lat="43.72948" lon="6.64351">
        <ele>1087.3</ele>
        <time>2024-05-26T14:29:25Z</time>
      </trkpt>
      <trkpt lat="43.72947" lon="6.64351">
        <ele>1087.2</ele>
        <time>2024-05-26T14:29:26Z</time>
      </trkpt>
      <trkpt lat="43.72946" lon="6.6435">
        <ele>1087.1</ele>
        <time>2024-05-26T14:29:27Z</time>
      </trkpt>
      <trkpt lat="43.72944" lon="6.64348">
        <ele>1087</ele>
        <time>2024-05-26T14:29:28Z</time>
      </trkpt>
      <trkpt lat="43.72943" lon="6.64347">
        <ele>1086.9</ele>
        <time>2024-05-26T14:29:29Z</time>
      </trkpt>
      <trkpt lat="43.72942" lon="6.64346">
        <ele>1086.8</ele>
        <time>2024-05-26T14:29:30Z</time>
      </trkpt>
      <trkpt lat="43.72942" lon="6.64345">
        <ele>1086.7</ele>
        <time>2024-05-26T14:29:31Z</time>
      </trkpt>
      <trkpt lat="43.72941" lon="6.64343">
        <ele>1086.6</ele>
        <time>2024-05-26T14:29:32Z</time>
      </trkpt>
      <trkpt lat="43.7294" lon="6.64342">
        <ele>1086.4</ele>
        <time>2024-05-26T14:29:33Z</time>
      </trkpt>
      <trkpt lat="43.72939" lon="6.6434">
        <ele>1086.3</ele>
        <time>2024-05-26T14:29:34Z</time>
      </trkpt>
      <trkpt lat="43.72939" lon="6.64338">
        <ele>1086.1</ele>
        <time>2024-05-26T14:29:35Z</time>
      </trkpt>
      <trkpt lat="43.72938" lon="6.64337">
        <ele>1086.1</ele>
        <time>2024-05-26T14:29:36Z</time>
      </trkpt>
      <trkpt lat="43.72938" lon="6.64336">
        <ele>1086</ele>
        <time>2024-05-26T14:29:37Z</time>
      </trkpt>
      <trkpt lat="43.72939" lon="6.64333">
        <ele>1086.1</ele>
        <time>2024-05-26T14:29:38Z</time>
      </trkpt>
      <trkpt lat="43.72939" lon="6.64332">
        <ele>1086.1</ele>
        <time>2024-05-26T14:29:39Z</time>
      </trkpt>
      <trkpt lat="43.72938" lon="6.64331">
        <ele>1086.1</ele>
        <time>2024-05-26T14:29:40Z</time>
      </trkpt>
      <trkpt lat="43.72938" lon="6.64329">
        <ele>1086.1</ele>
        <time>2024-05-26T14:29:41Z</time>
      </trkpt>
      <trkpt lat="43.72939" lon="6.64326">
        <ele>1086</ele>
        <time>2024-05-26T14:29:42Z</time>
      </trkpt>
      <trkpt lat="43.72938" lon="6.64324">
        <ele>1085.9</ele>
        <time>2024-05-26T14:29:43Z</time>
      </trkpt>
      <trkpt lat="43.72938" lon="6.64321">
        <ele>1085.8</ele>
        <time>2024-05-26T14:29:44Z</time>
      </trkpt>
      <trkpt lat="43.72937" lon="6.6432">
        <ele>1085.8</ele>
        <time>2024-05-26T14:29:45Z</time>
      </trkpt>
      <trkpt lat="43.72937" lon="6.64317">
        <ele>1085.8</ele>
        <time>2024-05-26T14:29:46Z</time>
      </trkpt>
      <trkpt lat="43.72937" lon="6.64315">
        <ele>1085.7</ele>
        <time>2024-05-26T14:29:47Z</time>
      </trkpt>
      <trkpt lat="43.72936" lon="6.64313">
        <ele>1085.7</ele>
        <time>2024-05-26T14:29:48Z</time>
      </trkpt>
      <trkpt lat="43.72935" lon="6.64312">
        <ele>1085.7</ele>
        <time>2024-05-26T14:29:49Z</time>
      </trkpt>
      <trkpt lat="43.72936" lon="6.6431">
        <ele>1085.8</ele>
        <time>2024-05-26T14:29:50Z</time>
      </trkpt>
      <trkpt lat="43.72936" lon="6.64309">
        <ele>1085.8</ele>
        <time>2024-05-26T14:29:51Z</time>
      </trkpt>
      <trkpt lat="43.72936" lon="6.64307">
        <ele>1085.9</ele>
        <time>2024-05-26T14:29:52Z</time>
      </trkpt>
      <trkpt lat="43.72936" lon="6.64306">
        <ele>1085.9</ele>
        <time>2024-05-26T14:29:53Z</time>
      </trkpt>
      <trkpt lat="43.72936" lon="6.64305">
        <ele>1086</ele>
        <time>2024-05-26T14:29:54Z</time>
      </trkpt>
      <trkpt lat="43.72935" lon="6.64303">
        <ele>1085.9</ele>
        <time>2024-05-26T14:29:55Z</time>
      </trkpt>
      <trkpt lat="43.72936" lon="6.64302">
        <ele>1085.8</ele>
        <time>2024-05-26T14:29:56Z</time>
      </trkpt>
      <trkpt lat="43.72935" lon="6.643">
        <ele>1085.7</ele>
        <time>2024-05-26T14:29:57Z</time>
      </trkpt>
      <trkpt lat="43.72935" lon="6.64298">
        <ele>1085.8</ele>
        <time>2024-05-26T14:29:58Z</time>
      </trkpt>
      <trkpt lat="43.72934" lon="6.64297">
        <ele>1085.8</ele>
        <time>2024-05-26T14:29:59Z</time>
      </trkpt>
      <trkpt lat="43.72934" lon="6.64296">
        <ele>1085.8</ele>
        <time>2024-05-26T14:30:00Z</time>
      </trkpt>
      <trkpt lat="43.72933" lon="6.64294">
        <ele>1085.8</ele>
        <time>2024-05-26T14:30:01Z</time>
      </trkpt>
      <trkpt lat="43.72933" lon="6.64292">
        <ele>1085.7</ele>
        <time>2024-05-26T14:30:02Z</time>
      </trkpt>
      <trkpt lat="43.72933" lon="6.64292">
        <ele>1085.7</ele>
        <time>2024-05-26T14:30:03Z</time>
      </trkpt>
      <trkpt lat="43.72934" lon="6.6429">
        <ele>1085.7</ele>
        <time>2024-05-26T14:30:04Z</time>
      </trkpt>
      <trkpt lat="43.72933" lon="6.64288">
        <ele>1085.6</ele>
        <time>2024-05-26T14:30:05Z</time>
      </trkpt>
      <trkpt lat="43.72933" lon="6.64287">
        <ele>1085.6</ele>
        <time>2024-05-26T14:30:06Z</time>
      </trkpt>
      <trkpt lat="43.72932" lon="6.64284">
        <ele>1085.5</ele>
        <time>2024-05-26T14:30:07Z</time>
      </trkpt>
      <trkpt lat="43.72931" lon="6.64283">
        <ele>1085.5</ele>
        <time>2024-05-26T14:30:08Z</time>
      </trkpt>
      <trkpt lat="43.72931" lon="6.64281">
        <ele>1085.4</ele>
        <time>2024-05-26T14:30:09Z</time>
      </trkpt>
      <trkpt lat="43.7293" lon="6.64279">
        <ele>1085.3</ele>
        <time>2024-05-26T14:30:10Z</time>
      </trkpt>
      <trkpt lat="43.7293" lon="6.64277">
        <ele>1085.2</ele>
        <time>2024-05-26T14:30:11Z</time>
      </trkpt>
      <trkpt lat="43.7293" lon="6.64275">
        <ele>1085.1</ele>
        <time>2024-05-26T14:30:12Z</time>
      </trkpt>
      <trkpt lat="43.7293" lon="6.64274">
        <ele>1085.1</ele>
        <time>2024-05-26T14:30:13Z</time>
      </trkpt>
      <trkpt lat="43.7293" lon="6.64273">
        <ele>1085.2</ele>
        <time>2024-05-26T14:30:14Z</time>
      </trkpt>
      <trkpt lat="43.7293" lon="6.64271">
        <ele>1085.2</ele>
        <time>2024-05-26T14:30:15Z</time>
      </trkpt>
      <trkpt lat="43.7293" lon="6.64269">
        <ele>1085.2</ele>
        <time>2024-05-26T14:30:16Z</time>
      </trkpt>
      <trkpt lat="43.7293" lon="6.64268">
        <ele>1085.3</ele>
        <time>2024-05-26T14:30:17Z</time>
      </trkpt>
      <trkpt lat="43.72929" lon="6.64266">
        <ele>1085.3</ele>
        <time>2024-05-26T14:30:18Z</time>
      </trkpt>
      <trkpt lat="43.72929" lon="6.64264">
        <ele>1085.4</ele>
        <time>2024-05-26T14:30:19Z</time>
      </trkpt>
      <trkpt lat="43.72928" lon="6.64263">
        <ele>1085.4</ele>
        <time>2024-05-26T14:30:20Z</time>
      </trkpt>
      <trkpt lat="43.72928" lon="6.64261">
        <ele>1085.4</ele>
        <time>2024-05-26T14:30:21Z</time>
      </trkpt>
      <trkpt lat="43.72927" lon="6.64259">
        <ele>1085.4</ele>
        <time>2024-05-26T14:30:22Z</time>
      </trkpt>
      <trkpt lat="43.72927" lon="6.64257">
        <ele>1085.3</ele>
        <time>2024-05-26T14:30:23Z</time>
      </trkpt>
      <trkpt lat="43.72926" lon="6.64255">
        <ele>1085.1</ele>
        <time>2024-05-26T14:30:24Z</time>
      </trkpt>
      <trkpt lat="43.72926" lon="6.64254">
        <ele>1084.9</ele>
        <time>2024-05-26T14:30:25Z</time>
      </trkpt>
      <trkpt lat="43.72925" lon="6.64252">
        <ele>1084.7</ele>
        <time>2024-05-26T14:30:26Z</time>
      </trkpt>
      <trkpt lat="43.72925" lon="6.64251">
        <ele>1084.6</ele>
        <time>2024-05-26T14:30:27Z</time>
      </trkpt>
      <trkpt lat="43.72925" lon="6.64249">
        <ele>1084.5</ele>
        <time>2024-05-26T14:30:28Z</time>
      </trkpt>
      <trkpt lat="43.72924" lon="6.64247">
        <ele>1084.4</ele>
        <time>2024-05-26T14:30:29Z</time>
      </trkpt>
      <trkpt lat="43.72924" lon="6.64245">
        <ele>1084.4</ele>
        <time>2024-05-26T14:30:30Z</time>
      </trkpt>
      <trkpt lat="43.72923" lon="6.64244">
        <ele>1084.2</ele>
        <time>2024-05-26T14:30:31Z</time>
      </trkpt>
      <trkpt lat="43.72923" lon="6.64243">
        <ele>1084.1</ele>
        <time>2024-05-26T14:30:32Z</time>
      </trkpt>
      <trkpt lat="43.72922" lon="6.6424">
        <ele>1084</ele>
        <time>2024-05-26T14:30:33Z</time>
      </trkpt>
      <trkpt lat="43.72921" lon="6.64239">
        <ele>1083.9</ele>
        <time>2024-05-26T14:30:34Z</time>
      </trkpt>
      <trkpt lat="43.72921" lon="6.64238">
        <ele>1083.8</ele>
        <time>2024-05-26T14:30:35Z</time>
      </trkpt>
      <trkpt lat="43.7292" lon="6.64237">
        <ele>1083.7</ele>
        <time>2024-05-26T14:30:36Z</time>
      </trkpt>
      <trkpt lat="43.72919" lon="6.64236">
        <ele>1083.6</ele>
        <time>2024-05-26T14:30:37Z</time>
      </trkpt>
      <trkpt lat="43.72917" lon="6.64235">
        <ele>1083.4</ele>
        <time>2024-05-26T14:30:38Z</time>
      </trkpt>
      <trkpt lat="43.72916" lon="6.64234">
        <ele>1083.2</ele>
        <time>2024-05-26T14:30:39Z</time>
      </trkpt>
      <trkpt lat="43.72916" lon="6.64233">
        <ele>1083.1</ele>
        <time>2024-05-26T14:30:40Z</time>
      </trkpt>
      <trkpt lat="43.72914" lon="6.64232">
        <ele>1083</ele>
        <time>2024-05-26T14:30:41Z</time>
      </trkpt>
      <trkpt lat="43.72913" lon="6.64232">
        <ele>1082.9</ele>
        <time>2024-05-26T14:30:42Z</time>
      </trkpt>
      <trkpt lat="43.72911" lon="6.64231">
        <ele>1082.7</ele>
        <time>2024-05-26T14:30:43Z</time>
      </trkpt>
      <trkpt lat="43.7291" lon="6.6423">
        <ele>1082.6</ele>
        <time>2024-05-26T14:30:44Z</time>
      </trkpt>
      <trkpt lat="43.72909" lon="6.6423">
        <ele>1082.5</ele>
        <time>2024-05-26T14:30:45Z</time>
      </trkpt>
      <trkpt lat="43.72908" lon="6.64229">
        <ele>1082.4</ele>
        <time>2024-05-26T14:30:46Z</time>
      </trkpt>
      <trkpt lat="43.72907" lon="6.64228">
        <ele>1082.3</ele>
        <time>2024-05-26T14:30:47Z</time>
      </trkpt>
      <trkpt lat="43.72906" lon="6.64228">
        <ele>1082.2</ele>
        <time>2024-05-26T14:30:48Z</time>
      </trkpt>
      <trkpt lat="43.72905" lon="6.64227">
        <ele>1082.2</ele>
        <time>2024-05-26T14:30:49Z</time>
      </trkpt>
      <trkpt lat="43.72905" lon="6.64226">
        <ele>1082.1</ele>
        <time>2024-05-26T14:30:50Z</time>
      </trkpt>
      <trkpt lat="43.72904" lon="6.64226">
        <ele>1082.1</ele>
        <time>2024-05-26T14:30:51Z</time>
      </trkpt>
      <trkpt lat="43.72903" lon="6.64225">
        <ele>1081.9</ele>
        <time>2024-05-26T14:30:52Z</time>
      </trkpt>
      <trkpt lat="43.72902" lon="6.64224">
        <ele>1081.7</ele>
        <time>2024-05-26T14:30:53Z</time>
      </trkpt>
      <trkpt lat="43.72901" lon="6.64223">
        <ele>1081.6</ele>
        <time>2024-05-26T14:30:54Z</time>
      </trkpt>
      <trkpt lat="43.729" lon="6.64222">
        <ele>1081.3</ele>
        <time>2024-05-26T14:30:55Z</time>
      </trkpt>
      <trkpt lat="43.72899" lon="6.64221">
        <ele>1081.1</ele>
        <time>2024-05-26T14:30:56Z</time>
      </trkpt>
      <trkpt lat="43.72898" lon="6.6422">
        <ele>1080.9</ele>
        <time>2024-05-26T14:30:57Z</time>
      </trkpt>
      <trkpt lat="43.72897" lon="6.6422">
        <ele>1080.8</ele>
        <time>2024-05-26T14:30:58Z</time>
      </trkpt>
      <trkpt lat="43.72896" lon="6.64219">
        <ele>1080.6</ele>
        <time>2024-05-26T14:30:59Z</time>
      </trkpt>
      <trkpt lat="43.72895" lon="6.64218">
        <ele>1080.5</ele>
        <time>2024-05-26T14:31:00Z</time>
      </trkpt>
      <trkpt lat="43.72894" lon="6.64217">
        <ele>1080.4</ele>
        <time>2024-05-26T14:31:01Z</time>
      </trkpt>
      <trkpt lat="43.72893" lon="6.64216">
        <ele>1080.2</ele>
        <time>2024-05-26T14:31:02Z</time>
      </trkpt>
      <trkpt lat="43.72892" lon="6.64215">
        <ele>1080</ele>
        <time>2024-05-26T14:31:03Z</time>
      </trkpt>
      <trkpt lat="43.72891" lon="6.64214">
        <ele>1079.8</ele>
        <time>2024-05-26T14:31:04Z</time>
      </trkpt>
      <trkpt lat="43.7289" lon="6.64213">
        <ele>1079.5</ele>
        <time>2024-05-26T14:31:05Z</time>
      </trkpt>
      <trkpt lat="43.72889" lon="6.64212">
        <ele>1079.2</ele>
        <time>2024-05-26T14:31:06Z</time>
      </trkpt>
      <trkpt lat="43.72888" lon="6.64212">
        <ele>1079</ele>
        <time>2024-05-26T14:31:07Z</time>
      </trkpt>
      <trkpt lat="43.72887" lon="6.64211">
        <ele>1078.9</ele>
        <time>2024-05-26T14:31:08Z</time>
      </trkpt>
      <trkpt lat="43.72887" lon="6.6421">
        <ele>1078.7</ele>
        <time>2024-05-26T14:31:09Z</time>
      </trkpt>
      <trkpt lat="43.72886" lon="6.64209">
        <ele>1078.5</ele>
        <time>2024-05-26T14:31:10Z</time>
      </trkpt>
      <trkpt lat="43.72885" lon="6.64208">
        <ele>1078.4</ele>
        <time>2024-05-26T14:31:11Z</time>
      </trkpt>
      <trkpt lat="43.72884" lon="6.64208">
        <ele>1078.2</ele>
        <time>2024-05-26T14:31:12Z</time>
      </trkpt>
      <trkpt lat="43.72883" lon="6.64207">
        <ele>1078.1</ele>
        <time>2024-05-26T14:31:13Z</time>
      </trkpt>
      <trkpt lat="43.72882" lon="6.64206">
        <ele>1078</ele>
        <time>2024-05-26T14:31:14Z</time>
      </trkpt>
      <trkpt lat="43.72882" lon="6.64206">
        <ele>1077.9</ele>
        <time>2024-05-26T14:31:15Z</time>
      </trkpt>
      <trkpt lat="43.72881" lon="6.64205">
        <ele>1077.6</ele>
        <time>2024-05-26T14:31:16Z</time>
      </trkpt>
      <trkpt lat="43.7288" lon="6.64204">
        <ele>1077.4</ele>
        <time>2024-05-26T14:31:17Z</time>
      </trkpt>
      <trkpt lat="43.72879" lon="6.64202">
        <ele>1077.2</ele>
        <time>2024-05-26T14:31:18Z</time>
      </trkpt>
      <trkpt lat="43.72878" lon="6.64201">
        <ele>1077.1</ele>
        <time>2024-05-26T14:31:19Z</time>
      </trkpt>
      <trkpt lat="43.72877" lon="6.642">
        <ele>1077</ele>
        <time>2024-05-26T14:31:20Z</time>
      </trkpt>
      <trkpt lat="43.72876" lon="6.64199">
        <ele>1076.8</ele>
        <time>2024-05-26T14:31:21Z</time>
      </trkpt>
      <trkpt lat="43.72875" lon="6.64198">
        <ele>1076.7</ele>
        <time>2024-05-26T14:31:22Z</time>
      </trkpt>
      <trkpt lat="43.72874" lon="6.64197">
        <ele>1076.5</ele>
        <time>2024-05-26T14:31:23Z</time>
      </trkpt>
      <trkpt lat="43.72874" lon="6.64196">
        <ele>1076.3</ele>
        <time>2024-05-26T14:31:24Z</time>
      </trkpt>
      <trkpt lat="43.72873" lon="6.64195">
        <ele>1076.1</ele>
        <time>2024-05-26T14:31:25Z</time>
      </trkpt>
      <trkpt lat="43.72872" lon="6.64194">
        <ele>1075.8</ele>
        <time>2024-05-26T14:31:26Z</time>
      </trkpt>
      <trkpt lat="43.72871" lon="6.64194">
        <ele>1075.7</ele>
        <time>2024-05-26T14:31:27Z</time>
      </trkpt>
      <trkpt lat="43.7287" lon="6.64193">
        <ele>1075.4</ele>
        <time>2024-05-26T14:31:28Z</time>
      </trkpt>
      <trkpt lat="43.7287" lon="6.64192">
        <ele>1075.3</ele>
        <time>2024-05-26T14:31:29Z</time>
      </trkpt>
      <trkpt lat="43.72869" lon="6.64191">
        <ele>1075.2</ele>
        <time>2024-05-26T14:31:30Z</time>
      </trkpt>
      <trkpt lat="43.72869" lon="6.64189">
        <ele>1075</ele>
        <time>2024-05-26T14:31:31Z</time>
      </trkpt>
      <trkpt lat="43.72869" lon="6.64188">
        <ele>1074.9</ele>
        <time>2024-05-26T14:31:32Z</time>
      </trkpt>
      <trkpt lat="43.72868" lon="6.64187">
        <ele>1074.7</ele>
        <time>2024-05-26T14:31:33Z</time>
      </trkpt>
      <trkpt lat="43.72867" lon="6.64186">
        <ele>1074.5</ele>
        <time>2024-05-26T14:31:34Z</time>
      </trkpt>
      <trkpt lat="43.72866" lon="6.64185">
        <ele>1074.4</ele>
        <time>2024-05-26T14:31:35Z</time>
      </trkpt>
      <trkpt lat="43.72866" lon="6.64184">
        <ele>1074.3</ele>
        <time>2024-05-26T14:31:36Z</time>
      </trkpt>
      <trkpt lat="43.72865" lon="6.64183">
        <ele>1074</ele>
        <time>2024-05-26T14:31:37Z</time>
      </trkpt>
      <trkpt lat="43.72865" lon="6.64182">
        <ele>1073.8</ele>
        <time>2024-05-26T14:31:38Z</time>
      </trkpt>
      <trkpt lat="43.72864" lon="6.64181">
        <ele>1073.7</ele>
        <time>2024-05-26T14:31:39Z</time>
      </trkpt>
      <trkpt lat="43.72863" lon="6.64179">
        <ele>1073.5</ele>
        <time>2024-05-26T14:31:40Z</time>
      </trkpt>
      <trkpt lat="43.72862" lon="6.64178">
        <ele>1073.4</ele>
        <time>2024-05-26T14:31:41Z</time>
      </trkpt>
      <trkpt lat="43.72862" lon="6.64177">
        <ele>1073.1</ele>
        <time>2024-05-26T14:31:42Z</time>
      </trkpt>
      <trkpt lat="43.72861" lon="6.64176">
        <ele>1072.7</ele>
        <time>2024-05-26T14:31:43Z</time>
      </trkpt>
      <trkpt lat="43.72861" lon="6.64174">
        <ele>1072.5</ele>
        <time>2024-05-26T14:31:44Z</time>
      </trkpt>
      <trkpt lat="43.7286" lon="6.64172">
        <ele>1072.3</ele>
        <time>2024-05-26T14:31:45Z</time>
      </trkpt>
      <trkpt lat="43.72859" lon="6.64171">
        <ele>1072.2</ele>
        <time>2024-05-26T14:31:46Z</time>
      </trkpt>
      <trkpt lat="43.72858" lon="6.64169">
        <ele>1072</ele>
        <time>2024-05-26T14:31:47Z</time>
      </trkpt>
      <trkpt lat="43.72858" lon="6.64168">
        <ele>1071.9</ele>
        <time>2024-05-26T14:31:48Z</time>
      </trkpt>
      <trkpt lat="43.72857" lon="6.64166">
        <ele>1071.8</ele>
        <time>2024-05-26T14:31:49Z</time>
      </trkpt>
      <trkpt lat="43.72857" lon="6.64164">
        <ele>1071.7</ele>
        <time>2024-05-26T14:31:50Z</time>
      </trkpt>
      <trkpt lat="43.72856" lon="6.64163">
        <ele>1071.5</ele>
        <time>2024-05-26T14:31:51Z</time>
      </trkpt>
      <trkpt lat="43.72855" lon="6.64161">
        <ele>1071.4</ele>
        <time>2024-05-26T14:31:52Z</time>
      </trkpt>
      <trkpt lat="43.72854" lon="6.6416">
        <ele>1071.4</ele>
        <time>2024-05-26T14:31:53Z</time>
      </trkpt>
      <trkpt lat="43.72853" lon="6.64158">
        <ele>1071.3</ele>
        <time>2024-05-26T14:31:54Z</time>
      </trkpt>
      <trkpt lat="43.72852" lon="6.64156">
        <ele>1071.3</ele>
        <time>2024-05-26T14:31:55Z</time>
      </trkpt>
      <trkpt lat="43.72851" lon="6.64155">
        <ele>1071.4</ele>
        <time>2024-05-26T14:31:56Z</time>
      </trkpt>
      <trkpt lat="43.7285" lon="6.64153">
        <ele>1071.4</ele>
        <time>2024-05-26T14:31:57Z</time>
      </trkpt>
      <trkpt lat="43.72848" lon="6.64152">
        <ele>1071.2</ele>
        <time>2024-05-26T14:31:58Z</time>
      </trkpt>
      <trkpt lat="43.72846" lon="6.64151">
        <ele>1071.1</ele>
        <time>2024-05-26T14:31:59Z</time>
      </trkpt>
      <trkpt lat="43.72845" lon="6.6415">
        <ele>1071.2</ele>
        <time>2024-05-26T14:32:00Z</time>
      </trkpt>
      <trkpt lat="43.72844" lon="6.64148">
        <ele>1071.3</ele>
        <time>2024-05-26T14:32:01Z</time>
      </trkpt>
      <trkpt lat="43.72843" lon="6.64147">
        <ele>1071.3</ele>
        <time>2024-05-26T14:32:02Z</time>
      </trkpt>
      <trkpt lat="43.72842" lon="6.64146">
        <ele>1071.3</ele>
        <time>2024-05-26T14:32:03Z</time>
      </trkpt>
      <trkpt lat="43.72841" lon="6.64145">
        <ele>1071.4</ele>
        <time>2024-05-26T14:32:04Z</time>
      </trkpt>
      <trkpt lat="43.7284" lon="6.64144">
        <ele>1071.4</ele>
        <time>2024-05-26T14:32:05Z</time>
      </trkpt>
      <trkpt lat="43.72839" lon="6.64143">
        <ele>1071.4</ele>
        <time>2024-05-26T14:32:06Z</time>
      </trkpt>
      <trkpt lat="43.72838" lon="6.64142">
        <ele>1071.5</ele>
        <time>2024-05-26T14:32:07Z</time>
      </trkpt>
      <trkpt lat="43.72836" lon="6.64142">
        <ele>1071.5</ele>
        <time>2024-05-26T14:32:08Z</time>
      </trkpt>
      <trkpt lat="43.72835" lon="6.6414">
        <ele>1071.5</ele>
        <time>2024-05-26T14:32:09Z</time>
      </trkpt>
      <trkpt lat="43.72833" lon="6.64139">
        <ele>1071.6</ele>
        <time>2024-05-26T14:32:10Z</time>
      </trkpt>
      <trkpt lat="43.72832" lon="6.64138">
        <ele>1071.6</ele>
        <time>2024-05-26T14:32:11Z</time>
      </trkpt>
      <trkpt lat="43.72831" lon="6.64136">
        <ele>1071.5</ele>
        <time>2024-05-26T14:32:12Z</time>
      </trkpt>
      <trkpt lat="43.72831" lon="6.64135">
        <ele>1071.6</ele>
        <time>2024-05-26T14:32:13Z</time>
      </trkpt>
      <trkpt lat="43.7283" lon="6.64134">
        <ele>1071.6</ele>
        <time>2024-05-26T14:32:14Z</time>
      </trkpt>
      <trkpt lat="43.72828" lon="6.64133">
        <ele>1071.7</ele>
        <time>2024-05-26T14:32:15Z</time>
      </trkpt>
      <trkpt lat="43.72827" lon="6.64132">
        <ele>1071.7</ele>
        <time>2024-05-26T14:32:16Z</time>
      </trkpt>
      <trkpt lat="43.72826" lon="6.6413">
        <ele>1071.8</ele>
        <time>2024-05-26T14:32:17Z</time>
      </trkpt>
      <trkpt lat="43.72825" lon="6.64129">
        <ele>1071.8</ele>
        <time>2024-05-26T14:32:18Z</time>
      </trkpt>
      <trkpt lat="43.72824" lon="6.64128">
        <ele>1071.8</ele>
        <time>2024-05-26T14:32:19Z</time>
      </trkpt>
      <trkpt lat="43.72823" lon="6.64127">
        <ele>1071.8</ele>
        <time>2024-05-26T14:32:20Z</time>
      </trkpt>
      <trkpt lat="43.72823" lon="6.64126">
        <ele>1071.7</ele>
        <time>2024-05-26T14:32:21Z</time>
      </trkpt>
      <trkpt lat="43.72822" lon="6.64124">
        <ele>1071.7</ele>
        <time>2024-05-26T14:32:22Z</time>
      </trkpt>
      <trkpt lat="43.72821" lon="6.64123">
        <ele>1071.7</ele>
        <time>2024-05-26T14:32:23Z</time>
      </trkpt>
      <trkpt lat="43.72821" lon="6.64122">
        <ele>1071.7</ele>
        <time>2024-05-26T14:32:24Z</time>
      </trkpt>
      <trkpt lat="43.7282" lon="6.64121">
        <ele>1071.7</ele>
        <time>2024-05-26T14:32:25Z</time>
      </trkpt>
      <trkpt lat="43.7282" lon="6.64119">
        <ele>1071.7</ele>
        <time>2024-05-26T14:32:26Z</time>
      </trkpt>
      <trkpt lat="43.72819" lon="6.64119">
        <ele>1071.6</ele>
        <time>2024-05-26T14:32:27Z</time>
      </trkpt>
      <trkpt lat="43.72818" lon="6.64118">
        <ele>1071.5</ele>
        <time>2024-05-26T14:32:28Z</time>
      </trkpt>
      <trkpt lat="43.72817" lon="6.64117">
        <ele>1071.5</ele>
        <time>2024-05-26T14:32:29Z</time>
      </trkpt>
      <trkpt lat="43.72816" lon="6.64115">
        <ele>1071.5</ele>
        <time>2024-05-26T14:32:30Z</time>
      </trkpt>
      <trkpt lat="43.72815" lon="6.64114">
        <ele>1071.4</ele>
        <time>2024-05-26T14:32:31Z</time>
      </trkpt>
      <trkpt lat="43.72814" lon="6.64113">
        <ele>1071.3</ele>
        <time>2024-05-26T14:32:32Z</time>
      </trkpt>
      <trkpt lat="43.72813" lon="6.64112">
        <ele>1071.3</ele>
        <time>2024-05-26T14:32:33Z</time>
      </trkpt>
      <trkpt lat="43.72812" lon="6.64111">
        <ele>1071.3</ele>
        <time>2024-05-26T14:32:34Z</time>
      </trkpt>
      <trkpt lat="43.72811" lon="6.6411">
        <ele>1071.3</ele>
        <time>2024-05-26T14:32:35Z</time>
      </trkpt>
      <trkpt lat="43.7281" lon="6.64109">
        <ele>1071.2</ele>
        <time>2024-05-26T14:32:36Z</time>
      </trkpt>
      <trkpt lat="43.7281" lon="6.64108">
        <ele>1071.2</ele>
        <time>2024-05-26T14:32:37Z</time>
      </trkpt>
      <trkpt lat="43.7281" lon="6.64106">
        <ele>1071.1</ele>
        <time>2024-05-26T14:32:38Z</time>
      </trkpt>
      <trkpt lat="43.72809" lon="6.64105">
        <ele>1071.1</ele>
        <time>2024-05-26T14:32:39Z</time>
      </trkpt>
      <trkpt lat="43.72808" lon="6.64103">
        <ele>1071.1</ele>
        <time>2024-05-26T14:32:40Z</time>
      </trkpt>
      <trkpt lat="43.72807" lon="6.64102">
        <ele>1071</ele>
        <time>2024-05-26T14:32:41Z</time>
      </trkpt>
      <trkpt lat="43.72806" lon="6.64101">
        <ele>1071</ele>
        <time>2024-05-26T14:32:42Z</time>
      </trkpt>
      <trkpt lat="43.72805" lon="6.64101">
        <ele>1071</ele>
        <time>2024-05-26T14:32:43Z</time>
      </trkpt>
      <trkpt lat="43.72804" lon="6.64099">
        <ele>1071.1</ele>
        <time>2024-05-26T14:32:44Z</time>
      </trkpt>
      <trkpt lat="43.72803" lon="6.64099">
        <ele>1070.9</ele>
        <time>2024-05-26T14:32:45Z</time>
      </trkpt>
      <trkpt lat="43.72802" lon="6.64097">
        <ele>1070.8</ele>
        <time>2024-05-26T14:32:46Z</time>
      </trkpt>
      <trkpt lat="43.72801" lon="6.64096">
        <ele>1070.7</ele>
        <time>2024-05-26T14:32:47Z</time>
      </trkpt>
      <trkpt lat="43.72801" lon="6.64095">
        <ele>1070.6</ele>
        <time>2024-05-26T14:32:48Z</time>
      </trkpt>
      <trkpt lat="43.72799" lon="6.64094">
        <ele>1070.5</ele>
        <time>2024-05-26T14:32:49Z</time>
      </trkpt>
      <trkpt lat="43.72798" lon="6.64092">
        <ele>1070.5</ele>
        <time>2024-05-26T14:32:50Z</time>
      </trkpt>
      <trkpt lat="43.72797" lon="6.64091">
        <ele>1070.4</ele>
        <time>2024-05-26T14:32:51Z</time>
      </trkpt>
      <trkpt lat="43.72797" lon="6.6409">
        <ele>1070.3</ele>
        <time>2024-05-26T14:32:52Z</time>
      </trkpt>
      <trkpt lat="43.72796" lon="6.64088">
        <ele>1070.3</ele>
        <time>2024-05-26T14:32:53Z</time>
      </trkpt>
      <trkpt lat="43.72794" lon="6.64088">
        <ele>1070.2</ele>
        <time>2024-05-26T14:32:54Z</time>
      </trkpt>
      <trkpt lat="43.72794" lon="6.64088">
        <ele>1070.2</ele>
        <time>2024-05-26T14:32:55Z</time>
      </trkpt>
      <trkpt lat="43.72792" lon="6.64087">
        <ele>1070.1</ele>
        <time>2024-05-26T14:32:56Z</time>
      </trkpt>
      <trkpt lat="43.72791" lon="6.64086">
        <ele>1070.2</ele>
        <time>2024-05-26T14:32:57Z</time>
      </trkpt>
      <trkpt lat="43.7279" lon="6.64085">
        <ele>1070.2</ele>
        <time>2024-05-26T14:32:58Z</time>
      </trkpt>
      <trkpt lat="43.72788" lon="6.64085">
        <ele>1070.2</ele>
        <time>2024-05-26T14:32:59Z</time>
      </trkpt>
      <trkpt lat="43.72787" lon="6.64084">
        <ele>1070.1</ele>
        <time>2024-05-26T14:33:00Z</time>
      </trkpt>
      <trkpt lat="43.72786" lon="6.64082">
        <ele>1070</ele>
        <time>2024-05-26T14:33:01Z</time>
      </trkpt>
      <trkpt lat="43.72786" lon="6.64081">
        <ele>1069.9</ele>
        <time>2024-05-26T14:33:02Z</time>
      </trkpt>
      <trkpt lat="43.72786" lon="6.6408">
        <ele>1069.9</ele>
        <time>2024-05-26T14:33:03Z</time>
      </trkpt>
      <trkpt lat="43.72785" lon="6.64078">
        <ele>1069.9</ele>
        <time>2024-05-26T14:33:04Z</time>
      </trkpt>
      <trkpt lat="43.72784" lon="6.64077">
        <ele>1069.8</ele>
        <time>2024-05-26T14:33:05Z</time>
      </trkpt>
      <trkpt lat="43.72783" lon="6.64076">
        <ele>1069.7</ele>
        <time>2024-05-26T14:33:06Z</time>
      </trkpt>
      <trkpt lat="43.72782" lon="6.64075">
        <ele>1069.6</ele>
        <time>2024-05-26T14:33:07Z</time>
      </trkpt>
      <trkpt lat="43.72781" lon="6.64074">
        <ele>1069.5</ele>
        <time>2024-05-26T14:33:08Z</time>
      </trkpt>
      <trkpt lat="43.7278" lon="6.64073">
        <ele>1069.4</ele>
        <time>2024-05-26T14:33:09Z</time>
      </trkpt>
      <trkpt lat="43.72779" lon="6.64072">
        <ele>1069.3</ele>
        <time>2024-05-26T14:33:10Z</time>
      </trkpt>
      <trkpt lat="43.72777" lon="6.64071">
        <ele>1069.2</ele>
        <time>2024-05-26T14:33:11Z</time>
      </trkpt>
      <trkpt lat="43.72776" lon="6.64071">
        <ele>1069.2</ele>
        <time>2024-05-26T14:33:12Z</time>
      </trkpt>
      <trkpt lat="43.72775" lon="6.64069">
        <ele>1069.2</ele>
        <time>2024-05-26T14:33:13Z</time>
      </trkpt>
      <trkpt lat="43.72775" lon="6.64067">
        <ele>1069.1</ele>
        <time>2024-05-26T14:33:14Z</time>
      </trkpt>
      <trkpt lat="43.72774" lon="6.64066">
        <ele>1069.1</ele>
        <time>2024-05-26T14:33:15Z</time>
      </trkpt>
      <trkpt lat="43.72774" lon="6.64066">
        <ele>1069</ele>
        <time>2024-05-26T14:33:16Z</time>
      </trkpt>
      <trkpt lat="43.72773" lon="6.64066">
        <ele>1068.9</ele>
        <time>2024-05-26T14:33:17Z</time>
      </trkpt>
      <trkpt lat="43.72772" lon="6.64065">
        <ele>1068.9</ele>
        <time>2024-05-26T14:33:18Z</time>
      </trkpt>
      <trkpt lat="43.7277" lon="6.64064">
        <ele>1068.7</ele>
        <time>2024-05-26T14:33:19Z</time>
      </trkpt>
      <trkpt lat="43.72769" lon="6.64064">
        <ele>1068.6</ele>
        <time>2024-05-26T14:33:20Z</time>
      </trkpt>
      <trkpt lat="43.72769" lon="6.64063">
        <ele>1068.5</ele>
        <time>2024-05-26T14:33:21Z</time>
      </trkpt>
      <trkpt lat="43.72767" lon="6.64063">
        <ele>1068.3</ele>
        <time>2024-05-26T14:33:22Z</time>
      </trkpt>
      <trkpt lat="43.72766" lon="6.64061">
        <ele>1068.1</ele>
        <time>2024-05-26T14:33:23Z</time>
      </trkpt>
      <trkpt lat="43.72764" lon="6.64061">
        <ele>1067.9</ele>
        <time>2024-05-26T14:33:24Z</time>
      </trkpt>
      <trkpt lat="43.72762" lon="6.64061">
        <ele>1067.9</ele>
        <time>2024-05-26T14:33:25Z</time>
      </trkpt>
      <trkpt lat="43.7276" lon="6.64061">
        <ele>1067.8</ele>
        <time>2024-05-26T14:33:26Z</time>
      </trkpt>
      <trkpt lat="43.72759" lon="6.6406">
        <ele>1067.7</ele>
        <time>2024-05-26T14:33:27Z</time>
      </trkpt>
      <trkpt lat="43.72757" lon="6.64062">
        <ele>1067.6</ele>
        <time>2024-05-26T14:33:28Z</time>
      </trkpt>
      <trkpt lat="43.72755" lon="6.64062">
        <ele>1067.5</ele>
        <time>2024-05-26T14:33:29Z</time>
      </trkpt>
      <trkpt lat="43.72754" lon="6.64062">
        <ele>1067.4</ele>
        <time>2024-05-26T14:33:30Z</time>
      </trkpt>
      <trkpt lat="43.72753" lon="6.64062">
        <ele>1067.3</ele>
        <time>2024-05-26T14:33:31Z</time>
      </trkpt>
      <trkpt lat="43.72752" lon="6.64063">
        <ele>1067.2</ele>
        <time>2024-05-26T14:33:32Z</time>
      </trkpt>
      <trkpt lat="43.7275" lon="6.64062">
        <ele>1067.1</ele>
        <time>2024-05-26T14:33:33Z</time>
      </trkpt>
      <trkpt lat="43.72749" lon="6.64061">
        <ele>1066.9</ele>
        <time>2024-05-26T14:33:34Z</time>
      </trkpt>
      <trkpt lat="43.72748" lon="6.6406">
        <ele>1066.8</ele>
        <time>2024-05-26T14:33:35Z</time>
      </trkpt>
      <trkpt lat="43.72748" lon="6.6406">
        <ele>1066.7</ele>
        <time>2024-05-26T14:33:36Z</time>
      </trkpt>
      <trkpt lat="43.72747" lon="6.64059">
        <ele>1066.5</ele>
        <time>2024-05-26T14:33:37Z</time>
      </trkpt>
      <trkpt lat="43.72746" lon="6.64058">
        <ele>1066.5</ele>
        <time>2024-05-26T14:33:38Z</time>
      </trkpt>
      <trkpt lat="43.72746" lon="6.64057">
        <ele>1066.5</ele>
        <time>2024-05-26T14:33:39Z</time>
      </trkpt>
      <trkpt lat="43.72745" lon="6.64056">
        <ele>1066.5</ele>
        <time>2024-05-26T14:33:40Z</time>
      </trkpt>
      <trkpt lat="43.72743" lon="6.64056">
        <ele>1066.4</ele>
        <time>2024-05-26T14:33:41Z</time>
      </trkpt>
      <trkpt lat="43.72743" lon="6.64056">
        <ele>1066.3</ele>
        <time>2024-05-26T14:33:42Z</time>
      </trkpt>
      <trkpt lat="43.72741" lon="6.64057">
        <ele>1066.3</ele>
        <time>2024-05-26T14:33:43Z</time>
      </trkpt>
      <trkpt lat="43.7274" lon="6.64056">
        <ele>1066.3</ele>
        <time>2024-05-26T14:33:44Z</time>
      </trkpt>
      <trkpt lat="43.72739" lon="6.64056">
        <ele>1066.2</ele>
        <time>2024-05-26T14:33:45Z</time>
      </trkpt>
      <trkpt lat="43.72737" lon="6.64056">
        <ele>1066.1</ele>
        <time>2024-05-26T14:33:46Z</time>
      </trkpt>
      <trkpt lat="43.72735" lon="6.64056">
        <ele>1065.9</ele>
        <time>2024-05-26T14:33:47Z</time>
      </trkpt>
      <trkpt lat="43.72734" lon="6.64056">
        <ele>1065.9</ele>
        <time>2024-05-26T14:33:48Z</time>
      </trkpt>
      <trkpt lat="43.72733" lon="6.64056">
        <ele>1065.9</ele>
        <time>2024-05-26T14:33:49Z</time>
      </trkpt>
      <trkpt lat="43.72731" lon="6.64056">
        <ele>1065.8</ele>
        <time>2024-05-26T14:33:50Z</time>
      </trkpt>
      <trkpt lat="43.7273" lon="6.64055">
        <ele>1065.8</ele>
        <time>2024-05-26T14:33:51Z</time>
      </trkpt>
      <trkpt lat="43.72729" lon="6.64055">
        <ele>1065.7</ele>
        <time>2024-05-26T14:33:52Z</time>
      </trkpt>
      <trkpt lat="43.72728" lon="6.64055">
        <ele>1065.7</ele>
        <time>2024-05-26T14:33:53Z</time>
      </trkpt>
      <trkpt lat="43.72727" lon="6.64055">
        <ele>1065.7</ele>
        <time>2024-05-26T14:33:54Z</time>
      </trkpt>
      <trkpt lat="43.72726" lon="6.64054">
        <ele>1065.7</ele>
        <time>2024-05-26T14:33:55Z</time>
      </trkpt>
      <trkpt lat="43.72724" lon="6.64054">
        <ele>1065.6</ele>
        <time>2024-05-26T14:33:56Z</time>
      </trkpt>
      <trkpt lat="43.72723" lon="6.64053">
        <ele>1065.6</ele>
        <time>2024-05-26T14:33:57Z</time>
      </trkpt>
      <trkpt lat="43.72722" lon="6.64053">
        <ele>1065.6</ele>
        <time>2024-05-26T14:33:58Z</time>
      </trkpt>
      <trkpt lat="43.72721" lon="6.64053">
        <ele>1065.6</ele>
        <time>2024-05-26T14:33:59Z</time>
      </trkpt>
      <trkpt lat="43.7272" lon="6.64053">
        <ele>1065.6</ele>
        <time>2024-05-26T14:34:00Z</time>
      </trkpt>
      <trkpt lat="43.72719" lon="6.64053">
        <ele>1065.6</ele>
        <time>2024-05-26T14:34:01Z</time>
      </trkpt>
      <trkpt lat="43.72718" lon="6.64053">
        <ele>1065.6</ele>
        <time>2024-05-26T14:34:02Z</time>
      </trkpt>
      <trkpt lat="43.72717" lon="6.64052">
        <ele>1065.6</ele>
        <time>2024-05-26T14:34:03Z</time>
      </trkpt>
      <trkpt lat="43.72717" lon="6.64052">
        <ele>1065.6</ele>
        <time>2024-05-26T14:34:04Z</time>
      </trkpt>
      <trkpt lat="43.72716" lon="6.64052">
        <ele>1065.6</ele>
        <time>2024-05-26T14:34:05Z</time>
      </trkpt>
      <trkpt lat="43.72715" lon="6.64052">
        <ele>1065.6</ele>
        <time>2024-05-26T14:34:06Z</time>
      </trkpt>
      <trkpt lat="43.72714" lon="6.64051">
        <ele>1065.6</ele>
        <time>2024-05-26T14:34:07Z</time>
      </trkpt>
      <trkpt lat="43.72714" lon="6.6405">
        <ele>1065.5</ele>
        <time>2024-05-26T14:34:08Z</time>
      </trkpt>
      <trkpt lat="43.72713" lon="6.6405">
        <ele>1065.5</ele>
        <time>2024-05-26T14:34:09Z</time>
      </trkpt>
      <trkpt lat="43.72713" lon="6.64049">
        <ele>1065.5</ele>
        <time>2024-05-26T14:34:10Z</time>
      </trkpt>
      <trkpt lat="43.72713" lon="6.64049">
        <ele>1065.5</ele>
        <time>2024-05-26T14:34:11Z</time>
      </trkpt>
      <trkpt lat="43.72713" lon="6.64049">
        <ele>1065.5</ele>
        <time>2024-05-26T14:34:12Z</time>
      </trkpt>
      <trkpt lat="43.72713" lon="6.64049">
        <ele>1065.5</ele>
        <time>2024-05-26T14:34:13Z</time>
      </trkpt>
      <trkpt lat="43.72713" lon="6.64049">
        <ele>1065.4</ele>
        <time>2024-05-26T14:34:14Z</time>
      </trkpt>
      <trkpt lat="43.72713" lon="6.64049">
        <ele>1065.4</ele>
        <time>2024-05-26T14:34:15Z</time>
      </trkpt>
      <trkpt lat="43.72713" lon="6.64049">
        <ele>1065.4</ele>
        <time>2024-05-26T14:34:16Z</time>
      </trkpt>
      <trkpt lat="43.72712" lon="6.64048">
        <ele>1065.4</ele>
        <time>2024-05-26T14:34:17Z</time>
      </trkpt>
      <trkpt lat="43.72711" lon="6.64048">
        <ele>1065.3</ele>
        <time>2024-05-26T14:34:18Z</time>
      </trkpt>
      <trkpt lat="43.7271" lon="6.64048">
        <ele>1065.2</ele>
        <time>2024-05-26T14:34:19Z</time>
      </trkpt>
      <trkpt lat="43.7271" lon="6.64048">
        <ele>1065.3</ele>
        <time>2024-05-26T14:34:20Z</time>
      </trkpt>
      <trkpt lat="43.72709" lon="6.64048">
        <ele>1065.2</ele>
        <time>2024-05-26T14:34:21Z</time>
      </trkpt>
      <trkpt lat="43.72709" lon="6.64048">
        <ele>1065.3</ele>
        <time>2024-05-26T14:34:22Z</time>
      </trkpt>
      <trkpt lat="43.72709" lon="6.64048">
        <ele>1065.3</ele>
        <time>2024-05-26T14:34:23Z</time>
      </trkpt>
      <trkpt lat="43.72708" lon="6.64048">
        <ele>1065.3</ele>
        <time>2024-05-26T14:34:24Z</time>
      </trkpt>
      <trkpt lat="43.72708" lon="6.64049">
        <ele>1065.3</ele>
        <time>2024-05-26T14:34:25Z</time>
      </trkpt>
      <trkpt lat="43.72708" lon="6.64049">
        <ele>1065.2</ele>
        <time>2024-05-26T14:34:26Z</time>
      </trkpt>
      <trkpt lat="43.72708" lon="6.64049">
        <ele>1065.1</ele>
        <time>2024-05-26T14:34:27Z</time>
      </trkpt>
      <trkpt lat="43.72708" lon="6.64049">
        <ele>1065.1</ele>
        <time>2024-05-26T14:34:28Z</time>
      </trkpt>
      <trkpt lat="43.72708" lon="6.6405">
        <ele>1065.1</ele>
        <time>2024-05-26T14:34:29Z</time>
      </trkpt>
      <trkpt lat="43.72708" lon="6.6405">
        <ele>1065.2</ele>
        <time>2024-05-26T14:34:30Z</time>
      </trkpt>
      <trkpt lat="43.72708" lon="6.6405">
        <ele>1065.2</ele>
        <time>2024-05-26T14:34:31Z</time>
      </trkpt>
      <trkpt lat="43.72708" lon="6.6405">
        <ele>1065.2</ele>
        <time>2024-05-26T14:34:32Z</time>
      </trkpt>
      <trkpt lat="43.72707" lon="6.6405">
        <ele>1065.2</ele>
        <time>2024-05-26T14:34:33Z</time>
      </trkpt>
      <trkpt lat="43.72707" lon="6.64051">
        <ele>1065.2</ele>
        <time>2024-05-26T14:34:34Z</time>
      </trkpt>
      <trkpt lat="43.72708" lon="6.64051">
        <ele>1065.2</ele>
        <time>2024-05-26T14:34:35Z</time>
      </trkpt>
      <trkpt lat="43.72708" lon="6.64051">
        <ele>1065.1</ele>
        <time>2024-05-26T14:34:36Z</time>
      </trkpt>
      <trkpt lat="43.72708" lon="6.64051">
        <ele>1065.2</ele>
        <time>2024-05-26T14:34:37Z</time>
      </trkpt>
      <trkpt lat="43.72708" lon="6.64051">
        <ele>1065.2</ele>
        <time>2024-05-26T14:34:38Z</time>
      </trkpt>
      <trkpt lat="43.72708" lon="6.64051">
        <ele>1065.2</ele>
        <time>2024-05-26T14:34:39Z</time>
      </trkpt>
      <trkpt lat="43.72708" lon="6.64051">
        <ele>1065.1</ele>
        <time>2024-05-26T14:34:40Z</time>
      </trkpt>
      <trkpt lat="43.72708" lon="6.64051">
        <ele>1065.2</ele>
        <time>2024-05-26T14:34:41Z</time>
      </trkpt>
      <trkpt lat="43.72708" lon="6.64052">
        <ele>1065.3</ele>
        <time>2024-05-26T14:34:42Z</time>
      </trkpt>
      <trkpt lat="43.72708" lon="6.64052">
        <ele>1065.4</ele>
        <time>2024-05-26T14:34:43Z</time>
      </trkpt>
      <trkpt lat="43.72708" lon="6.64052">
        <ele>1065.2</ele>
        <time>2024-05-26T14:34:44Z</time>
      </trkpt>
      <trkpt lat="43.72708" lon="6.64052">
        <ele>1065.1</ele>
        <time>2024-05-26T14:34:45Z</time>
      </trkpt>
      <trkpt lat="43.72708" lon="6.64053">
        <ele>1065</ele>
        <time>2024-05-26T14:34:46Z</time>
      </trkpt>
      <trkpt lat="43.72708" lon="6.64053">
        <ele>1065</ele>
        <time>2024-05-26T14:34:47Z</time>
      </trkpt>
      <trkpt lat="43.72708" lon="6.64052">
        <ele>1064.9</ele>
        <time>2024-05-26T14:34:48Z</time>
      </trkpt>
      <trkpt lat="43.72708" lon="6.64052">
        <ele>1064.8</ele>
        <time>2024-05-26T14:34:49Z</time>
      </trkpt>
      <trkpt lat="43.72708" lon="6.64052">
        <ele>1064.8</ele>
        <time>2024-05-26T14:34:50Z</time>
      </trkpt>
      <trkpt lat="43.72708" lon="6.64053">
        <ele>1064.8</ele>
        <time>2024-05-26T14:34:51Z</time>
      </trkpt>
      <trkpt lat="43.72708" lon="6.64053">
        <ele>1064.8</ele>
        <time>2024-05-26T14:34:52Z</time>
      </trkpt>
      <trkpt lat="43.72708" lon="6.64053">
        <ele>1064.7</ele>
        <time>2024-05-26T14:34:53Z</time>
      </trkpt>
      <trkpt lat="43.72709" lon="6.64053">
        <ele>1064.8</ele>
        <time>2024-05-26T14:34:54Z</time>
      </trkpt>
      <trkpt lat="43.72709" lon="6.64053">
        <ele>1064.7</ele>
        <time>2024-05-26T14:34:55Z</time>
      </trkpt>
      <trkpt lat="43.72709" lon="6.64054">
        <ele>1064.7</ele>
        <time>2024-05-26T14:34:56Z</time>
      </trkpt>
      <trkpt lat="43.72709" lon="6.64054">
        <ele>1064.8</ele>
        <time>2024-05-26T14:34:57Z</time>
      </trkpt>
      <trkpt lat="43.72709" lon="6.64054">
        <ele>1064.8</ele>
        <time>2024-05-26T14:34:58Z</time>
      </trkpt>
      <trkpt lat="43.72709" lon="6.64054">
        <ele>1064.8</ele>
        <time>2024-05-26T14:34:59Z</time>
      </trkpt>
      <trkpt lat="43.72709" lon="6.64054">
        <ele>1064.8</ele>
        <time>2024-05-26T14:35:00Z</time>
      </trkpt>
      <trkpt lat="43.72709" lon="6.64054">
        <ele>1064.7</ele>
        <time>2024-05-26T14:35:01Z</time>
      </trkpt>
      <trkpt lat="43.72709" lon="6.64054">
        <ele>1064.7</ele>
        <time>2024-05-26T14:35:02Z</time>
      </trkpt>
      <trkpt lat="43.72709" lon="6.64054">
        <ele>1064.7</ele>
        <time>2024-05-26T14:35:03Z</time>
      </trkpt>
      <trkpt lat="43.72709" lon="6.64054">
        <ele>1064.7</ele>
        <time>2024-05-26T14:35:04Z</time>
      </trkpt>
      <trkpt lat="43.72708" lon="6.64054">
        <ele>1064.7</ele>
        <time>2024-05-26T14:35:05Z</time>
      </trkpt>
      <trkpt lat="43.72708" lon="6.64054">
        <ele>1064.7</ele>
        <time>2024-05-26T14:35:06Z</time>
      </trkpt>
      <trkpt lat="43.72708" lon="6.64055">
        <ele>1064.6</ele>
        <time>2024-05-26T14:35:07Z</time>
      </trkpt>
      <trkpt lat="43.72708" lon="6.64055">
        <ele>1064.6</ele>
        <time>2024-05-26T14:35:08Z</time>
      </trkpt>
      <trkpt lat="43.72708" lon="6.64055">
        <ele>1064.7</ele>
        <time>2024-05-26T14:35:09Z</time>
      </trkpt>
      <trkpt lat="43.72708" lon="6.64055">
        <ele>1064.7</ele>
        <time>2024-05-26T14:35:10Z</time>
      </trkpt>
      <trkpt lat="43.72708" lon="6.64055">
        <ele>1064.7</ele>
        <time>2024-05-26T14:35:11Z</time>
      </trkpt>
      <trkpt lat="43.72708" lon="6.64055">
        <ele>1064.7</ele>
        <time>2024-05-26T14:35:12Z</time>
      </trkpt>
      <trkpt lat="43.72708" lon="6.64056">
        <ele>1064.7</ele>
        <time>2024-05-26T14:35:13Z</time>
      </trkpt>
      <trkpt lat="43.72708" lon="6.64056">
        <ele>1064.7</ele>
        <time>2024-05-26T14:35:14Z</time>
      </trkpt>
      <trkpt lat="43.72708" lon="6.64056">
        <ele>1064.6</ele>
        <time>2024-05-26T14:35:15Z</time>
      </trkpt>
      <trkpt lat="43.72707" lon="6.64056">
        <ele>1064.7</ele>
        <time>2024-05-26T14:35:16Z</time>
      </trkpt>
      <trkpt lat="43.72708" lon="6.64056">
        <ele>1064.7</ele>
        <time>2024-05-26T14:35:17Z</time>
      </trkpt>
      <trkpt lat="43.72708" lon="6.64056">
        <ele>1064.6</ele>
        <time>2024-05-26T14:35:18Z</time>
      </trkpt>
      <trkpt lat="43.72708" lon="6.64056">
        <ele>1064.5</ele>
        <time>2024-05-26T14:35:19Z</time>
      </trkpt>
      <trkpt lat="43.72708" lon="6.64057">
        <ele>1064.4</ele>
        <time>2024-05-26T14:35:20Z</time>
      </trkpt>
      <trkpt lat="43.72708" lon="6.64057">
        <ele>1064.4</ele>
        <time>2024-05-26T14:35:21Z</time>
      </trkpt>
      <trkpt lat="43.72708" lon="6.64057">
        <ele>1064.4</ele>
        <time>2024-05-26T14:35:22Z</time>
      </trkpt>
      <trkpt lat="43.72708" lon="6.64057">
        <ele>1064.4</ele>
        <time>2024-05-26T14:35:23Z</time>
      </trkpt>
      <trkpt lat="43.72708" lon="6.64057">
        <ele>1064.4</ele>
        <time>2024-05-26T14:35:24Z</time>
      </trkpt>
      <trkpt lat="43.72708" lon="6.64057">
        <ele>1064.4</ele>
        <time>2024-05-26T14:35:25Z</time>
      </trkpt>
      <trkpt lat="43.72708" lon="6.64057">
        <ele>1064.3</ele>
        <time>2024-05-26T14:35:26Z</time>
      </trkpt>
      <trkpt lat="43.72708" lon="6.64057">
        <ele>1064.3</ele>
        <time>2024-05-26T14:35:27Z</time>
      </trkpt>
      <trkpt lat="43.72709" lon="6.64057">
        <ele>1064.2</ele>
        <time>2024-05-26T14:35:28Z</time>
      </trkpt>
      <trkpt lat="43.72709" lon="6.64057">
        <ele>1064.2</ele>
        <time>2024-05-26T14:35:29Z</time>
      </trkpt>
      <trkpt lat="43.72709" lon="6.64057">
        <ele>1064.1</ele>
        <time>2024-05-26T14:35:30Z</time>
      </trkpt>
      <trkpt lat="43.7271" lon="6.64057">
        <ele>1064.1</ele>
        <time>2024-05-26T14:35:31Z</time>
      </trkpt>
      <trkpt lat="43.7271" lon="6.64056">
        <ele>1064</ele>
        <time>2024-05-26T14:35:32Z</time>
      </trkpt>
      <trkpt lat="43.7271" lon="6.64056">
        <ele>1064</ele>
        <time>2024-05-26T14:35:33Z</time>
      </trkpt>
      <trkpt lat="43.7271" lon="6.64056">
        <ele>1064.1</ele>
        <time>2024-05-26T14:35:34Z</time>
      </trkpt>
      <trkpt lat="43.7271" lon="6.64056">
        <ele>1064.1</ele>
        <time>2024-05-26T14:35:35Z</time>
      </trkpt>
      <trkpt lat="43.7271" lon="6.64056">
        <ele>1064.1</ele>
        <time>2024-05-26T14:35:36Z</time>
      </trkpt>
      <trkpt lat="43.7271" lon="6.64056">
        <ele>1064.1</ele>
        <time>2024-05-26T14:35:37Z</time>
      </trkpt>
      <trkpt lat="43.7271" lon="6.64057">
        <ele>1064.1</ele>
        <time>2024-05-26T14:35:38Z</time>
      </trkpt>
      <trkpt lat="43.7271" lon="6.64057">
        <ele>1064.2</ele>
        <time>2024-05-26T14:35:39Z</time>
      </trkpt>
      <trkpt lat="43.7271" lon="6.64057">
        <ele>1064.2</ele>
        <time>2024-05-26T14:35:40Z</time>
      </trkpt>
      <trkpt lat="43.7271" lon="6.64057">
        <ele>1064.2</ele>
        <time>2024-05-26T14:35:41Z</time>
      </trkpt>
      <trkpt lat="43.7271" lon="6.64057">
        <ele>1064.2</ele>
        <time>2024-05-26T14:35:42Z</time>
      </trkpt>
      <trkpt lat="43.7271" lon="6.64057">
        <ele>1064.3</ele>
        <time>2024-05-26T14:35:43Z</time>
      </trkpt>
      <trkpt lat="43.7271" lon="6.64057">
        <ele>1064.3</ele>
        <time>2024-05-26T14:35:44Z</time>
      </trkpt>
      <trkpt lat="43.72711" lon="6.64057">
        <ele>1064.3</ele>
        <time>2024-05-26T14:35:45Z</time>
      </trkpt>
      <trkpt lat="43.72711" lon="6.64057">
        <ele>1064.3</ele>
        <time>2024-05-26T14:35:46Z</time>
      </trkpt>
      <trkpt lat="43.72711" lon="6.64057">
        <ele>1064.2</ele>
        <time>2024-05-26T14:35:47Z</time>
      </trkpt>
      <trkpt lat="43.72711" lon="6.64057">
        <ele>1064.2</ele>
        <time>2024-05-26T14:35:48Z</time>
      </trkpt>
      <trkpt lat="43.72711" lon="6.64056">
        <ele>1064.1</ele>
        <time>2024-05-26T14:35:49Z</time>
      </trkpt>
      <trkpt lat="43.72711" lon="6.64056">
        <ele>1064.1</ele>
        <time>2024-05-26T14:35:50Z</time>
      </trkpt>
      <trkpt lat="43.72711" lon="6.64056">
        <ele>1064.1</ele>
        <time>2024-05-26T14:35:51Z</time>
      </trkpt>
      <trkpt lat="43.72711" lon="6.64056">
        <ele>1064.1</ele>
        <time>2024-05-26T14:35:52Z</time>
      </trkpt>
      <trkpt lat="43.7271" lon="6.64055">
        <ele>1064</ele>
        <time>2024-05-26T14:35:53Z</time>
      </trkpt>
      <trkpt lat="43.7271" lon="6.64055">
        <ele>1064</ele>
        <time>2024-05-26T14:35:54Z</time>
      </trkpt>
      <trkpt lat="43.7271" lon="6.64055">
        <ele>1064</ele>
        <time>2024-05-26T14:35:55Z</time>
      </trkpt>
      <trkpt lat="43.7271" lon="6.64055">
        <ele>1063.9</ele>
        <time>2024-05-26T14:35:56Z</time>
      </trkpt>
      <trkpt lat="43.72711" lon="6.64055">
        <ele>1064</ele>
        <time>2024-05-26T14:35:57Z</time>
      </trkpt>
      <trkpt lat="43.72711" lon="6.64055">
        <ele>1064</ele>
        <time>2024-05-26T14:35:58Z</time>
      </trkpt>
      <trkpt lat="43.72711" lon="6.64055">
        <ele>1064</ele>
        <time>2024-05-26T14:35:59Z</time>
      </trkpt>
      <trkpt lat="43.72711" lon="6.64055">
        <ele>1064</ele>
        <time>2024-05-26T14:36:00Z</time>
      </trkpt>
      <trkpt lat="43.72711" lon="6.64055">
        <ele>1064</ele>
        <time>2024-05-26T14:36:01Z</time>
      </trkpt>
      <trkpt lat="43.72711" lon="6.64055">
        <ele>1063.9</ele>
        <time>2024-05-26T14:36:02Z</time>
      </trkpt>
      <trkpt lat="43.72711" lon="6.64055">
        <ele>1064</ele>
        <time>2024-05-26T14:36:03Z</time>
      </trkpt>
      <trkpt lat="43.72711" lon="6.64055">
        <ele>1064</ele>
        <time>2024-05-26T14:36:04Z</time>
      </trkpt>
      <trkpt lat="43.72711" lon="6.64055">
        <ele>1063.9</ele>
        <time>2024-05-26T14:36:05Z</time>
      </trkpt>
      <trkpt lat="43.7271" lon="6.64055">
        <ele>1063.9</ele>
        <time>2024-05-26T14:36:06Z</time>
      </trkpt>
      <trkpt lat="43.7271" lon="6.64055">
        <ele>1063.9</ele>
        <time>2024-05-26T14:36:07Z</time>
      </trkpt>
      <trkpt lat="43.7271" lon="6.64055">
        <ele>1063.9</ele>
        <time>2024-05-26T14:36:08Z</time>
      </trkpt>
      <trkpt lat="43.7271" lon="6.64055">
        <ele>1063.9</ele>
        <time>2024-05-26T14:36:09Z</time>
      </trkpt>
      <trkpt lat="43.7271" lon="6.64055">
        <ele>1063.8</ele>
        <time>2024-05-26T14:36:10Z</time>
      </trkpt>
      <trkpt lat="43.7271" lon="6.64055">
        <ele>1063.8</ele>
        <time>2024-05-26T14:36:11Z</time>
      </trkpt>
      <trkpt lat="43.7271" lon="6.64055">
        <ele>1063.8</ele>
        <time>2024-05-26T14:36:12Z</time>
      </trkpt>
      <trkpt lat="43.72709" lon="6.64055">
        <ele>1063.9</ele>
        <time>2024-05-26T14:36:13Z</time>
      </trkpt>
      <trkpt lat="43.72709" lon="6.64055">
        <ele>1063.8</ele>
        <time>2024-05-26T14:36:14Z</time>
      </trkpt>
      <trkpt lat="43.72709" lon="6.64055">
        <ele>1063.8</ele>
        <time>2024-05-26T14:36:15Z</time>
      </trkpt>
      <trkpt lat="43.72709" lon="6.64055">
        <ele>1063.8</ele>
        <time>2024-05-26T14:36:16Z</time>
      </trkpt>
      <trkpt lat="43.72709" lon="6.64055">
        <ele>1063.7</ele>
        <time>2024-05-26T14:36:17Z</time>
      </trkpt>
      <trkpt lat="43.72709" lon="6.64055">
        <ele>1063.7</ele>
        <time>2024-05-26T14:36:18Z</time>
      </trkpt>
      <trkpt lat="43.72709" lon="6.64055">
        <ele>1063.7</ele>
        <time>2024-05-26T14:36:19Z</time>
      </trkpt>
      <trkpt lat="43.72709" lon="6.64055">
        <ele>1063.7</ele>
        <time>2024-05-26T14:36:20Z</time>
      </trkpt>
      <trkpt lat="43.72709" lon="6.64055">
        <ele>1063.7</ele>
        <time>2024-05-26T14:36:21Z</time>
      </trkpt>
      <trkpt lat="43.72709" lon="6.64055">
        <ele>1063.7</ele>
        <time>2024-05-26T14:36:22Z</time>
      </trkpt>
      <trkpt lat="43.72709" lon="6.64055">
        <ele>1063.7</ele>
        <time>2024-05-26T14:36:23Z</time>
      </trkpt>
      <trkpt lat="43.7271" lon="6.64055">
        <ele>1063.7</ele>
        <time>2024-05-26T14:36:24Z</time>
      </trkpt>
      <trkpt lat="43.7271" lon="6.64055">
        <ele>1063.7</ele>
        <time>2024-05-26T14:36:25Z</time>
      </trkpt>
      <trkpt lat="43.7271" lon="6.64055">
        <ele>1063.7</ele>
        <time>2024-05-26T14:36:26Z</time>
      </trkpt>
      <trkpt lat="43.7271" lon="6.64055">
        <ele>1063.7</ele>
        <time>2024-05-26T14:36:27Z</time>
      </trkpt>
      <trkpt lat="43.7271" lon="6.64055">
        <ele>1063.7</ele>
        <time>2024-05-26T14:36:28Z</time>
      </trkpt>
      <trkpt lat="43.7271" lon="6.64054">
        <ele>1063.8</ele>
        <time>2024-05-26T14:36:29Z</time>
      </trkpt>
      <trkpt lat="43.7271" lon="6.64054">
        <ele>1063.8</ele>
        <time>2024-05-26T14:36:30Z</time>
      </trkpt>
      <trkpt lat="43.7271" lon="6.64055">
        <ele>1063.8</ele>
        <time>2024-05-26T14:36:31Z</time>
      </trkpt>
      <trkpt lat="43.72711" lon="6.64054">
        <ele>1063.8</ele>
        <time>2024-05-26T14:36:32Z</time>
      </trkpt>
      <trkpt lat="43.7271" lon="6.64054">
        <ele>1063.8</ele>
        <time>2024-05-26T14:36:33Z</time>
      </trkpt>
      <trkpt lat="43.72711" lon="6.64055">
        <ele>1063.8</ele>
        <time>2024-05-26T14:36:34Z</time>
      </trkpt>
      <trkpt lat="43.72711" lon="6.64055">
        <ele>1063.8</ele>
        <time>2024-05-26T14:36:35Z</time>
      </trkpt>
      <trkpt lat="43.7271" lon="6.64055">
        <ele>1063.7</ele>
        <time>2024-05-26T14:36:36Z</time>
      </trkpt>
      <trkpt lat="43.7271" lon="6.64055">
        <ele>1063.7</ele>
        <time>2024-05-26T14:36:37Z</time>
      </trkpt>
      <trkpt lat="43.7271" lon="6.64055">
        <ele>1063.7</ele>
        <time>2024-05-26T14:36:38Z</time>
      </trkpt>
      <trkpt lat="43.7271" lon="6.64055">
        <ele>1063.7</ele>
        <time>2024-05-26T14:36:39Z</time>
      </trkpt>
      <trkpt lat="43.7271" lon="6.64055">
        <ele>1063.6</ele>
        <time>2024-05-26T14:36:40Z</time>
      </trkpt>
      <trkpt lat="43.7271" lon="6.64055">
        <ele>1063.6</ele>
        <time>2024-05-26T14:36:41Z</time>
      </trkpt>
      <trkpt lat="43.7271" lon="6.64054">
        <ele>1063.6</ele>
        <time>2024-05-26T14:36:42Z</time>
      </trkpt>
      <trkpt lat="43.7271" lon="6.64054">
        <ele>1063.6</ele>
        <time>2024-05-26T14:36:43Z</time>
      </trkpt>
      <trkpt lat="43.7271" lon="6.64054">
        <ele>1063.7</ele>
        <time>2024-05-26T14:36:44Z</time>
      </trkpt>
      <trkpt lat="43.7271" lon="6.64054">
        <ele>1063.8</ele>
        <time>2024-05-26T14:36:45Z</time>
      </trkpt>
      <trkpt lat="43.7271" lon="6.64054">
        <ele>1063.7</ele>
        <time>2024-05-26T14:36:46Z</time>
      </trkpt>
      <trkpt lat="43.72711" lon="6.64054">
        <ele>1063.8</ele>
        <time>2024-05-26T14:36:47Z</time>
      </trkpt>
      <trkpt lat="43.72711" lon="6.64054">
        <ele>1063.8</ele>
        <time>2024-05-26T14:36:48Z</time>
      </trkpt>
      <trkpt lat="43.72712" lon="6.64054">
        <ele>1063.8</ele>
        <time>2024-05-26T14:36:49Z</time>
      </trkpt>
      <trkpt lat="43.72712" lon="6.64053">
        <ele>1063.8</ele>
        <time>2024-05-26T14:36:50Z</time>
      </trkpt>
      <trkpt lat="43.72712" lon="6.64053">
        <ele>1063.8</ele>
        <time>2024-05-26T14:36:51Z</time>
      </trkpt>
      <trkpt lat="43.72711" lon="6.64051">
        <ele>1063.8</ele>
        <time>2024-05-26T14:36:52Z</time>
      </trkpt>
      <trkpt lat="43.72711" lon="6.64051">
        <ele>1063.9</ele>
        <time>2024-05-26T14:36:53Z</time>
      </trkpt>
      <trkpt lat="43.72712" lon="6.6405">
        <ele>1064</ele>
        <time>2024-05-26T14:36:54Z</time>
      </trkpt>
      <trkpt lat="43.72711" lon="6.6405">
        <ele>1064.1</ele>
        <time>2024-05-26T14:36:55Z</time>
      </trkpt>
      <trkpt lat="43.72712" lon="6.64049">
        <ele>1064.1</ele>
        <time>2024-05-26T14:36:56Z</time>
      </trkpt>
      <trkpt lat="43.72712" lon="6.64049">
        <ele>1064.1</ele>
        <time>2024-05-26T14:36:57Z</time>
      </trkpt>
      <trkpt lat="43.72711" lon="6.6405">
        <ele>1064</ele>
        <time>2024-05-26T14:36:58Z</time>
      </trkpt>
      <trkpt lat="43.7271" lon="6.6405">
        <ele>1064</ele>
        <time>2024-05-26T14:36:59Z</time>
      </trkpt>
      <trkpt lat="43.7271" lon="6.64051">
        <ele>1064</ele>
        <time>2024-05-26T14:37:00Z</time>
      </trkpt>
      <trkpt lat="43.7271" lon="6.64051">
        <ele>1064</ele>
        <time>2024-05-26T14:37:01Z</time>
      </trkpt>
      <trkpt lat="43.72709" lon="6.64052">
        <ele>1064.1</ele>
        <time>2024-05-26T14:37:02Z</time>
      </trkpt>
      <trkpt lat="43.7271" lon="6.64052">
        <ele>1064.1</ele>
        <time>2024-05-26T14:37:03Z</time>
      </trkpt>
      <trkpt lat="43.7271" lon="6.64053">
        <ele>1064.1</ele>
        <time>2024-05-26T14:37:04Z</time>
      </trkpt>
      <trkpt lat="43.7271" lon="6.64053">
        <ele>1064.1</ele>
        <time>2024-05-26T14:37:05Z</time>
      </trkpt>
      <trkpt lat="43.72711" lon="6.64054">
        <ele>1064.2</ele>
        <time>2024-05-26T14:37:06Z</time>
      </trkpt>
      <trkpt lat="43.72711" lon="6.64054">
        <ele>1064.2</ele>
        <time>2024-05-26T14:37:07Z</time>
      </trkpt>
      <trkpt lat="43.72712" lon="6.64055">
        <ele>1064.3</ele>
        <time>2024-05-26T14:37:08Z</time>
      </trkpt>
      <trkpt lat="43.72712" lon="6.64056">
        <ele>1064.3</ele>
        <time>2024-05-26T14:37:09Z</time>
      </trkpt>
      <trkpt lat="43.72713" lon="6.64057">
        <ele>1064.4</ele>
        <time>2024-05-26T14:37:10Z</time>
      </trkpt>
      <trkpt lat="43.72714" lon="6.64057">
        <ele>1064.5</ele>
        <time>2024-05-26T14:37:11Z</time>
      </trkpt>
      <trkpt lat="43.72714" lon="6.64057">
        <ele>1064.6</ele>
        <time>2024-05-26T14:37:12Z</time>
      </trkpt>
      <trkpt lat="43.72715" lon="6.64057">
        <ele>1064.7</ele>
        <time>2024-05-26T14:37:13Z</time>
      </trkpt>
      <trkpt lat="43.72716" lon="6.64057">
        <ele>1064.8</ele>
        <time>2024-05-26T14:37:14Z</time>
      </trkpt>
      <trkpt lat="43.72718" lon="6.64058">
        <ele>1064.8</ele>
        <time>2024-05-26T14:37:15Z</time>
      </trkpt>
      <trkpt lat="43.72719" lon="6.64058">
        <ele>1064.9</ele>
        <time>2024-05-26T14:37:16Z</time>
      </trkpt>
      <trkpt lat="43.7272" lon="6.64058">
        <ele>1064.9</ele>
        <time>2024-05-26T14:37:17Z</time>
      </trkpt>
      <trkpt lat="43.72721" lon="6.64058">
        <ele>1065</ele>
        <time>2024-05-26T14:37:18Z</time>
      </trkpt>
      <trkpt lat="43.72721" lon="6.64058">
        <ele>1065.1</ele>
        <time>2024-05-26T14:37:19Z</time>
      </trkpt>
      <trkpt lat="43.72723" lon="6.64057">
        <ele>1065.3</ele>
        <time>2024-05-26T14:37:20Z</time>
      </trkpt>
      <trkpt lat="43.72724" lon="6.64057">
        <ele>1065.3</ele>
        <time>2024-05-26T14:37:21Z</time>
      </trkpt>
      <trkpt lat="43.72725" lon="6.64057">
        <ele>1065.4</ele>
        <time>2024-05-26T14:37:22Z</time>
      </trkpt>
      <trkpt lat="43.72726" lon="6.64057">
        <ele>1065.4</ele>
        <time>2024-05-26T14:37:23Z</time>
      </trkpt>
      <trkpt lat="43.72726" lon="6.64057">
        <ele>1065.4</ele>
        <time>2024-05-26T14:37:24Z</time>
      </trkpt>
      <trkpt lat="43.72727" lon="6.64058">
        <ele>1065.5</ele>
        <time>2024-05-26T14:37:25Z</time>
      </trkpt>
      <trkpt lat="43.72728" lon="6.64058">
        <ele>1065.6</ele>
        <time>2024-05-26T14:37:26Z</time>
      </trkpt>
      <trkpt lat="43.72729" lon="6.64058">
        <ele>1065.6</ele>
        <time>2024-05-26T14:37:27Z</time>
      </trkpt>
      <trkpt lat="43.7273" lon="6.64058">
        <ele>1065.7</ele>
        <time>2024-05-26T14:37:28Z</time>
      </trkpt>
      <trkpt lat="43.72731" lon="6.64058">
        <ele>1065.7</ele>
        <time>2024-05-26T14:37:29Z</time>
      </trkpt>
      <trkpt lat="43.72732" lon="6.64058">
        <ele>1065.8</ele>
        <time>2024-05-26T14:37:30Z</time>
      </trkpt>
      <trkpt lat="43.72732" lon="6.64058">
        <ele>1065.9</ele>
        <time>2024-05-26T14:37:31Z</time>
      </trkpt>
      <trkpt lat="43.72733" lon="6.64058">
        <ele>1066</ele>
        <time>2024-05-26T14:37:32Z</time>
      </trkpt>
      <trkpt lat="43.72734" lon="6.64058">
        <ele>1066</ele>
        <time>2024-05-26T14:37:33Z</time>
      </trkpt>
      <trkpt lat="43.72735" lon="6.64059">
        <ele>1066.1</ele>
        <time>2024-05-26T14:37:34Z</time>
      </trkpt>
      <trkpt lat="43.72736" lon="6.64059">
        <ele>1066.2</ele>
        <time>2024-05-26T14:37:35Z</time>
      </trkpt>
      <trkpt lat="43.72736" lon="6.64059">
        <ele>1066.2</ele>
        <time>2024-05-26T14:37:36Z</time>
      </trkpt>
      <trkpt lat="43.72737" lon="6.64059">
        <ele>1066.3</ele>
        <time>2024-05-26T14:37:37Z</time>
      </trkpt>
      <trkpt lat="43.72738" lon="6.6406">
        <ele>1066.4</ele>
        <time>2024-05-26T14:37:38Z</time>
      </trkpt>
      <trkpt lat="43.72738" lon="6.6406">
        <ele>1066.6</ele>
        <time>2024-05-26T14:37:39Z</time>
      </trkpt>
      <trkpt lat="43.72739" lon="6.64059">
        <ele>1066.7</ele>
        <time>2024-05-26T14:37:40Z</time>
      </trkpt>
      <trkpt lat="43.7274" lon="6.64058">
        <ele>1066.8</ele>
        <time>2024-05-26T14:37:41Z</time>
      </trkpt>
      <trkpt lat="43.7274" lon="6.64058">
        <ele>1066.9</ele>
        <time>2024-05-26T14:37:42Z</time>
      </trkpt>
      <trkpt lat="43.72741" lon="6.64059">
        <ele>1066.9</ele>
        <time>2024-05-26T14:37:43Z</time>
      </trkpt>
      <trkpt lat="43.72741" lon="6.64059">
        <ele>1066.9</ele>
        <time>2024-05-26T14:37:44Z</time>
      </trkpt>
      <trkpt lat="43.72742" lon="6.64059">
        <ele>1066.9</ele>
        <time>2024-05-26T14:37:45Z</time>
      </trkpt>
      <trkpt lat="43.72743" lon="6.64059">
        <ele>1067</ele>
        <time>2024-05-26T14:37:46Z</time>
      </trkpt>
      <trkpt lat="43.72744" lon="6.64059">
        <ele>1067.1</ele>
        <time>2024-05-26T14:37:47Z</time>
      </trkpt>
      <trkpt lat="43.72745" lon="6.6406">
        <ele>1067.1</ele>
        <time>2024-05-26T14:37:48Z</time>
      </trkpt>
      <trkpt lat="43.72746" lon="6.6406">
        <ele>1067.2</ele>
        <time>2024-05-26T14:37:49Z</time>
      </trkpt>
      <trkpt lat="43.72747" lon="6.6406">
        <ele>1067.3</ele>
        <time>2024-05-26T14:37:50Z</time>
      </trkpt>
      <trkpt lat="43.72748" lon="6.6406">
        <ele>1067.4</ele>
        <time>2024-05-26T14:37:51Z</time>
      </trkpt>
      <trkpt lat="43.72749" lon="6.64059">
        <ele>1067.5</ele>
        <time>2024-05-26T14:37:52Z</time>
      </trkpt>
      <trkpt lat="43.72749" lon="6.6406">
        <ele>1067.6</ele>
        <time>2024-05-26T14:37:53Z</time>
      </trkpt>
      <trkpt lat="43.7275" lon="6.6406">
        <ele>1067.6</ele>
        <time>2024-05-26T14:37:54Z</time>
      </trkpt>
      <trkpt lat="43.72751" lon="6.64061">
        <ele>1067.7</ele>
        <time>2024-05-26T14:37:55Z</time>
      </trkpt>
      <trkpt lat="43.72752" lon="6.64061">
        <ele>1067.8</ele>
        <time>2024-05-26T14:37:56Z</time>
      </trkpt>
      <trkpt lat="43.72753" lon="6.64061">
        <ele>1068</ele>
        <time>2024-05-26T14:37:57Z</time>
      </trkpt>
      <trkpt lat="43.72754" lon="6.64062">
        <ele>1068.1</ele>
        <time>2024-05-26T14:37:58Z</time>
      </trkpt>
      <trkpt lat="43.72756" lon="6.64063">
        <ele>1068.2</ele>
        <time>2024-05-26T14:37:59Z</time>
      </trkpt>
      <trkpt lat="43.72757" lon="6.64064">
        <ele>1068.3</ele>
        <time>2024-05-26T14:38:00Z</time>
      </trkpt>
      <trkpt lat="43.72758" lon="6.64064">
        <ele>1068.4</ele>
        <time>2024-05-26T14:38:01Z</time>
      </trkpt>
      <trkpt lat="43.72759" lon="6.64064">
        <ele>1068.5</ele>
        <time>2024-05-26T14:38:02Z</time>
      </trkpt>
      <trkpt lat="43.7276" lon="6.64065">
        <ele>1068.6</ele>
        <time>2024-05-26T14:38:03Z</time>
      </trkpt>
      <trkpt lat="43.72761" lon="6.64066">
        <ele>1068.7</ele>
        <time>2024-05-26T14:38:04Z</time>
      </trkpt>
      <trkpt lat="43.72762" lon="6.64067">
        <ele>1068.8</ele>
        <time>2024-05-26T14:38:05Z</time>
      </trkpt>
      <trkpt lat="43.72762" lon="6.64067">
        <ele>1068.8</ele>
        <time>2024-05-26T14:38:06Z</time>
      </trkpt>
      <trkpt lat="43.72764" lon="6.64069">
        <ele>1068.9</ele>
        <time>2024-05-26T14:38:07Z</time>
      </trkpt>
      <trkpt lat="43.72765" lon="6.64069">
        <ele>1069.1</ele>
        <time>2024-05-26T14:38:08Z</time>
      </trkpt>
      <trkpt lat="43.72766" lon="6.64069">
        <ele>1069.3</ele>
        <time>2024-05-26T14:38:09Z</time>
      </trkpt>
      <trkpt lat="43.72767" lon="6.64069">
        <ele>1069.4</ele>
        <time>2024-05-26T14:38:10Z</time>
      </trkpt>
      <trkpt lat="43.72768" lon="6.64069">
        <ele>1069.5</ele>
        <time>2024-05-26T14:38:11Z</time>
      </trkpt>
      <trkpt lat="43.72769" lon="6.6407">
        <ele>1069.6</ele>
        <time>2024-05-26T14:38:12Z</time>
      </trkpt>
      <trkpt lat="43.7277" lon="6.64071">
        <ele>1069.8</ele>
        <time>2024-05-26T14:38:13Z</time>
      </trkpt>
      <trkpt lat="43.7277" lon="6.64072">
        <ele>1069.9</ele>
        <time>2024-05-26T14:38:14Z</time>
      </trkpt>
      <trkpt lat="43.72772" lon="6.64072">
        <ele>1069.9</ele>
        <time>2024-05-26T14:38:15Z</time>
      </trkpt>
      <trkpt lat="43.72773" lon="6.64073">
        <ele>1070</ele>
        <time>2024-05-26T14:38:16Z</time>
      </trkpt>
      <trkpt lat="43.72774" lon="6.64073">
        <ele>1070.1</ele>
        <time>2024-05-26T14:38:17Z</time>
      </trkpt>
      <trkpt lat="43.72775" lon="6.64074">
        <ele>1070.3</ele>
        <time>2024-05-26T14:38:18Z</time>
      </trkpt>
      <trkpt lat="43.72776" lon="6.64074">
        <ele>1070.4</ele>
        <time>2024-05-26T14:38:19Z</time>
      </trkpt>
      <trkpt lat="43.72777" lon="6.64074">
        <ele>1070.5</ele>
        <time>2024-05-26T14:38:20Z</time>
      </trkpt>
      <trkpt lat="43.72778" lon="6.64075">
        <ele>1070.5</ele>
        <time>2024-05-26T14:38:21Z</time>
      </trkpt>
      <trkpt lat="43.72778" lon="6.64076">
        <ele>1070.5</ele>
        <time>2024-05-26T14:38:22Z</time>
      </trkpt>
      <trkpt lat="43.72779" lon="6.64078">
        <ele>1070.6</ele>
        <time>2024-05-26T14:38:23Z</time>
      </trkpt>
      <trkpt lat="43.72781" lon="6.64079">
        <ele>1070.6</ele>
        <time>2024-05-26T14:38:24Z</time>
      </trkpt>
      <trkpt lat="43.72781" lon="6.6408">
        <ele>1070.7</ele>
        <time>2024-05-26T14:38:25Z</time>
      </trkpt>
      <trkpt lat="43.72782" lon="6.64081">
        <ele>1070.9</ele>
        <time>2024-05-26T14:38:26Z</time>
      </trkpt>
      <trkpt lat="43.72783" lon="6.64082">
        <ele>1071</ele>
        <time>2024-05-26T14:38:27Z</time>
      </trkpt>
      <trkpt lat="43.72785" lon="6.64083">
        <ele>1071</ele>
        <time>2024-05-26T14:38:28Z</time>
      </trkpt>
      <trkpt lat="43.72786" lon="6.64083">
        <ele>1071.2</ele>
        <time>2024-05-26T14:38:29Z</time>
      </trkpt>
      <trkpt lat="43.72787" lon="6.64083">
        <ele>1071.2</ele>
        <time>2024-05-26T14:38:30Z</time>
      </trkpt>
      <trkpt lat="43.72788" lon="6.64084">
        <ele>1071.2</ele>
        <time>2024-05-26T14:38:31Z</time>
      </trkpt>
      <trkpt lat="43.7279" lon="6.64085">
        <ele>1071.3</ele>
        <time>2024-05-26T14:38:32Z</time>
      </trkpt>
      <trkpt lat="43.72791" lon="6.64085">
        <ele>1071.5</ele>
        <time>2024-05-26T14:38:33Z</time>
      </trkpt>
      <trkpt lat="43.72791" lon="6.64086">
        <ele>1071.6</ele>
        <time>2024-05-26T14:38:34Z</time>
      </trkpt>
      <trkpt lat="43.72792" lon="6.64087">
        <ele>1071.7</ele>
        <time>2024-05-26T14:38:35Z</time>
      </trkpt>
      <trkpt lat="43.72794" lon="6.64088">
        <ele>1071.8</ele>
        <time>2024-05-26T14:38:36Z</time>
      </trkpt>
      <trkpt lat="43.72795" lon="6.64088">
        <ele>1072</ele>
        <time>2024-05-26T14:38:37Z</time>
      </trkpt>
      <trkpt lat="43.72795" lon="6.64089">
        <ele>1072.2</ele>
        <time>2024-05-26T14:38:38Z</time>
      </trkpt>
      <trkpt lat="43.72797" lon="6.64089">
        <ele>1072.3</ele>
        <time>2024-05-26T14:38:39Z</time>
      </trkpt>
      <trkpt lat="43.72798" lon="6.6409">
        <ele>1072.4</ele>
        <time>2024-05-26T14:38:40Z</time>
      </trkpt>
      <trkpt lat="43.72799" lon="6.64091">
        <ele>1072.5</ele>
        <time>2024-05-26T14:38:41Z</time>
      </trkpt>
      <trkpt lat="43.728" lon="6.64091">
        <ele>1072.6</ele>
        <time>2024-05-26T14:38:42Z</time>
      </trkpt>
      <trkpt lat="43.72801" lon="6.64092">
        <ele>1072.7</ele>
        <time>2024-05-26T14:38:43Z</time>
      </trkpt>
      <trkpt lat="43.72802" lon="6.64093">
        <ele>1072.7</ele>
        <time>2024-05-26T14:38:44Z</time>
      </trkpt>
      <trkpt lat="43.72803" lon="6.64094">
        <ele>1072.8</ele>
        <time>2024-05-26T14:38:45Z</time>
      </trkpt>
      <trkpt lat="43.72804" lon="6.64095">
        <ele>1072.9</ele>
        <time>2024-05-26T14:38:46Z</time>
      </trkpt>
      <trkpt lat="43.72805" lon="6.64095">
        <ele>1073</ele>
        <time>2024-05-26T14:38:47Z</time>
      </trkpt>
      <trkpt lat="43.72806" lon="6.64094">
        <ele>1073</ele>
        <time>2024-05-26T14:38:48Z</time>
      </trkpt>
      <trkpt lat="43.72807" lon="6.64094">
        <ele>1073.1</ele>
        <time>2024-05-26T14:38:49Z</time>
      </trkpt>
      <trkpt lat="43.72808" lon="6.64095">
        <ele>1073.2</ele>
        <time>2024-05-26T14:38:50Z</time>
      </trkpt>
      <trkpt lat="43.72809" lon="6.64094">
        <ele>1073.3</ele>
        <time>2024-05-26T14:38:51Z</time>
      </trkpt>
      <trkpt lat="43.7281" lon="6.64094">
        <ele>1073.5</ele>
        <time>2024-05-26T14:38:52Z</time>
      </trkpt>
      <trkpt lat="43.72811" lon="6.64094">
        <ele>1073.7</ele>
        <time>2024-05-26T14:38:53Z</time>
      </trkpt>
      <trkpt lat="43.72812" lon="6.64093">
        <ele>1073.8</ele>
        <time>2024-05-26T14:38:54Z</time>
      </trkpt>
      <trkpt lat="43.72814" lon="6.64093">
        <ele>1074</ele>
        <time>2024-05-26T14:38:55Z</time>
      </trkpt>
      <trkpt lat="43.72815" lon="6.64093">
        <ele>1074</ele>
        <time>2024-05-26T14:38:56Z</time>
      </trkpt>
      <trkpt lat="43.72817" lon="6.64093">
        <ele>1074.1</ele>
        <time>2024-05-26T14:38:57Z</time>
      </trkpt>
      <trkpt lat="43.72818" lon="6.64093">
        <ele>1074.2</ele>
        <time>2024-05-26T14:38:58Z</time>
      </trkpt>
      <trkpt lat="43.72819" lon="6.64092">
        <ele>1074.2</ele>
        <time>2024-05-26T14:38:59Z</time>
      </trkpt>
      <trkpt lat="43.72821" lon="6.64092">
        <ele>1074.4</ele>
        <time>2024-05-26T14:39:00Z</time>
      </trkpt>
      <trkpt lat="43.72822" lon="6.64092">
        <ele>1074.5</ele>
        <time>2024-05-26T14:39:01Z</time>
      </trkpt>
      <trkpt lat="43.72824" lon="6.64091">
        <ele>1074.6</ele>
        <time>2024-05-26T14:39:02Z</time>
      </trkpt>
      <trkpt lat="43.72825" lon="6.64091">
        <ele>1074.7</ele>
        <time>2024-05-26T14:39:03Z</time>
      </trkpt>
      <trkpt lat="43.72826" lon="6.64091">
        <ele>1074.7</ele>
        <time>2024-05-26T14:39:04Z</time>
      </trkpt>
      <trkpt lat="43.72827" lon="6.64092">
        <ele>1074.8</ele>
        <time>2024-05-26T14:39:05Z</time>
      </trkpt>
      <trkpt lat="43.72828" lon="6.64091">
        <ele>1074.8</ele>
        <time>2024-05-26T14:39:06Z</time>
      </trkpt>
      <trkpt lat="43.72829" lon="6.64091">
        <ele>1074.8</ele>
        <time>2024-05-26T14:39:07Z</time>
      </trkpt>
      <trkpt lat="43.7283" lon="6.64091">
        <ele>1075</ele>
        <time>2024-05-26T14:39:08Z</time>
      </trkpt>
      <trkpt lat="43.72832" lon="6.64091">
        <ele>1075.1</ele>
        <time>2024-05-26T14:39:09Z</time>
      </trkpt>
      <trkpt lat="43.72833" lon="6.64091">
        <ele>1075.1</ele>
        <time>2024-05-26T14:39:10Z</time>
      </trkpt>
      <trkpt lat="43.72834" lon="6.64092">
        <ele>1075.1</ele>
        <time>2024-05-26T14:39:11Z</time>
      </trkpt>
      <trkpt lat="43.72835" lon="6.64093">
        <ele>1075.2</ele>
        <time>2024-05-26T14:39:12Z</time>
      </trkpt>
      <trkpt lat="43.72836" lon="6.64093">
        <ele>1075.3</ele>
        <time>2024-05-26T14:39:13Z</time>
      </trkpt>
      <trkpt lat="43.72837" lon="6.64092">
        <ele>1075.4</ele>
        <time>2024-05-26T14:39:14Z</time>
      </trkpt>
      <trkpt lat="43.72838" lon="6.64092">
        <ele>1075.5</ele>
        <time>2024-05-26T14:39:15Z</time>
      </trkpt>
      <trkpt lat="43.72839" lon="6.64093">
        <ele>1075.5</ele>
        <time>2024-05-26T14:39:16Z</time>
      </trkpt>
      <trkpt lat="43.7284" lon="6.64092">
        <ele>1075.7</ele>
        <time>2024-05-26T14:39:17Z</time>
      </trkpt>
      <trkpt lat="43.72841" lon="6.64093">
        <ele>1075.8</ele>
        <time>2024-05-26T14:39:18Z</time>
      </trkpt>
      <trkpt lat="43.72842" lon="6.64092">
        <ele>1075.8</ele>
        <time>2024-05-26T14:39:19Z</time>
      </trkpt>
      <trkpt lat="43.72843" lon="6.64092">
        <ele>1075.9</ele>
        <time>2024-05-26T14:39:20Z</time>
      </trkpt>
      <trkpt lat="43.72844" lon="6.64092">
        <ele>1076</ele>
        <time>2024-05-26T14:39:21Z</time>
      </trkpt>
      <trkpt lat="43.72845" lon="6.64093">
        <ele>1076.2</ele>
        <time>2024-05-26T14:39:22Z</time>
      </trkpt>
      <trkpt lat="43.72846" lon="6.64093">
        <ele>1076.3</ele>
        <time>2024-05-26T14:39:23Z</time>
      </trkpt>
      <trkpt lat="43.72847" lon="6.64094">
        <ele>1076.4</ele>
        <time>2024-05-26T14:39:24Z</time>
      </trkpt>
      <trkpt lat="43.72848" lon="6.64095">
        <ele>1076.5</ele>
        <time>2024-05-26T14:39:25Z</time>
      </trkpt>
      <trkpt lat="43.72849" lon="6.64095">
        <ele>1076.6</ele>
        <time>2024-05-26T14:39:26Z</time>
      </trkpt>
      <trkpt lat="43.72851" lon="6.64095">
        <ele>1076.6</ele>
        <time>2024-05-26T14:39:27Z</time>
      </trkpt>
      <trkpt lat="43.72852" lon="6.64095">
        <ele>1076.7</ele>
        <time>2024-05-26T14:39:28Z</time>
      </trkpt>
      <trkpt lat="43.72853" lon="6.64096">
        <ele>1076.8</ele>
        <time>2024-05-26T14:39:29Z</time>
      </trkpt>
      <trkpt lat="43.72854" lon="6.64096">
        <ele>1076.9</ele>
        <time>2024-05-26T14:39:30Z</time>
      </trkpt>
      <trkpt lat="43.72856" lon="6.64097">
        <ele>1076.9</ele>
        <time>2024-05-26T14:39:31Z</time>
      </trkpt>
      <trkpt lat="43.72857" lon="6.64097">
        <ele>1077</ele>
        <time>2024-05-26T14:39:32Z</time>
      </trkpt>
      <trkpt lat="43.72858" lon="6.64097">
        <ele>1077</ele>
        <time>2024-05-26T14:39:33Z</time>
      </trkpt>
      <trkpt lat="43.72859" lon="6.64097">
        <ele>1077.1</ele>
        <time>2024-05-26T14:39:34Z</time>
      </trkpt>
      <trkpt lat="43.7286" lon="6.64098">
        <ele>1077.2</ele>
        <time>2024-05-26T14:39:35Z</time>
      </trkpt>
      <trkpt lat="43.72861" lon="6.64098">
        <ele>1077.3</ele>
        <time>2024-05-26T14:39:36Z</time>
      </trkpt>
      <trkpt lat="43.72862" lon="6.64098">
        <ele>1077.5</ele>
        <time>2024-05-26T14:39:37Z</time>
      </trkpt>
      <trkpt lat="43.72863" lon="6.64099">
        <ele>1077.6</ele>
        <time>2024-05-26T14:39:38Z</time>
      </trkpt>
      <trkpt lat="43.72864" lon="6.64099">
        <ele>1077.6</ele>
        <time>2024-05-26T14:39:39Z</time>
      </trkpt>
      <trkpt lat="43.72866" lon="6.641">
        <ele>1077.7</ele>
        <time>2024-05-26T14:39:40Z</time>
      </trkpt>
      <trkpt lat="43.72866" lon="6.641">
        <ele>1077.8</ele>
        <time>2024-05-26T14:39:41Z</time>
      </trkpt>
      <trkpt lat="43.72868" lon="6.64101">
        <ele>1077.9</ele>
        <time>2024-05-26T14:39:42Z</time>
      </trkpt>
      <trkpt lat="43.72869" lon="6.64102">
        <ele>1077.9</ele>
        <time>2024-05-26T14:39:43Z</time>
      </trkpt>
      <trkpt lat="43.7287" lon="6.64103">
        <ele>1078</ele>
        <time>2024-05-26T14:39:44Z</time>
      </trkpt>
      <trkpt lat="43.7287" lon="6.64103">
        <ele>1078.1</ele>
        <time>2024-05-26T14:39:45Z</time>
      </trkpt>
      <trkpt lat="43.72871" lon="6.64104">
        <ele>1078.2</ele>
        <time>2024-05-26T14:39:46Z</time>
      </trkpt>
      <trkpt lat="43.72873" lon="6.64104">
        <ele>1078.3</ele>
        <time>2024-05-26T14:39:47Z</time>
      </trkpt>
      <trkpt lat="43.72874" lon="6.64104">
        <ele>1078.5</ele>
        <time>2024-05-26T14:39:48Z</time>
      </trkpt>
      <trkpt lat="43.72875" lon="6.64105">
        <ele>1078.6</ele>
        <time>2024-05-26T14:39:49Z</time>
      </trkpt>
      <trkpt lat="43.72876" lon="6.64105">
        <ele>1078.7</ele>
        <time>2024-05-26T14:39:50Z</time>
      </trkpt>
      <trkpt lat="43.72877" lon="6.64105">
        <ele>1078.8</ele>
        <time>2024-05-26T14:39:51Z</time>
      </trkpt>
      <trkpt lat="43.72878" lon="6.64105">
        <ele>1079</ele>
        <time>2024-05-26T14:39:52Z</time>
      </trkpt>
      <trkpt lat="43.72879" lon="6.64105">
        <ele>1079</ele>
        <time>2024-05-26T14:39:53Z</time>
      </trkpt>
      <trkpt lat="43.7288" lon="6.64106">
        <ele>1079.1</ele>
        <time>2024-05-26T14:39:54Z</time>
      </trkpt>
      <trkpt lat="43.72881" lon="6.64107">
        <ele>1079.2</ele>
        <time>2024-05-26T14:39:55Z</time>
      </trkpt>
      <trkpt lat="43.72882" lon="6.64108">
        <ele>1079.3</ele>
        <time>2024-05-26T14:39:56Z</time>
      </trkpt>
      <trkpt lat="43.72882" lon="6.64108">
        <ele>1079.3</ele>
        <time>2024-05-26T14:39:57Z</time>
      </trkpt>
      <trkpt lat="43.72883" lon="6.64107">
        <ele>1079.4</ele>
        <time>2024-05-26T14:39:58Z</time>
      </trkpt>
      <trkpt lat="43.72884" lon="6.64108">
        <ele>1079.5</ele>
        <time>2024-05-26T14:39:59Z</time>
      </trkpt>
      <trkpt lat="43.72885" lon="6.64108">
        <ele>1079.7</ele>
        <time>2024-05-26T14:40:00Z</time>
      </trkpt>
      <trkpt lat="43.72886" lon="6.64108">
        <ele>1079.8</ele>
        <time>2024-05-26T14:40:01Z</time>
      </trkpt>
      <trkpt lat="43.72887" lon="6.6411">
        <ele>1079.9</ele>
        <time>2024-05-26T14:40:02Z</time>
      </trkpt>
      <trkpt lat="43.72888" lon="6.6411">
        <ele>1080</ele>
        <time>2024-05-26T14:40:03Z</time>
      </trkpt>
      <trkpt lat="43.72889" lon="6.64111">
        <ele>1080.2</ele>
        <time>2024-05-26T14:40:04Z</time>
      </trkpt>
      <trkpt lat="43.7289" lon="6.64112">
        <ele>1080.3</ele>
        <time>2024-05-26T14:40:05Z</time>
      </trkpt>
      <trkpt lat="43.72891" lon="6.64112">
        <ele>1080.4</ele>
        <time>2024-05-26T14:40:06Z</time>
      </trkpt>
      <trkpt lat="43.72892" lon="6.64113">
        <ele>1080.4</ele>
        <time>2024-05-26T14:40:07Z</time>
      </trkpt>
      <trkpt lat="43.72893" lon="6.64114">
        <ele>1080.5</ele>
        <time>2024-05-26T14:40:08Z</time>
      </trkpt>
      <trkpt lat="43.72894" lon="6.64114">
        <ele>1080.5</ele>
        <time>2024-05-26T14:40:09Z</time>
      </trkpt>
      <trkpt lat="43.72895" lon="6.64114">
        <ele>1080.6</ele>
        <time>2024-05-26T14:40:10Z</time>
      </trkpt>
      <trkpt lat="43.72896" lon="6.64115">
        <ele>1080.7</ele>
        <time>2024-05-26T14:40:11Z</time>
      </trkpt>
      <trkpt lat="43.72896" lon="6.64115">
        <ele>1080.8</ele>
        <time>2024-05-26T14:40:12Z</time>
      </trkpt>
      <trkpt lat="43.72897" lon="6.64115">
        <ele>1080.7</ele>
        <time>2024-05-26T14:40:13Z</time>
      </trkpt>
      <trkpt lat="43.72898" lon="6.64115">
        <ele>1080.9</ele>
        <time>2024-05-26T14:40:14Z</time>
      </trkpt>
      <trkpt lat="43.72899" lon="6.64115">
        <ele>1081.1</ele>
        <time>2024-05-26T14:40:15Z</time>
      </trkpt>
      <trkpt lat="43.729" lon="6.64116">
        <ele>1081.3</ele>
        <time>2024-05-26T14:40:16Z</time>
      </trkpt>
      <trkpt lat="43.72901" lon="6.64116">
        <ele>1081.4</ele>
        <time>2024-05-26T14:40:17Z</time>
      </trkpt>
      <trkpt lat="43.72902" lon="6.64117">
        <ele>1081.6</ele>
        <time>2024-05-26T14:40:18Z</time>
      </trkpt>
      <trkpt lat="43.72903" lon="6.64117">
        <ele>1081.7</ele>
        <time>2024-05-26T14:40:19Z</time>
      </trkpt>
      <trkpt lat="43.72903" lon="6.64117">
        <ele>1081.8</ele>
        <time>2024-05-26T14:40:20Z</time>
      </trkpt>
      <trkpt lat="43.72904" lon="6.64117">
        <ele>1081.9</ele>
        <time>2024-05-26T14:40:21Z</time>
      </trkpt>
      <trkpt lat="43.72904" lon="6.64117">
        <ele>1082</ele>
        <time>2024-05-26T14:40:22Z</time>
      </trkpt>
      <trkpt lat="43.72904" lon="6.64116">
        <ele>1082.1</ele>
        <time>2024-05-26T14:40:23Z</time>
      </trkpt>
      <trkpt lat="43.72904" lon="6.64116">
        <ele>1082.1</ele>
        <time>2024-05-26T14:40:24Z</time>
      </trkpt>
      <trkpt lat="43.72904" lon="6.64116">
        <ele>1082.2</ele>
        <time>2024-05-26T14:40:25Z</time>
      </trkpt>
      <trkpt lat="43.72904" lon="6.64116">
        <ele>1082.1</ele>
        <time>2024-05-26T14:40:26Z</time>
      </trkpt>
      <trkpt lat="43.72904" lon="6.64116">
        <ele>1082.1</ele>
        <time>2024-05-26T14:40:27Z</time>
      </trkpt>
      <trkpt lat="43.72904" lon="6.64116">
        <ele>1082.1</ele>
        <time>2024-05-26T14:40:28Z</time>
      </trkpt>
      <trkpt lat="43.72904" lon="6.64116">
        <ele>1082.1</ele>
        <time>2024-05-26T14:40:29Z</time>
      </trkpt>
      <trkpt lat="43.72904" lon="6.64116">
        <ele>1082.2</ele>
        <time>2024-05-26T14:40:30Z</time>
      </trkpt>
      <trkpt lat="43.72904" lon="6.64117">
        <ele>1082.2</ele>
        <time>2024-05-26T14:40:31Z</time>
      </trkpt>
      <trkpt lat="43.72904" lon="6.64117">
        <ele>1082.2</ele>
        <time>2024-05-26T14:40:32Z</time>
      </trkpt>
      <trkpt lat="43.72904" lon="6.64117">
        <ele>1082.3</ele>
        <time>2024-05-26T14:40:33Z</time>
      </trkpt>
      <trkpt lat="43.72904" lon="6.64117">
        <ele>1082.3</ele>
        <time>2024-05-26T14:40:34Z</time>
      </trkpt>
      <trkpt lat="43.72904" lon="6.64118">
        <ele>1082.3</ele>
        <time>2024-05-26T14:40:35Z</time>
      </trkpt>
      <trkpt lat="43.72904" lon="6.64118">
        <ele>1082.3</ele>
        <time>2024-05-26T14:40:36Z</time>
      </trkpt>
      <trkpt lat="43.72904" lon="6.64118">
        <ele>1082.4</ele>
        <time>2024-05-26T14:40:37Z</time>
      </trkpt>
      <trkpt lat="43.72904" lon="6.64119">
        <ele>1082.4</ele>
        <time>2024-05-26T14:40:38Z</time>
      </trkpt>
      <trkpt lat="43.72904" lon="6.64119">
        <ele>1082.4</ele>
        <time>2024-05-26T14:40:39Z</time>
      </trkpt>
      <trkpt lat="43.72904" lon="6.64119">
        <ele>1082.4</ele>
        <time>2024-05-26T14:40:40Z</time>
      </trkpt>
      <trkpt lat="43.72904" lon="6.64119">
        <ele>1082.4</ele>
        <time>2024-05-26T14:40:41Z</time>
      </trkpt>
      <trkpt lat="43.72904" lon="6.64119">
        <ele>1082.4</ele>
        <time>2024-05-26T14:40:42Z</time>
      </trkpt>
      <trkpt lat="43.72904" lon="6.64119">
        <ele>1082.4</ele>
        <time>2024-05-26T14:40:43Z</time>
      </trkpt>
      <trkpt lat="43.72904" lon="6.64119">
        <ele>1082.5</ele>
        <time>2024-05-26T14:40:44Z</time>
      </trkpt>
      <trkpt lat="43.72905" lon="6.64119">
        <ele>1082.6</ele>
        <time>2024-05-26T14:40:45Z</time>
      </trkpt>
      <trkpt lat="43.72905" lon="6.64119">
        <ele>1082.6</ele>
        <time>2024-05-26T14:40:46Z</time>
      </trkpt>
      <trkpt lat="43.72905" lon="6.64119">
        <ele>1082.5</ele>
        <time>2024-05-26T14:40:47Z</time>
      </trkpt>
      <trkpt lat="43.72905" lon="6.64119">
        <ele>1082.5</ele>
        <time>2024-05-26T14:40:48Z</time>
      </trkpt>
      <trkpt lat="43.72905" lon="6.64119">
        <ele>1082.5</ele>
        <time>2024-05-26T14:40:49Z</time>
      </trkpt>
      <trkpt lat="43.72905" lon="6.64119">
        <ele>1082.5</ele>
        <time>2024-05-26T14:40:50Z</time>
      </trkpt>
      <trkpt lat="43.72905" lon="6.64119">
        <ele>1082.5</ele>
        <time>2024-05-26T14:40:51Z</time>
      </trkpt>
      <trkpt lat="43.72905" lon="6.64119">
        <ele>1082.5</ele>
        <time>2024-05-26T14:40:52Z</time>
      </trkpt>
      <trkpt lat="43.72905" lon="6.64119">
        <ele>1082.5</ele>
        <time>2024-05-26T14:40:53Z</time>
      </trkpt>
      <trkpt lat="43.72905" lon="6.64119">
        <ele>1082.5</ele>
        <time>2024-05-26T14:40:54Z</time>
      </trkpt>
      <trkpt lat="43.72905" lon="6.64119">
        <ele>1082.5</ele>
        <time>2024-05-26T14:40:55Z</time>
      </trkpt>
      <trkpt lat="43.72905" lon="6.64119">
        <ele>1082.5</ele>
        <time>2024-05-26T14:40:56Z</time>
      </trkpt>
      <trkpt lat="43.72906" lon="6.64119">
        <ele>1082.5</ele>
        <time>2024-05-26T14:40:57Z</time>
      </trkpt>
      <trkpt lat="43.72906" lon="6.64119">
        <ele>1082.5</ele>
        <time>2024-05-26T14:40:58Z</time>
      </trkpt>
      <trkpt lat="43.72906" lon="6.64119">
        <ele>1082.5</ele>
        <time>2024-05-26T14:40:59Z</time>
      </trkpt>
      <trkpt lat="43.72906" lon="6.64119">
        <ele>1082.5</ele>
        <time>2024-05-26T14:41:00Z</time>
      </trkpt>
      <trkpt lat="43.72906" lon="6.64119">
        <ele>1082.5</ele>
        <time>2024-05-26T14:41:01Z</time>
      </trkpt>
      <trkpt lat="43.72906" lon="6.64118">
        <ele>1082.5</ele>
        <time>2024-05-26T14:41:02Z</time>
      </trkpt>
      <trkpt lat="43.72906" lon="6.64118">
        <ele>1082.5</ele>
        <time>2024-05-26T14:41:03Z</time>
      </trkpt>
      <trkpt lat="43.72906" lon="6.64118">
        <ele>1082.6</ele>
        <time>2024-05-26T14:41:04Z</time>
      </trkpt>
      <trkpt lat="43.72906" lon="6.64118">
        <ele>1082.6</ele>
        <time>2024-05-26T14:41:05Z</time>
      </trkpt>
      <trkpt lat="43.72906" lon="6.64118">
        <ele>1082.6</ele>
        <time>2024-05-26T14:41:06Z</time>
      </trkpt>
      <trkpt lat="43.72906" lon="6.64118">
        <ele>1082.6</ele>
        <time>2024-05-26T14:41:07Z</time>
      </trkpt>
      <trkpt lat="43.72906" lon="6.64118">
        <ele>1082.5</ele>
        <time>2024-05-26T14:41:08Z</time>
      </trkpt>
      <trkpt lat="43.72906" lon="6.64118">
        <ele>1082.4</ele>
        <time>2024-05-26T14:41:09Z</time>
      </trkpt>
      <trkpt lat="43.72906" lon="6.64118">
        <ele>1082.5</ele>
        <time>2024-05-26T14:41:10Z</time>
      </trkpt>
      <trkpt lat="43.72906" lon="6.64119">
        <ele>1082.5</ele>
        <time>2024-05-26T14:41:11Z</time>
      </trkpt>
      <trkpt lat="43.72907" lon="6.64119">
        <ele>1082.5</ele>
        <time>2024-05-26T14:41:12Z</time>
      </trkpt>
      <trkpt lat="43.72907" lon="6.64119">
        <ele>1082.5</ele>
        <time>2024-05-26T14:41:13Z</time>
      </trkpt>
      <trkpt lat="43.72908" lon="6.64119">
        <ele>1082.5</ele>
        <time>2024-05-26T14:41:14Z</time>
      </trkpt>
      <trkpt lat="43.72908" lon="6.64118">
        <ele>1082.5</ele>
        <time>2024-05-26T14:41:15Z</time>
      </trkpt>
      <trkpt lat="43.72908" lon="6.64118">
        <ele>1082.5</ele>
        <time>2024-05-26T14:41:16Z</time>
      </trkpt>
      <trkpt lat="43.72908" lon="6.64119">
        <ele>1082.6</ele>
        <time>2024-05-26T14:41:17Z</time>
      </trkpt>
      <trkpt lat="43.72908" lon="6.64119">
        <ele>1082.6</ele>
        <time>2024-05-26T14:41:18Z</time>
      </trkpt>
      <trkpt lat="43.72908" lon="6.64119">
        <ele>1082.7</ele>
        <time>2024-05-26T14:41:19Z</time>
      </trkpt>
      <trkpt lat="43.72908" lon="6.64119">
        <ele>1082.7</ele>
        <time>2024-05-26T14:41:20Z</time>
      </trkpt>
      <trkpt lat="43.72908" lon="6.6412">
        <ele>1082.7</ele>
        <time>2024-05-26T14:41:21Z</time>
      </trkpt>
      <trkpt lat="43.72908" lon="6.6412">
        <ele>1082.7</ele>
        <time>2024-05-26T14:41:22Z</time>
      </trkpt>
      <trkpt lat="43.72908" lon="6.6412">
        <ele>1082.7</ele>
        <time>2024-05-26T14:41:23Z</time>
      </trkpt>
      <trkpt lat="43.72908" lon="6.64119">
        <ele>1082.8</ele>
        <time>2024-05-26T14:41:24Z</time>
      </trkpt>
      <trkpt lat="43.72908" lon="6.64119">
        <ele>1082.8</ele>
        <time>2024-05-26T14:41:25Z</time>
      </trkpt>
      <trkpt lat="43.72908" lon="6.64119">
        <ele>1082.9</ele>
        <time>2024-05-26T14:41:26Z</time>
      </trkpt>
      <trkpt lat="43.72908" lon="6.64119">
        <ele>1082.9</ele>
        <time>2024-05-26T14:41:27Z</time>
      </trkpt>
      <trkpt lat="43.72909" lon="6.64118">
        <ele>1082.8</ele>
        <time>2024-05-26T14:41:28Z</time>
      </trkpt>
      <trkpt lat="43.72909" lon="6.64118">
        <ele>1082.8</ele>
        <time>2024-05-26T14:41:29Z</time>
      </trkpt>
      <trkpt lat="43.72909" lon="6.64118">
        <ele>1082.9</ele>
        <time>2024-05-26T14:41:30Z</time>
      </trkpt>
      <trkpt lat="43.72909" lon="6.64118">
        <ele>1082.9</ele>
        <time>2024-05-26T14:41:31Z</time>
      </trkpt>
      <trkpt lat="43.72909" lon="6.64118">
        <ele>1082.8</ele>
        <time>2024-05-26T14:41:32Z</time>
      </trkpt>
      <trkpt lat="43.72909" lon="6.64118">
        <ele>1082.8</ele>
        <time>2024-05-26T14:41:33Z</time>
      </trkpt>
      <trkpt lat="43.72909" lon="6.64118">
        <ele>1082.7</ele>
        <time>2024-05-26T14:41:34Z</time>
      </trkpt>
      <trkpt lat="43.72909" lon="6.64118">
        <ele>1082.8</ele>
        <time>2024-05-26T14:41:35Z</time>
      </trkpt>
      <trkpt lat="43.7291" lon="6.64118">
        <ele>1082.7</ele>
        <time>2024-05-26T14:41:36Z</time>
      </trkpt>
      <trkpt lat="43.7291" lon="6.64118">
        <ele>1082.6</ele>
        <time>2024-05-26T14:41:37Z</time>
      </trkpt>
      <trkpt lat="43.7291" lon="6.64118">
        <ele>1082.4</ele>
        <time>2024-05-26T14:41:38Z</time>
      </trkpt>
      <trkpt lat="43.7291" lon="6.64118">
        <ele>1082.3</ele>
        <time>2024-05-26T14:41:39Z</time>
      </trkpt>
      <trkpt lat="43.7291" lon="6.64118">
        <ele>1082.2</ele>
        <time>2024-05-26T14:41:40Z</time>
      </trkpt>
      <trkpt lat="43.7291" lon="6.64118">
        <ele>1082.2</ele>
        <time>2024-05-26T14:41:41Z</time>
      </trkpt>
      <trkpt lat="43.7291" lon="6.64118">
        <ele>1082.2</ele>
        <time>2024-05-26T14:41:42Z</time>
      </trkpt>
      <trkpt lat="43.7291" lon="6.64118">
        <ele>1082.2</ele>
        <time>2024-05-26T14:41:43Z</time>
      </trkpt>
      <trkpt lat="43.7291" lon="6.64118">
        <ele>1082.2</ele>
        <time>2024-05-26T14:41:44Z</time>
      </trkpt>
      <trkpt lat="43.7291" lon="6.64119">
        <ele>1082.2</ele>
        <time>2024-05-26T14:41:45Z</time>
      </trkpt>
      <trkpt lat="43.72911" lon="6.64119">
        <ele>1082.2</ele>
        <time>2024-05-26T14:41:46Z</time>
      </trkpt>
      <trkpt lat="43.72911" lon="6.64119">
        <ele>1082.2</ele>
        <time>2024-05-26T14:41:47Z</time>
      </trkpt>
      <trkpt lat="43.72911" lon="6.64119">
        <ele>1082.2</ele>
        <time>2024-05-26T14:41:48Z</time>
      </trkpt>
      <trkpt lat="43.72911" lon="6.64119">
        <ele>1082.3</ele>
        <time>2024-05-26T14:41:49Z</time>
      </trkpt>
      <trkpt lat="43.72912" lon="6.64118">
        <ele>1082.4</ele>
        <time>2024-05-26T14:41:50Z</time>
      </trkpt>
      <trkpt lat="43.72912" lon="6.64118">
        <ele>1082.4</ele>
        <time>2024-05-26T14:41:51Z</time>
      </trkpt>
      <trkpt lat="43.72912" lon="6.64118">
        <ele>1082.4</ele>
        <time>2024-05-26T14:41:52Z</time>
      </trkpt>
      <trkpt lat="43.72912" lon="6.64118">
        <ele>1082.4</ele>
        <time>2024-05-26T14:41:53Z</time>
      </trkpt>
      <trkpt lat="43.72912" lon="6.64117">
        <ele>1082.4</ele>
        <time>2024-05-26T14:41:54Z</time>
      </trkpt>
      <trkpt lat="43.72913" lon="6.64116">
        <ele>1082.4</ele>
        <time>2024-05-26T14:41:55Z</time>
      </trkpt>
      <trkpt lat="43.72914" lon="6.64116">
        <ele>1082.5</ele>
        <time>2024-05-26T14:41:56Z</time>
      </trkpt>
      <trkpt lat="43.72915" lon="6.64115">
        <ele>1082.5</ele>
        <time>2024-05-26T14:41:57Z</time>
      </trkpt>
      <trkpt lat="43.72917" lon="6.64114">
        <ele>1082.5</ele>
        <time>2024-05-26T14:41:58Z</time>
      </trkpt>
      <trkpt lat="43.72917" lon="6.64114">
        <ele>1082.5</ele>
        <time>2024-05-26T14:41:59Z</time>
      </trkpt>
      <trkpt lat="43.72918" lon="6.64114">
        <ele>1082.7</ele>
        <time>2024-05-26T14:42:00Z</time>
      </trkpt>
      <trkpt lat="43.72919" lon="6.64113">
        <ele>1082.8</ele>
        <time>2024-05-26T14:42:01Z</time>
      </trkpt>
      <trkpt lat="43.7292" lon="6.64114">
        <ele>1082.9</ele>
        <time>2024-05-26T14:42:02Z</time>
      </trkpt>
      <trkpt lat="43.72921" lon="6.64113">
        <ele>1083</ele>
        <time>2024-05-26T14:42:03Z</time>
      </trkpt>
      <trkpt lat="43.72923" lon="6.64113">
        <ele>1083.1</ele>
        <time>2024-05-26T14:42:04Z</time>
      </trkpt>
      <trkpt lat="43.72924" lon="6.64113">
        <ele>1083.4</ele>
        <time>2024-05-26T14:42:05Z</time>
      </trkpt>
      <trkpt lat="43.72925" lon="6.64112">
        <ele>1083.6</ele>
        <time>2024-05-26T14:42:06Z</time>
      </trkpt>
      <trkpt lat="43.72926" lon="6.64112">
        <ele>1083.7</ele>
        <time>2024-05-26T14:42:07Z</time>
      </trkpt>
      <trkpt lat="43.72927" lon="6.64111">
        <ele>1083.9</ele>
        <time>2024-05-26T14:42:08Z</time>
      </trkpt>
      <trkpt lat="43.72928" lon="6.6411">
        <ele>1084</ele>
        <time>2024-05-26T14:42:09Z</time>
      </trkpt>
      <trkpt lat="43.72929" lon="6.6411">
        <ele>1084.1</ele>
        <time>2024-05-26T14:42:10Z</time>
      </trkpt>
      <trkpt lat="43.7293" lon="6.64108">
        <ele>1084.1</ele>
        <time>2024-05-26T14:42:11Z</time>
      </trkpt>
      <trkpt lat="43.7293" lon="6.64107">
        <ele>1084.2</ele>
        <time>2024-05-26T14:42:12Z</time>
      </trkpt>
      <trkpt lat="43.72931" lon="6.64106">
        <ele>1084.3</ele>
        <time>2024-05-26T14:42:13Z</time>
      </trkpt>
      <trkpt lat="43.72932" lon="6.64105">
        <ele>1084.4</ele>
        <time>2024-05-26T14:42:14Z</time>
      </trkpt>
      <trkpt lat="43.72932" lon="6.64104">
        <ele>1084.5</ele>
        <time>2024-05-26T14:42:15Z</time>
      </trkpt>
      <trkpt lat="43.72933" lon="6.64102">
        <ele>1084.5</ele>
        <time>2024-05-26T14:42:16Z</time>
      </trkpt>
      <trkpt lat="43.72933" lon="6.64101">
        <ele>1084.6</ele>
        <time>2024-05-26T14:42:17Z</time>
      </trkpt>
      <trkpt lat="43.72934" lon="6.641">
        <ele>1084.6</ele>
        <time>2024-05-26T14:42:18Z</time>
      </trkpt>
      <trkpt lat="43.72935" lon="6.64098">
        <ele>1084.7</ele>
        <time>2024-05-26T14:42:19Z</time>
      </trkpt>
      <trkpt lat="43.72936" lon="6.64097">
        <ele>1084.8</ele>
        <time>2024-05-26T14:42:20Z</time>
      </trkpt>
      <trkpt lat="43.72937" lon="6.64096">
        <ele>1084.8</ele>
        <time>2024-05-26T14:42:21Z</time>
      </trkpt>
      <trkpt lat="43.72937" lon="6.64094">
        <ele>1084.8</ele>
        <time>2024-05-26T14:42:22Z</time>
      </trkpt>
      <trkpt lat="43.72938" lon="6.64093">
        <ele>1084.8</ele>
        <time>2024-05-26T14:42:23Z</time>
      </trkpt>
      <trkpt lat="43.72938" lon="6.64092">
        <ele>1084.8</ele>
        <time>2024-05-26T14:42:24Z</time>
      </trkpt>
      <trkpt lat="43.72939" lon="6.6409">
        <ele>1084.8</ele>
        <time>2024-05-26T14:42:25Z</time>
      </trkpt>
      <trkpt lat="43.7294" lon="6.64089">
        <ele>1084.8</ele>
        <time>2024-05-26T14:42:26Z</time>
      </trkpt>
      <trkpt lat="43.7294" lon="6.64088">
        <ele>1084.8</ele>
        <time>2024-05-26T14:42:27Z</time>
      </trkpt>
      <trkpt lat="43.72941" lon="6.64086">
        <ele>1084.9</ele>
        <time>2024-05-26T14:42:28Z</time>
      </trkpt>
      <trkpt lat="43.72941" lon="6.64085">
        <ele>1084.9</ele>
        <time>2024-05-26T14:42:29Z</time>
      </trkpt>
      <trkpt lat="43.72941" lon="6.64084">
        <ele>1084.9</ele>
        <time>2024-05-26T14:42:30Z</time>
      </trkpt>
      <trkpt lat="43.72942" lon="6.64083">
        <ele>1084.9</ele>
        <time>2024-05-26T14:42:31Z</time>
      </trkpt>
      <trkpt lat="43.72942" lon="6.64081">
        <ele>1085</ele>
        <time>2024-05-26T14:42:32Z</time>
      </trkpt>
      <trkpt lat="43.72942" lon="6.6408">
        <ele>1085.1</ele>
        <time>2024-05-26T14:42:33Z</time>
      </trkpt>
      <trkpt lat="43.72941" lon="6.64079">
        <ele>1085.1</ele>
        <time>2024-05-26T14:42:34Z</time>
      </trkpt>
      <trkpt lat="43.72942" lon="6.64078">
        <ele>1085.2</ele>
        <time>2024-05-26T14:42:35Z</time>
      </trkpt>
      <trkpt lat="43.72942" lon="6.64076">
        <ele>1085.3</ele>
        <time>2024-05-26T14:42:36Z</time>
      </trkpt>
      <trkpt lat="43.72942" lon="6.64075">
        <ele>1085.3</ele>
        <time>2024-05-26T14:42:37Z</time>
      </trkpt>
      <trkpt lat="43.72942" lon="6.64074">
        <ele>1085.4</ele>
        <time>2024-05-26T14:42:38Z</time>
      </trkpt>
      <trkpt lat="43.72942" lon="6.64073">
        <ele>1085.3</ele>
        <time>2024-05-26T14:42:39Z</time>
      </trkpt>
      <trkpt lat="43.72942" lon="6.64072">
        <ele>1085.3</ele>
        <time>2024-05-26T14:42:40Z</time>
      </trkpt>
      <trkpt lat="43.72942" lon="6.64071">
        <ele>1085.3</ele>
        <time>2024-05-26T14:42:41Z</time>
      </trkpt>
      <trkpt lat="43.72942" lon="6.6407">
        <ele>1085.3</ele>
        <time>2024-05-26T14:42:42Z</time>
      </trkpt>
      <trkpt lat="43.72941" lon="6.6407">
        <ele>1085.3</ele>
        <time>2024-05-26T14:42:43Z</time>
      </trkpt>
      <trkpt lat="43.72941" lon="6.64069">
        <ele>1085.4</ele>
        <time>2024-05-26T14:42:44Z</time>
      </trkpt>
      <trkpt lat="43.72941" lon="6.64069">
        <ele>1085.4</ele>
        <time>2024-05-26T14:42:45Z</time>
      </trkpt>
      <trkpt lat="43.72941" lon="6.64069">
        <ele>1085.4</ele>
        <time>2024-05-26T14:42:46Z</time>
      </trkpt>
      <trkpt lat="43.72941" lon="6.64069">
        <ele>1085.4</ele>
        <time>2024-05-26T14:42:47Z</time>
      </trkpt>
      <trkpt lat="43.72941" lon="6.64069">
        <ele>1085.4</ele>
        <time>2024-05-26T14:42:48Z</time>
      </trkpt>
      <trkpt lat="43.72941" lon="6.64069">
        <ele>1085.5</ele>
        <time>2024-05-26T14:42:49Z</time>
      </trkpt>
      <trkpt lat="43.72941" lon="6.64069">
        <ele>1085.4</ele>
        <time>2024-05-26T14:42:50Z</time>
      </trkpt>
      <trkpt lat="43.72941" lon="6.64068">
        <ele>1085.3</ele>
        <time>2024-05-26T14:42:51Z</time>
      </trkpt>
      <trkpt lat="43.72941" lon="6.64067">
        <ele>1085.2</ele>
        <time>2024-05-26T14:42:52Z</time>
      </trkpt>
      <trkpt lat="43.72941" lon="6.64067">
        <ele>1085.2</ele>
        <time>2024-05-26T14:42:53Z</time>
      </trkpt>
      <trkpt lat="43.72941" lon="6.64066">
        <ele>1085.2</ele>
        <time>2024-05-26T14:42:54Z</time>
      </trkpt>
      <trkpt lat="43.72942" lon="6.64066">
        <ele>1085.2</ele>
        <time>2024-05-26T14:42:55Z</time>
      </trkpt>
      <trkpt lat="43.72941" lon="6.64065">
        <ele>1085.2</ele>
        <time>2024-05-26T14:42:56Z</time>
      </trkpt>
      <trkpt lat="43.7294" lon="6.64064">
        <ele>1085.2</ele>
        <time>2024-05-26T14:42:57Z</time>
      </trkpt>
      <trkpt lat="43.7294" lon="6.64063">
        <ele>1085.1</ele>
        <time>2024-05-26T14:42:58Z</time>
      </trkpt>
      <trkpt lat="43.7294" lon="6.64063">
        <ele>1085</ele>
        <time>2024-05-26T14:42:59Z</time>
      </trkpt>
      <trkpt lat="43.7294" lon="6.64062">
        <ele>1085</ele>
        <time>2024-05-26T14:43:00Z</time>
      </trkpt>
      <trkpt lat="43.7294" lon="6.64061">
        <ele>1085</ele>
        <time>2024-05-26T14:43:01Z</time>
      </trkpt>
      <trkpt lat="43.72939" lon="6.6406">
        <ele>1084.9</ele>
        <time>2024-05-26T14:43:02Z</time>
      </trkpt>
      <trkpt lat="43.72939" lon="6.64059">
        <ele>1084.9</ele>
        <time>2024-05-26T14:43:03Z</time>
      </trkpt>
      <trkpt lat="43.72939" lon="6.64058">
        <ele>1084.9</ele>
        <time>2024-05-26T14:43:04Z</time>
      </trkpt>
      <trkpt lat="43.72939" lon="6.64057">
        <ele>1084.8</ele>
        <time>2024-05-26T14:43:05Z</time>
      </trkpt>
      <trkpt lat="43.7294" lon="6.64057">
        <ele>1084.8</ele>
        <time>2024-05-26T14:43:06Z</time>
      </trkpt>
      <trkpt lat="43.72939" lon="6.64056">
        <ele>1084.7</ele>
        <time>2024-05-26T14:43:07Z</time>
      </trkpt>
      <trkpt lat="43.72939" lon="6.64056">
        <ele>1084.7</ele>
        <time>2024-05-26T14:43:08Z</time>
      </trkpt>
      <trkpt lat="43.72939" lon="6.64056">
        <ele>1084.7</ele>
        <time>2024-05-26T14:43:09Z</time>
      </trkpt>
      <trkpt lat="43.72939" lon="6.64055">
        <ele>1084.7</ele>
        <time>2024-05-26T14:43:10Z</time>
      </trkpt>
      <trkpt lat="43.72939" lon="6.64055">
        <ele>1084.6</ele>
        <time>2024-05-26T14:43:11Z</time>
      </trkpt>
      <trkpt lat="43.72939" lon="6.64055">
        <ele>1084.6</ele>
        <time>2024-05-26T14:43:12Z</time>
      </trkpt>
      <trkpt lat="43.72939" lon="6.64055">
        <ele>1084.5</ele>
        <time>2024-05-26T14:43:13Z</time>
      </trkpt>
      <trkpt lat="43.72939" lon="6.64054">
        <ele>1084.5</ele>
        <time>2024-05-26T14:43:14Z</time>
      </trkpt>
      <trkpt lat="43.72939" lon="6.64054">
        <ele>1084.5</ele>
        <time>2024-05-26T14:43:15Z</time>
      </trkpt>
      <trkpt lat="43.72939" lon="6.64054">
        <ele>1084.4</ele>
        <time>2024-05-26T14:43:16Z</time>
      </trkpt>
      <trkpt lat="43.72939" lon="6.64054">
        <ele>1084.4</ele>
        <time>2024-05-26T14:43:17Z</time>
      </trkpt>
      <trkpt lat="43.72939" lon="6.64054">
        <ele>1084.4</ele>
        <time>2024-05-26T14:43:18Z</time>
      </trkpt>
      <trkpt lat="43.7294" lon="6.64054">
        <ele>1084.3</ele>
        <time>2024-05-26T14:43:19Z</time>
      </trkpt>
      <trkpt lat="43.7294" lon="6.64054">
        <ele>1084.3</ele>
        <time>2024-05-26T14:43:20Z</time>
      </trkpt>
      <trkpt lat="43.7294" lon="6.64054">
        <ele>1084.3</ele>
        <time>2024-05-26T14:43:21Z</time>
      </trkpt>
      <trkpt lat="43.7294" lon="6.64054">
        <ele>1084.3</ele>
        <time>2024-05-26T14:43:22Z</time>
      </trkpt>
      <trkpt lat="43.7294" lon="6.64054">
        <ele>1084.4</ele>
        <time>2024-05-26T14:43:23Z</time>
      </trkpt>
      <trkpt lat="43.7294" lon="6.64053">
        <ele>1084.4</ele>
        <time>2024-05-26T14:43:24Z</time>
      </trkpt>
      <trkpt lat="43.7294" lon="6.64053">
        <ele>1084.4</ele>
        <time>2024-05-26T14:43:25Z</time>
      </trkpt>
      <trkpt lat="43.7294" lon="6.64053">
        <ele>1084.4</ele>
        <time>2024-05-26T14:43:26Z</time>
      </trkpt>
      <trkpt lat="43.72939" lon="6.64053">
        <ele>1084.4</ele>
        <time>2024-05-26T14:43:27Z</time>
      </trkpt>
      <trkpt lat="43.72939" lon="6.64053">
        <ele>1084.4</ele>
        <time>2024-05-26T14:43:28Z</time>
      </trkpt>
      <trkpt lat="43.7294" lon="6.64053">
        <ele>1084.4</ele>
        <time>2024-05-26T14:43:29Z</time>
      </trkpt>
      <trkpt lat="43.7294" lon="6.64053">
        <ele>1084.3</ele>
        <time>2024-05-26T14:43:30Z</time>
      </trkpt>
      <trkpt lat="43.7294" lon="6.64053">
        <ele>1084.3</ele>
        <time>2024-05-26T14:43:31Z</time>
      </trkpt>
      <trkpt lat="43.7294" lon="6.64053">
        <ele>1084.2</ele>
        <time>2024-05-26T14:43:32Z</time>
      </trkpt>
      <trkpt lat="43.7294" lon="6.64053">
        <ele>1084.2</ele>
        <time>2024-05-26T14:43:33Z</time>
      </trkpt>
      <trkpt lat="43.7294" lon="6.64053">
        <ele>1084.2</ele>
        <time>2024-05-26T14:43:34Z</time>
      </trkpt>
      <trkpt lat="43.7294" lon="6.64053">
        <ele>1084.2</ele>
        <time>2024-05-26T14:43:35Z</time>
      </trkpt>
      <trkpt lat="43.7294" lon="6.64053">
        <ele>1084.2</ele>
        <time>2024-05-26T14:43:36Z</time>
      </trkpt>
      <trkpt lat="43.7294" lon="6.64052">
        <ele>1084.1</ele>
        <time>2024-05-26T14:43:37Z</time>
      </trkpt>
      <trkpt lat="43.7294" lon="6.64052">
        <ele>1084.1</ele>
        <time>2024-05-26T14:43:38Z</time>
      </trkpt>
      <trkpt lat="43.7294" lon="6.64052">
        <ele>1084.1</ele>
        <time>2024-05-26T14:43:39Z</time>
      </trkpt>
      <trkpt lat="43.7294" lon="6.64051">
        <ele>1084.1</ele>
        <time>2024-05-26T14:43:40Z</time>
      </trkpt>
      <trkpt lat="43.7294" lon="6.64051">
        <ele>1084</ele>
        <time>2024-05-26T14:43:41Z</time>
      </trkpt>
      <trkpt lat="43.7294" lon="6.64051">
        <ele>1084.1</ele>
        <time>2024-05-26T14:43:42Z</time>
      </trkpt>
      <trkpt lat="43.7294" lon="6.64051">
        <ele>1084</ele>
        <time>2024-05-26T14:43:43Z</time>
      </trkpt>
      <trkpt lat="43.7294" lon="6.6405">
        <ele>1084</ele>
        <time>2024-05-26T14:43:44Z</time>
      </trkpt>
      <trkpt lat="43.7294" lon="6.6405">
        <ele>1084</ele>
        <time>2024-05-26T14:43:45Z</time>
      </trkpt>
      <trkpt lat="43.7294" lon="6.6405">
        <ele>1083.9</ele>
        <time>2024-05-26T14:43:46Z</time>
      </trkpt>
      <trkpt lat="43.7294" lon="6.6405">
        <ele>1083.8</ele>
        <time>2024-05-26T14:43:47Z</time>
      </trkpt>
      <trkpt lat="43.7294" lon="6.6405">
        <ele>1083.8</ele>
        <time>2024-05-26T14:43:48Z</time>
      </trkpt>
      <trkpt lat="43.7294" lon="6.6405">
        <ele>1083.7</ele>
        <time>2024-05-26T14:43:49Z</time>
      </trkpt>
      <trkpt lat="43.7294" lon="6.6405">
        <ele>1083.7</ele>
        <time>2024-05-26T14:43:50Z</time>
      </trkpt>
      <trkpt lat="43.7294" lon="6.6405">
        <ele>1083.7</ele>
        <time>2024-05-26T14:43:51Z</time>
      </trkpt>
      <trkpt lat="43.7294" lon="6.6405">
        <ele>1083.8</ele>
        <time>2024-05-26T14:43:52Z</time>
      </trkpt>
      <trkpt lat="43.7294" lon="6.6405">
        <ele>1083.8</ele>
        <time>2024-05-26T14:43:53Z</time>
      </trkpt>
      <trkpt lat="43.7294" lon="6.64049">
        <ele>1083.8</ele>
        <time>2024-05-26T14:43:54Z</time>
      </trkpt>
      <trkpt lat="43.7294" lon="6.64049">
        <ele>1083.9</ele>
        <time>2024-05-26T14:43:55Z</time>
      </trkpt>
      <trkpt lat="43.7294" lon="6.64049">
        <ele>1083.9</ele>
        <time>2024-05-26T14:43:56Z</time>
      </trkpt>
      <trkpt lat="43.7294" lon="6.64049">
        <ele>1083.9</ele>
        <time>2024-05-26T14:43:57Z</time>
      </trkpt>
      <trkpt lat="43.7294" lon="6.64049">
        <ele>1083.8</ele>
        <time>2024-05-26T14:43:58Z</time>
      </trkpt>
      <trkpt lat="43.7294" lon="6.64048">
        <ele>1083.8</ele>
        <time>2024-05-26T14:43:59Z</time>
      </trkpt>
      <trkpt lat="43.72939" lon="6.64047">
        <ele>1083.8</ele>
        <time>2024-05-26T14:44:00Z</time>
      </trkpt>
      <trkpt lat="43.72939" lon="6.64047">
        <ele>1083.8</ele>
        <time>2024-05-26T14:44:01Z</time>
      </trkpt>
      <trkpt lat="43.72938" lon="6.64046">
        <ele>1083.8</ele>
        <time>2024-05-26T14:44:02Z</time>
      </trkpt>
      <trkpt lat="43.72938" lon="6.64046">
        <ele>1083.7</ele>
        <time>2024-05-26T14:44:03Z</time>
      </trkpt>
      <trkpt lat="43.72938" lon="6.64046">
        <ele>1083.7</ele>
        <time>2024-05-26T14:44:04Z</time>
      </trkpt>
      <trkpt lat="43.72938" lon="6.64046">
        <ele>1083.8</ele>
        <time>2024-05-26T14:44:05Z</time>
      </trkpt>
      <trkpt lat="43.72937" lon="6.64045">
        <ele>1083.8</ele>
        <time>2024-05-26T14:44:06Z</time>
      </trkpt>
      <trkpt lat="43.72937" lon="6.64045">
        <ele>1083.8</ele>
        <time>2024-05-26T14:44:07Z</time>
      </trkpt>
      <trkpt lat="43.72937" lon="6.64045">
        <ele>1083.8</ele>
        <time>2024-05-26T14:44:08Z</time>
      </trkpt>
      <trkpt lat="43.72937" lon="6.64045">
        <ele>1083.8</ele>
        <time>2024-05-26T14:44:09Z</time>
      </trkpt>
      <trkpt lat="43.72937" lon="6.64044">
        <ele>1083.9</ele>
        <time>2024-05-26T14:44:10Z</time>
      </trkpt>
      <trkpt lat="43.72937" lon="6.64044">
        <ele>1083.9</ele>
        <time>2024-05-26T14:44:11Z</time>
      </trkpt>
      <trkpt lat="43.72936" lon="6.64044">
        <ele>1084</ele>
        <time>2024-05-26T14:44:12Z</time>
      </trkpt>
      <trkpt lat="43.72936" lon="6.64044">
        <ele>1084</ele>
        <time>2024-05-26T14:44:13Z</time>
      </trkpt>
      <trkpt lat="43.72936" lon="6.64043">
        <ele>1083.9</ele>
        <time>2024-05-26T14:44:14Z</time>
      </trkpt>
      <trkpt lat="43.72936" lon="6.64042">
        <ele>1083.9</ele>
        <time>2024-05-26T14:44:15Z</time>
      </trkpt>
      <trkpt lat="43.72936" lon="6.64041">
        <ele>1083.9</ele>
        <time>2024-05-26T14:44:16Z</time>
      </trkpt>
      <trkpt lat="43.72936" lon="6.64039">
        <ele>1083.9</ele>
        <time>2024-05-26T14:44:17Z</time>
      </trkpt>
      <trkpt lat="43.72937" lon="6.64039">
        <ele>1083.9</ele>
        <time>2024-05-26T14:44:18Z</time>
      </trkpt>
      <trkpt lat="43.72937" lon="6.64038">
        <ele>1083.8</ele>
        <time>2024-05-26T14:44:19Z</time>
      </trkpt>
      <trkpt lat="43.72937" lon="6.64037">
        <ele>1083.8</ele>
        <time>2024-05-26T14:44:20Z</time>
      </trkpt>
      <trkpt lat="43.72938" lon="6.64036">
        <ele>1083.8</ele>
        <time>2024-05-26T14:44:21Z</time>
      </trkpt>
      <trkpt lat="43.72938" lon="6.64035">
        <ele>1083.8</ele>
        <time>2024-05-26T14:44:22Z</time>
      </trkpt>
      <trkpt lat="43.72938" lon="6.64034">
        <ele>1083.7</ele>
        <time>2024-05-26T14:44:23Z</time>
      </trkpt>
      <trkpt lat="43.72939" lon="6.64033">
        <ele>1083.7</ele>
        <time>2024-05-26T14:44:24Z</time>
      </trkpt>
      <trkpt lat="43.72939" lon="6.64032">
        <ele>1083.7</ele>
        <time>2024-05-26T14:44:25Z</time>
      </trkpt>
      <trkpt lat="43.7294" lon="6.64031">
        <ele>1083.7</ele>
        <time>2024-05-26T14:44:26Z</time>
      </trkpt>
      <trkpt lat="43.7294" lon="6.6403">
        <ele>1083.7</ele>
        <time>2024-05-26T14:44:27Z</time>
      </trkpt>
      <trkpt lat="43.72941" lon="6.64029">
        <ele>1083.8</ele>
        <time>2024-05-26T14:44:28Z</time>
      </trkpt>
      <trkpt lat="43.72942" lon="6.64028">
        <ele>1083.8</ele>
        <time>2024-05-26T14:44:29Z</time>
      </trkpt>
      <trkpt lat="43.72942" lon="6.64027">
        <ele>1083.8</ele>
        <time>2024-05-26T14:44:30Z</time>
      </trkpt>
      <trkpt lat="43.72943" lon="6.64025">
        <ele>1083.9</ele>
        <time>2024-05-26T14:44:31Z</time>
      </trkpt>
      <trkpt lat="43.72944" lon="6.64024">
        <ele>1084</ele>
        <time>2024-05-26T14:44:32Z</time>
      </trkpt>
      <trkpt lat="43.72945" lon="6.64023">
        <ele>1084</ele>
        <time>2024-05-26T14:44:33Z</time>
      </trkpt>
      <trkpt lat="43.72946" lon="6.64022">
        <ele>1084</ele>
        <time>2024-05-26T14:44:34Z</time>
      </trkpt>
      <trkpt lat="43.72947" lon="6.64021">
        <ele>1084</ele>
        <time>2024-05-26T14:44:35Z</time>
      </trkpt>
      <trkpt lat="43.72948" lon="6.6402">
        <ele>1084.1</ele>
        <time>2024-05-26T14:44:36Z</time>
      </trkpt>
      <trkpt lat="43.72949" lon="6.64019">
        <ele>1084.1</ele>
        <time>2024-05-26T14:44:37Z</time>
      </trkpt>
      <trkpt lat="43.72949" lon="6.64018">
        <ele>1084.2</ele>
        <time>2024-05-26T14:44:38Z</time>
      </trkpt>
      <trkpt lat="43.7295" lon="6.64017">
        <ele>1084</ele>
        <time>2024-05-26T14:44:39Z</time>
      </trkpt>
      <trkpt lat="43.72951" lon="6.64016">
        <ele>1084</ele>
        <time>2024-05-26T14:44:40Z</time>
      </trkpt>
      <trkpt lat="43.72952" lon="6.64015">
        <ele>1084</ele>
        <time>2024-05-26T14:44:41Z</time>
      </trkpt>
      <trkpt lat="43.72953" lon="6.64014">
        <ele>1084</ele>
        <time>2024-05-26T14:44:42Z</time>
      </trkpt>
      <trkpt lat="43.72954" lon="6.64013">
        <ele>1084</ele>
        <time>2024-05-26T14:44:43Z</time>
      </trkpt>
      <trkpt lat="43.72955" lon="6.64012">
        <ele>1084</ele>
        <time>2024-05-26T14:44:44Z</time>
      </trkpt>
      <trkpt lat="43.72956" lon="6.64011">
        <ele>1084.1</ele>
        <time>2024-05-26T14:44:45Z</time>
      </trkpt>
      <trkpt lat="43.72957" lon="6.64009">
        <ele>1084.1</ele>
        <time>2024-05-26T14:44:46Z</time>
      </trkpt>
      <trkpt lat="43.72957" lon="6.64008">
        <ele>1084.1</ele>
        <time>2024-05-26T14:44:47Z</time>
      </trkpt>
      <trkpt lat="43.72958" lon="6.64007">
        <ele>1084.1</ele>
        <time>2024-05-26T14:44:48Z</time>
      </trkpt>
      <trkpt lat="43.7296" lon="6.64006">
        <ele>1084.1</ele>
        <time>2024-05-26T14:44:49Z</time>
      </trkpt>
      <trkpt lat="43.7296" lon="6.64004">
        <ele>1084.1</ele>
        <time>2024-05-26T14:44:50Z</time>
      </trkpt>
      <trkpt lat="43.72961" lon="6.64003">
        <ele>1084.1</ele>
        <time>2024-05-26T14:44:51Z</time>
      </trkpt>
      <trkpt lat="43.72962" lon="6.64001">
        <ele>1084</ele>
        <time>2024-05-26T14:44:52Z</time>
      </trkpt>
      <trkpt lat="43.72963" lon="6.64">
        <ele>1083.9</ele>
        <time>2024-05-26T14:44:53Z</time>
      </trkpt>
      <trkpt lat="43.72964" lon="6.63999">
        <ele>1083.9</ele>
        <time>2024-05-26T14:44:54Z</time>
      </trkpt>
      <trkpt lat="43.72964" lon="6.63998">
        <ele>1083.8</ele>
        <time>2024-05-26T14:44:55Z</time>
      </trkpt>
      <trkpt lat="43.72965" lon="6.63996">
        <ele>1083.8</ele>
        <time>2024-05-26T14:44:56Z</time>
      </trkpt>
      <trkpt lat="43.72967" lon="6.63995">
        <ele>1083.8</ele>
        <time>2024-05-26T14:44:57Z</time>
      </trkpt>
      <trkpt lat="43.72968" lon="6.63994">
        <ele>1083.8</ele>
        <time>2024-05-26T14:44:58Z</time>
      </trkpt>
      <trkpt lat="43.72969" lon="6.63993">
        <ele>1083.7</ele>
        <time>2024-05-26T14:44:59Z</time>
      </trkpt>
      <trkpt lat="43.7297" lon="6.63991">
        <ele>1083.6</ele>
        <time>2024-05-26T14:45:00Z</time>
      </trkpt>
      <trkpt lat="43.7297" lon="6.6399">
        <ele>1083.6</ele>
        <time>2024-05-26T14:45:01Z</time>
      </trkpt>
      <trkpt lat="43.72971" lon="6.63988">
        <ele>1083.5</ele>
        <time>2024-05-26T14:45:02Z</time>
      </trkpt>
      <trkpt lat="43.72972" lon="6.63987">
        <ele>1083.4</ele>
        <time>2024-05-26T14:45:03Z</time>
      </trkpt>
      <trkpt lat="43.72972" lon="6.63985">
        <ele>1083.3</ele>
        <time>2024-05-26T14:45:04Z</time>
      </trkpt>
      <trkpt lat="43.72973" lon="6.63983">
        <ele>1083.3</ele>
        <time>2024-05-26T14:45:05Z</time>
      </trkpt>
      <trkpt lat="43.72974" lon="6.63982">
        <ele>1083.2</ele>
        <time>2024-05-26T14:45:06Z</time>
      </trkpt>
      <trkpt lat="43.72975" lon="6.6398">
        <ele>1083.2</ele>
        <time>2024-05-26T14:45:07Z</time>
      </trkpt>
      <trkpt lat="43.72976" lon="6.63978">
        <ele>1083.1</ele>
        <time>2024-05-26T14:45:08Z</time>
      </trkpt>
      <trkpt lat="43.72977" lon="6.63977">
        <ele>1083</ele>
        <time>2024-05-26T14:45:09Z</time>
      </trkpt>
      <trkpt lat="43.72978" lon="6.63975">
        <ele>1082.9</ele>
        <time>2024-05-26T14:45:10Z</time>
      </trkpt>
      <trkpt lat="43.72979" lon="6.63974">
        <ele>1082.9</ele>
        <time>2024-05-26T14:45:11Z</time>
      </trkpt>
      <trkpt lat="43.72979" lon="6.63972">
        <ele>1082.9</ele>
        <time>2024-05-26T14:45:12Z</time>
      </trkpt>
      <trkpt lat="43.7298" lon="6.6397">
        <ele>1082.9</ele>
        <time>2024-05-26T14:45:13Z</time>
      </trkpt>
      <trkpt lat="43.7298" lon="6.63969">
        <ele>1082.8</ele>
        <time>2024-05-26T14:45:14Z</time>
      </trkpt>
      <trkpt lat="43.72981" lon="6.63967">
        <ele>1082.6</ele>
        <time>2024-05-26T14:45:15Z</time>
      </trkpt>
      <trkpt lat="43.72982" lon="6.63965">
        <ele>1082.5</ele>
        <time>2024-05-26T14:45:16Z</time>
      </trkpt>
      <trkpt lat="43.72982" lon="6.63963">
        <ele>1082.4</ele>
        <time>2024-05-26T14:45:17Z</time>
      </trkpt>
      <trkpt lat="43.72983" lon="6.63961">
        <ele>1082.4</ele>
        <time>2024-05-26T14:45:18Z</time>
      </trkpt>
      <trkpt lat="43.72984" lon="6.6396">
        <ele>1082.1</ele>
        <time>2024-05-26T14:45:19Z</time>
      </trkpt>
      <trkpt lat="43.72984" lon="6.63958">
        <ele>1082.1</ele>
        <time>2024-05-26T14:45:20Z</time>
      </trkpt>
      <trkpt lat="43.72985" lon="6.63956">
        <ele>1082</ele>
        <time>2024-05-26T14:45:21Z</time>
      </trkpt>
      <trkpt lat="43.72985" lon="6.63955">
        <ele>1081.9</ele>
        <time>2024-05-26T14:45:22Z</time>
      </trkpt>
      <trkpt lat="43.72985" lon="6.63953">
        <ele>1081.8</ele>
        <time>2024-05-26T14:45:23Z</time>
      </trkpt>
      <trkpt lat="43.72986" lon="6.63951">
        <ele>1081.7</ele>
        <time>2024-05-26T14:45:24Z</time>
      </trkpt>
      <trkpt lat="43.72986" lon="6.6395">
        <ele>1081.6</ele>
        <time>2024-05-26T14:45:25Z</time>
      </trkpt>
      <trkpt lat="43.72986" lon="6.63948">
        <ele>1081.5</ele>
        <time>2024-05-26T14:45:26Z</time>
      </trkpt>
      <trkpt lat="43.72987" lon="6.63947">
        <ele>1081.2</ele>
        <time>2024-05-26T14:45:27Z</time>
      </trkpt>
      <trkpt lat="43.72987" lon="6.63945">
        <ele>1081.1</ele>
        <time>2024-05-26T14:45:28Z</time>
      </trkpt>
      <trkpt lat="43.72988" lon="6.63944">
        <ele>1081</ele>
        <time>2024-05-26T14:45:29Z</time>
      </trkpt>
      <trkpt lat="43.72988" lon="6.63942">
        <ele>1080.6</ele>
        <time>2024-05-26T14:45:30Z</time>
      </trkpt>
      <trkpt lat="43.72989" lon="6.63941">
        <ele>1080.5</ele>
        <time>2024-05-26T14:45:31Z</time>
      </trkpt>
      <trkpt lat="43.7299" lon="6.6394">
        <ele>1080.4</ele>
        <time>2024-05-26T14:45:32Z</time>
      </trkpt>
      <trkpt lat="43.7299" lon="6.63938">
        <ele>1080.2</ele>
        <time>2024-05-26T14:45:33Z</time>
      </trkpt>
      <trkpt lat="43.7299" lon="6.63936">
        <ele>1080</ele>
        <time>2024-05-26T14:45:34Z</time>
      </trkpt>
      <trkpt lat="43.7299" lon="6.63935">
        <ele>1079.8</ele>
        <time>2024-05-26T14:45:35Z</time>
      </trkpt>
      <trkpt lat="43.7299" lon="6.63933">
        <ele>1079.6</ele>
        <time>2024-05-26T14:45:36Z</time>
      </trkpt>
      <trkpt lat="43.72991" lon="6.63931">
        <ele>1079.3</ele>
        <time>2024-05-26T14:45:37Z</time>
      </trkpt>
      <trkpt lat="43.72991" lon="6.63929">
        <ele>1079.1</ele>
        <time>2024-05-26T14:45:38Z</time>
      </trkpt>
      <trkpt lat="43.72992" lon="6.63928">
        <ele>1079</ele>
        <time>2024-05-26T14:45:39Z</time>
      </trkpt>
      <trkpt lat="43.72992" lon="6.63926">
        <ele>1078.8</ele>
        <time>2024-05-26T14:45:40Z</time>
      </trkpt>
      <trkpt lat="43.72993" lon="6.63924">
        <ele>1078.7</ele>
        <time>2024-05-26T14:45:41Z</time>
      </trkpt>
      <trkpt lat="43.72993" lon="6.63922">
        <ele>1078.5</ele>
        <time>2024-05-26T14:45:42Z</time>
      </trkpt>
      <trkpt lat="43.72993" lon="6.6392">
        <ele>1078.4</ele>
        <time>2024-05-26T14:45:43Z</time>
      </trkpt>
      <trkpt lat="43.72994" lon="6.63918">
        <ele>1078.2</ele>
        <time>2024-05-26T14:45:44Z</time>
      </trkpt>
      <trkpt lat="43.72994" lon="6.63916">
        <ele>1078.1</ele>
        <time>2024-05-26T14:45:45Z</time>
      </trkpt>
      <trkpt lat="43.72994" lon="6.63913">
        <ele>1078</ele>
        <time>2024-05-26T14:45:46Z</time>
      </trkpt>
      <trkpt lat="43.72994" lon="6.63912">
        <ele>1077.8</ele>
        <time>2024-05-26T14:45:47Z</time>
      </trkpt>
      <trkpt lat="43.72994" lon="6.6391">
        <ele>1077.5</ele>
        <time>2024-05-26T14:45:48Z</time>
      </trkpt>
      <trkpt lat="43.72994" lon="6.63908">
        <ele>1077.3</ele>
        <time>2024-05-26T14:45:49Z</time>
      </trkpt>
      <trkpt lat="43.72994" lon="6.63907">
        <ele>1077.2</ele>
        <time>2024-05-26T14:45:50Z</time>
      </trkpt>
      <trkpt lat="43.72994" lon="6.63905">
        <ele>1077.1</ele>
        <time>2024-05-26T14:45:51Z</time>
      </trkpt>
      <trkpt lat="43.72995" lon="6.63903">
        <ele>1077</ele>
        <time>2024-05-26T14:45:52Z</time>
      </trkpt>
      <trkpt lat="43.72995" lon="6.63901">
        <ele>1076.9</ele>
        <time>2024-05-26T14:45:53Z</time>
      </trkpt>
      <trkpt lat="43.72995" lon="6.639">
        <ele>1076.8</ele>
        <time>2024-05-26T14:45:54Z</time>
      </trkpt>
      <trkpt lat="43.72994" lon="6.63898">
        <ele>1076.7</ele>
        <time>2024-05-26T14:45:55Z</time>
      </trkpt>
      <trkpt lat="43.72995" lon="6.63896">
        <ele>1076.6</ele>
        <time>2024-05-26T14:45:56Z</time>
      </trkpt>
      <trkpt lat="43.72995" lon="6.63894">
        <ele>1076.5</ele>
        <time>2024-05-26T14:45:57Z</time>
      </trkpt>
      <trkpt lat="43.72995" lon="6.63892">
        <ele>1076.3</ele>
        <time>2024-05-26T14:45:58Z</time>
      </trkpt>
      <trkpt lat="43.72995" lon="6.63891">
        <ele>1076.1</ele>
        <time>2024-05-26T14:45:59Z</time>
      </trkpt>
      <trkpt lat="43.72994" lon="6.6389">
        <ele>1075.8</ele>
        <time>2024-05-26T14:46:00Z</time>
      </trkpt>
      <trkpt lat="43.72994" lon="6.63888">
        <ele>1075.6</ele>
        <time>2024-05-26T14:46:01Z</time>
      </trkpt>
      <trkpt lat="43.72995" lon="6.63887">
        <ele>1075.4</ele>
        <time>2024-05-26T14:46:02Z</time>
      </trkpt>
      <trkpt lat="43.72995" lon="6.63886">
        <ele>1075.1</ele>
        <time>2024-05-26T14:46:03Z</time>
      </trkpt>
      <trkpt lat="43.72995" lon="6.63884">
        <ele>1075</ele>
        <time>2024-05-26T14:46:04Z</time>
      </trkpt>
      <trkpt lat="43.72995" lon="6.63882">
        <ele>1074.9</ele>
        <time>2024-05-26T14:46:05Z</time>
      </trkpt>
      <trkpt lat="43.72996" lon="6.63881">
        <ele>1074.8</ele>
        <time>2024-05-26T14:46:06Z</time>
      </trkpt>
      <trkpt lat="43.72996" lon="6.6388">
        <ele>1074.8</ele>
        <time>2024-05-26T14:46:07Z</time>
      </trkpt>
      <trkpt lat="43.72996" lon="6.63878">
        <ele>1074.6</ele>
        <time>2024-05-26T14:46:08Z</time>
      </trkpt>
      <trkpt lat="43.72996" lon="6.63876">
        <ele>1074.5</ele>
        <time>2024-05-26T14:46:09Z</time>
      </trkpt>
      <trkpt lat="43.72997" lon="6.63874">
        <ele>1074.4</ele>
        <time>2024-05-26T14:46:10Z</time>
      </trkpt>
      <trkpt lat="43.72997" lon="6.63872">
        <ele>1074.3</ele>
        <time>2024-05-26T14:46:11Z</time>
      </trkpt>
      <trkpt lat="43.72997" lon="6.6387">
        <ele>1074.1</ele>
        <time>2024-05-26T14:46:12Z</time>
      </trkpt>
      <trkpt lat="43.72997" lon="6.63868">
        <ele>1073.9</ele>
        <time>2024-05-26T14:46:13Z</time>
      </trkpt>
      <trkpt lat="43.72998" lon="6.63867">
        <ele>1073.7</ele>
        <time>2024-05-26T14:46:14Z</time>
      </trkpt>
      <trkpt lat="43.72998" lon="6.63866">
        <ele>1073.6</ele>
        <time>2024-05-26T14:46:15Z</time>
      </trkpt>
      <trkpt lat="43.72998" lon="6.63865">
        <ele>1073.5</ele>
        <time>2024-05-26T14:46:16Z</time>
      </trkpt>
      <trkpt lat="43.72998" lon="6.63863">
        <ele>1073.4</ele>
        <time>2024-05-26T14:46:17Z</time>
      </trkpt>
      <trkpt lat="43.72998" lon="6.63862">
        <ele>1073.3</ele>
        <time>2024-05-26T14:46:18Z</time>
      </trkpt>
      <trkpt lat="43.72998" lon="6.6386">
        <ele>1073.2</ele>
        <time>2024-05-26T14:46:19Z</time>
      </trkpt>
      <trkpt lat="43.72999" lon="6.63859">
        <ele>1073.1</ele>
        <time>2024-05-26T14:46:20Z</time>
      </trkpt>
      <trkpt lat="43.72999" lon="6.63857">
        <ele>1073</ele>
        <time>2024-05-26T14:46:21Z</time>
      </trkpt>
      <trkpt lat="43.73" lon="6.63855">
        <ele>1072.9</ele>
        <time>2024-05-26T14:46:22Z</time>
      </trkpt>
      <trkpt lat="43.73" lon="6.63853">
        <ele>1072.8</ele>
        <time>2024-05-26T14:46:23Z</time>
      </trkpt>
      <trkpt lat="43.73001" lon="6.63852">
        <ele>1072.6</ele>
        <time>2024-05-26T14:46:24Z</time>
      </trkpt>
      <trkpt lat="43.73002" lon="6.6385">
        <ele>1072.5</ele>
        <time>2024-05-26T14:46:25Z</time>
      </trkpt>
      <trkpt lat="43.73002" lon="6.63849">
        <ele>1072.4</ele>
        <time>2024-05-26T14:46:26Z</time>
      </trkpt>
      <trkpt lat="43.73002" lon="6.63848">
        <ele>1072.2</ele>
        <time>2024-05-26T14:46:27Z</time>
      </trkpt>
      <trkpt lat="43.73002" lon="6.63846">
        <ele>1072.1</ele>
        <time>2024-05-26T14:46:28Z</time>
      </trkpt>
      <trkpt lat="43.73003" lon="6.63845">
        <ele>1072</ele>
        <time>2024-05-26T14:46:29Z</time>
      </trkpt>
      <trkpt lat="43.73003" lon="6.63843">
        <ele>1071.9</ele>
        <time>2024-05-26T14:46:30Z</time>
      </trkpt>
      <trkpt lat="43.73004" lon="6.63841">
        <ele>1071.9</ele>
        <time>2024-05-26T14:46:31Z</time>
      </trkpt>
      <trkpt lat="43.73004" lon="6.63839">
        <ele>1071.8</ele>
        <time>2024-05-26T14:46:32Z</time>
      </trkpt>
      <trkpt lat="43.73005" lon="6.63837">
        <ele>1071.8</ele>
        <time>2024-05-26T14:46:33Z</time>
      </trkpt>
      <trkpt lat="43.73005" lon="6.63835">
        <ele>1071.8</ele>
        <time>2024-05-26T14:46:34Z</time>
      </trkpt>
      <trkpt lat="43.73005" lon="6.63834">
        <ele>1071.7</ele>
        <time>2024-05-26T14:46:35Z</time>
      </trkpt>
      <trkpt lat="43.73006" lon="6.63832">
        <ele>1071.7</ele>
        <time>2024-05-26T14:46:36Z</time>
      </trkpt>
      <trkpt lat="43.73006" lon="6.63831">
        <ele>1071.7</ele>
        <time>2024-05-26T14:46:37Z</time>
      </trkpt>
      <trkpt lat="43.73007" lon="6.63829">
        <ele>1071.6</ele>
        <time>2024-05-26T14:46:38Z</time>
      </trkpt>
      <trkpt lat="43.73007" lon="6.63827">
        <ele>1071.5</ele>
        <time>2024-05-26T14:46:39Z</time>
      </trkpt>
      <trkpt lat="43.73008" lon="6.63826">
        <ele>1071.5</ele>
        <time>2024-05-26T14:46:40Z</time>
      </trkpt>
      <trkpt lat="43.73009" lon="6.63825">
        <ele>1071.5</ele>
        <time>2024-05-26T14:46:41Z</time>
      </trkpt>
      <trkpt lat="43.7301" lon="6.63823">
        <ele>1071.5</ele>
        <time>2024-05-26T14:46:42Z</time>
      </trkpt>
      <trkpt lat="43.7301" lon="6.63821">
        <ele>1071.4</ele>
        <time>2024-05-26T14:46:43Z</time>
      </trkpt>
      <trkpt lat="43.73011" lon="6.6382">
        <ele>1071.3</ele>
        <time>2024-05-26T14:46:44Z</time>
      </trkpt>
      <trkpt lat="43.73012" lon="6.63818">
        <ele>1071.3</ele>
        <time>2024-05-26T14:46:45Z</time>
      </trkpt>
      <trkpt lat="43.73012" lon="6.63817">
        <ele>1071.3</ele>
        <time>2024-05-26T14:46:46Z</time>
      </trkpt>
      <trkpt lat="43.73013" lon="6.63816">
        <ele>1071.2</ele>
        <time>2024-05-26T14:46:47Z</time>
      </trkpt>
      <trkpt lat="43.73013" lon="6.63814">
        <ele>1071.1</ele>
        <time>2024-05-26T14:46:48Z</time>
      </trkpt>
      <trkpt lat="43.73014" lon="6.63813">
        <ele>1071</ele>
        <time>2024-05-26T14:46:49Z</time>
      </trkpt>
      <trkpt lat="43.73015" lon="6.63812">
        <ele>1071.1</ele>
        <time>2024-05-26T14:46:50Z</time>
      </trkpt>
      <trkpt lat="43.73016" lon="6.6381">
        <ele>1071</ele>
        <time>2024-05-26T14:46:51Z</time>
      </trkpt>
      <trkpt lat="43.73016" lon="6.63809">
        <ele>1070.9</ele>
        <time>2024-05-26T14:46:52Z</time>
      </trkpt>
      <trkpt lat="43.73017" lon="6.63807">
        <ele>1070.9</ele>
        <time>2024-05-26T14:46:53Z</time>
      </trkpt>
      <trkpt lat="43.73018" lon="6.63806">
        <ele>1070.8</ele>
        <time>2024-05-26T14:46:54Z</time>
      </trkpt>
      <trkpt lat="43.73019" lon="6.63805">
        <ele>1070.9</ele>
        <time>2024-05-26T14:46:55Z</time>
      </trkpt>
      <trkpt lat="43.7302" lon="6.63803">
        <ele>1070.9</ele>
        <time>2024-05-26T14:46:56Z</time>
      </trkpt>
      <trkpt lat="43.7302" lon="6.63801">
        <ele>1070.9</ele>
        <time>2024-05-26T14:46:57Z</time>
      </trkpt>
      <trkpt lat="43.73021" lon="6.638">
        <ele>1070.8</ele>
        <time>2024-05-26T14:46:58Z</time>
      </trkpt>
      <trkpt lat="43.73021" lon="6.63798">
        <ele>1070.7</ele>
        <time>2024-05-26T14:46:59Z</time>
      </trkpt>
      <trkpt lat="43.73021" lon="6.63797">
        <ele>1070.7</ele>
        <time>2024-05-26T14:47:00Z</time>
      </trkpt>
      <trkpt lat="43.73022" lon="6.63795">
        <ele>1070.7</ele>
        <time>2024-05-26T14:47:01Z</time>
      </trkpt>
      <trkpt lat="43.73022" lon="6.63793">
        <ele>1070.6</ele>
        <time>2024-05-26T14:47:02Z</time>
      </trkpt>
      <trkpt lat="43.73023" lon="6.63791">
        <ele>1070.6</ele>
        <time>2024-05-26T14:47:03Z</time>
      </trkpt>
      <trkpt lat="43.73023" lon="6.6379">
        <ele>1070.6</ele>
        <time>2024-05-26T14:47:04Z</time>
      </trkpt>
      <trkpt lat="43.73024" lon="6.63788">
        <ele>1070.6</ele>
        <time>2024-05-26T14:47:05Z</time>
      </trkpt>
      <trkpt lat="43.73024" lon="6.63786">
        <ele>1070.5</ele>
        <time>2024-05-26T14:47:06Z</time>
      </trkpt>
      <trkpt lat="43.73025" lon="6.63784">
        <ele>1070.4</ele>
        <time>2024-05-26T14:47:07Z</time>
      </trkpt>
      <trkpt lat="43.73025" lon="6.63782">
        <ele>1070.3</ele>
        <time>2024-05-26T14:47:08Z</time>
      </trkpt>
      <trkpt lat="43.73026" lon="6.63781">
        <ele>1070.2</ele>
        <time>2024-05-26T14:47:09Z</time>
      </trkpt>
      <trkpt lat="43.73026" lon="6.63779">
        <ele>1070.2</ele>
        <time>2024-05-26T14:47:10Z</time>
      </trkpt>
      <trkpt lat="43.73026" lon="6.63778">
        <ele>1070.1</ele>
        <time>2024-05-26T14:47:11Z</time>
      </trkpt>
      <trkpt lat="43.73027" lon="6.63776">
        <ele>1070</ele>
        <time>2024-05-26T14:47:12Z</time>
      </trkpt>
      <trkpt lat="43.73027" lon="6.63774">
        <ele>1069.9</ele>
        <time>2024-05-26T14:47:13Z</time>
      </trkpt>
      <trkpt lat="43.73027" lon="6.63772">
        <ele>1069.8</ele>
        <time>2024-05-26T14:47:14Z</time>
      </trkpt>
      <trkpt lat="43.73028" lon="6.6377">
        <ele>1069.8</ele>
        <time>2024-05-26T14:47:15Z</time>
      </trkpt>
      <trkpt lat="43.73028" lon="6.63768">
        <ele>1069.7</ele>
        <time>2024-05-26T14:47:16Z</time>
      </trkpt>
      <trkpt lat="43.73028" lon="6.63766">
        <ele>1069.6</ele>
        <time>2024-05-26T14:47:17Z</time>
      </trkpt>
      <trkpt lat="43.73029" lon="6.63765">
        <ele>1069.5</ele>
        <time>2024-05-26T14:47:18Z</time>
      </trkpt>
      <trkpt lat="43.73029" lon="6.63762">
        <ele>1069.5</ele>
        <time>2024-05-26T14:47:19Z</time>
      </trkpt>
      <trkpt lat="43.73029" lon="6.6376">
        <ele>1069.4</ele>
        <time>2024-05-26T14:47:20Z</time>
      </trkpt>
      <trkpt lat="43.7303" lon="6.63758">
        <ele>1069.3</ele>
        <time>2024-05-26T14:47:21Z</time>
      </trkpt>
      <trkpt lat="43.7303" lon="6.63756">
        <ele>1069.2</ele>
        <time>2024-05-26T14:47:22Z</time>
      </trkpt>
      <trkpt lat="43.7303" lon="6.63754">
        <ele>1069.2</ele>
        <time>2024-05-26T14:47:23Z</time>
      </trkpt>
      <trkpt lat="43.7303" lon="6.63752">
        <ele>1069.2</ele>
        <time>2024-05-26T14:47:24Z</time>
      </trkpt>
      <trkpt lat="43.7303" lon="6.6375">
        <ele>1069.2</ele>
        <time>2024-05-26T14:47:25Z</time>
      </trkpt>
      <trkpt lat="43.73031" lon="6.63748">
        <ele>1069.2</ele>
        <time>2024-05-26T14:47:26Z</time>
      </trkpt>
      <trkpt lat="43.73031" lon="6.63746">
        <ele>1069.2</ele>
        <time>2024-05-26T14:47:27Z</time>
      </trkpt>
      <trkpt lat="43.73032" lon="6.63744">
        <ele>1069.1</ele>
        <time>2024-05-26T14:47:28Z</time>
      </trkpt>
      <trkpt lat="43.73031" lon="6.63742">
        <ele>1069.1</ele>
        <time>2024-05-26T14:47:29Z</time>
      </trkpt>
      <trkpt lat="43.73031" lon="6.63741">
        <ele>1069.2</ele>
        <time>2024-05-26T14:47:30Z</time>
      </trkpt>
      <trkpt lat="43.73032" lon="6.63739">
        <ele>1069.2</ele>
        <time>2024-05-26T14:47:31Z</time>
      </trkpt>
      <trkpt lat="43.73032" lon="6.63737">
        <ele>1069.3</ele>
        <time>2024-05-26T14:47:32Z</time>
      </trkpt>
      <trkpt lat="43.73031" lon="6.63735">
        <ele>1069.2</ele>
        <time>2024-05-26T14:47:33Z</time>
      </trkpt>
      <trkpt lat="43.73031" lon="6.63732">
        <ele>1069.2</ele>
        <time>2024-05-26T14:47:34Z</time>
      </trkpt>
      <trkpt lat="43.73031" lon="6.6373">
        <ele>1069.2</ele>
        <time>2024-05-26T14:47:35Z</time>
      </trkpt>
      <trkpt lat="43.73031" lon="6.63728">
        <ele>1069.1</ele>
        <time>2024-05-26T14:47:36Z</time>
      </trkpt>
      <trkpt lat="43.73031" lon="6.63726">
        <ele>1069.1</ele>
        <time>2024-05-26T14:47:37Z</time>
      </trkpt>
      <trkpt lat="43.73032" lon="6.63723">
        <ele>1069</ele>
        <time>2024-05-26T14:47:38Z</time>
      </trkpt>
      <trkpt lat="43.73033" lon="6.63721">
        <ele>1069</ele>
        <time>2024-05-26T14:47:39Z</time>
      </trkpt>
      <trkpt lat="43.73033" lon="6.63718">
        <ele>1069</ele>
        <time>2024-05-26T14:47:40Z</time>
      </trkpt>
      <trkpt lat="43.73033" lon="6.63716">
        <ele>1068.9</ele>
        <time>2024-05-26T14:47:41Z</time>
      </trkpt>
      <trkpt lat="43.73033" lon="6.63714">
        <ele>1068.8</ele>
        <time>2024-05-26T14:47:42Z</time>
      </trkpt>
      <trkpt lat="43.73033" lon="6.63712">
        <ele>1068.9</ele>
        <time>2024-05-26T14:47:43Z</time>
      </trkpt>
      <trkpt lat="43.73033" lon="6.6371">
        <ele>1069</ele>
        <time>2024-05-26T14:47:44Z</time>
      </trkpt>
      <trkpt lat="43.73034" lon="6.63709">
        <ele>1069.1</ele>
        <time>2024-05-26T14:47:45Z</time>
      </trkpt>
      <trkpt lat="43.73034" lon="6.63707">
        <ele>1069.1</ele>
        <time>2024-05-26T14:47:46Z</time>
      </trkpt>
      <trkpt lat="43.73035" lon="6.63705">
        <ele>1069.2</ele>
        <time>2024-05-26T14:47:47Z</time>
      </trkpt>
      <trkpt lat="43.73035" lon="6.63703">
        <ele>1069.3</ele>
        <time>2024-05-26T14:47:48Z</time>
      </trkpt>
      <trkpt lat="43.73035" lon="6.63701">
        <ele>1069.4</ele>
        <time>2024-05-26T14:47:49Z</time>
      </trkpt>
      <trkpt lat="43.73035" lon="6.637">
        <ele>1069.4</ele>
        <time>2024-05-26T14:47:50Z</time>
      </trkpt>
      <trkpt lat="43.73035" lon="6.63698">
        <ele>1069.4</ele>
        <time>2024-05-26T14:47:51Z</time>
      </trkpt>
      <trkpt lat="43.73035" lon="6.63696">
        <ele>1069.5</ele>
        <time>2024-05-26T14:47:52Z</time>
      </trkpt>
      <trkpt lat="43.73035" lon="6.63694">
        <ele>1069.6</ele>
        <time>2024-05-26T14:47:53Z</time>
      </trkpt>
      <trkpt lat="43.73035" lon="6.63692">
        <ele>1069.6</ele>
        <time>2024-05-26T14:47:54Z</time>
      </trkpt>
      <trkpt lat="43.73035" lon="6.6369">
        <ele>1069.6</ele>
        <time>2024-05-26T14:47:55Z</time>
      </trkpt>
      <trkpt lat="43.73035" lon="6.63688">
        <ele>1069.6</ele>
        <time>2024-05-26T14:47:56Z</time>
      </trkpt>
      <trkpt lat="43.73035" lon="6.63686">
        <ele>1069.5</ele>
        <time>2024-05-26T14:47:57Z</time>
      </trkpt>
      <trkpt lat="43.73035" lon="6.63684">
        <ele>1069.5</ele>
        <time>2024-05-26T14:47:58Z</time>
      </trkpt>
      <trkpt lat="43.73035" lon="6.63682">
        <ele>1069.4</ele>
        <time>2024-05-26T14:47:59Z</time>
      </trkpt>
      <trkpt lat="43.73035" lon="6.6368">
        <ele>1069.4</ele>
        <time>2024-05-26T14:48:00Z</time>
      </trkpt>
      <trkpt lat="43.73035" lon="6.63678">
        <ele>1069.4</ele>
        <time>2024-05-26T14:48:01Z</time>
      </trkpt>
      <trkpt lat="43.73035" lon="6.63677">
        <ele>1069.5</ele>
        <time>2024-05-26T14:48:02Z</time>
      </trkpt>
      <trkpt lat="43.73034" lon="6.63676">
        <ele>1069.5</ele>
        <time>2024-05-26T14:48:03Z</time>
      </trkpt>
      <trkpt lat="43.73034" lon="6.63674">
        <ele>1069.7</ele>
        <time>2024-05-26T14:48:04Z</time>
      </trkpt>
      <trkpt lat="43.73034" lon="6.63672">
        <ele>1069.8</ele>
        <time>2024-05-26T14:48:05Z</time>
      </trkpt>
      <trkpt lat="43.73034" lon="6.63671">
        <ele>1069.9</ele>
        <time>2024-05-26T14:48:06Z</time>
      </trkpt>
      <trkpt lat="43.73034" lon="6.63669">
        <ele>1069.9</ele>
        <time>2024-05-26T14:48:07Z</time>
      </trkpt>
      <trkpt lat="43.73034" lon="6.63668">
        <ele>1070</ele>
        <time>2024-05-26T14:48:08Z</time>
      </trkpt>
      <trkpt lat="43.73034" lon="6.63667">
        <ele>1070</ele>
        <time>2024-05-26T14:48:09Z</time>
      </trkpt>
      <trkpt lat="43.73034" lon="6.63666">
        <ele>1070</ele>
        <time>2024-05-26T14:48:10Z</time>
      </trkpt>
      <trkpt lat="43.73034" lon="6.63664">
        <ele>1070.1</ele>
        <time>2024-05-26T14:48:11Z</time>
      </trkpt>
      <trkpt lat="43.73034" lon="6.63662">
        <ele>1070</ele>
        <time>2024-05-26T14:48:12Z</time>
      </trkpt>
      <trkpt lat="43.73035" lon="6.63661">
        <ele>1070</ele>
        <time>2024-05-26T14:48:13Z</time>
      </trkpt>
      <trkpt lat="43.73034" lon="6.63659">
        <ele>1070.1</ele>
        <time>2024-05-26T14:48:14Z</time>
      </trkpt>
      <trkpt lat="43.73035" lon="6.63657">
        <ele>1070.1</ele>
        <time>2024-05-26T14:48:15Z</time>
      </trkpt>
      <trkpt lat="43.73034" lon="6.63656">
        <ele>1070.2</ele>
        <time>2024-05-26T14:48:16Z</time>
      </trkpt>
      <trkpt lat="43.73034" lon="6.63654">
        <ele>1070.2</ele>
        <time>2024-05-26T14:48:17Z</time>
      </trkpt>
      <trkpt lat="43.73034" lon="6.63652">
        <ele>1070.3</ele>
        <time>2024-05-26T14:48:18Z</time>
      </trkpt>
      <trkpt lat="43.73034" lon="6.63651">
        <ele>1070.3</ele>
        <time>2024-05-26T14:48:19Z</time>
      </trkpt>
      <trkpt lat="43.73034" lon="6.6365">
        <ele>1070.4</ele>
        <time>2024-05-26T14:48:20Z</time>
      </trkpt>
      <trkpt lat="43.73034" lon="6.63648">
        <ele>1070.4</ele>
        <time>2024-05-26T14:48:21Z</time>
      </trkpt>
      <trkpt lat="43.73034" lon="6.63647">
        <ele>1070.5</ele>
        <time>2024-05-26T14:48:22Z</time>
      </trkpt>
      <trkpt lat="43.73034" lon="6.63645">
        <ele>1070.5</ele>
        <time>2024-05-26T14:48:23Z</time>
      </trkpt>
      <trkpt lat="43.73034" lon="6.63643">
        <ele>1070.6</ele>
        <time>2024-05-26T14:48:24Z</time>
      </trkpt>
      <trkpt lat="43.73034" lon="6.63641">
        <ele>1070.7</ele>
        <time>2024-05-26T14:48:25Z</time>
      </trkpt>
      <trkpt lat="43.73033" lon="6.63639">
        <ele>1070.8</ele>
        <time>2024-05-26T14:48:26Z</time>
      </trkpt>
      <trkpt lat="43.73033" lon="6.63638">
        <ele>1070.9</ele>
        <time>2024-05-26T14:48:27Z</time>
      </trkpt>
      <trkpt lat="43.73033" lon="6.63635">
        <ele>1071</ele>
        <time>2024-05-26T14:48:28Z</time>
      </trkpt>
      <trkpt lat="43.73032" lon="6.63634">
        <ele>1071</ele>
        <time>2024-05-26T14:48:29Z</time>
      </trkpt>
      <trkpt lat="43.73032" lon="6.63633">
        <ele>1071.1</ele>
        <time>2024-05-26T14:48:30Z</time>
      </trkpt>
      <trkpt lat="43.73032" lon="6.63631">
        <ele>1071.2</ele>
        <time>2024-05-26T14:48:31Z</time>
      </trkpt>
      <trkpt lat="43.73031" lon="6.63629">
        <ele>1071.2</ele>
        <time>2024-05-26T14:48:32Z</time>
      </trkpt>
      <trkpt lat="43.73032" lon="6.63627">
        <ele>1071.3</ele>
        <time>2024-05-26T14:48:33Z</time>
      </trkpt>
      <trkpt lat="43.73031" lon="6.63626">
        <ele>1071.3</ele>
        <time>2024-05-26T14:48:34Z</time>
      </trkpt>
      <trkpt lat="43.73031" lon="6.63624">
        <ele>1071.4</ele>
        <time>2024-05-26T14:48:35Z</time>
      </trkpt>
      <trkpt lat="43.73032" lon="6.63622">
        <ele>1071.3</ele>
        <time>2024-05-26T14:48:36Z</time>
      </trkpt>
      <trkpt lat="43.73032" lon="6.6362">
        <ele>1071.4</ele>
        <time>2024-05-26T14:48:37Z</time>
      </trkpt>
      <trkpt lat="43.73031" lon="6.63619">
        <ele>1071.4</ele>
        <time>2024-05-26T14:48:38Z</time>
      </trkpt>
      <trkpt lat="43.73031" lon="6.63617">
        <ele>1071.5</ele>
        <time>2024-05-26T14:48:39Z</time>
      </trkpt>
      <trkpt lat="43.73031" lon="6.63615">
        <ele>1071.5</ele>
        <time>2024-05-26T14:48:40Z</time>
      </trkpt>
      <trkpt lat="43.73031" lon="6.63613">
        <ele>1071.6</ele>
        <time>2024-05-26T14:48:41Z</time>
      </trkpt>
      <trkpt lat="43.73031" lon="6.63611">
        <ele>1071.7</ele>
        <time>2024-05-26T14:48:42Z</time>
      </trkpt>
      <trkpt lat="43.73031" lon="6.63609">
        <ele>1071.8</ele>
        <time>2024-05-26T14:48:43Z</time>
      </trkpt>
      <trkpt lat="43.73031" lon="6.63607">
        <ele>1071.8</ele>
        <time>2024-05-26T14:48:44Z</time>
      </trkpt>
      <trkpt lat="43.73031" lon="6.63605">
        <ele>1071.9</ele>
        <time>2024-05-26T14:48:45Z</time>
      </trkpt>
      <trkpt lat="43.73032" lon="6.63603">
        <ele>1072</ele>
        <time>2024-05-26T14:48:46Z</time>
      </trkpt>
      <trkpt lat="43.73032" lon="6.636">
        <ele>1072</ele>
        <time>2024-05-26T14:48:47Z</time>
      </trkpt>
      <trkpt lat="43.73032" lon="6.63599">
        <ele>1072.1</ele>
        <time>2024-05-26T14:48:48Z</time>
      </trkpt>
      <trkpt lat="43.73032" lon="6.63596">
        <ele>1072.1</ele>
        <time>2024-05-26T14:48:49Z</time>
      </trkpt>
      <trkpt lat="43.73032" lon="6.63594">
        <ele>1072.2</ele>
        <time>2024-05-26T14:48:50Z</time>
      </trkpt>
      <trkpt lat="43.73032" lon="6.63592">
        <ele>1072.3</ele>
        <time>2024-05-26T14:48:51Z</time>
      </trkpt>
      <trkpt lat="43.73032" lon="6.6359">
        <ele>1072.4</ele>
        <time>2024-05-26T14:48:52Z</time>
      </trkpt>
      <trkpt lat="43.73032" lon="6.63588">
        <ele>1072.5</ele>
        <time>2024-05-26T14:48:53Z</time>
      </trkpt>
      <trkpt lat="43.73032" lon="6.63586">
        <ele>1072.5</ele>
        <time>2024-05-26T14:48:54Z</time>
      </trkpt>
      <trkpt lat="43.73031" lon="6.63584">
        <ele>1072.6</ele>
        <time>2024-05-26T14:48:55Z</time>
      </trkpt>
      <trkpt lat="43.73031" lon="6.63583">
        <ele>1072.6</ele>
        <time>2024-05-26T14:48:56Z</time>
      </trkpt>
      <trkpt lat="43.73031" lon="6.6358">
        <ele>1072.7</ele>
        <time>2024-05-26T14:48:57Z</time>
      </trkpt>
      <trkpt lat="43.73031" lon="6.63579">
        <ele>1072.6</ele>
        <time>2024-05-26T14:48:58Z</time>
      </trkpt>
      <trkpt lat="43.73031" lon="6.63577">
        <ele>1072.6</ele>
        <time>2024-05-26T14:48:59Z</time>
      </trkpt>
      <trkpt lat="43.73031" lon="6.63575">
        <ele>1072.6</ele>
        <time>2024-05-26T14:49:00Z</time>
      </trkpt>
      <trkpt lat="43.7303" lon="6.63574">
        <ele>1072.7</ele>
        <time>2024-05-26T14:49:01Z</time>
      </trkpt>
      <trkpt lat="43.7303" lon="6.63573">
        <ele>1072.8</ele>
        <time>2024-05-26T14:49:02Z</time>
      </trkpt>
      <trkpt lat="43.7303" lon="6.63572">
        <ele>1072.9</ele>
        <time>2024-05-26T14:49:03Z</time>
      </trkpt>
      <trkpt lat="43.7303" lon="6.6357">
        <ele>1072.9</ele>
        <time>2024-05-26T14:49:04Z</time>
      </trkpt>
      <trkpt lat="43.7303" lon="6.63569">
        <ele>1073</ele>
        <time>2024-05-26T14:49:05Z</time>
      </trkpt>
      <trkpt lat="43.73029" lon="6.63568">
        <ele>1073.1</ele>
        <time>2024-05-26T14:49:06Z</time>
      </trkpt>
      <trkpt lat="43.73029" lon="6.63566">
        <ele>1073.1</ele>
        <time>2024-05-26T14:49:07Z</time>
      </trkpt>
      <trkpt lat="43.73029" lon="6.63565">
        <ele>1073.1</ele>
        <time>2024-05-26T14:49:08Z</time>
      </trkpt>
      <trkpt lat="43.7303" lon="6.63565">
        <ele>1073.2</ele>
        <time>2024-05-26T14:49:09Z</time>
      </trkpt>
      <trkpt lat="43.7303" lon="6.63565">
        <ele>1073.2</ele>
        <time>2024-05-26T14:49:10Z</time>
      </trkpt>
      <trkpt lat="43.73031" lon="6.63563">
        <ele>1073.3</ele>
        <time>2024-05-26T14:49:11Z</time>
      </trkpt>
      <trkpt lat="43.73031" lon="6.63562">
        <ele>1073.2</ele>
        <time>2024-05-26T14:49:12Z</time>
      </trkpt>
      <trkpt lat="43.73031" lon="6.63561">
        <ele>1073.2</ele>
        <time>2024-05-26T14:49:13Z</time>
      </trkpt>
      <trkpt lat="43.73032" lon="6.63559">
        <ele>1073.1</ele>
        <time>2024-05-26T14:49:14Z</time>
      </trkpt>
      <trkpt lat="43.73032" lon="6.63558">
        <ele>1073.1</ele>
        <time>2024-05-26T14:49:15Z</time>
      </trkpt>
      <trkpt lat="43.73032" lon="6.63556">
        <ele>1073.1</ele>
        <time>2024-05-26T14:49:16Z</time>
      </trkpt>
      <trkpt lat="43.73033" lon="6.63555">
        <ele>1073</ele>
        <time>2024-05-26T14:49:17Z</time>
      </trkpt>
      <trkpt lat="43.73034" lon="6.63554">
        <ele>1073</ele>
        <time>2024-05-26T14:49:18Z</time>
      </trkpt>
      <trkpt lat="43.73034" lon="6.63552">
        <ele>1072.9</ele>
        <time>2024-05-26T14:49:19Z</time>
      </trkpt>
      <trkpt lat="43.73035" lon="6.63551">
        <ele>1072.9</ele>
        <time>2024-05-26T14:49:20Z</time>
      </trkpt>
      <trkpt lat="43.73035" lon="6.6355">
        <ele>1072.9</ele>
        <time>2024-05-26T14:49:21Z</time>
      </trkpt>
      <trkpt lat="43.73036" lon="6.63549">
        <ele>1072.8</ele>
        <time>2024-05-26T14:49:22Z</time>
      </trkpt>
      <trkpt lat="43.73036" lon="6.63548">
        <ele>1072.8</ele>
        <time>2024-05-26T14:49:23Z</time>
      </trkpt>
      <trkpt lat="43.73037" lon="6.63548">
        <ele>1072.8</ele>
        <time>2024-05-26T14:49:24Z</time>
      </trkpt>
      <trkpt lat="43.73038" lon="6.63547">
        <ele>1072.8</ele>
        <time>2024-05-26T14:49:25Z</time>
      </trkpt>
      <trkpt lat="43.7304" lon="6.63546">
        <ele>1072.8</ele>
        <time>2024-05-26T14:49:26Z</time>
      </trkpt>
      <trkpt lat="43.73041" lon="6.63545">
        <ele>1072.7</ele>
        <time>2024-05-26T14:49:27Z</time>
      </trkpt>
      <trkpt lat="43.73042" lon="6.63543">
        <ele>1072.7</ele>
        <time>2024-05-26T14:49:28Z</time>
      </trkpt>
      <trkpt lat="43.73043" lon="6.63542">
        <ele>1072.6</ele>
        <time>2024-05-26T14:49:29Z</time>
      </trkpt>
      <trkpt lat="43.73043" lon="6.63541">
        <ele>1072.4</ele>
        <time>2024-05-26T14:49:30Z</time>
      </trkpt>
      <trkpt lat="43.73044" lon="6.63539">
        <ele>1072.3</ele>
        <time>2024-05-26T14:49:31Z</time>
      </trkpt>
      <trkpt lat="43.73044" lon="6.63537">
        <ele>1072.3</ele>
        <time>2024-05-26T14:49:32Z</time>
      </trkpt>
      <trkpt lat="43.73044" lon="6.63535">
        <ele>1072.2</ele>
        <time>2024-05-26T14:49:33Z</time>
      </trkpt>
      <trkpt lat="43.73045" lon="6.63534">
        <ele>1072.1</ele>
        <time>2024-05-26T14:49:34Z</time>
      </trkpt>
      <trkpt lat="43.73046" lon="6.63533">
        <ele>1072.2</ele>
        <time>2024-05-26T14:49:35Z</time>
      </trkpt>
      <trkpt lat="43.73046" lon="6.63532">
        <ele>1072.1</ele>
        <time>2024-05-26T14:49:36Z</time>
      </trkpt>
      <trkpt lat="43.73047" lon="6.63531">
        <ele>1071.9</ele>
        <time>2024-05-26T14:49:37Z</time>
      </trkpt>
      <trkpt lat="43.73048" lon="6.63529">
        <ele>1071.8</ele>
        <time>2024-05-26T14:49:38Z</time>
      </trkpt>
      <trkpt lat="43.73049" lon="6.63527">
        <ele>1071.8</ele>
        <time>2024-05-26T14:49:39Z</time>
      </trkpt>
      <trkpt lat="43.7305" lon="6.63526">
        <ele>1071.8</ele>
        <time>2024-05-26T14:49:40Z</time>
      </trkpt>
      <trkpt lat="43.73051" lon="6.63524">
        <ele>1071.9</ele>
        <time>2024-05-26T14:49:41Z</time>
      </trkpt>
      <trkpt lat="43.73051" lon="6.63522">
        <ele>1071.8</ele>
        <time>2024-05-26T14:49:42Z</time>
      </trkpt>
      <trkpt lat="43.73052" lon="6.63521">
        <ele>1071.8</ele>
        <time>2024-05-26T14:49:43Z</time>
      </trkpt>
      <trkpt lat="43.73053" lon="6.6352">
        <ele>1071.7</ele>
        <time>2024-05-26T14:49:44Z</time>
      </trkpt>
      <trkpt lat="43.73053" lon="6.63518">
        <ele>1071.7</ele>
        <time>2024-05-26T14:49:45Z</time>
      </trkpt>
      <trkpt lat="43.73054" lon="6.63517">
        <ele>1071.6</ele>
        <time>2024-05-26T14:49:46Z</time>
      </trkpt>
      <trkpt lat="43.73055" lon="6.63515">
        <ele>1071.5</ele>
        <time>2024-05-26T14:49:47Z</time>
      </trkpt>
      <trkpt lat="43.73056" lon="6.63514">
        <ele>1071.4</ele>
        <time>2024-05-26T14:49:48Z</time>
      </trkpt>
      <trkpt lat="43.73057" lon="6.63513">
        <ele>1071.4</ele>
        <time>2024-05-26T14:49:49Z</time>
      </trkpt>
      <trkpt lat="43.73057" lon="6.63512">
        <ele>1071.3</ele>
        <time>2024-05-26T14:49:50Z</time>
      </trkpt>
      <trkpt lat="43.73057" lon="6.6351">
        <ele>1071.2</ele>
        <time>2024-05-26T14:49:51Z</time>
      </trkpt>
      <trkpt lat="43.73058" lon="6.63508">
        <ele>1071.1</ele>
        <time>2024-05-26T14:49:52Z</time>
      </trkpt>
      <trkpt lat="43.73058" lon="6.63507">
        <ele>1071</ele>
        <time>2024-05-26T14:49:53Z</time>
      </trkpt>
      <trkpt lat="43.73059" lon="6.63506">
        <ele>1070.8</ele>
        <time>2024-05-26T14:49:54Z</time>
      </trkpt>
      <trkpt lat="43.7306" lon="6.63505">
        <ele>1070.7</ele>
        <time>2024-05-26T14:49:55Z</time>
      </trkpt>
      <trkpt lat="43.7306" lon="6.63503">
        <ele>1070.6</ele>
        <time>2024-05-26T14:49:56Z</time>
      </trkpt>
      <trkpt lat="43.73061" lon="6.63502">
        <ele>1070.5</ele>
        <time>2024-05-26T14:49:57Z</time>
      </trkpt>
      <trkpt lat="43.73061" lon="6.635">
        <ele>1070.4</ele>
        <time>2024-05-26T14:49:58Z</time>
      </trkpt>
      <trkpt lat="43.73062" lon="6.63499">
        <ele>1070.3</ele>
        <time>2024-05-26T14:49:59Z</time>
      </trkpt>
      <trkpt lat="43.73063" lon="6.63498">
        <ele>1070.1</ele>
        <time>2024-05-26T14:50:00Z</time>
      </trkpt>
      <trkpt lat="43.73063" lon="6.63496">
        <ele>1070</ele>
        <time>2024-05-26T14:50:01Z</time>
      </trkpt>
      <trkpt lat="43.73064" lon="6.63495">
        <ele>1069.8</ele>
        <time>2024-05-26T14:50:02Z</time>
      </trkpt>
      <trkpt lat="43.73064" lon="6.63494">
        <ele>1069.7</ele>
        <time>2024-05-26T14:50:03Z</time>
      </trkpt>
      <trkpt lat="43.73065" lon="6.63493">
        <ele>1069.7</ele>
        <time>2024-05-26T14:50:04Z</time>
      </trkpt>
      <trkpt lat="43.73066" lon="6.63492">
        <ele>1069.6</ele>
        <time>2024-05-26T14:50:05Z</time>
      </trkpt>
      <trkpt lat="43.73066" lon="6.63491">
        <ele>1069.6</ele>
        <time>2024-05-26T14:50:06Z</time>
      </trkpt>
      <trkpt lat="43.73067" lon="6.6349">
        <ele>1069.5</ele>
        <time>2024-05-26T14:50:07Z</time>
      </trkpt>
      <trkpt lat="43.73068" lon="6.63488">
        <ele>1069.5</ele>
        <time>2024-05-26T14:50:08Z</time>
      </trkpt>
      <trkpt lat="43.73069" lon="6.63487">
        <ele>1069.4</ele>
        <time>2024-05-26T14:50:09Z</time>
      </trkpt>
      <trkpt lat="43.7307" lon="6.63485">
        <ele>1069.4</ele>
        <time>2024-05-26T14:50:10Z</time>
      </trkpt>
      <trkpt lat="43.73071" lon="6.63484">
        <ele>1069.3</ele>
        <time>2024-05-26T14:50:11Z</time>
      </trkpt>
      <trkpt lat="43.73072" lon="6.63482">
        <ele>1069.3</ele>
        <time>2024-05-26T14:50:12Z</time>
      </trkpt>
      <trkpt lat="43.73073" lon="6.6348">
        <ele>1069.2</ele>
        <time>2024-05-26T14:50:13Z</time>
      </trkpt>
      <trkpt lat="43.73073" lon="6.63478">
        <ele>1069.2</ele>
        <time>2024-05-26T14:50:14Z</time>
      </trkpt>
      <trkpt lat="43.73074" lon="6.63477">
        <ele>1069</ele>
        <time>2024-05-26T14:50:15Z</time>
      </trkpt>
      <trkpt lat="43.73075" lon="6.63475">
        <ele>1068.9</ele>
        <time>2024-05-26T14:50:16Z</time>
      </trkpt>
      <trkpt lat="43.73076" lon="6.63473">
        <ele>1068.9</ele>
        <time>2024-05-26T14:50:17Z</time>
      </trkpt>
      <trkpt lat="43.73077" lon="6.63472">
        <ele>1068.8</ele>
        <time>2024-05-26T14:50:18Z</time>
      </trkpt>
      <trkpt lat="43.73078" lon="6.63471">
        <ele>1068.7</ele>
        <time>2024-05-26T14:50:19Z</time>
      </trkpt>
      <trkpt lat="43.73079" lon="6.6347">
        <ele>1068.6</ele>
        <time>2024-05-26T14:50:20Z</time>
      </trkpt>
      <trkpt lat="43.7308" lon="6.63469">
        <ele>1068.6</ele>
        <time>2024-05-26T14:50:21Z</time>
      </trkpt>
      <trkpt lat="43.73081" lon="6.63467">
        <ele>1068.6</ele>
        <time>2024-05-26T14:50:22Z</time>
      </trkpt>
      <trkpt lat="43.73081" lon="6.63466">
        <ele>1068.5</ele>
        <time>2024-05-26T14:50:23Z</time>
      </trkpt>
      <trkpt lat="43.73082" lon="6.63464">
        <ele>1068.4</ele>
        <time>2024-05-26T14:50:24Z</time>
      </trkpt>
      <trkpt lat="43.73083" lon="6.63462">
        <ele>1068.3</ele>
        <time>2024-05-26T14:50:25Z</time>
      </trkpt>
      <trkpt lat="43.73084" lon="6.63461">
        <ele>1068.2</ele>
        <time>2024-05-26T14:50:26Z</time>
      </trkpt>
      <trkpt lat="43.73084" lon="6.6346">
        <ele>1068.2</ele>
        <time>2024-05-26T14:50:27Z</time>
      </trkpt>
      <trkpt lat="43.73085" lon="6.63458">
        <ele>1068.1</ele>
        <time>2024-05-26T14:50:28Z</time>
      </trkpt>
      <trkpt lat="43.73086" lon="6.63456">
        <ele>1068</ele>
        <time>2024-05-26T14:50:29Z</time>
      </trkpt>
      <trkpt lat="43.73086" lon="6.63455">
        <ele>1067.9</ele>
        <time>2024-05-26T14:50:30Z</time>
      </trkpt>
      <trkpt lat="43.73087" lon="6.63453">
        <ele>1067.9</ele>
        <time>2024-05-26T14:50:31Z</time>
      </trkpt>
      <trkpt lat="43.73088" lon="6.63452">
        <ele>1067.9</ele>
        <time>2024-05-26T14:50:32Z</time>
      </trkpt>
      <trkpt lat="43.73088" lon="6.6345">
        <ele>1067.8</ele>
        <time>2024-05-26T14:50:33Z</time>
      </trkpt>
      <trkpt lat="43.73089" lon="6.63449">
        <ele>1067.7</ele>
        <time>2024-05-26T14:50:34Z</time>
      </trkpt>
      <trkpt lat="43.73089" lon="6.63447">
        <ele>1067.7</ele>
        <time>2024-05-26T14:50:35Z</time>
      </trkpt>
      <trkpt lat="43.7309" lon="6.63445">
        <ele>1067.6</ele>
        <time>2024-05-26T14:50:36Z</time>
      </trkpt>
      <trkpt lat="43.73091" lon="6.63444">
        <ele>1067.5</ele>
        <time>2024-05-26T14:50:37Z</time>
      </trkpt>
      <trkpt lat="43.73092" lon="6.63442">
        <ele>1067.4</ele>
        <time>2024-05-26T14:50:38Z</time>
      </trkpt>
      <trkpt lat="43.73093" lon="6.6344">
        <ele>1067.4</ele>
        <time>2024-05-26T14:50:39Z</time>
      </trkpt>
      <trkpt lat="43.73093" lon="6.63438">
        <ele>1067.3</ele>
        <time>2024-05-26T14:50:40Z</time>
      </trkpt>
      <trkpt lat="43.73094" lon="6.63437">
        <ele>1067.3</ele>
        <time>2024-05-26T14:50:41Z</time>
      </trkpt>
      <trkpt lat="43.73094" lon="6.63435">
        <ele>1067.2</ele>
        <time>2024-05-26T14:50:42Z</time>
      </trkpt>
      <trkpt lat="43.73095" lon="6.63433">
        <ele>1067</ele>
        <time>2024-05-26T14:50:43Z</time>
      </trkpt>
      <trkpt lat="43.73095" lon="6.63432">
        <ele>1066.8</ele>
        <time>2024-05-26T14:50:44Z</time>
      </trkpt>
      <trkpt lat="43.73096" lon="6.6343">
        <ele>1066.7</ele>
        <time>2024-05-26T14:50:45Z</time>
      </trkpt>
      <trkpt lat="43.73096" lon="6.63428">
        <ele>1066.6</ele>
        <time>2024-05-26T14:50:46Z</time>
      </trkpt>
      <trkpt lat="43.73097" lon="6.63427">
        <ele>1066.5</ele>
        <time>2024-05-26T14:50:47Z</time>
      </trkpt>
      <trkpt lat="43.73097" lon="6.63424">
        <ele>1066.4</ele>
        <time>2024-05-26T14:50:48Z</time>
      </trkpt>
      <trkpt lat="43.73097" lon="6.63422">
        <ele>1066.4</ele>
        <time>2024-05-26T14:50:49Z</time>
      </trkpt>
      <trkpt lat="43.73097" lon="6.6342">
        <ele>1066.2</ele>
        <time>2024-05-26T14:50:50Z</time>
      </trkpt>
      <trkpt lat="43.73097" lon="6.63419">
        <ele>1066.1</ele>
        <time>2024-05-26T14:50:51Z</time>
      </trkpt>
      <trkpt lat="43.73097" lon="6.63417">
        <ele>1066</ele>
        <time>2024-05-26T14:50:52Z</time>
      </trkpt>
      <trkpt lat="43.73098" lon="6.63415">
        <ele>1065.9</ele>
        <time>2024-05-26T14:50:53Z</time>
      </trkpt>
      <trkpt lat="43.73098" lon="6.63413">
        <ele>1065.8</ele>
        <time>2024-05-26T14:50:54Z</time>
      </trkpt>
      <trkpt lat="43.73098" lon="6.63412">
        <ele>1065.6</ele>
        <time>2024-05-26T14:50:55Z</time>
      </trkpt>
      <trkpt lat="43.73099" lon="6.6341">
        <ele>1065.5</ele>
        <time>2024-05-26T14:50:56Z</time>
      </trkpt>
      <trkpt lat="43.73099" lon="6.63409">
        <ele>1065.5</ele>
        <time>2024-05-26T14:50:57Z</time>
      </trkpt>
      <trkpt lat="43.73099" lon="6.63407">
        <ele>1065.2</ele>
        <time>2024-05-26T14:50:58Z</time>
      </trkpt>
      <trkpt lat="43.731" lon="6.63405">
        <ele>1065.1</ele>
        <time>2024-05-26T14:50:59Z</time>
      </trkpt>
      <trkpt lat="43.731" lon="6.63403">
        <ele>1064.9</ele>
        <time>2024-05-26T14:51:00Z</time>
      </trkpt>
      <trkpt lat="43.73101" lon="6.63401">
        <ele>1064.8</ele>
        <time>2024-05-26T14:51:01Z</time>
      </trkpt>
      <trkpt lat="43.73101" lon="6.63399">
        <ele>1064.6</ele>
        <time>2024-05-26T14:51:02Z</time>
      </trkpt>
      <trkpt lat="43.73101" lon="6.63398">
        <ele>1064.5</ele>
        <time>2024-05-26T14:51:03Z</time>
      </trkpt>
      <trkpt lat="43.73102" lon="6.63396">
        <ele>1064.4</ele>
        <time>2024-05-26T14:51:04Z</time>
      </trkpt>
      <trkpt lat="43.73102" lon="6.63394">
        <ele>1064.2</ele>
        <time>2024-05-26T14:51:05Z</time>
      </trkpt>
      <trkpt lat="43.73102" lon="6.63392">
        <ele>1064.1</ele>
        <time>2024-05-26T14:51:06Z</time>
      </trkpt>
      <trkpt lat="43.73102" lon="6.63391">
        <ele>1063.9</ele>
        <time>2024-05-26T14:51:07Z</time>
      </trkpt>
      <trkpt lat="43.73103" lon="6.6339">
        <ele>1063.8</ele>
        <time>2024-05-26T14:51:08Z</time>
      </trkpt>
      <trkpt lat="43.73103" lon="6.63388">
        <ele>1063.6</ele>
        <time>2024-05-26T14:51:09Z</time>
      </trkpt>
      <trkpt lat="43.73103" lon="6.63386">
        <ele>1063.5</ele>
        <time>2024-05-26T14:51:10Z</time>
      </trkpt>
      <trkpt lat="43.73103" lon="6.63384">
        <ele>1063.3</ele>
        <time>2024-05-26T14:51:11Z</time>
      </trkpt>
      <trkpt lat="43.73103" lon="6.63383">
        <ele>1063.1</ele>
        <time>2024-05-26T14:51:12Z</time>
      </trkpt>
      <trkpt lat="43.73103" lon="6.63381">
        <ele>1063</ele>
        <time>2024-05-26T14:51:13Z</time>
      </trkpt>
      <trkpt lat="43.73103" lon="6.6338">
        <ele>1062.9</ele>
        <time>2024-05-26T14:51:14Z</time>
      </trkpt>
      <trkpt lat="43.73103" lon="6.63378">
        <ele>1062.7</ele>
        <time>2024-05-26T14:51:15Z</time>
      </trkpt>
      <trkpt lat="43.73103" lon="6.63376">
        <ele>1062.5</ele>
        <time>2024-05-26T14:51:16Z</time>
      </trkpt>
      <trkpt lat="43.73104" lon="6.63375">
        <ele>1062.5</ele>
        <time>2024-05-26T14:51:17Z</time>
      </trkpt>
      <trkpt lat="43.73105" lon="6.63373">
        <ele>1062.3</ele>
        <time>2024-05-26T14:51:18Z</time>
      </trkpt>
      <trkpt lat="43.73105" lon="6.63371">
        <ele>1062.2</ele>
        <time>2024-05-26T14:51:19Z</time>
      </trkpt>
      <trkpt lat="43.73106" lon="6.63369">
        <ele>1062.1</ele>
        <time>2024-05-26T14:51:20Z</time>
      </trkpt>
      <trkpt lat="43.73106" lon="6.63368">
        <ele>1062</ele>
        <time>2024-05-26T14:51:21Z</time>
      </trkpt>
      <trkpt lat="43.73107" lon="6.63366">
        <ele>1061.8</ele>
        <time>2024-05-26T14:51:22Z</time>
      </trkpt>
      <trkpt lat="43.73107" lon="6.63364">
        <ele>1061.6</ele>
        <time>2024-05-26T14:51:23Z</time>
      </trkpt>
      <trkpt lat="43.73108" lon="6.63361">
        <ele>1061.4</ele>
        <time>2024-05-26T14:51:24Z</time>
      </trkpt>
      <trkpt lat="43.73108" lon="6.6336">
        <ele>1061.4</ele>
        <time>2024-05-26T14:51:25Z</time>
      </trkpt>
      <trkpt lat="43.73108" lon="6.63358">
        <ele>1061.3</ele>
        <time>2024-05-26T14:51:26Z</time>
      </trkpt>
      <trkpt lat="43.73108" lon="6.63357">
        <ele>1061.2</ele>
        <time>2024-05-26T14:51:27Z</time>
      </trkpt>
      <trkpt lat="43.73108" lon="6.63355">
        <ele>1061.2</ele>
        <time>2024-05-26T14:51:28Z</time>
      </trkpt>
      <trkpt lat="43.73107" lon="6.63352">
        <ele>1061.1</ele>
        <time>2024-05-26T14:51:29Z</time>
      </trkpt>
      <trkpt lat="43.73107" lon="6.63349">
        <ele>1061</ele>
        <time>2024-05-26T14:51:30Z</time>
      </trkpt>
      <trkpt lat="43.73108" lon="6.63348">
        <ele>1060.8</ele>
        <time>2024-05-26T14:51:31Z</time>
      </trkpt>
      <trkpt lat="43.73108" lon="6.63347">
        <ele>1060.7</ele>
        <time>2024-05-26T14:51:32Z</time>
      </trkpt>
      <trkpt lat="43.73109" lon="6.63346">
        <ele>1060.6</ele>
        <time>2024-05-26T14:51:33Z</time>
      </trkpt>
      <trkpt lat="43.7311" lon="6.63344">
        <ele>1060.6</ele>
        <time>2024-05-26T14:51:34Z</time>
      </trkpt>
      <trkpt lat="43.7311" lon="6.63343">
        <ele>1060.5</ele>
        <time>2024-05-26T14:51:35Z</time>
      </trkpt>
      <trkpt lat="43.7311" lon="6.63341">
        <ele>1060.4</ele>
        <time>2024-05-26T14:51:36Z</time>
      </trkpt>
      <trkpt lat="43.7311" lon="6.63339">
        <ele>1060.2</ele>
        <time>2024-05-26T14:51:37Z</time>
      </trkpt>
      <trkpt lat="43.7311" lon="6.63338">
        <ele>1060.2</ele>
        <time>2024-05-26T14:51:38Z</time>
      </trkpt>
      <trkpt lat="43.73111" lon="6.63336">
        <ele>1060.1</ele>
        <time>2024-05-26T14:51:39Z</time>
      </trkpt>
      <trkpt lat="43.73112" lon="6.63333">
        <ele>1060</ele>
        <time>2024-05-26T14:51:40Z</time>
      </trkpt>
      <trkpt lat="43.73112" lon="6.63331">
        <ele>1059.9</ele>
        <time>2024-05-26T14:51:41Z</time>
      </trkpt>
      <trkpt lat="43.73113" lon="6.6333">
        <ele>1059.9</ele>
        <time>2024-05-26T14:51:42Z</time>
      </trkpt>
      <trkpt lat="43.73114" lon="6.63328">
        <ele>1059.8</ele>
        <time>2024-05-26T14:51:43Z</time>
      </trkpt>
      <trkpt lat="43.73114" lon="6.63326">
        <ele>1059.7</ele>
        <time>2024-05-26T14:51:44Z</time>
      </trkpt>
      <trkpt lat="43.73115" lon="6.63325">
        <ele>1059.6</ele>
        <time>2024-05-26T14:51:45Z</time>
      </trkpt>
      <trkpt lat="43.73116" lon="6.63323">
        <ele>1059.6</ele>
        <time>2024-05-26T14:51:46Z</time>
      </trkpt>
      <trkpt lat="43.73116" lon="6.63321">
        <ele>1059.5</ele>
        <time>2024-05-26T14:51:47Z</time>
      </trkpt>
      <trkpt lat="43.73117" lon="6.6332">
        <ele>1059.4</ele>
        <time>2024-05-26T14:51:48Z</time>
      </trkpt>
      <trkpt lat="43.73117" lon="6.63319">
        <ele>1059.4</ele>
        <time>2024-05-26T14:51:49Z</time>
      </trkpt>
      <trkpt lat="43.73118" lon="6.63317">
        <ele>1059.4</ele>
        <time>2024-05-26T14:51:50Z</time>
      </trkpt>
      <trkpt lat="43.73118" lon="6.63316">
        <ele>1059.3</ele>
        <time>2024-05-26T14:51:51Z</time>
      </trkpt>
      <trkpt lat="43.73118" lon="6.63314">
        <ele>1059.4</ele>
        <time>2024-05-26T14:51:52Z</time>
      </trkpt>
      <trkpt lat="43.73119" lon="6.63313">
        <ele>1059.4</ele>
        <time>2024-05-26T14:51:53Z</time>
      </trkpt>
      <trkpt lat="43.73119" lon="6.63311">
        <ele>1059.4</ele>
        <time>2024-05-26T14:51:54Z</time>
      </trkpt>
      <trkpt lat="43.73119" lon="6.6331">
        <ele>1059.4</ele>
        <time>2024-05-26T14:51:55Z</time>
      </trkpt>
      <trkpt lat="43.73119" lon="6.63309">
        <ele>1059.3</ele>
        <time>2024-05-26T14:51:56Z</time>
      </trkpt>
      <trkpt lat="43.73119" lon="6.63307">
        <ele>1059.3</ele>
        <time>2024-05-26T14:51:57Z</time>
      </trkpt>
      <trkpt lat="43.73119" lon="6.63305">
        <ele>1059.2</ele>
        <time>2024-05-26T14:51:58Z</time>
      </trkpt>
      <trkpt lat="43.73119" lon="6.63304">
        <ele>1059.1</ele>
        <time>2024-05-26T14:51:59Z</time>
      </trkpt>
      <trkpt lat="43.73119" lon="6.63301">
        <ele>1059</ele>
        <time>2024-05-26T14:52:00Z</time>
      </trkpt>
      <trkpt lat="43.73119" lon="6.633">
        <ele>1058.9</ele>
        <time>2024-05-26T14:52:01Z</time>
      </trkpt>
      <trkpt lat="43.7312" lon="6.63298">
        <ele>1058.9</ele>
        <time>2024-05-26T14:52:02Z</time>
      </trkpt>
      <trkpt lat="43.7312" lon="6.63297">
        <ele>1058.8</ele>
        <time>2024-05-26T14:52:03Z</time>
      </trkpt>
      <trkpt lat="43.73121" lon="6.63295">
        <ele>1058.8</ele>
        <time>2024-05-26T14:52:04Z</time>
      </trkpt>
      <trkpt lat="43.73121" lon="6.63293">
        <ele>1058.8</ele>
        <time>2024-05-26T14:52:05Z</time>
      </trkpt>
      <trkpt lat="43.73121" lon="6.63291">
        <ele>1058.8</ele>
        <time>2024-05-26T14:52:06Z</time>
      </trkpt>
      <trkpt lat="43.73122" lon="6.63288">
        <ele>1058.8</ele>
        <time>2024-05-26T14:52:07Z</time>
      </trkpt>
      <trkpt lat="43.73122" lon="6.63286">
        <ele>1058.8</ele>
        <time>2024-05-26T14:52:08Z</time>
      </trkpt>
      <trkpt lat="43.73122" lon="6.63283">
        <ele>1058.8</ele>
        <time>2024-05-26T14:52:09Z</time>
      </trkpt>
      <trkpt lat="43.73121" lon="6.63281">
        <ele>1058.8</ele>
        <time>2024-05-26T14:52:10Z</time>
      </trkpt>
      <trkpt lat="43.73121" lon="6.63279">
        <ele>1058.8</ele>
        <time>2024-05-26T14:52:11Z</time>
      </trkpt>
      <trkpt lat="43.73122" lon="6.63277">
        <ele>1058.7</ele>
        <time>2024-05-26T14:52:12Z</time>
      </trkpt>
      <trkpt lat="43.73121" lon="6.63275">
        <ele>1058.7</ele>
        <time>2024-05-26T14:52:13Z</time>
      </trkpt>
      <trkpt lat="43.73121" lon="6.63273">
        <ele>1058.6</ele>
        <time>2024-05-26T14:52:14Z</time>
      </trkpt>
      <trkpt lat="43.73121" lon="6.63272">
        <ele>1058.6</ele>
        <time>2024-05-26T14:52:15Z</time>
      </trkpt>
      <trkpt lat="43.73121" lon="6.6327">
        <ele>1058.5</ele>
        <time>2024-05-26T14:52:16Z</time>
      </trkpt>
      <trkpt lat="43.73121" lon="6.63268">
        <ele>1058.5</ele>
        <time>2024-05-26T14:52:17Z</time>
      </trkpt>
      <trkpt lat="43.73121" lon="6.63266">
        <ele>1058.4</ele>
        <time>2024-05-26T14:52:18Z</time>
      </trkpt>
      <trkpt lat="43.73121" lon="6.63264">
        <ele>1058.4</ele>
        <time>2024-05-26T14:52:19Z</time>
      </trkpt>
      <trkpt lat="43.73121" lon="6.63261">
        <ele>1058.4</ele>
        <time>2024-05-26T14:52:20Z</time>
      </trkpt>
      <trkpt lat="43.73122" lon="6.6326">
        <ele>1058.4</ele>
        <time>2024-05-26T14:52:21Z</time>
      </trkpt>
      <trkpt lat="43.73122" lon="6.63258">
        <ele>1058.3</ele>
        <time>2024-05-26T14:52:22Z</time>
      </trkpt>
      <trkpt lat="43.73122" lon="6.63257">
        <ele>1058.2</ele>
        <time>2024-05-26T14:52:23Z</time>
      </trkpt>
      <trkpt lat="43.73123" lon="6.63255">
        <ele>1058.1</ele>
        <time>2024-05-26T14:52:24Z</time>
      </trkpt>
      <trkpt lat="43.73123" lon="6.63253">
        <ele>1058.1</ele>
        <time>2024-05-26T14:52:25Z</time>
      </trkpt>
      <trkpt lat="43.73123" lon="6.63252">
        <ele>1058.2</ele>
        <time>2024-05-26T14:52:26Z</time>
      </trkpt>
      <trkpt lat="43.73124" lon="6.63249">
        <ele>1058.1</ele>
        <time>2024-05-26T14:52:27Z</time>
      </trkpt>
      <trkpt lat="43.73124" lon="6.63247">
        <ele>1058.1</ele>
        <time>2024-05-26T14:52:28Z</time>
      </trkpt>
      <trkpt lat="43.73124" lon="6.63245">
        <ele>1058.1</ele>
        <time>2024-05-26T14:52:29Z</time>
      </trkpt>
      <trkpt lat="43.73124" lon="6.63244">
        <ele>1058</ele>
        <time>2024-05-26T14:52:30Z</time>
      </trkpt>
      <trkpt lat="43.73124" lon="6.63242">
        <ele>1058</ele>
        <time>2024-05-26T14:52:31Z</time>
      </trkpt>
      <trkpt lat="43.73124" lon="6.63241">
        <ele>1058</ele>
        <time>2024-05-26T14:52:32Z</time>
      </trkpt>
      <trkpt lat="43.73125" lon="6.63239">
        <ele>1058.1</ele>
        <time>2024-05-26T14:52:33Z</time>
      </trkpt>
      <trkpt lat="43.73125" lon="6.63237">
        <ele>1058</ele>
        <time>2024-05-26T14:52:34Z</time>
      </trkpt>
      <trkpt lat="43.73125" lon="6.63235">
        <ele>1058</ele>
        <time>2024-05-26T14:52:35Z</time>
      </trkpt>
      <trkpt lat="43.73125" lon="6.63234">
        <ele>1058</ele>
        <time>2024-05-26T14:52:36Z</time>
      </trkpt>
      <trkpt lat="43.73125" lon="6.63232">
        <ele>1058</ele>
        <time>2024-05-26T14:52:37Z</time>
      </trkpt>
      <trkpt lat="43.73125" lon="6.63231">
        <ele>1058</ele>
        <time>2024-05-26T14:52:38Z</time>
      </trkpt>
      <trkpt lat="43.73125" lon="6.63229">
        <ele>1057.9</ele>
        <time>2024-05-26T14:52:39Z</time>
      </trkpt>
      <trkpt lat="43.73125" lon="6.63228">
        <ele>1057.9</ele>
        <time>2024-05-26T14:52:40Z</time>
      </trkpt>
      <trkpt lat="43.73125" lon="6.63226">
        <ele>1057.9</ele>
        <time>2024-05-26T14:52:41Z</time>
      </trkpt>
      <trkpt lat="43.73125" lon="6.63224">
        <ele>1058</ele>
        <time>2024-05-26T14:52:42Z</time>
      </trkpt>
      <trkpt lat="43.73125" lon="6.63222">
        <ele>1058</ele>
        <time>2024-05-26T14:52:43Z</time>
      </trkpt>
      <trkpt lat="43.73126" lon="6.6322">
        <ele>1058</ele>
        <time>2024-05-26T14:52:44Z</time>
      </trkpt>
      <trkpt lat="43.73126" lon="6.63218">
        <ele>1057.9</ele>
        <time>2024-05-26T14:52:45Z</time>
      </trkpt>
      <trkpt lat="43.73126" lon="6.63216">
        <ele>1057.9</ele>
        <time>2024-05-26T14:52:46Z</time>
      </trkpt>
      <trkpt lat="43.73126" lon="6.63215">
        <ele>1057.9</ele>
        <time>2024-05-26T14:52:47Z</time>
      </trkpt>
      <trkpt lat="43.73126" lon="6.63213">
        <ele>1057.9</ele>
        <time>2024-05-26T14:52:48Z</time>
      </trkpt>
      <trkpt lat="43.73127" lon="6.63211">
        <ele>1057.8</ele>
        <time>2024-05-26T14:52:49Z</time>
      </trkpt>
      <trkpt lat="43.73127" lon="6.63209">
        <ele>1057.9</ele>
        <time>2024-05-26T14:52:50Z</time>
      </trkpt>
      <trkpt lat="43.73127" lon="6.63207">
        <ele>1057.9</ele>
        <time>2024-05-26T14:52:51Z</time>
      </trkpt>
      <trkpt lat="43.73127" lon="6.63206">
        <ele>1058</ele>
        <time>2024-05-26T14:52:52Z</time>
      </trkpt>
      <trkpt lat="43.73128" lon="6.63204">
        <ele>1058</ele>
        <time>2024-05-26T14:52:53Z</time>
      </trkpt>
      <trkpt lat="43.73128" lon="6.63203">
        <ele>1058</ele>
        <time>2024-05-26T14:52:54Z</time>
      </trkpt>
      <trkpt lat="43.73128" lon="6.63201">
        <ele>1057.9</ele>
        <time>2024-05-26T14:52:55Z</time>
      </trkpt>
      <trkpt lat="43.73128" lon="6.63199">
        <ele>1057.9</ele>
        <time>2024-05-26T14:52:56Z</time>
      </trkpt>
      <trkpt lat="43.73129" lon="6.63197">
        <ele>1057.8</ele>
        <time>2024-05-26T14:52:57Z</time>
      </trkpt>
      <trkpt lat="43.73128" lon="6.63195">
        <ele>1057.8</ele>
        <time>2024-05-26T14:52:58Z</time>
      </trkpt>
      <trkpt lat="43.73128" lon="6.63193">
        <ele>1057.7</ele>
        <time>2024-05-26T14:52:59Z</time>
      </trkpt>
      <trkpt lat="43.73129" lon="6.63191">
        <ele>1057.6</ele>
        <time>2024-05-26T14:53:00Z</time>
      </trkpt>
      <trkpt lat="43.73129" lon="6.6319">
        <ele>1057.5</ele>
        <time>2024-05-26T14:53:01Z</time>
      </trkpt>
      <trkpt lat="43.73129" lon="6.63188">
        <ele>1057.4</ele>
        <time>2024-05-26T14:53:02Z</time>
      </trkpt>
      <trkpt lat="43.73129" lon="6.63186">
        <ele>1057.3</ele>
        <time>2024-05-26T14:53:03Z</time>
      </trkpt>
      <trkpt lat="43.73129" lon="6.63184">
        <ele>1057.3</ele>
        <time>2024-05-26T14:53:04Z</time>
      </trkpt>
      <trkpt lat="43.7313" lon="6.63182">
        <ele>1057.2</ele>
        <time>2024-05-26T14:53:05Z</time>
      </trkpt>
      <trkpt lat="43.7313" lon="6.6318">
        <ele>1057.2</ele>
        <time>2024-05-26T14:53:06Z</time>
      </trkpt>
      <trkpt lat="43.7313" lon="6.63178">
        <ele>1057.1</ele>
        <time>2024-05-26T14:53:07Z</time>
      </trkpt>
      <trkpt lat="43.7313" lon="6.63177">
        <ele>1057</ele>
        <time>2024-05-26T14:53:08Z</time>
      </trkpt>
      <trkpt lat="43.7313" lon="6.63175">
        <ele>1057</ele>
        <time>2024-05-26T14:53:09Z</time>
      </trkpt>
      <trkpt lat="43.7313" lon="6.63174">
        <ele>1056.8</ele>
        <time>2024-05-26T14:53:10Z</time>
      </trkpt>
      <trkpt lat="43.7313" lon="6.63172">
        <ele>1056.7</ele>
        <time>2024-05-26T14:53:11Z</time>
      </trkpt>
      <trkpt lat="43.7313" lon="6.63171">
        <ele>1056.6</ele>
        <time>2024-05-26T14:53:12Z</time>
      </trkpt>
      <trkpt lat="43.7313" lon="6.63169">
        <ele>1056.6</ele>
        <time>2024-05-26T14:53:13Z</time>
      </trkpt>
      <trkpt lat="43.7313" lon="6.63167">
        <ele>1056.5</ele>
        <time>2024-05-26T14:53:14Z</time>
      </trkpt>
      <trkpt lat="43.73131" lon="6.63165">
        <ele>1056.5</ele>
        <time>2024-05-26T14:53:15Z</time>
      </trkpt>
      <trkpt lat="43.73131" lon="6.63163">
        <ele>1056.5</ele>
        <time>2024-05-26T14:53:16Z</time>
      </trkpt>
      <trkpt lat="43.73131" lon="6.63162">
        <ele>1056.4</ele>
        <time>2024-05-26T14:53:17Z</time>
      </trkpt>
      <trkpt lat="43.73132" lon="6.6316">
        <ele>1056.2</ele>
        <time>2024-05-26T14:53:18Z</time>
      </trkpt>
      <trkpt lat="43.73132" lon="6.63159">
        <ele>1056</ele>
        <time>2024-05-26T14:53:19Z</time>
      </trkpt>
      <trkpt lat="43.73132" lon="6.63157">
        <ele>1056</ele>
        <time>2024-05-26T14:53:20Z</time>
      </trkpt>
      <trkpt lat="43.73133" lon="6.63155">
        <ele>1055.9</ele>
        <time>2024-05-26T14:53:21Z</time>
      </trkpt>
      <trkpt lat="43.73133" lon="6.63153">
        <ele>1055.9</ele>
        <time>2024-05-26T14:53:22Z</time>
      </trkpt>
      <trkpt lat="43.73133" lon="6.63152">
        <ele>1055.7</ele>
        <time>2024-05-26T14:53:23Z</time>
      </trkpt>
      <trkpt lat="43.73133" lon="6.6315">
        <ele>1055.5</ele>
        <time>2024-05-26T14:53:24Z</time>
      </trkpt>
      <trkpt lat="43.73134" lon="6.63149">
        <ele>1055.5</ele>
        <time>2024-05-26T14:53:25Z</time>
      </trkpt>
      <trkpt lat="43.73134" lon="6.63147">
        <ele>1055.5</ele>
        <time>2024-05-26T14:53:26Z</time>
      </trkpt>
      <trkpt lat="43.73135" lon="6.63146">
        <ele>1055.4</ele>
        <time>2024-05-26T14:53:27Z</time>
      </trkpt>
      <trkpt lat="43.73136" lon="6.63145">
        <ele>1055.4</ele>
        <time>2024-05-26T14:53:28Z</time>
      </trkpt>
      <trkpt lat="43.73137" lon="6.63144">
        <ele>1055.4</ele>
        <time>2024-05-26T14:53:29Z</time>
      </trkpt>
      <trkpt lat="43.73138" lon="6.63142">
        <ele>1055.4</ele>
        <time>2024-05-26T14:53:30Z</time>
      </trkpt>
      <trkpt lat="43.73138" lon="6.63141">
        <ele>1055.2</ele>
        <time>2024-05-26T14:53:31Z</time>
      </trkpt>
      <trkpt lat="43.73139" lon="6.63139">
        <ele>1055.1</ele>
        <time>2024-05-26T14:53:32Z</time>
      </trkpt>
      <trkpt lat="43.7314" lon="6.63138">
        <ele>1055.1</ele>
        <time>2024-05-26T14:53:33Z</time>
      </trkpt>
      <trkpt lat="43.7314" lon="6.63137">
        <ele>1055.1</ele>
        <time>2024-05-26T14:53:34Z</time>
      </trkpt>
      <trkpt lat="43.73142" lon="6.63136">
        <ele>1055</ele>
        <time>2024-05-26T14:53:35Z</time>
      </trkpt>
      <trkpt lat="43.73143" lon="6.63135">
        <ele>1054.9</ele>
        <time>2024-05-26T14:53:36Z</time>
      </trkpt>
      <trkpt lat="43.73144" lon="6.63134">
        <ele>1054.9</ele>
        <time>2024-05-26T14:53:37Z</time>
      </trkpt>
      <trkpt lat="43.73144" lon="6.63132">
        <ele>1054.9</ele>
        <time>2024-05-26T14:53:38Z</time>
      </trkpt>
      <trkpt lat="43.73146" lon="6.63131">
        <ele>1054.8</ele>
        <time>2024-05-26T14:53:39Z</time>
      </trkpt>
      <trkpt lat="43.73146" lon="6.6313">
        <ele>1054.8</ele>
        <time>2024-05-26T14:53:40Z</time>
      </trkpt>
      <trkpt lat="43.73147" lon="6.63128">
        <ele>1054.8</ele>
        <time>2024-05-26T14:53:41Z</time>
      </trkpt>
      <trkpt lat="43.73148" lon="6.63127">
        <ele>1054.8</ele>
        <time>2024-05-26T14:53:42Z</time>
      </trkpt>
      <trkpt lat="43.73149" lon="6.63126">
        <ele>1054.7</ele>
        <time>2024-05-26T14:53:43Z</time>
      </trkpt>
      <trkpt lat="43.73149" lon="6.63124">
        <ele>1054.6</ele>
        <time>2024-05-26T14:53:44Z</time>
      </trkpt>
      <trkpt lat="43.7315" lon="6.63123">
        <ele>1054.4</ele>
        <time>2024-05-26T14:53:45Z</time>
      </trkpt>
      <trkpt lat="43.73151" lon="6.63122">
        <ele>1054.3</ele>
        <time>2024-05-26T14:53:46Z</time>
      </trkpt>
      <trkpt lat="43.73151" lon="6.63121">
        <ele>1054.2</ele>
        <time>2024-05-26T14:53:47Z</time>
      </trkpt>
      <trkpt lat="43.73152" lon="6.6312">
        <ele>1054.1</ele>
        <time>2024-05-26T14:53:48Z</time>
      </trkpt>
      <trkpt lat="43.73153" lon="6.63119">
        <ele>1054</ele>
        <time>2024-05-26T14:53:49Z</time>
      </trkpt>
      <trkpt lat="43.73154" lon="6.63118">
        <ele>1053.9</ele>
        <time>2024-05-26T14:53:50Z</time>
      </trkpt>
      <trkpt lat="43.73155" lon="6.63117">
        <ele>1053.8</ele>
        <time>2024-05-26T14:53:51Z</time>
      </trkpt>
      <trkpt lat="43.73156" lon="6.63116">
        <ele>1053.7</ele>
        <time>2024-05-26T14:53:52Z</time>
      </trkpt>
      <trkpt lat="43.73157" lon="6.63114">
        <ele>1053.6</ele>
        <time>2024-05-26T14:53:53Z</time>
      </trkpt>
      <trkpt lat="43.73158" lon="6.63113">
        <ele>1053.5</ele>
        <time>2024-05-26T14:53:54Z</time>
      </trkpt>
      <trkpt lat="43.73158" lon="6.63112">
        <ele>1053.4</ele>
        <time>2024-05-26T14:53:55Z</time>
      </trkpt>
      <trkpt lat="43.73159" lon="6.63111">
        <ele>1053.3</ele>
        <time>2024-05-26T14:53:56Z</time>
      </trkpt>
      <trkpt lat="43.7316" lon="6.63109">
        <ele>1053.2</ele>
        <time>2024-05-26T14:53:57Z</time>
      </trkpt>
      <trkpt lat="43.73161" lon="6.63108">
        <ele>1053</ele>
        <time>2024-05-26T14:53:58Z</time>
      </trkpt>
      <trkpt lat="43.73162" lon="6.63107">
        <ele>1052.9</ele>
        <time>2024-05-26T14:53:59Z</time>
      </trkpt>
      <trkpt lat="43.73163" lon="6.63106">
        <ele>1052.7</ele>
        <time>2024-05-26T14:54:00Z</time>
      </trkpt>
      <trkpt lat="43.73164" lon="6.63105">
        <ele>1052.5</ele>
        <time>2024-05-26T14:54:01Z</time>
      </trkpt>
      <trkpt lat="43.73164" lon="6.63104">
        <ele>1052.2</ele>
        <time>2024-05-26T14:54:02Z</time>
      </trkpt>
      <trkpt lat="43.73165" lon="6.63103">
        <ele>1052</ele>
        <time>2024-05-26T14:54:03Z</time>
      </trkpt>
      <trkpt lat="43.73166" lon="6.63102">
        <ele>1051.7</ele>
        <time>2024-05-26T14:54:04Z</time>
      </trkpt>
      <trkpt lat="43.73167" lon="6.63101">
        <ele>1051.4</ele>
        <time>2024-05-26T14:54:05Z</time>
      </trkpt>
      <trkpt lat="43.73167" lon="6.631">
        <ele>1051.3</ele>
        <time>2024-05-26T14:54:06Z</time>
      </trkpt>
      <trkpt lat="43.73168" lon="6.63099">
        <ele>1051.1</ele>
        <time>2024-05-26T14:54:07Z</time>
      </trkpt>
      <trkpt lat="43.73169" lon="6.63098">
        <ele>1051</ele>
        <time>2024-05-26T14:54:08Z</time>
      </trkpt>
      <trkpt lat="43.7317" lon="6.63096">
        <ele>1050.9</ele>
        <time>2024-05-26T14:54:09Z</time>
      </trkpt>
      <trkpt lat="43.73171" lon="6.63094">
        <ele>1050.6</ele>
        <time>2024-05-26T14:54:10Z</time>
      </trkpt>
      <trkpt lat="43.73172" lon="6.63094">
        <ele>1050.5</ele>
        <time>2024-05-26T14:54:11Z</time>
      </trkpt>
      <trkpt lat="43.73172" lon="6.63093">
        <ele>1050.3</ele>
        <time>2024-05-26T14:54:12Z</time>
      </trkpt>
      <trkpt lat="43.73173" lon="6.63092">
        <ele>1050.2</ele>
        <time>2024-05-26T14:54:13Z</time>
      </trkpt>
      <trkpt lat="43.73174" lon="6.63091">
        <ele>1050.1</ele>
        <time>2024-05-26T14:54:14Z</time>
      </trkpt>
      <trkpt lat="43.73175" lon="6.6309">
        <ele>1049.9</ele>
        <time>2024-05-26T14:54:15Z</time>
      </trkpt>
      <trkpt lat="43.73175" lon="6.63088">
        <ele>1049.8</ele>
        <time>2024-05-26T14:54:16Z</time>
      </trkpt>
      <trkpt lat="43.73176" lon="6.63087">
        <ele>1049.7</ele>
        <time>2024-05-26T14:54:17Z</time>
      </trkpt>
      <trkpt lat="43.73177" lon="6.63086">
        <ele>1049.5</ele>
        <time>2024-05-26T14:54:18Z</time>
      </trkpt>
      <trkpt lat="43.73178" lon="6.63085">
        <ele>1049.3</ele>
        <time>2024-05-26T14:54:19Z</time>
      </trkpt>
      <trkpt lat="43.73179" lon="6.63084">
        <ele>1049.1</ele>
        <time>2024-05-26T14:54:20Z</time>
      </trkpt>
      <trkpt lat="43.7318" lon="6.63082">
        <ele>1048.8</ele>
        <time>2024-05-26T14:54:21Z</time>
      </trkpt>
      <trkpt lat="43.73181" lon="6.63081">
        <ele>1048.6</ele>
        <time>2024-05-26T14:54:22Z</time>
      </trkpt>
      <trkpt lat="43.73182" lon="6.63079">
        <ele>1048.4</ele>
        <time>2024-05-26T14:54:23Z</time>
      </trkpt>
      <trkpt lat="43.73182" lon="6.63078">
        <ele>1048.2</ele>
        <time>2024-05-26T14:54:24Z</time>
      </trkpt>
      <trkpt lat="43.73183" lon="6.63076">
        <ele>1048</ele>
        <time>2024-05-26T14:54:25Z</time>
      </trkpt>
      <trkpt lat="43.73184" lon="6.63075">
        <ele>1047.8</ele>
        <time>2024-05-26T14:54:26Z</time>
      </trkpt>
      <trkpt lat="43.73185" lon="6.63073">
        <ele>1047.6</ele>
        <time>2024-05-26T14:54:27Z</time>
      </trkpt>
      <trkpt lat="43.73185" lon="6.63071">
        <ele>1047.4</ele>
        <time>2024-05-26T14:54:28Z</time>
      </trkpt>
      <trkpt lat="43.73186" lon="6.6307">
        <ele>1047.2</ele>
        <time>2024-05-26T14:54:29Z</time>
      </trkpt>
      <trkpt lat="43.73186" lon="6.63068">
        <ele>1047.1</ele>
        <time>2024-05-26T14:54:30Z</time>
      </trkpt>
      <trkpt lat="43.73187" lon="6.63067">
        <ele>1047</ele>
        <time>2024-05-26T14:54:31Z</time>
      </trkpt>
      <trkpt lat="43.73187" lon="6.63065">
        <ele>1046.9</ele>
        <time>2024-05-26T14:54:32Z</time>
      </trkpt>
      <trkpt lat="43.73188" lon="6.63063">
        <ele>1046.8</ele>
        <time>2024-05-26T14:54:33Z</time>
      </trkpt>
      <trkpt lat="43.73188" lon="6.63061">
        <ele>1046.7</ele>
        <time>2024-05-26T14:54:34Z</time>
      </trkpt>
      <trkpt lat="43.73189" lon="6.63059">
        <ele>1046.7</ele>
        <time>2024-05-26T14:54:35Z</time>
      </trkpt>
      <trkpt lat="43.73191" lon="6.63057">
        <ele>1046.7</ele>
        <time>2024-05-26T14:54:36Z</time>
      </trkpt>
      <trkpt lat="43.73192" lon="6.63056">
        <ele>1046.6</ele>
        <time>2024-05-26T14:54:37Z</time>
      </trkpt>
      <trkpt lat="43.73192" lon="6.63054">
        <ele>1046.6</ele>
        <time>2024-05-26T14:54:38Z</time>
      </trkpt>
      <trkpt lat="43.73192" lon="6.63053">
        <ele>1046.5</ele>
        <time>2024-05-26T14:54:39Z</time>
      </trkpt>
      <trkpt lat="43.73193" lon="6.63051">
        <ele>1046.4</ele>
        <time>2024-05-26T14:54:40Z</time>
      </trkpt>
      <trkpt lat="43.73193" lon="6.6305">
        <ele>1046.3</ele>
        <time>2024-05-26T14:54:41Z</time>
      </trkpt>
      <trkpt lat="43.73194" lon="6.63048">
        <ele>1046.3</ele>
        <time>2024-05-26T14:54:42Z</time>
      </trkpt>
      <trkpt lat="43.73194" lon="6.63047">
        <ele>1046.3</ele>
        <time>2024-05-26T14:54:43Z</time>
      </trkpt>
      <trkpt lat="43.73195" lon="6.63046">
        <ele>1046.2</ele>
        <time>2024-05-26T14:54:44Z</time>
      </trkpt>
      <trkpt lat="43.73196" lon="6.63044">
        <ele>1046.2</ele>
        <time>2024-05-26T14:54:45Z</time>
      </trkpt>
      <trkpt lat="43.73196" lon="6.63042">
        <ele>1046.1</ele>
        <time>2024-05-26T14:54:46Z</time>
      </trkpt>
      <trkpt lat="43.73197" lon="6.63041">
        <ele>1046.1</ele>
        <time>2024-05-26T14:54:47Z</time>
      </trkpt>
      <trkpt lat="43.73198" lon="6.63039">
        <ele>1046</ele>
        <time>2024-05-26T14:54:48Z</time>
      </trkpt>
      <trkpt lat="43.73199" lon="6.63037">
        <ele>1045.9</ele>
        <time>2024-05-26T14:54:49Z</time>
      </trkpt>
      <trkpt lat="43.73199" lon="6.63035">
        <ele>1045.8</ele>
        <time>2024-05-26T14:54:50Z</time>
      </trkpt>
      <trkpt lat="43.732" lon="6.63034">
        <ele>1045.8</ele>
        <time>2024-05-26T14:54:51Z</time>
      </trkpt>
      <trkpt lat="43.732" lon="6.63032">
        <ele>1045.8</ele>
        <time>2024-05-26T14:54:52Z</time>
      </trkpt>
      <trkpt lat="43.73201" lon="6.63031">
        <ele>1045.8</ele>
        <time>2024-05-26T14:54:53Z</time>
      </trkpt>
      <trkpt lat="43.73202" lon="6.63029">
        <ele>1045.8</ele>
        <time>2024-05-26T14:54:54Z</time>
      </trkpt>
      <trkpt lat="43.73203" lon="6.63027">
        <ele>1045.8</ele>
        <time>2024-05-26T14:54:55Z</time>
      </trkpt>
      <trkpt lat="43.73204" lon="6.63026">
        <ele>1045.7</ele>
        <time>2024-05-26T14:54:56Z</time>
      </trkpt>
      <trkpt lat="43.73204" lon="6.63025">
        <ele>1045.7</ele>
        <time>2024-05-26T14:54:57Z</time>
      </trkpt>
      <trkpt lat="43.73204" lon="6.63024">
        <ele>1045.7</ele>
        <time>2024-05-26T14:54:58Z</time>
      </trkpt>
      <trkpt lat="43.73205" lon="6.63023">
        <ele>1045.6</ele>
        <time>2024-05-26T14:54:59Z</time>
      </trkpt>
      <trkpt lat="43.73205" lon="6.63022">
        <ele>1045.5</ele>
        <time>2024-05-26T14:55:00Z</time>
      </trkpt>
      <trkpt lat="43.73205" lon="6.63021">
        <ele>1045.4</ele>
        <time>2024-05-26T14:55:01Z</time>
      </trkpt>
      <trkpt lat="43.73206" lon="6.63019">
        <ele>1045.3</ele>
        <time>2024-05-26T14:55:02Z</time>
      </trkpt>
      <trkpt lat="43.73206" lon="6.63017">
        <ele>1045.3</ele>
        <time>2024-05-26T14:55:03Z</time>
      </trkpt>
      <trkpt lat="43.73207" lon="6.63016">
        <ele>1045.2</ele>
        <time>2024-05-26T14:55:04Z</time>
      </trkpt>
      <trkpt lat="43.73207" lon="6.63014">
        <ele>1045.1</ele>
        <time>2024-05-26T14:55:05Z</time>
      </trkpt>
      <trkpt lat="43.73207" lon="6.63012">
        <ele>1045</ele>
        <time>2024-05-26T14:55:06Z</time>
      </trkpt>
      <trkpt lat="43.73208" lon="6.63011">
        <ele>1044.9</ele>
        <time>2024-05-26T14:55:07Z</time>
      </trkpt>
      <trkpt lat="43.73208" lon="6.6301">
        <ele>1044.6</ele>
        <time>2024-05-26T14:55:08Z</time>
      </trkpt>
      <trkpt lat="43.73209" lon="6.63008">
        <ele>1044.6</ele>
        <time>2024-05-26T14:55:09Z</time>
      </trkpt>
      <trkpt lat="43.7321" lon="6.63005">
        <ele>1044.7</ele>
        <time>2024-05-26T14:55:10Z</time>
      </trkpt>
      <trkpt lat="43.73211" lon="6.63004">
        <ele>1044.6</ele>
        <time>2024-05-26T14:55:11Z</time>
      </trkpt>
      <trkpt lat="43.73212" lon="6.63002">
        <ele>1044.5</ele>
        <time>2024-05-26T14:55:12Z</time>
      </trkpt>
      <trkpt lat="43.73213" lon="6.63001">
        <ele>1044.4</ele>
        <time>2024-05-26T14:55:13Z</time>
      </trkpt>
      <trkpt lat="43.73213" lon="6.62999">
        <ele>1044.4</ele>
        <time>2024-05-26T14:55:14Z</time>
      </trkpt>
      <trkpt lat="43.73214" lon="6.62996">
        <ele>1044.4</ele>
        <time>2024-05-26T14:55:15Z</time>
      </trkpt>
      <trkpt lat="43.73214" lon="6.62994">
        <ele>1044.4</ele>
        <time>2024-05-26T14:55:16Z</time>
      </trkpt>
      <trkpt lat="43.73215" lon="6.62992">
        <ele>1044.3</ele>
        <time>2024-05-26T14:55:17Z</time>
      </trkpt>
      <trkpt lat="43.73215" lon="6.6299">
        <ele>1044.2</ele>
        <time>2024-05-26T14:55:18Z</time>
      </trkpt>
      <trkpt lat="43.73215" lon="6.62988">
        <ele>1044.1</ele>
        <time>2024-05-26T14:55:19Z</time>
      </trkpt>
      <trkpt lat="43.73215" lon="6.62986">
        <ele>1044.1</ele>
        <time>2024-05-26T14:55:20Z</time>
      </trkpt>
      <trkpt lat="43.73215" lon="6.62985">
        <ele>1044.1</ele>
        <time>2024-05-26T14:55:21Z</time>
      </trkpt>
      <trkpt lat="43.73215" lon="6.62982">
        <ele>1044.1</ele>
        <time>2024-05-26T14:55:22Z</time>
      </trkpt>
      <trkpt lat="43.73216" lon="6.6298">
        <ele>1044.1</ele>
        <time>2024-05-26T14:55:23Z</time>
      </trkpt>
      <trkpt lat="43.73216" lon="6.62978">
        <ele>1044.1</ele>
        <time>2024-05-26T14:55:24Z</time>
      </trkpt>
      <trkpt lat="43.73216" lon="6.62976">
        <ele>1044</ele>
        <time>2024-05-26T14:55:25Z</time>
      </trkpt>
      <trkpt lat="43.73217" lon="6.62974">
        <ele>1044</ele>
        <time>2024-05-26T14:55:26Z</time>
      </trkpt>
      <trkpt lat="43.73217" lon="6.62973">
        <ele>1043.9</ele>
        <time>2024-05-26T14:55:27Z</time>
      </trkpt>
      <trkpt lat="43.73217" lon="6.62971">
        <ele>1043.8</ele>
        <time>2024-05-26T14:55:28Z</time>
      </trkpt>
      <trkpt lat="43.73217" lon="6.62969">
        <ele>1043.8</ele>
        <time>2024-05-26T14:55:29Z</time>
      </trkpt>
      <trkpt lat="43.73218" lon="6.62968">
        <ele>1043.8</ele>
        <time>2024-05-26T14:55:30Z</time>
      </trkpt>
      <trkpt lat="43.73218" lon="6.62966">
        <ele>1043.8</ele>
        <time>2024-05-26T14:55:31Z</time>
      </trkpt>
      <trkpt lat="43.73218" lon="6.62965">
        <ele>1043.8</ele>
        <time>2024-05-26T14:55:32Z</time>
      </trkpt>
      <trkpt lat="43.73219" lon="6.62963">
        <ele>1043.8</ele>
        <time>2024-05-26T14:55:33Z</time>
      </trkpt>
      <trkpt lat="43.73219" lon="6.62961">
        <ele>1043.7</ele>
        <time>2024-05-26T14:55:34Z</time>
      </trkpt>
      <trkpt lat="43.7322" lon="6.62959">
        <ele>1043.7</ele>
        <time>2024-05-26T14:55:35Z</time>
      </trkpt>
      <trkpt lat="43.7322" lon="6.62957">
        <ele>1043.6</ele>
        <time>2024-05-26T14:55:36Z</time>
      </trkpt>
      <trkpt lat="43.7322" lon="6.62955">
        <ele>1043.5</ele>
        <time>2024-05-26T14:55:37Z</time>
      </trkpt>
      <trkpt lat="43.73221" lon="6.62953">
        <ele>1043.6</ele>
        <time>2024-05-26T14:55:38Z</time>
      </trkpt>
      <trkpt lat="43.73221" lon="6.62951">
        <ele>1043.6</ele>
        <time>2024-05-26T14:55:39Z</time>
      </trkpt>
      <trkpt lat="43.73221" lon="6.6295">
        <ele>1043.7</ele>
        <time>2024-05-26T14:55:40Z</time>
      </trkpt>
      <trkpt lat="43.73221" lon="6.62948">
        <ele>1043.7</ele>
        <time>2024-05-26T14:55:41Z</time>
      </trkpt>
      <trkpt lat="43.73222" lon="6.62946">
        <ele>1043.8</ele>
        <time>2024-05-26T14:55:42Z</time>
      </trkpt>
      <trkpt lat="43.73222" lon="6.62944">
        <ele>1043.8</ele>
        <time>2024-05-26T14:55:43Z</time>
      </trkpt>
      <trkpt lat="43.73223" lon="6.62942">
        <ele>1043.7</ele>
        <time>2024-05-26T14:55:44Z</time>
      </trkpt>
      <trkpt lat="43.73223" lon="6.62941">
        <ele>1043.6</ele>
        <time>2024-05-26T14:55:45Z</time>
      </trkpt>
      <trkpt lat="43.73224" lon="6.62939">
        <ele>1043.6</ele>
        <time>2024-05-26T14:55:46Z</time>
      </trkpt>
      <trkpt lat="43.73224" lon="6.62938">
        <ele>1043.4</ele>
        <time>2024-05-26T14:55:47Z</time>
      </trkpt>
      <trkpt lat="43.73224" lon="6.62937">
        <ele>1043.4</ele>
        <time>2024-05-26T14:55:48Z</time>
      </trkpt>
      <trkpt lat="43.73224" lon="6.62936">
        <ele>1043.3</ele>
        <time>2024-05-26T14:55:49Z</time>
      </trkpt>
      <trkpt lat="43.73225" lon="6.62935">
        <ele>1043.2</ele>
        <time>2024-05-26T14:55:50Z</time>
      </trkpt>
      <trkpt lat="43.73225" lon="6.62933">
        <ele>1043.1</ele>
        <time>2024-05-26T14:55:51Z</time>
      </trkpt>
      <trkpt lat="43.73226" lon="6.62932">
        <ele>1043.1</ele>
        <time>2024-05-26T14:55:52Z</time>
      </trkpt>
      <trkpt lat="43.73227" lon="6.6293">
        <ele>1042.9</ele>
        <time>2024-05-26T14:55:53Z</time>
      </trkpt>
      <trkpt lat="43.73227" lon="6.62928">
        <ele>1042.8</ele>
        <time>2024-05-26T14:55:54Z</time>
      </trkpt>
      <trkpt lat="43.73227" lon="6.62926">
        <ele>1042.6</ele>
        <time>2024-05-26T14:55:55Z</time>
      </trkpt>
      <trkpt lat="43.73228" lon="6.62925">
        <ele>1042.5</ele>
        <time>2024-05-26T14:55:56Z</time>
      </trkpt>
      <trkpt lat="43.73228" lon="6.62924">
        <ele>1042.5</ele>
        <time>2024-05-26T14:55:57Z</time>
      </trkpt>
      <trkpt lat="43.73228" lon="6.62923">
        <ele>1042.4</ele>
        <time>2024-05-26T14:55:58Z</time>
      </trkpt>
      <trkpt lat="43.73228" lon="6.62921">
        <ele>1042.3</ele>
        <time>2024-05-26T14:55:59Z</time>
      </trkpt>
      <trkpt lat="43.73228" lon="6.6292">
        <ele>1042.2</ele>
        <time>2024-05-26T14:56:00Z</time>
      </trkpt>
      <trkpt lat="43.73228" lon="6.62918">
        <ele>1042.1</ele>
        <time>2024-05-26T14:56:01Z</time>
      </trkpt>
      <trkpt lat="43.73228" lon="6.62917">
        <ele>1041.8</ele>
        <time>2024-05-26T14:56:02Z</time>
      </trkpt>
      <trkpt lat="43.73229" lon="6.62916">
        <ele>1041.7</ele>
        <time>2024-05-26T14:56:03Z</time>
      </trkpt>
      <trkpt lat="43.7323" lon="6.62914">
        <ele>1041.6</ele>
        <time>2024-05-26T14:56:04Z</time>
      </trkpt>
      <trkpt lat="43.7323" lon="6.62913">
        <ele>1041.6</ele>
        <time>2024-05-26T14:56:05Z</time>
      </trkpt>
      <trkpt lat="43.73229" lon="6.62911">
        <ele>1041.5</ele>
        <time>2024-05-26T14:56:06Z</time>
      </trkpt>
      <trkpt lat="43.73229" lon="6.6291">
        <ele>1041.4</ele>
        <time>2024-05-26T14:56:07Z</time>
      </trkpt>
      <trkpt lat="43.7323" lon="6.62909">
        <ele>1041.2</ele>
        <time>2024-05-26T14:56:08Z</time>
      </trkpt>
      <trkpt lat="43.7323" lon="6.62907">
        <ele>1041.1</ele>
        <time>2024-05-26T14:56:09Z</time>
      </trkpt>
      <trkpt lat="43.7323" lon="6.62905">
        <ele>1041</ele>
        <time>2024-05-26T14:56:10Z</time>
      </trkpt>
      <trkpt lat="43.7323" lon="6.62903">
        <ele>1040.9</ele>
        <time>2024-05-26T14:56:11Z</time>
      </trkpt>
      <trkpt lat="43.7323" lon="6.62901">
        <ele>1040.8</ele>
        <time>2024-05-26T14:56:12Z</time>
      </trkpt>
      <trkpt lat="43.73231" lon="6.62899">
        <ele>1040.7</ele>
        <time>2024-05-26T14:56:13Z</time>
      </trkpt>
      <trkpt lat="43.7323" lon="6.62899">
        <ele>1040.6</ele>
        <time>2024-05-26T14:56:14Z</time>
      </trkpt>
      <trkpt lat="43.7323" lon="6.62896">
        <ele>1040.5</ele>
        <time>2024-05-26T14:56:15Z</time>
      </trkpt>
      <trkpt lat="43.7323" lon="6.62895">
        <ele>1040.3</ele>
        <time>2024-05-26T14:56:16Z</time>
      </trkpt>
      <trkpt lat="43.7323" lon="6.62894">
        <ele>1040.1</ele>
        <time>2024-05-26T14:56:17Z</time>
      </trkpt>
      <trkpt lat="43.73229" lon="6.62892">
        <ele>1040</ele>
        <time>2024-05-26T14:56:18Z</time>
      </trkpt>
      <trkpt lat="43.73229" lon="6.6289">
        <ele>1039.8</ele>
        <time>2024-05-26T14:56:19Z</time>
      </trkpt>
      <trkpt lat="43.73228" lon="6.62888">
        <ele>1039.8</ele>
        <time>2024-05-26T14:56:20Z</time>
      </trkpt>
      <trkpt lat="43.73228" lon="6.62887">
        <ele>1039.5</ele>
        <time>2024-05-26T14:56:21Z</time>
      </trkpt>
      <trkpt lat="43.73228" lon="6.62885">
        <ele>1039.3</ele>
        <time>2024-05-26T14:56:22Z</time>
      </trkpt>
      <trkpt lat="43.73227" lon="6.62884">
        <ele>1039.2</ele>
        <time>2024-05-26T14:56:23Z</time>
      </trkpt>
      <trkpt lat="43.73226" lon="6.62883">
        <ele>1039</ele>
        <time>2024-05-26T14:56:24Z</time>
      </trkpt>
      <trkpt lat="43.73226" lon="6.62881">
        <ele>1038.8</ele>
        <time>2024-05-26T14:56:25Z</time>
      </trkpt>
      <trkpt lat="43.73224" lon="6.62879">
        <ele>1038.8</ele>
        <time>2024-05-26T14:56:26Z</time>
      </trkpt>
      <trkpt lat="43.73224" lon="6.62878">
        <ele>1038.7</ele>
        <time>2024-05-26T14:56:27Z</time>
      </trkpt>
      <trkpt lat="43.73223" lon="6.62876">
        <ele>1038.6</ele>
        <time>2024-05-26T14:56:28Z</time>
      </trkpt>
      <trkpt lat="43.73223" lon="6.62874">
        <ele>1038.4</ele>
        <time>2024-05-26T14:56:29Z</time>
      </trkpt>
      <trkpt lat="43.73222" lon="6.62872">
        <ele>1038</ele>
        <time>2024-05-26T14:56:30Z</time>
      </trkpt>
      <trkpt lat="43.73221" lon="6.62871">
        <ele>1037.7</ele>
        <time>2024-05-26T14:56:31Z</time>
      </trkpt>
      <trkpt lat="43.73221" lon="6.6287">
        <ele>1037.6</ele>
        <time>2024-05-26T14:56:32Z</time>
      </trkpt>
      <trkpt lat="43.73221" lon="6.62869">
        <ele>1037.5</ele>
        <time>2024-05-26T14:56:33Z</time>
      </trkpt>
      <trkpt lat="43.73221" lon="6.62868">
        <ele>1037.3</ele>
        <time>2024-05-26T14:56:34Z</time>
      </trkpt>
      <trkpt lat="43.73222" lon="6.62867">
        <ele>1037.1</ele>
        <time>2024-05-26T14:56:35Z</time>
      </trkpt>
      <trkpt lat="43.73223" lon="6.62865">
        <ele>1036.9</ele>
        <time>2024-05-26T14:56:36Z</time>
      </trkpt>
      <trkpt lat="43.73223" lon="6.62864">
        <ele>1036.8</ele>
        <time>2024-05-26T14:56:37Z</time>
      </trkpt>
      <trkpt lat="43.73223" lon="6.62863">
        <ele>1036.6</ele>
        <time>2024-05-26T14:56:38Z</time>
      </trkpt>
      <trkpt lat="43.73224" lon="6.62861">
        <ele>1036.5</ele>
        <time>2024-05-26T14:56:39Z</time>
      </trkpt>
      <trkpt lat="43.73224" lon="6.6286">
        <ele>1036.2</ele>
        <time>2024-05-26T14:56:40Z</time>
      </trkpt>
      <trkpt lat="43.73224" lon="6.62858">
        <ele>1036</ele>
        <time>2024-05-26T14:56:41Z</time>
      </trkpt>
      <trkpt lat="43.73226" lon="6.62857">
        <ele>1035.9</ele>
        <time>2024-05-26T14:56:42Z</time>
      </trkpt>
      <trkpt lat="43.73226" lon="6.62855">
        <ele>1035.7</ele>
        <time>2024-05-26T14:56:43Z</time>
      </trkpt>
      <trkpt lat="43.73227" lon="6.62854">
        <ele>1035.6</ele>
        <time>2024-05-26T14:56:44Z</time>
      </trkpt>
      <trkpt lat="43.73228" lon="6.62853">
        <ele>1035.5</ele>
        <time>2024-05-26T14:56:45Z</time>
      </trkpt>
      <trkpt lat="43.73229" lon="6.62851">
        <ele>1035.4</ele>
        <time>2024-05-26T14:56:46Z</time>
      </trkpt>
      <trkpt lat="43.7323" lon="6.62849">
        <ele>1035.2</ele>
        <time>2024-05-26T14:56:47Z</time>
      </trkpt>
      <trkpt lat="43.7323" lon="6.62847">
        <ele>1035</ele>
        <time>2024-05-26T14:56:48Z</time>
      </trkpt>
      <trkpt lat="43.7323" lon="6.62846">
        <ele>1034.9</ele>
        <time>2024-05-26T14:56:49Z</time>
      </trkpt>
      <trkpt lat="43.73231" lon="6.62845">
        <ele>1034.7</ele>
        <time>2024-05-26T14:56:50Z</time>
      </trkpt>
      <trkpt lat="43.73232" lon="6.62844">
        <ele>1034.6</ele>
        <time>2024-05-26T14:56:51Z</time>
      </trkpt>
      <trkpt lat="43.73232" lon="6.62842">
        <ele>1034.6</ele>
        <time>2024-05-26T14:56:52Z</time>
      </trkpt>
      <trkpt lat="43.73233" lon="6.62841">
        <ele>1034.5</ele>
        <time>2024-05-26T14:56:53Z</time>
      </trkpt>
      <trkpt lat="43.73234" lon="6.62839">
        <ele>1034.5</ele>
        <time>2024-05-26T14:56:54Z</time>
      </trkpt>
      <trkpt lat="43.73234" lon="6.62838">
        <ele>1034.5</ele>
        <time>2024-05-26T14:56:55Z</time>
      </trkpt>
      <trkpt lat="43.73234" lon="6.62837">
        <ele>1034.5</ele>
        <time>2024-05-26T14:56:56Z</time>
      </trkpt>
      <trkpt lat="43.73234" lon="6.62835">
        <ele>1034.4</ele>
        <time>2024-05-26T14:56:57Z</time>
      </trkpt>
      <trkpt lat="43.73234" lon="6.62834">
        <ele>1034.3</ele>
        <time>2024-05-26T14:56:58Z</time>
      </trkpt>
      <trkpt lat="43.73235" lon="6.62833">
        <ele>1034.3</ele>
        <time>2024-05-26T14:56:59Z</time>
      </trkpt>
      <trkpt lat="43.73235" lon="6.62832">
        <ele>1034.3</ele>
        <time>2024-05-26T14:57:00Z</time>
      </trkpt>
      <trkpt lat="43.73236" lon="6.6283">
        <ele>1034.2</ele>
        <time>2024-05-26T14:57:01Z</time>
      </trkpt>
      <trkpt lat="43.73236" lon="6.62829">
        <ele>1034.2</ele>
        <time>2024-05-26T14:57:02Z</time>
      </trkpt>
      <trkpt lat="43.73237" lon="6.62828">
        <ele>1034.3</ele>
        <time>2024-05-26T14:57:03Z</time>
      </trkpt>
      <trkpt lat="43.73237" lon="6.62827">
        <ele>1034.3</ele>
        <time>2024-05-26T14:57:04Z</time>
      </trkpt>
      <trkpt lat="43.73238" lon="6.62826">
        <ele>1034.3</ele>
        <time>2024-05-26T14:57:05Z</time>
      </trkpt>
      <trkpt lat="43.73238" lon="6.62825">
        <ele>1034.3</ele>
        <time>2024-05-26T14:57:06Z</time>
      </trkpt>
      <trkpt lat="43.73239" lon="6.62824">
        <ele>1034.3</ele>
        <time>2024-05-26T14:57:07Z</time>
      </trkpt>
      <trkpt lat="43.7324" lon="6.62822">
        <ele>1034.3</ele>
        <time>2024-05-26T14:57:08Z</time>
      </trkpt>
      <trkpt lat="43.7324" lon="6.62821">
        <ele>1034.2</ele>
        <time>2024-05-26T14:57:09Z</time>
      </trkpt>
      <trkpt lat="43.73241" lon="6.6282">
        <ele>1034.2</ele>
        <time>2024-05-26T14:57:10Z</time>
      </trkpt>
      <trkpt lat="43.73241" lon="6.62818">
        <ele>1034.2</ele>
        <time>2024-05-26T14:57:11Z</time>
      </trkpt>
      <trkpt lat="43.73242" lon="6.62817">
        <ele>1034.2</ele>
        <time>2024-05-26T14:57:12Z</time>
      </trkpt>
      <trkpt lat="43.73242" lon="6.62815">
        <ele>1034.2</ele>
        <time>2024-05-26T14:57:13Z</time>
      </trkpt>
      <trkpt lat="43.73242" lon="6.62814">
        <ele>1034.1</ele>
        <time>2024-05-26T14:57:14Z</time>
      </trkpt>
      <trkpt lat="43.73242" lon="6.62812">
        <ele>1034.1</ele>
        <time>2024-05-26T14:57:15Z</time>
      </trkpt>
      <trkpt lat="43.73242" lon="6.62811">
        <ele>1034.1</ele>
        <time>2024-05-26T14:57:16Z</time>
      </trkpt>
      <trkpt lat="43.73243" lon="6.6281">
        <ele>1034.1</ele>
        <time>2024-05-26T14:57:17Z</time>
      </trkpt>
      <trkpt lat="43.73244" lon="6.62808">
        <ele>1034</ele>
        <time>2024-05-26T14:57:18Z</time>
      </trkpt>
      <trkpt lat="43.73245" lon="6.62807">
        <ele>1034</ele>
        <time>2024-05-26T14:57:19Z</time>
      </trkpt>
      <trkpt lat="43.73246" lon="6.62805">
        <ele>1034</ele>
        <time>2024-05-26T14:57:20Z</time>
      </trkpt>
      <trkpt lat="43.73246" lon="6.62804">
        <ele>1033.9</ele>
        <time>2024-05-26T14:57:21Z</time>
      </trkpt>
      <trkpt lat="43.73247" lon="6.62802">
        <ele>1033.8</ele>
        <time>2024-05-26T14:57:22Z</time>
      </trkpt>
      <trkpt lat="43.73248" lon="6.62801">
        <ele>1033.7</ele>
        <time>2024-05-26T14:57:23Z</time>
      </trkpt>
      <trkpt lat="43.73249" lon="6.62799">
        <ele>1033.5</ele>
        <time>2024-05-26T14:57:24Z</time>
      </trkpt>
      <trkpt lat="43.7325" lon="6.62797">
        <ele>1033.3</ele>
        <time>2024-05-26T14:57:25Z</time>
      </trkpt>
      <trkpt lat="43.73251" lon="6.62796">
        <ele>1033.1</ele>
        <time>2024-05-26T14:57:26Z</time>
      </trkpt>
      <trkpt lat="43.73252" lon="6.62795">
        <ele>1032.9</ele>
        <time>2024-05-26T14:57:27Z</time>
      </trkpt>
      <trkpt lat="43.73253" lon="6.62794">
        <ele>1032.7</ele>
        <time>2024-05-26T14:57:28Z</time>
      </trkpt>
      <trkpt lat="43.73253" lon="6.62793">
        <ele>1032.4</ele>
        <time>2024-05-26T14:57:29Z</time>
      </trkpt>
      <trkpt lat="43.73254" lon="6.62792">
        <ele>1032.1</ele>
        <time>2024-05-26T14:57:30Z</time>
      </trkpt>
      <trkpt lat="43.73255" lon="6.62791">
        <ele>1031.8</ele>
        <time>2024-05-26T14:57:31Z</time>
      </trkpt>
      <trkpt lat="43.73256" lon="6.6279">
        <ele>1031.5</ele>
        <time>2024-05-26T14:57:32Z</time>
      </trkpt>
      <trkpt lat="43.73257" lon="6.62789">
        <ele>1031.3</ele>
        <time>2024-05-26T14:57:33Z</time>
      </trkpt>
      <trkpt lat="43.73258" lon="6.62788">
        <ele>1031</ele>
        <time>2024-05-26T14:57:34Z</time>
      </trkpt>
      <trkpt lat="43.73259" lon="6.62788">
        <ele>1030.8</ele>
        <time>2024-05-26T14:57:35Z</time>
      </trkpt>
      <trkpt lat="43.7326" lon="6.62787">
        <ele>1030.6</ele>
        <time>2024-05-26T14:57:36Z</time>
      </trkpt>
      <trkpt lat="43.73261" lon="6.62787">
        <ele>1030.4</ele>
        <time>2024-05-26T14:57:37Z</time>
      </trkpt>
      <trkpt lat="43.73262" lon="6.62785">
        <ele>1030.2</ele>
        <time>2024-05-26T14:57:38Z</time>
      </trkpt>
      <trkpt lat="43.73263" lon="6.62785">
        <ele>1030.1</ele>
        <time>2024-05-26T14:57:39Z</time>
      </trkpt>
      <trkpt lat="43.73264" lon="6.62785">
        <ele>1029.9</ele>
        <time>2024-05-26T14:57:40Z</time>
      </trkpt>
      <trkpt lat="43.73265" lon="6.62784">
        <ele>1030</ele>
        <time>2024-05-26T14:57:41Z</time>
      </trkpt>
      <trkpt lat="43.73265" lon="6.62783">
        <ele>1029.7</ele>
        <time>2024-05-26T14:57:42Z</time>
      </trkpt>
      <trkpt lat="43.73266" lon="6.62782">
        <ele>1029.7</ele>
        <time>2024-05-26T14:57:43Z</time>
      </trkpt>
      <trkpt lat="43.73266" lon="6.62781">
        <ele>1029.5</ele>
        <time>2024-05-26T14:57:44Z</time>
      </trkpt>
      <trkpt lat="43.73267" lon="6.6278">
        <ele>1029.3</ele>
        <time>2024-05-26T14:57:45Z</time>
      </trkpt>
      <trkpt lat="43.73268" lon="6.62778">
        <ele>1029.1</ele>
        <time>2024-05-26T14:57:46Z</time>
      </trkpt>
      <trkpt lat="43.73269" lon="6.62777">
        <ele>1029</ele>
        <time>2024-05-26T14:57:47Z</time>
      </trkpt>
      <trkpt lat="43.7327" lon="6.62776">
        <ele>1028.9</ele>
        <time>2024-05-26T14:57:48Z</time>
      </trkpt>
      <trkpt lat="43.73271" lon="6.62775">
        <ele>1028.7</ele>
        <time>2024-05-26T14:57:49Z</time>
      </trkpt>
      <trkpt lat="43.73272" lon="6.62774">
        <ele>1028.6</ele>
        <time>2024-05-26T14:57:50Z</time>
      </trkpt>
      <trkpt lat="43.73273" lon="6.62773">
        <ele>1028.5</ele>
        <time>2024-05-26T14:57:51Z</time>
      </trkpt>
      <trkpt lat="43.73273" lon="6.62773">
        <ele>1028.3</ele>
        <time>2024-05-26T14:57:52Z</time>
      </trkpt>
      <trkpt lat="43.73274" lon="6.62772">
        <ele>1028.2</ele>
        <time>2024-05-26T14:57:53Z</time>
      </trkpt>
      <trkpt lat="43.73275" lon="6.62771">
        <ele>1028.1</ele>
        <time>2024-05-26T14:57:54Z</time>
      </trkpt>
      <trkpt lat="43.73276" lon="6.6277">
        <ele>1027.8</ele>
        <time>2024-05-26T14:57:55Z</time>
      </trkpt>
      <trkpt lat="43.73277" lon="6.62769">
        <ele>1027.7</ele>
        <time>2024-05-26T14:57:56Z</time>
      </trkpt>
      <trkpt lat="43.73278" lon="6.62768">
        <ele>1027.6</ele>
        <time>2024-05-26T14:57:57Z</time>
      </trkpt>
      <trkpt lat="43.73279" lon="6.62767">
        <ele>1027.5</ele>
        <time>2024-05-26T14:57:58Z</time>
      </trkpt>
      <trkpt lat="43.7328" lon="6.62766">
        <ele>1027.3</ele>
        <time>2024-05-26T14:57:59Z</time>
      </trkpt>
      <trkpt lat="43.73281" lon="6.62765">
        <ele>1027.3</ele>
        <time>2024-05-26T14:58:00Z</time>
      </trkpt>
      <trkpt lat="43.73282" lon="6.62764">
        <ele>1027.2</ele>
        <time>2024-05-26T14:58:01Z</time>
      </trkpt>
      <trkpt lat="43.73284" lon="6.62763">
        <ele>1027.1</ele>
        <time>2024-05-26T14:58:02Z</time>
      </trkpt>
      <trkpt lat="43.73284" lon="6.62762">
        <ele>1027.1</ele>
        <time>2024-05-26T14:58:03Z</time>
      </trkpt>
      <trkpt lat="43.73285" lon="6.62761">
        <ele>1027</ele>
        <time>2024-05-26T14:58:04Z</time>
      </trkpt>
      <trkpt lat="43.73286" lon="6.6276">
        <ele>1026.9</ele>
        <time>2024-05-26T14:58:05Z</time>
      </trkpt>
      <trkpt lat="43.73286" lon="6.62759">
        <ele>1026.7</ele>
        <time>2024-05-26T14:58:06Z</time>
      </trkpt>
      <trkpt lat="43.73287" lon="6.62758">
        <ele>1026.5</ele>
        <time>2024-05-26T14:58:07Z</time>
      </trkpt>
      <trkpt lat="43.73288" lon="6.62757">
        <ele>1026.2</ele>
        <time>2024-05-26T14:58:08Z</time>
      </trkpt>
      <trkpt lat="43.73288" lon="6.62756">
        <ele>1026.1</ele>
        <time>2024-05-26T14:58:09Z</time>
      </trkpt>
      <trkpt lat="43.73289" lon="6.62755">
        <ele>1025.9</ele>
        <time>2024-05-26T14:58:10Z</time>
      </trkpt>
      <trkpt lat="43.7329" lon="6.62753">
        <ele>1025.8</ele>
        <time>2024-05-26T14:58:11Z</time>
      </trkpt>
      <trkpt lat="43.73291" lon="6.62752">
        <ele>1025.7</ele>
        <time>2024-05-26T14:58:12Z</time>
      </trkpt>
      <trkpt lat="43.73291" lon="6.62751">
        <ele>1025.6</ele>
        <time>2024-05-26T14:58:13Z</time>
      </trkpt>
      <trkpt lat="43.73292" lon="6.62749">
        <ele>1025.5</ele>
        <time>2024-05-26T14:58:14Z</time>
      </trkpt>
      <trkpt lat="43.73293" lon="6.62748">
        <ele>1025.3</ele>
        <time>2024-05-26T14:58:15Z</time>
      </trkpt>
      <trkpt lat="43.73293" lon="6.62747">
        <ele>1025.2</ele>
        <time>2024-05-26T14:58:16Z</time>
      </trkpt>
      <trkpt lat="43.73294" lon="6.62745">
        <ele>1025.1</ele>
        <time>2024-05-26T14:58:17Z</time>
      </trkpt>
      <trkpt lat="43.73294" lon="6.62744">
        <ele>1025.1</ele>
        <time>2024-05-26T14:58:18Z</time>
      </trkpt>
      <trkpt lat="43.73295" lon="6.62743">
        <ele>1024.8</ele>
        <time>2024-05-26T14:58:19Z</time>
      </trkpt>
      <trkpt lat="43.73295" lon="6.62741">
        <ele>1024.7</ele>
        <time>2024-05-26T14:58:20Z</time>
      </trkpt>
      <trkpt lat="43.73296" lon="6.6274">
        <ele>1024.6</ele>
        <time>2024-05-26T14:58:21Z</time>
      </trkpt>
      <trkpt lat="43.73296" lon="6.62738">
        <ele>1024.4</ele>
        <time>2024-05-26T14:58:22Z</time>
      </trkpt>
      <trkpt lat="43.73297" lon="6.62737">
        <ele>1024.2</ele>
        <time>2024-05-26T14:58:23Z</time>
      </trkpt>
      <trkpt lat="43.73297" lon="6.62735">
        <ele>1024.1</ele>
        <time>2024-05-26T14:58:24Z</time>
      </trkpt>
      <trkpt lat="43.73297" lon="6.62734">
        <ele>1023.9</ele>
        <time>2024-05-26T14:58:25Z</time>
      </trkpt>
      <trkpt lat="43.73298" lon="6.62732">
        <ele>1023.7</ele>
        <time>2024-05-26T14:58:26Z</time>
      </trkpt>
      <trkpt lat="43.73298" lon="6.62731">
        <ele>1023.5</ele>
        <time>2024-05-26T14:58:27Z</time>
      </trkpt>
      <trkpt lat="43.73299" lon="6.6273">
        <ele>1023.3</ele>
        <time>2024-05-26T14:58:28Z</time>
      </trkpt>
      <trkpt lat="43.73299" lon="6.62729">
        <ele>1023.1</ele>
        <time>2024-05-26T14:58:29Z</time>
      </trkpt>
      <trkpt lat="43.733" lon="6.62728">
        <ele>1022.9</ele>
        <time>2024-05-26T14:58:30Z</time>
      </trkpt>
      <trkpt lat="43.73301" lon="6.62727">
        <ele>1022.8</ele>
        <time>2024-05-26T14:58:31Z</time>
      </trkpt>
      <trkpt lat="43.73301" lon="6.62726">
        <ele>1022.8</ele>
        <time>2024-05-26T14:58:32Z</time>
      </trkpt>
      <trkpt lat="43.73302" lon="6.62726">
        <ele>1022.5</ele>
        <time>2024-05-26T14:58:33Z</time>
      </trkpt>
      <trkpt lat="43.73303" lon="6.62725">
        <ele>1022.4</ele>
        <time>2024-05-26T14:58:34Z</time>
      </trkpt>
      <trkpt lat="43.73304" lon="6.62724">
        <ele>1022.3</ele>
        <time>2024-05-26T14:58:35Z</time>
      </trkpt>
      <trkpt lat="43.73304" lon="6.62723">
        <ele>1022.1</ele>
        <time>2024-05-26T14:58:36Z</time>
      </trkpt>
      <trkpt lat="43.73305" lon="6.62723">
        <ele>1022</ele>
        <time>2024-05-26T14:58:37Z</time>
      </trkpt>
      <trkpt lat="43.73306" lon="6.62722">
        <ele>1021.9</ele>
        <time>2024-05-26T14:58:38Z</time>
      </trkpt>
      <trkpt lat="43.73307" lon="6.62721">
        <ele>1021.7</ele>
        <time>2024-05-26T14:58:39Z</time>
      </trkpt>
      <trkpt lat="43.73308" lon="6.6272">
        <ele>1021.3</ele>
        <time>2024-05-26T14:58:40Z</time>
      </trkpt>
      <trkpt lat="43.73309" lon="6.6272">
        <ele>1021.1</ele>
        <time>2024-05-26T14:58:41Z</time>
      </trkpt>
      <trkpt lat="43.7331" lon="6.62719">
        <ele>1020.8</ele>
        <time>2024-05-26T14:58:42Z</time>
      </trkpt>
      <trkpt lat="43.7331" lon="6.62718">
        <ele>1020.6</ele>
        <time>2024-05-26T14:58:43Z</time>
      </trkpt>
      <trkpt lat="43.73311" lon="6.62717">
        <ele>1020.4</ele>
        <time>2024-05-26T14:58:44Z</time>
      </trkpt>
      <trkpt lat="43.73311" lon="6.62716">
        <ele>1020.2</ele>
        <time>2024-05-26T14:58:45Z</time>
      </trkpt>
      <trkpt lat="43.73312" lon="6.62715">
        <ele>1020</ele>
        <time>2024-05-26T14:58:46Z</time>
      </trkpt>
      <trkpt lat="43.73312" lon="6.62715">
        <ele>1019.9</ele>
        <time>2024-05-26T14:58:47Z</time>
      </trkpt>
      <trkpt lat="43.73313" lon="6.62714">
        <ele>1019.7</ele>
        <time>2024-05-26T14:58:48Z</time>
      </trkpt>
      <trkpt lat="43.73314" lon="6.62713">
        <ele>1019.5</ele>
        <time>2024-05-26T14:58:49Z</time>
      </trkpt>
      <trkpt lat="43.73314" lon="6.62712">
        <ele>1019.3</ele>
        <time>2024-05-26T14:58:50Z</time>
      </trkpt>
      <trkpt lat="43.73315" lon="6.62711">
        <ele>1019.2</ele>
        <time>2024-05-26T14:58:51Z</time>
      </trkpt>
      <trkpt lat="43.73315" lon="6.6271">
        <ele>1019.1</ele>
        <time>2024-05-26T14:58:52Z</time>
      </trkpt>
      <trkpt lat="43.73316" lon="6.62708">
        <ele>1018.9</ele>
        <time>2024-05-26T14:58:53Z</time>
      </trkpt>
      <trkpt lat="43.73317" lon="6.62707">
        <ele>1018.7</ele>
        <time>2024-05-26T14:58:54Z</time>
      </trkpt>
      <trkpt lat="43.73317" lon="6.62706">
        <ele>1018.5</ele>
        <time>2024-05-26T14:58:55Z</time>
      </trkpt>
      <trkpt lat="43.73318" lon="6.62704">
        <ele>1018.3</ele>
        <time>2024-05-26T14:58:56Z</time>
      </trkpt>
      <trkpt lat="43.73319" lon="6.62703">
        <ele>1018.2</ele>
        <time>2024-05-26T14:58:57Z</time>
      </trkpt>
      <trkpt lat="43.73319" lon="6.62701">
        <ele>1018</ele>
        <time>2024-05-26T14:58:58Z</time>
      </trkpt>
      <trkpt lat="43.7332" lon="6.627">
        <ele>1018</ele>
        <time>2024-05-26T14:58:59Z</time>
      </trkpt>
      <trkpt lat="43.7332" lon="6.62699">
        <ele>1017.8</ele>
        <time>2024-05-26T14:59:00Z</time>
      </trkpt>
      <trkpt lat="43.73321" lon="6.62698">
        <ele>1017.8</ele>
        <time>2024-05-26T14:59:01Z</time>
      </trkpt>
      <trkpt lat="43.73321" lon="6.62697">
        <ele>1017.6</ele>
        <time>2024-05-26T14:59:02Z</time>
      </trkpt>
      <trkpt lat="43.73322" lon="6.62695">
        <ele>1017.4</ele>
        <time>2024-05-26T14:59:03Z</time>
      </trkpt>
      <trkpt lat="43.73322" lon="6.62694">
        <ele>1017.1</ele>
        <time>2024-05-26T14:59:04Z</time>
      </trkpt>
      <trkpt lat="43.73323" lon="6.62693">
        <ele>1017</ele>
        <time>2024-05-26T14:59:05Z</time>
      </trkpt>
      <trkpt lat="43.73323" lon="6.62692">
        <ele>1016.9</ele>
        <time>2024-05-26T14:59:06Z</time>
      </trkpt>
      <trkpt lat="43.73323" lon="6.6269">
        <ele>1016.9</ele>
        <time>2024-05-26T14:59:07Z</time>
      </trkpt>
      <trkpt lat="43.73324" lon="6.62689">
        <ele>1016.8</ele>
        <time>2024-05-26T14:59:08Z</time>
      </trkpt>
      <trkpt lat="43.73324" lon="6.62687">
        <ele>1016.7</ele>
        <time>2024-05-26T14:59:09Z</time>
      </trkpt>
      <trkpt lat="43.73325" lon="6.62686">
        <ele>1016.5</ele>
        <time>2024-05-26T14:59:10Z</time>
      </trkpt>
      <trkpt lat="43.73325" lon="6.62685">
        <ele>1016.4</ele>
        <time>2024-05-26T14:59:11Z</time>
      </trkpt>
      <trkpt lat="43.73326" lon="6.62683">
        <ele>1016.3</ele>
        <time>2024-05-26T14:59:12Z</time>
      </trkpt>
      <trkpt lat="43.73326" lon="6.62682">
        <ele>1016.2</ele>
        <time>2024-05-26T14:59:13Z</time>
      </trkpt>
      <trkpt lat="43.73327" lon="6.62681">
        <ele>1016</ele>
        <time>2024-05-26T14:59:14Z</time>
      </trkpt>
      <trkpt lat="43.73327" lon="6.62679">
        <ele>1015.8</ele>
        <time>2024-05-26T14:59:15Z</time>
      </trkpt>
      <trkpt lat="43.73328" lon="6.62678">
        <ele>1015.7</ele>
        <time>2024-05-26T14:59:16Z</time>
      </trkpt>
      <trkpt lat="43.73329" lon="6.62677">
        <ele>1015.6</ele>
        <time>2024-05-26T14:59:17Z</time>
      </trkpt>
      <trkpt lat="43.7333" lon="6.62677">
        <ele>1015.5</ele>
        <time>2024-05-26T14:59:18Z</time>
      </trkpt>
      <trkpt lat="43.73331" lon="6.62676">
        <ele>1015.5</ele>
        <time>2024-05-26T14:59:19Z</time>
      </trkpt>
      <trkpt lat="43.73332" lon="6.62675">
        <ele>1015.4</ele>
        <time>2024-05-26T14:59:20Z</time>
      </trkpt>
      <trkpt lat="43.73333" lon="6.62674">
        <ele>1015.3</ele>
        <time>2024-05-26T14:59:21Z</time>
      </trkpt>
      <trkpt lat="43.73335" lon="6.62674">
        <ele>1015.3</ele>
        <time>2024-05-26T14:59:22Z</time>
      </trkpt>
      <trkpt lat="43.73336" lon="6.62673">
        <ele>1015.2</ele>
        <time>2024-05-26T14:59:23Z</time>
      </trkpt>
      <trkpt lat="43.73337" lon="6.62673">
        <ele>1015.1</ele>
        <time>2024-05-26T14:59:24Z</time>
      </trkpt>
      <trkpt lat="43.73338" lon="6.62672">
        <ele>1015.1</ele>
        <time>2024-05-26T14:59:25Z</time>
      </trkpt>
      <trkpt lat="43.73339" lon="6.62671">
        <ele>1014.9</ele>
        <time>2024-05-26T14:59:26Z</time>
      </trkpt>
      <trkpt lat="43.7334" lon="6.6267">
        <ele>1014.9</ele>
        <time>2024-05-26T14:59:27Z</time>
      </trkpt>
      <trkpt lat="43.73341" lon="6.6267">
        <ele>1014.8</ele>
        <time>2024-05-26T14:59:28Z</time>
      </trkpt>
      <trkpt lat="43.73343" lon="6.62669">
        <ele>1014.7</ele>
        <time>2024-05-26T14:59:29Z</time>
      </trkpt>
      <trkpt lat="43.73344" lon="6.62668">
        <ele>1014.5</ele>
        <time>2024-05-26T14:59:30Z</time>
      </trkpt>
      <trkpt lat="43.73346" lon="6.62668">
        <ele>1014.4</ele>
        <time>2024-05-26T14:59:31Z</time>
      </trkpt>
      <trkpt lat="43.73347" lon="6.62667">
        <ele>1014.2</ele>
        <time>2024-05-26T14:59:32Z</time>
      </trkpt>
      <trkpt lat="43.73348" lon="6.62667">
        <ele>1014.1</ele>
        <time>2024-05-26T14:59:33Z</time>
      </trkpt>
      <trkpt lat="43.73349" lon="6.62667">
        <ele>1014</ele>
        <time>2024-05-26T14:59:34Z</time>
      </trkpt>
      <trkpt lat="43.7335" lon="6.62666">
        <ele>1013.9</ele>
        <time>2024-05-26T14:59:35Z</time>
      </trkpt>
      <trkpt lat="43.73351" lon="6.62665">
        <ele>1013.9</ele>
        <time>2024-05-26T14:59:36Z</time>
      </trkpt>
      <trkpt lat="43.73352" lon="6.62665">
        <ele>1013.9</ele>
        <time>2024-05-26T14:59:37Z</time>
      </trkpt>
      <trkpt lat="43.73353" lon="6.62664">
        <ele>1014</ele>
        <time>2024-05-26T14:59:38Z</time>
      </trkpt>
      <trkpt lat="43.73354" lon="6.62664">
        <ele>1014</ele>
        <time>2024-05-26T14:59:39Z</time>
      </trkpt>
      <trkpt lat="43.73355" lon="6.62663">
        <ele>1014</ele>
        <time>2024-05-26T14:59:40Z</time>
      </trkpt>
      <trkpt lat="43.73356" lon="6.62662">
        <ele>1013.9</ele>
        <time>2024-05-26T14:59:41Z</time>
      </trkpt>
      <trkpt lat="43.73357" lon="6.62662">
        <ele>1013.8</ele>
        <time>2024-05-26T14:59:42Z</time>
      </trkpt>
      <trkpt lat="43.73358" lon="6.62662">
        <ele>1013.7</ele>
        <time>2024-05-26T14:59:43Z</time>
      </trkpt>
      <trkpt lat="43.7336" lon="6.62661">
        <ele>1013.6</ele>
        <time>2024-05-26T14:59:44Z</time>
      </trkpt>
      <trkpt lat="43.73361" lon="6.6266">
        <ele>1013.5</ele>
        <time>2024-05-26T14:59:45Z</time>
      </trkpt>
      <trkpt lat="43.73362" lon="6.62659">
        <ele>1013.4</ele>
        <time>2024-05-26T14:59:46Z</time>
      </trkpt>
      <trkpt lat="43.73363" lon="6.62658">
        <ele>1013.2</ele>
        <time>2024-05-26T14:59:47Z</time>
      </trkpt>
      <trkpt lat="43.73363" lon="6.62658">
        <ele>1013.1</ele>
        <time>2024-05-26T14:59:48Z</time>
      </trkpt>
      <trkpt lat="43.73365" lon="6.62657">
        <ele>1012.9</ele>
        <time>2024-05-26T14:59:49Z</time>
      </trkpt>
      <trkpt lat="43.73366" lon="6.62657">
        <ele>1012.8</ele>
        <time>2024-05-26T14:59:50Z</time>
      </trkpt>
      <trkpt lat="43.73366" lon="6.62656">
        <ele>1012.6</ele>
        <time>2024-05-26T14:59:51Z</time>
      </trkpt>
      <trkpt lat="43.73367" lon="6.62656">
        <ele>1012.4</ele>
        <time>2024-05-26T14:59:52Z</time>
      </trkpt>
      <trkpt lat="43.73369" lon="6.62656">
        <ele>1012.2</ele>
        <time>2024-05-26T14:59:53Z</time>
      </trkpt>
      <trkpt lat="43.73369" lon="6.62655">
        <ele>1012.1</ele>
        <time>2024-05-26T14:59:54Z</time>
      </trkpt>
      <trkpt lat="43.7337" lon="6.62655">
        <ele>1012</ele>
        <time>2024-05-26T14:59:55Z</time>
      </trkpt>
      <trkpt lat="43.73371" lon="6.62654">
        <ele>1011.9</ele>
        <time>2024-05-26T14:59:56Z</time>
      </trkpt>
      <trkpt lat="43.73372" lon="6.62654">
        <ele>1011.8</ele>
        <time>2024-05-26T14:59:57Z</time>
      </trkpt>
      <trkpt lat="43.73373" lon="6.62654">
        <ele>1011.8</ele>
        <time>2024-05-26T14:59:58Z</time>
      </trkpt>
      <trkpt lat="43.73374" lon="6.62653">
        <ele>1011.8</ele>
        <time>2024-05-26T14:59:59Z</time>
      </trkpt>
      <trkpt lat="43.73375" lon="6.62652">
        <ele>1011.7</ele>
        <time>2024-05-26T15:00:00Z</time>
      </trkpt>
      <trkpt lat="43.73376" lon="6.62651">
        <ele>1011.7</ele>
        <time>2024-05-26T15:00:01Z</time>
      </trkpt>
      <trkpt lat="43.73377" lon="6.62651">
        <ele>1011.6</ele>
        <time>2024-05-26T15:00:02Z</time>
      </trkpt>
      <trkpt lat="43.73378" lon="6.6265">
        <ele>1011.6</ele>
        <time>2024-05-26T15:00:03Z</time>
      </trkpt>
      <trkpt lat="43.73378" lon="6.62649">
        <ele>1011.5</ele>
        <time>2024-05-26T15:00:04Z</time>
      </trkpt>
      <trkpt lat="43.73379" lon="6.62648">
        <ele>1011.3</ele>
        <time>2024-05-26T15:00:05Z</time>
      </trkpt>
      <trkpt lat="43.7338" lon="6.62647">
        <ele>1011.2</ele>
        <time>2024-05-26T15:00:06Z</time>
      </trkpt>
      <trkpt lat="43.73381" lon="6.62646">
        <ele>1011.1</ele>
        <time>2024-05-26T15:00:07Z</time>
      </trkpt>
      <trkpt lat="43.73382" lon="6.62646">
        <ele>1011</ele>
        <time>2024-05-26T15:00:08Z</time>
      </trkpt>
      <trkpt lat="43.73384" lon="6.62644">
        <ele>1010.9</ele>
        <time>2024-05-26T15:00:09Z</time>
      </trkpt>
      <trkpt lat="43.73385" lon="6.62643">
        <ele>1010.8</ele>
        <time>2024-05-26T15:00:10Z</time>
      </trkpt>
      <trkpt lat="43.73385" lon="6.62643">
        <ele>1010.7</ele>
        <time>2024-05-26T15:00:11Z</time>
      </trkpt>
      <trkpt lat="43.73386" lon="6.62642">
        <ele>1010.6</ele>
        <time>2024-05-26T15:00:12Z</time>
      </trkpt>
      <trkpt lat="43.73386" lon="6.62641">
        <ele>1010.5</ele>
        <time>2024-05-26T15:00:13Z</time>
      </trkpt>
      <trkpt lat="43.73387" lon="6.62639">
        <ele>1010.5</ele>
        <time>2024-05-26T15:00:14Z</time>
      </trkpt>
      <trkpt lat="43.73388" lon="6.62639">
        <ele>1010.4</ele>
        <time>2024-05-26T15:00:15Z</time>
      </trkpt>
      <trkpt lat="43.73389" lon="6.62638">
        <ele>1010.3</ele>
        <time>2024-05-26T15:00:16Z</time>
      </trkpt>
      <trkpt lat="43.73389" lon="6.62637">
        <ele>1010.2</ele>
        <time>2024-05-26T15:00:17Z</time>
      </trkpt>
      <trkpt lat="43.7339" lon="6.62636">
        <ele>1010.2</ele>
        <time>2024-05-26T15:00:18Z</time>
      </trkpt>
      <trkpt lat="43.7339" lon="6.62635">
        <ele>1010</ele>
        <time>2024-05-26T15:00:19Z</time>
      </trkpt>
      <trkpt lat="43.73391" lon="6.62634">
        <ele>1009.8</ele>
        <time>2024-05-26T15:00:20Z</time>
      </trkpt>
      <trkpt lat="43.73391" lon="6.62634">
        <ele>1009.7</ele>
        <time>2024-05-26T15:00:21Z</time>
      </trkpt>
      <trkpt lat="43.73391" lon="6.62634">
        <ele>1009.6</ele>
        <time>2024-05-26T15:00:22Z</time>
      </trkpt>
      <trkpt lat="43.73391" lon="6.62633">
        <ele>1009.6</ele>
        <time>2024-05-26T15:00:23Z</time>
      </trkpt>
      <trkpt lat="43.73391" lon="6.62633">
        <ele>1009.5</ele>
        <time>2024-05-26T15:00:24Z</time>
      </trkpt>
      <trkpt lat="43.73391" lon="6.62633">
        <ele>1009.5</ele>
        <time>2024-05-26T15:00:25Z</time>
      </trkpt>
      <trkpt lat="43.73392" lon="6.62633">
        <ele>1009.4</ele>
        <time>2024-05-26T15:00:26Z</time>
      </trkpt>
      <trkpt lat="43.73392" lon="6.62633">
        <ele>1009.4</ele>
        <time>2024-05-26T15:00:27Z</time>
      </trkpt>
      <trkpt lat="43.73392" lon="6.62633">
        <ele>1009.3</ele>
        <time>2024-05-26T15:00:28Z</time>
      </trkpt>
      <trkpt lat="43.73392" lon="6.62633">
        <ele>1009.2</ele>
        <time>2024-05-26T15:00:29Z</time>
      </trkpt>
      <trkpt lat="43.73392" lon="6.62633">
        <ele>1009.2</ele>
        <time>2024-05-26T15:00:30Z</time>
      </trkpt>
      <trkpt lat="43.73393" lon="6.62633">
        <ele>1009.2</ele>
        <time>2024-05-26T15:00:31Z</time>
      </trkpt>
      <trkpt lat="43.73393" lon="6.62633">
        <ele>1009.2</ele>
        <time>2024-05-26T15:00:32Z</time>
      </trkpt>
      <trkpt lat="43.73393" lon="6.62632">
        <ele>1009.3</ele>
        <time>2024-05-26T15:00:33Z</time>
      </trkpt>
      <trkpt lat="43.73393" lon="6.62631">
        <ele>1009.3</ele>
        <time>2024-05-26T15:00:34Z</time>
      </trkpt>
      <trkpt lat="43.73394" lon="6.6263">
        <ele>1009.3</ele>
        <time>2024-05-26T15:00:35Z</time>
      </trkpt>
      <trkpt lat="43.73394" lon="6.62629">
        <ele>1009.3</ele>
        <time>2024-05-26T15:00:36Z</time>
      </trkpt>
      <trkpt lat="43.73395" lon="6.62628">
        <ele>1009.2</ele>
        <time>2024-05-26T15:00:37Z</time>
      </trkpt>
      <trkpt lat="43.73396" lon="6.62627">
        <ele>1009.2</ele>
        <time>2024-05-26T15:00:38Z</time>
      </trkpt>
      <trkpt lat="43.73396" lon="6.62625">
        <ele>1009.1</ele>
        <time>2024-05-26T15:00:39Z</time>
      </trkpt>
      <trkpt lat="43.73397" lon="6.62624">
        <ele>1009</ele>
        <time>2024-05-26T15:00:40Z</time>
      </trkpt>
      <trkpt lat="43.73397" lon="6.62623">
        <ele>1008.9</ele>
        <time>2024-05-26T15:00:41Z</time>
      </trkpt>
      <trkpt lat="43.73397" lon="6.62621">
        <ele>1008.8</ele>
        <time>2024-05-26T15:00:42Z</time>
      </trkpt>
      <trkpt lat="43.73398" lon="6.6262">
        <ele>1008.7</ele>
        <time>2024-05-26T15:00:43Z</time>
      </trkpt>
      <trkpt lat="43.73398" lon="6.62618">
        <ele>1008.6</ele>
        <time>2024-05-26T15:00:44Z</time>
      </trkpt>
      <trkpt lat="43.73399" lon="6.62617">
        <ele>1008.6</ele>
        <time>2024-05-26T15:00:45Z</time>
      </trkpt>
      <trkpt lat="43.734" lon="6.62616">
        <ele>1008.4</ele>
        <time>2024-05-26T15:00:46Z</time>
      </trkpt>
      <trkpt lat="43.734" lon="6.62614">
        <ele>1008.3</ele>
        <time>2024-05-26T15:00:47Z</time>
      </trkpt>
      <trkpt lat="43.73401" lon="6.62613">
        <ele>1008.4</ele>
        <time>2024-05-26T15:00:48Z</time>
      </trkpt>
      <trkpt lat="43.73402" lon="6.62611">
        <ele>1008.3</ele>
        <time>2024-05-26T15:00:49Z</time>
      </trkpt>
      <trkpt lat="43.73402" lon="6.6261">
        <ele>1008.3</ele>
        <time>2024-05-26T15:00:50Z</time>
      </trkpt>
      <trkpt lat="43.73402" lon="6.62608">
        <ele>1008.2</ele>
        <time>2024-05-26T15:00:51Z</time>
      </trkpt>
      <trkpt lat="43.73402" lon="6.62607">
        <ele>1008.2</ele>
        <time>2024-05-26T15:00:52Z</time>
      </trkpt>
      <trkpt lat="43.73402" lon="6.62605">
        <ele>1008.1</ele>
        <time>2024-05-26T15:00:53Z</time>
      </trkpt>
      <trkpt lat="43.73402" lon="6.62604">
        <ele>1007.6</ele>
        <time>2024-05-26T15:00:54Z</time>
      </trkpt>
      <trkpt lat="43.73403" lon="6.62603">
        <ele>1007.7</ele>
        <time>2024-05-26T15:00:55Z</time>
      </trkpt>
      <trkpt lat="43.73402" lon="6.62601">
        <ele>1007.8</ele>
        <time>2024-05-26T15:00:56Z</time>
      </trkpt>
      <trkpt lat="43.73402" lon="6.62599">
        <ele>1007.8</ele>
        <time>2024-05-26T15:00:57Z</time>
      </trkpt>
      <trkpt lat="43.73402" lon="6.62597">
        <ele>1007.8</ele>
        <time>2024-05-26T15:00:58Z</time>
      </trkpt>
      <trkpt lat="43.73402" lon="6.62595">
        <ele>1007.7</ele>
        <time>2024-05-26T15:00:59Z</time>
      </trkpt>
      <trkpt lat="43.73402" lon="6.62594">
        <ele>1007.7</ele>
        <time>2024-05-26T15:01:00Z</time>
      </trkpt>
      <trkpt lat="43.73401" lon="6.62592">
        <ele>1007.6</ele>
        <time>2024-05-26T15:01:01Z</time>
      </trkpt>
      <trkpt lat="43.73401" lon="6.6259">
        <ele>1007.5</ele>
        <time>2024-05-26T15:01:02Z</time>
      </trkpt>
      <trkpt lat="43.734" lon="6.62589">
        <ele>1007.5</ele>
        <time>2024-05-26T15:01:03Z</time>
      </trkpt>
      <trkpt lat="43.734" lon="6.62587">
        <ele>1007.4</ele>
        <time>2024-05-26T15:01:04Z</time>
      </trkpt>
      <trkpt lat="43.734" lon="6.62586">
        <ele>1007.4</ele>
        <time>2024-05-26T15:01:05Z</time>
      </trkpt>
      <trkpt lat="43.734" lon="6.62584">
        <ele>1007.4</ele>
        <time>2024-05-26T15:01:06Z</time>
      </trkpt>
      <trkpt lat="43.734" lon="6.62583">
        <ele>1007.3</ele>
        <time>2024-05-26T15:01:07Z</time>
      </trkpt>
      <trkpt lat="43.73399" lon="6.62581">
        <ele>1007.3</ele>
        <time>2024-05-26T15:01:08Z</time>
      </trkpt>
      <trkpt lat="43.73399" lon="6.62579">
        <ele>1007.3</ele>
        <time>2024-05-26T15:01:09Z</time>
      </trkpt>
      <trkpt lat="43.73399" lon="6.62577">
        <ele>1007.2</ele>
        <time>2024-05-26T15:01:10Z</time>
      </trkpt>
      <trkpt lat="43.73398" lon="6.62575">
        <ele>1007.2</ele>
        <time>2024-05-26T15:01:11Z</time>
      </trkpt>
      <trkpt lat="43.73398" lon="6.62574">
        <ele>1007.1</ele>
        <time>2024-05-26T15:01:12Z</time>
      </trkpt>
      <trkpt lat="43.73397" lon="6.62572">
        <ele>1007</ele>
        <time>2024-05-26T15:01:13Z</time>
      </trkpt>
      <trkpt lat="43.73396" lon="6.62571">
        <ele>1007</ele>
        <time>2024-05-26T15:01:14Z</time>
      </trkpt>
      <trkpt lat="43.73396" lon="6.6257">
        <ele>1006.9</ele>
        <time>2024-05-26T15:01:15Z</time>
      </trkpt>
      <trkpt lat="43.73396" lon="6.62568">
        <ele>1006.9</ele>
        <time>2024-05-26T15:01:16Z</time>
      </trkpt>
      <trkpt lat="43.73396" lon="6.62567">
        <ele>1006.9</ele>
        <time>2024-05-26T15:01:17Z</time>
      </trkpt>
      <trkpt lat="43.73396" lon="6.62565">
        <ele>1006.8</ele>
        <time>2024-05-26T15:01:18Z</time>
      </trkpt>
      <trkpt lat="43.73396" lon="6.62564">
        <ele>1006.8</ele>
        <time>2024-05-26T15:01:19Z</time>
      </trkpt>
      <trkpt lat="43.73395" lon="6.62562">
        <ele>1006.8</ele>
        <time>2024-05-26T15:01:20Z</time>
      </trkpt>
      <trkpt lat="43.73395" lon="6.6256">
        <ele>1006.6</ele>
        <time>2024-05-26T15:01:21Z</time>
      </trkpt>
      <trkpt lat="43.73395" lon="6.62558">
        <ele>1006.5</ele>
        <time>2024-05-26T15:01:22Z</time>
      </trkpt>
      <trkpt lat="43.73395" lon="6.62557">
        <ele>1006.4</ele>
        <time>2024-05-26T15:01:23Z</time>
      </trkpt>
      <trkpt lat="43.73394" lon="6.62556">
        <ele>1006.3</ele>
        <time>2024-05-26T15:01:24Z</time>
      </trkpt>
      <trkpt lat="43.73394" lon="6.62554">
        <ele>1006.2</ele>
        <time>2024-05-26T15:01:25Z</time>
      </trkpt>
      <trkpt lat="43.73393" lon="6.62553">
        <ele>1006.2</ele>
        <time>2024-05-26T15:01:26Z</time>
      </trkpt>
      <trkpt lat="43.73393" lon="6.62552">
        <ele>1006.1</ele>
        <time>2024-05-26T15:01:27Z</time>
      </trkpt>
      <trkpt lat="43.73393" lon="6.6255">
        <ele>1006</ele>
        <time>2024-05-26T15:01:28Z</time>
      </trkpt>
      <trkpt lat="43.73393" lon="6.62549">
        <ele>1005.8</ele>
        <time>2024-05-26T15:01:29Z</time>
      </trkpt>
      <trkpt lat="43.73393" lon="6.62547">
        <ele>1005.7</ele>
        <time>2024-05-26T15:01:30Z</time>
      </trkpt>
      <trkpt lat="43.73393" lon="6.62546">
        <ele>1005.6</ele>
        <time>2024-05-26T15:01:31Z</time>
      </trkpt>
      <trkpt lat="43.73393" lon="6.62546">
        <ele>1005.5</ele>
        <time>2024-05-26T15:01:32Z</time>
      </trkpt>
      <trkpt lat="43.73393" lon="6.62545">
        <ele>1005.5</ele>
        <time>2024-05-26T15:01:33Z</time>
      </trkpt>
      <trkpt lat="43.73393" lon="6.62545">
        <ele>1005.4</ele>
        <time>2024-05-26T15:01:34Z</time>
      </trkpt>
      <trkpt lat="43.73393" lon="6.62544">
        <ele>1005.3</ele>
        <time>2024-05-26T15:01:35Z</time>
      </trkpt>
      <trkpt lat="43.73393" lon="6.62544">
        <ele>1005.2</ele>
        <time>2024-05-26T15:01:36Z</time>
      </trkpt>
      <trkpt lat="43.73393" lon="6.62543">
        <ele>1005.2</ele>
        <time>2024-05-26T15:01:37Z</time>
      </trkpt>
      <trkpt lat="43.73392" lon="6.62543">
        <ele>1005</ele>
        <time>2024-05-26T15:01:38Z</time>
      </trkpt>
      <trkpt lat="43.73391" lon="6.62542">
        <ele>1004.9</ele>
        <time>2024-05-26T15:01:39Z</time>
      </trkpt>
      <trkpt lat="43.7339" lon="6.62541">
        <ele>1004.7</ele>
        <time>2024-05-26T15:01:40Z</time>
      </trkpt>
      <trkpt lat="43.7339" lon="6.62539">
        <ele>1004.7</ele>
        <time>2024-05-26T15:01:41Z</time>
      </trkpt>
      <trkpt lat="43.7339" lon="6.62538">
        <ele>1004.5</ele>
        <time>2024-05-26T15:01:42Z</time>
      </trkpt>
      <trkpt lat="43.73389" lon="6.62535">
        <ele>1004.2</ele>
        <time>2024-05-26T15:01:43Z</time>
      </trkpt>
      <trkpt lat="43.73388" lon="6.62533">
        <ele>1004</ele>
        <time>2024-05-26T15:01:44Z</time>
      </trkpt>
      <trkpt lat="43.73388" lon="6.62532">
        <ele>1003.9</ele>
        <time>2024-05-26T15:01:45Z</time>
      </trkpt>
      <trkpt lat="43.73387" lon="6.62531">
        <ele>1003.7</ele>
        <time>2024-05-26T15:01:46Z</time>
      </trkpt>
      <trkpt lat="43.73387" lon="6.6253">
        <ele>1003.6</ele>
        <time>2024-05-26T15:01:47Z</time>
      </trkpt>
      <trkpt lat="43.73387" lon="6.62529">
        <ele>1003.5</ele>
        <time>2024-05-26T15:01:48Z</time>
      </trkpt>
      <trkpt lat="43.73386" lon="6.62528">
        <ele>1003.4</ele>
        <time>2024-05-26T15:01:49Z</time>
      </trkpt>
      <trkpt lat="43.73386" lon="6.62527">
        <ele>1003.3</ele>
        <time>2024-05-26T15:01:50Z</time>
      </trkpt>
      <trkpt lat="43.73385" lon="6.62526">
        <ele>1003.1</ele>
        <time>2024-05-26T15:01:51Z</time>
      </trkpt>
      <trkpt lat="43.73386" lon="6.62524">
        <ele>1003</ele>
        <time>2024-05-26T15:01:52Z</time>
      </trkpt>
      <trkpt lat="43.73385" lon="6.62522">
        <ele>1002.9</ele>
        <time>2024-05-26T15:01:53Z</time>
      </trkpt>
      <trkpt lat="43.73385" lon="6.62521">
        <ele>1002.7</ele>
        <time>2024-05-26T15:01:54Z</time>
      </trkpt>
      <trkpt lat="43.73386" lon="6.6252">
        <ele>1002.5</ele>
        <time>2024-05-26T15:01:55Z</time>
      </trkpt>
      <trkpt lat="43.73387" lon="6.62519">
        <ele>1002.3</ele>
        <time>2024-05-26T15:01:56Z</time>
      </trkpt>
      <trkpt lat="43.73387" lon="6.62517">
        <ele>1002.2</ele>
        <time>2024-05-26T15:01:57Z</time>
      </trkpt>
      <trkpt lat="43.73387" lon="6.62516">
        <ele>1002</ele>
        <time>2024-05-26T15:01:58Z</time>
      </trkpt>
      <trkpt lat="43.73388" lon="6.62516">
        <ele>1001.9</ele>
        <time>2024-05-26T15:01:59Z</time>
      </trkpt>
      <trkpt lat="43.73387" lon="6.62515">
        <ele>1001.7</ele>
        <time>2024-05-26T15:02:00Z</time>
      </trkpt>
      <trkpt lat="43.73388" lon="6.62515">
        <ele>1001.6</ele>
        <time>2024-05-26T15:02:01Z</time>
      </trkpt>
      <trkpt lat="43.73388" lon="6.62515">
        <ele>1001.5</ele>
        <time>2024-05-26T15:02:02Z</time>
      </trkpt>
      <trkpt lat="43.73388" lon="6.62515">
        <ele>1001.4</ele>
        <time>2024-05-26T15:02:03Z</time>
      </trkpt>
      <trkpt lat="43.73388" lon="6.62514">
        <ele>1001.4</ele>
        <time>2024-05-26T15:02:04Z</time>
      </trkpt>
      <trkpt lat="43.73389" lon="6.62514">
        <ele>1001.4</ele>
        <time>2024-05-26T15:02:05Z</time>
      </trkpt>
      <trkpt lat="43.73389" lon="6.62514">
        <ele>1001.4</ele>
        <time>2024-05-26T15:02:06Z</time>
      </trkpt>
      <trkpt lat="43.73389" lon="6.62514">
        <ele>1001.4</ele>
        <time>2024-05-26T15:02:07Z</time>
      </trkpt>
      <trkpt lat="43.73389" lon="6.62514">
        <ele>1001.4</ele>
        <time>2024-05-26T15:02:08Z</time>
      </trkpt>
      <trkpt lat="43.73389" lon="6.62514">
        <ele>1001.4</ele>
        <time>2024-05-26T15:02:09Z</time>
      </trkpt>
      <trkpt lat="43.7339" lon="6.62514">
        <ele>1001.4</ele>
        <time>2024-05-26T15:02:10Z</time>
      </trkpt>
      <trkpt lat="43.7339" lon="6.62515">
        <ele>1001.4</ele>
        <time>2024-05-26T15:02:11Z</time>
      </trkpt>
      <trkpt lat="43.7339" lon="6.62515">
        <ele>1001.5</ele>
        <time>2024-05-26T15:02:12Z</time>
      </trkpt>
      <trkpt lat="43.7339" lon="6.62515">
        <ele>1001.4</ele>
        <time>2024-05-26T15:02:13Z</time>
      </trkpt>
      <trkpt lat="43.7339" lon="6.62515">
        <ele>1001.4</ele>
        <time>2024-05-26T15:02:14Z</time>
      </trkpt>
      <trkpt lat="43.7339" lon="6.62514">
        <ele>1001.4</ele>
        <time>2024-05-26T15:02:15Z</time>
      </trkpt>
      <trkpt lat="43.73389" lon="6.62514">
        <ele>1001.4</ele>
        <time>2024-05-26T15:02:16Z</time>
      </trkpt>
      <trkpt lat="43.73389" lon="6.62514">
        <ele>1001.4</ele>
        <time>2024-05-26T15:02:17Z</time>
      </trkpt>
      <trkpt lat="43.7339" lon="6.62514">
        <ele>1001.4</ele>
        <time>2024-05-26T15:02:18Z</time>
      </trkpt>
      <trkpt lat="43.7339" lon="6.62514">
        <ele>1001.4</ele>
        <time>2024-05-26T15:02:19Z</time>
      </trkpt>
      <trkpt lat="43.7339" lon="6.62515">
        <ele>1001.4</ele>
        <time>2024-05-26T15:02:20Z</time>
      </trkpt>
      <trkpt lat="43.7339" lon="6.62515">
        <ele>1001.3</ele>
        <time>2024-05-26T15:02:21Z</time>
      </trkpt>
      <trkpt lat="43.7339" lon="6.62516">
        <ele>1001.3</ele>
        <time>2024-05-26T15:02:22Z</time>
      </trkpt>
      <trkpt lat="43.73391" lon="6.62516">
        <ele>1001.3</ele>
        <time>2024-05-26T15:02:23Z</time>
      </trkpt>
      <trkpt lat="43.73392" lon="6.62517">
        <ele>1001.2</ele>
        <time>2024-05-26T15:02:24Z</time>
      </trkpt>
      <trkpt lat="43.73393" lon="6.62517">
        <ele>1001.1</ele>
        <time>2024-05-26T15:02:25Z</time>
      </trkpt>
      <trkpt lat="43.73394" lon="6.62517">
        <ele>1000.9</ele>
        <time>2024-05-26T15:02:26Z</time>
      </trkpt>
      <trkpt lat="43.73395" lon="6.62516">
        <ele>1000.9</ele>
        <time>2024-05-26T15:02:27Z</time>
      </trkpt>
      <trkpt lat="43.73395" lon="6.62516">
        <ele>1000.8</ele>
        <time>2024-05-26T15:02:28Z</time>
      </trkpt>
      <trkpt lat="43.73396" lon="6.62515">
        <ele>1000.6</ele>
        <time>2024-05-26T15:02:29Z</time>
      </trkpt>
      <trkpt lat="43.73397" lon="6.62514">
        <ele>1000.5</ele>
        <time>2024-05-26T15:02:30Z</time>
      </trkpt>
      <trkpt lat="43.73397" lon="6.62514">
        <ele>1000.3</ele>
        <time>2024-05-26T15:02:31Z</time>
      </trkpt>
      <trkpt lat="43.73398" lon="6.62514">
        <ele>1000.2</ele>
        <time>2024-05-26T15:02:32Z</time>
      </trkpt>
      <trkpt lat="43.73399" lon="6.62514">
        <ele>1000</ele>
        <time>2024-05-26T15:02:33Z</time>
      </trkpt>
      <trkpt lat="43.734" lon="6.62513">
        <ele>999.9</ele>
        <time>2024-05-26T15:02:34Z</time>
      </trkpt>
      <trkpt lat="43.73401" lon="6.62512">
        <ele>999.8</ele>
        <time>2024-05-26T15:02:35Z</time>
      </trkpt>
      <trkpt lat="43.73402" lon="6.62512">
        <ele>999.7</ele>
        <time>2024-05-26T15:02:36Z</time>
      </trkpt>
      <trkpt lat="43.73403" lon="6.62511">
        <ele>999.6</ele>
        <time>2024-05-26T15:02:37Z</time>
      </trkpt>
      <trkpt lat="43.73404" lon="6.6251">
        <ele>999.5</ele>
        <time>2024-05-26T15:02:38Z</time>
      </trkpt>
      <trkpt lat="43.73405" lon="6.6251">
        <ele>999.4</ele>
        <time>2024-05-26T15:02:39Z</time>
      </trkpt>
      <trkpt lat="43.73405" lon="6.62509">
        <ele>999.3</ele>
        <time>2024-05-26T15:02:40Z</time>
      </trkpt>
      <trkpt lat="43.73406" lon="6.62509">
        <ele>999.3</ele>
        <time>2024-05-26T15:02:41Z</time>
      </trkpt>
      <trkpt lat="43.73407" lon="6.62509">
        <ele>999.3</ele>
        <time>2024-05-26T15:02:42Z</time>
      </trkpt>
      <trkpt lat="43.73408" lon="6.62508">
        <ele>999.2</ele>
        <time>2024-05-26T15:02:43Z</time>
      </trkpt>
      <trkpt lat="43.73409" lon="6.62508">
        <ele>999.1</ele>
        <time>2024-05-26T15:02:44Z</time>
      </trkpt>
      <trkpt lat="43.7341" lon="6.62506">
        <ele>999</ele>
        <time>2024-05-26T15:02:45Z</time>
      </trkpt>
      <trkpt lat="43.73411" lon="6.62506">
        <ele>998.9</ele>
        <time>2024-05-26T15:02:46Z</time>
      </trkpt>
      <trkpt lat="43.73412" lon="6.62505">
        <ele>998.8</ele>
        <time>2024-05-26T15:02:47Z</time>
      </trkpt>
      <trkpt lat="43.73413" lon="6.62505">
        <ele>998.7</ele>
        <time>2024-05-26T15:02:48Z</time>
      </trkpt>
      <trkpt lat="43.73414" lon="6.62504">
        <ele>998.6</ele>
        <time>2024-05-26T15:02:49Z</time>
      </trkpt>
      <trkpt lat="43.73415" lon="6.62503">
        <ele>998.5</ele>
        <time>2024-05-26T15:02:50Z</time>
      </trkpt>
      <trkpt lat="43.73416" lon="6.62503">
        <ele>998.4</ele>
        <time>2024-05-26T15:02:51Z</time>
      </trkpt>
      <trkpt lat="43.73416" lon="6.62503">
        <ele>998.3</ele>
        <time>2024-05-26T15:02:52Z</time>
      </trkpt>
      <trkpt lat="43.73417" lon="6.62503">
        <ele>998.2</ele>
        <time>2024-05-26T15:02:53Z</time>
      </trkpt>
      <trkpt lat="43.73416" lon="6.62501">
        <ele>998.1</ele>
        <time>2024-05-26T15:02:54Z</time>
      </trkpt>
      <trkpt lat="43.73417" lon="6.62501">
        <ele>998.1</ele>
        <time>2024-05-26T15:02:55Z</time>
      </trkpt>
      <trkpt lat="43.73418" lon="6.625">
        <ele>998</ele>
        <time>2024-05-26T15:02:56Z</time>
      </trkpt>
      <trkpt lat="43.73418" lon="6.62499">
        <ele>997.9</ele>
        <time>2024-05-26T15:02:57Z</time>
      </trkpt>
      <trkpt lat="43.73419" lon="6.62499">
        <ele>997.8</ele>
        <time>2024-05-26T15:02:58Z</time>
      </trkpt>
      <trkpt lat="43.73419" lon="6.62497">
        <ele>997.7</ele>
        <time>2024-05-26T15:02:59Z</time>
      </trkpt>
      <trkpt lat="43.7342" lon="6.62496">
        <ele>997.5</ele>
        <time>2024-05-26T15:03:00Z</time>
      </trkpt>
      <trkpt lat="43.7342" lon="6.62496">
        <ele>997.5</ele>
        <time>2024-05-26T15:03:01Z</time>
      </trkpt>
      <trkpt lat="43.73421" lon="6.62496">
        <ele>997.4</ele>
        <time>2024-05-26T15:03:02Z</time>
      </trkpt>
      <trkpt lat="43.73422" lon="6.62495">
        <ele>997.5</ele>
        <time>2024-05-26T15:03:03Z</time>
      </trkpt>
      <trkpt lat="43.73422" lon="6.62494">
        <ele>997.4</ele>
        <time>2024-05-26T15:03:04Z</time>
      </trkpt>
      <trkpt lat="43.73422" lon="6.62492">
        <ele>997.4</ele>
        <time>2024-05-26T15:03:05Z</time>
      </trkpt>
      <trkpt lat="43.73423" lon="6.62493">
        <ele>997.3</ele>
        <time>2024-05-26T15:03:06Z</time>
      </trkpt>
      <trkpt lat="43.73423" lon="6.62491">
        <ele>997.3</ele>
        <time>2024-05-26T15:03:07Z</time>
      </trkpt>
      <trkpt lat="43.73424" lon="6.62491">
        <ele>997.3</ele>
        <time>2024-05-26T15:03:08Z</time>
      </trkpt>
      <trkpt lat="43.73425" lon="6.62491">
        <ele>997.3</ele>
        <time>2024-05-26T15:03:09Z</time>
      </trkpt>
      <trkpt lat="43.73425" lon="6.62489">
        <ele>997.3</ele>
        <time>2024-05-26T15:03:10Z</time>
      </trkpt>
      <trkpt lat="43.73426" lon="6.62489">
        <ele>997.4</ele>
        <time>2024-05-26T15:03:11Z</time>
      </trkpt>
      <trkpt lat="43.73426" lon="6.62488">
        <ele>997.4</ele>
        <time>2024-05-26T15:03:12Z</time>
      </trkpt>
      <trkpt lat="43.73427" lon="6.62488">
        <ele>997.3</ele>
        <time>2024-05-26T15:03:13Z</time>
      </trkpt>
      <trkpt lat="43.73427" lon="6.62487">
        <ele>997.3</ele>
        <time>2024-05-26T15:03:14Z</time>
      </trkpt>
      <trkpt lat="43.73427" lon="6.62487">
        <ele>997.3</ele>
        <time>2024-05-26T15:03:15Z</time>
      </trkpt>
      <trkpt lat="43.73428" lon="6.62487">
        <ele>997.3</ele>
        <time>2024-05-26T15:03:16Z</time>
      </trkpt>
      <trkpt lat="43.73427" lon="6.62486">
        <ele>997.2</ele>
        <time>2024-05-26T15:03:17Z</time>
      </trkpt>
      <trkpt lat="43.73427" lon="6.62485">
        <ele>997.2</ele>
        <time>2024-05-26T15:03:18Z</time>
      </trkpt>
      <trkpt lat="43.73426" lon="6.62484">
        <ele>997.2</ele>
        <time>2024-05-26T15:03:19Z</time>
      </trkpt>
      <trkpt lat="43.73426" lon="6.62483">
        <ele>997.1</ele>
        <time>2024-05-26T15:03:20Z</time>
      </trkpt>
      <trkpt lat="43.73426" lon="6.62482">
        <ele>997</ele>
        <time>2024-05-26T15:03:21Z</time>
      </trkpt>
      <trkpt lat="43.73427" lon="6.6248">
        <ele>996.9</ele>
        <time>2024-05-26T15:03:22Z</time>
      </trkpt>
      <trkpt lat="43.73427" lon="6.62479">
        <ele>996.8</ele>
        <time>2024-05-26T15:03:23Z</time>
      </trkpt>
      <trkpt lat="43.73428" lon="6.62479">
        <ele>996.7</ele>
        <time>2024-05-26T15:03:24Z</time>
      </trkpt>
      <trkpt lat="43.73429" lon="6.62478">
        <ele>996.6</ele>
        <time>2024-05-26T15:03:25Z</time>
      </trkpt>
      <trkpt lat="43.73428" lon="6.62476">
        <ele>996.5</ele>
        <time>2024-05-26T15:03:26Z</time>
      </trkpt>
      <trkpt lat="43.73429" lon="6.62475">
        <ele>996.4</ele>
        <time>2024-05-26T15:03:27Z</time>
      </trkpt>
      <trkpt lat="43.73429" lon="6.62474">
        <ele>996.4</ele>
        <time>2024-05-26T15:03:28Z</time>
      </trkpt>
      <trkpt lat="43.73429" lon="6.62473">
        <ele>996.2</ele>
        <time>2024-05-26T15:03:29Z</time>
      </trkpt>
      <trkpt lat="43.73429" lon="6.62472">
        <ele>996.2</ele>
        <time>2024-05-26T15:03:30Z</time>
      </trkpt>
      <trkpt lat="43.73429" lon="6.62472">
        <ele>996.1</ele>
        <time>2024-05-26T15:03:31Z</time>
      </trkpt>
      <trkpt lat="43.73429" lon="6.62472">
        <ele>996</ele>
        <time>2024-05-26T15:03:32Z</time>
      </trkpt>
      <trkpt lat="43.73429" lon="6.62472">
        <ele>995.9</ele>
        <time>2024-05-26T15:03:33Z</time>
      </trkpt>
      <trkpt lat="43.73429" lon="6.62472">
        <ele>995.7</ele>
        <time>2024-05-26T15:03:34Z</time>
      </trkpt>
      <trkpt lat="43.73429" lon="6.62472">
        <ele>995.6</ele>
        <time>2024-05-26T15:03:35Z</time>
      </trkpt>
      <trkpt lat="43.7343" lon="6.62473">
        <ele>995.5</ele>
        <time>2024-05-26T15:03:36Z</time>
      </trkpt>
      <trkpt lat="43.7343" lon="6.62472">
        <ele>995.4</ele>
        <time>2024-05-26T15:03:37Z</time>
      </trkpt>
      <trkpt lat="43.7343" lon="6.62472">
        <ele>995.4</ele>
        <time>2024-05-26T15:03:38Z</time>
      </trkpt>
      <trkpt lat="43.7343" lon="6.62472">
        <ele>995.2</ele>
        <time>2024-05-26T15:03:39Z</time>
      </trkpt>
      <trkpt lat="43.73431" lon="6.62472">
        <ele>995.1</ele>
        <time>2024-05-26T15:03:40Z</time>
      </trkpt>
      <trkpt lat="43.73431" lon="6.6247">
        <ele>995</ele>
        <time>2024-05-26T15:03:41Z</time>
      </trkpt>
      <trkpt lat="43.73431" lon="6.62469">
        <ele>994.9</ele>
        <time>2024-05-26T15:03:42Z</time>
      </trkpt>
      <trkpt lat="43.73431" lon="6.62468">
        <ele>994.9</ele>
        <time>2024-05-26T15:03:43Z</time>
      </trkpt>
      <trkpt lat="43.73431" lon="6.62467">
        <ele>994.8</ele>
        <time>2024-05-26T15:03:44Z</time>
      </trkpt>
      <trkpt lat="43.73431" lon="6.62467">
        <ele>994.7</ele>
        <time>2024-05-26T15:03:45Z</time>
      </trkpt>
      <trkpt lat="43.7343" lon="6.62467">
        <ele>994.7</ele>
        <time>2024-05-26T15:03:46Z</time>
      </trkpt>
      <trkpt lat="43.7343" lon="6.62468">
        <ele>994.7</ele>
        <time>2024-05-26T15:03:47Z</time>
      </trkpt>
      <trkpt lat="43.7343" lon="6.62469">
        <ele>994.7</ele>
        <time>2024-05-26T15:03:48Z</time>
      </trkpt>
      <trkpt lat="43.7343" lon="6.62469">
        <ele>994.7</ele>
        <time>2024-05-26T15:03:49Z</time>
      </trkpt>
      <trkpt lat="43.73429" lon="6.62469">
        <ele>994.7</ele>
        <time>2024-05-26T15:03:50Z</time>
      </trkpt>
      <trkpt lat="43.73429" lon="6.62469">
        <ele>994.7</ele>
        <time>2024-05-26T15:03:51Z</time>
      </trkpt>
      <trkpt lat="43.73429" lon="6.62468">
        <ele>994.6</ele>
        <time>2024-05-26T15:03:52Z</time>
      </trkpt>
      <trkpt lat="43.73429" lon="6.62468">
        <ele>994.6</ele>
        <time>2024-05-26T15:03:53Z</time>
      </trkpt>
      <trkpt lat="43.73429" lon="6.62468">
        <ele>994.6</ele>
        <time>2024-05-26T15:03:54Z</time>
      </trkpt>
      <trkpt lat="43.73429" lon="6.62467">
        <ele>994.6</ele>
        <time>2024-05-26T15:03:55Z</time>
      </trkpt>
      <trkpt lat="43.73429" lon="6.62467">
        <ele>994.5</ele>
        <time>2024-05-26T15:03:56Z</time>
      </trkpt>
      <trkpt lat="43.73429" lon="6.62466">
        <ele>994.5</ele>
        <time>2024-05-26T15:03:57Z</time>
      </trkpt>
      <trkpt lat="43.73429" lon="6.62465">
        <ele>994.5</ele>
        <time>2024-05-26T15:03:58Z</time>
      </trkpt>
      <trkpt lat="43.73428" lon="6.62465">
        <ele>994.5</ele>
        <time>2024-05-26T15:03:59Z</time>
      </trkpt>
      <trkpt lat="43.73428" lon="6.62465">
        <ele>994.4</ele>
        <time>2024-05-26T15:04:00Z</time>
      </trkpt>
      <trkpt lat="43.73428" lon="6.62465">
        <ele>994.3</ele>
        <time>2024-05-26T15:04:01Z</time>
      </trkpt>
      <trkpt lat="43.73427" lon="6.62465">
        <ele>994.3</ele>
        <time>2024-05-26T15:04:02Z</time>
      </trkpt>
      <trkpt lat="43.73427" lon="6.62464">
        <ele>994.2</ele>
        <time>2024-05-26T15:04:03Z</time>
      </trkpt>
      <trkpt lat="43.73427" lon="6.62464">
        <ele>994.2</ele>
        <time>2024-05-26T15:04:04Z</time>
      </trkpt>
      <trkpt lat="43.73427" lon="6.62464">
        <ele>994.1</ele>
        <time>2024-05-26T15:04:05Z</time>
      </trkpt>
      <trkpt lat="43.73427" lon="6.62464">
        <ele>994.1</ele>
        <time>2024-05-26T15:04:06Z</time>
      </trkpt>
      <trkpt lat="43.73427" lon="6.62464">
        <ele>994</ele>
        <time>2024-05-26T15:04:07Z</time>
      </trkpt>
      <trkpt lat="43.73427" lon="6.62465">
        <ele>994.1</ele>
        <time>2024-05-26T15:04:08Z</time>
      </trkpt>
      <trkpt lat="43.73427" lon="6.62465">
        <ele>994.1</ele>
        <time>2024-05-26T15:04:09Z</time>
      </trkpt>
      <trkpt lat="43.73427" lon="6.62465">
        <ele>994.1</ele>
        <time>2024-05-26T15:04:10Z</time>
      </trkpt>
      <trkpt lat="43.73427" lon="6.62465">
        <ele>994.1</ele>
        <time>2024-05-26T15:04:11Z</time>
      </trkpt>
      <trkpt lat="43.73427" lon="6.62465">
        <ele>994.1</ele>
        <time>2024-05-26T15:04:12Z</time>
      </trkpt>
      <trkpt lat="43.73427" lon="6.62465">
        <ele>994.1</ele>
        <time>2024-05-26T15:04:13Z</time>
      </trkpt>
      <trkpt lat="43.73427" lon="6.62465">
        <ele>994.1</ele>
        <time>2024-05-26T15:04:14Z</time>
      </trkpt>
      <trkpt lat="43.73427" lon="6.62465">
        <ele>994.2</ele>
        <time>2024-05-26T15:04:15Z</time>
      </trkpt>
      <trkpt lat="43.73428" lon="6.62465">
        <ele>994.2</ele>
        <time>2024-05-26T15:04:16Z</time>
      </trkpt>
      <trkpt lat="43.73428" lon="6.62464">
        <ele>994.1</ele>
        <time>2024-05-26T15:04:17Z</time>
      </trkpt>
      <trkpt lat="43.73427" lon="6.62462">
        <ele>994</ele>
        <time>2024-05-26T15:04:18Z</time>
      </trkpt>
      <trkpt lat="43.73428" lon="6.62461">
        <ele>993.9</ele>
        <time>2024-05-26T15:04:19Z</time>
      </trkpt>
      <trkpt lat="43.73428" lon="6.62459">
        <ele>993.8</ele>
        <time>2024-05-26T15:04:20Z</time>
      </trkpt>
      <trkpt lat="43.73428" lon="6.62457">
        <ele>993.8</ele>
        <time>2024-05-26T15:04:21Z</time>
      </trkpt>
      <trkpt lat="43.73429" lon="6.62455">
        <ele>993.6</ele>
        <time>2024-05-26T15:04:22Z</time>
      </trkpt>
      <trkpt lat="43.73429" lon="6.62454">
        <ele>993.5</ele>
        <time>2024-05-26T15:04:23Z</time>
      </trkpt>
      <trkpt lat="43.73429" lon="6.62453">
        <ele>993.5</ele>
        <time>2024-05-26T15:04:24Z</time>
      </trkpt>
      <trkpt lat="43.7343" lon="6.62452">
        <ele>993.4</ele>
        <time>2024-05-26T15:04:25Z</time>
      </trkpt>
      <trkpt lat="43.7343" lon="6.62451">
        <ele>993.3</ele>
        <time>2024-05-26T15:04:26Z</time>
      </trkpt>
      <trkpt lat="43.7343" lon="6.62449">
        <ele>993.2</ele>
        <time>2024-05-26T15:04:27Z</time>
      </trkpt>
      <trkpt lat="43.7343" lon="6.62448">
        <ele>993</ele>
        <time>2024-05-26T15:04:28Z</time>
      </trkpt>
      <trkpt lat="43.7343" lon="6.62446">
        <ele>992.9</ele>
        <time>2024-05-26T15:04:29Z</time>
      </trkpt>
      <trkpt lat="43.7343" lon="6.62445">
        <ele>992.9</ele>
        <time>2024-05-26T15:04:30Z</time>
      </trkpt>
      <trkpt lat="43.7343" lon="6.62444">
        <ele>992.8</ele>
        <time>2024-05-26T15:04:31Z</time>
      </trkpt>
      <trkpt lat="43.73429" lon="6.62443">
        <ele>992.7</ele>
        <time>2024-05-26T15:04:32Z</time>
      </trkpt>
      <trkpt lat="43.73429" lon="6.62442">
        <ele>992.6</ele>
        <time>2024-05-26T15:04:33Z</time>
      </trkpt>
      <trkpt lat="43.73429" lon="6.62441">
        <ele>992.6</ele>
        <time>2024-05-26T15:04:34Z</time>
      </trkpt>
      <trkpt lat="43.73429" lon="6.62441">
        <ele>992.5</ele>
        <time>2024-05-26T15:04:35Z</time>
      </trkpt>
      <trkpt lat="43.73428" lon="6.6244">
        <ele>992.4</ele>
        <time>2024-05-26T15:04:36Z</time>
      </trkpt>
      <trkpt lat="43.73428" lon="6.62439">
        <ele>992.3</ele>
        <time>2024-05-26T15:04:37Z</time>
      </trkpt>
      <trkpt lat="43.73427" lon="6.62438">
        <ele>992.2</ele>
        <time>2024-05-26T15:04:38Z</time>
      </trkpt>
      <trkpt lat="43.73427" lon="6.62438">
        <ele>992.2</ele>
        <time>2024-05-26T15:04:39Z</time>
      </trkpt>
      <trkpt lat="43.73427" lon="6.62438">
        <ele>992.1</ele>
        <time>2024-05-26T15:04:40Z</time>
      </trkpt>
      <trkpt lat="43.73426" lon="6.62437">
        <ele>992</ele>
        <time>2024-05-26T15:04:41Z</time>
      </trkpt>
      <trkpt lat="43.73426" lon="6.62438">
        <ele>991.9</ele>
        <time>2024-05-26T15:04:42Z</time>
      </trkpt>
      <trkpt lat="43.73427" lon="6.62438">
        <ele>991.8</ele>
        <time>2024-05-26T15:04:43Z</time>
      </trkpt>
      <trkpt lat="43.73427" lon="6.62438">
        <ele>991.7</ele>
        <time>2024-05-26T15:04:44Z</time>
      </trkpt>
      <trkpt lat="43.73427" lon="6.62439">
        <ele>991.6</ele>
        <time>2024-05-26T15:04:45Z</time>
      </trkpt>
      <trkpt lat="43.73427" lon="6.62439">
        <ele>991.6</ele>
        <time>2024-05-26T15:04:46Z</time>
      </trkpt>
      <trkpt lat="43.73427" lon="6.62439">
        <ele>991.5</ele>
        <time>2024-05-26T15:04:47Z</time>
      </trkpt>
      <trkpt lat="43.73427" lon="6.62439">
        <ele>991.5</ele>
        <time>2024-05-26T15:04:48Z</time>
      </trkpt>
      <trkpt lat="43.73427" lon="6.62439">
        <ele>991.3</ele>
        <time>2024-05-26T15:04:49Z</time>
      </trkpt>
      <trkpt lat="43.73427" lon="6.62439">
        <ele>991.3</ele>
        <time>2024-05-26T15:04:50Z</time>
      </trkpt>
      <trkpt lat="43.73427" lon="6.62438">
        <ele>991.1</ele>
        <time>2024-05-26T15:04:51Z</time>
      </trkpt>
      <trkpt lat="43.73428" lon="6.62439">
        <ele>991.2</ele>
        <time>2024-05-26T15:04:52Z</time>
      </trkpt>
      <trkpt lat="43.73428" lon="6.62439">
        <ele>991.2</ele>
        <time>2024-05-26T15:04:53Z</time>
      </trkpt>
      <trkpt lat="43.73429" lon="6.62439">
        <ele>991.2</ele>
        <time>2024-05-26T15:04:54Z</time>
      </trkpt>
      <trkpt lat="43.73429" lon="6.6244">
        <ele>991.2</ele>
        <time>2024-05-26T15:04:55Z</time>
      </trkpt>
      <trkpt lat="43.73429" lon="6.6244">
        <ele>991.2</ele>
        <time>2024-05-26T15:04:56Z</time>
      </trkpt>
      <trkpt lat="43.73429" lon="6.6244">
        <ele>991.2</ele>
        <time>2024-05-26T15:04:57Z</time>
      </trkpt>
      <trkpt lat="43.73429" lon="6.6244">
        <ele>991.2</ele>
        <time>2024-05-26T15:04:58Z</time>
      </trkpt>
      <trkpt lat="43.73429" lon="6.6244">
        <ele>991.2</ele>
        <time>2024-05-26T15:04:59Z</time>
      </trkpt>
      <trkpt lat="43.73429" lon="6.62439">
        <ele>991.2</ele>
        <time>2024-05-26T15:05:00Z</time>
      </trkpt>
      <trkpt lat="43.7343" lon="6.62439">
        <ele>991.3</ele>
        <time>2024-05-26T15:05:01Z</time>
      </trkpt>
      <trkpt lat="43.7343" lon="6.6244">
        <ele>991.4</ele>
        <time>2024-05-26T15:05:02Z</time>
      </trkpt>
      <trkpt lat="43.7343" lon="6.6244">
        <ele>991.4</ele>
        <time>2024-05-26T15:05:03Z</time>
      </trkpt>
      <trkpt lat="43.7343" lon="6.6244">
        <ele>991.5</ele>
        <time>2024-05-26T15:05:04Z</time>
      </trkpt>
      <trkpt lat="43.7343" lon="6.6244">
        <ele>991.5</ele>
        <time>2024-05-26T15:05:05Z</time>
      </trkpt>
      <trkpt lat="43.7343" lon="6.6244">
        <ele>991.5</ele>
        <time>2024-05-26T15:05:06Z</time>
      </trkpt>
      <trkpt lat="43.7343" lon="6.6244">
        <ele>991.6</ele>
        <time>2024-05-26T15:05:07Z</time>
      </trkpt>
      <trkpt lat="43.7343" lon="6.6244">
        <ele>991.6</ele>
        <time>2024-05-26T15:05:08Z</time>
      </trkpt>
      <trkpt lat="43.73429" lon="6.62439">
        <ele>991.7</ele>
        <time>2024-05-26T15:05:09Z</time>
      </trkpt>
      <trkpt lat="43.73429" lon="6.62438">
        <ele>991.7</ele>
        <time>2024-05-26T15:05:10Z</time>
      </trkpt>
      <trkpt lat="43.73428" lon="6.62437">
        <ele>991.6</ele>
        <time>2024-05-26T15:05:11Z</time>
      </trkpt>
      <trkpt lat="43.73427" lon="6.62436">
        <ele>991.6</ele>
        <time>2024-05-26T15:05:12Z</time>
      </trkpt>
      <trkpt lat="43.73426" lon="6.62435">
        <ele>991.5</ele>
        <time>2024-05-26T15:05:13Z</time>
      </trkpt>
      <trkpt lat="43.73426" lon="6.62434">
        <ele>991.5</ele>
        <time>2024-05-26T15:05:14Z</time>
      </trkpt>
      <trkpt lat="43.73426" lon="6.62434">
        <ele>991.4</ele>
        <time>2024-05-26T15:05:15Z</time>
      </trkpt>
      <trkpt lat="43.73426" lon="6.62434">
        <ele>991.4</ele>
        <time>2024-05-26T15:05:16Z</time>
      </trkpt>
      <trkpt lat="43.73426" lon="6.62434">
        <ele>991.5</ele>
        <time>2024-05-26T15:05:17Z</time>
      </trkpt>
      <trkpt lat="43.73426" lon="6.62434">
        <ele>991.5</ele>
        <time>2024-05-26T15:05:18Z</time>
      </trkpt>
      <trkpt lat="43.73426" lon="6.62433">
        <ele>991.3</ele>
        <time>2024-05-26T15:05:19Z</time>
      </trkpt>
      <trkpt lat="43.73425" lon="6.62432">
        <ele>991.3</ele>
        <time>2024-05-26T15:05:20Z</time>
      </trkpt>
      <trkpt lat="43.73424" lon="6.62432">
        <ele>991.2</ele>
        <time>2024-05-26T15:05:21Z</time>
      </trkpt>
      <trkpt lat="43.73424" lon="6.62432">
        <ele>991.2</ele>
        <time>2024-05-26T15:05:22Z</time>
      </trkpt>
      <trkpt lat="43.73423" lon="6.6243">
        <ele>991.2</ele>
        <time>2024-05-26T15:05:23Z</time>
      </trkpt>
      <trkpt lat="43.73421" lon="6.62429">
        <ele>991.2</ele>
        <time>2024-05-26T15:05:24Z</time>
      </trkpt>
      <trkpt lat="43.7342" lon="6.62429">
        <ele>991.2</ele>
        <time>2024-05-26T15:05:25Z</time>
      </trkpt>
      <trkpt lat="43.73419" lon="6.62429">
        <ele>991.2</ele>
        <time>2024-05-26T15:05:26Z</time>
      </trkpt>
      <trkpt lat="43.73418" lon="6.62428">
        <ele>991.2</ele>
        <time>2024-05-26T15:05:27Z</time>
      </trkpt>
      <trkpt lat="43.73418" lon="6.62428">
        <ele>991.2</ele>
        <time>2024-05-26T15:05:28Z</time>
      </trkpt>
      <trkpt lat="43.73417" lon="6.62427">
        <ele>991.2</ele>
        <time>2024-05-26T15:05:29Z</time>
      </trkpt>
      <trkpt lat="43.73416" lon="6.62427">
        <ele>991.1</ele>
        <time>2024-05-26T15:05:30Z</time>
      </trkpt>
      <trkpt lat="43.73415" lon="6.62426">
        <ele>991.2</ele>
        <time>2024-05-26T15:05:31Z</time>
      </trkpt>
      <trkpt lat="43.73414" lon="6.62425">
        <ele>991</ele>
        <time>2024-05-26T15:05:32Z</time>
      </trkpt>
      <trkpt lat="43.73413" lon="6.62425">
        <ele>990.9</ele>
        <time>2024-05-26T15:05:33Z</time>
      </trkpt>
      <trkpt lat="43.73413" lon="6.62424">
        <ele>990.8</ele>
        <time>2024-05-26T15:05:34Z</time>
      </trkpt>
      <trkpt lat="43.73412" lon="6.62423">
        <ele>990.7</ele>
        <time>2024-05-26T15:05:35Z</time>
      </trkpt>
      <trkpt lat="43.73411" lon="6.62422">
        <ele>990.6</ele>
        <time>2024-05-26T15:05:36Z</time>
      </trkpt>
      <trkpt lat="43.7341" lon="6.62422">
        <ele>990.5</ele>
        <time>2024-05-26T15:05:37Z</time>
      </trkpt>
      <trkpt lat="43.7341" lon="6.6242">
        <ele>990.4</ele>
        <time>2024-05-26T15:05:38Z</time>
      </trkpt>
      <trkpt lat="43.73409" lon="6.62419">
        <ele>990.2</ele>
        <time>2024-05-26T15:05:39Z</time>
      </trkpt>
      <trkpt lat="43.73408" lon="6.62419">
        <ele>990.1</ele>
        <time>2024-05-26T15:05:40Z</time>
      </trkpt>
      <trkpt lat="43.73408" lon="6.62418">
        <ele>989.8</ele>
        <time>2024-05-26T15:05:41Z</time>
      </trkpt>
      <trkpt lat="43.73407" lon="6.62417">
        <ele>989.6</ele>
        <time>2024-05-26T15:05:42Z</time>
      </trkpt>
      <trkpt lat="43.73405" lon="6.62417">
        <ele>989.4</ele>
        <time>2024-05-26T15:05:43Z</time>
      </trkpt>
      <trkpt lat="43.73404" lon="6.62417">
        <ele>989.2</ele>
        <time>2024-05-26T15:05:44Z</time>
      </trkpt>
      <trkpt lat="43.73403" lon="6.62416">
        <ele>988.9</ele>
        <time>2024-05-26T15:05:45Z</time>
      </trkpt>
      <trkpt lat="43.73403" lon="6.62415">
        <ele>988.7</ele>
        <time>2024-05-26T15:05:46Z</time>
      </trkpt>
      <trkpt lat="43.73401" lon="6.62415">
        <ele>988.6</ele>
        <time>2024-05-26T15:05:47Z</time>
      </trkpt>
      <trkpt lat="43.734" lon="6.62414">
        <ele>988.4</ele>
        <time>2024-05-26T15:05:48Z</time>
      </trkpt>
      <trkpt lat="43.734" lon="6.62414">
        <ele>988.3</ele>
        <time>2024-05-26T15:05:49Z</time>
      </trkpt>
      <trkpt lat="43.734" lon="6.62414">
        <ele>988.3</ele>
        <time>2024-05-26T15:05:50Z</time>
      </trkpt>
      <trkpt lat="43.73399" lon="6.62414">
        <ele>988.2</ele>
        <time>2024-05-26T15:05:51Z</time>
      </trkpt>
      <trkpt lat="43.73398" lon="6.62413">
        <ele>988.2</ele>
        <time>2024-05-26T15:05:52Z</time>
      </trkpt>
      <trkpt lat="43.73398" lon="6.62413">
        <ele>988.1</ele>
        <time>2024-05-26T15:05:53Z</time>
      </trkpt>
      <trkpt lat="43.73398" lon="6.62412">
        <ele>988</ele>
        <time>2024-05-26T15:05:54Z</time>
      </trkpt>
      <trkpt lat="43.73397" lon="6.62412">
        <ele>988</ele>
        <time>2024-05-26T15:05:55Z</time>
      </trkpt>
      <trkpt lat="43.73396" lon="6.62413">
        <ele>988</ele>
        <time>2024-05-26T15:05:56Z</time>
      </trkpt>
      <trkpt lat="43.73395" lon="6.62412">
        <ele>987.9</ele>
        <time>2024-05-26T15:05:57Z</time>
      </trkpt>
      <trkpt lat="43.73394" lon="6.62413">
        <ele>987.8</ele>
        <time>2024-05-26T15:05:58Z</time>
      </trkpt>
      <trkpt lat="43.73393" lon="6.62413">
        <ele>987.6</ele>
        <time>2024-05-26T15:05:59Z</time>
      </trkpt>
      <trkpt lat="43.73392" lon="6.62414">
        <ele>987.5</ele>
        <time>2024-05-26T15:06:00Z</time>
      </trkpt>
      <trkpt lat="43.73392" lon="6.62415">
        <ele>987.3</ele>
        <time>2024-05-26T15:06:01Z</time>
      </trkpt>
      <trkpt lat="43.73392" lon="6.62415">
        <ele>987.2</ele>
        <time>2024-05-26T15:06:02Z</time>
      </trkpt>
      <trkpt lat="43.73392" lon="6.62414">
        <ele>987.1</ele>
        <time>2024-05-26T15:06:03Z</time>
      </trkpt>
      <trkpt lat="43.73391" lon="6.62415">
        <ele>987.1</ele>
        <time>2024-05-26T15:06:04Z</time>
      </trkpt>
      <trkpt lat="43.7339" lon="6.62415">
        <ele>986.9</ele>
        <time>2024-05-26T15:06:05Z</time>
      </trkpt>
      <trkpt lat="43.73389" lon="6.62415">
        <ele>986.8</ele>
        <time>2024-05-26T15:06:06Z</time>
      </trkpt>
      <trkpt lat="43.73388" lon="6.62415">
        <ele>986.7</ele>
        <time>2024-05-26T15:06:07Z</time>
      </trkpt>
      <trkpt lat="43.73387" lon="6.62415">
        <ele>986.5</ele>
        <time>2024-05-26T15:06:08Z</time>
      </trkpt>
      <trkpt lat="43.73386" lon="6.62415">
        <ele>986.3</ele>
        <time>2024-05-26T15:06:09Z</time>
      </trkpt>
      <trkpt lat="43.73385" lon="6.62415">
        <ele>986</ele>
        <time>2024-05-26T15:06:10Z</time>
      </trkpt>
      <trkpt lat="43.73385" lon="6.62415">
        <ele>985.9</ele>
        <time>2024-05-26T15:06:11Z</time>
      </trkpt>
      <trkpt lat="43.73384" lon="6.62415">
        <ele>985.7</ele>
        <time>2024-05-26T15:06:12Z</time>
      </trkpt>
      <trkpt lat="43.73383" lon="6.62415">
        <ele>985.8</ele>
        <time>2024-05-26T15:06:13Z</time>
      </trkpt>
      <trkpt lat="43.73382" lon="6.62415">
        <ele>985.8</ele>
        <time>2024-05-26T15:06:14Z</time>
      </trkpt>
      <trkpt lat="43.73381" lon="6.62416">
        <ele>985.8</ele>
        <time>2024-05-26T15:06:15Z</time>
      </trkpt>
      <trkpt lat="43.73381" lon="6.62416">
        <ele>985.6</ele>
        <time>2024-05-26T15:06:16Z</time>
      </trkpt>
      <trkpt lat="43.7338" lon="6.62415">
        <ele>985.6</ele>
        <time>2024-05-26T15:06:17Z</time>
      </trkpt>
      <trkpt lat="43.73379" lon="6.62416">
        <ele>985.5</ele>
        <time>2024-05-26T15:06:18Z</time>
      </trkpt>
      <trkpt lat="43.73378" lon="6.62416">
        <ele>985.4</ele>
        <time>2024-05-26T15:06:19Z</time>
      </trkpt>
      <trkpt lat="43.73378" lon="6.62418">
        <ele>985.3</ele>
        <time>2024-05-26T15:06:20Z</time>
      </trkpt>
      <trkpt lat="43.73377" lon="6.62418">
        <ele>985.1</ele>
        <time>2024-05-26T15:06:21Z</time>
      </trkpt>
      <trkpt lat="43.73376" lon="6.62419">
        <ele>984.9</ele>
        <time>2024-05-26T15:06:22Z</time>
      </trkpt>
      <trkpt lat="43.73376" lon="6.6242">
        <ele>984.7</ele>
        <time>2024-05-26T15:06:23Z</time>
      </trkpt>
      <trkpt lat="43.73375" lon="6.62421">
        <ele>984.5</ele>
        <time>2024-05-26T15:06:24Z</time>
      </trkpt>
      <trkpt lat="43.73374" lon="6.62422">
        <ele>984.6</ele>
        <time>2024-05-26T15:06:25Z</time>
      </trkpt>
      <trkpt lat="43.73373" lon="6.62423">
        <ele>984.6</ele>
        <time>2024-05-26T15:06:26Z</time>
      </trkpt>
      <trkpt lat="43.73373" lon="6.62423">
        <ele>984.5</ele>
        <time>2024-05-26T15:06:27Z</time>
      </trkpt>
      <trkpt lat="43.73372" lon="6.62424">
        <ele>984.4</ele>
        <time>2024-05-26T15:06:28Z</time>
      </trkpt>
      <trkpt lat="43.73372" lon="6.62425">
        <ele>984.3</ele>
        <time>2024-05-26T15:06:29Z</time>
      </trkpt>
      <trkpt lat="43.73372" lon="6.62426">
        <ele>984.2</ele>
        <time>2024-05-26T15:06:30Z</time>
      </trkpt>
      <trkpt lat="43.73371" lon="6.62426">
        <ele>984.1</ele>
        <time>2024-05-26T15:06:31Z</time>
      </trkpt>
      <trkpt lat="43.73371" lon="6.62427">
        <ele>983.9</ele>
        <time>2024-05-26T15:06:32Z</time>
      </trkpt>
      <trkpt lat="43.73371" lon="6.62428">
        <ele>983.8</ele>
        <time>2024-05-26T15:06:33Z</time>
      </trkpt>
      <trkpt lat="43.7337" lon="6.62428">
        <ele>983.7</ele>
        <time>2024-05-26T15:06:34Z</time>
      </trkpt>
      <trkpt lat="43.73369" lon="6.62429">
        <ele>983.7</ele>
        <time>2024-05-26T15:06:35Z</time>
      </trkpt>
      <trkpt lat="43.73368" lon="6.6243">
        <ele>983.7</ele>
        <time>2024-05-26T15:06:36Z</time>
      </trkpt>
      <trkpt lat="43.73367" lon="6.6243">
        <ele>983.7</ele>
        <time>2024-05-26T15:06:37Z</time>
      </trkpt>
      <trkpt lat="43.73367" lon="6.62431">
        <ele>983.7</ele>
        <time>2024-05-26T15:06:38Z</time>
      </trkpt>
      <trkpt lat="43.73366" lon="6.62433">
        <ele>983.7</ele>
        <time>2024-05-26T15:06:39Z</time>
      </trkpt>
      <trkpt lat="43.73366" lon="6.62434">
        <ele>983.7</ele>
        <time>2024-05-26T15:06:40Z</time>
      </trkpt>
      <trkpt lat="43.73365" lon="6.62435">
        <ele>983.6</ele>
        <time>2024-05-26T15:06:41Z</time>
      </trkpt>
      <trkpt lat="43.73364" lon="6.62436">
        <ele>983.5</ele>
        <time>2024-05-26T15:06:42Z</time>
      </trkpt>
      <trkpt lat="43.73363" lon="6.62437">
        <ele>983.5</ele>
        <time>2024-05-26T15:06:43Z</time>
      </trkpt>
      <trkpt lat="43.73363" lon="6.62438">
        <ele>983.4</ele>
        <time>2024-05-26T15:06:44Z</time>
      </trkpt>
      <trkpt lat="43.73362" lon="6.6244">
        <ele>983.4</ele>
        <time>2024-05-26T15:06:45Z</time>
      </trkpt>
      <trkpt lat="43.73362" lon="6.62441">
        <ele>983.5</ele>
        <time>2024-05-26T15:06:46Z</time>
      </trkpt>
      <trkpt lat="43.73361" lon="6.62442">
        <ele>983.6</ele>
        <time>2024-05-26T15:06:47Z</time>
      </trkpt>
      <trkpt lat="43.7336" lon="6.62444">
        <ele>983.8</ele>
        <time>2024-05-26T15:06:48Z</time>
      </trkpt>
      <trkpt lat="43.7336" lon="6.62445">
        <ele>984.1</ele>
        <time>2024-05-26T15:06:49Z</time>
      </trkpt>
      <trkpt lat="43.73359" lon="6.62445">
        <ele>984.3</ele>
        <time>2024-05-26T15:06:50Z</time>
      </trkpt>
      <trkpt lat="43.73359" lon="6.62447">
        <ele>984.4</ele>
        <time>2024-05-26T15:06:51Z</time>
      </trkpt>
      <trkpt lat="43.73358" lon="6.62448">
        <ele>984.5</ele>
        <time>2024-05-26T15:06:52Z</time>
      </trkpt>
      <trkpt lat="43.73358" lon="6.6245">
        <ele>984.6</ele>
        <time>2024-05-26T15:06:53Z</time>
      </trkpt>
      <trkpt lat="43.73358" lon="6.62451">
        <ele>984.8</ele>
        <time>2024-05-26T15:06:54Z</time>
      </trkpt>
      <trkpt lat="43.73357" lon="6.62452">
        <ele>984.9</ele>
        <time>2024-05-26T15:06:55Z</time>
      </trkpt>
      <trkpt lat="43.73357" lon="6.62454">
        <ele>985</ele>
        <time>2024-05-26T15:06:56Z</time>
      </trkpt>
      <trkpt lat="43.73356" lon="6.62455">
        <ele>985.1</ele>
        <time>2024-05-26T15:06:57Z</time>
      </trkpt>
      <trkpt lat="43.73355" lon="6.62456">
        <ele>985.1</ele>
        <time>2024-05-26T15:06:58Z</time>
      </trkpt>
      <trkpt lat="43.73355" lon="6.62457">
        <ele>985.2</ele>
        <time>2024-05-26T15:06:59Z</time>
      </trkpt>
      <trkpt lat="43.73355" lon="6.62457">
        <ele>985.3</ele>
        <time>2024-05-26T15:07:00Z</time>
      </trkpt>
      <trkpt lat="43.73355" lon="6.62458">
        <ele>985.4</ele>
        <time>2024-05-26T15:07:01Z</time>
      </trkpt>
      <trkpt lat="43.73354" lon="6.62458">
        <ele>985.4</ele>
        <time>2024-05-26T15:07:02Z</time>
      </trkpt>
      <trkpt lat="43.73354" lon="6.62459">
        <ele>985.5</ele>
        <time>2024-05-26T15:07:03Z</time>
      </trkpt>
      <trkpt lat="43.73353" lon="6.62461">
        <ele>985.6</ele>
        <time>2024-05-26T15:07:04Z</time>
      </trkpt>
      <trkpt lat="43.73353" lon="6.62463">
        <ele>985.8</ele>
        <time>2024-05-26T15:07:05Z</time>
      </trkpt>
      <trkpt lat="43.73352" lon="6.62464">
        <ele>985.9</ele>
        <time>2024-05-26T15:07:06Z</time>
      </trkpt>
      <trkpt lat="43.73352" lon="6.62465">
        <ele>986.1</ele>
        <time>2024-05-26T15:07:07Z</time>
      </trkpt>
      <trkpt lat="43.73352" lon="6.62467">
        <ele>986.2</ele>
        <time>2024-05-26T15:07:08Z</time>
      </trkpt>
      <trkpt lat="43.73351" lon="6.62468">
        <ele>986.4</ele>
        <time>2024-05-26T15:07:09Z</time>
      </trkpt>
      <trkpt lat="43.73351" lon="6.6247">
        <ele>986.5</ele>
        <time>2024-05-26T15:07:10Z</time>
      </trkpt>
      <trkpt lat="43.73351" lon="6.62471">
        <ele>986.6</ele>
        <time>2024-05-26T15:07:11Z</time>
      </trkpt>
      <trkpt lat="43.7335" lon="6.62473">
        <ele>986.8</ele>
        <time>2024-05-26T15:07:12Z</time>
      </trkpt>
      <trkpt lat="43.7335" lon="6.62474">
        <ele>986.9</ele>
        <time>2024-05-26T15:07:13Z</time>
      </trkpt>
      <trkpt lat="43.7335" lon="6.62476">
        <ele>987.1</ele>
        <time>2024-05-26T15:07:14Z</time>
      </trkpt>
      <trkpt lat="43.73349" lon="6.62476">
        <ele>987.2</ele>
        <time>2024-05-26T15:07:15Z</time>
      </trkpt>
      <trkpt lat="43.73349" lon="6.62477">
        <ele>987.4</ele>
        <time>2024-05-26T15:07:16Z</time>
      </trkpt>
      <trkpt lat="43.73348" lon="6.62479">
        <ele>987.5</ele>
        <time>2024-05-26T15:07:17Z</time>
      </trkpt>
      <trkpt lat="43.73348" lon="6.6248">
        <ele>987.6</ele>
        <time>2024-05-26T15:07:18Z</time>
      </trkpt>
      <trkpt lat="43.73348" lon="6.62482">
        <ele>987.7</ele>
        <time>2024-05-26T15:07:19Z</time>
      </trkpt>
      <trkpt lat="43.73348" lon="6.62483">
        <ele>987.8</ele>
        <time>2024-05-26T15:07:20Z</time>
      </trkpt>
      <trkpt lat="43.73347" lon="6.62484">
        <ele>987.7</ele>
        <time>2024-05-26T15:07:21Z</time>
      </trkpt>
      <trkpt lat="43.73346" lon="6.62486">
        <ele>987.6</ele>
        <time>2024-05-26T15:07:22Z</time>
      </trkpt>
      <trkpt lat="43.73345" lon="6.62486">
        <ele>987.6</ele>
        <time>2024-05-26T15:07:23Z</time>
      </trkpt>
      <trkpt lat="43.73344" lon="6.62487">
        <ele>987.5</ele>
        <time>2024-05-26T15:07:24Z</time>
      </trkpt>
      <trkpt lat="43.73342" lon="6.62487">
        <ele>987.5</ele>
        <time>2024-05-26T15:07:25Z</time>
      </trkpt>
      <trkpt lat="43.73341" lon="6.62488">
        <ele>987.5</ele>
        <time>2024-05-26T15:07:26Z</time>
      </trkpt>
      <trkpt lat="43.7334" lon="6.62489">
        <ele>987.4</ele>
        <time>2024-05-26T15:07:27Z</time>
      </trkpt>
      <trkpt lat="43.73339" lon="6.62489">
        <ele>987.3</ele>
        <time>2024-05-26T15:07:28Z</time>
      </trkpt>
      <trkpt lat="43.73338" lon="6.62489">
        <ele>987.3</ele>
        <time>2024-05-26T15:07:29Z</time>
      </trkpt>
      <trkpt lat="43.73336" lon="6.62489">
        <ele>987.2</ele>
        <time>2024-05-26T15:07:30Z</time>
      </trkpt>
      <trkpt lat="43.73336" lon="6.62489">
        <ele>987.2</ele>
        <time>2024-05-26T15:07:31Z</time>
      </trkpt>
      <trkpt lat="43.73335" lon="6.62489">
        <ele>987.2</ele>
        <time>2024-05-26T15:07:32Z</time>
      </trkpt>
      <trkpt lat="43.73334" lon="6.62489">
        <ele>987</ele>
        <time>2024-05-26T15:07:33Z</time>
      </trkpt>
      <trkpt lat="43.73333" lon="6.62488">
        <ele>986.9</ele>
        <time>2024-05-26T15:07:34Z</time>
      </trkpt>
      <trkpt lat="43.73333" lon="6.62487">
        <ele>986.8</ele>
        <time>2024-05-26T15:07:35Z</time>
      </trkpt>
      <trkpt lat="43.73332" lon="6.62486">
        <ele>986.7</ele>
        <time>2024-05-26T15:07:36Z</time>
      </trkpt>
      <trkpt lat="43.73332" lon="6.62484">
        <ele>986.5</ele>
        <time>2024-05-26T15:07:37Z</time>
      </trkpt>
      <trkpt lat="43.73331" lon="6.62483">
        <ele>986.3</ele>
        <time>2024-05-26T15:07:38Z</time>
      </trkpt>
      <trkpt lat="43.7333" lon="6.62481">
        <ele>986</ele>
        <time>2024-05-26T15:07:39Z</time>
      </trkpt>
      <trkpt lat="43.73329" lon="6.62481">
        <ele>985.9</ele>
        <time>2024-05-26T15:07:40Z</time>
      </trkpt>
      <trkpt lat="43.73329" lon="6.62479">
        <ele>985.6</ele>
        <time>2024-05-26T15:07:41Z</time>
      </trkpt>
      <trkpt lat="43.73329" lon="6.62479">
        <ele>985.3</ele>
        <time>2024-05-26T15:07:42Z</time>
      </trkpt>
      <trkpt lat="43.73328" lon="6.62477">
        <ele>985.1</ele>
        <time>2024-05-26T15:07:43Z</time>
      </trkpt>
      <trkpt lat="43.73328" lon="6.62476">
        <ele>984.9</ele>
        <time>2024-05-26T15:07:44Z</time>
      </trkpt>
      <trkpt lat="43.73327" lon="6.62475">
        <ele>984.6</ele>
        <time>2024-05-26T15:07:45Z</time>
      </trkpt>
      <trkpt lat="43.73327" lon="6.62475">
        <ele>984.4</ele>
        <time>2024-05-26T15:07:46Z</time>
      </trkpt>
      <trkpt lat="43.73327" lon="6.62475">
        <ele>984.1</ele>
        <time>2024-05-26T15:07:47Z</time>
      </trkpt>
      <trkpt lat="43.73326" lon="6.62474">
        <ele>983.8</ele>
        <time>2024-05-26T15:07:48Z</time>
      </trkpt>
      <trkpt lat="43.73326" lon="6.62473">
        <ele>983.6</ele>
        <time>2024-05-26T15:07:49Z</time>
      </trkpt>
      <trkpt lat="43.73326" lon="6.62473">
        <ele>983.4</ele>
        <time>2024-05-26T15:07:50Z</time>
      </trkpt>
      <trkpt lat="43.73326" lon="6.62473">
        <ele>983.1</ele>
        <time>2024-05-26T15:07:51Z</time>
      </trkpt>
      <trkpt lat="43.73325" lon="6.62472">
        <ele>982.9</ele>
        <time>2024-05-26T15:07:52Z</time>
      </trkpt>
      <trkpt lat="43.73325" lon="6.62471">
        <ele>982.6</ele>
        <time>2024-05-26T15:07:53Z</time>
      </trkpt>
      <trkpt lat="43.73324" lon="6.62471">
        <ele>982.4</ele>
        <time>2024-05-26T15:07:54Z</time>
      </trkpt>
      <trkpt lat="43.73324" lon="6.62469">
        <ele>982.1</ele>
        <time>2024-05-26T15:07:55Z</time>
      </trkpt>
      <trkpt lat="43.73324" lon="6.62468">
        <ele>981.9</ele>
        <time>2024-05-26T15:07:56Z</time>
      </trkpt>
      <trkpt lat="43.73324" lon="6.62467">
        <ele>981.6</ele>
        <time>2024-05-26T15:07:57Z</time>
      </trkpt>
      <trkpt lat="43.73323" lon="6.62466">
        <ele>981.4</ele>
        <time>2024-05-26T15:07:58Z</time>
      </trkpt>
      <trkpt lat="43.73323" lon="6.62464">
        <ele>981</ele>
        <time>2024-05-26T15:07:59Z</time>
      </trkpt>
      <trkpt lat="43.73322" lon="6.62462">
        <ele>980.8</ele>
        <time>2024-05-26T15:08:00Z</time>
      </trkpt>
      <trkpt lat="43.73322" lon="6.62461">
        <ele>980.5</ele>
        <time>2024-05-26T15:08:01Z</time>
      </trkpt>
      <trkpt lat="43.73321" lon="6.6246">
        <ele>980.3</ele>
        <time>2024-05-26T15:08:02Z</time>
      </trkpt>
      <trkpt lat="43.7332" lon="6.62459">
        <ele>980</ele>
        <time>2024-05-26T15:08:03Z</time>
      </trkpt>
      <trkpt lat="43.7332" lon="6.62458">
        <ele>979.8</ele>
        <time>2024-05-26T15:08:04Z</time>
      </trkpt>
      <trkpt lat="43.73319" lon="6.62458">
        <ele>979.7</ele>
        <time>2024-05-26T15:08:05Z</time>
      </trkpt>
      <trkpt lat="43.73319" lon="6.62457">
        <ele>979.6</ele>
        <time>2024-05-26T15:08:06Z</time>
      </trkpt>
      <trkpt lat="43.73318" lon="6.62456">
        <ele>979.4</ele>
        <time>2024-05-26T15:08:07Z</time>
      </trkpt>
      <trkpt lat="43.73318" lon="6.62456">
        <ele>979.3</ele>
        <time>2024-05-26T15:08:08Z</time>
      </trkpt>
      <trkpt lat="43.73317" lon="6.62455">
        <ele>979.2</ele>
        <time>2024-05-26T15:08:09Z</time>
      </trkpt>
      <trkpt lat="43.73316" lon="6.62454">
        <ele>978.9</ele>
        <time>2024-05-26T15:08:10Z</time>
      </trkpt>
      <trkpt lat="43.73316" lon="6.62453">
        <ele>978.9</ele>
        <time>2024-05-26T15:08:11Z</time>
      </trkpt>
      <trkpt lat="43.73315" lon="6.62452">
        <ele>978.7</ele>
        <time>2024-05-26T15:08:12Z</time>
      </trkpt>
      <trkpt lat="43.73313" lon="6.62449">
        <ele>978.7</ele>
        <time>2024-05-26T15:08:13Z</time>
      </trkpt>
      <trkpt lat="43.73313" lon="6.62447">
        <ele>978.7</ele>
        <time>2024-05-26T15:08:14Z</time>
      </trkpt>
      <trkpt lat="43.73313" lon="6.62446">
        <ele>978.7</ele>
        <time>2024-05-26T15:08:15Z</time>
      </trkpt>
      <trkpt lat="43.73312" lon="6.62445">
        <ele>978.5</ele>
        <time>2024-05-26T15:08:16Z</time>
      </trkpt>
      <trkpt lat="43.73312" lon="6.62443">
        <ele>978.3</ele>
        <time>2024-05-26T15:08:17Z</time>
      </trkpt>
      <trkpt lat="43.73312" lon="6.62442">
        <ele>978.2</ele>
        <time>2024-05-26T15:08:18Z</time>
      </trkpt>
      <trkpt lat="43.73312" lon="6.62441">
        <ele>978</ele>
        <time>2024-05-26T15:08:19Z</time>
      </trkpt>
      <trkpt lat="43.73312" lon="6.62439">
        <ele>977.8</ele>
        <time>2024-05-26T15:08:20Z</time>
      </trkpt>
      <trkpt lat="43.73311" lon="6.62437">
        <ele>977.6</ele>
        <time>2024-05-26T15:08:21Z</time>
      </trkpt>
      <trkpt lat="43.73311" lon="6.62435">
        <ele>977.4</ele>
        <time>2024-05-26T15:08:22Z</time>
      </trkpt>
      <trkpt lat="43.7331" lon="6.62433">
        <ele>977</ele>
        <time>2024-05-26T15:08:23Z</time>
      </trkpt>
      <trkpt lat="43.73309" lon="6.62432">
        <ele>976.9</ele>
        <time>2024-05-26T15:08:24Z</time>
      </trkpt>
      <trkpt lat="43.73309" lon="6.6243">
        <ele>976.6</ele>
        <time>2024-05-26T15:08:25Z</time>
      </trkpt>
      <trkpt lat="43.73309" lon="6.62428">
        <ele>976.3</ele>
        <time>2024-05-26T15:08:26Z</time>
      </trkpt>
      <trkpt lat="43.73309" lon="6.62426">
        <ele>976.1</ele>
        <time>2024-05-26T15:08:27Z</time>
      </trkpt>
      <trkpt lat="43.73308" lon="6.62424">
        <ele>975.9</ele>
        <time>2024-05-26T15:08:28Z</time>
      </trkpt>
      <trkpt lat="43.73307" lon="6.62423">
        <ele>975.7</ele>
        <time>2024-05-26T15:08:29Z</time>
      </trkpt>
      <trkpt lat="43.73306" lon="6.62421">
        <ele>975.4</ele>
        <time>2024-05-26T15:08:30Z</time>
      </trkpt>
      <trkpt lat="43.73305" lon="6.6242">
        <ele>975.1</ele>
        <time>2024-05-26T15:08:31Z</time>
      </trkpt>
      <trkpt lat="43.73304" lon="6.62419">
        <ele>974.8</ele>
        <time>2024-05-26T15:08:32Z</time>
      </trkpt>
      <trkpt lat="43.73304" lon="6.62419">
        <ele>974.5</ele>
        <time>2024-05-26T15:08:33Z</time>
      </trkpt>
      <trkpt lat="43.73303" lon="6.62417">
        <ele>974.3</ele>
        <time>2024-05-26T15:08:34Z</time>
      </trkpt>
      <trkpt lat="43.73303" lon="6.62414">
        <ele>974.1</ele>
        <time>2024-05-26T15:08:35Z</time>
      </trkpt>
      <trkpt lat="43.73303" lon="6.62412">
        <ele>973.9</ele>
        <time>2024-05-26T15:08:36Z</time>
      </trkpt>
      <trkpt lat="43.73303" lon="6.62411">
        <ele>973.7</ele>
        <time>2024-05-26T15:08:37Z</time>
      </trkpt>
      <trkpt lat="43.73303" lon="6.6241">
        <ele>973.4</ele>
        <time>2024-05-26T15:08:38Z</time>
      </trkpt>
      <trkpt lat="43.73302" lon="6.62409">
        <ele>973.1</ele>
        <time>2024-05-26T15:08:39Z</time>
      </trkpt>
      <trkpt lat="43.73302" lon="6.62408">
        <ele>972.9</ele>
        <time>2024-05-26T15:08:40Z</time>
      </trkpt>
      <trkpt lat="43.73301" lon="6.62406">
        <ele>972.7</ele>
        <time>2024-05-26T15:08:41Z</time>
      </trkpt>
      <trkpt lat="43.733" lon="6.62405">
        <ele>972.4</ele>
        <time>2024-05-26T15:08:42Z</time>
      </trkpt>
      <trkpt lat="43.733" lon="6.62404">
        <ele>972.1</ele>
        <time>2024-05-26T15:08:43Z</time>
      </trkpt>
      <trkpt lat="43.73299" lon="6.62402">
        <ele>971.9</ele>
        <time>2024-05-26T15:08:44Z</time>
      </trkpt>
      <trkpt lat="43.73299" lon="6.624">
        <ele>971.8</ele>
        <time>2024-05-26T15:08:45Z</time>
      </trkpt>
      <trkpt lat="43.73298" lon="6.62399">
        <ele>971.5</ele>
        <time>2024-05-26T15:08:46Z</time>
      </trkpt>
      <trkpt lat="43.73297" lon="6.62397">
        <ele>971.2</ele>
        <time>2024-05-26T15:08:47Z</time>
      </trkpt>
      <trkpt lat="43.73296" lon="6.62395">
        <ele>970.9</ele>
        <time>2024-05-26T15:08:48Z</time>
      </trkpt>
      <trkpt lat="43.73295" lon="6.62394">
        <ele>970.6</ele>
        <time>2024-05-26T15:08:49Z</time>
      </trkpt>
      <trkpt lat="43.73294" lon="6.62392">
        <ele>970.3</ele>
        <time>2024-05-26T15:08:50Z</time>
      </trkpt>
      <trkpt lat="43.73292" lon="6.6239">
        <ele>969.9</ele>
        <time>2024-05-26T15:08:51Z</time>
      </trkpt>
      <trkpt lat="43.73291" lon="6.62389">
        <ele>969.6</ele>
        <time>2024-05-26T15:08:52Z</time>
      </trkpt>
      <trkpt lat="43.73291" lon="6.62387">
        <ele>969.3</ele>
        <time>2024-05-26T15:08:53Z</time>
      </trkpt>
      <trkpt lat="43.7329" lon="6.62385">
        <ele>969</ele>
        <time>2024-05-26T15:08:54Z</time>
      </trkpt>
      <trkpt lat="43.7329" lon="6.62383">
        <ele>968.8</ele>
        <time>2024-05-26T15:08:55Z</time>
      </trkpt>
      <trkpt lat="43.73289" lon="6.62382">
        <ele>968.4</ele>
        <time>2024-05-26T15:08:56Z</time>
      </trkpt>
      <trkpt lat="43.73289" lon="6.62381">
        <ele>968.1</ele>
        <time>2024-05-26T15:08:57Z</time>
      </trkpt>
      <trkpt lat="43.73288" lon="6.6238">
        <ele>967.8</ele>
        <time>2024-05-26T15:08:58Z</time>
      </trkpt>
      <trkpt lat="43.73287" lon="6.62378">
        <ele>967.5</ele>
        <time>2024-05-26T15:08:59Z</time>
      </trkpt>
      <trkpt lat="43.73287" lon="6.62377">
        <ele>967.4</ele>
        <time>2024-05-26T15:09:00Z</time>
      </trkpt>
      <trkpt lat="43.73286" lon="6.62375">
        <ele>966.9</ele>
        <time>2024-05-26T15:09:01Z</time>
      </trkpt>
      <trkpt lat="43.73285" lon="6.62373">
        <ele>966.5</ele>
        <time>2024-05-26T15:09:02Z</time>
      </trkpt>
      <trkpt lat="43.73284" lon="6.62371">
        <ele>966.1</ele>
        <time>2024-05-26T15:09:03Z</time>
      </trkpt>
      <trkpt lat="43.73284" lon="6.6237">
        <ele>965.8</ele>
        <time>2024-05-26T15:09:04Z</time>
      </trkpt>
      <trkpt lat="43.73283" lon="6.62368">
        <ele>965.5</ele>
        <time>2024-05-26T15:09:05Z</time>
      </trkpt>
      <trkpt lat="43.73283" lon="6.62366">
        <ele>965.1</ele>
        <time>2024-05-26T15:09:06Z</time>
      </trkpt>
      <trkpt lat="43.73282" lon="6.62364">
        <ele>964.8</ele>
        <time>2024-05-26T15:09:07Z</time>
      </trkpt>
      <trkpt lat="43.73282" lon="6.62363">
        <ele>964.6</ele>
        <time>2024-05-26T15:09:08Z</time>
      </trkpt>
      <trkpt lat="43.73281" lon="6.62362">
        <ele>964.2</ele>
        <time>2024-05-26T15:09:09Z</time>
      </trkpt>
      <trkpt lat="43.7328" lon="6.6236">
        <ele>963.9</ele>
        <time>2024-05-26T15:09:10Z</time>
      </trkpt>
      <trkpt lat="43.7328" lon="6.62359">
        <ele>963.7</ele>
        <time>2024-05-26T15:09:11Z</time>
      </trkpt>
      <trkpt lat="43.73279" lon="6.62357">
        <ele>963.4</ele>
        <time>2024-05-26T15:09:12Z</time>
      </trkpt>
      <trkpt lat="43.73278" lon="6.62356">
        <ele>963</ele>
        <time>2024-05-26T15:09:13Z</time>
      </trkpt>
      <trkpt lat="43.73278" lon="6.62354">
        <ele>962.6</ele>
        <time>2024-05-26T15:09:14Z</time>
      </trkpt>
      <trkpt lat="43.73277" lon="6.62352">
        <ele>962.3</ele>
        <time>2024-05-26T15:09:15Z</time>
      </trkpt>
      <trkpt lat="43.73276" lon="6.62351">
        <ele>962.1</ele>
        <time>2024-05-26T15:09:16Z</time>
      </trkpt>
      <trkpt lat="43.73275" lon="6.62349">
        <ele>961.7</ele>
        <time>2024-05-26T15:09:17Z</time>
      </trkpt>
      <trkpt lat="43.73274" lon="6.62348">
        <ele>961.4</ele>
        <time>2024-05-26T15:09:18Z</time>
      </trkpt>
      <trkpt lat="43.73273" lon="6.62346">
        <ele>961.2</ele>
        <time>2024-05-26T15:09:19Z</time>
      </trkpt>
      <trkpt lat="43.73273" lon="6.62345">
        <ele>960.9</ele>
        <time>2024-05-26T15:09:20Z</time>
      </trkpt>
      <trkpt lat="43.73272" lon="6.62344">
        <ele>960.7</ele>
        <time>2024-05-26T15:09:21Z</time>
      </trkpt>
      <trkpt lat="43.73272" lon="6.62343">
        <ele>960.5</ele>
        <time>2024-05-26T15:09:22Z</time>
      </trkpt>
      <trkpt lat="43.73272" lon="6.62343">
        <ele>960.3</ele>
        <time>2024-05-26T15:09:23Z</time>
      </trkpt>
      <trkpt lat="43.73271" lon="6.62342">
        <ele>960.1</ele>
        <time>2024-05-26T15:09:24Z</time>
      </trkpt>
      <trkpt lat="43.73271" lon="6.62341">
        <ele>959.9</ele>
        <time>2024-05-26T15:09:25Z</time>
      </trkpt>
      <trkpt lat="43.73271" lon="6.6234">
        <ele>959.7</ele>
        <time>2024-05-26T15:09:26Z</time>
      </trkpt>
      <trkpt lat="43.7327" lon="6.62339">
        <ele>959.5</ele>
        <time>2024-05-26T15:09:27Z</time>
      </trkpt>
      <trkpt lat="43.7327" lon="6.62338">
        <ele>959.3</ele>
        <time>2024-05-26T15:09:28Z</time>
      </trkpt>
      <trkpt lat="43.73269" lon="6.62337">
        <ele>959.1</ele>
        <time>2024-05-26T15:09:29Z</time>
      </trkpt>
      <trkpt lat="43.73269" lon="6.62336">
        <ele>958.9</ele>
        <time>2024-05-26T15:09:30Z</time>
      </trkpt>
      <trkpt lat="43.73268" lon="6.62335">
        <ele>958.6</ele>
        <time>2024-05-26T15:09:31Z</time>
      </trkpt>
      <trkpt lat="43.73268" lon="6.62334">
        <ele>958.4</ele>
        <time>2024-05-26T15:09:32Z</time>
      </trkpt>
      <trkpt lat="43.73267" lon="6.62332">
        <ele>958.2</ele>
        <time>2024-05-26T15:09:33Z</time>
      </trkpt>
      <trkpt lat="43.73266" lon="6.62331">
        <ele>958</ele>
        <time>2024-05-26T15:09:34Z</time>
      </trkpt>
      <trkpt lat="43.73265" lon="6.6233">
        <ele>957.8</ele>
        <time>2024-05-26T15:09:35Z</time>
      </trkpt>
      <trkpt lat="43.73265" lon="6.62329">
        <ele>957.6</ele>
        <time>2024-05-26T15:09:36Z</time>
      </trkpt>
      <trkpt lat="43.73264" lon="6.62327">
        <ele>957.3</ele>
        <time>2024-05-26T15:09:37Z</time>
      </trkpt>
      <trkpt lat="43.73264" lon="6.62326">
        <ele>957.1</ele>
        <time>2024-05-26T15:09:38Z</time>
      </trkpt>
      <trkpt lat="43.73263" lon="6.62324">
        <ele>956.9</ele>
        <time>2024-05-26T15:09:39Z</time>
      </trkpt>
      <trkpt lat="43.73262" lon="6.62323">
        <ele>956.7</ele>
        <time>2024-05-26T15:09:40Z</time>
      </trkpt>
      <trkpt lat="43.73261" lon="6.62322">
        <ele>956.6</ele>
        <time>2024-05-26T15:09:41Z</time>
      </trkpt>
      <trkpt lat="43.7326" lon="6.62321">
        <ele>956.5</ele>
        <time>2024-05-26T15:09:42Z</time>
      </trkpt>
      <trkpt lat="43.7326" lon="6.6232">
        <ele>956.3</ele>
        <time>2024-05-26T15:09:43Z</time>
      </trkpt>
      <trkpt lat="43.73259" lon="6.62319">
        <ele>956.2</ele>
        <time>2024-05-26T15:09:44Z</time>
      </trkpt>
      <trkpt lat="43.73258" lon="6.62318">
        <ele>956</ele>
        <time>2024-05-26T15:09:45Z</time>
      </trkpt>
      <trkpt lat="43.73257" lon="6.62317">
        <ele>956</ele>
        <time>2024-05-26T15:09:46Z</time>
      </trkpt>
      <trkpt lat="43.73257" lon="6.62316">
        <ele>955.9</ele>
        <time>2024-05-26T15:09:47Z</time>
      </trkpt>
      <trkpt lat="43.73256" lon="6.62315">
        <ele>955.7</ele>
        <time>2024-05-26T15:09:48Z</time>
      </trkpt>
      <trkpt lat="43.73255" lon="6.62313">
        <ele>955.6</ele>
        <time>2024-05-26T15:09:49Z</time>
      </trkpt>
      <trkpt lat="43.73255" lon="6.62312">
        <ele>955.5</ele>
        <time>2024-05-26T15:09:50Z</time>
      </trkpt>
      <trkpt lat="43.73253" lon="6.6231">
        <ele>955.4</ele>
        <time>2024-05-26T15:09:51Z</time>
      </trkpt>
      <trkpt lat="43.73253" lon="6.62309">
        <ele>955.3</ele>
        <time>2024-05-26T15:09:52Z</time>
      </trkpt>
      <trkpt lat="43.73252" lon="6.62307">
        <ele>955.2</ele>
        <time>2024-05-26T15:09:53Z</time>
      </trkpt>
      <trkpt lat="43.73251" lon="6.62305">
        <ele>955.1</ele>
        <time>2024-05-26T15:09:54Z</time>
      </trkpt>
      <trkpt lat="43.7325" lon="6.62304">
        <ele>955.1</ele>
        <time>2024-05-26T15:09:55Z</time>
      </trkpt>
      <trkpt lat="43.73249" lon="6.62302">
        <ele>955</ele>
        <time>2024-05-26T15:09:56Z</time>
      </trkpt>
      <trkpt lat="43.73248" lon="6.62301">
        <ele>954.9</ele>
        <time>2024-05-26T15:09:57Z</time>
      </trkpt>
      <trkpt lat="43.73248" lon="6.623">
        <ele>954.9</ele>
        <time>2024-05-26T15:09:58Z</time>
      </trkpt>
      <trkpt lat="43.73247" lon="6.62299">
        <ele>954.8</ele>
        <time>2024-05-26T15:09:59Z</time>
      </trkpt>
      <trkpt lat="43.73246" lon="6.62297">
        <ele>954.8</ele>
        <time>2024-05-26T15:10:00Z</time>
      </trkpt>
      <trkpt lat="43.73245" lon="6.62297">
        <ele>954.8</ele>
        <time>2024-05-26T15:10:01Z</time>
      </trkpt>
      <trkpt lat="43.73244" lon="6.62296">
        <ele>954.7</ele>
        <time>2024-05-26T15:10:02Z</time>
      </trkpt>
      <trkpt lat="43.73243" lon="6.62295">
        <ele>954.6</ele>
        <time>2024-05-26T15:10:03Z</time>
      </trkpt>
      <trkpt lat="43.73242" lon="6.62293">
        <ele>954.6</ele>
        <time>2024-05-26T15:10:04Z</time>
      </trkpt>
      <trkpt lat="43.73241" lon="6.62292">
        <ele>954.6</ele>
        <time>2024-05-26T15:10:05Z</time>
      </trkpt>
      <trkpt lat="43.73241" lon="6.62291">
        <ele>954.6</ele>
        <time>2024-05-26T15:10:06Z</time>
      </trkpt>
      <trkpt lat="43.7324" lon="6.6229">
        <ele>954.6</ele>
        <time>2024-05-26T15:10:07Z</time>
      </trkpt>
      <trkpt lat="43.73239" lon="6.62289">
        <ele>954.6</ele>
        <time>2024-05-26T15:10:08Z</time>
      </trkpt>
      <trkpt lat="43.73239" lon="6.62288">
        <ele>954.5</ele>
        <time>2024-05-26T15:10:09Z</time>
      </trkpt>
      <trkpt lat="43.73238" lon="6.62287">
        <ele>954.5</ele>
        <time>2024-05-26T15:10:10Z</time>
      </trkpt>
      <trkpt lat="43.73239" lon="6.62286">
        <ele>954.5</ele>
        <time>2024-05-26T15:10:11Z</time>
      </trkpt>
      <trkpt lat="43.73238" lon="6.62286">
        <ele>954.4</ele>
        <time>2024-05-26T15:10:12Z</time>
      </trkpt>
      <trkpt lat="43.73238" lon="6.62285">
        <ele>954.3</ele>
        <time>2024-05-26T15:10:13Z</time>
      </trkpt>
      <trkpt lat="43.73238" lon="6.62284">
        <ele>954.2</ele>
        <time>2024-05-26T15:10:14Z</time>
      </trkpt>
      <trkpt lat="43.73237" lon="6.62283">
        <ele>954</ele>
        <time>2024-05-26T15:10:15Z</time>
      </trkpt>
      <trkpt lat="43.73237" lon="6.62282">
        <ele>954</ele>
        <time>2024-05-26T15:10:16Z</time>
      </trkpt>
      <trkpt lat="43.73237" lon="6.62281">
        <ele>953.9</ele>
        <time>2024-05-26T15:10:17Z</time>
      </trkpt>
      <trkpt lat="43.73237" lon="6.6228">
        <ele>953.9</ele>
        <time>2024-05-26T15:10:18Z</time>
      </trkpt>
      <trkpt lat="43.73236" lon="6.62279">
        <ele>953.8</ele>
        <time>2024-05-26T15:10:19Z</time>
      </trkpt>
      <trkpt lat="43.73235" lon="6.62278">
        <ele>953.8</ele>
        <time>2024-05-26T15:10:20Z</time>
      </trkpt>
      <trkpt lat="43.73234" lon="6.62277">
        <ele>953.7</ele>
        <time>2024-05-26T15:10:21Z</time>
      </trkpt>
      <trkpt lat="43.73234" lon="6.62277">
        <ele>953.6</ele>
        <time>2024-05-26T15:10:22Z</time>
      </trkpt>
      <trkpt lat="43.73233" lon="6.62275">
        <ele>953.6</ele>
        <time>2024-05-26T15:10:23Z</time>
      </trkpt>
      <trkpt lat="43.73233" lon="6.62274">
        <ele>953.6</ele>
        <time>2024-05-26T15:10:24Z</time>
      </trkpt>
      <trkpt lat="43.73232" lon="6.62272">
        <ele>953.7</ele>
        <time>2024-05-26T15:10:25Z</time>
      </trkpt>
      <trkpt lat="43.73232" lon="6.6227">
        <ele>953.8</ele>
        <time>2024-05-26T15:10:26Z</time>
      </trkpt>
      <trkpt lat="43.73232" lon="6.62269">
        <ele>953.9</ele>
        <time>2024-05-26T15:10:27Z</time>
      </trkpt>
      <trkpt lat="43.73231" lon="6.62269">
        <ele>954.1</ele>
        <time>2024-05-26T15:10:28Z</time>
      </trkpt>
      <trkpt lat="43.73231" lon="6.62267">
        <ele>954.2</ele>
        <time>2024-05-26T15:10:29Z</time>
      </trkpt>
      <trkpt lat="43.7323" lon="6.62265">
        <ele>954.3</ele>
        <time>2024-05-26T15:10:30Z</time>
      </trkpt>
      <trkpt lat="43.7323" lon="6.62264">
        <ele>954.4</ele>
        <time>2024-05-26T15:10:31Z</time>
      </trkpt>
      <trkpt lat="43.73228" lon="6.62263">
        <ele>954.5</ele>
        <time>2024-05-26T15:10:32Z</time>
      </trkpt>
      <trkpt lat="43.73228" lon="6.62262">
        <ele>954.7</ele>
        <time>2024-05-26T15:10:33Z</time>
      </trkpt>
      <trkpt lat="43.73228" lon="6.6226">
        <ele>954.8</ele>
        <time>2024-05-26T15:10:34Z</time>
      </trkpt>
      <trkpt lat="43.73227" lon="6.62259">
        <ele>954.9</ele>
        <time>2024-05-26T15:10:35Z</time>
      </trkpt>
      <trkpt lat="43.73227" lon="6.62257">
        <ele>955.1</ele>
        <time>2024-05-26T15:10:36Z</time>
      </trkpt>
      <trkpt lat="43.73226" lon="6.62256">
        <ele>955.3</ele>
        <time>2024-05-26T15:10:37Z</time>
      </trkpt>
      <trkpt lat="43.73226" lon="6.62255">
        <ele>955.4</ele>
        <time>2024-05-26T15:10:38Z</time>
      </trkpt>
      <trkpt lat="43.73226" lon="6.62255">
        <ele>955.5</ele>
        <time>2024-05-26T15:10:39Z</time>
      </trkpt>
      <trkpt lat="43.73226" lon="6.62253">
        <ele>955.6</ele>
        <time>2024-05-26T15:10:40Z</time>
      </trkpt>
      <trkpt lat="43.73225" lon="6.62253">
        <ele>955.8</ele>
        <time>2024-05-26T15:10:41Z</time>
      </trkpt>
      <trkpt lat="43.73224" lon="6.62253">
        <ele>955.9</ele>
        <time>2024-05-26T15:10:42Z</time>
      </trkpt>
      <trkpt lat="43.73224" lon="6.62253">
        <ele>956.2</ele>
        <time>2024-05-26T15:10:43Z</time>
      </trkpt>
      <trkpt lat="43.73223" lon="6.62254">
        <ele>956.3</ele>
        <time>2024-05-26T15:10:44Z</time>
      </trkpt>
      <trkpt lat="43.73222" lon="6.62254">
        <ele>956.4</ele>
        <time>2024-05-26T15:10:45Z</time>
      </trkpt>
      <trkpt lat="43.73222" lon="6.62255">
        <ele>956.4</ele>
        <time>2024-05-26T15:10:46Z</time>
      </trkpt>
      <trkpt lat="43.73221" lon="6.62255">
        <ele>956.4</ele>
        <time>2024-05-26T15:10:47Z</time>
      </trkpt>
      <trkpt lat="43.73221" lon="6.62255">
        <ele>956.5</ele>
        <time>2024-05-26T15:10:48Z</time>
      </trkpt>
      <trkpt lat="43.73221" lon="6.62256">
        <ele>956.5</ele>
        <time>2024-05-26T15:10:49Z</time>
      </trkpt>
      <trkpt lat="43.7322" lon="6.62256">
        <ele>956.5</ele>
        <time>2024-05-26T15:10:50Z</time>
      </trkpt>
      <trkpt lat="43.7322" lon="6.62256">
        <ele>956.5</ele>
        <time>2024-05-26T15:10:51Z</time>
      </trkpt>
      <trkpt lat="43.73219" lon="6.62256">
        <ele>956.4</ele>
        <time>2024-05-26T15:10:52Z</time>
      </trkpt>
      <trkpt lat="43.73219" lon="6.62257">
        <ele>956.3</ele>
        <time>2024-05-26T15:10:53Z</time>
      </trkpt>
      <trkpt lat="43.73219" lon="6.62257">
        <ele>956.4</ele>
        <time>2024-05-26T15:10:54Z</time>
      </trkpt>
      <trkpt lat="43.73218" lon="6.62258">
        <ele>956.4</ele>
        <time>2024-05-26T15:10:55Z</time>
      </trkpt>
      <trkpt lat="43.73218" lon="6.62258">
        <ele>956.4</ele>
        <time>2024-05-26T15:10:56Z</time>
      </trkpt>
      <trkpt lat="43.73218" lon="6.62258">
        <ele>956.4</ele>
        <time>2024-05-26T15:10:57Z</time>
      </trkpt>
      <trkpt lat="43.73218" lon="6.62257">
        <ele>956.4</ele>
        <time>2024-05-26T15:10:58Z</time>
      </trkpt>
      <trkpt lat="43.73218" lon="6.62256">
        <ele>956.4</ele>
        <time>2024-05-26T15:10:59Z</time>
      </trkpt>
      <trkpt lat="43.73218" lon="6.62256">
        <ele>956.4</ele>
        <time>2024-05-26T15:11:00Z</time>
      </trkpt>
      <trkpt lat="43.73218" lon="6.62256">
        <ele>956.5</ele>
        <time>2024-05-26T15:11:01Z</time>
      </trkpt>
      <trkpt lat="43.73217" lon="6.62255">
        <ele>956.5</ele>
        <time>2024-05-26T15:11:02Z</time>
      </trkpt>
      <trkpt lat="43.73217" lon="6.62255">
        <ele>956.6</ele>
        <time>2024-05-26T15:11:03Z</time>
      </trkpt>
      <trkpt lat="43.73217" lon="6.62255">
        <ele>956.6</ele>
        <time>2024-05-26T15:11:04Z</time>
      </trkpt>
      <trkpt lat="43.73217" lon="6.62254">
        <ele>956.7</ele>
        <time>2024-05-26T15:11:05Z</time>
      </trkpt>
      <trkpt lat="43.73217" lon="6.62254">
        <ele>956.7</ele>
        <time>2024-05-26T15:11:06Z</time>
      </trkpt>
      <trkpt lat="43.73217" lon="6.62253">
        <ele>956.7</ele>
        <time>2024-05-26T15:11:07Z</time>
      </trkpt>
      <trkpt lat="43.73216" lon="6.62253">
        <ele>956.7</ele>
        <time>2024-05-26T15:11:08Z</time>
      </trkpt>
      <trkpt lat="43.73216" lon="6.62252">
        <ele>956.7</ele>
        <time>2024-05-26T15:11:09Z</time>
      </trkpt>
      <trkpt lat="43.73216" lon="6.62252">
        <ele>956.7</ele>
        <time>2024-05-26T15:11:10Z</time>
      </trkpt>
      <trkpt lat="43.73216" lon="6.62252">
        <ele>956.6</ele>
        <time>2024-05-26T15:11:11Z</time>
      </trkpt>
      <trkpt lat="43.73215" lon="6.62252">
        <ele>956.6</ele>
        <time>2024-05-26T15:11:12Z</time>
      </trkpt>
      <trkpt lat="43.73215" lon="6.62251">
        <ele>956.7</ele>
        <time>2024-05-26T15:11:13Z</time>
      </trkpt>
      <trkpt lat="43.73215" lon="6.62251">
        <ele>956.7</ele>
        <time>2024-05-26T15:11:14Z</time>
      </trkpt>
      <trkpt lat="43.73215" lon="6.62251">
        <ele>956.6</ele>
        <time>2024-05-26T15:11:15Z</time>
      </trkpt>
      <trkpt lat="43.73215" lon="6.62251">
        <ele>956.6</ele>
        <time>2024-05-26T15:11:16Z</time>
      </trkpt>
      <trkpt lat="43.73215" lon="6.62251">
        <ele>956.6</ele>
        <time>2024-05-26T15:11:17Z</time>
      </trkpt>
      <trkpt lat="43.73215" lon="6.62251">
        <ele>956.5</ele>
        <time>2024-05-26T15:11:18Z</time>
      </trkpt>
      <trkpt lat="43.73214" lon="6.62251">
        <ele>956.5</ele>
        <time>2024-05-26T15:11:19Z</time>
      </trkpt>
      <trkpt lat="43.73214" lon="6.62251">
        <ele>956.4</ele>
        <time>2024-05-26T15:11:20Z</time>
      </trkpt>
      <trkpt lat="43.73214" lon="6.62251">
        <ele>956.4</ele>
        <time>2024-05-26T15:11:21Z</time>
      </trkpt>
      <trkpt lat="43.73214" lon="6.62251">
        <ele>956.5</ele>
        <time>2024-05-26T15:11:22Z</time>
      </trkpt>
      <trkpt lat="43.73214" lon="6.6225">
        <ele>956.6</ele>
        <time>2024-05-26T15:11:23Z</time>
      </trkpt>
      <trkpt lat="43.73214" lon="6.6225">
        <ele>956.5</ele>
        <time>2024-05-26T15:11:24Z</time>
      </trkpt>
      <trkpt lat="43.73214" lon="6.6225">
        <ele>956.5</ele>
        <time>2024-05-26T15:11:25Z</time>
      </trkpt>
      <trkpt lat="43.73214" lon="6.62249">
        <ele>956.5</ele>
        <time>2024-05-26T15:11:26Z</time>
      </trkpt>
      <trkpt lat="43.73214" lon="6.62248">
        <ele>956.7</ele>
        <time>2024-05-26T15:11:27Z</time>
      </trkpt>
      <trkpt lat="43.73214" lon="6.62248">
        <ele>956.8</ele>
        <time>2024-05-26T15:11:28Z</time>
      </trkpt>
      <trkpt lat="43.73214" lon="6.62246">
        <ele>956.9</ele>
        <time>2024-05-26T15:11:29Z</time>
      </trkpt>
      <trkpt lat="43.73213" lon="6.62245">
        <ele>956.9</ele>
        <time>2024-05-26T15:11:30Z</time>
      </trkpt>
      <trkpt lat="43.73213" lon="6.62245">
        <ele>957</ele>
        <time>2024-05-26T15:11:31Z</time>
      </trkpt>
      <trkpt lat="43.73213" lon="6.62244">
        <ele>957</ele>
        <time>2024-05-26T15:11:32Z</time>
      </trkpt>
      <trkpt lat="43.73213" lon="6.62243">
        <ele>957</ele>
        <time>2024-05-26T15:11:33Z</time>
      </trkpt>
      <trkpt lat="43.73213" lon="6.62243">
        <ele>956.9</ele>
        <time>2024-05-26T15:11:34Z</time>
      </trkpt>
      <trkpt lat="43.73213" lon="6.62241">
        <ele>957</ele>
        <time>2024-05-26T15:11:35Z</time>
      </trkpt>
      <trkpt lat="43.73214" lon="6.6224">
        <ele>957.2</ele>
        <time>2024-05-26T15:11:36Z</time>
      </trkpt>
      <trkpt lat="43.73213" lon="6.6224">
        <ele>957.3</ele>
        <time>2024-05-26T15:11:37Z</time>
      </trkpt>
      <trkpt lat="43.73213" lon="6.62239">
        <ele>957.4</ele>
        <time>2024-05-26T15:11:38Z</time>
      </trkpt>
      <trkpt lat="43.73213" lon="6.62238">
        <ele>957.5</ele>
        <time>2024-05-26T15:11:39Z</time>
      </trkpt>
      <trkpt lat="43.73213" lon="6.62237">
        <ele>957.6</ele>
        <time>2024-05-26T15:11:40Z</time>
      </trkpt>
      <trkpt lat="43.73212" lon="6.62236">
        <ele>957.8</ele>
        <time>2024-05-26T15:11:41Z</time>
      </trkpt>
      <trkpt lat="43.73211" lon="6.62236">
        <ele>957.9</ele>
        <time>2024-05-26T15:11:42Z</time>
      </trkpt>
      <trkpt lat="43.7321" lon="6.62235">
        <ele>958</ele>
        <time>2024-05-26T15:11:43Z</time>
      </trkpt>
      <trkpt lat="43.73209" lon="6.62235">
        <ele>958</ele>
        <time>2024-05-26T15:11:44Z</time>
      </trkpt>
      <trkpt lat="43.73208" lon="6.62234">
        <ele>958</ele>
        <time>2024-05-26T15:11:45Z</time>
      </trkpt>
      <trkpt lat="43.73208" lon="6.62234">
        <ele>958</ele>
        <time>2024-05-26T15:11:46Z</time>
      </trkpt>
      <trkpt lat="43.73207" lon="6.62234">
        <ele>958</ele>
        <time>2024-05-26T15:11:47Z</time>
      </trkpt>
      <trkpt lat="43.73207" lon="6.62234">
        <ele>958</ele>
        <time>2024-05-26T15:11:48Z</time>
      </trkpt>
      <trkpt lat="43.73206" lon="6.62234">
        <ele>958.1</ele>
        <time>2024-05-26T15:11:49Z</time>
      </trkpt>
      <trkpt lat="43.73206" lon="6.62234">
        <ele>958.1</ele>
        <time>2024-05-26T15:11:50Z</time>
      </trkpt>
      <trkpt lat="43.73205" lon="6.62234">
        <ele>958.1</ele>
        <time>2024-05-26T15:11:51Z</time>
      </trkpt>
      <trkpt lat="43.73204" lon="6.62233">
        <ele>958.1</ele>
        <time>2024-05-26T15:11:52Z</time>
      </trkpt>
      <trkpt lat="43.73204" lon="6.62232">
        <ele>958.1</ele>
        <time>2024-05-26T15:11:53Z</time>
      </trkpt>
      <trkpt lat="43.73203" lon="6.62232">
        <ele>958.1</ele>
        <time>2024-05-26T15:11:54Z</time>
      </trkpt>
      <trkpt lat="43.73203" lon="6.62231">
        <ele>958.1</ele>
        <time>2024-05-26T15:11:55Z</time>
      </trkpt>
      <trkpt lat="43.73203" lon="6.6223">
        <ele>958.1</ele>
        <time>2024-05-26T15:11:56Z</time>
      </trkpt>
      <trkpt lat="43.73202" lon="6.62229">
        <ele>958.2</ele>
        <time>2024-05-26T15:11:57Z</time>
      </trkpt>
      <trkpt lat="43.73202" lon="6.62229">
        <ele>958.2</ele>
        <time>2024-05-26T15:11:58Z</time>
      </trkpt>
      <trkpt lat="43.73201" lon="6.62228">
        <ele>958.2</ele>
        <time>2024-05-26T15:11:59Z</time>
      </trkpt>
      <trkpt lat="43.732" lon="6.62227">
        <ele>958.2</ele>
        <time>2024-05-26T15:12:00Z</time>
      </trkpt>
      <trkpt lat="43.732" lon="6.62226">
        <ele>958.3</ele>
        <time>2024-05-26T15:12:01Z</time>
      </trkpt>
      <trkpt lat="43.73199" lon="6.62225">
        <ele>958.3</ele>
        <time>2024-05-26T15:12:02Z</time>
      </trkpt>
      <trkpt lat="43.73198" lon="6.62225">
        <ele>958.4</ele>
        <time>2024-05-26T15:12:03Z</time>
      </trkpt>
      <trkpt lat="43.73198" lon="6.62224">
        <ele>958.5</ele>
        <time>2024-05-26T15:12:04Z</time>
      </trkpt>
      <trkpt lat="43.73197" lon="6.62224">
        <ele>958.5</ele>
        <time>2024-05-26T15:12:05Z</time>
      </trkpt>
      <trkpt lat="43.73196" lon="6.62223">
        <ele>958.6</ele>
        <time>2024-05-26T15:12:06Z</time>
      </trkpt>
      <trkpt lat="43.73196" lon="6.62223">
        <ele>958.7</ele>
        <time>2024-05-26T15:12:07Z</time>
      </trkpt>
      <trkpt lat="43.73194" lon="6.62222">
        <ele>958.8</ele>
        <time>2024-05-26T15:12:08Z</time>
      </trkpt>
      <trkpt lat="43.73193" lon="6.62221">
        <ele>958.8</ele>
        <time>2024-05-26T15:12:09Z</time>
      </trkpt>
      <trkpt lat="43.73192" lon="6.6222">
        <ele>958.8</ele>
        <time>2024-05-26T15:12:10Z</time>
      </trkpt>
      <trkpt lat="43.73191" lon="6.6222">
        <ele>958.9</ele>
        <time>2024-05-26T15:12:11Z</time>
      </trkpt>
      <trkpt lat="43.7319" lon="6.62219">
        <ele>958.9</ele>
        <time>2024-05-26T15:12:12Z</time>
      </trkpt>
      <trkpt lat="43.73189" lon="6.62218">
        <ele>959</ele>
        <time>2024-05-26T15:12:13Z</time>
      </trkpt>
      <trkpt lat="43.73189" lon="6.62217">
        <ele>959.1</ele>
        <time>2024-05-26T15:12:14Z</time>
      </trkpt>
      <trkpt lat="43.73188" lon="6.62216">
        <ele>959.1</ele>
        <time>2024-05-26T15:12:15Z</time>
      </trkpt>
      <trkpt lat="43.73187" lon="6.62215">
        <ele>959.2</ele>
        <time>2024-05-26T15:12:16Z</time>
      </trkpt>
      <trkpt lat="43.73187" lon="6.62214">
        <ele>959.1</ele>
        <time>2024-05-26T15:12:17Z</time>
      </trkpt>
      <trkpt lat="43.73187" lon="6.62212">
        <ele>959.2</ele>
        <time>2024-05-26T15:12:18Z</time>
      </trkpt>
      <trkpt lat="43.73186" lon="6.62211">
        <ele>959.2</ele>
        <time>2024-05-26T15:12:19Z</time>
      </trkpt>
      <trkpt lat="43.73185" lon="6.62209">
        <ele>959.2</ele>
        <time>2024-05-26T15:12:20Z</time>
      </trkpt>
      <trkpt lat="43.73185" lon="6.62209">
        <ele>959.2</ele>
        <time>2024-05-26T15:12:21Z</time>
      </trkpt>
      <trkpt lat="43.73185" lon="6.62207">
        <ele>959.4</ele>
        <time>2024-05-26T15:12:22Z</time>
      </trkpt>
      <trkpt lat="43.73184" lon="6.62206">
        <ele>959.4</ele>
        <time>2024-05-26T15:12:23Z</time>
      </trkpt>
      <trkpt lat="43.73183" lon="6.62205">
        <ele>959.4</ele>
        <time>2024-05-26T15:12:24Z</time>
      </trkpt>
      <trkpt lat="43.73183" lon="6.62204">
        <ele>959.5</ele>
        <time>2024-05-26T15:12:25Z</time>
      </trkpt>
      <trkpt lat="43.73182" lon="6.62202">
        <ele>959.5</ele>
        <time>2024-05-26T15:12:26Z</time>
      </trkpt>
      <trkpt lat="43.73181" lon="6.622">
        <ele>959.6</ele>
        <time>2024-05-26T15:12:27Z</time>
      </trkpt>
      <trkpt lat="43.7318" lon="6.622">
        <ele>959.6</ele>
        <time>2024-05-26T15:12:28Z</time>
      </trkpt>
      <trkpt lat="43.73178" lon="6.62199">
        <ele>959.7</ele>
        <time>2024-05-26T15:12:29Z</time>
      </trkpt>
      <trkpt lat="43.73177" lon="6.62199">
        <ele>959.8</ele>
        <time>2024-05-26T15:12:30Z</time>
      </trkpt>
      <trkpt lat="43.73177" lon="6.62198">
        <ele>959.8</ele>
        <time>2024-05-26T15:12:31Z</time>
      </trkpt>
      <trkpt lat="43.73176" lon="6.62198">
        <ele>959.9</ele>
        <time>2024-05-26T15:12:32Z</time>
      </trkpt>
      <trkpt lat="43.73175" lon="6.62196">
        <ele>960</ele>
        <time>2024-05-26T15:12:33Z</time>
      </trkpt>
      <trkpt lat="43.73175" lon="6.62195">
        <ele>960</ele>
        <time>2024-05-26T15:12:34Z</time>
      </trkpt>
      <trkpt lat="43.73174" lon="6.62194">
        <ele>960</ele>
        <time>2024-05-26T15:12:35Z</time>
      </trkpt>
      <trkpt lat="43.73173" lon="6.62192">
        <ele>960.1</ele>
        <time>2024-05-26T15:12:36Z</time>
      </trkpt>
      <trkpt lat="43.73173" lon="6.62191">
        <ele>960.1</ele>
        <time>2024-05-26T15:12:37Z</time>
      </trkpt>
      <trkpt lat="43.73172" lon="6.6219">
        <ele>960.3</ele>
        <time>2024-05-26T15:12:38Z</time>
      </trkpt>
      <trkpt lat="43.73171" lon="6.62189">
        <ele>960.4</ele>
        <time>2024-05-26T15:12:39Z</time>
      </trkpt>
      <trkpt lat="43.7317" lon="6.62188">
        <ele>960.5</ele>
        <time>2024-05-26T15:12:40Z</time>
      </trkpt>
      <trkpt lat="43.73169" lon="6.62187">
        <ele>960.5</ele>
        <time>2024-05-26T15:12:41Z</time>
      </trkpt>
      <trkpt lat="43.73169" lon="6.62186">
        <ele>960.6</ele>
        <time>2024-05-26T15:12:42Z</time>
      </trkpt>
      <trkpt lat="43.73168" lon="6.62185">
        <ele>960.6</ele>
        <time>2024-05-26T15:12:43Z</time>
      </trkpt>
      <trkpt lat="43.73168" lon="6.62184">
        <ele>960.6</ele>
        <time>2024-05-26T15:12:44Z</time>
      </trkpt>
      <trkpt lat="43.73167" lon="6.62184">
        <ele>960.6</ele>
        <time>2024-05-26T15:12:45Z</time>
      </trkpt>
      <trkpt lat="43.73167" lon="6.62182">
        <ele>960.7</ele>
        <time>2024-05-26T15:12:46Z</time>
      </trkpt>
      <trkpt lat="43.73167" lon="6.62181">
        <ele>960.8</ele>
        <time>2024-05-26T15:12:47Z</time>
      </trkpt>
      <trkpt lat="43.73166" lon="6.6218">
        <ele>960.8</ele>
        <time>2024-05-26T15:12:48Z</time>
      </trkpt>
      <trkpt lat="43.73165" lon="6.62179">
        <ele>960.9</ele>
        <time>2024-05-26T15:12:49Z</time>
      </trkpt>
      <trkpt lat="43.73163" lon="6.62178">
        <ele>960.9</ele>
        <time>2024-05-26T15:12:50Z</time>
      </trkpt>
      <trkpt lat="43.73162" lon="6.62176">
        <ele>960.9</ele>
        <time>2024-05-26T15:12:51Z</time>
      </trkpt>
      <trkpt lat="43.7316" lon="6.62175">
        <ele>960.9</ele>
        <time>2024-05-26T15:12:52Z</time>
      </trkpt>
      <trkpt lat="43.73159" lon="6.62174">
        <ele>960.7</ele>
        <time>2024-05-26T15:12:53Z</time>
      </trkpt>
      <trkpt lat="43.73157" lon="6.62173">
        <ele>960.7</ele>
        <time>2024-05-26T15:12:54Z</time>
      </trkpt>
      <trkpt lat="43.73156" lon="6.62172">
        <ele>960.6</ele>
        <time>2024-05-26T15:12:55Z</time>
      </trkpt>
      <trkpt lat="43.73154" lon="6.62171">
        <ele>960.7</ele>
        <time>2024-05-26T15:12:56Z</time>
      </trkpt>
      <trkpt lat="43.73154" lon="6.6217">
        <ele>960.7</ele>
        <time>2024-05-26T15:12:57Z</time>
      </trkpt>
      <trkpt lat="43.73153" lon="6.62169">
        <ele>960.7</ele>
        <time>2024-05-26T15:12:58Z</time>
      </trkpt>
      <trkpt lat="43.73153" lon="6.62169">
        <ele>960.7</ele>
        <time>2024-05-26T15:12:59Z</time>
      </trkpt>
      <trkpt lat="43.73151" lon="6.62168">
        <ele>960.7</ele>
        <time>2024-05-26T15:13:00Z</time>
      </trkpt>
      <trkpt lat="43.7315" lon="6.62167">
        <ele>960.8</ele>
        <time>2024-05-26T15:13:01Z</time>
      </trkpt>
      <trkpt lat="43.7315" lon="6.62166">
        <ele>960.8</ele>
        <time>2024-05-26T15:13:02Z</time>
      </trkpt>
      <trkpt lat="43.73149" lon="6.62165">
        <ele>960.8</ele>
        <time>2024-05-26T15:13:03Z</time>
      </trkpt>
      <trkpt lat="43.73149" lon="6.62164">
        <ele>960.8</ele>
        <time>2024-05-26T15:13:04Z</time>
      </trkpt>
      <trkpt lat="43.7315" lon="6.62163">
        <ele>960.8</ele>
        <time>2024-05-26T15:13:05Z</time>
      </trkpt>
      <trkpt lat="43.7315" lon="6.62161">
        <ele>960.8</ele>
        <time>2024-05-26T15:13:06Z</time>
      </trkpt>
      <trkpt lat="43.73149" lon="6.62159">
        <ele>960.8</ele>
        <time>2024-05-26T15:13:07Z</time>
      </trkpt>
      <trkpt lat="43.73149" lon="6.62157">
        <ele>960.7</ele>
        <time>2024-05-26T15:13:08Z</time>
      </trkpt>
      <trkpt lat="43.73148" lon="6.62156">
        <ele>960.7</ele>
        <time>2024-05-26T15:13:09Z</time>
      </trkpt>
      <trkpt lat="43.73148" lon="6.62155">
        <ele>960.6</ele>
        <time>2024-05-26T15:13:10Z</time>
      </trkpt>
      <trkpt lat="43.73147" lon="6.62154">
        <ele>960.6</ele>
        <time>2024-05-26T15:13:11Z</time>
      </trkpt>
      <trkpt lat="43.73146" lon="6.62154">
        <ele>960.6</ele>
        <time>2024-05-26T15:13:12Z</time>
      </trkpt>
      <trkpt lat="43.73146" lon="6.62153">
        <ele>960.5</ele>
        <time>2024-05-26T15:13:13Z</time>
      </trkpt>
      <trkpt lat="43.73145" lon="6.62151">
        <ele>960.6</ele>
        <time>2024-05-26T15:13:14Z</time>
      </trkpt>
      <trkpt lat="43.73145" lon="6.6215">
        <ele>960.7</ele>
        <time>2024-05-26T15:13:15Z</time>
      </trkpt>
      <trkpt lat="43.73144" lon="6.6215">
        <ele>960.7</ele>
        <time>2024-05-26T15:13:16Z</time>
      </trkpt>
      <trkpt lat="43.73143" lon="6.62149">
        <ele>960.8</ele>
        <time>2024-05-26T15:13:17Z</time>
      </trkpt>
      <trkpt lat="43.73143" lon="6.62149">
        <ele>960.8</ele>
        <time>2024-05-26T15:13:18Z</time>
      </trkpt>
      <trkpt lat="43.73142" lon="6.62148">
        <ele>960.8</ele>
        <time>2024-05-26T15:13:19Z</time>
      </trkpt>
      <trkpt lat="43.73142" lon="6.62147">
        <ele>960.7</ele>
        <time>2024-05-26T15:13:20Z</time>
      </trkpt>
      <trkpt lat="43.73142" lon="6.62146">
        <ele>960.8</ele>
        <time>2024-05-26T15:13:21Z</time>
      </trkpt>
      <trkpt lat="43.73142" lon="6.62145">
        <ele>960.9</ele>
        <time>2024-05-26T15:13:22Z</time>
      </trkpt>
      <trkpt lat="43.73141" lon="6.62145">
        <ele>960.8</ele>
        <time>2024-05-26T15:13:23Z</time>
      </trkpt>
      <trkpt lat="43.73141" lon="6.62144">
        <ele>961</ele>
        <time>2024-05-26T15:13:24Z</time>
      </trkpt>
      <trkpt lat="43.7314" lon="6.62144">
        <ele>960.9</ele>
        <time>2024-05-26T15:13:25Z</time>
      </trkpt>
      <trkpt lat="43.73139" lon="6.62143">
        <ele>960.8</ele>
        <time>2024-05-26T15:13:26Z</time>
      </trkpt>
      <trkpt lat="43.73138" lon="6.62142">
        <ele>960.8</ele>
        <time>2024-05-26T15:13:27Z</time>
      </trkpt>
      <trkpt lat="43.73137" lon="6.62141">
        <ele>960.7</ele>
        <time>2024-05-26T15:13:28Z</time>
      </trkpt>
      <trkpt lat="43.73136" lon="6.62139">
        <ele>960.7</ele>
        <time>2024-05-26T15:13:29Z</time>
      </trkpt>
      <trkpt lat="43.73135" lon="6.62139">
        <ele>960.6</ele>
        <time>2024-05-26T15:13:30Z</time>
      </trkpt>
      <trkpt lat="43.73134" lon="6.62138">
        <ele>960.7</ele>
        <time>2024-05-26T15:13:31Z</time>
      </trkpt>
      <trkpt lat="43.73134" lon="6.62137">
        <ele>960.8</ele>
        <time>2024-05-26T15:13:32Z</time>
      </trkpt>
      <trkpt lat="43.73131" lon="6.62136">
        <ele>960.8</ele>
        <time>2024-05-26T15:13:33Z</time>
      </trkpt>
      <trkpt lat="43.7313" lon="6.62136">
        <ele>960.8</ele>
        <time>2024-05-26T15:13:34Z</time>
      </trkpt>
      <trkpt lat="43.73128" lon="6.62135">
        <ele>960.9</ele>
        <time>2024-05-26T15:13:35Z</time>
      </trkpt>
      <trkpt lat="43.73127" lon="6.62134">
        <ele>960.7</ele>
        <time>2024-05-26T15:13:36Z</time>
      </trkpt>
      <trkpt lat="43.73126" lon="6.62132">
        <ele>960.7</ele>
        <time>2024-05-26T15:13:37Z</time>
      </trkpt>
      <trkpt lat="43.73125" lon="6.62131">
        <ele>960.7</ele>
        <time>2024-05-26T15:13:38Z</time>
      </trkpt>
      <trkpt lat="43.73124" lon="6.6213">
        <ele>960.8</ele>
        <time>2024-05-26T15:13:39Z</time>
      </trkpt>
      <trkpt lat="43.73122" lon="6.62129">
        <ele>960.9</ele>
        <time>2024-05-26T15:13:40Z</time>
      </trkpt>
      <trkpt lat="43.73121" lon="6.62128">
        <ele>960.9</ele>
        <time>2024-05-26T15:13:41Z</time>
      </trkpt>
      <trkpt lat="43.73121" lon="6.62126">
        <ele>960.9</ele>
        <time>2024-05-26T15:13:42Z</time>
      </trkpt>
      <trkpt lat="43.73121" lon="6.62125">
        <ele>960.9</ele>
        <time>2024-05-26T15:13:43Z</time>
      </trkpt>
      <trkpt lat="43.73121" lon="6.62124">
        <ele>960.9</ele>
        <time>2024-05-26T15:13:44Z</time>
      </trkpt>
      <trkpt lat="43.73121" lon="6.62124">
        <ele>960.9</ele>
        <time>2024-05-26T15:13:45Z</time>
      </trkpt>
      <trkpt lat="43.73121" lon="6.62122">
        <ele>961</ele>
        <time>2024-05-26T15:13:46Z</time>
      </trkpt>
      <trkpt lat="43.73121" lon="6.62121">
        <ele>961.2</ele>
        <time>2024-05-26T15:13:47Z</time>
      </trkpt>
      <trkpt lat="43.73121" lon="6.6212">
        <ele>961.3</ele>
        <time>2024-05-26T15:13:48Z</time>
      </trkpt>
      <trkpt lat="43.73121" lon="6.62119">
        <ele>961.5</ele>
        <time>2024-05-26T15:13:49Z</time>
      </trkpt>
      <trkpt lat="43.73122" lon="6.62117">
        <ele>961.5</ele>
        <time>2024-05-26T15:13:50Z</time>
      </trkpt>
      <trkpt lat="43.73121" lon="6.62115">
        <ele>961.6</ele>
        <time>2024-05-26T15:13:51Z</time>
      </trkpt>
      <trkpt lat="43.73121" lon="6.62114">
        <ele>961.6</ele>
        <time>2024-05-26T15:13:52Z</time>
      </trkpt>
      <trkpt lat="43.7312" lon="6.62112">
        <ele>961.8</ele>
        <time>2024-05-26T15:13:53Z</time>
      </trkpt>
      <trkpt lat="43.7312" lon="6.62111">
        <ele>961.9</ele>
        <time>2024-05-26T15:13:54Z</time>
      </trkpt>
      <trkpt lat="43.73119" lon="6.6211">
        <ele>962.2</ele>
        <time>2024-05-26T15:13:55Z</time>
      </trkpt>
      <trkpt lat="43.73119" lon="6.6211">
        <ele>962.3</ele>
        <time>2024-05-26T15:13:56Z</time>
      </trkpt>
      <trkpt lat="43.73118" lon="6.6211">
        <ele>962.4</ele>
        <time>2024-05-26T15:13:57Z</time>
      </trkpt>
      <trkpt lat="43.73118" lon="6.62109">
        <ele>962.4</ele>
        <time>2024-05-26T15:13:58Z</time>
      </trkpt>
      <trkpt lat="43.73118" lon="6.62109">
        <ele>962.4</ele>
        <time>2024-05-26T15:13:59Z</time>
      </trkpt>
      <trkpt lat="43.73118" lon="6.62108">
        <ele>962.4</ele>
        <time>2024-05-26T15:14:00Z</time>
      </trkpt>
      <trkpt lat="43.73117" lon="6.62107">
        <ele>962.5</ele>
        <time>2024-05-26T15:14:01Z</time>
      </trkpt>
      <trkpt lat="43.73117" lon="6.62107">
        <ele>962.5</ele>
        <time>2024-05-26T15:14:02Z</time>
      </trkpt>
      <trkpt lat="43.73117" lon="6.62106">
        <ele>962.6</ele>
        <time>2024-05-26T15:14:03Z</time>
      </trkpt>
      <trkpt lat="43.73116" lon="6.62106">
        <ele>962.6</ele>
        <time>2024-05-26T15:14:04Z</time>
      </trkpt>
      <trkpt lat="43.73116" lon="6.62106">
        <ele>962.6</ele>
        <time>2024-05-26T15:14:05Z</time>
      </trkpt>
      <trkpt lat="43.73115" lon="6.62105">
        <ele>962.6</ele>
        <time>2024-05-26T15:14:06Z</time>
      </trkpt>
      <trkpt lat="43.73114" lon="6.62104">
        <ele>962.7</ele>
        <time>2024-05-26T15:14:07Z</time>
      </trkpt>
      <trkpt lat="43.73114" lon="6.62102">
        <ele>962.7</ele>
        <time>2024-05-26T15:14:08Z</time>
      </trkpt>
      <trkpt lat="43.73114" lon="6.62102">
        <ele>962.7</ele>
        <time>2024-05-26T15:14:09Z</time>
      </trkpt>
      <trkpt lat="43.73113" lon="6.62101">
        <ele>962.7</ele>
        <time>2024-05-26T15:14:10Z</time>
      </trkpt>
      <trkpt lat="43.73113" lon="6.621">
        <ele>962.8</ele>
        <time>2024-05-26T15:14:11Z</time>
      </trkpt>
      <trkpt lat="43.73112" lon="6.621">
        <ele>962.8</ele>
        <time>2024-05-26T15:14:12Z</time>
      </trkpt>
      <trkpt lat="43.73112" lon="6.62099">
        <ele>962.9</ele>
        <time>2024-05-26T15:14:13Z</time>
      </trkpt>
      <trkpt lat="43.73111" lon="6.62098">
        <ele>962.9</ele>
        <time>2024-05-26T15:14:14Z</time>
      </trkpt>
      <trkpt lat="43.73111" lon="6.62098">
        <ele>962.9</ele>
        <time>2024-05-26T15:14:15Z</time>
      </trkpt>
      <trkpt lat="43.7311" lon="6.62097">
        <ele>962.9</ele>
        <time>2024-05-26T15:14:16Z</time>
      </trkpt>
      <trkpt lat="43.73109" lon="6.62097">
        <ele>963</ele>
        <time>2024-05-26T15:14:17Z</time>
      </trkpt>
      <trkpt lat="43.73109" lon="6.62097">
        <ele>963</ele>
        <time>2024-05-26T15:14:18Z</time>
      </trkpt>
      <trkpt lat="43.73108" lon="6.62096">
        <ele>963</ele>
        <time>2024-05-26T15:14:19Z</time>
      </trkpt>
      <trkpt lat="43.73108" lon="6.62095">
        <ele>963.1</ele>
        <time>2024-05-26T15:14:20Z</time>
      </trkpt>
      <trkpt lat="43.73108" lon="6.62095">
        <ele>963.1</ele>
        <time>2024-05-26T15:14:21Z</time>
      </trkpt>
      <trkpt lat="43.73107" lon="6.62095">
        <ele>963.2</ele>
        <time>2024-05-26T15:14:22Z</time>
      </trkpt>
      <trkpt lat="43.73107" lon="6.62095">
        <ele>963.2</ele>
        <time>2024-05-26T15:14:23Z</time>
      </trkpt>
      <trkpt lat="43.73107" lon="6.62095">
        <ele>963.2</ele>
        <time>2024-05-26T15:14:24Z</time>
      </trkpt>
      <trkpt lat="43.73107" lon="6.62095">
        <ele>963.2</ele>
        <time>2024-05-26T15:14:25Z</time>
      </trkpt>
      <trkpt lat="43.73107" lon="6.62094">
        <ele>963.1</ele>
        <time>2024-05-26T15:14:26Z</time>
      </trkpt>
      <trkpt lat="43.73106" lon="6.62093">
        <ele>963</ele>
        <time>2024-05-26T15:14:27Z</time>
      </trkpt>
      <trkpt lat="43.73106" lon="6.62093">
        <ele>963</ele>
        <time>2024-05-26T15:14:28Z</time>
      </trkpt>
      <trkpt lat="43.73106" lon="6.62093">
        <ele>963</ele>
        <time>2024-05-26T15:14:29Z</time>
      </trkpt>
      <trkpt lat="43.73107" lon="6.62092">
        <ele>963</ele>
        <time>2024-05-26T15:14:30Z</time>
      </trkpt>
      <trkpt lat="43.73107" lon="6.62092">
        <ele>963</ele>
        <time>2024-05-26T15:14:31Z</time>
      </trkpt>
      <trkpt lat="43.73107" lon="6.62092">
        <ele>963</ele>
        <time>2024-05-26T15:14:32Z</time>
      </trkpt>
      <trkpt lat="43.73106" lon="6.62092">
        <ele>963</ele>
        <time>2024-05-26T15:14:33Z</time>
      </trkpt>
      <trkpt lat="43.73106" lon="6.62093">
        <ele>963.1</ele>
        <time>2024-05-26T15:14:34Z</time>
      </trkpt>
      <trkpt lat="43.73106" lon="6.62093">
        <ele>963.1</ele>
        <time>2024-05-26T15:14:35Z</time>
      </trkpt>
      <trkpt lat="43.73107" lon="6.62092">
        <ele>963</ele>
        <time>2024-05-26T15:14:36Z</time>
      </trkpt>
      <trkpt lat="43.73107" lon="6.62091">
        <ele>963</ele>
        <time>2024-05-26T15:14:37Z</time>
      </trkpt>
      <trkpt lat="43.73107" lon="6.62091">
        <ele>963</ele>
        <time>2024-05-26T15:14:38Z</time>
      </trkpt>
      <trkpt lat="43.73106" lon="6.62091">
        <ele>962.9</ele>
        <time>2024-05-26T15:14:39Z</time>
      </trkpt>
      <trkpt lat="43.73106" lon="6.62091">
        <ele>962.9</ele>
        <time>2024-05-26T15:14:40Z</time>
      </trkpt>
      <trkpt lat="43.73106" lon="6.62091">
        <ele>962.9</ele>
        <time>2024-05-26T15:14:41Z</time>
      </trkpt>
      <trkpt lat="43.73106" lon="6.62091">
        <ele>962.9</ele>
        <time>2024-05-26T15:14:42Z</time>
      </trkpt>
      <trkpt lat="43.73106" lon="6.62092">
        <ele>962.8</ele>
        <time>2024-05-26T15:14:43Z</time>
      </trkpt>
      <trkpt lat="43.73106" lon="6.62092">
        <ele>962.9</ele>
        <time>2024-05-26T15:14:44Z</time>
      </trkpt>
      <trkpt lat="43.73105" lon="6.62092">
        <ele>962.9</ele>
        <time>2024-05-26T15:14:45Z</time>
      </trkpt>
      <trkpt lat="43.73106" lon="6.62092">
        <ele>962.9</ele>
        <time>2024-05-26T15:14:46Z</time>
      </trkpt>
      <trkpt lat="43.73106" lon="6.62092">
        <ele>962.9</ele>
        <time>2024-05-26T15:14:47Z</time>
      </trkpt>
      <trkpt lat="43.73106" lon="6.62092">
        <ele>962.8</ele>
        <time>2024-05-26T15:14:48Z</time>
      </trkpt>
      <trkpt lat="43.73106" lon="6.62092">
        <ele>962.8</ele>
        <time>2024-05-26T15:14:49Z</time>
      </trkpt>
      <trkpt lat="43.73107" lon="6.62092">
        <ele>962.8</ele>
        <time>2024-05-26T15:14:50Z</time>
      </trkpt>
      <trkpt lat="43.73107" lon="6.62092">
        <ele>962.8</ele>
        <time>2024-05-26T15:14:51Z</time>
      </trkpt>
      <trkpt lat="43.73107" lon="6.62092">
        <ele>962.7</ele>
        <time>2024-05-26T15:14:52Z</time>
      </trkpt>
      <trkpt lat="43.73107" lon="6.62092">
        <ele>962.7</ele>
        <time>2024-05-26T15:14:53Z</time>
      </trkpt>
      <trkpt lat="43.73107" lon="6.62092">
        <ele>962.7</ele>
        <time>2024-05-26T15:14:54Z</time>
      </trkpt>
      <trkpt lat="43.73107" lon="6.62091">
        <ele>962.8</ele>
        <time>2024-05-26T15:14:55Z</time>
      </trkpt>
      <trkpt lat="43.73108" lon="6.62091">
        <ele>962.8</ele>
        <time>2024-05-26T15:14:56Z</time>
      </trkpt>
      <trkpt lat="43.73108" lon="6.6209">
        <ele>962.8</ele>
        <time>2024-05-26T15:14:57Z</time>
      </trkpt>
      <trkpt lat="43.73108" lon="6.6209">
        <ele>962.8</ele>
        <time>2024-05-26T15:14:58Z</time>
      </trkpt>
      <trkpt lat="43.73108" lon="6.6209">
        <ele>962.7</ele>
        <time>2024-05-26T15:14:59Z</time>
      </trkpt>
      <trkpt lat="43.73109" lon="6.6209">
        <ele>962.8</ele>
        <time>2024-05-26T15:15:00Z</time>
      </trkpt>
      <trkpt lat="43.73109" lon="6.62089">
        <ele>962.8</ele>
        <time>2024-05-26T15:15:01Z</time>
      </trkpt>
      <trkpt lat="43.73109" lon="6.62089">
        <ele>962.8</ele>
        <time>2024-05-26T15:15:02Z</time>
      </trkpt>
      <trkpt lat="43.7311" lon="6.62089">
        <ele>962.9</ele>
        <time>2024-05-26T15:15:03Z</time>
      </trkpt>
      <trkpt lat="43.7311" lon="6.62089">
        <ele>962.9</ele>
        <time>2024-05-26T15:15:04Z</time>
      </trkpt>
      <trkpt lat="43.7311" lon="6.62089">
        <ele>962.4</ele>
        <time>2024-05-26T15:15:05Z</time>
      </trkpt>
      <trkpt lat="43.7311" lon="6.62089">
        <ele>962.6</ele>
        <time>2024-05-26T15:15:06Z</time>
      </trkpt>
      <trkpt lat="43.73111" lon="6.62088">
        <ele>962.7</ele>
        <time>2024-05-26T15:15:07Z</time>
      </trkpt>
      <trkpt lat="43.73111" lon="6.62088">
        <ele>962.6</ele>
        <time>2024-05-26T15:15:08Z</time>
      </trkpt>
      <trkpt lat="43.73111" lon="6.62089">
        <ele>962.6</ele>
        <time>2024-05-26T15:15:09Z</time>
      </trkpt>
      <trkpt lat="43.73111" lon="6.62089">
        <ele>962.3</ele>
        <time>2024-05-26T15:15:10Z</time>
      </trkpt>
      <trkpt lat="43.73111" lon="6.62089">
        <ele>963.1</ele>
        <time>2024-05-26T15:15:11Z</time>
      </trkpt>
      <trkpt lat="43.73111" lon="6.62088">
        <ele>963.2</ele>
        <time>2024-05-26T15:15:12Z</time>
      </trkpt>
      <trkpt lat="43.73111" lon="6.62089">
        <ele>962.8</ele>
        <time>2024-05-26T15:15:13Z</time>
      </trkpt>
      <trkpt lat="43.73111" lon="6.62089">
        <ele>962.7</ele>
        <time>2024-05-26T15:15:14Z</time>
      </trkpt>
      <trkpt lat="43.73111" lon="6.62089">
        <ele>962.6</ele>
        <time>2024-05-26T15:15:15Z</time>
      </trkpt>
      <trkpt lat="43.73111" lon="6.62089">
        <ele>962.7</ele>
        <time>2024-05-26T15:15:16Z</time>
      </trkpt>
      <trkpt lat="43.73111" lon="6.62089">
        <ele>962.9</ele>
        <time>2024-05-26T15:15:17Z</time>
      </trkpt>
      <trkpt lat="43.73111" lon="6.62089">
        <ele>962.9</ele>
        <time>2024-05-26T15:15:18Z</time>
      </trkpt>
      <trkpt lat="43.73111" lon="6.62089">
        <ele>962.9</ele>
        <time>2024-05-26T15:15:19Z</time>
      </trkpt>
      <trkpt lat="43.73111" lon="6.62089">
        <ele>962.9</ele>
        <time>2024-05-26T15:15:20Z</time>
      </trkpt>
      <trkpt lat="43.73111" lon="6.62089">
        <ele>962.6</ele>
        <time>2024-05-26T15:15:21Z</time>
      </trkpt>
      <trkpt lat="43.73111" lon="6.6209">
        <ele>955.2</ele>
        <time>2024-05-26T15:15:22Z</time>
      </trkpt>
      <trkpt lat="43.73111" lon="6.62091">
        <ele>952.2</ele>
        <time>2024-05-26T15:15:23Z</time>
      </trkpt>
      <trkpt lat="43.73111" lon="6.6209">
        <ele>952.7</ele>
        <time>2024-05-26T15:15:24Z</time>
      </trkpt>
      <trkpt lat="43.73112" lon="6.62091">
        <ele>961.8</ele>
        <time>2024-05-26T15:15:25Z</time>
      </trkpt>
      <trkpt lat="43.73112" lon="6.62091">
        <ele>964.6</ele>
        <time>2024-05-26T15:15:26Z</time>
      </trkpt>
      <trkpt lat="43.73112" lon="6.62091">
        <ele>965</ele>
        <time>2024-05-26T15:15:27Z</time>
      </trkpt>
      <trkpt lat="43.73111" lon="6.62092">
        <ele>964.5</ele>
        <time>2024-05-26T15:15:28Z</time>
      </trkpt>
      <trkpt lat="43.73111" lon="6.62091">
        <ele>965.2</ele>
        <time>2024-05-26T15:15:29Z</time>
      </trkpt>
      <trkpt lat="43.73111" lon="6.62089">
        <ele>964.7</ele>
        <time>2024-05-26T15:15:30Z</time>
      </trkpt>
      <trkpt lat="43.73111" lon="6.62089">
        <ele>964.4</ele>
        <time>2024-05-26T15:15:31Z</time>
      </trkpt>
      <trkpt lat="43.73111" lon="6.62089">
        <ele>964.2</ele>
        <time>2024-05-26T15:15:32Z</time>
      </trkpt>
      <trkpt lat="43.73111" lon="6.62088">
        <ele>964</ele>
        <time>2024-05-26T15:15:33Z</time>
      </trkpt>
      <trkpt lat="43.73111" lon="6.62088">
        <ele>963.7</ele>
        <time>2024-05-26T15:15:34Z</time>
      </trkpt>
      <trkpt lat="43.7311" lon="6.62088">
        <ele>963.4</ele>
        <time>2024-05-26T15:15:35Z</time>
      </trkpt>
      <trkpt lat="43.7311" lon="6.62087">
        <ele>963.2</ele>
        <time>2024-05-26T15:15:36Z</time>
      </trkpt>
      <trkpt lat="43.7311" lon="6.62087">
        <ele>963</ele>
        <time>2024-05-26T15:15:37Z</time>
      </trkpt>
      <trkpt lat="43.7311" lon="6.62087">
        <ele>962.9</ele>
        <time>2024-05-26T15:15:38Z</time>
      </trkpt>
      <trkpt lat="43.7311" lon="6.62087">
        <ele>962.6</ele>
        <time>2024-05-26T15:15:39Z</time>
      </trkpt>
      <trkpt lat="43.7311" lon="6.62088">
        <ele>962.7</ele>
        <time>2024-05-26T15:15:40Z</time>
      </trkpt>
      <trkpt lat="43.73109" lon="6.62088">
        <ele>962.9</ele>
        <time>2024-05-26T15:15:41Z</time>
      </trkpt>
      <trkpt lat="43.73109" lon="6.62088">
        <ele>963</ele>
        <time>2024-05-26T15:15:42Z</time>
      </trkpt>
      <trkpt lat="43.73109" lon="6.62088">
        <ele>963.6</ele>
        <time>2024-05-26T15:15:43Z</time>
      </trkpt>
      <trkpt lat="43.73109" lon="6.62088">
        <ele>963.4</ele>
        <time>2024-05-26T15:15:44Z</time>
      </trkpt>
      <trkpt lat="43.73109" lon="6.62088">
        <ele>963.3</ele>
        <time>2024-05-26T15:15:45Z</time>
      </trkpt>
      <trkpt lat="43.73109" lon="6.62088">
        <ele>963.2</ele>
        <time>2024-05-26T15:15:46Z</time>
      </trkpt>
      <trkpt lat="43.73109" lon="6.62088">
        <ele>963.1</ele>
        <time>2024-05-26T15:15:47Z</time>
      </trkpt>
      <trkpt lat="43.73109" lon="6.62088">
        <ele>963</ele>
        <time>2024-05-26T15:15:48Z</time>
      </trkpt>
      <trkpt lat="43.73109" lon="6.62088">
        <ele>962</ele>
        <time>2024-05-26T15:15:49Z</time>
      </trkpt>
      <trkpt lat="43.73109" lon="6.62088">
        <ele>962.2</ele>
        <time>2024-05-26T15:15:50Z</time>
      </trkpt>
      <trkpt lat="43.73109" lon="6.62088">
        <ele>962.2</ele>
        <time>2024-05-26T15:15:51Z</time>
      </trkpt>
      <trkpt lat="43.73109" lon="6.62088">
        <ele>962.3</ele>
        <time>2024-05-26T15:15:52Z</time>
      </trkpt>
      <trkpt lat="43.73109" lon="6.62087">
        <ele>962.3</ele>
        <time>2024-05-26T15:15:53Z</time>
      </trkpt>
      <trkpt lat="43.73109" lon="6.62087">
        <ele>962.3</ele>
        <time>2024-05-26T15:15:54Z</time>
      </trkpt>
      <trkpt lat="43.73109" lon="6.62087">
        <ele>962.3</ele>
        <time>2024-05-26T15:15:55Z</time>
      </trkpt>
      <trkpt lat="43.73109" lon="6.62087">
        <ele>962.3</ele>
        <time>2024-05-26T15:15:56Z</time>
      </trkpt>
      <trkpt lat="43.7311" lon="6.62087">
        <ele>962.3</ele>
        <time>2024-05-26T15:15:57Z</time>
      </trkpt>
      <trkpt lat="43.7311" lon="6.62087">
        <ele>962.3</ele>
        <time>2024-05-26T15:15:58Z</time>
      </trkpt>
      <trkpt lat="43.7311" lon="6.62086">
        <ele>962.3</ele>
        <time>2024-05-26T15:15:59Z</time>
      </trkpt>
      <trkpt lat="43.7311" lon="6.62086">
        <ele>962.3</ele>
        <time>2024-05-26T15:16:00Z</time>
      </trkpt>
      <trkpt lat="43.7311" lon="6.62086">
        <ele>961.8</ele>
        <time>2024-05-26T15:16:01Z</time>
      </trkpt>
      <trkpt lat="43.7311" lon="6.62086">
        <ele>962</ele>
        <time>2024-05-26T15:16:02Z</time>
      </trkpt>
      <trkpt lat="43.7311" lon="6.62086">
        <ele>963.1</ele>
        <time>2024-05-26T15:16:03Z</time>
      </trkpt>
      <trkpt lat="43.7311" lon="6.62086">
        <ele>963.6</ele>
        <time>2024-05-26T15:16:04Z</time>
      </trkpt>
      <trkpt lat="43.7311" lon="6.62086">
        <ele>963.7</ele>
        <time>2024-05-26T15:16:05Z</time>
      </trkpt>
      <trkpt lat="43.7311" lon="6.62086">
        <ele>963.6</ele>
        <time>2024-05-26T15:16:06Z</time>
      </trkpt>
      <trkpt lat="43.7311" lon="6.62086">
        <ele>963.4</ele>
        <time>2024-05-26T15:16:07Z</time>
      </trkpt>
      <trkpt lat="43.7311" lon="6.62086">
        <ele>963.5</ele>
        <time>2024-05-26T15:16:08Z</time>
      </trkpt>
      <trkpt lat="43.7311" lon="6.62086">
        <ele>963.7</ele>
        <time>2024-05-26T15:16:09Z</time>
      </trkpt>
      <trkpt lat="43.7311" lon="6.62086">
        <ele>963.7</ele>
        <time>2024-05-26T15:16:10Z</time>
      </trkpt>
      <trkpt lat="43.73111" lon="6.62085">
        <ele>963.6</ele>
        <time>2024-05-26T15:16:11Z</time>
      </trkpt>
      <trkpt lat="43.73111" lon="6.62086">
        <ele>963.3</ele>
        <time>2024-05-26T15:16:12Z</time>
      </trkpt>
      <trkpt lat="43.7311" lon="6.62086">
        <ele>963.1</ele>
        <time>2024-05-26T15:16:13Z</time>
      </trkpt>
      <trkpt lat="43.7311" lon="6.62086">
        <ele>962.9</ele>
        <time>2024-05-26T15:16:14Z</time>
      </trkpt>
      <trkpt lat="43.73111" lon="6.62086">
        <ele>962.4</ele>
        <time>2024-05-26T15:16:15Z</time>
      </trkpt>
      <trkpt lat="43.73111" lon="6.62085">
        <ele>962.9</ele>
        <time>2024-05-26T15:16:16Z</time>
      </trkpt>
      <trkpt lat="43.73111" lon="6.62085">
        <ele>966.5</ele>
        <time>2024-05-26T15:16:17Z</time>
      </trkpt>
      <trkpt lat="43.73111" lon="6.62086">
        <ele>965.9</ele>
        <time>2024-05-26T15:16:18Z</time>
      </trkpt>
      <trkpt lat="43.7311" lon="6.62087">
        <ele>965.4</ele>
        <time>2024-05-26T15:16:19Z</time>
      </trkpt>
      <trkpt lat="43.73109" lon="6.62088">
        <ele>964.9</ele>
        <time>2024-05-26T15:16:20Z</time>
      </trkpt>
      <trkpt lat="43.73109" lon="6.62089">
        <ele>964.5</ele>
        <time>2024-05-26T15:16:21Z</time>
      </trkpt>
      <trkpt lat="43.73109" lon="6.6209">
        <ele>964.2</ele>
        <time>2024-05-26T15:16:22Z</time>
      </trkpt>
      <trkpt lat="43.73108" lon="6.62091">
        <ele>963.9</ele>
        <time>2024-05-26T15:16:23Z</time>
      </trkpt>
      <trkpt lat="43.73108" lon="6.62091">
        <ele>963.7</ele>
        <time>2024-05-26T15:16:24Z</time>
      </trkpt>
      <trkpt lat="43.73108" lon="6.62092">
        <ele>963.5</ele>
        <time>2024-05-26T15:16:25Z</time>
      </trkpt>
      <trkpt lat="43.73108" lon="6.62092">
        <ele>963.4</ele>
        <time>2024-05-26T15:16:26Z</time>
      </trkpt>
      <trkpt lat="43.73108" lon="6.62092">
        <ele>963.3</ele>
        <time>2024-05-26T15:16:27Z</time>
      </trkpt>
      <trkpt lat="43.73108" lon="6.62092">
        <ele>963.2</ele>
        <time>2024-05-26T15:16:28Z</time>
      </trkpt>
      <trkpt lat="43.73108" lon="6.62091">
        <ele>963.1</ele>
        <time>2024-05-26T15:16:29Z</time>
      </trkpt>
      <trkpt lat="43.73108" lon="6.62091">
        <ele>963</ele>
        <time>2024-05-26T15:16:30Z</time>
      </trkpt>
      <trkpt lat="43.73108" lon="6.62091">
        <ele>963</ele>
        <time>2024-05-26T15:16:31Z</time>
      </trkpt>
      <trkpt lat="43.73108" lon="6.62091">
        <ele>963</ele>
        <time>2024-05-26T15:16:32Z</time>
      </trkpt>
      <trkpt lat="43.73108" lon="6.62091">
        <ele>962.9</ele>
        <time>2024-05-26T15:16:33Z</time>
      </trkpt>
      <trkpt lat="43.73107" lon="6.6209">
        <ele>962.9</ele>
        <time>2024-05-26T15:16:34Z</time>
      </trkpt>
      <trkpt lat="43.73107" lon="6.6209">
        <ele>962.9</ele>
        <time>2024-05-26T15:16:35Z</time>
      </trkpt>
      <trkpt lat="43.73107" lon="6.6209">
        <ele>962.8</ele>
        <time>2024-05-26T15:16:36Z</time>
      </trkpt>
      <trkpt lat="43.73107" lon="6.6209">
        <ele>962.8</ele>
        <time>2024-05-26T15:16:37Z</time>
      </trkpt>
      <trkpt lat="43.73107" lon="6.6209">
        <ele>962.7</ele>
        <time>2024-05-26T15:16:38Z</time>
      </trkpt>
      <trkpt lat="43.73107" lon="6.6209">
        <ele>962.8</ele>
        <time>2024-05-26T15:16:39Z</time>
      </trkpt>
      <trkpt lat="43.73107" lon="6.6209">
        <ele>962.7</ele>
        <time>2024-05-26T15:16:40Z</time>
      </trkpt>
      <trkpt lat="43.73106" lon="6.6209">
        <ele>962.7</ele>
        <time>2024-05-26T15:16:41Z</time>
      </trkpt>
      <trkpt lat="43.73106" lon="6.6209">
        <ele>962.6</ele>
        <time>2024-05-26T15:16:42Z</time>
      </trkpt>
      <trkpt lat="43.73106" lon="6.62091">
        <ele>962.6</ele>
        <time>2024-05-26T15:16:43Z</time>
      </trkpt>
      <trkpt lat="43.73106" lon="6.62092">
        <ele>962.5</ele>
        <time>2024-05-26T15:16:44Z</time>
      </trkpt>
      <trkpt lat="43.73105" lon="6.62092">
        <ele>962.5</ele>
        <time>2024-05-26T15:16:45Z</time>
      </trkpt>
      <trkpt lat="43.73105" lon="6.62093">
        <ele>962.5</ele>
        <time>2024-05-26T15:16:46Z</time>
      </trkpt>
      <trkpt lat="43.73105" lon="6.62093">
        <ele>962.5</ele>
        <time>2024-05-26T15:16:47Z</time>
      </trkpt>
      <trkpt lat="43.73105" lon="6.62093">
        <ele>962.5</ele>
        <time>2024-05-26T15:16:48Z</time>
      </trkpt>
      <trkpt lat="43.73105" lon="6.62093">
        <ele>962.5</ele>
        <time>2024-05-26T15:16:49Z</time>
      </trkpt>
      <trkpt lat="43.73105" lon="6.62094">
        <ele>962.5</ele>
        <time>2024-05-26T15:16:50Z</time>
      </trkpt>
      <trkpt lat="43.73105" lon="6.62094">
        <ele>962.6</ele>
        <time>2024-05-26T15:16:51Z</time>
      </trkpt>
      <trkpt lat="43.73105" lon="6.62094">
        <ele>962.6</ele>
        <time>2024-05-26T15:16:52Z</time>
      </trkpt>
      <trkpt lat="43.73104" lon="6.62095">
        <ele>962.6</ele>
        <time>2024-05-26T15:16:53Z</time>
      </trkpt>
      <trkpt lat="43.73104" lon="6.62095">
        <ele>962.7</ele>
        <time>2024-05-26T15:16:54Z</time>
      </trkpt>
      <trkpt lat="43.73104" lon="6.62095">
        <ele>962.7</ele>
        <time>2024-05-26T15:16:55Z</time>
      </trkpt>
      <trkpt lat="43.73104" lon="6.62095">
        <ele>962.7</ele>
        <time>2024-05-26T15:16:56Z</time>
      </trkpt>
      <trkpt lat="43.73104" lon="6.62095">
        <ele>962.8</ele>
        <time>2024-05-26T15:16:57Z</time>
      </trkpt>
      <trkpt lat="43.73104" lon="6.62095">
        <ele>962.9</ele>
        <time>2024-05-26T15:16:58Z</time>
      </trkpt>
      <trkpt lat="43.73104" lon="6.62096">
        <ele>962.9</ele>
        <time>2024-05-26T15:16:59Z</time>
      </trkpt>
      <trkpt lat="43.73104" lon="6.62096">
        <ele>963</ele>
        <time>2024-05-26T15:17:00Z</time>
      </trkpt>
      <trkpt lat="43.73104" lon="6.62096">
        <ele>963</ele>
        <time>2024-05-26T15:17:01Z</time>
      </trkpt>
      <trkpt lat="43.73104" lon="6.62096">
        <ele>963</ele>
        <time>2024-05-26T15:17:02Z</time>
      </trkpt>
      <trkpt lat="43.73104" lon="6.62096">
        <ele>963</ele>
        <time>2024-05-26T15:17:03Z</time>
      </trkpt>
      <trkpt lat="43.73104" lon="6.62095">
        <ele>963</ele>
        <time>2024-05-26T15:17:04Z</time>
      </trkpt>
      <trkpt lat="43.73104" lon="6.62095">
        <ele>963</ele>
        <time>2024-05-26T15:17:05Z</time>
      </trkpt>
      <trkpt lat="43.73104" lon="6.62095">
        <ele>963</ele>
        <time>2024-05-26T15:17:06Z</time>
      </trkpt>
      <trkpt lat="43.73104" lon="6.62095">
        <ele>963</ele>
        <time>2024-05-26T15:17:07Z</time>
      </trkpt>
      <trkpt lat="43.73104" lon="6.62095">
        <ele>962.9</ele>
        <time>2024-05-26T15:17:08Z</time>
      </trkpt>
      <trkpt lat="43.73104" lon="6.62095">
        <ele>962.9</ele>
        <time>2024-05-26T15:17:09Z</time>
      </trkpt>
      <trkpt lat="43.73104" lon="6.62095">
        <ele>962.9</ele>
        <time>2024-05-26T15:17:10Z</time>
      </trkpt>
      <trkpt lat="43.73104" lon="6.62095">
        <ele>962.9</ele>
        <time>2024-05-26T15:17:11Z</time>
      </trkpt>
      <trkpt lat="43.73104" lon="6.62095">
        <ele>962.9</ele>
        <time>2024-05-26T15:17:12Z</time>
      </trkpt>
      <trkpt lat="43.73104" lon="6.62095">
        <ele>962.9</ele>
        <time>2024-05-26T15:17:13Z</time>
      </trkpt>
      <trkpt lat="43.73104" lon="6.62095">
        <ele>962.9</ele>
        <time>2024-05-26T15:17:14Z</time>
      </trkpt>
      <trkpt lat="43.73105" lon="6.62095">
        <ele>961.6</ele>
        <time>2024-05-26T15:17:15Z</time>
      </trkpt>
      <trkpt lat="43.73105" lon="6.62095">
        <ele>961.3</ele>
        <time>2024-05-26T15:17:16Z</time>
      </trkpt>
      <trkpt lat="43.73105" lon="6.62095">
        <ele>961.4</ele>
        <time>2024-05-26T15:17:17Z</time>
      </trkpt>
      <trkpt lat="43.73104" lon="6.62095">
        <ele>961.7</ele>
        <time>2024-05-26T15:17:18Z</time>
      </trkpt>
      <trkpt lat="43.73104" lon="6.62095">
        <ele>961.9</ele>
        <time>2024-05-26T15:17:19Z</time>
      </trkpt>
      <trkpt lat="43.73104" lon="6.62095">
        <ele>962.1</ele>
        <time>2024-05-26T15:17:20Z</time>
      </trkpt>
      <trkpt lat="43.73103" lon="6.62095">
        <ele>962.3</ele>
        <time>2024-05-26T15:17:21Z</time>
      </trkpt>
      <trkpt lat="43.73103" lon="6.62095">
        <ele>962.4</ele>
        <time>2024-05-26T15:17:22Z</time>
      </trkpt>
      <trkpt lat="43.73103" lon="6.62095">
        <ele>962.5</ele>
        <time>2024-05-26T15:17:23Z</time>
      </trkpt>
      <trkpt lat="43.73103" lon="6.62095">
        <ele>962.5</ele>
        <time>2024-05-26T15:17:24Z</time>
      </trkpt>
      <trkpt lat="43.73103" lon="6.62095">
        <ele>962.5</ele>
        <time>2024-05-26T15:17:25Z</time>
      </trkpt>
      <trkpt lat="43.73102" lon="6.62095">
        <ele>962.6</ele>
        <time>2024-05-26T15:17:26Z</time>
      </trkpt>
      <trkpt lat="43.73102" lon="6.62095">
        <ele>962.6</ele>
        <time>2024-05-26T15:17:27Z</time>
      </trkpt>
      <trkpt lat="43.73102" lon="6.62095">
        <ele>962.7</ele>
        <time>2024-05-26T15:17:28Z</time>
      </trkpt>
      <trkpt lat="43.73102" lon="6.62095">
        <ele>962.7</ele>
        <time>2024-05-26T15:17:29Z</time>
      </trkpt>
      <trkpt lat="43.73102" lon="6.62095">
        <ele>962.8</ele>
        <time>2024-05-26T15:17:30Z</time>
      </trkpt>
      <trkpt lat="43.73102" lon="6.62095">
        <ele>962.8</ele>
        <time>2024-05-26T15:17:31Z</time>
      </trkpt>
      <trkpt lat="43.73102" lon="6.62095">
        <ele>962.8</ele>
        <time>2024-05-26T15:17:32Z</time>
      </trkpt>
      <trkpt lat="43.73102" lon="6.62095">
        <ele>962.8</ele>
        <time>2024-05-26T15:17:33Z</time>
      </trkpt>
      <trkpt lat="43.73102" lon="6.62095">
        <ele>962.9</ele>
        <time>2024-05-26T15:17:34Z</time>
      </trkpt>
      <trkpt lat="43.73101" lon="6.62095">
        <ele>962.8</ele>
        <time>2024-05-26T15:17:35Z</time>
      </trkpt>
      <trkpt lat="43.73101" lon="6.62095">
        <ele>962.9</ele>
        <time>2024-05-26T15:17:36Z</time>
      </trkpt>
      <trkpt lat="43.73101" lon="6.62095">
        <ele>963</ele>
        <time>2024-05-26T15:17:37Z</time>
      </trkpt>
      <trkpt lat="43.73101" lon="6.62095">
        <ele>963</ele>
        <time>2024-05-26T15:17:38Z</time>
      </trkpt>
      <trkpt lat="43.73101" lon="6.62095">
        <ele>962.9</ele>
        <time>2024-05-26T15:17:39Z</time>
      </trkpt>
      <trkpt lat="43.73101" lon="6.62094">
        <ele>962.9</ele>
        <time>2024-05-26T15:17:40Z</time>
      </trkpt>
      <trkpt lat="43.73102" lon="6.62093">
        <ele>962.9</ele>
        <time>2024-05-26T15:17:41Z</time>
      </trkpt>
      <trkpt lat="43.73102" lon="6.62093">
        <ele>962.9</ele>
        <time>2024-05-26T15:17:42Z</time>
      </trkpt>
      <trkpt lat="43.73102" lon="6.62093">
        <ele>962.9</ele>
        <time>2024-05-26T15:17:43Z</time>
      </trkpt>
      <trkpt lat="43.73102" lon="6.62093">
        <ele>962.8</ele>
        <time>2024-05-26T15:17:44Z</time>
      </trkpt>
      <trkpt lat="43.73102" lon="6.62093">
        <ele>962.8</ele>
        <time>2024-05-26T15:17:45Z</time>
      </trkpt>
      <trkpt lat="43.73102" lon="6.62093">
        <ele>962.7</ele>
        <time>2024-05-26T15:17:46Z</time>
      </trkpt>
      <trkpt lat="43.73102" lon="6.62092">
        <ele>962.6</ele>
        <time>2024-05-26T15:17:47Z</time>
      </trkpt>
      <trkpt lat="43.73102" lon="6.62092">
        <ele>962.6</ele>
        <time>2024-05-26T15:17:48Z</time>
      </trkpt>
      <trkpt lat="43.73102" lon="6.62091">
        <ele>962.6</ele>
        <time>2024-05-26T15:17:49Z</time>
      </trkpt>
      <trkpt lat="43.73102" lon="6.62091">
        <ele>962.6</ele>
        <time>2024-05-26T15:17:50Z</time>
      </trkpt>
      <trkpt lat="43.73102" lon="6.62091">
        <ele>962.6</ele>
        <time>2024-05-26T15:17:51Z</time>
      </trkpt>
      <trkpt lat="43.73102" lon="6.62091">
        <ele>962.6</ele>
        <time>2024-05-26T15:17:52Z</time>
      </trkpt>
      <trkpt lat="43.73103" lon="6.6209">
        <ele>962.6</ele>
        <time>2024-05-26T15:17:53Z</time>
      </trkpt>
      <trkpt lat="43.73103" lon="6.6209">
        <ele>962.5</ele>
        <time>2024-05-26T15:17:54Z</time>
      </trkpt>
      <trkpt lat="43.73103" lon="6.6209">
        <ele>962.5</ele>
        <time>2024-05-26T15:17:55Z</time>
      </trkpt>
      <trkpt lat="43.73103" lon="6.6209">
        <ele>962.5</ele>
        <time>2024-05-26T15:17:56Z</time>
      </trkpt>
      <trkpt lat="43.73103" lon="6.62089">
        <ele>962.6</ele>
        <time>2024-05-26T15:17:57Z</time>
      </trkpt>
      <trkpt lat="43.73103" lon="6.62089">
        <ele>962.7</ele>
        <time>2024-05-26T15:17:58Z</time>
      </trkpt>
      <trkpt lat="43.73103" lon="6.62089">
        <ele>962.7</ele>
        <time>2024-05-26T15:17:59Z</time>
      </trkpt>
      <trkpt lat="43.73104" lon="6.62089">
        <ele>962.7</ele>
        <time>2024-05-26T15:18:00Z</time>
      </trkpt>
      <trkpt lat="43.73104" lon="6.62089">
        <ele>962.8</ele>
        <time>2024-05-26T15:18:01Z</time>
      </trkpt>
      <trkpt lat="43.73104" lon="6.62089">
        <ele>962.9</ele>
        <time>2024-05-26T15:18:02Z</time>
      </trkpt>
      <trkpt lat="43.73104" lon="6.62089">
        <ele>962.9</ele>
        <time>2024-05-26T15:18:03Z</time>
      </trkpt>
      <trkpt lat="43.73104" lon="6.62089">
        <ele>962.9</ele>
        <time>2024-05-26T15:18:04Z</time>
      </trkpt>
      <trkpt lat="43.73104" lon="6.62089">
        <ele>962.9</ele>
        <time>2024-05-26T15:18:05Z</time>
      </trkpt>
      <trkpt lat="43.73104" lon="6.62089">
        <ele>962.9</ele>
        <time>2024-05-26T15:18:06Z</time>
      </trkpt>
      <trkpt lat="43.73104" lon="6.62089">
        <ele>962.9</ele>
        <time>2024-05-26T15:18:07Z</time>
      </trkpt>
      <trkpt lat="43.73104" lon="6.62089">
        <ele>962.9</ele>
        <time>2024-05-26T15:18:08Z</time>
      </trkpt>
      <trkpt lat="43.73104" lon="6.62089">
        <ele>962.9</ele>
        <time>2024-05-26T15:18:09Z</time>
      </trkpt>
      <trkpt lat="43.73104" lon="6.62089">
        <ele>962.9</ele>
        <time>2024-05-26T15:18:10Z</time>
      </trkpt>
      <trkpt lat="43.73104" lon="6.62089">
        <ele>962.9</ele>
        <time>2024-05-26T15:18:11Z</time>
      </trkpt>
      <trkpt lat="43.73104" lon="6.62088">
        <ele>962.8</ele>
        <time>2024-05-26T15:18:12Z</time>
      </trkpt>
      <trkpt lat="43.73104" lon="6.62088">
        <ele>962.8</ele>
        <time>2024-05-26T15:18:13Z</time>
      </trkpt>
      <trkpt lat="43.73105" lon="6.62088">
        <ele>962.8</ele>
        <time>2024-05-26T15:18:14Z</time>
      </trkpt>
      <trkpt lat="43.73105" lon="6.62088">
        <ele>962.8</ele>
        <time>2024-05-26T15:18:15Z</time>
      </trkpt>
      <trkpt lat="43.73105" lon="6.62088">
        <ele>962.8</ele>
        <time>2024-05-26T15:18:16Z</time>
      </trkpt>
      <trkpt lat="43.73105" lon="6.62088">
        <ele>962.9</ele>
        <time>2024-05-26T15:18:17Z</time>
      </trkpt>
      <trkpt lat="43.73105" lon="6.62088">
        <ele>962.8</ele>
        <time>2024-05-26T15:18:18Z</time>
      </trkpt>
      <trkpt lat="43.73105" lon="6.62088">
        <ele>962.9</ele>
        <time>2024-05-26T15:18:19Z</time>
      </trkpt>
      <trkpt lat="43.73105" lon="6.62088">
        <ele>962.9</ele>
        <time>2024-05-26T15:18:20Z</time>
      </trkpt>
      <trkpt lat="43.73105" lon="6.62088">
        <ele>962.9</ele>
        <time>2024-05-26T15:18:21Z</time>
      </trkpt>
      <trkpt lat="43.73105" lon="6.62088">
        <ele>962.8</ele>
        <time>2024-05-26T15:18:22Z</time>
      </trkpt>
      <trkpt lat="43.73105" lon="6.62088">
        <ele>962.9</ele>
        <time>2024-05-26T15:18:23Z</time>
      </trkpt>
      <trkpt lat="43.73105" lon="6.62088">
        <ele>962.9</ele>
        <time>2024-05-26T15:18:24Z</time>
      </trkpt>
      <trkpt lat="43.73105" lon="6.62088">
        <ele>962.9</ele>
        <time>2024-05-26T15:18:25Z</time>
      </trkpt>
      <trkpt lat="43.73105" lon="6.62088">
        <ele>962.9</ele>
        <time>2024-05-26T15:18:26Z</time>
      </trkpt>
      <trkpt lat="43.73105" lon="6.62088">
        <ele>963</ele>
        <time>2024-05-26T15:18:27Z</time>
      </trkpt>
      <trkpt lat="43.73105" lon="6.62088">
        <ele>963</ele>
        <time>2024-05-26T15:18:28Z</time>
      </trkpt>
      <trkpt lat="43.73105" lon="6.62088">
        <ele>963.1</ele>
        <time>2024-05-26T15:18:29Z</time>
      </trkpt>
      <trkpt lat="43.73106" lon="6.62088">
        <ele>963.2</ele>
        <time>2024-05-26T15:18:30Z</time>
      </trkpt>
      <trkpt lat="43.73106" lon="6.62088">
        <ele>963.2</ele>
        <time>2024-05-26T15:18:31Z</time>
      </trkpt>
      <trkpt lat="43.73106" lon="6.62088">
        <ele>963.2</ele>
        <time>2024-05-26T15:18:32Z</time>
      </trkpt>
      <trkpt lat="43.73106" lon="6.62087">
        <ele>963.2</ele>
        <time>2024-05-26T15:18:33Z</time>
      </trkpt>
      <trkpt lat="43.73106" lon="6.62087">
        <ele>963.2</ele>
        <time>2024-05-26T15:18:34Z</time>
      </trkpt>
      <trkpt lat="43.73106" lon="6.62087">
        <ele>963.2</ele>
        <time>2024-05-26T15:18:35Z</time>
      </trkpt>
      <trkpt lat="43.73106" lon="6.62087">
        <ele>963.2</ele>
        <time>2024-05-26T15:18:36Z</time>
      </trkpt>
      <trkpt lat="43.73106" lon="6.62087">
        <ele>963.2</ele>
        <time>2024-05-26T15:18:37Z</time>
      </trkpt>
      <trkpt lat="43.73106" lon="6.62087">
        <ele>963.2</ele>
        <time>2024-05-26T15:18:38Z</time>
      </trkpt>
      <trkpt lat="43.73106" lon="6.62087">
        <ele>963.2</ele>
        <time>2024-05-26T15:18:39Z</time>
      </trkpt>
      <trkpt lat="43.73106" lon="6.62087">
        <ele>963.2</ele>
        <time>2024-05-26T15:18:40Z</time>
      </trkpt>
      <trkpt lat="43.73105" lon="6.62087">
        <ele>963.2</ele>
        <time>2024-05-26T15:18:41Z</time>
      </trkpt>
      <trkpt lat="43.73105" lon="6.62087">
        <ele>963.2</ele>
        <time>2024-05-26T15:18:42Z</time>
      </trkpt>
      <trkpt lat="43.73105" lon="6.62087">
        <ele>963.1</ele>
        <time>2024-05-26T15:18:43Z</time>
      </trkpt>
      <trkpt lat="43.73105" lon="6.62087">
        <ele>963</ele>
        <time>2024-05-26T15:18:44Z</time>
      </trkpt>
      <trkpt lat="43.73105" lon="6.62086">
        <ele>963</ele>
        <time>2024-05-26T15:18:45Z</time>
      </trkpt>
      <trkpt lat="43.73105" lon="6.62086">
        <ele>963</ele>
        <time>2024-05-26T15:18:46Z</time>
      </trkpt>
      <trkpt lat="43.73106" lon="6.62086">
        <ele>963</ele>
        <time>2024-05-26T15:18:47Z</time>
      </trkpt>
      <trkpt lat="43.73106" lon="6.62086">
        <ele>962.9</ele>
        <time>2024-05-26T15:18:48Z</time>
      </trkpt>
      <trkpt lat="43.73106" lon="6.62086">
        <ele>963</ele>
        <time>2024-05-26T15:18:49Z</time>
      </trkpt>
      <trkpt lat="43.73106" lon="6.62086">
        <ele>963</ele>
        <time>2024-05-26T15:18:50Z</time>
      </trkpt>
      <trkpt lat="43.73105" lon="6.62086">
        <ele>963</ele>
        <time>2024-05-26T15:18:51Z</time>
      </trkpt>
      <trkpt lat="43.73105" lon="6.62086">
        <ele>963.1</ele>
        <time>2024-05-26T15:18:52Z</time>
      </trkpt>
      <trkpt lat="43.73105" lon="6.62085">
        <ele>962.4</ele>
        <time>2024-05-26T15:18:53Z</time>
      </trkpt>
      <trkpt lat="43.73105" lon="6.62085">
        <ele>962.5</ele>
        <time>2024-05-26T15:18:54Z</time>
      </trkpt>
      <trkpt lat="43.73105" lon="6.62085">
        <ele>962.7</ele>
        <time>2024-05-26T15:18:55Z</time>
      </trkpt>
      <trkpt lat="43.73105" lon="6.62085">
        <ele>962.8</ele>
        <time>2024-05-26T15:18:56Z</time>
      </trkpt>
      <trkpt lat="43.73105" lon="6.62085">
        <ele>962.8</ele>
        <time>2024-05-26T15:18:57Z</time>
      </trkpt>
      <trkpt lat="43.73105" lon="6.62085">
        <ele>962.9</ele>
        <time>2024-05-26T15:18:58Z</time>
      </trkpt>
      <trkpt lat="43.73105" lon="6.62085">
        <ele>963</ele>
        <time>2024-05-26T15:18:59Z</time>
      </trkpt>
      <trkpt lat="43.73105" lon="6.62085">
        <ele>963.1</ele>
        <time>2024-05-26T15:19:00Z</time>
      </trkpt>
      <trkpt lat="43.73105" lon="6.62085">
        <ele>963.2</ele>
        <time>2024-05-26T15:19:01Z</time>
      </trkpt>
      <trkpt lat="43.73105" lon="6.62085">
        <ele>963.3</ele>
        <time>2024-05-26T15:19:02Z</time>
      </trkpt>
      <trkpt lat="43.73105" lon="6.62085">
        <ele>963.3</ele>
        <time>2024-05-26T15:19:03Z</time>
      </trkpt>
      <trkpt lat="43.73105" lon="6.62084">
        <ele>963.3</ele>
        <time>2024-05-26T15:19:04Z</time>
      </trkpt>
      <trkpt lat="43.73105" lon="6.62085">
        <ele>963.3</ele>
        <time>2024-05-26T15:19:05Z</time>
      </trkpt>
      <trkpt lat="43.73105" lon="6.62085">
        <ele>963.4</ele>
        <time>2024-05-26T15:19:06Z</time>
      </trkpt>
      <trkpt lat="43.73105" lon="6.62085">
        <ele>963.4</ele>
        <time>2024-05-26T15:19:07Z</time>
      </trkpt>
      <trkpt lat="43.73104" lon="6.62086">
        <ele>963.3</ele>
        <time>2024-05-26T15:19:08Z</time>
      </trkpt>
      <trkpt lat="43.73104" lon="6.62086">
        <ele>963.2</ele>
        <time>2024-05-26T15:19:09Z</time>
      </trkpt>
      <trkpt lat="43.73104" lon="6.62086">
        <ele>963.2</ele>
        <time>2024-05-26T15:19:10Z</time>
      </trkpt>
      <trkpt lat="43.73105" lon="6.62086">
        <ele>963.3</ele>
        <time>2024-05-26T15:19:11Z</time>
      </trkpt>
      <trkpt lat="43.73105" lon="6.62086">
        <ele>963.3</ele>
        <time>2024-05-26T15:19:12Z</time>
      </trkpt>
      <trkpt lat="43.73105" lon="6.62086">
        <ele>963.2</ele>
        <time>2024-05-26T15:19:13Z</time>
      </trkpt>
      <trkpt lat="43.73105" lon="6.62087">
        <ele>963.3</ele>
        <time>2024-05-26T15:19:14Z</time>
      </trkpt>
      <trkpt lat="43.73105" lon="6.62087">
        <ele>963.3</ele>
        <time>2024-05-26T15:19:15Z</time>
      </trkpt>
      <trkpt lat="43.73104" lon="6.62087">
        <ele>963.4</ele>
        <time>2024-05-26T15:19:16Z</time>
      </trkpt>
      <trkpt lat="43.73104" lon="6.62088">
        <ele>963.4</ele>
        <time>2024-05-26T15:19:17Z</time>
      </trkpt>
      <trkpt lat="43.73104" lon="6.62088">
        <ele>963.3</ele>
        <time>2024-05-26T15:19:18Z</time>
      </trkpt>
      <trkpt lat="43.73104" lon="6.62088">
        <ele>963.3</ele>
        <time>2024-05-26T15:19:19Z</time>
      </trkpt>
      <trkpt lat="43.73104" lon="6.62088">
        <ele>963.3</ele>
        <time>2024-05-26T15:19:20Z</time>
      </trkpt>
      <trkpt lat="43.73104" lon="6.62088">
        <ele>963.3</ele>
        <time>2024-05-26T15:19:21Z</time>
      </trkpt>
      <trkpt lat="43.73105" lon="6.62088">
        <ele>963.3</ele>
        <time>2024-05-26T15:19:22Z</time>
      </trkpt>
      <trkpt lat="43.73105" lon="6.62088">
        <ele>963.2</ele>
        <time>2024-05-26T15:19:23Z</time>
      </trkpt>
      <trkpt lat="43.73105" lon="6.62088">
        <ele>963.2</ele>
        <time>2024-05-26T15:19:24Z</time>
      </trkpt>
      <trkpt lat="43.73105" lon="6.62089">
        <ele>963.1</ele>
        <time>2024-05-26T15:19:25Z</time>
      </trkpt>
      <trkpt lat="43.73105" lon="6.62089">
        <ele>963.1</ele>
        <time>2024-05-26T15:19:26Z</time>
      </trkpt>
      <trkpt lat="43.73105" lon="6.62089">
        <ele>963</ele>
        <time>2024-05-26T15:19:27Z</time>
      </trkpt>
      <trkpt lat="43.73105" lon="6.62089">
        <ele>963</ele>
        <time>2024-05-26T15:19:28Z</time>
      </trkpt>
      <trkpt lat="43.73105" lon="6.62089">
        <ele>962.9</ele>
        <time>2024-05-26T15:19:29Z</time>
      </trkpt>
      <trkpt lat="43.73105" lon="6.62089">
        <ele>962.9</ele>
        <time>2024-05-26T15:19:30Z</time>
      </trkpt>
      <trkpt lat="43.73106" lon="6.62089">
        <ele>962.9</ele>
        <time>2024-05-26T15:19:31Z</time>
      </trkpt>
      <trkpt lat="43.73106" lon="6.62089">
        <ele>962.9</ele>
        <time>2024-05-26T15:19:32Z</time>
      </trkpt>
      <trkpt lat="43.73105" lon="6.6209">
        <ele>962.9</ele>
        <time>2024-05-26T15:19:33Z</time>
      </trkpt>
      <trkpt lat="43.73105" lon="6.6209">
        <ele>962.9</ele>
        <time>2024-05-26T15:19:34Z</time>
      </trkpt>
      <trkpt lat="43.73105" lon="6.6209">
        <ele>962.9</ele>
        <time>2024-05-26T15:19:35Z</time>
      </trkpt>
      <trkpt lat="43.73105" lon="6.6209">
        <ele>963</ele>
        <time>2024-05-26T15:19:36Z</time>
      </trkpt>
      <trkpt lat="43.73105" lon="6.62091">
        <ele>963</ele>
        <time>2024-05-26T15:19:37Z</time>
      </trkpt>
      <trkpt lat="43.73105" lon="6.62091">
        <ele>963</ele>
        <time>2024-05-26T15:19:38Z</time>
      </trkpt>
      <trkpt lat="43.73105" lon="6.62091">
        <ele>963</ele>
        <time>2024-05-26T15:19:39Z</time>
      </trkpt>
      <trkpt lat="43.73105" lon="6.62091">
        <ele>963.1</ele>
        <time>2024-05-26T15:19:40Z</time>
      </trkpt>
      <trkpt lat="43.73105" lon="6.62091">
        <ele>963.2</ele>
        <time>2024-05-26T15:19:41Z</time>
      </trkpt>
      <trkpt lat="43.73105" lon="6.62091">
        <ele>963.2</ele>
        <time>2024-05-26T15:19:42Z</time>
      </trkpt>
      <trkpt lat="43.73105" lon="6.62091">
        <ele>963.2</ele>
        <time>2024-05-26T15:19:43Z</time>
      </trkpt>
      <trkpt lat="43.73105" lon="6.62091">
        <ele>963.2</ele>
        <time>2024-05-26T15:19:44Z</time>
      </trkpt>
      <trkpt lat="43.73105" lon="6.62091">
        <ele>963.2</ele>
        <time>2024-05-26T15:19:45Z</time>
      </trkpt>
      <trkpt lat="43.73105" lon="6.62091">
        <ele>963.2</ele>
        <time>2024-05-26T15:19:46Z</time>
      </trkpt>
      <trkpt lat="43.73105" lon="6.62091">
        <ele>963.2</ele>
        <time>2024-05-26T15:19:47Z</time>
      </trkpt>
      <trkpt lat="43.73105" lon="6.62092">
        <ele>963.2</ele>
        <time>2024-05-26T15:19:48Z</time>
      </trkpt>
      <trkpt lat="43.73105" lon="6.62092">
        <ele>963.2</ele>
        <time>2024-05-26T15:19:49Z</time>
      </trkpt>
      <trkpt lat="43.73105" lon="6.62092">
        <ele>963.2</ele>
        <time>2024-05-26T15:19:50Z</time>
      </trkpt>
      <trkpt lat="43.73105" lon="6.62092">
        <ele>963.2</ele>
        <time>2024-05-26T15:19:51Z</time>
      </trkpt>
      <trkpt lat="43.73105" lon="6.62092">
        <ele>963.1</ele>
        <time>2024-05-26T15:19:52Z</time>
      </trkpt>
      <trkpt lat="43.73105" lon="6.62092">
        <ele>963</ele>
        <time>2024-05-26T15:19:53Z</time>
      </trkpt>
      <trkpt lat="43.73105" lon="6.62092">
        <ele>963</ele>
        <time>2024-05-26T15:19:54Z</time>
      </trkpt>
      <trkpt lat="43.73105" lon="6.62093">
        <ele>963</ele>
        <time>2024-05-26T15:19:55Z</time>
      </trkpt>
      <trkpt lat="43.73105" lon="6.62093">
        <ele>962.9</ele>
        <time>2024-05-26T15:19:56Z</time>
      </trkpt>
      <trkpt lat="43.73105" lon="6.62093">
        <ele>962.9</ele>
        <time>2024-05-26T15:19:57Z</time>
      </trkpt>
      <trkpt lat="43.73105" lon="6.62093">
        <ele>962.9</ele>
        <time>2024-05-26T15:19:58Z</time>
      </trkpt>
      <trkpt lat="43.73105" lon="6.62093">
        <ele>962.9</ele>
        <time>2024-05-26T15:19:59Z</time>
      </trkpt>
      <trkpt lat="43.73105" lon="6.62093">
        <ele>962.8</ele>
        <time>2024-05-26T15:20:00Z</time>
      </trkpt>
      <trkpt lat="43.73105" lon="6.62093">
        <ele>962.8</ele>
        <time>2024-05-26T15:20:01Z</time>
      </trkpt>
      <trkpt lat="43.73105" lon="6.62093">
        <ele>962.8</ele>
        <time>2024-05-26T15:20:02Z</time>
      </trkpt>
      <trkpt lat="43.73105" lon="6.62092">
        <ele>962.8</ele>
        <time>2024-05-26T15:20:03Z</time>
      </trkpt>
      <trkpt lat="43.73105" lon="6.62092">
        <ele>962.8</ele>
        <time>2024-05-26T15:20:04Z</time>
      </trkpt>
      <trkpt lat="43.73105" lon="6.62092">
        <ele>962.7</ele>
        <time>2024-05-26T15:20:05Z</time>
      </trkpt>
      <trkpt lat="43.73105" lon="6.62092">
        <ele>962.7</ele>
        <time>2024-05-26T15:20:06Z</time>
      </trkpt>
      <trkpt lat="43.73105" lon="6.62092">
        <ele>962.6</ele>
        <time>2024-05-26T15:20:07Z</time>
      </trkpt>
      <trkpt lat="43.73105" lon="6.62092">
        <ele>962.7</ele>
        <time>2024-05-26T15:20:08Z</time>
      </trkpt>
      <trkpt lat="43.73105" lon="6.62092">
        <ele>962.8</ele>
        <time>2024-05-26T15:20:09Z</time>
      </trkpt>
      <trkpt lat="43.73105" lon="6.62093">
        <ele>962.8</ele>
        <time>2024-05-26T15:20:10Z</time>
      </trkpt>
      <trkpt lat="43.73105" lon="6.62093">
        <ele>962.7</ele>
        <time>2024-05-26T15:20:11Z</time>
      </trkpt>
      <trkpt lat="43.73105" lon="6.62093">
        <ele>962.7</ele>
        <time>2024-05-26T15:20:12Z</time>
      </trkpt>
      <trkpt lat="43.73105" lon="6.62093">
        <ele>962.7</ele>
        <time>2024-05-26T15:20:13Z</time>
      </trkpt>
      <trkpt lat="43.73105" lon="6.62093">
        <ele>962.8</ele>
        <time>2024-05-26T15:20:14Z</time>
      </trkpt>
      <trkpt lat="43.73105" lon="6.62093">
        <ele>962.8</ele>
        <time>2024-05-26T15:20:15Z</time>
      </trkpt>
      <trkpt lat="43.73105" lon="6.62093">
        <ele>962.9</ele>
        <time>2024-05-26T15:20:16Z</time>
      </trkpt>
      <trkpt lat="43.73104" lon="6.62093">
        <ele>963</ele>
        <time>2024-05-26T15:20:17Z</time>
      </trkpt>
      <trkpt lat="43.73104" lon="6.62093">
        <ele>963</ele>
        <time>2024-05-26T15:20:18Z</time>
      </trkpt>
      <trkpt lat="43.73104" lon="6.62093">
        <ele>963.1</ele>
        <time>2024-05-26T15:20:19Z</time>
      </trkpt>
      <trkpt lat="43.73104" lon="6.62093">
        <ele>963</ele>
        <time>2024-05-26T15:20:20Z</time>
      </trkpt>
      <trkpt lat="43.73104" lon="6.62093">
        <ele>963</ele>
        <time>2024-05-26T15:20:21Z</time>
      </trkpt>
      <trkpt lat="43.73104" lon="6.62093">
        <ele>962.9</ele>
        <time>2024-05-26T15:20:22Z</time>
      </trkpt>
      <trkpt lat="43.73103" lon="6.62093">
        <ele>962.9</ele>
        <time>2024-05-26T15:20:23Z</time>
      </trkpt>
      <trkpt lat="43.73103" lon="6.62093">
        <ele>962.9</ele>
        <time>2024-05-26T15:20:24Z</time>
      </trkpt>
      <trkpt lat="43.73103" lon="6.62093">
        <ele>962.9</ele>
        <time>2024-05-26T15:20:25Z</time>
      </trkpt>
      <trkpt lat="43.73103" lon="6.62093">
        <ele>962.9</ele>
        <time>2024-05-26T15:20:26Z</time>
      </trkpt>
      <trkpt lat="43.73103" lon="6.62093">
        <ele>962.9</ele>
        <time>2024-05-26T15:20:27Z</time>
      </trkpt>
      <trkpt lat="43.73103" lon="6.62093">
        <ele>962.8</ele>
        <time>2024-05-26T15:20:28Z</time>
      </trkpt>
      <trkpt lat="43.73103" lon="6.62094">
        <ele>962.8</ele>
        <time>2024-05-26T15:20:29Z</time>
      </trkpt>
      <trkpt lat="43.73102" lon="6.62094">
        <ele>962.8</ele>
        <time>2024-05-26T15:20:30Z</time>
      </trkpt>
      <trkpt lat="43.73102" lon="6.62094">
        <ele>962.8</ele>
        <time>2024-05-26T15:20:31Z</time>
      </trkpt>
      <trkpt lat="43.73102" lon="6.62094">
        <ele>962.8</ele>
        <time>2024-05-26T15:20:32Z</time>
      </trkpt>
      <trkpt lat="43.73102" lon="6.62094">
        <ele>962.8</ele>
        <time>2024-05-26T15:20:33Z</time>
      </trkpt>
      <trkpt lat="43.73102" lon="6.62094">
        <ele>962.8</ele>
        <time>2024-05-26T15:20:34Z</time>
      </trkpt>
      <trkpt lat="43.73102" lon="6.62094">
        <ele>962.8</ele>
        <time>2024-05-26T15:20:35Z</time>
      </trkpt>
      <trkpt lat="43.73102" lon="6.62095">
        <ele>962.8</ele>
        <time>2024-05-26T15:20:36Z</time>
      </trkpt>
      <trkpt lat="43.73101" lon="6.62094">
        <ele>962.8</ele>
        <time>2024-05-26T15:20:37Z</time>
      </trkpt>
      <trkpt lat="43.73101" lon="6.62095">
        <ele>962.8</ele>
        <time>2024-05-26T15:20:38Z</time>
      </trkpt>
      <trkpt lat="43.73101" lon="6.62095">
        <ele>962.7</ele>
        <time>2024-05-26T15:20:39Z</time>
      </trkpt>
      <trkpt lat="43.73101" lon="6.62095">
        <ele>962.7</ele>
        <time>2024-05-26T15:20:40Z</time>
      </trkpt>
      <trkpt lat="43.73101" lon="6.62095">
        <ele>962.7</ele>
        <time>2024-05-26T15:20:41Z</time>
      </trkpt>
      <trkpt lat="43.73101" lon="6.62095">
        <ele>962.8</ele>
        <time>2024-05-26T15:20:42Z</time>
      </trkpt>
      <trkpt lat="43.73101" lon="6.62094">
        <ele>962.8</ele>
        <time>2024-05-26T15:20:43Z</time>
      </trkpt>
      <trkpt lat="43.73101" lon="6.62094">
        <ele>962.9</ele>
        <time>2024-05-26T15:20:44Z</time>
      </trkpt>
      <trkpt lat="43.73101" lon="6.62094">
        <ele>962.9</ele>
        <time>2024-05-26T15:20:45Z</time>
      </trkpt>
      <trkpt lat="43.73101" lon="6.62094">
        <ele>962.8</ele>
        <time>2024-05-26T15:20:46Z</time>
      </trkpt>
      <trkpt lat="43.73101" lon="6.62094">
        <ele>962.9</ele>
        <time>2024-05-26T15:20:47Z</time>
      </trkpt>
      <trkpt lat="43.73101" lon="6.62094">
        <ele>962.8</ele>
        <time>2024-05-26T15:20:48Z</time>
      </trkpt>
      <trkpt lat="43.731" lon="6.62095">
        <ele>962.9</ele>
        <time>2024-05-26T15:20:49Z</time>
      </trkpt>
      <trkpt lat="43.731" lon="6.62096">
        <ele>963</ele>
        <time>2024-05-26T15:20:50Z</time>
      </trkpt>
      <trkpt lat="43.731" lon="6.62096">
        <ele>963</ele>
        <time>2024-05-26T15:20:51Z</time>
      </trkpt>
      <trkpt lat="43.731" lon="6.62096">
        <ele>962.9</ele>
        <time>2024-05-26T15:20:52Z</time>
      </trkpt>
      <trkpt lat="43.731" lon="6.62096">
        <ele>962.9</ele>
        <time>2024-05-26T15:20:53Z</time>
      </trkpt>
      <trkpt lat="43.731" lon="6.62097">
        <ele>962.9</ele>
        <time>2024-05-26T15:20:54Z</time>
      </trkpt>
      <trkpt lat="43.731" lon="6.62096">
        <ele>962.9</ele>
        <time>2024-05-26T15:20:55Z</time>
      </trkpt>
      <trkpt lat="43.731" lon="6.62096">
        <ele>962.9</ele>
        <time>2024-05-26T15:20:56Z</time>
      </trkpt>
      <trkpt lat="43.731" lon="6.62096">
        <ele>963</ele>
        <time>2024-05-26T15:20:57Z</time>
      </trkpt>
      <trkpt lat="43.731" lon="6.62096">
        <ele>963</ele>
        <time>2024-05-26T15:20:58Z</time>
      </trkpt>
      <trkpt lat="43.731" lon="6.62096">
        <ele>963</ele>
        <time>2024-05-26T15:20:59Z</time>
      </trkpt>
      <trkpt lat="43.731" lon="6.62096">
        <ele>963</ele>
        <time>2024-05-26T15:21:00Z</time>
      </trkpt>
      <trkpt lat="43.731" lon="6.62096">
        <ele>963</ele>
        <time>2024-05-26T15:21:01Z</time>
      </trkpt>
      <trkpt lat="43.731" lon="6.62097">
        <ele>962.9</ele>
        <time>2024-05-26T15:21:02Z</time>
      </trkpt>
      <trkpt lat="43.731" lon="6.62098">
        <ele>962.9</ele>
        <time>2024-05-26T15:21:03Z</time>
      </trkpt>
      <trkpt lat="43.73101" lon="6.62098">
        <ele>962.9</ele>
        <time>2024-05-26T15:21:04Z</time>
      </trkpt>
      <trkpt lat="43.73101" lon="6.62098">
        <ele>963</ele>
        <time>2024-05-26T15:21:05Z</time>
      </trkpt>
      <trkpt lat="43.73102" lon="6.62098">
        <ele>963</ele>
        <time>2024-05-26T15:21:06Z</time>
      </trkpt>
      <trkpt lat="43.73102" lon="6.62098">
        <ele>962.9</ele>
        <time>2024-05-26T15:21:07Z</time>
      </trkpt>
      <trkpt lat="43.73103" lon="6.62097">
        <ele>962.8</ele>
        <time>2024-05-26T15:21:08Z</time>
      </trkpt>
      <trkpt lat="43.73103" lon="6.62097">
        <ele>962.7</ele>
        <time>2024-05-26T15:21:09Z</time>
      </trkpt>
      <trkpt lat="43.73104" lon="6.62096">
        <ele>962.5</ele>
        <time>2024-05-26T15:21:10Z</time>
      </trkpt>
      <trkpt lat="43.73104" lon="6.62096">
        <ele>962.5</ele>
        <time>2024-05-26T15:21:11Z</time>
      </trkpt>
      <trkpt lat="43.73104" lon="6.62096">
        <ele>962.4</ele>
        <time>2024-05-26T15:21:12Z</time>
      </trkpt>
      <trkpt lat="43.73104" lon="6.62096">
        <ele>962.5</ele>
        <time>2024-05-26T15:21:13Z</time>
      </trkpt>
      <trkpt lat="43.73105" lon="6.62096">
        <ele>962.5</ele>
        <time>2024-05-26T15:21:14Z</time>
      </trkpt>
      <trkpt lat="43.73105" lon="6.62096">
        <ele>962.5</ele>
        <time>2024-05-26T15:21:15Z</time>
      </trkpt>
      <trkpt lat="43.73105" lon="6.62095">
        <ele>962.5</ele>
        <time>2024-05-26T15:21:16Z</time>
      </trkpt>
      <trkpt lat="43.73105" lon="6.62095">
        <ele>962.4</ele>
        <time>2024-05-26T15:21:17Z</time>
      </trkpt>
      <trkpt lat="43.73105" lon="6.62095">
        <ele>962.3</ele>
        <time>2024-05-26T15:21:18Z</time>
      </trkpt>
      <trkpt lat="43.73105" lon="6.62095">
        <ele>962.2</ele>
        <time>2024-05-26T15:21:19Z</time>
      </trkpt>
      <trkpt lat="43.73106" lon="6.62095">
        <ele>962.2</ele>
        <time>2024-05-26T15:21:20Z</time>
      </trkpt>
      <trkpt lat="43.73106" lon="6.62094">
        <ele>962.2</ele>
        <time>2024-05-26T15:21:21Z</time>
      </trkpt>
      <trkpt lat="43.73106" lon="6.62094">
        <ele>962.2</ele>
        <time>2024-05-26T15:21:22Z</time>
      </trkpt>
      <trkpt lat="43.73106" lon="6.62094">
        <ele>962.2</ele>
        <time>2024-05-26T15:21:23Z</time>
      </trkpt>
      <trkpt lat="43.73106" lon="6.62093">
        <ele>962.2</ele>
        <time>2024-05-26T15:21:24Z</time>
      </trkpt>
      <trkpt lat="43.73106" lon="6.62093">
        <ele>962.2</ele>
        <time>2024-05-26T15:21:25Z</time>
      </trkpt>
      <trkpt lat="43.73107" lon="6.62093">
        <ele>962.3</ele>
        <time>2024-05-26T15:21:26Z</time>
      </trkpt>
      <trkpt lat="43.73107" lon="6.62093">
        <ele>962.3</ele>
        <time>2024-05-26T15:21:27Z</time>
      </trkpt>
      <trkpt lat="43.73107" lon="6.62093">
        <ele>962.3</ele>
        <time>2024-05-26T15:21:28Z</time>
      </trkpt>
      <trkpt lat="43.73107" lon="6.62093">
        <ele>962.4</ele>
        <time>2024-05-26T15:21:29Z</time>
      </trkpt>
      <trkpt lat="43.73107" lon="6.62093">
        <ele>962.4</ele>
        <time>2024-05-26T15:21:30Z</time>
      </trkpt>
      <trkpt lat="43.73107" lon="6.62093">
        <ele>962.5</ele>
        <time>2024-05-26T15:21:31Z</time>
      </trkpt>
      <trkpt lat="43.73107" lon="6.62093">
        <ele>962.5</ele>
        <time>2024-05-26T15:21:32Z</time>
      </trkpt>
      <trkpt lat="43.73107" lon="6.62093">
        <ele>962.4</ele>
        <time>2024-05-26T15:21:33Z</time>
      </trkpt>
      <trkpt lat="43.73108" lon="6.62092">
        <ele>962.3</ele>
        <time>2024-05-26T15:21:34Z</time>
      </trkpt>
      <trkpt lat="43.73108" lon="6.62092">
        <ele>962.4</ele>
        <time>2024-05-26T15:21:35Z</time>
      </trkpt>
      <trkpt lat="43.73108" lon="6.62092">
        <ele>962.4</ele>
        <time>2024-05-26T15:21:36Z</time>
      </trkpt>
      <trkpt lat="43.73108" lon="6.62091">
        <ele>962.3</ele>
        <time>2024-05-26T15:21:37Z</time>
      </trkpt>
      <trkpt lat="43.73108" lon="6.62091">
        <ele>962.3</ele>
        <time>2024-05-26T15:21:38Z</time>
      </trkpt>
      <trkpt lat="43.73108" lon="6.62091">
        <ele>962.3</ele>
        <time>2024-05-26T15:21:39Z</time>
      </trkpt>
      <trkpt lat="43.73108" lon="6.62091">
        <ele>962.3</ele>
        <time>2024-05-26T15:21:40Z</time>
      </trkpt>
      <trkpt lat="43.73108" lon="6.62091">
        <ele>962.3</ele>
        <time>2024-05-26T15:21:41Z</time>
      </trkpt>
      <trkpt lat="43.73108" lon="6.62091">
        <ele>962.3</ele>
        <time>2024-05-26T15:21:42Z</time>
      </trkpt>
      <trkpt lat="43.73108" lon="6.62091">
        <ele>962.2</ele>
        <time>2024-05-26T15:21:43Z</time>
      </trkpt>
      <trkpt lat="43.73108" lon="6.62091">
        <ele>962.2</ele>
        <time>2024-05-26T15:21:44Z</time>
      </trkpt>
      <trkpt lat="43.73108" lon="6.62091">
        <ele>962.2</ele>
        <time>2024-05-26T15:21:45Z</time>
      </trkpt>
      <trkpt lat="43.73108" lon="6.62091">
        <ele>962.2</ele>
        <time>2024-05-26T15:21:46Z</time>
      </trkpt>
      <trkpt lat="43.73108" lon="6.62091">
        <ele>962.2</ele>
        <time>2024-05-26T15:21:47Z</time>
      </trkpt>
      <trkpt lat="43.73108" lon="6.62091">
        <ele>962.2</ele>
        <time>2024-05-26T15:21:48Z</time>
      </trkpt>
      <trkpt lat="43.73108" lon="6.62091">
        <ele>962.2</ele>
        <time>2024-05-26T15:21:49Z</time>
      </trkpt>
      <trkpt lat="43.73108" lon="6.62091">
        <ele>962.1</ele>
        <time>2024-05-26T15:21:50Z</time>
      </trkpt>
      <trkpt lat="43.73108" lon="6.62091">
        <ele>962</ele>
        <time>2024-05-26T15:21:51Z</time>
      </trkpt>
      <trkpt lat="43.73109" lon="6.62091">
        <ele>962.1</ele>
        <time>2024-05-26T15:21:52Z</time>
      </trkpt>
      <trkpt lat="43.73109" lon="6.62091">
        <ele>962.1</ele>
        <time>2024-05-26T15:21:53Z</time>
      </trkpt>
      <trkpt lat="43.73109" lon="6.62091">
        <ele>962.1</ele>
        <time>2024-05-26T15:21:54Z</time>
      </trkpt>
      <trkpt lat="43.73109" lon="6.62091">
        <ele>962</ele>
        <time>2024-05-26T15:21:55Z</time>
      </trkpt>
      <trkpt lat="43.73109" lon="6.62091">
        <ele>962</ele>
        <time>2024-05-26T15:21:56Z</time>
      </trkpt>
      <trkpt lat="43.73109" lon="6.62091">
        <ele>962</ele>
        <time>2024-05-26T15:21:57Z</time>
      </trkpt>
      <trkpt lat="43.73109" lon="6.62091">
        <ele>962</ele>
        <time>2024-05-26T15:21:58Z</time>
      </trkpt>
      <trkpt lat="43.73109" lon="6.62091">
        <ele>962</ele>
        <time>2024-05-26T15:21:59Z</time>
      </trkpt>
      <trkpt lat="43.73109" lon="6.6209">
        <ele>962.1</ele>
        <time>2024-05-26T15:22:00Z</time>
      </trkpt>
      <trkpt lat="43.73109" lon="6.6209">
        <ele>962.1</ele>
        <time>2024-05-26T15:22:01Z</time>
      </trkpt>
      <trkpt lat="43.73109" lon="6.6209">
        <ele>962.1</ele>
        <time>2024-05-26T15:22:02Z</time>
      </trkpt>
      <trkpt lat="43.73109" lon="6.6209">
        <ele>962.1</ele>
        <time>2024-05-26T15:22:03Z</time>
      </trkpt>
      <trkpt lat="43.73109" lon="6.6209">
        <ele>962.1</ele>
        <time>2024-05-26T15:22:04Z</time>
      </trkpt>
      <trkpt lat="43.73109" lon="6.6209">
        <ele>962.1</ele>
        <time>2024-05-26T15:22:05Z</time>
      </trkpt>
      <trkpt lat="43.73109" lon="6.6209">
        <ele>962.2</ele>
        <time>2024-05-26T15:22:06Z</time>
      </trkpt>
      <trkpt lat="43.7311" lon="6.6209">
        <ele>962.2</ele>
        <time>2024-05-26T15:22:07Z</time>
      </trkpt>
      <trkpt lat="43.7311" lon="6.6209">
        <ele>962.3</ele>
        <time>2024-05-26T15:22:08Z</time>
      </trkpt>
      <trkpt lat="43.7311" lon="6.6209">
        <ele>962.3</ele>
        <time>2024-05-26T15:22:09Z</time>
      </trkpt>
      <trkpt lat="43.7311" lon="6.6209">
        <ele>962.3</ele>
        <time>2024-05-26T15:22:10Z</time>
      </trkpt>
      <trkpt lat="43.7311" lon="6.6209">
        <ele>962.3</ele>
        <time>2024-05-26T15:22:11Z</time>
      </trkpt>
      <trkpt lat="43.7311" lon="6.6209">
        <ele>962.3</ele>
        <time>2024-05-26T15:22:12Z</time>
      </trkpt>
      <trkpt lat="43.7311" lon="6.6209">
        <ele>962.4</ele>
        <time>2024-05-26T15:22:13Z</time>
      </trkpt>
      <trkpt lat="43.7311" lon="6.6209">
        <ele>962.4</ele>
        <time>2024-05-26T15:22:14Z</time>
      </trkpt>
      <trkpt lat="43.7311" lon="6.6209">
        <ele>962.4</ele>
        <time>2024-05-26T15:22:15Z</time>
      </trkpt>
      <trkpt lat="43.7311" lon="6.6209">
        <ele>962.3</ele>
        <time>2024-05-26T15:22:16Z</time>
      </trkpt>
      <trkpt lat="43.7311" lon="6.6209">
        <ele>962.2</ele>
        <time>2024-05-26T15:22:17Z</time>
      </trkpt>
      <trkpt lat="43.7311" lon="6.6209">
        <ele>962.2</ele>
        <time>2024-05-26T15:22:18Z</time>
      </trkpt>
      <trkpt lat="43.7311" lon="6.6209">
        <ele>962.2</ele>
        <time>2024-05-26T15:22:19Z</time>
      </trkpt>
      <trkpt lat="43.73109" lon="6.6209">
        <ele>962.1</ele>
        <time>2024-05-26T15:22:20Z</time>
      </trkpt>
      <trkpt lat="43.73109" lon="6.6209">
        <ele>962.2</ele>
        <time>2024-05-26T15:22:21Z</time>
      </trkpt>
      <trkpt lat="43.73109" lon="6.6209">
        <ele>962.2</ele>
        <time>2024-05-26T15:22:22Z</time>
      </trkpt>
      <trkpt lat="43.73109" lon="6.6209">
        <ele>962.2</ele>
        <time>2024-05-26T15:22:23Z</time>
      </trkpt>
      <trkpt lat="43.73109" lon="6.6209">
        <ele>962.2</ele>
        <time>2024-05-26T15:22:24Z</time>
      </trkpt>
      <trkpt lat="43.73109" lon="6.6209">
        <ele>962.3</ele>
        <time>2024-05-26T15:22:25Z</time>
      </trkpt>
      <trkpt lat="43.73109" lon="6.6209">
        <ele>962.4</ele>
        <time>2024-05-26T15:22:26Z</time>
      </trkpt>
      <trkpt lat="43.73109" lon="6.6209">
        <ele>962.4</ele>
        <time>2024-05-26T15:22:27Z</time>
      </trkpt>
      <trkpt lat="43.73109" lon="6.6209">
        <ele>962.4</ele>
        <time>2024-05-26T15:22:28Z</time>
      </trkpt>
      <trkpt lat="43.73109" lon="6.6209">
        <ele>962.4</ele>
        <time>2024-05-26T15:22:29Z</time>
      </trkpt>
      <trkpt lat="43.73109" lon="6.6209">
        <ele>962.4</ele>
        <time>2024-05-26T15:22:30Z</time>
      </trkpt>
      <trkpt lat="43.73109" lon="6.6209">
        <ele>962.4</ele>
        <time>2024-05-26T15:22:31Z</time>
      </trkpt>
      <trkpt lat="43.73109" lon="6.6209">
        <ele>962.4</ele>
        <time>2024-05-26T15:22:32Z</time>
      </trkpt>
      <trkpt lat="43.73109" lon="6.6209">
        <ele>962.5</ele>
        <time>2024-05-26T15:22:33Z</time>
      </trkpt>
      <trkpt lat="43.73109" lon="6.6209">
        <ele>962.5</ele>
        <time>2024-05-26T15:22:34Z</time>
      </trkpt>
      <trkpt lat="43.73109" lon="6.62091">
        <ele>962.5</ele>
        <time>2024-05-26T15:22:35Z</time>
      </trkpt>
      <trkpt lat="43.73109" lon="6.62091">
        <ele>962.5</ele>
        <time>2024-05-26T15:22:36Z</time>
      </trkpt>
      <trkpt lat="43.73109" lon="6.62091">
        <ele>962.4</ele>
        <time>2024-05-26T15:22:37Z</time>
      </trkpt>
      <trkpt lat="43.73109" lon="6.62091">
        <ele>962.4</ele>
        <time>2024-05-26T15:22:38Z</time>
      </trkpt>
      <trkpt lat="43.73109" lon="6.62091">
        <ele>962.4</ele>
        <time>2024-05-26T15:22:39Z</time>
      </trkpt>
      <trkpt lat="43.73109" lon="6.62091">
        <ele>962.3</ele>
        <time>2024-05-26T15:22:40Z</time>
      </trkpt>
      <trkpt lat="43.73109" lon="6.62091">
        <ele>962.2</ele>
        <time>2024-05-26T15:22:41Z</time>
      </trkpt>
      <trkpt lat="43.73109" lon="6.62091">
        <ele>962.2</ele>
        <time>2024-05-26T15:22:42Z</time>
      </trkpt>
      <trkpt lat="43.73109" lon="6.62091">
        <ele>962.2</ele>
        <time>2024-05-26T15:22:43Z</time>
      </trkpt>
      <trkpt lat="43.73109" lon="6.62091">
        <ele>962.2</ele>
        <time>2024-05-26T15:22:44Z</time>
      </trkpt>
      <trkpt lat="43.73109" lon="6.62091">
        <ele>962.1</ele>
        <time>2024-05-26T15:22:45Z</time>
      </trkpt>
      <trkpt lat="43.73109" lon="6.62091">
        <ele>962</ele>
        <time>2024-05-26T15:22:46Z</time>
      </trkpt>
      <trkpt lat="43.73109" lon="6.62091">
        <ele>961.9</ele>
        <time>2024-05-26T15:22:47Z</time>
      </trkpt>
      <trkpt lat="43.73108" lon="6.62091">
        <ele>961.9</ele>
        <time>2024-05-26T15:22:48Z</time>
      </trkpt>
      <trkpt lat="43.73108" lon="6.62092">
        <ele>961.9</ele>
        <time>2024-05-26T15:22:49Z</time>
      </trkpt>
      <trkpt lat="43.73108" lon="6.62092">
        <ele>961.8</ele>
        <time>2024-05-26T15:22:50Z</time>
      </trkpt>
      <trkpt lat="43.73108" lon="6.62092">
        <ele>961.9</ele>
        <time>2024-05-26T15:22:51Z</time>
      </trkpt>
      <trkpt lat="43.73108" lon="6.62092">
        <ele>961.9</ele>
        <time>2024-05-26T15:22:52Z</time>
      </trkpt>
      <trkpt lat="43.73108" lon="6.62092">
        <ele>962</ele>
        <time>2024-05-26T15:22:53Z</time>
      </trkpt>
      <trkpt lat="43.73108" lon="6.62092">
        <ele>962</ele>
        <time>2024-05-26T15:22:54Z</time>
      </trkpt>
      <trkpt lat="43.73108" lon="6.62092">
        <ele>962</ele>
        <time>2024-05-26T15:22:55Z</time>
      </trkpt>
      <trkpt lat="43.73108" lon="6.62092">
        <ele>962</ele>
        <time>2024-05-26T15:22:56Z</time>
      </trkpt>
      <trkpt lat="43.73108" lon="6.62092">
        <ele>962</ele>
        <time>2024-05-26T15:22:57Z</time>
      </trkpt>
      <trkpt lat="43.73108" lon="6.62091">
        <ele>962</ele>
        <time>2024-05-26T15:22:58Z</time>
      </trkpt>
      <trkpt lat="43.73108" lon="6.62091">
        <ele>962</ele>
        <time>2024-05-26T15:22:59Z</time>
      </trkpt>
      <trkpt lat="43.73109" lon="6.62091">
        <ele>961.9</ele>
        <time>2024-05-26T15:23:00Z</time>
      </trkpt>
      <trkpt lat="43.73109" lon="6.62092">
        <ele>961.9</ele>
        <time>2024-05-26T15:23:01Z</time>
      </trkpt>
      <trkpt lat="43.73108" lon="6.62092">
        <ele>961.9</ele>
        <time>2024-05-26T15:23:02Z</time>
      </trkpt>
      <trkpt lat="43.73108" lon="6.62092">
        <ele>961.9</ele>
        <time>2024-05-26T15:23:03Z</time>
      </trkpt>
      <trkpt lat="43.73108" lon="6.62092">
        <ele>961.9</ele>
        <time>2024-05-26T15:23:04Z</time>
      </trkpt>
      <trkpt lat="43.73108" lon="6.62092">
        <ele>961.9</ele>
        <time>2024-05-26T15:23:05Z</time>
      </trkpt>
      <trkpt lat="43.73108" lon="6.62092">
        <ele>961.8</ele>
        <time>2024-05-26T15:23:06Z</time>
      </trkpt>
      <trkpt lat="43.73108" lon="6.62092">
        <ele>961.8</ele>
        <time>2024-05-26T15:23:07Z</time>
      </trkpt>
      <trkpt lat="43.73108" lon="6.62092">
        <ele>961.7</ele>
        <time>2024-05-26T15:23:08Z</time>
      </trkpt>
      <trkpt lat="43.73108" lon="6.62092">
        <ele>961.7</ele>
        <time>2024-05-26T15:23:09Z</time>
      </trkpt>
      <trkpt lat="43.73108" lon="6.62092">
        <ele>961.7</ele>
        <time>2024-05-26T15:23:10Z</time>
      </trkpt>
      <trkpt lat="43.73108" lon="6.62092">
        <ele>961.8</ele>
        <time>2024-05-26T15:23:11Z</time>
      </trkpt>
      <trkpt lat="43.73108" lon="6.62093">
        <ele>961.8</ele>
        <time>2024-05-26T15:23:12Z</time>
      </trkpt>
      <trkpt lat="43.73108" lon="6.62093">
        <ele>961.9</ele>
        <time>2024-05-26T15:23:13Z</time>
      </trkpt>
      <trkpt lat="43.73108" lon="6.62093">
        <ele>961.9</ele>
        <time>2024-05-26T15:23:14Z</time>
      </trkpt>
      <trkpt lat="43.73108" lon="6.62093">
        <ele>961.9</ele>
        <time>2024-05-26T15:23:15Z</time>
      </trkpt>
      <trkpt lat="43.73108" lon="6.62093">
        <ele>962</ele>
        <time>2024-05-26T15:23:16Z</time>
      </trkpt>
      <trkpt lat="43.73108" lon="6.62093">
        <ele>962</ele>
        <time>2024-05-26T15:23:17Z</time>
      </trkpt>
      <trkpt lat="43.73108" lon="6.62093">
        <ele>962.1</ele>
        <time>2024-05-26T15:23:18Z</time>
      </trkpt>
      <trkpt lat="43.73109" lon="6.62093">
        <ele>962</ele>
        <time>2024-05-26T15:23:19Z</time>
      </trkpt>
      <trkpt lat="43.73109" lon="6.62094">
        <ele>962</ele>
        <time>2024-05-26T15:23:20Z</time>
      </trkpt>
      <trkpt lat="43.73109" lon="6.62094">
        <ele>962</ele>
        <time>2024-05-26T15:23:21Z</time>
      </trkpt>
      <trkpt lat="43.73109" lon="6.62094">
        <ele>962</ele>
        <time>2024-05-26T15:23:22Z</time>
      </trkpt>
      <trkpt lat="43.73109" lon="6.62094">
        <ele>962</ele>
        <time>2024-05-26T15:23:23Z</time>
      </trkpt>
      <trkpt lat="43.7311" lon="6.62094">
        <ele>962.1</ele>
        <time>2024-05-26T15:23:24Z</time>
      </trkpt>
      <trkpt lat="43.7311" lon="6.62094">
        <ele>962.1</ele>
        <time>2024-05-26T15:23:25Z</time>
      </trkpt>
      <trkpt lat="43.7311" lon="6.62094">
        <ele>962.2</ele>
        <time>2024-05-26T15:23:26Z</time>
      </trkpt>
      <trkpt lat="43.7311" lon="6.62094">
        <ele>962.1</ele>
        <time>2024-05-26T15:23:27Z</time>
      </trkpt>
      <trkpt lat="43.7311" lon="6.62094">
        <ele>962.1</ele>
        <time>2024-05-26T15:23:28Z</time>
      </trkpt>
      <trkpt lat="43.73111" lon="6.62094">
        <ele>962.1</ele>
        <time>2024-05-26T15:23:29Z</time>
      </trkpt>
      <trkpt lat="43.73111" lon="6.62094">
        <ele>962</ele>
        <time>2024-05-26T15:23:30Z</time>
      </trkpt>
      <trkpt lat="43.73111" lon="6.62094">
        <ele>962</ele>
        <time>2024-05-26T15:23:31Z</time>
      </trkpt>
      <trkpt lat="43.73111" lon="6.62094">
        <ele>962</ele>
        <time>2024-05-26T15:23:32Z</time>
      </trkpt>
      <trkpt lat="43.73111" lon="6.62094">
        <ele>961.9</ele>
        <time>2024-05-26T15:23:33Z</time>
      </trkpt>
      <trkpt lat="43.73112" lon="6.62094">
        <ele>961.9</ele>
        <time>2024-05-26T15:23:34Z</time>
      </trkpt>
      <trkpt lat="43.73112" lon="6.62094">
        <ele>962</ele>
        <time>2024-05-26T15:23:35Z</time>
      </trkpt>
      <trkpt lat="43.73112" lon="6.62094">
        <ele>962</ele>
        <time>2024-05-26T15:23:36Z</time>
      </trkpt>
      <trkpt lat="43.73112" lon="6.62094">
        <ele>962</ele>
        <time>2024-05-26T15:23:37Z</time>
      </trkpt>
      <trkpt lat="43.73113" lon="6.62095">
        <ele>962</ele>
        <time>2024-05-26T15:23:38Z</time>
      </trkpt>
      <trkpt lat="43.73113" lon="6.62095">
        <ele>962</ele>
        <time>2024-05-26T15:23:39Z</time>
      </trkpt>
      <trkpt lat="43.73113" lon="6.62095">
        <ele>962</ele>
        <time>2024-05-26T15:23:40Z</time>
      </trkpt>
      <trkpt lat="43.73113" lon="6.62095">
        <ele>962.1</ele>
        <time>2024-05-26T15:23:41Z</time>
      </trkpt>
      <trkpt lat="43.73113" lon="6.62095">
        <ele>962.1</ele>
        <time>2024-05-26T15:23:42Z</time>
      </trkpt>
      <trkpt lat="43.73113" lon="6.62095">
        <ele>962.1</ele>
        <time>2024-05-26T15:23:43Z</time>
      </trkpt>
      <trkpt lat="43.73113" lon="6.62095">
        <ele>962.1</ele>
        <time>2024-05-26T15:23:44Z</time>
      </trkpt>
      <trkpt lat="43.73113" lon="6.62095">
        <ele>962.1</ele>
        <time>2024-05-26T15:23:45Z</time>
      </trkpt>
      <trkpt lat="43.73113" lon="6.62095">
        <ele>962.2</ele>
        <time>2024-05-26T15:23:46Z</time>
      </trkpt>
      <trkpt lat="43.73113" lon="6.62095">
        <ele>962.2</ele>
        <time>2024-05-26T15:23:47Z</time>
      </trkpt>
      <trkpt lat="43.73113" lon="6.62095">
        <ele>962.2</ele>
        <time>2024-05-26T15:23:48Z</time>
      </trkpt>
      <trkpt lat="43.73113" lon="6.62095">
        <ele>962.3</ele>
        <time>2024-05-26T15:23:49Z</time>
      </trkpt>
      <trkpt lat="43.73113" lon="6.62095">
        <ele>962.3</ele>
        <time>2024-05-26T15:23:50Z</time>
      </trkpt>
      <trkpt lat="43.73113" lon="6.62095">
        <ele>962.3</ele>
        <time>2024-05-26T15:23:51Z</time>
      </trkpt>
      <trkpt lat="43.73113" lon="6.62095">
        <ele>962.2</ele>
        <time>2024-05-26T15:23:52Z</time>
      </trkpt>
      <trkpt lat="43.73113" lon="6.62095">
        <ele>962.2</ele>
        <time>2024-05-26T15:23:53Z</time>
      </trkpt>
      <trkpt lat="43.73113" lon="6.62095">
        <ele>962.2</ele>
        <time>2024-05-26T15:23:54Z</time>
      </trkpt>
      <trkpt lat="43.73113" lon="6.62095">
        <ele>962.1</ele>
        <time>2024-05-26T15:23:55Z</time>
      </trkpt>
      <trkpt lat="43.73113" lon="6.62095">
        <ele>962</ele>
        <time>2024-05-26T15:23:56Z</time>
      </trkpt>
      <trkpt lat="43.73113" lon="6.62095">
        <ele>961.9</ele>
        <time>2024-05-26T15:23:57Z</time>
      </trkpt>
      <trkpt lat="43.73113" lon="6.62095">
        <ele>961.9</ele>
        <time>2024-05-26T15:23:58Z</time>
      </trkpt>
      <trkpt lat="43.73113" lon="6.62095">
        <ele>961.9</ele>
        <time>2024-05-26T15:23:59Z</time>
      </trkpt>
      <trkpt lat="43.73113" lon="6.62094">
        <ele>961.9</ele>
        <time>2024-05-26T15:24:00Z</time>
      </trkpt>
      <trkpt lat="43.73113" lon="6.62094">
        <ele>961.9</ele>
        <time>2024-05-26T15:24:01Z</time>
      </trkpt>
      <trkpt lat="43.73113" lon="6.62094">
        <ele>961.9</ele>
        <time>2024-05-26T15:24:02Z</time>
      </trkpt>
      <trkpt lat="43.73114" lon="6.62094">
        <ele>961.9</ele>
        <time>2024-05-26T15:24:03Z</time>
      </trkpt>
      <trkpt lat="43.73114" lon="6.62094">
        <ele>961.9</ele>
        <time>2024-05-26T15:24:04Z</time>
      </trkpt>
      <trkpt lat="43.73114" lon="6.62094">
        <ele>961.9</ele>
        <time>2024-05-26T15:24:05Z</time>
      </trkpt>
      <trkpt lat="43.73114" lon="6.62094">
        <ele>962</ele>
        <time>2024-05-26T15:24:06Z</time>
      </trkpt>
      <trkpt lat="43.73114" lon="6.62093">
        <ele>961.9</ele>
        <time>2024-05-26T15:24:07Z</time>
      </trkpt>
      <trkpt lat="43.73114" lon="6.62093">
        <ele>961.9</ele>
        <time>2024-05-26T15:24:08Z</time>
      </trkpt>
      <trkpt lat="43.73114" lon="6.62093">
        <ele>961.8</ele>
        <time>2024-05-26T15:24:09Z</time>
      </trkpt>
      <trkpt lat="43.73114" lon="6.62093">
        <ele>961.8</ele>
        <time>2024-05-26T15:24:10Z</time>
      </trkpt>
      <trkpt lat="43.73114" lon="6.62093">
        <ele>961.8</ele>
        <time>2024-05-26T15:24:11Z</time>
      </trkpt>
      <trkpt lat="43.73114" lon="6.62093">
        <ele>961.8</ele>
        <time>2024-05-26T15:24:12Z</time>
      </trkpt>
      <trkpt lat="43.73114" lon="6.62093">
        <ele>961.9</ele>
        <time>2024-05-26T15:24:13Z</time>
      </trkpt>
      <trkpt lat="43.73114" lon="6.62093">
        <ele>961.9</ele>
        <time>2024-05-26T15:24:14Z</time>
      </trkpt>
      <trkpt lat="43.73114" lon="6.62092">
        <ele>962</ele>
        <time>2024-05-26T15:24:15Z</time>
      </trkpt>
      <trkpt lat="43.73114" lon="6.62092">
        <ele>962</ele>
        <time>2024-05-26T15:24:16Z</time>
      </trkpt>
      <trkpt lat="43.73114" lon="6.62092">
        <ele>962</ele>
        <time>2024-05-26T15:24:17Z</time>
      </trkpt>
      <trkpt lat="43.73114" lon="6.62092">
        <ele>962</ele>
        <time>2024-05-26T15:24:18Z</time>
      </trkpt>
      <trkpt lat="43.73114" lon="6.62092">
        <ele>962</ele>
        <time>2024-05-26T15:24:19Z</time>
      </trkpt>
      <trkpt lat="43.73114" lon="6.62092">
        <ele>962</ele>
        <time>2024-05-26T15:24:20Z</time>
      </trkpt>
      <trkpt lat="43.73114" lon="6.62092">
        <ele>962</ele>
        <time>2024-05-26T15:24:21Z</time>
      </trkpt>
      <trkpt lat="43.73114" lon="6.62092">
        <ele>962</ele>
        <time>2024-05-26T15:24:22Z</time>
      </trkpt>
      <trkpt lat="43.73114" lon="6.62092">
        <ele>961.9</ele>
        <time>2024-05-26T15:24:23Z</time>
      </trkpt>
      <trkpt lat="43.73114" lon="6.62092">
        <ele>962</ele>
        <time>2024-05-26T15:24:24Z</time>
      </trkpt>
      <trkpt lat="43.73114" lon="6.62092">
        <ele>962</ele>
        <time>2024-05-26T15:24:25Z</time>
      </trkpt>
      <trkpt lat="43.73114" lon="6.62092">
        <ele>962.1</ele>
        <time>2024-05-26T15:24:26Z</time>
      </trkpt>
      <trkpt lat="43.73114" lon="6.62092">
        <ele>962.1</ele>
        <time>2024-05-26T15:24:27Z</time>
      </trkpt>
      <trkpt lat="43.73115" lon="6.62093">
        <ele>962.1</ele>
        <time>2024-05-26T15:24:28Z</time>
      </trkpt>
      <trkpt lat="43.73115" lon="6.62093">
        <ele>962.1</ele>
        <time>2024-05-26T15:24:29Z</time>
      </trkpt>
      <trkpt lat="43.73115" lon="6.62092">
        <ele>962.1</ele>
        <time>2024-05-26T15:24:30Z</time>
      </trkpt>
      <trkpt lat="43.73115" lon="6.62093">
        <ele>962.2</ele>
        <time>2024-05-26T15:24:31Z</time>
      </trkpt>
      <trkpt lat="43.73115" lon="6.62092">
        <ele>962.2</ele>
        <time>2024-05-26T15:24:32Z</time>
      </trkpt>
      <trkpt lat="43.73115" lon="6.62092">
        <ele>962.3</ele>
        <time>2024-05-26T15:24:33Z</time>
      </trkpt>
      <trkpt lat="43.73115" lon="6.62092">
        <ele>962.3</ele>
        <time>2024-05-26T15:24:34Z</time>
      </trkpt>
      <trkpt lat="43.73115" lon="6.62092">
        <ele>962.3</ele>
        <time>2024-05-26T15:24:35Z</time>
      </trkpt>
      <trkpt lat="43.73115" lon="6.62092">
        <ele>962.3</ele>
        <time>2024-05-26T15:24:36Z</time>
      </trkpt>
      <trkpt lat="43.73116" lon="6.62092">
        <ele>962.4</ele>
        <time>2024-05-26T15:24:37Z</time>
      </trkpt>
      <trkpt lat="43.73116" lon="6.62092">
        <ele>962.4</ele>
        <time>2024-05-26T15:24:38Z</time>
      </trkpt>
      <trkpt lat="43.73116" lon="6.62092">
        <ele>962.3</ele>
        <time>2024-05-26T15:24:39Z</time>
      </trkpt>
      <trkpt lat="43.73116" lon="6.62092">
        <ele>962.2</ele>
        <time>2024-05-26T15:24:40Z</time>
      </trkpt>
      <trkpt lat="43.73116" lon="6.62092">
        <ele>962.2</ele>
        <time>2024-05-26T15:24:41Z</time>
      </trkpt>
      <trkpt lat="43.73116" lon="6.62092">
        <ele>962.2</ele>
        <time>2024-05-26T15:24:42Z</time>
      </trkpt>
      <trkpt lat="43.73116" lon="6.62092">
        <ele>962.1</ele>
        <time>2024-05-26T15:24:43Z</time>
      </trkpt>
      <trkpt lat="43.73116" lon="6.62092">
        <ele>962.1</ele>
        <time>2024-05-26T15:24:44Z</time>
      </trkpt>
      <trkpt lat="43.73116" lon="6.62092">
        <ele>962.1</ele>
        <time>2024-05-26T15:24:45Z</time>
      </trkpt>
      <trkpt lat="43.73116" lon="6.62092">
        <ele>962</ele>
        <time>2024-05-26T15:24:46Z</time>
      </trkpt>
      <trkpt lat="43.73116" lon="6.62092">
        <ele>962</ele>
        <time>2024-05-26T15:24:47Z</time>
      </trkpt>
      <trkpt lat="43.73116" lon="6.62092">
        <ele>961.9</ele>
        <time>2024-05-26T15:24:48Z</time>
      </trkpt>
      <trkpt lat="43.73116" lon="6.62092">
        <ele>961.8</ele>
        <time>2024-05-26T15:24:49Z</time>
      </trkpt>
      <trkpt lat="43.73117" lon="6.62092">
        <ele>961.8</ele>
        <time>2024-05-26T15:24:50Z</time>
      </trkpt>
      <trkpt lat="43.73117" lon="6.62092">
        <ele>961.8</ele>
        <time>2024-05-26T15:24:51Z</time>
      </trkpt>
      <trkpt lat="43.73117" lon="6.62092">
        <ele>961.8</ele>
        <time>2024-05-26T15:24:52Z</time>
      </trkpt>
      <trkpt lat="43.73117" lon="6.62092">
        <ele>961.8</ele>
        <time>2024-05-26T15:24:53Z</time>
      </trkpt>
      <trkpt lat="43.73117" lon="6.62092">
        <ele>961.9</ele>
        <time>2024-05-26T15:24:54Z</time>
      </trkpt>
      <trkpt lat="43.73117" lon="6.62093">
        <ele>961.9</ele>
        <time>2024-05-26T15:24:55Z</time>
      </trkpt>
      <trkpt lat="43.73118" lon="6.62093">
        <ele>961.9</ele>
        <time>2024-05-26T15:24:56Z</time>
      </trkpt>
      <trkpt lat="43.73118" lon="6.62093">
        <ele>961.9</ele>
        <time>2024-05-26T15:24:57Z</time>
      </trkpt>
      <trkpt lat="43.73118" lon="6.62092">
        <ele>962</ele>
        <time>2024-05-26T15:24:58Z</time>
      </trkpt>
      <trkpt lat="43.73118" lon="6.62092">
        <ele>962</ele>
        <time>2024-05-26T15:24:59Z</time>
      </trkpt>
      <trkpt lat="43.73118" lon="6.62092">
        <ele>962</ele>
        <time>2024-05-26T15:25:00Z</time>
      </trkpt>
      <trkpt lat="43.73118" lon="6.62092">
        <ele>962</ele>
        <time>2024-05-26T15:25:01Z</time>
      </trkpt>
      <trkpt lat="43.73118" lon="6.62092">
        <ele>962</ele>
        <time>2024-05-26T15:25:02Z</time>
      </trkpt>
      <trkpt lat="43.73118" lon="6.62093">
        <ele>962</ele>
        <time>2024-05-26T15:25:03Z</time>
      </trkpt>
      <trkpt lat="43.73118" lon="6.62093">
        <ele>961.9</ele>
        <time>2024-05-26T15:25:04Z</time>
      </trkpt>
      <trkpt lat="43.73118" lon="6.62093">
        <ele>962</ele>
        <time>2024-05-26T15:25:05Z</time>
      </trkpt>
      <trkpt lat="43.73118" lon="6.62093">
        <ele>961.9</ele>
        <time>2024-05-26T15:25:06Z</time>
      </trkpt>
      <trkpt lat="43.73118" lon="6.62093">
        <ele>961.8</ele>
        <time>2024-05-26T15:25:07Z</time>
      </trkpt>
      <trkpt lat="43.73118" lon="6.62093">
        <ele>961.8</ele>
        <time>2024-05-26T15:25:08Z</time>
      </trkpt>
      <trkpt lat="43.73118" lon="6.62093">
        <ele>961.7</ele>
        <time>2024-05-26T15:25:09Z</time>
      </trkpt>
      <trkpt lat="43.73118" lon="6.62093">
        <ele>961.7</ele>
        <time>2024-05-26T15:25:10Z</time>
      </trkpt>
      <trkpt lat="43.73118" lon="6.62093">
        <ele>961.8</ele>
        <time>2024-05-26T15:25:11Z</time>
      </trkpt>
      <trkpt lat="43.73118" lon="6.62093">
        <ele>961.8</ele>
        <time>2024-05-26T15:25:12Z</time>
      </trkpt>
      <trkpt lat="43.73118" lon="6.62093">
        <ele>961.8</ele>
        <time>2024-05-26T15:25:13Z</time>
      </trkpt>
      <trkpt lat="43.73118" lon="6.62093">
        <ele>961.8</ele>
        <time>2024-05-26T15:25:14Z</time>
      </trkpt>
      <trkpt lat="43.73118" lon="6.62093">
        <ele>961.8</ele>
        <time>2024-05-26T15:25:15Z</time>
      </trkpt>
      <trkpt lat="43.73118" lon="6.62093">
        <ele>961.9</ele>
        <time>2024-05-26T15:25:16Z</time>
      </trkpt>
      <trkpt lat="43.73117" lon="6.62093">
        <ele>961.9</ele>
        <time>2024-05-26T15:25:17Z</time>
      </trkpt>
      <trkpt lat="43.73117" lon="6.62093">
        <ele>961.9</ele>
        <time>2024-05-26T15:25:18Z</time>
      </trkpt>
      <trkpt lat="43.73117" lon="6.62093">
        <ele>962</ele>
        <time>2024-05-26T15:25:19Z</time>
      </trkpt>
      <trkpt lat="43.73117" lon="6.62093">
        <ele>962</ele>
        <time>2024-05-26T15:25:20Z</time>
      </trkpt>
      <trkpt lat="43.73117" lon="6.62093">
        <ele>962</ele>
        <time>2024-05-26T15:25:21Z</time>
      </trkpt>
      <trkpt lat="43.73116" lon="6.62093">
        <ele>962</ele>
        <time>2024-05-26T15:25:22Z</time>
      </trkpt>
      <trkpt lat="43.73116" lon="6.62093">
        <ele>962.1</ele>
        <time>2024-05-26T15:25:23Z</time>
      </trkpt>
      <trkpt lat="43.73116" lon="6.62093">
        <ele>962.1</ele>
        <time>2024-05-26T15:25:24Z</time>
      </trkpt>
      <trkpt lat="43.73116" lon="6.62093">
        <ele>962.2</ele>
        <time>2024-05-26T15:25:25Z</time>
      </trkpt>
      <trkpt lat="43.73116" lon="6.62093">
        <ele>962.1</ele>
        <time>2024-05-26T15:25:26Z</time>
      </trkpt>
      <trkpt lat="43.73116" lon="6.62093">
        <ele>962.1</ele>
        <time>2024-05-26T15:25:27Z</time>
      </trkpt>
      <trkpt lat="43.73116" lon="6.62093">
        <ele>962.2</ele>
        <time>2024-05-26T15:25:28Z</time>
      </trkpt>
      <trkpt lat="43.73116" lon="6.62093">
        <ele>962.2</ele>
        <time>2024-05-26T15:25:29Z</time>
      </trkpt>
      <trkpt lat="43.73115" lon="6.62093">
        <ele>962.2</ele>
        <time>2024-05-26T15:25:30Z</time>
      </trkpt>
      <trkpt lat="43.73115" lon="6.62093">
        <ele>962.1</ele>
        <time>2024-05-26T15:25:31Z</time>
      </trkpt>
      <trkpt lat="43.73115" lon="6.62093">
        <ele>962.1</ele>
        <time>2024-05-26T15:25:32Z</time>
      </trkpt>
      <trkpt lat="43.73115" lon="6.62093">
        <ele>962.1</ele>
        <time>2024-05-26T15:25:33Z</time>
      </trkpt>
      <trkpt lat="43.73115" lon="6.62093">
        <ele>962.1</ele>
        <time>2024-05-26T15:25:34Z</time>
      </trkpt>
      <trkpt lat="43.73115" lon="6.62093">
        <ele>962.1</ele>
        <time>2024-05-26T15:25:35Z</time>
      </trkpt>
      <trkpt lat="43.73115" lon="6.62093">
        <ele>962.1</ele>
        <time>2024-05-26T15:25:36Z</time>
      </trkpt>
      <trkpt lat="43.73115" lon="6.62093">
        <ele>962.1</ele>
        <time>2024-05-26T15:25:37Z</time>
      </trkpt>
      <trkpt lat="43.73115" lon="6.62093">
        <ele>962.1</ele>
        <time>2024-05-26T15:25:38Z</time>
      </trkpt>
      <trkpt lat="43.73115" lon="6.62093">
        <ele>962.1</ele>
        <time>2024-05-26T15:25:39Z</time>
      </trkpt>
      <trkpt lat="43.73115" lon="6.62093">
        <ele>962.1</ele>
        <time>2024-05-26T15:25:40Z</time>
      </trkpt>
      <trkpt lat="43.73115" lon="6.62093">
        <ele>962.1</ele>
        <time>2024-05-26T15:25:41Z</time>
      </trkpt>
      <trkpt lat="43.73114" lon="6.62093">
        <ele>962</ele>
        <time>2024-05-26T15:25:42Z</time>
      </trkpt>
      <trkpt lat="43.73114" lon="6.62093">
        <ele>962</ele>
        <time>2024-05-26T15:25:43Z</time>
      </trkpt>
      <trkpt lat="43.73114" lon="6.62093">
        <ele>961.9</ele>
        <time>2024-05-26T15:25:44Z</time>
      </trkpt>
      <trkpt lat="43.73114" lon="6.62093">
        <ele>961.9</ele>
        <time>2024-05-26T15:25:45Z</time>
      </trkpt>
      <trkpt lat="43.73114" lon="6.62093">
        <ele>962</ele>
        <time>2024-05-26T15:25:46Z</time>
      </trkpt>
      <trkpt lat="43.73114" lon="6.62092">
        <ele>962</ele>
        <time>2024-05-26T15:25:47Z</time>
      </trkpt>
      <trkpt lat="43.73114" lon="6.62092">
        <ele>962.1</ele>
        <time>2024-05-26T15:25:48Z</time>
      </trkpt>
      <trkpt lat="43.73114" lon="6.62092">
        <ele>962.1</ele>
        <time>2024-05-26T15:25:49Z</time>
      </trkpt>
      <trkpt lat="43.73114" lon="6.62092">
        <ele>962.1</ele>
        <time>2024-05-26T15:25:50Z</time>
      </trkpt>
      <trkpt lat="43.73114" lon="6.62092">
        <ele>962.2</ele>
        <time>2024-05-26T15:25:51Z</time>
      </trkpt>
      <trkpt lat="43.73114" lon="6.62092">
        <ele>962.2</ele>
        <time>2024-05-26T15:25:52Z</time>
      </trkpt>
      <trkpt lat="43.73114" lon="6.62092">
        <ele>962.2</ele>
        <time>2024-05-26T15:25:53Z</time>
      </trkpt>
      <trkpt lat="43.73114" lon="6.62092">
        <ele>962.2</ele>
        <time>2024-05-26T15:25:54Z</time>
      </trkpt>
      <trkpt lat="43.73114" lon="6.62092">
        <ele>962.2</ele>
        <time>2024-05-26T15:25:55Z</time>
      </trkpt>
      <trkpt lat="43.73114" lon="6.62092">
        <ele>962.2</ele>
        <time>2024-05-26T15:25:56Z</time>
      </trkpt>
      <trkpt lat="43.73114" lon="6.62092">
        <ele>962.2</ele>
        <time>2024-05-26T15:25:57Z</time>
      </trkpt>
      <trkpt lat="43.73114" lon="6.62092">
        <ele>962.2</ele>
        <time>2024-05-26T15:25:58Z</time>
      </trkpt>
      <trkpt lat="43.73114" lon="6.62092">
        <ele>962.2</ele>
        <time>2024-05-26T15:25:59Z</time>
      </trkpt>
      <trkpt lat="43.73114" lon="6.62092">
        <ele>962.1</ele>
        <time>2024-05-26T15:26:00Z</time>
      </trkpt>
      <trkpt lat="43.73114" lon="6.62092">
        <ele>962.1</ele>
        <time>2024-05-26T15:26:01Z</time>
      </trkpt>
      <trkpt lat="43.73114" lon="6.62092">
        <ele>962</ele>
        <time>2024-05-26T15:26:02Z</time>
      </trkpt>
      <trkpt lat="43.73114" lon="6.62092">
        <ele>962.1</ele>
        <time>2024-05-26T15:26:03Z</time>
      </trkpt>
      <trkpt lat="43.73114" lon="6.62092">
        <ele>962.1</ele>
        <time>2024-05-26T15:26:04Z</time>
      </trkpt>
      <trkpt lat="43.73114" lon="6.62092">
        <ele>962.2</ele>
        <time>2024-05-26T15:26:05Z</time>
      </trkpt>
      <trkpt lat="43.73114" lon="6.62092">
        <ele>962.3</ele>
        <time>2024-05-26T15:26:06Z</time>
      </trkpt>
      <trkpt lat="43.73114" lon="6.62092">
        <ele>962.5</ele>
        <time>2024-05-26T15:26:07Z</time>
      </trkpt>
      <trkpt lat="43.73114" lon="6.62092">
        <ele>962.6</ele>
        <time>2024-05-26T15:26:08Z</time>
      </trkpt>
      <trkpt lat="43.73114" lon="6.62092">
        <ele>962.5</ele>
        <time>2024-05-26T15:26:09Z</time>
      </trkpt>
      <trkpt lat="43.73114" lon="6.62092">
        <ele>962.4</ele>
        <time>2024-05-26T15:26:10Z</time>
      </trkpt>
      <trkpt lat="43.73114" lon="6.62092">
        <ele>962.5</ele>
        <time>2024-05-26T15:26:11Z</time>
      </trkpt>
      <trkpt lat="43.73114" lon="6.62092">
        <ele>962.4</ele>
        <time>2024-05-26T15:26:12Z</time>
      </trkpt>
      <trkpt lat="43.73114" lon="6.62092">
        <ele>962.4</ele>
        <time>2024-05-26T15:26:13Z</time>
      </trkpt>
      <trkpt lat="43.73114" lon="6.62092">
        <ele>962.4</ele>
        <time>2024-05-26T15:26:14Z</time>
      </trkpt>
      <trkpt lat="43.73113" lon="6.62092">
        <ele>962.5</ele>
        <time>2024-05-26T15:26:15Z</time>
      </trkpt>
      <trkpt lat="43.73112" lon="6.62092">
        <ele>962.6</ele>
        <time>2024-05-26T15:26:16Z</time>
      </trkpt>
      <trkpt lat="43.73112" lon="6.62091">
        <ele>962.6</ele>
        <time>2024-05-26T15:26:17Z</time>
      </trkpt>
      <trkpt lat="43.7311" lon="6.62092">
        <ele>962.6</ele>
        <time>2024-05-26T15:26:18Z</time>
      </trkpt>
      <trkpt lat="43.73109" lon="6.62092">
        <ele>962.8</ele>
        <time>2024-05-26T15:26:19Z</time>
      </trkpt>
      <trkpt lat="43.73108" lon="6.62092">
        <ele>962.9</ele>
        <time>2024-05-26T15:26:20Z</time>
      </trkpt>
      <trkpt lat="43.73107" lon="6.62092">
        <ele>963</ele>
        <time>2024-05-26T15:26:21Z</time>
      </trkpt>
      <trkpt lat="43.73106" lon="6.62092">
        <ele>963</ele>
        <time>2024-05-26T15:26:22Z</time>
      </trkpt>
      <trkpt lat="43.73105" lon="6.62092">
        <ele>963</ele>
        <time>2024-05-26T15:26:23Z</time>
      </trkpt>
      <trkpt lat="43.73105" lon="6.62091">
        <ele>963</ele>
        <time>2024-05-26T15:26:24Z</time>
      </trkpt>
      <trkpt lat="43.73104" lon="6.62091">
        <ele>963.1</ele>
        <time>2024-05-26T15:26:25Z</time>
      </trkpt>
      <trkpt lat="43.73103" lon="6.62091">
        <ele>963.1</ele>
        <time>2024-05-26T15:26:26Z</time>
      </trkpt>
      <trkpt lat="43.73103" lon="6.62091">
        <ele>963.2</ele>
        <time>2024-05-26T15:26:27Z</time>
      </trkpt>
      <trkpt lat="43.73103" lon="6.6209">
        <ele>963.2</ele>
        <time>2024-05-26T15:26:28Z</time>
      </trkpt>
      <trkpt lat="43.73103" lon="6.6209">
        <ele>963.2</ele>
        <time>2024-05-26T15:26:29Z</time>
      </trkpt>
      <trkpt lat="43.73103" lon="6.6209">
        <ele>963.2</ele>
        <time>2024-05-26T15:26:30Z</time>
      </trkpt>
      <trkpt lat="43.73103" lon="6.6209">
        <ele>963.2</ele>
        <time>2024-05-26T15:26:31Z</time>
      </trkpt>
      <trkpt lat="43.73103" lon="6.6209">
        <ele>963.2</ele>
        <time>2024-05-26T15:26:32Z</time>
      </trkpt>
      <trkpt lat="43.73102" lon="6.6209">
        <ele>963.2</ele>
        <time>2024-05-26T15:26:33Z</time>
      </trkpt>
      <trkpt lat="43.73102" lon="6.62089">
        <ele>963.1</ele>
        <time>2024-05-26T15:26:34Z</time>
      </trkpt>
      <trkpt lat="43.73102" lon="6.62089">
        <ele>963</ele>
        <time>2024-05-26T15:26:35Z</time>
      </trkpt>
      <trkpt lat="43.73102" lon="6.62089">
        <ele>963</ele>
        <time>2024-05-26T15:26:36Z</time>
      </trkpt>
      <trkpt lat="43.73103" lon="6.62089">
        <ele>962.9</ele>
        <time>2024-05-26T15:26:37Z</time>
      </trkpt>
      <trkpt lat="43.73103" lon="6.62089">
        <ele>963</ele>
        <time>2024-05-26T15:26:38Z</time>
      </trkpt>
      <trkpt lat="43.73104" lon="6.62089">
        <ele>962.9</ele>
        <time>2024-05-26T15:26:39Z</time>
      </trkpt>
      <trkpt lat="43.73104" lon="6.62089">
        <ele>962.8</ele>
        <time>2024-05-26T15:26:40Z</time>
      </trkpt>
      <trkpt lat="43.73105" lon="6.62088">
        <ele>962.8</ele>
        <time>2024-05-26T15:26:41Z</time>
      </trkpt>
      <trkpt lat="43.73105" lon="6.62087">
        <ele>962.8</ele>
        <time>2024-05-26T15:26:42Z</time>
      </trkpt>
      <trkpt lat="43.73105" lon="6.62087">
        <ele>962.8</ele>
        <time>2024-05-26T15:26:43Z</time>
      </trkpt>
      <trkpt lat="43.73105" lon="6.62088">
        <ele>962.9</ele>
        <time>2024-05-26T15:26:44Z</time>
      </trkpt>
      <trkpt lat="43.73105" lon="6.62088">
        <ele>963</ele>
        <time>2024-05-26T15:26:45Z</time>
      </trkpt>
      <trkpt lat="43.73105" lon="6.62088">
        <ele>963.1</ele>
        <time>2024-05-26T15:26:46Z</time>
      </trkpt>
      <trkpt lat="43.73105" lon="6.62088">
        <ele>963.1</ele>
        <time>2024-05-26T15:26:47Z</time>
      </trkpt>
      <trkpt lat="43.73105" lon="6.62089">
        <ele>963.1</ele>
        <time>2024-05-26T15:26:48Z</time>
      </trkpt>
      <trkpt lat="43.73105" lon="6.62088">
        <ele>963.1</ele>
        <time>2024-05-26T15:26:49Z</time>
      </trkpt>
      <trkpt lat="43.73105" lon="6.62088">
        <ele>963.1</ele>
        <time>2024-05-26T15:26:50Z</time>
      </trkpt>
      <trkpt lat="43.73105" lon="6.62088">
        <ele>963</ele>
        <time>2024-05-26T15:26:51Z</time>
      </trkpt>
      <trkpt lat="43.73105" lon="6.62088">
        <ele>962.9</ele>
        <time>2024-05-26T15:26:52Z</time>
      </trkpt>
      <trkpt lat="43.73105" lon="6.62088">
        <ele>962.8</ele>
        <time>2024-05-26T15:26:53Z</time>
      </trkpt>
      <trkpt lat="43.73105" lon="6.62089">
        <ele>962.8</ele>
        <time>2024-05-26T15:26:54Z</time>
      </trkpt>
      <trkpt lat="43.73106" lon="6.62089">
        <ele>962.7</ele>
        <time>2024-05-26T15:26:55Z</time>
      </trkpt>
      <trkpt lat="43.73106" lon="6.62089">
        <ele>962.7</ele>
        <time>2024-05-26T15:26:56Z</time>
      </trkpt>
      <trkpt lat="43.73106" lon="6.62088">
        <ele>962.7</ele>
        <time>2024-05-26T15:26:57Z</time>
      </trkpt>
      <trkpt lat="43.73106" lon="6.62088">
        <ele>962.6</ele>
        <time>2024-05-26T15:26:58Z</time>
      </trkpt>
      <trkpt lat="43.73106" lon="6.62087">
        <ele>962.7</ele>
        <time>2024-05-26T15:26:59Z</time>
      </trkpt>
      <trkpt lat="43.73106" lon="6.62087">
        <ele>962.7</ele>
        <time>2024-05-26T15:27:00Z</time>
      </trkpt>
      <trkpt lat="43.73106" lon="6.62088">
        <ele>962.7</ele>
        <time>2024-05-26T15:27:01Z</time>
      </trkpt>
      <trkpt lat="43.73107" lon="6.62088">
        <ele>962.7</ele>
        <time>2024-05-26T15:27:02Z</time>
      </trkpt>
      <trkpt lat="43.73107" lon="6.62088">
        <ele>962.7</ele>
        <time>2024-05-26T15:27:03Z</time>
      </trkpt>
      <trkpt lat="43.73108" lon="6.62088">
        <ele>962.7</ele>
        <time>2024-05-26T15:27:04Z</time>
      </trkpt>
      <trkpt lat="43.73108" lon="6.62088">
        <ele>962.6</ele>
        <time>2024-05-26T15:27:05Z</time>
      </trkpt>
      <trkpt lat="43.73108" lon="6.62088">
        <ele>962.6</ele>
        <time>2024-05-26T15:27:06Z</time>
      </trkpt>
      <trkpt lat="43.73108" lon="6.62088">
        <ele>962.5</ele>
        <time>2024-05-26T15:27:07Z</time>
      </trkpt>
      <trkpt lat="43.73108" lon="6.62088">
        <ele>962.4</ele>
        <time>2024-05-26T15:27:08Z</time>
      </trkpt>
      <trkpt lat="43.73108" lon="6.62089">
        <ele>962.4</ele>
        <time>2024-05-26T15:27:09Z</time>
      </trkpt>
      <trkpt lat="43.73108" lon="6.62088">
        <ele>962.4</ele>
        <time>2024-05-26T15:27:10Z</time>
      </trkpt>
      <trkpt lat="43.73108" lon="6.62088">
        <ele>962.4</ele>
        <time>2024-05-26T15:27:11Z</time>
      </trkpt>
      <trkpt lat="43.73108" lon="6.62088">
        <ele>962.4</ele>
        <time>2024-05-26T15:27:12Z</time>
      </trkpt>
      <trkpt lat="43.73109" lon="6.62087">
        <ele>962.4</ele>
        <time>2024-05-26T15:27:13Z</time>
      </trkpt>
      <trkpt lat="43.73109" lon="6.62087">
        <ele>962.4</ele>
        <time>2024-05-26T15:27:14Z</time>
      </trkpt>
      <trkpt lat="43.73109" lon="6.62086">
        <ele>962.5</ele>
        <time>2024-05-26T15:27:15Z</time>
      </trkpt>
      <trkpt lat="43.73109" lon="6.62086">
        <ele>962.5</ele>
        <time>2024-05-26T15:27:16Z</time>
      </trkpt>
      <trkpt lat="43.73109" lon="6.62086">
        <ele>962.5</ele>
        <time>2024-05-26T15:27:17Z</time>
      </trkpt>
      <trkpt lat="43.7311" lon="6.62086">
        <ele>962.6</ele>
        <time>2024-05-26T15:27:18Z</time>
      </trkpt>
      <trkpt lat="43.7311" lon="6.62085">
        <ele>962.7</ele>
        <time>2024-05-26T15:27:19Z</time>
      </trkpt>
      <trkpt lat="43.73111" lon="6.62085">
        <ele>962.7</ele>
        <time>2024-05-26T15:27:20Z</time>
      </trkpt>
      <trkpt lat="43.73112" lon="6.62085">
        <ele>962.7</ele>
        <time>2024-05-26T15:27:21Z</time>
      </trkpt>
      <trkpt lat="43.73113" lon="6.62085">
        <ele>962.8</ele>
        <time>2024-05-26T15:27:22Z</time>
      </trkpt>
      <trkpt lat="43.73114" lon="6.62085">
        <ele>962.8</ele>
        <time>2024-05-26T15:27:23Z</time>
      </trkpt>
      <trkpt lat="43.73114" lon="6.62084">
        <ele>962.8</ele>
        <time>2024-05-26T15:27:24Z</time>
      </trkpt>
      <trkpt lat="43.73114" lon="6.62084">
        <ele>962.9</ele>
        <time>2024-05-26T15:27:25Z</time>
      </trkpt>
      <trkpt lat="43.73114" lon="6.62084">
        <ele>963</ele>
        <time>2024-05-26T15:27:26Z</time>
      </trkpt>
      <trkpt lat="43.73115" lon="6.62085">
        <ele>963</ele>
        <time>2024-05-26T15:27:27Z</time>
      </trkpt>
      <trkpt lat="43.73115" lon="6.62085">
        <ele>963</ele>
        <time>2024-05-26T15:27:28Z</time>
      </trkpt>
      <trkpt lat="43.73115" lon="6.62085">
        <ele>963</ele>
        <time>2024-05-26T15:27:29Z</time>
      </trkpt>
      <trkpt lat="43.73115" lon="6.62085">
        <ele>963</ele>
        <time>2024-05-26T15:27:30Z</time>
      </trkpt>
      <trkpt lat="43.73116" lon="6.62085">
        <ele>963</ele>
        <time>2024-05-26T15:27:31Z</time>
      </trkpt>
      <trkpt lat="43.73116" lon="6.62085">
        <ele>963</ele>
        <time>2024-05-26T15:27:32Z</time>
      </trkpt>
      <trkpt lat="43.73116" lon="6.62085">
        <ele>963</ele>
        <time>2024-05-26T15:27:33Z</time>
      </trkpt>
      <trkpt lat="43.73116" lon="6.62086">
        <ele>963</ele>
        <time>2024-05-26T15:27:34Z</time>
      </trkpt>
      <trkpt lat="43.73116" lon="6.62086">
        <ele>963</ele>
        <time>2024-05-26T15:27:35Z</time>
      </trkpt>
      <trkpt lat="43.73116" lon="6.62086">
        <ele>963</ele>
        <time>2024-05-26T15:27:36Z</time>
      </trkpt>
      <trkpt lat="43.73116" lon="6.62086">
        <ele>963</ele>
        <time>2024-05-26T15:27:37Z</time>
      </trkpt>
      <trkpt lat="43.73117" lon="6.62086">
        <ele>962.9</ele>
        <time>2024-05-26T15:27:38Z</time>
      </trkpt>
      <trkpt lat="43.73117" lon="6.62086">
        <ele>963</ele>
        <time>2024-05-26T15:27:39Z</time>
      </trkpt>
      <trkpt lat="43.73117" lon="6.62086">
        <ele>963</ele>
        <time>2024-05-26T15:27:40Z</time>
      </trkpt>
      <trkpt lat="43.73117" lon="6.62086">
        <ele>963</ele>
        <time>2024-05-26T15:27:41Z</time>
      </trkpt>
      <trkpt lat="43.73116" lon="6.62086">
        <ele>962.9</ele>
        <time>2024-05-26T15:27:42Z</time>
      </trkpt>
      <trkpt lat="43.73116" lon="6.62086">
        <ele>962.9</ele>
        <time>2024-05-26T15:27:43Z</time>
      </trkpt>
      <trkpt lat="43.73116" lon="6.62086">
        <ele>962.9</ele>
        <time>2024-05-26T15:27:44Z</time>
      </trkpt>
      <trkpt lat="43.73116" lon="6.62086">
        <ele>962.9</ele>
        <time>2024-05-26T15:27:45Z</time>
      </trkpt>
      <trkpt lat="43.73116" lon="6.62086">
        <ele>962.8</ele>
        <time>2024-05-26T15:27:46Z</time>
      </trkpt>
      <trkpt lat="43.73116" lon="6.62086">
        <ele>962.8</ele>
        <time>2024-05-26T15:27:47Z</time>
      </trkpt>
      <trkpt lat="43.73116" lon="6.62086">
        <ele>962.9</ele>
        <time>2024-05-26T15:27:48Z</time>
      </trkpt>
      <trkpt lat="43.73116" lon="6.62086">
        <ele>962.8</ele>
        <time>2024-05-26T15:27:49Z</time>
      </trkpt>
      <trkpt lat="43.73116" lon="6.62086">
        <ele>962.9</ele>
        <time>2024-05-26T15:27:50Z</time>
      </trkpt>
      <trkpt lat="43.73115" lon="6.62086">
        <ele>962.9</ele>
        <time>2024-05-26T15:27:51Z</time>
      </trkpt>
      <trkpt lat="43.73115" lon="6.62087">
        <ele>962.9</ele>
        <time>2024-05-26T15:27:52Z</time>
      </trkpt>
      <trkpt lat="43.73115" lon="6.62086">
        <ele>962.9</ele>
        <time>2024-05-26T15:27:53Z</time>
      </trkpt>
      <trkpt lat="43.73115" lon="6.62087">
        <ele>963</ele>
        <time>2024-05-26T15:27:54Z</time>
      </trkpt>
      <trkpt lat="43.73116" lon="6.62086">
        <ele>963</ele>
        <time>2024-05-26T15:27:55Z</time>
      </trkpt>
      <trkpt lat="43.73116" lon="6.62087">
        <ele>963.1</ele>
        <time>2024-05-26T15:27:56Z</time>
      </trkpt>
      <trkpt lat="43.73116" lon="6.62087">
        <ele>963</ele>
        <time>2024-05-26T15:27:57Z</time>
      </trkpt>
      <trkpt lat="43.73116" lon="6.62087">
        <ele>963.1</ele>
        <time>2024-05-26T15:27:58Z</time>
      </trkpt>
      <trkpt lat="43.73115" lon="6.62086">
        <ele>963.2</ele>
        <time>2024-05-26T15:27:59Z</time>
      </trkpt>
      <trkpt lat="43.73115" lon="6.62086">
        <ele>963.2</ele>
        <time>2024-05-26T15:28:00Z</time>
      </trkpt>
      <trkpt lat="43.73116" lon="6.62086">
        <ele>963.3</ele>
        <time>2024-05-26T15:28:01Z</time>
      </trkpt>
      <trkpt lat="43.73116" lon="6.62086">
        <ele>963.3</ele>
        <time>2024-05-26T15:28:02Z</time>
      </trkpt>
      <trkpt lat="43.73116" lon="6.62085">
        <ele>963.3</ele>
        <time>2024-05-26T15:28:03Z</time>
      </trkpt>
      <trkpt lat="43.73116" lon="6.62085">
        <ele>963.3</ele>
        <time>2024-05-26T15:28:04Z</time>
      </trkpt>
      <trkpt lat="43.73116" lon="6.62085">
        <ele>963.3</ele>
        <time>2024-05-26T15:28:05Z</time>
      </trkpt>
      <trkpt lat="43.73116" lon="6.62085">
        <ele>963.3</ele>
        <time>2024-05-26T15:28:06Z</time>
      </trkpt>
      <trkpt lat="43.73116" lon="6.62084">
        <ele>963.3</ele>
        <time>2024-05-26T15:28:07Z</time>
      </trkpt>
      <trkpt lat="43.73116" lon="6.62084">
        <ele>963.4</ele>
        <time>2024-05-26T15:28:08Z</time>
      </trkpt>
      <trkpt lat="43.73115" lon="6.62084">
        <ele>963.4</ele>
        <time>2024-05-26T15:28:09Z</time>
      </trkpt>
      <trkpt lat="43.73115" lon="6.62084">
        <ele>963.4</ele>
        <time>2024-05-26T15:28:10Z</time>
      </trkpt>
      <trkpt lat="43.73116" lon="6.62084">
        <ele>963.4</ele>
        <time>2024-05-26T15:28:11Z</time>
      </trkpt>
      <trkpt lat="43.73116" lon="6.62084">
        <ele>963.4</ele>
        <time>2024-05-26T15:28:12Z</time>
      </trkpt>
      <trkpt lat="43.73116" lon="6.62083">
        <ele>963.4</ele>
        <time>2024-05-26T15:28:13Z</time>
      </trkpt>
      <trkpt lat="43.73116" lon="6.62083">
        <ele>963.4</ele>
        <time>2024-05-26T15:28:14Z</time>
      </trkpt>
      <trkpt lat="43.73116" lon="6.62083">
        <ele>963.4</ele>
        <time>2024-05-26T15:28:15Z</time>
      </trkpt>
      <trkpt lat="43.73116" lon="6.62084">
        <ele>963.4</ele>
        <time>2024-05-26T15:28:16Z</time>
      </trkpt>
      <trkpt lat="43.73116" lon="6.62084">
        <ele>963.3</ele>
        <time>2024-05-26T15:28:17Z</time>
      </trkpt>
      <trkpt lat="43.73116" lon="6.62084">
        <ele>963.3</ele>
        <time>2024-05-26T15:28:18Z</time>
      </trkpt>
      <trkpt lat="43.73116" lon="6.62084">
        <ele>963.3</ele>
        <time>2024-05-26T15:28:19Z</time>
      </trkpt>
      <trkpt lat="43.73116" lon="6.62084">
        <ele>963.3</ele>
        <time>2024-05-26T15:28:20Z</time>
      </trkpt>
      <trkpt lat="43.73116" lon="6.62084">
        <ele>963.4</ele>
        <time>2024-05-26T15:28:21Z</time>
      </trkpt>
      <trkpt lat="43.73116" lon="6.62084">
        <ele>963.5</ele>
        <time>2024-05-26T15:28:22Z</time>
      </trkpt>
      <trkpt lat="43.73116" lon="6.62084">
        <ele>963.5</ele>
        <time>2024-05-26T15:28:23Z</time>
      </trkpt>
      <trkpt lat="43.73117" lon="6.62084">
        <ele>963.5</ele>
        <time>2024-05-26T15:28:24Z</time>
      </trkpt>
      <trkpt lat="43.73117" lon="6.62084">
        <ele>963.5</ele>
        <time>2024-05-26T15:28:25Z</time>
      </trkpt>
      <trkpt lat="43.73117" lon="6.62084">
        <ele>963.4</ele>
        <time>2024-05-26T15:28:26Z</time>
      </trkpt>
      <trkpt lat="43.73118" lon="6.62084">
        <ele>963.3</ele>
        <time>2024-05-26T15:28:27Z</time>
      </trkpt>
      <trkpt lat="43.73118" lon="6.62084">
        <ele>963.2</ele>
        <time>2024-05-26T15:28:28Z</time>
      </trkpt>
      <trkpt lat="43.73118" lon="6.62084">
        <ele>963.2</ele>
        <time>2024-05-26T15:28:29Z</time>
      </trkpt>
      <trkpt lat="43.73118" lon="6.62083">
        <ele>963.3</ele>
        <time>2024-05-26T15:28:30Z</time>
      </trkpt>
      <trkpt lat="43.73118" lon="6.62083">
        <ele>963.4</ele>
        <time>2024-05-26T15:28:31Z</time>
      </trkpt>
      <trkpt lat="43.73118" lon="6.62083">
        <ele>963.4</ele>
        <time>2024-05-26T15:28:32Z</time>
      </trkpt>
      <trkpt lat="43.73118" lon="6.62083">
        <ele>963.5</ele>
        <time>2024-05-26T15:28:33Z</time>
      </trkpt>
      <trkpt lat="43.73118" lon="6.62084">
        <ele>963.5</ele>
        <time>2024-05-26T15:28:34Z</time>
      </trkpt>
      <trkpt lat="43.73117" lon="6.62084">
        <ele>963.5</ele>
        <time>2024-05-26T15:28:35Z</time>
      </trkpt>
      <trkpt lat="43.73116" lon="6.62084">
        <ele>963.4</ele>
        <time>2024-05-26T15:28:36Z</time>
      </trkpt>
      <trkpt lat="43.73115" lon="6.62085">
        <ele>963.4</ele>
        <time>2024-05-26T15:28:37Z</time>
      </trkpt>
      <trkpt lat="43.73114" lon="6.62086">
        <ele>963.4</ele>
        <time>2024-05-26T15:28:38Z</time>
      </trkpt>
      <trkpt lat="43.73112" lon="6.62086">
        <ele>962.9</ele>
        <time>2024-05-26T15:28:39Z</time>
      </trkpt>
      <trkpt lat="43.73111" lon="6.62087">
        <ele>962.5</ele>
        <time>2024-05-26T15:28:40Z</time>
      </trkpt>
      <trkpt lat="43.73111" lon="6.62088">
        <ele>962.4</ele>
        <time>2024-05-26T15:28:41Z</time>
      </trkpt>
      <trkpt lat="43.73111" lon="6.6209">
        <ele>961.2</ele>
        <time>2024-05-26T15:28:42Z</time>
      </trkpt>
      <trkpt lat="43.73111" lon="6.6209">
        <ele>961.3</ele>
        <time>2024-05-26T15:28:43Z</time>
      </trkpt>
      <trkpt lat="43.73111" lon="6.6209">
        <ele>961.6</ele>
        <time>2024-05-26T15:28:44Z</time>
      </trkpt>
      <trkpt lat="43.73111" lon="6.6209">
        <ele>961.7</ele>
        <time>2024-05-26T15:28:45Z</time>
      </trkpt>
      <trkpt lat="43.73111" lon="6.6209">
        <ele>961.8</ele>
        <time>2024-05-26T15:28:46Z</time>
      </trkpt>
      <trkpt lat="43.73111" lon="6.62091">
        <ele>962</ele>
        <time>2024-05-26T15:28:47Z</time>
      </trkpt>
      <trkpt lat="43.73111" lon="6.62091">
        <ele>962</ele>
        <time>2024-05-26T15:28:48Z</time>
      </trkpt>
      <trkpt lat="43.7311" lon="6.62091">
        <ele>962.1</ele>
        <time>2024-05-26T15:28:49Z</time>
      </trkpt>
      <trkpt lat="43.7311" lon="6.62091">
        <ele>962.2</ele>
        <time>2024-05-26T15:28:49Z</time>
      </trkpt>
      <trkpt lat="43.7311" lon="6.62091">
        <ele>962.2</ele>
        <time>2024-05-26T15:28:50Z</time>
      </trkpt>
      <trkpt lat="43.7311" lon="6.6209">
        <ele>962.4</ele>
        <time>2024-05-26T15:28:51Z</time>
      </trkpt>
      <trkpt lat="43.7311" lon="6.6209">
        <ele>962.4</ele>
        <time>2024-05-26T15:28:52Z</time>
      </trkpt>
      <trkpt lat="43.7311" lon="6.6209">
        <ele>962.5</ele>
        <time>2024-05-26T15:28:53Z</time>
      </trkpt>
      <trkpt lat="43.7311" lon="6.6209">
        <ele>962.6</ele>
        <time>2024-05-26T15:28:54Z</time>
      </trkpt>
      <trkpt lat="43.7311" lon="6.6209">
        <ele>962.7</ele>
        <time>2024-05-26T15:28:55Z</time>
      </trkpt>
      <trkpt lat="43.7311" lon="6.6209">
        <ele>962.7</ele>
        <time>2024-05-26T15:28:56Z</time>
      </trkpt>
      <trkpt lat="43.7311" lon="6.6209">
        <ele>962.8</ele>
        <time>2024-05-26T15:28:57Z</time>
      </trkpt>
      <trkpt lat="43.73109" lon="6.62091">
        <ele>962.8</ele>
        <time>2024-05-26T15:28:58Z</time>
      </trkpt>
      <trkpt lat="43.73109" lon="6.62091">
        <ele>962.9</ele>
        <time>2024-05-26T15:28:59Z</time>
      </trkpt>
      <trkpt lat="43.73109" lon="6.62091">
        <ele>962.9</ele>
        <time>2024-05-26T15:28:59Z</time>
      </trkpt>
    </trkseg>
  </trk>
</gpx>